<?xml version="1.0" encoding="UTF-8" standalone="no" ?>
<gpx xmlns="http://www.topografix.com/GPX/1/1" xmlns:xsi="http://www.w3.org/2001/XMLSchema-instance" xsi:schemaLocation="http://www.topografix.com/GPX/1/1 http://www.topografix.com/GPX/1/1/gpx.xsd" version="1.1" creator="VisuGPX - https://www.visugpx.com">
  <metadata>
    <name>Sun Trip 2019</name>
    <desc><![CDATA[Le parcours du Sun Trip 2019]]></desc>
  </metadata>
  <trk>
    <name><![CDATA[J7]]></name>
    <trkseg>
      <trkpt lat="46.35564" lon="6.1466">
        <ele>472</ele>
        <time>2019-04-16T10:23:05Z</time>
      </trkpt>
      <trkpt lat="46.35565" lon="6.14653">
        <ele>472</ele>
        <time>2019-04-16T10:24:05Z</time>
      </trkpt>
      <trkpt lat="46.35565" lon="6.14648">
        <ele>472</ele>
        <time>2019-04-16T10:25:05Z</time>
      </trkpt>
      <trkpt lat="46.35561" lon="6.14639">
        <ele>472</ele>
        <time>2019-04-16T10:26:05Z</time>
      </trkpt>
      <trkpt lat="46.35558" lon="6.14636">
        <ele>472</ele>
        <time>2019-04-16T10:27:05Z</time>
      </trkpt>
      <trkpt lat="46.35552" lon="6.14633">
        <ele>472</ele>
        <time>2019-04-16T10:28:05Z</time>
      </trkpt>
      <trkpt lat="46.35543" lon="6.14638">
        <ele>472</ele>
        <time>2019-04-16T10:29:05Z</time>
      </trkpt>
      <trkpt lat="46.35528" lon="6.1463">
        <ele>472</ele>
        <time>2019-04-16T10:30:05Z</time>
      </trkpt>
      <trkpt lat="46.35261" lon="6.14266">
        <ele>475</ele>
        <time>2019-04-16T10:31:05Z</time>
      </trkpt>
      <trkpt lat="46.35208" lon="6.14197">
        <ele>475</ele>
        <time>2019-04-16T10:32:05Z</time>
      </trkpt>
      <trkpt lat="46.35209" lon="6.14188">
        <ele>475</ele>
        <time>2019-04-16T10:33:05Z</time>
      </trkpt>
      <trkpt lat="46.35206" lon="6.1418">
        <ele>475</ele>
        <time>2019-04-16T10:34:05Z</time>
      </trkpt>
      <trkpt lat="46.35198" lon="6.14176">
        <ele>475</ele>
        <time>2019-04-16T10:35:05Z</time>
      </trkpt>
      <trkpt lat="46.35193" lon="6.14178">
        <ele>475</ele>
        <time>2019-04-16T10:36:05Z</time>
      </trkpt>
      <trkpt lat="46.35189" lon="6.14187">
        <ele>475</ele>
        <time>2019-04-16T10:37:05Z</time>
      </trkpt>
      <trkpt lat="46.35191" lon="6.14198">
        <ele>475</ele>
        <time>2019-04-16T10:38:05Z</time>
      </trkpt>
      <trkpt lat="46.34812" lon="6.14763">
        <ele>470</ele>
        <time>2019-04-16T10:39:05Z</time>
      </trkpt>
      <trkpt lat="46.34772" lon="6.1482">
        <ele>468</ele>
        <time>2019-04-16T10:40:05Z</time>
      </trkpt>
      <trkpt lat="46.34753" lon="6.14823">
        <ele>467</ele>
        <time>2019-04-16T10:41:05Z</time>
      </trkpt>
      <trkpt lat="46.34745" lon="6.14832">
        <ele>467</ele>
        <time>2019-04-16T10:42:05Z</time>
      </trkpt>
      <trkpt lat="46.34743" lon="6.14842">
        <ele>467</ele>
        <time>2019-04-16T10:43:05Z</time>
      </trkpt>
      <trkpt lat="46.34744" lon="6.14851">
        <ele>467</ele>
        <time>2019-04-16T10:44:05Z</time>
      </trkpt>
      <trkpt lat="46.34696" lon="6.14923">
        <ele>468</ele>
        <time>2019-04-16T10:45:05Z</time>
      </trkpt>
      <trkpt lat="46.34668" lon="6.14972">
        <ele>467</ele>
        <time>2019-04-16T10:46:05Z</time>
      </trkpt>
      <trkpt lat="46.34666" lon="6.14987">
        <ele>467</ele>
        <time>2019-04-16T10:47:05Z</time>
      </trkpt>
      <trkpt lat="46.34642" lon="6.15042">
        <ele>468</ele>
        <time>2019-04-16T10:48:05Z</time>
      </trkpt>
      <trkpt lat="46.34585" lon="6.15205">
        <ele>467</ele>
        <time>2019-04-16T10:49:05Z</time>
      </trkpt>
      <trkpt lat="46.34573" lon="6.15227">
        <ele>466</ele>
        <time>2019-04-16T10:50:05Z</time>
      </trkpt>
      <trkpt lat="46.34567" lon="6.15247">
        <ele>465</ele>
        <time>2019-04-16T10:51:05Z</time>
      </trkpt>
      <trkpt lat="46.34564" lon="6.15274">
        <ele>466</ele>
        <time>2019-04-16T10:52:05Z</time>
      </trkpt>
      <trkpt lat="46.34549" lon="6.1533">
        <ele>466</ele>
        <time>2019-04-16T10:53:05Z</time>
      </trkpt>
      <trkpt lat="46.34491" lon="6.15516">
        <ele>470</ele>
        <time>2019-04-16T10:54:05Z</time>
      </trkpt>
      <trkpt lat="46.34475" lon="6.15556">
        <ele>469</ele>
        <time>2019-04-16T10:55:05Z</time>
      </trkpt>
      <trkpt lat="46.34451" lon="6.15604">
        <ele>468</ele>
        <time>2019-04-16T10:56:05Z</time>
      </trkpt>
      <trkpt lat="46.34284" lon="6.15905">
        <ele>471</ele>
        <time>2019-04-16T10:57:05Z</time>
      </trkpt>
      <trkpt lat="46.34275" lon="6.15902">
        <ele>471</ele>
        <time>2019-04-16T10:58:05Z</time>
      </trkpt>
      <trkpt lat="46.34269" lon="6.15907">
        <ele>471</ele>
        <time>2019-04-16T10:59:05Z</time>
      </trkpt>
      <trkpt lat="46.34267" lon="6.15917">
        <ele>471</ele>
        <time>2019-04-16T11:00:05Z</time>
      </trkpt>
      <trkpt lat="46.34269" lon="6.15926">
        <ele>471</ele>
        <time>2019-04-16T11:01:05Z</time>
      </trkpt>
      <trkpt lat="46.34272" lon="6.1593">
        <ele>471</ele>
        <time>2019-04-16T11:02:05Z</time>
      </trkpt>
      <trkpt lat="46.34148" lon="6.16154">
        <ele>476</ele>
        <time>2019-04-16T11:03:05Z</time>
      </trkpt>
      <trkpt lat="46.34089" lon="6.16253">
        <ele>479</ele>
        <time>2019-04-16T11:04:05Z</time>
      </trkpt>
      <trkpt lat="46.34063" lon="6.16304">
        <ele>479</ele>
        <time>2019-04-16T11:05:05Z</time>
      </trkpt>
      <trkpt lat="46.34039" lon="6.16356">
        <ele>479</ele>
        <time>2019-04-16T11:06:05Z</time>
      </trkpt>
      <trkpt lat="46.33993" lon="6.16437">
        <ele>479</ele>
        <time>2019-04-16T11:07:05Z</time>
      </trkpt>
      <trkpt lat="46.33985" lon="6.16443">
        <ele>479</ele>
        <time>2019-04-16T11:08:05Z</time>
      </trkpt>
      <trkpt lat="46.33955" lon="6.16495">
        <ele>477</ele>
        <time>2019-04-16T11:09:05Z</time>
      </trkpt>
      <trkpt lat="46.3395" lon="6.16513">
        <ele>477</ele>
        <time>2019-04-16T11:10:05Z</time>
      </trkpt>
      <trkpt lat="46.33941" lon="6.16527">
        <ele>476</ele>
        <time>2019-04-16T11:11:05Z</time>
      </trkpt>
      <trkpt lat="46.33865" lon="6.16625">
        <ele>474</ele>
        <time>2019-04-16T11:12:05Z</time>
      </trkpt>
      <trkpt lat="46.33856" lon="6.16634">
        <ele>473</ele>
        <time>2019-04-16T11:13:05Z</time>
      </trkpt>
      <trkpt lat="46.33848" lon="6.16627">
        <ele>473</ele>
        <time>2019-04-16T11:14:05Z</time>
      </trkpt>
      <trkpt lat="46.33841" lon="6.16629">
        <ele>473</ele>
        <time>2019-04-16T11:15:05Z</time>
      </trkpt>
      <trkpt lat="46.33838" lon="6.16634">
        <ele>473</ele>
        <time>2019-04-16T11:16:05Z</time>
      </trkpt>
      <trkpt lat="46.33836" lon="6.16648">
        <ele>472</ele>
        <time>2019-04-16T11:17:05Z</time>
      </trkpt>
      <trkpt lat="46.33754" lon="6.16685">
        <ele>470</ele>
        <time>2019-04-16T11:18:05Z</time>
      </trkpt>
      <trkpt lat="46.33673" lon="6.16719">
        <ele>465</ele>
        <time>2019-04-16T11:19:05Z</time>
      </trkpt>
      <trkpt lat="46.33608" lon="6.1675">
        <ele>459</ele>
        <time>2019-04-16T11:20:05Z</time>
      </trkpt>
      <trkpt lat="46.33476" lon="6.16808">
        <ele>451</ele>
        <time>2019-04-16T11:21:05Z</time>
      </trkpt>
      <trkpt lat="46.33083" lon="6.16965">
        <ele>437</ele>
        <time>2019-04-16T11:22:05Z</time>
      </trkpt>
      <trkpt lat="46.32957" lon="6.17053">
        <ele>436</ele>
        <time>2019-04-16T11:23:05Z</time>
      </trkpt>
      <trkpt lat="46.32915" lon="6.17073">
        <ele>435</ele>
        <time>2019-04-16T11:24:05Z</time>
      </trkpt>
      <trkpt lat="46.32879" lon="6.17087">
        <ele>435</ele>
        <time>2019-04-16T11:25:05Z</time>
      </trkpt>
      <trkpt lat="46.32843" lon="6.17095">
        <ele>435</ele>
        <time>2019-04-16T11:26:05Z</time>
      </trkpt>
      <trkpt lat="46.32763" lon="6.17103">
        <ele>434</ele>
        <time>2019-04-16T11:27:05Z</time>
      </trkpt>
      <trkpt lat="46.32603" lon="6.17129">
        <ele>431</ele>
        <time>2019-04-16T11:28:05Z</time>
      </trkpt>
      <trkpt lat="46.3254" lon="6.17155">
        <ele>428</ele>
        <time>2019-04-16T11:29:05Z</time>
      </trkpt>
      <trkpt lat="46.32476" lon="6.17176">
        <ele>426</ele>
        <time>2019-04-16T11:30:05Z</time>
      </trkpt>
      <trkpt lat="46.32411" lon="6.17209">
        <ele>426</ele>
        <time>2019-04-16T11:31:05Z</time>
      </trkpt>
      <trkpt lat="46.32382" lon="6.17228">
        <ele>426</ele>
        <time>2019-04-16T11:32:05Z</time>
      </trkpt>
      <trkpt lat="46.32268" lon="6.1732">
        <ele>427</ele>
        <time>2019-04-16T11:33:05Z</time>
      </trkpt>
      <trkpt lat="46.32241" lon="6.17335">
        <ele>427</ele>
        <time>2019-04-16T11:34:05Z</time>
      </trkpt>
      <trkpt lat="46.32181" lon="6.17344">
        <ele>428</ele>
        <time>2019-04-16T11:35:05Z</time>
      </trkpt>
      <trkpt lat="46.32125" lon="6.17357">
        <ele>426</ele>
        <time>2019-04-16T11:36:05Z</time>
      </trkpt>
      <trkpt lat="46.32087" lon="6.17362">
        <ele>425</ele>
        <time>2019-04-16T11:37:05Z</time>
      </trkpt>
      <trkpt lat="46.32063" lon="6.17371">
        <ele>424</ele>
        <time>2019-04-16T11:38:05Z</time>
      </trkpt>
      <trkpt lat="46.32034" lon="6.17386">
        <ele>424</ele>
        <time>2019-04-16T11:39:05Z</time>
      </trkpt>
      <trkpt lat="46.32006" lon="6.17417">
        <ele>423</ele>
        <time>2019-04-16T11:40:05Z</time>
      </trkpt>
      <trkpt lat="46.32" lon="6.1742">
        <ele>423</ele>
        <time>2019-04-16T11:41:05Z</time>
      </trkpt>
      <trkpt lat="46.3199" lon="6.17419">
        <ele>423</ele>
        <time>2019-04-16T11:42:05Z</time>
      </trkpt>
      <trkpt lat="46.31926" lon="6.17372">
        <ele>424</ele>
        <time>2019-04-16T11:43:05Z</time>
      </trkpt>
      <trkpt lat="46.31836" lon="6.17348">
        <ele>421</ele>
        <time>2019-04-16T11:44:05Z</time>
      </trkpt>
      <trkpt lat="46.31818" lon="6.17346">
        <ele>421</ele>
        <time>2019-04-16T11:45:05Z</time>
      </trkpt>
      <trkpt lat="46.31817" lon="6.1734">
        <ele>421</ele>
        <time>2019-04-16T11:46:05Z</time>
      </trkpt>
      <trkpt lat="46.31796" lon="6.1732">
        <ele>421</ele>
        <time>2019-04-16T11:47:05Z</time>
      </trkpt>
      <trkpt lat="46.31759" lon="6.1726">
        <ele>422</ele>
        <time>2019-04-16T11:48:05Z</time>
      </trkpt>
      <trkpt lat="46.31748" lon="6.1725">
        <ele>422</ele>
        <time>2019-04-16T11:49:05Z</time>
      </trkpt>
      <trkpt lat="46.31746" lon="6.1723">
        <ele>422</ele>
        <time>2019-04-16T11:50:05Z</time>
      </trkpt>
      <trkpt lat="46.31724" lon="6.17165">
        <ele>423</ele>
        <time>2019-04-16T11:51:05Z</time>
      </trkpt>
      <trkpt lat="46.31691" lon="6.17047">
        <ele>425</ele>
        <time>2019-04-16T11:52:05Z</time>
      </trkpt>
      <trkpt lat="46.31679" lon="6.17023">
        <ele>426</ele>
        <time>2019-04-16T11:53:05Z</time>
      </trkpt>
      <trkpt lat="46.31588" lon="6.16947">
        <ele>425</ele>
        <time>2019-04-16T11:54:05Z</time>
      </trkpt>
      <trkpt lat="46.3157" lon="6.16928">
        <ele>425</ele>
        <time>2019-04-16T11:55:05Z</time>
      </trkpt>
      <trkpt lat="46.31547" lon="6.16893">
        <ele>425</ele>
        <time>2019-04-16T11:56:05Z</time>
      </trkpt>
      <trkpt lat="46.31465" lon="6.16787">
        <ele>425</ele>
        <time>2019-04-16T11:57:05Z</time>
      </trkpt>
      <trkpt lat="46.31432" lon="6.16752">
        <ele>426</ele>
        <time>2019-04-16T11:58:05Z</time>
      </trkpt>
      <trkpt lat="46.31378" lon="6.16713">
        <ele>425</ele>
        <time>2019-04-16T11:59:05Z</time>
      </trkpt>
      <trkpt lat="46.31333" lon="6.16689">
        <ele>424</ele>
        <time>2019-04-16T12:00:05Z</time>
      </trkpt>
      <trkpt lat="46.31306" lon="6.1667">
        <ele>424</ele>
        <time>2019-04-16T12:01:05Z</time>
      </trkpt>
      <trkpt lat="46.3128" lon="6.16647">
        <ele>424</ele>
        <time>2019-04-16T12:02:05Z</time>
      </trkpt>
      <trkpt lat="46.31231" lon="6.16596">
        <ele>424</ele>
        <time>2019-04-16T12:03:05Z</time>
      </trkpt>
      <trkpt lat="46.3122" lon="6.16583">
        <ele>423</ele>
        <time>2019-04-16T12:04:05Z</time>
      </trkpt>
      <trkpt lat="46.3118" lon="6.16521">
        <ele>424</ele>
        <time>2019-04-16T12:05:05Z</time>
      </trkpt>
      <trkpt lat="46.31162" lon="6.16501">
        <ele>424</ele>
        <time>2019-04-16T12:06:05Z</time>
      </trkpt>
      <trkpt lat="46.311" lon="6.16458">
        <ele>422</ele>
        <time>2019-04-16T12:07:05Z</time>
      </trkpt>
      <trkpt lat="46.31039" lon="6.16421">
        <ele>421</ele>
        <time>2019-04-16T12:08:05Z</time>
      </trkpt>
      <trkpt lat="46.31" lon="6.16385">
        <ele>422</ele>
        <time>2019-04-16T12:09:05Z</time>
      </trkpt>
      <trkpt lat="46.30975" lon="6.16356">
        <ele>423</ele>
        <time>2019-04-16T12:10:05Z</time>
      </trkpt>
      <trkpt lat="46.30943" lon="6.16303">
        <ele>424</ele>
        <time>2019-04-16T12:11:05Z</time>
      </trkpt>
      <trkpt lat="46.30932" lon="6.16282">
        <ele>424</ele>
        <time>2019-04-16T12:12:05Z</time>
      </trkpt>
      <trkpt lat="46.30916" lon="6.16243">
        <ele>426</ele>
        <time>2019-04-16T12:13:05Z</time>
      </trkpt>
      <trkpt lat="46.30894" lon="6.16204">
        <ele>425</ele>
        <time>2019-04-16T12:14:05Z</time>
      </trkpt>
      <trkpt lat="46.30862" lon="6.16155">
        <ele>424</ele>
        <time>2019-04-16T12:15:05Z</time>
      </trkpt>
      <trkpt lat="46.30855" lon="6.16146">
        <ele>424</ele>
        <time>2019-04-16T12:16:05Z</time>
      </trkpt>
      <trkpt lat="46.30832" lon="6.16109">
        <ele>423</ele>
        <time>2019-04-16T12:17:05Z</time>
      </trkpt>
      <trkpt lat="46.30825" lon="6.16105">
        <ele>423</ele>
        <time>2019-04-16T12:18:05Z</time>
      </trkpt>
      <trkpt lat="46.30821" lon="6.16108">
        <ele>423</ele>
        <time>2019-04-16T12:19:05Z</time>
      </trkpt>
      <trkpt lat="46.30737" lon="6.163">
        <ele>421</ele>
        <time>2019-04-16T12:20:05Z</time>
      </trkpt>
      <trkpt lat="46.30706" lon="6.16301">
        <ele>422</ele>
        <time>2019-04-16T12:21:05Z</time>
      </trkpt>
      <trkpt lat="46.30692" lon="6.16308">
        <ele>422</ele>
        <time>2019-04-16T12:22:05Z</time>
      </trkpt>
      <trkpt lat="46.30687" lon="6.16294">
        <ele>422</ele>
        <time>2019-04-16T12:23:05Z</time>
      </trkpt>
      <trkpt lat="46.30677" lon="6.1628">
        <ele>421</ele>
        <time>2019-04-16T12:24:05Z</time>
      </trkpt>
      <trkpt lat="46.30662" lon="6.16266">
        <ele>421</ele>
        <time>2019-04-16T12:25:05Z</time>
      </trkpt>
      <trkpt lat="46.30648" lon="6.16258">
        <ele>421</ele>
        <time>2019-04-16T12:26:05Z</time>
      </trkpt>
      <trkpt lat="46.30648" lon="6.16261">
        <ele>421</ele>
        <time>2019-04-16T12:27:05Z</time>
      </trkpt>
      <trkpt lat="46.30109" lon="6.16198">
        <ele>431</ele>
        <time>2019-04-16T12:28:05Z</time>
      </trkpt>
      <trkpt lat="46.30107" lon="6.16203">
        <ele>430</ele>
        <time>2019-04-16T12:29:05Z</time>
      </trkpt>
      <trkpt lat="46.30058" lon="6.16163">
        <ele>430</ele>
        <time>2019-04-16T12:30:05Z</time>
      </trkpt>
      <trkpt lat="46.30038" lon="6.16143">
        <ele>430</ele>
        <time>2019-04-16T12:31:05Z</time>
      </trkpt>
      <trkpt lat="46.30076" lon="6.16049">
        <ele>434</ele>
        <time>2019-04-16T12:32:05Z</time>
      </trkpt>
      <trkpt lat="46.30034" lon="6.15881">
        <ele>434</ele>
        <time>2019-04-16T12:33:05Z</time>
      </trkpt>
      <trkpt lat="46.2999" lon="6.15749">
        <ele>436</ele>
        <time>2019-04-16T12:34:05Z</time>
      </trkpt>
      <trkpt lat="46.29904" lon="6.15583">
        <ele>431</ele>
        <time>2019-04-16T12:35:05Z</time>
      </trkpt>
      <trkpt lat="46.29842" lon="6.15505">
        <ele>428</ele>
        <time>2019-04-16T12:36:05Z</time>
      </trkpt>
      <trkpt lat="46.29787" lon="6.15443">
        <ele>427</ele>
        <time>2019-04-16T12:37:05Z</time>
      </trkpt>
      <trkpt lat="46.29823" lon="6.15373">
        <ele>433</ele>
        <time>2019-04-16T12:38:05Z</time>
      </trkpt>
      <trkpt lat="46.29828" lon="6.15362">
        <ele>434</ele>
        <time>2019-04-16T12:39:05Z</time>
      </trkpt>
      <trkpt lat="46.29636" lon="6.15148">
        <ele>429</ele>
        <time>2019-04-16T12:40:05Z</time>
      </trkpt>
      <trkpt lat="46.29444" lon="6.14929">
        <ele>434</ele>
        <time>2019-04-16T12:41:05Z</time>
      </trkpt>
      <trkpt lat="46.29754" lon="6.1436">
        <ele>436</ele>
        <time>2019-04-16T12:42:05Z</time>
      </trkpt>
      <trkpt lat="46.29306" lon="6.13928">
        <ele>443</ele>
        <time>2019-04-16T12:43:05Z</time>
      </trkpt>
      <trkpt lat="46.28873" lon="6.13506">
        <ele>437</ele>
        <time>2019-04-16T12:44:05Z</time>
      </trkpt>
      <trkpt lat="46.28857" lon="6.13497">
        <ele>436</ele>
        <time>2019-04-16T12:45:05Z</time>
      </trkpt>
      <trkpt lat="46.28847" lon="6.13495">
        <ele>436</ele>
        <time>2019-04-16T12:46:05Z</time>
      </trkpt>
      <trkpt lat="46.28609" lon="6.13491">
        <ele>440</ele>
        <time>2019-04-16T12:47:05Z</time>
      </trkpt>
      <trkpt lat="46.28585" lon="6.13492">
        <ele>439</ele>
        <time>2019-04-16T12:48:05Z</time>
      </trkpt>
      <trkpt lat="46.28509" lon="6.13226">
        <ele>435</ele>
        <time>2019-04-16T12:49:05Z</time>
      </trkpt>
      <trkpt lat="46.28511" lon="6.13204">
        <ele>433</ele>
        <time>2019-04-16T12:50:05Z</time>
      </trkpt>
      <trkpt lat="46.28529" lon="6.13151">
        <ele>429</ele>
        <time>2019-04-16T12:51:05Z</time>
      </trkpt>
      <trkpt lat="46.28528" lon="6.13137">
        <ele>427</ele>
        <time>2019-04-16T12:52:05Z</time>
      </trkpt>
      <trkpt lat="46.28523" lon="6.13131">
        <ele>427</ele>
        <time>2019-04-16T12:53:05Z</time>
      </trkpt>
      <trkpt lat="46.28474" lon="6.13112">
        <ele>424</ele>
        <time>2019-04-16T12:54:05Z</time>
      </trkpt>
      <trkpt lat="46.28457" lon="6.13099">
        <ele>422</ele>
        <time>2019-04-16T12:55:05Z</time>
      </trkpt>
      <trkpt lat="46.2845" lon="6.1309">
        <ele>421</ele>
        <time>2019-04-16T12:56:05Z</time>
      </trkpt>
      <trkpt lat="46.28432" lon="6.13078">
        <ele>420</ele>
        <time>2019-04-16T12:57:05Z</time>
      </trkpt>
      <trkpt lat="46.28455" lon="6.12997">
        <ele>420</ele>
        <time>2019-04-16T12:58:05Z</time>
      </trkpt>
      <trkpt lat="46.28457" lon="6.12986">
        <ele>420</ele>
        <time>2019-04-16T12:59:05Z</time>
      </trkpt>
      <trkpt lat="46.28453" lon="6.12978">
        <ele>420</ele>
        <time>2019-04-16T13:00:05Z</time>
      </trkpt>
      <trkpt lat="46.28446" lon="6.12973">
        <ele>420</ele>
        <time>2019-04-16T13:01:05Z</time>
      </trkpt>
      <trkpt lat="46.28425" lon="6.12971">
        <ele>420</ele>
        <time>2019-04-16T13:02:05Z</time>
      </trkpt>
      <trkpt lat="46.2839" lon="6.12961">
        <ele>423</ele>
        <time>2019-04-16T13:03:05Z</time>
      </trkpt>
      <trkpt lat="46.28325" lon="6.12928">
        <ele>432</ele>
        <time>2019-04-16T13:04:05Z</time>
      </trkpt>
      <trkpt lat="46.28315" lon="6.12922">
        <ele>434</ele>
        <time>2019-04-16T13:05:05Z</time>
      </trkpt>
      <trkpt lat="46.28305" lon="6.12913">
        <ele>436</ele>
        <time>2019-04-16T13:06:05Z</time>
      </trkpt>
      <trkpt lat="46.2829" lon="6.12897">
        <ele>440</ele>
        <time>2019-04-16T13:07:05Z</time>
      </trkpt>
      <trkpt lat="46.28268" lon="6.1286">
        <ele>444</ele>
        <time>2019-04-16T13:08:05Z</time>
      </trkpt>
      <trkpt lat="46.28252" lon="6.12838">
        <ele>446</ele>
        <time>2019-04-16T13:09:05Z</time>
      </trkpt>
      <trkpt lat="46.28232" lon="6.12817">
        <ele>446</ele>
        <time>2019-04-16T13:10:05Z</time>
      </trkpt>
      <trkpt lat="46.28189" lon="6.12784">
        <ele>445</ele>
        <time>2019-04-16T13:11:05Z</time>
      </trkpt>
      <trkpt lat="46.28137" lon="6.12733">
        <ele>444</ele>
        <time>2019-04-16T13:12:05Z</time>
      </trkpt>
      <trkpt lat="46.28129" lon="6.12729">
        <ele>444</ele>
        <time>2019-04-16T13:13:05Z</time>
      </trkpt>
      <trkpt lat="46.28024" lon="6.12672">
        <ele>443</ele>
        <time>2019-04-16T13:14:05Z</time>
      </trkpt>
      <trkpt lat="46.28" lon="6.12667">
        <ele>442</ele>
        <time>2019-04-16T13:15:05Z</time>
      </trkpt>
      <trkpt lat="46.27897" lon="6.1266">
        <ele>442</ele>
        <time>2019-04-16T13:16:05Z</time>
      </trkpt>
      <trkpt lat="46.27878" lon="6.12657">
        <ele>441</ele>
        <time>2019-04-16T13:17:05Z</time>
      </trkpt>
      <trkpt lat="46.27854" lon="6.12644">
        <ele>441</ele>
        <time>2019-04-16T13:18:05Z</time>
      </trkpt>
      <trkpt lat="46.27722" lon="6.12521">
        <ele>438</ele>
        <time>2019-04-16T13:19:05Z</time>
      </trkpt>
      <trkpt lat="46.27699" lon="6.12502">
        <ele>437</ele>
        <time>2019-04-16T13:20:05Z</time>
      </trkpt>
      <trkpt lat="46.27689" lon="6.12496">
        <ele>436</ele>
        <time>2019-04-16T13:21:05Z</time>
      </trkpt>
      <trkpt lat="46.27596" lon="6.12468">
        <ele>430</ele>
        <time>2019-04-16T13:22:05Z</time>
      </trkpt>
      <trkpt lat="46.27578" lon="6.12459">
        <ele>429</ele>
        <time>2019-04-16T13:23:05Z</time>
      </trkpt>
      <trkpt lat="46.27557" lon="6.12444">
        <ele>429</ele>
        <time>2019-04-16T13:24:05Z</time>
      </trkpt>
      <trkpt lat="46.27513" lon="6.12402">
        <ele>429</ele>
        <time>2019-04-16T13:25:05Z</time>
      </trkpt>
      <trkpt lat="46.27439" lon="6.12319">
        <ele>430</ele>
        <time>2019-04-16T13:26:05Z</time>
      </trkpt>
      <trkpt lat="46.27391" lon="6.12281">
        <ele>430</ele>
        <time>2019-04-16T13:27:05Z</time>
      </trkpt>
      <trkpt lat="46.27388" lon="6.12276">
        <ele>430</ele>
        <time>2019-04-16T13:28:05Z</time>
      </trkpt>
      <trkpt lat="46.27374" lon="6.12297">
        <ele>430</ele>
        <time>2019-04-16T13:29:05Z</time>
      </trkpt>
      <trkpt lat="46.27364" lon="6.12288">
        <ele>430</ele>
        <time>2019-04-16T13:30:05Z</time>
      </trkpt>
      <trkpt lat="46.2735" lon="6.12281">
        <ele>430</ele>
        <time>2019-04-16T13:31:05Z</time>
      </trkpt>
      <trkpt lat="46.27339" lon="6.1227">
        <ele>430</ele>
        <time>2019-04-16T13:32:05Z</time>
      </trkpt>
      <trkpt lat="46.27269" lon="6.12188">
        <ele>433</ele>
        <time>2019-04-16T13:33:05Z</time>
      </trkpt>
      <trkpt lat="46.27213" lon="6.12131">
        <ele>436</ele>
        <time>2019-04-16T13:34:05Z</time>
      </trkpt>
      <trkpt lat="46.2715" lon="6.12068">
        <ele>438</ele>
        <time>2019-04-16T13:35:05Z</time>
      </trkpt>
      <trkpt lat="46.27137" lon="6.12059">
        <ele>438</ele>
        <time>2019-04-16T13:36:05Z</time>
      </trkpt>
      <trkpt lat="46.27129" lon="6.12057">
        <ele>439</ele>
        <time>2019-04-16T13:37:05Z</time>
      </trkpt>
      <trkpt lat="46.27123" lon="6.12057">
        <ele>439</ele>
        <time>2019-04-16T13:38:05Z</time>
      </trkpt>
      <trkpt lat="46.27116" lon="6.12062">
        <ele>439</ele>
        <time>2019-04-16T13:39:05Z</time>
      </trkpt>
      <trkpt lat="46.27108" lon="6.12074">
        <ele>439</ele>
        <time>2019-04-16T13:40:05Z</time>
      </trkpt>
      <trkpt lat="46.2704" lon="6.12208">
        <ele>435</ele>
        <time>2019-04-16T13:41:05Z</time>
      </trkpt>
      <trkpt lat="46.27029" lon="6.12227">
        <ele>434</ele>
        <time>2019-04-16T13:42:05Z</time>
      </trkpt>
      <trkpt lat="46.2701" lon="6.1225">
        <ele>434</ele>
        <time>2019-04-16T13:43:05Z</time>
      </trkpt>
      <trkpt lat="46.26985" lon="6.12217">
        <ele>434</ele>
        <time>2019-04-16T13:44:05Z</time>
      </trkpt>
      <trkpt lat="46.26937" lon="6.12172">
        <ele>433</ele>
        <time>2019-04-16T13:45:05Z</time>
      </trkpt>
      <trkpt lat="46.26923" lon="6.12163">
        <ele>433</ele>
        <time>2019-04-16T13:46:05Z</time>
      </trkpt>
      <trkpt lat="46.26916" lon="6.12162">
        <ele>433</ele>
        <time>2019-04-16T13:47:05Z</time>
      </trkpt>
      <trkpt lat="46.26909" lon="6.12165">
        <ele>433</ele>
        <time>2019-04-16T13:48:05Z</time>
      </trkpt>
      <trkpt lat="46.26903" lon="6.12171">
        <ele>433</ele>
        <time>2019-04-16T13:49:05Z</time>
      </trkpt>
      <trkpt lat="46.26837" lon="6.12269">
        <ele>432</ele>
        <time>2019-04-16T13:50:05Z</time>
      </trkpt>
      <trkpt lat="46.26815" lon="6.12318">
        <ele>431</ele>
        <time>2019-04-16T13:51:05Z</time>
      </trkpt>
      <trkpt lat="46.26778" lon="6.12447">
        <ele>430</ele>
        <time>2019-04-16T13:52:05Z</time>
      </trkpt>
      <trkpt lat="46.26751" lon="6.12497">
        <ele>430</ele>
        <time>2019-04-16T13:53:05Z</time>
      </trkpt>
      <trkpt lat="46.26736" lon="6.12517">
        <ele>429</ele>
        <time>2019-04-16T13:54:05Z</time>
      </trkpt>
      <trkpt lat="46.26724" lon="6.12525">
        <ele>428</ele>
        <time>2019-04-16T13:55:05Z</time>
      </trkpt>
      <trkpt lat="46.26712" lon="6.12529">
        <ele>427</ele>
        <time>2019-04-16T13:56:05Z</time>
      </trkpt>
      <trkpt lat="46.26694" lon="6.12529">
        <ele>426</ele>
        <time>2019-04-16T13:57:05Z</time>
      </trkpt>
      <trkpt lat="46.26637" lon="6.12517">
        <ele>424</ele>
        <time>2019-04-16T13:58:05Z</time>
      </trkpt>
      <trkpt lat="46.26623" lon="6.12512">
        <ele>424</ele>
        <time>2019-04-16T13:59:05Z</time>
      </trkpt>
      <trkpt lat="46.26582" lon="6.12491">
        <ele>423</ele>
        <time>2019-04-16T14:00:05Z</time>
      </trkpt>
      <trkpt lat="46.26545" lon="6.12479">
        <ele>422</ele>
        <time>2019-04-16T14:01:05Z</time>
      </trkpt>
      <trkpt lat="46.26504" lon="6.12473">
        <ele>421</ele>
        <time>2019-04-16T14:02:05Z</time>
      </trkpt>
      <trkpt lat="46.26439" lon="6.12478">
        <ele>421</ele>
        <time>2019-04-16T14:03:05Z</time>
      </trkpt>
      <trkpt lat="46.26384" lon="6.12473">
        <ele>421</ele>
        <time>2019-04-16T14:04:05Z</time>
      </trkpt>
      <trkpt lat="46.26364" lon="6.12474">
        <ele>421</ele>
        <time>2019-04-16T14:05:05Z</time>
      </trkpt>
      <trkpt lat="46.26356" lon="6.12481">
        <ele>421</ele>
        <time>2019-04-16T14:06:05Z</time>
      </trkpt>
      <trkpt lat="46.26354" lon="6.12478">
        <ele>421</ele>
        <time>2019-04-16T14:07:05Z</time>
      </trkpt>
      <trkpt lat="46.26346" lon="6.12478">
        <ele>421</ele>
        <time>2019-04-16T14:08:05Z</time>
      </trkpt>
      <trkpt lat="46.26344" lon="6.1248">
        <ele>421</ele>
        <time>2019-04-16T14:09:05Z</time>
      </trkpt>
      <trkpt lat="46.2634" lon="6.12488">
        <ele>421</ele>
        <time>2019-04-16T14:10:05Z</time>
      </trkpt>
      <trkpt lat="46.2634" lon="6.12493">
        <ele>421</ele>
        <time>2019-04-16T14:11:05Z</time>
      </trkpt>
      <trkpt lat="46.26326" lon="6.12497">
        <ele>421</ele>
        <time>2019-04-16T14:12:05Z</time>
      </trkpt>
      <trkpt lat="46.26294" lon="6.12511">
        <ele>421</ele>
        <time>2019-04-16T14:13:05Z</time>
      </trkpt>
      <trkpt lat="46.26234" lon="6.12545">
        <ele>422</ele>
        <time>2019-04-16T14:14:05Z</time>
      </trkpt>
      <trkpt lat="46.26219" lon="6.1255">
        <ele>422</ele>
        <time>2019-04-16T14:15:05Z</time>
      </trkpt>
      <trkpt lat="46.26203" lon="6.12553">
        <ele>422</ele>
        <time>2019-04-16T14:16:05Z</time>
      </trkpt>
      <trkpt lat="46.26147" lon="6.1256">
        <ele>423</ele>
        <time>2019-04-16T14:17:05Z</time>
      </trkpt>
      <trkpt lat="46.26125" lon="6.12568">
        <ele>424</ele>
        <time>2019-04-16T14:18:05Z</time>
      </trkpt>
      <trkpt lat="46.26098" lon="6.12587">
        <ele>425</ele>
        <time>2019-04-16T14:19:05Z</time>
      </trkpt>
      <trkpt lat="46.26081" lon="6.12604">
        <ele>425</ele>
        <time>2019-04-16T14:20:05Z</time>
      </trkpt>
      <trkpt lat="46.26032" lon="6.12524">
        <ele>424</ele>
        <time>2019-04-16T14:21:05Z</time>
      </trkpt>
      <trkpt lat="46.26023" lon="6.12516">
        <ele>424</ele>
        <time>2019-04-16T14:22:05Z</time>
      </trkpt>
      <trkpt lat="46.26012" lon="6.12513">
        <ele>424</ele>
        <time>2019-04-16T14:23:05Z</time>
      </trkpt>
      <trkpt lat="46.25819" lon="6.12546">
        <ele>420</ele>
        <time>2019-04-16T14:24:05Z</time>
      </trkpt>
      <trkpt lat="46.25792" lon="6.12544">
        <ele>421</ele>
        <time>2019-04-16T14:25:05Z</time>
      </trkpt>
      <trkpt lat="46.25741" lon="6.12527">
        <ele>420</ele>
        <time>2019-04-16T14:26:05Z</time>
      </trkpt>
      <trkpt lat="46.25705" lon="6.12521">
        <ele>421</ele>
        <time>2019-04-16T14:27:05Z</time>
      </trkpt>
      <trkpt lat="46.25678" lon="6.12528">
        <ele>421</ele>
        <time>2019-04-16T14:28:05Z</time>
      </trkpt>
      <trkpt lat="46.25664" lon="6.12537">
        <ele>421</ele>
        <time>2019-04-16T14:29:05Z</time>
      </trkpt>
      <trkpt lat="46.25596" lon="6.12572">
        <ele>420</ele>
        <time>2019-04-16T14:30:05Z</time>
      </trkpt>
      <trkpt lat="46.25544" lon="6.12611">
        <ele>417</ele>
        <time>2019-04-16T14:31:05Z</time>
      </trkpt>
      <trkpt lat="46.25489" lon="6.12639">
        <ele>414</ele>
        <time>2019-04-16T14:32:05Z</time>
      </trkpt>
      <trkpt lat="46.25471" lon="6.12655">
        <ele>414</ele>
        <time>2019-04-16T14:33:05Z</time>
      </trkpt>
      <trkpt lat="46.2546" lon="6.12676">
        <ele>414</ele>
        <time>2019-04-16T14:34:05Z</time>
      </trkpt>
      <trkpt lat="46.25356" lon="6.1296">
        <ele>411</ele>
        <time>2019-04-16T14:35:05Z</time>
      </trkpt>
      <trkpt lat="46.25261" lon="6.12965">
        <ele>406</ele>
        <time>2019-04-16T14:36:05Z</time>
      </trkpt>
      <trkpt lat="46.25215" lon="6.12975">
        <ele>406</ele>
        <time>2019-04-16T14:37:05Z</time>
      </trkpt>
      <trkpt lat="46.2511" lon="6.13014">
        <ele>406</ele>
        <time>2019-04-16T14:38:05Z</time>
      </trkpt>
      <trkpt lat="46.25086" lon="6.13022">
        <ele>406</ele>
        <time>2019-04-16T14:39:05Z</time>
      </trkpt>
      <trkpt lat="46.25049" lon="6.13026">
        <ele>407</ele>
        <time>2019-04-16T14:40:05Z</time>
      </trkpt>
      <trkpt lat="46.25016" lon="6.13025">
        <ele>408</ele>
        <time>2019-04-16T14:41:05Z</time>
      </trkpt>
      <trkpt lat="46.25016" lon="6.13043">
        <ele>408</ele>
        <time>2019-04-16T14:42:05Z</time>
      </trkpt>
      <trkpt lat="46.25033" lon="6.13147">
        <ele>408</ele>
        <time>2019-04-16T14:43:05Z</time>
      </trkpt>
      <trkpt lat="46.25042" lon="6.13212">
        <ele>407</ele>
        <time>2019-04-16T14:44:05Z</time>
      </trkpt>
      <trkpt lat="46.25059" lon="6.13311">
        <ele>404</ele>
        <time>2019-04-16T14:45:05Z</time>
      </trkpt>
      <trkpt lat="46.25076" lon="6.13436">
        <ele>408</ele>
        <time>2019-04-16T14:46:05Z</time>
      </trkpt>
      <trkpt lat="46.25086" lon="6.1353">
        <ele>409</ele>
        <time>2019-04-16T14:47:05Z</time>
      </trkpt>
      <trkpt lat="46.25086" lon="6.13539">
        <ele>409</ele>
        <time>2019-04-16T14:48:05Z</time>
      </trkpt>
      <trkpt lat="46.25083" lon="6.13551">
        <ele>408</ele>
        <time>2019-04-16T14:49:05Z</time>
      </trkpt>
      <trkpt lat="46.25076" lon="6.13565">
        <ele>407</ele>
        <time>2019-04-16T14:50:05Z</time>
      </trkpt>
      <trkpt lat="46.25062" lon="6.13585">
        <ele>405</ele>
        <time>2019-04-16T14:51:05Z</time>
      </trkpt>
      <trkpt lat="46.25043" lon="6.13605">
        <ele>404</ele>
        <time>2019-04-16T14:52:05Z</time>
      </trkpt>
      <trkpt lat="46.25" lon="6.13642">
        <ele>400</ele>
        <time>2019-04-16T14:53:05Z</time>
      </trkpt>
      <trkpt lat="46.24916" lon="6.1371">
        <ele>404</ele>
        <time>2019-04-16T14:54:05Z</time>
      </trkpt>
      <trkpt lat="46.24907" lon="6.13669">
        <ele>403</ele>
        <time>2019-04-16T14:55:05Z</time>
      </trkpt>
      <trkpt lat="46.24855" lon="6.13668">
        <ele>405</ele>
        <time>2019-04-16T14:56:05Z</time>
      </trkpt>
      <trkpt lat="46.24815" lon="6.13683">
        <ele>406</ele>
        <time>2019-04-16T14:57:05Z</time>
      </trkpt>
      <trkpt lat="46.24803" lon="6.13691">
        <ele>407</ele>
        <time>2019-04-16T14:58:05Z</time>
      </trkpt>
      <trkpt lat="46.24771" lon="6.13721">
        <ele>408</ele>
        <time>2019-04-16T14:59:05Z</time>
      </trkpt>
      <trkpt lat="46.24739" lon="6.13739">
        <ele>409</ele>
        <time>2019-04-16T15:00:05Z</time>
      </trkpt>
      <trkpt lat="46.24731" lon="6.13741">
        <ele>409</ele>
        <time>2019-04-16T15:01:05Z</time>
      </trkpt>
      <trkpt lat="46.24667" lon="6.13734">
        <ele>410</ele>
        <time>2019-04-16T15:02:05Z</time>
      </trkpt>
      <trkpt lat="46.24634" lon="6.13733">
        <ele>411</ele>
        <time>2019-04-16T15:03:05Z</time>
      </trkpt>
      <trkpt lat="46.2461" lon="6.13729">
        <ele>412</ele>
        <time>2019-04-16T15:04:05Z</time>
      </trkpt>
      <trkpt lat="46.24538" lon="6.13737">
        <ele>414</ele>
        <time>2019-04-16T15:05:05Z</time>
      </trkpt>
      <trkpt lat="46.24516" lon="6.13751">
        <ele>414</ele>
        <time>2019-04-16T15:06:05Z</time>
      </trkpt>
      <trkpt lat="46.24503" lon="6.13752">
        <ele>415</ele>
        <time>2019-04-16T15:07:05Z</time>
      </trkpt>
      <trkpt lat="46.24495" lon="6.13763">
        <ele>414</ele>
        <time>2019-04-16T15:08:05Z</time>
      </trkpt>
      <trkpt lat="46.24448" lon="6.13797">
        <ele>413</ele>
        <time>2019-04-16T15:09:05Z</time>
      </trkpt>
      <trkpt lat="46.24431" lon="6.13816">
        <ele>412</ele>
        <time>2019-04-16T15:10:05Z</time>
      </trkpt>
      <trkpt lat="46.24402" lon="6.13857">
        <ele>413</ele>
        <time>2019-04-16T15:11:05Z</time>
      </trkpt>
      <trkpt lat="46.24375" lon="6.13922">
        <ele>414</ele>
        <time>2019-04-16T15:12:05Z</time>
      </trkpt>
      <trkpt lat="46.24341" lon="6.13987">
        <ele>414</ele>
        <time>2019-04-16T15:13:05Z</time>
      </trkpt>
      <trkpt lat="46.24295" lon="6.14084">
        <ele>416</ele>
        <time>2019-04-16T15:14:05Z</time>
      </trkpt>
      <trkpt lat="46.24285" lon="6.141">
        <ele>417</ele>
        <time>2019-04-16T15:15:05Z</time>
      </trkpt>
      <trkpt lat="46.24274" lon="6.14128">
        <ele>418</ele>
        <time>2019-04-16T15:16:05Z</time>
      </trkpt>
      <trkpt lat="46.24274" lon="6.14138">
        <ele>418</ele>
        <time>2019-04-16T15:17:05Z</time>
      </trkpt>
      <trkpt lat="46.2426" lon="6.14179">
        <ele>420</ele>
        <time>2019-04-16T15:18:05Z</time>
      </trkpt>
      <trkpt lat="46.24238" lon="6.1427">
        <ele>423</ele>
        <time>2019-04-16T15:19:05Z</time>
      </trkpt>
      <trkpt lat="46.24222" lon="6.14316">
        <ele>424</ele>
        <time>2019-04-16T15:20:05Z</time>
      </trkpt>
      <trkpt lat="46.242" lon="6.14358">
        <ele>423</ele>
        <time>2019-04-16T15:21:05Z</time>
      </trkpt>
      <trkpt lat="46.24211" lon="6.14354">
        <ele>423</ele>
        <time>2019-04-16T15:22:05Z</time>
      </trkpt>
      <trkpt lat="46.24224" lon="6.14356">
        <ele>422</ele>
        <time>2019-04-16T15:23:05Z</time>
      </trkpt>
      <trkpt lat="46.24232" lon="6.14364">
        <ele>421</ele>
        <time>2019-04-16T15:24:05Z</time>
      </trkpt>
      <trkpt lat="46.24254" lon="6.14413">
        <ele>418</ele>
        <time>2019-04-16T15:25:05Z</time>
      </trkpt>
      <trkpt lat="46.24302" lon="6.14481">
        <ele>410</ele>
        <time>2019-04-16T15:26:05Z</time>
      </trkpt>
      <trkpt lat="46.24329" lon="6.14525">
        <ele>408</ele>
        <time>2019-04-16T15:27:05Z</time>
      </trkpt>
      <trkpt lat="46.24339" lon="6.14551">
        <ele>407</ele>
        <time>2019-04-16T15:28:05Z</time>
      </trkpt>
      <trkpt lat="46.24343" lon="6.14589">
        <ele>404</ele>
        <time>2019-04-16T15:29:05Z</time>
      </trkpt>
      <trkpt lat="46.24341" lon="6.14638">
        <ele>400</ele>
        <time>2019-04-16T15:30:05Z</time>
      </trkpt>
      <trkpt lat="46.24333" lon="6.14677">
        <ele>396</ele>
        <time>2019-04-16T15:31:05Z</time>
      </trkpt>
      <trkpt lat="46.24308" lon="6.14664">
        <ele>397</ele>
        <time>2019-04-16T15:32:05Z</time>
      </trkpt>
      <trkpt lat="46.24241" lon="6.14612">
        <ele>397</ele>
        <time>2019-04-16T15:33:05Z</time>
      </trkpt>
      <trkpt lat="46.24183" lon="6.14593">
        <ele>397</ele>
        <time>2019-04-16T15:34:05Z</time>
      </trkpt>
      <trkpt lat="46.24155" lon="6.14592">
        <ele>397</ele>
        <time>2019-04-16T15:35:05Z</time>
      </trkpt>
      <trkpt lat="46.24128" lon="6.14597">
        <ele>397</ele>
        <time>2019-04-16T15:36:05Z</time>
      </trkpt>
      <trkpt lat="46.24097" lon="6.14606">
        <ele>397</ele>
        <time>2019-04-16T15:37:05Z</time>
      </trkpt>
      <trkpt lat="46.24087" lon="6.14613">
        <ele>396</ele>
        <time>2019-04-16T15:38:05Z</time>
      </trkpt>
      <trkpt lat="46.24068" lon="6.14651">
        <ele>394</ele>
        <time>2019-04-16T15:39:05Z</time>
      </trkpt>
      <trkpt lat="46.24059" lon="6.1466">
        <ele>394</ele>
        <time>2019-04-16T15:40:05Z</time>
      </trkpt>
      <trkpt lat="46.23995" lon="6.14701">
        <ele>394</ele>
        <time>2019-04-16T15:41:05Z</time>
      </trkpt>
      <trkpt lat="46.2398" lon="6.14703">
        <ele>394</ele>
        <time>2019-04-16T15:42:05Z</time>
      </trkpt>
      <trkpt lat="46.23828" lon="6.14691">
        <ele>395</ele>
        <time>2019-04-16T15:43:05Z</time>
      </trkpt>
      <trkpt lat="46.2372" lon="6.14678">
        <ele>396</ele>
        <time>2019-04-16T15:44:05Z</time>
      </trkpt>
      <trkpt lat="46.23691" lon="6.1467">
        <ele>398</ele>
        <time>2019-04-16T15:45:05Z</time>
      </trkpt>
      <trkpt lat="46.23692" lon="6.14677">
        <ele>397</ele>
        <time>2019-04-16T15:46:05Z</time>
      </trkpt>
      <trkpt lat="46.23689" lon="6.147">
        <ele>395</ele>
        <time>2019-04-16T15:47:05Z</time>
      </trkpt>
      <trkpt lat="46.23689" lon="6.14791">
        <ele>389</ele>
        <time>2019-04-16T15:48:05Z</time>
      </trkpt>
      <trkpt lat="46.23691" lon="6.14803">
        <ele>388</ele>
        <time>2019-04-16T15:49:05Z</time>
      </trkpt>
      <trkpt lat="46.23693" lon="6.14812">
        <ele>388</ele>
        <time>2019-04-16T15:50:05Z</time>
      </trkpt>
      <trkpt lat="46.23689" lon="6.1482">
        <ele>388</ele>
        <time>2019-04-16T15:51:05Z</time>
      </trkpt>
      <trkpt lat="46.2369" lon="6.14827">
        <ele>387</ele>
        <time>2019-04-16T15:52:05Z</time>
      </trkpt>
      <trkpt lat="46.23693" lon="6.14833">
        <ele>387</ele>
        <time>2019-04-16T15:53:05Z</time>
      </trkpt>
      <trkpt lat="46.23693" lon="6.14865">
        <ele>386</ele>
        <time>2019-04-16T15:54:05Z</time>
      </trkpt>
      <trkpt lat="46.2368" lon="6.14894">
        <ele>385</ele>
        <time>2019-04-16T15:55:05Z</time>
      </trkpt>
      <trkpt lat="46.23254" lon="6.14937">
        <ele>382</ele>
        <time>2019-04-16T15:56:05Z</time>
      </trkpt>
      <trkpt lat="46.2317" lon="6.14939">
        <ele>381</ele>
        <time>2019-04-16T15:57:05Z</time>
      </trkpt>
      <trkpt lat="46.23062" lon="6.14933">
        <ele>380</ele>
        <time>2019-04-16T15:58:05Z</time>
      </trkpt>
      <trkpt lat="46.22968" lon="6.1492">
        <ele>380</ele>
        <time>2019-04-16T15:59:05Z</time>
      </trkpt>
      <trkpt lat="46.22878" lon="6.14901">
        <ele>380</ele>
        <time>2019-04-16T16:00:05Z</time>
      </trkpt>
      <trkpt lat="46.22809" lon="6.14881">
        <ele>380</ele>
        <time>2019-04-16T16:01:05Z</time>
      </trkpt>
      <trkpt lat="46.22799" lon="6.14884">
        <ele>380</ele>
        <time>2019-04-16T16:02:05Z</time>
      </trkpt>
      <trkpt lat="46.22773" lon="6.14876">
        <ele>380</ele>
        <time>2019-04-16T16:03:05Z</time>
      </trkpt>
      <trkpt lat="46.22594" lon="6.14803">
        <ele>381</ele>
        <time>2019-04-16T16:04:05Z</time>
      </trkpt>
      <trkpt lat="46.22578" lon="6.14797">
        <ele>381</ele>
        <time>2019-04-16T16:05:05Z</time>
      </trkpt>
      <trkpt lat="46.2255" lon="6.14792">
        <ele>382</ele>
        <time>2019-04-16T16:06:05Z</time>
      </trkpt>
      <trkpt lat="46.22517" lon="6.14793">
        <ele>383</ele>
        <time>2019-04-16T16:07:05Z</time>
      </trkpt>
      <trkpt lat="46.22491" lon="6.14799">
        <ele>383</ele>
        <time>2019-04-16T16:08:05Z</time>
      </trkpt>
      <trkpt lat="46.22406" lon="6.14837">
        <ele>381</ele>
        <time>2019-04-16T16:09:05Z</time>
      </trkpt>
      <trkpt lat="46.22398" lon="6.14834">
        <ele>382</ele>
        <time>2019-04-16T16:10:05Z</time>
      </trkpt>
      <trkpt lat="46.22234" lon="6.14912">
        <ele>391</ele>
        <time>2019-04-16T16:11:05Z</time>
      </trkpt>
      <trkpt lat="46.22226" lon="6.14923">
        <ele>391</ele>
        <time>2019-04-16T16:12:05Z</time>
      </trkpt>
      <trkpt lat="46.22231" lon="6.14925">
        <ele>391</ele>
        <time>2019-04-16T16:13:05Z</time>
      </trkpt>
      <trkpt lat="46.22236" lon="6.14923">
        <ele>390</ele>
        <time>2019-04-16T16:14:05Z</time>
      </trkpt>
      <trkpt lat="46.22238" lon="6.14931">
        <ele>390</ele>
        <time>2019-04-16T16:15:05Z</time>
      </trkpt>
      <trkpt lat="46.22183" lon="6.14957">
        <ele>392</ele>
        <time>2019-04-16T16:16:05Z</time>
      </trkpt>
      <trkpt lat="46.22238" lon="6.14931">
        <ele>390</ele>
        <time>2019-04-16T16:17:05Z</time>
      </trkpt>
      <trkpt lat="46.22234" lon="6.14912">
        <ele>391</ele>
        <time>2019-04-16T16:18:05Z</time>
      </trkpt>
      <trkpt lat="46.22226" lon="6.14923">
        <ele>391</ele>
        <time>2019-04-16T16:19:05Z</time>
      </trkpt>
      <trkpt lat="46.22128" lon="6.14972">
        <ele>392</ele>
        <time>2019-04-16T16:20:05Z</time>
      </trkpt>
      <trkpt lat="46.22081" lon="6.14993">
        <ele>391</ele>
        <time>2019-04-16T16:21:05Z</time>
      </trkpt>
      <trkpt lat="46.22059" lon="6.14991">
        <ele>390</ele>
        <time>2019-04-16T16:22:05Z</time>
      </trkpt>
      <trkpt lat="46.22021" lon="6.14973">
        <ele>389</ele>
        <time>2019-04-16T16:23:05Z</time>
      </trkpt>
      <trkpt lat="46.21928" lon="6.14913">
        <ele>388</ele>
        <time>2019-04-16T16:24:05Z</time>
      </trkpt>
      <trkpt lat="46.21904" lon="6.1489">
        <ele>389</ele>
        <time>2019-04-16T16:25:05Z</time>
      </trkpt>
      <trkpt lat="46.2188" lon="6.14885">
        <ele>389</ele>
        <time>2019-04-16T16:26:05Z</time>
      </trkpt>
      <trkpt lat="46.21873" lon="6.149">
        <ele>389</ele>
        <time>2019-04-16T16:27:05Z</time>
      </trkpt>
      <trkpt lat="46.21852" lon="6.14934">
        <ele>390</ele>
        <time>2019-04-16T16:28:05Z</time>
      </trkpt>
      <trkpt lat="46.21778" lon="6.15019">
        <ele>389</ele>
        <time>2019-04-16T16:29:05Z</time>
      </trkpt>
      <trkpt lat="46.21741" lon="6.15054">
        <ele>385</ele>
        <time>2019-04-16T16:30:05Z</time>
      </trkpt>
      <trkpt lat="46.21695" lon="6.15093">
        <ele>381</ele>
        <time>2019-04-16T16:31:05Z</time>
      </trkpt>
      <trkpt lat="46.21653" lon="6.15123">
        <ele>379</ele>
        <time>2019-04-16T16:32:05Z</time>
      </trkpt>
      <trkpt lat="46.21636" lon="6.15141">
        <ele>378</ele>
        <time>2019-04-16T16:33:05Z</time>
      </trkpt>
      <trkpt lat="46.21618" lon="6.15154">
        <ele>376</ele>
        <time>2019-04-16T16:34:05Z</time>
      </trkpt>
      <trkpt lat="46.21585" lon="6.1517">
        <ele>372</ele>
        <time>2019-04-16T16:35:05Z</time>
      </trkpt>
      <trkpt lat="46.21549" lon="6.15181">
        <ele>375</ele>
        <time>2019-04-16T16:36:05Z</time>
      </trkpt>
      <trkpt lat="46.21163" lon="6.15285">
        <ele>377</ele>
        <time>2019-04-16T16:37:05Z</time>
      </trkpt>
      <trkpt lat="46.21162" lon="6.15274">
        <ele>378</ele>
        <time>2019-04-16T16:38:05Z</time>
      </trkpt>
      <trkpt lat="46.2115" lon="6.15272">
        <ele>378</ele>
        <time>2019-04-16T16:39:05Z</time>
      </trkpt>
      <trkpt lat="46.21133" lon="6.1526">
        <ele>378</ele>
        <time>2019-04-16T16:40:05Z</time>
      </trkpt>
      <trkpt lat="46.2089" lon="6.14993">
        <ele>380</ele>
        <time>2019-04-16T16:41:05Z</time>
      </trkpt>
      <trkpt lat="46.20803" lon="6.14896">
        <ele>378</ele>
        <time>2019-04-16T16:42:05Z</time>
      </trkpt>
      <trkpt lat="46.20747" lon="6.14831">
        <ele>379</ele>
        <time>2019-04-16T16:43:05Z</time>
      </trkpt>
      <trkpt lat="46.20707" lon="6.14788">
        <ele>378</ele>
        <time>2019-04-16T16:44:05Z</time>
      </trkpt>
      <trkpt lat="46.20701" lon="6.148">
        <ele>377</ele>
        <time>2019-04-16T16:45:05Z</time>
      </trkpt>
      <trkpt lat="46.2073" lon="6.14832">
        <ele>378</ele>
        <time>2019-04-16T16:46:05Z</time>
      </trkpt>
      <trkpt lat="46.20701" lon="6.148">
        <ele>377</ele>
        <time>2019-04-16T16:47:05Z</time>
      </trkpt>
      <trkpt lat="46.20707" lon="6.14788">
        <ele>378</ele>
        <time>2019-04-16T16:48:05Z</time>
      </trkpt>
      <trkpt lat="46.20694" lon="6.1477">
        <ele>378</ele>
        <time>2019-04-16T16:49:05Z</time>
      </trkpt>
      <trkpt lat="46.20492" lon="6.14963">
        <ele>373</ele>
        <time>2019-04-16T16:50:05Z</time>
      </trkpt>
      <trkpt lat="46.20472" lon="6.14972">
        <ele>374</ele>
        <time>2019-04-16T16:51:05Z</time>
      </trkpt>
      <trkpt lat="46.20417" lon="6.15024">
        <ele>376</ele>
        <time>2019-04-16T16:52:05Z</time>
      </trkpt>
      <trkpt lat="46.20397" lon="6.15064">
        <ele>377</ele>
        <time>2019-04-16T16:53:05Z</time>
      </trkpt>
      <trkpt lat="46.20382" lon="6.15115">
        <ele>378</ele>
        <time>2019-04-16T16:54:05Z</time>
      </trkpt>
      <trkpt lat="46.20346" lon="6.15288">
        <ele>377</ele>
        <time>2019-04-16T16:55:05Z</time>
      </trkpt>
      <trkpt lat="46.20296" lon="6.15513">
        <ele>382</ele>
        <time>2019-04-16T16:56:05Z</time>
      </trkpt>
      <trkpt lat="46.20266" lon="6.15659">
        <ele>384</ele>
        <time>2019-04-16T16:57:05Z</time>
      </trkpt>
      <trkpt lat="46.20257" lon="6.15685">
        <ele>385</ele>
        <time>2019-04-16T16:58:05Z</time>
      </trkpt>
      <trkpt lat="46.20173" lon="6.1589">
        <ele>387</ele>
        <time>2019-04-16T16:59:05Z</time>
      </trkpt>
      <trkpt lat="46.20111" lon="6.16046">
        <ele>395</ele>
        <time>2019-04-16T17:00:05Z</time>
      </trkpt>
      <trkpt lat="46.20136" lon="6.16097">
        <ele>395</ele>
        <time>2019-04-16T17:01:05Z</time>
      </trkpt>
      <trkpt lat="46.20143" lon="6.16116">
        <ele>394</ele>
        <time>2019-04-16T17:02:05Z</time>
      </trkpt>
      <trkpt lat="46.20176" lon="6.16238">
        <ele>393</ele>
        <time>2019-04-16T17:03:05Z</time>
      </trkpt>
      <trkpt lat="46.20364" lon="6.16816">
        <ele>403</ele>
        <time>2019-04-16T17:04:05Z</time>
      </trkpt>
      <trkpt lat="46.20274" lon="6.16947">
        <ele>408</ele>
        <time>2019-04-16T17:05:05Z</time>
      </trkpt>
      <trkpt lat="46.2027" lon="6.16955">
        <ele>409</ele>
        <time>2019-04-16T17:06:05Z</time>
      </trkpt>
      <trkpt lat="46.20309" lon="6.17029">
        <ele>409</ele>
        <time>2019-04-16T17:07:05Z</time>
      </trkpt>
      <trkpt lat="46.20317" lon="6.1705">
        <ele>408</ele>
        <time>2019-04-16T17:08:05Z</time>
      </trkpt>
      <trkpt lat="46.20329" lon="6.17097">
        <ele>408</ele>
        <time>2019-04-16T17:09:05Z</time>
      </trkpt>
      <trkpt lat="46.20376" lon="6.17279">
        <ele>417</ele>
        <time>2019-04-16T17:10:05Z</time>
      </trkpt>
      <trkpt lat="46.20384" lon="6.17315">
        <ele>419</ele>
        <time>2019-04-16T17:11:05Z</time>
      </trkpt>
      <trkpt lat="46.20391" lon="6.17367">
        <ele>422</ele>
        <time>2019-04-16T17:12:05Z</time>
      </trkpt>
      <trkpt lat="46.20393" lon="6.17433">
        <ele>426</ele>
        <time>2019-04-16T17:13:05Z</time>
      </trkpt>
      <trkpt lat="46.2039" lon="6.17489">
        <ele>428</ele>
        <time>2019-04-16T17:14:05Z</time>
      </trkpt>
      <trkpt lat="46.20381" lon="6.17548">
        <ele>427</ele>
        <time>2019-04-16T17:15:05Z</time>
      </trkpt>
      <trkpt lat="46.20367" lon="6.17599">
        <ele>426</ele>
        <time>2019-04-16T17:16:05Z</time>
      </trkpt>
      <trkpt lat="46.20324" lon="6.17718">
        <ele>426</ele>
        <time>2019-04-16T17:17:05Z</time>
      </trkpt>
      <trkpt lat="46.20304" lon="6.17769">
        <ele>425</ele>
        <time>2019-04-16T17:18:05Z</time>
      </trkpt>
      <trkpt lat="46.20316" lon="6.1779">
        <ele>424</ele>
        <time>2019-04-16T17:19:05Z</time>
      </trkpt>
      <trkpt lat="46.20327" lon="6.17804">
        <ele>424</ele>
        <time>2019-04-16T17:20:05Z</time>
      </trkpt>
      <trkpt lat="46.20281" lon="6.17902">
        <ele>423</ele>
        <time>2019-04-16T17:21:05Z</time>
      </trkpt>
      <trkpt lat="46.2018" lon="6.1817">
        <ele>423</ele>
        <time>2019-04-16T17:22:05Z</time>
      </trkpt>
      <trkpt lat="46.2018" lon="6.1817">
        <ele>423</ele>
        <time>2019-04-16T17:23:05Z</time>
      </trkpt>
      <trkpt lat="46.19985" lon="6.18709">
        <ele>426</ele>
        <time>2019-04-16T17:24:05Z</time>
      </trkpt>
      <trkpt lat="46.19985" lon="6.18709">
        <ele>426</ele>
        <time>2019-04-16T17:25:05Z</time>
      </trkpt>
      <trkpt lat="46.19688" lon="6.19417">
        <ele>422</ele>
        <time>2019-04-16T17:26:05Z</time>
      </trkpt>
      <trkpt lat="46.19688" lon="6.19416">
        <ele>422</ele>
        <time>2019-04-16T17:27:05Z</time>
      </trkpt>
      <trkpt lat="46.19735" lon="6.19455">
        <ele>422</ele>
        <time>2019-04-16T17:28:05Z</time>
      </trkpt>
      <trkpt lat="46.19735" lon="6.19483">
        <ele>421</ele>
        <time>2019-04-16T17:29:05Z</time>
      </trkpt>
      <trkpt lat="46.19738" lon="6.19573">
        <ele>421</ele>
        <time>2019-04-16T17:30:05Z</time>
      </trkpt>
      <trkpt lat="46.19733" lon="6.19794">
        <ele>422</ele>
        <time>2019-04-16T17:31:05Z</time>
      </trkpt>
      <trkpt lat="46.19737" lon="6.19938">
        <ele>421</ele>
        <time>2019-04-16T17:32:05Z</time>
      </trkpt>
      <trkpt lat="46.19739" lon="6.20052">
        <ele>421</ele>
        <time>2019-04-16T17:33:05Z</time>
      </trkpt>
      <trkpt lat="46.19647" lon="6.19994">
        <ele>421</ele>
        <time>2019-04-16T17:34:05Z</time>
      </trkpt>
      <trkpt lat="46.19647" lon="6.19997">
        <ele>421</ele>
        <time>2019-04-16T17:35:05Z</time>
      </trkpt>
      <trkpt lat="46.19648" lon="6.19998">
        <ele>421</ele>
        <time>2019-04-16T17:36:05Z</time>
      </trkpt>
      <trkpt lat="46.19681" lon="6.20456">
        <ele>424</ele>
        <time>2019-04-16T17:37:05Z</time>
      </trkpt>
      <trkpt lat="46.19683" lon="6.20456">
        <ele>424</ele>
        <time>2019-04-16T17:38:05Z</time>
      </trkpt>
      <trkpt lat="46.19679" lon="6.20496">
        <ele>425</ele>
        <time>2019-04-16T17:39:05Z</time>
      </trkpt>
      <trkpt lat="46.19672" lon="6.20529">
        <ele>425</ele>
        <time>2019-04-16T17:40:05Z</time>
      </trkpt>
      <trkpt lat="46.19658" lon="6.20586">
        <ele>424</ele>
        <time>2019-04-16T17:41:05Z</time>
      </trkpt>
      <trkpt lat="46.19633" lon="6.20657">
        <ele>424</ele>
        <time>2019-04-16T17:42:05Z</time>
      </trkpt>
      <trkpt lat="46.19633" lon="6.20655">
        <ele>424</ele>
        <time>2019-04-16T17:43:05Z</time>
      </trkpt>
      <trkpt lat="46.19633" lon="6.20656">
        <ele>424</ele>
        <time>2019-04-16T17:44:05Z</time>
      </trkpt>
      <trkpt lat="46.19476" lon="6.21048">
        <ele>424</ele>
        <time>2019-04-16T17:45:05Z</time>
      </trkpt>
      <trkpt lat="46.1948" lon="6.21051">
        <ele>424</ele>
        <time>2019-04-16T17:46:05Z</time>
      </trkpt>
      <trkpt lat="46.19402" lon="6.21252">
        <ele>422</ele>
        <time>2019-04-16T17:47:05Z</time>
      </trkpt>
      <trkpt lat="46.19379" lon="6.21329">
        <ele>421</ele>
        <time>2019-04-16T17:48:05Z</time>
      </trkpt>
      <trkpt lat="46.1937" lon="6.21364">
        <ele>420</ele>
        <time>2019-04-16T17:49:05Z</time>
      </trkpt>
      <trkpt lat="46.19364" lon="6.21401">
        <ele>419</ele>
        <time>2019-04-16T17:50:05Z</time>
      </trkpt>
      <trkpt lat="46.19359" lon="6.21445">
        <ele>420</ele>
        <time>2019-04-16T17:51:05Z</time>
      </trkpt>
      <trkpt lat="46.19356" lon="6.21497">
        <ele>421</ele>
        <time>2019-04-16T17:52:05Z</time>
      </trkpt>
      <trkpt lat="46.19361" lon="6.21498">
        <ele>421</ele>
        <time>2019-04-16T17:53:05Z</time>
      </trkpt>
      <trkpt lat="46.19356" lon="6.21497">
        <ele>421</ele>
        <time>2019-04-16T17:54:05Z</time>
      </trkpt>
      <trkpt lat="46.19357" lon="6.21571">
        <ele>422</ele>
        <time>2019-04-16T17:55:05Z</time>
      </trkpt>
      <trkpt lat="46.19442" lon="6.22412">
        <ele>428</ele>
        <time>2019-04-16T17:56:05Z</time>
      </trkpt>
      <trkpt lat="46.19469" lon="6.22701">
        <ele>428</ele>
        <time>2019-04-16T17:57:05Z</time>
      </trkpt>
      <trkpt lat="46.1948" lon="6.22772">
        <ele>428</ele>
        <time>2019-04-16T17:58:05Z</time>
      </trkpt>
      <trkpt lat="46.19403" lon="6.22819">
        <ele>430</ele>
        <time>2019-04-16T17:59:05Z</time>
      </trkpt>
      <trkpt lat="46.1939" lon="6.22819">
        <ele>430</ele>
        <time>2019-04-16T18:00:05Z</time>
      </trkpt>
      <trkpt lat="46.19378" lon="6.22812">
        <ele>430</ele>
        <time>2019-04-16T18:01:05Z</time>
      </trkpt>
      <trkpt lat="46.19372" lon="6.22811">
        <ele>431</ele>
        <time>2019-04-16T18:02:05Z</time>
      </trkpt>
      <trkpt lat="46.19367" lon="6.22817">
        <ele>431</ele>
        <time>2019-04-16T18:03:05Z</time>
      </trkpt>
      <trkpt lat="46.19363" lon="6.22837">
        <ele>431</ele>
        <time>2019-04-16T18:04:05Z</time>
      </trkpt>
      <trkpt lat="46.1936" lon="6.22842">
        <ele>431</ele>
        <time>2019-04-16T18:05:05Z</time>
      </trkpt>
      <trkpt lat="46.19302" lon="6.22864">
        <ele>431</ele>
        <time>2019-04-16T18:06:05Z</time>
      </trkpt>
      <trkpt lat="46.19294" lon="6.22865">
        <ele>431</ele>
        <time>2019-04-16T18:07:05Z</time>
      </trkpt>
      <trkpt lat="46.19287" lon="6.22862">
        <ele>431</ele>
        <time>2019-04-16T18:08:05Z</time>
      </trkpt>
      <trkpt lat="46.19282" lon="6.22869">
        <ele>431</ele>
        <time>2019-04-16T18:09:05Z</time>
      </trkpt>
      <trkpt lat="46.19281" lon="6.22877">
        <ele>431</ele>
        <time>2019-04-16T18:10:05Z</time>
      </trkpt>
      <trkpt lat="46.19229" lon="6.2289">
        <ele>431</ele>
        <time>2019-04-16T18:11:05Z</time>
      </trkpt>
      <trkpt lat="46.19216" lon="6.22898">
        <ele>431</ele>
        <time>2019-04-16T18:12:05Z</time>
      </trkpt>
      <trkpt lat="46.19209" lon="6.22904">
        <ele>431</ele>
        <time>2019-04-16T18:13:05Z</time>
      </trkpt>
      <trkpt lat="46.19199" lon="6.22918">
        <ele>432</ele>
        <time>2019-04-16T18:14:05Z</time>
      </trkpt>
      <trkpt lat="46.19193" lon="6.22931">
        <ele>432</ele>
        <time>2019-04-16T18:15:05Z</time>
      </trkpt>
      <trkpt lat="46.19145" lon="6.23086">
        <ele>430</ele>
        <time>2019-04-16T18:16:05Z</time>
      </trkpt>
      <trkpt lat="46.19116" lon="6.23138">
        <ele>430</ele>
        <time>2019-04-16T18:17:05Z</time>
      </trkpt>
      <trkpt lat="46.19107" lon="6.23161">
        <ele>430</ele>
        <time>2019-04-16T18:18:05Z</time>
      </trkpt>
      <trkpt lat="46.19091" lon="6.23221">
        <ele>431</ele>
        <time>2019-04-16T18:19:05Z</time>
      </trkpt>
      <trkpt lat="46.19083" lon="6.23239">
        <ele>431</ele>
        <time>2019-04-16T18:20:05Z</time>
      </trkpt>
      <trkpt lat="46.19078" lon="6.23247">
        <ele>431</ele>
        <time>2019-04-16T18:21:05Z</time>
      </trkpt>
      <trkpt lat="46.19063" lon="6.23265">
        <ele>432</ele>
        <time>2019-04-16T18:22:05Z</time>
      </trkpt>
      <trkpt lat="46.19036" lon="6.23286">
        <ele>434</ele>
        <time>2019-04-16T18:23:05Z</time>
      </trkpt>
      <trkpt lat="46.19027" lon="6.23298">
        <ele>434</ele>
        <time>2019-04-16T18:24:05Z</time>
      </trkpt>
      <trkpt lat="46.19017" lon="6.23294">
        <ele>434</ele>
        <time>2019-04-16T18:25:05Z</time>
      </trkpt>
      <trkpt lat="46.1901" lon="6.23299">
        <ele>435</ele>
        <time>2019-04-16T18:26:05Z</time>
      </trkpt>
      <trkpt lat="46.19006" lon="6.23309">
        <ele>435</ele>
        <time>2019-04-16T18:27:05Z</time>
      </trkpt>
      <trkpt lat="46.19006" lon="6.23316">
        <ele>435</ele>
        <time>2019-04-16T18:28:05Z</time>
      </trkpt>
      <trkpt lat="46.19008" lon="6.23324">
        <ele>435</ele>
        <time>2019-04-16T18:29:05Z</time>
      </trkpt>
      <trkpt lat="46.19015" lon="6.23331">
        <ele>435</ele>
        <time>2019-04-16T18:30:05Z</time>
      </trkpt>
      <trkpt lat="46.19019" lon="6.23342">
        <ele>435</ele>
        <time>2019-04-16T18:31:05Z</time>
      </trkpt>
      <trkpt lat="46.19035" lon="6.2344">
        <ele>436</ele>
        <time>2019-04-16T18:32:05Z</time>
      </trkpt>
      <trkpt lat="46.19038" lon="6.23451">
        <ele>436</ele>
        <time>2019-04-16T18:33:05Z</time>
      </trkpt>
      <trkpt lat="46.19047" lon="6.23468">
        <ele>436</ele>
        <time>2019-04-16T18:34:05Z</time>
      </trkpt>
      <trkpt lat="46.19075" lon="6.23584">
        <ele>434</ele>
        <time>2019-04-16T18:35:05Z</time>
      </trkpt>
      <trkpt lat="46.19071" lon="6.23594">
        <ele>434</ele>
        <time>2019-04-16T18:36:05Z</time>
      </trkpt>
      <trkpt lat="46.19061" lon="6.236">
        <ele>435</ele>
        <time>2019-04-16T18:37:05Z</time>
      </trkpt>
      <trkpt lat="46.19082" lon="6.23613">
        <ele>434</ele>
        <time>2019-04-16T18:38:05Z</time>
      </trkpt>
      <trkpt lat="46.19073" lon="6.23665">
        <ele>434</ele>
        <time>2019-04-16T18:39:05Z</time>
      </trkpt>
      <trkpt lat="46.19035" lon="6.23843">
        <ele>439</ele>
        <time>2019-04-16T18:40:05Z</time>
      </trkpt>
      <trkpt lat="46.19037" lon="6.23855">
        <ele>439</ele>
        <time>2019-04-16T18:41:05Z</time>
      </trkpt>
      <trkpt lat="46.19039" lon="6.23859">
        <ele>439</ele>
        <time>2019-04-16T18:42:05Z</time>
      </trkpt>
      <trkpt lat="46.19047" lon="6.23863">
        <ele>440</ele>
        <time>2019-04-16T18:43:05Z</time>
      </trkpt>
      <trkpt lat="46.19089" lon="6.23874">
        <ele>441</ele>
        <time>2019-04-16T18:44:05Z</time>
      </trkpt>
      <trkpt lat="46.19149" lon="6.23895">
        <ele>439</ele>
        <time>2019-04-16T18:45:05Z</time>
      </trkpt>
      <trkpt lat="46.19132" lon="6.23986">
        <ele>437</ele>
        <time>2019-04-16T18:46:05Z</time>
      </trkpt>
      <trkpt lat="46.19132" lon="6.23999">
        <ele>437</ele>
        <time>2019-04-16T18:47:05Z</time>
      </trkpt>
      <trkpt lat="46.19133" lon="6.24006">
        <ele>437</ele>
        <time>2019-04-16T18:48:05Z</time>
      </trkpt>
      <trkpt lat="46.19149" lon="6.24069">
        <ele>438</ele>
        <time>2019-04-16T18:49:05Z</time>
      </trkpt>
      <trkpt lat="46.19152" lon="6.24088">
        <ele>439</ele>
        <time>2019-04-16T18:50:05Z</time>
      </trkpt>
      <trkpt lat="46.19154" lon="6.24111">
        <ele>439</ele>
        <time>2019-04-16T18:51:05Z</time>
      </trkpt>
      <trkpt lat="46.19152" lon="6.24129">
        <ele>439</ele>
        <time>2019-04-16T18:52:05Z</time>
      </trkpt>
      <trkpt lat="46.19135" lon="6.24216">
        <ele>440</ele>
        <time>2019-04-16T18:53:05Z</time>
      </trkpt>
      <trkpt lat="46.19105" lon="6.24395">
        <ele>442</ele>
        <time>2019-04-16T18:54:05Z</time>
      </trkpt>
      <trkpt lat="46.19035" lon="6.24867">
        <ele>453</ele>
        <time>2019-04-16T18:55:05Z</time>
      </trkpt>
      <trkpt lat="46.1903" lon="6.24921">
        <ele>454</ele>
        <time>2019-04-16T18:56:05Z</time>
      </trkpt>
      <trkpt lat="46.19029" lon="6.24939">
        <ele>454</ele>
        <time>2019-04-16T18:57:05Z</time>
      </trkpt>
      <trkpt lat="46.19031" lon="6.24947">
        <ele>454</ele>
        <time>2019-04-16T18:58:05Z</time>
      </trkpt>
      <trkpt lat="46.19029" lon="6.2506">
        <ele>457</ele>
        <time>2019-04-16T18:59:05Z</time>
      </trkpt>
      <trkpt lat="46.19031" lon="6.2507">
        <ele>457</ele>
        <time>2019-04-16T19:00:05Z</time>
      </trkpt>
      <trkpt lat="46.19037" lon="6.25077">
        <ele>457</ele>
        <time>2019-04-16T19:01:05Z</time>
      </trkpt>
      <trkpt lat="46.1904" lon="6.25082">
        <ele>458</ele>
        <time>2019-04-16T19:02:05Z</time>
      </trkpt>
      <trkpt lat="46.1904" lon="6.25106">
        <ele>458</ele>
        <time>2019-04-16T19:03:05Z</time>
      </trkpt>
      <trkpt lat="46.19073" lon="6.25327">
        <ele>462</ele>
        <time>2019-04-16T19:04:05Z</time>
      </trkpt>
      <trkpt lat="46.19074" lon="6.25363">
        <ele>465</ele>
        <time>2019-04-16T19:05:05Z</time>
      </trkpt>
      <trkpt lat="46.1908" lon="6.2541">
        <ele>470</ele>
        <time>2019-04-16T19:06:05Z</time>
      </trkpt>
      <trkpt lat="46.19082" lon="6.25468">
        <ele>472</ele>
        <time>2019-04-16T19:07:05Z</time>
      </trkpt>
      <trkpt lat="46.19081" lon="6.25546">
        <ele>474</ele>
        <time>2019-04-16T19:08:05Z</time>
      </trkpt>
      <trkpt lat="46.19074" lon="6.25608">
        <ele>475</ele>
        <time>2019-04-16T19:09:05Z</time>
      </trkpt>
      <trkpt lat="46.19065" lon="6.25666">
        <ele>476</ele>
        <time>2019-04-16T19:10:05Z</time>
      </trkpt>
      <trkpt lat="46.18988" lon="6.26056">
        <ele>483</ele>
        <time>2019-04-16T19:11:05Z</time>
      </trkpt>
      <trkpt lat="46.1897" lon="6.26143">
        <ele>483</ele>
        <time>2019-04-16T19:12:05Z</time>
      </trkpt>
      <trkpt lat="46.18953" lon="6.26186">
        <ele>483</ele>
        <time>2019-04-16T19:13:05Z</time>
      </trkpt>
      <trkpt lat="46.18942" lon="6.2621">
        <ele>484</ele>
        <time>2019-04-16T19:14:05Z</time>
      </trkpt>
      <trkpt lat="46.18902" lon="6.26268">
        <ele>485</ele>
        <time>2019-04-16T19:15:05Z</time>
      </trkpt>
      <trkpt lat="46.18894" lon="6.26284">
        <ele>486</ele>
        <time>2019-04-16T19:16:05Z</time>
      </trkpt>
      <trkpt lat="46.18874" lon="6.26341">
        <ele>486</ele>
        <time>2019-04-16T19:17:05Z</time>
      </trkpt>
      <trkpt lat="46.18842" lon="6.26447">
        <ele>486</ele>
        <time>2019-04-16T19:18:05Z</time>
      </trkpt>
      <trkpt lat="46.18791" lon="6.26742">
        <ele>486</ele>
        <time>2019-04-16T19:19:05Z</time>
      </trkpt>
      <trkpt lat="46.18767" lon="6.26846">
        <ele>486</ele>
        <time>2019-04-16T19:20:05Z</time>
      </trkpt>
      <trkpt lat="46.18764" lon="6.26842">
        <ele>486</ele>
        <time>2019-04-16T19:21:05Z</time>
      </trkpt>
      <trkpt lat="46.18761" lon="6.26851">
        <ele>486</ele>
        <time>2019-04-16T19:22:05Z</time>
      </trkpt>
      <trkpt lat="46.18764" lon="6.26842">
        <ele>486</ele>
        <time>2019-04-16T19:23:05Z</time>
      </trkpt>
      <trkpt lat="46.18767" lon="6.26846">
        <ele>486</ele>
        <time>2019-04-16T19:24:05Z</time>
      </trkpt>
      <trkpt lat="46.18731" lon="6.26963">
        <ele>486</ele>
        <time>2019-04-16T19:25:05Z</time>
      </trkpt>
      <trkpt lat="46.18727" lon="6.26969">
        <ele>486</ele>
        <time>2019-04-16T19:26:05Z</time>
      </trkpt>
      <trkpt lat="46.18715" lon="6.26982">
        <ele>486</ele>
        <time>2019-04-16T19:27:05Z</time>
      </trkpt>
      <trkpt lat="46.18711" lon="6.26993">
        <ele>486</ele>
        <time>2019-04-16T19:28:05Z</time>
      </trkpt>
      <trkpt lat="46.18709" lon="6.27019">
        <ele>487</ele>
        <time>2019-04-16T19:29:05Z</time>
      </trkpt>
      <trkpt lat="46.18705" lon="6.27036">
        <ele>487</ele>
        <time>2019-04-16T19:30:05Z</time>
      </trkpt>
      <trkpt lat="46.18706" lon="6.27045">
        <ele>487</ele>
        <time>2019-04-16T19:31:05Z</time>
      </trkpt>
      <trkpt lat="46.18732" lon="6.27073">
        <ele>486</ele>
        <time>2019-04-16T19:32:05Z</time>
      </trkpt>
      <trkpt lat="46.18717" lon="6.27121">
        <ele>487</ele>
        <time>2019-04-16T19:33:05Z</time>
      </trkpt>
      <trkpt lat="46.18725" lon="6.27137">
        <ele>487</ele>
        <time>2019-04-16T19:34:05Z</time>
      </trkpt>
      <trkpt lat="46.18727" lon="6.27145">
        <ele>487</ele>
        <time>2019-04-16T19:35:05Z</time>
      </trkpt>
      <trkpt lat="46.18729" lon="6.2715">
        <ele>487</ele>
        <time>2019-04-16T19:36:05Z</time>
      </trkpt>
      <trkpt lat="46.18736" lon="6.27155">
        <ele>487</ele>
        <time>2019-04-16T19:37:05Z</time>
      </trkpt>
      <trkpt lat="46.18739" lon="6.27156">
        <ele>487</ele>
        <time>2019-04-16T19:38:05Z</time>
      </trkpt>
      <trkpt lat="46.18748" lon="6.27152">
        <ele>487</ele>
        <time>2019-04-16T19:39:05Z</time>
      </trkpt>
      <trkpt lat="46.18757" lon="6.27152">
        <ele>487</ele>
        <time>2019-04-16T19:40:05Z</time>
      </trkpt>
      <trkpt lat="46.18762" lon="6.27149">
        <ele>487</ele>
        <time>2019-04-16T19:41:05Z</time>
      </trkpt>
      <trkpt lat="46.18764" lon="6.27168">
        <ele>487</ele>
        <time>2019-04-16T19:42:05Z</time>
      </trkpt>
      <trkpt lat="46.18756" lon="6.27224">
        <ele>488</ele>
        <time>2019-04-16T19:43:05Z</time>
      </trkpt>
      <trkpt lat="46.18751" lon="6.27282">
        <ele>489</ele>
        <time>2019-04-16T19:44:05Z</time>
      </trkpt>
      <trkpt lat="46.18759" lon="6.2743">
        <ele>490</ele>
        <time>2019-04-16T19:45:05Z</time>
      </trkpt>
      <trkpt lat="46.1876" lon="6.27476">
        <ele>490</ele>
        <time>2019-04-16T19:46:05Z</time>
      </trkpt>
      <trkpt lat="46.1876" lon="6.27787">
        <ele>493</ele>
        <time>2019-04-16T19:47:05Z</time>
      </trkpt>
      <trkpt lat="46.18756" lon="6.27844">
        <ele>494</ele>
        <time>2019-04-16T19:48:05Z</time>
      </trkpt>
      <trkpt lat="46.18744" lon="6.27928">
        <ele>495</ele>
        <time>2019-04-16T19:49:05Z</time>
      </trkpt>
      <trkpt lat="46.18741" lon="6.27946">
        <ele>496</ele>
        <time>2019-04-16T19:50:05Z</time>
      </trkpt>
      <trkpt lat="46.18724" lon="6.28013">
        <ele>496</ele>
        <time>2019-04-16T19:51:05Z</time>
      </trkpt>
      <trkpt lat="46.18714" lon="6.28068">
        <ele>497</ele>
        <time>2019-04-16T19:52:05Z</time>
      </trkpt>
      <trkpt lat="46.18714" lon="6.28094">
        <ele>497</ele>
        <time>2019-04-16T19:53:05Z</time>
      </trkpt>
      <trkpt lat="46.18705" lon="6.28229">
        <ele>498</ele>
        <time>2019-04-16T19:54:05Z</time>
      </trkpt>
      <trkpt lat="46.18699" lon="6.28257">
        <ele>498</ele>
        <time>2019-04-16T19:55:05Z</time>
      </trkpt>
      <trkpt lat="46.18676" lon="6.28301">
        <ele>497</ele>
        <time>2019-04-16T19:56:05Z</time>
      </trkpt>
      <trkpt lat="46.18678" lon="6.28308">
        <ele>497</ele>
        <time>2019-04-16T19:57:05Z</time>
      </trkpt>
      <trkpt lat="46.18734" lon="6.28421">
        <ele>499</ele>
        <time>2019-04-16T19:58:05Z</time>
      </trkpt>
      <trkpt lat="46.18769" lon="6.28482">
        <ele>502</ele>
        <time>2019-04-16T19:59:05Z</time>
      </trkpt>
      <trkpt lat="46.18766" lon="6.28484">
        <ele>502</ele>
        <time>2019-04-16T20:00:05Z</time>
      </trkpt>
      <trkpt lat="46.18761" lon="6.28491">
        <ele>502</ele>
        <time>2019-04-16T20:01:05Z</time>
      </trkpt>
      <trkpt lat="46.18761" lon="6.28503">
        <ele>502</ele>
        <time>2019-04-16T20:02:05Z</time>
      </trkpt>
      <trkpt lat="46.18731" lon="6.2859">
        <ele>504</ele>
        <time>2019-04-16T20:03:05Z</time>
      </trkpt>
      <trkpt lat="46.18714" lon="6.28646">
        <ele>505</ele>
        <time>2019-04-16T20:04:05Z</time>
      </trkpt>
      <trkpt lat="46.18709" lon="6.2873">
        <ele>509</ele>
        <time>2019-04-16T20:05:05Z</time>
      </trkpt>
      <trkpt lat="46.18683" lon="6.28889">
        <ele>518</ele>
        <time>2019-04-16T20:06:05Z</time>
      </trkpt>
      <trkpt lat="46.18677" lon="6.28916">
        <ele>520</ele>
        <time>2019-04-16T20:07:05Z</time>
      </trkpt>
      <trkpt lat="46.18674" lon="6.28927">
        <ele>521</ele>
        <time>2019-04-16T20:08:05Z</time>
      </trkpt>
      <trkpt lat="46.18667" lon="6.28942">
        <ele>522</ele>
        <time>2019-04-16T20:09:05Z</time>
      </trkpt>
      <trkpt lat="46.18648" lon="6.28976">
        <ele>523</ele>
        <time>2019-04-16T20:10:05Z</time>
      </trkpt>
      <trkpt lat="46.18645" lon="6.28998">
        <ele>524</ele>
        <time>2019-04-16T20:11:05Z</time>
      </trkpt>
      <trkpt lat="46.18646" lon="6.28999">
        <ele>524</ele>
        <time>2019-04-16T20:12:05Z</time>
      </trkpt>
      <trkpt lat="46.18628" lon="6.29129">
        <ele>531</ele>
        <time>2019-04-16T20:13:05Z</time>
      </trkpt>
      <trkpt lat="46.1863" lon="6.29128">
        <ele>531</ele>
        <time>2019-04-16T20:14:05Z</time>
      </trkpt>
      <trkpt lat="46.1863" lon="6.29122">
        <ele>530</ele>
        <time>2019-04-16T20:15:05Z</time>
      </trkpt>
      <trkpt lat="46.18625" lon="6.29127">
        <ele>531</ele>
        <time>2019-04-16T20:16:05Z</time>
      </trkpt>
      <trkpt lat="46.18617" lon="6.29145">
        <ele>531</ele>
        <time>2019-04-16T20:17:05Z</time>
      </trkpt>
      <trkpt lat="46.18607" lon="6.29156">
        <ele>532</ele>
        <time>2019-04-16T20:18:05Z</time>
      </trkpt>
      <trkpt lat="46.18596" lon="6.29174">
        <ele>532</ele>
        <time>2019-04-16T20:19:05Z</time>
      </trkpt>
      <trkpt lat="46.18592" lon="6.29183">
        <ele>532</ele>
        <time>2019-04-16T20:20:05Z</time>
      </trkpt>
      <trkpt lat="46.18589" lon="6.292">
        <ele>531</ele>
        <time>2019-04-16T20:21:05Z</time>
      </trkpt>
      <trkpt lat="46.18575" lon="6.2925">
        <ele>528</ele>
        <time>2019-04-16T20:22:05Z</time>
      </trkpt>
      <trkpt lat="46.18568" lon="6.29263">
        <ele>526</ele>
        <time>2019-04-16T20:23:05Z</time>
      </trkpt>
      <trkpt lat="46.18422" lon="6.2942">
        <ele>511</ele>
        <time>2019-04-16T20:24:05Z</time>
      </trkpt>
      <trkpt lat="46.18392" lon="6.29464">
        <ele>508</ele>
        <time>2019-04-16T20:25:05Z</time>
      </trkpt>
      <trkpt lat="46.18377" lon="6.29474">
        <ele>506</ele>
        <time>2019-04-16T20:26:05Z</time>
      </trkpt>
      <trkpt lat="46.18332" lon="6.29484">
        <ele>503</ele>
        <time>2019-04-16T20:27:05Z</time>
      </trkpt>
      <trkpt lat="46.18309" lon="6.29494">
        <ele>501</ele>
        <time>2019-04-16T20:28:05Z</time>
      </trkpt>
      <trkpt lat="46.18297" lon="6.29503">
        <ele>499</ele>
        <time>2019-04-16T20:29:05Z</time>
      </trkpt>
      <trkpt lat="46.18215" lon="6.29608">
        <ele>493</ele>
        <time>2019-04-16T20:30:05Z</time>
      </trkpt>
      <trkpt lat="46.18202" lon="6.29631">
        <ele>493</ele>
        <time>2019-04-16T20:31:05Z</time>
      </trkpt>
      <trkpt lat="46.18195" lon="6.2965">
        <ele>493</ele>
        <time>2019-04-16T20:32:05Z</time>
      </trkpt>
      <trkpt lat="46.18183" lon="6.29693">
        <ele>494</ele>
        <time>2019-04-16T20:33:05Z</time>
      </trkpt>
      <trkpt lat="46.18174" lon="6.2971">
        <ele>495</ele>
        <time>2019-04-16T20:34:05Z</time>
      </trkpt>
      <trkpt lat="46.18164" lon="6.29717">
        <ele>495</ele>
        <time>2019-04-16T20:35:05Z</time>
      </trkpt>
      <trkpt lat="46.18134" lon="6.2973">
        <ele>496</ele>
        <time>2019-04-16T20:36:05Z</time>
      </trkpt>
      <trkpt lat="46.18126" lon="6.29736">
        <ele>497</ele>
        <time>2019-04-16T20:37:05Z</time>
      </trkpt>
      <trkpt lat="46.1809" lon="6.2978">
        <ele>499</ele>
        <time>2019-04-16T20:38:05Z</time>
      </trkpt>
      <trkpt lat="46.18076" lon="6.29794">
        <ele>500</ele>
        <time>2019-04-16T20:39:05Z</time>
      </trkpt>
      <trkpt lat="46.18061" lon="6.29808">
        <ele>500</ele>
        <time>2019-04-16T20:40:05Z</time>
      </trkpt>
      <trkpt lat="46.18046" lon="6.29813">
        <ele>500</ele>
        <time>2019-04-16T20:41:05Z</time>
      </trkpt>
      <trkpt lat="46.18047" lon="6.29823">
        <ele>500</ele>
        <time>2019-04-16T20:42:05Z</time>
      </trkpt>
      <trkpt lat="46.18046" lon="6.29829">
        <ele>500</ele>
        <time>2019-04-16T20:43:05Z</time>
      </trkpt>
      <trkpt lat="46.18026" lon="6.29844">
        <ele>500</ele>
        <time>2019-04-16T20:44:05Z</time>
      </trkpt>
      <trkpt lat="46.18018" lon="6.29867">
        <ele>500</ele>
        <time>2019-04-16T20:45:05Z</time>
      </trkpt>
      <trkpt lat="46.17983" lon="6.30002">
        <ele>505</ele>
        <time>2019-04-16T20:46:05Z</time>
      </trkpt>
      <trkpt lat="46.17979" lon="6.3">
        <ele>505</ele>
        <time>2019-04-16T20:47:05Z</time>
      </trkpt>
      <trkpt lat="46.1797" lon="6.30043">
        <ele>507</ele>
        <time>2019-04-16T20:48:05Z</time>
      </trkpt>
      <trkpt lat="46.1792" lon="6.30027">
        <ele>508</ele>
        <time>2019-04-16T20:49:05Z</time>
      </trkpt>
      <trkpt lat="46.17904" lon="6.30018">
        <ele>507</ele>
        <time>2019-04-16T20:50:05Z</time>
      </trkpt>
      <trkpt lat="46.17896" lon="6.30028">
        <ele>507</ele>
        <time>2019-04-16T20:51:05Z</time>
      </trkpt>
      <trkpt lat="46.17894" lon="6.30039">
        <ele>507</ele>
        <time>2019-04-16T20:52:05Z</time>
      </trkpt>
      <trkpt lat="46.17896" lon="6.30071">
        <ele>507</ele>
        <time>2019-04-16T20:53:05Z</time>
      </trkpt>
      <trkpt lat="46.17866" lon="6.30096">
        <ele>506</ele>
        <time>2019-04-16T20:54:05Z</time>
      </trkpt>
      <trkpt lat="46.17854" lon="6.301">
        <ele>505</ele>
        <time>2019-04-16T20:55:05Z</time>
      </trkpt>
      <trkpt lat="46.17841" lon="6.30095">
        <ele>504</ele>
        <time>2019-04-16T20:56:05Z</time>
      </trkpt>
      <trkpt lat="46.17812" lon="6.30074">
        <ele>501</ele>
        <time>2019-04-16T20:57:05Z</time>
      </trkpt>
      <trkpt lat="46.17795" lon="6.30064">
        <ele>500</ele>
        <time>2019-04-16T20:58:05Z</time>
      </trkpt>
      <trkpt lat="46.17768" lon="6.30058">
        <ele>497</ele>
        <time>2019-04-16T20:59:05Z</time>
      </trkpt>
      <trkpt lat="46.17744" lon="6.30055">
        <ele>494</ele>
        <time>2019-04-16T21:00:05Z</time>
      </trkpt>
      <trkpt lat="46.17702" lon="6.30047">
        <ele>486</ele>
        <time>2019-04-16T21:01:05Z</time>
      </trkpt>
      <trkpt lat="46.17669" lon="6.30028">
        <ele>480</ele>
        <time>2019-04-16T21:02:05Z</time>
      </trkpt>
      <trkpt lat="46.17655" lon="6.30023">
        <ele>479</ele>
        <time>2019-04-16T21:03:05Z</time>
      </trkpt>
      <trkpt lat="46.17577" lon="6.30002">
        <ele>476</ele>
        <time>2019-04-16T21:04:05Z</time>
      </trkpt>
      <trkpt lat="46.17521" lon="6.2999">
        <ele>474</ele>
        <time>2019-04-16T21:05:05Z</time>
      </trkpt>
      <trkpt lat="46.17513" lon="6.30058">
        <ele>474</ele>
        <time>2019-04-16T21:06:05Z</time>
      </trkpt>
      <trkpt lat="46.17498" lon="6.30134">
        <ele>475</ele>
        <time>2019-04-16T21:07:05Z</time>
      </trkpt>
      <trkpt lat="46.1748" lon="6.30242">
        <ele>475</ele>
        <time>2019-04-16T21:08:05Z</time>
      </trkpt>
      <trkpt lat="46.17476" lon="6.3028">
        <ele>475</ele>
        <time>2019-04-16T21:09:05Z</time>
      </trkpt>
      <trkpt lat="46.1746" lon="6.3058">
        <ele>482</ele>
        <time>2019-04-16T21:10:05Z</time>
      </trkpt>
      <trkpt lat="46.17461" lon="6.30626">
        <ele>483</ele>
        <time>2019-04-16T21:11:05Z</time>
      </trkpt>
      <trkpt lat="46.17464" lon="6.30647">
        <ele>484</ele>
        <time>2019-04-16T21:12:05Z</time>
      </trkpt>
      <trkpt lat="46.17468" lon="6.30659">
        <ele>484</ele>
        <time>2019-04-16T21:13:05Z</time>
      </trkpt>
      <trkpt lat="46.17469" lon="6.30668">
        <ele>484</ele>
        <time>2019-04-16T21:14:05Z</time>
      </trkpt>
      <trkpt lat="46.17454" lon="6.30701">
        <ele>484</ele>
        <time>2019-04-16T21:15:05Z</time>
      </trkpt>
      <trkpt lat="46.17443" lon="6.30715">
        <ele>484</ele>
        <time>2019-04-16T21:16:05Z</time>
      </trkpt>
      <trkpt lat="46.17435" lon="6.30725">
        <ele>484</ele>
        <time>2019-04-16T21:17:05Z</time>
      </trkpt>
      <trkpt lat="46.17402" lon="6.30748">
        <ele>483</ele>
        <time>2019-04-16T21:18:05Z</time>
      </trkpt>
      <trkpt lat="46.17391" lon="6.30756">
        <ele>483</ele>
        <time>2019-04-16T21:19:05Z</time>
      </trkpt>
      <trkpt lat="46.1738" lon="6.3076">
        <ele>483</ele>
        <time>2019-04-16T21:20:05Z</time>
      </trkpt>
      <trkpt lat="46.1737" lon="6.30762">
        <ele>483</ele>
        <time>2019-04-16T21:21:05Z</time>
      </trkpt>
      <trkpt lat="46.17335" lon="6.30761">
        <ele>482</ele>
        <time>2019-04-16T21:22:05Z</time>
      </trkpt>
      <trkpt lat="46.17326" lon="6.30765">
        <ele>482</ele>
        <time>2019-04-16T21:23:05Z</time>
      </trkpt>
      <trkpt lat="46.17289" lon="6.30788">
        <ele>483</ele>
        <time>2019-04-16T21:24:05Z</time>
      </trkpt>
      <trkpt lat="46.17277" lon="6.30801">
        <ele>483</ele>
        <time>2019-04-16T21:25:05Z</time>
      </trkpt>
      <trkpt lat="46.17257" lon="6.30834">
        <ele>484</ele>
        <time>2019-04-16T21:26:05Z</time>
      </trkpt>
      <trkpt lat="46.1725" lon="6.3085">
        <ele>484</ele>
        <time>2019-04-16T21:27:05Z</time>
      </trkpt>
      <trkpt lat="46.17244" lon="6.30872">
        <ele>483</ele>
        <time>2019-04-16T21:28:05Z</time>
      </trkpt>
      <trkpt lat="46.17224" lon="6.30961">
        <ele>484</ele>
        <time>2019-04-16T21:29:05Z</time>
      </trkpt>
      <trkpt lat="46.17217" lon="6.30981">
        <ele>484</ele>
        <time>2019-04-16T21:30:05Z</time>
      </trkpt>
      <trkpt lat="46.17209" lon="6.30995">
        <ele>484</ele>
        <time>2019-04-16T21:31:05Z</time>
      </trkpt>
      <trkpt lat="46.1719" lon="6.31017">
        <ele>483</ele>
        <time>2019-04-16T21:32:05Z</time>
      </trkpt>
      <trkpt lat="46.1707" lon="6.31122">
        <ele>484</ele>
        <time>2019-04-16T21:33:05Z</time>
      </trkpt>
      <trkpt lat="46.17031" lon="6.31162">
        <ele>484</ele>
        <time>2019-04-16T21:34:05Z</time>
      </trkpt>
      <trkpt lat="46.16933" lon="6.31287">
        <ele>485</ele>
        <time>2019-04-16T21:35:05Z</time>
      </trkpt>
      <trkpt lat="46.16928" lon="6.313">
        <ele>486</ele>
        <time>2019-04-16T21:36:05Z</time>
      </trkpt>
      <trkpt lat="46.16927" lon="6.31307">
        <ele>486</ele>
        <time>2019-04-16T21:37:05Z</time>
      </trkpt>
      <trkpt lat="46.16932" lon="6.31324">
        <ele>487</ele>
        <time>2019-04-16T21:38:05Z</time>
      </trkpt>
      <trkpt lat="46.16919" lon="6.31338">
        <ele>487</ele>
        <time>2019-04-16T21:39:05Z</time>
      </trkpt>
      <trkpt lat="46.16915" lon="6.31345">
        <ele>487</ele>
        <time>2019-04-16T21:40:05Z</time>
      </trkpt>
      <trkpt lat="46.16889" lon="6.31407">
        <ele>489</ele>
        <time>2019-04-16T21:41:05Z</time>
      </trkpt>
      <trkpt lat="46.16881" lon="6.31436">
        <ele>489</ele>
        <time>2019-04-16T21:42:05Z</time>
      </trkpt>
      <trkpt lat="46.16853" lon="6.31491">
        <ele>489</ele>
        <time>2019-04-16T21:43:05Z</time>
      </trkpt>
      <trkpt lat="46.16843" lon="6.31514">
        <ele>488</ele>
        <time>2019-04-16T21:44:05Z</time>
      </trkpt>
      <trkpt lat="46.1681" lon="6.31576">
        <ele>488</ele>
        <time>2019-04-16T21:45:05Z</time>
      </trkpt>
      <trkpt lat="46.1679" lon="6.31605">
        <ele>488</ele>
        <time>2019-04-16T21:46:05Z</time>
      </trkpt>
      <trkpt lat="46.16791" lon="6.31606">
        <ele>488</ele>
        <time>2019-04-16T21:47:05Z</time>
      </trkpt>
      <trkpt lat="46.1672" lon="6.31713">
        <ele>495</ele>
        <time>2019-04-16T21:48:05Z</time>
      </trkpt>
      <trkpt lat="46.1672" lon="6.31713">
        <ele>495</ele>
        <time>2019-04-16T21:49:05Z</time>
      </trkpt>
      <trkpt lat="46.16714" lon="6.31702">
        <ele>495</ele>
        <time>2019-04-16T21:50:05Z</time>
      </trkpt>
      <trkpt lat="46.16714" lon="6.31702">
        <ele>495</ele>
        <time>2019-04-16T21:51:05Z</time>
      </trkpt>
      <trkpt lat="46.1674" lon="6.3166">
        <ele>490</ele>
        <time>2019-04-16T21:52:05Z</time>
      </trkpt>
      <trkpt lat="46.1674" lon="6.3166">
        <ele>490</ele>
        <time>2019-04-16T21:53:05Z</time>
      </trkpt>
      <trkpt lat="46.16752" lon="6.31677">
        <ele>489</ele>
        <time>2019-04-16T21:54:05Z</time>
      </trkpt>
      <trkpt lat="46.16774" lon="6.3173">
        <ele>491</ele>
        <time>2019-04-16T21:55:05Z</time>
      </trkpt>
      <trkpt lat="46.16774" lon="6.31742">
        <ele>491</ele>
        <time>2019-04-16T21:56:05Z</time>
      </trkpt>
      <trkpt lat="46.16757" lon="6.31775">
        <ele>492</ele>
        <time>2019-04-16T21:57:05Z</time>
      </trkpt>
      <trkpt lat="46.16757" lon="6.31786">
        <ele>493</ele>
        <time>2019-04-16T21:58:05Z</time>
      </trkpt>
      <trkpt lat="46.16763" lon="6.31795">
        <ele>493</ele>
        <time>2019-04-16T21:59:05Z</time>
      </trkpt>
      <trkpt lat="46.16765" lon="6.31804">
        <ele>493</ele>
        <time>2019-04-16T22:00:05Z</time>
      </trkpt>
      <trkpt lat="46.16764" lon="6.31817">
        <ele>494</ele>
        <time>2019-04-16T22:01:05Z</time>
      </trkpt>
      <trkpt lat="46.1675" lon="6.31847">
        <ele>495</ele>
        <time>2019-04-16T22:02:05Z</time>
      </trkpt>
      <trkpt lat="46.16712" lon="6.31911">
        <ele>497</ele>
        <time>2019-04-16T22:03:05Z</time>
      </trkpt>
      <trkpt lat="46.16701" lon="6.31925">
        <ele>497</ele>
        <time>2019-04-16T22:04:05Z</time>
      </trkpt>
      <trkpt lat="46.1667" lon="6.31957">
        <ele>497</ele>
        <time>2019-04-16T22:05:05Z</time>
      </trkpt>
      <trkpt lat="46.16622" lon="6.32013">
        <ele>501</ele>
        <time>2019-04-16T22:06:05Z</time>
      </trkpt>
      <trkpt lat="46.16606" lon="6.32037">
        <ele>501</ele>
        <time>2019-04-16T22:07:05Z</time>
      </trkpt>
      <trkpt lat="46.16588" lon="6.32053">
        <ele>501</ele>
        <time>2019-04-16T22:08:05Z</time>
      </trkpt>
      <trkpt lat="46.16568" lon="6.32065">
        <ele>502</ele>
        <time>2019-04-16T22:09:05Z</time>
      </trkpt>
      <trkpt lat="46.16567" lon="6.3207">
        <ele>502</ele>
        <time>2019-04-16T22:10:05Z</time>
      </trkpt>
      <trkpt lat="46.16556" lon="6.32065">
        <ele>503</ele>
        <time>2019-04-16T22:11:05Z</time>
      </trkpt>
      <trkpt lat="46.16538" lon="6.32062">
        <ele>505</ele>
        <time>2019-04-16T22:12:05Z</time>
      </trkpt>
      <trkpt lat="46.16495" lon="6.32059">
        <ele>509</ele>
        <time>2019-04-16T22:13:05Z</time>
      </trkpt>
      <trkpt lat="46.16452" lon="6.32051">
        <ele>512</ele>
        <time>2019-04-16T22:14:05Z</time>
      </trkpt>
      <trkpt lat="46.16439" lon="6.32045">
        <ele>513</ele>
        <time>2019-04-16T22:15:05Z</time>
      </trkpt>
      <trkpt lat="46.16425" lon="6.32035">
        <ele>514</ele>
        <time>2019-04-16T22:16:05Z</time>
      </trkpt>
      <trkpt lat="46.16396" lon="6.31992">
        <ele>515</ele>
        <time>2019-04-16T22:17:05Z</time>
      </trkpt>
      <trkpt lat="46.16377" lon="6.31954">
        <ele>515</ele>
        <time>2019-04-16T22:18:05Z</time>
      </trkpt>
      <trkpt lat="46.16368" lon="6.31928">
        <ele>515</ele>
        <time>2019-04-16T22:19:05Z</time>
      </trkpt>
      <trkpt lat="46.16355" lon="6.31868">
        <ele>517</ele>
        <time>2019-04-16T22:20:05Z</time>
      </trkpt>
      <trkpt lat="46.16341" lon="6.31836">
        <ele>519</ele>
        <time>2019-04-16T22:21:05Z</time>
      </trkpt>
      <trkpt lat="46.16301" lon="6.31758">
        <ele>518</ele>
        <time>2019-04-16T22:22:05Z</time>
      </trkpt>
      <trkpt lat="46.16294" lon="6.31747">
        <ele>518</ele>
        <time>2019-04-16T22:23:05Z</time>
      </trkpt>
      <trkpt lat="46.16227" lon="6.31677">
        <ele>519</ele>
        <time>2019-04-16T22:24:05Z</time>
      </trkpt>
      <trkpt lat="46.16213" lon="6.31668">
        <ele>519</ele>
        <time>2019-04-16T22:25:05Z</time>
      </trkpt>
      <trkpt lat="46.16197" lon="6.31663">
        <ele>518</ele>
        <time>2019-04-16T22:26:05Z</time>
      </trkpt>
      <trkpt lat="46.16185" lon="6.31676">
        <ele>516</ele>
        <time>2019-04-16T22:27:05Z</time>
      </trkpt>
      <trkpt lat="46.16148" lon="6.31652">
        <ele>518</ele>
        <time>2019-04-16T22:28:05Z</time>
      </trkpt>
      <trkpt lat="46.16146" lon="6.31649">
        <ele>519</ele>
        <time>2019-04-16T22:29:05Z</time>
      </trkpt>
      <trkpt lat="46.16142" lon="6.31641">
        <ele>519</ele>
        <time>2019-04-16T22:30:05Z</time>
      </trkpt>
      <trkpt lat="46.1614" lon="6.31625">
        <ele>520</ele>
        <time>2019-04-16T22:31:05Z</time>
      </trkpt>
      <trkpt lat="46.16147" lon="6.31574">
        <ele>522</ele>
        <time>2019-04-16T22:32:05Z</time>
      </trkpt>
      <trkpt lat="46.16144" lon="6.31557">
        <ele>522</ele>
        <time>2019-04-16T22:33:05Z</time>
      </trkpt>
      <trkpt lat="46.16153" lon="6.31541">
        <ele>522</ele>
        <time>2019-04-16T22:34:05Z</time>
      </trkpt>
      <trkpt lat="46.1617" lon="6.31505">
        <ele>522</ele>
        <time>2019-04-16T22:35:05Z</time>
      </trkpt>
      <trkpt lat="46.16175" lon="6.31493">
        <ele>522</ele>
        <time>2019-04-16T22:36:05Z</time>
      </trkpt>
      <trkpt lat="46.16179" lon="6.3147">
        <ele>522</ele>
        <time>2019-04-16T22:37:05Z</time>
      </trkpt>
      <trkpt lat="46.16176" lon="6.3145">
        <ele>522</ele>
        <time>2019-04-16T22:38:05Z</time>
      </trkpt>
      <trkpt lat="46.16146" lon="6.31333">
        <ele>524</ele>
        <time>2019-04-16T22:39:05Z</time>
      </trkpt>
      <trkpt lat="46.16143" lon="6.31315">
        <ele>523</ele>
        <time>2019-04-16T22:40:05Z</time>
      </trkpt>
      <trkpt lat="46.16143" lon="6.31303">
        <ele>522</ele>
        <time>2019-04-16T22:41:05Z</time>
      </trkpt>
      <trkpt lat="46.16174" lon="6.31213">
        <ele>520</ele>
        <time>2019-04-16T22:42:05Z</time>
      </trkpt>
      <trkpt lat="46.16188" lon="6.31181">
        <ele>519</ele>
        <time>2019-04-16T22:43:05Z</time>
      </trkpt>
      <trkpt lat="46.16221" lon="6.31131">
        <ele>518</ele>
        <time>2019-04-16T22:44:05Z</time>
      </trkpt>
      <trkpt lat="46.16233" lon="6.31102">
        <ele>518</ele>
        <time>2019-04-16T22:45:05Z</time>
      </trkpt>
      <trkpt lat="46.16246" lon="6.31084">
        <ele>519</ele>
        <time>2019-04-16T22:46:05Z</time>
      </trkpt>
      <trkpt lat="46.16249" lon="6.31072">
        <ele>518</ele>
        <time>2019-04-16T22:47:05Z</time>
      </trkpt>
      <trkpt lat="46.16248" lon="6.31063">
        <ele>518</ele>
        <time>2019-04-16T22:48:05Z</time>
      </trkpt>
      <trkpt lat="46.16225" lon="6.31022">
        <ele>514</ele>
        <time>2019-04-16T22:49:05Z</time>
      </trkpt>
      <trkpt lat="46.16201" lon="6.30966">
        <ele>508</ele>
        <time>2019-04-16T22:50:05Z</time>
      </trkpt>
      <trkpt lat="46.16196" lon="6.30939">
        <ele>506</ele>
        <time>2019-04-16T22:51:05Z</time>
      </trkpt>
      <trkpt lat="46.16193" lon="6.30875">
        <ele>503</ele>
        <time>2019-04-16T22:52:05Z</time>
      </trkpt>
      <trkpt lat="46.1619" lon="6.30853">
        <ele>502</ele>
        <time>2019-04-16T22:53:05Z</time>
      </trkpt>
      <trkpt lat="46.16187" lon="6.30846">
        <ele>501</ele>
        <time>2019-04-16T22:54:05Z</time>
      </trkpt>
      <trkpt lat="46.16179" lon="6.30834">
        <ele>501</ele>
        <time>2019-04-16T22:55:05Z</time>
      </trkpt>
      <trkpt lat="46.16138" lon="6.30791">
        <ele>499</ele>
        <time>2019-04-16T22:56:05Z</time>
      </trkpt>
      <trkpt lat="46.16062" lon="6.30701">
        <ele>496</ele>
        <time>2019-04-16T22:57:05Z</time>
      </trkpt>
      <trkpt lat="46.15942" lon="6.30595">
        <ele>491</ele>
        <time>2019-04-16T22:58:05Z</time>
      </trkpt>
      <trkpt lat="46.15931" lon="6.30586">
        <ele>491</ele>
        <time>2019-04-16T22:59:05Z</time>
      </trkpt>
      <trkpt lat="46.15913" lon="6.30576">
        <ele>490</ele>
        <time>2019-04-16T23:00:05Z</time>
      </trkpt>
      <trkpt lat="46.15899" lon="6.30574">
        <ele>490</ele>
        <time>2019-04-16T23:01:05Z</time>
      </trkpt>
      <trkpt lat="46.1589" lon="6.30576">
        <ele>489</ele>
        <time>2019-04-16T23:02:05Z</time>
      </trkpt>
      <trkpt lat="46.15841" lon="6.30592">
        <ele>488</ele>
        <time>2019-04-16T23:03:05Z</time>
      </trkpt>
      <trkpt lat="46.1569" lon="6.30613">
        <ele>484</ele>
        <time>2019-04-16T23:04:05Z</time>
      </trkpt>
      <trkpt lat="46.15601" lon="6.30618">
        <ele>481</ele>
        <time>2019-04-16T23:05:05Z</time>
      </trkpt>
      <trkpt lat="46.15513" lon="6.30596">
        <ele>479</ele>
        <time>2019-04-16T23:06:05Z</time>
      </trkpt>
      <trkpt lat="46.15507" lon="6.30596">
        <ele>479</ele>
        <time>2019-04-16T23:07:05Z</time>
      </trkpt>
      <trkpt lat="46.15495" lon="6.3061">
        <ele>479</ele>
        <time>2019-04-16T23:08:05Z</time>
      </trkpt>
      <trkpt lat="46.15478" lon="6.30595">
        <ele>478</ele>
        <time>2019-04-16T23:09:05Z</time>
      </trkpt>
      <trkpt lat="46.15464" lon="6.30574">
        <ele>477</ele>
        <time>2019-04-16T23:10:05Z</time>
      </trkpt>
      <trkpt lat="46.15454" lon="6.30565">
        <ele>477</ele>
        <time>2019-04-16T23:11:05Z</time>
      </trkpt>
      <trkpt lat="46.1542" lon="6.3055">
        <ele>475</ele>
        <time>2019-04-16T23:12:05Z</time>
      </trkpt>
      <trkpt lat="46.15407" lon="6.3061">
        <ele>476</ele>
        <time>2019-04-16T23:13:05Z</time>
      </trkpt>
      <trkpt lat="46.154" lon="6.30635">
        <ele>476</ele>
        <time>2019-04-16T23:14:05Z</time>
      </trkpt>
      <trkpt lat="46.15388" lon="6.30663">
        <ele>476</ele>
        <time>2019-04-16T23:15:05Z</time>
      </trkpt>
      <trkpt lat="46.15375" lon="6.30684">
        <ele>476</ele>
        <time>2019-04-16T23:16:05Z</time>
      </trkpt>
      <trkpt lat="46.15346" lon="6.30722">
        <ele>475</ele>
        <time>2019-04-16T23:17:05Z</time>
      </trkpt>
      <trkpt lat="46.15341" lon="6.30718">
        <ele>475</ele>
        <time>2019-04-16T23:18:05Z</time>
      </trkpt>
      <trkpt lat="46.15335" lon="6.30722">
        <ele>475</ele>
        <time>2019-04-16T23:19:05Z</time>
      </trkpt>
      <trkpt lat="46.15322" lon="6.30711">
        <ele>474</ele>
        <time>2019-04-16T23:20:05Z</time>
      </trkpt>
      <trkpt lat="46.15306" lon="6.30707">
        <ele>474</ele>
        <time>2019-04-16T23:21:05Z</time>
      </trkpt>
      <trkpt lat="46.15219" lon="6.30732">
        <ele>470</ele>
        <time>2019-04-16T23:22:05Z</time>
      </trkpt>
      <trkpt lat="46.15199" lon="6.30735">
        <ele>469</ele>
        <time>2019-04-16T23:23:05Z</time>
      </trkpt>
      <trkpt lat="46.1519" lon="6.30733">
        <ele>469</ele>
        <time>2019-04-16T23:24:05Z</time>
      </trkpt>
      <trkpt lat="46.15183" lon="6.30729">
        <ele>468</ele>
        <time>2019-04-16T23:25:05Z</time>
      </trkpt>
      <trkpt lat="46.15142" lon="6.30686">
        <ele>465</ele>
        <time>2019-04-16T23:26:05Z</time>
      </trkpt>
      <trkpt lat="46.15131" lon="6.30678">
        <ele>464</ele>
        <time>2019-04-16T23:27:05Z</time>
      </trkpt>
      <trkpt lat="46.15124" lon="6.30676">
        <ele>463</ele>
        <time>2019-04-16T23:28:05Z</time>
      </trkpt>
      <trkpt lat="46.15108" lon="6.30675">
        <ele>462</ele>
        <time>2019-04-16T23:29:05Z</time>
      </trkpt>
      <trkpt lat="46.15041" lon="6.30698">
        <ele>460</ele>
        <time>2019-04-16T23:30:05Z</time>
      </trkpt>
      <trkpt lat="46.15018" lon="6.30698">
        <ele>459</ele>
        <time>2019-04-16T23:31:05Z</time>
      </trkpt>
      <trkpt lat="46.14996" lon="6.30691">
        <ele>459</ele>
        <time>2019-04-16T23:32:05Z</time>
      </trkpt>
      <trkpt lat="46.14964" lon="6.30665">
        <ele>459</ele>
        <time>2019-04-16T23:33:05Z</time>
      </trkpt>
      <trkpt lat="46.14918" lon="6.30621">
        <ele>457</ele>
        <time>2019-04-16T23:34:05Z</time>
      </trkpt>
      <trkpt lat="46.14907" lon="6.30613">
        <ele>457</ele>
        <time>2019-04-16T23:35:05Z</time>
      </trkpt>
      <trkpt lat="46.14785" lon="6.30549">
        <ele>455</ele>
        <time>2019-04-16T23:36:05Z</time>
      </trkpt>
      <trkpt lat="46.14701" lon="6.30525">
        <ele>453</ele>
        <time>2019-04-16T23:37:05Z</time>
      </trkpt>
      <trkpt lat="46.14625" lon="6.30501">
        <ele>449</ele>
        <time>2019-04-16T23:38:05Z</time>
      </trkpt>
      <trkpt lat="46.14611" lon="6.30499">
        <ele>448</ele>
        <time>2019-04-16T23:39:05Z</time>
      </trkpt>
      <trkpt lat="46.14599" lon="6.30504">
        <ele>447</ele>
        <time>2019-04-16T23:40:05Z</time>
      </trkpt>
      <trkpt lat="46.1459" lon="6.30515">
        <ele>446</ele>
        <time>2019-04-16T23:41:05Z</time>
      </trkpt>
      <trkpt lat="46.14557" lon="6.30563">
        <ele>446</ele>
        <time>2019-04-16T23:42:05Z</time>
      </trkpt>
      <trkpt lat="46.14537" lon="6.30585">
        <ele>446</ele>
        <time>2019-04-16T23:43:05Z</time>
      </trkpt>
      <trkpt lat="46.14525" lon="6.30592">
        <ele>447</ele>
        <time>2019-04-16T23:44:05Z</time>
      </trkpt>
      <trkpt lat="46.14512" lon="6.30596">
        <ele>447</ele>
        <time>2019-04-16T23:45:05Z</time>
      </trkpt>
      <trkpt lat="46.145" lon="6.30596">
        <ele>447</ele>
        <time>2019-04-16T23:46:05Z</time>
      </trkpt>
      <trkpt lat="46.14488" lon="6.30592">
        <ele>448</ele>
        <time>2019-04-16T23:47:05Z</time>
      </trkpt>
      <trkpt lat="46.1442" lon="6.30537">
        <ele>452</ele>
        <time>2019-04-16T23:48:05Z</time>
      </trkpt>
      <trkpt lat="46.14408" lon="6.30533">
        <ele>452</ele>
        <time>2019-04-16T23:49:05Z</time>
      </trkpt>
      <trkpt lat="46.14397" lon="6.30535">
        <ele>452</ele>
        <time>2019-04-16T23:50:05Z</time>
      </trkpt>
      <trkpt lat="46.14306" lon="6.30612">
        <ele>455</ele>
        <time>2019-04-16T23:51:05Z</time>
      </trkpt>
      <trkpt lat="46.1426" lon="6.3067">
        <ele>458</ele>
        <time>2019-04-16T23:52:05Z</time>
      </trkpt>
      <trkpt lat="46.14239" lon="6.30692">
        <ele>458</ele>
        <time>2019-04-16T23:53:05Z</time>
      </trkpt>
      <trkpt lat="46.14216" lon="6.30708">
        <ele>459</ele>
        <time>2019-04-16T23:54:05Z</time>
      </trkpt>
      <trkpt lat="46.1415" lon="6.30734">
        <ele>461</ele>
        <time>2019-04-16T23:55:05Z</time>
      </trkpt>
      <trkpt lat="46.14138" lon="6.30742">
        <ele>462</ele>
        <time>2019-04-16T23:56:05Z</time>
      </trkpt>
      <trkpt lat="46.1412" lon="6.30758">
        <ele>462</ele>
        <time>2019-04-16T23:57:05Z</time>
      </trkpt>
      <trkpt lat="46.14113" lon="6.30768">
        <ele>462</ele>
        <time>2019-04-16T23:58:05Z</time>
      </trkpt>
      <trkpt lat="46.14097" lon="6.30799">
        <ele>462</ele>
        <time>2019-04-16T23:59:05Z</time>
      </trkpt>
      <trkpt lat="46.14093" lon="6.30812">
        <ele>463</ele>
        <time>2019-04-17T00:00:05Z</time>
      </trkpt>
      <trkpt lat="46.14099" lon="6.30833">
        <ele>462</ele>
        <time>2019-04-17T00:01:05Z</time>
      </trkpt>
      <trkpt lat="46.14099" lon="6.30843">
        <ele>462</ele>
        <time>2019-04-17T00:02:05Z</time>
      </trkpt>
      <trkpt lat="46.14093" lon="6.30873">
        <ele>462</ele>
        <time>2019-04-17T00:03:05Z</time>
      </trkpt>
      <trkpt lat="46.14074" lon="6.30935">
        <ele>462</ele>
        <time>2019-04-17T00:04:05Z</time>
      </trkpt>
      <trkpt lat="46.13988" lon="6.31083">
        <ele>461</ele>
        <time>2019-04-17T00:05:05Z</time>
      </trkpt>
      <trkpt lat="46.13972" lon="6.31114">
        <ele>461</ele>
        <time>2019-04-17T00:06:05Z</time>
      </trkpt>
      <trkpt lat="46.1396" lon="6.31142">
        <ele>460</ele>
        <time>2019-04-17T00:07:05Z</time>
      </trkpt>
      <trkpt lat="46.13953" lon="6.31166">
        <ele>459</ele>
        <time>2019-04-17T00:08:05Z</time>
      </trkpt>
      <trkpt lat="46.13947" lon="6.312">
        <ele>459</ele>
        <time>2019-04-17T00:09:05Z</time>
      </trkpt>
      <trkpt lat="46.13935" lon="6.31288">
        <ele>457</ele>
        <time>2019-04-17T00:10:05Z</time>
      </trkpt>
      <trkpt lat="46.13925" lon="6.31323">
        <ele>456</ele>
        <time>2019-04-17T00:11:05Z</time>
      </trkpt>
      <trkpt lat="46.13901" lon="6.31375">
        <ele>455</ele>
        <time>2019-04-17T00:12:05Z</time>
      </trkpt>
      <trkpt lat="46.13895" lon="6.31398">
        <ele>454</ele>
        <time>2019-04-17T00:13:05Z</time>
      </trkpt>
      <trkpt lat="46.1389" lon="6.3143">
        <ele>454</ele>
        <time>2019-04-17T00:14:05Z</time>
      </trkpt>
      <trkpt lat="46.13886" lon="6.3148">
        <ele>452</ele>
        <time>2019-04-17T00:15:05Z</time>
      </trkpt>
      <trkpt lat="46.13881" lon="6.31503">
        <ele>451</ele>
        <time>2019-04-17T00:16:05Z</time>
      </trkpt>
      <trkpt lat="46.13884" lon="6.31505">
        <ele>451</ele>
        <time>2019-04-17T00:17:05Z</time>
      </trkpt>
      <trkpt lat="46.13863" lon="6.31614">
        <ele>448</ele>
        <time>2019-04-17T00:18:05Z</time>
      </trkpt>
      <trkpt lat="46.13859" lon="6.31629">
        <ele>448</ele>
        <time>2019-04-17T00:19:05Z</time>
      </trkpt>
      <trkpt lat="46.13832" lon="6.31682">
        <ele>445</ele>
        <time>2019-04-17T00:20:05Z</time>
      </trkpt>
      <trkpt lat="46.13827" lon="6.31699">
        <ele>444</ele>
        <time>2019-04-17T00:21:05Z</time>
      </trkpt>
      <trkpt lat="46.1382" lon="6.31702">
        <ele>443</ele>
        <time>2019-04-17T00:22:05Z</time>
      </trkpt>
      <trkpt lat="46.13811" lon="6.31699">
        <ele>442</ele>
        <time>2019-04-17T00:23:05Z</time>
      </trkpt>
      <trkpt lat="46.13803" lon="6.31686">
        <ele>441</ele>
        <time>2019-04-17T00:24:05Z</time>
      </trkpt>
      <trkpt lat="46.13796" lon="6.3168">
        <ele>441</ele>
        <time>2019-04-17T00:25:05Z</time>
      </trkpt>
      <trkpt lat="46.13789" lon="6.3168">
        <ele>440</ele>
        <time>2019-04-17T00:26:05Z</time>
      </trkpt>
      <trkpt lat="46.13785" lon="6.31683">
        <ele>439</ele>
        <time>2019-04-17T00:27:05Z</time>
      </trkpt>
      <trkpt lat="46.13782" lon="6.3169">
        <ele>438</ele>
        <time>2019-04-17T00:28:05Z</time>
      </trkpt>
      <trkpt lat="46.13773" lon="6.3172">
        <ele>436</ele>
        <time>2019-04-17T00:29:05Z</time>
      </trkpt>
      <trkpt lat="46.13761" lon="6.3178">
        <ele>433</ele>
        <time>2019-04-17T00:30:05Z</time>
      </trkpt>
      <trkpt lat="46.13753" lon="6.31828">
        <ele>432</ele>
        <time>2019-04-17T00:31:05Z</time>
      </trkpt>
      <trkpt lat="46.13746" lon="6.31897">
        <ele>435</ele>
        <time>2019-04-17T00:32:05Z</time>
      </trkpt>
      <trkpt lat="46.13714" lon="6.31996">
        <ele>436</ele>
        <time>2019-04-17T00:33:05Z</time>
      </trkpt>
      <trkpt lat="46.13689" lon="6.32046">
        <ele>435</ele>
        <time>2019-04-17T00:34:05Z</time>
      </trkpt>
      <trkpt lat="46.13674" lon="6.32089">
        <ele>434</ele>
        <time>2019-04-17T00:35:05Z</time>
      </trkpt>
      <trkpt lat="46.13637" lon="6.32273">
        <ele>437</ele>
        <time>2019-04-17T00:36:05Z</time>
      </trkpt>
      <trkpt lat="46.13623" lon="6.32309">
        <ele>437</ele>
        <time>2019-04-17T00:37:05Z</time>
      </trkpt>
      <trkpt lat="46.13604" lon="6.32344">
        <ele>435</ele>
        <time>2019-04-17T00:38:05Z</time>
      </trkpt>
      <trkpt lat="46.13585" lon="6.32392">
        <ele>432</ele>
        <time>2019-04-17T00:39:05Z</time>
      </trkpt>
      <trkpt lat="46.13576" lon="6.32406">
        <ele>431</ele>
        <time>2019-04-17T00:40:05Z</time>
      </trkpt>
      <trkpt lat="46.13543" lon="6.32477">
        <ele>431</ele>
        <time>2019-04-17T00:41:05Z</time>
      </trkpt>
      <trkpt lat="46.1353" lon="6.32515">
        <ele>432</ele>
        <time>2019-04-17T00:42:05Z</time>
      </trkpt>
      <trkpt lat="46.13525" lon="6.32524">
        <ele>432</ele>
        <time>2019-04-17T00:43:05Z</time>
      </trkpt>
      <trkpt lat="46.13487" lon="6.3257">
        <ele>432</ele>
        <time>2019-04-17T00:44:05Z</time>
      </trkpt>
      <trkpt lat="46.13472" lon="6.32596">
        <ele>433</ele>
        <time>2019-04-17T00:45:05Z</time>
      </trkpt>
      <trkpt lat="46.13465" lon="6.32606">
        <ele>434</ele>
        <time>2019-04-17T00:46:05Z</time>
      </trkpt>
      <trkpt lat="46.13439" lon="6.32626">
        <ele>435</ele>
        <time>2019-04-17T00:47:05Z</time>
      </trkpt>
      <trkpt lat="46.13316" lon="6.32757">
        <ele>436</ele>
        <time>2019-04-17T00:48:05Z</time>
      </trkpt>
      <trkpt lat="46.13285" lon="6.32795">
        <ele>435</ele>
        <time>2019-04-17T00:49:05Z</time>
      </trkpt>
      <trkpt lat="46.13247" lon="6.32833">
        <ele>434</ele>
        <time>2019-04-17T00:50:05Z</time>
      </trkpt>
      <trkpt lat="46.13237" lon="6.32849">
        <ele>434</ele>
        <time>2019-04-17T00:51:05Z</time>
      </trkpt>
      <trkpt lat="46.1321" lon="6.32863">
        <ele>433</ele>
        <time>2019-04-17T00:52:05Z</time>
      </trkpt>
      <trkpt lat="46.13185" lon="6.32874">
        <ele>432</ele>
        <time>2019-04-17T00:53:05Z</time>
      </trkpt>
      <trkpt lat="46.1317" lon="6.32889">
        <ele>431</ele>
        <time>2019-04-17T00:54:05Z</time>
      </trkpt>
      <trkpt lat="46.13151" lon="6.32924">
        <ele>431</ele>
        <time>2019-04-17T00:55:05Z</time>
      </trkpt>
      <trkpt lat="46.13107" lon="6.32982">
        <ele>431</ele>
        <time>2019-04-17T00:56:05Z</time>
      </trkpt>
      <trkpt lat="46.13046" lon="6.33026">
        <ele>430</ele>
        <time>2019-04-17T00:57:05Z</time>
      </trkpt>
      <trkpt lat="46.13001" lon="6.33048">
        <ele>430</ele>
        <time>2019-04-17T00:58:05Z</time>
      </trkpt>
      <trkpt lat="46.12894" lon="6.3312">
        <ele>431</ele>
        <time>2019-04-17T00:59:05Z</time>
      </trkpt>
      <trkpt lat="46.12842" lon="6.33174">
        <ele>431</ele>
        <time>2019-04-17T01:00:05Z</time>
      </trkpt>
      <trkpt lat="46.1281" lon="6.33226">
        <ele>431</ele>
        <time>2019-04-17T01:01:05Z</time>
      </trkpt>
      <trkpt lat="46.12795" lon="6.33248">
        <ele>431</ele>
        <time>2019-04-17T01:02:05Z</time>
      </trkpt>
      <trkpt lat="46.12779" lon="6.3328">
        <ele>431</ele>
        <time>2019-04-17T01:03:05Z</time>
      </trkpt>
      <trkpt lat="46.12769" lon="6.33307">
        <ele>431</ele>
        <time>2019-04-17T01:04:05Z</time>
      </trkpt>
      <trkpt lat="46.1276" lon="6.33312">
        <ele>431</ele>
        <time>2019-04-17T01:05:05Z</time>
      </trkpt>
      <trkpt lat="46.12752" lon="6.33314">
        <ele>431</ele>
        <time>2019-04-17T01:06:05Z</time>
      </trkpt>
      <trkpt lat="46.12734" lon="6.33308">
        <ele>431</ele>
        <time>2019-04-17T01:07:05Z</time>
      </trkpt>
      <trkpt lat="46.12706" lon="6.33325">
        <ele>431</ele>
        <time>2019-04-17T01:08:05Z</time>
      </trkpt>
      <trkpt lat="46.12698" lon="6.33334">
        <ele>431</ele>
        <time>2019-04-17T01:09:05Z</time>
      </trkpt>
      <trkpt lat="46.1269" lon="6.33347">
        <ele>431</ele>
        <time>2019-04-17T01:10:05Z</time>
      </trkpt>
      <trkpt lat="46.1263" lon="6.33464">
        <ele>432</ele>
        <time>2019-04-17T01:11:05Z</time>
      </trkpt>
      <trkpt lat="46.12614" lon="6.33482">
        <ele>432</ele>
        <time>2019-04-17T01:12:05Z</time>
      </trkpt>
      <trkpt lat="46.12601" lon="6.33492">
        <ele>431</ele>
        <time>2019-04-17T01:13:05Z</time>
      </trkpt>
      <trkpt lat="46.12589" lon="6.33491">
        <ele>430</ele>
        <time>2019-04-17T01:14:05Z</time>
      </trkpt>
      <trkpt lat="46.12567" lon="6.33504">
        <ele>430</ele>
        <time>2019-04-17T01:15:05Z</time>
      </trkpt>
      <trkpt lat="46.12542" lon="6.3353">
        <ele>431</ele>
        <time>2019-04-17T01:16:05Z</time>
      </trkpt>
      <trkpt lat="46.12522" lon="6.33546">
        <ele>431</ele>
        <time>2019-04-17T01:17:05Z</time>
      </trkpt>
      <trkpt lat="46.12491" lon="6.33563">
        <ele>432</ele>
        <time>2019-04-17T01:18:05Z</time>
      </trkpt>
      <trkpt lat="46.1244" lon="6.33584">
        <ele>432</ele>
        <time>2019-04-17T01:19:05Z</time>
      </trkpt>
      <trkpt lat="46.12397" lon="6.33599">
        <ele>432</ele>
        <time>2019-04-17T01:20:05Z</time>
      </trkpt>
      <trkpt lat="46.12293" lon="6.33627">
        <ele>431</ele>
        <time>2019-04-17T01:21:05Z</time>
      </trkpt>
      <trkpt lat="46.12265" lon="6.3364">
        <ele>430</ele>
        <time>2019-04-17T01:22:05Z</time>
      </trkpt>
      <trkpt lat="46.12243" lon="6.33648">
        <ele>430</ele>
        <time>2019-04-17T01:23:05Z</time>
      </trkpt>
      <trkpt lat="46.12233" lon="6.3365">
        <ele>430</ele>
        <time>2019-04-17T01:24:05Z</time>
      </trkpt>
      <trkpt lat="46.12223" lon="6.33656">
        <ele>430</ele>
        <time>2019-04-17T01:25:05Z</time>
      </trkpt>
      <trkpt lat="46.12213" lon="6.33666">
        <ele>430</ele>
        <time>2019-04-17T01:26:05Z</time>
      </trkpt>
      <trkpt lat="46.12194" lon="6.33697">
        <ele>431</ele>
        <time>2019-04-17T01:27:05Z</time>
      </trkpt>
      <trkpt lat="46.12187" lon="6.33705">
        <ele>431</ele>
        <time>2019-04-17T01:28:05Z</time>
      </trkpt>
      <trkpt lat="46.12161" lon="6.33721">
        <ele>430</ele>
        <time>2019-04-17T01:29:05Z</time>
      </trkpt>
      <trkpt lat="46.12118" lon="6.33755">
        <ele>429</ele>
        <time>2019-04-17T01:30:05Z</time>
      </trkpt>
      <trkpt lat="46.12059" lon="6.33835">
        <ele>430</ele>
        <time>2019-04-17T01:31:05Z</time>
      </trkpt>
      <trkpt lat="46.12047" lon="6.33855">
        <ele>430</ele>
        <time>2019-04-17T01:32:05Z</time>
      </trkpt>
      <trkpt lat="46.1203" lon="6.33876">
        <ele>430</ele>
        <time>2019-04-17T01:33:05Z</time>
      </trkpt>
      <trkpt lat="46.12005" lon="6.33921">
        <ele>430</ele>
        <time>2019-04-17T01:34:05Z</time>
      </trkpt>
      <trkpt lat="46.11992" lon="6.33947">
        <ele>430</ele>
        <time>2019-04-17T01:35:05Z</time>
      </trkpt>
      <trkpt lat="46.11969" lon="6.34008">
        <ele>430</ele>
        <time>2019-04-17T01:36:05Z</time>
      </trkpt>
      <trkpt lat="46.11969" lon="6.34016">
        <ele>430</ele>
        <time>2019-04-17T01:37:05Z</time>
      </trkpt>
      <trkpt lat="46.11975" lon="6.34025">
        <ele>431</ele>
        <time>2019-04-17T01:38:05Z</time>
      </trkpt>
      <trkpt lat="46.11993" lon="6.34037">
        <ele>432</ele>
        <time>2019-04-17T01:39:05Z</time>
      </trkpt>
      <trkpt lat="46.12002" lon="6.34047">
        <ele>432</ele>
        <time>2019-04-17T01:40:05Z</time>
      </trkpt>
      <trkpt lat="46.12015" lon="6.34068">
        <ele>434</ele>
        <time>2019-04-17T01:41:05Z</time>
      </trkpt>
      <trkpt lat="46.12024" lon="6.34089">
        <ele>435</ele>
        <time>2019-04-17T01:42:05Z</time>
      </trkpt>
      <trkpt lat="46.12031" lon="6.34123">
        <ele>437</ele>
        <time>2019-04-17T01:43:05Z</time>
      </trkpt>
      <trkpt lat="46.1202" lon="6.34163">
        <ele>438</ele>
        <time>2019-04-17T01:44:05Z</time>
      </trkpt>
      <trkpt lat="46.11917" lon="6.34281">
        <ele>437</ele>
        <time>2019-04-17T01:45:05Z</time>
      </trkpt>
      <trkpt lat="46.11885" lon="6.34304">
        <ele>438</ele>
        <time>2019-04-17T01:46:05Z</time>
      </trkpt>
      <trkpt lat="46.11873" lon="6.34307">
        <ele>438</ele>
        <time>2019-04-17T01:47:05Z</time>
      </trkpt>
      <trkpt lat="46.11839" lon="6.34297">
        <ele>437</ele>
        <time>2019-04-17T01:48:05Z</time>
      </trkpt>
      <trkpt lat="46.11811" lon="6.34292">
        <ele>436</ele>
        <time>2019-04-17T01:49:05Z</time>
      </trkpt>
      <trkpt lat="46.11762" lon="6.34317">
        <ele>435</ele>
        <time>2019-04-17T01:50:05Z</time>
      </trkpt>
      <trkpt lat="46.11735" lon="6.34335">
        <ele>435</ele>
        <time>2019-04-17T01:51:05Z</time>
      </trkpt>
      <trkpt lat="46.11725" lon="6.34364">
        <ele>434</ele>
        <time>2019-04-17T01:52:05Z</time>
      </trkpt>
      <trkpt lat="46.11677" lon="6.34424">
        <ele>433</ele>
        <time>2019-04-17T01:53:05Z</time>
      </trkpt>
      <trkpt lat="46.11655" lon="6.34466">
        <ele>433</ele>
        <time>2019-04-17T01:54:05Z</time>
      </trkpt>
      <trkpt lat="46.11627" lon="6.34499">
        <ele>434</ele>
        <time>2019-04-17T01:55:05Z</time>
      </trkpt>
      <trkpt lat="46.11588" lon="6.34567">
        <ele>433</ele>
        <time>2019-04-17T01:56:05Z</time>
      </trkpt>
      <trkpt lat="46.11576" lon="6.34567">
        <ele>433</ele>
        <time>2019-04-17T01:57:05Z</time>
      </trkpt>
      <trkpt lat="46.11547" lon="6.3454">
        <ele>433</ele>
        <time>2019-04-17T01:58:05Z</time>
      </trkpt>
      <trkpt lat="46.11518" lon="6.3453">
        <ele>432</ele>
        <time>2019-04-17T01:59:05Z</time>
      </trkpt>
      <trkpt lat="46.11495" lon="6.34533">
        <ele>431</ele>
        <time>2019-04-17T02:00:05Z</time>
      </trkpt>
      <trkpt lat="46.11479" lon="6.34552">
        <ele>432</ele>
        <time>2019-04-17T02:01:05Z</time>
      </trkpt>
      <trkpt lat="46.11421" lon="6.34624">
        <ele>432</ele>
        <time>2019-04-17T02:02:05Z</time>
      </trkpt>
      <trkpt lat="46.11353" lon="6.34718">
        <ele>433</ele>
        <time>2019-04-17T02:03:05Z</time>
      </trkpt>
      <trkpt lat="46.11307" lon="6.34794">
        <ele>434</ele>
        <time>2019-04-17T02:04:05Z</time>
      </trkpt>
      <trkpt lat="46.11299" lon="6.34811">
        <ele>434</ele>
        <time>2019-04-17T02:05:05Z</time>
      </trkpt>
      <trkpt lat="46.11294" lon="6.34853">
        <ele>434</ele>
        <time>2019-04-17T02:06:05Z</time>
      </trkpt>
      <trkpt lat="46.11283" lon="6.3488">
        <ele>435</ele>
        <time>2019-04-17T02:07:05Z</time>
      </trkpt>
      <trkpt lat="46.11267" lon="6.34899">
        <ele>435</ele>
        <time>2019-04-17T02:08:05Z</time>
      </trkpt>
      <trkpt lat="46.11228" lon="6.34908">
        <ele>435</ele>
        <time>2019-04-17T02:09:05Z</time>
      </trkpt>
      <trkpt lat="46.11191" lon="6.34907">
        <ele>435</ele>
        <time>2019-04-17T02:10:05Z</time>
      </trkpt>
      <trkpt lat="46.11159" lon="6.34921">
        <ele>435</ele>
        <time>2019-04-17T02:11:05Z</time>
      </trkpt>
      <trkpt lat="46.11135" lon="6.34938">
        <ele>435</ele>
        <time>2019-04-17T02:12:05Z</time>
      </trkpt>
      <trkpt lat="46.11116" lon="6.34966">
        <ele>436</ele>
        <time>2019-04-17T02:13:05Z</time>
      </trkpt>
      <trkpt lat="46.11105" lon="6.34988">
        <ele>436</ele>
        <time>2019-04-17T02:14:05Z</time>
      </trkpt>
      <trkpt lat="46.11101" lon="6.35023">
        <ele>436</ele>
        <time>2019-04-17T02:15:05Z</time>
      </trkpt>
      <trkpt lat="46.11101" lon="6.3505">
        <ele>436</ele>
        <time>2019-04-17T02:16:05Z</time>
      </trkpt>
      <trkpt lat="46.11098" lon="6.35067">
        <ele>435</ele>
        <time>2019-04-17T02:17:05Z</time>
      </trkpt>
      <trkpt lat="46.11083" lon="6.35095">
        <ele>435</ele>
        <time>2019-04-17T02:18:05Z</time>
      </trkpt>
      <trkpt lat="46.11042" lon="6.35115">
        <ele>434</ele>
        <time>2019-04-17T02:19:05Z</time>
      </trkpt>
      <trkpt lat="46.10986" lon="6.35122">
        <ele>434</ele>
        <time>2019-04-17T02:20:05Z</time>
      </trkpt>
      <trkpt lat="46.10916" lon="6.35093">
        <ele>435</ele>
        <time>2019-04-17T02:21:05Z</time>
      </trkpt>
      <trkpt lat="46.10846" lon="6.35091">
        <ele>435</ele>
        <time>2019-04-17T02:22:05Z</time>
      </trkpt>
      <trkpt lat="46.10833" lon="6.35087">
        <ele>435</ele>
        <time>2019-04-17T02:23:05Z</time>
      </trkpt>
      <trkpt lat="46.10816" lon="6.35062">
        <ele>435</ele>
        <time>2019-04-17T02:24:05Z</time>
      </trkpt>
      <trkpt lat="46.10803" lon="6.35008">
        <ele>436</ele>
        <time>2019-04-17T02:25:05Z</time>
      </trkpt>
      <trkpt lat="46.1078" lon="6.3497">
        <ele>436</ele>
        <time>2019-04-17T02:26:05Z</time>
      </trkpt>
      <trkpt lat="46.10758" lon="6.34946">
        <ele>435</ele>
        <time>2019-04-17T02:27:05Z</time>
      </trkpt>
      <trkpt lat="46.10747" lon="6.34921">
        <ele>435</ele>
        <time>2019-04-17T02:28:05Z</time>
      </trkpt>
      <trkpt lat="46.10727" lon="6.34909">
        <ele>434</ele>
        <time>2019-04-17T02:29:05Z</time>
      </trkpt>
      <trkpt lat="46.10706" lon="6.34915">
        <ele>434</ele>
        <time>2019-04-17T02:30:05Z</time>
      </trkpt>
      <trkpt lat="46.10683" lon="6.34942">
        <ele>435</ele>
        <time>2019-04-17T02:31:05Z</time>
      </trkpt>
      <trkpt lat="46.10669" lon="6.3498">
        <ele>435</ele>
        <time>2019-04-17T02:32:05Z</time>
      </trkpt>
      <trkpt lat="46.10637" lon="6.35112">
        <ele>434</ele>
        <time>2019-04-17T02:33:05Z</time>
      </trkpt>
      <trkpt lat="46.10636" lon="6.35134">
        <ele>434</ele>
        <time>2019-04-17T02:34:05Z</time>
      </trkpt>
      <trkpt lat="46.10655" lon="6.352">
        <ele>434</ele>
        <time>2019-04-17T02:35:05Z</time>
      </trkpt>
      <trkpt lat="46.10645" lon="6.35238">
        <ele>434</ele>
        <time>2019-04-17T02:36:05Z</time>
      </trkpt>
      <trkpt lat="46.10623" lon="6.3526">
        <ele>435</ele>
        <time>2019-04-17T02:37:05Z</time>
      </trkpt>
      <trkpt lat="46.106" lon="6.35256">
        <ele>435</ele>
        <time>2019-04-17T02:38:05Z</time>
      </trkpt>
      <trkpt lat="46.10583" lon="6.35228">
        <ele>435</ele>
        <time>2019-04-17T02:39:05Z</time>
      </trkpt>
      <trkpt lat="46.10561" lon="6.35218">
        <ele>434</ele>
        <time>2019-04-17T02:40:05Z</time>
      </trkpt>
      <trkpt lat="46.10537" lon="6.3523">
        <ele>434</ele>
        <time>2019-04-17T02:41:05Z</time>
      </trkpt>
      <trkpt lat="46.10523" lon="6.35248">
        <ele>434</ele>
        <time>2019-04-17T02:42:05Z</time>
      </trkpt>
      <trkpt lat="46.10513" lon="6.35376">
        <ele>437</ele>
        <time>2019-04-17T02:43:05Z</time>
      </trkpt>
      <trkpt lat="46.10497" lon="6.35407">
        <ele>439</ele>
        <time>2019-04-17T02:44:05Z</time>
      </trkpt>
      <trkpt lat="46.10353" lon="6.35567">
        <ele>439</ele>
        <time>2019-04-17T02:45:05Z</time>
      </trkpt>
      <trkpt lat="46.10266" lon="6.35447">
        <ele>435</ele>
        <time>2019-04-17T02:46:05Z</time>
      </trkpt>
      <trkpt lat="46.10218" lon="6.35529">
        <ele>436</ele>
        <time>2019-04-17T02:47:05Z</time>
      </trkpt>
      <trkpt lat="46.10195" lon="6.356">
        <ele>438</ele>
        <time>2019-04-17T02:48:05Z</time>
      </trkpt>
      <trkpt lat="46.10173" lon="6.35627">
        <ele>438</ele>
        <time>2019-04-17T02:49:05Z</time>
      </trkpt>
      <trkpt lat="46.10147" lon="6.35648">
        <ele>438</ele>
        <time>2019-04-17T02:50:05Z</time>
      </trkpt>
      <trkpt lat="46.09953" lon="6.35848">
        <ele>441</ele>
        <time>2019-04-17T02:51:05Z</time>
      </trkpt>
      <trkpt lat="46.09922" lon="6.35872">
        <ele>442</ele>
        <time>2019-04-17T02:52:05Z</time>
      </trkpt>
      <trkpt lat="46.09879" lon="6.35927">
        <ele>443</ele>
        <time>2019-04-17T02:53:05Z</time>
      </trkpt>
      <trkpt lat="46.09841" lon="6.35961">
        <ele>443</ele>
        <time>2019-04-17T02:54:05Z</time>
      </trkpt>
      <trkpt lat="46.09765" lon="6.36015">
        <ele>442</ele>
        <time>2019-04-17T02:55:05Z</time>
      </trkpt>
      <trkpt lat="46.09735" lon="6.36046">
        <ele>441</ele>
        <time>2019-04-17T02:56:05Z</time>
      </trkpt>
      <trkpt lat="46.09676" lon="6.36176">
        <ele>438</ele>
        <time>2019-04-17T02:57:05Z</time>
      </trkpt>
      <trkpt lat="46.09653" lon="6.36214">
        <ele>439</ele>
        <time>2019-04-17T02:58:05Z</time>
      </trkpt>
      <trkpt lat="46.096" lon="6.36278">
        <ele>439</ele>
        <time>2019-04-17T02:59:05Z</time>
      </trkpt>
      <trkpt lat="46.09544" lon="6.3634">
        <ele>436</ele>
        <time>2019-04-17T03:00:05Z</time>
      </trkpt>
      <trkpt lat="46.09518" lon="6.36363">
        <ele>436</ele>
        <time>2019-04-17T03:01:05Z</time>
      </trkpt>
      <trkpt lat="46.09499" lon="6.36391">
        <ele>435</ele>
        <time>2019-04-17T03:02:05Z</time>
      </trkpt>
      <trkpt lat="46.0951" lon="6.36427">
        <ele>435</ele>
        <time>2019-04-17T03:03:05Z</time>
      </trkpt>
      <trkpt lat="46.09528" lon="6.36457">
        <ele>436</ele>
        <time>2019-04-17T03:04:05Z</time>
      </trkpt>
      <trkpt lat="46.09533" lon="6.36493">
        <ele>436</ele>
        <time>2019-04-17T03:05:05Z</time>
      </trkpt>
      <trkpt lat="46.09521" lon="6.36536">
        <ele>437</ele>
        <time>2019-04-17T03:06:05Z</time>
      </trkpt>
      <trkpt lat="46.09403" lon="6.36688">
        <ele>441</ele>
        <time>2019-04-17T03:07:05Z</time>
      </trkpt>
      <trkpt lat="46.09406" lon="6.36732">
        <ele>443</ele>
        <time>2019-04-17T03:08:05Z</time>
      </trkpt>
      <trkpt lat="46.09402" lon="6.36759">
        <ele>443</ele>
        <time>2019-04-17T03:09:05Z</time>
      </trkpt>
      <trkpt lat="46.09389" lon="6.36781">
        <ele>443</ele>
        <time>2019-04-17T03:10:05Z</time>
      </trkpt>
      <trkpt lat="46.09321" lon="6.36723">
        <ele>441</ele>
        <time>2019-04-17T03:11:05Z</time>
      </trkpt>
      <trkpt lat="46.093" lon="6.36697">
        <ele>441</ele>
        <time>2019-04-17T03:12:05Z</time>
      </trkpt>
      <trkpt lat="46.0927" lon="6.36643">
        <ele>438</ele>
        <time>2019-04-17T03:13:05Z</time>
      </trkpt>
      <trkpt lat="46.09181" lon="6.36556">
        <ele>435</ele>
        <time>2019-04-17T03:14:05Z</time>
      </trkpt>
      <trkpt lat="46.09107" lon="6.36479">
        <ele>439</ele>
        <time>2019-04-17T03:15:05Z</time>
      </trkpt>
      <trkpt lat="46.09047" lon="6.36436">
        <ele>438</ele>
        <time>2019-04-17T03:16:05Z</time>
      </trkpt>
      <trkpt lat="46.08996" lon="6.36525">
        <ele>439</ele>
        <time>2019-04-17T03:17:05Z</time>
      </trkpt>
      <trkpt lat="46.08952" lon="6.36643">
        <ele>437</ele>
        <time>2019-04-17T03:18:05Z</time>
      </trkpt>
      <trkpt lat="46.08925" lon="6.36687">
        <ele>437</ele>
        <time>2019-04-17T03:19:05Z</time>
      </trkpt>
      <trkpt lat="46.08908" lon="6.36741">
        <ele>439</ele>
        <time>2019-04-17T03:20:05Z</time>
      </trkpt>
      <trkpt lat="46.08875" lon="6.36804">
        <ele>440</ele>
        <time>2019-04-17T03:21:05Z</time>
      </trkpt>
      <trkpt lat="46.0886" lon="6.36847">
        <ele>440</ele>
        <time>2019-04-17T03:22:05Z</time>
      </trkpt>
      <trkpt lat="46.08794" lon="6.37015">
        <ele>439</ele>
        <time>2019-04-17T03:23:05Z</time>
      </trkpt>
      <trkpt lat="46.08798" lon="6.37041">
        <ele>439</ele>
        <time>2019-04-17T03:24:05Z</time>
      </trkpt>
      <trkpt lat="46.08794" lon="6.37068">
        <ele>439</ele>
        <time>2019-04-17T03:25:05Z</time>
      </trkpt>
      <trkpt lat="46.08795" lon="6.37097">
        <ele>439</ele>
        <time>2019-04-17T03:26:05Z</time>
      </trkpt>
      <trkpt lat="46.08808" lon="6.37136">
        <ele>438</ele>
        <time>2019-04-17T03:27:05Z</time>
      </trkpt>
      <trkpt lat="46.08802" lon="6.37142">
        <ele>438</ele>
        <time>2019-04-17T03:28:05Z</time>
      </trkpt>
      <trkpt lat="46.08774" lon="6.37111">
        <ele>439</ele>
        <time>2019-04-17T03:29:05Z</time>
      </trkpt>
      <trkpt lat="46.08761" lon="6.37106">
        <ele>439</ele>
        <time>2019-04-17T03:30:05Z</time>
      </trkpt>
      <trkpt lat="46.08746" lon="6.37124">
        <ele>439</ele>
        <time>2019-04-17T03:31:05Z</time>
      </trkpt>
      <trkpt lat="46.08712" lon="6.37222">
        <ele>437</ele>
        <time>2019-04-17T03:32:05Z</time>
      </trkpt>
      <trkpt lat="46.08657" lon="6.37405">
        <ele>438</ele>
        <time>2019-04-17T03:33:05Z</time>
      </trkpt>
      <trkpt lat="46.0865" lon="6.37416">
        <ele>438</ele>
        <time>2019-04-17T03:34:05Z</time>
      </trkpt>
      <trkpt lat="46.08645" lon="6.37442">
        <ele>438</ele>
        <time>2019-04-17T03:35:05Z</time>
      </trkpt>
      <trkpt lat="46.08643" lon="6.3747">
        <ele>438</ele>
        <time>2019-04-17T03:36:05Z</time>
      </trkpt>
      <trkpt lat="46.08614" lon="6.3756">
        <ele>437</ele>
        <time>2019-04-17T03:37:05Z</time>
      </trkpt>
      <trkpt lat="46.08602" lon="6.37628">
        <ele>437</ele>
        <time>2019-04-17T03:38:05Z</time>
      </trkpt>
      <trkpt lat="46.08602" lon="6.37636">
        <ele>437</ele>
        <time>2019-04-17T03:39:05Z</time>
      </trkpt>
      <trkpt lat="46.08604" lon="6.37642">
        <ele>438</ele>
        <time>2019-04-17T03:40:05Z</time>
      </trkpt>
      <trkpt lat="46.0863" lon="6.37686">
        <ele>439</ele>
        <time>2019-04-17T03:41:05Z</time>
      </trkpt>
      <trkpt lat="46.08618" lon="6.37708">
        <ele>439</ele>
        <time>2019-04-17T03:42:05Z</time>
      </trkpt>
      <trkpt lat="46.08586" lon="6.37787">
        <ele>439</ele>
        <time>2019-04-17T03:43:05Z</time>
      </trkpt>
      <trkpt lat="46.08572" lon="6.37815">
        <ele>440</ele>
        <time>2019-04-17T03:44:05Z</time>
      </trkpt>
      <trkpt lat="46.08566" lon="6.37832">
        <ele>440</ele>
        <time>2019-04-17T03:45:05Z</time>
      </trkpt>
      <trkpt lat="46.08563" lon="6.37849">
        <ele>441</ele>
        <time>2019-04-17T03:46:05Z</time>
      </trkpt>
      <trkpt lat="46.08561" lon="6.37875">
        <ele>441</ele>
        <time>2019-04-17T03:47:05Z</time>
      </trkpt>
      <trkpt lat="46.08549" lon="6.37938">
        <ele>442</ele>
        <time>2019-04-17T03:48:05Z</time>
      </trkpt>
      <trkpt lat="46.08526" lon="6.38091">
        <ele>442</ele>
        <time>2019-04-17T03:49:05Z</time>
      </trkpt>
      <trkpt lat="46.08518" lon="6.38161">
        <ele>441</ele>
        <time>2019-04-17T03:50:05Z</time>
      </trkpt>
      <trkpt lat="46.08518" lon="6.38195">
        <ele>441</ele>
        <time>2019-04-17T03:51:05Z</time>
      </trkpt>
      <trkpt lat="46.08514" lon="6.38218">
        <ele>441</ele>
        <time>2019-04-17T03:52:05Z</time>
      </trkpt>
      <trkpt lat="46.08511" lon="6.38251">
        <ele>441</ele>
        <time>2019-04-17T03:53:05Z</time>
      </trkpt>
      <trkpt lat="46.0851" lon="6.38294">
        <ele>440</ele>
        <time>2019-04-17T03:54:05Z</time>
      </trkpt>
      <trkpt lat="46.08511" lon="6.38345">
        <ele>440</ele>
        <time>2019-04-17T03:55:05Z</time>
      </trkpt>
      <trkpt lat="46.08516" lon="6.38375">
        <ele>440</ele>
        <time>2019-04-17T03:56:05Z</time>
      </trkpt>
      <trkpt lat="46.08514" lon="6.38391">
        <ele>439</ele>
        <time>2019-04-17T03:57:05Z</time>
      </trkpt>
      <trkpt lat="46.0851" lon="6.38407">
        <ele>439</ele>
        <time>2019-04-17T03:58:05Z</time>
      </trkpt>
      <trkpt lat="46.08511" lon="6.38415">
        <ele>439</ele>
        <time>2019-04-17T03:59:05Z</time>
      </trkpt>
      <trkpt lat="46.08514" lon="6.3847">
        <ele>440</ele>
        <time>2019-04-17T04:00:05Z</time>
      </trkpt>
      <trkpt lat="46.08522" lon="6.3853">
        <ele>440</ele>
        <time>2019-04-17T04:01:05Z</time>
      </trkpt>
      <trkpt lat="46.08522" lon="6.3856">
        <ele>440</ele>
        <time>2019-04-17T04:02:05Z</time>
      </trkpt>
      <trkpt lat="46.08525" lon="6.38598">
        <ele>440</ele>
        <time>2019-04-17T04:03:05Z</time>
      </trkpt>
      <trkpt lat="46.08545" lon="6.38766">
        <ele>443</ele>
        <time>2019-04-17T04:04:05Z</time>
      </trkpt>
      <trkpt lat="46.08555" lon="6.38918">
        <ele>446</ele>
        <time>2019-04-17T04:05:05Z</time>
      </trkpt>
      <trkpt lat="46.08588" lon="6.39271">
        <ele>448</ele>
        <time>2019-04-17T04:06:05Z</time>
      </trkpt>
      <trkpt lat="46.08586" lon="6.39349">
        <ele>446</ele>
        <time>2019-04-17T04:07:05Z</time>
      </trkpt>
      <trkpt lat="46.08594" lon="6.39437">
        <ele>448</ele>
        <time>2019-04-17T04:08:05Z</time>
      </trkpt>
      <trkpt lat="46.08581" lon="6.3947">
        <ele>448</ele>
        <time>2019-04-17T04:09:05Z</time>
      </trkpt>
      <trkpt lat="46.08586" lon="6.39536">
        <ele>449</ele>
        <time>2019-04-17T04:10:05Z</time>
      </trkpt>
      <trkpt lat="46.0856" lon="6.39604">
        <ele>448</ele>
        <time>2019-04-17T04:11:05Z</time>
      </trkpt>
      <trkpt lat="46.08503" lon="6.39723">
        <ele>446</ele>
        <time>2019-04-17T04:12:05Z</time>
      </trkpt>
      <trkpt lat="46.08437" lon="6.39824">
        <ele>444</ele>
        <time>2019-04-17T04:13:05Z</time>
      </trkpt>
      <trkpt lat="46.08339" lon="6.39959">
        <ele>444</ele>
        <time>2019-04-17T04:14:05Z</time>
      </trkpt>
      <trkpt lat="46.08337" lon="6.39969">
        <ele>444</ele>
        <time>2019-04-17T04:15:05Z</time>
      </trkpt>
      <trkpt lat="46.08203" lon="6.40154">
        <ele>444</ele>
        <time>2019-04-17T04:16:05Z</time>
      </trkpt>
      <trkpt lat="46.08193" lon="6.40166">
        <ele>444</ele>
        <time>2019-04-17T04:17:05Z</time>
      </trkpt>
      <trkpt lat="46.0818" lon="6.40161">
        <ele>443</ele>
        <time>2019-04-17T04:18:05Z</time>
      </trkpt>
      <trkpt lat="46.08113" lon="6.4025">
        <ele>445</ele>
        <time>2019-04-17T04:19:05Z</time>
      </trkpt>
      <trkpt lat="46.08106" lon="6.40264">
        <ele>445</ele>
        <time>2019-04-17T04:20:05Z</time>
      </trkpt>
      <trkpt lat="46.081" lon="6.40272">
        <ele>445</ele>
        <time>2019-04-17T04:21:05Z</time>
      </trkpt>
      <trkpt lat="46.08038" lon="6.40335">
        <ele>444</ele>
        <time>2019-04-17T04:22:05Z</time>
      </trkpt>
      <trkpt lat="46.07974" lon="6.40393">
        <ele>445</ele>
        <time>2019-04-17T04:23:05Z</time>
      </trkpt>
      <trkpt lat="46.07936" lon="6.40422">
        <ele>445</ele>
        <time>2019-04-17T04:24:05Z</time>
      </trkpt>
      <trkpt lat="46.07898" lon="6.4044">
        <ele>446</ele>
        <time>2019-04-17T04:25:05Z</time>
      </trkpt>
      <trkpt lat="46.07632" lon="6.40658">
        <ele>447</ele>
        <time>2019-04-17T04:26:05Z</time>
      </trkpt>
      <trkpt lat="46.07627" lon="6.40673">
        <ele>447</ele>
        <time>2019-04-17T04:27:05Z</time>
      </trkpt>
      <trkpt lat="46.07629" lon="6.4068">
        <ele>447</ele>
        <time>2019-04-17T04:28:05Z</time>
      </trkpt>
      <trkpt lat="46.07624" lon="6.40679">
        <ele>447</ele>
        <time>2019-04-17T04:29:05Z</time>
      </trkpt>
      <trkpt lat="46.07617" lon="6.40685">
        <ele>447</ele>
        <time>2019-04-17T04:30:05Z</time>
      </trkpt>
      <trkpt lat="46.07615" lon="6.40692">
        <ele>447</ele>
        <time>2019-04-17T04:31:05Z</time>
      </trkpt>
      <trkpt lat="46.07617" lon="6.407">
        <ele>448</ele>
        <time>2019-04-17T04:32:05Z</time>
      </trkpt>
      <trkpt lat="46.07621" lon="6.40705">
        <ele>448</ele>
        <time>2019-04-17T04:33:05Z</time>
      </trkpt>
      <trkpt lat="46.07625" lon="6.40706">
        <ele>448</ele>
        <time>2019-04-17T04:34:05Z</time>
      </trkpt>
      <trkpt lat="46.07632" lon="6.407">
        <ele>448</ele>
        <time>2019-04-17T04:35:05Z</time>
      </trkpt>
      <trkpt lat="46.07634" lon="6.40693">
        <ele>448</ele>
        <time>2019-04-17T04:36:05Z</time>
      </trkpt>
      <trkpt lat="46.07633" lon="6.40686">
        <ele>448</ele>
        <time>2019-04-17T04:37:05Z</time>
      </trkpt>
      <trkpt lat="46.07629" lon="6.4068">
        <ele>447</ele>
        <time>2019-04-17T04:38:05Z</time>
      </trkpt>
      <trkpt lat="46.07624" lon="6.40679">
        <ele>447</ele>
        <time>2019-04-17T04:39:05Z</time>
      </trkpt>
      <trkpt lat="46.07617" lon="6.40685">
        <ele>447</ele>
        <time>2019-04-17T04:40:05Z</time>
      </trkpt>
      <trkpt lat="46.07615" lon="6.40692">
        <ele>447</ele>
        <time>2019-04-17T04:41:05Z</time>
      </trkpt>
      <trkpt lat="46.07617" lon="6.407">
        <ele>448</ele>
        <time>2019-04-17T04:42:05Z</time>
      </trkpt>
      <trkpt lat="46.07598" lon="6.40744">
        <ele>448</ele>
        <time>2019-04-17T04:43:05Z</time>
      </trkpt>
      <trkpt lat="46.07582" lon="6.40814">
        <ele>449</ele>
        <time>2019-04-17T04:44:05Z</time>
      </trkpt>
      <trkpt lat="46.07579" lon="6.40849">
        <ele>449</ele>
        <time>2019-04-17T04:45:05Z</time>
      </trkpt>
      <trkpt lat="46.07583" lon="6.40868">
        <ele>449</ele>
        <time>2019-04-17T04:46:05Z</time>
      </trkpt>
      <trkpt lat="46.07568" lon="6.40895">
        <ele>449</ele>
        <time>2019-04-17T04:47:05Z</time>
      </trkpt>
      <trkpt lat="46.07559" lon="6.40959">
        <ele>448</ele>
        <time>2019-04-17T04:48:05Z</time>
      </trkpt>
      <trkpt lat="46.07549" lon="6.41171">
        <ele>448</ele>
        <time>2019-04-17T04:49:05Z</time>
      </trkpt>
      <trkpt lat="46.07547" lon="6.41302">
        <ele>448</ele>
        <time>2019-04-17T04:50:05Z</time>
      </trkpt>
      <trkpt lat="46.07569" lon="6.41336">
        <ele>448</ele>
        <time>2019-04-17T04:51:05Z</time>
      </trkpt>
      <trkpt lat="46.07709" lon="6.4161">
        <ele>450</ele>
        <time>2019-04-17T04:52:05Z</time>
      </trkpt>
      <trkpt lat="46.07736" lon="6.41682">
        <ele>451</ele>
        <time>2019-04-17T04:53:05Z</time>
      </trkpt>
      <trkpt lat="46.07755" lon="6.41741">
        <ele>452</ele>
        <time>2019-04-17T04:54:05Z</time>
      </trkpt>
      <trkpt lat="46.07764" lon="6.41735">
        <ele>452</ele>
        <time>2019-04-17T04:55:05Z</time>
      </trkpt>
      <trkpt lat="46.07774" lon="6.41745">
        <ele>452</ele>
        <time>2019-04-17T04:56:05Z</time>
      </trkpt>
      <trkpt lat="46.07778" lon="6.41762">
        <ele>452</ele>
        <time>2019-04-17T04:57:05Z</time>
      </trkpt>
      <trkpt lat="46.07804" lon="6.41847">
        <ele>449</ele>
        <time>2019-04-17T04:58:05Z</time>
      </trkpt>
      <trkpt lat="46.07833" lon="6.42002">
        <ele>449</ele>
        <time>2019-04-17T04:59:05Z</time>
      </trkpt>
      <trkpt lat="46.07839" lon="6.42075">
        <ele>449</ele>
        <time>2019-04-17T05:00:05Z</time>
      </trkpt>
      <trkpt lat="46.0784" lon="6.42119">
        <ele>450</ele>
        <time>2019-04-17T05:01:05Z</time>
      </trkpt>
      <trkpt lat="46.07836" lon="6.42152">
        <ele>450</ele>
        <time>2019-04-17T05:02:05Z</time>
      </trkpt>
      <trkpt lat="46.07841" lon="6.42172">
        <ele>450</ele>
        <time>2019-04-17T05:03:05Z</time>
      </trkpt>
      <trkpt lat="46.07858" lon="6.42195">
        <ele>451</ele>
        <time>2019-04-17T05:04:05Z</time>
      </trkpt>
      <trkpt lat="46.0786" lon="6.42214">
        <ele>451</ele>
        <time>2019-04-17T05:05:05Z</time>
      </trkpt>
      <trkpt lat="46.07859" lon="6.42265">
        <ele>451</ele>
        <time>2019-04-17T05:06:05Z</time>
      </trkpt>
      <trkpt lat="46.0785" lon="6.42319">
        <ele>450</ele>
        <time>2019-04-17T05:07:05Z</time>
      </trkpt>
      <trkpt lat="46.07847" lon="6.42353">
        <ele>450</ele>
        <time>2019-04-17T05:08:05Z</time>
      </trkpt>
      <trkpt lat="46.07849" lon="6.42407">
        <ele>448</ele>
        <time>2019-04-17T05:09:05Z</time>
      </trkpt>
      <trkpt lat="46.07798" lon="6.42893">
        <ele>449</ele>
        <time>2019-04-17T05:10:05Z</time>
      </trkpt>
      <trkpt lat="46.07791" lon="6.42969">
        <ele>449</ele>
        <time>2019-04-17T05:11:05Z</time>
      </trkpt>
      <trkpt lat="46.078" lon="6.42973">
        <ele>449</ele>
        <time>2019-04-17T05:12:05Z</time>
      </trkpt>
      <trkpt lat="46.07692" lon="6.4398">
        <ele>451</ele>
        <time>2019-04-17T05:13:05Z</time>
      </trkpt>
      <trkpt lat="46.07688" lon="6.44005">
        <ele>452</ele>
        <time>2019-04-17T05:14:05Z</time>
      </trkpt>
      <trkpt lat="46.07685" lon="6.44018">
        <ele>452</ele>
        <time>2019-04-17T05:15:05Z</time>
      </trkpt>
      <trkpt lat="46.07671" lon="6.44026">
        <ele>452</ele>
        <time>2019-04-17T05:16:05Z</time>
      </trkpt>
      <trkpt lat="46.0767" lon="6.44057">
        <ele>453</ele>
        <time>2019-04-17T05:17:05Z</time>
      </trkpt>
      <trkpt lat="46.07674" lon="6.44099">
        <ele>453</ele>
        <time>2019-04-17T05:18:05Z</time>
      </trkpt>
      <trkpt lat="46.07674" lon="6.44127">
        <ele>452</ele>
        <time>2019-04-17T05:19:05Z</time>
      </trkpt>
      <trkpt lat="46.07629" lon="6.44556">
        <ele>455</ele>
        <time>2019-04-17T05:20:05Z</time>
      </trkpt>
      <trkpt lat="46.07619" lon="6.4463">
        <ele>456</ele>
        <time>2019-04-17T05:21:05Z</time>
      </trkpt>
      <trkpt lat="46.0762" lon="6.44643">
        <ele>456</ele>
        <time>2019-04-17T05:22:05Z</time>
      </trkpt>
      <trkpt lat="46.07616" lon="6.44688">
        <ele>457</ele>
        <time>2019-04-17T05:23:05Z</time>
      </trkpt>
      <trkpt lat="46.07578" lon="6.4504">
        <ele>455</ele>
        <time>2019-04-17T05:24:05Z</time>
      </trkpt>
      <trkpt lat="46.07571" lon="6.4506">
        <ele>454</ele>
        <time>2019-04-17T05:25:05Z</time>
      </trkpt>
      <trkpt lat="46.07571" lon="6.45086">
        <ele>453</ele>
        <time>2019-04-17T05:26:05Z</time>
      </trkpt>
      <trkpt lat="46.07566" lon="6.45142">
        <ele>453</ele>
        <time>2019-04-17T05:27:05Z</time>
      </trkpt>
      <trkpt lat="46.07532" lon="6.45464">
        <ele>454</ele>
        <time>2019-04-17T05:28:05Z</time>
      </trkpt>
      <trkpt lat="46.07528" lon="6.455">
        <ele>455</ele>
        <time>2019-04-17T05:29:05Z</time>
      </trkpt>
      <trkpt lat="46.07509" lon="6.45599">
        <ele>455</ele>
        <time>2019-04-17T05:30:05Z</time>
      </trkpt>
      <trkpt lat="46.07508" lon="6.45615">
        <ele>455</ele>
        <time>2019-04-17T05:31:05Z</time>
      </trkpt>
      <trkpt lat="46.07511" lon="6.45644">
        <ele>454</ele>
        <time>2019-04-17T05:32:05Z</time>
      </trkpt>
      <trkpt lat="46.0751" lon="6.45665">
        <ele>454</ele>
        <time>2019-04-17T05:33:05Z</time>
      </trkpt>
      <trkpt lat="46.07474" lon="6.46002">
        <ele>460</ele>
        <time>2019-04-17T05:34:05Z</time>
      </trkpt>
      <trkpt lat="46.07471" lon="6.46043">
        <ele>459</ele>
        <time>2019-04-17T05:35:05Z</time>
      </trkpt>
      <trkpt lat="46.0743" lon="6.46413">
        <ele>455</ele>
        <time>2019-04-17T05:36:05Z</time>
      </trkpt>
      <trkpt lat="46.07428" lon="6.46423">
        <ele>455</ele>
        <time>2019-04-17T05:37:05Z</time>
      </trkpt>
      <trkpt lat="46.07424" lon="6.46427">
        <ele>455</ele>
        <time>2019-04-17T05:38:05Z</time>
      </trkpt>
      <trkpt lat="46.07419" lon="6.46428">
        <ele>455</ele>
        <time>2019-04-17T05:39:05Z</time>
      </trkpt>
      <trkpt lat="46.07388" lon="6.46517">
        <ele>457</ele>
        <time>2019-04-17T05:40:05Z</time>
      </trkpt>
      <trkpt lat="46.07436" lon="6.46593">
        <ele>458</ele>
        <time>2019-04-17T05:41:05Z</time>
      </trkpt>
      <trkpt lat="46.07428" lon="6.46629">
        <ele>459</ele>
        <time>2019-04-17T05:42:05Z</time>
      </trkpt>
      <trkpt lat="46.07404" lon="6.46862">
        <ele>460</ele>
        <time>2019-04-17T05:43:05Z</time>
      </trkpt>
      <trkpt lat="46.07398" lon="6.47005">
        <ele>458</ele>
        <time>2019-04-17T05:44:05Z</time>
      </trkpt>
      <trkpt lat="46.07398" lon="6.4709">
        <ele>458</ele>
        <time>2019-04-17T05:45:05Z</time>
      </trkpt>
      <trkpt lat="46.07404" lon="6.47197">
        <ele>460</ele>
        <time>2019-04-17T05:46:05Z</time>
      </trkpt>
      <trkpt lat="46.07414" lon="6.47287">
        <ele>460</ele>
        <time>2019-04-17T05:47:05Z</time>
      </trkpt>
      <trkpt lat="46.07427" lon="6.47429">
        <ele>461</ele>
        <time>2019-04-17T05:48:05Z</time>
      </trkpt>
      <trkpt lat="46.07439" lon="6.47501">
        <ele>462</ele>
        <time>2019-04-17T05:49:05Z</time>
      </trkpt>
      <trkpt lat="46.07479" lon="6.47689">
        <ele>460</ele>
        <time>2019-04-17T05:50:05Z</time>
      </trkpt>
      <trkpt lat="46.07517" lon="6.47824">
        <ele>456</ele>
        <time>2019-04-17T05:51:05Z</time>
      </trkpt>
      <trkpt lat="46.07577" lon="6.47991">
        <ele>459</ele>
        <time>2019-04-17T05:52:05Z</time>
      </trkpt>
      <trkpt lat="46.07577" lon="6.47997">
        <ele>459</ele>
        <time>2019-04-17T05:53:05Z</time>
      </trkpt>
      <trkpt lat="46.07575" lon="6.48">
        <ele>459</ele>
        <time>2019-04-17T05:54:05Z</time>
      </trkpt>
      <trkpt lat="46.07553" lon="6.4802">
        <ele>459</ele>
        <time>2019-04-17T05:55:05Z</time>
      </trkpt>
      <trkpt lat="46.07545" lon="6.48032">
        <ele>460</ele>
        <time>2019-04-17T05:56:05Z</time>
      </trkpt>
      <trkpt lat="46.07522" lon="6.48144">
        <ele>462</ele>
        <time>2019-04-17T05:57:05Z</time>
      </trkpt>
      <trkpt lat="46.07493" lon="6.48186">
        <ele>463</ele>
        <time>2019-04-17T05:58:05Z</time>
      </trkpt>
      <trkpt lat="46.07498" lon="6.48191">
        <ele>463</ele>
        <time>2019-04-17T05:59:05Z</time>
      </trkpt>
      <trkpt lat="46.07505" lon="6.48191">
        <ele>463</ele>
        <time>2019-04-17T06:00:05Z</time>
      </trkpt>
      <trkpt lat="46.07515" lon="6.48174">
        <ele>463</ele>
        <time>2019-04-17T06:01:05Z</time>
      </trkpt>
      <trkpt lat="46.07519" lon="6.48173">
        <ele>463</ele>
        <time>2019-04-17T06:02:05Z</time>
      </trkpt>
      <trkpt lat="46.07523" lon="6.48176">
        <ele>463</ele>
        <time>2019-04-17T06:03:05Z</time>
      </trkpt>
      <trkpt lat="46.07529" lon="6.48182">
        <ele>463</ele>
        <time>2019-04-17T06:04:05Z</time>
      </trkpt>
      <trkpt lat="46.07541" lon="6.48186">
        <ele>463</ele>
        <time>2019-04-17T06:05:05Z</time>
      </trkpt>
      <trkpt lat="46.07566" lon="6.48217">
        <ele>463</ele>
        <time>2019-04-17T06:06:05Z</time>
      </trkpt>
      <trkpt lat="46.07674" lon="6.48417">
        <ele>466</ele>
        <time>2019-04-17T06:07:05Z</time>
      </trkpt>
      <trkpt lat="46.07661" lon="6.48474">
        <ele>465</ele>
        <time>2019-04-17T06:08:05Z</time>
      </trkpt>
      <trkpt lat="46.07664" lon="6.48508">
        <ele>464</ele>
        <time>2019-04-17T06:09:05Z</time>
      </trkpt>
      <trkpt lat="46.07667" lon="6.48516">
        <ele>464</ele>
        <time>2019-04-17T06:10:05Z</time>
      </trkpt>
      <trkpt lat="46.0767" lon="6.48519">
        <ele>464</ele>
        <time>2019-04-17T06:11:05Z</time>
      </trkpt>
      <trkpt lat="46.07667" lon="6.48547">
        <ele>463</ele>
        <time>2019-04-17T06:12:05Z</time>
      </trkpt>
      <trkpt lat="46.07668" lon="6.48557">
        <ele>463</ele>
        <time>2019-04-17T06:13:05Z</time>
      </trkpt>
      <trkpt lat="46.07672" lon="6.48561">
        <ele>463</ele>
        <time>2019-04-17T06:14:05Z</time>
      </trkpt>
      <trkpt lat="46.07708" lon="6.48565">
        <ele>463</ele>
        <time>2019-04-17T06:15:05Z</time>
      </trkpt>
      <trkpt lat="46.07891" lon="6.48618">
        <ele>464</ele>
        <time>2019-04-17T06:16:05Z</time>
      </trkpt>
      <trkpt lat="46.07894" lon="6.48625">
        <ele>464</ele>
        <time>2019-04-17T06:17:05Z</time>
      </trkpt>
      <trkpt lat="46.07909" lon="6.4863">
        <ele>464</ele>
        <time>2019-04-17T06:18:05Z</time>
      </trkpt>
      <trkpt lat="46.07931" lon="6.48643">
        <ele>465</ele>
        <time>2019-04-17T06:19:05Z</time>
      </trkpt>
      <trkpt lat="46.07941" lon="6.48652">
        <ele>465</ele>
        <time>2019-04-17T06:20:05Z</time>
      </trkpt>
      <trkpt lat="46.08024" lon="6.48756">
        <ele>465</ele>
        <time>2019-04-17T06:21:05Z</time>
      </trkpt>
      <trkpt lat="46.08031" lon="6.48771">
        <ele>465</ele>
        <time>2019-04-17T06:22:05Z</time>
      </trkpt>
      <trkpt lat="46.08034" lon="6.48788">
        <ele>465</ele>
        <time>2019-04-17T06:23:05Z</time>
      </trkpt>
      <trkpt lat="46.08031" lon="6.48803">
        <ele>465</ele>
        <time>2019-04-17T06:24:05Z</time>
      </trkpt>
      <trkpt lat="46.08024" lon="6.4882">
        <ele>465</ele>
        <time>2019-04-17T06:25:05Z</time>
      </trkpt>
      <trkpt lat="46.08011" lon="6.48864">
        <ele>465</ele>
        <time>2019-04-17T06:26:05Z</time>
      </trkpt>
      <trkpt lat="46.08007" lon="6.48884">
        <ele>465</ele>
        <time>2019-04-17T06:27:05Z</time>
      </trkpt>
      <trkpt lat="46.08008" lon="6.48896">
        <ele>465</ele>
        <time>2019-04-17T06:28:05Z</time>
      </trkpt>
      <trkpt lat="46.08083" lon="6.491">
        <ele>469</ele>
        <time>2019-04-17T06:29:05Z</time>
      </trkpt>
      <trkpt lat="46.08087" lon="6.49106">
        <ele>469</ele>
        <time>2019-04-17T06:30:05Z</time>
      </trkpt>
      <trkpt lat="46.08092" lon="6.49109">
        <ele>469</ele>
        <time>2019-04-17T06:31:05Z</time>
      </trkpt>
      <trkpt lat="46.08101" lon="6.49107">
        <ele>469</ele>
        <time>2019-04-17T06:32:05Z</time>
      </trkpt>
      <trkpt lat="46.08135" lon="6.4907">
        <ele>470</ele>
        <time>2019-04-17T06:33:05Z</time>
      </trkpt>
      <trkpt lat="46.08155" lon="6.49058">
        <ele>470</ele>
        <time>2019-04-17T06:34:05Z</time>
      </trkpt>
      <trkpt lat="46.08174" lon="6.49054">
        <ele>471</ele>
        <time>2019-04-17T06:35:05Z</time>
      </trkpt>
      <trkpt lat="46.08208" lon="6.49059">
        <ele>470</ele>
        <time>2019-04-17T06:36:05Z</time>
      </trkpt>
      <trkpt lat="46.08219" lon="6.49064">
        <ele>470</ele>
        <time>2019-04-17T06:37:05Z</time>
      </trkpt>
      <trkpt lat="46.0823" lon="6.49072">
        <ele>469</ele>
        <time>2019-04-17T06:38:05Z</time>
      </trkpt>
      <trkpt lat="46.08358" lon="6.49214">
        <ele>469</ele>
        <time>2019-04-17T06:39:05Z</time>
      </trkpt>
      <trkpt lat="46.08369" lon="6.49224">
        <ele>469</ele>
        <time>2019-04-17T06:40:05Z</time>
      </trkpt>
      <trkpt lat="46.08382" lon="6.4923">
        <ele>469</ele>
        <time>2019-04-17T06:41:05Z</time>
      </trkpt>
      <trkpt lat="46.08389" lon="6.49231">
        <ele>469</ele>
        <time>2019-04-17T06:42:05Z</time>
      </trkpt>
      <trkpt lat="46.08405" lon="6.49239">
        <ele>470</ele>
        <time>2019-04-17T06:43:05Z</time>
      </trkpt>
      <trkpt lat="46.08414" lon="6.49248">
        <ele>470</ele>
        <time>2019-04-17T06:44:05Z</time>
      </trkpt>
      <trkpt lat="46.08459" lon="6.49302">
        <ele>469</ele>
        <time>2019-04-17T06:45:05Z</time>
      </trkpt>
      <trkpt lat="46.0876" lon="6.49686">
        <ele>470</ele>
        <time>2019-04-17T06:46:05Z</time>
      </trkpt>
      <trkpt lat="46.08774" lon="6.4967">
        <ele>471</ele>
        <time>2019-04-17T06:47:05Z</time>
      </trkpt>
      <trkpt lat="46.08779" lon="6.49661">
        <ele>471</ele>
        <time>2019-04-17T06:48:05Z</time>
      </trkpt>
      <trkpt lat="46.08811" lon="6.49627">
        <ele>472</ele>
        <time>2019-04-17T06:49:05Z</time>
      </trkpt>
      <trkpt lat="46.08839" lon="6.496">
        <ele>472</ele>
        <time>2019-04-17T06:50:05Z</time>
      </trkpt>
      <trkpt lat="46.09004" lon="6.50009">
        <ele>473</ele>
        <time>2019-04-17T06:51:05Z</time>
      </trkpt>
      <trkpt lat="46.09008" lon="6.50027">
        <ele>474</ele>
        <time>2019-04-17T06:52:05Z</time>
      </trkpt>
      <trkpt lat="46.09003" lon="6.50031">
        <ele>473</ele>
        <time>2019-04-17T06:53:05Z</time>
      </trkpt>
      <trkpt lat="46.09004" lon="6.5004">
        <ele>474</ele>
        <time>2019-04-17T06:54:05Z</time>
      </trkpt>
      <trkpt lat="46.08934" lon="6.50094">
        <ele>475</ele>
        <time>2019-04-17T06:55:05Z</time>
      </trkpt>
      <trkpt lat="46.08929" lon="6.501">
        <ele>475</ele>
        <time>2019-04-17T06:56:05Z</time>
      </trkpt>
      <trkpt lat="46.0892" lon="6.50115">
        <ele>475</ele>
        <time>2019-04-17T06:57:05Z</time>
      </trkpt>
      <trkpt lat="46.08917" lon="6.50131">
        <ele>474</ele>
        <time>2019-04-17T06:58:05Z</time>
      </trkpt>
      <trkpt lat="46.08916" lon="6.50141">
        <ele>474</ele>
        <time>2019-04-17T06:59:05Z</time>
      </trkpt>
      <trkpt lat="46.08918" lon="6.5017">
        <ele>473</ele>
        <time>2019-04-17T07:00:05Z</time>
      </trkpt>
      <trkpt lat="46.08936" lon="6.50382">
        <ele>474</ele>
        <time>2019-04-17T07:01:05Z</time>
      </trkpt>
      <trkpt lat="46.08942" lon="6.5048">
        <ele>475</ele>
        <time>2019-04-17T07:02:05Z</time>
      </trkpt>
      <trkpt lat="46.08944" lon="6.50563">
        <ele>476</ele>
        <time>2019-04-17T07:03:05Z</time>
      </trkpt>
      <trkpt lat="46.08941" lon="6.50612">
        <ele>476</ele>
        <time>2019-04-17T07:04:05Z</time>
      </trkpt>
      <trkpt lat="46.08921" lon="6.50633">
        <ele>476</ele>
        <time>2019-04-17T07:05:05Z</time>
      </trkpt>
      <trkpt lat="46.08891" lon="6.50626">
        <ele>476</ele>
        <time>2019-04-17T07:06:05Z</time>
      </trkpt>
      <trkpt lat="46.0887" lon="6.5071">
        <ele>475</ele>
        <time>2019-04-17T07:07:05Z</time>
      </trkpt>
      <trkpt lat="46.08829" lon="6.50889">
        <ele>474</ele>
        <time>2019-04-17T07:08:05Z</time>
      </trkpt>
      <trkpt lat="46.088" lon="6.51026">
        <ele>472</ele>
        <time>2019-04-17T07:09:05Z</time>
      </trkpt>
      <trkpt lat="46.0874" lon="6.5128">
        <ele>472</ele>
        <time>2019-04-17T07:10:05Z</time>
      </trkpt>
      <trkpt lat="46.0863" lon="6.51773">
        <ele>470</ele>
        <time>2019-04-17T07:11:05Z</time>
      </trkpt>
      <trkpt lat="46.08596" lon="6.5192">
        <ele>469</ele>
        <time>2019-04-17T07:12:05Z</time>
      </trkpt>
      <trkpt lat="46.08591" lon="6.51934">
        <ele>470</ele>
        <time>2019-04-17T07:13:05Z</time>
      </trkpt>
      <trkpt lat="46.08567" lon="6.52046">
        <ele>473</ele>
        <time>2019-04-17T07:14:05Z</time>
      </trkpt>
      <trkpt lat="46.08547" lon="6.52112">
        <ele>475</ele>
        <time>2019-04-17T07:15:05Z</time>
      </trkpt>
      <trkpt lat="46.08499" lon="6.5232">
        <ele>471</ele>
        <time>2019-04-17T07:16:05Z</time>
      </trkpt>
      <trkpt lat="46.08492" lon="6.52394">
        <ele>471</ele>
        <time>2019-04-17T07:17:05Z</time>
      </trkpt>
      <trkpt lat="46.08488" lon="6.52411">
        <ele>471</ele>
        <time>2019-04-17T07:18:05Z</time>
      </trkpt>
      <trkpt lat="46.0847" lon="6.52456">
        <ele>471</ele>
        <time>2019-04-17T07:19:05Z</time>
      </trkpt>
      <trkpt lat="46.08327" lon="6.53092">
        <ele>471</ele>
        <time>2019-04-17T07:20:05Z</time>
      </trkpt>
      <trkpt lat="46.08257" lon="6.53399">
        <ele>473</ele>
        <time>2019-04-17T07:21:05Z</time>
      </trkpt>
      <trkpt lat="46.08201" lon="6.53632">
        <ele>474</ele>
        <time>2019-04-17T07:22:05Z</time>
      </trkpt>
      <trkpt lat="46.08167" lon="6.53801">
        <ele>475</ele>
        <time>2019-04-17T07:23:05Z</time>
      </trkpt>
      <trkpt lat="46.08169" lon="6.53819">
        <ele>475</ele>
        <time>2019-04-17T07:24:05Z</time>
      </trkpt>
      <trkpt lat="46.08164" lon="6.53817">
        <ele>475</ele>
        <time>2019-04-17T07:25:05Z</time>
      </trkpt>
      <trkpt lat="46.08159" lon="6.53871">
        <ele>474</ele>
        <time>2019-04-17T07:26:05Z</time>
      </trkpt>
      <trkpt lat="46.08119" lon="6.5412">
        <ele>472</ele>
        <time>2019-04-17T07:27:05Z</time>
      </trkpt>
      <trkpt lat="46.08112" lon="6.54148">
        <ele>472</ele>
        <time>2019-04-17T07:28:05Z</time>
      </trkpt>
      <trkpt lat="46.08107" lon="6.54144">
        <ele>472</ele>
        <time>2019-04-17T07:29:05Z</time>
      </trkpt>
      <trkpt lat="46.081" lon="6.54147">
        <ele>472</ele>
        <time>2019-04-17T07:30:05Z</time>
      </trkpt>
      <trkpt lat="46.08098" lon="6.54155">
        <ele>471</ele>
        <time>2019-04-17T07:31:05Z</time>
      </trkpt>
      <trkpt lat="46.081" lon="6.54164">
        <ele>471</ele>
        <time>2019-04-17T07:32:05Z</time>
      </trkpt>
      <trkpt lat="46.08106" lon="6.54168">
        <ele>472</ele>
        <time>2019-04-17T07:33:05Z</time>
      </trkpt>
      <trkpt lat="46.08104" lon="6.54189">
        <ele>472</ele>
        <time>2019-04-17T07:34:05Z</time>
      </trkpt>
      <trkpt lat="46.0808" lon="6.5435">
        <ele>471</ele>
        <time>2019-04-17T07:35:05Z</time>
      </trkpt>
      <trkpt lat="46.08051" lon="6.54521">
        <ele>472</ele>
        <time>2019-04-17T07:36:05Z</time>
      </trkpt>
      <trkpt lat="46.08042" lon="6.54534">
        <ele>472</ele>
        <time>2019-04-17T07:37:05Z</time>
      </trkpt>
      <trkpt lat="46.08038" lon="6.54562">
        <ele>473</ele>
        <time>2019-04-17T07:38:05Z</time>
      </trkpt>
      <trkpt lat="46.08038" lon="6.54574">
        <ele>473</ele>
        <time>2019-04-17T07:39:05Z</time>
      </trkpt>
      <trkpt lat="46.0804" lon="6.5459">
        <ele>473</ele>
        <time>2019-04-17T07:40:05Z</time>
      </trkpt>
      <trkpt lat="46.07996" lon="6.54848">
        <ele>475</ele>
        <time>2019-04-17T07:41:05Z</time>
      </trkpt>
      <trkpt lat="46.07997" lon="6.54872">
        <ele>474</ele>
        <time>2019-04-17T07:42:05Z</time>
      </trkpt>
      <trkpt lat="46.07943" lon="6.55199">
        <ele>475</ele>
        <time>2019-04-17T07:43:05Z</time>
      </trkpt>
      <trkpt lat="46.07921" lon="6.55356">
        <ele>474</ele>
        <time>2019-04-17T07:44:05Z</time>
      </trkpt>
      <trkpt lat="46.07886" lon="6.55529">
        <ele>475</ele>
        <time>2019-04-17T07:45:05Z</time>
      </trkpt>
      <trkpt lat="46.07848" lon="6.55646">
        <ele>474</ele>
        <time>2019-04-17T07:46:05Z</time>
      </trkpt>
      <trkpt lat="46.07837" lon="6.55674">
        <ele>474</ele>
        <time>2019-04-17T07:47:05Z</time>
      </trkpt>
      <trkpt lat="46.07832" lon="6.55682">
        <ele>474</ele>
        <time>2019-04-17T07:48:05Z</time>
      </trkpt>
      <trkpt lat="46.07828" lon="6.55683">
        <ele>474</ele>
        <time>2019-04-17T07:49:05Z</time>
      </trkpt>
      <trkpt lat="46.07819" lon="6.55675">
        <ele>474</ele>
        <time>2019-04-17T07:50:05Z</time>
      </trkpt>
      <trkpt lat="46.07749" lon="6.55576">
        <ele>473</ele>
        <time>2019-04-17T07:51:05Z</time>
      </trkpt>
      <trkpt lat="46.07397" lon="6.54807">
        <ele>476</ele>
        <time>2019-04-17T07:52:05Z</time>
      </trkpt>
      <trkpt lat="46.07395" lon="6.54789">
        <ele>476</ele>
        <time>2019-04-17T07:53:05Z</time>
      </trkpt>
      <trkpt lat="46.07356" lon="6.54797">
        <ele>473</ele>
        <time>2019-04-17T07:54:05Z</time>
      </trkpt>
      <trkpt lat="46.07338" lon="6.54793">
        <ele>472</ele>
        <time>2019-04-17T07:55:05Z</time>
      </trkpt>
      <trkpt lat="46.0733" lon="6.54796">
        <ele>472</ele>
        <time>2019-04-17T07:56:05Z</time>
      </trkpt>
      <trkpt lat="46.07325" lon="6.54803">
        <ele>472</ele>
        <time>2019-04-17T07:57:05Z</time>
      </trkpt>
      <trkpt lat="46.07288" lon="6.54951">
        <ele>474</ele>
        <time>2019-04-17T07:58:05Z</time>
      </trkpt>
      <trkpt lat="46.07257" lon="6.55056">
        <ele>475</ele>
        <time>2019-04-17T07:59:05Z</time>
      </trkpt>
      <trkpt lat="46.072" lon="6.55236">
        <ele>473</ele>
        <time>2019-04-17T08:00:05Z</time>
      </trkpt>
      <trkpt lat="46.07197" lon="6.55251">
        <ele>473</ele>
        <time>2019-04-17T08:01:05Z</time>
      </trkpt>
      <trkpt lat="46.07167" lon="6.55329">
        <ele>476</ele>
        <time>2019-04-17T08:02:05Z</time>
      </trkpt>
      <trkpt lat="46.07139" lon="6.55396">
        <ele>475</ele>
        <time>2019-04-17T08:03:05Z</time>
      </trkpt>
      <trkpt lat="46.07109" lon="6.55463">
        <ele>474</ele>
        <time>2019-04-17T08:04:05Z</time>
      </trkpt>
      <trkpt lat="46.07068" lon="6.55564">
        <ele>474</ele>
        <time>2019-04-17T08:05:05Z</time>
      </trkpt>
      <trkpt lat="46.07045" lon="6.55599">
        <ele>474</ele>
        <time>2019-04-17T08:06:05Z</time>
      </trkpt>
      <trkpt lat="46.07027" lon="6.55654">
        <ele>475</ele>
        <time>2019-04-17T08:07:05Z</time>
      </trkpt>
      <trkpt lat="46.06986" lon="6.55754">
        <ele>475</ele>
        <time>2019-04-17T08:08:05Z</time>
      </trkpt>
      <trkpt lat="46.06977" lon="6.55771">
        <ele>475</ele>
        <time>2019-04-17T08:09:05Z</time>
      </trkpt>
      <trkpt lat="46.06923" lon="6.55919">
        <ele>474</ele>
        <time>2019-04-17T08:10:05Z</time>
      </trkpt>
      <trkpt lat="46.06898" lon="6.5596">
        <ele>475</ele>
        <time>2019-04-17T08:11:05Z</time>
      </trkpt>
      <trkpt lat="46.06878" lon="6.55998">
        <ele>475</ele>
        <time>2019-04-17T08:12:05Z</time>
      </trkpt>
      <trkpt lat="46.06848" lon="6.56069">
        <ele>475</ele>
        <time>2019-04-17T08:13:05Z</time>
      </trkpt>
      <trkpt lat="46.06844" lon="6.56093">
        <ele>476</ele>
        <time>2019-04-17T08:14:05Z</time>
      </trkpt>
      <trkpt lat="46.06838" lon="6.56107">
        <ele>476</ele>
        <time>2019-04-17T08:15:05Z</time>
      </trkpt>
      <trkpt lat="46.06828" lon="6.56119">
        <ele>476</ele>
        <time>2019-04-17T08:16:05Z</time>
      </trkpt>
      <trkpt lat="46.06823" lon="6.56133">
        <ele>477</ele>
        <time>2019-04-17T08:17:05Z</time>
      </trkpt>
      <trkpt lat="46.06813" lon="6.56169">
        <ele>478</ele>
        <time>2019-04-17T08:18:05Z</time>
      </trkpt>
      <trkpt lat="46.06773" lon="6.56256">
        <ele>475</ele>
        <time>2019-04-17T08:19:05Z</time>
      </trkpt>
      <trkpt lat="46.06758" lon="6.563">
        <ele>475</ele>
        <time>2019-04-17T08:20:05Z</time>
      </trkpt>
      <trkpt lat="46.06722" lon="6.5637">
        <ele>477</ele>
        <time>2019-04-17T08:21:05Z</time>
      </trkpt>
      <trkpt lat="46.06701" lon="6.56406">
        <ele>477</ele>
        <time>2019-04-17T08:22:05Z</time>
      </trkpt>
      <trkpt lat="46.06605" lon="6.56553">
        <ele>479</ele>
        <time>2019-04-17T08:23:05Z</time>
      </trkpt>
      <trkpt lat="46.0653" lon="6.56673">
        <ele>477</ele>
        <time>2019-04-17T08:24:05Z</time>
      </trkpt>
      <trkpt lat="46.06496" lon="6.56763">
        <ele>478</ele>
        <time>2019-04-17T08:25:05Z</time>
      </trkpt>
      <trkpt lat="46.06415" lon="6.56919">
        <ele>479</ele>
        <time>2019-04-17T08:26:05Z</time>
      </trkpt>
      <trkpt lat="46.06369" lon="6.57034">
        <ele>480</ele>
        <time>2019-04-17T08:27:05Z</time>
      </trkpt>
      <trkpt lat="46.06328" lon="6.57127">
        <ele>482</ele>
        <time>2019-04-17T08:28:05Z</time>
      </trkpt>
      <trkpt lat="46.06273" lon="6.57201">
        <ele>482</ele>
        <time>2019-04-17T08:29:05Z</time>
      </trkpt>
      <trkpt lat="46.06211" lon="6.57269">
        <ele>482</ele>
        <time>2019-04-17T08:30:05Z</time>
      </trkpt>
      <trkpt lat="46.06175" lon="6.57304">
        <ele>482</ele>
        <time>2019-04-17T08:31:05Z</time>
      </trkpt>
      <trkpt lat="46.06118" lon="6.57366">
        <ele>483</ele>
        <time>2019-04-17T08:32:05Z</time>
      </trkpt>
      <trkpt lat="46.06071" lon="6.57406">
        <ele>483</ele>
        <time>2019-04-17T08:33:05Z</time>
      </trkpt>
      <trkpt lat="46.05987" lon="6.57484">
        <ele>481</ele>
        <time>2019-04-17T08:34:05Z</time>
      </trkpt>
      <trkpt lat="46.05947" lon="6.5753">
        <ele>481</ele>
        <time>2019-04-17T08:35:05Z</time>
      </trkpt>
      <trkpt lat="46.05935" lon="6.57547">
        <ele>482</ele>
        <time>2019-04-17T08:36:05Z</time>
      </trkpt>
      <trkpt lat="46.05899" lon="6.5761">
        <ele>482</ele>
        <time>2019-04-17T08:37:05Z</time>
      </trkpt>
      <trkpt lat="46.0585" lon="6.57707">
        <ele>484</ele>
        <time>2019-04-17T08:38:05Z</time>
      </trkpt>
      <trkpt lat="46.05832" lon="6.57723">
        <ele>485</ele>
        <time>2019-04-17T08:39:05Z</time>
      </trkpt>
      <trkpt lat="46.05752" lon="6.57861">
        <ele>484</ele>
        <time>2019-04-17T08:40:05Z</time>
      </trkpt>
      <trkpt lat="46.05704" lon="6.57922">
        <ele>486</ele>
        <time>2019-04-17T08:41:05Z</time>
      </trkpt>
      <trkpt lat="46.05682" lon="6.57944">
        <ele>486</ele>
        <time>2019-04-17T08:42:05Z</time>
      </trkpt>
      <trkpt lat="46.05677" lon="6.57962">
        <ele>486</ele>
        <time>2019-04-17T08:43:05Z</time>
      </trkpt>
      <trkpt lat="46.05669" lon="6.57963">
        <ele>485</ele>
        <time>2019-04-17T08:44:05Z</time>
      </trkpt>
      <trkpt lat="46.05663" lon="6.57968">
        <ele>486</ele>
        <time>2019-04-17T08:45:05Z</time>
      </trkpt>
      <trkpt lat="46.0566" lon="6.57978">
        <ele>486</ele>
        <time>2019-04-17T08:46:05Z</time>
      </trkpt>
      <trkpt lat="46.05664" lon="6.57996">
        <ele>485</ele>
        <time>2019-04-17T08:47:05Z</time>
      </trkpt>
      <trkpt lat="46.05664" lon="6.58015">
        <ele>486</ele>
        <time>2019-04-17T08:48:05Z</time>
      </trkpt>
      <trkpt lat="46.05693" lon="6.58033">
        <ele>486</ele>
        <time>2019-04-17T08:49:05Z</time>
      </trkpt>
      <trkpt lat="46.05697" lon="6.58043">
        <ele>487</ele>
        <time>2019-04-17T08:50:05Z</time>
      </trkpt>
      <trkpt lat="46.05697" lon="6.58065">
        <ele>487</ele>
        <time>2019-04-17T08:51:05Z</time>
      </trkpt>
      <trkpt lat="46.05692" lon="6.58079">
        <ele>488</ele>
        <time>2019-04-17T08:52:05Z</time>
      </trkpt>
      <trkpt lat="46.05687" lon="6.58084">
        <ele>488</ele>
        <time>2019-04-17T08:53:05Z</time>
      </trkpt>
      <trkpt lat="46.05657" lon="6.581">
        <ele>491</ele>
        <time>2019-04-17T08:54:05Z</time>
      </trkpt>
      <trkpt lat="46.05575" lon="6.58113">
        <ele>495</ele>
        <time>2019-04-17T08:55:05Z</time>
      </trkpt>
      <trkpt lat="46.0548" lon="6.58135">
        <ele>487</ele>
        <time>2019-04-17T08:56:05Z</time>
      </trkpt>
      <trkpt lat="46.05445" lon="6.58147">
        <ele>489</ele>
        <time>2019-04-17T08:57:05Z</time>
      </trkpt>
      <trkpt lat="46.05416" lon="6.58163">
        <ele>490</ele>
        <time>2019-04-17T08:58:05Z</time>
      </trkpt>
      <trkpt lat="46.05387" lon="6.58184">
        <ele>491</ele>
        <time>2019-04-17T08:59:05Z</time>
      </trkpt>
      <trkpt lat="46.05236" lon="6.58313">
        <ele>491</ele>
        <time>2019-04-17T09:00:05Z</time>
      </trkpt>
      <trkpt lat="46.05208" lon="6.58342">
        <ele>492</ele>
        <time>2019-04-17T09:01:05Z</time>
      </trkpt>
      <trkpt lat="46.05178" lon="6.58383">
        <ele>497</ele>
        <time>2019-04-17T09:02:05Z</time>
      </trkpt>
      <trkpt lat="46.05152" lon="6.58433">
        <ele>500</ele>
        <time>2019-04-17T09:03:05Z</time>
      </trkpt>
      <trkpt lat="46.0514" lon="6.58464">
        <ele>505</ele>
        <time>2019-04-17T09:04:05Z</time>
      </trkpt>
      <trkpt lat="46.05124" lon="6.58514">
        <ele>505</ele>
        <time>2019-04-17T09:05:05Z</time>
      </trkpt>
      <trkpt lat="46.05115" lon="6.58558">
        <ele>503</ele>
        <time>2019-04-17T09:06:05Z</time>
      </trkpt>
      <trkpt lat="46.0511" lon="6.58606">
        <ele>502</ele>
        <time>2019-04-17T09:07:05Z</time>
      </trkpt>
      <trkpt lat="46.0511" lon="6.58631">
        <ele>503</ele>
        <time>2019-04-17T09:08:05Z</time>
      </trkpt>
      <trkpt lat="46.05112" lon="6.5874">
        <ele>508</ele>
        <time>2019-04-17T09:09:05Z</time>
      </trkpt>
      <trkpt lat="46.05105" lon="6.58857">
        <ele>511</ele>
        <time>2019-04-17T09:10:05Z</time>
      </trkpt>
      <trkpt lat="46.05097" lon="6.58947">
        <ele>508</ele>
        <time>2019-04-17T09:11:05Z</time>
      </trkpt>
      <trkpt lat="46.05086" lon="6.59017">
        <ele>502</ele>
        <time>2019-04-17T09:12:05Z</time>
      </trkpt>
      <trkpt lat="46.05061" lon="6.59209">
        <ele>502</ele>
        <time>2019-04-17T09:13:05Z</time>
      </trkpt>
      <trkpt lat="46.05033" lon="6.59388">
        <ele>505</ele>
        <time>2019-04-17T09:14:05Z</time>
      </trkpt>
      <trkpt lat="46.05029" lon="6.59418">
        <ele>505</ele>
        <time>2019-04-17T09:15:05Z</time>
      </trkpt>
      <trkpt lat="46.05027" lon="6.59453">
        <ele>505</ele>
        <time>2019-04-17T09:16:05Z</time>
      </trkpt>
      <trkpt lat="46.0501" lon="6.59544">
        <ele>501</ele>
        <time>2019-04-17T09:17:05Z</time>
      </trkpt>
      <trkpt lat="46.04988" lon="6.59627">
        <ele>500</ele>
        <time>2019-04-17T09:18:05Z</time>
      </trkpt>
      <trkpt lat="46.04969" lon="6.59684">
        <ele>500</ele>
        <time>2019-04-17T09:19:05Z</time>
      </trkpt>
      <trkpt lat="46.04928" lon="6.59789">
        <ele>498</ele>
        <time>2019-04-17T09:20:05Z</time>
      </trkpt>
      <trkpt lat="46.049" lon="6.59845">
        <ele>497</ele>
        <time>2019-04-17T09:21:05Z</time>
      </trkpt>
      <trkpt lat="46.04652" lon="6.60277">
        <ele>498</ele>
        <time>2019-04-17T09:22:05Z</time>
      </trkpt>
      <trkpt lat="46.04495" lon="6.60547">
        <ele>498</ele>
        <time>2019-04-17T09:23:05Z</time>
      </trkpt>
      <trkpt lat="46.04465" lon="6.60594">
        <ele>499</ele>
        <time>2019-04-17T09:24:05Z</time>
      </trkpt>
      <trkpt lat="46.04417" lon="6.60655">
        <ele>499</ele>
        <time>2019-04-17T09:25:05Z</time>
      </trkpt>
      <trkpt lat="46.04383" lon="6.60692">
        <ele>510</ele>
        <time>2019-04-17T09:26:05Z</time>
      </trkpt>
      <trkpt lat="46.04352" lon="6.60723">
        <ele>516</ele>
        <time>2019-04-17T09:27:05Z</time>
      </trkpt>
      <trkpt lat="46.04328" lon="6.60742">
        <ele>515</ele>
        <time>2019-04-17T09:28:05Z</time>
      </trkpt>
      <trkpt lat="46.04286" lon="6.60767">
        <ele>519</ele>
        <time>2019-04-17T09:29:05Z</time>
      </trkpt>
      <trkpt lat="46.04261" lon="6.60777">
        <ele>520</ele>
        <time>2019-04-17T09:30:05Z</time>
      </trkpt>
      <trkpt lat="46.04213" lon="6.60787">
        <ele>521</ele>
        <time>2019-04-17T09:31:05Z</time>
      </trkpt>
      <trkpt lat="46.04187" lon="6.60789">
        <ele>521</ele>
        <time>2019-04-17T09:32:05Z</time>
      </trkpt>
      <trkpt lat="46.04049" lon="6.60778">
        <ele>505</ele>
        <time>2019-04-17T09:33:05Z</time>
      </trkpt>
      <trkpt lat="46.04021" lon="6.60781">
        <ele>502</ele>
        <time>2019-04-17T09:34:05Z</time>
      </trkpt>
      <trkpt lat="46.03996" lon="6.60793">
        <ele>500</ele>
        <time>2019-04-17T09:35:05Z</time>
      </trkpt>
      <trkpt lat="46.03974" lon="6.6081">
        <ele>500</ele>
        <time>2019-04-17T09:36:05Z</time>
      </trkpt>
      <trkpt lat="46.03964" lon="6.60822">
        <ele>500</ele>
        <time>2019-04-17T09:37:05Z</time>
      </trkpt>
      <trkpt lat="46.03942" lon="6.60852">
        <ele>499</ele>
        <time>2019-04-17T09:38:05Z</time>
      </trkpt>
      <trkpt lat="46.03929" lon="6.60885">
        <ele>498</ele>
        <time>2019-04-17T09:39:05Z</time>
      </trkpt>
      <trkpt lat="46.03925" lon="6.609">
        <ele>497</ele>
        <time>2019-04-17T09:40:05Z</time>
      </trkpt>
      <trkpt lat="46.03915" lon="6.60952">
        <ele>497</ele>
        <time>2019-04-17T09:41:05Z</time>
      </trkpt>
      <trkpt lat="46.0387" lon="6.61278">
        <ele>499</ele>
        <time>2019-04-17T09:42:05Z</time>
      </trkpt>
      <trkpt lat="46.03861" lon="6.61331">
        <ele>499</ele>
        <time>2019-04-17T09:43:05Z</time>
      </trkpt>
      <trkpt lat="46.03856" lon="6.61344">
        <ele>499</ele>
        <time>2019-04-17T09:44:05Z</time>
      </trkpt>
      <trkpt lat="46.03851" lon="6.61351">
        <ele>498</ele>
        <time>2019-04-17T09:45:05Z</time>
      </trkpt>
      <trkpt lat="46.03849" lon="6.61359">
        <ele>498</ele>
        <time>2019-04-17T09:46:05Z</time>
      </trkpt>
      <trkpt lat="46.03853" lon="6.61387">
        <ele>497</ele>
        <time>2019-04-17T09:47:05Z</time>
      </trkpt>
      <trkpt lat="46.03854" lon="6.61413">
        <ele>496</ele>
        <time>2019-04-17T09:48:05Z</time>
      </trkpt>
      <trkpt lat="46.0385" lon="6.61434">
        <ele>497</ele>
        <time>2019-04-17T09:49:05Z</time>
      </trkpt>
      <trkpt lat="46.03834" lon="6.61489">
        <ele>498</ele>
        <time>2019-04-17T09:50:05Z</time>
      </trkpt>
      <trkpt lat="46.03821" lon="6.61524">
        <ele>500</ele>
        <time>2019-04-17T09:51:05Z</time>
      </trkpt>
      <trkpt lat="46.03809" lon="6.61553">
        <ele>501</ele>
        <time>2019-04-17T09:52:05Z</time>
      </trkpt>
      <trkpt lat="46.03762" lon="6.61632">
        <ele>503</ele>
        <time>2019-04-17T09:53:05Z</time>
      </trkpt>
      <trkpt lat="46.03679" lon="6.6176">
        <ele>511</ele>
        <time>2019-04-17T09:54:05Z</time>
      </trkpt>
      <trkpt lat="46.03646" lon="6.61802">
        <ele>517</ele>
        <time>2019-04-17T09:55:05Z</time>
      </trkpt>
      <trkpt lat="46.03611" lon="6.61832">
        <ele>515</ele>
        <time>2019-04-17T09:56:05Z</time>
      </trkpt>
      <trkpt lat="46.03591" lon="6.61844">
        <ele>513</ele>
        <time>2019-04-17T09:57:05Z</time>
      </trkpt>
      <trkpt lat="46.03557" lon="6.61859">
        <ele>514</ele>
        <time>2019-04-17T09:58:05Z</time>
      </trkpt>
      <trkpt lat="46.03535" lon="6.61864">
        <ele>514</ele>
        <time>2019-04-17T09:59:05Z</time>
      </trkpt>
      <trkpt lat="46.03511" lon="6.61866">
        <ele>513</ele>
        <time>2019-04-17T10:00:05Z</time>
      </trkpt>
      <trkpt lat="46.03488" lon="6.61865">
        <ele>512</ele>
        <time>2019-04-17T10:01:05Z</time>
      </trkpt>
      <trkpt lat="46.03364" lon="6.61846">
        <ele>508</ele>
        <time>2019-04-17T10:02:05Z</time>
      </trkpt>
      <trkpt lat="46.03272" lon="6.6182">
        <ele>508</ele>
        <time>2019-04-17T10:03:05Z</time>
      </trkpt>
      <trkpt lat="46.0304" lon="6.61748">
        <ele>503</ele>
        <time>2019-04-17T10:04:05Z</time>
      </trkpt>
      <trkpt lat="46.03003" lon="6.61739">
        <ele>502</ele>
        <time>2019-04-17T10:05:05Z</time>
      </trkpt>
      <trkpt lat="46.02969" lon="6.61738">
        <ele>503</ele>
        <time>2019-04-17T10:06:05Z</time>
      </trkpt>
      <trkpt lat="46.02856" lon="6.61751">
        <ele>505</ele>
        <time>2019-04-17T10:07:05Z</time>
      </trkpt>
      <trkpt lat="46.02821" lon="6.61757">
        <ele>505</ele>
        <time>2019-04-17T10:08:05Z</time>
      </trkpt>
      <trkpt lat="46.02804" lon="6.61765">
        <ele>506</ele>
        <time>2019-04-17T10:09:05Z</time>
      </trkpt>
      <trkpt lat="46.02788" lon="6.61778">
        <ele>507</ele>
        <time>2019-04-17T10:10:05Z</time>
      </trkpt>
      <trkpt lat="46.02685" lon="6.6188">
        <ele>514</ele>
        <time>2019-04-17T10:11:05Z</time>
      </trkpt>
      <trkpt lat="46.02659" lon="6.619">
        <ele>513</ele>
        <time>2019-04-17T10:12:05Z</time>
      </trkpt>
      <trkpt lat="46.02632" lon="6.61913">
        <ele>513</ele>
        <time>2019-04-17T10:13:05Z</time>
      </trkpt>
      <trkpt lat="46.02495" lon="6.61962">
        <ele>514</ele>
        <time>2019-04-17T10:14:05Z</time>
      </trkpt>
      <trkpt lat="46.02472" lon="6.61967">
        <ele>514</ele>
        <time>2019-04-17T10:15:05Z</time>
      </trkpt>
      <trkpt lat="46.02421" lon="6.6199">
        <ele>514</ele>
        <time>2019-04-17T10:16:05Z</time>
      </trkpt>
      <trkpt lat="46.02348" lon="6.62008">
        <ele>516</ele>
        <time>2019-04-17T10:17:05Z</time>
      </trkpt>
      <trkpt lat="46.02306" lon="6.62027">
        <ele>516</ele>
        <time>2019-04-17T10:18:05Z</time>
      </trkpt>
      <trkpt lat="46.02288" lon="6.6203">
        <ele>515</ele>
        <time>2019-04-17T10:19:05Z</time>
      </trkpt>
      <trkpt lat="46.02287" lon="6.62025">
        <ele>514</ele>
        <time>2019-04-17T10:20:05Z</time>
      </trkpt>
      <trkpt lat="46.02284" lon="6.62021">
        <ele>514</ele>
        <time>2019-04-17T10:21:05Z</time>
      </trkpt>
      <trkpt lat="46.02279" lon="6.62022">
        <ele>514</ele>
        <time>2019-04-17T10:22:05Z</time>
      </trkpt>
      <trkpt lat="46.02276" lon="6.62026">
        <ele>514</ele>
        <time>2019-04-17T10:23:05Z</time>
      </trkpt>
      <trkpt lat="46.02276" lon="6.62035">
        <ele>514</ele>
        <time>2019-04-17T10:24:05Z</time>
      </trkpt>
      <trkpt lat="46.02272" lon="6.62038">
        <ele>514</ele>
        <time>2019-04-17T10:25:05Z</time>
      </trkpt>
      <trkpt lat="46.02204" lon="6.62069">
        <ele>511</ele>
        <time>2019-04-17T10:26:05Z</time>
      </trkpt>
      <trkpt lat="46.02105" lon="6.62101">
        <ele>514</ele>
        <time>2019-04-17T10:27:05Z</time>
      </trkpt>
      <trkpt lat="46.02091" lon="6.62107">
        <ele>515</ele>
        <time>2019-04-17T10:28:05Z</time>
      </trkpt>
      <trkpt lat="46.02053" lon="6.62118">
        <ele>514</ele>
        <time>2019-04-17T10:29:05Z</time>
      </trkpt>
      <trkpt lat="46.01986" lon="6.62155">
        <ele>512</ele>
        <time>2019-04-17T10:30:05Z</time>
      </trkpt>
      <trkpt lat="46.01896" lon="6.62217">
        <ele>510</ele>
        <time>2019-04-17T10:31:05Z</time>
      </trkpt>
      <trkpt lat="46.01801" lon="6.62264">
        <ele>507</ele>
        <time>2019-04-17T10:32:05Z</time>
      </trkpt>
      <trkpt lat="46.01785" lon="6.62268">
        <ele>508</ele>
        <time>2019-04-17T10:33:05Z</time>
      </trkpt>
      <trkpt lat="46.01735" lon="6.62289">
        <ele>508</ele>
        <time>2019-04-17T10:34:05Z</time>
      </trkpt>
      <trkpt lat="46.0171" lon="6.62303">
        <ele>508</ele>
        <time>2019-04-17T10:35:05Z</time>
      </trkpt>
      <trkpt lat="46.01637" lon="6.62361">
        <ele>508</ele>
        <time>2019-04-17T10:36:05Z</time>
      </trkpt>
      <trkpt lat="46.01589" lon="6.62402">
        <ele>509</ele>
        <time>2019-04-17T10:37:05Z</time>
      </trkpt>
      <trkpt lat="46.01554" lon="6.62428">
        <ele>511</ele>
        <time>2019-04-17T10:38:05Z</time>
      </trkpt>
      <trkpt lat="46.01505" lon="6.62463">
        <ele>514</ele>
        <time>2019-04-17T10:39:05Z</time>
      </trkpt>
      <trkpt lat="46.01394" lon="6.62534">
        <ele>515</ele>
        <time>2019-04-17T10:40:05Z</time>
      </trkpt>
      <trkpt lat="46.01391" lon="6.62531">
        <ele>514</ele>
        <time>2019-04-17T10:41:05Z</time>
      </trkpt>
      <trkpt lat="46.01384" lon="6.6253">
        <ele>513</ele>
        <time>2019-04-17T10:42:05Z</time>
      </trkpt>
      <trkpt lat="46.01381" lon="6.62531">
        <ele>513</ele>
        <time>2019-04-17T10:43:05Z</time>
      </trkpt>
      <trkpt lat="46.01366" lon="6.62499">
        <ele>507</ele>
        <time>2019-04-17T10:44:05Z</time>
      </trkpt>
      <trkpt lat="46.01354" lon="6.62488">
        <ele>506</ele>
        <time>2019-04-17T10:45:05Z</time>
      </trkpt>
      <trkpt lat="46.01335" lon="6.62483">
        <ele>506</ele>
        <time>2019-04-17T10:46:05Z</time>
      </trkpt>
      <trkpt lat="46.0132" lon="6.62485">
        <ele>506</ele>
        <time>2019-04-17T10:47:05Z</time>
      </trkpt>
      <trkpt lat="46.01292" lon="6.62493">
        <ele>507</ele>
        <time>2019-04-17T10:48:05Z</time>
      </trkpt>
      <trkpt lat="46.01256" lon="6.62499">
        <ele>508</ele>
        <time>2019-04-17T10:49:05Z</time>
      </trkpt>
      <trkpt lat="46.01241" lon="6.62495">
        <ele>508</ele>
        <time>2019-04-17T10:50:05Z</time>
      </trkpt>
      <trkpt lat="46.01235" lon="6.62491">
        <ele>508</ele>
        <time>2019-04-17T10:51:05Z</time>
      </trkpt>
      <trkpt lat="46.01227" lon="6.62481">
        <ele>508</ele>
        <time>2019-04-17T10:52:05Z</time>
      </trkpt>
      <trkpt lat="46.01223" lon="6.6247">
        <ele>508</ele>
        <time>2019-04-17T10:53:05Z</time>
      </trkpt>
      <trkpt lat="46.01186" lon="6.6236">
        <ele>507</ele>
        <time>2019-04-17T10:54:05Z</time>
      </trkpt>
      <trkpt lat="46.01162" lon="6.62395">
        <ele>508</ele>
        <time>2019-04-17T10:55:05Z</time>
      </trkpt>
      <trkpt lat="46.01053" lon="6.62464">
        <ele>508</ele>
        <time>2019-04-17T10:56:05Z</time>
      </trkpt>
      <trkpt lat="46.00837" lon="6.62612">
        <ele>507</ele>
        <time>2019-04-17T10:57:05Z</time>
      </trkpt>
      <trkpt lat="46.00711" lon="6.62683">
        <ele>511</ele>
        <time>2019-04-17T10:58:05Z</time>
      </trkpt>
      <trkpt lat="46.00593" lon="6.62722">
        <ele>511</ele>
        <time>2019-04-17T10:59:05Z</time>
      </trkpt>
      <trkpt lat="46.00368" lon="6.62778">
        <ele>510</ele>
        <time>2019-04-17T11:00:05Z</time>
      </trkpt>
      <trkpt lat="46.00182" lon="6.62814">
        <ele>511</ele>
        <time>2019-04-17T11:01:05Z</time>
      </trkpt>
      <trkpt lat="45.99561" lon="6.62929">
        <ele>514</ele>
        <time>2019-04-17T11:02:05Z</time>
      </trkpt>
      <trkpt lat="45.9951" lon="6.62936">
        <ele>514</ele>
        <time>2019-04-17T11:03:05Z</time>
      </trkpt>
      <trkpt lat="45.99513" lon="6.62987">
        <ele>515</ele>
        <time>2019-04-17T11:04:05Z</time>
      </trkpt>
      <trkpt lat="45.99518" lon="6.63043">
        <ele>517</ele>
        <time>2019-04-17T11:05:05Z</time>
      </trkpt>
      <trkpt lat="45.99485" lon="6.63057">
        <ele>518</ele>
        <time>2019-04-17T11:06:05Z</time>
      </trkpt>
      <trkpt lat="45.99443" lon="6.63057">
        <ele>519</ele>
        <time>2019-04-17T11:07:05Z</time>
      </trkpt>
      <trkpt lat="45.99424" lon="6.63059">
        <ele>520</ele>
        <time>2019-04-17T11:08:05Z</time>
      </trkpt>
      <trkpt lat="45.99337" lon="6.63075">
        <ele>519</ele>
        <time>2019-04-17T11:09:05Z</time>
      </trkpt>
      <trkpt lat="45.99155" lon="6.63103">
        <ele>518</ele>
        <time>2019-04-17T11:10:05Z</time>
      </trkpt>
      <trkpt lat="45.99159" lon="6.63144">
        <ele>519</ele>
        <time>2019-04-17T11:11:05Z</time>
      </trkpt>
      <trkpt lat="45.99125" lon="6.63149">
        <ele>519</ele>
        <time>2019-04-17T11:12:05Z</time>
      </trkpt>
      <trkpt lat="45.99076" lon="6.63164">
        <ele>519</ele>
        <time>2019-04-17T11:13:05Z</time>
      </trkpt>
      <trkpt lat="45.99025" lon="6.63183">
        <ele>521</ele>
        <time>2019-04-17T11:14:05Z</time>
      </trkpt>
      <trkpt lat="45.98998" lon="6.63196">
        <ele>522</ele>
        <time>2019-04-17T11:15:05Z</time>
      </trkpt>
      <trkpt lat="45.98963" lon="6.63205">
        <ele>524</ele>
        <time>2019-04-17T11:16:05Z</time>
      </trkpt>
      <trkpt lat="45.98942" lon="6.63214">
        <ele>525</ele>
        <time>2019-04-17T11:17:05Z</time>
      </trkpt>
      <trkpt lat="45.98924" lon="6.63218">
        <ele>526</ele>
        <time>2019-04-17T11:18:05Z</time>
      </trkpt>
      <trkpt lat="45.98838" lon="6.63232">
        <ele>527</ele>
        <time>2019-04-17T11:19:05Z</time>
      </trkpt>
      <trkpt lat="45.98634" lon="6.63268">
        <ele>530</ele>
        <time>2019-04-17T11:20:05Z</time>
      </trkpt>
      <trkpt lat="45.98489" lon="6.63265">
        <ele>533</ele>
        <time>2019-04-17T11:21:05Z</time>
      </trkpt>
      <trkpt lat="45.98448" lon="6.63267">
        <ele>534</ele>
        <time>2019-04-17T11:22:05Z</time>
      </trkpt>
      <trkpt lat="45.98412" lon="6.63271">
        <ele>535</ele>
        <time>2019-04-17T11:23:05Z</time>
      </trkpt>
      <trkpt lat="45.98346" lon="6.63294">
        <ele>540</ele>
        <time>2019-04-17T11:24:05Z</time>
      </trkpt>
      <trkpt lat="45.98315" lon="6.63309">
        <ele>541</ele>
        <time>2019-04-17T11:25:05Z</time>
      </trkpt>
      <trkpt lat="45.98154" lon="6.63413">
        <ele>541</ele>
        <time>2019-04-17T11:26:05Z</time>
      </trkpt>
      <trkpt lat="45.9814" lon="6.63425">
        <ele>540</ele>
        <time>2019-04-17T11:27:05Z</time>
      </trkpt>
      <trkpt lat="45.98121" lon="6.63437">
        <ele>539</ele>
        <time>2019-04-17T11:28:05Z</time>
      </trkpt>
      <trkpt lat="45.98068" lon="6.63488">
        <ele>537</ele>
        <time>2019-04-17T11:29:05Z</time>
      </trkpt>
      <trkpt lat="45.9801" lon="6.6355">
        <ele>533</ele>
        <time>2019-04-17T11:30:05Z</time>
      </trkpt>
      <trkpt lat="45.97982" lon="6.63577">
        <ele>531</ele>
        <time>2019-04-17T11:31:05Z</time>
      </trkpt>
      <trkpt lat="45.97859" lon="6.63704">
        <ele>524</ele>
        <time>2019-04-17T11:32:05Z</time>
      </trkpt>
      <trkpt lat="45.97822" lon="6.63731">
        <ele>523</ele>
        <time>2019-04-17T11:33:05Z</time>
      </trkpt>
      <trkpt lat="45.97803" lon="6.63742">
        <ele>523</ele>
        <time>2019-04-17T11:34:05Z</time>
      </trkpt>
      <trkpt lat="45.97599" lon="6.63821">
        <ele>532</ele>
        <time>2019-04-17T11:35:05Z</time>
      </trkpt>
      <trkpt lat="45.97528" lon="6.6385">
        <ele>528</ele>
        <time>2019-04-17T11:36:05Z</time>
      </trkpt>
      <trkpt lat="45.97471" lon="6.63868">
        <ele>526</ele>
        <time>2019-04-17T11:37:05Z</time>
      </trkpt>
      <trkpt lat="45.97438" lon="6.63872">
        <ele>526</ele>
        <time>2019-04-17T11:38:05Z</time>
      </trkpt>
      <trkpt lat="45.9739" lon="6.63864">
        <ele>527</ele>
        <time>2019-04-17T11:39:05Z</time>
      </trkpt>
      <trkpt lat="45.97359" lon="6.63856">
        <ele>527</ele>
        <time>2019-04-17T11:40:05Z</time>
      </trkpt>
      <trkpt lat="45.9675" lon="6.6366">
        <ele>547</ele>
        <time>2019-04-17T11:41:05Z</time>
      </trkpt>
      <trkpt lat="45.96665" lon="6.63637">
        <ele>551</ele>
        <time>2019-04-17T11:42:05Z</time>
      </trkpt>
      <trkpt lat="45.96639" lon="6.63637">
        <ele>551</ele>
        <time>2019-04-17T11:43:05Z</time>
      </trkpt>
      <trkpt lat="45.96327" lon="6.63709">
        <ele>541</ele>
        <time>2019-04-17T11:44:05Z</time>
      </trkpt>
      <trkpt lat="45.96169" lon="6.63777">
        <ele>536</ele>
        <time>2019-04-17T11:45:05Z</time>
      </trkpt>
      <trkpt lat="45.96079" lon="6.63851">
        <ele>549</ele>
        <time>2019-04-17T11:46:05Z</time>
      </trkpt>
      <trkpt lat="45.95752" lon="6.63946">
        <ele>551</ele>
        <time>2019-04-17T11:47:05Z</time>
      </trkpt>
      <trkpt lat="45.95688" lon="6.63955">
        <ele>548</ele>
        <time>2019-04-17T11:48:05Z</time>
      </trkpt>
      <trkpt lat="45.95591" lon="6.63955">
        <ele>542</ele>
        <time>2019-04-17T11:49:05Z</time>
      </trkpt>
      <trkpt lat="45.95562" lon="6.6393">
        <ele>538</ele>
        <time>2019-04-17T11:50:05Z</time>
      </trkpt>
      <trkpt lat="45.95452" lon="6.63939">
        <ele>539</ele>
        <time>2019-04-17T11:51:05Z</time>
      </trkpt>
      <trkpt lat="45.94971" lon="6.64156">
        <ele>538</ele>
        <time>2019-04-17T11:52:05Z</time>
      </trkpt>
      <trkpt lat="45.94707" lon="6.64151">
        <ele>539</ele>
        <time>2019-04-17T11:53:05Z</time>
      </trkpt>
      <trkpt lat="45.94588" lon="6.64162">
        <ele>542</ele>
        <time>2019-04-17T11:54:05Z</time>
      </trkpt>
      <trkpt lat="45.94366" lon="6.64176">
        <ele>545</ele>
        <time>2019-04-17T11:55:05Z</time>
      </trkpt>
      <trkpt lat="45.94296" lon="6.64185">
        <ele>548</ele>
        <time>2019-04-17T11:56:05Z</time>
      </trkpt>
      <trkpt lat="45.94278" lon="6.64183">
        <ele>548</ele>
        <time>2019-04-17T11:57:05Z</time>
      </trkpt>
      <trkpt lat="45.94216" lon="6.64193">
        <ele>548</ele>
        <time>2019-04-17T11:58:05Z</time>
      </trkpt>
      <trkpt lat="45.94137" lon="6.64218">
        <ele>545</ele>
        <time>2019-04-17T11:59:05Z</time>
      </trkpt>
      <trkpt lat="45.94088" lon="6.64231">
        <ele>544</ele>
        <time>2019-04-17T12:00:05Z</time>
      </trkpt>
      <trkpt lat="45.94045" lon="6.64238">
        <ele>543</ele>
        <time>2019-04-17T12:01:05Z</time>
      </trkpt>
      <trkpt lat="45.94033" lon="6.64243">
        <ele>543</ele>
        <time>2019-04-17T12:02:05Z</time>
      </trkpt>
      <trkpt lat="45.93979" lon="6.64299">
        <ele>544</ele>
        <time>2019-04-17T12:03:05Z</time>
      </trkpt>
      <trkpt lat="45.93966" lon="6.64316">
        <ele>544</ele>
        <time>2019-04-17T12:04:05Z</time>
      </trkpt>
      <trkpt lat="45.93955" lon="6.64342">
        <ele>545</ele>
        <time>2019-04-17T12:05:05Z</time>
      </trkpt>
      <trkpt lat="45.93946" lon="6.64377">
        <ele>545</ele>
        <time>2019-04-17T12:06:05Z</time>
      </trkpt>
      <trkpt lat="45.9394" lon="6.64393">
        <ele>545</ele>
        <time>2019-04-17T12:07:05Z</time>
      </trkpt>
      <trkpt lat="45.93919" lon="6.64426">
        <ele>544</ele>
        <time>2019-04-17T12:08:05Z</time>
      </trkpt>
      <trkpt lat="45.93905" lon="6.64443">
        <ele>544</ele>
        <time>2019-04-17T12:09:05Z</time>
      </trkpt>
      <trkpt lat="45.93892" lon="6.6445">
        <ele>543</ele>
        <time>2019-04-17T12:10:05Z</time>
      </trkpt>
      <trkpt lat="45.93883" lon="6.64452">
        <ele>543</ele>
        <time>2019-04-17T12:11:05Z</time>
      </trkpt>
      <trkpt lat="45.93874" lon="6.64442">
        <ele>543</ele>
        <time>2019-04-17T12:12:05Z</time>
      </trkpt>
      <trkpt lat="45.93858" lon="6.64432">
        <ele>542</ele>
        <time>2019-04-17T12:13:05Z</time>
      </trkpt>
      <trkpt lat="45.93852" lon="6.64448">
        <ele>542</ele>
        <time>2019-04-17T12:14:05Z</time>
      </trkpt>
      <trkpt lat="45.93836" lon="6.64478">
        <ele>541</ele>
        <time>2019-04-17T12:15:05Z</time>
      </trkpt>
      <trkpt lat="45.93817" lon="6.64501">
        <ele>541</ele>
        <time>2019-04-17T12:16:05Z</time>
      </trkpt>
      <trkpt lat="45.93775" lon="6.64538">
        <ele>543</ele>
        <time>2019-04-17T12:17:05Z</time>
      </trkpt>
      <trkpt lat="45.93733" lon="6.64583">
        <ele>544</ele>
        <time>2019-04-17T12:18:05Z</time>
      </trkpt>
      <trkpt lat="45.93414" lon="6.64968">
        <ele>546</ele>
        <time>2019-04-17T12:19:05Z</time>
      </trkpt>
      <trkpt lat="45.93236" lon="6.65179">
        <ele>547</ele>
        <time>2019-04-17T12:20:05Z</time>
      </trkpt>
      <trkpt lat="45.93021" lon="6.65386">
        <ele>555</ele>
        <time>2019-04-17T12:21:05Z</time>
      </trkpt>
      <trkpt lat="45.93012" lon="6.65393">
        <ele>556</ele>
        <time>2019-04-17T12:22:05Z</time>
      </trkpt>
      <trkpt lat="45.92962" lon="6.6544">
        <ele>557</ele>
        <time>2019-04-17T12:23:05Z</time>
      </trkpt>
      <trkpt lat="45.92942" lon="6.65456">
        <ele>557</ele>
        <time>2019-04-17T12:24:05Z</time>
      </trkpt>
      <trkpt lat="45.92924" lon="6.6548">
        <ele>558</ele>
        <time>2019-04-17T12:25:05Z</time>
      </trkpt>
      <trkpt lat="45.92916" lon="6.65485">
        <ele>559</ele>
        <time>2019-04-17T12:26:05Z</time>
      </trkpt>
      <trkpt lat="45.92911" lon="6.65486">
        <ele>559</ele>
        <time>2019-04-17T12:27:05Z</time>
      </trkpt>
      <trkpt lat="45.92904" lon="6.65493">
        <ele>559</ele>
        <time>2019-04-17T12:28:05Z</time>
      </trkpt>
      <trkpt lat="45.92902" lon="6.65505">
        <ele>559</ele>
        <time>2019-04-17T12:29:05Z</time>
      </trkpt>
      <trkpt lat="45.92903" lon="6.6551">
        <ele>560</ele>
        <time>2019-04-17T12:30:05Z</time>
      </trkpt>
      <trkpt lat="45.92905" lon="6.65515">
        <ele>560</ele>
        <time>2019-04-17T12:31:05Z</time>
      </trkpt>
      <trkpt lat="45.92913" lon="6.6552">
        <ele>561</ele>
        <time>2019-04-17T12:32:05Z</time>
      </trkpt>
      <trkpt lat="45.92917" lon="6.65531">
        <ele>561</ele>
        <time>2019-04-17T12:33:05Z</time>
      </trkpt>
      <trkpt lat="45.92918" lon="6.6554">
        <ele>561</ele>
        <time>2019-04-17T12:34:05Z</time>
      </trkpt>
      <trkpt lat="45.92914" lon="6.656">
        <ele>563</ele>
        <time>2019-04-17T12:35:05Z</time>
      </trkpt>
      <trkpt lat="45.92899" lon="6.65702">
        <ele>568</ele>
        <time>2019-04-17T12:36:05Z</time>
      </trkpt>
      <trkpt lat="45.92894" lon="6.65728">
        <ele>570</ele>
        <time>2019-04-17T12:37:05Z</time>
      </trkpt>
      <trkpt lat="45.92885" lon="6.65755">
        <ele>572</ele>
        <time>2019-04-17T12:38:05Z</time>
      </trkpt>
      <trkpt lat="45.92871" lon="6.65777">
        <ele>574</ele>
        <time>2019-04-17T12:39:05Z</time>
      </trkpt>
      <trkpt lat="45.92832" lon="6.65822">
        <ele>576</ele>
        <time>2019-04-17T12:40:05Z</time>
      </trkpt>
      <trkpt lat="45.92817" lon="6.65838">
        <ele>578</ele>
        <time>2019-04-17T12:41:05Z</time>
      </trkpt>
      <trkpt lat="45.92789" lon="6.65861">
        <ele>580</ele>
        <time>2019-04-17T12:42:05Z</time>
      </trkpt>
      <trkpt lat="45.92774" lon="6.65881">
        <ele>581</ele>
        <time>2019-04-17T12:43:05Z</time>
      </trkpt>
      <trkpt lat="45.92756" lon="6.65929">
        <ele>583</ele>
        <time>2019-04-17T12:44:05Z</time>
      </trkpt>
      <trkpt lat="45.92738" lon="6.65964">
        <ele>583</ele>
        <time>2019-04-17T12:45:05Z</time>
      </trkpt>
      <trkpt lat="45.92702" lon="6.66025">
        <ele>585</ele>
        <time>2019-04-17T12:46:05Z</time>
      </trkpt>
      <trkpt lat="45.92683" lon="6.66064">
        <ele>588</ele>
        <time>2019-04-17T12:47:05Z</time>
      </trkpt>
      <trkpt lat="45.92679" lon="6.66079">
        <ele>590</ele>
        <time>2019-04-17T12:48:05Z</time>
      </trkpt>
      <trkpt lat="45.92677" lon="6.66106">
        <ele>592</ele>
        <time>2019-04-17T12:49:05Z</time>
      </trkpt>
      <trkpt lat="45.92679" lon="6.66166">
        <ele>597</ele>
        <time>2019-04-17T12:50:05Z</time>
      </trkpt>
      <trkpt lat="45.92678" lon="6.6624">
        <ele>598</ele>
        <time>2019-04-17T12:51:05Z</time>
      </trkpt>
      <trkpt lat="45.92677" lon="6.66258">
        <ele>599</ele>
        <time>2019-04-17T12:52:05Z</time>
      </trkpt>
      <trkpt lat="45.92673" lon="6.66279">
        <ele>599</ele>
        <time>2019-04-17T12:53:05Z</time>
      </trkpt>
      <trkpt lat="45.9266" lon="6.66316">
        <ele>599</ele>
        <time>2019-04-17T12:54:05Z</time>
      </trkpt>
      <trkpt lat="45.92619" lon="6.66398">
        <ele>602</ele>
        <time>2019-04-17T12:55:05Z</time>
      </trkpt>
      <trkpt lat="45.92611" lon="6.66425">
        <ele>603</ele>
        <time>2019-04-17T12:56:05Z</time>
      </trkpt>
      <trkpt lat="45.92614" lon="6.66476">
        <ele>607</ele>
        <time>2019-04-17T12:57:05Z</time>
      </trkpt>
      <trkpt lat="45.92623" lon="6.66514">
        <ele>610</ele>
        <time>2019-04-17T12:58:05Z</time>
      </trkpt>
      <trkpt lat="45.92629" lon="6.66528">
        <ele>612</ele>
        <time>2019-04-17T12:59:05Z</time>
      </trkpt>
      <trkpt lat="45.92646" lon="6.66557">
        <ele>615</ele>
        <time>2019-04-17T13:00:05Z</time>
      </trkpt>
      <trkpt lat="45.92651" lon="6.66572">
        <ele>617</ele>
        <time>2019-04-17T13:01:05Z</time>
      </trkpt>
      <trkpt lat="45.92652" lon="6.66585">
        <ele>617</ele>
        <time>2019-04-17T13:02:05Z</time>
      </trkpt>
      <trkpt lat="45.92648" lon="6.66603">
        <ele>619</ele>
        <time>2019-04-17T13:03:05Z</time>
      </trkpt>
      <trkpt lat="45.92644" lon="6.66613">
        <ele>619</ele>
        <time>2019-04-17T13:04:05Z</time>
      </trkpt>
      <trkpt lat="45.92638" lon="6.66622">
        <ele>619</ele>
        <time>2019-04-17T13:05:05Z</time>
      </trkpt>
      <trkpt lat="45.9263" lon="6.66634">
        <ele>619</ele>
        <time>2019-04-17T13:06:05Z</time>
      </trkpt>
      <trkpt lat="45.92622" lon="6.6664">
        <ele>619</ele>
        <time>2019-04-17T13:07:05Z</time>
      </trkpt>
      <trkpt lat="45.92595" lon="6.66659">
        <ele>617</ele>
        <time>2019-04-17T13:08:05Z</time>
      </trkpt>
      <trkpt lat="45.92553" lon="6.66679">
        <ele>615</ele>
        <time>2019-04-17T13:09:05Z</time>
      </trkpt>
      <trkpt lat="45.92539" lon="6.66692">
        <ele>616</ele>
        <time>2019-04-17T13:10:05Z</time>
      </trkpt>
      <trkpt lat="45.92531" lon="6.66706">
        <ele>618</ele>
        <time>2019-04-17T13:11:05Z</time>
      </trkpt>
      <trkpt lat="45.92503" lon="6.66767">
        <ele>623</ele>
        <time>2019-04-17T13:12:05Z</time>
      </trkpt>
      <trkpt lat="45.92467" lon="6.66828">
        <ele>623</ele>
        <time>2019-04-17T13:13:05Z</time>
      </trkpt>
      <trkpt lat="45.92459" lon="6.66854">
        <ele>624</ele>
        <time>2019-04-17T13:14:05Z</time>
      </trkpt>
      <trkpt lat="45.92445" lon="6.66962">
        <ele>638</ele>
        <time>2019-04-17T13:15:05Z</time>
      </trkpt>
      <trkpt lat="45.92438" lon="6.66988">
        <ele>640</ele>
        <time>2019-04-17T13:16:05Z</time>
      </trkpt>
      <trkpt lat="45.9242" lon="6.67032">
        <ele>641</ele>
        <time>2019-04-17T13:17:05Z</time>
      </trkpt>
      <trkpt lat="45.92406" lon="6.67101">
        <ele>647</ele>
        <time>2019-04-17T13:18:05Z</time>
      </trkpt>
      <trkpt lat="45.92403" lon="6.67132">
        <ele>652</ele>
        <time>2019-04-17T13:19:05Z</time>
      </trkpt>
      <trkpt lat="45.924" lon="6.67142">
        <ele>652</ele>
        <time>2019-04-17T13:20:05Z</time>
      </trkpt>
      <trkpt lat="45.92395" lon="6.67153">
        <ele>653</ele>
        <time>2019-04-17T13:21:05Z</time>
      </trkpt>
      <trkpt lat="45.92379" lon="6.67172">
        <ele>649</ele>
        <time>2019-04-17T13:22:05Z</time>
      </trkpt>
      <trkpt lat="45.92369" lon="6.67205">
        <ele>651</ele>
        <time>2019-04-17T13:23:05Z</time>
      </trkpt>
      <trkpt lat="45.92366" lon="6.67226">
        <ele>653</ele>
        <time>2019-04-17T13:24:05Z</time>
      </trkpt>
      <trkpt lat="45.92358" lon="6.67253">
        <ele>655</ele>
        <time>2019-04-17T13:25:05Z</time>
      </trkpt>
      <trkpt lat="45.92336" lon="6.67297">
        <ele>648</ele>
        <time>2019-04-17T13:26:05Z</time>
      </trkpt>
      <trkpt lat="45.9233" lon="6.67315">
        <ele>648</ele>
        <time>2019-04-17T13:27:05Z</time>
      </trkpt>
      <trkpt lat="45.92328" lon="6.67334">
        <ele>649</ele>
        <time>2019-04-17T13:28:05Z</time>
      </trkpt>
      <trkpt lat="45.92329" lon="6.67342">
        <ele>649</ele>
        <time>2019-04-17T13:29:05Z</time>
      </trkpt>
      <trkpt lat="45.92361" lon="6.67432">
        <ele>657</ele>
        <time>2019-04-17T13:30:05Z</time>
      </trkpt>
      <trkpt lat="45.92365" lon="6.67449">
        <ele>658</ele>
        <time>2019-04-17T13:31:05Z</time>
      </trkpt>
      <trkpt lat="45.92362" lon="6.67472">
        <ele>658</ele>
        <time>2019-04-17T13:32:05Z</time>
      </trkpt>
      <trkpt lat="45.92347" lon="6.67522">
        <ele>655</ele>
        <time>2019-04-17T13:33:05Z</time>
      </trkpt>
      <trkpt lat="45.92344" lon="6.67536">
        <ele>655</ele>
        <time>2019-04-17T13:34:05Z</time>
      </trkpt>
      <trkpt lat="45.92343" lon="6.67553">
        <ele>655</ele>
        <time>2019-04-17T13:35:05Z</time>
      </trkpt>
      <trkpt lat="45.92346" lon="6.67585">
        <ele>657</ele>
        <time>2019-04-17T13:36:05Z</time>
      </trkpt>
      <trkpt lat="45.92353" lon="6.67614">
        <ele>658</ele>
        <time>2019-04-17T13:37:05Z</time>
      </trkpt>
      <trkpt lat="45.9237" lon="6.67707">
        <ele>666</ele>
        <time>2019-04-17T13:38:05Z</time>
      </trkpt>
      <trkpt lat="45.9237" lon="6.67752">
        <ele>671</ele>
        <time>2019-04-17T13:39:05Z</time>
      </trkpt>
      <trkpt lat="45.9236" lon="6.67794">
        <ele>676</ele>
        <time>2019-04-17T13:40:05Z</time>
      </trkpt>
      <trkpt lat="45.92353" lon="6.67815">
        <ele>676</ele>
        <time>2019-04-17T13:41:05Z</time>
      </trkpt>
      <trkpt lat="45.9235" lon="6.6785">
        <ele>682</ele>
        <time>2019-04-17T13:42:05Z</time>
      </trkpt>
      <trkpt lat="45.92346" lon="6.6787">
        <ele>684</ele>
        <time>2019-04-17T13:43:05Z</time>
      </trkpt>
      <trkpt lat="45.92337" lon="6.67887">
        <ele>682</ele>
        <time>2019-04-17T13:44:05Z</time>
      </trkpt>
      <trkpt lat="45.92331" lon="6.67904">
        <ele>683</ele>
        <time>2019-04-17T13:45:05Z</time>
      </trkpt>
      <trkpt lat="45.92327" lon="6.67926">
        <ele>685</ele>
        <time>2019-04-17T13:46:05Z</time>
      </trkpt>
      <trkpt lat="45.92327" lon="6.67954">
        <ele>688</ele>
        <time>2019-04-17T13:47:05Z</time>
      </trkpt>
      <trkpt lat="45.92323" lon="6.67986">
        <ele>690</ele>
        <time>2019-04-17T13:48:05Z</time>
      </trkpt>
      <trkpt lat="45.9232" lon="6.68003">
        <ele>691</ele>
        <time>2019-04-17T13:49:05Z</time>
      </trkpt>
      <trkpt lat="45.92303" lon="6.68062">
        <ele>685</ele>
        <time>2019-04-17T13:50:05Z</time>
      </trkpt>
      <trkpt lat="45.923" lon="6.68093">
        <ele>685</ele>
        <time>2019-04-17T13:51:05Z</time>
      </trkpt>
      <trkpt lat="45.92303" lon="6.68117">
        <ele>685</ele>
        <time>2019-04-17T13:52:05Z</time>
      </trkpt>
      <trkpt lat="45.92311" lon="6.68147">
        <ele>687</ele>
        <time>2019-04-17T13:53:05Z</time>
      </trkpt>
      <trkpt lat="45.92318" lon="6.682">
        <ele>690</ele>
        <time>2019-04-17T13:54:05Z</time>
      </trkpt>
      <trkpt lat="45.92317" lon="6.68231">
        <ele>692</ele>
        <time>2019-04-17T13:55:05Z</time>
      </trkpt>
      <trkpt lat="45.92309" lon="6.68253">
        <ele>691</ele>
        <time>2019-04-17T13:56:05Z</time>
      </trkpt>
      <trkpt lat="45.92291" lon="6.68275">
        <ele>687</ele>
        <time>2019-04-17T13:57:05Z</time>
      </trkpt>
      <trkpt lat="45.92284" lon="6.68295">
        <ele>686</ele>
        <time>2019-04-17T13:58:05Z</time>
      </trkpt>
      <trkpt lat="45.9228" lon="6.6832">
        <ele>686</ele>
        <time>2019-04-17T13:59:05Z</time>
      </trkpt>
      <trkpt lat="45.92277" lon="6.68359">
        <ele>688</ele>
        <time>2019-04-17T14:00:05Z</time>
      </trkpt>
      <trkpt lat="45.92279" lon="6.68375">
        <ele>689</ele>
        <time>2019-04-17T14:01:05Z</time>
      </trkpt>
      <trkpt lat="45.92302" lon="6.68458">
        <ele>696</ele>
        <time>2019-04-17T14:02:05Z</time>
      </trkpt>
      <trkpt lat="45.92303" lon="6.6847">
        <ele>696</ele>
        <time>2019-04-17T14:03:05Z</time>
      </trkpt>
      <trkpt lat="45.92304" lon="6.6851">
        <ele>694</ele>
        <time>2019-04-17T14:04:05Z</time>
      </trkpt>
      <trkpt lat="45.92309" lon="6.68527">
        <ele>694</ele>
        <time>2019-04-17T14:05:05Z</time>
      </trkpt>
      <trkpt lat="45.92355" lon="6.68606">
        <ele>697</ele>
        <time>2019-04-17T14:06:05Z</time>
      </trkpt>
      <trkpt lat="45.92355" lon="6.68632">
        <ele>696</ele>
        <time>2019-04-17T14:07:05Z</time>
      </trkpt>
      <trkpt lat="45.9235" lon="6.68747">
        <ele>692</ele>
        <time>2019-04-17T14:08:05Z</time>
      </trkpt>
      <trkpt lat="45.92342" lon="6.68811">
        <ele>688</ele>
        <time>2019-04-17T14:09:05Z</time>
      </trkpt>
      <trkpt lat="45.92343" lon="6.68833">
        <ele>688</ele>
        <time>2019-04-17T14:10:05Z</time>
      </trkpt>
      <trkpt lat="45.92351" lon="6.68887">
        <ele>688</ele>
        <time>2019-04-17T14:11:05Z</time>
      </trkpt>
      <trkpt lat="45.92368" lon="6.6894">
        <ele>692</ele>
        <time>2019-04-17T14:12:05Z</time>
      </trkpt>
      <trkpt lat="45.92396" lon="6.69066">
        <ele>697</ele>
        <time>2019-04-17T14:13:05Z</time>
      </trkpt>
      <trkpt lat="45.92397" lon="6.691">
        <ele>695</ele>
        <time>2019-04-17T14:14:05Z</time>
      </trkpt>
      <trkpt lat="45.92388" lon="6.69174">
        <ele>687</ele>
        <time>2019-04-17T14:15:05Z</time>
      </trkpt>
      <trkpt lat="45.92388" lon="6.69202">
        <ele>685</ele>
        <time>2019-04-17T14:16:05Z</time>
      </trkpt>
      <trkpt lat="45.92409" lon="6.69329">
        <ele>687</ele>
        <time>2019-04-17T14:17:05Z</time>
      </trkpt>
      <trkpt lat="45.92414" lon="6.69353">
        <ele>687</ele>
        <time>2019-04-17T14:18:05Z</time>
      </trkpt>
      <trkpt lat="45.9242" lon="6.69367">
        <ele>687</ele>
        <time>2019-04-17T14:19:05Z</time>
      </trkpt>
      <trkpt lat="45.92434" lon="6.69392">
        <ele>691</ele>
        <time>2019-04-17T14:20:05Z</time>
      </trkpt>
      <trkpt lat="45.92438" lon="6.69403">
        <ele>692</ele>
        <time>2019-04-17T14:21:05Z</time>
      </trkpt>
      <trkpt lat="45.92442" lon="6.69429">
        <ele>691</ele>
        <time>2019-04-17T14:22:05Z</time>
      </trkpt>
      <trkpt lat="45.92441" lon="6.69448">
        <ele>690</ele>
        <time>2019-04-17T14:23:05Z</time>
      </trkpt>
      <trkpt lat="45.92434" lon="6.69487">
        <ele>684</ele>
        <time>2019-04-17T14:24:05Z</time>
      </trkpt>
      <trkpt lat="45.92433" lon="6.69503">
        <ele>683</ele>
        <time>2019-04-17T14:25:05Z</time>
      </trkpt>
      <trkpt lat="45.92432" lon="6.69525">
        <ele>682</ele>
        <time>2019-04-17T14:26:05Z</time>
      </trkpt>
      <trkpt lat="45.92439" lon="6.69567">
        <ele>683</ele>
        <time>2019-04-17T14:27:05Z</time>
      </trkpt>
      <trkpt lat="45.92439" lon="6.69588">
        <ele>682</ele>
        <time>2019-04-17T14:28:05Z</time>
      </trkpt>
      <trkpt lat="45.92436" lon="6.69611">
        <ele>681</ele>
        <time>2019-04-17T14:29:05Z</time>
      </trkpt>
      <trkpt lat="45.92428" lon="6.69648">
        <ele>679</ele>
        <time>2019-04-17T14:30:05Z</time>
      </trkpt>
      <trkpt lat="45.92415" lon="6.69693">
        <ele>677</ele>
        <time>2019-04-17T14:31:05Z</time>
      </trkpt>
      <trkpt lat="45.92408" lon="6.69711">
        <ele>676</ele>
        <time>2019-04-17T14:32:05Z</time>
      </trkpt>
      <trkpt lat="45.92402" lon="6.69718">
        <ele>675</ele>
        <time>2019-04-17T14:33:05Z</time>
      </trkpt>
      <trkpt lat="45.924" lon="6.6977">
        <ele>676</ele>
        <time>2019-04-17T14:34:05Z</time>
      </trkpt>
      <trkpt lat="45.92402" lon="6.69795">
        <ele>677</ele>
        <time>2019-04-17T14:35:05Z</time>
      </trkpt>
      <trkpt lat="45.92413" lon="6.69843">
        <ele>680</ele>
        <time>2019-04-17T14:36:05Z</time>
      </trkpt>
      <trkpt lat="45.92427" lon="6.69882">
        <ele>682</ele>
        <time>2019-04-17T14:37:05Z</time>
      </trkpt>
      <trkpt lat="45.92434" lon="6.69892">
        <ele>683</ele>
        <time>2019-04-17T14:38:05Z</time>
      </trkpt>
      <trkpt lat="45.92444" lon="6.69904">
        <ele>685</ele>
        <time>2019-04-17T14:39:05Z</time>
      </trkpt>
      <trkpt lat="45.92492" lon="6.69945">
        <ele>694</ele>
        <time>2019-04-17T14:40:05Z</time>
      </trkpt>
      <trkpt lat="45.925" lon="6.69957">
        <ele>696</ele>
        <time>2019-04-17T14:41:05Z</time>
      </trkpt>
      <trkpt lat="45.92505" lon="6.69971">
        <ele>697</ele>
        <time>2019-04-17T14:42:05Z</time>
      </trkpt>
      <trkpt lat="45.92507" lon="6.69986">
        <ele>697</ele>
        <time>2019-04-17T14:43:05Z</time>
      </trkpt>
      <trkpt lat="45.92505" lon="6.7003">
        <ele>695</ele>
        <time>2019-04-17T14:44:05Z</time>
      </trkpt>
      <trkpt lat="45.92506" lon="6.7007">
        <ele>695</ele>
        <time>2019-04-17T14:45:05Z</time>
      </trkpt>
      <trkpt lat="45.92511" lon="6.70109">
        <ele>697</ele>
        <time>2019-04-17T14:46:05Z</time>
      </trkpt>
      <trkpt lat="45.92517" lon="6.70136">
        <ele>699</ele>
        <time>2019-04-17T14:47:05Z</time>
      </trkpt>
      <trkpt lat="45.92535" lon="6.70197">
        <ele>702</ele>
        <time>2019-04-17T14:48:05Z</time>
      </trkpt>
      <trkpt lat="45.92542" lon="6.70233">
        <ele>701</ele>
        <time>2019-04-17T14:49:05Z</time>
      </trkpt>
      <trkpt lat="45.92555" lon="6.70284">
        <ele>701</ele>
        <time>2019-04-17T14:50:05Z</time>
      </trkpt>
      <trkpt lat="45.92567" lon="6.70348">
        <ele>700</ele>
        <time>2019-04-17T14:51:05Z</time>
      </trkpt>
      <trkpt lat="45.92572" lon="6.70365">
        <ele>701</ele>
        <time>2019-04-17T14:52:05Z</time>
      </trkpt>
      <trkpt lat="45.92614" lon="6.70423">
        <ele>708</ele>
        <time>2019-04-17T14:53:05Z</time>
      </trkpt>
      <trkpt lat="45.92619" lon="6.70441">
        <ele>708</ele>
        <time>2019-04-17T14:54:05Z</time>
      </trkpt>
      <trkpt lat="45.92622" lon="6.70468">
        <ele>706</ele>
        <time>2019-04-17T14:55:05Z</time>
      </trkpt>
      <trkpt lat="45.9263" lon="6.70496">
        <ele>705</ele>
        <time>2019-04-17T14:56:05Z</time>
      </trkpt>
      <trkpt lat="45.92641" lon="6.70523">
        <ele>705</ele>
        <time>2019-04-17T14:57:05Z</time>
      </trkpt>
      <trkpt lat="45.92653" lon="6.70545">
        <ele>707</ele>
        <time>2019-04-17T14:58:05Z</time>
      </trkpt>
      <trkpt lat="45.9268" lon="6.70571">
        <ele>711</ele>
        <time>2019-04-17T14:59:05Z</time>
      </trkpt>
      <trkpt lat="45.92691" lon="6.70585">
        <ele>713</ele>
        <time>2019-04-17T15:00:05Z</time>
      </trkpt>
      <trkpt lat="45.92706" lon="6.70619">
        <ele>716</ele>
        <time>2019-04-17T15:01:05Z</time>
      </trkpt>
      <trkpt lat="45.92728" lon="6.70674">
        <ele>721</ele>
        <time>2019-04-17T15:02:05Z</time>
      </trkpt>
      <trkpt lat="45.92747" lon="6.70763">
        <ele>720</ele>
        <time>2019-04-17T15:03:05Z</time>
      </trkpt>
      <trkpt lat="45.92754" lon="6.70792">
        <ele>719</ele>
        <time>2019-04-17T15:04:05Z</time>
      </trkpt>
      <trkpt lat="45.92764" lon="6.7082">
        <ele>719</ele>
        <time>2019-04-17T15:05:05Z</time>
      </trkpt>
      <trkpt lat="45.92805" lon="6.70905">
        <ele>730</ele>
        <time>2019-04-17T15:06:05Z</time>
      </trkpt>
      <trkpt lat="45.92832" lon="6.7099">
        <ele>735</ele>
        <time>2019-04-17T15:07:05Z</time>
      </trkpt>
      <trkpt lat="45.92862" lon="6.71088">
        <ele>736</ele>
        <time>2019-04-17T15:08:05Z</time>
      </trkpt>
      <trkpt lat="45.92888" lon="6.71156">
        <ele>738</ele>
        <time>2019-04-17T15:09:05Z</time>
      </trkpt>
      <trkpt lat="45.92911" lon="6.71188">
        <ele>740</ele>
        <time>2019-04-17T15:10:05Z</time>
      </trkpt>
      <trkpt lat="45.92943" lon="6.71253">
        <ele>737</ele>
        <time>2019-04-17T15:11:05Z</time>
      </trkpt>
      <trkpt lat="45.92988" lon="6.71288">
        <ele>743</ele>
        <time>2019-04-17T15:12:05Z</time>
      </trkpt>
      <trkpt lat="45.93025" lon="6.71328">
        <ele>741</ele>
        <time>2019-04-17T15:13:05Z</time>
      </trkpt>
      <trkpt lat="45.93072" lon="6.71357">
        <ele>745</ele>
        <time>2019-04-17T15:14:05Z</time>
      </trkpt>
      <trkpt lat="45.93081" lon="6.71365">
        <ele>746</ele>
        <time>2019-04-17T15:15:05Z</time>
      </trkpt>
      <trkpt lat="45.93096" lon="6.71383">
        <ele>747</ele>
        <time>2019-04-17T15:16:05Z</time>
      </trkpt>
      <trkpt lat="45.93141" lon="6.71451">
        <ele>750</ele>
        <time>2019-04-17T15:17:05Z</time>
      </trkpt>
      <trkpt lat="45.93151" lon="6.71474">
        <ele>750</ele>
        <time>2019-04-17T15:18:05Z</time>
      </trkpt>
      <trkpt lat="45.93158" lon="6.71497">
        <ele>749</ele>
        <time>2019-04-17T15:19:05Z</time>
      </trkpt>
      <trkpt lat="45.93159" lon="6.71521">
        <ele>750</ele>
        <time>2019-04-17T15:20:05Z</time>
      </trkpt>
      <trkpt lat="45.93156" lon="6.71585">
        <ele>752</ele>
        <time>2019-04-17T15:21:05Z</time>
      </trkpt>
      <trkpt lat="45.93156" lon="6.71621">
        <ele>749</ele>
        <time>2019-04-17T15:22:05Z</time>
      </trkpt>
      <trkpt lat="45.93161" lon="6.71637">
        <ele>749</ele>
        <time>2019-04-17T15:23:05Z</time>
      </trkpt>
      <trkpt lat="45.93169" lon="6.71647">
        <ele>750</ele>
        <time>2019-04-17T15:24:05Z</time>
      </trkpt>
      <trkpt lat="45.9318" lon="6.71656">
        <ele>750</ele>
        <time>2019-04-17T15:25:05Z</time>
      </trkpt>
      <trkpt lat="45.93243" lon="6.71701">
        <ele>754</ele>
        <time>2019-04-17T15:26:05Z</time>
      </trkpt>
      <trkpt lat="45.93249" lon="6.71709">
        <ele>754</ele>
        <time>2019-04-17T15:27:05Z</time>
      </trkpt>
      <trkpt lat="45.93252" lon="6.71716">
        <ele>754</ele>
        <time>2019-04-17T15:28:05Z</time>
      </trkpt>
      <trkpt lat="45.9326" lon="6.71757">
        <ele>753</ele>
        <time>2019-04-17T15:29:05Z</time>
      </trkpt>
      <trkpt lat="45.93307" lon="6.71897">
        <ele>740</ele>
        <time>2019-04-17T15:30:05Z</time>
      </trkpt>
      <trkpt lat="45.93314" lon="6.71909">
        <ele>741</ele>
        <time>2019-04-17T15:31:05Z</time>
      </trkpt>
      <trkpt lat="45.93351" lon="6.71932">
        <ele>756</ele>
        <time>2019-04-17T15:32:05Z</time>
      </trkpt>
      <trkpt lat="45.93357" lon="6.71941">
        <ele>756</ele>
        <time>2019-04-17T15:33:05Z</time>
      </trkpt>
      <trkpt lat="45.9337" lon="6.71974">
        <ele>752</ele>
        <time>2019-04-17T15:34:05Z</time>
      </trkpt>
      <trkpt lat="45.93391" lon="6.72015">
        <ele>753</ele>
        <time>2019-04-17T15:35:05Z</time>
      </trkpt>
      <trkpt lat="45.93411" lon="6.72034">
        <ele>760</ele>
        <time>2019-04-17T15:36:05Z</time>
      </trkpt>
      <trkpt lat="45.93431" lon="6.72045">
        <ele>766</ele>
        <time>2019-04-17T15:37:05Z</time>
      </trkpt>
      <trkpt lat="45.93436" lon="6.72055">
        <ele>766</ele>
        <time>2019-04-17T15:38:05Z</time>
      </trkpt>
      <trkpt lat="45.93441" lon="6.72071">
        <ele>765</ele>
        <time>2019-04-17T15:39:05Z</time>
      </trkpt>
      <trkpt lat="45.93443" lon="6.72088">
        <ele>763</ele>
        <time>2019-04-17T15:40:05Z</time>
      </trkpt>
      <trkpt lat="45.9344" lon="6.72151">
        <ele>755</ele>
        <time>2019-04-17T15:41:05Z</time>
      </trkpt>
      <trkpt lat="45.9344" lon="6.72182">
        <ele>753</ele>
        <time>2019-04-17T15:42:05Z</time>
      </trkpt>
      <trkpt lat="45.93445" lon="6.72197">
        <ele>755</ele>
        <time>2019-04-17T15:43:05Z</time>
      </trkpt>
      <trkpt lat="45.93453" lon="6.72214">
        <ele>757</ele>
        <time>2019-04-17T15:44:05Z</time>
      </trkpt>
      <trkpt lat="45.93485" lon="6.72267">
        <ele>767</ele>
        <time>2019-04-17T15:45:05Z</time>
      </trkpt>
      <trkpt lat="45.93488" lon="6.72282">
        <ele>766</ele>
        <time>2019-04-17T15:46:05Z</time>
      </trkpt>
      <trkpt lat="45.93493" lon="6.72332">
        <ele>764</ele>
        <time>2019-04-17T15:47:05Z</time>
      </trkpt>
      <trkpt lat="45.935" lon="6.72377">
        <ele>768</ele>
        <time>2019-04-17T15:48:05Z</time>
      </trkpt>
      <trkpt lat="45.93499" lon="6.72392">
        <ele>768</ele>
        <time>2019-04-17T15:49:05Z</time>
      </trkpt>
      <trkpt lat="45.93489" lon="6.72432">
        <ele>766</ele>
        <time>2019-04-17T15:50:05Z</time>
      </trkpt>
      <trkpt lat="45.9348" lon="6.72522">
        <ele>767</ele>
        <time>2019-04-17T15:51:05Z</time>
      </trkpt>
      <trkpt lat="45.9348" lon="6.72545">
        <ele>768</ele>
        <time>2019-04-17T15:52:05Z</time>
      </trkpt>
      <trkpt lat="45.9349" lon="6.72614">
        <ele>776</ele>
        <time>2019-04-17T15:53:05Z</time>
      </trkpt>
      <trkpt lat="45.93488" lon="6.72627">
        <ele>776</ele>
        <time>2019-04-17T15:54:05Z</time>
      </trkpt>
      <trkpt lat="45.93483" lon="6.72644">
        <ele>775</ele>
        <time>2019-04-17T15:55:05Z</time>
      </trkpt>
      <trkpt lat="45.93475" lon="6.72659">
        <ele>774</ele>
        <time>2019-04-17T15:56:05Z</time>
      </trkpt>
      <trkpt lat="45.93451" lon="6.72699">
        <ele>774</ele>
        <time>2019-04-17T15:57:05Z</time>
      </trkpt>
      <trkpt lat="45.93426" lon="6.72745">
        <ele>777</ele>
        <time>2019-04-17T15:58:05Z</time>
      </trkpt>
      <trkpt lat="45.93407" lon="6.72774">
        <ele>773</ele>
        <time>2019-04-17T15:59:05Z</time>
      </trkpt>
      <trkpt lat="45.93402" lon="6.72798">
        <ele>773</ele>
        <time>2019-04-17T16:00:05Z</time>
      </trkpt>
      <trkpt lat="45.93403" lon="6.72809">
        <ele>774</ele>
        <time>2019-04-17T16:01:05Z</time>
      </trkpt>
      <trkpt lat="45.93408" lon="6.72827">
        <ele>776</ele>
        <time>2019-04-17T16:02:05Z</time>
      </trkpt>
      <trkpt lat="45.93415" lon="6.7284">
        <ele>778</ele>
        <time>2019-04-17T16:03:05Z</time>
      </trkpt>
      <trkpt lat="45.93426" lon="6.72848">
        <ele>779</ele>
        <time>2019-04-17T16:04:05Z</time>
      </trkpt>
      <trkpt lat="45.93471" lon="6.72864">
        <ele>786</ele>
        <time>2019-04-17T16:05:05Z</time>
      </trkpt>
      <trkpt lat="45.93479" lon="6.72871">
        <ele>787</ele>
        <time>2019-04-17T16:06:05Z</time>
      </trkpt>
      <trkpt lat="45.93486" lon="6.72882">
        <ele>787</ele>
        <time>2019-04-17T16:07:05Z</time>
      </trkpt>
      <trkpt lat="45.93492" lon="6.72902">
        <ele>786</ele>
        <time>2019-04-17T16:08:05Z</time>
      </trkpt>
      <trkpt lat="45.93488" lon="6.72944">
        <ele>782</ele>
        <time>2019-04-17T16:09:05Z</time>
      </trkpt>
      <trkpt lat="45.93488" lon="6.72963">
        <ele>781</ele>
        <time>2019-04-17T16:10:05Z</time>
      </trkpt>
      <trkpt lat="45.93491" lon="6.72973">
        <ele>781</ele>
        <time>2019-04-17T16:11:05Z</time>
      </trkpt>
      <trkpt lat="45.93496" lon="6.72982">
        <ele>782</ele>
        <time>2019-04-17T16:12:05Z</time>
      </trkpt>
      <trkpt lat="45.93505" lon="6.72992">
        <ele>784</ele>
        <time>2019-04-17T16:13:05Z</time>
      </trkpt>
      <trkpt lat="45.93528" lon="6.7301">
        <ele>787</ele>
        <time>2019-04-17T16:14:05Z</time>
      </trkpt>
      <trkpt lat="45.93553" lon="6.73027">
        <ele>790</ele>
        <time>2019-04-17T16:15:05Z</time>
      </trkpt>
      <trkpt lat="45.93574" lon="6.73031">
        <ele>794</ele>
        <time>2019-04-17T16:16:05Z</time>
      </trkpt>
      <trkpt lat="45.936" lon="6.73032">
        <ele>799</ele>
        <time>2019-04-17T16:17:05Z</time>
      </trkpt>
      <trkpt lat="45.93652" lon="6.73023">
        <ele>812</ele>
        <time>2019-04-17T16:18:05Z</time>
      </trkpt>
      <trkpt lat="45.93669" lon="6.73028">
        <ele>815</ele>
        <time>2019-04-17T16:19:05Z</time>
      </trkpt>
      <trkpt lat="45.93678" lon="6.73037">
        <ele>814</ele>
        <time>2019-04-17T16:20:05Z</time>
      </trkpt>
      <trkpt lat="45.93685" lon="6.73049">
        <ele>813</ele>
        <time>2019-04-17T16:21:05Z</time>
      </trkpt>
      <trkpt lat="45.93697" lon="6.73099">
        <ele>804</ele>
        <time>2019-04-17T16:22:05Z</time>
      </trkpt>
      <trkpt lat="45.93709" lon="6.73125">
        <ele>803</ele>
        <time>2019-04-17T16:23:05Z</time>
      </trkpt>
      <trkpt lat="45.93732" lon="6.73168">
        <ele>801</ele>
        <time>2019-04-17T16:24:05Z</time>
      </trkpt>
      <trkpt lat="45.93765" lon="6.73224">
        <ele>801</ele>
        <time>2019-04-17T16:25:05Z</time>
      </trkpt>
      <trkpt lat="45.93816" lon="6.73305">
        <ele>807</ele>
        <time>2019-04-17T16:26:05Z</time>
      </trkpt>
      <trkpt lat="45.93825" lon="6.73321">
        <ele>810</ele>
        <time>2019-04-17T16:27:05Z</time>
      </trkpt>
      <trkpt lat="45.93829" lon="6.73345">
        <ele>814</ele>
        <time>2019-04-17T16:28:05Z</time>
      </trkpt>
      <trkpt lat="45.93828" lon="6.7336">
        <ele>817</ele>
        <time>2019-04-17T16:29:05Z</time>
      </trkpt>
      <trkpt lat="45.93823" lon="6.73375">
        <ele>820</ele>
        <time>2019-04-17T16:30:05Z</time>
      </trkpt>
      <trkpt lat="45.93808" lon="6.73405">
        <ele>823</ele>
        <time>2019-04-17T16:31:05Z</time>
      </trkpt>
      <trkpt lat="45.93805" lon="6.73423">
        <ele>826</ele>
        <time>2019-04-17T16:32:05Z</time>
      </trkpt>
      <trkpt lat="45.93806" lon="6.73449">
        <ele>831</ele>
        <time>2019-04-17T16:33:05Z</time>
      </trkpt>
      <trkpt lat="45.93803" lon="6.73467">
        <ele>833</ele>
        <time>2019-04-17T16:34:05Z</time>
      </trkpt>
      <trkpt lat="45.93788" lon="6.7349">
        <ele>833</ele>
        <time>2019-04-17T16:35:05Z</time>
      </trkpt>
      <trkpt lat="45.93754" lon="6.73534">
        <ele>831</ele>
        <time>2019-04-17T16:36:05Z</time>
      </trkpt>
      <trkpt lat="45.93746" lon="6.73566">
        <ele>834</ele>
        <time>2019-04-17T16:37:05Z</time>
      </trkpt>
      <trkpt lat="45.9375" lon="6.73633">
        <ele>840</ele>
        <time>2019-04-17T16:38:05Z</time>
      </trkpt>
      <trkpt lat="45.93771" lon="6.73707">
        <ele>843</ele>
        <time>2019-04-17T16:39:05Z</time>
      </trkpt>
      <trkpt lat="45.93784" lon="6.73765">
        <ele>843</ele>
        <time>2019-04-17T16:40:05Z</time>
      </trkpt>
      <trkpt lat="45.93795" lon="6.73801">
        <ele>844</ele>
        <time>2019-04-17T16:41:05Z</time>
      </trkpt>
      <trkpt lat="45.93802" lon="6.73836">
        <ele>843</ele>
        <time>2019-04-17T16:42:05Z</time>
      </trkpt>
      <trkpt lat="45.93821" lon="6.73903">
        <ele>843</ele>
        <time>2019-04-17T16:43:05Z</time>
      </trkpt>
      <trkpt lat="45.93837" lon="6.73928">
        <ele>847</ele>
        <time>2019-04-17T16:44:05Z</time>
      </trkpt>
      <trkpt lat="45.93876" lon="6.73985">
        <ele>858</ele>
        <time>2019-04-17T16:45:05Z</time>
      </trkpt>
      <trkpt lat="45.93885" lon="6.74004">
        <ele>860</ele>
        <time>2019-04-17T16:46:05Z</time>
      </trkpt>
      <trkpt lat="45.93908" lon="6.74088">
        <ele>862</ele>
        <time>2019-04-17T16:47:05Z</time>
      </trkpt>
      <trkpt lat="45.9391" lon="6.74102">
        <ele>863</ele>
        <time>2019-04-17T16:48:05Z</time>
      </trkpt>
      <trkpt lat="45.93907" lon="6.74137">
        <ele>865</ele>
        <time>2019-04-17T16:49:05Z</time>
      </trkpt>
      <trkpt lat="45.93903" lon="6.7415">
        <ele>865</ele>
        <time>2019-04-17T16:50:05Z</time>
      </trkpt>
      <trkpt lat="45.93889" lon="6.74172">
        <ele>865</ele>
        <time>2019-04-17T16:51:05Z</time>
      </trkpt>
      <trkpt lat="45.93845" lon="6.74216">
        <ele>865</ele>
        <time>2019-04-17T16:52:05Z</time>
      </trkpt>
      <trkpt lat="45.93795" lon="6.74276">
        <ele>867</ele>
        <time>2019-04-17T16:53:05Z</time>
      </trkpt>
      <trkpt lat="45.93714" lon="6.7433">
        <ele>860</ele>
        <time>2019-04-17T16:54:05Z</time>
      </trkpt>
      <trkpt lat="45.93688" lon="6.74351">
        <ele>859</ele>
        <time>2019-04-17T16:55:05Z</time>
      </trkpt>
      <trkpt lat="45.93674" lon="6.74375">
        <ele>860</ele>
        <time>2019-04-17T16:56:05Z</time>
      </trkpt>
      <trkpt lat="45.93662" lon="6.74402">
        <ele>863</ele>
        <time>2019-04-17T16:57:05Z</time>
      </trkpt>
      <trkpt lat="45.93639" lon="6.74496">
        <ele>865</ele>
        <time>2019-04-17T16:58:05Z</time>
      </trkpt>
      <trkpt lat="45.93635" lon="6.7452">
        <ele>867</ele>
        <time>2019-04-17T16:59:05Z</time>
      </trkpt>
      <trkpt lat="45.93635" lon="6.74595">
        <ele>874</ele>
        <time>2019-04-17T17:00:05Z</time>
      </trkpt>
      <trkpt lat="45.93631" lon="6.74612">
        <ele>876</ele>
        <time>2019-04-17T17:01:05Z</time>
      </trkpt>
      <trkpt lat="45.93622" lon="6.74625">
        <ele>875</ele>
        <time>2019-04-17T17:02:05Z</time>
      </trkpt>
      <trkpt lat="45.93584" lon="6.74631">
        <ele>866</ele>
        <time>2019-04-17T17:03:05Z</time>
      </trkpt>
      <trkpt lat="45.93555" lon="6.74648">
        <ele>861</ele>
        <time>2019-04-17T17:04:05Z</time>
      </trkpt>
      <trkpt lat="45.93541" lon="6.74663">
        <ele>860</ele>
        <time>2019-04-17T17:05:05Z</time>
      </trkpt>
      <trkpt lat="45.93516" lon="6.74731">
        <ele>858</ele>
        <time>2019-04-17T17:06:05Z</time>
      </trkpt>
      <trkpt lat="45.93511" lon="6.74746">
        <ele>857</ele>
        <time>2019-04-17T17:07:05Z</time>
      </trkpt>
      <trkpt lat="45.93509" lon="6.74794">
        <ele>862</ele>
        <time>2019-04-17T17:08:05Z</time>
      </trkpt>
      <trkpt lat="45.93505" lon="6.74805">
        <ele>862</ele>
        <time>2019-04-17T17:09:05Z</time>
      </trkpt>
      <trkpt lat="45.93497" lon="6.74816">
        <ele>861</ele>
        <time>2019-04-17T17:10:05Z</time>
      </trkpt>
      <trkpt lat="45.93467" lon="6.74834">
        <ele>855</ele>
        <time>2019-04-17T17:11:05Z</time>
      </trkpt>
      <trkpt lat="45.93455" lon="6.74847">
        <ele>854</ele>
        <time>2019-04-17T17:12:05Z</time>
      </trkpt>
      <trkpt lat="45.9344" lon="6.74892">
        <ele>856</ele>
        <time>2019-04-17T17:13:05Z</time>
      </trkpt>
      <trkpt lat="45.93432" lon="6.74907">
        <ele>857</ele>
        <time>2019-04-17T17:14:05Z</time>
      </trkpt>
      <trkpt lat="45.93421" lon="6.7492">
        <ele>856</ele>
        <time>2019-04-17T17:15:05Z</time>
      </trkpt>
      <trkpt lat="45.93404" lon="6.74928">
        <ele>853</ele>
        <time>2019-04-17T17:16:05Z</time>
      </trkpt>
      <trkpt lat="45.93373" lon="6.74934">
        <ele>848</ele>
        <time>2019-04-17T17:17:05Z</time>
      </trkpt>
      <trkpt lat="45.93352" lon="6.74948">
        <ele>845</ele>
        <time>2019-04-17T17:18:05Z</time>
      </trkpt>
      <trkpt lat="45.9333" lon="6.74985">
        <ele>846</ele>
        <time>2019-04-17T17:19:05Z</time>
      </trkpt>
      <trkpt lat="45.93311" lon="6.75004">
        <ele>846</ele>
        <time>2019-04-17T17:20:05Z</time>
      </trkpt>
      <trkpt lat="45.93285" lon="6.75026">
        <ele>846</ele>
        <time>2019-04-17T17:21:05Z</time>
      </trkpt>
      <trkpt lat="45.93259" lon="6.75057">
        <ele>845</ele>
        <time>2019-04-17T17:22:05Z</time>
      </trkpt>
      <trkpt lat="45.93249" lon="6.75074">
        <ele>845</ele>
        <time>2019-04-17T17:23:05Z</time>
      </trkpt>
      <trkpt lat="45.93245" lon="6.75085">
        <ele>845</ele>
        <time>2019-04-17T17:24:05Z</time>
      </trkpt>
      <trkpt lat="45.93238" lon="6.75125">
        <ele>843</ele>
        <time>2019-04-17T17:25:05Z</time>
      </trkpt>
      <trkpt lat="45.93231" lon="6.75145">
        <ele>842</ele>
        <time>2019-04-17T17:26:05Z</time>
      </trkpt>
      <trkpt lat="45.93221" lon="6.75165">
        <ele>839</ele>
        <time>2019-04-17T17:27:05Z</time>
      </trkpt>
      <trkpt lat="45.93209" lon="6.75186">
        <ele>836</ele>
        <time>2019-04-17T17:28:05Z</time>
      </trkpt>
      <trkpt lat="45.93203" lon="6.75204">
        <ele>835</ele>
        <time>2019-04-17T17:29:05Z</time>
      </trkpt>
      <trkpt lat="45.93199" lon="6.75224">
        <ele>834</ele>
        <time>2019-04-17T17:30:05Z</time>
      </trkpt>
      <trkpt lat="45.932" lon="6.75282">
        <ele>835</ele>
        <time>2019-04-17T17:31:05Z</time>
      </trkpt>
      <trkpt lat="45.93196" lon="6.75316">
        <ele>833</ele>
        <time>2019-04-17T17:32:05Z</time>
      </trkpt>
      <trkpt lat="45.93186" lon="6.75363">
        <ele>832</ele>
        <time>2019-04-17T17:33:05Z</time>
      </trkpt>
      <trkpt lat="45.93179" lon="6.75417">
        <ele>832</ele>
        <time>2019-04-17T17:34:05Z</time>
      </trkpt>
      <trkpt lat="45.93182" lon="6.75471">
        <ele>835</ele>
        <time>2019-04-17T17:35:05Z</time>
      </trkpt>
      <trkpt lat="45.93179" lon="6.75513">
        <ele>834</ele>
        <time>2019-04-17T17:36:05Z</time>
      </trkpt>
      <trkpt lat="45.93163" lon="6.75562">
        <ele>830</ele>
        <time>2019-04-17T17:37:05Z</time>
      </trkpt>
      <trkpt lat="45.93155" lon="6.7558">
        <ele>829</ele>
        <time>2019-04-17T17:38:05Z</time>
      </trkpt>
      <trkpt lat="45.93122" lon="6.75674">
        <ele>822</ele>
        <time>2019-04-17T17:39:05Z</time>
      </trkpt>
      <trkpt lat="45.93116" lon="6.75704">
        <ele>821</ele>
        <time>2019-04-17T17:40:05Z</time>
      </trkpt>
      <trkpt lat="45.93115" lon="6.75737">
        <ele>820</ele>
        <time>2019-04-17T17:41:05Z</time>
      </trkpt>
      <trkpt lat="45.93119" lon="6.75758">
        <ele>819</ele>
        <time>2019-04-17T17:42:05Z</time>
      </trkpt>
      <trkpt lat="45.9318" lon="6.75951">
        <ele>819</ele>
        <time>2019-04-17T17:43:05Z</time>
      </trkpt>
      <trkpt lat="45.93193" lon="6.75995">
        <ele>819</ele>
        <time>2019-04-17T17:44:05Z</time>
      </trkpt>
      <trkpt lat="45.93196" lon="6.76065">
        <ele>818</ele>
        <time>2019-04-17T17:45:05Z</time>
      </trkpt>
      <trkpt lat="45.93163" lon="6.7668">
        <ele>820</ele>
        <time>2019-04-17T17:46:05Z</time>
      </trkpt>
      <trkpt lat="45.93152" lon="6.76734">
        <ele>822</ele>
        <time>2019-04-17T17:47:05Z</time>
      </trkpt>
      <trkpt lat="45.93136" lon="6.76786">
        <ele>821</ele>
        <time>2019-04-17T17:48:05Z</time>
      </trkpt>
      <trkpt lat="45.93113" lon="6.7683">
        <ele>819</ele>
        <time>2019-04-17T17:49:05Z</time>
      </trkpt>
      <trkpt lat="45.93066" lon="6.76952">
        <ele>823</ele>
        <time>2019-04-17T17:50:05Z</time>
      </trkpt>
      <trkpt lat="45.93051" lon="6.76978">
        <ele>822</ele>
        <time>2019-04-17T17:51:05Z</time>
      </trkpt>
      <trkpt lat="45.93026" lon="6.77007">
        <ele>822</ele>
        <time>2019-04-17T17:52:05Z</time>
      </trkpt>
      <trkpt lat="45.92993" lon="6.77018">
        <ele>821</ele>
        <time>2019-04-17T17:53:05Z</time>
      </trkpt>
      <trkpt lat="45.92587" lon="6.77076">
        <ele>818</ele>
        <time>2019-04-17T17:54:05Z</time>
      </trkpt>
      <trkpt lat="45.92566" lon="6.77073">
        <ele>818</ele>
        <time>2019-04-17T17:55:05Z</time>
      </trkpt>
      <trkpt lat="45.92551" lon="6.77073">
        <ele>818</ele>
        <time>2019-04-17T17:56:05Z</time>
      </trkpt>
      <trkpt lat="45.9255" lon="6.77067">
        <ele>818</ele>
        <time>2019-04-17T17:57:05Z</time>
      </trkpt>
      <trkpt lat="45.92544" lon="6.7706">
        <ele>817</ele>
        <time>2019-04-17T17:58:05Z</time>
      </trkpt>
      <trkpt lat="45.9254" lon="6.7706">
        <ele>817</ele>
        <time>2019-04-17T17:59:05Z</time>
      </trkpt>
      <trkpt lat="45.92535" lon="6.77062">
        <ele>818</ele>
        <time>2019-04-17T18:00:05Z</time>
      </trkpt>
      <trkpt lat="45.92531" lon="6.77071">
        <ele>818</ele>
        <time>2019-04-17T18:01:05Z</time>
      </trkpt>
      <trkpt lat="45.92531" lon="6.77076">
        <ele>819</ele>
        <time>2019-04-17T18:02:05Z</time>
      </trkpt>
      <trkpt lat="45.92483" lon="6.77093">
        <ele>825</ele>
        <time>2019-04-17T18:03:05Z</time>
      </trkpt>
      <trkpt lat="45.92142" lon="6.77141">
        <ele>846</ele>
        <time>2019-04-17T18:04:05Z</time>
      </trkpt>
      <trkpt lat="45.92088" lon="6.77131">
        <ele>837</ele>
        <time>2019-04-17T18:05:05Z</time>
      </trkpt>
      <trkpt lat="45.92065" lon="6.7713">
        <ele>836</ele>
        <time>2019-04-17T18:06:05Z</time>
      </trkpt>
      <trkpt lat="45.92034" lon="6.77134">
        <ele>835</ele>
        <time>2019-04-17T18:07:05Z</time>
      </trkpt>
      <trkpt lat="45.91986" lon="6.77151">
        <ele>836</ele>
        <time>2019-04-17T18:08:05Z</time>
      </trkpt>
      <trkpt lat="45.91961" lon="6.77162">
        <ele>835</ele>
        <time>2019-04-17T18:09:05Z</time>
      </trkpt>
      <trkpt lat="45.91921" lon="6.77187">
        <ele>843</ele>
        <time>2019-04-17T18:10:05Z</time>
      </trkpt>
      <trkpt lat="45.91903" lon="6.77194">
        <ele>845</ele>
        <time>2019-04-17T18:11:05Z</time>
      </trkpt>
      <trkpt lat="45.91862" lon="6.77204">
        <ele>845</ele>
        <time>2019-04-17T18:12:05Z</time>
      </trkpt>
      <trkpt lat="45.91765" lon="6.77243">
        <ele>844</ele>
        <time>2019-04-17T18:13:05Z</time>
      </trkpt>
      <trkpt lat="45.91719" lon="6.77268">
        <ele>850</ele>
        <time>2019-04-17T18:14:05Z</time>
      </trkpt>
      <trkpt lat="45.9168" lon="6.77284">
        <ele>856</ele>
        <time>2019-04-17T18:15:05Z</time>
      </trkpt>
      <trkpt lat="45.91603" lon="6.77287">
        <ele>856</ele>
        <time>2019-04-17T18:16:05Z</time>
      </trkpt>
      <trkpt lat="45.91588" lon="6.77282">
        <ele>854</ele>
        <time>2019-04-17T18:17:05Z</time>
      </trkpt>
      <trkpt lat="45.91579" lon="6.77274">
        <ele>851</ele>
        <time>2019-04-17T18:18:05Z</time>
      </trkpt>
      <trkpt lat="45.91573" lon="6.77266">
        <ele>848</ele>
        <time>2019-04-17T18:19:05Z</time>
      </trkpt>
      <trkpt lat="45.91569" lon="6.77256">
        <ele>844</ele>
        <time>2019-04-17T18:20:05Z</time>
      </trkpt>
      <trkpt lat="45.91567" lon="6.77243">
        <ele>842</ele>
        <time>2019-04-17T18:21:05Z</time>
      </trkpt>
      <trkpt lat="45.91566" lon="6.77232">
        <ele>842</ele>
        <time>2019-04-17T18:22:05Z</time>
      </trkpt>
      <trkpt lat="45.9158" lon="6.771">
        <ele>852</ele>
        <time>2019-04-17T18:23:05Z</time>
      </trkpt>
      <trkpt lat="45.91579" lon="6.77081">
        <ele>855</ele>
        <time>2019-04-17T18:24:05Z</time>
      </trkpt>
      <trkpt lat="45.91575" lon="6.77064">
        <ele>858</ele>
        <time>2019-04-17T18:25:05Z</time>
      </trkpt>
      <trkpt lat="45.91568" lon="6.77053">
        <ele>860</ele>
        <time>2019-04-17T18:26:05Z</time>
      </trkpt>
      <trkpt lat="45.91553" lon="6.77038">
        <ele>862</ele>
        <time>2019-04-17T18:27:05Z</time>
      </trkpt>
      <trkpt lat="45.91544" lon="6.77033">
        <ele>863</ele>
        <time>2019-04-17T18:28:05Z</time>
      </trkpt>
      <trkpt lat="45.91529" lon="6.77031">
        <ele>863</ele>
        <time>2019-04-17T18:29:05Z</time>
      </trkpt>
      <trkpt lat="45.9151" lon="6.77037">
        <ele>863</ele>
        <time>2019-04-17T18:30:05Z</time>
      </trkpt>
      <trkpt lat="45.91502" lon="6.77042">
        <ele>863</ele>
        <time>2019-04-17T18:31:05Z</time>
      </trkpt>
      <trkpt lat="45.91495" lon="6.77052">
        <ele>864</ele>
        <time>2019-04-17T18:32:05Z</time>
      </trkpt>
      <trkpt lat="45.91485" lon="6.77085">
        <ele>865</ele>
        <time>2019-04-17T18:33:05Z</time>
      </trkpt>
      <trkpt lat="45.91478" lon="6.77101">
        <ele>865</ele>
        <time>2019-04-17T18:34:05Z</time>
      </trkpt>
      <trkpt lat="45.91428" lon="6.77186">
        <ele>862</ele>
        <time>2019-04-17T18:35:05Z</time>
      </trkpt>
      <trkpt lat="45.91402" lon="6.77242">
        <ele>858</ele>
        <time>2019-04-17T18:36:05Z</time>
      </trkpt>
      <trkpt lat="45.91398" lon="6.77247">
        <ele>858</ele>
        <time>2019-04-17T18:37:05Z</time>
      </trkpt>
      <trkpt lat="45.91393" lon="6.77249">
        <ele>858</ele>
        <time>2019-04-17T18:38:05Z</time>
      </trkpt>
      <trkpt lat="45.91385" lon="6.77248">
        <ele>859</ele>
        <time>2019-04-17T18:39:05Z</time>
      </trkpt>
      <trkpt lat="45.9138" lon="6.77245">
        <ele>860</ele>
        <time>2019-04-17T18:40:05Z</time>
      </trkpt>
      <trkpt lat="45.91376" lon="6.77235">
        <ele>861</ele>
        <time>2019-04-17T18:41:05Z</time>
      </trkpt>
      <trkpt lat="45.91375" lon="6.77222">
        <ele>863</ele>
        <time>2019-04-17T18:42:05Z</time>
      </trkpt>
      <trkpt lat="45.91378" lon="6.77211">
        <ele>863</ele>
        <time>2019-04-17T18:43:05Z</time>
      </trkpt>
      <trkpt lat="45.91412" lon="6.77186">
        <ele>863</ele>
        <time>2019-04-17T18:44:05Z</time>
      </trkpt>
      <trkpt lat="45.91423" lon="6.77172">
        <ele>864</ele>
        <time>2019-04-17T18:45:05Z</time>
      </trkpt>
      <trkpt lat="45.91471" lon="6.77089">
        <ele>867</ele>
        <time>2019-04-17T18:46:05Z</time>
      </trkpt>
      <trkpt lat="45.91478" lon="6.77073">
        <ele>866</ele>
        <time>2019-04-17T18:47:05Z</time>
      </trkpt>
      <trkpt lat="45.91483" lon="6.77049">
        <ele>865</ele>
        <time>2019-04-17T18:48:05Z</time>
      </trkpt>
      <trkpt lat="45.91489" lon="6.77033">
        <ele>865</ele>
        <time>2019-04-17T18:49:05Z</time>
      </trkpt>
      <trkpt lat="45.91509" lon="6.77">
        <ele>863</ele>
        <time>2019-04-17T18:50:05Z</time>
      </trkpt>
      <trkpt lat="45.91517" lon="6.76983">
        <ele>864</ele>
        <time>2019-04-17T18:51:05Z</time>
      </trkpt>
      <trkpt lat="45.91521" lon="6.76965">
        <ele>864</ele>
        <time>2019-04-17T18:52:05Z</time>
      </trkpt>
      <trkpt lat="45.91523" lon="6.76942">
        <ele>864</ele>
        <time>2019-04-17T18:53:05Z</time>
      </trkpt>
      <trkpt lat="45.91522" lon="6.76921">
        <ele>863</ele>
        <time>2019-04-17T18:54:05Z</time>
      </trkpt>
      <trkpt lat="45.91517" lon="6.769">
        <ele>862</ele>
        <time>2019-04-17T18:55:05Z</time>
      </trkpt>
      <trkpt lat="45.91505" lon="6.76867">
        <ele>859</ele>
        <time>2019-04-17T18:56:05Z</time>
      </trkpt>
      <trkpt lat="45.91504" lon="6.76852">
        <ele>858</ele>
        <time>2019-04-17T18:57:05Z</time>
      </trkpt>
      <trkpt lat="45.91507" lon="6.76827">
        <ele>857</ele>
        <time>2019-04-17T18:58:05Z</time>
      </trkpt>
      <trkpt lat="45.91522" lon="6.76785">
        <ele>856</ele>
        <time>2019-04-17T18:59:05Z</time>
      </trkpt>
      <trkpt lat="45.91546" lon="6.76738">
        <ele>853</ele>
        <time>2019-04-17T19:00:05Z</time>
      </trkpt>
      <trkpt lat="45.91554" lon="6.7672">
        <ele>853</ele>
        <time>2019-04-17T19:01:05Z</time>
      </trkpt>
      <trkpt lat="45.91555" lon="6.76707">
        <ele>853</ele>
        <time>2019-04-17T19:02:05Z</time>
      </trkpt>
      <trkpt lat="45.91553" lon="6.76694">
        <ele>852</ele>
        <time>2019-04-17T19:03:05Z</time>
      </trkpt>
      <trkpt lat="45.9155" lon="6.76686">
        <ele>852</ele>
        <time>2019-04-17T19:04:05Z</time>
      </trkpt>
      <trkpt lat="45.91541" lon="6.76674">
        <ele>853</ele>
        <time>2019-04-17T19:05:05Z</time>
      </trkpt>
      <trkpt lat="45.91528" lon="6.7667">
        <ele>853</ele>
        <time>2019-04-17T19:06:05Z</time>
      </trkpt>
      <trkpt lat="45.91453" lon="6.7667">
        <ele>860</ele>
        <time>2019-04-17T19:07:05Z</time>
      </trkpt>
      <trkpt lat="45.91444" lon="6.76666">
        <ele>861</ele>
        <time>2019-04-17T19:08:05Z</time>
      </trkpt>
      <trkpt lat="45.91435" lon="6.76656">
        <ele>863</ele>
        <time>2019-04-17T19:09:05Z</time>
      </trkpt>
      <trkpt lat="45.9143" lon="6.76642">
        <ele>864</ele>
        <time>2019-04-17T19:10:05Z</time>
      </trkpt>
      <trkpt lat="45.91434" lon="6.76615">
        <ele>864</ele>
        <time>2019-04-17T19:11:05Z</time>
      </trkpt>
      <trkpt lat="45.91439" lon="6.76607">
        <ele>863</ele>
        <time>2019-04-17T19:12:05Z</time>
      </trkpt>
      <trkpt lat="45.91446" lon="6.76601">
        <ele>862</ele>
        <time>2019-04-17T19:13:05Z</time>
      </trkpt>
      <trkpt lat="45.9146" lon="6.76597">
        <ele>860</ele>
        <time>2019-04-17T19:14:05Z</time>
      </trkpt>
      <trkpt lat="45.91488" lon="6.76582">
        <ele>856</ele>
        <time>2019-04-17T19:15:05Z</time>
      </trkpt>
      <trkpt lat="45.91493" lon="6.76576">
        <ele>855</ele>
        <time>2019-04-17T19:16:05Z</time>
      </trkpt>
      <trkpt lat="45.91498" lon="6.76568">
        <ele>855</ele>
        <time>2019-04-17T19:17:05Z</time>
      </trkpt>
      <trkpt lat="45.91499" lon="6.76561">
        <ele>855</ele>
        <time>2019-04-17T19:18:05Z</time>
      </trkpt>
      <trkpt lat="45.91498" lon="6.76552">
        <ele>855</ele>
        <time>2019-04-17T19:19:05Z</time>
      </trkpt>
      <trkpt lat="45.91495" lon="6.76546">
        <ele>856</ele>
        <time>2019-04-17T19:20:05Z</time>
      </trkpt>
      <trkpt lat="45.91487" lon="6.76547">
        <ele>858</ele>
        <time>2019-04-17T19:21:05Z</time>
      </trkpt>
      <trkpt lat="45.91482" lon="6.76552">
        <ele>858</ele>
        <time>2019-04-17T19:22:05Z</time>
      </trkpt>
      <trkpt lat="45.91471" lon="6.76568">
        <ele>859</ele>
        <time>2019-04-17T19:23:05Z</time>
      </trkpt>
      <trkpt lat="45.91457" lon="6.76584">
        <ele>861</ele>
        <time>2019-04-17T19:24:05Z</time>
      </trkpt>
      <trkpt lat="45.9145" lon="6.76585">
        <ele>862</ele>
        <time>2019-04-17T19:25:05Z</time>
      </trkpt>
      <trkpt lat="45.91439" lon="6.76579">
        <ele>864</ele>
        <time>2019-04-17T19:26:05Z</time>
      </trkpt>
      <trkpt lat="45.91423" lon="6.76563">
        <ele>867</ele>
        <time>2019-04-17T19:27:05Z</time>
      </trkpt>
      <trkpt lat="45.91417" lon="6.7656">
        <ele>869</ele>
        <time>2019-04-17T19:28:05Z</time>
      </trkpt>
      <trkpt lat="45.91411" lon="6.76562">
        <ele>869</ele>
        <time>2019-04-17T19:29:05Z</time>
      </trkpt>
      <trkpt lat="45.914" lon="6.76568">
        <ele>871</ele>
        <time>2019-04-17T19:30:05Z</time>
      </trkpt>
      <trkpt lat="45.91382" lon="6.76581">
        <ele>871</ele>
        <time>2019-04-17T19:31:05Z</time>
      </trkpt>
      <trkpt lat="45.91372" lon="6.76594">
        <ele>872</ele>
        <time>2019-04-17T19:32:05Z</time>
      </trkpt>
      <trkpt lat="45.91358" lon="6.76621">
        <ele>873</ele>
        <time>2019-04-17T19:33:05Z</time>
      </trkpt>
      <trkpt lat="45.91328" lon="6.76662">
        <ele>875</ele>
        <time>2019-04-17T19:34:05Z</time>
      </trkpt>
      <trkpt lat="45.9132" lon="6.76673">
        <ele>877</ele>
        <time>2019-04-17T19:35:05Z</time>
      </trkpt>
      <trkpt lat="45.9131" lon="6.76678">
        <ele>878</ele>
        <time>2019-04-17T19:36:05Z</time>
      </trkpt>
      <trkpt lat="45.91299" lon="6.76672">
        <ele>880</ele>
        <time>2019-04-17T19:37:05Z</time>
      </trkpt>
      <trkpt lat="45.91277" lon="6.76639">
        <ele>884</ele>
        <time>2019-04-17T19:38:05Z</time>
      </trkpt>
      <trkpt lat="45.91246" lon="6.7662">
        <ele>888</ele>
        <time>2019-04-17T19:39:05Z</time>
      </trkpt>
      <trkpt lat="45.91238" lon="6.76602">
        <ele>888</ele>
        <time>2019-04-17T19:40:05Z</time>
      </trkpt>
      <trkpt lat="45.91237" lon="6.76589">
        <ele>888</ele>
        <time>2019-04-17T19:41:05Z</time>
      </trkpt>
      <trkpt lat="45.91238" lon="6.76568">
        <ele>891</ele>
        <time>2019-04-17T19:42:05Z</time>
      </trkpt>
      <trkpt lat="45.91235" lon="6.76557">
        <ele>894</ele>
        <time>2019-04-17T19:43:05Z</time>
      </trkpt>
      <trkpt lat="45.91227" lon="6.76549">
        <ele>898</ele>
        <time>2019-04-17T19:44:05Z</time>
      </trkpt>
      <trkpt lat="45.91219" lon="6.76552">
        <ele>898</ele>
        <time>2019-04-17T19:45:05Z</time>
      </trkpt>
      <trkpt lat="45.91212" lon="6.76559">
        <ele>898</ele>
        <time>2019-04-17T19:46:05Z</time>
      </trkpt>
      <trkpt lat="45.91203" lon="6.76587">
        <ele>894</ele>
        <time>2019-04-17T19:47:05Z</time>
      </trkpt>
      <trkpt lat="45.9119" lon="6.76653">
        <ele>895</ele>
        <time>2019-04-17T19:48:05Z</time>
      </trkpt>
      <trkpt lat="45.91186" lon="6.76663">
        <ele>895</ele>
        <time>2019-04-17T19:49:05Z</time>
      </trkpt>
      <trkpt lat="45.91179" lon="6.76667">
        <ele>896</ele>
        <time>2019-04-17T19:50:05Z</time>
      </trkpt>
      <trkpt lat="45.91156" lon="6.76672">
        <ele>899</ele>
        <time>2019-04-17T19:51:05Z</time>
      </trkpt>
      <trkpt lat="45.91142" lon="6.76677">
        <ele>901</ele>
        <time>2019-04-17T19:52:05Z</time>
      </trkpt>
      <trkpt lat="45.91121" lon="6.76677">
        <ele>904</ele>
        <time>2019-04-17T19:53:05Z</time>
      </trkpt>
      <trkpt lat="45.91113" lon="6.7667">
        <ele>905</ele>
        <time>2019-04-17T19:54:05Z</time>
      </trkpt>
      <trkpt lat="45.9111" lon="6.76661">
        <ele>906</ele>
        <time>2019-04-17T19:55:05Z</time>
      </trkpt>
      <trkpt lat="45.9111" lon="6.76648">
        <ele>907</ele>
        <time>2019-04-17T19:56:05Z</time>
      </trkpt>
      <trkpt lat="45.91115" lon="6.76639">
        <ele>906</ele>
        <time>2019-04-17T19:57:05Z</time>
      </trkpt>
      <trkpt lat="45.91135" lon="6.76624">
        <ele>903</ele>
        <time>2019-04-17T19:58:05Z</time>
      </trkpt>
      <trkpt lat="45.91144" lon="6.76609">
        <ele>903</ele>
        <time>2019-04-17T19:59:05Z</time>
      </trkpt>
      <trkpt lat="45.91155" lon="6.7658">
        <ele>903</ele>
        <time>2019-04-17T20:00:05Z</time>
      </trkpt>
      <trkpt lat="45.91157" lon="6.76567">
        <ele>905</ele>
        <time>2019-04-17T20:01:05Z</time>
      </trkpt>
      <trkpt lat="45.91153" lon="6.76555">
        <ele>909</ele>
        <time>2019-04-17T20:02:05Z</time>
      </trkpt>
      <trkpt lat="45.91147" lon="6.76546">
        <ele>912</ele>
        <time>2019-04-17T20:03:05Z</time>
      </trkpt>
      <trkpt lat="45.91141" lon="6.76544">
        <ele>913</ele>
        <time>2019-04-17T20:04:05Z</time>
      </trkpt>
      <trkpt lat="45.91131" lon="6.76552">
        <ele>913</ele>
        <time>2019-04-17T20:05:05Z</time>
      </trkpt>
      <trkpt lat="45.91123" lon="6.76563">
        <ele>911</ele>
        <time>2019-04-17T20:06:05Z</time>
      </trkpt>
      <trkpt lat="45.91104" lon="6.76574">
        <ele>912</ele>
        <time>2019-04-17T20:07:05Z</time>
      </trkpt>
      <trkpt lat="45.91091" lon="6.76588">
        <ele>912</ele>
        <time>2019-04-17T20:08:05Z</time>
      </trkpt>
      <trkpt lat="45.91086" lon="6.76644">
        <ele>910</ele>
        <time>2019-04-17T20:09:05Z</time>
      </trkpt>
      <trkpt lat="45.91084" lon="6.76657">
        <ele>910</ele>
        <time>2019-04-17T20:10:05Z</time>
      </trkpt>
      <trkpt lat="45.91077" lon="6.76662">
        <ele>911</ele>
        <time>2019-04-17T20:11:05Z</time>
      </trkpt>
      <trkpt lat="45.91063" lon="6.76663">
        <ele>914</ele>
        <time>2019-04-17T20:12:05Z</time>
      </trkpt>
      <trkpt lat="45.91054" lon="6.76668">
        <ele>915</ele>
        <time>2019-04-17T20:13:05Z</time>
      </trkpt>
      <trkpt lat="45.91049" lon="6.76676">
        <ele>916</ele>
        <time>2019-04-17T20:14:05Z</time>
      </trkpt>
      <trkpt lat="45.91039" lon="6.76699">
        <ele>918</ele>
        <time>2019-04-17T20:15:05Z</time>
      </trkpt>
      <trkpt lat="45.91035" lon="6.76706">
        <ele>919</ele>
        <time>2019-04-17T20:16:05Z</time>
      </trkpt>
      <trkpt lat="45.9103" lon="6.76706">
        <ele>920</ele>
        <time>2019-04-17T20:17:05Z</time>
      </trkpt>
      <trkpt lat="45.91015" lon="6.76702">
        <ele>924</ele>
        <time>2019-04-17T20:18:05Z</time>
      </trkpt>
      <trkpt lat="45.90967" lon="6.767">
        <ele>940</ele>
        <time>2019-04-17T20:19:05Z</time>
      </trkpt>
      <trkpt lat="45.90958" lon="6.76694">
        <ele>943</ele>
        <time>2019-04-17T20:20:05Z</time>
      </trkpt>
      <trkpt lat="45.90955" lon="6.76682">
        <ele>944</ele>
        <time>2019-04-17T20:21:05Z</time>
      </trkpt>
      <trkpt lat="45.90955" lon="6.76673">
        <ele>944</ele>
        <time>2019-04-17T20:22:05Z</time>
      </trkpt>
      <trkpt lat="45.90969" lon="6.76643">
        <ele>943</ele>
        <time>2019-04-17T20:23:05Z</time>
      </trkpt>
      <trkpt lat="45.90986" lon="6.76619">
        <ele>942</ele>
        <time>2019-04-17T20:24:05Z</time>
      </trkpt>
      <trkpt lat="45.91002" lon="6.76591">
        <ele>942</ele>
        <time>2019-04-17T20:25:05Z</time>
      </trkpt>
      <trkpt lat="45.91015" lon="6.76576">
        <ele>941</ele>
        <time>2019-04-17T20:26:05Z</time>
      </trkpt>
      <trkpt lat="45.91029" lon="6.76565">
        <ele>939</ele>
        <time>2019-04-17T20:27:05Z</time>
      </trkpt>
      <trkpt lat="45.91031" lon="6.7656">
        <ele>940</ele>
        <time>2019-04-17T20:28:05Z</time>
      </trkpt>
      <trkpt lat="45.9103" lon="6.76549">
        <ele>944</ele>
        <time>2019-04-17T20:29:05Z</time>
      </trkpt>
      <trkpt lat="45.91028" lon="6.76546">
        <ele>946</ele>
        <time>2019-04-17T20:30:05Z</time>
      </trkpt>
      <trkpt lat="45.91021" lon="6.76546">
        <ele>949</ele>
        <time>2019-04-17T20:31:05Z</time>
      </trkpt>
      <trkpt lat="45.90996" lon="6.76584">
        <ele>945</ele>
        <time>2019-04-17T20:32:05Z</time>
      </trkpt>
      <trkpt lat="45.90985" lon="6.76596">
        <ele>947</ele>
        <time>2019-04-17T20:33:05Z</time>
      </trkpt>
      <trkpt lat="45.90948" lon="6.76626">
        <ele>956</ele>
        <time>2019-04-17T20:34:05Z</time>
      </trkpt>
      <trkpt lat="45.90927" lon="6.7665">
        <ele>960</ele>
        <time>2019-04-17T20:35:05Z</time>
      </trkpt>
      <trkpt lat="45.90918" lon="6.76666">
        <ele>961</ele>
        <time>2019-04-17T20:36:05Z</time>
      </trkpt>
      <trkpt lat="45.90915" lon="6.76674">
        <ele>961</ele>
        <time>2019-04-17T20:37:05Z</time>
      </trkpt>
      <trkpt lat="45.90914" lon="6.76682">
        <ele>961</ele>
        <time>2019-04-17T20:38:05Z</time>
      </trkpt>
      <trkpt lat="45.90923" lon="6.76701">
        <ele>957</ele>
        <time>2019-04-17T20:39:05Z</time>
      </trkpt>
      <trkpt lat="45.90939" lon="6.7672">
        <ele>950</ele>
        <time>2019-04-17T20:40:05Z</time>
      </trkpt>
      <trkpt lat="45.90941" lon="6.76728">
        <ele>949</ele>
        <time>2019-04-17T20:41:05Z</time>
      </trkpt>
      <trkpt lat="45.90921" lon="6.76782">
        <ele>954</ele>
        <time>2019-04-17T20:42:05Z</time>
      </trkpt>
      <trkpt lat="45.90911" lon="6.76795">
        <ele>957</ele>
        <time>2019-04-17T20:43:05Z</time>
      </trkpt>
      <trkpt lat="45.90888" lon="6.76814">
        <ele>961</ele>
        <time>2019-04-17T20:44:05Z</time>
      </trkpt>
      <trkpt lat="45.90875" lon="6.76819">
        <ele>963</ele>
        <time>2019-04-17T20:45:05Z</time>
      </trkpt>
      <trkpt lat="45.90865" lon="6.76819">
        <ele>965</ele>
        <time>2019-04-17T20:46:05Z</time>
      </trkpt>
      <trkpt lat="45.90858" lon="6.76814">
        <ele>967</ele>
        <time>2019-04-17T20:47:05Z</time>
      </trkpt>
      <trkpt lat="45.90857" lon="6.76807">
        <ele>967</ele>
        <time>2019-04-17T20:48:05Z</time>
      </trkpt>
      <trkpt lat="45.90859" lon="6.76799">
        <ele>967</ele>
        <time>2019-04-17T20:49:05Z</time>
      </trkpt>
      <trkpt lat="45.90864" lon="6.76795">
        <ele>967</ele>
        <time>2019-04-17T20:50:05Z</time>
      </trkpt>
      <trkpt lat="45.9089" lon="6.76791">
        <ele>961</ele>
        <time>2019-04-17T20:51:05Z</time>
      </trkpt>
      <trkpt lat="45.90897" lon="6.76782">
        <ele>960</ele>
        <time>2019-04-17T20:52:05Z</time>
      </trkpt>
      <trkpt lat="45.909" lon="6.76771">
        <ele>960</ele>
        <time>2019-04-17T20:53:05Z</time>
      </trkpt>
      <trkpt lat="45.90898" lon="6.7676">
        <ele>961</ele>
        <time>2019-04-17T20:54:05Z</time>
      </trkpt>
      <trkpt lat="45.90893" lon="6.76751">
        <ele>963</ele>
        <time>2019-04-17T20:55:05Z</time>
      </trkpt>
      <trkpt lat="45.90886" lon="6.76747">
        <ele>965</ele>
        <time>2019-04-17T20:56:05Z</time>
      </trkpt>
      <trkpt lat="45.90843" lon="6.76733">
        <ele>977</ele>
        <time>2019-04-17T20:57:05Z</time>
      </trkpt>
      <trkpt lat="45.9083" lon="6.76737">
        <ele>980</ele>
        <time>2019-04-17T20:58:05Z</time>
      </trkpt>
      <trkpt lat="45.90812" lon="6.76778">
        <ele>983</ele>
        <time>2019-04-17T20:59:05Z</time>
      </trkpt>
      <trkpt lat="45.90803" lon="6.76779">
        <ele>986</ele>
        <time>2019-04-17T21:00:05Z</time>
      </trkpt>
      <trkpt lat="45.90797" lon="6.76776">
        <ele>988</ele>
        <time>2019-04-17T21:01:05Z</time>
      </trkpt>
      <trkpt lat="45.90794" lon="6.76763">
        <ele>991</ele>
        <time>2019-04-17T21:02:05Z</time>
      </trkpt>
      <trkpt lat="45.90795" lon="6.76752">
        <ele>991</ele>
        <time>2019-04-17T21:03:05Z</time>
      </trkpt>
      <trkpt lat="45.90813" lon="6.76724">
        <ele>989</ele>
        <time>2019-04-17T21:04:05Z</time>
      </trkpt>
      <trkpt lat="45.90826" lon="6.76709">
        <ele>986</ele>
        <time>2019-04-17T21:05:05Z</time>
      </trkpt>
      <trkpt lat="45.90832" lon="6.76689">
        <ele>987</ele>
        <time>2019-04-17T21:06:05Z</time>
      </trkpt>
      <trkpt lat="45.90837" lon="6.76621">
        <ele>999</ele>
        <time>2019-04-17T21:07:05Z</time>
      </trkpt>
      <trkpt lat="45.9084" lon="6.76589">
        <ele>1005</ele>
        <time>2019-04-17T21:08:05Z</time>
      </trkpt>
      <trkpt lat="45.90858" lon="6.76557">
        <ele>1007</ele>
        <time>2019-04-17T21:09:05Z</time>
      </trkpt>
      <trkpt lat="45.90882" lon="6.7653">
        <ele>1006</ele>
        <time>2019-04-17T21:10:05Z</time>
      </trkpt>
      <trkpt lat="45.90931" lon="6.76491">
        <ele>1001</ele>
        <time>2019-04-17T21:11:05Z</time>
      </trkpt>
      <trkpt lat="45.90976" lon="6.76461">
        <ele>992</ele>
        <time>2019-04-17T21:12:05Z</time>
      </trkpt>
      <trkpt lat="45.91003" lon="6.76447">
        <ele>987</ele>
        <time>2019-04-17T21:13:05Z</time>
      </trkpt>
      <trkpt lat="45.91012" lon="6.76437">
        <ele>987</ele>
        <time>2019-04-17T21:14:05Z</time>
      </trkpt>
      <trkpt lat="45.91015" lon="6.76422">
        <ele>991</ele>
        <time>2019-04-17T21:15:05Z</time>
      </trkpt>
      <trkpt lat="45.91011" lon="6.76413">
        <ele>993</ele>
        <time>2019-04-17T21:16:05Z</time>
      </trkpt>
      <trkpt lat="45.91" lon="6.76403">
        <ele>996</ele>
        <time>2019-04-17T21:17:05Z</time>
      </trkpt>
      <trkpt lat="45.90959" lon="6.76392">
        <ele>1004</ele>
        <time>2019-04-17T21:18:05Z</time>
      </trkpt>
      <trkpt lat="45.90927" lon="6.76391">
        <ele>1009</ele>
        <time>2019-04-17T21:19:05Z</time>
      </trkpt>
      <trkpt lat="45.90878" lon="6.76374">
        <ele>1017</ele>
        <time>2019-04-17T21:20:05Z</time>
      </trkpt>
      <trkpt lat="45.9087" lon="6.76369">
        <ele>1018</ele>
        <time>2019-04-17T21:21:05Z</time>
      </trkpt>
      <trkpt lat="45.90867" lon="6.76363">
        <ele>1017</ele>
        <time>2019-04-17T21:22:05Z</time>
      </trkpt>
      <trkpt lat="45.90864" lon="6.76348">
        <ele>1016</ele>
        <time>2019-04-17T21:23:05Z</time>
      </trkpt>
      <trkpt lat="45.90866" lon="6.76342">
        <ele>1015</ele>
        <time>2019-04-17T21:24:05Z</time>
      </trkpt>
      <trkpt lat="45.90886" lon="6.76324">
        <ele>1012</ele>
        <time>2019-04-17T21:25:05Z</time>
      </trkpt>
      <trkpt lat="45.90929" lon="6.76254">
        <ele>1015</ele>
        <time>2019-04-17T21:26:05Z</time>
      </trkpt>
      <trkpt lat="45.90938" lon="6.76247">
        <ele>1015</ele>
        <time>2019-04-17T21:27:05Z</time>
      </trkpt>
      <trkpt lat="45.9095" lon="6.76241">
        <ele>1016</ele>
        <time>2019-04-17T21:28:05Z</time>
      </trkpt>
      <trkpt lat="45.90952" lon="6.7623">
        <ele>1018</ele>
        <time>2019-04-17T21:29:05Z</time>
      </trkpt>
      <trkpt lat="45.90949" lon="6.76222">
        <ele>1020</ele>
        <time>2019-04-17T21:30:05Z</time>
      </trkpt>
      <trkpt lat="45.90942" lon="6.76215">
        <ele>1022</ele>
        <time>2019-04-17T21:31:05Z</time>
      </trkpt>
      <trkpt lat="45.90937" lon="6.76216">
        <ele>1023</ele>
        <time>2019-04-17T21:32:05Z</time>
      </trkpt>
      <trkpt lat="45.90932" lon="6.7622">
        <ele>1022</ele>
        <time>2019-04-17T21:33:05Z</time>
      </trkpt>
      <trkpt lat="45.90926" lon="6.76232">
        <ele>1020</ele>
        <time>2019-04-17T21:34:05Z</time>
      </trkpt>
      <trkpt lat="45.90901" lon="6.7626">
        <ele>1018</ele>
        <time>2019-04-17T21:35:05Z</time>
      </trkpt>
      <trkpt lat="45.90847" lon="6.76299">
        <ele>1023</ele>
        <time>2019-04-17T21:36:05Z</time>
      </trkpt>
      <trkpt lat="45.90801" lon="6.76305">
        <ele>1030</ele>
        <time>2019-04-17T21:37:05Z</time>
      </trkpt>
      <trkpt lat="45.90777" lon="6.76321">
        <ele>1032</ele>
        <time>2019-04-17T21:38:05Z</time>
      </trkpt>
      <trkpt lat="45.90762" lon="6.76335">
        <ele>1034</ele>
        <time>2019-04-17T21:39:05Z</time>
      </trkpt>
      <trkpt lat="45.90753" lon="6.76334">
        <ele>1035</ele>
        <time>2019-04-17T21:40:05Z</time>
      </trkpt>
      <trkpt lat="45.90748" lon="6.76325">
        <ele>1037</ele>
        <time>2019-04-17T21:41:05Z</time>
      </trkpt>
      <trkpt lat="45.90747" lon="6.76319">
        <ele>1038</ele>
        <time>2019-04-17T21:42:05Z</time>
      </trkpt>
      <trkpt lat="45.90749" lon="6.76313">
        <ele>1039</ele>
        <time>2019-04-17T21:43:05Z</time>
      </trkpt>
      <trkpt lat="45.90775" lon="6.76297">
        <ele>1036</ele>
        <time>2019-04-17T21:44:05Z</time>
      </trkpt>
      <trkpt lat="45.90788" lon="6.76279">
        <ele>1036</ele>
        <time>2019-04-17T21:45:05Z</time>
      </trkpt>
      <trkpt lat="45.90818" lon="6.76259">
        <ele>1033</ele>
        <time>2019-04-17T21:46:05Z</time>
      </trkpt>
      <trkpt lat="45.90823" lon="6.76252">
        <ele>1034</ele>
        <time>2019-04-17T21:47:05Z</time>
      </trkpt>
      <trkpt lat="45.90831" lon="6.76222">
        <ele>1040</ele>
        <time>2019-04-17T21:48:05Z</time>
      </trkpt>
      <trkpt lat="45.90834" lon="6.76203">
        <ele>1045</ele>
        <time>2019-04-17T21:49:05Z</time>
      </trkpt>
      <trkpt lat="45.90834" lon="6.76191">
        <ele>1048</ele>
        <time>2019-04-17T21:50:05Z</time>
      </trkpt>
      <trkpt lat="45.90831" lon="6.76185">
        <ele>1050</ele>
        <time>2019-04-17T21:51:05Z</time>
      </trkpt>
      <trkpt lat="45.90827" lon="6.76181">
        <ele>1052</ele>
        <time>2019-04-17T21:52:05Z</time>
      </trkpt>
      <trkpt lat="45.90817" lon="6.76181">
        <ele>1053</ele>
        <time>2019-04-17T21:53:05Z</time>
      </trkpt>
      <trkpt lat="45.90795" lon="6.76202">
        <ele>1050</ele>
        <time>2019-04-17T21:54:05Z</time>
      </trkpt>
      <trkpt lat="45.90789" lon="6.76205">
        <ele>1050</ele>
        <time>2019-04-17T21:55:05Z</time>
      </trkpt>
      <trkpt lat="45.90761" lon="6.76201">
        <ele>1055</ele>
        <time>2019-04-17T21:56:05Z</time>
      </trkpt>
      <trkpt lat="45.90755" lon="6.76202">
        <ele>1056</ele>
        <time>2019-04-17T21:57:05Z</time>
      </trkpt>
      <trkpt lat="45.90749" lon="6.76206">
        <ele>1056</ele>
        <time>2019-04-17T21:58:05Z</time>
      </trkpt>
      <trkpt lat="45.90727" lon="6.76235">
        <ele>1053</ele>
        <time>2019-04-17T21:59:05Z</time>
      </trkpt>
      <trkpt lat="45.90709" lon="6.76246">
        <ele>1054</ele>
        <time>2019-04-17T22:00:05Z</time>
      </trkpt>
      <trkpt lat="45.9068" lon="6.76249">
        <ele>1058</ele>
        <time>2019-04-17T22:01:05Z</time>
      </trkpt>
      <trkpt lat="45.90653" lon="6.76245">
        <ele>1064</ele>
        <time>2019-04-17T22:02:05Z</time>
      </trkpt>
      <trkpt lat="45.90643" lon="6.76233">
        <ele>1067</ele>
        <time>2019-04-17T22:03:05Z</time>
      </trkpt>
      <trkpt lat="45.90643" lon="6.76223">
        <ele>1069</ele>
        <time>2019-04-17T22:04:05Z</time>
      </trkpt>
      <trkpt lat="45.90646" lon="6.76214">
        <ele>1070</ele>
        <time>2019-04-17T22:05:05Z</time>
      </trkpt>
      <trkpt lat="45.9066" lon="6.76204">
        <ele>1068</ele>
        <time>2019-04-17T22:06:05Z</time>
      </trkpt>
      <trkpt lat="45.90671" lon="6.76202">
        <ele>1066</ele>
        <time>2019-04-17T22:07:05Z</time>
      </trkpt>
      <trkpt lat="45.9068" lon="6.76197">
        <ele>1066</ele>
        <time>2019-04-17T22:08:05Z</time>
      </trkpt>
      <trkpt lat="45.90684" lon="6.7619">
        <ele>1067</ele>
        <time>2019-04-17T22:09:05Z</time>
      </trkpt>
      <trkpt lat="45.90685" lon="6.7618">
        <ele>1068</ele>
        <time>2019-04-17T22:10:05Z</time>
      </trkpt>
      <trkpt lat="45.90682" lon="6.76176">
        <ele>1069</ele>
        <time>2019-04-17T22:11:05Z</time>
      </trkpt>
      <trkpt lat="45.90676" lon="6.76175">
        <ele>1070</ele>
        <time>2019-04-17T22:12:05Z</time>
      </trkpt>
      <trkpt lat="45.90665" lon="6.76186">
        <ele>1070</ele>
        <time>2019-04-17T22:13:05Z</time>
      </trkpt>
      <trkpt lat="45.90607" lon="6.76208">
        <ele>1079</ele>
        <time>2019-04-17T22:14:05Z</time>
      </trkpt>
      <trkpt lat="45.90577" lon="6.76216">
        <ele>1084</ele>
        <time>2019-04-17T22:15:05Z</time>
      </trkpt>
      <trkpt lat="45.90564" lon="6.76226">
        <ele>1086</ele>
        <time>2019-04-17T22:16:05Z</time>
      </trkpt>
      <trkpt lat="45.90557" lon="6.76237">
        <ele>1085</ele>
        <time>2019-04-17T22:17:05Z</time>
      </trkpt>
      <trkpt lat="45.90552" lon="6.76308">
        <ele>1083</ele>
        <time>2019-04-17T22:18:05Z</time>
      </trkpt>
      <trkpt lat="45.90548" lon="6.76332">
        <ele>1084</ele>
        <time>2019-04-17T22:19:05Z</time>
      </trkpt>
      <trkpt lat="45.90521" lon="6.76436">
        <ele>1099</ele>
        <time>2019-04-17T22:20:05Z</time>
      </trkpt>
      <trkpt lat="45.9052" lon="6.76453">
        <ele>1101</ele>
        <time>2019-04-17T22:21:05Z</time>
      </trkpt>
      <trkpt lat="45.90521" lon="6.76464">
        <ele>1101</ele>
        <time>2019-04-17T22:22:05Z</time>
      </trkpt>
      <trkpt lat="45.90525" lon="6.76472">
        <ele>1100</ele>
        <time>2019-04-17T22:23:05Z</time>
      </trkpt>
      <trkpt lat="45.90529" lon="6.76477">
        <ele>1099</ele>
        <time>2019-04-17T22:24:05Z</time>
      </trkpt>
      <trkpt lat="45.90555" lon="6.76485">
        <ele>1092</ele>
        <time>2019-04-17T22:25:05Z</time>
      </trkpt>
      <trkpt lat="45.90567" lon="6.76494">
        <ele>1089</ele>
        <time>2019-04-17T22:26:05Z</time>
      </trkpt>
      <trkpt lat="45.90576" lon="6.76508">
        <ele>1087</ele>
        <time>2019-04-17T22:27:05Z</time>
      </trkpt>
      <trkpt lat="45.90579" lon="6.76517">
        <ele>1087</ele>
        <time>2019-04-17T22:28:05Z</time>
      </trkpt>
      <trkpt lat="45.90581" lon="6.76529">
        <ele>1086</ele>
        <time>2019-04-17T22:29:05Z</time>
      </trkpt>
      <trkpt lat="45.9058" lon="6.76545">
        <ele>1087</ele>
        <time>2019-04-17T22:30:05Z</time>
      </trkpt>
      <trkpt lat="45.90569" lon="6.76586">
        <ele>1092</ele>
        <time>2019-04-17T22:31:05Z</time>
      </trkpt>
      <trkpt lat="45.90548" lon="6.76623">
        <ele>1098</ele>
        <time>2019-04-17T22:32:05Z</time>
      </trkpt>
      <trkpt lat="45.90491" lon="6.76721">
        <ele>1124</ele>
        <time>2019-04-17T22:33:05Z</time>
      </trkpt>
      <trkpt lat="45.90469" lon="6.76786">
        <ele>1135</ele>
        <time>2019-04-17T22:34:05Z</time>
      </trkpt>
      <trkpt lat="45.90463" lon="6.76822">
        <ele>1138</ele>
        <time>2019-04-17T22:35:05Z</time>
      </trkpt>
      <trkpt lat="45.90461" lon="6.76863">
        <ele>1139</ele>
        <time>2019-04-17T22:36:05Z</time>
      </trkpt>
      <trkpt lat="45.90463" lon="6.7689">
        <ele>1138</ele>
        <time>2019-04-17T22:37:05Z</time>
      </trkpt>
      <trkpt lat="45.90472" lon="6.76927">
        <ele>1134</ele>
        <time>2019-04-17T22:38:05Z</time>
      </trkpt>
      <trkpt lat="45.90502" lon="6.76984">
        <ele>1119</ele>
        <time>2019-04-17T22:39:05Z</time>
      </trkpt>
      <trkpt lat="45.90515" lon="6.77018">
        <ele>1107</ele>
        <time>2019-04-17T22:40:05Z</time>
      </trkpt>
      <trkpt lat="45.90513" lon="6.7703">
        <ele>1108</ele>
        <time>2019-04-17T22:41:05Z</time>
      </trkpt>
      <trkpt lat="45.90511" lon="6.77035">
        <ele>1109</ele>
        <time>2019-04-17T22:42:05Z</time>
      </trkpt>
      <trkpt lat="45.90469" lon="6.7707">
        <ele>1122</ele>
        <time>2019-04-17T22:43:05Z</time>
      </trkpt>
      <trkpt lat="45.90461" lon="6.7709">
        <ele>1121</ele>
        <time>2019-04-17T22:44:05Z</time>
      </trkpt>
      <trkpt lat="45.90454" lon="6.77123">
        <ele>1115</ele>
        <time>2019-04-17T22:45:05Z</time>
      </trkpt>
      <trkpt lat="45.90441" lon="6.77155">
        <ele>1112</ele>
        <time>2019-04-17T22:46:05Z</time>
      </trkpt>
      <trkpt lat="45.90419" lon="6.77198">
        <ele>1109</ele>
        <time>2019-04-17T22:47:05Z</time>
      </trkpt>
      <trkpt lat="45.90393" lon="6.77237">
        <ele>1104</ele>
        <time>2019-04-17T22:48:05Z</time>
      </trkpt>
      <trkpt lat="45.90375" lon="6.77251">
        <ele>1103</ele>
        <time>2019-04-17T22:49:05Z</time>
      </trkpt>
      <trkpt lat="45.90331" lon="6.77264">
        <ele>1106</ele>
        <time>2019-04-17T22:50:05Z</time>
      </trkpt>
      <trkpt lat="45.90251" lon="6.77307">
        <ele>1106</ele>
        <time>2019-04-17T22:51:05Z</time>
      </trkpt>
      <trkpt lat="45.9022" lon="6.77337">
        <ele>1104</ele>
        <time>2019-04-17T22:52:05Z</time>
      </trkpt>
      <trkpt lat="45.90198" lon="6.77369">
        <ele>1101</ele>
        <time>2019-04-17T22:53:05Z</time>
      </trkpt>
      <trkpt lat="45.90185" lon="6.77383">
        <ele>1100</ele>
        <time>2019-04-17T22:54:05Z</time>
      </trkpt>
      <trkpt lat="45.90164" lon="6.77415">
        <ele>1095</ele>
        <time>2019-04-17T22:55:05Z</time>
      </trkpt>
      <trkpt lat="45.90145" lon="6.77428">
        <ele>1090</ele>
        <time>2019-04-17T22:56:05Z</time>
      </trkpt>
      <trkpt lat="45.90124" lon="6.77436">
        <ele>1085</ele>
        <time>2019-04-17T22:57:05Z</time>
      </trkpt>
      <trkpt lat="45.90091" lon="6.77429">
        <ele>1084</ele>
        <time>2019-04-17T22:58:05Z</time>
      </trkpt>
      <trkpt lat="45.9006" lon="6.77415">
        <ele>1081</ele>
        <time>2019-04-17T22:59:05Z</time>
      </trkpt>
      <trkpt lat="45.89925" lon="6.77292">
        <ele>1078</ele>
        <time>2019-04-17T23:00:05Z</time>
      </trkpt>
      <trkpt lat="45.89885" lon="6.77263">
        <ele>1076</ele>
        <time>2019-04-17T23:01:05Z</time>
      </trkpt>
      <trkpt lat="45.89822" lon="6.7724">
        <ele>1068</ele>
        <time>2019-04-17T23:02:05Z</time>
      </trkpt>
      <trkpt lat="45.89787" lon="6.7723">
        <ele>1065</ele>
        <time>2019-04-17T23:03:05Z</time>
      </trkpt>
      <trkpt lat="45.8976" lon="6.77229">
        <ele>1061</ele>
        <time>2019-04-17T23:04:05Z</time>
      </trkpt>
      <trkpt lat="45.89743" lon="6.77234">
        <ele>1059</ele>
        <time>2019-04-17T23:05:05Z</time>
      </trkpt>
      <trkpt lat="45.89729" lon="6.77245">
        <ele>1058</ele>
        <time>2019-04-17T23:06:05Z</time>
      </trkpt>
      <trkpt lat="45.89717" lon="6.77285">
        <ele>1053</ele>
        <time>2019-04-17T23:07:05Z</time>
      </trkpt>
      <trkpt lat="45.8971" lon="6.77333">
        <ele>1047</ele>
        <time>2019-04-17T23:08:05Z</time>
      </trkpt>
      <trkpt lat="45.89667" lon="6.77779">
        <ele>1028</ele>
        <time>2019-04-17T23:09:05Z</time>
      </trkpt>
      <trkpt lat="45.89655" lon="6.77823">
        <ele>1026</ele>
        <time>2019-04-17T23:10:05Z</time>
      </trkpt>
      <trkpt lat="45.89507" lon="6.7809">
        <ele>1018</ele>
        <time>2019-04-17T23:11:05Z</time>
      </trkpt>
      <trkpt lat="45.89485" lon="6.78167">
        <ele>1015</ele>
        <time>2019-04-17T23:12:05Z</time>
      </trkpt>
      <trkpt lat="45.89479" lon="6.78184">
        <ele>1015</ele>
        <time>2019-04-17T23:13:05Z</time>
      </trkpt>
      <trkpt lat="45.89459" lon="6.78262">
        <ele>1015</ele>
        <time>2019-04-17T23:14:05Z</time>
      </trkpt>
      <trkpt lat="45.89448" lon="6.78298">
        <ele>1014</ele>
        <time>2019-04-17T23:15:05Z</time>
      </trkpt>
      <trkpt lat="45.89438" lon="6.78316">
        <ele>1013</ele>
        <time>2019-04-17T23:16:05Z</time>
      </trkpt>
      <trkpt lat="45.89402" lon="6.78358">
        <ele>1015</ele>
        <time>2019-04-17T23:17:05Z</time>
      </trkpt>
      <trkpt lat="45.89391" lon="6.78375">
        <ele>1016</ele>
        <time>2019-04-17T23:18:05Z</time>
      </trkpt>
      <trkpt lat="45.89374" lon="6.78415">
        <ele>1016</ele>
        <time>2019-04-17T23:19:05Z</time>
      </trkpt>
      <trkpt lat="45.89358" lon="6.78444">
        <ele>1015</ele>
        <time>2019-04-17T23:20:05Z</time>
      </trkpt>
      <trkpt lat="45.89274" lon="6.78525">
        <ele>1014</ele>
        <time>2019-04-17T23:21:05Z</time>
      </trkpt>
      <trkpt lat="45.89225" lon="6.78586">
        <ele>1005</ele>
        <time>2019-04-17T23:22:05Z</time>
      </trkpt>
      <trkpt lat="45.8921" lon="6.78596">
        <ele>1004</ele>
        <time>2019-04-17T23:23:05Z</time>
      </trkpt>
      <trkpt lat="45.89195" lon="6.78601">
        <ele>1004</ele>
        <time>2019-04-17T23:24:05Z</time>
      </trkpt>
      <trkpt lat="45.89173" lon="6.78604">
        <ele>1005</ele>
        <time>2019-04-17T23:25:05Z</time>
      </trkpt>
      <trkpt lat="45.89134" lon="6.78598">
        <ele>1010</ele>
        <time>2019-04-17T23:26:05Z</time>
      </trkpt>
      <trkpt lat="45.89116" lon="6.78598">
        <ele>1012</ele>
        <time>2019-04-17T23:27:05Z</time>
      </trkpt>
      <trkpt lat="45.89104" lon="6.78604">
        <ele>1012</ele>
        <time>2019-04-17T23:28:05Z</time>
      </trkpt>
      <trkpt lat="45.89088" lon="6.78618">
        <ele>1011</ele>
        <time>2019-04-17T23:29:05Z</time>
      </trkpt>
      <trkpt lat="45.89068" lon="6.78649">
        <ele>1008</ele>
        <time>2019-04-17T23:30:05Z</time>
      </trkpt>
      <trkpt lat="45.89045" lon="6.78694">
        <ele>1005</ele>
        <time>2019-04-17T23:31:05Z</time>
      </trkpt>
      <trkpt lat="45.89024" lon="6.78755">
        <ele>1001</ele>
        <time>2019-04-17T23:32:05Z</time>
      </trkpt>
      <trkpt lat="45.88987" lon="6.78878">
        <ele>998</ele>
        <time>2019-04-17T23:33:05Z</time>
      </trkpt>
      <trkpt lat="45.88987" lon="6.78893">
        <ele>997</ele>
        <time>2019-04-17T23:34:05Z</time>
      </trkpt>
      <trkpt lat="45.88981" lon="6.78901">
        <ele>997</ele>
        <time>2019-04-17T23:35:05Z</time>
      </trkpt>
      <trkpt lat="45.8894" lon="6.79042">
        <ele>1003</ele>
        <time>2019-04-17T23:36:05Z</time>
      </trkpt>
      <trkpt lat="45.88933" lon="6.79075">
        <ele>1007</ele>
        <time>2019-04-17T23:37:05Z</time>
      </trkpt>
      <trkpt lat="45.88926" lon="6.7914">
        <ele>1007</ele>
        <time>2019-04-17T23:38:05Z</time>
      </trkpt>
      <trkpt lat="45.88923" lon="6.79201">
        <ele>1008</ele>
        <time>2019-04-17T23:39:05Z</time>
      </trkpt>
      <trkpt lat="45.88923" lon="6.79229">
        <ele>1009</ele>
        <time>2019-04-17T23:40:05Z</time>
      </trkpt>
      <trkpt lat="45.88933" lon="6.79366">
        <ele>1015</ele>
        <time>2019-04-17T23:41:05Z</time>
      </trkpt>
      <trkpt lat="45.88935" lon="6.79413">
        <ele>1019</ele>
        <time>2019-04-17T23:42:05Z</time>
      </trkpt>
      <trkpt lat="45.88923" lon="6.79518">
        <ele>1021</ele>
        <time>2019-04-17T23:43:05Z</time>
      </trkpt>
      <trkpt lat="45.8894" lon="6.79702">
        <ele>1011</ele>
        <time>2019-04-17T23:44:05Z</time>
      </trkpt>
      <trkpt lat="45.8895" lon="6.79738">
        <ele>1012</ele>
        <time>2019-04-17T23:45:05Z</time>
      </trkpt>
      <trkpt lat="45.88957" lon="6.79752">
        <ele>1012</ele>
        <time>2019-04-17T23:46:05Z</time>
      </trkpt>
      <trkpt lat="45.88993" lon="6.79806">
        <ele>1012</ele>
        <time>2019-04-17T23:47:05Z</time>
      </trkpt>
      <trkpt lat="45.89003" lon="6.79817">
        <ele>1012</ele>
        <time>2019-04-17T23:48:05Z</time>
      </trkpt>
      <trkpt lat="45.89037" lon="6.79848">
        <ele>1011</ele>
        <time>2019-04-17T23:49:05Z</time>
      </trkpt>
      <trkpt lat="45.89071" lon="6.7987">
        <ele>1010</ele>
        <time>2019-04-17T23:50:05Z</time>
      </trkpt>
      <trkpt lat="45.8918" lon="6.79909">
        <ele>1006</ele>
        <time>2019-04-17T23:51:05Z</time>
      </trkpt>
      <trkpt lat="45.89195" lon="6.79926">
        <ele>1005</ele>
        <time>2019-04-17T23:52:05Z</time>
      </trkpt>
      <trkpt lat="45.89228" lon="6.7998">
        <ele>1004</ele>
        <time>2019-04-17T23:53:05Z</time>
      </trkpt>
      <trkpt lat="45.89324" lon="6.80064">
        <ele>999</ele>
        <time>2019-04-17T23:54:05Z</time>
      </trkpt>
      <trkpt lat="45.89405" lon="6.80148">
        <ele>999</ele>
        <time>2019-04-17T23:55:05Z</time>
      </trkpt>
      <trkpt lat="45.89417" lon="6.80162">
        <ele>999</ele>
        <time>2019-04-17T23:56:05Z</time>
      </trkpt>
      <trkpt lat="45.89445" lon="6.80206">
        <ele>997</ele>
        <time>2019-04-17T23:57:05Z</time>
      </trkpt>
      <trkpt lat="45.89465" lon="6.80243">
        <ele>996</ele>
        <time>2019-04-17T23:58:05Z</time>
      </trkpt>
      <trkpt lat="45.89525" lon="6.80385">
        <ele>997</ele>
        <time>2019-04-17T23:59:05Z</time>
      </trkpt>
      <trkpt lat="45.89551" lon="6.80459">
        <ele>997</ele>
        <time>2019-04-18T00:00:05Z</time>
      </trkpt>
      <trkpt lat="45.89555" lon="6.80464">
        <ele>997</ele>
        <time>2019-04-18T00:01:05Z</time>
      </trkpt>
      <trkpt lat="45.89554" lon="6.80468">
        <ele>997</ele>
        <time>2019-04-18T00:02:05Z</time>
      </trkpt>
      <trkpt lat="45.89555" lon="6.80476">
        <ele>997</ele>
        <time>2019-04-18T00:03:05Z</time>
      </trkpt>
      <trkpt lat="45.89561" lon="6.80481">
        <ele>996</ele>
        <time>2019-04-18T00:04:05Z</time>
      </trkpt>
      <trkpt lat="45.89565" lon="6.80481">
        <ele>996</ele>
        <time>2019-04-18T00:05:05Z</time>
      </trkpt>
      <trkpt lat="45.89577" lon="6.80571">
        <ele>995</ele>
        <time>2019-04-18T00:06:05Z</time>
      </trkpt>
      <trkpt lat="45.89582" lon="6.80693">
        <ele>998</ele>
        <time>2019-04-18T00:07:05Z</time>
      </trkpt>
      <trkpt lat="45.89588" lon="6.80764">
        <ele>998</ele>
        <time>2019-04-18T00:08:05Z</time>
      </trkpt>
      <trkpt lat="45.89597" lon="6.80916">
        <ele>1000</ele>
        <time>2019-04-18T00:09:05Z</time>
      </trkpt>
      <trkpt lat="45.89601" lon="6.80938">
        <ele>1001</ele>
        <time>2019-04-18T00:10:05Z</time>
      </trkpt>
      <trkpt lat="45.89612" lon="6.8098">
        <ele>1002</ele>
        <time>2019-04-18T00:11:05Z</time>
      </trkpt>
      <trkpt lat="45.89627" lon="6.81019">
        <ele>1002</ele>
        <time>2019-04-18T00:12:05Z</time>
      </trkpt>
      <trkpt lat="45.89643" lon="6.81052">
        <ele>1001</ele>
        <time>2019-04-18T00:13:05Z</time>
      </trkpt>
      <trkpt lat="45.89667" lon="6.81089">
        <ele>999</ele>
        <time>2019-04-18T00:14:05Z</time>
      </trkpt>
      <trkpt lat="45.89681" lon="6.81117">
        <ele>999</ele>
        <time>2019-04-18T00:15:05Z</time>
      </trkpt>
      <trkpt lat="45.89693" lon="6.81158">
        <ele>1000</ele>
        <time>2019-04-18T00:16:05Z</time>
      </trkpt>
      <trkpt lat="45.89703" lon="6.81216">
        <ele>1002</ele>
        <time>2019-04-18T00:17:05Z</time>
      </trkpt>
      <trkpt lat="45.89705" lon="6.81263">
        <ele>1003</ele>
        <time>2019-04-18T00:18:05Z</time>
      </trkpt>
      <trkpt lat="45.89698" lon="6.81403">
        <ele>1006</ele>
        <time>2019-04-18T00:19:05Z</time>
      </trkpt>
      <trkpt lat="45.89703" lon="6.81457">
        <ele>1005</ele>
        <time>2019-04-18T00:20:05Z</time>
      </trkpt>
      <trkpt lat="45.89712" lon="6.8154">
        <ele>1005</ele>
        <time>2019-04-18T00:21:05Z</time>
      </trkpt>
      <trkpt lat="45.89722" lon="6.81604">
        <ele>1004</ele>
        <time>2019-04-18T00:22:05Z</time>
      </trkpt>
      <trkpt lat="45.8973" lon="6.81636">
        <ele>1004</ele>
        <time>2019-04-18T00:23:05Z</time>
      </trkpt>
      <trkpt lat="45.89743" lon="6.81676">
        <ele>1004</ele>
        <time>2019-04-18T00:24:05Z</time>
      </trkpt>
      <trkpt lat="45.89748" lon="6.81699">
        <ele>1003</ele>
        <time>2019-04-18T00:25:05Z</time>
      </trkpt>
      <trkpt lat="45.89749" lon="6.81713">
        <ele>1003</ele>
        <time>2019-04-18T00:26:05Z</time>
      </trkpt>
      <trkpt lat="45.89749" lon="6.8175">
        <ele>1002</ele>
        <time>2019-04-18T00:27:05Z</time>
      </trkpt>
      <trkpt lat="45.89713" lon="6.81927">
        <ele>1007</ele>
        <time>2019-04-18T00:28:05Z</time>
      </trkpt>
      <trkpt lat="45.89708" lon="6.81968">
        <ele>1007</ele>
        <time>2019-04-18T00:29:05Z</time>
      </trkpt>
      <trkpt lat="45.89706" lon="6.82011">
        <ele>1006</ele>
        <time>2019-04-18T00:30:05Z</time>
      </trkpt>
      <trkpt lat="45.89714" lon="6.82092">
        <ele>1005</ele>
        <time>2019-04-18T00:31:05Z</time>
      </trkpt>
      <trkpt lat="45.89721" lon="6.82136">
        <ele>1005</ele>
        <time>2019-04-18T00:32:05Z</time>
      </trkpt>
      <trkpt lat="45.89716" lon="6.82137">
        <ele>1006</ele>
        <time>2019-04-18T00:33:05Z</time>
      </trkpt>
      <trkpt lat="45.89711" lon="6.82142">
        <ele>1006</ele>
        <time>2019-04-18T00:34:05Z</time>
      </trkpt>
      <trkpt lat="45.89708" lon="6.82148">
        <ele>1007</ele>
        <time>2019-04-18T00:35:05Z</time>
      </trkpt>
      <trkpt lat="45.89707" lon="6.82156">
        <ele>1007</ele>
        <time>2019-04-18T00:36:05Z</time>
      </trkpt>
      <trkpt lat="45.89711" lon="6.82169">
        <ele>1007</ele>
        <time>2019-04-18T00:37:05Z</time>
      </trkpt>
      <trkpt lat="45.89717" lon="6.82175">
        <ele>1007</ele>
        <time>2019-04-18T00:38:05Z</time>
      </trkpt>
      <trkpt lat="45.89724" lon="6.82175">
        <ele>1006</ele>
        <time>2019-04-18T00:39:05Z</time>
      </trkpt>
      <trkpt lat="45.8973" lon="6.8217">
        <ele>1006</ele>
        <time>2019-04-18T00:40:05Z</time>
      </trkpt>
      <trkpt lat="45.89756" lon="6.8223">
        <ele>1006</ele>
        <time>2019-04-18T00:41:05Z</time>
      </trkpt>
      <trkpt lat="45.89835" lon="6.82451">
        <ele>1006</ele>
        <time>2019-04-18T00:42:05Z</time>
      </trkpt>
      <trkpt lat="45.89856" lon="6.82497">
        <ele>1006</ele>
        <time>2019-04-18T00:43:05Z</time>
      </trkpt>
      <trkpt lat="45.89928" lon="6.82623">
        <ele>1006</ele>
        <time>2019-04-18T00:44:05Z</time>
      </trkpt>
      <trkpt lat="45.89979" lon="6.82742">
        <ele>1008</ele>
        <time>2019-04-18T00:45:05Z</time>
      </trkpt>
      <trkpt lat="45.90006" lon="6.82795">
        <ele>1006</ele>
        <time>2019-04-18T00:46:05Z</time>
      </trkpt>
      <trkpt lat="45.90033" lon="6.82835">
        <ele>1005</ele>
        <time>2019-04-18T00:47:05Z</time>
      </trkpt>
      <trkpt lat="45.90062" lon="6.82864">
        <ele>1005</ele>
        <time>2019-04-18T00:48:05Z</time>
      </trkpt>
      <trkpt lat="45.90089" lon="6.82884">
        <ele>1005</ele>
        <time>2019-04-18T00:49:05Z</time>
      </trkpt>
      <trkpt lat="45.90167" lon="6.82931">
        <ele>1006</ele>
        <time>2019-04-18T00:50:05Z</time>
      </trkpt>
      <trkpt lat="45.90191" lon="6.82953">
        <ele>1006</ele>
        <time>2019-04-18T00:51:05Z</time>
      </trkpt>
      <trkpt lat="45.90207" lon="6.82974">
        <ele>1006</ele>
        <time>2019-04-18T00:52:05Z</time>
      </trkpt>
      <trkpt lat="45.90216" lon="6.8299">
        <ele>1006</ele>
        <time>2019-04-18T00:53:05Z</time>
      </trkpt>
      <trkpt lat="45.90322" lon="6.83235">
        <ele>1005</ele>
        <time>2019-04-18T00:54:05Z</time>
      </trkpt>
      <trkpt lat="45.90399" lon="6.8343">
        <ele>1007</ele>
        <time>2019-04-18T00:55:05Z</time>
      </trkpt>
      <trkpt lat="45.90408" lon="6.83457">
        <ele>1008</ele>
        <time>2019-04-18T00:56:05Z</time>
      </trkpt>
      <trkpt lat="45.90405" lon="6.83459">
        <ele>1008</ele>
        <time>2019-04-18T00:57:05Z</time>
      </trkpt>
      <trkpt lat="45.90402" lon="6.83466">
        <ele>1009</ele>
        <time>2019-04-18T00:58:05Z</time>
      </trkpt>
      <trkpt lat="45.90403" lon="6.83476">
        <ele>1009</ele>
        <time>2019-04-18T00:59:05Z</time>
      </trkpt>
      <trkpt lat="45.90409" lon="6.8348">
        <ele>1009</ele>
        <time>2019-04-18T01:00:05Z</time>
      </trkpt>
      <trkpt lat="45.90415" lon="6.83477">
        <ele>1009</ele>
        <time>2019-04-18T01:01:05Z</time>
      </trkpt>
      <trkpt lat="45.90449" lon="6.83542">
        <ele>1011</ele>
        <time>2019-04-18T01:02:05Z</time>
      </trkpt>
      <trkpt lat="45.90563" lon="6.83785">
        <ele>1015</ele>
        <time>2019-04-18T01:03:05Z</time>
      </trkpt>
      <trkpt lat="45.90617" lon="6.83898">
        <ele>1016</ele>
        <time>2019-04-18T01:04:05Z</time>
      </trkpt>
      <trkpt lat="45.90637" lon="6.83929">
        <ele>1017</ele>
        <time>2019-04-18T01:05:05Z</time>
      </trkpt>
      <trkpt lat="45.90744" lon="6.84108">
        <ele>1022</ele>
        <time>2019-04-18T01:06:05Z</time>
      </trkpt>
      <trkpt lat="45.90788" lon="6.84174">
        <ele>1021</ele>
        <time>2019-04-18T01:07:05Z</time>
      </trkpt>
      <trkpt lat="45.90874" lon="6.84312">
        <ele>1021</ele>
        <time>2019-04-18T01:08:05Z</time>
      </trkpt>
      <trkpt lat="45.90902" lon="6.84349">
        <ele>1019</ele>
        <time>2019-04-18T01:09:05Z</time>
      </trkpt>
      <trkpt lat="45.90911" lon="6.84354">
        <ele>1019</ele>
        <time>2019-04-18T01:10:05Z</time>
      </trkpt>
      <trkpt lat="45.9093" lon="6.84358">
        <ele>1019</ele>
        <time>2019-04-18T01:11:05Z</time>
      </trkpt>
      <trkpt lat="45.90945" lon="6.84356">
        <ele>1020</ele>
        <time>2019-04-18T01:12:05Z</time>
      </trkpt>
      <trkpt lat="45.90975" lon="6.84347">
        <ele>1023</ele>
        <time>2019-04-18T01:13:05Z</time>
      </trkpt>
      <trkpt lat="45.90983" lon="6.84348">
        <ele>1024</ele>
        <time>2019-04-18T01:14:05Z</time>
      </trkpt>
      <trkpt lat="45.90994" lon="6.84355">
        <ele>1024</ele>
        <time>2019-04-18T01:15:05Z</time>
      </trkpt>
      <trkpt lat="45.9101" lon="6.84375">
        <ele>1025</ele>
        <time>2019-04-18T01:16:05Z</time>
      </trkpt>
      <trkpt lat="45.91034" lon="6.84412">
        <ele>1025</ele>
        <time>2019-04-18T01:17:05Z</time>
      </trkpt>
      <trkpt lat="45.91047" lon="6.84423">
        <ele>1027</ele>
        <time>2019-04-18T01:18:05Z</time>
      </trkpt>
      <trkpt lat="45.91076" lon="6.84438">
        <ele>1030</ele>
        <time>2019-04-18T01:19:05Z</time>
      </trkpt>
      <trkpt lat="45.91087" lon="6.84446">
        <ele>1031</ele>
        <time>2019-04-18T01:20:05Z</time>
      </trkpt>
      <trkpt lat="45.91097" lon="6.84458">
        <ele>1031</ele>
        <time>2019-04-18T01:21:05Z</time>
      </trkpt>
      <trkpt lat="45.91139" lon="6.84524">
        <ele>1028</ele>
        <time>2019-04-18T01:22:05Z</time>
      </trkpt>
      <trkpt lat="45.91201" lon="6.8459">
        <ele>1020</ele>
        <time>2019-04-18T01:23:05Z</time>
      </trkpt>
      <trkpt lat="45.91238" lon="6.84619">
        <ele>1020</ele>
        <time>2019-04-18T01:24:05Z</time>
      </trkpt>
      <trkpt lat="45.91533" lon="6.84891">
        <ele>1031</ele>
        <time>2019-04-18T01:25:05Z</time>
      </trkpt>
      <trkpt lat="45.91552" lon="6.84912">
        <ele>1034</ele>
        <time>2019-04-18T01:26:05Z</time>
      </trkpt>
      <trkpt lat="45.91568" lon="6.84935">
        <ele>1034</ele>
        <time>2019-04-18T01:27:05Z</time>
      </trkpt>
      <trkpt lat="45.91578" lon="6.84965">
        <ele>1031</ele>
        <time>2019-04-18T01:28:05Z</time>
      </trkpt>
      <trkpt lat="45.91589" lon="6.85005">
        <ele>1027</ele>
        <time>2019-04-18T01:29:05Z</time>
      </trkpt>
      <trkpt lat="45.91598" lon="6.85007">
        <ele>1030</ele>
        <time>2019-04-18T01:30:05Z</time>
      </trkpt>
      <trkpt lat="45.91603" lon="6.85012">
        <ele>1031</ele>
        <time>2019-04-18T01:31:05Z</time>
      </trkpt>
      <trkpt lat="45.91616" lon="6.85045">
        <ele>1030</ele>
        <time>2019-04-18T01:32:05Z</time>
      </trkpt>
      <trkpt lat="45.91635" lon="6.851">
        <ele>1027</ele>
        <time>2019-04-18T01:33:05Z</time>
      </trkpt>
      <trkpt lat="45.91642" lon="6.85134">
        <ele>1030</ele>
        <time>2019-04-18T01:34:05Z</time>
      </trkpt>
      <trkpt lat="45.91654" lon="6.85227">
        <ele>1038</ele>
        <time>2019-04-18T01:35:05Z</time>
      </trkpt>
      <trkpt lat="45.91674" lon="6.85358">
        <ele>1039</ele>
        <time>2019-04-18T01:36:05Z</time>
      </trkpt>
      <trkpt lat="45.917" lon="6.85493">
        <ele>1043</ele>
        <time>2019-04-18T01:37:05Z</time>
      </trkpt>
      <trkpt lat="45.91736" lon="6.85721">
        <ele>1048</ele>
        <time>2019-04-18T01:38:05Z</time>
      </trkpt>
      <trkpt lat="45.91753" lon="6.85801">
        <ele>1047</ele>
        <time>2019-04-18T01:39:05Z</time>
      </trkpt>
      <trkpt lat="45.9177" lon="6.85892">
        <ele>1045</ele>
        <time>2019-04-18T01:40:05Z</time>
      </trkpt>
      <trkpt lat="45.91797" lon="6.86082">
        <ele>1047</ele>
        <time>2019-04-18T01:41:05Z</time>
      </trkpt>
      <trkpt lat="45.91813" lon="6.8622">
        <ele>1042</ele>
        <time>2019-04-18T01:42:05Z</time>
      </trkpt>
      <trkpt lat="45.91824" lon="6.86276">
        <ele>1040</ele>
        <time>2019-04-18T01:43:05Z</time>
      </trkpt>
      <trkpt lat="45.91851" lon="6.86374">
        <ele>1038</ele>
        <time>2019-04-18T01:44:05Z</time>
      </trkpt>
      <trkpt lat="45.9186" lon="6.864">
        <ele>1038</ele>
        <time>2019-04-18T01:45:05Z</time>
      </trkpt>
      <trkpt lat="45.91897" lon="6.86474">
        <ele>1038</ele>
        <time>2019-04-18T01:46:05Z</time>
      </trkpt>
      <trkpt lat="45.91904" lon="6.86491">
        <ele>1038</ele>
        <time>2019-04-18T01:47:05Z</time>
      </trkpt>
      <trkpt lat="45.91901" lon="6.86501">
        <ele>1037</ele>
        <time>2019-04-18T01:48:05Z</time>
      </trkpt>
      <trkpt lat="45.91896" lon="6.86507">
        <ele>1036</ele>
        <time>2019-04-18T01:49:05Z</time>
      </trkpt>
      <trkpt lat="45.91903" lon="6.86525">
        <ele>1036</ele>
        <time>2019-04-18T01:50:05Z</time>
      </trkpt>
      <trkpt lat="45.91901" lon="6.86529">
        <ele>1036</ele>
        <time>2019-04-18T01:51:05Z</time>
      </trkpt>
      <trkpt lat="45.919" lon="6.86538">
        <ele>1036</ele>
        <time>2019-04-18T01:52:05Z</time>
      </trkpt>
      <trkpt lat="45.91902" lon="6.86546">
        <ele>1035</ele>
        <time>2019-04-18T01:53:05Z</time>
      </trkpt>
      <trkpt lat="45.91907" lon="6.8655">
        <ele>1036</ele>
        <time>2019-04-18T01:54:05Z</time>
      </trkpt>
      <trkpt lat="45.91914" lon="6.8655">
        <ele>1036</ele>
        <time>2019-04-18T01:55:05Z</time>
      </trkpt>
      <trkpt lat="45.91917" lon="6.86548">
        <ele>1036</ele>
        <time>2019-04-18T01:56:05Z</time>
      </trkpt>
      <trkpt lat="45.91938" lon="6.86556">
        <ele>1038</ele>
        <time>2019-04-18T01:57:05Z</time>
      </trkpt>
      <trkpt lat="45.91958" lon="6.86551">
        <ele>1040</ele>
        <time>2019-04-18T01:58:05Z</time>
      </trkpt>
      <trkpt lat="45.9201" lon="6.8656">
        <ele>1044</ele>
        <time>2019-04-18T01:59:05Z</time>
      </trkpt>
      <trkpt lat="45.92025" lon="6.86569">
        <ele>1044</ele>
        <time>2019-04-18T02:00:05Z</time>
      </trkpt>
      <trkpt lat="45.92057" lon="6.86599">
        <ele>1045</ele>
        <time>2019-04-18T02:01:05Z</time>
      </trkpt>
      <trkpt lat="45.92068" lon="6.86605">
        <ele>1045</ele>
        <time>2019-04-18T02:02:05Z</time>
      </trkpt>
      <trkpt lat="45.92094" lon="6.86642">
        <ele>1046</ele>
        <time>2019-04-18T02:03:05Z</time>
      </trkpt>
      <trkpt lat="45.92104" lon="6.86653">
        <ele>1046</ele>
        <time>2019-04-18T02:04:05Z</time>
      </trkpt>
      <trkpt lat="45.92119" lon="6.86666">
        <ele>1048</ele>
        <time>2019-04-18T02:05:05Z</time>
      </trkpt>
      <trkpt lat="45.92205" lon="6.86712">
        <ele>1050</ele>
        <time>2019-04-18T02:06:05Z</time>
      </trkpt>
      <trkpt lat="45.92227" lon="6.86722">
        <ele>1049</ele>
        <time>2019-04-18T02:07:05Z</time>
      </trkpt>
      <trkpt lat="45.9224" lon="6.86725">
        <ele>1049</ele>
        <time>2019-04-18T02:08:05Z</time>
      </trkpt>
      <trkpt lat="45.92295" lon="6.86728">
        <ele>1050</ele>
        <time>2019-04-18T02:09:05Z</time>
      </trkpt>
      <trkpt lat="45.92304" lon="6.86733">
        <ele>1049</ele>
        <time>2019-04-18T02:10:05Z</time>
      </trkpt>
      <trkpt lat="45.92332" lon="6.86755">
        <ele>1048</ele>
        <time>2019-04-18T02:11:05Z</time>
      </trkpt>
      <trkpt lat="45.92336" lon="6.86756">
        <ele>1048</ele>
        <time>2019-04-18T02:12:05Z</time>
      </trkpt>
    </trkseg>
  </trk>
  <trk>
    <name><![CDATA[J1J2]]></name>
    <trkseg>
      <trkpt lat="45.04292" lon="3.88435">
        <ele>635</ele>
        <time>2019-04-16T10:53:44Z</time>
      </trkpt>
      <trkpt lat="45.04289" lon="3.88398">
        <ele>636</ele>
        <time>2019-04-16T10:54:44Z</time>
      </trkpt>
      <trkpt lat="45.04292" lon="3.8836">
        <ele>637</ele>
        <time>2019-04-16T10:55:44Z</time>
      </trkpt>
      <trkpt lat="45.04307" lon="3.88276">
        <ele>640</ele>
        <time>2019-04-16T10:56:44Z</time>
      </trkpt>
      <trkpt lat="45.04311" lon="3.8827">
        <ele>641</ele>
        <time>2019-04-16T10:57:44Z</time>
      </trkpt>
      <trkpt lat="45.04316" lon="3.88243">
        <ele>642</ele>
        <time>2019-04-16T10:58:44Z</time>
      </trkpt>
      <trkpt lat="45.0432" lon="3.88245">
        <ele>642</ele>
        <time>2019-04-16T10:59:44Z</time>
      </trkpt>
      <trkpt lat="45.0432" lon="3.88239">
        <ele>642</ele>
        <time>2019-04-16T11:00:44Z</time>
      </trkpt>
      <trkpt lat="45.04319" lon="3.88222">
        <ele>642</ele>
        <time>2019-04-16T11:01:44Z</time>
      </trkpt>
      <trkpt lat="45.04309" lon="3.88166">
        <ele>642</ele>
        <time>2019-04-16T11:02:44Z</time>
      </trkpt>
      <trkpt lat="45.04294" lon="3.88045">
        <ele>644</ele>
        <time>2019-04-16T11:03:44Z</time>
      </trkpt>
      <trkpt lat="45.04303" lon="3.88041">
        <ele>644</ele>
        <time>2019-04-16T11:04:44Z</time>
      </trkpt>
      <trkpt lat="45.04339" lon="3.88032">
        <ele>644</ele>
        <time>2019-04-16T11:05:44Z</time>
      </trkpt>
      <trkpt lat="45.04347" lon="3.88028">
        <ele>644</ele>
        <time>2019-04-16T11:06:44Z</time>
      </trkpt>
      <trkpt lat="45.04412" lon="3.88014">
        <ele>644</ele>
        <time>2019-04-16T11:07:44Z</time>
      </trkpt>
      <trkpt lat="45.04421" lon="3.8801">
        <ele>644</ele>
        <time>2019-04-16T11:08:44Z</time>
      </trkpt>
      <trkpt lat="45.04429" lon="3.88002">
        <ele>644</ele>
        <time>2019-04-16T11:09:44Z</time>
      </trkpt>
      <trkpt lat="45.04432" lon="3.87993">
        <ele>644</ele>
        <time>2019-04-16T11:10:44Z</time>
      </trkpt>
      <trkpt lat="45.04433" lon="3.8797">
        <ele>644</ele>
        <time>2019-04-16T11:11:44Z</time>
      </trkpt>
      <trkpt lat="45.04443" lon="3.87929">
        <ele>643</ele>
        <time>2019-04-16T11:12:44Z</time>
      </trkpt>
      <trkpt lat="45.04444" lon="3.87916">
        <ele>643</ele>
        <time>2019-04-16T11:13:44Z</time>
      </trkpt>
      <trkpt lat="45.04492" lon="3.87738">
        <ele>644</ele>
        <time>2019-04-16T11:14:44Z</time>
      </trkpt>
      <trkpt lat="45.04534" lon="3.87567">
        <ele>644</ele>
        <time>2019-04-16T11:15:44Z</time>
      </trkpt>
      <trkpt lat="45.04534" lon="3.87529">
        <ele>645</ele>
        <time>2019-04-16T11:16:44Z</time>
      </trkpt>
      <trkpt lat="45.04537" lon="3.87529">
        <ele>644</ele>
        <time>2019-04-16T11:17:44Z</time>
      </trkpt>
      <trkpt lat="45.04543" lon="3.8752">
        <ele>643</ele>
        <time>2019-04-16T11:18:44Z</time>
      </trkpt>
      <trkpt lat="45.04543" lon="3.87516">
        <ele>643</ele>
        <time>2019-04-16T11:19:44Z</time>
      </trkpt>
      <trkpt lat="45.04541" lon="3.87509">
        <ele>643</ele>
        <time>2019-04-16T11:20:44Z</time>
      </trkpt>
      <trkpt lat="45.04537" lon="3.87506">
        <ele>645</ele>
        <time>2019-04-16T11:21:44Z</time>
      </trkpt>
      <trkpt lat="45.0454" lon="3.87488">
        <ele>644</ele>
        <time>2019-04-16T11:22:44Z</time>
      </trkpt>
      <trkpt lat="45.04539" lon="3.87443">
        <ele>643</ele>
        <time>2019-04-16T11:23:44Z</time>
      </trkpt>
      <trkpt lat="45.04531" lon="3.87363">
        <ele>645</ele>
        <time>2019-04-16T11:24:44Z</time>
      </trkpt>
      <trkpt lat="45.04504" lon="3.87192">
        <ele>647</ele>
        <time>2019-04-16T11:25:44Z</time>
      </trkpt>
      <trkpt lat="45.04487" lon="3.87062">
        <ele>648</ele>
        <time>2019-04-16T11:26:44Z</time>
      </trkpt>
      <trkpt lat="45.04488" lon="3.87042">
        <ele>648</ele>
        <time>2019-04-16T11:27:44Z</time>
      </trkpt>
      <trkpt lat="45.04498" lon="3.87007">
        <ele>646</ele>
        <time>2019-04-16T11:28:44Z</time>
      </trkpt>
      <trkpt lat="45.04591" lon="3.86727">
        <ele>648</ele>
        <time>2019-04-16T11:29:44Z</time>
      </trkpt>
      <trkpt lat="45.0465" lon="3.86555">
        <ele>649</ele>
        <time>2019-04-16T11:30:44Z</time>
      </trkpt>
      <trkpt lat="45.04689" lon="3.8643">
        <ele>646</ele>
        <time>2019-04-16T11:31:44Z</time>
      </trkpt>
      <trkpt lat="45.04691" lon="3.86403">
        <ele>646</ele>
        <time>2019-04-16T11:32:44Z</time>
      </trkpt>
      <trkpt lat="45.04689" lon="3.86375">
        <ele>645</ele>
        <time>2019-04-16T11:33:44Z</time>
      </trkpt>
      <trkpt lat="45.04654" lon="3.86232">
        <ele>643</ele>
        <time>2019-04-16T11:34:44Z</time>
      </trkpt>
      <trkpt lat="45.04655" lon="3.86189">
        <ele>644</ele>
        <time>2019-04-16T11:35:44Z</time>
      </trkpt>
      <trkpt lat="45.0466" lon="3.86174">
        <ele>643</ele>
        <time>2019-04-16T11:36:44Z</time>
      </trkpt>
      <trkpt lat="45.04663" lon="3.86171">
        <ele>643</ele>
        <time>2019-04-16T11:37:44Z</time>
      </trkpt>
      <trkpt lat="45.04669" lon="3.86156">
        <ele>643</ele>
        <time>2019-04-16T11:38:44Z</time>
      </trkpt>
      <trkpt lat="45.04673" lon="3.86142">
        <ele>644</ele>
        <time>2019-04-16T11:39:44Z</time>
      </trkpt>
      <trkpt lat="45.04674" lon="3.86128">
        <ele>644</ele>
        <time>2019-04-16T11:40:44Z</time>
      </trkpt>
      <trkpt lat="45.04671" lon="3.86111">
        <ele>643</ele>
        <time>2019-04-16T11:41:44Z</time>
      </trkpt>
      <trkpt lat="45.04665" lon="3.86093">
        <ele>643</ele>
        <time>2019-04-16T11:42:44Z</time>
      </trkpt>
      <trkpt lat="45.04651" lon="3.8607">
        <ele>644</ele>
        <time>2019-04-16T11:43:44Z</time>
      </trkpt>
      <trkpt lat="45.04643" lon="3.86065">
        <ele>644</ele>
        <time>2019-04-16T11:44:44Z</time>
      </trkpt>
      <trkpt lat="45.04639" lon="3.86047">
        <ele>645</ele>
        <time>2019-04-16T11:45:44Z</time>
      </trkpt>
      <trkpt lat="45.04634" lon="3.86022">
        <ele>646</ele>
        <time>2019-04-16T11:46:44Z</time>
      </trkpt>
      <trkpt lat="45.04646" lon="3.85968">
        <ele>648</ele>
        <time>2019-04-16T11:47:44Z</time>
      </trkpt>
      <trkpt lat="45.04652" lon="3.85946">
        <ele>649</ele>
        <time>2019-04-16T11:48:44Z</time>
      </trkpt>
      <trkpt lat="45.04678" lon="3.85887">
        <ele>652</ele>
        <time>2019-04-16T11:49:44Z</time>
      </trkpt>
      <trkpt lat="45.04689" lon="3.85867">
        <ele>653</ele>
        <time>2019-04-16T11:50:44Z</time>
      </trkpt>
      <trkpt lat="45.04701" lon="3.8585">
        <ele>653</ele>
        <time>2019-04-16T11:51:44Z</time>
      </trkpt>
      <trkpt lat="45.04756" lon="3.85805">
        <ele>651</ele>
        <time>2019-04-16T11:52:44Z</time>
      </trkpt>
      <trkpt lat="45.04767" lon="3.85787">
        <ele>650</ele>
        <time>2019-04-16T11:53:44Z</time>
      </trkpt>
      <trkpt lat="45.04774" lon="3.85772">
        <ele>649</ele>
        <time>2019-04-16T11:54:44Z</time>
      </trkpt>
      <trkpt lat="45.04778" lon="3.85755">
        <ele>648</ele>
        <time>2019-04-16T11:55:44Z</time>
      </trkpt>
      <trkpt lat="45.0478" lon="3.85724">
        <ele>647</ele>
        <time>2019-04-16T11:56:44Z</time>
      </trkpt>
      <trkpt lat="45.04771" lon="3.85457">
        <ele>647</ele>
        <time>2019-04-16T11:57:44Z</time>
      </trkpt>
      <trkpt lat="45.04774" lon="3.85392">
        <ele>649</ele>
        <time>2019-04-16T11:58:44Z</time>
      </trkpt>
      <trkpt lat="45.04777" lon="3.85366">
        <ele>649</ele>
        <time>2019-04-16T11:59:44Z</time>
      </trkpt>
      <trkpt lat="45.0479" lon="3.85326">
        <ele>649</ele>
        <time>2019-04-16T12:00:44Z</time>
      </trkpt>
      <trkpt lat="45.04814" lon="3.85274">
        <ele>647</ele>
        <time>2019-04-16T12:01:44Z</time>
      </trkpt>
      <trkpt lat="45.04854" lon="3.8521">
        <ele>645</ele>
        <time>2019-04-16T12:02:44Z</time>
      </trkpt>
      <trkpt lat="45.04865" lon="3.85189">
        <ele>645</ele>
        <time>2019-04-16T12:03:44Z</time>
      </trkpt>
      <trkpt lat="45.04881" lon="3.85149">
        <ele>645</ele>
        <time>2019-04-16T12:04:44Z</time>
      </trkpt>
      <trkpt lat="45.0493" lon="3.8499">
        <ele>640</ele>
        <time>2019-04-16T12:05:44Z</time>
      </trkpt>
      <trkpt lat="45.0494" lon="3.84941">
        <ele>641</ele>
        <time>2019-04-16T12:06:44Z</time>
      </trkpt>
      <trkpt lat="45.04955" lon="3.84835">
        <ele>644</ele>
        <time>2019-04-16T12:07:44Z</time>
      </trkpt>
      <trkpt lat="45.04968" lon="3.84792">
        <ele>644</ele>
        <time>2019-04-16T12:08:44Z</time>
      </trkpt>
      <trkpt lat="45.05006" lon="3.84687">
        <ele>644</ele>
        <time>2019-04-16T12:09:44Z</time>
      </trkpt>
      <trkpt lat="45.05018" lon="3.84663">
        <ele>645</ele>
        <time>2019-04-16T12:10:44Z</time>
      </trkpt>
      <trkpt lat="45.05038" lon="3.8464">
        <ele>646</ele>
        <time>2019-04-16T12:11:44Z</time>
      </trkpt>
      <trkpt lat="45.0507" lon="3.84616">
        <ele>647</ele>
        <time>2019-04-16T12:12:44Z</time>
      </trkpt>
      <trkpt lat="45.05094" lon="3.84593">
        <ele>648</ele>
        <time>2019-04-16T12:13:44Z</time>
      </trkpt>
      <trkpt lat="45.05104" lon="3.84578">
        <ele>648</ele>
        <time>2019-04-16T12:14:44Z</time>
      </trkpt>
      <trkpt lat="45.05128" lon="3.84527">
        <ele>652</ele>
        <time>2019-04-16T12:15:44Z</time>
      </trkpt>
      <trkpt lat="45.05149" lon="3.84498">
        <ele>653</ele>
        <time>2019-04-16T12:16:44Z</time>
      </trkpt>
      <trkpt lat="45.052" lon="3.84438">
        <ele>655</ele>
        <time>2019-04-16T12:17:44Z</time>
      </trkpt>
      <trkpt lat="45.05243" lon="3.84391">
        <ele>653</ele>
        <time>2019-04-16T12:18:44Z</time>
      </trkpt>
      <trkpt lat="45.05312" lon="3.84325">
        <ele>653</ele>
        <time>2019-04-16T12:19:44Z</time>
      </trkpt>
      <trkpt lat="45.05467" lon="3.84194">
        <ele>658</ele>
        <time>2019-04-16T12:20:44Z</time>
      </trkpt>
      <trkpt lat="45.05598" lon="3.84101">
        <ele>651</ele>
        <time>2019-04-16T12:21:44Z</time>
      </trkpt>
      <trkpt lat="45.05647" lon="3.8407">
        <ele>652</ele>
        <time>2019-04-16T12:22:44Z</time>
      </trkpt>
      <trkpt lat="45.05782" lon="3.83989">
        <ele>656</ele>
        <time>2019-04-16T12:23:44Z</time>
      </trkpt>
      <trkpt lat="45.0581" lon="3.83965">
        <ele>657</ele>
        <time>2019-04-16T12:24:44Z</time>
      </trkpt>
      <trkpt lat="45.05832" lon="3.83935">
        <ele>658</ele>
        <time>2019-04-16T12:25:44Z</time>
      </trkpt>
      <trkpt lat="45.0585" lon="3.83897">
        <ele>661</ele>
        <time>2019-04-16T12:26:44Z</time>
      </trkpt>
      <trkpt lat="45.05856" lon="3.83877">
        <ele>662</ele>
        <time>2019-04-16T12:27:44Z</time>
      </trkpt>
      <trkpt lat="45.05863" lon="3.83851">
        <ele>664</ele>
        <time>2019-04-16T12:28:44Z</time>
      </trkpt>
      <trkpt lat="45.05887" lon="3.83683">
        <ele>679</ele>
        <time>2019-04-16T12:29:44Z</time>
      </trkpt>
      <trkpt lat="45.0589" lon="3.83648">
        <ele>680</ele>
        <time>2019-04-16T12:30:44Z</time>
      </trkpt>
      <trkpt lat="45.05891" lon="3.83612">
        <ele>681</ele>
        <time>2019-04-16T12:31:44Z</time>
      </trkpt>
      <trkpt lat="45.05889" lon="3.83581">
        <ele>682</ele>
        <time>2019-04-16T12:32:44Z</time>
      </trkpt>
      <trkpt lat="45.05885" lon="3.83547">
        <ele>683</ele>
        <time>2019-04-16T12:33:44Z</time>
      </trkpt>
      <trkpt lat="45.05878" lon="3.83518">
        <ele>684</ele>
        <time>2019-04-16T12:34:44Z</time>
      </trkpt>
      <trkpt lat="45.0587" lon="3.83488">
        <ele>686</ele>
        <time>2019-04-16T12:35:44Z</time>
      </trkpt>
      <trkpt lat="45.05681" lon="3.83023">
        <ele>702</ele>
        <time>2019-04-16T12:36:44Z</time>
      </trkpt>
      <trkpt lat="45.05667" lon="3.82986">
        <ele>699</ele>
        <time>2019-04-16T12:37:44Z</time>
      </trkpt>
      <trkpt lat="45.05659" lon="3.82952">
        <ele>700</ele>
        <time>2019-04-16T12:38:44Z</time>
      </trkpt>
      <trkpt lat="45.05654" lon="3.82927">
        <ele>699</ele>
        <time>2019-04-16T12:39:44Z</time>
      </trkpt>
      <trkpt lat="45.05649" lon="3.82882">
        <ele>701</ele>
        <time>2019-04-16T12:40:44Z</time>
      </trkpt>
      <trkpt lat="45.05648" lon="3.82851">
        <ele>702</ele>
        <time>2019-04-16T12:41:44Z</time>
      </trkpt>
      <trkpt lat="45.05651" lon="3.8281">
        <ele>702</ele>
        <time>2019-04-16T12:42:44Z</time>
      </trkpt>
      <trkpt lat="45.0566" lon="3.8273">
        <ele>701</ele>
        <time>2019-04-16T12:43:44Z</time>
      </trkpt>
      <trkpt lat="45.05673" lon="3.82639">
        <ele>702</ele>
        <time>2019-04-16T12:44:44Z</time>
      </trkpt>
      <trkpt lat="45.05696" lon="3.82543">
        <ele>707</ele>
        <time>2019-04-16T12:45:44Z</time>
      </trkpt>
      <trkpt lat="45.0581" lon="3.82158">
        <ele>718</ele>
        <time>2019-04-16T12:46:44Z</time>
      </trkpt>
      <trkpt lat="45.05869" lon="3.81946">
        <ele>729</ele>
        <time>2019-04-16T12:47:44Z</time>
      </trkpt>
      <trkpt lat="45.05883" lon="3.81887">
        <ele>731</ele>
        <time>2019-04-16T12:48:44Z</time>
      </trkpt>
      <trkpt lat="45.05888" lon="3.81854">
        <ele>732</ele>
        <time>2019-04-16T12:49:44Z</time>
      </trkpt>
      <trkpt lat="45.05894" lon="3.81782">
        <ele>734</ele>
        <time>2019-04-16T12:50:44Z</time>
      </trkpt>
      <trkpt lat="45.05894" lon="3.81738">
        <ele>735</ele>
        <time>2019-04-16T12:51:44Z</time>
      </trkpt>
      <trkpt lat="45.05867" lon="3.81199">
        <ele>743</ele>
        <time>2019-04-16T12:52:44Z</time>
      </trkpt>
      <trkpt lat="45.05861" lon="3.81136">
        <ele>747</ele>
        <time>2019-04-16T12:53:44Z</time>
      </trkpt>
      <trkpt lat="45.05846" lon="3.81071">
        <ele>748</ele>
        <time>2019-04-16T12:54:44Z</time>
      </trkpt>
      <trkpt lat="45.05775" lon="3.80867">
        <ele>752</ele>
        <time>2019-04-16T12:55:44Z</time>
      </trkpt>
      <trkpt lat="45.05751" lon="3.80801">
        <ele>753</ele>
        <time>2019-04-16T12:56:44Z</time>
      </trkpt>
      <trkpt lat="45.05675" lon="3.80607">
        <ele>758</ele>
        <time>2019-04-16T12:57:44Z</time>
      </trkpt>
      <trkpt lat="45.0566" lon="3.80559">
        <ele>757</ele>
        <time>2019-04-16T12:58:44Z</time>
      </trkpt>
      <trkpt lat="45.0565" lon="3.80491">
        <ele>758</ele>
        <time>2019-04-16T12:59:44Z</time>
      </trkpt>
      <trkpt lat="45.05648" lon="3.80421">
        <ele>761</ele>
        <time>2019-04-16T13:00:44Z</time>
      </trkpt>
      <trkpt lat="45.05645" lon="3.79929">
        <ele>792</ele>
        <time>2019-04-16T13:01:44Z</time>
      </trkpt>
      <trkpt lat="45.05644" lon="3.79896">
        <ele>793</ele>
        <time>2019-04-16T13:02:44Z</time>
      </trkpt>
      <trkpt lat="45.05616" lon="3.79616">
        <ele>806</ele>
        <time>2019-04-16T13:03:44Z</time>
      </trkpt>
      <trkpt lat="45.05615" lon="3.79582">
        <ele>808</ele>
        <time>2019-04-16T13:04:44Z</time>
      </trkpt>
      <trkpt lat="45.05618" lon="3.79533">
        <ele>810</ele>
        <time>2019-04-16T13:05:44Z</time>
      </trkpt>
      <trkpt lat="45.05621" lon="3.79504">
        <ele>811</ele>
        <time>2019-04-16T13:06:44Z</time>
      </trkpt>
      <trkpt lat="45.05628" lon="3.79469">
        <ele>812</ele>
        <time>2019-04-16T13:07:44Z</time>
      </trkpt>
      <trkpt lat="45.05636" lon="3.79437">
        <ele>813</ele>
        <time>2019-04-16T13:08:44Z</time>
      </trkpt>
      <trkpt lat="45.05659" lon="3.79374">
        <ele>814</ele>
        <time>2019-04-16T13:09:44Z</time>
      </trkpt>
      <trkpt lat="45.05745" lon="3.79166">
        <ele>816</ele>
        <time>2019-04-16T13:10:44Z</time>
      </trkpt>
      <trkpt lat="45.05759" lon="3.79136">
        <ele>816</ele>
        <time>2019-04-16T13:11:44Z</time>
      </trkpt>
      <trkpt lat="45.05769" lon="3.79118">
        <ele>816</ele>
        <time>2019-04-16T13:12:44Z</time>
      </trkpt>
      <trkpt lat="45.06113" lon="3.78591">
        <ele>826</ele>
        <time>2019-04-16T13:13:44Z</time>
      </trkpt>
      <trkpt lat="45.0614" lon="3.78554">
        <ele>826</ele>
        <time>2019-04-16T13:14:44Z</time>
      </trkpt>
      <trkpt lat="45.06164" lon="3.78526">
        <ele>825</ele>
        <time>2019-04-16T13:15:44Z</time>
      </trkpt>
      <trkpt lat="45.06186" lon="3.78503">
        <ele>825</ele>
        <time>2019-04-16T13:16:44Z</time>
      </trkpt>
      <trkpt lat="45.06376" lon="3.7833">
        <ele>837</ele>
        <time>2019-04-16T13:17:44Z</time>
      </trkpt>
      <trkpt lat="45.06391" lon="3.78313">
        <ele>838</ele>
        <time>2019-04-16T13:18:44Z</time>
      </trkpt>
      <trkpt lat="45.06428" lon="3.78267">
        <ele>838</ele>
        <time>2019-04-16T13:19:44Z</time>
      </trkpt>
      <trkpt lat="45.0644" lon="3.78247">
        <ele>838</ele>
        <time>2019-04-16T13:20:44Z</time>
      </trkpt>
      <trkpt lat="45.06464" lon="3.78204">
        <ele>839</ele>
        <time>2019-04-16T13:21:44Z</time>
      </trkpt>
      <trkpt lat="45.06636" lon="3.77849">
        <ele>846</ele>
        <time>2019-04-16T13:22:44Z</time>
      </trkpt>
      <trkpt lat="45.06657" lon="3.77801">
        <ele>847</ele>
        <time>2019-04-16T13:23:44Z</time>
      </trkpt>
      <trkpt lat="45.06672" lon="3.77751">
        <ele>846</ele>
        <time>2019-04-16T13:24:44Z</time>
      </trkpt>
      <trkpt lat="45.06679" lon="3.77722">
        <ele>846</ele>
        <time>2019-04-16T13:25:44Z</time>
      </trkpt>
      <trkpt lat="45.06683" lon="3.7769">
        <ele>845</ele>
        <time>2019-04-16T13:26:44Z</time>
      </trkpt>
      <trkpt lat="45.06686" lon="3.77657">
        <ele>845</ele>
        <time>2019-04-16T13:27:44Z</time>
      </trkpt>
      <trkpt lat="45.06686" lon="3.77592">
        <ele>844</ele>
        <time>2019-04-16T13:28:44Z</time>
      </trkpt>
      <trkpt lat="45.06682" lon="3.77556">
        <ele>844</ele>
        <time>2019-04-16T13:29:44Z</time>
      </trkpt>
      <trkpt lat="45.06676" lon="3.77517">
        <ele>845</ele>
        <time>2019-04-16T13:30:44Z</time>
      </trkpt>
      <trkpt lat="45.06642" lon="3.77331">
        <ele>844</ele>
        <time>2019-04-16T13:31:44Z</time>
      </trkpt>
      <trkpt lat="45.06639" lon="3.77298">
        <ele>844</ele>
        <time>2019-04-16T13:32:44Z</time>
      </trkpt>
      <trkpt lat="45.06638" lon="3.77269">
        <ele>843</ele>
        <time>2019-04-16T13:33:44Z</time>
      </trkpt>
      <trkpt lat="45.06639" lon="3.77234">
        <ele>843</ele>
        <time>2019-04-16T13:34:44Z</time>
      </trkpt>
      <trkpt lat="45.06685" lon="3.76747">
        <ele>848</ele>
        <time>2019-04-16T13:35:44Z</time>
      </trkpt>
      <trkpt lat="45.06692" lon="3.76711">
        <ele>849</ele>
        <time>2019-04-16T13:36:44Z</time>
      </trkpt>
      <trkpt lat="45.06698" lon="3.76688">
        <ele>849</ele>
        <time>2019-04-16T13:37:44Z</time>
      </trkpt>
      <trkpt lat="45.06708" lon="3.76663">
        <ele>850</ele>
        <time>2019-04-16T13:38:44Z</time>
      </trkpt>
      <trkpt lat="45.06733" lon="3.76618">
        <ele>852</ele>
        <time>2019-04-16T13:39:44Z</time>
      </trkpt>
      <trkpt lat="45.06753" lon="3.76592">
        <ele>853</ele>
        <time>2019-04-16T13:40:44Z</time>
      </trkpt>
      <trkpt lat="45.06881" lon="3.76462">
        <ele>854</ele>
        <time>2019-04-16T13:41:44Z</time>
      </trkpt>
      <trkpt lat="45.06914" lon="3.76428">
        <ele>853</ele>
        <time>2019-04-16T13:42:44Z</time>
      </trkpt>
      <trkpt lat="45.06929" lon="3.7641">
        <ele>853</ele>
        <time>2019-04-16T13:43:44Z</time>
      </trkpt>
      <trkpt lat="45.06943" lon="3.76388">
        <ele>853</ele>
        <time>2019-04-16T13:44:44Z</time>
      </trkpt>
      <trkpt lat="45.06954" lon="3.76365">
        <ele>853</ele>
        <time>2019-04-16T13:45:44Z</time>
      </trkpt>
      <trkpt lat="45.06961" lon="3.76344">
        <ele>854</ele>
        <time>2019-04-16T13:46:44Z</time>
      </trkpt>
      <trkpt lat="45.06967" lon="3.76319">
        <ele>853</ele>
        <time>2019-04-16T13:47:44Z</time>
      </trkpt>
      <trkpt lat="45.06969" lon="3.76295">
        <ele>853</ele>
        <time>2019-04-16T13:48:44Z</time>
      </trkpt>
      <trkpt lat="45.0697" lon="3.76266">
        <ele>852</ele>
        <time>2019-04-16T13:49:44Z</time>
      </trkpt>
      <trkpt lat="45.06966" lon="3.76238">
        <ele>851</ele>
        <time>2019-04-16T13:50:44Z</time>
      </trkpt>
      <trkpt lat="45.06961" lon="3.76214">
        <ele>851</ele>
        <time>2019-04-16T13:51:44Z</time>
      </trkpt>
      <trkpt lat="45.06954" lon="3.76197">
        <ele>850</ele>
        <time>2019-04-16T13:52:44Z</time>
      </trkpt>
      <trkpt lat="45.06951" lon="3.7618">
        <ele>850</ele>
        <time>2019-04-16T13:53:44Z</time>
      </trkpt>
      <trkpt lat="45.06949" lon="3.76158">
        <ele>849</ele>
        <time>2019-04-16T13:54:44Z</time>
      </trkpt>
      <trkpt lat="45.06952" lon="3.76147">
        <ele>848</ele>
        <time>2019-04-16T13:55:44Z</time>
      </trkpt>
      <trkpt lat="45.06952" lon="3.76139">
        <ele>847</ele>
        <time>2019-04-16T13:56:44Z</time>
      </trkpt>
      <trkpt lat="45.0695" lon="3.76132">
        <ele>847</ele>
        <time>2019-04-16T13:57:44Z</time>
      </trkpt>
      <trkpt lat="45.06947" lon="3.76127">
        <ele>847</ele>
        <time>2019-04-16T13:58:44Z</time>
      </trkpt>
      <trkpt lat="45.0694" lon="3.76121">
        <ele>847</ele>
        <time>2019-04-16T13:59:44Z</time>
      </trkpt>
      <trkpt lat="45.06936" lon="3.7612">
        <ele>847</ele>
        <time>2019-04-16T14:00:44Z</time>
      </trkpt>
      <trkpt lat="45.06927" lon="3.7611">
        <ele>847</ele>
        <time>2019-04-16T14:01:44Z</time>
      </trkpt>
      <trkpt lat="45.06911" lon="3.76076">
        <ele>846</ele>
        <time>2019-04-16T14:02:44Z</time>
      </trkpt>
      <trkpt lat="45.0684" lon="3.75906">
        <ele>848</ele>
        <time>2019-04-16T14:03:44Z</time>
      </trkpt>
      <trkpt lat="45.06791" lon="3.75786">
        <ele>850</ele>
        <time>2019-04-16T14:04:44Z</time>
      </trkpt>
      <trkpt lat="45.06788" lon="3.75767">
        <ele>850</ele>
        <time>2019-04-16T14:05:44Z</time>
      </trkpt>
      <trkpt lat="45.06789" lon="3.75745">
        <ele>850</ele>
        <time>2019-04-16T14:06:44Z</time>
      </trkpt>
      <trkpt lat="45.06794" lon="3.7571">
        <ele>851</ele>
        <time>2019-04-16T14:07:44Z</time>
      </trkpt>
      <trkpt lat="45.06873" lon="3.74961">
        <ele>867</ele>
        <time>2019-04-16T14:08:44Z</time>
      </trkpt>
      <trkpt lat="45.06873" lon="3.74942">
        <ele>867</ele>
        <time>2019-04-16T14:09:44Z</time>
      </trkpt>
      <trkpt lat="45.06869" lon="3.74903">
        <ele>867</ele>
        <time>2019-04-16T14:10:44Z</time>
      </trkpt>
      <trkpt lat="45.0687" lon="3.74863">
        <ele>866</ele>
        <time>2019-04-16T14:11:44Z</time>
      </trkpt>
      <trkpt lat="45.0685" lon="3.74837">
        <ele>867</ele>
        <time>2019-04-16T14:12:44Z</time>
      </trkpt>
      <trkpt lat="45.06758" lon="3.74646">
        <ele>874</ele>
        <time>2019-04-16T14:13:44Z</time>
      </trkpt>
      <trkpt lat="45.06726" lon="3.74568">
        <ele>875</ele>
        <time>2019-04-16T14:14:44Z</time>
      </trkpt>
      <trkpt lat="45.06716" lon="3.74517">
        <ele>876</ele>
        <time>2019-04-16T14:15:44Z</time>
      </trkpt>
      <trkpt lat="45.06698" lon="3.74031">
        <ele>882</ele>
        <time>2019-04-16T14:16:44Z</time>
      </trkpt>
      <trkpt lat="45.06707" lon="3.73986">
        <ele>882</ele>
        <time>2019-04-16T14:17:44Z</time>
      </trkpt>
      <trkpt lat="45.06762" lon="3.7382">
        <ele>883</ele>
        <time>2019-04-16T14:18:44Z</time>
      </trkpt>
      <trkpt lat="45.06775" lon="3.73743">
        <ele>885</ele>
        <time>2019-04-16T14:19:44Z</time>
      </trkpt>
      <trkpt lat="45.06779" lon="3.73654">
        <ele>887</ele>
        <time>2019-04-16T14:20:44Z</time>
      </trkpt>
      <trkpt lat="45.06758" lon="3.73494">
        <ele>894</ele>
        <time>2019-04-16T14:21:44Z</time>
      </trkpt>
      <trkpt lat="45.06767" lon="3.73309">
        <ele>897</ele>
        <time>2019-04-16T14:22:44Z</time>
      </trkpt>
      <trkpt lat="45.06778" lon="3.73253">
        <ele>899</ele>
        <time>2019-04-16T14:23:44Z</time>
      </trkpt>
      <trkpt lat="45.06804" lon="3.732">
        <ele>899</ele>
        <time>2019-04-16T14:24:44Z</time>
      </trkpt>
      <trkpt lat="45.06857" lon="3.73125">
        <ele>898</ele>
        <time>2019-04-16T14:25:44Z</time>
      </trkpt>
      <trkpt lat="45.06873" lon="3.73088">
        <ele>896</ele>
        <time>2019-04-16T14:26:44Z</time>
      </trkpt>
      <trkpt lat="45.06878" lon="3.73042">
        <ele>898</ele>
        <time>2019-04-16T14:27:44Z</time>
      </trkpt>
      <trkpt lat="45.06877" lon="3.72969">
        <ele>900</ele>
        <time>2019-04-16T14:28:44Z</time>
      </trkpt>
      <trkpt lat="45.06867" lon="3.72894">
        <ele>903</ele>
        <time>2019-04-16T14:29:44Z</time>
      </trkpt>
      <trkpt lat="45.06814" lon="3.72718">
        <ele>905</ele>
        <time>2019-04-16T14:30:44Z</time>
      </trkpt>
      <trkpt lat="45.06773" lon="3.72653">
        <ele>910</ele>
        <time>2019-04-16T14:31:44Z</time>
      </trkpt>
      <trkpt lat="45.06751" lon="3.72606">
        <ele>911</ele>
        <time>2019-04-16T14:32:44Z</time>
      </trkpt>
      <trkpt lat="45.06682" lon="3.72396">
        <ele>911</ele>
        <time>2019-04-16T14:33:44Z</time>
      </trkpt>
      <trkpt lat="45.06673" lon="3.72333">
        <ele>914</ele>
        <time>2019-04-16T14:34:44Z</time>
      </trkpt>
      <trkpt lat="45.0668" lon="3.72209">
        <ele>913</ele>
        <time>2019-04-16T14:35:44Z</time>
      </trkpt>
      <trkpt lat="45.06679" lon="3.72157">
        <ele>914</ele>
        <time>2019-04-16T14:36:44Z</time>
      </trkpt>
      <trkpt lat="45.06667" lon="3.72108">
        <ele>914</ele>
        <time>2019-04-16T14:37:44Z</time>
      </trkpt>
      <trkpt lat="45.06616" lon="3.7201">
        <ele>913</ele>
        <time>2019-04-16T14:38:44Z</time>
      </trkpt>
      <trkpt lat="45.066" lon="3.71971">
        <ele>912</ele>
        <time>2019-04-16T14:39:44Z</time>
      </trkpt>
      <trkpt lat="45.06593" lon="3.71933">
        <ele>908</ele>
        <time>2019-04-16T14:40:44Z</time>
      </trkpt>
      <trkpt lat="45.0659" lon="3.71878">
        <ele>907</ele>
        <time>2019-04-16T14:41:44Z</time>
      </trkpt>
      <trkpt lat="45.06599" lon="3.71833">
        <ele>909</ele>
        <time>2019-04-16T14:42:44Z</time>
      </trkpt>
      <trkpt lat="45.06627" lon="3.71755">
        <ele>915</ele>
        <time>2019-04-16T14:43:44Z</time>
      </trkpt>
      <trkpt lat="45.06636" lon="3.71707">
        <ele>915</ele>
        <time>2019-04-16T14:44:44Z</time>
      </trkpt>
      <trkpt lat="45.06647" lon="3.71526">
        <ele>920</ele>
        <time>2019-04-16T14:45:44Z</time>
      </trkpt>
      <trkpt lat="45.06652" lon="3.71493">
        <ele>921</ele>
        <time>2019-04-16T14:46:44Z</time>
      </trkpt>
      <trkpt lat="45.06676" lon="3.71407">
        <ele>923</ele>
        <time>2019-04-16T14:47:44Z</time>
      </trkpt>
      <trkpt lat="45.06724" lon="3.71161">
        <ele>928</ele>
        <time>2019-04-16T14:48:44Z</time>
      </trkpt>
      <trkpt lat="45.06749" lon="3.71071">
        <ele>930</ele>
        <time>2019-04-16T14:49:44Z</time>
      </trkpt>
      <trkpt lat="45.06894" lon="3.70715">
        <ele>941</ele>
        <time>2019-04-16T14:50:44Z</time>
      </trkpt>
      <trkpt lat="45.06951" lon="3.70446">
        <ele>953</ele>
        <time>2019-04-16T14:51:44Z</time>
      </trkpt>
      <trkpt lat="45.06956" lon="3.70405">
        <ele>956</ele>
        <time>2019-04-16T14:52:44Z</time>
      </trkpt>
      <trkpt lat="45.06957" lon="3.70355">
        <ele>960</ele>
        <time>2019-04-16T14:53:44Z</time>
      </trkpt>
      <trkpt lat="45.0694" lon="3.7024">
        <ele>963</ele>
        <time>2019-04-16T14:54:44Z</time>
      </trkpt>
      <trkpt lat="45.06935" lon="3.70217">
        <ele>962</ele>
        <time>2019-04-16T14:55:44Z</time>
      </trkpt>
      <trkpt lat="45.06917" lon="3.702">
        <ele>960</ele>
        <time>2019-04-16T14:56:44Z</time>
      </trkpt>
      <trkpt lat="45.06831" lon="3.70197">
        <ele>959</ele>
        <time>2019-04-16T14:57:44Z</time>
      </trkpt>
      <trkpt lat="45.0679" lon="3.70181">
        <ele>959</ele>
        <time>2019-04-16T14:58:44Z</time>
      </trkpt>
      <trkpt lat="45.06596" lon="3.70044">
        <ele>956</ele>
        <time>2019-04-16T14:59:44Z</time>
      </trkpt>
      <trkpt lat="45.06572" lon="3.70021">
        <ele>956</ele>
        <time>2019-04-16T15:00:44Z</time>
      </trkpt>
      <trkpt lat="45.06555" lon="3.69989">
        <ele>956</ele>
        <time>2019-04-16T15:01:44Z</time>
      </trkpt>
      <trkpt lat="45.06548" lon="3.69947">
        <ele>956</ele>
        <time>2019-04-16T15:02:44Z</time>
      </trkpt>
      <trkpt lat="45.06552" lon="3.69691">
        <ele>958</ele>
        <time>2019-04-16T15:03:44Z</time>
      </trkpt>
      <trkpt lat="45.06557" lon="3.69666">
        <ele>958</ele>
        <time>2019-04-16T15:04:44Z</time>
      </trkpt>
      <trkpt lat="45.06566" lon="3.69645">
        <ele>957</ele>
        <time>2019-04-16T15:05:44Z</time>
      </trkpt>
      <trkpt lat="45.0658" lon="3.69635">
        <ele>954</ele>
        <time>2019-04-16T15:06:44Z</time>
      </trkpt>
      <trkpt lat="45.066" lon="3.69628">
        <ele>955</ele>
        <time>2019-04-16T15:07:44Z</time>
      </trkpt>
      <trkpt lat="45.06619" lon="3.69631">
        <ele>956</ele>
        <time>2019-04-16T15:08:44Z</time>
      </trkpt>
      <trkpt lat="45.06682" lon="3.69654">
        <ele>954</ele>
        <time>2019-04-16T15:09:44Z</time>
      </trkpt>
      <trkpt lat="45.06719" lon="3.69655">
        <ele>956</ele>
        <time>2019-04-16T15:10:44Z</time>
      </trkpt>
      <trkpt lat="45.06745" lon="3.69642">
        <ele>959</ele>
        <time>2019-04-16T15:11:44Z</time>
      </trkpt>
      <trkpt lat="45.06776" lon="3.69623">
        <ele>960</ele>
        <time>2019-04-16T15:12:44Z</time>
      </trkpt>
      <trkpt lat="45.06806" lon="3.69596">
        <ele>961</ele>
        <time>2019-04-16T15:13:44Z</time>
      </trkpt>
      <trkpt lat="45.06834" lon="3.69563">
        <ele>962</ele>
        <time>2019-04-16T15:14:44Z</time>
      </trkpt>
      <trkpt lat="45.06854" lon="3.69523">
        <ele>966</ele>
        <time>2019-04-16T15:15:44Z</time>
      </trkpt>
      <trkpt lat="45.06912" lon="3.69348">
        <ele>977</ele>
        <time>2019-04-16T15:16:44Z</time>
      </trkpt>
      <trkpt lat="45.0701" lon="3.69167">
        <ele>988</ele>
        <time>2019-04-16T15:17:44Z</time>
      </trkpt>
      <trkpt lat="45.07064" lon="3.69111">
        <ele>993</ele>
        <time>2019-04-16T15:18:44Z</time>
      </trkpt>
      <trkpt lat="45.07093" lon="3.6909">
        <ele>995</ele>
        <time>2019-04-16T15:19:44Z</time>
      </trkpt>
      <trkpt lat="45.07131" lon="3.69073">
        <ele>995</ele>
        <time>2019-04-16T15:20:44Z</time>
      </trkpt>
      <trkpt lat="45.07255" lon="3.69041">
        <ele>995</ele>
        <time>2019-04-16T15:21:44Z</time>
      </trkpt>
      <trkpt lat="45.0731" lon="3.69034">
        <ele>996</ele>
        <time>2019-04-16T15:22:44Z</time>
      </trkpt>
      <trkpt lat="45.07321" lon="3.69025">
        <ele>997</ele>
        <time>2019-04-16T15:23:44Z</time>
      </trkpt>
      <trkpt lat="45.07326" lon="3.69005">
        <ele>1000</ele>
        <time>2019-04-16T15:24:44Z</time>
      </trkpt>
      <trkpt lat="45.07325" lon="3.68986">
        <ele>1000</ele>
        <time>2019-04-16T15:25:44Z</time>
      </trkpt>
      <trkpt lat="45.07312" lon="3.68952">
        <ele>1001</ele>
        <time>2019-04-16T15:26:44Z</time>
      </trkpt>
      <trkpt lat="45.07303" lon="3.68922">
        <ele>1002</ele>
        <time>2019-04-16T15:27:44Z</time>
      </trkpt>
      <trkpt lat="45.07297" lon="3.68895">
        <ele>1002</ele>
        <time>2019-04-16T15:28:44Z</time>
      </trkpt>
      <trkpt lat="45.07284" lon="3.68859">
        <ele>1003</ele>
        <time>2019-04-16T15:29:44Z</time>
      </trkpt>
      <trkpt lat="45.07274" lon="3.68842">
        <ele>1004</ele>
        <time>2019-04-16T15:30:44Z</time>
      </trkpt>
      <trkpt lat="45.0719" lon="3.68801">
        <ele>1013</ele>
        <time>2019-04-16T15:31:44Z</time>
      </trkpt>
      <trkpt lat="45.07153" lon="3.68763">
        <ele>1016</ele>
        <time>2019-04-16T15:32:44Z</time>
      </trkpt>
      <trkpt lat="45.07131" lon="3.68728">
        <ele>1019</ele>
        <time>2019-04-16T15:33:44Z</time>
      </trkpt>
      <trkpt lat="45.07125" lon="3.68691">
        <ele>1021</ele>
        <time>2019-04-16T15:34:44Z</time>
      </trkpt>
      <trkpt lat="45.07125" lon="3.68671">
        <ele>1021</ele>
        <time>2019-04-16T15:35:44Z</time>
      </trkpt>
      <trkpt lat="45.07135" lon="3.68649">
        <ele>1022</ele>
        <time>2019-04-16T15:36:44Z</time>
      </trkpt>
      <trkpt lat="45.07146" lon="3.68635">
        <ele>1023</ele>
        <time>2019-04-16T15:37:44Z</time>
      </trkpt>
      <trkpt lat="45.07257" lon="3.68579">
        <ele>1026</ele>
        <time>2019-04-16T15:38:44Z</time>
      </trkpt>
      <trkpt lat="45.07276" lon="3.68567">
        <ele>1028</ele>
        <time>2019-04-16T15:39:44Z</time>
      </trkpt>
      <trkpt lat="45.07301" lon="3.68537">
        <ele>1031</ele>
        <time>2019-04-16T15:40:44Z</time>
      </trkpt>
      <trkpt lat="45.07323" lon="3.68477">
        <ele>1039</ele>
        <time>2019-04-16T15:41:44Z</time>
      </trkpt>
      <trkpt lat="45.07337" lon="3.68459">
        <ele>1041</ele>
        <time>2019-04-16T15:42:44Z</time>
      </trkpt>
      <trkpt lat="45.07367" lon="3.68437">
        <ele>1042</ele>
        <time>2019-04-16T15:43:44Z</time>
      </trkpt>
      <trkpt lat="45.07474" lon="3.68354">
        <ele>1049</ele>
        <time>2019-04-16T15:44:44Z</time>
      </trkpt>
      <trkpt lat="45.07492" lon="3.68333">
        <ele>1051</ele>
        <time>2019-04-16T15:45:44Z</time>
      </trkpt>
      <trkpt lat="45.07509" lon="3.68301">
        <ele>1056</ele>
        <time>2019-04-16T15:46:44Z</time>
      </trkpt>
      <trkpt lat="45.07526" lon="3.68281">
        <ele>1058</ele>
        <time>2019-04-16T15:47:44Z</time>
      </trkpt>
      <trkpt lat="45.07546" lon="3.68269">
        <ele>1057</ele>
        <time>2019-04-16T15:48:44Z</time>
      </trkpt>
      <trkpt lat="45.07581" lon="3.68264">
        <ele>1053</ele>
        <time>2019-04-16T15:49:44Z</time>
      </trkpt>
      <trkpt lat="45.076" lon="3.68254">
        <ele>1054</ele>
        <time>2019-04-16T15:50:44Z</time>
      </trkpt>
      <trkpt lat="45.07615" lon="3.68231">
        <ele>1056</ele>
        <time>2019-04-16T15:51:44Z</time>
      </trkpt>
      <trkpt lat="45.07619" lon="3.682">
        <ele>1059</ele>
        <time>2019-04-16T15:52:44Z</time>
      </trkpt>
      <trkpt lat="45.07612" lon="3.68138">
        <ele>1069</ele>
        <time>2019-04-16T15:53:44Z</time>
      </trkpt>
      <trkpt lat="45.07619" lon="3.68099">
        <ele>1073</ele>
        <time>2019-04-16T15:54:44Z</time>
      </trkpt>
      <trkpt lat="45.07686" lon="3.67937">
        <ele>1076</ele>
        <time>2019-04-16T15:55:44Z</time>
      </trkpt>
      <trkpt lat="45.07745" lon="3.67859">
        <ele>1080</ele>
        <time>2019-04-16T15:56:44Z</time>
      </trkpt>
      <trkpt lat="45.07764" lon="3.67853">
        <ele>1081</ele>
        <time>2019-04-16T15:57:44Z</time>
      </trkpt>
      <trkpt lat="45.07801" lon="3.67866">
        <ele>1083</ele>
        <time>2019-04-16T15:58:44Z</time>
      </trkpt>
      <trkpt lat="45.07848" lon="3.67888">
        <ele>1085</ele>
        <time>2019-04-16T15:59:44Z</time>
      </trkpt>
      <trkpt lat="45.07867" lon="3.67891">
        <ele>1084</ele>
        <time>2019-04-16T16:00:44Z</time>
      </trkpt>
      <trkpt lat="45.07881" lon="3.67888">
        <ele>1085</ele>
        <time>2019-04-16T16:01:44Z</time>
      </trkpt>
      <trkpt lat="45.07907" lon="3.6786">
        <ele>1086</ele>
        <time>2019-04-16T16:02:44Z</time>
      </trkpt>
      <trkpt lat="45.0794" lon="3.67789">
        <ele>1085</ele>
        <time>2019-04-16T16:03:44Z</time>
      </trkpt>
      <trkpt lat="45.08008" lon="3.67632">
        <ele>1082</ele>
        <time>2019-04-16T16:04:44Z</time>
      </trkpt>
      <trkpt lat="45.0803" lon="3.67574">
        <ele>1081</ele>
        <time>2019-04-16T16:05:44Z</time>
      </trkpt>
      <trkpt lat="45.08035" lon="3.67547">
        <ele>1081</ele>
        <time>2019-04-16T16:06:44Z</time>
      </trkpt>
      <trkpt lat="45.08032" lon="3.67518">
        <ele>1081</ele>
        <time>2019-04-16T16:07:44Z</time>
      </trkpt>
      <trkpt lat="45.08004" lon="3.67438">
        <ele>1079</ele>
        <time>2019-04-16T16:08:44Z</time>
      </trkpt>
      <trkpt lat="45.07979" lon="3.67392">
        <ele>1076</ele>
        <time>2019-04-16T16:09:44Z</time>
      </trkpt>
      <trkpt lat="45.07886" lon="3.6731">
        <ele>1070</ele>
        <time>2019-04-16T16:10:44Z</time>
      </trkpt>
      <trkpt lat="45.07856" lon="3.67278">
        <ele>1066</ele>
        <time>2019-04-16T16:11:44Z</time>
      </trkpt>
      <trkpt lat="45.0782" lon="3.67232">
        <ele>1058</ele>
        <time>2019-04-16T16:12:44Z</time>
      </trkpt>
      <trkpt lat="45.07803" lon="3.67222">
        <ele>1056</ele>
        <time>2019-04-16T16:13:44Z</time>
      </trkpt>
      <trkpt lat="45.07762" lon="3.67223">
        <ele>1055</ele>
        <time>2019-04-16T16:14:44Z</time>
      </trkpt>
      <trkpt lat="45.07748" lon="3.67218">
        <ele>1054</ele>
        <time>2019-04-16T16:15:44Z</time>
      </trkpt>
      <trkpt lat="45.07725" lon="3.67197">
        <ele>1052</ele>
        <time>2019-04-16T16:16:44Z</time>
      </trkpt>
      <trkpt lat="45.07682" lon="3.67172">
        <ele>1050</ele>
        <time>2019-04-16T16:17:44Z</time>
      </trkpt>
      <trkpt lat="45.07634" lon="3.67163">
        <ele>1053</ele>
        <time>2019-04-16T16:18:44Z</time>
      </trkpt>
      <trkpt lat="45.07616" lon="3.67152">
        <ele>1054</ele>
        <time>2019-04-16T16:19:44Z</time>
      </trkpt>
      <trkpt lat="45.07603" lon="3.67135">
        <ele>1055</ele>
        <time>2019-04-16T16:20:44Z</time>
      </trkpt>
      <trkpt lat="45.07598" lon="3.67116">
        <ele>1055</ele>
        <time>2019-04-16T16:21:44Z</time>
      </trkpt>
      <trkpt lat="45.07601" lon="3.67099">
        <ele>1054</ele>
        <time>2019-04-16T16:22:44Z</time>
      </trkpt>
      <trkpt lat="45.07608" lon="3.67084">
        <ele>1052</ele>
        <time>2019-04-16T16:23:44Z</time>
      </trkpt>
      <trkpt lat="45.07755" lon="3.67011">
        <ele>1051</ele>
        <time>2019-04-16T16:24:44Z</time>
      </trkpt>
      <trkpt lat="45.0778" lon="3.66989">
        <ele>1050</ele>
        <time>2019-04-16T16:25:44Z</time>
      </trkpt>
      <trkpt lat="45.07801" lon="3.66946">
        <ele>1052</ele>
        <time>2019-04-16T16:26:44Z</time>
      </trkpt>
      <trkpt lat="45.07819" lon="3.66916">
        <ele>1052</ele>
        <time>2019-04-16T16:27:44Z</time>
      </trkpt>
      <trkpt lat="45.0785" lon="3.66885">
        <ele>1048</ele>
        <time>2019-04-16T16:28:44Z</time>
      </trkpt>
      <trkpt lat="45.07868" lon="3.66854">
        <ele>1046</ele>
        <time>2019-04-16T16:29:44Z</time>
      </trkpt>
      <trkpt lat="45.07891" lon="3.6682">
        <ele>1043</ele>
        <time>2019-04-16T16:30:44Z</time>
      </trkpt>
      <trkpt lat="45.07906" lon="3.66795">
        <ele>1041</ele>
        <time>2019-04-16T16:31:44Z</time>
      </trkpt>
      <trkpt lat="45.0793" lon="3.66716">
        <ele>1042</ele>
        <time>2019-04-16T16:32:44Z</time>
      </trkpt>
      <trkpt lat="45.07942" lon="3.66687">
        <ele>1042</ele>
        <time>2019-04-16T16:33:44Z</time>
      </trkpt>
      <trkpt lat="45.07969" lon="3.66654">
        <ele>1040</ele>
        <time>2019-04-16T16:34:44Z</time>
      </trkpt>
      <trkpt lat="45.08018" lon="3.66585">
        <ele>1038</ele>
        <time>2019-04-16T16:35:44Z</time>
      </trkpt>
      <trkpt lat="45.08067" lon="3.66533">
        <ele>1035</ele>
        <time>2019-04-16T16:36:44Z</time>
      </trkpt>
      <trkpt lat="45.08193" lon="3.66417">
        <ele>1033</ele>
        <time>2019-04-16T16:37:44Z</time>
      </trkpt>
      <trkpt lat="45.08246" lon="3.66365">
        <ele>1034</ele>
        <time>2019-04-16T16:38:44Z</time>
      </trkpt>
      <trkpt lat="45.08278" lon="3.66328">
        <ele>1035</ele>
        <time>2019-04-16T16:39:44Z</time>
      </trkpt>
      <trkpt lat="45.08415" lon="3.66091">
        <ele>1026</ele>
        <time>2019-04-16T16:40:44Z</time>
      </trkpt>
      <trkpt lat="45.08502" lon="3.66014">
        <ele>1022</ele>
        <time>2019-04-16T16:41:44Z</time>
      </trkpt>
      <trkpt lat="45.0852" lon="3.66005">
        <ele>1022</ele>
        <time>2019-04-16T16:42:44Z</time>
      </trkpt>
      <trkpt lat="45.08583" lon="3.65981">
        <ele>1021</ele>
        <time>2019-04-16T16:43:44Z</time>
      </trkpt>
      <trkpt lat="45.086" lon="3.65966">
        <ele>1021</ele>
        <time>2019-04-16T16:44:44Z</time>
      </trkpt>
      <trkpt lat="45.08627" lon="3.65929">
        <ele>1023</ele>
        <time>2019-04-16T16:45:44Z</time>
      </trkpt>
      <trkpt lat="45.08677" lon="3.65828">
        <ele>1025</ele>
        <time>2019-04-16T16:46:44Z</time>
      </trkpt>
      <trkpt lat="45.08731" lon="3.65711">
        <ele>1024</ele>
        <time>2019-04-16T16:47:44Z</time>
      </trkpt>
      <trkpt lat="45.08747" lon="3.65663">
        <ele>1023</ele>
        <time>2019-04-16T16:48:44Z</time>
      </trkpt>
      <trkpt lat="45.08796" lon="3.65441">
        <ele>1020</ele>
        <time>2019-04-16T16:49:44Z</time>
      </trkpt>
      <trkpt lat="45.08807" lon="3.65337">
        <ele>1020</ele>
        <time>2019-04-16T16:50:44Z</time>
      </trkpt>
      <trkpt lat="45.08812" lon="3.65302">
        <ele>1020</ele>
        <time>2019-04-16T16:51:44Z</time>
      </trkpt>
      <trkpt lat="45.08828" lon="3.65258">
        <ele>1020</ele>
        <time>2019-04-16T16:52:44Z</time>
      </trkpt>
      <trkpt lat="45.08858" lon="3.65208">
        <ele>1019</ele>
        <time>2019-04-16T16:53:44Z</time>
      </trkpt>
      <trkpt lat="45.08946" lon="3.65136">
        <ele>1015</ele>
        <time>2019-04-16T16:54:44Z</time>
      </trkpt>
      <trkpt lat="45.08999" lon="3.65068">
        <ele>1015</ele>
        <time>2019-04-16T16:55:44Z</time>
      </trkpt>
      <trkpt lat="45.09063" lon="3.64994">
        <ele>1010</ele>
        <time>2019-04-16T16:56:44Z</time>
      </trkpt>
      <trkpt lat="45.09151" lon="3.64901">
        <ele>1003</ele>
        <time>2019-04-16T16:57:44Z</time>
      </trkpt>
      <trkpt lat="45.09162" lon="3.64878">
        <ele>1002</ele>
        <time>2019-04-16T16:58:44Z</time>
      </trkpt>
      <trkpt lat="45.09169" lon="3.64823">
        <ele>1000</ele>
        <time>2019-04-16T16:59:44Z</time>
      </trkpt>
      <trkpt lat="45.09204" lon="3.647">
        <ele>992</ele>
        <time>2019-04-16T17:00:44Z</time>
      </trkpt>
      <trkpt lat="45.0922" lon="3.64672">
        <ele>990</ele>
        <time>2019-04-16T17:01:44Z</time>
      </trkpt>
      <trkpt lat="45.09333" lon="3.64553">
        <ele>981</ele>
        <time>2019-04-16T17:02:44Z</time>
      </trkpt>
      <trkpt lat="45.0935" lon="3.64524">
        <ele>980</ele>
        <time>2019-04-16T17:03:44Z</time>
      </trkpt>
      <trkpt lat="45.09364" lon="3.64465">
        <ele>978</ele>
        <time>2019-04-16T17:04:44Z</time>
      </trkpt>
      <trkpt lat="45.0937" lon="3.64408">
        <ele>975</ele>
        <time>2019-04-16T17:05:44Z</time>
      </trkpt>
      <trkpt lat="45.09367" lon="3.64377">
        <ele>973</ele>
        <time>2019-04-16T17:06:44Z</time>
      </trkpt>
      <trkpt lat="45.09355" lon="3.64342">
        <ele>972</ele>
        <time>2019-04-16T17:07:44Z</time>
      </trkpt>
      <trkpt lat="45.09334" lon="3.64318">
        <ele>970</ele>
        <time>2019-04-16T17:08:44Z</time>
      </trkpt>
      <trkpt lat="45.09245" lon="3.64279">
        <ele>965</ele>
        <time>2019-04-16T17:09:44Z</time>
      </trkpt>
      <trkpt lat="45.09213" lon="3.64256">
        <ele>963</ele>
        <time>2019-04-16T17:10:44Z</time>
      </trkpt>
      <trkpt lat="45.09188" lon="3.64211">
        <ele>962</ele>
        <time>2019-04-16T17:11:44Z</time>
      </trkpt>
      <trkpt lat="45.09179" lon="3.64153">
        <ele>959</ele>
        <time>2019-04-16T17:12:44Z</time>
      </trkpt>
      <trkpt lat="45.092" lon="3.63956">
        <ele>949</ele>
        <time>2019-04-16T17:13:44Z</time>
      </trkpt>
      <trkpt lat="45.09217" lon="3.63899">
        <ele>944</ele>
        <time>2019-04-16T17:14:44Z</time>
      </trkpt>
      <trkpt lat="45.0922" lon="3.63866">
        <ele>943</ele>
        <time>2019-04-16T17:15:44Z</time>
      </trkpt>
      <trkpt lat="45.0922" lon="3.63822">
        <ele>942</ele>
        <time>2019-04-16T17:16:44Z</time>
      </trkpt>
      <trkpt lat="45.09203" lon="3.63719">
        <ele>939</ele>
        <time>2019-04-16T17:17:44Z</time>
      </trkpt>
      <trkpt lat="45.09203" lon="3.63573">
        <ele>933</ele>
        <time>2019-04-16T17:18:44Z</time>
      </trkpt>
      <trkpt lat="45.09205" lon="3.63526">
        <ele>932</ele>
        <time>2019-04-16T17:19:44Z</time>
      </trkpt>
      <trkpt lat="45.09215" lon="3.63489">
        <ele>930</ele>
        <time>2019-04-16T17:20:44Z</time>
      </trkpt>
      <trkpt lat="45.09232" lon="3.63468">
        <ele>928</ele>
        <time>2019-04-16T17:21:44Z</time>
      </trkpt>
      <trkpt lat="45.09258" lon="3.6345">
        <ele>926</ele>
        <time>2019-04-16T17:22:44Z</time>
      </trkpt>
      <trkpt lat="45.09288" lon="3.63432">
        <ele>923</ele>
        <time>2019-04-16T17:23:44Z</time>
      </trkpt>
      <trkpt lat="45.09343" lon="3.63412">
        <ele>919</ele>
        <time>2019-04-16T17:24:44Z</time>
      </trkpt>
      <trkpt lat="45.09362" lon="3.63384">
        <ele>917</ele>
        <time>2019-04-16T17:25:44Z</time>
      </trkpt>
      <trkpt lat="45.09371" lon="3.63339">
        <ele>916</ele>
        <time>2019-04-16T17:26:44Z</time>
      </trkpt>
      <trkpt lat="45.09373" lon="3.63281">
        <ele>914</ele>
        <time>2019-04-16T17:27:44Z</time>
      </trkpt>
      <trkpt lat="45.09371" lon="3.63243">
        <ele>913</ele>
        <time>2019-04-16T17:28:44Z</time>
      </trkpt>
      <trkpt lat="45.09348" lon="3.63144">
        <ele>910</ele>
        <time>2019-04-16T17:29:44Z</time>
      </trkpt>
      <trkpt lat="45.09315" lon="3.63022">
        <ele>903</ele>
        <time>2019-04-16T17:30:44Z</time>
      </trkpt>
      <trkpt lat="45.09311" lon="3.62993">
        <ele>902</ele>
        <time>2019-04-16T17:31:44Z</time>
      </trkpt>
      <trkpt lat="45.09304" lon="3.62757">
        <ele>889</ele>
        <time>2019-04-16T17:32:44Z</time>
      </trkpt>
      <trkpt lat="45.09304" lon="3.62705">
        <ele>888</ele>
        <time>2019-04-16T17:33:44Z</time>
      </trkpt>
      <trkpt lat="45.09289" lon="3.62523">
        <ele>884</ele>
        <time>2019-04-16T17:34:44Z</time>
      </trkpt>
      <trkpt lat="45.09288" lon="3.62472">
        <ele>883</ele>
        <time>2019-04-16T17:35:44Z</time>
      </trkpt>
      <trkpt lat="45.09301" lon="3.62373">
        <ele>880</ele>
        <time>2019-04-16T17:36:44Z</time>
      </trkpt>
      <trkpt lat="45.09316" lon="3.62308">
        <ele>877</ele>
        <time>2019-04-16T17:37:44Z</time>
      </trkpt>
      <trkpt lat="45.09334" lon="3.62265">
        <ele>876</ele>
        <time>2019-04-16T17:38:44Z</time>
      </trkpt>
      <trkpt lat="45.0939" lon="3.622">
        <ele>871</ele>
        <time>2019-04-16T17:39:44Z</time>
      </trkpt>
      <trkpt lat="45.09531" lon="3.61946">
        <ele>866</ele>
        <time>2019-04-16T17:40:44Z</time>
      </trkpt>
      <trkpt lat="45.09552" lon="3.61904">
        <ele>869</ele>
        <time>2019-04-16T17:41:44Z</time>
      </trkpt>
      <trkpt lat="45.0956" lon="3.61881">
        <ele>869</ele>
        <time>2019-04-16T17:42:44Z</time>
      </trkpt>
      <trkpt lat="45.09561" lon="3.61854">
        <ele>869</ele>
        <time>2019-04-16T17:43:44Z</time>
      </trkpt>
      <trkpt lat="45.09541" lon="3.61723">
        <ele>866</ele>
        <time>2019-04-16T17:44:44Z</time>
      </trkpt>
      <trkpt lat="45.09543" lon="3.6169">
        <ele>866</ele>
        <time>2019-04-16T17:45:44Z</time>
      </trkpt>
      <trkpt lat="45.09551" lon="3.61648">
        <ele>867</ele>
        <time>2019-04-16T17:46:44Z</time>
      </trkpt>
      <trkpt lat="45.09563" lon="3.61606">
        <ele>868</ele>
        <time>2019-04-16T17:47:44Z</time>
      </trkpt>
      <trkpt lat="45.09576" lon="3.61507">
        <ele>868</ele>
        <time>2019-04-16T17:48:44Z</time>
      </trkpt>
      <trkpt lat="45.09575" lon="3.6147">
        <ele>867</ele>
        <time>2019-04-16T17:49:44Z</time>
      </trkpt>
      <trkpt lat="45.0956" lon="3.61341">
        <ele>866</ele>
        <time>2019-04-16T17:50:44Z</time>
      </trkpt>
      <trkpt lat="45.09559" lon="3.61288">
        <ele>865</ele>
        <time>2019-04-16T17:51:44Z</time>
      </trkpt>
      <trkpt lat="45.09567" lon="3.6123">
        <ele>864</ele>
        <time>2019-04-16T17:52:44Z</time>
      </trkpt>
      <trkpt lat="45.09579" lon="3.61183">
        <ele>862</ele>
        <time>2019-04-16T17:53:44Z</time>
      </trkpt>
      <trkpt lat="45.09647" lon="3.61027">
        <ele>853</ele>
        <time>2019-04-16T17:54:44Z</time>
      </trkpt>
      <trkpt lat="45.09665" lon="3.60978">
        <ele>851</ele>
        <time>2019-04-16T17:55:44Z</time>
      </trkpt>
      <trkpt lat="45.09678" lon="3.60918">
        <ele>849</ele>
        <time>2019-04-16T17:56:44Z</time>
      </trkpt>
      <trkpt lat="45.09685" lon="3.60864">
        <ele>848</ele>
        <time>2019-04-16T17:57:44Z</time>
      </trkpt>
      <trkpt lat="45.09686" lon="3.60814">
        <ele>846</ele>
        <time>2019-04-16T17:58:44Z</time>
      </trkpt>
      <trkpt lat="45.0968" lon="3.60774">
        <ele>845</ele>
        <time>2019-04-16T17:59:44Z</time>
      </trkpt>
      <trkpt lat="45.09672" lon="3.60738">
        <ele>844</ele>
        <time>2019-04-16T18:00:44Z</time>
      </trkpt>
      <trkpt lat="45.09501" lon="3.60388">
        <ele>841</ele>
        <time>2019-04-16T18:01:44Z</time>
      </trkpt>
      <trkpt lat="45.09359" lon="3.6001">
        <ele>830</ele>
        <time>2019-04-16T18:02:44Z</time>
      </trkpt>
      <trkpt lat="45.09342" lon="3.59944">
        <ele>826</ele>
        <time>2019-04-16T18:03:44Z</time>
      </trkpt>
      <trkpt lat="45.09336" lon="3.59885">
        <ele>823</ele>
        <time>2019-04-16T18:04:44Z</time>
      </trkpt>
      <trkpt lat="45.09338" lon="3.59842">
        <ele>821</ele>
        <time>2019-04-16T18:05:44Z</time>
      </trkpt>
      <trkpt lat="45.09346" lon="3.59808">
        <ele>818</ele>
        <time>2019-04-16T18:06:44Z</time>
      </trkpt>
      <trkpt lat="45.09369" lon="3.59767">
        <ele>816</ele>
        <time>2019-04-16T18:07:44Z</time>
      </trkpt>
      <trkpt lat="45.09404" lon="3.59711">
        <ele>810</ele>
        <time>2019-04-16T18:08:44Z</time>
      </trkpt>
      <trkpt lat="45.09426" lon="3.59689">
        <ele>808</ele>
        <time>2019-04-16T18:09:44Z</time>
      </trkpt>
      <trkpt lat="45.09456" lon="3.59679">
        <ele>806</ele>
        <time>2019-04-16T18:10:44Z</time>
      </trkpt>
      <trkpt lat="45.09491" lon="3.59675">
        <ele>804</ele>
        <time>2019-04-16T18:11:44Z</time>
      </trkpt>
      <trkpt lat="45.09567" lon="3.59689">
        <ele>807</ele>
        <time>2019-04-16T18:12:44Z</time>
      </trkpt>
      <trkpt lat="45.09604" lon="3.59688">
        <ele>806</ele>
        <time>2019-04-16T18:13:44Z</time>
      </trkpt>
      <trkpt lat="45.09683" lon="3.59676">
        <ele>798</ele>
        <time>2019-04-16T18:14:44Z</time>
      </trkpt>
      <trkpt lat="45.09716" lon="3.59677">
        <ele>793</ele>
        <time>2019-04-16T18:15:44Z</time>
      </trkpt>
      <trkpt lat="45.09746" lon="3.59692">
        <ele>792</ele>
        <time>2019-04-16T18:16:44Z</time>
      </trkpt>
      <trkpt lat="45.09771" lon="3.59723">
        <ele>794</ele>
        <time>2019-04-16T18:17:44Z</time>
      </trkpt>
      <trkpt lat="45.09858" lon="3.59866">
        <ele>791</ele>
        <time>2019-04-16T18:18:44Z</time>
      </trkpt>
      <trkpt lat="45.09895" lon="3.59918">
        <ele>787</ele>
        <time>2019-04-16T18:19:44Z</time>
      </trkpt>
      <trkpt lat="45.09917" lon="3.5993">
        <ele>782</ele>
        <time>2019-04-16T18:20:44Z</time>
      </trkpt>
      <trkpt lat="45.09972" lon="3.59944">
        <ele>782</ele>
        <time>2019-04-16T18:21:44Z</time>
      </trkpt>
      <trkpt lat="45.10016" lon="3.59957">
        <ele>783</ele>
        <time>2019-04-16T18:22:44Z</time>
      </trkpt>
      <trkpt lat="45.10098" lon="3.5994">
        <ele>772</ele>
        <time>2019-04-16T18:23:44Z</time>
      </trkpt>
      <trkpt lat="45.10109" lon="3.59928">
        <ele>771</ele>
        <time>2019-04-16T18:24:44Z</time>
      </trkpt>
      <trkpt lat="45.10113" lon="3.59903">
        <ele>773</ele>
        <time>2019-04-16T18:25:44Z</time>
      </trkpt>
      <trkpt lat="45.10112" lon="3.59886">
        <ele>776</ele>
        <time>2019-04-16T18:26:44Z</time>
      </trkpt>
      <trkpt lat="45.10107" lon="3.59878">
        <ele>777</ele>
        <time>2019-04-16T18:27:44Z</time>
      </trkpt>
      <trkpt lat="45.10025" lon="3.59837">
        <ele>775</ele>
        <time>2019-04-16T18:28:44Z</time>
      </trkpt>
      <trkpt lat="45.09999" lon="3.59812">
        <ele>775</ele>
        <time>2019-04-16T18:29:44Z</time>
      </trkpt>
      <trkpt lat="45.09986" lon="3.5978">
        <ele>779</ele>
        <time>2019-04-16T18:30:44Z</time>
      </trkpt>
      <trkpt lat="45.09983" lon="3.59739">
        <ele>786</ele>
        <time>2019-04-16T18:31:44Z</time>
      </trkpt>
      <trkpt lat="45.09976" lon="3.59717">
        <ele>789</ele>
        <time>2019-04-16T18:32:44Z</time>
      </trkpt>
      <trkpt lat="45.09933" lon="3.59653">
        <ele>785</ele>
        <time>2019-04-16T18:33:44Z</time>
      </trkpt>
      <trkpt lat="45.09909" lon="3.59569">
        <ele>793</ele>
        <time>2019-04-16T18:34:44Z</time>
      </trkpt>
      <trkpt lat="45.09882" lon="3.595">
        <ele>798</ele>
        <time>2019-04-16T18:35:44Z</time>
      </trkpt>
      <trkpt lat="45.09838" lon="3.59422">
        <ele>803</ele>
        <time>2019-04-16T18:36:44Z</time>
      </trkpt>
      <trkpt lat="45.09799" lon="3.59378">
        <ele>807</ele>
        <time>2019-04-16T18:37:44Z</time>
      </trkpt>
      <trkpt lat="45.09753" lon="3.59343">
        <ele>811</ele>
        <time>2019-04-16T18:38:44Z</time>
      </trkpt>
      <trkpt lat="45.09723" lon="3.59324">
        <ele>814</ele>
        <time>2019-04-16T18:39:44Z</time>
      </trkpt>
      <trkpt lat="45.09686" lon="3.59324">
        <ele>810</ele>
        <time>2019-04-16T18:40:44Z</time>
      </trkpt>
      <trkpt lat="45.0965" lon="3.59318">
        <ele>808</ele>
        <time>2019-04-16T18:41:44Z</time>
      </trkpt>
      <trkpt lat="45.09579" lon="3.59282">
        <ele>812</ele>
        <time>2019-04-16T18:42:44Z</time>
      </trkpt>
      <trkpt lat="45.09539" lon="3.59267">
        <ele>816</ele>
        <time>2019-04-16T18:43:44Z</time>
      </trkpt>
      <trkpt lat="45.09478" lon="3.59266">
        <ele>816</ele>
        <time>2019-04-16T18:44:44Z</time>
      </trkpt>
      <trkpt lat="45.09462" lon="3.59261">
        <ele>817</ele>
        <time>2019-04-16T18:45:44Z</time>
      </trkpt>
      <trkpt lat="45.0945" lon="3.59249">
        <ele>820</ele>
        <time>2019-04-16T18:46:44Z</time>
      </trkpt>
      <trkpt lat="45.09443" lon="3.59229">
        <ele>820</ele>
        <time>2019-04-16T18:47:44Z</time>
      </trkpt>
      <trkpt lat="45.09441" lon="3.59209">
        <ele>821</ele>
        <time>2019-04-16T18:48:44Z</time>
      </trkpt>
      <trkpt lat="45.09447" lon="3.59187">
        <ele>822</ele>
        <time>2019-04-16T18:49:44Z</time>
      </trkpt>
      <trkpt lat="45.09517" lon="3.59077">
        <ele>826</ele>
        <time>2019-04-16T18:50:44Z</time>
      </trkpt>
      <trkpt lat="45.09555" lon="3.58993">
        <ele>829</ele>
        <time>2019-04-16T18:51:44Z</time>
      </trkpt>
      <trkpt lat="45.09579" lon="3.58963">
        <ele>829</ele>
        <time>2019-04-16T18:52:44Z</time>
      </trkpt>
      <trkpt lat="45.09648" lon="3.58906">
        <ele>831</ele>
        <time>2019-04-16T18:53:44Z</time>
      </trkpt>
      <trkpt lat="45.09681" lon="3.58895">
        <ele>832</ele>
        <time>2019-04-16T18:54:44Z</time>
      </trkpt>
      <trkpt lat="45.09807" lon="3.58866">
        <ele>835</ele>
        <time>2019-04-16T18:55:44Z</time>
      </trkpt>
      <trkpt lat="45.09822" lon="3.58859">
        <ele>836</ele>
        <time>2019-04-16T18:56:44Z</time>
      </trkpt>
      <trkpt lat="45.09831" lon="3.58842">
        <ele>836</ele>
        <time>2019-04-16T18:57:44Z</time>
      </trkpt>
      <trkpt lat="45.09833" lon="3.58822">
        <ele>836</ele>
        <time>2019-04-16T18:58:44Z</time>
      </trkpt>
      <trkpt lat="45.0983" lon="3.58799">
        <ele>836</ele>
        <time>2019-04-16T18:59:44Z</time>
      </trkpt>
      <trkpt lat="45.09816" lon="3.5875">
        <ele>835</ele>
        <time>2019-04-16T19:00:44Z</time>
      </trkpt>
      <trkpt lat="45.09814" lon="3.5872">
        <ele>835</ele>
        <time>2019-04-16T19:01:44Z</time>
      </trkpt>
      <trkpt lat="45.09827" lon="3.58632">
        <ele>836</ele>
        <time>2019-04-16T19:02:44Z</time>
      </trkpt>
      <trkpt lat="45.09829" lon="3.58604">
        <ele>837</ele>
        <time>2019-04-16T19:03:44Z</time>
      </trkpt>
      <trkpt lat="45.09829" lon="3.58565">
        <ele>837</ele>
        <time>2019-04-16T19:04:44Z</time>
      </trkpt>
      <trkpt lat="45.09821" lon="3.58537">
        <ele>837</ele>
        <time>2019-04-16T19:05:44Z</time>
      </trkpt>
      <trkpt lat="45.09806" lon="3.58509">
        <ele>837</ele>
        <time>2019-04-16T19:06:44Z</time>
      </trkpt>
      <trkpt lat="45.09784" lon="3.58475">
        <ele>838</ele>
        <time>2019-04-16T19:07:44Z</time>
      </trkpt>
      <trkpt lat="45.09773" lon="3.58465">
        <ele>838</ele>
        <time>2019-04-16T19:08:44Z</time>
      </trkpt>
      <trkpt lat="45.09754" lon="3.58456">
        <ele>838</ele>
        <time>2019-04-16T19:09:44Z</time>
      </trkpt>
      <trkpt lat="45.09718" lon="3.58445">
        <ele>839</ele>
        <time>2019-04-16T19:10:44Z</time>
      </trkpt>
      <trkpt lat="45.09671" lon="3.58443">
        <ele>838</ele>
        <time>2019-04-16T19:11:44Z</time>
      </trkpt>
      <trkpt lat="45.09648" lon="3.5844">
        <ele>837</ele>
        <time>2019-04-16T19:12:44Z</time>
      </trkpt>
      <trkpt lat="45.09621" lon="3.58424">
        <ele>838</ele>
        <time>2019-04-16T19:13:44Z</time>
      </trkpt>
      <trkpt lat="45.09592" lon="3.58394">
        <ele>840</ele>
        <time>2019-04-16T19:14:44Z</time>
      </trkpt>
      <trkpt lat="45.09571" lon="3.58351">
        <ele>842</ele>
        <time>2019-04-16T19:15:44Z</time>
      </trkpt>
      <trkpt lat="45.09534" lon="3.58207">
        <ele>844</ele>
        <time>2019-04-16T19:16:44Z</time>
      </trkpt>
      <trkpt lat="45.09487" lon="3.58092">
        <ele>845</ele>
        <time>2019-04-16T19:17:44Z</time>
      </trkpt>
      <trkpt lat="45.09375" lon="3.57862">
        <ele>841</ele>
        <time>2019-04-16T19:18:44Z</time>
      </trkpt>
      <trkpt lat="45.09323" lon="3.57748">
        <ele>842</ele>
        <time>2019-04-16T19:19:44Z</time>
      </trkpt>
      <trkpt lat="45.09265" lon="3.57615">
        <ele>841</ele>
        <time>2019-04-16T19:20:44Z</time>
      </trkpt>
      <trkpt lat="45.09254" lon="3.57569">
        <ele>841</ele>
        <time>2019-04-16T19:21:44Z</time>
      </trkpt>
      <trkpt lat="45.09251" lon="3.57535">
        <ele>841</ele>
        <time>2019-04-16T19:22:44Z</time>
      </trkpt>
      <trkpt lat="45.09253" lon="3.57253">
        <ele>834</ele>
        <time>2019-04-16T19:23:44Z</time>
      </trkpt>
      <trkpt lat="45.09248" lon="3.57202">
        <ele>834</ele>
        <time>2019-04-16T19:24:44Z</time>
      </trkpt>
      <trkpt lat="45.09239" lon="3.57159">
        <ele>834</ele>
        <time>2019-04-16T19:25:44Z</time>
      </trkpt>
      <trkpt lat="45.09228" lon="3.5712">
        <ele>833</ele>
        <time>2019-04-16T19:26:44Z</time>
      </trkpt>
      <trkpt lat="45.09176" lon="3.56989">
        <ele>830</ele>
        <time>2019-04-16T19:27:44Z</time>
      </trkpt>
      <trkpt lat="45.09167" lon="3.56957">
        <ele>829</ele>
        <time>2019-04-16T19:28:44Z</time>
      </trkpt>
      <trkpt lat="45.09167" lon="3.56938">
        <ele>829</ele>
        <time>2019-04-16T19:29:44Z</time>
      </trkpt>
      <trkpt lat="45.09175" lon="3.56915">
        <ele>828</ele>
        <time>2019-04-16T19:30:44Z</time>
      </trkpt>
      <trkpt lat="45.09208" lon="3.56858">
        <ele>824</ele>
        <time>2019-04-16T19:31:44Z</time>
      </trkpt>
      <trkpt lat="45.09244" lon="3.56778">
        <ele>817</ele>
        <time>2019-04-16T19:32:44Z</time>
      </trkpt>
      <trkpt lat="45.09266" lon="3.5674">
        <ele>812</ele>
        <time>2019-04-16T19:33:44Z</time>
      </trkpt>
      <trkpt lat="45.09283" lon="3.56726">
        <ele>810</ele>
        <time>2019-04-16T19:34:44Z</time>
      </trkpt>
      <trkpt lat="45.09309" lon="3.56713">
        <ele>807</ele>
        <time>2019-04-16T19:35:44Z</time>
      </trkpt>
      <trkpt lat="45.09335" lon="3.56714">
        <ele>807</ele>
        <time>2019-04-16T19:36:44Z</time>
      </trkpt>
      <trkpt lat="45.09369" lon="3.56729">
        <ele>807</ele>
        <time>2019-04-16T19:37:44Z</time>
      </trkpt>
      <trkpt lat="45.09398" lon="3.56736">
        <ele>805</ele>
        <time>2019-04-16T19:38:44Z</time>
      </trkpt>
      <trkpt lat="45.09451" lon="3.56744">
        <ele>801</ele>
        <time>2019-04-16T19:39:44Z</time>
      </trkpt>
      <trkpt lat="45.09487" lon="3.56769">
        <ele>801</ele>
        <time>2019-04-16T19:40:44Z</time>
      </trkpt>
      <trkpt lat="45.09515" lon="3.56792">
        <ele>805</ele>
        <time>2019-04-16T19:41:44Z</time>
      </trkpt>
      <trkpt lat="45.0953" lon="3.56792">
        <ele>806</ele>
        <time>2019-04-16T19:42:44Z</time>
      </trkpt>
      <trkpt lat="45.09539" lon="3.56785">
        <ele>806</ele>
        <time>2019-04-16T19:43:44Z</time>
      </trkpt>
      <trkpt lat="45.09546" lon="3.56772">
        <ele>804</ele>
        <time>2019-04-16T19:44:44Z</time>
      </trkpt>
      <trkpt lat="45.09578" lon="3.56679">
        <ele>793</ele>
        <time>2019-04-16T19:45:44Z</time>
      </trkpt>
      <trkpt lat="45.09622" lon="3.56587">
        <ele>785</ele>
        <time>2019-04-16T19:46:44Z</time>
      </trkpt>
      <trkpt lat="45.09633" lon="3.56574">
        <ele>784</ele>
        <time>2019-04-16T19:47:44Z</time>
      </trkpt>
      <trkpt lat="45.09812" lon="3.56418">
        <ele>771</ele>
        <time>2019-04-16T19:48:44Z</time>
      </trkpt>
      <trkpt lat="45.09819" lon="3.56407">
        <ele>770</ele>
        <time>2019-04-16T19:49:44Z</time>
      </trkpt>
      <trkpt lat="45.09828" lon="3.56382">
        <ele>765</ele>
        <time>2019-04-16T19:50:44Z</time>
      </trkpt>
      <trkpt lat="45.0984" lon="3.56372">
        <ele>764</ele>
        <time>2019-04-16T19:51:44Z</time>
      </trkpt>
      <trkpt lat="45.09926" lon="3.56334">
        <ele>761</ele>
        <time>2019-04-16T19:52:44Z</time>
      </trkpt>
      <trkpt lat="45.10005" lon="3.56292">
        <ele>757</ele>
        <time>2019-04-16T19:53:44Z</time>
      </trkpt>
      <trkpt lat="45.1019" lon="3.56152">
        <ele>740</ele>
        <time>2019-04-16T19:54:44Z</time>
      </trkpt>
      <trkpt lat="45.1021" lon="3.56148">
        <ele>739</ele>
        <time>2019-04-16T19:55:44Z</time>
      </trkpt>
      <trkpt lat="45.10236" lon="3.56161">
        <ele>739</ele>
        <time>2019-04-16T19:56:44Z</time>
      </trkpt>
      <trkpt lat="45.10292" lon="3.56198">
        <ele>738</ele>
        <time>2019-04-16T19:57:44Z</time>
      </trkpt>
      <trkpt lat="45.10305" lon="3.562">
        <ele>736</ele>
        <time>2019-04-16T19:58:44Z</time>
      </trkpt>
      <trkpt lat="45.10318" lon="3.56198">
        <ele>735</ele>
        <time>2019-04-16T19:59:44Z</time>
      </trkpt>
      <trkpt lat="45.1033" lon="3.56181">
        <ele>731</ele>
        <time>2019-04-16T20:00:44Z</time>
      </trkpt>
      <trkpt lat="45.10333" lon="3.5617">
        <ele>729</ele>
        <time>2019-04-16T20:01:44Z</time>
      </trkpt>
      <trkpt lat="45.10333" lon="3.56158">
        <ele>728</ele>
        <time>2019-04-16T20:02:44Z</time>
      </trkpt>
      <trkpt lat="45.10325" lon="3.56137">
        <ele>727</ele>
        <time>2019-04-16T20:03:44Z</time>
      </trkpt>
      <trkpt lat="45.10309" lon="3.56107">
        <ele>727</ele>
        <time>2019-04-16T20:04:44Z</time>
      </trkpt>
      <trkpt lat="45.10302" lon="3.5609">
        <ele>726</ele>
        <time>2019-04-16T20:05:44Z</time>
      </trkpt>
      <trkpt lat="45.10296" lon="3.56059">
        <ele>724</ele>
        <time>2019-04-16T20:06:44Z</time>
      </trkpt>
      <trkpt lat="45.10297" lon="3.56039">
        <ele>723</ele>
        <time>2019-04-16T20:07:44Z</time>
      </trkpt>
      <trkpt lat="45.103" lon="3.56018">
        <ele>721</ele>
        <time>2019-04-16T20:08:44Z</time>
      </trkpt>
      <trkpt lat="45.10311" lon="3.55972">
        <ele>717</ele>
        <time>2019-04-16T20:09:44Z</time>
      </trkpt>
      <trkpt lat="45.10312" lon="3.55957">
        <ele>716</ele>
        <time>2019-04-16T20:10:44Z</time>
      </trkpt>
      <trkpt lat="45.10307" lon="3.55933">
        <ele>715</ele>
        <time>2019-04-16T20:11:44Z</time>
      </trkpt>
      <trkpt lat="45.10292" lon="3.55897">
        <ele>715</ele>
        <time>2019-04-16T20:12:44Z</time>
      </trkpt>
      <trkpt lat="45.10203" lon="3.55736">
        <ele>705</ele>
        <time>2019-04-16T20:13:44Z</time>
      </trkpt>
      <trkpt lat="45.10173" lon="3.55696">
        <ele>702</ele>
        <time>2019-04-16T20:14:44Z</time>
      </trkpt>
      <trkpt lat="45.09952" lon="3.55427">
        <ele>684</ele>
        <time>2019-04-16T20:15:44Z</time>
      </trkpt>
      <trkpt lat="45.09931" lon="3.55392">
        <ele>681</ele>
        <time>2019-04-16T20:16:44Z</time>
      </trkpt>
      <trkpt lat="45.09921" lon="3.55359">
        <ele>678</ele>
        <time>2019-04-16T20:17:44Z</time>
      </trkpt>
      <trkpt lat="45.09917" lon="3.55324">
        <ele>675</ele>
        <time>2019-04-16T20:18:44Z</time>
      </trkpt>
      <trkpt lat="45.09921" lon="3.5529">
        <ele>673</ele>
        <time>2019-04-16T20:19:44Z</time>
      </trkpt>
      <trkpt lat="45.09932" lon="3.55267">
        <ele>673</ele>
        <time>2019-04-16T20:20:44Z</time>
      </trkpt>
      <trkpt lat="45.09956" lon="3.55231">
        <ele>672</ele>
        <time>2019-04-16T20:21:44Z</time>
      </trkpt>
      <trkpt lat="45.10086" lon="3.55094">
        <ele>663</ele>
        <time>2019-04-16T20:22:44Z</time>
      </trkpt>
      <trkpt lat="45.1011" lon="3.55057">
        <ele>659</ele>
        <time>2019-04-16T20:23:44Z</time>
      </trkpt>
      <trkpt lat="45.10134" lon="3.55004">
        <ele>655</ele>
        <time>2019-04-16T20:24:44Z</time>
      </trkpt>
      <trkpt lat="45.10158" lon="3.54936">
        <ele>651</ele>
        <time>2019-04-16T20:25:44Z</time>
      </trkpt>
      <trkpt lat="45.10186" lon="3.5487">
        <ele>648</ele>
        <time>2019-04-16T20:26:44Z</time>
      </trkpt>
      <trkpt lat="45.10303" lon="3.54647">
        <ele>636</ele>
        <time>2019-04-16T20:27:44Z</time>
      </trkpt>
      <trkpt lat="45.1032" lon="3.5462">
        <ele>634</ele>
        <time>2019-04-16T20:28:44Z</time>
      </trkpt>
      <trkpt lat="45.10339" lon="3.54603">
        <ele>633</ele>
        <time>2019-04-16T20:29:44Z</time>
      </trkpt>
      <trkpt lat="45.10357" lon="3.54595">
        <ele>632</ele>
        <time>2019-04-16T20:30:44Z</time>
      </trkpt>
      <trkpt lat="45.10393" lon="3.54584">
        <ele>630</ele>
        <time>2019-04-16T20:31:44Z</time>
      </trkpt>
      <trkpt lat="45.10414" lon="3.54573">
        <ele>629</ele>
        <time>2019-04-16T20:32:44Z</time>
      </trkpt>
      <trkpt lat="45.10436" lon="3.54552">
        <ele>628</ele>
        <time>2019-04-16T20:33:44Z</time>
      </trkpt>
      <trkpt lat="45.10454" lon="3.54528">
        <ele>626</ele>
        <time>2019-04-16T20:34:44Z</time>
      </trkpt>
      <trkpt lat="45.10496" lon="3.54452">
        <ele>621</ele>
        <time>2019-04-16T20:35:44Z</time>
      </trkpt>
      <trkpt lat="45.10501" lon="3.54439">
        <ele>620</ele>
        <time>2019-04-16T20:36:44Z</time>
      </trkpt>
      <trkpt lat="45.10507" lon="3.54419">
        <ele>618</ele>
        <time>2019-04-16T20:37:44Z</time>
      </trkpt>
      <trkpt lat="45.10509" lon="3.54403">
        <ele>617</ele>
        <time>2019-04-16T20:38:44Z</time>
      </trkpt>
      <trkpt lat="45.10509" lon="3.54389">
        <ele>616</ele>
        <time>2019-04-16T20:39:44Z</time>
      </trkpt>
      <trkpt lat="45.10502" lon="3.54306">
        <ele>611</ele>
        <time>2019-04-16T20:40:44Z</time>
      </trkpt>
      <trkpt lat="45.10516" lon="3.54077">
        <ele>600</ele>
        <time>2019-04-16T20:41:44Z</time>
      </trkpt>
      <trkpt lat="45.10529" lon="3.53996">
        <ele>597</ele>
        <time>2019-04-16T20:42:44Z</time>
      </trkpt>
      <trkpt lat="45.10531" lon="3.53967">
        <ele>596</ele>
        <time>2019-04-16T20:43:44Z</time>
      </trkpt>
      <trkpt lat="45.10532" lon="3.53893">
        <ele>592</ele>
        <time>2019-04-16T20:44:44Z</time>
      </trkpt>
      <trkpt lat="45.10538" lon="3.53857">
        <ele>590</ele>
        <time>2019-04-16T20:45:44Z</time>
      </trkpt>
      <trkpt lat="45.10607" lon="3.53554">
        <ele>582</ele>
        <time>2019-04-16T20:46:44Z</time>
      </trkpt>
      <trkpt lat="45.1062" lon="3.53529">
        <ele>580</ele>
        <time>2019-04-16T20:47:44Z</time>
      </trkpt>
      <trkpt lat="45.10636" lon="3.53522">
        <ele>579</ele>
        <time>2019-04-16T20:48:44Z</time>
      </trkpt>
      <trkpt lat="45.10655" lon="3.53525">
        <ele>579</ele>
        <time>2019-04-16T20:49:44Z</time>
      </trkpt>
      <trkpt lat="45.10738" lon="3.53549">
        <ele>574</ele>
        <time>2019-04-16T20:50:44Z</time>
      </trkpt>
      <trkpt lat="45.10764" lon="3.53551">
        <ele>572</ele>
        <time>2019-04-16T20:51:44Z</time>
      </trkpt>
      <trkpt lat="45.10793" lon="3.53544">
        <ele>570</ele>
        <time>2019-04-16T20:52:44Z</time>
      </trkpt>
      <trkpt lat="45.10848" lon="3.53527">
        <ele>565</ele>
        <time>2019-04-16T20:53:44Z</time>
      </trkpt>
      <trkpt lat="45.10853" lon="3.53529">
        <ele>565</ele>
        <time>2019-04-16T20:54:44Z</time>
      </trkpt>
      <trkpt lat="45.10859" lon="3.53527">
        <ele>564</ele>
        <time>2019-04-16T20:55:44Z</time>
      </trkpt>
      <trkpt lat="45.10848" lon="3.53468">
        <ele>563</ele>
        <time>2019-04-16T20:56:44Z</time>
      </trkpt>
      <trkpt lat="45.10838" lon="3.53388">
        <ele>561</ele>
        <time>2019-04-16T20:57:44Z</time>
      </trkpt>
      <trkpt lat="45.10834" lon="3.53309">
        <ele>559</ele>
        <time>2019-04-16T20:58:44Z</time>
      </trkpt>
      <trkpt lat="45.10836" lon="3.53253">
        <ele>558</ele>
        <time>2019-04-16T20:59:44Z</time>
      </trkpt>
      <trkpt lat="45.1084" lon="3.53202">
        <ele>559</ele>
        <time>2019-04-16T21:00:44Z</time>
      </trkpt>
      <trkpt lat="45.1084" lon="3.53167">
        <ele>560</ele>
        <time>2019-04-16T21:01:44Z</time>
      </trkpt>
      <trkpt lat="45.10835" lon="3.53131">
        <ele>560</ele>
        <time>2019-04-16T21:02:44Z</time>
      </trkpt>
      <trkpt lat="45.10828" lon="3.53096">
        <ele>560</ele>
        <time>2019-04-16T21:03:44Z</time>
      </trkpt>
      <trkpt lat="45.10818" lon="3.53067">
        <ele>559</ele>
        <time>2019-04-16T21:04:44Z</time>
      </trkpt>
      <trkpt lat="45.10805" lon="3.5304">
        <ele>557</ele>
        <time>2019-04-16T21:05:44Z</time>
      </trkpt>
      <trkpt lat="45.10764" lon="3.52965">
        <ele>554</ele>
        <time>2019-04-16T21:06:44Z</time>
      </trkpt>
      <trkpt lat="45.10744" lon="3.52916">
        <ele>553</ele>
        <time>2019-04-16T21:07:44Z</time>
      </trkpt>
      <trkpt lat="45.10733" lon="3.52882">
        <ele>553</ele>
        <time>2019-04-16T21:08:44Z</time>
      </trkpt>
      <trkpt lat="45.10721" lon="3.52831">
        <ele>552</ele>
        <time>2019-04-16T21:09:44Z</time>
      </trkpt>
      <trkpt lat="45.10692" lon="3.52612">
        <ele>547</ele>
        <time>2019-04-16T21:10:44Z</time>
      </trkpt>
      <trkpt lat="45.10682" lon="3.52556">
        <ele>546</ele>
        <time>2019-04-16T21:11:44Z</time>
      </trkpt>
      <trkpt lat="45.10669" lon="3.52502">
        <ele>546</ele>
        <time>2019-04-16T21:12:44Z</time>
      </trkpt>
      <trkpt lat="45.10518" lon="3.5193">
        <ele>531</ele>
        <time>2019-04-16T21:13:44Z</time>
      </trkpt>
      <trkpt lat="45.10496" lon="3.5186">
        <ele>531</ele>
        <time>2019-04-16T21:14:44Z</time>
      </trkpt>
      <trkpt lat="45.10466" lon="3.5178">
        <ele>530</ele>
        <time>2019-04-16T21:15:44Z</time>
      </trkpt>
      <trkpt lat="45.10425" lon="3.51691">
        <ele>529</ele>
        <time>2019-04-16T21:16:44Z</time>
      </trkpt>
      <trkpt lat="45.10373" lon="3.51592">
        <ele>527</ele>
        <time>2019-04-16T21:17:44Z</time>
      </trkpt>
      <trkpt lat="45.10363" lon="3.51568">
        <ele>526</ele>
        <time>2019-04-16T21:18:44Z</time>
      </trkpt>
      <trkpt lat="45.10355" lon="3.51541">
        <ele>526</ele>
        <time>2019-04-16T21:19:44Z</time>
      </trkpt>
      <trkpt lat="45.10348" lon="3.5151">
        <ele>525</ele>
        <time>2019-04-16T21:20:44Z</time>
      </trkpt>
      <trkpt lat="45.10287" lon="3.51138">
        <ele>525</ele>
        <time>2019-04-16T21:21:44Z</time>
      </trkpt>
      <trkpt lat="45.10235" lon="3.50892">
        <ele>521</ele>
        <time>2019-04-16T21:22:44Z</time>
      </trkpt>
      <trkpt lat="45.10229" lon="3.5088">
        <ele>520</ele>
        <time>2019-04-16T21:23:44Z</time>
      </trkpt>
      <trkpt lat="45.10218" lon="3.50866">
        <ele>518</ele>
        <time>2019-04-16T21:24:44Z</time>
      </trkpt>
      <trkpt lat="45.10194" lon="3.50856">
        <ele>514</ele>
        <time>2019-04-16T21:25:44Z</time>
      </trkpt>
      <trkpt lat="45.10181" lon="3.50859">
        <ele>513</ele>
        <time>2019-04-16T21:26:44Z</time>
      </trkpt>
      <trkpt lat="45.10133" lon="3.5089">
        <ele>515</ele>
        <time>2019-04-16T21:27:44Z</time>
      </trkpt>
      <trkpt lat="45.10084" lon="3.509">
        <ele>513</ele>
        <time>2019-04-16T21:28:44Z</time>
      </trkpt>
      <trkpt lat="45.10056" lon="3.50903">
        <ele>513</ele>
        <time>2019-04-16T21:29:44Z</time>
      </trkpt>
      <trkpt lat="45.10018" lon="3.509">
        <ele>510</ele>
        <time>2019-04-16T21:30:44Z</time>
      </trkpt>
      <trkpt lat="45.09996" lon="3.50892">
        <ele>508</ele>
        <time>2019-04-16T21:31:44Z</time>
      </trkpt>
      <trkpt lat="45.09981" lon="3.50883">
        <ele>507</ele>
        <time>2019-04-16T21:32:44Z</time>
      </trkpt>
      <trkpt lat="45.09968" lon="3.5087">
        <ele>505</ele>
        <time>2019-04-16T21:33:44Z</time>
      </trkpt>
      <trkpt lat="45.09963" lon="3.50855">
        <ele>503</ele>
        <time>2019-04-16T21:34:44Z</time>
      </trkpt>
      <trkpt lat="45.09961" lon="3.50844">
        <ele>502</ele>
        <time>2019-04-16T21:35:44Z</time>
      </trkpt>
      <trkpt lat="45.09963" lon="3.50818">
        <ele>499</ele>
        <time>2019-04-16T21:36:44Z</time>
      </trkpt>
      <trkpt lat="45.09986" lon="3.50731">
        <ele>496</ele>
        <time>2019-04-16T21:37:44Z</time>
      </trkpt>
      <trkpt lat="45.09999" lon="3.50704">
        <ele>495</ele>
        <time>2019-04-16T21:38:44Z</time>
      </trkpt>
      <trkpt lat="45.10018" lon="3.50671">
        <ele>495</ele>
        <time>2019-04-16T21:39:44Z</time>
      </trkpt>
      <trkpt lat="45.10063" lon="3.50605">
        <ele>497</ele>
        <time>2019-04-16T21:40:44Z</time>
      </trkpt>
      <trkpt lat="45.1007" lon="3.50591">
        <ele>498</ele>
        <time>2019-04-16T21:41:44Z</time>
      </trkpt>
      <trkpt lat="45.10077" lon="3.5057">
        <ele>498</ele>
        <time>2019-04-16T21:42:44Z</time>
      </trkpt>
      <trkpt lat="45.10118" lon="3.50411">
        <ele>495</ele>
        <time>2019-04-16T21:43:44Z</time>
      </trkpt>
      <trkpt lat="45.10137" lon="3.50351">
        <ele>496</ele>
        <time>2019-04-16T21:44:44Z</time>
      </trkpt>
      <trkpt lat="45.1014" lon="3.50328">
        <ele>496</ele>
        <time>2019-04-16T21:45:44Z</time>
      </trkpt>
      <trkpt lat="45.10141" lon="3.50299">
        <ele>496</ele>
        <time>2019-04-16T21:46:44Z</time>
      </trkpt>
      <trkpt lat="45.10138" lon="3.50267">
        <ele>496</ele>
        <time>2019-04-16T21:47:44Z</time>
      </trkpt>
      <trkpt lat="45.10129" lon="3.50227">
        <ele>496</ele>
        <time>2019-04-16T21:48:44Z</time>
      </trkpt>
      <trkpt lat="45.10077" lon="3.50033">
        <ele>495</ele>
        <time>2019-04-16T21:49:44Z</time>
      </trkpt>
      <trkpt lat="45.10074" lon="3.5001">
        <ele>495</ele>
        <time>2019-04-16T21:50:44Z</time>
      </trkpt>
      <trkpt lat="45.10076" lon="3.49813">
        <ele>496</ele>
        <time>2019-04-16T21:51:44Z</time>
      </trkpt>
      <trkpt lat="45.10072" lon="3.49742">
        <ele>498</ele>
        <time>2019-04-16T21:52:44Z</time>
      </trkpt>
      <trkpt lat="45.10078" lon="3.49735">
        <ele>499</ele>
        <time>2019-04-16T21:53:44Z</time>
      </trkpt>
      <trkpt lat="45.10085" lon="3.49731">
        <ele>499</ele>
        <time>2019-04-16T21:54:44Z</time>
      </trkpt>
      <trkpt lat="45.10098" lon="3.49724">
        <ele>500</ele>
        <time>2019-04-16T21:55:44Z</time>
      </trkpt>
      <trkpt lat="45.10105" lon="3.49723">
        <ele>500</ele>
        <time>2019-04-16T21:56:44Z</time>
      </trkpt>
      <trkpt lat="45.10126" lon="3.49725">
        <ele>500</ele>
        <time>2019-04-16T21:57:44Z</time>
      </trkpt>
      <trkpt lat="45.10191" lon="3.49738">
        <ele>500</ele>
        <time>2019-04-16T21:58:44Z</time>
      </trkpt>
      <trkpt lat="45.10195" lon="3.49747">
        <ele>500</ele>
        <time>2019-04-16T21:59:44Z</time>
      </trkpt>
      <trkpt lat="45.10201" lon="3.49751">
        <ele>499</ele>
        <time>2019-04-16T22:00:44Z</time>
      </trkpt>
      <trkpt lat="45.10205" lon="3.49751">
        <ele>499</ele>
        <time>2019-04-16T22:01:44Z</time>
      </trkpt>
      <trkpt lat="45.10212" lon="3.49747">
        <ele>499</ele>
        <time>2019-04-16T22:02:44Z</time>
      </trkpt>
      <trkpt lat="45.10214" lon="3.49743">
        <ele>499</ele>
        <time>2019-04-16T22:03:44Z</time>
      </trkpt>
      <trkpt lat="45.10238" lon="3.4974">
        <ele>498</ele>
        <time>2019-04-16T22:04:44Z</time>
      </trkpt>
      <trkpt lat="45.10362" lon="3.49746">
        <ele>496</ele>
        <time>2019-04-16T22:05:44Z</time>
      </trkpt>
      <trkpt lat="45.10401" lon="3.49742">
        <ele>497</ele>
        <time>2019-04-16T22:06:44Z</time>
      </trkpt>
      <trkpt lat="45.10709" lon="3.49688">
        <ele>496</ele>
        <time>2019-04-16T22:07:44Z</time>
      </trkpt>
      <trkpt lat="45.10717" lon="3.49689">
        <ele>496</ele>
        <time>2019-04-16T22:08:44Z</time>
      </trkpt>
      <trkpt lat="45.1072" lon="3.49696">
        <ele>496</ele>
        <time>2019-04-16T22:09:44Z</time>
      </trkpt>
      <trkpt lat="45.10724" lon="3.497">
        <ele>495</ele>
        <time>2019-04-16T22:10:44Z</time>
      </trkpt>
      <trkpt lat="45.1073" lon="3.49701">
        <ele>495</ele>
        <time>2019-04-16T22:11:44Z</time>
      </trkpt>
      <trkpt lat="45.10734" lon="3.49699">
        <ele>495</ele>
        <time>2019-04-16T22:12:44Z</time>
      </trkpt>
      <trkpt lat="45.10738" lon="3.49695">
        <ele>495</ele>
        <time>2019-04-16T22:13:44Z</time>
      </trkpt>
      <trkpt lat="45.10741" lon="3.49684">
        <ele>495</ele>
        <time>2019-04-16T22:14:44Z</time>
      </trkpt>
      <trkpt lat="45.10741" lon="3.49676">
        <ele>495</ele>
        <time>2019-04-16T22:15:44Z</time>
      </trkpt>
      <trkpt lat="45.10817" lon="3.49639">
        <ele>494</ele>
        <time>2019-04-16T22:16:44Z</time>
      </trkpt>
      <trkpt lat="45.1087" lon="3.49602">
        <ele>493</ele>
        <time>2019-04-16T22:17:44Z</time>
      </trkpt>
      <trkpt lat="45.11203" lon="3.49292">
        <ele>493</ele>
        <time>2019-04-16T22:18:44Z</time>
      </trkpt>
      <trkpt lat="45.11282" lon="3.49231">
        <ele>495</ele>
        <time>2019-04-16T22:19:44Z</time>
      </trkpt>
      <trkpt lat="45.11291" lon="3.49226">
        <ele>495</ele>
        <time>2019-04-16T22:20:44Z</time>
      </trkpt>
      <trkpt lat="45.11296" lon="3.49228">
        <ele>495</ele>
        <time>2019-04-16T22:21:44Z</time>
      </trkpt>
      <trkpt lat="45.11305" lon="3.49226">
        <ele>495</ele>
        <time>2019-04-16T22:22:44Z</time>
      </trkpt>
      <trkpt lat="45.11312" lon="3.49216">
        <ele>495</ele>
        <time>2019-04-16T22:23:44Z</time>
      </trkpt>
      <trkpt lat="45.11318" lon="3.49197">
        <ele>496</ele>
        <time>2019-04-16T22:24:44Z</time>
      </trkpt>
      <trkpt lat="45.1133" lon="3.49184">
        <ele>496</ele>
        <time>2019-04-16T22:25:44Z</time>
      </trkpt>
      <trkpt lat="45.11347" lon="3.49168">
        <ele>495</ele>
        <time>2019-04-16T22:26:44Z</time>
      </trkpt>
      <trkpt lat="45.11406" lon="3.49107">
        <ele>496</ele>
        <time>2019-04-16T22:27:44Z</time>
      </trkpt>
      <trkpt lat="45.11449" lon="3.49066">
        <ele>501</ele>
        <time>2019-04-16T22:28:44Z</time>
      </trkpt>
      <trkpt lat="45.11475" lon="3.49044">
        <ele>506</ele>
        <time>2019-04-16T22:29:44Z</time>
      </trkpt>
      <trkpt lat="45.1151" lon="3.49032">
        <ele>506</ele>
        <time>2019-04-16T22:30:44Z</time>
      </trkpt>
      <trkpt lat="45.11611" lon="3.49028">
        <ele>499</ele>
        <time>2019-04-16T22:31:44Z</time>
      </trkpt>
      <trkpt lat="45.11623" lon="3.49031">
        <ele>498</ele>
        <time>2019-04-16T22:32:44Z</time>
      </trkpt>
      <trkpt lat="45.11639" lon="3.4902">
        <ele>498</ele>
        <time>2019-04-16T22:33:44Z</time>
      </trkpt>
      <trkpt lat="45.11707" lon="3.48996">
        <ele>496</ele>
        <time>2019-04-16T22:34:44Z</time>
      </trkpt>
      <trkpt lat="45.11903" lon="3.48933">
        <ele>492</ele>
        <time>2019-04-16T22:35:44Z</time>
      </trkpt>
      <trkpt lat="45.12153" lon="3.48824">
        <ele>498</ele>
        <time>2019-04-16T22:36:44Z</time>
      </trkpt>
      <trkpt lat="45.12236" lon="3.48772">
        <ele>499</ele>
        <time>2019-04-16T22:37:44Z</time>
      </trkpt>
      <trkpt lat="45.12303" lon="3.48726">
        <ele>495</ele>
        <time>2019-04-16T22:38:44Z</time>
      </trkpt>
      <trkpt lat="45.1236" lon="3.48684">
        <ele>494</ele>
        <time>2019-04-16T22:39:44Z</time>
      </trkpt>
      <trkpt lat="45.12451" lon="3.48589">
        <ele>494</ele>
        <time>2019-04-16T22:40:44Z</time>
      </trkpt>
      <trkpt lat="45.12433" lon="3.48578">
        <ele>494</ele>
        <time>2019-04-16T22:41:44Z</time>
      </trkpt>
      <trkpt lat="45.12413" lon="3.48553">
        <ele>496</ele>
        <time>2019-04-16T22:42:44Z</time>
      </trkpt>
      <trkpt lat="45.12402" lon="3.48527">
        <ele>498</ele>
        <time>2019-04-16T22:43:44Z</time>
      </trkpt>
      <trkpt lat="45.1239" lon="3.48479">
        <ele>501</ele>
        <time>2019-04-16T22:44:44Z</time>
      </trkpt>
      <trkpt lat="45.12354" lon="3.48487">
        <ele>502</ele>
        <time>2019-04-16T22:45:44Z</time>
      </trkpt>
      <trkpt lat="45.12319" lon="3.48479">
        <ele>504</ele>
        <time>2019-04-16T22:46:44Z</time>
      </trkpt>
      <trkpt lat="45.12281" lon="3.48466">
        <ele>506</ele>
        <time>2019-04-16T22:47:44Z</time>
      </trkpt>
      <trkpt lat="45.12262" lon="3.48464">
        <ele>506</ele>
        <time>2019-04-16T22:48:44Z</time>
      </trkpt>
      <trkpt lat="45.12253" lon="3.48477">
        <ele>506</ele>
        <time>2019-04-16T22:49:44Z</time>
      </trkpt>
      <trkpt lat="45.12252" lon="3.4849">
        <ele>505</ele>
        <time>2019-04-16T22:50:44Z</time>
      </trkpt>
      <trkpt lat="45.12235" lon="3.48501">
        <ele>507</ele>
        <time>2019-04-16T22:51:44Z</time>
      </trkpt>
      <trkpt lat="45.12217" lon="3.48517">
        <ele>509</ele>
        <time>2019-04-16T22:52:44Z</time>
      </trkpt>
      <trkpt lat="45.12205" lon="3.48536">
        <ele>511</ele>
        <time>2019-04-16T22:53:44Z</time>
      </trkpt>
      <trkpt lat="45.12199" lon="3.48554">
        <ele>513</ele>
        <time>2019-04-16T22:54:44Z</time>
      </trkpt>
      <trkpt lat="45.12196" lon="3.486">
        <ele>515</ele>
        <time>2019-04-16T22:55:44Z</time>
      </trkpt>
      <trkpt lat="45.12191" lon="3.48619">
        <ele>517</ele>
        <time>2019-04-16T22:56:44Z</time>
      </trkpt>
      <trkpt lat="45.12174" lon="3.48648">
        <ele>522</ele>
        <time>2019-04-16T22:57:44Z</time>
      </trkpt>
      <trkpt lat="45.12171" lon="3.48658">
        <ele>523</ele>
        <time>2019-04-16T22:58:44Z</time>
      </trkpt>
      <trkpt lat="45.12175" lon="3.48684">
        <ele>521</ele>
        <time>2019-04-16T22:59:44Z</time>
      </trkpt>
      <trkpt lat="45.12174" lon="3.48697">
        <ele>520</ele>
        <time>2019-04-16T23:00:44Z</time>
      </trkpt>
      <trkpt lat="45.12168" lon="3.4871">
        <ele>520</ele>
        <time>2019-04-16T23:01:44Z</time>
      </trkpt>
      <trkpt lat="45.12155" lon="3.48717">
        <ele>521</ele>
        <time>2019-04-16T23:02:44Z</time>
      </trkpt>
      <trkpt lat="45.12168" lon="3.4871">
        <ele>520</ele>
        <time>2019-04-16T23:03:44Z</time>
      </trkpt>
      <trkpt lat="45.12174" lon="3.48697">
        <ele>520</ele>
        <time>2019-04-16T23:04:44Z</time>
      </trkpt>
      <trkpt lat="45.12175" lon="3.48684">
        <ele>521</ele>
        <time>2019-04-16T23:05:44Z</time>
      </trkpt>
      <trkpt lat="45.12171" lon="3.48658">
        <ele>523</ele>
        <time>2019-04-16T23:06:44Z</time>
      </trkpt>
      <trkpt lat="45.12174" lon="3.48648">
        <ele>522</ele>
        <time>2019-04-16T23:07:44Z</time>
      </trkpt>
      <trkpt lat="45.12191" lon="3.48619">
        <ele>517</ele>
        <time>2019-04-16T23:08:44Z</time>
      </trkpt>
      <trkpt lat="45.12196" lon="3.486">
        <ele>515</ele>
        <time>2019-04-16T23:09:44Z</time>
      </trkpt>
      <trkpt lat="45.12199" lon="3.48554">
        <ele>513</ele>
        <time>2019-04-16T23:10:44Z</time>
      </trkpt>
      <trkpt lat="45.12205" lon="3.48536">
        <ele>511</ele>
        <time>2019-04-16T23:11:44Z</time>
      </trkpt>
      <trkpt lat="45.12217" lon="3.48517">
        <ele>509</ele>
        <time>2019-04-16T23:12:44Z</time>
      </trkpt>
      <trkpt lat="45.12235" lon="3.48501">
        <ele>507</ele>
        <time>2019-04-16T23:13:44Z</time>
      </trkpt>
      <trkpt lat="45.12252" lon="3.4849">
        <ele>505</ele>
        <time>2019-04-16T23:14:44Z</time>
      </trkpt>
      <trkpt lat="45.12253" lon="3.48477">
        <ele>506</ele>
        <time>2019-04-16T23:15:44Z</time>
      </trkpt>
      <trkpt lat="45.12262" lon="3.48464">
        <ele>506</ele>
        <time>2019-04-16T23:16:44Z</time>
      </trkpt>
      <trkpt lat="45.12281" lon="3.48466">
        <ele>506</ele>
        <time>2019-04-16T23:17:44Z</time>
      </trkpt>
      <trkpt lat="45.12319" lon="3.48479">
        <ele>504</ele>
        <time>2019-04-16T23:18:44Z</time>
      </trkpt>
      <trkpt lat="45.12354" lon="3.48487">
        <ele>502</ele>
        <time>2019-04-16T23:19:44Z</time>
      </trkpt>
      <trkpt lat="45.1239" lon="3.48479">
        <ele>501</ele>
        <time>2019-04-16T23:20:44Z</time>
      </trkpt>
      <trkpt lat="45.12402" lon="3.48527">
        <ele>498</ele>
        <time>2019-04-16T23:21:44Z</time>
      </trkpt>
      <trkpt lat="45.12413" lon="3.48553">
        <ele>496</ele>
        <time>2019-04-16T23:22:44Z</time>
      </trkpt>
      <trkpt lat="45.12433" lon="3.48578">
        <ele>494</ele>
        <time>2019-04-16T23:23:44Z</time>
      </trkpt>
      <trkpt lat="45.12451" lon="3.48589">
        <ele>494</ele>
        <time>2019-04-16T23:24:44Z</time>
      </trkpt>
      <trkpt lat="45.12517" lon="3.48525">
        <ele>495</ele>
        <time>2019-04-16T23:25:44Z</time>
      </trkpt>
      <trkpt lat="45.1256" lon="3.48497">
        <ele>494</ele>
        <time>2019-04-16T23:26:44Z</time>
      </trkpt>
      <trkpt lat="45.12717" lon="3.48423">
        <ele>488</ele>
        <time>2019-04-16T23:27:44Z</time>
      </trkpt>
      <trkpt lat="45.12761" lon="3.48411">
        <ele>489</ele>
        <time>2019-04-16T23:28:44Z</time>
      </trkpt>
      <trkpt lat="45.12776" lon="3.48411">
        <ele>489</ele>
        <time>2019-04-16T23:29:44Z</time>
      </trkpt>
      <trkpt lat="45.12891" lon="3.48443">
        <ele>487</ele>
        <time>2019-04-16T23:30:44Z</time>
      </trkpt>
      <trkpt lat="45.12909" lon="3.48446">
        <ele>487</ele>
        <time>2019-04-16T23:31:44Z</time>
      </trkpt>
      <trkpt lat="45.12946" lon="3.48443">
        <ele>486</ele>
        <time>2019-04-16T23:32:44Z</time>
      </trkpt>
      <trkpt lat="45.13103" lon="3.48416">
        <ele>486</ele>
        <time>2019-04-16T23:33:44Z</time>
      </trkpt>
      <trkpt lat="45.13127" lon="3.48415">
        <ele>487</ele>
        <time>2019-04-16T23:34:44Z</time>
      </trkpt>
      <trkpt lat="45.1319" lon="3.4842">
        <ele>487</ele>
        <time>2019-04-16T23:35:44Z</time>
      </trkpt>
      <trkpt lat="45.13212" lon="3.48416">
        <ele>486</ele>
        <time>2019-04-16T23:36:44Z</time>
      </trkpt>
      <trkpt lat="45.13237" lon="3.48404">
        <ele>485</ele>
        <time>2019-04-16T23:37:44Z</time>
      </trkpt>
      <trkpt lat="45.13274" lon="3.48381">
        <ele>485</ele>
        <time>2019-04-16T23:38:44Z</time>
      </trkpt>
      <trkpt lat="45.1334" lon="3.48336">
        <ele>485</ele>
        <time>2019-04-16T23:39:44Z</time>
      </trkpt>
      <trkpt lat="45.13372" lon="3.48309">
        <ele>485</ele>
        <time>2019-04-16T23:40:44Z</time>
      </trkpt>
      <trkpt lat="45.13411" lon="3.4827">
        <ele>484</ele>
        <time>2019-04-16T23:41:44Z</time>
      </trkpt>
      <trkpt lat="45.1343" lon="3.48256">
        <ele>484</ele>
        <time>2019-04-16T23:42:44Z</time>
      </trkpt>
      <trkpt lat="45.13472" lon="3.48237">
        <ele>483</ele>
        <time>2019-04-16T23:43:44Z</time>
      </trkpt>
      <trkpt lat="45.13501" lon="3.48219">
        <ele>483</ele>
        <time>2019-04-16T23:44:44Z</time>
      </trkpt>
      <trkpt lat="45.13538" lon="3.48192">
        <ele>484</ele>
        <time>2019-04-16T23:45:44Z</time>
      </trkpt>
      <trkpt lat="45.13574" lon="3.48173">
        <ele>484</ele>
        <time>2019-04-16T23:46:44Z</time>
      </trkpt>
      <trkpt lat="45.13587" lon="3.48168">
        <ele>484</ele>
        <time>2019-04-16T23:47:44Z</time>
      </trkpt>
      <trkpt lat="45.13617" lon="3.48162">
        <ele>484</ele>
        <time>2019-04-16T23:48:44Z</time>
      </trkpt>
      <trkpt lat="45.13644" lon="3.48149">
        <ele>484</ele>
        <time>2019-04-16T23:49:44Z</time>
      </trkpt>
      <trkpt lat="45.13678" lon="3.48129">
        <ele>485</ele>
        <time>2019-04-16T23:50:44Z</time>
      </trkpt>
      <trkpt lat="45.13694" lon="3.48122">
        <ele>485</ele>
        <time>2019-04-16T23:51:44Z</time>
      </trkpt>
      <trkpt lat="45.13724" lon="3.48121">
        <ele>484</ele>
        <time>2019-04-16T23:52:44Z</time>
      </trkpt>
      <trkpt lat="45.13791" lon="3.48145">
        <ele>484</ele>
        <time>2019-04-16T23:53:44Z</time>
      </trkpt>
      <trkpt lat="45.13841" lon="3.48146">
        <ele>483</ele>
        <time>2019-04-16T23:54:44Z</time>
      </trkpt>
      <trkpt lat="45.13928" lon="3.48119">
        <ele>486</ele>
        <time>2019-04-16T23:55:44Z</time>
      </trkpt>
      <trkpt lat="45.14045" lon="3.48063">
        <ele>495</ele>
        <time>2019-04-16T23:56:44Z</time>
      </trkpt>
      <trkpt lat="45.14069" lon="3.48047">
        <ele>496</ele>
        <time>2019-04-16T23:57:44Z</time>
      </trkpt>
      <trkpt lat="45.14129" lon="3.4798">
        <ele>497</ele>
        <time>2019-04-16T23:58:44Z</time>
      </trkpt>
      <trkpt lat="45.14148" lon="3.47956">
        <ele>496</ele>
        <time>2019-04-16T23:59:44Z</time>
      </trkpt>
      <trkpt lat="45.14163" lon="3.47926">
        <ele>494</ele>
        <time>2019-04-17T00:00:44Z</time>
      </trkpt>
      <trkpt lat="45.14176" lon="3.47885">
        <ele>496</ele>
        <time>2019-04-17T00:01:44Z</time>
      </trkpt>
      <trkpt lat="45.14184" lon="3.47854">
        <ele>497</ele>
        <time>2019-04-17T00:02:44Z</time>
      </trkpt>
      <trkpt lat="45.14187" lon="3.4782">
        <ele>499</ele>
        <time>2019-04-17T00:03:44Z</time>
      </trkpt>
      <trkpt lat="45.14189" lon="3.47777">
        <ele>501</ele>
        <time>2019-04-17T00:04:44Z</time>
      </trkpt>
      <trkpt lat="45.14185" lon="3.47677">
        <ele>501</ele>
        <time>2019-04-17T00:05:44Z</time>
      </trkpt>
      <trkpt lat="45.14181" lon="3.47646">
        <ele>499</ele>
        <time>2019-04-17T00:06:44Z</time>
      </trkpt>
      <trkpt lat="45.14173" lon="3.47617">
        <ele>495</ele>
        <time>2019-04-17T00:07:44Z</time>
      </trkpt>
      <trkpt lat="45.14107" lon="3.47459">
        <ele>497</ele>
        <time>2019-04-17T00:08:44Z</time>
      </trkpt>
      <trkpt lat="45.14096" lon="3.47417">
        <ele>496</ele>
        <time>2019-04-17T00:09:44Z</time>
      </trkpt>
      <trkpt lat="45.14086" lon="3.47366">
        <ele>493</ele>
        <time>2019-04-17T00:10:44Z</time>
      </trkpt>
      <trkpt lat="45.14074" lon="3.4733">
        <ele>492</ele>
        <time>2019-04-17T00:11:44Z</time>
      </trkpt>
      <trkpt lat="45.14058" lon="3.47306">
        <ele>493</ele>
        <time>2019-04-17T00:12:44Z</time>
      </trkpt>
      <trkpt lat="45.1401" lon="3.47248">
        <ele>494</ele>
        <time>2019-04-17T00:13:44Z</time>
      </trkpt>
      <trkpt lat="45.13995" lon="3.47214">
        <ele>495</ele>
        <time>2019-04-17T00:14:44Z</time>
      </trkpt>
      <trkpt lat="45.13988" lon="3.47166">
        <ele>495</ele>
        <time>2019-04-17T00:15:44Z</time>
      </trkpt>
      <trkpt lat="45.13975" lon="3.47125">
        <ele>493</ele>
        <time>2019-04-17T00:16:44Z</time>
      </trkpt>
      <trkpt lat="45.13934" lon="3.47">
        <ele>493</ele>
        <time>2019-04-17T00:17:44Z</time>
      </trkpt>
      <trkpt lat="45.13918" lon="3.46972">
        <ele>491</ele>
        <time>2019-04-17T00:18:44Z</time>
      </trkpt>
      <trkpt lat="45.13881" lon="3.46915">
        <ele>490</ele>
        <time>2019-04-17T00:19:44Z</time>
      </trkpt>
      <trkpt lat="45.1387" lon="3.46881">
        <ele>492</ele>
        <time>2019-04-17T00:20:44Z</time>
      </trkpt>
      <trkpt lat="45.13872" lon="3.46809">
        <ele>490</ele>
        <time>2019-04-17T00:21:44Z</time>
      </trkpt>
      <trkpt lat="45.1386" lon="3.46713">
        <ele>490</ele>
        <time>2019-04-17T00:22:44Z</time>
      </trkpt>
      <trkpt lat="45.13835" lon="3.46623">
        <ele>489</ele>
        <time>2019-04-17T00:23:44Z</time>
      </trkpt>
      <trkpt lat="45.13796" lon="3.46565">
        <ele>490</ele>
        <time>2019-04-17T00:24:44Z</time>
      </trkpt>
      <trkpt lat="45.13772" lon="3.46539">
        <ele>491</ele>
        <time>2019-04-17T00:25:44Z</time>
      </trkpt>
      <trkpt lat="45.13762" lon="3.46525">
        <ele>491</ele>
        <time>2019-04-17T00:26:44Z</time>
      </trkpt>
      <trkpt lat="45.13755" lon="3.46502">
        <ele>490</ele>
        <time>2019-04-17T00:27:44Z</time>
      </trkpt>
      <trkpt lat="45.13755" lon="3.46495">
        <ele>490</ele>
        <time>2019-04-17T00:28:44Z</time>
      </trkpt>
      <trkpt lat="45.13755" lon="3.46488">
        <ele>490</ele>
        <time>2019-04-17T00:29:44Z</time>
      </trkpt>
      <trkpt lat="45.13759" lon="3.46472">
        <ele>489</ele>
        <time>2019-04-17T00:30:44Z</time>
      </trkpt>
      <trkpt lat="45.13778" lon="3.46424">
        <ele>490</ele>
        <time>2019-04-17T00:31:44Z</time>
      </trkpt>
      <trkpt lat="45.13794" lon="3.46408">
        <ele>492</ele>
        <time>2019-04-17T00:32:44Z</time>
      </trkpt>
      <trkpt lat="45.13802" lon="3.46406">
        <ele>492</ele>
        <time>2019-04-17T00:33:44Z</time>
      </trkpt>
      <trkpt lat="45.1381" lon="3.46407">
        <ele>492</ele>
        <time>2019-04-17T00:34:44Z</time>
      </trkpt>
      <trkpt lat="45.13836" lon="3.46426">
        <ele>491</ele>
        <time>2019-04-17T00:35:44Z</time>
      </trkpt>
      <trkpt lat="45.13861" lon="3.46435">
        <ele>492</ele>
        <time>2019-04-17T00:36:44Z</time>
      </trkpt>
      <trkpt lat="45.13913" lon="3.46444">
        <ele>494</ele>
        <time>2019-04-17T00:37:44Z</time>
      </trkpt>
      <trkpt lat="45.13939" lon="3.46455">
        <ele>494</ele>
        <time>2019-04-17T00:38:44Z</time>
      </trkpt>
      <trkpt lat="45.13961" lon="3.46458">
        <ele>495</ele>
        <time>2019-04-17T00:39:44Z</time>
      </trkpt>
      <trkpt lat="45.13974" lon="3.46452">
        <ele>496</ele>
        <time>2019-04-17T00:40:44Z</time>
      </trkpt>
      <trkpt lat="45.13986" lon="3.46441">
        <ele>498</ele>
        <time>2019-04-17T00:41:44Z</time>
      </trkpt>
      <trkpt lat="45.13997" lon="3.4642">
        <ele>500</ele>
        <time>2019-04-17T00:42:44Z</time>
      </trkpt>
      <trkpt lat="45.14007" lon="3.46393">
        <ele>501</ele>
        <time>2019-04-17T00:43:44Z</time>
      </trkpt>
      <trkpt lat="45.14065" lon="3.46202">
        <ele>508</ele>
        <time>2019-04-17T00:44:44Z</time>
      </trkpt>
      <trkpt lat="45.14113" lon="3.46035">
        <ele>512</ele>
        <time>2019-04-17T00:45:44Z</time>
      </trkpt>
      <trkpt lat="45.14124" lon="3.45981">
        <ele>513</ele>
        <time>2019-04-17T00:46:44Z</time>
      </trkpt>
      <trkpt lat="45.14124" lon="3.45808">
        <ele>525</ele>
        <time>2019-04-17T00:47:44Z</time>
      </trkpt>
      <trkpt lat="45.14136" lon="3.45712">
        <ele>528</ele>
        <time>2019-04-17T00:48:44Z</time>
      </trkpt>
      <trkpt lat="45.14147" lon="3.45641">
        <ele>528</ele>
        <time>2019-04-17T00:49:44Z</time>
      </trkpt>
      <trkpt lat="45.14159" lon="3.45549">
        <ele>528</ele>
        <time>2019-04-17T00:50:44Z</time>
      </trkpt>
      <trkpt lat="45.14177" lon="3.45478">
        <ele>529</ele>
        <time>2019-04-17T00:51:44Z</time>
      </trkpt>
      <trkpt lat="45.14197" lon="3.45441">
        <ele>529</ele>
        <time>2019-04-17T00:52:44Z</time>
      </trkpt>
      <trkpt lat="45.14222" lon="3.45415">
        <ele>527</ele>
        <time>2019-04-17T00:53:44Z</time>
      </trkpt>
      <trkpt lat="45.14249" lon="3.45363">
        <ele>530</ele>
        <time>2019-04-17T00:54:44Z</time>
      </trkpt>
      <trkpt lat="45.14341" lon="3.45284">
        <ele>522</ele>
        <time>2019-04-17T00:55:44Z</time>
      </trkpt>
      <trkpt lat="45.14374" lon="3.45253">
        <ele>518</ele>
        <time>2019-04-17T00:56:44Z</time>
      </trkpt>
      <trkpt lat="45.14396" lon="3.45214">
        <ele>514</ele>
        <time>2019-04-17T00:57:44Z</time>
      </trkpt>
      <trkpt lat="45.144" lon="3.45167">
        <ele>516</ele>
        <time>2019-04-17T00:58:44Z</time>
      </trkpt>
      <trkpt lat="45.14387" lon="3.45111">
        <ele>515</ele>
        <time>2019-04-17T00:59:44Z</time>
      </trkpt>
      <trkpt lat="45.14358" lon="3.45061">
        <ele>516</ele>
        <time>2019-04-17T01:00:44Z</time>
      </trkpt>
      <trkpt lat="45.14299" lon="3.44987">
        <ele>515</ele>
        <time>2019-04-17T01:01:44Z</time>
      </trkpt>
      <trkpt lat="45.14279" lon="3.44949">
        <ele>515</ele>
        <time>2019-04-17T01:02:44Z</time>
      </trkpt>
      <trkpt lat="45.1422" lon="3.44619">
        <ele>510</ele>
        <time>2019-04-17T01:03:44Z</time>
      </trkpt>
      <trkpt lat="45.14182" lon="3.4442">
        <ele>511</ele>
        <time>2019-04-17T01:04:44Z</time>
      </trkpt>
      <trkpt lat="45.14163" lon="3.44359">
        <ele>510</ele>
        <time>2019-04-17T01:05:44Z</time>
      </trkpt>
      <trkpt lat="45.14118" lon="3.44259">
        <ele>512</ele>
        <time>2019-04-17T01:06:44Z</time>
      </trkpt>
      <trkpt lat="45.14094" lon="3.44198">
        <ele>512</ele>
        <time>2019-04-17T01:07:44Z</time>
      </trkpt>
      <trkpt lat="45.14089" lon="3.44171">
        <ele>511</ele>
        <time>2019-04-17T01:08:44Z</time>
      </trkpt>
      <trkpt lat="45.14087" lon="3.44141">
        <ele>509</ele>
        <time>2019-04-17T01:09:44Z</time>
      </trkpt>
      <trkpt lat="45.14092" lon="3.44101">
        <ele>508</ele>
        <time>2019-04-17T01:10:44Z</time>
      </trkpt>
      <trkpt lat="45.14102" lon="3.4407">
        <ele>508</ele>
        <time>2019-04-17T01:11:44Z</time>
      </trkpt>
      <trkpt lat="45.1415" lon="3.43984">
        <ele>509</ele>
        <time>2019-04-17T01:12:44Z</time>
      </trkpt>
      <trkpt lat="45.14229" lon="3.43886">
        <ele>511</ele>
        <time>2019-04-17T01:13:44Z</time>
      </trkpt>
      <trkpt lat="45.14268" lon="3.43825">
        <ele>510</ele>
        <time>2019-04-17T01:14:44Z</time>
      </trkpt>
      <trkpt lat="45.14296" lon="3.43776">
        <ele>508</ele>
        <time>2019-04-17T01:15:44Z</time>
      </trkpt>
      <trkpt lat="45.1431" lon="3.43746">
        <ele>508</ele>
        <time>2019-04-17T01:16:44Z</time>
      </trkpt>
      <trkpt lat="45.14371" lon="3.43597">
        <ele>505</ele>
        <time>2019-04-17T01:17:44Z</time>
      </trkpt>
      <trkpt lat="45.14539" lon="3.43173">
        <ele>499</ele>
        <time>2019-04-17T01:18:44Z</time>
      </trkpt>
      <trkpt lat="45.14552" lon="3.43149">
        <ele>497</ele>
        <time>2019-04-17T01:19:44Z</time>
      </trkpt>
      <trkpt lat="45.14645" lon="3.43073">
        <ele>497</ele>
        <time>2019-04-17T01:20:44Z</time>
      </trkpt>
      <trkpt lat="45.14662" lon="3.4304">
        <ele>495</ele>
        <time>2019-04-17T01:21:44Z</time>
      </trkpt>
      <trkpt lat="45.14668" lon="3.43017">
        <ele>494</ele>
        <time>2019-04-17T01:22:44Z</time>
      </trkpt>
      <trkpt lat="45.14669" lon="3.42976">
        <ele>491</ele>
        <time>2019-04-17T01:23:44Z</time>
      </trkpt>
      <trkpt lat="45.14674" lon="3.42894">
        <ele>487</ele>
        <time>2019-04-17T01:24:44Z</time>
      </trkpt>
      <trkpt lat="45.14683" lon="3.4287">
        <ele>486</ele>
        <time>2019-04-17T01:25:44Z</time>
      </trkpt>
      <trkpt lat="45.14709" lon="3.42831">
        <ele>485</ele>
        <time>2019-04-17T01:26:44Z</time>
      </trkpt>
      <trkpt lat="45.14754" lon="3.42772">
        <ele>484</ele>
        <time>2019-04-17T01:27:44Z</time>
      </trkpt>
      <trkpt lat="45.14764" lon="3.42748">
        <ele>483</ele>
        <time>2019-04-17T01:28:44Z</time>
      </trkpt>
      <trkpt lat="45.14771" lon="3.42715">
        <ele>482</ele>
        <time>2019-04-17T01:29:44Z</time>
      </trkpt>
      <trkpt lat="45.1478" lon="3.42653">
        <ele>480</ele>
        <time>2019-04-17T01:30:44Z</time>
      </trkpt>
      <trkpt lat="45.14784" lon="3.42602">
        <ele>479</ele>
        <time>2019-04-17T01:31:44Z</time>
      </trkpt>
      <trkpt lat="45.14777" lon="3.42558">
        <ele>477</ele>
        <time>2019-04-17T01:32:44Z</time>
      </trkpt>
      <trkpt lat="45.14764" lon="3.4252">
        <ele>475</ele>
        <time>2019-04-17T01:33:44Z</time>
      </trkpt>
      <trkpt lat="45.14725" lon="3.42473">
        <ele>473</ele>
        <time>2019-04-17T01:34:44Z</time>
      </trkpt>
      <trkpt lat="45.14711" lon="3.42459">
        <ele>474</ele>
        <time>2019-04-17T01:35:44Z</time>
      </trkpt>
      <trkpt lat="45.14688" lon="3.4243">
        <ele>475</ele>
        <time>2019-04-17T01:36:44Z</time>
      </trkpt>
      <trkpt lat="45.14679" lon="3.42405">
        <ele>477</ele>
        <time>2019-04-17T01:37:44Z</time>
      </trkpt>
      <trkpt lat="45.14671" lon="3.42359">
        <ele>479</ele>
        <time>2019-04-17T01:38:44Z</time>
      </trkpt>
      <trkpt lat="45.14672" lon="3.42251">
        <ele>477</ele>
        <time>2019-04-17T01:39:44Z</time>
      </trkpt>
      <trkpt lat="45.14668" lon="3.42233">
        <ele>476</ele>
        <time>2019-04-17T01:40:44Z</time>
      </trkpt>
      <trkpt lat="45.14656" lon="3.42204">
        <ele>476</ele>
        <time>2019-04-17T01:41:44Z</time>
      </trkpt>
      <trkpt lat="45.14641" lon="3.42176">
        <ele>476</ele>
        <time>2019-04-17T01:42:44Z</time>
      </trkpt>
      <trkpt lat="45.1462" lon="3.42149">
        <ele>478</ele>
        <time>2019-04-17T01:43:44Z</time>
      </trkpt>
      <trkpt lat="45.14601" lon="3.42139">
        <ele>480</ele>
        <time>2019-04-17T01:44:44Z</time>
      </trkpt>
      <trkpt lat="45.14552" lon="3.42102">
        <ele>491</ele>
        <time>2019-04-17T01:45:44Z</time>
      </trkpt>
      <trkpt lat="45.14513" lon="3.42025">
        <ele>494</ele>
        <time>2019-04-17T01:46:44Z</time>
      </trkpt>
      <trkpt lat="45.14472" lon="3.41833">
        <ele>492</ele>
        <time>2019-04-17T01:47:44Z</time>
      </trkpt>
      <trkpt lat="45.14436" lon="3.41637">
        <ele>485</ele>
        <time>2019-04-17T01:48:44Z</time>
      </trkpt>
      <trkpt lat="45.14427" lon="3.41505">
        <ele>477</ele>
        <time>2019-04-17T01:49:44Z</time>
      </trkpt>
      <trkpt lat="45.14415" lon="3.4138">
        <ele>482</ele>
        <time>2019-04-17T01:50:44Z</time>
      </trkpt>
      <trkpt lat="45.14418" lon="3.41311">
        <ele>484</ele>
        <time>2019-04-17T01:51:44Z</time>
      </trkpt>
      <trkpt lat="45.14424" lon="3.41254">
        <ele>484</ele>
        <time>2019-04-17T01:52:44Z</time>
      </trkpt>
      <trkpt lat="45.14433" lon="3.41219">
        <ele>483</ele>
        <time>2019-04-17T01:53:44Z</time>
      </trkpt>
      <trkpt lat="45.14442" lon="3.41194">
        <ele>482</ele>
        <time>2019-04-17T01:54:44Z</time>
      </trkpt>
      <trkpt lat="45.14454" lon="3.41173">
        <ele>480</ele>
        <time>2019-04-17T01:55:44Z</time>
      </trkpt>
      <trkpt lat="45.14532" lon="3.41086">
        <ele>476</ele>
        <time>2019-04-17T01:56:44Z</time>
      </trkpt>
      <trkpt lat="45.14543" lon="3.41065">
        <ele>476</ele>
        <time>2019-04-17T01:57:44Z</time>
      </trkpt>
      <trkpt lat="45.14553" lon="3.41037">
        <ele>477</ele>
        <time>2019-04-17T01:58:44Z</time>
      </trkpt>
      <trkpt lat="45.14559" lon="3.41007">
        <ele>478</ele>
        <time>2019-04-17T01:59:44Z</time>
      </trkpt>
      <trkpt lat="45.14563" lon="3.40968">
        <ele>478</ele>
        <time>2019-04-17T02:00:44Z</time>
      </trkpt>
      <trkpt lat="45.14562" lon="3.409">
        <ele>477</ele>
        <time>2019-04-17T02:01:44Z</time>
      </trkpt>
      <trkpt lat="45.14564" lon="3.40814">
        <ele>477</ele>
        <time>2019-04-17T02:02:44Z</time>
      </trkpt>
      <trkpt lat="45.14564" lon="3.40765">
        <ele>478</ele>
        <time>2019-04-17T02:03:44Z</time>
      </trkpt>
      <trkpt lat="45.14561" lon="3.4074">
        <ele>478</ele>
        <time>2019-04-17T02:04:44Z</time>
      </trkpt>
      <trkpt lat="45.14555" lon="3.40712">
        <ele>477</ele>
        <time>2019-04-17T02:05:44Z</time>
      </trkpt>
      <trkpt lat="45.1454" lon="3.40679">
        <ele>477</ele>
        <time>2019-04-17T02:06:44Z</time>
      </trkpt>
      <trkpt lat="45.14527" lon="3.40666">
        <ele>477</ele>
        <time>2019-04-17T02:07:44Z</time>
      </trkpt>
      <trkpt lat="45.14505" lon="3.40657">
        <ele>478</ele>
        <time>2019-04-17T02:08:44Z</time>
      </trkpt>
      <trkpt lat="45.1447" lon="3.40647">
        <ele>478</ele>
        <time>2019-04-17T02:09:44Z</time>
      </trkpt>
      <trkpt lat="45.14448" lon="3.40629">
        <ele>477</ele>
        <time>2019-04-17T02:10:44Z</time>
      </trkpt>
      <trkpt lat="45.14441" lon="3.40613">
        <ele>476</ele>
        <time>2019-04-17T02:11:44Z</time>
      </trkpt>
      <trkpt lat="45.14426" lon="3.40615">
        <ele>476</ele>
        <time>2019-04-17T02:12:44Z</time>
      </trkpt>
      <trkpt lat="45.1441" lon="3.40611">
        <ele>476</ele>
        <time>2019-04-17T02:13:44Z</time>
      </trkpt>
      <trkpt lat="45.14335" lon="3.40529">
        <ele>477</ele>
        <time>2019-04-17T02:14:44Z</time>
      </trkpt>
      <trkpt lat="45.14297" lon="3.40498">
        <ele>482</ele>
        <time>2019-04-17T02:15:44Z</time>
      </trkpt>
      <trkpt lat="45.14204" lon="3.40433">
        <ele>486</ele>
        <time>2019-04-17T02:16:44Z</time>
      </trkpt>
      <trkpt lat="45.14193" lon="3.40421">
        <ele>486</ele>
        <time>2019-04-17T02:17:44Z</time>
      </trkpt>
      <trkpt lat="45.14176" lon="3.40392">
        <ele>485</ele>
        <time>2019-04-17T02:18:44Z</time>
      </trkpt>
      <trkpt lat="45.14168" lon="3.40385">
        <ele>485</ele>
        <time>2019-04-17T02:19:44Z</time>
      </trkpt>
      <trkpt lat="45.1415" lon="3.40385">
        <ele>488</ele>
        <time>2019-04-17T02:20:44Z</time>
      </trkpt>
      <trkpt lat="45.14119" lon="3.40391">
        <ele>493</ele>
        <time>2019-04-17T02:21:44Z</time>
      </trkpt>
      <trkpt lat="45.14105" lon="3.4039">
        <ele>495</ele>
        <time>2019-04-17T02:22:44Z</time>
      </trkpt>
      <trkpt lat="45.14089" lon="3.40385">
        <ele>496</ele>
        <time>2019-04-17T02:23:44Z</time>
      </trkpt>
      <trkpt lat="45.14071" lon="3.40372">
        <ele>496</ele>
        <time>2019-04-17T02:24:44Z</time>
      </trkpt>
      <trkpt lat="45.14025" lon="3.40351">
        <ele>497</ele>
        <time>2019-04-17T02:25:44Z</time>
      </trkpt>
      <trkpt lat="45.13976" lon="3.40331">
        <ele>500</ele>
        <time>2019-04-17T02:26:44Z</time>
      </trkpt>
      <trkpt lat="45.13951" lon="3.40314">
        <ele>504</ele>
        <time>2019-04-17T02:27:44Z</time>
      </trkpt>
      <trkpt lat="45.1394" lon="3.40288">
        <ele>504</ele>
        <time>2019-04-17T02:28:44Z</time>
      </trkpt>
      <trkpt lat="45.13937" lon="3.40246">
        <ele>502</ele>
        <time>2019-04-17T02:29:44Z</time>
      </trkpt>
      <trkpt lat="45.13922" lon="3.40206">
        <ele>504</ele>
        <time>2019-04-17T02:30:44Z</time>
      </trkpt>
      <trkpt lat="45.13904" lon="3.40182">
        <ele>507</ele>
        <time>2019-04-17T02:31:44Z</time>
      </trkpt>
      <trkpt lat="45.13872" lon="3.40156">
        <ele>515</ele>
        <time>2019-04-17T02:32:44Z</time>
      </trkpt>
      <trkpt lat="45.1386" lon="3.40124">
        <ele>518</ele>
        <time>2019-04-17T02:33:44Z</time>
      </trkpt>
      <trkpt lat="45.13857" lon="3.40103">
        <ele>519</ele>
        <time>2019-04-17T02:34:44Z</time>
      </trkpt>
      <trkpt lat="45.13861" lon="3.40061">
        <ele>518</ele>
        <time>2019-04-17T02:35:44Z</time>
      </trkpt>
      <trkpt lat="45.13852" lon="3.40017">
        <ele>520</ele>
        <time>2019-04-17T02:36:44Z</time>
      </trkpt>
      <trkpt lat="45.13834" lon="3.3997">
        <ele>522</ele>
        <time>2019-04-17T02:37:44Z</time>
      </trkpt>
      <trkpt lat="45.13786" lon="3.39893">
        <ele>528</ele>
        <time>2019-04-17T02:38:44Z</time>
      </trkpt>
      <trkpt lat="45.13766" lon="3.39847">
        <ele>529</ele>
        <time>2019-04-17T02:39:44Z</time>
      </trkpt>
      <trkpt lat="45.13755" lon="3.39793">
        <ele>529</ele>
        <time>2019-04-17T02:40:44Z</time>
      </trkpt>
      <trkpt lat="45.13749" lon="3.39749">
        <ele>529</ele>
        <time>2019-04-17T02:41:44Z</time>
      </trkpt>
      <trkpt lat="45.13729" lon="3.39713">
        <ele>529</ele>
        <time>2019-04-17T02:42:44Z</time>
      </trkpt>
      <trkpt lat="45.13704" lon="3.39699">
        <ele>532</ele>
        <time>2019-04-17T02:43:44Z</time>
      </trkpt>
      <trkpt lat="45.13602" lon="3.39687">
        <ele>543</ele>
        <time>2019-04-17T02:44:44Z</time>
      </trkpt>
      <trkpt lat="45.13578" lon="3.397">
        <ele>548</ele>
        <time>2019-04-17T02:45:44Z</time>
      </trkpt>
      <trkpt lat="45.13559" lon="3.39696">
        <ele>551</ele>
        <time>2019-04-17T02:46:44Z</time>
      </trkpt>
      <trkpt lat="45.13551" lon="3.39672">
        <ele>550</ele>
        <time>2019-04-17T02:47:44Z</time>
      </trkpt>
      <trkpt lat="45.13556" lon="3.39639">
        <ele>549</ele>
        <time>2019-04-17T02:48:44Z</time>
      </trkpt>
      <trkpt lat="45.13567" lon="3.39609">
        <ele>547</ele>
        <time>2019-04-17T02:49:44Z</time>
      </trkpt>
      <trkpt lat="45.13569" lon="3.39575">
        <ele>548</ele>
        <time>2019-04-17T02:50:44Z</time>
      </trkpt>
      <trkpt lat="45.13556" lon="3.39519">
        <ele>550</ele>
        <time>2019-04-17T02:51:44Z</time>
      </trkpt>
      <trkpt lat="45.13542" lon="3.39476">
        <ele>550</ele>
        <time>2019-04-17T02:52:44Z</time>
      </trkpt>
      <trkpt lat="45.13518" lon="3.3944">
        <ele>553</ele>
        <time>2019-04-17T02:53:44Z</time>
      </trkpt>
      <trkpt lat="45.13474" lon="3.39399">
        <ele>562</ele>
        <time>2019-04-17T02:54:44Z</time>
      </trkpt>
      <trkpt lat="45.13466" lon="3.39373">
        <ele>563</ele>
        <time>2019-04-17T02:55:44Z</time>
      </trkpt>
      <trkpt lat="45.13463" lon="3.39326">
        <ele>560</ele>
        <time>2019-04-17T02:56:44Z</time>
      </trkpt>
      <trkpt lat="45.13441" lon="3.39265">
        <ele>565</ele>
        <time>2019-04-17T02:57:44Z</time>
      </trkpt>
      <trkpt lat="45.13412" lon="3.39198">
        <ele>567</ele>
        <time>2019-04-17T02:58:44Z</time>
      </trkpt>
      <trkpt lat="45.13387" lon="3.39133">
        <ele>564</ele>
        <time>2019-04-17T02:59:44Z</time>
      </trkpt>
      <trkpt lat="45.13359" lon="3.39107">
        <ele>567</ele>
        <time>2019-04-17T03:00:44Z</time>
      </trkpt>
      <trkpt lat="45.1332" lon="3.39094">
        <ele>571</ele>
        <time>2019-04-17T03:01:44Z</time>
      </trkpt>
      <trkpt lat="45.13295" lon="3.39099">
        <ele>571</ele>
        <time>2019-04-17T03:02:44Z</time>
      </trkpt>
      <trkpt lat="45.13261" lon="3.39158">
        <ele>579</ele>
        <time>2019-04-17T03:03:44Z</time>
      </trkpt>
      <trkpt lat="45.13235" lon="3.39206">
        <ele>590</ele>
        <time>2019-04-17T03:04:44Z</time>
      </trkpt>
      <trkpt lat="45.13183" lon="3.39248">
        <ele>594</ele>
        <time>2019-04-17T03:05:44Z</time>
      </trkpt>
      <trkpt lat="45.13165" lon="3.39245">
        <ele>594</ele>
        <time>2019-04-17T03:06:44Z</time>
      </trkpt>
      <trkpt lat="45.13152" lon="3.39224">
        <ele>599</ele>
        <time>2019-04-17T03:07:44Z</time>
      </trkpt>
      <trkpt lat="45.13152" lon="3.39194">
        <ele>599</ele>
        <time>2019-04-17T03:08:44Z</time>
      </trkpt>
      <trkpt lat="45.13166" lon="3.39151">
        <ele>592</ele>
        <time>2019-04-17T03:09:44Z</time>
      </trkpt>
      <trkpt lat="45.13171" lon="3.39125">
        <ele>589</ele>
        <time>2019-04-17T03:10:44Z</time>
      </trkpt>
      <trkpt lat="45.13167" lon="3.39098">
        <ele>589</ele>
        <time>2019-04-17T03:11:44Z</time>
      </trkpt>
      <trkpt lat="45.13157" lon="3.3908">
        <ele>590</ele>
        <time>2019-04-17T03:12:44Z</time>
      </trkpt>
      <trkpt lat="45.13148" lon="3.39071">
        <ele>590</ele>
        <time>2019-04-17T03:13:44Z</time>
      </trkpt>
      <trkpt lat="45.1312" lon="3.39049">
        <ele>591</ele>
        <time>2019-04-17T03:14:44Z</time>
      </trkpt>
      <trkpt lat="45.13096" lon="3.3904">
        <ele>593</ele>
        <time>2019-04-17T03:15:44Z</time>
      </trkpt>
      <trkpt lat="45.13048" lon="3.39038">
        <ele>597</ele>
        <time>2019-04-17T03:16:44Z</time>
      </trkpt>
      <trkpt lat="45.13013" lon="3.39048">
        <ele>602</ele>
        <time>2019-04-17T03:17:44Z</time>
      </trkpt>
      <trkpt lat="45.12869" lon="3.39125">
        <ele>622</ele>
        <time>2019-04-17T03:18:44Z</time>
      </trkpt>
      <trkpt lat="45.12852" lon="3.39128">
        <ele>623</ele>
        <time>2019-04-17T03:19:44Z</time>
      </trkpt>
      <trkpt lat="45.12821" lon="3.39118">
        <ele>624</ele>
        <time>2019-04-17T03:20:44Z</time>
      </trkpt>
      <trkpt lat="45.12791" lon="3.39091">
        <ele>623</ele>
        <time>2019-04-17T03:21:44Z</time>
      </trkpt>
      <trkpt lat="45.12775" lon="3.39069">
        <ele>625</ele>
        <time>2019-04-17T03:22:44Z</time>
      </trkpt>
      <trkpt lat="45.12772" lon="3.39036">
        <ele>629</ele>
        <time>2019-04-17T03:23:44Z</time>
      </trkpt>
      <trkpt lat="45.12782" lon="3.39015">
        <ele>628</ele>
        <time>2019-04-17T03:24:44Z</time>
      </trkpt>
      <trkpt lat="45.12806" lon="3.39004">
        <ele>624</ele>
        <time>2019-04-17T03:25:44Z</time>
      </trkpt>
      <trkpt lat="45.12829" lon="3.38986">
        <ele>621</ele>
        <time>2019-04-17T03:26:44Z</time>
      </trkpt>
      <trkpt lat="45.12836" lon="3.38952">
        <ele>623</ele>
        <time>2019-04-17T03:27:44Z</time>
      </trkpt>
      <trkpt lat="45.12829" lon="3.38909">
        <ele>628</ele>
        <time>2019-04-17T03:28:44Z</time>
      </trkpt>
      <trkpt lat="45.12803" lon="3.38841">
        <ele>629</ele>
        <time>2019-04-17T03:29:44Z</time>
      </trkpt>
      <trkpt lat="45.12772" lon="3.38803">
        <ele>631</ele>
        <time>2019-04-17T03:30:44Z</time>
      </trkpt>
      <trkpt lat="45.12722" lon="3.38781">
        <ele>634</ele>
        <time>2019-04-17T03:31:44Z</time>
      </trkpt>
      <trkpt lat="45.12635" lon="3.38773">
        <ele>641</ele>
        <time>2019-04-17T03:32:44Z</time>
      </trkpt>
      <trkpt lat="45.12601" lon="3.38777">
        <ele>643</ele>
        <time>2019-04-17T03:33:44Z</time>
      </trkpt>
      <trkpt lat="45.12496" lon="3.38842">
        <ele>653</ele>
        <time>2019-04-17T03:34:44Z</time>
      </trkpt>
      <trkpt lat="45.12433" lon="3.38879">
        <ele>664</ele>
        <time>2019-04-17T03:35:44Z</time>
      </trkpt>
      <trkpt lat="45.12412" lon="3.38874">
        <ele>666</ele>
        <time>2019-04-17T03:36:44Z</time>
      </trkpt>
      <trkpt lat="45.12401" lon="3.38859">
        <ele>666</ele>
        <time>2019-04-17T03:37:44Z</time>
      </trkpt>
      <trkpt lat="45.124" lon="3.38823">
        <ele>661</ele>
        <time>2019-04-17T03:38:44Z</time>
      </trkpt>
      <trkpt lat="45.12389" lon="3.38794">
        <ele>659</ele>
        <time>2019-04-17T03:39:44Z</time>
      </trkpt>
      <trkpt lat="45.12366" lon="3.38777">
        <ele>660</ele>
        <time>2019-04-17T03:40:44Z</time>
      </trkpt>
      <trkpt lat="45.12333" lon="3.3877">
        <ele>663</ele>
        <time>2019-04-17T03:41:44Z</time>
      </trkpt>
      <trkpt lat="45.12289" lon="3.38785">
        <ele>671</ele>
        <time>2019-04-17T03:42:44Z</time>
      </trkpt>
      <trkpt lat="45.12248" lon="3.38804">
        <ele>679</ele>
        <time>2019-04-17T03:43:44Z</time>
      </trkpt>
      <trkpt lat="45.12226" lon="3.38806">
        <ele>686</ele>
        <time>2019-04-17T03:44:44Z</time>
      </trkpt>
      <trkpt lat="45.12208" lon="3.38797">
        <ele>689</ele>
        <time>2019-04-17T03:45:44Z</time>
      </trkpt>
      <trkpt lat="45.12201" lon="3.38785">
        <ele>688</ele>
        <time>2019-04-17T03:46:44Z</time>
      </trkpt>
      <trkpt lat="45.12193" lon="3.38751">
        <ele>684</ele>
        <time>2019-04-17T03:47:44Z</time>
      </trkpt>
      <trkpt lat="45.12178" lon="3.38716">
        <ele>679</ele>
        <time>2019-04-17T03:48:44Z</time>
      </trkpt>
      <trkpt lat="45.12121" lon="3.38678">
        <ele>678</ele>
        <time>2019-04-17T03:49:44Z</time>
      </trkpt>
      <trkpt lat="45.12076" lon="3.38673">
        <ele>684</ele>
        <time>2019-04-17T03:50:44Z</time>
      </trkpt>
      <trkpt lat="45.12036" lon="3.38674">
        <ele>695</ele>
        <time>2019-04-17T03:51:44Z</time>
      </trkpt>
      <trkpt lat="45.12025" lon="3.38665">
        <ele>696</ele>
        <time>2019-04-17T03:52:44Z</time>
      </trkpt>
      <trkpt lat="45.12015" lon="3.38624">
        <ele>694</ele>
        <time>2019-04-17T03:53:44Z</time>
      </trkpt>
      <trkpt lat="45.11992" lon="3.38579">
        <ele>697</ele>
        <time>2019-04-17T03:54:44Z</time>
      </trkpt>
      <trkpt lat="45.11945" lon="3.38482">
        <ele>701</ele>
        <time>2019-04-17T03:55:44Z</time>
      </trkpt>
      <trkpt lat="45.11923" lon="3.38412">
        <ele>702</ele>
        <time>2019-04-17T03:56:44Z</time>
      </trkpt>
      <trkpt lat="45.11903" lon="3.38364">
        <ele>704</ele>
        <time>2019-04-17T03:57:44Z</time>
      </trkpt>
      <trkpt lat="45.11875" lon="3.38337">
        <ele>708</ele>
        <time>2019-04-17T03:58:44Z</time>
      </trkpt>
      <trkpt lat="45.11864" lon="3.38317">
        <ele>712</ele>
        <time>2019-04-17T03:59:44Z</time>
      </trkpt>
      <trkpt lat="45.11864" lon="3.38294">
        <ele>715</ele>
        <time>2019-04-17T04:00:44Z</time>
      </trkpt>
      <trkpt lat="45.11871" lon="3.38276">
        <ele>715</ele>
        <time>2019-04-17T04:01:44Z</time>
      </trkpt>
      <trkpt lat="45.11903" lon="3.38255">
        <ele>712</ele>
        <time>2019-04-17T04:02:44Z</time>
      </trkpt>
      <trkpt lat="45.1191" lon="3.38242">
        <ele>712</ele>
        <time>2019-04-17T04:03:44Z</time>
      </trkpt>
      <trkpt lat="45.11914" lon="3.38223">
        <ele>711</ele>
        <time>2019-04-17T04:04:44Z</time>
      </trkpt>
      <trkpt lat="45.1191" lon="3.38202">
        <ele>712</ele>
        <time>2019-04-17T04:05:44Z</time>
      </trkpt>
      <trkpt lat="45.11888" lon="3.38164">
        <ele>717</ele>
        <time>2019-04-17T04:06:44Z</time>
      </trkpt>
      <trkpt lat="45.11885" lon="3.38143">
        <ele>716</ele>
        <time>2019-04-17T04:07:44Z</time>
      </trkpt>
      <trkpt lat="45.11889" lon="3.38126">
        <ele>715</ele>
        <time>2019-04-17T04:08:44Z</time>
      </trkpt>
      <trkpt lat="45.11906" lon="3.38095">
        <ele>710</ele>
        <time>2019-04-17T04:09:44Z</time>
      </trkpt>
      <trkpt lat="45.11907" lon="3.38074">
        <ele>710</ele>
        <time>2019-04-17T04:10:44Z</time>
      </trkpt>
      <trkpt lat="45.11892" lon="3.37979">
        <ele>711</ele>
        <time>2019-04-17T04:11:44Z</time>
      </trkpt>
      <trkpt lat="45.11883" lon="3.37958">
        <ele>712</ele>
        <time>2019-04-17T04:12:44Z</time>
      </trkpt>
      <trkpt lat="45.11867" lon="3.37946">
        <ele>713</ele>
        <time>2019-04-17T04:13:44Z</time>
      </trkpt>
      <trkpt lat="45.1185" lon="3.37947">
        <ele>714</ele>
        <time>2019-04-17T04:14:44Z</time>
      </trkpt>
      <trkpt lat="45.11836" lon="3.37957">
        <ele>716</ele>
        <time>2019-04-17T04:15:44Z</time>
      </trkpt>
      <trkpt lat="45.11826" lon="3.37976">
        <ele>717</ele>
        <time>2019-04-17T04:16:44Z</time>
      </trkpt>
      <trkpt lat="45.11818" lon="3.3802">
        <ele>720</ele>
        <time>2019-04-17T04:17:44Z</time>
      </trkpt>
      <trkpt lat="45.11807" lon="3.38042">
        <ele>722</ele>
        <time>2019-04-17T04:18:44Z</time>
      </trkpt>
      <trkpt lat="45.11792" lon="3.38055">
        <ele>724</ele>
        <time>2019-04-17T04:19:44Z</time>
      </trkpt>
      <trkpt lat="45.11771" lon="3.38058">
        <ele>726</ele>
        <time>2019-04-17T04:20:44Z</time>
      </trkpt>
      <trkpt lat="45.11722" lon="3.38051">
        <ele>728</ele>
        <time>2019-04-17T04:21:44Z</time>
      </trkpt>
      <trkpt lat="45.11636" lon="3.38032">
        <ele>727</ele>
        <time>2019-04-17T04:22:44Z</time>
      </trkpt>
      <trkpt lat="45.11607" lon="3.38031">
        <ele>727</ele>
        <time>2019-04-17T04:23:44Z</time>
      </trkpt>
      <trkpt lat="45.11593" lon="3.3804">
        <ele>729</ele>
        <time>2019-04-17T04:24:44Z</time>
      </trkpt>
      <trkpt lat="45.11585" lon="3.38061">
        <ele>733</ele>
        <time>2019-04-17T04:25:44Z</time>
      </trkpt>
      <trkpt lat="45.11574" lon="3.38082">
        <ele>738</ele>
        <time>2019-04-17T04:26:44Z</time>
      </trkpt>
      <trkpt lat="45.11555" lon="3.381">
        <ele>741</ele>
        <time>2019-04-17T04:27:44Z</time>
      </trkpt>
      <trkpt lat="45.11534" lon="3.38111">
        <ele>743</ele>
        <time>2019-04-17T04:28:44Z</time>
      </trkpt>
      <trkpt lat="45.11504" lon="3.38117">
        <ele>745</ele>
        <time>2019-04-17T04:29:44Z</time>
      </trkpt>
      <trkpt lat="45.11478" lon="3.38113">
        <ele>748</ele>
        <time>2019-04-17T04:30:44Z</time>
      </trkpt>
      <trkpt lat="45.11394" lon="3.38046">
        <ele>749</ele>
        <time>2019-04-17T04:31:44Z</time>
      </trkpt>
      <trkpt lat="45.11368" lon="3.38031">
        <ele>749</ele>
        <time>2019-04-17T04:32:44Z</time>
      </trkpt>
      <trkpt lat="45.11332" lon="3.38022">
        <ele>753</ele>
        <time>2019-04-17T04:33:44Z</time>
      </trkpt>
      <trkpt lat="45.11314" lon="3.38004">
        <ele>753</ele>
        <time>2019-04-17T04:34:44Z</time>
      </trkpt>
      <trkpt lat="45.11297" lon="3.37979">
        <ele>753</ele>
        <time>2019-04-17T04:35:44Z</time>
      </trkpt>
      <trkpt lat="45.11276" lon="3.37958">
        <ele>753</ele>
        <time>2019-04-17T04:36:44Z</time>
      </trkpt>
      <trkpt lat="45.11243" lon="3.37935">
        <ele>756</ele>
        <time>2019-04-17T04:37:44Z</time>
      </trkpt>
      <trkpt lat="45.11177" lon="3.37908">
        <ele>765</ele>
        <time>2019-04-17T04:38:44Z</time>
      </trkpt>
      <trkpt lat="45.11164" lon="3.37892">
        <ele>765</ele>
        <time>2019-04-17T04:39:44Z</time>
      </trkpt>
      <trkpt lat="45.11159" lon="3.37867">
        <ele>761</ele>
        <time>2019-04-17T04:40:44Z</time>
      </trkpt>
      <trkpt lat="45.11148" lon="3.37845">
        <ele>759</ele>
        <time>2019-04-17T04:41:44Z</time>
      </trkpt>
      <trkpt lat="45.11125" lon="3.37826">
        <ele>760</ele>
        <time>2019-04-17T04:42:44Z</time>
      </trkpt>
      <trkpt lat="45.11103" lon="3.37814">
        <ele>763</ele>
        <time>2019-04-17T04:43:44Z</time>
      </trkpt>
      <trkpt lat="45.11071" lon="3.37806">
        <ele>769</ele>
        <time>2019-04-17T04:44:44Z</time>
      </trkpt>
      <trkpt lat="45.11058" lon="3.37786">
        <ele>770</ele>
        <time>2019-04-17T04:45:44Z</time>
      </trkpt>
      <trkpt lat="45.11052" lon="3.37733">
        <ele>770</ele>
        <time>2019-04-17T04:46:44Z</time>
      </trkpt>
      <trkpt lat="45.11047" lon="3.37677">
        <ele>770</ele>
        <time>2019-04-17T04:47:44Z</time>
      </trkpt>
      <trkpt lat="45.11038" lon="3.37645">
        <ele>771</ele>
        <time>2019-04-17T04:48:44Z</time>
      </trkpt>
      <trkpt lat="45.11006" lon="3.3762">
        <ele>779</ele>
        <time>2019-04-17T04:49:44Z</time>
      </trkpt>
      <trkpt lat="45.10969" lon="3.3758">
        <ele>783</ele>
        <time>2019-04-17T04:50:44Z</time>
      </trkpt>
      <trkpt lat="45.10924" lon="3.37514">
        <ele>785</ele>
        <time>2019-04-17T04:51:44Z</time>
      </trkpt>
      <trkpt lat="45.10892" lon="3.37452">
        <ele>784</ele>
        <time>2019-04-17T04:52:44Z</time>
      </trkpt>
      <trkpt lat="45.10873" lon="3.37403">
        <ele>784</ele>
        <time>2019-04-17T04:53:44Z</time>
      </trkpt>
      <trkpt lat="45.10889" lon="3.37385">
        <ele>785</ele>
        <time>2019-04-17T04:54:44Z</time>
      </trkpt>
      <trkpt lat="45.10898" lon="3.37369">
        <ele>786</ele>
        <time>2019-04-17T04:55:44Z</time>
      </trkpt>
      <trkpt lat="45.10901" lon="3.37355">
        <ele>788</ele>
        <time>2019-04-17T04:56:44Z</time>
      </trkpt>
      <trkpt lat="45.10898" lon="3.37339">
        <ele>788</ele>
        <time>2019-04-17T04:57:44Z</time>
      </trkpt>
      <trkpt lat="45.1088" lon="3.37303">
        <ele>794</ele>
        <time>2019-04-17T04:58:44Z</time>
      </trkpt>
      <trkpt lat="45.10831" lon="3.37219">
        <ele>807</ele>
        <time>2019-04-17T04:59:44Z</time>
      </trkpt>
      <trkpt lat="45.10797" lon="3.3718">
        <ele>809</ele>
        <time>2019-04-17T05:00:44Z</time>
      </trkpt>
      <trkpt lat="45.1077" lon="3.37155">
        <ele>808</ele>
        <time>2019-04-17T05:01:44Z</time>
      </trkpt>
      <trkpt lat="45.10757" lon="3.37138">
        <ele>808</ele>
        <time>2019-04-17T05:02:44Z</time>
      </trkpt>
      <trkpt lat="45.10748" lon="3.37116">
        <ele>809</ele>
        <time>2019-04-17T05:03:44Z</time>
      </trkpt>
      <trkpt lat="45.10751" lon="3.37084">
        <ele>814</ele>
        <time>2019-04-17T05:04:44Z</time>
      </trkpt>
      <trkpt lat="45.10771" lon="3.37032">
        <ele>822</ele>
        <time>2019-04-17T05:05:44Z</time>
      </trkpt>
      <trkpt lat="45.10792" lon="3.36992">
        <ele>829</ele>
        <time>2019-04-17T05:06:44Z</time>
      </trkpt>
      <trkpt lat="45.10797" lon="3.36961">
        <ele>833</ele>
        <time>2019-04-17T05:07:44Z</time>
      </trkpt>
      <trkpt lat="45.10787" lon="3.36927">
        <ele>835</ele>
        <time>2019-04-17T05:08:44Z</time>
      </trkpt>
      <trkpt lat="45.10763" lon="3.36889">
        <ele>836</ele>
        <time>2019-04-17T05:09:44Z</time>
      </trkpt>
      <trkpt lat="45.10744" lon="3.36848">
        <ele>839</ele>
        <time>2019-04-17T05:10:44Z</time>
      </trkpt>
      <trkpt lat="45.10722" lon="3.36746">
        <ele>852</ele>
        <time>2019-04-17T05:11:44Z</time>
      </trkpt>
      <trkpt lat="45.1071" lon="3.36726">
        <ele>854</ele>
        <time>2019-04-17T05:12:44Z</time>
      </trkpt>
      <trkpt lat="45.10698" lon="3.36708">
        <ele>856</ele>
        <time>2019-04-17T05:13:44Z</time>
      </trkpt>
      <trkpt lat="45.10667" lon="3.367">
        <ele>852</ele>
        <time>2019-04-17T05:14:44Z</time>
      </trkpt>
      <trkpt lat="45.10564" lon="3.36602">
        <ele>862</ele>
        <time>2019-04-17T05:15:44Z</time>
      </trkpt>
      <trkpt lat="45.10537" lon="3.36554">
        <ele>865</ele>
        <time>2019-04-17T05:16:44Z</time>
      </trkpt>
      <trkpt lat="45.10522" lon="3.36484">
        <ele>874</ele>
        <time>2019-04-17T05:17:44Z</time>
      </trkpt>
      <trkpt lat="45.10485" lon="3.36426">
        <ele>881</ele>
        <time>2019-04-17T05:18:44Z</time>
      </trkpt>
      <trkpt lat="45.10449" lon="3.36383">
        <ele>884</ele>
        <time>2019-04-17T05:19:44Z</time>
      </trkpt>
      <trkpt lat="45.10429" lon="3.36308">
        <ele>890</ele>
        <time>2019-04-17T05:20:44Z</time>
      </trkpt>
      <trkpt lat="45.1042" lon="3.36247">
        <ele>892</ele>
        <time>2019-04-17T05:21:44Z</time>
      </trkpt>
      <trkpt lat="45.10418" lon="3.36197">
        <ele>899</ele>
        <time>2019-04-17T05:22:44Z</time>
      </trkpt>
      <trkpt lat="45.10427" lon="3.36156">
        <ele>903</ele>
        <time>2019-04-17T05:23:44Z</time>
      </trkpt>
      <trkpt lat="45.10458" lon="3.36079">
        <ele>906</ele>
        <time>2019-04-17T05:24:44Z</time>
      </trkpt>
      <trkpt lat="45.10462" lon="3.36057">
        <ele>907</ele>
        <time>2019-04-17T05:25:44Z</time>
      </trkpt>
      <trkpt lat="45.10462" lon="3.36031">
        <ele>908</ele>
        <time>2019-04-17T05:26:44Z</time>
      </trkpt>
      <trkpt lat="45.10456" lon="3.35993">
        <ele>910</ele>
        <time>2019-04-17T05:27:44Z</time>
      </trkpt>
      <trkpt lat="45.10398" lon="3.35857">
        <ele>918</ele>
        <time>2019-04-17T05:28:44Z</time>
      </trkpt>
      <trkpt lat="45.10369" lon="3.35815">
        <ele>920</ele>
        <time>2019-04-17T05:29:44Z</time>
      </trkpt>
      <trkpt lat="45.10336" lon="3.3578">
        <ele>923</ele>
        <time>2019-04-17T05:30:44Z</time>
      </trkpt>
      <trkpt lat="45.10315" lon="3.35752">
        <ele>925</ele>
        <time>2019-04-17T05:31:44Z</time>
      </trkpt>
      <trkpt lat="45.10304" lon="3.35723">
        <ele>928</ele>
        <time>2019-04-17T05:32:44Z</time>
      </trkpt>
      <trkpt lat="45.103" lon="3.35545">
        <ele>939</ele>
        <time>2019-04-17T05:33:44Z</time>
      </trkpt>
      <trkpt lat="45.10294" lon="3.35476">
        <ele>939</ele>
        <time>2019-04-17T05:34:44Z</time>
      </trkpt>
      <trkpt lat="45.10283" lon="3.3541">
        <ele>936</ele>
        <time>2019-04-17T05:35:44Z</time>
      </trkpt>
      <trkpt lat="45.1027" lon="3.35356">
        <ele>933</ele>
        <time>2019-04-17T05:36:44Z</time>
      </trkpt>
      <trkpt lat="45.10257" lon="3.35331">
        <ele>931</ele>
        <time>2019-04-17T05:37:44Z</time>
      </trkpt>
      <trkpt lat="45.10228" lon="3.35315">
        <ele>932</ele>
        <time>2019-04-17T05:38:44Z</time>
      </trkpt>
      <trkpt lat="45.1021" lon="3.353">
        <ele>934</ele>
        <time>2019-04-17T05:39:44Z</time>
      </trkpt>
      <trkpt lat="45.10202" lon="3.35289">
        <ele>934</ele>
        <time>2019-04-17T05:40:44Z</time>
      </trkpt>
      <trkpt lat="45.10198" lon="3.35273">
        <ele>935</ele>
        <time>2019-04-17T05:41:44Z</time>
      </trkpt>
      <trkpt lat="45.10196" lon="3.35243">
        <ele>936</ele>
        <time>2019-04-17T05:42:44Z</time>
      </trkpt>
      <trkpt lat="45.10198" lon="3.3518">
        <ele>936</ele>
        <time>2019-04-17T05:43:44Z</time>
      </trkpt>
      <trkpt lat="45.10204" lon="3.35105">
        <ele>935</ele>
        <time>2019-04-17T05:44:44Z</time>
      </trkpt>
      <trkpt lat="45.10219" lon="3.3503">
        <ele>936</ele>
        <time>2019-04-17T05:45:44Z</time>
      </trkpt>
      <trkpt lat="45.10253" lon="3.34921">
        <ele>939</ele>
        <time>2019-04-17T05:46:44Z</time>
      </trkpt>
      <trkpt lat="45.10396" lon="3.34545">
        <ele>949</ele>
        <time>2019-04-17T05:47:44Z</time>
      </trkpt>
      <trkpt lat="45.10401" lon="3.34513">
        <ele>949</ele>
        <time>2019-04-17T05:48:44Z</time>
      </trkpt>
      <trkpt lat="45.10417" lon="3.34362">
        <ele>952</ele>
        <time>2019-04-17T05:49:44Z</time>
      </trkpt>
      <trkpt lat="45.10419" lon="3.3431">
        <ele>953</ele>
        <time>2019-04-17T05:50:44Z</time>
      </trkpt>
      <trkpt lat="45.10411" lon="3.34264">
        <ele>955</ele>
        <time>2019-04-17T05:51:44Z</time>
      </trkpt>
      <trkpt lat="45.10385" lon="3.34152">
        <ele>961</ele>
        <time>2019-04-17T05:52:44Z</time>
      </trkpt>
      <trkpt lat="45.10352" lon="3.3403">
        <ele>961</ele>
        <time>2019-04-17T05:53:44Z</time>
      </trkpt>
      <trkpt lat="45.10325" lon="3.33946">
        <ele>962</ele>
        <time>2019-04-17T05:54:44Z</time>
      </trkpt>
      <trkpt lat="45.10273" lon="3.33829">
        <ele>965</ele>
        <time>2019-04-17T05:55:44Z</time>
      </trkpt>
      <trkpt lat="45.10272" lon="3.33806">
        <ele>966</ele>
        <time>2019-04-17T05:56:44Z</time>
      </trkpt>
      <trkpt lat="45.1028" lon="3.33779">
        <ele>968</ele>
        <time>2019-04-17T05:57:44Z</time>
      </trkpt>
      <trkpt lat="45.10316" lon="3.33744">
        <ele>970</ele>
        <time>2019-04-17T05:58:44Z</time>
      </trkpt>
      <trkpt lat="45.10354" lon="3.33713">
        <ele>970</ele>
        <time>2019-04-17T05:59:44Z</time>
      </trkpt>
      <trkpt lat="45.10376" lon="3.33682">
        <ele>971</ele>
        <time>2019-04-17T06:00:44Z</time>
      </trkpt>
      <trkpt lat="45.10399" lon="3.33636">
        <ele>973</ele>
        <time>2019-04-17T06:01:44Z</time>
      </trkpt>
      <trkpt lat="45.10414" lon="3.33616">
        <ele>974</ele>
        <time>2019-04-17T06:02:44Z</time>
      </trkpt>
      <trkpt lat="45.10436" lon="3.33593">
        <ele>973</ele>
        <time>2019-04-17T06:03:44Z</time>
      </trkpt>
      <trkpt lat="45.10441" lon="3.33562">
        <ele>975</ele>
        <time>2019-04-17T06:04:44Z</time>
      </trkpt>
      <trkpt lat="45.10444" lon="3.33536">
        <ele>976</ele>
        <time>2019-04-17T06:05:44Z</time>
      </trkpt>
      <trkpt lat="45.10452" lon="3.33488">
        <ele>977</ele>
        <time>2019-04-17T06:06:44Z</time>
      </trkpt>
      <trkpt lat="45.10469" lon="3.33442">
        <ele>977</ele>
        <time>2019-04-17T06:07:44Z</time>
      </trkpt>
      <trkpt lat="45.10491" lon="3.33415">
        <ele>977</ele>
        <time>2019-04-17T06:08:44Z</time>
      </trkpt>
      <trkpt lat="45.10512" lon="3.33371">
        <ele>980</ele>
        <time>2019-04-17T06:09:44Z</time>
      </trkpt>
      <trkpt lat="45.10529" lon="3.33315">
        <ele>985</ele>
        <time>2019-04-17T06:10:44Z</time>
      </trkpt>
      <trkpt lat="45.1053" lon="3.33273">
        <ele>989</ele>
        <time>2019-04-17T06:11:44Z</time>
      </trkpt>
      <trkpt lat="45.10522" lon="3.33157">
        <ele>998</ele>
        <time>2019-04-17T06:12:44Z</time>
      </trkpt>
      <trkpt lat="45.10515" lon="3.33114">
        <ele>1000</ele>
        <time>2019-04-17T06:13:44Z</time>
      </trkpt>
      <trkpt lat="45.10482" lon="3.32957">
        <ele>1006</ele>
        <time>2019-04-17T06:14:44Z</time>
      </trkpt>
      <trkpt lat="45.10477" lon="3.3292">
        <ele>1007</ele>
        <time>2019-04-17T06:15:44Z</time>
      </trkpt>
      <trkpt lat="45.10468" lon="3.32564">
        <ele>1011</ele>
        <time>2019-04-17T06:16:44Z</time>
      </trkpt>
      <trkpt lat="45.10468" lon="3.32498">
        <ele>1010</ele>
        <time>2019-04-17T06:17:44Z</time>
      </trkpt>
      <trkpt lat="45.10473" lon="3.3244">
        <ele>1010</ele>
        <time>2019-04-17T06:18:44Z</time>
      </trkpt>
      <trkpt lat="45.10516" lon="3.32046">
        <ele>1000</ele>
        <time>2019-04-17T06:19:44Z</time>
      </trkpt>
      <trkpt lat="45.10529" lon="3.31997">
        <ele>999</ele>
        <time>2019-04-17T06:20:44Z</time>
      </trkpt>
      <trkpt lat="45.1056" lon="3.31831">
        <ele>995</ele>
        <time>2019-04-17T06:21:44Z</time>
      </trkpt>
      <trkpt lat="45.10568" lon="3.31794">
        <ele>996</ele>
        <time>2019-04-17T06:22:44Z</time>
      </trkpt>
      <trkpt lat="45.10582" lon="3.31771">
        <ele>998</ele>
        <time>2019-04-17T06:23:44Z</time>
      </trkpt>
      <trkpt lat="45.10609" lon="3.31757">
        <ele>1001</ele>
        <time>2019-04-17T06:24:44Z</time>
      </trkpt>
      <trkpt lat="45.10703" lon="3.31733">
        <ele>1008</ele>
        <time>2019-04-17T06:25:44Z</time>
      </trkpt>
      <trkpt lat="45.10718" lon="3.31726">
        <ele>1009</ele>
        <time>2019-04-17T06:26:44Z</time>
      </trkpt>
      <trkpt lat="45.10758" lon="3.31701">
        <ele>1012</ele>
        <time>2019-04-17T06:27:44Z</time>
      </trkpt>
      <trkpt lat="45.10847" lon="3.31615">
        <ele>1014</ele>
        <time>2019-04-17T06:28:44Z</time>
      </trkpt>
      <trkpt lat="45.1087" lon="3.31601">
        <ele>1015</ele>
        <time>2019-04-17T06:29:44Z</time>
      </trkpt>
      <trkpt lat="45.10926" lon="3.31586">
        <ele>1016</ele>
        <time>2019-04-17T06:30:44Z</time>
      </trkpt>
      <trkpt lat="45.10936" lon="3.31578">
        <ele>1016</ele>
        <time>2019-04-17T06:31:44Z</time>
      </trkpt>
      <trkpt lat="45.10945" lon="3.31564">
        <ele>1017</ele>
        <time>2019-04-17T06:32:44Z</time>
      </trkpt>
      <trkpt lat="45.10955" lon="3.31531">
        <ele>1020</ele>
        <time>2019-04-17T06:33:44Z</time>
      </trkpt>
      <trkpt lat="45.10957" lon="3.31506">
        <ele>1022</ele>
        <time>2019-04-17T06:34:44Z</time>
      </trkpt>
      <trkpt lat="45.10955" lon="3.31459">
        <ele>1025</ele>
        <time>2019-04-17T06:35:44Z</time>
      </trkpt>
      <trkpt lat="45.1095" lon="3.31437">
        <ele>1026</ele>
        <time>2019-04-17T06:36:44Z</time>
      </trkpt>
      <trkpt lat="45.10879" lon="3.31257">
        <ele>1037</ele>
        <time>2019-04-17T06:37:44Z</time>
      </trkpt>
      <trkpt lat="45.1087" lon="3.31218">
        <ele>1040</ele>
        <time>2019-04-17T06:38:44Z</time>
      </trkpt>
      <trkpt lat="45.10856" lon="3.31061">
        <ele>1048</ele>
        <time>2019-04-17T06:39:44Z</time>
      </trkpt>
      <trkpt lat="45.10856" lon="3.31011">
        <ele>1050</ele>
        <time>2019-04-17T06:40:44Z</time>
      </trkpt>
      <trkpt lat="45.10861" lon="3.30949">
        <ele>1052</ele>
        <time>2019-04-17T06:41:44Z</time>
      </trkpt>
      <trkpt lat="45.10869" lon="3.30902">
        <ele>1053</ele>
        <time>2019-04-17T06:42:44Z</time>
      </trkpt>
      <trkpt lat="45.10877" lon="3.30868">
        <ele>1053</ele>
        <time>2019-04-17T06:43:44Z</time>
      </trkpt>
      <trkpt lat="45.10886" lon="3.308">
        <ele>1053</ele>
        <time>2019-04-17T06:44:44Z</time>
      </trkpt>
      <trkpt lat="45.1088" lon="3.30761">
        <ele>1054</ele>
        <time>2019-04-17T06:45:44Z</time>
      </trkpt>
      <trkpt lat="45.10854" lon="3.30695">
        <ele>1056</ele>
        <time>2019-04-17T06:46:44Z</time>
      </trkpt>
      <trkpt lat="45.10851" lon="3.30681">
        <ele>1057</ele>
        <time>2019-04-17T06:47:44Z</time>
      </trkpt>
      <trkpt lat="45.1085" lon="3.3066">
        <ele>1057</ele>
        <time>2019-04-17T06:48:44Z</time>
      </trkpt>
      <trkpt lat="45.10855" lon="3.30611">
        <ele>1057</ele>
        <time>2019-04-17T06:49:44Z</time>
      </trkpt>
      <trkpt lat="45.10861" lon="3.30575">
        <ele>1057</ele>
        <time>2019-04-17T06:50:44Z</time>
      </trkpt>
      <trkpt lat="45.10879" lon="3.30524">
        <ele>1058</ele>
        <time>2019-04-17T06:51:44Z</time>
      </trkpt>
      <trkpt lat="45.10901" lon="3.3048">
        <ele>1058</ele>
        <time>2019-04-17T06:52:44Z</time>
      </trkpt>
      <trkpt lat="45.10951" lon="3.30391">
        <ele>1064</ele>
        <time>2019-04-17T06:53:44Z</time>
      </trkpt>
      <trkpt lat="45.10989" lon="3.30314">
        <ele>1069</ele>
        <time>2019-04-17T06:54:44Z</time>
      </trkpt>
      <trkpt lat="45.11001" lon="3.30268">
        <ele>1070</ele>
        <time>2019-04-17T06:55:44Z</time>
      </trkpt>
      <trkpt lat="45.11012" lon="3.30217">
        <ele>1070</ele>
        <time>2019-04-17T06:56:44Z</time>
      </trkpt>
      <trkpt lat="45.11024" lon="3.30148">
        <ele>1070</ele>
        <time>2019-04-17T06:57:44Z</time>
      </trkpt>
      <trkpt lat="45.11031" lon="3.3008">
        <ele>1072</ele>
        <time>2019-04-17T06:58:44Z</time>
      </trkpt>
      <trkpt lat="45.11036" lon="3.29883">
        <ele>1073</ele>
        <time>2019-04-17T06:59:44Z</time>
      </trkpt>
      <trkpt lat="45.11037" lon="3.29574">
        <ele>1077</ele>
        <time>2019-04-17T07:00:44Z</time>
      </trkpt>
      <trkpt lat="45.11043" lon="3.2955">
        <ele>1078</ele>
        <time>2019-04-17T07:01:44Z</time>
      </trkpt>
      <trkpt lat="45.11064" lon="3.29522">
        <ele>1078</ele>
        <time>2019-04-17T07:02:44Z</time>
      </trkpt>
      <trkpt lat="45.11084" lon="3.29487">
        <ele>1079</ele>
        <time>2019-04-17T07:03:44Z</time>
      </trkpt>
      <trkpt lat="45.11128" lon="3.2932">
        <ele>1082</ele>
        <time>2019-04-17T07:04:44Z</time>
      </trkpt>
      <trkpt lat="45.11267" lon="3.28917">
        <ele>1077</ele>
        <time>2019-04-17T07:05:44Z</time>
      </trkpt>
      <trkpt lat="45.11296" lon="3.28824">
        <ele>1074</ele>
        <time>2019-04-17T07:06:44Z</time>
      </trkpt>
      <trkpt lat="45.11332" lon="3.28641">
        <ele>1071</ele>
        <time>2019-04-17T07:07:44Z</time>
      </trkpt>
      <trkpt lat="45.11339" lon="3.28548">
        <ele>1068</ele>
        <time>2019-04-17T07:08:44Z</time>
      </trkpt>
      <trkpt lat="45.11332" lon="3.28487">
        <ele>1067</ele>
        <time>2019-04-17T07:09:44Z</time>
      </trkpt>
      <trkpt lat="45.11306" lon="3.28387">
        <ele>1063</ele>
        <time>2019-04-17T07:10:44Z</time>
      </trkpt>
      <trkpt lat="45.11299" lon="3.28352">
        <ele>1063</ele>
        <time>2019-04-17T07:11:44Z</time>
      </trkpt>
      <trkpt lat="45.11299" lon="3.28302">
        <ele>1061</ele>
        <time>2019-04-17T07:12:44Z</time>
      </trkpt>
      <trkpt lat="45.113" lon="3.28246">
        <ele>1058</ele>
        <time>2019-04-17T07:13:44Z</time>
      </trkpt>
      <trkpt lat="45.11305" lon="3.28206">
        <ele>1055</ele>
        <time>2019-04-17T07:14:44Z</time>
      </trkpt>
      <trkpt lat="45.11328" lon="3.28073">
        <ele>1048</ele>
        <time>2019-04-17T07:15:44Z</time>
      </trkpt>
      <trkpt lat="45.11339" lon="3.2802">
        <ele>1047</ele>
        <time>2019-04-17T07:16:44Z</time>
      </trkpt>
      <trkpt lat="45.11351" lon="3.27996">
        <ele>1046</ele>
        <time>2019-04-17T07:17:44Z</time>
      </trkpt>
      <trkpt lat="45.1137" lon="3.27975">
        <ele>1044</ele>
        <time>2019-04-17T07:18:44Z</time>
      </trkpt>
      <trkpt lat="45.11399" lon="3.27958">
        <ele>1043</ele>
        <time>2019-04-17T07:19:44Z</time>
      </trkpt>
      <trkpt lat="45.11421" lon="3.27957">
        <ele>1042</ele>
        <time>2019-04-17T07:20:44Z</time>
      </trkpt>
      <trkpt lat="45.11436" lon="3.27966">
        <ele>1040</ele>
        <time>2019-04-17T07:21:44Z</time>
      </trkpt>
      <trkpt lat="45.11448" lon="3.27984">
        <ele>1040</ele>
        <time>2019-04-17T07:22:44Z</time>
      </trkpt>
      <trkpt lat="45.1146" lon="3.28015">
        <ele>1040</ele>
        <time>2019-04-17T07:23:44Z</time>
      </trkpt>
      <trkpt lat="45.11471" lon="3.28038">
        <ele>1039</ele>
        <time>2019-04-17T07:24:44Z</time>
      </trkpt>
      <trkpt lat="45.1152" lon="3.28111">
        <ele>1037</ele>
        <time>2019-04-17T07:25:44Z</time>
      </trkpt>
      <trkpt lat="45.11537" lon="3.2813">
        <ele>1036</ele>
        <time>2019-04-17T07:26:44Z</time>
      </trkpt>
      <trkpt lat="45.11556" lon="3.28143">
        <ele>1035</ele>
        <time>2019-04-17T07:27:44Z</time>
      </trkpt>
      <trkpt lat="45.11577" lon="3.28144">
        <ele>1032</ele>
        <time>2019-04-17T07:28:44Z</time>
      </trkpt>
      <trkpt lat="45.11594" lon="3.28134">
        <ele>1032</ele>
        <time>2019-04-17T07:29:44Z</time>
      </trkpt>
      <trkpt lat="45.11606" lon="3.28118">
        <ele>1031</ele>
        <time>2019-04-17T07:30:44Z</time>
      </trkpt>
      <trkpt lat="45.11611" lon="3.28088">
        <ele>1030</ele>
        <time>2019-04-17T07:31:44Z</time>
      </trkpt>
      <trkpt lat="45.11611" lon="3.28046">
        <ele>1030</ele>
        <time>2019-04-17T07:32:44Z</time>
      </trkpt>
      <trkpt lat="45.11571" lon="3.27621">
        <ele>1046</ele>
        <time>2019-04-17T07:33:44Z</time>
      </trkpt>
      <trkpt lat="45.11561" lon="3.27537">
        <ele>1048</ele>
        <time>2019-04-17T07:34:44Z</time>
      </trkpt>
      <trkpt lat="45.11542" lon="3.2746">
        <ele>1050</ele>
        <time>2019-04-17T07:35:44Z</time>
      </trkpt>
      <trkpt lat="45.11494" lon="3.27365">
        <ele>1056</ele>
        <time>2019-04-17T07:36:44Z</time>
      </trkpt>
      <trkpt lat="45.11428" lon="3.27295">
        <ele>1058</ele>
        <time>2019-04-17T07:37:44Z</time>
      </trkpt>
      <trkpt lat="45.11361" lon="3.27234">
        <ele>1056</ele>
        <time>2019-04-17T07:38:44Z</time>
      </trkpt>
      <trkpt lat="45.11301" lon="3.27206">
        <ele>1054</ele>
        <time>2019-04-17T07:39:44Z</time>
      </trkpt>
      <trkpt lat="45.1123" lon="3.27181">
        <ele>1052</ele>
        <time>2019-04-17T07:40:44Z</time>
      </trkpt>
      <trkpt lat="45.10983" lon="3.26962">
        <ele>1038</ele>
        <time>2019-04-17T07:41:44Z</time>
      </trkpt>
      <trkpt lat="45.10922" lon="3.26896">
        <ele>1036</ele>
        <time>2019-04-17T07:42:44Z</time>
      </trkpt>
      <trkpt lat="45.11119" lon="3.26764">
        <ele>1045</ele>
        <time>2019-04-17T07:43:44Z</time>
      </trkpt>
      <trkpt lat="45.11197" lon="3.26704">
        <ele>1047</ele>
        <time>2019-04-17T07:44:44Z</time>
      </trkpt>
      <trkpt lat="45.113" lon="3.26639">
        <ele>1052</ele>
        <time>2019-04-17T07:45:44Z</time>
      </trkpt>
      <trkpt lat="45.11432" lon="3.26515">
        <ele>1056</ele>
        <time>2019-04-17T07:46:44Z</time>
      </trkpt>
      <trkpt lat="45.11454" lon="3.26472">
        <ele>1057</ele>
        <time>2019-04-17T07:47:44Z</time>
      </trkpt>
      <trkpt lat="45.11466" lon="3.26438">
        <ele>1058</ele>
        <time>2019-04-17T07:48:44Z</time>
      </trkpt>
      <trkpt lat="45.11503" lon="3.26293">
        <ele>1064</ele>
        <time>2019-04-17T07:49:44Z</time>
      </trkpt>
      <trkpt lat="45.11543" lon="3.26196">
        <ele>1067</ele>
        <time>2019-04-17T07:50:44Z</time>
      </trkpt>
      <trkpt lat="45.11571" lon="3.2612">
        <ele>1068</ele>
        <time>2019-04-17T07:51:44Z</time>
      </trkpt>
      <trkpt lat="45.11586" lon="3.26094">
        <ele>1068</ele>
        <time>2019-04-17T07:52:44Z</time>
      </trkpt>
      <trkpt lat="45.11646" lon="3.2602">
        <ele>1069</ele>
        <time>2019-04-17T07:53:44Z</time>
      </trkpt>
      <trkpt lat="45.1166" lon="3.2601">
        <ele>1069</ele>
        <time>2019-04-17T07:54:44Z</time>
      </trkpt>
      <trkpt lat="45.11758" lon="3.25994">
        <ele>1071</ele>
        <time>2019-04-17T07:55:44Z</time>
      </trkpt>
      <trkpt lat="45.11818" lon="3.25974">
        <ele>1070</ele>
        <time>2019-04-17T07:56:44Z</time>
      </trkpt>
      <trkpt lat="45.11879" lon="3.25937">
        <ele>1069</ele>
        <time>2019-04-17T07:57:44Z</time>
      </trkpt>
      <trkpt lat="45.11909" lon="3.25926">
        <ele>1069</ele>
        <time>2019-04-17T07:58:44Z</time>
      </trkpt>
      <trkpt lat="45.11927" lon="3.25916">
        <ele>1069</ele>
        <time>2019-04-17T07:59:44Z</time>
      </trkpt>
      <trkpt lat="45.11931" lon="3.25906">
        <ele>1069</ele>
        <time>2019-04-17T08:00:44Z</time>
      </trkpt>
      <trkpt lat="45.11929" lon="3.2589">
        <ele>1069</ele>
        <time>2019-04-17T08:01:44Z</time>
      </trkpt>
      <trkpt lat="45.1189" lon="3.2583">
        <ele>1066</ele>
        <time>2019-04-17T08:02:44Z</time>
      </trkpt>
      <trkpt lat="45.11862" lon="3.25766">
        <ele>1065</ele>
        <time>2019-04-17T08:03:44Z</time>
      </trkpt>
      <trkpt lat="45.11868" lon="3.25749">
        <ele>1065</ele>
        <time>2019-04-17T08:04:44Z</time>
      </trkpt>
      <trkpt lat="45.1193" lon="3.2569">
        <ele>1066</ele>
        <time>2019-04-17T08:05:44Z</time>
      </trkpt>
      <trkpt lat="45.1195" lon="3.25662">
        <ele>1066</ele>
        <time>2019-04-17T08:06:44Z</time>
      </trkpt>
      <trkpt lat="45.11973" lon="3.25653">
        <ele>1067</ele>
        <time>2019-04-17T08:07:44Z</time>
      </trkpt>
      <trkpt lat="45.12034" lon="3.25652">
        <ele>1069</ele>
        <time>2019-04-17T08:08:44Z</time>
      </trkpt>
      <trkpt lat="45.12075" lon="3.25643">
        <ele>1070</ele>
        <time>2019-04-17T08:09:44Z</time>
      </trkpt>
      <trkpt lat="45.12113" lon="3.25644">
        <ele>1072</ele>
        <time>2019-04-17T08:10:44Z</time>
      </trkpt>
      <trkpt lat="45.1216" lon="3.25621">
        <ele>1073</ele>
        <time>2019-04-17T08:11:44Z</time>
      </trkpt>
      <trkpt lat="45.12175" lon="3.25601">
        <ele>1073</ele>
        <time>2019-04-17T08:12:44Z</time>
      </trkpt>
      <trkpt lat="45.12172" lon="3.25563">
        <ele>1073</ele>
        <time>2019-04-17T08:13:44Z</time>
      </trkpt>
      <trkpt lat="45.12168" lon="3.25534">
        <ele>1073</ele>
        <time>2019-04-17T08:14:44Z</time>
      </trkpt>
      <trkpt lat="45.12183" lon="3.25482">
        <ele>1072</ele>
        <time>2019-04-17T08:15:44Z</time>
      </trkpt>
      <trkpt lat="45.1223" lon="3.25349">
        <ele>1070</ele>
        <time>2019-04-17T08:16:44Z</time>
      </trkpt>
      <trkpt lat="45.12315" lon="3.25267">
        <ele>1066</ele>
        <time>2019-04-17T08:17:44Z</time>
      </trkpt>
      <trkpt lat="45.12345" lon="3.25167">
        <ele>1061</ele>
        <time>2019-04-17T08:18:44Z</time>
      </trkpt>
      <trkpt lat="45.12349" lon="3.25127">
        <ele>1058</ele>
        <time>2019-04-17T08:19:44Z</time>
      </trkpt>
      <trkpt lat="45.12335" lon="3.25088">
        <ele>1057</ele>
        <time>2019-04-17T08:20:44Z</time>
      </trkpt>
      <trkpt lat="45.12331" lon="3.25058">
        <ele>1056</ele>
        <time>2019-04-17T08:21:44Z</time>
      </trkpt>
      <trkpt lat="45.12338" lon="3.25013">
        <ele>1053</ele>
        <time>2019-04-17T08:22:44Z</time>
      </trkpt>
      <trkpt lat="45.1236" lon="3.24972">
        <ele>1049</ele>
        <time>2019-04-17T08:23:44Z</time>
      </trkpt>
      <trkpt lat="45.12397" lon="3.24928">
        <ele>1044</ele>
        <time>2019-04-17T08:24:44Z</time>
      </trkpt>
      <trkpt lat="45.12409" lon="3.24926">
        <ele>1043</ele>
        <time>2019-04-17T08:25:44Z</time>
      </trkpt>
      <trkpt lat="45.12442" lon="3.24941">
        <ele>1040</ele>
        <time>2019-04-17T08:26:44Z</time>
      </trkpt>
      <trkpt lat="45.12513" lon="3.24958">
        <ele>1032</ele>
        <time>2019-04-17T08:27:44Z</time>
      </trkpt>
      <trkpt lat="45.12527" lon="3.24954">
        <ele>1030</ele>
        <time>2019-04-17T08:28:44Z</time>
      </trkpt>
      <trkpt lat="45.12538" lon="3.2494">
        <ele>1028</ele>
        <time>2019-04-17T08:29:44Z</time>
      </trkpt>
      <trkpt lat="45.12552" lon="3.24806">
        <ele>1015</ele>
        <time>2019-04-17T08:30:44Z</time>
      </trkpt>
      <trkpt lat="45.12543" lon="3.24574">
        <ele>1002</ele>
        <time>2019-04-17T08:31:44Z</time>
      </trkpt>
      <trkpt lat="45.12556" lon="3.24547">
        <ele>1001</ele>
        <time>2019-04-17T08:32:44Z</time>
      </trkpt>
      <trkpt lat="45.12617" lon="3.24496">
        <ele>1003</ele>
        <time>2019-04-17T08:33:44Z</time>
      </trkpt>
      <trkpt lat="45.12627" lon="3.2449">
        <ele>1004</ele>
        <time>2019-04-17T08:34:44Z</time>
      </trkpt>
      <trkpt lat="45.12638" lon="3.2449">
        <ele>1004</ele>
        <time>2019-04-17T08:35:44Z</time>
      </trkpt>
      <trkpt lat="45.12646" lon="3.24494">
        <ele>1005</ele>
        <time>2019-04-17T08:36:44Z</time>
      </trkpt>
      <trkpt lat="45.12654" lon="3.24508">
        <ele>1005</ele>
        <time>2019-04-17T08:37:44Z</time>
      </trkpt>
      <trkpt lat="45.1266" lon="3.24523">
        <ele>1005</ele>
        <time>2019-04-17T08:38:44Z</time>
      </trkpt>
      <trkpt lat="45.12682" lon="3.246">
        <ele>1006</ele>
        <time>2019-04-17T08:39:44Z</time>
      </trkpt>
      <trkpt lat="45.12697" lon="3.24617">
        <ele>1007</ele>
        <time>2019-04-17T08:40:44Z</time>
      </trkpt>
      <trkpt lat="45.12715" lon="3.24616">
        <ele>1009</ele>
        <time>2019-04-17T08:41:44Z</time>
      </trkpt>
      <trkpt lat="45.12734" lon="3.24593">
        <ele>1012</ele>
        <time>2019-04-17T08:42:44Z</time>
      </trkpt>
      <trkpt lat="45.12772" lon="3.24491">
        <ele>1018</ele>
        <time>2019-04-17T08:43:44Z</time>
      </trkpt>
      <trkpt lat="45.12779" lon="3.24471">
        <ele>1019</ele>
        <time>2019-04-17T08:44:44Z</time>
      </trkpt>
      <trkpt lat="45.12783" lon="3.24452">
        <ele>1020</ele>
        <time>2019-04-17T08:45:44Z</time>
      </trkpt>
      <trkpt lat="45.12771" lon="3.24349">
        <ele>1021</ele>
        <time>2019-04-17T08:46:44Z</time>
      </trkpt>
      <trkpt lat="45.1277" lon="3.24323">
        <ele>1021</ele>
        <time>2019-04-17T08:47:44Z</time>
      </trkpt>
      <trkpt lat="45.12773" lon="3.24295">
        <ele>1022</ele>
        <time>2019-04-17T08:48:44Z</time>
      </trkpt>
      <trkpt lat="45.12789" lon="3.2425">
        <ele>1023</ele>
        <time>2019-04-17T08:49:44Z</time>
      </trkpt>
      <trkpt lat="45.12811" lon="3.24204">
        <ele>1022</ele>
        <time>2019-04-17T08:50:44Z</time>
      </trkpt>
      <trkpt lat="45.12825" lon="3.2418">
        <ele>1022</ele>
        <time>2019-04-17T08:51:44Z</time>
      </trkpt>
      <trkpt lat="45.12836" lon="3.24167">
        <ele>1022</ele>
        <time>2019-04-17T08:52:44Z</time>
      </trkpt>
      <trkpt lat="45.13059" lon="3.2392">
        <ele>1024</ele>
        <time>2019-04-17T08:53:44Z</time>
      </trkpt>
      <trkpt lat="45.13078" lon="3.23897">
        <ele>1024</ele>
        <time>2019-04-17T08:54:44Z</time>
      </trkpt>
      <trkpt lat="45.13092" lon="3.23872">
        <ele>1024</ele>
        <time>2019-04-17T08:55:44Z</time>
      </trkpt>
      <trkpt lat="45.13098" lon="3.2385">
        <ele>1025</ele>
        <time>2019-04-17T08:56:44Z</time>
      </trkpt>
      <trkpt lat="45.13181" lon="3.23417">
        <ele>1028</ele>
        <time>2019-04-17T08:57:44Z</time>
      </trkpt>
      <trkpt lat="45.13182" lon="3.23405">
        <ele>1028</ele>
        <time>2019-04-17T08:58:44Z</time>
      </trkpt>
      <trkpt lat="45.13193" lon="3.23346">
        <ele>1026</ele>
        <time>2019-04-17T08:59:44Z</time>
      </trkpt>
      <trkpt lat="45.13194" lon="3.23308">
        <ele>1024</ele>
        <time>2019-04-17T09:00:44Z</time>
      </trkpt>
      <trkpt lat="45.13188" lon="3.23276">
        <ele>1022</ele>
        <time>2019-04-17T09:01:44Z</time>
      </trkpt>
      <trkpt lat="45.13111" lon="3.23141">
        <ele>1018</ele>
        <time>2019-04-17T09:02:44Z</time>
      </trkpt>
      <trkpt lat="45.13101" lon="3.23114">
        <ele>1018</ele>
        <time>2019-04-17T09:03:44Z</time>
      </trkpt>
      <trkpt lat="45.13084" lon="3.22965">
        <ele>1012</ele>
        <time>2019-04-17T09:04:44Z</time>
      </trkpt>
      <trkpt lat="45.13084" lon="3.22924">
        <ele>1011</ele>
        <time>2019-04-17T09:05:44Z</time>
      </trkpt>
      <trkpt lat="45.13104" lon="3.22846">
        <ele>1010</ele>
        <time>2019-04-17T09:06:44Z</time>
      </trkpt>
      <trkpt lat="45.13131" lon="3.22755">
        <ele>1010</ele>
        <time>2019-04-17T09:07:44Z</time>
      </trkpt>
      <trkpt lat="45.13165" lon="3.22636">
        <ele>1007</ele>
        <time>2019-04-17T09:08:44Z</time>
      </trkpt>
      <trkpt lat="45.13177" lon="3.22599">
        <ele>1007</ele>
        <time>2019-04-17T09:09:44Z</time>
      </trkpt>
      <trkpt lat="45.13236" lon="3.22495">
        <ele>1008</ele>
        <time>2019-04-17T09:10:44Z</time>
      </trkpt>
      <trkpt lat="45.13253" lon="3.22455">
        <ele>1007</ele>
        <time>2019-04-17T09:11:44Z</time>
      </trkpt>
      <trkpt lat="45.13306" lon="3.22202">
        <ele>1006</ele>
        <time>2019-04-17T09:12:44Z</time>
      </trkpt>
      <trkpt lat="45.13335" lon="3.22053">
        <ele>1005</ele>
        <time>2019-04-17T09:13:44Z</time>
      </trkpt>
      <trkpt lat="45.13344" lon="3.2202">
        <ele>1004</ele>
        <time>2019-04-17T09:14:44Z</time>
      </trkpt>
      <trkpt lat="45.13359" lon="3.2199">
        <ele>1003</ele>
        <time>2019-04-17T09:15:44Z</time>
      </trkpt>
      <trkpt lat="45.1339" lon="3.2195">
        <ele>1000</ele>
        <time>2019-04-17T09:16:44Z</time>
      </trkpt>
      <trkpt lat="45.13406" lon="3.21917">
        <ele>999</ele>
        <time>2019-04-17T09:17:44Z</time>
      </trkpt>
      <trkpt lat="45.13434" lon="3.21811">
        <ele>995</ele>
        <time>2019-04-17T09:18:44Z</time>
      </trkpt>
      <trkpt lat="45.13475" lon="3.21723">
        <ele>992</ele>
        <time>2019-04-17T09:19:44Z</time>
      </trkpt>
      <trkpt lat="45.13535" lon="3.21608">
        <ele>987</ele>
        <time>2019-04-17T09:20:44Z</time>
      </trkpt>
      <trkpt lat="45.13555" lon="3.21585">
        <ele>986</ele>
        <time>2019-04-17T09:21:44Z</time>
      </trkpt>
      <trkpt lat="45.13592" lon="3.21571">
        <ele>985</ele>
        <time>2019-04-17T09:22:44Z</time>
      </trkpt>
      <trkpt lat="45.13619" lon="3.21556">
        <ele>982</ele>
        <time>2019-04-17T09:23:44Z</time>
      </trkpt>
      <trkpt lat="45.13647" lon="3.2152">
        <ele>980</ele>
        <time>2019-04-17T09:24:44Z</time>
      </trkpt>
      <trkpt lat="45.13676" lon="3.21434">
        <ele>976</ele>
        <time>2019-04-17T09:25:44Z</time>
      </trkpt>
      <trkpt lat="45.13678" lon="3.2141">
        <ele>976</ele>
        <time>2019-04-17T09:26:44Z</time>
      </trkpt>
      <trkpt lat="45.13672" lon="3.21379">
        <ele>975</ele>
        <time>2019-04-17T09:27:44Z</time>
      </trkpt>
      <trkpt lat="45.13659" lon="3.21341">
        <ele>974</ele>
        <time>2019-04-17T09:28:44Z</time>
      </trkpt>
      <trkpt lat="45.13638" lon="3.21325">
        <ele>974</ele>
        <time>2019-04-17T09:29:44Z</time>
      </trkpt>
      <trkpt lat="45.13595" lon="3.21305">
        <ele>972</ele>
        <time>2019-04-17T09:30:44Z</time>
      </trkpt>
      <trkpt lat="45.13582" lon="3.21289">
        <ele>971</ele>
        <time>2019-04-17T09:31:44Z</time>
      </trkpt>
      <trkpt lat="45.13582" lon="3.21264">
        <ele>969</ele>
        <time>2019-04-17T09:32:44Z</time>
      </trkpt>
      <trkpt lat="45.13606" lon="3.21219">
        <ele>965</ele>
        <time>2019-04-17T09:33:44Z</time>
      </trkpt>
      <trkpt lat="45.13605" lon="3.21193">
        <ele>962</ele>
        <time>2019-04-17T09:34:44Z</time>
      </trkpt>
      <trkpt lat="45.13596" lon="3.21176">
        <ele>960</ele>
        <time>2019-04-17T09:35:44Z</time>
      </trkpt>
      <trkpt lat="45.13574" lon="3.21174">
        <ele>958</ele>
        <time>2019-04-17T09:36:44Z</time>
      </trkpt>
      <trkpt lat="45.13536" lon="3.21185">
        <ele>956</ele>
        <time>2019-04-17T09:37:44Z</time>
      </trkpt>
      <trkpt lat="45.13465" lon="3.2119">
        <ele>949</ele>
        <time>2019-04-17T09:38:44Z</time>
      </trkpt>
      <trkpt lat="45.13427" lon="3.21211">
        <ele>948</ele>
        <time>2019-04-17T09:39:44Z</time>
      </trkpt>
      <trkpt lat="45.13399" lon="3.21217">
        <ele>946</ele>
        <time>2019-04-17T09:40:44Z</time>
      </trkpt>
      <trkpt lat="45.13344" lon="3.21224">
        <ele>942</ele>
        <time>2019-04-17T09:41:44Z</time>
      </trkpt>
      <trkpt lat="45.13243" lon="3.21306">
        <ele>938</ele>
        <time>2019-04-17T09:42:44Z</time>
      </trkpt>
      <trkpt lat="45.13232" lon="3.21309">
        <ele>938</ele>
        <time>2019-04-17T09:43:44Z</time>
      </trkpt>
      <trkpt lat="45.1322" lon="3.21307">
        <ele>937</ele>
        <time>2019-04-17T09:44:44Z</time>
      </trkpt>
      <trkpt lat="45.13203" lon="3.21283">
        <ele>936</ele>
        <time>2019-04-17T09:45:44Z</time>
      </trkpt>
      <trkpt lat="45.13198" lon="3.2127">
        <ele>936</ele>
        <time>2019-04-17T09:46:44Z</time>
      </trkpt>
      <trkpt lat="45.13196" lon="3.21257">
        <ele>937</ele>
        <time>2019-04-17T09:47:44Z</time>
      </trkpt>
      <trkpt lat="45.13197" lon="3.21243">
        <ele>937</ele>
        <time>2019-04-17T09:48:44Z</time>
      </trkpt>
      <trkpt lat="45.13201" lon="3.21232">
        <ele>938</ele>
        <time>2019-04-17T09:49:44Z</time>
      </trkpt>
      <trkpt lat="45.1324" lon="3.21184">
        <ele>941</ele>
        <time>2019-04-17T09:50:44Z</time>
      </trkpt>
      <trkpt lat="45.13276" lon="3.21141">
        <ele>941</ele>
        <time>2019-04-17T09:51:44Z</time>
      </trkpt>
      <trkpt lat="45.13294" lon="3.21095">
        <ele>945</ele>
        <time>2019-04-17T09:52:44Z</time>
      </trkpt>
      <trkpt lat="45.13327" lon="3.21072">
        <ele>944</ele>
        <time>2019-04-17T09:53:44Z</time>
      </trkpt>
      <trkpt lat="45.13395" lon="3.21018">
        <ele>949</ele>
        <time>2019-04-17T09:54:44Z</time>
      </trkpt>
      <trkpt lat="45.13451" lon="3.20988">
        <ele>952</ele>
        <time>2019-04-17T09:55:44Z</time>
      </trkpt>
      <trkpt lat="45.13495" lon="3.20936">
        <ele>955</ele>
        <time>2019-04-17T09:56:44Z</time>
      </trkpt>
      <trkpt lat="45.13519" lon="3.20895">
        <ele>955</ele>
        <time>2019-04-17T09:57:44Z</time>
      </trkpt>
      <trkpt lat="45.13528" lon="3.20796">
        <ele>956</ele>
        <time>2019-04-17T09:58:44Z</time>
      </trkpt>
      <trkpt lat="45.13519" lon="3.20746">
        <ele>956</ele>
        <time>2019-04-17T09:59:44Z</time>
      </trkpt>
      <trkpt lat="45.13488" lon="3.20702">
        <ele>957</ele>
        <time>2019-04-17T10:00:44Z</time>
      </trkpt>
      <trkpt lat="45.13447" lon="3.20663">
        <ele>961</ele>
        <time>2019-04-17T10:01:44Z</time>
      </trkpt>
      <trkpt lat="45.13437" lon="3.20648">
        <ele>961</ele>
        <time>2019-04-17T10:02:44Z</time>
      </trkpt>
      <trkpt lat="45.13423" lon="3.20613">
        <ele>962</ele>
        <time>2019-04-17T10:03:44Z</time>
      </trkpt>
      <trkpt lat="45.1338" lon="3.20561">
        <ele>964</ele>
        <time>2019-04-17T10:04:44Z</time>
      </trkpt>
      <trkpt lat="45.13359" lon="3.20524">
        <ele>966</ele>
        <time>2019-04-17T10:05:44Z</time>
      </trkpt>
      <trkpt lat="45.13334" lon="3.20449">
        <ele>969</ele>
        <time>2019-04-17T10:06:44Z</time>
      </trkpt>
      <trkpt lat="45.1332" lon="3.20438">
        <ele>970</ele>
        <time>2019-04-17T10:07:44Z</time>
      </trkpt>
      <trkpt lat="45.13223" lon="3.20391">
        <ele>973</ele>
        <time>2019-04-17T10:08:44Z</time>
      </trkpt>
      <trkpt lat="45.13191" lon="3.20361">
        <ele>975</ele>
        <time>2019-04-17T10:09:44Z</time>
      </trkpt>
      <trkpt lat="45.13178" lon="3.20333">
        <ele>976</ele>
        <time>2019-04-17T10:10:44Z</time>
      </trkpt>
      <trkpt lat="45.13169" lon="3.20265">
        <ele>977</ele>
        <time>2019-04-17T10:11:44Z</time>
      </trkpt>
      <trkpt lat="45.13168" lon="3.20138">
        <ele>981</ele>
        <time>2019-04-17T10:12:44Z</time>
      </trkpt>
      <trkpt lat="45.13172" lon="3.20051">
        <ele>984</ele>
        <time>2019-04-17T10:13:44Z</time>
      </trkpt>
      <trkpt lat="45.13176" lon="3.2">
        <ele>986</ele>
        <time>2019-04-17T10:14:44Z</time>
      </trkpt>
      <trkpt lat="45.13171" lon="3.19961">
        <ele>987</ele>
        <time>2019-04-17T10:15:44Z</time>
      </trkpt>
      <trkpt lat="45.13154" lon="3.19902">
        <ele>989</ele>
        <time>2019-04-17T10:16:44Z</time>
      </trkpt>
      <trkpt lat="45.1312" lon="3.1981">
        <ele>991</ele>
        <time>2019-04-17T10:17:44Z</time>
      </trkpt>
      <trkpt lat="45.13091" lon="3.19714">
        <ele>988</ele>
        <time>2019-04-17T10:18:44Z</time>
      </trkpt>
      <trkpt lat="45.13078" lon="3.19678">
        <ele>986</ele>
        <time>2019-04-17T10:19:44Z</time>
      </trkpt>
      <trkpt lat="45.13054" lon="3.19646">
        <ele>984</ele>
        <time>2019-04-17T10:20:44Z</time>
      </trkpt>
      <trkpt lat="45.12973" lon="3.19598">
        <ele>984</ele>
        <time>2019-04-17T10:21:44Z</time>
      </trkpt>
      <trkpt lat="45.12938" lon="3.19568">
        <ele>985</ele>
        <time>2019-04-17T10:22:44Z</time>
      </trkpt>
      <trkpt lat="45.12879" lon="3.19532">
        <ele>985</ele>
        <time>2019-04-17T10:23:44Z</time>
      </trkpt>
      <trkpt lat="45.12827" lon="3.19508">
        <ele>985</ele>
        <time>2019-04-17T10:24:44Z</time>
      </trkpt>
      <trkpt lat="45.12805" lon="3.19493">
        <ele>985</ele>
        <time>2019-04-17T10:25:44Z</time>
      </trkpt>
      <trkpt lat="45.12798" lon="3.19477">
        <ele>986</ele>
        <time>2019-04-17T10:26:44Z</time>
      </trkpt>
      <trkpt lat="45.12801" lon="3.19436">
        <ele>986</ele>
        <time>2019-04-17T10:27:44Z</time>
      </trkpt>
      <trkpt lat="45.12809" lon="3.19402">
        <ele>986</ele>
        <time>2019-04-17T10:28:44Z</time>
      </trkpt>
      <trkpt lat="45.12873" lon="3.19319">
        <ele>987</ele>
        <time>2019-04-17T10:29:44Z</time>
      </trkpt>
      <trkpt lat="45.1289" lon="3.19292">
        <ele>988</ele>
        <time>2019-04-17T10:30:44Z</time>
      </trkpt>
      <trkpt lat="45.12896" lon="3.19271">
        <ele>989</ele>
        <time>2019-04-17T10:31:44Z</time>
      </trkpt>
      <trkpt lat="45.12891" lon="3.19241">
        <ele>991</ele>
        <time>2019-04-17T10:32:44Z</time>
      </trkpt>
      <trkpt lat="45.12862" lon="3.19176">
        <ele>994</ele>
        <time>2019-04-17T10:33:44Z</time>
      </trkpt>
      <trkpt lat="45.12855" lon="3.19152">
        <ele>995</ele>
        <time>2019-04-17T10:34:44Z</time>
      </trkpt>
      <trkpt lat="45.12857" lon="3.1913">
        <ele>995</ele>
        <time>2019-04-17T10:35:44Z</time>
      </trkpt>
      <trkpt lat="45.12926" lon="3.18744">
        <ele>993</ele>
        <time>2019-04-17T10:36:44Z</time>
      </trkpt>
      <trkpt lat="45.12962" lon="3.18574">
        <ele>989</ele>
        <time>2019-04-17T10:37:44Z</time>
      </trkpt>
      <trkpt lat="45.12992" lon="3.18425">
        <ele>985</ele>
        <time>2019-04-17T10:38:44Z</time>
      </trkpt>
      <trkpt lat="45.13002" lon="3.18365">
        <ele>983</ele>
        <time>2019-04-17T10:39:44Z</time>
      </trkpt>
      <trkpt lat="45.13004" lon="3.18328">
        <ele>982</ele>
        <time>2019-04-17T10:40:44Z</time>
      </trkpt>
      <trkpt lat="45.12931" lon="3.17802">
        <ele>994</ele>
        <time>2019-04-17T10:41:44Z</time>
      </trkpt>
      <trkpt lat="45.12933" lon="3.17748">
        <ele>994</ele>
        <time>2019-04-17T10:42:44Z</time>
      </trkpt>
      <trkpt lat="45.12955" lon="3.17516">
        <ele>988</ele>
        <time>2019-04-17T10:43:44Z</time>
      </trkpt>
      <trkpt lat="45.12953" lon="3.17467">
        <ele>988</ele>
        <time>2019-04-17T10:44:44Z</time>
      </trkpt>
      <trkpt lat="45.12947" lon="3.17431">
        <ele>987</ele>
        <time>2019-04-17T10:45:44Z</time>
      </trkpt>
      <trkpt lat="45.1283" lon="3.17044">
        <ele>981</ele>
        <time>2019-04-17T10:46:44Z</time>
      </trkpt>
      <trkpt lat="45.12817" lon="3.16995">
        <ele>981</ele>
        <time>2019-04-17T10:47:44Z</time>
      </trkpt>
      <trkpt lat="45.12814" lon="3.16961">
        <ele>980</ele>
        <time>2019-04-17T10:48:44Z</time>
      </trkpt>
      <trkpt lat="45.12816" lon="3.16932">
        <ele>980</ele>
        <time>2019-04-17T10:49:44Z</time>
      </trkpt>
      <trkpt lat="45.12821" lon="3.16914">
        <ele>980</ele>
        <time>2019-04-17T10:50:44Z</time>
      </trkpt>
      <trkpt lat="45.1283" lon="3.16893">
        <ele>979</ele>
        <time>2019-04-17T10:51:44Z</time>
      </trkpt>
      <trkpt lat="45.12868" lon="3.16831">
        <ele>979</ele>
        <time>2019-04-17T10:52:44Z</time>
      </trkpt>
      <trkpt lat="45.12882" lon="3.16805">
        <ele>978</ele>
        <time>2019-04-17T10:53:44Z</time>
      </trkpt>
      <trkpt lat="45.1289" lon="3.16782">
        <ele>977</ele>
        <time>2019-04-17T10:54:44Z</time>
      </trkpt>
      <trkpt lat="45.12894" lon="3.16763">
        <ele>976</ele>
        <time>2019-04-17T10:55:44Z</time>
      </trkpt>
      <trkpt lat="45.12895" lon="3.16721">
        <ele>975</ele>
        <time>2019-04-17T10:56:44Z</time>
      </trkpt>
      <trkpt lat="45.12893" lon="3.16696">
        <ele>974</ele>
        <time>2019-04-17T10:57:44Z</time>
      </trkpt>
      <trkpt lat="45.12886" lon="3.16679">
        <ele>973</ele>
        <time>2019-04-17T10:58:44Z</time>
      </trkpt>
      <trkpt lat="45.12864" lon="3.16635">
        <ele>969</ele>
        <time>2019-04-17T10:59:44Z</time>
      </trkpt>
      <trkpt lat="45.12861" lon="3.16613">
        <ele>968</ele>
        <time>2019-04-17T11:00:44Z</time>
      </trkpt>
      <trkpt lat="45.12865" lon="3.16584">
        <ele>969</ele>
        <time>2019-04-17T11:01:44Z</time>
      </trkpt>
      <trkpt lat="45.1287" lon="3.16561">
        <ele>967</ele>
        <time>2019-04-17T11:02:44Z</time>
      </trkpt>
      <trkpt lat="45.12877" lon="3.16543">
        <ele>966</ele>
        <time>2019-04-17T11:03:44Z</time>
      </trkpt>
      <trkpt lat="45.12889" lon="3.16526">
        <ele>966</ele>
        <time>2019-04-17T11:04:44Z</time>
      </trkpt>
      <trkpt lat="45.12903" lon="3.16513">
        <ele>967</ele>
        <time>2019-04-17T11:05:44Z</time>
      </trkpt>
      <trkpt lat="45.1297" lon="3.16468">
        <ele>968</ele>
        <time>2019-04-17T11:06:44Z</time>
      </trkpt>
      <trkpt lat="45.1301" lon="3.16439">
        <ele>969</ele>
        <time>2019-04-17T11:07:44Z</time>
      </trkpt>
      <trkpt lat="45.13018" lon="3.16428">
        <ele>969</ele>
        <time>2019-04-17T11:08:44Z</time>
      </trkpt>
      <trkpt lat="45.13026" lon="3.16408">
        <ele>969</ele>
        <time>2019-04-17T11:09:44Z</time>
      </trkpt>
      <trkpt lat="45.13034" lon="3.16376">
        <ele>969</ele>
        <time>2019-04-17T11:10:44Z</time>
      </trkpt>
      <trkpt lat="45.13044" lon="3.16342">
        <ele>970</ele>
        <time>2019-04-17T11:11:44Z</time>
      </trkpt>
      <trkpt lat="45.13046" lon="3.16329">
        <ele>970</ele>
        <time>2019-04-17T11:12:44Z</time>
      </trkpt>
      <trkpt lat="45.13043" lon="3.16314">
        <ele>971</ele>
        <time>2019-04-17T11:13:44Z</time>
      </trkpt>
      <trkpt lat="45.13033" lon="3.16303">
        <ele>971</ele>
        <time>2019-04-17T11:14:44Z</time>
      </trkpt>
      <trkpt lat="45.13015" lon="3.16298">
        <ele>970</ele>
        <time>2019-04-17T11:15:44Z</time>
      </trkpt>
      <trkpt lat="45.12988" lon="3.16296">
        <ele>968</ele>
        <time>2019-04-17T11:16:44Z</time>
      </trkpt>
      <trkpt lat="45.12945" lon="3.16298">
        <ele>965</ele>
        <time>2019-04-17T11:17:44Z</time>
      </trkpt>
      <trkpt lat="45.12922" lon="3.16297">
        <ele>964</ele>
        <time>2019-04-17T11:18:44Z</time>
      </trkpt>
      <trkpt lat="45.12907" lon="3.16293">
        <ele>962</ele>
        <time>2019-04-17T11:19:44Z</time>
      </trkpt>
      <trkpt lat="45.12894" lon="3.16283">
        <ele>961</ele>
        <time>2019-04-17T11:20:44Z</time>
      </trkpt>
      <trkpt lat="45.12886" lon="3.16265">
        <ele>960</ele>
        <time>2019-04-17T11:21:44Z</time>
      </trkpt>
      <trkpt lat="45.12877" lon="3.16199">
        <ele>961</ele>
        <time>2019-04-17T11:22:44Z</time>
      </trkpt>
      <trkpt lat="45.12868" lon="3.16165">
        <ele>961</ele>
        <time>2019-04-17T11:23:44Z</time>
      </trkpt>
      <trkpt lat="45.12864" lon="3.16146">
        <ele>960</ele>
        <time>2019-04-17T11:24:44Z</time>
      </trkpt>
      <trkpt lat="45.12866" lon="3.16129">
        <ele>960</ele>
        <time>2019-04-17T11:25:44Z</time>
      </trkpt>
      <trkpt lat="45.12871" lon="3.16115">
        <ele>960</ele>
        <time>2019-04-17T11:26:44Z</time>
      </trkpt>
      <trkpt lat="45.12881" lon="3.16103">
        <ele>962</ele>
        <time>2019-04-17T11:27:44Z</time>
      </trkpt>
      <trkpt lat="45.1298" lon="3.16008">
        <ele>969</ele>
        <time>2019-04-17T11:28:44Z</time>
      </trkpt>
      <trkpt lat="45.12984" lon="3.15999">
        <ele>969</ele>
        <time>2019-04-17T11:29:44Z</time>
      </trkpt>
      <trkpt lat="45.12986" lon="3.15989">
        <ele>970</ele>
        <time>2019-04-17T11:30:44Z</time>
      </trkpt>
      <trkpt lat="45.12984" lon="3.15977">
        <ele>971</ele>
        <time>2019-04-17T11:31:44Z</time>
      </trkpt>
      <trkpt lat="45.12975" lon="3.15963">
        <ele>971</ele>
        <time>2019-04-17T11:32:44Z</time>
      </trkpt>
      <trkpt lat="45.12949" lon="3.15941">
        <ele>972</ele>
        <time>2019-04-17T11:33:44Z</time>
      </trkpt>
      <trkpt lat="45.12925" lon="3.15929">
        <ele>972</ele>
        <time>2019-04-17T11:34:44Z</time>
      </trkpt>
      <trkpt lat="45.12869" lon="3.15921">
        <ele>966</ele>
        <time>2019-04-17T11:35:44Z</time>
      </trkpt>
      <trkpt lat="45.12854" lon="3.15916">
        <ele>965</ele>
        <time>2019-04-17T11:36:44Z</time>
      </trkpt>
      <trkpt lat="45.12839" lon="3.15904">
        <ele>965</ele>
        <time>2019-04-17T11:37:44Z</time>
      </trkpt>
      <trkpt lat="45.12786" lon="3.15839">
        <ele>962</ele>
        <time>2019-04-17T11:38:44Z</time>
      </trkpt>
      <trkpt lat="45.12777" lon="3.1583">
        <ele>961</ele>
        <time>2019-04-17T11:39:44Z</time>
      </trkpt>
      <trkpt lat="45.12712" lon="3.15792">
        <ele>953</ele>
        <time>2019-04-17T11:40:44Z</time>
      </trkpt>
      <trkpt lat="45.12696" lon="3.15777">
        <ele>952</ele>
        <time>2019-04-17T11:41:44Z</time>
      </trkpt>
      <trkpt lat="45.1269" lon="3.15759">
        <ele>952</ele>
        <time>2019-04-17T11:42:44Z</time>
      </trkpt>
      <trkpt lat="45.12686" lon="3.15737">
        <ele>951</ele>
        <time>2019-04-17T11:43:44Z</time>
      </trkpt>
      <trkpt lat="45.12677" lon="3.15651">
        <ele>949</ele>
        <time>2019-04-17T11:44:44Z</time>
      </trkpt>
      <trkpt lat="45.12676" lon="3.15631">
        <ele>947</ele>
        <time>2019-04-17T11:45:44Z</time>
      </trkpt>
      <trkpt lat="45.12678" lon="3.15614">
        <ele>946</ele>
        <time>2019-04-17T11:46:44Z</time>
      </trkpt>
      <trkpt lat="45.12685" lon="3.15596">
        <ele>946</ele>
        <time>2019-04-17T11:47:44Z</time>
      </trkpt>
      <trkpt lat="45.12695" lon="3.1558">
        <ele>946</ele>
        <time>2019-04-17T11:48:44Z</time>
      </trkpt>
      <trkpt lat="45.12709" lon="3.15563">
        <ele>946</ele>
        <time>2019-04-17T11:49:44Z</time>
      </trkpt>
      <trkpt lat="45.12776" lon="3.15494">
        <ele>946</ele>
        <time>2019-04-17T11:50:44Z</time>
      </trkpt>
      <trkpt lat="45.12783" lon="3.15483">
        <ele>947</ele>
        <time>2019-04-17T11:51:44Z</time>
      </trkpt>
      <trkpt lat="45.12786" lon="3.15472">
        <ele>946</ele>
        <time>2019-04-17T11:52:44Z</time>
      </trkpt>
      <trkpt lat="45.12787" lon="3.15456">
        <ele>945</ele>
        <time>2019-04-17T11:53:44Z</time>
      </trkpt>
      <trkpt lat="45.12779" lon="3.15425">
        <ele>941</ele>
        <time>2019-04-17T11:54:44Z</time>
      </trkpt>
      <trkpt lat="45.12774" lon="3.15418">
        <ele>939</ele>
        <time>2019-04-17T11:55:44Z</time>
      </trkpt>
      <trkpt lat="45.12766" lon="3.15415">
        <ele>939</ele>
        <time>2019-04-17T11:56:44Z</time>
      </trkpt>
      <trkpt lat="45.12754" lon="3.15418">
        <ele>937</ele>
        <time>2019-04-17T11:57:44Z</time>
      </trkpt>
      <trkpt lat="45.12737" lon="3.15428">
        <ele>938</ele>
        <time>2019-04-17T11:58:44Z</time>
      </trkpt>
      <trkpt lat="45.12723" lon="3.15428">
        <ele>939</ele>
        <time>2019-04-17T11:59:44Z</time>
      </trkpt>
      <trkpt lat="45.12696" lon="3.15418">
        <ele>941</ele>
        <time>2019-04-17T12:00:44Z</time>
      </trkpt>
      <trkpt lat="45.12658" lon="3.15408">
        <ele>944</ele>
        <time>2019-04-17T12:01:44Z</time>
      </trkpt>
      <trkpt lat="45.12651" lon="3.15402">
        <ele>944</ele>
        <time>2019-04-17T12:02:44Z</time>
      </trkpt>
      <trkpt lat="45.12645" lon="3.15386">
        <ele>946</ele>
        <time>2019-04-17T12:03:44Z</time>
      </trkpt>
      <trkpt lat="45.12645" lon="3.15344">
        <ele>951</ele>
        <time>2019-04-17T12:04:44Z</time>
      </trkpt>
      <trkpt lat="45.12641" lon="3.15323">
        <ele>953</ele>
        <time>2019-04-17T12:05:44Z</time>
      </trkpt>
      <trkpt lat="45.12616" lon="3.15241">
        <ele>961</ele>
        <time>2019-04-17T12:06:44Z</time>
      </trkpt>
      <trkpt lat="45.12618" lon="3.15231">
        <ele>961</ele>
        <time>2019-04-17T12:07:44Z</time>
      </trkpt>
      <trkpt lat="45.12616" lon="3.15227">
        <ele>961</ele>
        <time>2019-04-17T12:08:44Z</time>
      </trkpt>
      <trkpt lat="45.12624" lon="3.15224">
        <ele>962</ele>
        <time>2019-04-17T12:09:44Z</time>
      </trkpt>
      <trkpt lat="45.12663" lon="3.15191">
        <ele>963</ele>
        <time>2019-04-17T12:10:44Z</time>
      </trkpt>
      <trkpt lat="45.1269" lon="3.15158">
        <ele>964</ele>
        <time>2019-04-17T12:11:44Z</time>
      </trkpt>
      <trkpt lat="45.12712" lon="3.15136">
        <ele>963</ele>
        <time>2019-04-17T12:12:44Z</time>
      </trkpt>
      <trkpt lat="45.12713" lon="3.1513">
        <ele>963</ele>
        <time>2019-04-17T12:13:44Z</time>
      </trkpt>
      <trkpt lat="45.12704" lon="3.15108">
        <ele>963</ele>
        <time>2019-04-17T12:14:44Z</time>
      </trkpt>
      <trkpt lat="45.12699" lon="3.15092">
        <ele>963</ele>
        <time>2019-04-17T12:15:44Z</time>
      </trkpt>
      <trkpt lat="45.12692" lon="3.15038">
        <ele>960</ele>
        <time>2019-04-17T12:16:44Z</time>
      </trkpt>
      <trkpt lat="45.12689" lon="3.15025">
        <ele>960</ele>
        <time>2019-04-17T12:17:44Z</time>
      </trkpt>
      <trkpt lat="45.12669" lon="3.14975">
        <ele>957</ele>
        <time>2019-04-17T12:18:44Z</time>
      </trkpt>
      <trkpt lat="45.12667" lon="3.14964">
        <ele>957</ele>
        <time>2019-04-17T12:19:44Z</time>
      </trkpt>
      <trkpt lat="45.12666" lon="3.14949">
        <ele>956</ele>
        <time>2019-04-17T12:20:44Z</time>
      </trkpt>
      <trkpt lat="45.12668" lon="3.14936">
        <ele>956</ele>
        <time>2019-04-17T12:21:44Z</time>
      </trkpt>
      <trkpt lat="45.12675" lon="3.14922">
        <ele>955</ele>
        <time>2019-04-17T12:22:44Z</time>
      </trkpt>
      <trkpt lat="45.12683" lon="3.14912">
        <ele>954</ele>
        <time>2019-04-17T12:23:44Z</time>
      </trkpt>
      <trkpt lat="45.12772" lon="3.14818">
        <ele>951</ele>
        <time>2019-04-17T12:24:44Z</time>
      </trkpt>
      <trkpt lat="45.12784" lon="3.14807">
        <ele>951</ele>
        <time>2019-04-17T12:25:44Z</time>
      </trkpt>
      <trkpt lat="45.12819" lon="3.14782">
        <ele>951</ele>
        <time>2019-04-17T12:26:44Z</time>
      </trkpt>
      <trkpt lat="45.12836" lon="3.14766">
        <ele>950</ele>
        <time>2019-04-17T12:27:44Z</time>
      </trkpt>
      <trkpt lat="45.12904" lon="3.14686">
        <ele>954</ele>
        <time>2019-04-17T12:28:44Z</time>
      </trkpt>
      <trkpt lat="45.12936" lon="3.1466">
        <ele>955</ele>
        <time>2019-04-17T12:29:44Z</time>
      </trkpt>
      <trkpt lat="45.12945" lon="3.14657">
        <ele>955</ele>
        <time>2019-04-17T12:30:44Z</time>
      </trkpt>
      <trkpt lat="45.12952" lon="3.14639">
        <ele>956</ele>
        <time>2019-04-17T12:31:44Z</time>
      </trkpt>
      <trkpt lat="45.12987" lon="3.14607">
        <ele>957</ele>
        <time>2019-04-17T12:32:44Z</time>
      </trkpt>
      <trkpt lat="45.13066" lon="3.14507">
        <ele>958</ele>
        <time>2019-04-17T12:33:44Z</time>
      </trkpt>
      <trkpt lat="45.13073" lon="3.14497">
        <ele>958</ele>
        <time>2019-04-17T12:34:44Z</time>
      </trkpt>
      <trkpt lat="45.13084" lon="3.14474">
        <ele>958</ele>
        <time>2019-04-17T12:35:44Z</time>
      </trkpt>
      <trkpt lat="45.13216" lon="3.14017">
        <ele>958</ele>
        <time>2019-04-17T12:36:44Z</time>
      </trkpt>
      <trkpt lat="45.1322" lon="3.13988">
        <ele>959</ele>
        <time>2019-04-17T12:37:44Z</time>
      </trkpt>
      <trkpt lat="45.1322" lon="3.13977">
        <ele>960</ele>
        <time>2019-04-17T12:38:44Z</time>
      </trkpt>
      <trkpt lat="45.13212" lon="3.13942">
        <ele>962</ele>
        <time>2019-04-17T12:39:44Z</time>
      </trkpt>
      <trkpt lat="45.13212" lon="3.1393">
        <ele>962</ele>
        <time>2019-04-17T12:40:44Z</time>
      </trkpt>
      <trkpt lat="45.13216" lon="3.13915">
        <ele>962</ele>
        <time>2019-04-17T12:41:44Z</time>
      </trkpt>
      <trkpt lat="45.13225" lon="3.13908">
        <ele>962</ele>
        <time>2019-04-17T12:42:44Z</time>
      </trkpt>
      <trkpt lat="45.13233" lon="3.13909">
        <ele>961</ele>
        <time>2019-04-17T12:43:44Z</time>
      </trkpt>
      <trkpt lat="45.13255" lon="3.13918">
        <ele>959</ele>
        <time>2019-04-17T12:44:44Z</time>
      </trkpt>
      <trkpt lat="45.13267" lon="3.1392">
        <ele>958</ele>
        <time>2019-04-17T12:45:44Z</time>
      </trkpt>
      <trkpt lat="45.13321" lon="3.1392">
        <ele>955</ele>
        <time>2019-04-17T12:46:44Z</time>
      </trkpt>
      <trkpt lat="45.13331" lon="3.13918">
        <ele>954</ele>
        <time>2019-04-17T12:47:44Z</time>
      </trkpt>
      <trkpt lat="45.13347" lon="3.13909">
        <ele>953</ele>
        <time>2019-04-17T12:48:44Z</time>
      </trkpt>
      <trkpt lat="45.13363" lon="3.13888">
        <ele>953</ele>
        <time>2019-04-17T12:49:44Z</time>
      </trkpt>
      <trkpt lat="45.13412" lon="3.13752">
        <ele>952</ele>
        <time>2019-04-17T12:50:44Z</time>
      </trkpt>
      <trkpt lat="45.13415" lon="3.13738">
        <ele>952</ele>
        <time>2019-04-17T12:51:44Z</time>
      </trkpt>
      <trkpt lat="45.13416" lon="3.1371">
        <ele>952</ele>
        <time>2019-04-17T12:52:44Z</time>
      </trkpt>
      <trkpt lat="45.13413" lon="3.13696">
        <ele>952</ele>
        <time>2019-04-17T12:53:44Z</time>
      </trkpt>
      <trkpt lat="45.13407" lon="3.13681">
        <ele>953</ele>
        <time>2019-04-17T12:54:44Z</time>
      </trkpt>
      <trkpt lat="45.13394" lon="3.13663">
        <ele>955</ele>
        <time>2019-04-17T12:55:44Z</time>
      </trkpt>
      <trkpt lat="45.13267" lon="3.13524">
        <ele>960</ele>
        <time>2019-04-17T12:56:44Z</time>
      </trkpt>
      <trkpt lat="45.13255" lon="3.13505">
        <ele>961</ele>
        <time>2019-04-17T12:57:44Z</time>
      </trkpt>
      <trkpt lat="45.13247" lon="3.13483">
        <ele>961</ele>
        <time>2019-04-17T12:58:44Z</time>
      </trkpt>
      <trkpt lat="45.13238" lon="3.13446">
        <ele>962</ele>
        <time>2019-04-17T12:59:44Z</time>
      </trkpt>
      <trkpt lat="45.13236" lon="3.13421">
        <ele>962</ele>
        <time>2019-04-17T13:00:44Z</time>
      </trkpt>
      <trkpt lat="45.13237" lon="3.13403">
        <ele>962</ele>
        <time>2019-04-17T13:01:44Z</time>
      </trkpt>
      <trkpt lat="45.1324" lon="3.13392">
        <ele>962</ele>
        <time>2019-04-17T13:02:44Z</time>
      </trkpt>
      <trkpt lat="45.13245" lon="3.13386">
        <ele>961</ele>
        <time>2019-04-17T13:03:44Z</time>
      </trkpt>
      <trkpt lat="45.13252" lon="3.13383">
        <ele>960</ele>
        <time>2019-04-17T13:04:44Z</time>
      </trkpt>
      <trkpt lat="45.13264" lon="3.13383">
        <ele>960</ele>
        <time>2019-04-17T13:05:44Z</time>
      </trkpt>
      <trkpt lat="45.1327" lon="3.13388">
        <ele>960</ele>
        <time>2019-04-17T13:06:44Z</time>
      </trkpt>
      <trkpt lat="45.13285" lon="3.13425">
        <ele>958</ele>
        <time>2019-04-17T13:07:44Z</time>
      </trkpt>
      <trkpt lat="45.13293" lon="3.13435">
        <ele>957</ele>
        <time>2019-04-17T13:08:44Z</time>
      </trkpt>
      <trkpt lat="45.13309" lon="3.13442">
        <ele>956</ele>
        <time>2019-04-17T13:09:44Z</time>
      </trkpt>
      <trkpt lat="45.13319" lon="3.13441">
        <ele>955</ele>
        <time>2019-04-17T13:10:44Z</time>
      </trkpt>
      <trkpt lat="45.13328" lon="3.13438">
        <ele>955</ele>
        <time>2019-04-17T13:11:44Z</time>
      </trkpt>
      <trkpt lat="45.13346" lon="3.13422">
        <ele>955</ele>
        <time>2019-04-17T13:12:44Z</time>
      </trkpt>
      <trkpt lat="45.13354" lon="3.13408">
        <ele>956</ele>
        <time>2019-04-17T13:13:44Z</time>
      </trkpt>
      <trkpt lat="45.13391" lon="3.13331">
        <ele>960</ele>
        <time>2019-04-17T13:14:44Z</time>
      </trkpt>
      <trkpt lat="45.13407" lon="3.13311">
        <ele>962</ele>
        <time>2019-04-17T13:15:44Z</time>
      </trkpt>
      <trkpt lat="45.13424" lon="3.13301">
        <ele>963</ele>
        <time>2019-04-17T13:16:44Z</time>
      </trkpt>
      <trkpt lat="45.13435" lon="3.13299">
        <ele>964</ele>
        <time>2019-04-17T13:17:44Z</time>
      </trkpt>
      <trkpt lat="45.13466" lon="3.133">
        <ele>964</ele>
        <time>2019-04-17T13:18:44Z</time>
      </trkpt>
      <trkpt lat="45.13526" lon="3.13309">
        <ele>963</ele>
        <time>2019-04-17T13:19:44Z</time>
      </trkpt>
      <trkpt lat="45.13543" lon="3.13305">
        <ele>964</ele>
        <time>2019-04-17T13:20:44Z</time>
      </trkpt>
      <trkpt lat="45.13552" lon="3.13298">
        <ele>964</ele>
        <time>2019-04-17T13:21:44Z</time>
      </trkpt>
      <trkpt lat="45.13571" lon="3.13274">
        <ele>966</ele>
        <time>2019-04-17T13:22:44Z</time>
      </trkpt>
      <trkpt lat="45.13587" lon="3.13243">
        <ele>968</ele>
        <time>2019-04-17T13:23:44Z</time>
      </trkpt>
      <trkpt lat="45.13599" lon="3.13214">
        <ele>969</ele>
        <time>2019-04-17T13:24:44Z</time>
      </trkpt>
      <trkpt lat="45.13612" lon="3.13166">
        <ele>971</ele>
        <time>2019-04-17T13:25:44Z</time>
      </trkpt>
      <trkpt lat="45.13613" lon="3.13148">
        <ele>971</ele>
        <time>2019-04-17T13:26:44Z</time>
      </trkpt>
      <trkpt lat="45.13615" lon="3.13035">
        <ele>976</ele>
        <time>2019-04-17T13:27:44Z</time>
      </trkpt>
      <trkpt lat="45.13617" lon="3.13018">
        <ele>977</ele>
        <time>2019-04-17T13:28:44Z</time>
      </trkpt>
      <trkpt lat="45.13621" lon="3.13004">
        <ele>978</ele>
        <time>2019-04-17T13:29:44Z</time>
      </trkpt>
      <trkpt lat="45.13627" lon="3.1299">
        <ele>979</ele>
        <time>2019-04-17T13:30:44Z</time>
      </trkpt>
      <trkpt lat="45.13647" lon="3.1296">
        <ele>981</ele>
        <time>2019-04-17T13:31:44Z</time>
      </trkpt>
      <trkpt lat="45.13595" lon="3.12943">
        <ele>986</ele>
        <time>2019-04-17T13:32:44Z</time>
      </trkpt>
      <trkpt lat="45.13605" lon="3.12931">
        <ele>987</ele>
        <time>2019-04-17T13:33:44Z</time>
      </trkpt>
      <trkpt lat="45.1361" lon="3.1292">
        <ele>988</ele>
        <time>2019-04-17T13:34:44Z</time>
      </trkpt>
      <trkpt lat="45.13611" lon="3.12907">
        <ele>989</ele>
        <time>2019-04-17T13:35:44Z</time>
      </trkpt>
      <trkpt lat="45.13608" lon="3.12893">
        <ele>990</ele>
        <time>2019-04-17T13:36:44Z</time>
      </trkpt>
      <trkpt lat="45.13603" lon="3.1288">
        <ele>991</ele>
        <time>2019-04-17T13:37:44Z</time>
      </trkpt>
      <trkpt lat="45.1361" lon="3.12871">
        <ele>992</ele>
        <time>2019-04-17T13:38:44Z</time>
      </trkpt>
      <trkpt lat="45.13626" lon="3.12837">
        <ele>994</ele>
        <time>2019-04-17T13:39:44Z</time>
      </trkpt>
      <trkpt lat="45.13642" lon="3.12787">
        <ele>993</ele>
        <time>2019-04-17T13:40:44Z</time>
      </trkpt>
      <trkpt lat="45.13663" lon="3.12653">
        <ele>990</ele>
        <time>2019-04-17T13:41:44Z</time>
      </trkpt>
      <trkpt lat="45.13618" lon="3.12607">
        <ele>990</ele>
        <time>2019-04-17T13:42:44Z</time>
      </trkpt>
      <trkpt lat="45.13603" lon="3.12587">
        <ele>990</ele>
        <time>2019-04-17T13:43:44Z</time>
      </trkpt>
      <trkpt lat="45.13599" lon="3.12578">
        <ele>990</ele>
        <time>2019-04-17T13:44:44Z</time>
      </trkpt>
      <trkpt lat="45.13597" lon="3.12568">
        <ele>990</ele>
        <time>2019-04-17T13:45:44Z</time>
      </trkpt>
      <trkpt lat="45.13598" lon="3.12554">
        <ele>990</ele>
        <time>2019-04-17T13:46:44Z</time>
      </trkpt>
      <trkpt lat="45.13603" lon="3.12519">
        <ele>989</ele>
        <time>2019-04-17T13:47:44Z</time>
      </trkpt>
      <trkpt lat="45.13604" lon="3.12505">
        <ele>988</ele>
        <time>2019-04-17T13:48:44Z</time>
      </trkpt>
      <trkpt lat="45.13599" lon="3.12481">
        <ele>988</ele>
        <time>2019-04-17T13:49:44Z</time>
      </trkpt>
      <trkpt lat="45.13591" lon="3.12467">
        <ele>988</ele>
        <time>2019-04-17T13:50:44Z</time>
      </trkpt>
      <trkpt lat="45.13548" lon="3.12414">
        <ele>989</ele>
        <time>2019-04-17T13:51:44Z</time>
      </trkpt>
      <trkpt lat="45.13535" lon="3.12396">
        <ele>989</ele>
        <time>2019-04-17T13:52:44Z</time>
      </trkpt>
      <trkpt lat="45.13526" lon="3.1238">
        <ele>990</ele>
        <time>2019-04-17T13:53:44Z</time>
      </trkpt>
      <trkpt lat="45.13515" lon="3.12353">
        <ele>990</ele>
        <time>2019-04-17T13:54:44Z</time>
      </trkpt>
      <trkpt lat="45.1351" lon="3.12325">
        <ele>990</ele>
        <time>2019-04-17T13:55:44Z</time>
      </trkpt>
      <trkpt lat="45.13508" lon="3.12232">
        <ele>989</ele>
        <time>2019-04-17T13:56:44Z</time>
      </trkpt>
      <trkpt lat="45.13503" lon="3.12182">
        <ele>990</ele>
        <time>2019-04-17T13:57:44Z</time>
      </trkpt>
      <trkpt lat="45.13498" lon="3.12159">
        <ele>990</ele>
        <time>2019-04-17T13:58:44Z</time>
      </trkpt>
      <trkpt lat="45.13484" lon="3.12106">
        <ele>993</ele>
        <time>2019-04-17T13:59:44Z</time>
      </trkpt>
      <trkpt lat="45.13473" lon="3.12075">
        <ele>994</ele>
        <time>2019-04-17T14:00:44Z</time>
      </trkpt>
      <trkpt lat="45.13463" lon="3.12051">
        <ele>994</ele>
        <time>2019-04-17T14:01:44Z</time>
      </trkpt>
      <trkpt lat="45.13417" lon="3.11967">
        <ele>997</ele>
        <time>2019-04-17T14:02:44Z</time>
      </trkpt>
      <trkpt lat="45.13402" lon="3.11943">
        <ele>998</ele>
        <time>2019-04-17T14:03:44Z</time>
      </trkpt>
      <trkpt lat="45.13341" lon="3.11873">
        <ele>1001</ele>
        <time>2019-04-17T14:04:44Z</time>
      </trkpt>
      <trkpt lat="45.13327" lon="3.1186">
        <ele>1001</ele>
        <time>2019-04-17T14:05:44Z</time>
      </trkpt>
      <trkpt lat="45.13313" lon="3.11851">
        <ele>1001</ele>
        <time>2019-04-17T14:06:44Z</time>
      </trkpt>
      <trkpt lat="45.13287" lon="3.11842">
        <ele>1002</ele>
        <time>2019-04-17T14:07:44Z</time>
      </trkpt>
      <trkpt lat="45.13262" lon="3.11834">
        <ele>1003</ele>
        <time>2019-04-17T14:08:44Z</time>
      </trkpt>
      <trkpt lat="45.13251" lon="3.11833">
        <ele>1004</ele>
        <time>2019-04-17T14:09:44Z</time>
      </trkpt>
      <trkpt lat="45.13232" lon="3.11837">
        <ele>1005</ele>
        <time>2019-04-17T14:10:44Z</time>
      </trkpt>
      <trkpt lat="45.1322" lon="3.11844">
        <ele>1006</ele>
        <time>2019-04-17T14:11:44Z</time>
      </trkpt>
      <trkpt lat="45.1307" lon="3.11979">
        <ele>1014</ele>
        <time>2019-04-17T14:12:44Z</time>
      </trkpt>
      <trkpt lat="45.13062" lon="3.11984">
        <ele>1014</ele>
        <time>2019-04-17T14:13:44Z</time>
      </trkpt>
      <trkpt lat="45.13048" lon="3.11986">
        <ele>1014</ele>
        <time>2019-04-17T14:14:44Z</time>
      </trkpt>
      <trkpt lat="45.1304" lon="3.11983">
        <ele>1014</ele>
        <time>2019-04-17T14:15:44Z</time>
      </trkpt>
      <trkpt lat="45.13031" lon="3.11973">
        <ele>1014</ele>
        <time>2019-04-17T14:16:44Z</time>
      </trkpt>
      <trkpt lat="45.12955" lon="3.11862">
        <ele>1018</ele>
        <time>2019-04-17T14:17:44Z</time>
      </trkpt>
      <trkpt lat="45.12949" lon="3.1185">
        <ele>1019</ele>
        <time>2019-04-17T14:18:44Z</time>
      </trkpt>
      <trkpt lat="45.12944" lon="3.11838">
        <ele>1019</ele>
        <time>2019-04-17T14:19:44Z</time>
      </trkpt>
      <trkpt lat="45.12943" lon="3.11806">
        <ele>1021</ele>
        <time>2019-04-17T14:20:44Z</time>
      </trkpt>
      <trkpt lat="45.12963" lon="3.11492">
        <ele>1042</ele>
        <time>2019-04-17T14:21:44Z</time>
      </trkpt>
      <trkpt lat="45.12963" lon="3.11477">
        <ele>1043</ele>
        <time>2019-04-17T14:22:44Z</time>
      </trkpt>
      <trkpt lat="45.12961" lon="3.11461">
        <ele>1044</ele>
        <time>2019-04-17T14:23:44Z</time>
      </trkpt>
      <trkpt lat="45.12958" lon="3.11445">
        <ele>1046</ele>
        <time>2019-04-17T14:24:44Z</time>
      </trkpt>
      <trkpt lat="45.1295" lon="3.11425">
        <ele>1047</ele>
        <time>2019-04-17T14:25:44Z</time>
      </trkpt>
      <trkpt lat="45.12938" lon="3.11397">
        <ele>1048</ele>
        <time>2019-04-17T14:26:44Z</time>
      </trkpt>
      <trkpt lat="45.12905" lon="3.11329">
        <ele>1052</ele>
        <time>2019-04-17T14:27:44Z</time>
      </trkpt>
      <trkpt lat="45.12897" lon="3.11298">
        <ele>1052</ele>
        <time>2019-04-17T14:28:44Z</time>
      </trkpt>
      <trkpt lat="45.12896" lon="3.11282">
        <ele>1052</ele>
        <time>2019-04-17T14:29:44Z</time>
      </trkpt>
      <trkpt lat="45.12899" lon="3.11263">
        <ele>1052</ele>
        <time>2019-04-17T14:30:44Z</time>
      </trkpt>
      <trkpt lat="45.12928" lon="3.11142">
        <ele>1050</ele>
        <time>2019-04-17T14:31:44Z</time>
      </trkpt>
      <trkpt lat="45.12967" lon="3.10911">
        <ele>1051</ele>
        <time>2019-04-17T14:32:44Z</time>
      </trkpt>
      <trkpt lat="45.12967" lon="3.10876">
        <ele>1051</ele>
        <time>2019-04-17T14:33:44Z</time>
      </trkpt>
      <trkpt lat="45.12965" lon="3.10863">
        <ele>1052</ele>
        <time>2019-04-17T14:34:44Z</time>
      </trkpt>
      <trkpt lat="45.12944" lon="3.10772">
        <ele>1057</ele>
        <time>2019-04-17T14:35:44Z</time>
      </trkpt>
      <trkpt lat="45.12943" lon="3.10759">
        <ele>1057</ele>
        <time>2019-04-17T14:36:44Z</time>
      </trkpt>
      <trkpt lat="45.12947" lon="3.10742">
        <ele>1057</ele>
        <time>2019-04-17T14:37:44Z</time>
      </trkpt>
      <trkpt lat="45.12962" lon="3.10692">
        <ele>1054</ele>
        <time>2019-04-17T14:38:44Z</time>
      </trkpt>
      <trkpt lat="45.12966" lon="3.10661">
        <ele>1053</ele>
        <time>2019-04-17T14:39:44Z</time>
      </trkpt>
      <trkpt lat="45.12964" lon="3.10643">
        <ele>1053</ele>
        <time>2019-04-17T14:40:44Z</time>
      </trkpt>
      <trkpt lat="45.12961" lon="3.10625">
        <ele>1053</ele>
        <time>2019-04-17T14:41:44Z</time>
      </trkpt>
      <trkpt lat="45.12944" lon="3.1058">
        <ele>1054</ele>
        <time>2019-04-17T14:42:44Z</time>
      </trkpt>
      <trkpt lat="45.1291" lon="3.10512">
        <ele>1053</ele>
        <time>2019-04-17T14:43:44Z</time>
      </trkpt>
      <trkpt lat="45.12882" lon="3.10441">
        <ele>1052</ele>
        <time>2019-04-17T14:44:44Z</time>
      </trkpt>
      <trkpt lat="45.12746" lon="3.10057">
        <ele>1053</ele>
        <time>2019-04-17T14:45:44Z</time>
      </trkpt>
      <trkpt lat="45.12737" lon="3.10008">
        <ele>1051</ele>
        <time>2019-04-17T14:46:44Z</time>
      </trkpt>
      <trkpt lat="45.12721" lon="3.09818">
        <ele>1054</ele>
        <time>2019-04-17T14:47:44Z</time>
      </trkpt>
      <trkpt lat="45.1272" lon="3.09806">
        <ele>1055</ele>
        <time>2019-04-17T14:48:44Z</time>
      </trkpt>
      <trkpt lat="45.12722" lon="3.09796">
        <ele>1055</ele>
        <time>2019-04-17T14:49:44Z</time>
      </trkpt>
      <trkpt lat="45.12727" lon="3.0979">
        <ele>1056</ele>
        <time>2019-04-17T14:50:44Z</time>
      </trkpt>
      <trkpt lat="45.12705" lon="3.09756">
        <ele>1057</ele>
        <time>2019-04-17T14:51:44Z</time>
      </trkpt>
      <trkpt lat="45.12644" lon="3.09701">
        <ele>1058</ele>
        <time>2019-04-17T14:52:44Z</time>
      </trkpt>
      <trkpt lat="45.12596" lon="3.09665">
        <ele>1059</ele>
        <time>2019-04-17T14:53:44Z</time>
      </trkpt>
      <trkpt lat="45.12519" lon="3.09597">
        <ele>1064</ele>
        <time>2019-04-17T14:54:44Z</time>
      </trkpt>
      <trkpt lat="45.12109" lon="3.09255">
        <ele>1063</ele>
        <time>2019-04-17T14:55:44Z</time>
      </trkpt>
      <trkpt lat="45.11559" lon="3.08787">
        <ele>1058</ele>
        <time>2019-04-17T14:56:44Z</time>
      </trkpt>
      <trkpt lat="45.11516" lon="3.08764">
        <ele>1057</ele>
        <time>2019-04-17T14:57:44Z</time>
      </trkpt>
      <trkpt lat="45.11475" lon="3.08764">
        <ele>1055</ele>
        <time>2019-04-17T14:58:44Z</time>
      </trkpt>
      <trkpt lat="45.11447" lon="3.08784">
        <ele>1055</ele>
        <time>2019-04-17T14:59:44Z</time>
      </trkpt>
      <trkpt lat="45.11421" lon="3.08791">
        <ele>1054</ele>
        <time>2019-04-17T15:00:44Z</time>
      </trkpt>
      <trkpt lat="45.11391" lon="3.08784">
        <ele>1056</ele>
        <time>2019-04-17T15:01:44Z</time>
      </trkpt>
      <trkpt lat="45.11368" lon="3.08756">
        <ele>1057</ele>
        <time>2019-04-17T15:02:44Z</time>
      </trkpt>
      <trkpt lat="45.1136" lon="3.08702">
        <ele>1054</ele>
        <time>2019-04-17T15:03:44Z</time>
      </trkpt>
      <trkpt lat="45.11351" lon="3.08667">
        <ele>1053</ele>
        <time>2019-04-17T15:04:44Z</time>
      </trkpt>
      <trkpt lat="45.11319" lon="3.08649">
        <ele>1053</ele>
        <time>2019-04-17T15:05:44Z</time>
      </trkpt>
      <trkpt lat="45.1128" lon="3.08657">
        <ele>1052</ele>
        <time>2019-04-17T15:06:44Z</time>
      </trkpt>
      <trkpt lat="45.11222" lon="3.08686">
        <ele>1052</ele>
        <time>2019-04-17T15:07:44Z</time>
      </trkpt>
      <trkpt lat="45.11196" lon="3.08696">
        <ele>1052</ele>
        <time>2019-04-17T15:08:44Z</time>
      </trkpt>
      <trkpt lat="45.11135" lon="3.08712">
        <ele>1050</ele>
        <time>2019-04-17T15:09:44Z</time>
      </trkpt>
      <trkpt lat="45.11064" lon="3.08711">
        <ele>1047</ele>
        <time>2019-04-17T15:10:44Z</time>
      </trkpt>
      <trkpt lat="45.10993" lon="3.087">
        <ele>1046</ele>
        <time>2019-04-17T15:11:44Z</time>
      </trkpt>
      <trkpt lat="45.10886" lon="3.08701">
        <ele>1045</ele>
        <time>2019-04-17T15:12:44Z</time>
      </trkpt>
      <trkpt lat="45.1086" lon="3.08694">
        <ele>1045</ele>
        <time>2019-04-17T15:13:44Z</time>
      </trkpt>
      <trkpt lat="45.10829" lon="3.08666">
        <ele>1044</ele>
        <time>2019-04-17T15:14:44Z</time>
      </trkpt>
      <trkpt lat="45.10812" lon="3.08643">
        <ele>1044</ele>
        <time>2019-04-17T15:15:44Z</time>
      </trkpt>
      <trkpt lat="45.10674" lon="3.08385">
        <ele>1034</ele>
        <time>2019-04-17T15:16:44Z</time>
      </trkpt>
      <trkpt lat="45.10653" lon="3.08332">
        <ele>1034</ele>
        <time>2019-04-17T15:17:44Z</time>
      </trkpt>
      <trkpt lat="45.10644" lon="3.08289">
        <ele>1032</ele>
        <time>2019-04-17T15:18:44Z</time>
      </trkpt>
      <trkpt lat="45.10638" lon="3.08246">
        <ele>1029</ele>
        <time>2019-04-17T15:19:44Z</time>
      </trkpt>
      <trkpt lat="45.10638" lon="3.08206">
        <ele>1029</ele>
        <time>2019-04-17T15:20:44Z</time>
      </trkpt>
      <trkpt lat="45.10641" lon="3.08153">
        <ele>1029</ele>
        <time>2019-04-17T15:21:44Z</time>
      </trkpt>
      <trkpt lat="45.10646" lon="3.08095">
        <ele>1027</ele>
        <time>2019-04-17T15:22:44Z</time>
      </trkpt>
      <trkpt lat="45.10654" lon="3.08045">
        <ele>1025</ele>
        <time>2019-04-17T15:23:44Z</time>
      </trkpt>
      <trkpt lat="45.10652" lon="3.0801">
        <ele>1024</ele>
        <time>2019-04-17T15:24:44Z</time>
      </trkpt>
      <trkpt lat="45.10645" lon="3.07986">
        <ele>1024</ele>
        <time>2019-04-17T15:25:44Z</time>
      </trkpt>
      <trkpt lat="45.1058" lon="3.07899">
        <ele>1019</ele>
        <time>2019-04-17T15:26:44Z</time>
      </trkpt>
      <trkpt lat="45.10566" lon="3.07869">
        <ele>1019</ele>
        <time>2019-04-17T15:27:44Z</time>
      </trkpt>
      <trkpt lat="45.10554" lon="3.07828">
        <ele>1018</ele>
        <time>2019-04-17T15:28:44Z</time>
      </trkpt>
      <trkpt lat="45.10556" lon="3.07755">
        <ele>1015</ele>
        <time>2019-04-17T15:29:44Z</time>
      </trkpt>
      <trkpt lat="45.10558" lon="3.07719">
        <ele>1012</ele>
        <time>2019-04-17T15:30:44Z</time>
      </trkpt>
      <trkpt lat="45.10556" lon="3.07694">
        <ele>1010</ele>
        <time>2019-04-17T15:31:44Z</time>
      </trkpt>
      <trkpt lat="45.10548" lon="3.07663">
        <ele>1009</ele>
        <time>2019-04-17T15:32:44Z</time>
      </trkpt>
      <trkpt lat="45.1053" lon="3.07612">
        <ele>1009</ele>
        <time>2019-04-17T15:33:44Z</time>
      </trkpt>
      <trkpt lat="45.10514" lon="3.07544">
        <ele>1008</ele>
        <time>2019-04-17T15:34:44Z</time>
      </trkpt>
      <trkpt lat="45.10501" lon="3.0744">
        <ele>1002</ele>
        <time>2019-04-17T15:35:44Z</time>
      </trkpt>
      <trkpt lat="45.10495" lon="3.07409">
        <ele>1000</ele>
        <time>2019-04-17T15:36:44Z</time>
      </trkpt>
      <trkpt lat="45.10479" lon="3.07382">
        <ele>998</ele>
        <time>2019-04-17T15:37:44Z</time>
      </trkpt>
      <trkpt lat="45.1031" lon="3.07224">
        <ele>993</ele>
        <time>2019-04-17T15:38:44Z</time>
      </trkpt>
      <trkpt lat="45.1029" lon="3.07193">
        <ele>992</ele>
        <time>2019-04-17T15:39:44Z</time>
      </trkpt>
      <trkpt lat="45.10266" lon="3.07146">
        <ele>990</ele>
        <time>2019-04-17T15:40:44Z</time>
      </trkpt>
      <trkpt lat="45.1023" lon="3.07067">
        <ele>986</ele>
        <time>2019-04-17T15:41:44Z</time>
      </trkpt>
      <trkpt lat="45.10199" lon="3.07034">
        <ele>986</ele>
        <time>2019-04-17T15:42:44Z</time>
      </trkpt>
      <trkpt lat="45.10162" lon="3.07005">
        <ele>986</ele>
        <time>2019-04-17T15:43:44Z</time>
      </trkpt>
      <trkpt lat="45.10135" lon="3.06988">
        <ele>985</ele>
        <time>2019-04-17T15:44:44Z</time>
      </trkpt>
      <trkpt lat="45.10123" lon="3.06985">
        <ele>985</ele>
        <time>2019-04-17T15:45:44Z</time>
      </trkpt>
      <trkpt lat="45.1006" lon="3.06985">
        <ele>986</ele>
        <time>2019-04-17T15:46:44Z</time>
      </trkpt>
      <trkpt lat="45.10027" lon="3.07007">
        <ele>987</ele>
        <time>2019-04-17T15:47:44Z</time>
      </trkpt>
      <trkpt lat="45.10024" lon="3.06974">
        <ele>985</ele>
        <time>2019-04-17T15:48:44Z</time>
      </trkpt>
      <trkpt lat="45.10031" lon="3.06949">
        <ele>983</ele>
        <time>2019-04-17T15:49:44Z</time>
      </trkpt>
      <trkpt lat="45.1005" lon="3.06935">
        <ele>982</ele>
        <time>2019-04-17T15:50:44Z</time>
      </trkpt>
      <trkpt lat="45.10079" lon="3.06925">
        <ele>981</ele>
        <time>2019-04-17T15:51:44Z</time>
      </trkpt>
      <trkpt lat="45.10093" lon="3.06908">
        <ele>979</ele>
        <time>2019-04-17T15:52:44Z</time>
      </trkpt>
      <trkpt lat="45.10102" lon="3.06876">
        <ele>976</ele>
        <time>2019-04-17T15:53:44Z</time>
      </trkpt>
      <trkpt lat="45.10117" lon="3.06853">
        <ele>974</ele>
        <time>2019-04-17T15:54:44Z</time>
      </trkpt>
      <trkpt lat="45.1018" lon="3.06802">
        <ele>969</ele>
        <time>2019-04-17T15:55:44Z</time>
      </trkpt>
      <trkpt lat="45.10218" lon="3.06817">
        <ele>969</ele>
        <time>2019-04-17T15:56:44Z</time>
      </trkpt>
      <trkpt lat="45.10239" lon="3.0682">
        <ele>969</ele>
        <time>2019-04-17T15:57:44Z</time>
      </trkpt>
      <trkpt lat="45.10263" lon="3.06814">
        <ele>968</ele>
        <time>2019-04-17T15:58:44Z</time>
      </trkpt>
      <trkpt lat="45.10279" lon="3.06807">
        <ele>967</ele>
        <time>2019-04-17T15:59:44Z</time>
      </trkpt>
      <trkpt lat="45.10297" lon="3.0679">
        <ele>966</ele>
        <time>2019-04-17T16:00:44Z</time>
      </trkpt>
      <trkpt lat="45.10329" lon="3.06748">
        <ele>963</ele>
        <time>2019-04-17T16:01:44Z</time>
      </trkpt>
      <trkpt lat="45.10505" lon="3.06498">
        <ele>957</ele>
        <time>2019-04-17T16:02:44Z</time>
      </trkpt>
      <trkpt lat="45.10976" lon="3.05823">
        <ele>959</ele>
        <time>2019-04-17T16:03:44Z</time>
      </trkpt>
      <trkpt lat="45.11048" lon="3.05658">
        <ele>964</ele>
        <time>2019-04-17T16:04:44Z</time>
      </trkpt>
      <trkpt lat="45.1107" lon="3.05601">
        <ele>965</ele>
        <time>2019-04-17T16:05:44Z</time>
      </trkpt>
      <trkpt lat="45.11084" lon="3.05545">
        <ele>966</ele>
        <time>2019-04-17T16:06:44Z</time>
      </trkpt>
      <trkpt lat="45.11088" lon="3.05506">
        <ele>965</ele>
        <time>2019-04-17T16:07:44Z</time>
      </trkpt>
      <trkpt lat="45.11086" lon="3.0545">
        <ele>968</ele>
        <time>2019-04-17T16:08:44Z</time>
      </trkpt>
      <trkpt lat="45.1105" lon="3.05276">
        <ele>975</ele>
        <time>2019-04-17T16:09:44Z</time>
      </trkpt>
      <trkpt lat="45.11045" lon="3.05215">
        <ele>976</ele>
        <time>2019-04-17T16:10:44Z</time>
      </trkpt>
      <trkpt lat="45.1105" lon="3.05157">
        <ele>978</ele>
        <time>2019-04-17T16:11:44Z</time>
      </trkpt>
      <trkpt lat="45.11063" lon="3.05108">
        <ele>980</ele>
        <time>2019-04-17T16:12:44Z</time>
      </trkpt>
      <trkpt lat="45.111" lon="3.05016">
        <ele>983</ele>
        <time>2019-04-17T16:13:44Z</time>
      </trkpt>
      <trkpt lat="45.11114" lon="3.04985">
        <ele>982</ele>
        <time>2019-04-17T16:14:44Z</time>
      </trkpt>
      <trkpt lat="45.11136" lon="3.04949">
        <ele>982</ele>
        <time>2019-04-17T16:15:44Z</time>
      </trkpt>
      <trkpt lat="45.11259" lon="3.04902">
        <ele>980</ele>
        <time>2019-04-17T16:16:44Z</time>
      </trkpt>
      <trkpt lat="45.11277" lon="3.04891">
        <ele>980</ele>
        <time>2019-04-17T16:17:44Z</time>
      </trkpt>
      <trkpt lat="45.11327" lon="3.0484">
        <ele>980</ele>
        <time>2019-04-17T16:18:44Z</time>
      </trkpt>
      <trkpt lat="45.11415" lon="3.04756">
        <ele>988</ele>
        <time>2019-04-17T16:19:44Z</time>
      </trkpt>
      <trkpt lat="45.1143" lon="3.04734">
        <ele>990</ele>
        <time>2019-04-17T16:20:44Z</time>
      </trkpt>
      <trkpt lat="45.11437" lon="3.04705">
        <ele>990</ele>
        <time>2019-04-17T16:21:44Z</time>
      </trkpt>
      <trkpt lat="45.11445" lon="3.045">
        <ele>988</ele>
        <time>2019-04-17T16:22:44Z</time>
      </trkpt>
      <trkpt lat="45.11447" lon="3.04311">
        <ele>984</ele>
        <time>2019-04-17T16:23:44Z</time>
      </trkpt>
      <trkpt lat="45.11438" lon="3.04236">
        <ele>985</ele>
        <time>2019-04-17T16:24:44Z</time>
      </trkpt>
      <trkpt lat="45.11384" lon="3.03989">
        <ele>985</ele>
        <time>2019-04-17T16:25:44Z</time>
      </trkpt>
      <trkpt lat="45.11365" lon="3.03834">
        <ele>981</ele>
        <time>2019-04-17T16:26:44Z</time>
      </trkpt>
      <trkpt lat="45.11358" lon="3.03757">
        <ele>977</ele>
        <time>2019-04-17T16:27:44Z</time>
      </trkpt>
      <trkpt lat="45.11358" lon="3.03682">
        <ele>975</ele>
        <time>2019-04-17T16:28:44Z</time>
      </trkpt>
      <trkpt lat="45.11362" lon="3.03628">
        <ele>974</ele>
        <time>2019-04-17T16:29:44Z</time>
      </trkpt>
      <trkpt lat="45.11372" lon="3.03554">
        <ele>973</ele>
        <time>2019-04-17T16:30:44Z</time>
      </trkpt>
      <trkpt lat="45.11389" lon="3.03487">
        <ele>972</ele>
        <time>2019-04-17T16:31:44Z</time>
      </trkpt>
      <trkpt lat="45.11414" lon="3.03422">
        <ele>969</ele>
        <time>2019-04-17T16:32:44Z</time>
      </trkpt>
      <trkpt lat="45.11447" lon="3.03364">
        <ele>967</ele>
        <time>2019-04-17T16:33:44Z</time>
      </trkpt>
      <trkpt lat="45.11487" lon="3.03309">
        <ele>966</ele>
        <time>2019-04-17T16:34:44Z</time>
      </trkpt>
      <trkpt lat="45.11535" lon="3.03257">
        <ele>964</ele>
        <time>2019-04-17T16:35:44Z</time>
      </trkpt>
      <trkpt lat="45.11591" lon="3.03209">
        <ele>962</ele>
        <time>2019-04-17T16:36:44Z</time>
      </trkpt>
      <trkpt lat="45.11764" lon="3.03081">
        <ele>955</ele>
        <time>2019-04-17T16:37:44Z</time>
      </trkpt>
      <trkpt lat="45.11908" lon="3.0298">
        <ele>952</ele>
        <time>2019-04-17T16:38:44Z</time>
      </trkpt>
      <trkpt lat="45.11931" lon="3.0296">
        <ele>952</ele>
        <time>2019-04-17T16:39:44Z</time>
      </trkpt>
      <trkpt lat="45.11945" lon="3.02941">
        <ele>952</ele>
        <time>2019-04-17T16:40:44Z</time>
      </trkpt>
      <trkpt lat="45.1196" lon="3.02911">
        <ele>953</ele>
        <time>2019-04-17T16:41:44Z</time>
      </trkpt>
      <trkpt lat="45.11974" lon="3.02859">
        <ele>955</ele>
        <time>2019-04-17T16:42:44Z</time>
      </trkpt>
      <trkpt lat="45.11993" lon="3.02773">
        <ele>957</ele>
        <time>2019-04-17T16:43:44Z</time>
      </trkpt>
      <trkpt lat="45.12001" lon="3.02744">
        <ele>957</ele>
        <time>2019-04-17T16:44:44Z</time>
      </trkpt>
      <trkpt lat="45.12013" lon="3.02712">
        <ele>957</ele>
        <time>2019-04-17T16:45:44Z</time>
      </trkpt>
      <trkpt lat="45.1203" lon="3.0268">
        <ele>958</ele>
        <time>2019-04-17T16:46:44Z</time>
      </trkpt>
      <trkpt lat="45.12142" lon="3.02516">
        <ele>959</ele>
        <time>2019-04-17T16:47:44Z</time>
      </trkpt>
      <trkpt lat="45.12182" lon="3.02463">
        <ele>961</ele>
        <time>2019-04-17T16:48:44Z</time>
      </trkpt>
      <trkpt lat="45.12303" lon="3.02355">
        <ele>963</ele>
        <time>2019-04-17T16:49:44Z</time>
      </trkpt>
      <trkpt lat="45.12321" lon="3.02331">
        <ele>963</ele>
        <time>2019-04-17T16:50:44Z</time>
      </trkpt>
      <trkpt lat="45.12347" lon="3.02279">
        <ele>961</ele>
        <time>2019-04-17T16:51:44Z</time>
      </trkpt>
      <trkpt lat="45.12383" lon="3.02156">
        <ele>957</ele>
        <time>2019-04-17T16:52:44Z</time>
      </trkpt>
      <trkpt lat="45.12464" lon="3.02047">
        <ele>954</ele>
        <time>2019-04-17T16:53:44Z</time>
      </trkpt>
      <trkpt lat="45.12549" lon="3.01899">
        <ele>950</ele>
        <time>2019-04-17T16:54:44Z</time>
      </trkpt>
      <trkpt lat="45.12566" lon="3.01864">
        <ele>949</ele>
        <time>2019-04-17T16:55:44Z</time>
      </trkpt>
      <trkpt lat="45.12576" lon="3.01816">
        <ele>948</ele>
        <time>2019-04-17T16:56:44Z</time>
      </trkpt>
      <trkpt lat="45.12572" lon="3.01756">
        <ele>945</ele>
        <time>2019-04-17T16:57:44Z</time>
      </trkpt>
      <trkpt lat="45.12557" lon="3.01709">
        <ele>941</ele>
        <time>2019-04-17T16:58:44Z</time>
      </trkpt>
      <trkpt lat="45.12487" lon="3.01609">
        <ele>947</ele>
        <time>2019-04-17T16:59:44Z</time>
      </trkpt>
      <trkpt lat="45.12461" lon="3.01541">
        <ele>946</ele>
        <time>2019-04-17T17:00:44Z</time>
      </trkpt>
      <trkpt lat="45.12448" lon="3.01481">
        <ele>945</ele>
        <time>2019-04-17T17:01:44Z</time>
      </trkpt>
      <trkpt lat="45.12414" lon="3.0121">
        <ele>931</ele>
        <time>2019-04-17T17:02:44Z</time>
      </trkpt>
      <trkpt lat="45.12403" lon="3.0116">
        <ele>926</ele>
        <time>2019-04-17T17:03:44Z</time>
      </trkpt>
      <trkpt lat="45.12337" lon="3.01008">
        <ele>926</ele>
        <time>2019-04-17T17:04:44Z</time>
      </trkpt>
      <trkpt lat="45.12309" lon="3.00898">
        <ele>922</ele>
        <time>2019-04-17T17:05:44Z</time>
      </trkpt>
      <trkpt lat="45.12281" lon="3.00812">
        <ele>921</ele>
        <time>2019-04-17T17:06:44Z</time>
      </trkpt>
      <trkpt lat="45.12248" lon="3.00757">
        <ele>918</ele>
        <time>2019-04-17T17:07:44Z</time>
      </trkpt>
      <trkpt lat="45.12088" lon="3.00578">
        <ele>920</ele>
        <time>2019-04-17T17:08:44Z</time>
      </trkpt>
      <trkpt lat="45.12036" lon="3.00506">
        <ele>913</ele>
        <time>2019-04-17T17:09:44Z</time>
      </trkpt>
      <trkpt lat="45.12008" lon="3.0045">
        <ele>910</ele>
        <time>2019-04-17T17:10:44Z</time>
      </trkpt>
      <trkpt lat="45.11991" lon="3.00387">
        <ele>906</ele>
        <time>2019-04-17T17:11:44Z</time>
      </trkpt>
      <trkpt lat="45.11944" lon="3.00195">
        <ele>900</ele>
        <time>2019-04-17T17:12:44Z</time>
      </trkpt>
      <trkpt lat="45.1193" lon="3.00115">
        <ele>901</ele>
        <time>2019-04-17T17:13:44Z</time>
      </trkpt>
      <trkpt lat="45.11928" lon="3.00071">
        <ele>901</ele>
        <time>2019-04-17T17:14:44Z</time>
      </trkpt>
      <trkpt lat="45.11935" lon="3.00012">
        <ele>901</ele>
        <time>2019-04-17T17:15:44Z</time>
      </trkpt>
      <trkpt lat="45.11962" lon="2.99872">
        <ele>899</ele>
        <time>2019-04-17T17:16:44Z</time>
      </trkpt>
      <trkpt lat="45.11972" lon="2.99836">
        <ele>898</ele>
        <time>2019-04-17T17:17:44Z</time>
      </trkpt>
      <trkpt lat="45.11983" lon="2.99809">
        <ele>897</ele>
        <time>2019-04-17T17:18:44Z</time>
      </trkpt>
      <trkpt lat="45.12031" lon="2.99738">
        <ele>888</ele>
        <time>2019-04-17T17:19:44Z</time>
      </trkpt>
      <trkpt lat="45.12047" lon="2.99703">
        <ele>885</ele>
        <time>2019-04-17T17:20:44Z</time>
      </trkpt>
      <trkpt lat="45.12056" lon="2.99658">
        <ele>885</ele>
        <time>2019-04-17T17:21:44Z</time>
      </trkpt>
      <trkpt lat="45.12057" lon="2.9959">
        <ele>883</ele>
        <time>2019-04-17T17:22:44Z</time>
      </trkpt>
      <trkpt lat="45.12059" lon="2.99538">
        <ele>882</ele>
        <time>2019-04-17T17:23:44Z</time>
      </trkpt>
      <trkpt lat="45.1207" lon="2.99472">
        <ele>879</ele>
        <time>2019-04-17T17:24:44Z</time>
      </trkpt>
      <trkpt lat="45.12141" lon="2.99194">
        <ele>869</ele>
        <time>2019-04-17T17:25:44Z</time>
      </trkpt>
      <trkpt lat="45.12157" lon="2.99166">
        <ele>868</ele>
        <time>2019-04-17T17:26:44Z</time>
      </trkpt>
      <trkpt lat="45.12388" lon="2.98925">
        <ele>853</ele>
        <time>2019-04-17T17:27:44Z</time>
      </trkpt>
      <trkpt lat="45.12411" lon="2.98881">
        <ele>849</ele>
        <time>2019-04-17T17:28:44Z</time>
      </trkpt>
      <trkpt lat="45.1242" lon="2.9884">
        <ele>847</ele>
        <time>2019-04-17T17:29:44Z</time>
      </trkpt>
      <trkpt lat="45.12423" lon="2.98799">
        <ele>844</ele>
        <time>2019-04-17T17:30:44Z</time>
      </trkpt>
      <trkpt lat="45.12338" lon="2.98359">
        <ele>835</ele>
        <time>2019-04-17T17:31:44Z</time>
      </trkpt>
      <trkpt lat="45.12337" lon="2.98274">
        <ele>833</ele>
        <time>2019-04-17T17:32:44Z</time>
      </trkpt>
      <trkpt lat="45.12344" lon="2.98228">
        <ele>831</ele>
        <time>2019-04-17T17:33:44Z</time>
      </trkpt>
      <trkpt lat="45.1237" lon="2.98166">
        <ele>826</ele>
        <time>2019-04-17T17:34:44Z</time>
      </trkpt>
      <trkpt lat="45.12376" lon="2.98143">
        <ele>825</ele>
        <time>2019-04-17T17:35:44Z</time>
      </trkpt>
      <trkpt lat="45.12382" lon="2.98107">
        <ele>824</ele>
        <time>2019-04-17T17:36:44Z</time>
      </trkpt>
      <trkpt lat="45.12386" lon="2.98038">
        <ele>824</ele>
        <time>2019-04-17T17:37:44Z</time>
      </trkpt>
      <trkpt lat="45.12392" lon="2.9801">
        <ele>823</ele>
        <time>2019-04-17T17:38:44Z</time>
      </trkpt>
      <trkpt lat="45.12454" lon="2.97817">
        <ele>816</ele>
        <time>2019-04-17T17:39:44Z</time>
      </trkpt>
      <trkpt lat="45.12465" lon="2.97776">
        <ele>816</ele>
        <time>2019-04-17T17:40:44Z</time>
      </trkpt>
      <trkpt lat="45.1248" lon="2.97705">
        <ele>814</ele>
        <time>2019-04-17T17:41:44Z</time>
      </trkpt>
      <trkpt lat="45.12489" lon="2.97644">
        <ele>814</ele>
        <time>2019-04-17T17:42:44Z</time>
      </trkpt>
      <trkpt lat="45.1248" lon="2.97639">
        <ele>815</ele>
        <time>2019-04-17T17:43:44Z</time>
      </trkpt>
      <trkpt lat="45.12478" lon="2.97632">
        <ele>815</ele>
        <time>2019-04-17T17:44:44Z</time>
      </trkpt>
      <trkpt lat="45.12479" lon="2.9761">
        <ele>815</ele>
        <time>2019-04-17T17:45:44Z</time>
      </trkpt>
      <trkpt lat="45.1247" lon="2.97517">
        <ele>818</ele>
        <time>2019-04-17T17:46:44Z</time>
      </trkpt>
      <trkpt lat="45.12477" lon="2.97454">
        <ele>821</ele>
        <time>2019-04-17T17:47:44Z</time>
      </trkpt>
      <trkpt lat="45.12484" lon="2.97357">
        <ele>824</ele>
        <time>2019-04-17T17:48:44Z</time>
      </trkpt>
      <trkpt lat="45.12482" lon="2.97326">
        <ele>826</ele>
        <time>2019-04-17T17:49:44Z</time>
      </trkpt>
      <trkpt lat="45.12467" lon="2.97185">
        <ele>837</ele>
        <time>2019-04-17T17:50:44Z</time>
      </trkpt>
      <trkpt lat="45.12465" lon="2.97151">
        <ele>839</ele>
        <time>2019-04-17T17:51:44Z</time>
      </trkpt>
      <trkpt lat="45.12469" lon="2.97058">
        <ele>843</ele>
        <time>2019-04-17T17:52:44Z</time>
      </trkpt>
      <trkpt lat="45.12479" lon="2.97014">
        <ele>842</ele>
        <time>2019-04-17T17:53:44Z</time>
      </trkpt>
      <trkpt lat="45.12484" lon="2.96964">
        <ele>842</ele>
        <time>2019-04-17T17:54:44Z</time>
      </trkpt>
      <trkpt lat="45.12484" lon="2.9693">
        <ele>843</ele>
        <time>2019-04-17T17:55:44Z</time>
      </trkpt>
      <trkpt lat="45.12476" lon="2.96893">
        <ele>846</ele>
        <time>2019-04-17T17:56:44Z</time>
      </trkpt>
      <trkpt lat="45.12464" lon="2.96856">
        <ele>848</ele>
        <time>2019-04-17T17:57:44Z</time>
      </trkpt>
      <trkpt lat="45.12449" lon="2.96821">
        <ele>850</ele>
        <time>2019-04-17T17:58:44Z</time>
      </trkpt>
      <trkpt lat="45.1241" lon="2.96772">
        <ele>854</ele>
        <time>2019-04-17T17:59:44Z</time>
      </trkpt>
      <trkpt lat="45.12393" lon="2.96744">
        <ele>854</ele>
        <time>2019-04-17T18:00:44Z</time>
      </trkpt>
      <trkpt lat="45.12367" lon="2.96689">
        <ele>855</ele>
        <time>2019-04-17T18:01:44Z</time>
      </trkpt>
      <trkpt lat="45.12348" lon="2.96646">
        <ele>856</ele>
        <time>2019-04-17T18:02:44Z</time>
      </trkpt>
      <trkpt lat="45.12339" lon="2.96619">
        <ele>857</ele>
        <time>2019-04-17T18:03:44Z</time>
      </trkpt>
      <trkpt lat="45.12314" lon="2.96497">
        <ele>861</ele>
        <time>2019-04-17T18:04:44Z</time>
      </trkpt>
      <trkpt lat="45.12303" lon="2.9646">
        <ele>861</ele>
        <time>2019-04-17T18:05:44Z</time>
      </trkpt>
      <trkpt lat="45.12292" lon="2.96433">
        <ele>862</ele>
        <time>2019-04-17T18:06:44Z</time>
      </trkpt>
      <trkpt lat="45.1225" lon="2.9636">
        <ele>864</ele>
        <time>2019-04-17T18:07:44Z</time>
      </trkpt>
      <trkpt lat="45.12236" lon="2.96341">
        <ele>865</ele>
        <time>2019-04-17T18:08:44Z</time>
      </trkpt>
      <trkpt lat="45.12219" lon="2.9633">
        <ele>867</ele>
        <time>2019-04-17T18:09:44Z</time>
      </trkpt>
      <trkpt lat="45.12197" lon="2.96328">
        <ele>870</ele>
        <time>2019-04-17T18:10:44Z</time>
      </trkpt>
      <trkpt lat="45.12172" lon="2.96322">
        <ele>874</ele>
        <time>2019-04-17T18:11:44Z</time>
      </trkpt>
      <trkpt lat="45.12151" lon="2.9631">
        <ele>874</ele>
        <time>2019-04-17T18:12:44Z</time>
      </trkpt>
      <trkpt lat="45.12135" lon="2.96295">
        <ele>874</ele>
        <time>2019-04-17T18:13:44Z</time>
      </trkpt>
      <trkpt lat="45.12121" lon="2.96272">
        <ele>875</ele>
        <time>2019-04-17T18:14:44Z</time>
      </trkpt>
      <trkpt lat="45.12114" lon="2.9625">
        <ele>875</ele>
        <time>2019-04-17T18:15:44Z</time>
      </trkpt>
      <trkpt lat="45.12102" lon="2.96191">
        <ele>877</ele>
        <time>2019-04-17T18:16:44Z</time>
      </trkpt>
      <trkpt lat="45.12091" lon="2.9617">
        <ele>879</ele>
        <time>2019-04-17T18:17:44Z</time>
      </trkpt>
      <trkpt lat="45.12075" lon="2.96151">
        <ele>881</ele>
        <time>2019-04-17T18:18:44Z</time>
      </trkpt>
      <trkpt lat="45.12049" lon="2.96133">
        <ele>884</ele>
        <time>2019-04-17T18:19:44Z</time>
      </trkpt>
      <trkpt lat="45.12031" lon="2.96115">
        <ele>887</ele>
        <time>2019-04-17T18:20:44Z</time>
      </trkpt>
      <trkpt lat="45.12017" lon="2.96096">
        <ele>889</ele>
        <time>2019-04-17T18:21:44Z</time>
      </trkpt>
      <trkpt lat="45.11988" lon="2.96043">
        <ele>895</ele>
        <time>2019-04-17T18:22:44Z</time>
      </trkpt>
      <trkpt lat="45.11976" lon="2.95918">
        <ele>897</ele>
        <time>2019-04-17T18:23:44Z</time>
      </trkpt>
      <trkpt lat="45.1203" lon="2.95903">
        <ele>891</ele>
        <time>2019-04-17T18:24:44Z</time>
      </trkpt>
      <trkpt lat="45.12055" lon="2.95877">
        <ele>887</ele>
        <time>2019-04-17T18:25:44Z</time>
      </trkpt>
      <trkpt lat="45.12069" lon="2.95832">
        <ele>884</ele>
        <time>2019-04-17T18:26:44Z</time>
      </trkpt>
      <trkpt lat="45.12077" lon="2.95746">
        <ele>880</ele>
        <time>2019-04-17T18:27:44Z</time>
      </trkpt>
      <trkpt lat="45.1209" lon="2.95697">
        <ele>878</ele>
        <time>2019-04-17T18:28:44Z</time>
      </trkpt>
      <trkpt lat="45.12124" lon="2.95666">
        <ele>875</ele>
        <time>2019-04-17T18:29:44Z</time>
      </trkpt>
      <trkpt lat="45.12226" lon="2.95608">
        <ele>865</ele>
        <time>2019-04-17T18:30:44Z</time>
      </trkpt>
      <trkpt lat="45.12249" lon="2.95563">
        <ele>864</ele>
        <time>2019-04-17T18:31:44Z</time>
      </trkpt>
      <trkpt lat="45.12264" lon="2.95526">
        <ele>863</ele>
        <time>2019-04-17T18:32:44Z</time>
      </trkpt>
      <trkpt lat="45.12312" lon="2.95492">
        <ele>860</ele>
        <time>2019-04-17T18:33:44Z</time>
      </trkpt>
      <trkpt lat="45.12325" lon="2.95456">
        <ele>861</ele>
        <time>2019-04-17T18:34:44Z</time>
      </trkpt>
      <trkpt lat="45.12333" lon="2.95378">
        <ele>862</ele>
        <time>2019-04-17T18:35:44Z</time>
      </trkpt>
      <trkpt lat="45.12373" lon="2.9526">
        <ele>859</ele>
        <time>2019-04-17T18:36:44Z</time>
      </trkpt>
      <trkpt lat="45.12372" lon="2.95185">
        <ele>861</ele>
        <time>2019-04-17T18:37:44Z</time>
      </trkpt>
      <trkpt lat="45.12355" lon="2.95081">
        <ele>863</ele>
        <time>2019-04-17T18:38:44Z</time>
      </trkpt>
      <trkpt lat="45.12375" lon="2.94973">
        <ele>861</ele>
        <time>2019-04-17T18:39:44Z</time>
      </trkpt>
      <trkpt lat="45.12371" lon="2.94818">
        <ele>861</ele>
        <time>2019-04-17T18:40:44Z</time>
      </trkpt>
      <trkpt lat="45.12386" lon="2.94775">
        <ele>859</ele>
        <time>2019-04-17T18:41:44Z</time>
      </trkpt>
      <trkpt lat="45.12441" lon="2.94697">
        <ele>855</ele>
        <time>2019-04-17T18:42:44Z</time>
      </trkpt>
      <trkpt lat="45.12453" lon="2.94654">
        <ele>855</ele>
        <time>2019-04-17T18:43:44Z</time>
      </trkpt>
      <trkpt lat="45.12458" lon="2.94544">
        <ele>857</ele>
        <time>2019-04-17T18:44:44Z</time>
      </trkpt>
      <trkpt lat="45.12446" lon="2.94464">
        <ele>859</ele>
        <time>2019-04-17T18:45:44Z</time>
      </trkpt>
      <trkpt lat="45.12417" lon="2.94378">
        <ele>860</ele>
        <time>2019-04-17T18:46:44Z</time>
      </trkpt>
      <trkpt lat="45.12403" lon="2.94311">
        <ele>858</ele>
        <time>2019-04-17T18:47:44Z</time>
      </trkpt>
      <trkpt lat="45.12404" lon="2.94254">
        <ele>856</ele>
        <time>2019-04-17T18:48:44Z</time>
      </trkpt>
      <trkpt lat="45.12439" lon="2.9414">
        <ele>852</ele>
        <time>2019-04-17T18:49:44Z</time>
      </trkpt>
      <trkpt lat="45.12443" lon="2.94084">
        <ele>852</ele>
        <time>2019-04-17T18:50:44Z</time>
      </trkpt>
      <trkpt lat="45.1244" lon="2.93999">
        <ele>849</ele>
        <time>2019-04-17T18:51:44Z</time>
      </trkpt>
      <trkpt lat="45.12448" lon="2.93969">
        <ele>848</ele>
        <time>2019-04-17T18:52:44Z</time>
      </trkpt>
      <trkpt lat="45.12461" lon="2.93935">
        <ele>847</ele>
        <time>2019-04-17T18:53:44Z</time>
      </trkpt>
      <trkpt lat="45.12481" lon="2.93888">
        <ele>850</ele>
        <time>2019-04-17T18:54:44Z</time>
      </trkpt>
      <trkpt lat="45.12492" lon="2.93868">
        <ele>852</ele>
        <time>2019-04-17T18:55:44Z</time>
      </trkpt>
      <trkpt lat="45.12495" lon="2.93858">
        <ele>853</ele>
        <time>2019-04-17T18:56:44Z</time>
      </trkpt>
      <trkpt lat="45.12469" lon="2.93808">
        <ele>854</ele>
        <time>2019-04-17T18:57:44Z</time>
      </trkpt>
      <trkpt lat="45.12469" lon="2.93799">
        <ele>854</ele>
        <time>2019-04-17T18:58:44Z</time>
      </trkpt>
      <trkpt lat="45.12473" lon="2.93792">
        <ele>855</ele>
        <time>2019-04-17T18:59:44Z</time>
      </trkpt>
      <trkpt lat="45.12425" lon="2.93716">
        <ele>855</ele>
        <time>2019-04-17T19:00:44Z</time>
      </trkpt>
      <trkpt lat="45.124" lon="2.93658">
        <ele>855</ele>
        <time>2019-04-17T19:01:44Z</time>
      </trkpt>
      <trkpt lat="45.12311" lon="2.9336">
        <ele>858</ele>
        <time>2019-04-17T19:02:44Z</time>
      </trkpt>
      <trkpt lat="45.12291" lon="2.93267">
        <ele>860</ele>
        <time>2019-04-17T19:03:44Z</time>
      </trkpt>
      <trkpt lat="45.12277" lon="2.93122">
        <ele>860</ele>
        <time>2019-04-17T19:04:44Z</time>
      </trkpt>
      <trkpt lat="45.12263" lon="2.93018">
        <ele>862</ele>
        <time>2019-04-17T19:05:44Z</time>
      </trkpt>
      <trkpt lat="45.1223" lon="2.92881">
        <ele>864</ele>
        <time>2019-04-17T19:06:44Z</time>
      </trkpt>
      <trkpt lat="45.12114" lon="2.9251">
        <ele>868</ele>
        <time>2019-04-17T19:07:44Z</time>
      </trkpt>
      <trkpt lat="45.12073" lon="2.92415">
        <ele>869</ele>
        <time>2019-04-17T19:08:44Z</time>
      </trkpt>
      <trkpt lat="45.12049" lon="2.92377">
        <ele>870</ele>
        <time>2019-04-17T19:09:44Z</time>
      </trkpt>
      <trkpt lat="45.11996" lon="2.92305">
        <ele>873</ele>
        <time>2019-04-17T19:10:44Z</time>
      </trkpt>
      <trkpt lat="45.11943" lon="2.9224">
        <ele>874</ele>
        <time>2019-04-17T19:11:44Z</time>
      </trkpt>
      <trkpt lat="45.11879" lon="2.92145">
        <ele>874</ele>
        <time>2019-04-17T19:12:44Z</time>
      </trkpt>
      <trkpt lat="45.11715" lon="2.91744">
        <ele>879</ele>
        <time>2019-04-17T19:13:44Z</time>
      </trkpt>
      <trkpt lat="45.11668" lon="2.91635">
        <ele>881</ele>
        <time>2019-04-17T19:14:44Z</time>
      </trkpt>
      <trkpt lat="45.11678" lon="2.91614">
        <ele>882</ele>
        <time>2019-04-17T19:15:44Z</time>
      </trkpt>
      <trkpt lat="45.11652" lon="2.91558">
        <ele>884</ele>
        <time>2019-04-17T19:16:44Z</time>
      </trkpt>
      <trkpt lat="45.11597" lon="2.91243">
        <ele>901</ele>
        <time>2019-04-17T19:17:44Z</time>
      </trkpt>
      <trkpt lat="45.11599" lon="2.91197">
        <ele>902</ele>
        <time>2019-04-17T19:18:44Z</time>
      </trkpt>
      <trkpt lat="45.11611" lon="2.91158">
        <ele>906</ele>
        <time>2019-04-17T19:19:44Z</time>
      </trkpt>
      <trkpt lat="45.11624" lon="2.91126">
        <ele>912</ele>
        <time>2019-04-17T19:20:44Z</time>
      </trkpt>
      <trkpt lat="45.11632" lon="2.91091">
        <ele>917</ele>
        <time>2019-04-17T19:21:44Z</time>
      </trkpt>
      <trkpt lat="45.1163" lon="2.91056">
        <ele>921</ele>
        <time>2019-04-17T19:22:44Z</time>
      </trkpt>
      <trkpt lat="45.11605" lon="2.90974">
        <ele>922</ele>
        <time>2019-04-17T19:23:44Z</time>
      </trkpt>
      <trkpt lat="45.11596" lon="2.90914">
        <ele>927</ele>
        <time>2019-04-17T19:24:44Z</time>
      </trkpt>
      <trkpt lat="45.11599" lon="2.90852">
        <ele>933</ele>
        <time>2019-04-17T19:25:44Z</time>
      </trkpt>
      <trkpt lat="45.11593" lon="2.90806">
        <ele>935</ele>
        <time>2019-04-17T19:26:44Z</time>
      </trkpt>
      <trkpt lat="45.11564" lon="2.90737">
        <ele>932</ele>
        <time>2019-04-17T19:27:44Z</time>
      </trkpt>
      <trkpt lat="45.11553" lon="2.90685">
        <ele>932</ele>
        <time>2019-04-17T19:28:44Z</time>
      </trkpt>
      <trkpt lat="45.11554" lon="2.90608">
        <ele>935</ele>
        <time>2019-04-17T19:29:44Z</time>
      </trkpt>
      <trkpt lat="45.1156" lon="2.90588">
        <ele>937</ele>
        <time>2019-04-17T19:30:44Z</time>
      </trkpt>
      <trkpt lat="45.11582" lon="2.90568">
        <ele>942</ele>
        <time>2019-04-17T19:31:44Z</time>
      </trkpt>
      <trkpt lat="45.11606" lon="2.90559">
        <ele>953</ele>
        <time>2019-04-17T19:32:44Z</time>
      </trkpt>
      <trkpt lat="45.11619" lon="2.90562">
        <ele>958</ele>
        <time>2019-04-17T19:33:44Z</time>
      </trkpt>
      <trkpt lat="45.11629" lon="2.90587">
        <ele>960</ele>
        <time>2019-04-17T19:34:44Z</time>
      </trkpt>
      <trkpt lat="45.11639" lon="2.90638">
        <ele>963</ele>
        <time>2019-04-17T19:35:44Z</time>
      </trkpt>
      <trkpt lat="45.11647" lon="2.90732">
        <ele>963</ele>
        <time>2019-04-17T19:36:44Z</time>
      </trkpt>
      <trkpt lat="45.11656" lon="2.90797">
        <ele>961</ele>
        <time>2019-04-17T19:37:44Z</time>
      </trkpt>
      <trkpt lat="45.11719" lon="2.90977">
        <ele>972</ele>
        <time>2019-04-17T19:38:44Z</time>
      </trkpt>
      <trkpt lat="45.11801" lon="2.91076">
        <ele>986</ele>
        <time>2019-04-17T19:39:44Z</time>
      </trkpt>
      <trkpt lat="45.11833" lon="2.91126">
        <ele>988</ele>
        <time>2019-04-17T19:40:44Z</time>
      </trkpt>
      <trkpt lat="45.11864" lon="2.91187">
        <ele>990</ele>
        <time>2019-04-17T19:41:44Z</time>
      </trkpt>
      <trkpt lat="45.11894" lon="2.91238">
        <ele>994</ele>
        <time>2019-04-17T19:42:44Z</time>
      </trkpt>
      <trkpt lat="45.11932" lon="2.91269">
        <ele>1002</ele>
        <time>2019-04-17T19:43:44Z</time>
      </trkpt>
      <trkpt lat="45.11991" lon="2.9134">
        <ele>1006</ele>
        <time>2019-04-17T19:44:44Z</time>
      </trkpt>
      <trkpt lat="45.12036" lon="2.91379">
        <ele>1009</ele>
        <time>2019-04-17T19:45:44Z</time>
      </trkpt>
      <trkpt lat="45.1207" lon="2.91399">
        <ele>1013</ele>
        <time>2019-04-17T19:46:44Z</time>
      </trkpt>
      <trkpt lat="45.12118" lon="2.9141">
        <ele>1017</ele>
        <time>2019-04-17T19:47:44Z</time>
      </trkpt>
      <trkpt lat="45.1216" lon="2.9141">
        <ele>1021</ele>
        <time>2019-04-17T19:48:44Z</time>
      </trkpt>
      <trkpt lat="45.12211" lon="2.91417">
        <ele>1024</ele>
        <time>2019-04-17T19:49:44Z</time>
      </trkpt>
      <trkpt lat="45.1223" lon="2.91422">
        <ele>1024</ele>
        <time>2019-04-17T19:50:44Z</time>
      </trkpt>
      <trkpt lat="45.12251" lon="2.91437">
        <ele>1022</ele>
        <time>2019-04-17T19:51:44Z</time>
      </trkpt>
      <trkpt lat="45.12287" lon="2.91474">
        <ele>1015</ele>
        <time>2019-04-17T19:52:44Z</time>
      </trkpt>
      <trkpt lat="45.12298" lon="2.91481">
        <ele>1014</ele>
        <time>2019-04-17T19:53:44Z</time>
      </trkpt>
      <trkpt lat="45.12353" lon="2.91478">
        <ele>1019</ele>
        <time>2019-04-17T19:54:44Z</time>
      </trkpt>
      <trkpt lat="45.12362" lon="2.91473">
        <ele>1020</ele>
        <time>2019-04-17T19:55:44Z</time>
      </trkpt>
      <trkpt lat="45.12371" lon="2.91462">
        <ele>1022</ele>
        <time>2019-04-17T19:56:44Z</time>
      </trkpt>
      <trkpt lat="45.12374" lon="2.91445">
        <ele>1023</ele>
        <time>2019-04-17T19:57:44Z</time>
      </trkpt>
      <trkpt lat="45.12372" lon="2.91425">
        <ele>1025</ele>
        <time>2019-04-17T19:58:44Z</time>
      </trkpt>
      <trkpt lat="45.12359" lon="2.91345">
        <ele>1028</ele>
        <time>2019-04-17T19:59:44Z</time>
      </trkpt>
      <trkpt lat="45.12362" lon="2.91312">
        <ele>1030</ele>
        <time>2019-04-17T20:00:44Z</time>
      </trkpt>
      <trkpt lat="45.12383" lon="2.91248">
        <ele>1031</ele>
        <time>2019-04-17T20:01:44Z</time>
      </trkpt>
      <trkpt lat="45.12398" lon="2.91156">
        <ele>1033</ele>
        <time>2019-04-17T20:02:44Z</time>
      </trkpt>
      <trkpt lat="45.1241" lon="2.91119">
        <ele>1032</ele>
        <time>2019-04-17T20:03:44Z</time>
      </trkpt>
      <trkpt lat="45.12467" lon="2.90978">
        <ele>1033</ele>
        <time>2019-04-17T20:04:44Z</time>
      </trkpt>
      <trkpt lat="45.12482" lon="2.90891">
        <ele>1034</ele>
        <time>2019-04-17T20:05:44Z</time>
      </trkpt>
      <trkpt lat="45.12485" lon="2.90852">
        <ele>1034</ele>
        <time>2019-04-17T20:06:44Z</time>
      </trkpt>
      <trkpt lat="45.12481" lon="2.90822">
        <ele>1035</ele>
        <time>2019-04-17T20:07:44Z</time>
      </trkpt>
      <trkpt lat="45.12464" lon="2.90772">
        <ele>1036</ele>
        <time>2019-04-17T20:08:44Z</time>
      </trkpt>
      <trkpt lat="45.12424" lon="2.90691">
        <ele>1040</ele>
        <time>2019-04-17T20:09:44Z</time>
      </trkpt>
      <trkpt lat="45.12418" lon="2.90644">
        <ele>1042</ele>
        <time>2019-04-17T20:10:44Z</time>
      </trkpt>
      <trkpt lat="45.12412" lon="2.9055">
        <ele>1047</ele>
        <time>2019-04-17T20:11:44Z</time>
      </trkpt>
      <trkpt lat="45.12422" lon="2.90475">
        <ele>1049</ele>
        <time>2019-04-17T20:12:44Z</time>
      </trkpt>
      <trkpt lat="45.12421" lon="2.90368">
        <ele>1056</ele>
        <time>2019-04-17T20:13:44Z</time>
      </trkpt>
      <trkpt lat="45.12412" lon="2.90268">
        <ele>1058</ele>
        <time>2019-04-17T20:14:44Z</time>
      </trkpt>
      <trkpt lat="45.12392" lon="2.90158">
        <ele>1057</ele>
        <time>2019-04-17T20:15:44Z</time>
      </trkpt>
      <trkpt lat="45.12363" lon="2.90089">
        <ele>1057</ele>
        <time>2019-04-17T20:16:44Z</time>
      </trkpt>
      <trkpt lat="45.12329" lon="2.89955">
        <ele>1058</ele>
        <time>2019-04-17T20:17:44Z</time>
      </trkpt>
      <trkpt lat="45.12307" lon="2.89827">
        <ele>1058</ele>
        <time>2019-04-17T20:18:44Z</time>
      </trkpt>
      <trkpt lat="45.12297" lon="2.89716">
        <ele>1060</ele>
        <time>2019-04-17T20:19:44Z</time>
      </trkpt>
      <trkpt lat="45.12268" lon="2.8961">
        <ele>1061</ele>
        <time>2019-04-17T20:20:44Z</time>
      </trkpt>
      <trkpt lat="45.12258" lon="2.89584">
        <ele>1061</ele>
        <time>2019-04-17T20:21:44Z</time>
      </trkpt>
      <trkpt lat="45.12208" lon="2.89486">
        <ele>1060</ele>
        <time>2019-04-17T20:22:44Z</time>
      </trkpt>
      <trkpt lat="45.1218" lon="2.89394">
        <ele>1061</ele>
        <time>2019-04-17T20:23:44Z</time>
      </trkpt>
      <trkpt lat="45.12166" lon="2.89363">
        <ele>1061</ele>
        <time>2019-04-17T20:24:44Z</time>
      </trkpt>
      <trkpt lat="45.1213" lon="2.89328">
        <ele>1057</ele>
        <time>2019-04-17T20:25:44Z</time>
      </trkpt>
      <trkpt lat="45.12109" lon="2.89289">
        <ele>1055</ele>
        <time>2019-04-17T20:26:44Z</time>
      </trkpt>
      <trkpt lat="45.12097" lon="2.8925">
        <ele>1053</ele>
        <time>2019-04-17T20:27:44Z</time>
      </trkpt>
      <trkpt lat="45.12087" lon="2.89229">
        <ele>1052</ele>
        <time>2019-04-17T20:28:44Z</time>
      </trkpt>
      <trkpt lat="45.12054" lon="2.89183">
        <ele>1048</ele>
        <time>2019-04-17T20:29:44Z</time>
      </trkpt>
      <trkpt lat="45.1203" lon="2.89118">
        <ele>1045</ele>
        <time>2019-04-17T20:30:44Z</time>
      </trkpt>
      <trkpt lat="45.12003" lon="2.89079">
        <ele>1044</ele>
        <time>2019-04-17T20:31:44Z</time>
      </trkpt>
      <trkpt lat="45.11991" lon="2.89049">
        <ele>1041</ele>
        <time>2019-04-17T20:32:44Z</time>
      </trkpt>
      <trkpt lat="45.11982" lon="2.89021">
        <ele>1039</ele>
        <time>2019-04-17T20:33:44Z</time>
      </trkpt>
      <trkpt lat="45.11985" lon="2.88997">
        <ele>1039</ele>
        <time>2019-04-17T20:34:44Z</time>
      </trkpt>
      <trkpt lat="45.12014" lon="2.8887">
        <ele>1037</ele>
        <time>2019-04-17T20:35:44Z</time>
      </trkpt>
      <trkpt lat="45.1203" lon="2.8882">
        <ele>1036</ele>
        <time>2019-04-17T20:36:44Z</time>
      </trkpt>
      <trkpt lat="45.12037" lon="2.88778">
        <ele>1036</ele>
        <time>2019-04-17T20:37:44Z</time>
      </trkpt>
      <trkpt lat="45.1205" lon="2.88746">
        <ele>1036</ele>
        <time>2019-04-17T20:38:44Z</time>
      </trkpt>
      <trkpt lat="45.12076" lon="2.88705">
        <ele>1035</ele>
        <time>2019-04-17T20:39:44Z</time>
      </trkpt>
      <trkpt lat="45.12118" lon="2.88611">
        <ele>1032</ele>
        <time>2019-04-17T20:40:44Z</time>
      </trkpt>
      <trkpt lat="45.12131" lon="2.88577">
        <ele>1031</ele>
        <time>2019-04-17T20:41:44Z</time>
      </trkpt>
      <trkpt lat="45.12155" lon="2.88551">
        <ele>1029</ele>
        <time>2019-04-17T20:42:44Z</time>
      </trkpt>
      <trkpt lat="45.12197" lon="2.88534">
        <ele>1026</ele>
        <time>2019-04-17T20:43:44Z</time>
      </trkpt>
      <trkpt lat="45.1222" lon="2.88544">
        <ele>1025</ele>
        <time>2019-04-17T20:44:44Z</time>
      </trkpt>
      <trkpt lat="45.12253" lon="2.88486">
        <ele>1025</ele>
        <time>2019-04-17T20:45:44Z</time>
      </trkpt>
      <trkpt lat="45.12271" lon="2.88458">
        <ele>1026</ele>
        <time>2019-04-17T20:46:44Z</time>
      </trkpt>
      <trkpt lat="45.12282" lon="2.88436">
        <ele>1028</ele>
        <time>2019-04-17T20:47:44Z</time>
      </trkpt>
      <trkpt lat="45.12343" lon="2.88221">
        <ele>1034</ele>
        <time>2019-04-17T20:48:44Z</time>
      </trkpt>
      <trkpt lat="45.1236" lon="2.88116">
        <ele>1032</ele>
        <time>2019-04-17T20:49:44Z</time>
      </trkpt>
      <trkpt lat="45.1242" lon="2.87866">
        <ele>1030</ele>
        <time>2019-04-17T20:50:44Z</time>
      </trkpt>
      <trkpt lat="45.12424" lon="2.87835">
        <ele>1031</ele>
        <time>2019-04-17T20:51:44Z</time>
      </trkpt>
      <trkpt lat="45.12422" lon="2.87656">
        <ele>1041</ele>
        <time>2019-04-17T20:52:44Z</time>
      </trkpt>
      <trkpt lat="45.12426" lon="2.87627">
        <ele>1040</ele>
        <time>2019-04-17T20:53:44Z</time>
      </trkpt>
      <trkpt lat="45.12436" lon="2.87605">
        <ele>1040</ele>
        <time>2019-04-17T20:54:44Z</time>
      </trkpt>
      <trkpt lat="45.12483" lon="2.87537">
        <ele>1041</ele>
        <time>2019-04-17T20:55:44Z</time>
      </trkpt>
      <trkpt lat="45.12606" lon="2.87218">
        <ele>1041</ele>
        <time>2019-04-17T20:56:44Z</time>
      </trkpt>
      <trkpt lat="45.12627" lon="2.8719">
        <ele>1042</ele>
        <time>2019-04-17T20:57:44Z</time>
      </trkpt>
      <trkpt lat="45.12633" lon="2.8717">
        <ele>1043</ele>
        <time>2019-04-17T20:58:44Z</time>
      </trkpt>
      <trkpt lat="45.12646" lon="2.87094">
        <ele>1049</ele>
        <time>2019-04-17T20:59:44Z</time>
      </trkpt>
      <trkpt lat="45.12649" lon="2.87071">
        <ele>1051</ele>
        <time>2019-04-17T21:00:44Z</time>
      </trkpt>
      <trkpt lat="45.12667" lon="2.87024">
        <ele>1056</ele>
        <time>2019-04-17T21:01:44Z</time>
      </trkpt>
      <trkpt lat="45.12673" lon="2.86981">
        <ele>1060</ele>
        <time>2019-04-17T21:02:44Z</time>
      </trkpt>
      <trkpt lat="45.12704" lon="2.86881">
        <ele>1067</ele>
        <time>2019-04-17T21:03:44Z</time>
      </trkpt>
      <trkpt lat="45.12708" lon="2.86839">
        <ele>1071</ele>
        <time>2019-04-17T21:04:44Z</time>
      </trkpt>
      <trkpt lat="45.12705" lon="2.86804">
        <ele>1073</ele>
        <time>2019-04-17T21:05:44Z</time>
      </trkpt>
      <trkpt lat="45.12692" lon="2.86783">
        <ele>1076</ele>
        <time>2019-04-17T21:06:44Z</time>
      </trkpt>
      <trkpt lat="45.1268" lon="2.86755">
        <ele>1079</ele>
        <time>2019-04-17T21:07:44Z</time>
      </trkpt>
      <trkpt lat="45.12673" lon="2.86574">
        <ele>1091</ele>
        <time>2019-04-17T21:08:44Z</time>
      </trkpt>
      <trkpt lat="45.12662" lon="2.86539">
        <ele>1093</ele>
        <time>2019-04-17T21:09:44Z</time>
      </trkpt>
      <trkpt lat="45.12601" lon="2.86454">
        <ele>1098</ele>
        <time>2019-04-17T21:10:44Z</time>
      </trkpt>
      <trkpt lat="45.12577" lon="2.86411">
        <ele>1102</ele>
        <time>2019-04-17T21:11:44Z</time>
      </trkpt>
      <trkpt lat="45.12568" lon="2.86368">
        <ele>1107</ele>
        <time>2019-04-17T21:12:44Z</time>
      </trkpt>
      <trkpt lat="45.12574" lon="2.86261">
        <ele>1114</ele>
        <time>2019-04-17T21:13:44Z</time>
      </trkpt>
      <trkpt lat="45.12576" lon="2.86207">
        <ele>1116</ele>
        <time>2019-04-17T21:14:44Z</time>
      </trkpt>
      <trkpt lat="45.1256" lon="2.86145">
        <ele>1118</ele>
        <time>2019-04-17T21:15:44Z</time>
      </trkpt>
      <trkpt lat="45.12538" lon="2.85992">
        <ele>1123</ele>
        <time>2019-04-17T21:16:44Z</time>
      </trkpt>
      <trkpt lat="45.12516" lon="2.8593">
        <ele>1125</ele>
        <time>2019-04-17T21:17:44Z</time>
      </trkpt>
      <trkpt lat="45.12499" lon="2.85867">
        <ele>1124</ele>
        <time>2019-04-17T21:18:44Z</time>
      </trkpt>
      <trkpt lat="45.12495" lon="2.85822">
        <ele>1123</ele>
        <time>2019-04-17T21:19:44Z</time>
      </trkpt>
      <trkpt lat="45.125" lon="2.85786">
        <ele>1123</ele>
        <time>2019-04-17T21:20:44Z</time>
      </trkpt>
      <trkpt lat="45.12495" lon="2.85759">
        <ele>1122</ele>
        <time>2019-04-17T21:21:44Z</time>
      </trkpt>
      <trkpt lat="45.12474" lon="2.85712">
        <ele>1122</ele>
        <time>2019-04-17T21:22:44Z</time>
      </trkpt>
      <trkpt lat="45.12476" lon="2.85695">
        <ele>1122</ele>
        <time>2019-04-17T21:23:44Z</time>
      </trkpt>
      <trkpt lat="45.12492" lon="2.85653">
        <ele>1123</ele>
        <time>2019-04-17T21:24:44Z</time>
      </trkpt>
      <trkpt lat="45.12571" lon="2.85456">
        <ele>1124</ele>
        <time>2019-04-17T21:25:44Z</time>
      </trkpt>
      <trkpt lat="45.12647" lon="2.8525">
        <ele>1119</ele>
        <time>2019-04-17T21:26:44Z</time>
      </trkpt>
      <trkpt lat="45.12658" lon="2.85216">
        <ele>1116</ele>
        <time>2019-04-17T21:27:44Z</time>
      </trkpt>
      <trkpt lat="45.12662" lon="2.85168">
        <ele>1112</ele>
        <time>2019-04-17T21:28:44Z</time>
      </trkpt>
      <trkpt lat="45.12698" lon="2.85071">
        <ele>1109</ele>
        <time>2019-04-17T21:29:44Z</time>
      </trkpt>
      <trkpt lat="45.127" lon="2.85028">
        <ele>1109</ele>
        <time>2019-04-17T21:30:44Z</time>
      </trkpt>
      <trkpt lat="45.12694" lon="2.84957">
        <ele>1108</ele>
        <time>2019-04-17T21:31:44Z</time>
      </trkpt>
      <trkpt lat="45.12681" lon="2.84897">
        <ele>1103</ele>
        <time>2019-04-17T21:32:44Z</time>
      </trkpt>
      <trkpt lat="45.12676" lon="2.84861">
        <ele>1098</ele>
        <time>2019-04-17T21:33:44Z</time>
      </trkpt>
      <trkpt lat="45.12691" lon="2.84824">
        <ele>1097</ele>
        <time>2019-04-17T21:34:44Z</time>
      </trkpt>
      <trkpt lat="45.1272" lon="2.84782">
        <ele>1096</ele>
        <time>2019-04-17T21:35:44Z</time>
      </trkpt>
      <trkpt lat="45.12762" lon="2.84736">
        <ele>1099</ele>
        <time>2019-04-17T21:36:44Z</time>
      </trkpt>
      <trkpt lat="45.12762" lon="2.84714">
        <ele>1095</ele>
        <time>2019-04-17T21:37:44Z</time>
      </trkpt>
      <trkpt lat="45.12755" lon="2.84702">
        <ele>1090</ele>
        <time>2019-04-17T21:38:44Z</time>
      </trkpt>
      <trkpt lat="45.12949" lon="2.84486">
        <ele>1109</ele>
        <time>2019-04-17T21:39:44Z</time>
      </trkpt>
      <trkpt lat="45.12992" lon="2.84435">
        <ele>1111</ele>
        <time>2019-04-17T21:40:44Z</time>
      </trkpt>
      <trkpt lat="45.13011" lon="2.84406">
        <ele>1111</ele>
        <time>2019-04-17T21:41:44Z</time>
      </trkpt>
      <trkpt lat="45.13022" lon="2.84383">
        <ele>1112</ele>
        <time>2019-04-17T21:42:44Z</time>
      </trkpt>
      <trkpt lat="45.13114" lon="2.84185">
        <ele>1115</ele>
        <time>2019-04-17T21:43:44Z</time>
      </trkpt>
      <trkpt lat="45.13167" lon="2.84064">
        <ele>1123</ele>
        <time>2019-04-17T21:44:44Z</time>
      </trkpt>
      <trkpt lat="45.13179" lon="2.84029">
        <ele>1125</ele>
        <time>2019-04-17T21:45:44Z</time>
      </trkpt>
      <trkpt lat="45.1319" lon="2.83992">
        <ele>1127</ele>
        <time>2019-04-17T21:46:44Z</time>
      </trkpt>
      <trkpt lat="45.13255" lon="2.83688">
        <ele>1141</ele>
        <time>2019-04-17T21:47:44Z</time>
      </trkpt>
      <trkpt lat="45.13288" lon="2.83556">
        <ele>1147</ele>
        <time>2019-04-17T21:48:44Z</time>
      </trkpt>
      <trkpt lat="45.13371" lon="2.83235">
        <ele>1162</ele>
        <time>2019-04-17T21:49:44Z</time>
      </trkpt>
      <trkpt lat="45.13382" lon="2.83203">
        <ele>1163</ele>
        <time>2019-04-17T21:50:44Z</time>
      </trkpt>
      <trkpt lat="45.13403" lon="2.83151">
        <ele>1165</ele>
        <time>2019-04-17T21:51:44Z</time>
      </trkpt>
      <trkpt lat="45.13424" lon="2.83112">
        <ele>1167</ele>
        <time>2019-04-17T21:52:44Z</time>
      </trkpt>
      <trkpt lat="45.13449" lon="2.83073">
        <ele>1168</ele>
        <time>2019-04-17T21:53:44Z</time>
      </trkpt>
      <trkpt lat="45.13475" lon="2.83042">
        <ele>1170</ele>
        <time>2019-04-17T21:54:44Z</time>
      </trkpt>
      <trkpt lat="45.13505" lon="2.83011">
        <ele>1171</ele>
        <time>2019-04-17T21:55:44Z</time>
      </trkpt>
      <trkpt lat="45.13528" lon="2.82993">
        <ele>1172</ele>
        <time>2019-04-17T21:56:44Z</time>
      </trkpt>
      <trkpt lat="45.13664" lon="2.82897">
        <ele>1173</ele>
        <time>2019-04-17T21:57:44Z</time>
      </trkpt>
      <trkpt lat="45.13702" lon="2.82869">
        <ele>1173</ele>
        <time>2019-04-17T21:58:44Z</time>
      </trkpt>
      <trkpt lat="45.13716" lon="2.82856">
        <ele>1173</ele>
        <time>2019-04-17T21:59:44Z</time>
      </trkpt>
      <trkpt lat="45.13749" lon="2.82821">
        <ele>1176</ele>
        <time>2019-04-17T22:00:44Z</time>
      </trkpt>
      <trkpt lat="45.13869" lon="2.82677">
        <ele>1180</ele>
        <time>2019-04-17T22:01:44Z</time>
      </trkpt>
      <trkpt lat="45.13884" lon="2.82656">
        <ele>1180</ele>
        <time>2019-04-17T22:02:44Z</time>
      </trkpt>
      <trkpt lat="45.13907" lon="2.82614">
        <ele>1181</ele>
        <time>2019-04-17T22:03:44Z</time>
      </trkpt>
      <trkpt lat="45.13931" lon="2.82551">
        <ele>1181</ele>
        <time>2019-04-17T22:04:44Z</time>
      </trkpt>
      <trkpt lat="45.14022" lon="2.82252">
        <ele>1188</ele>
        <time>2019-04-17T22:05:44Z</time>
      </trkpt>
      <trkpt lat="45.1404" lon="2.82206">
        <ele>1189</ele>
        <time>2019-04-17T22:06:44Z</time>
      </trkpt>
      <trkpt lat="45.14048" lon="2.82189">
        <ele>1189</ele>
        <time>2019-04-17T22:07:44Z</time>
      </trkpt>
      <trkpt lat="45.14062" lon="2.82164">
        <ele>1190</ele>
        <time>2019-04-17T22:08:44Z</time>
      </trkpt>
      <trkpt lat="45.14082" lon="2.82135">
        <ele>1192</ele>
        <time>2019-04-17T22:09:44Z</time>
      </trkpt>
      <trkpt lat="45.14579" lon="2.81595">
        <ele>1208</ele>
        <time>2019-04-17T22:10:44Z</time>
      </trkpt>
      <trkpt lat="45.14605" lon="2.8157">
        <ele>1210</ele>
        <time>2019-04-17T22:11:44Z</time>
      </trkpt>
      <trkpt lat="45.14721" lon="2.81468">
        <ele>1209</ele>
        <time>2019-04-17T22:12:44Z</time>
      </trkpt>
      <trkpt lat="45.14742" lon="2.81447">
        <ele>1208</ele>
        <time>2019-04-17T22:13:44Z</time>
      </trkpt>
      <trkpt lat="45.14782" lon="2.81399">
        <ele>1204</ele>
        <time>2019-04-17T22:14:44Z</time>
      </trkpt>
      <trkpt lat="45.14826" lon="2.81341">
        <ele>1202</ele>
        <time>2019-04-17T22:15:44Z</time>
      </trkpt>
      <trkpt lat="45.14863" lon="2.81299">
        <ele>1198</ele>
        <time>2019-04-17T22:16:44Z</time>
      </trkpt>
      <trkpt lat="45.14887" lon="2.81274">
        <ele>1196</ele>
        <time>2019-04-17T22:17:44Z</time>
      </trkpt>
      <trkpt lat="45.14935" lon="2.81234">
        <ele>1193</ele>
        <time>2019-04-17T22:18:44Z</time>
      </trkpt>
      <trkpt lat="45.1497" lon="2.81212">
        <ele>1193</ele>
        <time>2019-04-17T22:19:44Z</time>
      </trkpt>
      <trkpt lat="45.15003" lon="2.812">
        <ele>1193</ele>
        <time>2019-04-17T22:20:44Z</time>
      </trkpt>
      <trkpt lat="45.15039" lon="2.81195">
        <ele>1191</ele>
        <time>2019-04-17T22:21:44Z</time>
      </trkpt>
      <trkpt lat="45.15071" lon="2.81196">
        <ele>1190</ele>
        <time>2019-04-17T22:22:44Z</time>
      </trkpt>
      <trkpt lat="45.15102" lon="2.81204">
        <ele>1188</ele>
        <time>2019-04-17T22:23:44Z</time>
      </trkpt>
      <trkpt lat="45.15138" lon="2.81222">
        <ele>1187</ele>
        <time>2019-04-17T22:24:44Z</time>
      </trkpt>
      <trkpt lat="45.15158" lon="2.81235">
        <ele>1186</ele>
        <time>2019-04-17T22:25:44Z</time>
      </trkpt>
      <trkpt lat="45.15185" lon="2.81259">
        <ele>1184</ele>
        <time>2019-04-17T22:26:44Z</time>
      </trkpt>
      <trkpt lat="45.15209" lon="2.81288">
        <ele>1183</ele>
        <time>2019-04-17T22:27:44Z</time>
      </trkpt>
      <trkpt lat="45.15221" lon="2.8131">
        <ele>1182</ele>
        <time>2019-04-17T22:28:44Z</time>
      </trkpt>
      <trkpt lat="45.15243" lon="2.81352">
        <ele>1180</ele>
        <time>2019-04-17T22:29:44Z</time>
      </trkpt>
      <trkpt lat="45.15265" lon="2.81419">
        <ele>1181</ele>
        <time>2019-04-17T22:30:44Z</time>
      </trkpt>
      <trkpt lat="45.15273" lon="2.81428">
        <ele>1180</ele>
        <time>2019-04-17T22:31:44Z</time>
      </trkpt>
      <trkpt lat="45.15284" lon="2.8146">
        <ele>1180</ele>
        <time>2019-04-17T22:32:44Z</time>
      </trkpt>
      <trkpt lat="45.15288" lon="2.81464">
        <ele>1179</ele>
        <time>2019-04-17T22:33:44Z</time>
      </trkpt>
      <trkpt lat="45.15327" lon="2.8144">
        <ele>1171</ele>
        <time>2019-04-17T22:34:44Z</time>
      </trkpt>
      <trkpt lat="45.15335" lon="2.81427">
        <ele>1169</ele>
        <time>2019-04-17T22:35:44Z</time>
      </trkpt>
      <trkpt lat="45.15338" lon="2.81413">
        <ele>1168</ele>
        <time>2019-04-17T22:36:44Z</time>
      </trkpt>
      <trkpt lat="45.15322" lon="2.81286">
        <ele>1165</ele>
        <time>2019-04-17T22:37:44Z</time>
      </trkpt>
      <trkpt lat="45.1532" lon="2.81248">
        <ele>1164</ele>
        <time>2019-04-17T22:38:44Z</time>
      </trkpt>
      <trkpt lat="45.15321" lon="2.81213">
        <ele>1161</ele>
        <time>2019-04-17T22:39:44Z</time>
      </trkpt>
      <trkpt lat="45.15317" lon="2.81192">
        <ele>1160</ele>
        <time>2019-04-17T22:40:44Z</time>
      </trkpt>
      <trkpt lat="45.15308" lon="2.81173">
        <ele>1160</ele>
        <time>2019-04-17T22:41:44Z</time>
      </trkpt>
      <trkpt lat="45.15301" lon="2.81154">
        <ele>1160</ele>
        <time>2019-04-17T22:42:44Z</time>
      </trkpt>
      <trkpt lat="45.153" lon="2.81144">
        <ele>1160</ele>
        <time>2019-04-17T22:43:44Z</time>
      </trkpt>
      <trkpt lat="45.15298" lon="2.81058">
        <ele>1157</ele>
        <time>2019-04-17T22:44:44Z</time>
      </trkpt>
      <trkpt lat="45.15304" lon="2.8103">
        <ele>1157</ele>
        <time>2019-04-17T22:45:44Z</time>
      </trkpt>
      <trkpt lat="45.15317" lon="2.8101">
        <ele>1154</ele>
        <time>2019-04-17T22:46:44Z</time>
      </trkpt>
      <trkpt lat="45.15329" lon="2.80997">
        <ele>1152</ele>
        <time>2019-04-17T22:47:44Z</time>
      </trkpt>
      <trkpt lat="45.15339" lon="2.8098">
        <ele>1149</ele>
        <time>2019-04-17T22:48:44Z</time>
      </trkpt>
      <trkpt lat="45.15346" lon="2.80963">
        <ele>1147</ele>
        <time>2019-04-17T22:49:44Z</time>
      </trkpt>
      <trkpt lat="45.1535" lon="2.80929">
        <ele>1145</ele>
        <time>2019-04-17T22:50:44Z</time>
      </trkpt>
      <trkpt lat="45.15347" lon="2.80907">
        <ele>1144</ele>
        <time>2019-04-17T22:51:44Z</time>
      </trkpt>
      <trkpt lat="45.15335" lon="2.80858">
        <ele>1142</ele>
        <time>2019-04-17T22:52:44Z</time>
      </trkpt>
      <trkpt lat="45.15329" lon="2.80823">
        <ele>1140</ele>
        <time>2019-04-17T22:53:44Z</time>
      </trkpt>
      <trkpt lat="45.15332" lon="2.80783">
        <ele>1138</ele>
        <time>2019-04-17T22:54:44Z</time>
      </trkpt>
      <trkpt lat="45.15336" lon="2.80759">
        <ele>1136</ele>
        <time>2019-04-17T22:55:44Z</time>
      </trkpt>
      <trkpt lat="45.15356" lon="2.8071">
        <ele>1131</ele>
        <time>2019-04-17T22:56:44Z</time>
      </trkpt>
      <trkpt lat="45.15376" lon="2.80666">
        <ele>1125</ele>
        <time>2019-04-17T22:57:44Z</time>
      </trkpt>
      <trkpt lat="45.15383" lon="2.80647">
        <ele>1123</ele>
        <time>2019-04-17T22:58:44Z</time>
      </trkpt>
      <trkpt lat="45.15387" lon="2.80628">
        <ele>1122</ele>
        <time>2019-04-17T22:59:44Z</time>
      </trkpt>
      <trkpt lat="45.15389" lon="2.80561">
        <ele>1122</ele>
        <time>2019-04-17T23:00:44Z</time>
      </trkpt>
      <trkpt lat="45.15392" lon="2.8054">
        <ele>1122</ele>
        <time>2019-04-17T23:01:44Z</time>
      </trkpt>
      <trkpt lat="45.15398" lon="2.80525">
        <ele>1121</ele>
        <time>2019-04-17T23:02:44Z</time>
      </trkpt>
      <trkpt lat="45.15423" lon="2.80477">
        <ele>1115</ele>
        <time>2019-04-17T23:03:44Z</time>
      </trkpt>
      <trkpt lat="45.1543" lon="2.80445">
        <ele>1112</ele>
        <time>2019-04-17T23:04:44Z</time>
      </trkpt>
      <trkpt lat="45.15437" lon="2.80391">
        <ele>1108</ele>
        <time>2019-04-17T23:05:44Z</time>
      </trkpt>
      <trkpt lat="45.15445" lon="2.80358">
        <ele>1104</ele>
        <time>2019-04-17T23:06:44Z</time>
      </trkpt>
      <trkpt lat="45.15456" lon="2.80322">
        <ele>1100</ele>
        <time>2019-04-17T23:07:44Z</time>
      </trkpt>
      <trkpt lat="45.15459" lon="2.80302">
        <ele>1098</ele>
        <time>2019-04-17T23:08:44Z</time>
      </trkpt>
      <trkpt lat="45.15461" lon="2.80283">
        <ele>1097</ele>
        <time>2019-04-17T23:09:44Z</time>
      </trkpt>
      <trkpt lat="45.15454" lon="2.80219">
        <ele>1096</ele>
        <time>2019-04-17T23:10:44Z</time>
      </trkpt>
      <trkpt lat="45.15455" lon="2.80198">
        <ele>1096</ele>
        <time>2019-04-17T23:11:44Z</time>
      </trkpt>
      <trkpt lat="45.15464" lon="2.80167">
        <ele>1093</ele>
        <time>2019-04-17T23:12:44Z</time>
      </trkpt>
      <trkpt lat="45.1549" lon="2.80121">
        <ele>1086</ele>
        <time>2019-04-17T23:13:44Z</time>
      </trkpt>
      <trkpt lat="45.15496" lon="2.80105">
        <ele>1085</ele>
        <time>2019-04-17T23:14:44Z</time>
      </trkpt>
      <trkpt lat="45.15499" lon="2.8009">
        <ele>1085</ele>
        <time>2019-04-17T23:15:44Z</time>
      </trkpt>
      <trkpt lat="45.155" lon="2.80075">
        <ele>1084</ele>
        <time>2019-04-17T23:16:44Z</time>
      </trkpt>
      <trkpt lat="45.15499" lon="2.80055">
        <ele>1083</ele>
        <time>2019-04-17T23:17:44Z</time>
      </trkpt>
      <trkpt lat="45.15485" lon="2.79996">
        <ele>1082</ele>
        <time>2019-04-17T23:18:44Z</time>
      </trkpt>
      <trkpt lat="45.15483" lon="2.79968">
        <ele>1081</ele>
        <time>2019-04-17T23:19:44Z</time>
      </trkpt>
      <trkpt lat="45.15485" lon="2.79939">
        <ele>1080</ele>
        <time>2019-04-17T23:20:44Z</time>
      </trkpt>
      <trkpt lat="45.15493" lon="2.79907">
        <ele>1077</ele>
        <time>2019-04-17T23:21:44Z</time>
      </trkpt>
      <trkpt lat="45.15552" lon="2.79771">
        <ele>1063</ele>
        <time>2019-04-17T23:22:44Z</time>
      </trkpt>
      <trkpt lat="45.15565" lon="2.7975">
        <ele>1061</ele>
        <time>2019-04-17T23:23:44Z</time>
      </trkpt>
      <trkpt lat="45.15576" lon="2.79738">
        <ele>1060</ele>
        <time>2019-04-17T23:24:44Z</time>
      </trkpt>
      <trkpt lat="45.15589" lon="2.79728">
        <ele>1060</ele>
        <time>2019-04-17T23:25:44Z</time>
      </trkpt>
      <trkpt lat="45.1562" lon="2.7971">
        <ele>1059</ele>
        <time>2019-04-17T23:26:44Z</time>
      </trkpt>
      <trkpt lat="45.15638" lon="2.79702">
        <ele>1060</ele>
        <time>2019-04-17T23:27:44Z</time>
      </trkpt>
      <trkpt lat="45.15654" lon="2.79691">
        <ele>1060</ele>
        <time>2019-04-17T23:28:44Z</time>
      </trkpt>
      <trkpt lat="45.1567" lon="2.79675">
        <ele>1060</ele>
        <time>2019-04-17T23:29:44Z</time>
      </trkpt>
      <trkpt lat="45.15678" lon="2.79661">
        <ele>1059</ele>
        <time>2019-04-17T23:30:44Z</time>
      </trkpt>
      <trkpt lat="45.15686" lon="2.79648">
        <ele>1058</ele>
        <time>2019-04-17T23:31:44Z</time>
      </trkpt>
      <trkpt lat="45.15691" lon="2.79629">
        <ele>1057</ele>
        <time>2019-04-17T23:32:44Z</time>
      </trkpt>
      <trkpt lat="45.15701" lon="2.79566">
        <ele>1055</ele>
        <time>2019-04-17T23:33:44Z</time>
      </trkpt>
      <trkpt lat="45.15724" lon="2.79464">
        <ele>1052</ele>
        <time>2019-04-17T23:34:44Z</time>
      </trkpt>
      <trkpt lat="45.1573" lon="2.79421">
        <ele>1052</ele>
        <time>2019-04-17T23:35:44Z</time>
      </trkpt>
      <trkpt lat="45.1573" lon="2.794">
        <ele>1052</ele>
        <time>2019-04-17T23:36:44Z</time>
      </trkpt>
      <trkpt lat="45.15728" lon="2.79372">
        <ele>1051</ele>
        <time>2019-04-17T23:37:44Z</time>
      </trkpt>
      <trkpt lat="45.15722" lon="2.79341">
        <ele>1051</ele>
        <time>2019-04-17T23:38:44Z</time>
      </trkpt>
      <trkpt lat="45.15721" lon="2.79318">
        <ele>1050</ele>
        <time>2019-04-17T23:39:44Z</time>
      </trkpt>
      <trkpt lat="45.15725" lon="2.79296">
        <ele>1050</ele>
        <time>2019-04-17T23:40:44Z</time>
      </trkpt>
      <trkpt lat="45.15736" lon="2.79274">
        <ele>1049</ele>
        <time>2019-04-17T23:41:44Z</time>
      </trkpt>
      <trkpt lat="45.15756" lon="2.79245">
        <ele>1049</ele>
        <time>2019-04-17T23:42:44Z</time>
      </trkpt>
      <trkpt lat="45.1579" lon="2.79192">
        <ele>1053</ele>
        <time>2019-04-17T23:43:44Z</time>
      </trkpt>
      <trkpt lat="45.15798" lon="2.79171">
        <ele>1054</ele>
        <time>2019-04-17T23:44:44Z</time>
      </trkpt>
      <trkpt lat="45.15806" lon="2.79133">
        <ele>1055</ele>
        <time>2019-04-17T23:45:44Z</time>
      </trkpt>
      <trkpt lat="45.15805" lon="2.7905">
        <ele>1056</ele>
        <time>2019-04-17T23:46:44Z</time>
      </trkpt>
      <trkpt lat="45.15806" lon="2.79015">
        <ele>1057</ele>
        <time>2019-04-17T23:47:44Z</time>
      </trkpt>
      <trkpt lat="45.15809" lon="2.78992">
        <ele>1057</ele>
        <time>2019-04-17T23:48:44Z</time>
      </trkpt>
      <trkpt lat="45.1583" lon="2.78908">
        <ele>1062</ele>
        <time>2019-04-17T23:49:44Z</time>
      </trkpt>
      <trkpt lat="45.15847" lon="2.78848">
        <ele>1066</ele>
        <time>2019-04-17T23:50:44Z</time>
      </trkpt>
      <trkpt lat="45.15849" lon="2.78819">
        <ele>1066</ele>
        <time>2019-04-17T23:51:44Z</time>
      </trkpt>
      <trkpt lat="45.15846" lon="2.78794">
        <ele>1066</ele>
        <time>2019-04-17T23:52:44Z</time>
      </trkpt>
      <trkpt lat="45.15833" lon="2.78728">
        <ele>1066</ele>
        <time>2019-04-17T23:53:44Z</time>
      </trkpt>
      <trkpt lat="45.15823" lon="2.78701">
        <ele>1067</ele>
        <time>2019-04-17T23:54:44Z</time>
      </trkpt>
      <trkpt lat="45.15812" lon="2.78687">
        <ele>1067</ele>
        <time>2019-04-17T23:55:44Z</time>
      </trkpt>
      <trkpt lat="45.1577" lon="2.78659">
        <ele>1065</ele>
        <time>2019-04-17T23:56:44Z</time>
      </trkpt>
      <trkpt lat="45.15675" lon="2.78509">
        <ele>1057</ele>
        <time>2019-04-17T23:57:44Z</time>
      </trkpt>
      <trkpt lat="45.15534" lon="2.78327">
        <ele>1055</ele>
        <time>2019-04-17T23:58:44Z</time>
      </trkpt>
      <trkpt lat="45.155" lon="2.78272">
        <ele>1053</ele>
        <time>2019-04-17T23:59:44Z</time>
      </trkpt>
      <trkpt lat="45.15464" lon="2.78231">
        <ele>1054</ele>
        <time>2019-04-18T00:00:44Z</time>
      </trkpt>
      <trkpt lat="45.15429" lon="2.78185">
        <ele>1056</ele>
        <time>2019-04-18T00:01:44Z</time>
      </trkpt>
      <trkpt lat="45.15409" lon="2.78153">
        <ele>1055</ele>
        <time>2019-04-18T00:02:44Z</time>
      </trkpt>
      <trkpt lat="45.15393" lon="2.78118">
        <ele>1054</ele>
        <time>2019-04-18T00:03:44Z</time>
      </trkpt>
      <trkpt lat="45.15382" lon="2.78088">
        <ele>1052</ele>
        <time>2019-04-18T00:04:44Z</time>
      </trkpt>
      <trkpt lat="45.15374" lon="2.78057">
        <ele>1052</ele>
        <time>2019-04-18T00:05:44Z</time>
      </trkpt>
      <trkpt lat="45.15368" lon="2.7802">
        <ele>1053</ele>
        <time>2019-04-18T00:06:44Z</time>
      </trkpt>
      <trkpt lat="45.15356" lon="2.77909">
        <ele>1059</ele>
        <time>2019-04-18T00:07:44Z</time>
      </trkpt>
      <trkpt lat="45.15349" lon="2.77876">
        <ele>1061</ele>
        <time>2019-04-18T00:08:44Z</time>
      </trkpt>
      <trkpt lat="45.15329" lon="2.77816">
        <ele>1063</ele>
        <time>2019-04-18T00:09:44Z</time>
      </trkpt>
      <trkpt lat="45.15316" lon="2.77797">
        <ele>1065</ele>
        <time>2019-04-18T00:10:44Z</time>
      </trkpt>
      <trkpt lat="45.15195" lon="2.77699">
        <ele>1057</ele>
        <time>2019-04-18T00:11:44Z</time>
      </trkpt>
      <trkpt lat="45.15131" lon="2.77628">
        <ele>1059</ele>
        <time>2019-04-18T00:12:44Z</time>
      </trkpt>
      <trkpt lat="45.15014" lon="2.7752">
        <ele>1062</ele>
        <time>2019-04-18T00:13:44Z</time>
      </trkpt>
      <trkpt lat="45.14989" lon="2.775">
        <ele>1062</ele>
        <time>2019-04-18T00:14:44Z</time>
      </trkpt>
      <trkpt lat="45.14961" lon="2.77484">
        <ele>1064</ele>
        <time>2019-04-18T00:15:44Z</time>
      </trkpt>
      <trkpt lat="45.14914" lon="2.77466">
        <ele>1065</ele>
        <time>2019-04-18T00:16:44Z</time>
      </trkpt>
      <trkpt lat="45.14897" lon="2.77454">
        <ele>1065</ele>
        <time>2019-04-18T00:17:44Z</time>
      </trkpt>
      <trkpt lat="45.14757" lon="2.77329">
        <ele>1068</ele>
        <time>2019-04-18T00:18:44Z</time>
      </trkpt>
      <trkpt lat="45.14707" lon="2.77292">
        <ele>1070</ele>
        <time>2019-04-18T00:19:44Z</time>
      </trkpt>
      <trkpt lat="45.14579" lon="2.77211">
        <ele>1072</ele>
        <time>2019-04-18T00:20:44Z</time>
      </trkpt>
      <trkpt lat="45.14557" lon="2.7719">
        <ele>1071</ele>
        <time>2019-04-18T00:21:44Z</time>
      </trkpt>
      <trkpt lat="45.14532" lon="2.77155">
        <ele>1071</ele>
        <time>2019-04-18T00:22:44Z</time>
      </trkpt>
      <trkpt lat="45.14503" lon="2.77084">
        <ele>1076</ele>
        <time>2019-04-18T00:23:44Z</time>
      </trkpt>
      <trkpt lat="45.14493" lon="2.77068">
        <ele>1078</ele>
        <time>2019-04-18T00:24:44Z</time>
      </trkpt>
      <trkpt lat="45.14482" lon="2.77052">
        <ele>1079</ele>
        <time>2019-04-18T00:25:44Z</time>
      </trkpt>
      <trkpt lat="45.14398" lon="2.76947">
        <ele>1081</ele>
        <time>2019-04-18T00:26:44Z</time>
      </trkpt>
      <trkpt lat="45.14381" lon="2.76922">
        <ele>1081</ele>
        <time>2019-04-18T00:27:44Z</time>
      </trkpt>
      <trkpt lat="45.14291" lon="2.7672">
        <ele>1088</ele>
        <time>2019-04-18T00:28:44Z</time>
      </trkpt>
      <trkpt lat="45.14244" lon="2.76575">
        <ele>1090</ele>
        <time>2019-04-18T00:29:44Z</time>
      </trkpt>
      <trkpt lat="45.14236" lon="2.76545">
        <ele>1090</ele>
        <time>2019-04-18T00:30:44Z</time>
      </trkpt>
      <trkpt lat="45.14232" lon="2.76518">
        <ele>1092</ele>
        <time>2019-04-18T00:31:44Z</time>
      </trkpt>
      <trkpt lat="45.14232" lon="2.76474">
        <ele>1093</ele>
        <time>2019-04-18T00:32:44Z</time>
      </trkpt>
      <trkpt lat="45.14234" lon="2.76401">
        <ele>1094</ele>
        <time>2019-04-18T00:33:44Z</time>
      </trkpt>
      <trkpt lat="45.14241" lon="2.7635">
        <ele>1095</ele>
        <time>2019-04-18T00:34:44Z</time>
      </trkpt>
      <trkpt lat="45.14273" lon="2.76184">
        <ele>1101</ele>
        <time>2019-04-18T00:35:44Z</time>
      </trkpt>
      <trkpt lat="45.1428" lon="2.76133">
        <ele>1103</ele>
        <time>2019-04-18T00:36:44Z</time>
      </trkpt>
      <trkpt lat="45.14282" lon="2.76081">
        <ele>1103</ele>
        <time>2019-04-18T00:37:44Z</time>
      </trkpt>
      <trkpt lat="45.14283" lon="2.75925">
        <ele>1107</ele>
        <time>2019-04-18T00:38:44Z</time>
      </trkpt>
      <trkpt lat="45.14281" lon="2.759">
        <ele>1107</ele>
        <time>2019-04-18T00:39:44Z</time>
      </trkpt>
      <trkpt lat="45.1427" lon="2.75846">
        <ele>1106</ele>
        <time>2019-04-18T00:40:44Z</time>
      </trkpt>
      <trkpt lat="45.14265" lon="2.75802">
        <ele>1106</ele>
        <time>2019-04-18T00:41:44Z</time>
      </trkpt>
      <trkpt lat="45.14261" lon="2.75742">
        <ele>1108</ele>
        <time>2019-04-18T00:42:44Z</time>
      </trkpt>
      <trkpt lat="45.14257" lon="2.75704">
        <ele>1108</ele>
        <time>2019-04-18T00:43:44Z</time>
      </trkpt>
      <trkpt lat="45.14223" lon="2.75596">
        <ele>1104</ele>
        <time>2019-04-18T00:44:44Z</time>
      </trkpt>
      <trkpt lat="45.14214" lon="2.75558">
        <ele>1104</ele>
        <time>2019-04-18T00:45:44Z</time>
      </trkpt>
      <trkpt lat="45.14206" lon="2.75486">
        <ele>1107</ele>
        <time>2019-04-18T00:46:44Z</time>
      </trkpt>
      <trkpt lat="45.142" lon="2.75446">
        <ele>1109</ele>
        <time>2019-04-18T00:47:44Z</time>
      </trkpt>
      <trkpt lat="45.14133" lon="2.75246">
        <ele>1108</ele>
        <time>2019-04-18T00:48:44Z</time>
      </trkpt>
      <trkpt lat="45.14122" lon="2.75201">
        <ele>1109</ele>
        <time>2019-04-18T00:49:44Z</time>
      </trkpt>
      <trkpt lat="45.14102" lon="2.75082">
        <ele>1111</ele>
        <time>2019-04-18T00:50:44Z</time>
      </trkpt>
      <trkpt lat="45.14095" lon="2.75059">
        <ele>1112</ele>
        <time>2019-04-18T00:51:44Z</time>
      </trkpt>
      <trkpt lat="45.14052" lon="2.74997">
        <ele>1111</ele>
        <time>2019-04-18T00:52:44Z</time>
      </trkpt>
      <trkpt lat="45.14043" lon="2.74975">
        <ele>1112</ele>
        <time>2019-04-18T00:53:44Z</time>
      </trkpt>
      <trkpt lat="45.14032" lon="2.74918">
        <ele>1116</ele>
        <time>2019-04-18T00:54:44Z</time>
      </trkpt>
      <trkpt lat="45.14024" lon="2.74901">
        <ele>1117</ele>
        <time>2019-04-18T00:55:44Z</time>
      </trkpt>
      <trkpt lat="45.1401" lon="2.74884">
        <ele>1117</ele>
        <time>2019-04-18T00:56:44Z</time>
      </trkpt>
      <trkpt lat="45.13999" lon="2.74864">
        <ele>1117</ele>
        <time>2019-04-18T00:57:44Z</time>
      </trkpt>
      <trkpt lat="45.13987" lon="2.74831">
        <ele>1119</ele>
        <time>2019-04-18T00:58:44Z</time>
      </trkpt>
      <trkpt lat="45.13975" lon="2.74811">
        <ele>1119</ele>
        <time>2019-04-18T00:59:44Z</time>
      </trkpt>
      <trkpt lat="45.13956" lon="2.74793">
        <ele>1118</ele>
        <time>2019-04-18T01:00:44Z</time>
      </trkpt>
      <trkpt lat="45.13945" lon="2.7478">
        <ele>1117</ele>
        <time>2019-04-18T01:01:44Z</time>
      </trkpt>
      <trkpt lat="45.13933" lon="2.74755">
        <ele>1117</ele>
        <time>2019-04-18T01:02:44Z</time>
      </trkpt>
      <trkpt lat="45.13922" lon="2.74717">
        <ele>1119</ele>
        <time>2019-04-18T01:03:44Z</time>
      </trkpt>
      <trkpt lat="45.13909" lon="2.74696">
        <ele>1119</ele>
        <time>2019-04-18T01:04:44Z</time>
      </trkpt>
      <trkpt lat="45.13881" lon="2.7466">
        <ele>1117</ele>
        <time>2019-04-18T01:05:44Z</time>
      </trkpt>
      <trkpt lat="45.1387" lon="2.74642">
        <ele>1117</ele>
        <time>2019-04-18T01:06:44Z</time>
      </trkpt>
      <trkpt lat="45.13855" lon="2.74594">
        <ele>1118</ele>
        <time>2019-04-18T01:07:44Z</time>
      </trkpt>
      <trkpt lat="45.13841" lon="2.7457">
        <ele>1118</ele>
        <time>2019-04-18T01:08:44Z</time>
      </trkpt>
      <trkpt lat="45.13829" lon="2.74546">
        <ele>1117</ele>
        <time>2019-04-18T01:09:44Z</time>
      </trkpt>
      <trkpt lat="45.13823" lon="2.74518">
        <ele>1119</ele>
        <time>2019-04-18T01:10:44Z</time>
      </trkpt>
      <trkpt lat="45.13812" lon="2.74427">
        <ele>1125</ele>
        <time>2019-04-18T01:11:44Z</time>
      </trkpt>
      <trkpt lat="45.13797" lon="2.74396">
        <ele>1125</ele>
        <time>2019-04-18T01:12:44Z</time>
      </trkpt>
      <trkpt lat="45.13786" lon="2.74379">
        <ele>1124</ele>
        <time>2019-04-18T01:13:44Z</time>
      </trkpt>
      <trkpt lat="45.13775" lon="2.74351">
        <ele>1125</ele>
        <time>2019-04-18T01:14:44Z</time>
      </trkpt>
      <trkpt lat="45.13769" lon="2.74323">
        <ele>1126</ele>
        <time>2019-04-18T01:15:44Z</time>
      </trkpt>
      <trkpt lat="45.13752" lon="2.74188">
        <ele>1136</ele>
        <time>2019-04-18T01:16:44Z</time>
      </trkpt>
      <trkpt lat="45.13742" lon="2.74102">
        <ele>1142</ele>
        <time>2019-04-18T01:17:44Z</time>
      </trkpt>
      <trkpt lat="45.13728" lon="2.74066">
        <ele>1142</ele>
        <time>2019-04-18T01:18:44Z</time>
      </trkpt>
      <trkpt lat="45.13724" lon="2.74052">
        <ele>1143</ele>
        <time>2019-04-18T01:19:44Z</time>
      </trkpt>
      <trkpt lat="45.13724" lon="2.74035">
        <ele>1145</ele>
        <time>2019-04-18T01:20:44Z</time>
      </trkpt>
      <trkpt lat="45.13729" lon="2.74012">
        <ele>1148</ele>
        <time>2019-04-18T01:21:44Z</time>
      </trkpt>
      <trkpt lat="45.13729" lon="2.73996">
        <ele>1150</ele>
        <time>2019-04-18T01:22:44Z</time>
      </trkpt>
      <trkpt lat="45.13723" lon="2.73976">
        <ele>1151</ele>
        <time>2019-04-18T01:23:44Z</time>
      </trkpt>
      <trkpt lat="45.13695" lon="2.73921">
        <ele>1153</ele>
        <time>2019-04-18T01:24:44Z</time>
      </trkpt>
      <trkpt lat="45.13681" lon="2.7385">
        <ele>1158</ele>
        <time>2019-04-18T01:25:44Z</time>
      </trkpt>
      <trkpt lat="45.13637" lon="2.73734">
        <ele>1160</ele>
        <time>2019-04-18T01:26:44Z</time>
      </trkpt>
      <trkpt lat="45.13624" lon="2.73706">
        <ele>1160</ele>
        <time>2019-04-18T01:27:44Z</time>
      </trkpt>
      <trkpt lat="45.1362" lon="2.73691">
        <ele>1160</ele>
        <time>2019-04-18T01:28:44Z</time>
      </trkpt>
      <trkpt lat="45.13619" lon="2.73658">
        <ele>1163</ele>
        <time>2019-04-18T01:29:44Z</time>
      </trkpt>
      <trkpt lat="45.13613" lon="2.73612">
        <ele>1165</ele>
        <time>2019-04-18T01:30:44Z</time>
      </trkpt>
      <trkpt lat="45.13617" lon="2.73562">
        <ele>1170</ele>
        <time>2019-04-18T01:31:44Z</time>
      </trkpt>
      <trkpt lat="45.13615" lon="2.73531">
        <ele>1171</ele>
        <time>2019-04-18T01:32:44Z</time>
      </trkpt>
      <trkpt lat="45.1361" lon="2.7349">
        <ele>1173</ele>
        <time>2019-04-18T01:33:44Z</time>
      </trkpt>
      <trkpt lat="45.13609" lon="2.73423">
        <ele>1175</ele>
        <time>2019-04-18T01:34:44Z</time>
      </trkpt>
      <trkpt lat="45.13611" lon="2.73377">
        <ele>1178</ele>
        <time>2019-04-18T01:35:44Z</time>
      </trkpt>
      <trkpt lat="45.13622" lon="2.73315">
        <ele>1185</ele>
        <time>2019-04-18T01:36:44Z</time>
      </trkpt>
      <trkpt lat="45.13623" lon="2.73299">
        <ele>1186</ele>
        <time>2019-04-18T01:37:44Z</time>
      </trkpt>
      <trkpt lat="45.13621" lon="2.73282">
        <ele>1186</ele>
        <time>2019-04-18T01:38:44Z</time>
      </trkpt>
      <trkpt lat="45.13621" lon="2.73251">
        <ele>1187</ele>
        <time>2019-04-18T01:39:44Z</time>
      </trkpt>
      <trkpt lat="45.13633" lon="2.73187">
        <ele>1197</ele>
        <time>2019-04-18T01:40:44Z</time>
      </trkpt>
      <trkpt lat="45.13632" lon="2.73177">
        <ele>1197</ele>
        <time>2019-04-18T01:41:44Z</time>
      </trkpt>
      <trkpt lat="45.13625" lon="2.73168">
        <ele>1196</ele>
        <time>2019-04-18T01:42:44Z</time>
      </trkpt>
      <trkpt lat="45.13607" lon="2.73135">
        <ele>1197</ele>
        <time>2019-04-18T01:43:44Z</time>
      </trkpt>
      <trkpt lat="45.13593" lon="2.73095">
        <ele>1201</ele>
        <time>2019-04-18T01:44:44Z</time>
      </trkpt>
      <trkpt lat="45.13579" lon="2.73064">
        <ele>1203</ele>
        <time>2019-04-18T01:45:44Z</time>
      </trkpt>
      <trkpt lat="45.1356" lon="2.73031">
        <ele>1205</ele>
        <time>2019-04-18T01:46:44Z</time>
      </trkpt>
      <trkpt lat="45.13545" lon="2.72996">
        <ele>1208</ele>
        <time>2019-04-18T01:47:44Z</time>
      </trkpt>
      <trkpt lat="45.13514" lon="2.72896">
        <ele>1214</ele>
        <time>2019-04-18T01:48:44Z</time>
      </trkpt>
      <trkpt lat="45.1349" lon="2.728">
        <ele>1218</ele>
        <time>2019-04-18T01:49:44Z</time>
      </trkpt>
      <trkpt lat="45.13472" lon="2.72699">
        <ele>1222</ele>
        <time>2019-04-18T01:50:44Z</time>
      </trkpt>
      <trkpt lat="45.13458" lon="2.72598">
        <ele>1224</ele>
        <time>2019-04-18T01:51:44Z</time>
      </trkpt>
      <trkpt lat="45.13445" lon="2.72434">
        <ele>1228</ele>
        <time>2019-04-18T01:52:44Z</time>
      </trkpt>
      <trkpt lat="45.13444" lon="2.72394">
        <ele>1228</ele>
        <time>2019-04-18T01:53:44Z</time>
      </trkpt>
      <trkpt lat="45.13447" lon="2.72376">
        <ele>1229</ele>
        <time>2019-04-18T01:54:44Z</time>
      </trkpt>
      <trkpt lat="45.13453" lon="2.72361">
        <ele>1231</ele>
        <time>2019-04-18T01:55:44Z</time>
      </trkpt>
      <trkpt lat="45.13463" lon="2.72346">
        <ele>1234</ele>
        <time>2019-04-18T01:56:44Z</time>
      </trkpt>
      <trkpt lat="45.13467" lon="2.72332">
        <ele>1235</ele>
        <time>2019-04-18T01:57:44Z</time>
      </trkpt>
      <trkpt lat="45.13466" lon="2.72322">
        <ele>1236</ele>
        <time>2019-04-18T01:58:44Z</time>
      </trkpt>
      <trkpt lat="45.13445" lon="2.72295">
        <ele>1233</ele>
        <time>2019-04-18T01:59:44Z</time>
      </trkpt>
      <trkpt lat="45.13439" lon="2.7228">
        <ele>1233</ele>
        <time>2019-04-18T02:00:44Z</time>
      </trkpt>
      <trkpt lat="45.13437" lon="2.72222">
        <ele>1240</ele>
        <time>2019-04-18T02:01:44Z</time>
      </trkpt>
      <trkpt lat="45.13431" lon="2.722">
        <ele>1242</ele>
        <time>2019-04-18T02:02:44Z</time>
      </trkpt>
      <trkpt lat="45.13381" lon="2.72102">
        <ele>1241</ele>
        <time>2019-04-18T02:03:44Z</time>
      </trkpt>
      <trkpt lat="45.13371" lon="2.72064">
        <ele>1243</ele>
        <time>2019-04-18T02:04:44Z</time>
      </trkpt>
      <trkpt lat="45.13358" lon="2.71921">
        <ele>1253</ele>
        <time>2019-04-18T02:05:44Z</time>
      </trkpt>
      <trkpt lat="45.13342" lon="2.71807">
        <ele>1261</ele>
        <time>2019-04-18T02:06:44Z</time>
      </trkpt>
      <trkpt lat="45.13303" lon="2.71572">
        <ele>1272</ele>
        <time>2019-04-18T02:07:44Z</time>
      </trkpt>
      <trkpt lat="45.13277" lon="2.71393">
        <ele>1281</ele>
        <time>2019-04-18T02:08:44Z</time>
      </trkpt>
      <trkpt lat="45.1325" lon="2.71279">
        <ele>1283</ele>
        <time>2019-04-18T02:09:44Z</time>
      </trkpt>
      <trkpt lat="45.13243" lon="2.71214">
        <ele>1286</ele>
        <time>2019-04-18T02:10:44Z</time>
      </trkpt>
      <trkpt lat="45.13241" lon="2.7117">
        <ele>1289</ele>
        <time>2019-04-18T02:11:44Z</time>
      </trkpt>
      <trkpt lat="45.13241" lon="2.7111">
        <ele>1290</ele>
        <time>2019-04-18T02:12:44Z</time>
      </trkpt>
      <trkpt lat="45.13243" lon="2.71082">
        <ele>1292</ele>
        <time>2019-04-18T02:13:44Z</time>
      </trkpt>
      <trkpt lat="45.13243" lon="2.71058">
        <ele>1294</ele>
        <time>2019-04-18T02:14:44Z</time>
      </trkpt>
      <trkpt lat="45.1324" lon="2.71021">
        <ele>1296</ele>
        <time>2019-04-18T02:15:44Z</time>
      </trkpt>
      <trkpt lat="45.13226" lon="2.70944">
        <ele>1299</ele>
        <time>2019-04-18T02:16:44Z</time>
      </trkpt>
      <trkpt lat="45.13223" lon="2.709">
        <ele>1303</ele>
        <time>2019-04-18T02:17:44Z</time>
      </trkpt>
      <trkpt lat="45.13218" lon="2.70861">
        <ele>1305</ele>
        <time>2019-04-18T02:18:44Z</time>
      </trkpt>
      <trkpt lat="45.13173" lon="2.70674">
        <ele>1310</ele>
        <time>2019-04-18T02:19:44Z</time>
      </trkpt>
      <trkpt lat="45.13157" lon="2.70626">
        <ele>1311</ele>
        <time>2019-04-18T02:20:44Z</time>
      </trkpt>
      <trkpt lat="45.13153" lon="2.70629">
        <ele>1308</ele>
        <time>2019-04-18T02:21:44Z</time>
      </trkpt>
      <trkpt lat="45.13078" lon="2.70426">
        <ele>1316</ele>
        <time>2019-04-18T02:22:44Z</time>
      </trkpt>
      <trkpt lat="45.13078" lon="2.70426">
        <ele>1316</ele>
        <time>2019-04-18T02:23:44Z</time>
      </trkpt>
      <trkpt lat="45.12921" lon="2.70256">
        <ele>1320</ele>
        <time>2019-04-18T02:24:44Z</time>
      </trkpt>
      <trkpt lat="45.12921" lon="2.70256">
        <ele>1320</ele>
        <time>2019-04-18T02:25:44Z</time>
      </trkpt>
      <trkpt lat="45.128" lon="2.70178">
        <ele>1323</ele>
        <time>2019-04-18T02:26:44Z</time>
      </trkpt>
      <trkpt lat="45.12802" lon="2.70168">
        <ele>1327</ele>
        <time>2019-04-18T02:27:44Z</time>
      </trkpt>
      <trkpt lat="45.12784" lon="2.70163">
        <ele>1326</ele>
        <time>2019-04-18T02:28:44Z</time>
      </trkpt>
      <trkpt lat="45.12772" lon="2.70153">
        <ele>1326</ele>
        <time>2019-04-18T02:29:44Z</time>
      </trkpt>
      <trkpt lat="45.12752" lon="2.70132">
        <ele>1329</ele>
        <time>2019-04-18T02:30:44Z</time>
      </trkpt>
      <trkpt lat="45.12722" lon="2.7009">
        <ele>1332</ele>
        <time>2019-04-18T02:31:44Z</time>
      </trkpt>
      <trkpt lat="45.12689" lon="2.7004">
        <ele>1334</ele>
        <time>2019-04-18T02:32:44Z</time>
      </trkpt>
      <trkpt lat="45.12656" lon="2.69977">
        <ele>1338</ele>
        <time>2019-04-18T02:33:44Z</time>
      </trkpt>
      <trkpt lat="45.12586" lon="2.69863">
        <ele>1338</ele>
        <time>2019-04-18T02:34:44Z</time>
      </trkpt>
      <trkpt lat="45.12567" lon="2.69838">
        <ele>1339</ele>
        <time>2019-04-18T02:35:44Z</time>
      </trkpt>
      <trkpt lat="45.12532" lon="2.69807">
        <ele>1339</ele>
        <time>2019-04-18T02:36:44Z</time>
      </trkpt>
      <trkpt lat="45.12482" lon="2.6977">
        <ele>1345</ele>
        <time>2019-04-18T02:37:44Z</time>
      </trkpt>
      <trkpt lat="45.12332" lon="2.69721">
        <ele>1350</ele>
        <time>2019-04-18T02:38:44Z</time>
      </trkpt>
      <trkpt lat="45.12247" lon="2.69672">
        <ele>1353</ele>
        <time>2019-04-18T02:39:44Z</time>
      </trkpt>
      <trkpt lat="45.12179" lon="2.69635">
        <ele>1354</ele>
        <time>2019-04-18T02:40:44Z</time>
      </trkpt>
      <trkpt lat="45.12142" lon="2.69608">
        <ele>1356</ele>
        <time>2019-04-18T02:41:44Z</time>
      </trkpt>
      <trkpt lat="45.12121" lon="2.6959">
        <ele>1357</ele>
        <time>2019-04-18T02:42:44Z</time>
      </trkpt>
      <trkpt lat="45.12088" lon="2.69549">
        <ele>1362</ele>
        <time>2019-04-18T02:43:44Z</time>
      </trkpt>
      <trkpt lat="45.12063" lon="2.69527">
        <ele>1363</ele>
        <time>2019-04-18T02:44:44Z</time>
      </trkpt>
      <trkpt lat="45.12036" lon="2.69513">
        <ele>1362</ele>
        <time>2019-04-18T02:45:44Z</time>
      </trkpt>
      <trkpt lat="45.12011" lon="2.69493">
        <ele>1363</ele>
        <time>2019-04-18T02:46:44Z</time>
      </trkpt>
      <trkpt lat="45.11966" lon="2.69451">
        <ele>1363</ele>
        <time>2019-04-18T02:47:44Z</time>
      </trkpt>
      <trkpt lat="45.1188" lon="2.6939">
        <ele>1361</ele>
        <time>2019-04-18T02:48:44Z</time>
      </trkpt>
      <trkpt lat="45.11768" lon="2.69284">
        <ele>1367</ele>
        <time>2019-04-18T02:49:44Z</time>
      </trkpt>
      <trkpt lat="45.11739" lon="2.69264">
        <ele>1370</ele>
        <time>2019-04-18T02:50:44Z</time>
      </trkpt>
      <trkpt lat="45.11683" lon="2.69232">
        <ele>1371</ele>
        <time>2019-04-18T02:51:44Z</time>
      </trkpt>
      <trkpt lat="45.11651" lon="2.69208">
        <ele>1371</ele>
        <time>2019-04-18T02:52:44Z</time>
      </trkpt>
      <trkpt lat="45.11639" lon="2.69196">
        <ele>1371</ele>
        <time>2019-04-18T02:53:44Z</time>
      </trkpt>
      <trkpt lat="45.116" lon="2.69145">
        <ele>1373</ele>
        <time>2019-04-18T02:54:44Z</time>
      </trkpt>
      <trkpt lat="45.11583" lon="2.69117">
        <ele>1376</ele>
        <time>2019-04-18T02:55:44Z</time>
      </trkpt>
      <trkpt lat="45.11538" lon="2.69072">
        <ele>1378</ele>
        <time>2019-04-18T02:56:44Z</time>
      </trkpt>
      <trkpt lat="45.11428" lon="2.68994">
        <ele>1385</ele>
        <time>2019-04-18T02:57:44Z</time>
      </trkpt>
      <trkpt lat="45.114" lon="2.68961">
        <ele>1388</ele>
        <time>2019-04-18T02:58:44Z</time>
      </trkpt>
      <trkpt lat="45.11391" lon="2.68938">
        <ele>1390</ele>
        <time>2019-04-18T02:59:44Z</time>
      </trkpt>
      <trkpt lat="45.11386" lon="2.68911">
        <ele>1392</ele>
        <time>2019-04-18T03:00:44Z</time>
      </trkpt>
      <trkpt lat="45.11381" lon="2.68805">
        <ele>1396</ele>
        <time>2019-04-18T03:01:44Z</time>
      </trkpt>
      <trkpt lat="45.1138" lon="2.68741">
        <ele>1397</ele>
        <time>2019-04-18T03:02:44Z</time>
      </trkpt>
      <trkpt lat="45.11375" lon="2.68712">
        <ele>1398</ele>
        <time>2019-04-18T03:03:44Z</time>
      </trkpt>
      <trkpt lat="45.11364" lon="2.68684">
        <ele>1401</ele>
        <time>2019-04-18T03:04:44Z</time>
      </trkpt>
      <trkpt lat="45.1134" lon="2.68653">
        <ele>1407</ele>
        <time>2019-04-18T03:05:44Z</time>
      </trkpt>
      <trkpt lat="45.11307" lon="2.68641">
        <ele>1411</ele>
        <time>2019-04-18T03:06:44Z</time>
      </trkpt>
      <trkpt lat="45.1126" lon="2.68637">
        <ele>1417</ele>
        <time>2019-04-18T03:07:44Z</time>
      </trkpt>
      <trkpt lat="45.11234" lon="2.6863">
        <ele>1419</ele>
        <time>2019-04-18T03:08:44Z</time>
      </trkpt>
      <trkpt lat="45.1117" lon="2.68593">
        <ele>1426</ele>
        <time>2019-04-18T03:09:44Z</time>
      </trkpt>
      <trkpt lat="45.11121" lon="2.6856">
        <ele>1427</ele>
        <time>2019-04-18T03:10:44Z</time>
      </trkpt>
      <trkpt lat="45.11095" lon="2.68537">
        <ele>1431</ele>
        <time>2019-04-18T03:11:44Z</time>
      </trkpt>
      <trkpt lat="45.11085" lon="2.68517">
        <ele>1436</ele>
        <time>2019-04-18T03:12:44Z</time>
      </trkpt>
      <trkpt lat="45.11084" lon="2.68504">
        <ele>1439</ele>
        <time>2019-04-18T03:13:44Z</time>
      </trkpt>
      <trkpt lat="45.11084" lon="2.68488">
        <ele>1445</ele>
        <time>2019-04-18T03:14:44Z</time>
      </trkpt>
      <trkpt lat="45.11082" lon="2.68478">
        <ele>1450</ele>
        <time>2019-04-18T03:15:44Z</time>
      </trkpt>
      <trkpt lat="45.11076" lon="2.68464">
        <ele>1455</ele>
        <time>2019-04-18T03:16:44Z</time>
      </trkpt>
      <trkpt lat="45.11037" lon="2.68429">
        <ele>1461</ele>
        <time>2019-04-18T03:17:44Z</time>
      </trkpt>
      <trkpt lat="45.10959" lon="2.68344">
        <ele>1476</ele>
        <time>2019-04-18T03:18:44Z</time>
      </trkpt>
      <trkpt lat="45.10912" lon="2.68312">
        <ele>1479</ele>
        <time>2019-04-18T03:19:44Z</time>
      </trkpt>
      <trkpt lat="45.10906" lon="2.68304">
        <ele>1482</ele>
        <time>2019-04-18T03:20:44Z</time>
      </trkpt>
      <trkpt lat="45.10907" lon="2.68295">
        <ele>1487</ele>
        <time>2019-04-18T03:21:44Z</time>
      </trkpt>
      <trkpt lat="45.10911" lon="2.68292">
        <ele>1489</ele>
        <time>2019-04-18T03:22:44Z</time>
      </trkpt>
      <trkpt lat="45.10916" lon="2.68293">
        <ele>1489</ele>
        <time>2019-04-18T03:23:44Z</time>
      </trkpt>
      <trkpt lat="45.10935" lon="2.68305">
        <ele>1488</ele>
        <time>2019-04-18T03:24:44Z</time>
      </trkpt>
      <trkpt lat="45.10999" lon="2.68335">
        <ele>1491</ele>
        <time>2019-04-18T03:25:44Z</time>
      </trkpt>
      <trkpt lat="45.11009" lon="2.68342">
        <ele>1490</ele>
        <time>2019-04-18T03:26:44Z</time>
      </trkpt>
      <trkpt lat="45.1103" lon="2.68363">
        <ele>1485</ele>
        <time>2019-04-18T03:27:44Z</time>
      </trkpt>
      <trkpt lat="45.11043" lon="2.68371">
        <ele>1485</ele>
        <time>2019-04-18T03:28:44Z</time>
      </trkpt>
      <trkpt lat="45.11082" lon="2.68386">
        <ele>1487</ele>
        <time>2019-04-18T03:29:44Z</time>
      </trkpt>
      <trkpt lat="45.11101" lon="2.68381">
        <ele>1483</ele>
        <time>2019-04-18T03:30:44Z</time>
      </trkpt>
      <trkpt lat="45.11113" lon="2.68374">
        <ele>1482</ele>
        <time>2019-04-18T03:31:44Z</time>
      </trkpt>
      <trkpt lat="45.11128" lon="2.68362">
        <ele>1481</ele>
        <time>2019-04-18T03:32:44Z</time>
      </trkpt>
      <trkpt lat="45.11134" lon="2.68349">
        <ele>1484</ele>
        <time>2019-04-18T03:33:44Z</time>
      </trkpt>
      <trkpt lat="45.11148" lon="2.68304">
        <ele>1491</ele>
        <time>2019-04-18T03:34:44Z</time>
      </trkpt>
      <trkpt lat="45.11152" lon="2.68272">
        <ele>1497</ele>
        <time>2019-04-18T03:35:44Z</time>
      </trkpt>
      <trkpt lat="45.1115" lon="2.68252">
        <ele>1502</ele>
        <time>2019-04-18T03:36:44Z</time>
      </trkpt>
      <trkpt lat="45.11144" lon="2.68233">
        <ele>1509</ele>
        <time>2019-04-18T03:37:44Z</time>
      </trkpt>
      <trkpt lat="45.11144" lon="2.68226">
        <ele>1511</ele>
        <time>2019-04-18T03:38:44Z</time>
      </trkpt>
      <trkpt lat="45.11147" lon="2.68217">
        <ele>1512</ele>
        <time>2019-04-18T03:39:44Z</time>
      </trkpt>
      <trkpt lat="45.11155" lon="2.68206">
        <ele>1512</ele>
        <time>2019-04-18T03:40:44Z</time>
      </trkpt>
      <trkpt lat="45.11186" lon="2.6819">
        <ele>1501</ele>
        <time>2019-04-18T03:41:44Z</time>
      </trkpt>
      <trkpt lat="45.11191" lon="2.68185">
        <ele>1499</ele>
        <time>2019-04-18T03:42:44Z</time>
      </trkpt>
      <trkpt lat="45.11193" lon="2.68173">
        <ele>1501</ele>
        <time>2019-04-18T03:43:44Z</time>
      </trkpt>
      <trkpt lat="45.11195" lon="2.68146">
        <ele>1505</ele>
        <time>2019-04-18T03:44:44Z</time>
      </trkpt>
      <trkpt lat="45.11194" lon="2.6813">
        <ele>1508</ele>
        <time>2019-04-18T03:45:44Z</time>
      </trkpt>
      <trkpt lat="45.11189" lon="2.681">
        <ele>1515</ele>
        <time>2019-04-18T03:46:44Z</time>
      </trkpt>
      <trkpt lat="45.11191" lon="2.6809">
        <ele>1516</ele>
        <time>2019-04-18T03:47:44Z</time>
      </trkpt>
      <trkpt lat="45.11213" lon="2.68042">
        <ele>1506</ele>
        <time>2019-04-18T03:48:44Z</time>
      </trkpt>
      <trkpt lat="45.11216" lon="2.68032">
        <ele>1504</ele>
        <time>2019-04-18T03:49:44Z</time>
      </trkpt>
      <trkpt lat="45.11218" lon="2.68021">
        <ele>1504</ele>
        <time>2019-04-18T03:50:44Z</time>
      </trkpt>
      <trkpt lat="45.11212" lon="2.67968">
        <ele>1512</ele>
        <time>2019-04-18T03:51:44Z</time>
      </trkpt>
      <trkpt lat="45.11209" lon="2.67951">
        <ele>1515</ele>
        <time>2019-04-18T03:52:44Z</time>
      </trkpt>
      <trkpt lat="45.11194" lon="2.67929">
        <ele>1525</ele>
        <time>2019-04-18T03:53:44Z</time>
      </trkpt>
      <trkpt lat="45.11182" lon="2.67904">
        <ele>1533</ele>
        <time>2019-04-18T03:54:44Z</time>
      </trkpt>
      <trkpt lat="45.11178" lon="2.67881">
        <ele>1536</ele>
        <time>2019-04-18T03:55:44Z</time>
      </trkpt>
      <trkpt lat="45.11176" lon="2.6785">
        <ele>1538</ele>
        <time>2019-04-18T03:56:44Z</time>
      </trkpt>
      <trkpt lat="45.11179" lon="2.67793">
        <ele>1542</ele>
        <time>2019-04-18T03:57:44Z</time>
      </trkpt>
      <trkpt lat="45.11184" lon="2.6771">
        <ele>1550</ele>
        <time>2019-04-18T03:58:44Z</time>
      </trkpt>
      <trkpt lat="45.11189" lon="2.67678">
        <ele>1553</ele>
        <time>2019-04-18T03:59:44Z</time>
      </trkpt>
      <trkpt lat="45.11196" lon="2.67657">
        <ele>1555</ele>
        <time>2019-04-18T04:00:44Z</time>
      </trkpt>
      <trkpt lat="45.1122" lon="2.67598">
        <ele>1559</ele>
        <time>2019-04-18T04:01:44Z</time>
      </trkpt>
      <trkpt lat="45.11237" lon="2.67564">
        <ele>1558</ele>
        <time>2019-04-18T04:02:44Z</time>
      </trkpt>
      <trkpt lat="45.11245" lon="2.67545">
        <ele>1558</ele>
        <time>2019-04-18T04:03:44Z</time>
      </trkpt>
      <trkpt lat="45.11259" lon="2.67484">
        <ele>1566</ele>
        <time>2019-04-18T04:04:44Z</time>
      </trkpt>
      <trkpt lat="45.11281" lon="2.67416">
        <ele>1574</ele>
        <time>2019-04-18T04:05:44Z</time>
      </trkpt>
      <trkpt lat="45.1131" lon="2.67354">
        <ele>1576</ele>
        <time>2019-04-18T04:06:44Z</time>
      </trkpt>
      <trkpt lat="45.11338" lon="2.67275">
        <ele>1582</ele>
        <time>2019-04-18T04:07:44Z</time>
      </trkpt>
      <trkpt lat="45.11354" lon="2.67251">
        <ele>1583</ele>
        <time>2019-04-18T04:08:44Z</time>
      </trkpt>
      <trkpt lat="45.11405" lon="2.67194">
        <ele>1576</ele>
        <time>2019-04-18T04:09:44Z</time>
      </trkpt>
      <trkpt lat="45.1141" lon="2.67181">
        <ele>1577</ele>
        <time>2019-04-18T04:10:44Z</time>
      </trkpt>
      <trkpt lat="45.11405" lon="2.67181">
        <ele>1577</ele>
        <time>2019-04-18T04:11:44Z</time>
      </trkpt>
      <trkpt lat="45.11379" lon="2.67197">
        <ele>1577</ele>
        <time>2019-04-18T04:12:44Z</time>
      </trkpt>
      <trkpt lat="45.11405" lon="2.67181">
        <ele>1577</ele>
        <time>2019-04-18T04:13:44Z</time>
      </trkpt>
      <trkpt lat="45.1141" lon="2.67181">
        <ele>1577</ele>
        <time>2019-04-18T04:14:44Z</time>
      </trkpt>
      <trkpt lat="45.11405" lon="2.67194">
        <ele>1576</ele>
        <time>2019-04-18T04:15:44Z</time>
      </trkpt>
      <trkpt lat="45.11354" lon="2.67251">
        <ele>1583</ele>
        <time>2019-04-18T04:16:44Z</time>
      </trkpt>
      <trkpt lat="45.11338" lon="2.67275">
        <ele>1582</ele>
        <time>2019-04-18T04:17:44Z</time>
      </trkpt>
      <trkpt lat="45.1131" lon="2.67354">
        <ele>1576</ele>
        <time>2019-04-18T04:18:44Z</time>
      </trkpt>
      <trkpt lat="45.11281" lon="2.67416">
        <ele>1574</ele>
        <time>2019-04-18T04:19:44Z</time>
      </trkpt>
      <trkpt lat="45.11259" lon="2.67484">
        <ele>1566</ele>
        <time>2019-04-18T04:20:44Z</time>
      </trkpt>
      <trkpt lat="45.11245" lon="2.67545">
        <ele>1558</ele>
        <time>2019-04-18T04:21:44Z</time>
      </trkpt>
      <trkpt lat="45.11237" lon="2.67564">
        <ele>1558</ele>
        <time>2019-04-18T04:22:44Z</time>
      </trkpt>
      <trkpt lat="45.1122" lon="2.67598">
        <ele>1559</ele>
        <time>2019-04-18T04:23:44Z</time>
      </trkpt>
      <trkpt lat="45.11196" lon="2.67657">
        <ele>1555</ele>
        <time>2019-04-18T04:24:44Z</time>
      </trkpt>
      <trkpt lat="45.11189" lon="2.67678">
        <ele>1553</ele>
        <time>2019-04-18T04:25:44Z</time>
      </trkpt>
      <trkpt lat="45.11184" lon="2.6771">
        <ele>1550</ele>
        <time>2019-04-18T04:26:44Z</time>
      </trkpt>
      <trkpt lat="45.11179" lon="2.67793">
        <ele>1542</ele>
        <time>2019-04-18T04:27:44Z</time>
      </trkpt>
      <trkpt lat="45.11176" lon="2.6785">
        <ele>1538</ele>
        <time>2019-04-18T04:28:44Z</time>
      </trkpt>
      <trkpt lat="45.11178" lon="2.67881">
        <ele>1536</ele>
        <time>2019-04-18T04:29:44Z</time>
      </trkpt>
      <trkpt lat="45.11182" lon="2.67904">
        <ele>1533</ele>
        <time>2019-04-18T04:30:44Z</time>
      </trkpt>
      <trkpt lat="45.11194" lon="2.67929">
        <ele>1525</ele>
        <time>2019-04-18T04:31:44Z</time>
      </trkpt>
      <trkpt lat="45.11209" lon="2.67951">
        <ele>1515</ele>
        <time>2019-04-18T04:32:44Z</time>
      </trkpt>
      <trkpt lat="45.11212" lon="2.67968">
        <ele>1512</ele>
        <time>2019-04-18T04:33:44Z</time>
      </trkpt>
      <trkpt lat="45.11218" lon="2.68021">
        <ele>1504</ele>
        <time>2019-04-18T04:34:44Z</time>
      </trkpt>
      <trkpt lat="45.11216" lon="2.68032">
        <ele>1504</ele>
        <time>2019-04-18T04:35:44Z</time>
      </trkpt>
      <trkpt lat="45.11213" lon="2.68042">
        <ele>1506</ele>
        <time>2019-04-18T04:36:44Z</time>
      </trkpt>
      <trkpt lat="45.11191" lon="2.6809">
        <ele>1516</ele>
        <time>2019-04-18T04:37:44Z</time>
      </trkpt>
      <trkpt lat="45.11189" lon="2.681">
        <ele>1515</ele>
        <time>2019-04-18T04:38:44Z</time>
      </trkpt>
      <trkpt lat="45.11194" lon="2.6813">
        <ele>1508</ele>
        <time>2019-04-18T04:39:44Z</time>
      </trkpt>
      <trkpt lat="45.11195" lon="2.68146">
        <ele>1505</ele>
        <time>2019-04-18T04:40:44Z</time>
      </trkpt>
      <trkpt lat="45.11193" lon="2.68173">
        <ele>1501</ele>
        <time>2019-04-18T04:41:44Z</time>
      </trkpt>
      <trkpt lat="45.11191" lon="2.68185">
        <ele>1499</ele>
        <time>2019-04-18T04:42:44Z</time>
      </trkpt>
      <trkpt lat="45.11186" lon="2.6819">
        <ele>1501</ele>
        <time>2019-04-18T04:43:44Z</time>
      </trkpt>
      <trkpt lat="45.11155" lon="2.68206">
        <ele>1512</ele>
        <time>2019-04-18T04:44:44Z</time>
      </trkpt>
      <trkpt lat="45.11147" lon="2.68217">
        <ele>1512</ele>
        <time>2019-04-18T04:45:44Z</time>
      </trkpt>
      <trkpt lat="45.11144" lon="2.68226">
        <ele>1511</ele>
        <time>2019-04-18T04:46:44Z</time>
      </trkpt>
      <trkpt lat="45.11144" lon="2.68233">
        <ele>1509</ele>
        <time>2019-04-18T04:47:44Z</time>
      </trkpt>
      <trkpt lat="45.1115" lon="2.68252">
        <ele>1502</ele>
        <time>2019-04-18T04:48:44Z</time>
      </trkpt>
      <trkpt lat="45.11152" lon="2.68272">
        <ele>1497</ele>
        <time>2019-04-18T04:49:44Z</time>
      </trkpt>
      <trkpt lat="45.11148" lon="2.68304">
        <ele>1491</ele>
        <time>2019-04-18T04:50:44Z</time>
      </trkpt>
      <trkpt lat="45.11134" lon="2.68349">
        <ele>1484</ele>
        <time>2019-04-18T04:51:44Z</time>
      </trkpt>
      <trkpt lat="45.11128" lon="2.68362">
        <ele>1481</ele>
        <time>2019-04-18T04:52:44Z</time>
      </trkpt>
      <trkpt lat="45.11113" lon="2.68374">
        <ele>1482</ele>
        <time>2019-04-18T04:53:44Z</time>
      </trkpt>
      <trkpt lat="45.11101" lon="2.68381">
        <ele>1483</ele>
        <time>2019-04-18T04:54:44Z</time>
      </trkpt>
      <trkpt lat="45.11082" lon="2.68386">
        <ele>1487</ele>
        <time>2019-04-18T04:55:44Z</time>
      </trkpt>
      <trkpt lat="45.11043" lon="2.68371">
        <ele>1485</ele>
        <time>2019-04-18T04:56:44Z</time>
      </trkpt>
      <trkpt lat="45.1103" lon="2.68363">
        <ele>1485</ele>
        <time>2019-04-18T04:57:44Z</time>
      </trkpt>
      <trkpt lat="45.11009" lon="2.68342">
        <ele>1490</ele>
        <time>2019-04-18T04:58:44Z</time>
      </trkpt>
      <trkpt lat="45.10999" lon="2.68335">
        <ele>1491</ele>
        <time>2019-04-18T04:59:44Z</time>
      </trkpt>
      <trkpt lat="45.10935" lon="2.68305">
        <ele>1488</ele>
        <time>2019-04-18T05:00:44Z</time>
      </trkpt>
      <trkpt lat="45.10916" lon="2.68293">
        <ele>1489</ele>
        <time>2019-04-18T05:01:44Z</time>
      </trkpt>
      <trkpt lat="45.10911" lon="2.68292">
        <ele>1489</ele>
        <time>2019-04-18T05:02:44Z</time>
      </trkpt>
      <trkpt lat="45.10907" lon="2.68295">
        <ele>1487</ele>
        <time>2019-04-18T05:03:44Z</time>
      </trkpt>
      <trkpt lat="45.10906" lon="2.68304">
        <ele>1482</ele>
        <time>2019-04-18T05:04:44Z</time>
      </trkpt>
      <trkpt lat="45.10912" lon="2.68312">
        <ele>1479</ele>
        <time>2019-04-18T05:05:44Z</time>
      </trkpt>
      <trkpt lat="45.10959" lon="2.68344">
        <ele>1476</ele>
        <time>2019-04-18T05:06:44Z</time>
      </trkpt>
      <trkpt lat="45.11037" lon="2.68429">
        <ele>1461</ele>
        <time>2019-04-18T05:07:44Z</time>
      </trkpt>
      <trkpt lat="45.11076" lon="2.68464">
        <ele>1455</ele>
        <time>2019-04-18T05:08:44Z</time>
      </trkpt>
      <trkpt lat="45.11082" lon="2.68478">
        <ele>1450</ele>
        <time>2019-04-18T05:09:44Z</time>
      </trkpt>
      <trkpt lat="45.11084" lon="2.68488">
        <ele>1445</ele>
        <time>2019-04-18T05:10:44Z</time>
      </trkpt>
      <trkpt lat="45.11084" lon="2.68504">
        <ele>1439</ele>
        <time>2019-04-18T05:11:44Z</time>
      </trkpt>
      <trkpt lat="45.11085" lon="2.68517">
        <ele>1436</ele>
        <time>2019-04-18T05:12:44Z</time>
      </trkpt>
      <trkpt lat="45.11095" lon="2.68537">
        <ele>1431</ele>
        <time>2019-04-18T05:13:44Z</time>
      </trkpt>
      <trkpt lat="45.11121" lon="2.6856">
        <ele>1427</ele>
        <time>2019-04-18T05:14:44Z</time>
      </trkpt>
      <trkpt lat="45.1117" lon="2.68593">
        <ele>1426</ele>
        <time>2019-04-18T05:15:44Z</time>
      </trkpt>
      <trkpt lat="45.11234" lon="2.6863">
        <ele>1419</ele>
        <time>2019-04-18T05:16:44Z</time>
      </trkpt>
      <trkpt lat="45.1126" lon="2.68637">
        <ele>1417</ele>
        <time>2019-04-18T05:17:44Z</time>
      </trkpt>
      <trkpt lat="45.11307" lon="2.68641">
        <ele>1411</ele>
        <time>2019-04-18T05:18:44Z</time>
      </trkpt>
      <trkpt lat="45.1134" lon="2.68653">
        <ele>1407</ele>
        <time>2019-04-18T05:19:44Z</time>
      </trkpt>
      <trkpt lat="45.11364" lon="2.68684">
        <ele>1401</ele>
        <time>2019-04-18T05:20:44Z</time>
      </trkpt>
      <trkpt lat="45.11375" lon="2.68712">
        <ele>1398</ele>
        <time>2019-04-18T05:21:44Z</time>
      </trkpt>
      <trkpt lat="45.1138" lon="2.68741">
        <ele>1397</ele>
        <time>2019-04-18T05:22:44Z</time>
      </trkpt>
      <trkpt lat="45.11381" lon="2.68805">
        <ele>1396</ele>
        <time>2019-04-18T05:23:44Z</time>
      </trkpt>
      <trkpt lat="45.11386" lon="2.68911">
        <ele>1392</ele>
        <time>2019-04-18T05:24:44Z</time>
      </trkpt>
      <trkpt lat="45.11391" lon="2.68938">
        <ele>1390</ele>
        <time>2019-04-18T05:25:44Z</time>
      </trkpt>
      <trkpt lat="45.114" lon="2.68961">
        <ele>1388</ele>
        <time>2019-04-18T05:26:44Z</time>
      </trkpt>
      <trkpt lat="45.11428" lon="2.68994">
        <ele>1385</ele>
        <time>2019-04-18T05:27:44Z</time>
      </trkpt>
      <trkpt lat="45.11538" lon="2.69072">
        <ele>1378</ele>
        <time>2019-04-18T05:28:44Z</time>
      </trkpt>
      <trkpt lat="45.11583" lon="2.69117">
        <ele>1376</ele>
        <time>2019-04-18T05:29:44Z</time>
      </trkpt>
      <trkpt lat="45.116" lon="2.69145">
        <ele>1373</ele>
        <time>2019-04-18T05:30:44Z</time>
      </trkpt>
      <trkpt lat="45.11639" lon="2.69196">
        <ele>1371</ele>
        <time>2019-04-18T05:31:44Z</time>
      </trkpt>
      <trkpt lat="45.11651" lon="2.69208">
        <ele>1371</ele>
        <time>2019-04-18T05:32:44Z</time>
      </trkpt>
      <trkpt lat="45.11683" lon="2.69232">
        <ele>1371</ele>
        <time>2019-04-18T05:33:44Z</time>
      </trkpt>
      <trkpt lat="45.11739" lon="2.69264">
        <ele>1370</ele>
        <time>2019-04-18T05:34:44Z</time>
      </trkpt>
      <trkpt lat="45.11768" lon="2.69284">
        <ele>1367</ele>
        <time>2019-04-18T05:35:44Z</time>
      </trkpt>
      <trkpt lat="45.1188" lon="2.6939">
        <ele>1361</ele>
        <time>2019-04-18T05:36:44Z</time>
      </trkpt>
      <trkpt lat="45.11966" lon="2.69451">
        <ele>1363</ele>
        <time>2019-04-18T05:37:44Z</time>
      </trkpt>
      <trkpt lat="45.12011" lon="2.69493">
        <ele>1363</ele>
        <time>2019-04-18T05:38:44Z</time>
      </trkpt>
      <trkpt lat="45.12036" lon="2.69513">
        <ele>1362</ele>
        <time>2019-04-18T05:39:44Z</time>
      </trkpt>
      <trkpt lat="45.12063" lon="2.69527">
        <ele>1363</ele>
        <time>2019-04-18T05:40:44Z</time>
      </trkpt>
      <trkpt lat="45.12088" lon="2.69549">
        <ele>1362</ele>
        <time>2019-04-18T05:41:44Z</time>
      </trkpt>
      <trkpt lat="45.12121" lon="2.6959">
        <ele>1357</ele>
        <time>2019-04-18T05:42:44Z</time>
      </trkpt>
      <trkpt lat="45.12142" lon="2.69608">
        <ele>1356</ele>
        <time>2019-04-18T05:43:44Z</time>
      </trkpt>
      <trkpt lat="45.12179" lon="2.69635">
        <ele>1354</ele>
        <time>2019-04-18T05:44:44Z</time>
      </trkpt>
      <trkpt lat="45.12247" lon="2.69672">
        <ele>1353</ele>
        <time>2019-04-18T05:45:44Z</time>
      </trkpt>
      <trkpt lat="45.12332" lon="2.69721">
        <ele>1350</ele>
        <time>2019-04-18T05:46:44Z</time>
      </trkpt>
      <trkpt lat="45.12482" lon="2.6977">
        <ele>1345</ele>
        <time>2019-04-18T05:47:44Z</time>
      </trkpt>
      <trkpt lat="45.12532" lon="2.69807">
        <ele>1339</ele>
        <time>2019-04-18T05:48:44Z</time>
      </trkpt>
      <trkpt lat="45.12567" lon="2.69838">
        <ele>1339</ele>
        <time>2019-04-18T05:49:44Z</time>
      </trkpt>
      <trkpt lat="45.12586" lon="2.69863">
        <ele>1338</ele>
        <time>2019-04-18T05:50:44Z</time>
      </trkpt>
      <trkpt lat="45.12656" lon="2.69977">
        <ele>1338</ele>
        <time>2019-04-18T05:51:44Z</time>
      </trkpt>
      <trkpt lat="45.12689" lon="2.7004">
        <ele>1334</ele>
        <time>2019-04-18T05:52:44Z</time>
      </trkpt>
      <trkpt lat="45.12722" lon="2.7009">
        <ele>1332</ele>
        <time>2019-04-18T05:53:44Z</time>
      </trkpt>
      <trkpt lat="45.12752" lon="2.70132">
        <ele>1329</ele>
        <time>2019-04-18T05:54:44Z</time>
      </trkpt>
      <trkpt lat="45.12772" lon="2.70153">
        <ele>1326</ele>
        <time>2019-04-18T05:55:44Z</time>
      </trkpt>
      <trkpt lat="45.12784" lon="2.70163">
        <ele>1326</ele>
        <time>2019-04-18T05:56:44Z</time>
      </trkpt>
      <trkpt lat="45.12818" lon="2.70175">
        <ele>1327</ele>
        <time>2019-04-18T05:57:44Z</time>
      </trkpt>
      <trkpt lat="45.12868" lon="2.70184">
        <ele>1332</ele>
        <time>2019-04-18T05:58:44Z</time>
      </trkpt>
      <trkpt lat="45.1293" lon="2.70224">
        <ele>1329</ele>
        <time>2019-04-18T05:59:44Z</time>
      </trkpt>
      <trkpt lat="45.12954" lon="2.70234">
        <ele>1328</ele>
        <time>2019-04-18T06:00:44Z</time>
      </trkpt>
      <trkpt lat="45.12999" lon="2.70248">
        <ele>1329</ele>
        <time>2019-04-18T06:01:44Z</time>
      </trkpt>
      <trkpt lat="45.13015" lon="2.7026">
        <ele>1327</ele>
        <time>2019-04-18T06:02:44Z</time>
      </trkpt>
      <trkpt lat="45.13044" lon="2.70274">
        <ele>1325</ele>
        <time>2019-04-18T06:03:44Z</time>
      </trkpt>
      <trkpt lat="45.13051" lon="2.70219">
        <ele>1327</ele>
        <time>2019-04-18T06:04:44Z</time>
      </trkpt>
      <trkpt lat="45.13058" lon="2.7018">
        <ele>1328</ele>
        <time>2019-04-18T06:05:44Z</time>
      </trkpt>
      <trkpt lat="45.1306" lon="2.70149">
        <ele>1325</ele>
        <time>2019-04-18T06:06:44Z</time>
      </trkpt>
      <trkpt lat="45.13056" lon="2.70133">
        <ele>1323</ele>
        <time>2019-04-18T06:07:44Z</time>
      </trkpt>
      <trkpt lat="45.1305" lon="2.70119">
        <ele>1323</ele>
        <time>2019-04-18T06:08:44Z</time>
      </trkpt>
      <trkpt lat="45.13035" lon="2.70105">
        <ele>1324</ele>
        <time>2019-04-18T06:09:44Z</time>
      </trkpt>
      <trkpt lat="45.13013" lon="2.70077">
        <ele>1326</ele>
        <time>2019-04-18T06:10:44Z</time>
      </trkpt>
      <trkpt lat="45.12984" lon="2.70031">
        <ele>1322</ele>
        <time>2019-04-18T06:11:44Z</time>
      </trkpt>
      <trkpt lat="45.12939" lon="2.70001">
        <ele>1325</ele>
        <time>2019-04-18T06:12:44Z</time>
      </trkpt>
      <trkpt lat="45.1289" lon="2.6995">
        <ele>1319</ele>
        <time>2019-04-18T06:13:44Z</time>
      </trkpt>
      <trkpt lat="45.12862" lon="2.69908">
        <ele>1316</ele>
        <time>2019-04-18T06:14:44Z</time>
      </trkpt>
      <trkpt lat="45.12846" lon="2.6987">
        <ele>1311</ele>
        <time>2019-04-18T06:15:44Z</time>
      </trkpt>
      <trkpt lat="45.12825" lon="2.69847">
        <ele>1313</ele>
        <time>2019-04-18T06:16:44Z</time>
      </trkpt>
      <trkpt lat="45.12809" lon="2.69806">
        <ele>1305</ele>
        <time>2019-04-18T06:17:44Z</time>
      </trkpt>
      <trkpt lat="45.12798" lon="2.69788">
        <ele>1302</ele>
        <time>2019-04-18T06:18:44Z</time>
      </trkpt>
      <trkpt lat="45.12754" lon="2.69752">
        <ele>1307</ele>
        <time>2019-04-18T06:19:44Z</time>
      </trkpt>
      <trkpt lat="45.12736" lon="2.69734">
        <ele>1308</ele>
        <time>2019-04-18T06:20:44Z</time>
      </trkpt>
      <trkpt lat="45.12736" lon="2.69722">
        <ele>1304</ele>
        <time>2019-04-18T06:21:44Z</time>
      </trkpt>
      <trkpt lat="45.1274" lon="2.69713">
        <ele>1299</ele>
        <time>2019-04-18T06:22:44Z</time>
      </trkpt>
      <trkpt lat="45.12745" lon="2.69713">
        <ele>1297</ele>
        <time>2019-04-18T06:23:44Z</time>
      </trkpt>
      <trkpt lat="45.1275" lon="2.69716">
        <ele>1297</ele>
        <time>2019-04-18T06:24:44Z</time>
      </trkpt>
      <trkpt lat="45.12768" lon="2.69741">
        <ele>1297</ele>
        <time>2019-04-18T06:25:44Z</time>
      </trkpt>
      <trkpt lat="45.12823" lon="2.69776">
        <ele>1288</ele>
        <time>2019-04-18T06:26:44Z</time>
      </trkpt>
      <trkpt lat="45.12836" lon="2.69792">
        <ele>1289</ele>
        <time>2019-04-18T06:27:44Z</time>
      </trkpt>
      <trkpt lat="45.12843" lon="2.69809">
        <ele>1292</ele>
        <time>2019-04-18T06:28:44Z</time>
      </trkpt>
      <trkpt lat="45.1285" lon="2.69818">
        <ele>1292</ele>
        <time>2019-04-18T06:29:44Z</time>
      </trkpt>
      <trkpt lat="45.12865" lon="2.69819">
        <ele>1285</ele>
        <time>2019-04-18T06:30:44Z</time>
      </trkpt>
      <trkpt lat="45.12925" lon="2.69882">
        <ele>1282</ele>
        <time>2019-04-18T06:31:44Z</time>
      </trkpt>
      <trkpt lat="45.12971" lon="2.69904">
        <ele>1278</ele>
        <time>2019-04-18T06:32:44Z</time>
      </trkpt>
      <trkpt lat="45.13021" lon="2.69912">
        <ele>1266</ele>
        <time>2019-04-18T06:33:44Z</time>
      </trkpt>
      <trkpt lat="45.13069" lon="2.6995">
        <ele>1265</ele>
        <time>2019-04-18T06:34:44Z</time>
      </trkpt>
      <trkpt lat="45.13109" lon="2.69989">
        <ele>1259</ele>
        <time>2019-04-18T06:35:44Z</time>
      </trkpt>
      <trkpt lat="45.13135" lon="2.70027">
        <ele>1256</ele>
        <time>2019-04-18T06:36:44Z</time>
      </trkpt>
      <trkpt lat="45.13158" lon="2.70077">
        <ele>1254</ele>
        <time>2019-04-18T06:37:44Z</time>
      </trkpt>
      <trkpt lat="45.13181" lon="2.70119">
        <ele>1251</ele>
        <time>2019-04-18T06:38:44Z</time>
      </trkpt>
      <trkpt lat="45.13229" lon="2.70225">
        <ele>1252</ele>
        <time>2019-04-18T06:39:44Z</time>
      </trkpt>
      <trkpt lat="45.13253" lon="2.70261">
        <ele>1249</ele>
        <time>2019-04-18T06:40:44Z</time>
      </trkpt>
      <trkpt lat="45.13276" lon="2.70282">
        <ele>1250</ele>
        <time>2019-04-18T06:41:44Z</time>
      </trkpt>
      <trkpt lat="45.13323" lon="2.70302">
        <ele>1241</ele>
        <time>2019-04-18T06:42:44Z</time>
      </trkpt>
      <trkpt lat="45.13361" lon="2.70313">
        <ele>1230</ele>
        <time>2019-04-18T06:43:44Z</time>
      </trkpt>
      <trkpt lat="45.13375" lon="2.70326">
        <ele>1228</ele>
        <time>2019-04-18T06:44:44Z</time>
      </trkpt>
      <trkpt lat="45.13394" lon="2.70356">
        <ele>1228</ele>
        <time>2019-04-18T06:45:44Z</time>
      </trkpt>
      <trkpt lat="45.13398" lon="2.70358">
        <ele>1226</ele>
        <time>2019-04-18T06:46:44Z</time>
      </trkpt>
      <trkpt lat="45.13403" lon="2.70356">
        <ele>1224</ele>
        <time>2019-04-18T06:47:44Z</time>
      </trkpt>
      <trkpt lat="45.13406" lon="2.7035">
        <ele>1221</ele>
        <time>2019-04-18T06:48:44Z</time>
      </trkpt>
      <trkpt lat="45.13406" lon="2.70343">
        <ele>1219</ele>
        <time>2019-04-18T06:49:44Z</time>
      </trkpt>
      <trkpt lat="45.13405" lon="2.70334">
        <ele>1217</ele>
        <time>2019-04-18T06:50:44Z</time>
      </trkpt>
      <trkpt lat="45.13399" lon="2.70322">
        <ele>1216</ele>
        <time>2019-04-18T06:51:44Z</time>
      </trkpt>
      <trkpt lat="45.13358" lon="2.70278">
        <ele>1220</ele>
        <time>2019-04-18T06:52:44Z</time>
      </trkpt>
      <trkpt lat="45.13345" lon="2.70259">
        <ele>1219</ele>
        <time>2019-04-18T06:53:44Z</time>
      </trkpt>
      <trkpt lat="45.13332" lon="2.70226">
        <ele>1218</ele>
        <time>2019-04-18T06:54:44Z</time>
      </trkpt>
      <trkpt lat="45.13318" lon="2.70178">
        <ele>1215</ele>
        <time>2019-04-18T06:55:44Z</time>
      </trkpt>
      <trkpt lat="45.13328" lon="2.70152">
        <ele>1208</ele>
        <time>2019-04-18T06:56:44Z</time>
      </trkpt>
      <trkpt lat="45.13336" lon="2.70126">
        <ele>1202</ele>
        <time>2019-04-18T06:57:44Z</time>
      </trkpt>
      <trkpt lat="45.13327" lon="2.70097">
        <ele>1200</ele>
        <time>2019-04-18T06:58:44Z</time>
      </trkpt>
      <trkpt lat="45.13304" lon="2.70057">
        <ele>1197</ele>
        <time>2019-04-18T06:59:44Z</time>
      </trkpt>
      <trkpt lat="45.13242" lon="2.69983">
        <ele>1196</ele>
        <time>2019-04-18T07:00:44Z</time>
      </trkpt>
      <trkpt lat="45.13235" lon="2.69952">
        <ele>1192</ele>
        <time>2019-04-18T07:01:44Z</time>
      </trkpt>
      <trkpt lat="45.1323" lon="2.69901">
        <ele>1182</ele>
        <time>2019-04-18T07:02:44Z</time>
      </trkpt>
      <trkpt lat="45.13184" lon="2.69848">
        <ele>1187</ele>
        <time>2019-04-18T07:03:44Z</time>
      </trkpt>
      <trkpt lat="45.13158" lon="2.69776">
        <ele>1177</ele>
        <time>2019-04-18T07:04:44Z</time>
      </trkpt>
      <trkpt lat="45.13136" lon="2.69735">
        <ele>1172</ele>
        <time>2019-04-18T07:05:44Z</time>
      </trkpt>
      <trkpt lat="45.13139" lon="2.69725">
        <ele>1169</ele>
        <time>2019-04-18T07:06:44Z</time>
      </trkpt>
      <trkpt lat="45.13144" lon="2.69723">
        <ele>1167</ele>
        <time>2019-04-18T07:07:44Z</time>
      </trkpt>
      <trkpt lat="45.13151" lon="2.69728">
        <ele>1166</ele>
        <time>2019-04-18T07:08:44Z</time>
      </trkpt>
      <trkpt lat="45.13172" lon="2.6977">
        <ele>1170</ele>
        <time>2019-04-18T07:09:44Z</time>
      </trkpt>
      <trkpt lat="45.1322" lon="2.69801">
        <ele>1162</ele>
        <time>2019-04-18T07:10:44Z</time>
      </trkpt>
      <trkpt lat="45.13262" lon="2.69835">
        <ele>1155</ele>
        <time>2019-04-18T07:11:44Z</time>
      </trkpt>
      <trkpt lat="45.13282" lon="2.69844">
        <ele>1152</ele>
        <time>2019-04-18T07:12:44Z</time>
      </trkpt>
      <trkpt lat="45.13399" lon="2.69866">
        <ele>1130</ele>
        <time>2019-04-18T07:13:44Z</time>
      </trkpt>
      <trkpt lat="45.13414" lon="2.69881">
        <ele>1130</ele>
        <time>2019-04-18T07:14:44Z</time>
      </trkpt>
      <trkpt lat="45.13502" lon="2.70018">
        <ele>1127</ele>
        <time>2019-04-18T07:15:44Z</time>
      </trkpt>
      <trkpt lat="45.1351" lon="2.70028">
        <ele>1127</ele>
        <time>2019-04-18T07:16:44Z</time>
      </trkpt>
      <trkpt lat="45.13518" lon="2.70027">
        <ele>1125</ele>
        <time>2019-04-18T07:17:44Z</time>
      </trkpt>
      <trkpt lat="45.13521" lon="2.7002">
        <ele>1123</ele>
        <time>2019-04-18T07:18:44Z</time>
      </trkpt>
      <trkpt lat="45.13502" lon="2.6997">
        <ele>1118</ele>
        <time>2019-04-18T07:19:44Z</time>
      </trkpt>
      <trkpt lat="45.13498" lon="2.69951">
        <ele>1117</ele>
        <time>2019-04-18T07:20:44Z</time>
      </trkpt>
      <trkpt lat="45.13512" lon="2.69893">
        <ele>1107</ele>
        <time>2019-04-18T07:21:44Z</time>
      </trkpt>
      <trkpt lat="45.13516" lon="2.69744">
        <ele>1096</ele>
        <time>2019-04-18T07:22:44Z</time>
      </trkpt>
      <trkpt lat="45.13525" lon="2.69731">
        <ele>1095</ele>
        <time>2019-04-18T07:23:44Z</time>
      </trkpt>
      <trkpt lat="45.13541" lon="2.69729">
        <ele>1094</ele>
        <time>2019-04-18T07:24:44Z</time>
      </trkpt>
      <trkpt lat="45.13561" lon="2.69736">
        <ele>1093</ele>
        <time>2019-04-18T07:25:44Z</time>
      </trkpt>
      <trkpt lat="45.1362" lon="2.69771">
        <ele>1089</ele>
        <time>2019-04-18T07:26:44Z</time>
      </trkpt>
      <trkpt lat="45.13701" lon="2.69794">
        <ele>1082</ele>
        <time>2019-04-18T07:27:44Z</time>
      </trkpt>
      <trkpt lat="45.13733" lon="2.69859">
        <ele>1081</ele>
        <time>2019-04-18T07:28:44Z</time>
      </trkpt>
      <trkpt lat="45.13753" lon="2.69868">
        <ele>1080</ele>
        <time>2019-04-18T07:29:44Z</time>
      </trkpt>
      <trkpt lat="45.1377" lon="2.69857">
        <ele>1077</ele>
        <time>2019-04-18T07:30:44Z</time>
      </trkpt>
      <trkpt lat="45.13803" lon="2.69755">
        <ele>1068</ele>
        <time>2019-04-18T07:31:44Z</time>
      </trkpt>
      <trkpt lat="45.13851" lon="2.69732">
        <ele>1063</ele>
        <time>2019-04-18T07:32:44Z</time>
      </trkpt>
      <trkpt lat="45.14086" lon="2.69675">
        <ele>1048</ele>
        <time>2019-04-18T07:33:44Z</time>
      </trkpt>
      <trkpt lat="45.14127" lon="2.69673">
        <ele>1047</ele>
        <time>2019-04-18T07:34:44Z</time>
      </trkpt>
      <trkpt lat="45.14155" lon="2.69687">
        <ele>1047</ele>
        <time>2019-04-18T07:35:44Z</time>
      </trkpt>
      <trkpt lat="45.14285" lon="2.69803">
        <ele>1044</ele>
        <time>2019-04-18T07:36:44Z</time>
      </trkpt>
      <trkpt lat="45.14404" lon="2.69847">
        <ele>1042</ele>
        <time>2019-04-18T07:37:44Z</time>
      </trkpt>
      <trkpt lat="45.14443" lon="2.69857">
        <ele>1042</ele>
        <time>2019-04-18T07:38:44Z</time>
      </trkpt>
      <trkpt lat="45.14605" lon="2.69853">
        <ele>1041</ele>
        <time>2019-04-18T07:39:44Z</time>
      </trkpt>
      <trkpt lat="45.14665" lon="2.69848">
        <ele>1041</ele>
        <time>2019-04-18T07:40:44Z</time>
      </trkpt>
      <trkpt lat="45.14695" lon="2.69833">
        <ele>1042</ele>
        <time>2019-04-18T07:41:44Z</time>
      </trkpt>
      <trkpt lat="45.14726" lon="2.69815">
        <ele>1045</ele>
        <time>2019-04-18T07:42:44Z</time>
      </trkpt>
      <trkpt lat="45.14746" lon="2.6981">
        <ele>1047</ele>
        <time>2019-04-18T07:43:44Z</time>
      </trkpt>
      <trkpt lat="45.1477" lon="2.69817">
        <ele>1049</ele>
        <time>2019-04-18T07:44:44Z</time>
      </trkpt>
      <trkpt lat="45.14812" lon="2.69848">
        <ele>1050</ele>
        <time>2019-04-18T07:45:44Z</time>
      </trkpt>
      <trkpt lat="45.14882" lon="2.69877">
        <ele>1053</ele>
        <time>2019-04-18T07:46:44Z</time>
      </trkpt>
      <trkpt lat="45.14907" lon="2.69899">
        <ele>1052</ele>
        <time>2019-04-18T07:47:44Z</time>
      </trkpt>
      <trkpt lat="45.14945" lon="2.6994">
        <ele>1050</ele>
        <time>2019-04-18T07:48:44Z</time>
      </trkpt>
      <trkpt lat="45.14965" lon="2.69954">
        <ele>1051</ele>
        <time>2019-04-18T07:49:44Z</time>
      </trkpt>
      <trkpt lat="45.1511" lon="2.7002">
        <ele>1047</ele>
        <time>2019-04-18T07:50:44Z</time>
      </trkpt>
      <trkpt lat="45.15224" lon="2.70117">
        <ele>1044</ele>
        <time>2019-04-18T07:51:44Z</time>
      </trkpt>
      <trkpt lat="45.15269" lon="2.70141">
        <ele>1044</ele>
        <time>2019-04-18T07:52:44Z</time>
      </trkpt>
      <trkpt lat="45.15361" lon="2.70221">
        <ele>1040</ele>
        <time>2019-04-18T07:53:44Z</time>
      </trkpt>
      <trkpt lat="45.15445" lon="2.70238">
        <ele>1040</ele>
        <time>2019-04-18T07:54:44Z</time>
      </trkpt>
      <trkpt lat="45.15467" lon="2.70251">
        <ele>1039</ele>
        <time>2019-04-18T07:55:44Z</time>
      </trkpt>
      <trkpt lat="45.15489" lon="2.70269">
        <ele>1038</ele>
        <time>2019-04-18T07:56:44Z</time>
      </trkpt>
      <trkpt lat="45.15505" lon="2.70269">
        <ele>1039</ele>
        <time>2019-04-18T07:57:44Z</time>
      </trkpt>
      <trkpt lat="45.15568" lon="2.70259">
        <ele>1040</ele>
        <time>2019-04-18T07:58:44Z</time>
      </trkpt>
      <trkpt lat="45.15584" lon="2.70262">
        <ele>1040</ele>
        <time>2019-04-18T07:59:44Z</time>
      </trkpt>
      <trkpt lat="45.15629" lon="2.70285">
        <ele>1039</ele>
        <time>2019-04-18T08:00:44Z</time>
      </trkpt>
      <trkpt lat="45.15688" lon="2.70313">
        <ele>1040</ele>
        <time>2019-04-18T08:01:44Z</time>
      </trkpt>
      <trkpt lat="45.15707" lon="2.70328">
        <ele>1040</ele>
        <time>2019-04-18T08:02:44Z</time>
      </trkpt>
      <trkpt lat="45.15723" lon="2.70347">
        <ele>1040</ele>
        <time>2019-04-18T08:03:44Z</time>
      </trkpt>
      <trkpt lat="45.1573" lon="2.70399">
        <ele>1037</ele>
        <time>2019-04-18T08:04:44Z</time>
      </trkpt>
      <trkpt lat="45.15748" lon="2.70472">
        <ele>1036</ele>
        <time>2019-04-18T08:05:44Z</time>
      </trkpt>
      <trkpt lat="45.15785" lon="2.7051">
        <ele>1038</ele>
        <time>2019-04-18T08:06:44Z</time>
      </trkpt>
      <trkpt lat="45.15822" lon="2.70545">
        <ele>1039</ele>
        <time>2019-04-18T08:07:44Z</time>
      </trkpt>
      <trkpt lat="45.15884" lon="2.70574">
        <ele>1039</ele>
        <time>2019-04-18T08:08:44Z</time>
      </trkpt>
      <trkpt lat="45.1593" lon="2.70591">
        <ele>1038</ele>
        <time>2019-04-18T08:09:44Z</time>
      </trkpt>
      <trkpt lat="45.16025" lon="2.70614">
        <ele>1038</ele>
        <time>2019-04-18T08:10:44Z</time>
      </trkpt>
      <trkpt lat="45.16047" lon="2.70629">
        <ele>1038</ele>
        <time>2019-04-18T08:11:44Z</time>
      </trkpt>
      <trkpt lat="45.16058" lon="2.70676">
        <ele>1037</ele>
        <time>2019-04-18T08:12:44Z</time>
      </trkpt>
      <trkpt lat="45.16077" lon="2.70705">
        <ele>1035</ele>
        <time>2019-04-18T08:13:44Z</time>
      </trkpt>
      <trkpt lat="45.16094" lon="2.70713">
        <ele>1034</ele>
        <time>2019-04-18T08:14:44Z</time>
      </trkpt>
      <trkpt lat="45.16161" lon="2.70699">
        <ele>1034</ele>
        <time>2019-04-18T08:15:44Z</time>
      </trkpt>
      <trkpt lat="45.16204" lon="2.70699">
        <ele>1034</ele>
        <time>2019-04-18T08:16:44Z</time>
      </trkpt>
      <trkpt lat="45.16262" lon="2.70735">
        <ele>1033</ele>
        <time>2019-04-18T08:17:44Z</time>
      </trkpt>
      <trkpt lat="45.163" lon="2.70736">
        <ele>1033</ele>
        <time>2019-04-18T08:18:44Z</time>
      </trkpt>
      <trkpt lat="45.16331" lon="2.70765">
        <ele>1032</ele>
        <time>2019-04-18T08:19:44Z</time>
      </trkpt>
      <trkpt lat="45.16413" lon="2.70799">
        <ele>1028</ele>
        <time>2019-04-18T08:20:44Z</time>
      </trkpt>
      <trkpt lat="45.16445" lon="2.70823">
        <ele>1027</ele>
        <time>2019-04-18T08:21:44Z</time>
      </trkpt>
      <trkpt lat="45.16519" lon="2.70866">
        <ele>1024</ele>
        <time>2019-04-18T08:22:44Z</time>
      </trkpt>
      <trkpt lat="45.16531" lon="2.70878">
        <ele>1024</ele>
        <time>2019-04-18T08:23:44Z</time>
      </trkpt>
      <trkpt lat="45.16535" lon="2.70895">
        <ele>1023</ele>
        <time>2019-04-18T08:24:44Z</time>
      </trkpt>
      <trkpt lat="45.16533" lon="2.70949">
        <ele>1020</ele>
        <time>2019-04-18T08:25:44Z</time>
      </trkpt>
      <trkpt lat="45.1655" lon="2.70995">
        <ele>1018</ele>
        <time>2019-04-18T08:26:44Z</time>
      </trkpt>
      <trkpt lat="45.16563" lon="2.71034">
        <ele>1017</ele>
        <time>2019-04-18T08:27:44Z</time>
      </trkpt>
      <trkpt lat="45.1658" lon="2.71055">
        <ele>1016</ele>
        <time>2019-04-18T08:28:44Z</time>
      </trkpt>
      <trkpt lat="45.1663" lon="2.7109">
        <ele>1017</ele>
        <time>2019-04-18T08:29:44Z</time>
      </trkpt>
      <trkpt lat="45.16648" lon="2.71109">
        <ele>1017</ele>
        <time>2019-04-18T08:30:44Z</time>
      </trkpt>
      <trkpt lat="45.16649" lon="2.71124">
        <ele>1017</ele>
        <time>2019-04-18T08:31:44Z</time>
      </trkpt>
      <trkpt lat="45.16643" lon="2.71151">
        <ele>1016</ele>
        <time>2019-04-18T08:32:44Z</time>
      </trkpt>
      <trkpt lat="45.16645" lon="2.71172">
        <ele>1016</ele>
        <time>2019-04-18T08:33:44Z</time>
      </trkpt>
      <trkpt lat="45.16666" lon="2.71269">
        <ele>1017</ele>
        <time>2019-04-18T08:34:44Z</time>
      </trkpt>
      <trkpt lat="45.16709" lon="2.71352">
        <ele>1021</ele>
        <time>2019-04-18T08:35:44Z</time>
      </trkpt>
      <trkpt lat="45.16739" lon="2.71397">
        <ele>1022</ele>
        <time>2019-04-18T08:36:44Z</time>
      </trkpt>
      <trkpt lat="45.16785" lon="2.71404">
        <ele>1020</ele>
        <time>2019-04-18T08:37:44Z</time>
      </trkpt>
      <trkpt lat="45.16833" lon="2.71428">
        <ele>1019</ele>
        <time>2019-04-18T08:38:44Z</time>
      </trkpt>
      <trkpt lat="45.16868" lon="2.71425">
        <ele>1018</ele>
        <time>2019-04-18T08:39:44Z</time>
      </trkpt>
      <trkpt lat="45.16889" lon="2.714">
        <ele>1016</ele>
        <time>2019-04-18T08:40:44Z</time>
      </trkpt>
      <trkpt lat="45.16912" lon="2.71393">
        <ele>1015</ele>
        <time>2019-04-18T08:41:44Z</time>
      </trkpt>
      <trkpt lat="45.16981" lon="2.71408">
        <ele>1014</ele>
        <time>2019-04-18T08:42:44Z</time>
      </trkpt>
      <trkpt lat="45.17075" lon="2.71426">
        <ele>1011</ele>
        <time>2019-04-18T08:43:44Z</time>
      </trkpt>
      <trkpt lat="45.1712" lon="2.71459">
        <ele>1010</ele>
        <time>2019-04-18T08:44:44Z</time>
      </trkpt>
      <trkpt lat="45.17166" lon="2.71486">
        <ele>1010</ele>
        <time>2019-04-18T08:45:44Z</time>
      </trkpt>
      <trkpt lat="45.1723" lon="2.71515">
        <ele>1006</ele>
        <time>2019-04-18T08:46:44Z</time>
      </trkpt>
      <trkpt lat="45.17305" lon="2.7159">
        <ele>1004</ele>
        <time>2019-04-18T08:47:44Z</time>
      </trkpt>
      <trkpt lat="45.17363" lon="2.71637">
        <ele>999</ele>
        <time>2019-04-18T08:48:44Z</time>
      </trkpt>
      <trkpt lat="45.1743" lon="2.71683">
        <ele>994</ele>
        <time>2019-04-18T08:49:44Z</time>
      </trkpt>
      <trkpt lat="45.17518" lon="2.71747">
        <ele>994</ele>
        <time>2019-04-18T08:50:44Z</time>
      </trkpt>
      <trkpt lat="45.17616" lon="2.71822">
        <ele>991</ele>
        <time>2019-04-18T08:51:44Z</time>
      </trkpt>
      <trkpt lat="45.17677" lon="2.71886">
        <ele>989</ele>
        <time>2019-04-18T08:52:44Z</time>
      </trkpt>
      <trkpt lat="45.17938" lon="2.71954">
        <ele>989</ele>
        <time>2019-04-18T08:53:44Z</time>
      </trkpt>
      <trkpt lat="45.18085" lon="2.7199">
        <ele>993</ele>
        <time>2019-04-18T08:54:44Z</time>
      </trkpt>
      <trkpt lat="45.18202" lon="2.72009">
        <ele>995</ele>
        <time>2019-04-18T08:55:44Z</time>
      </trkpt>
      <trkpt lat="45.18255" lon="2.71984">
        <ele>992</ele>
        <time>2019-04-18T08:56:44Z</time>
      </trkpt>
      <trkpt lat="45.1832" lon="2.71928">
        <ele>988</ele>
        <time>2019-04-18T08:57:44Z</time>
      </trkpt>
      <trkpt lat="45.18431" lon="2.71853">
        <ele>985</ele>
        <time>2019-04-18T08:58:44Z</time>
      </trkpt>
      <trkpt lat="45.18469" lon="2.7181">
        <ele>983</ele>
        <time>2019-04-18T08:59:44Z</time>
      </trkpt>
      <trkpt lat="45.18512" lon="2.71788">
        <ele>983</ele>
        <time>2019-04-18T09:00:44Z</time>
      </trkpt>
      <trkpt lat="45.18565" lon="2.71742">
        <ele>981</ele>
        <time>2019-04-18T09:01:44Z</time>
      </trkpt>
      <trkpt lat="45.18626" lon="2.71684">
        <ele>980</ele>
        <time>2019-04-18T09:02:44Z</time>
      </trkpt>
      <trkpt lat="45.18641" lon="2.71664">
        <ele>979</ele>
        <time>2019-04-18T09:03:44Z</time>
      </trkpt>
      <trkpt lat="45.18655" lon="2.71636">
        <ele>978</ele>
        <time>2019-04-18T09:04:44Z</time>
      </trkpt>
      <trkpt lat="45.18666" lon="2.71621">
        <ele>978</ele>
        <time>2019-04-18T09:05:44Z</time>
      </trkpt>
      <trkpt lat="45.18723" lon="2.71565">
        <ele>977</ele>
        <time>2019-04-18T09:06:44Z</time>
      </trkpt>
      <trkpt lat="45.18736" lon="2.71556">
        <ele>976</ele>
        <time>2019-04-18T09:07:44Z</time>
      </trkpt>
      <trkpt lat="45.18777" lon="2.71541">
        <ele>977</ele>
        <time>2019-04-18T09:08:44Z</time>
      </trkpt>
      <trkpt lat="45.18797" lon="2.71526">
        <ele>977</ele>
        <time>2019-04-18T09:09:44Z</time>
      </trkpt>
      <trkpt lat="45.18786" lon="2.71481">
        <ele>975</ele>
        <time>2019-04-18T09:10:44Z</time>
      </trkpt>
      <trkpt lat="45.18754" lon="2.71398">
        <ele>973</ele>
        <time>2019-04-18T09:11:44Z</time>
      </trkpt>
      <trkpt lat="45.18751" lon="2.7138">
        <ele>972</ele>
        <time>2019-04-18T09:12:44Z</time>
      </trkpt>
      <trkpt lat="45.1875" lon="2.71364">
        <ele>972</ele>
        <time>2019-04-18T09:13:44Z</time>
      </trkpt>
      <trkpt lat="45.18751" lon="2.71342">
        <ele>971</ele>
        <time>2019-04-18T09:14:44Z</time>
      </trkpt>
      <trkpt lat="45.18773" lon="2.71281">
        <ele>969</ele>
        <time>2019-04-18T09:15:44Z</time>
      </trkpt>
      <trkpt lat="45.18781" lon="2.71246">
        <ele>968</ele>
        <time>2019-04-18T09:16:44Z</time>
      </trkpt>
      <trkpt lat="45.18786" lon="2.71198">
        <ele>967</ele>
        <time>2019-04-18T09:17:44Z</time>
      </trkpt>
      <trkpt lat="45.18796" lon="2.7116">
        <ele>966</ele>
        <time>2019-04-18T09:18:44Z</time>
      </trkpt>
      <trkpt lat="45.18798" lon="2.71141">
        <ele>965</ele>
        <time>2019-04-18T09:19:44Z</time>
      </trkpt>
      <trkpt lat="45.18797" lon="2.71112">
        <ele>964</ele>
        <time>2019-04-18T09:20:44Z</time>
      </trkpt>
      <trkpt lat="45.18785" lon="2.71064">
        <ele>963</ele>
        <time>2019-04-18T09:21:44Z</time>
      </trkpt>
      <trkpt lat="45.18787" lon="2.71043">
        <ele>963</ele>
        <time>2019-04-18T09:22:44Z</time>
      </trkpt>
      <trkpt lat="45.18795" lon="2.71027">
        <ele>963</ele>
        <time>2019-04-18T09:23:44Z</time>
      </trkpt>
      <trkpt lat="45.18832" lon="2.70987">
        <ele>961</ele>
        <time>2019-04-18T09:24:44Z</time>
      </trkpt>
      <trkpt lat="45.18835" lon="2.70976">
        <ele>961</ele>
        <time>2019-04-18T09:25:44Z</time>
      </trkpt>
      <trkpt lat="45.18838" lon="2.70914">
        <ele>960</ele>
        <time>2019-04-18T09:26:44Z</time>
      </trkpt>
      <trkpt lat="45.18837" lon="2.7089">
        <ele>960</ele>
        <time>2019-04-18T09:27:44Z</time>
      </trkpt>
      <trkpt lat="45.18826" lon="2.7085">
        <ele>961</ele>
        <time>2019-04-18T09:28:44Z</time>
      </trkpt>
      <trkpt lat="45.18821" lon="2.70813">
        <ele>962</ele>
        <time>2019-04-18T09:29:44Z</time>
      </trkpt>
      <trkpt lat="45.18821" lon="2.70795">
        <ele>963</ele>
        <time>2019-04-18T09:30:44Z</time>
      </trkpt>
      <trkpt lat="45.18829" lon="2.70777">
        <ele>964</ele>
        <time>2019-04-18T09:31:44Z</time>
      </trkpt>
      <trkpt lat="45.18845" lon="2.70773">
        <ele>964</ele>
        <time>2019-04-18T09:32:44Z</time>
      </trkpt>
      <trkpt lat="45.18853" lon="2.70762">
        <ele>964</ele>
        <time>2019-04-18T09:33:44Z</time>
      </trkpt>
      <trkpt lat="45.18864" lon="2.70737">
        <ele>965</ele>
        <time>2019-04-18T09:34:44Z</time>
      </trkpt>
      <trkpt lat="45.1887" lon="2.70695">
        <ele>967</ele>
        <time>2019-04-18T09:35:44Z</time>
      </trkpt>
      <trkpt lat="45.18864" lon="2.70684">
        <ele>968</ele>
        <time>2019-04-18T09:36:44Z</time>
      </trkpt>
      <trkpt lat="45.18843" lon="2.70663">
        <ele>969</ele>
        <time>2019-04-18T09:37:44Z</time>
      </trkpt>
      <trkpt lat="45.18828" lon="2.70651">
        <ele>969</ele>
        <time>2019-04-18T09:38:44Z</time>
      </trkpt>
    </trkseg>
  </trk>
  <trk>
    <name><![CDATA[J3]]></name>
    <trkseg>
      <trkpt lat="45.18833" lon="2.70655">
        <ele>969</ele>
        <time>2019-04-16T11:10:49Z</time>
      </trkpt>
      <trkpt lat="45.18864" lon="2.70684">
        <ele>968</ele>
        <time>2019-04-16T11:11:49Z</time>
      </trkpt>
      <trkpt lat="45.1887" lon="2.70695">
        <ele>967</ele>
        <time>2019-04-16T11:12:49Z</time>
      </trkpt>
      <trkpt lat="45.18864" lon="2.70737">
        <ele>965</ele>
        <time>2019-04-16T11:13:49Z</time>
      </trkpt>
      <trkpt lat="45.18853" lon="2.70762">
        <ele>964</ele>
        <time>2019-04-16T11:14:49Z</time>
      </trkpt>
      <trkpt lat="45.18845" lon="2.70773">
        <ele>964</ele>
        <time>2019-04-16T11:15:49Z</time>
      </trkpt>
      <trkpt lat="45.18829" lon="2.70777">
        <ele>964</ele>
        <time>2019-04-16T11:16:49Z</time>
      </trkpt>
      <trkpt lat="45.18821" lon="2.70795">
        <ele>963</ele>
        <time>2019-04-16T11:17:49Z</time>
      </trkpt>
      <trkpt lat="45.18821" lon="2.70813">
        <ele>962</ele>
        <time>2019-04-16T11:18:49Z</time>
      </trkpt>
      <trkpt lat="45.18826" lon="2.7085">
        <ele>961</ele>
        <time>2019-04-16T11:19:49Z</time>
      </trkpt>
      <trkpt lat="45.18837" lon="2.7089">
        <ele>960</ele>
        <time>2019-04-16T11:20:49Z</time>
      </trkpt>
      <trkpt lat="45.18838" lon="2.70914">
        <ele>960</ele>
        <time>2019-04-16T11:21:49Z</time>
      </trkpt>
      <trkpt lat="45.18835" lon="2.70976">
        <ele>961</ele>
        <time>2019-04-16T11:22:49Z</time>
      </trkpt>
      <trkpt lat="45.18832" lon="2.70987">
        <ele>961</ele>
        <time>2019-04-16T11:23:49Z</time>
      </trkpt>
      <trkpt lat="45.18795" lon="2.71027">
        <ele>963</ele>
        <time>2019-04-16T11:24:49Z</time>
      </trkpt>
      <trkpt lat="45.18787" lon="2.71043">
        <ele>963</ele>
        <time>2019-04-16T11:25:49Z</time>
      </trkpt>
      <trkpt lat="45.18785" lon="2.71064">
        <ele>963</ele>
        <time>2019-04-16T11:26:49Z</time>
      </trkpt>
      <trkpt lat="45.18797" lon="2.71112">
        <ele>964</ele>
        <time>2019-04-16T11:27:49Z</time>
      </trkpt>
      <trkpt lat="45.18798" lon="2.71141">
        <ele>965</ele>
        <time>2019-04-16T11:28:49Z</time>
      </trkpt>
      <trkpt lat="45.18796" lon="2.7116">
        <ele>966</ele>
        <time>2019-04-16T11:29:49Z</time>
      </trkpt>
      <trkpt lat="45.18786" lon="2.71198">
        <ele>967</ele>
        <time>2019-04-16T11:30:49Z</time>
      </trkpt>
      <trkpt lat="45.18781" lon="2.71246">
        <ele>968</ele>
        <time>2019-04-16T11:31:49Z</time>
      </trkpt>
      <trkpt lat="45.18773" lon="2.71281">
        <ele>969</ele>
        <time>2019-04-16T11:32:49Z</time>
      </trkpt>
      <trkpt lat="45.18751" lon="2.71342">
        <ele>971</ele>
        <time>2019-04-16T11:33:49Z</time>
      </trkpt>
      <trkpt lat="45.1875" lon="2.71364">
        <ele>972</ele>
        <time>2019-04-16T11:34:49Z</time>
      </trkpt>
      <trkpt lat="45.18751" lon="2.7138">
        <ele>972</ele>
        <time>2019-04-16T11:35:49Z</time>
      </trkpt>
      <trkpt lat="45.18754" lon="2.71398">
        <ele>973</ele>
        <time>2019-04-16T11:36:49Z</time>
      </trkpt>
      <trkpt lat="45.18786" lon="2.71481">
        <ele>975</ele>
        <time>2019-04-16T11:37:49Z</time>
      </trkpt>
      <trkpt lat="45.18797" lon="2.71526">
        <ele>977</ele>
        <time>2019-04-16T11:38:49Z</time>
      </trkpt>
      <trkpt lat="45.18828" lon="2.71517">
        <ele>978</ele>
        <time>2019-04-16T11:39:49Z</time>
      </trkpt>
      <trkpt lat="45.18871" lon="2.71512">
        <ele>979</ele>
        <time>2019-04-16T11:40:49Z</time>
      </trkpt>
      <trkpt lat="45.18953" lon="2.71512">
        <ele>980</ele>
        <time>2019-04-16T11:41:49Z</time>
      </trkpt>
      <trkpt lat="45.19019" lon="2.71529">
        <ele>983</ele>
        <time>2019-04-16T11:42:49Z</time>
      </trkpt>
      <trkpt lat="45.19058" lon="2.71549">
        <ele>985</ele>
        <time>2019-04-16T11:43:49Z</time>
      </trkpt>
      <trkpt lat="45.19096" lon="2.71564">
        <ele>987</ele>
        <time>2019-04-16T11:44:49Z</time>
      </trkpt>
      <trkpt lat="45.19171" lon="2.71579">
        <ele>983</ele>
        <time>2019-04-16T11:45:49Z</time>
      </trkpt>
      <trkpt lat="45.19226" lon="2.71594">
        <ele>985</ele>
        <time>2019-04-16T11:46:49Z</time>
      </trkpt>
      <trkpt lat="45.193" lon="2.71585">
        <ele>984</ele>
        <time>2019-04-16T11:47:49Z</time>
      </trkpt>
      <trkpt lat="45.19374" lon="2.71589">
        <ele>986</ele>
        <time>2019-04-16T11:48:49Z</time>
      </trkpt>
      <trkpt lat="45.19459" lon="2.71617">
        <ele>988</ele>
        <time>2019-04-16T11:49:49Z</time>
      </trkpt>
      <trkpt lat="45.19497" lon="2.71645">
        <ele>990</ele>
        <time>2019-04-16T11:50:49Z</time>
      </trkpt>
      <trkpt lat="45.1955" lon="2.71663">
        <ele>986</ele>
        <time>2019-04-16T11:51:49Z</time>
      </trkpt>
      <trkpt lat="45.19583" lon="2.71672">
        <ele>984</ele>
        <time>2019-04-16T11:52:49Z</time>
      </trkpt>
      <trkpt lat="45.1961" lon="2.71702">
        <ele>988</ele>
        <time>2019-04-16T11:53:49Z</time>
      </trkpt>
      <trkpt lat="45.19645" lon="2.71714">
        <ele>988</ele>
        <time>2019-04-16T11:54:49Z</time>
      </trkpt>
      <trkpt lat="45.19705" lon="2.71719">
        <ele>985</ele>
        <time>2019-04-16T11:55:49Z</time>
      </trkpt>
      <trkpt lat="45.19741" lon="2.71739">
        <ele>987</ele>
        <time>2019-04-16T11:56:49Z</time>
      </trkpt>
      <trkpt lat="45.19768" lon="2.71742">
        <ele>987</ele>
        <time>2019-04-16T11:57:49Z</time>
      </trkpt>
      <trkpt lat="45.19815" lon="2.71715">
        <ele>980</ele>
        <time>2019-04-16T11:58:49Z</time>
      </trkpt>
      <trkpt lat="45.19834" lon="2.71712">
        <ele>979</ele>
        <time>2019-04-16T11:59:49Z</time>
      </trkpt>
      <trkpt lat="45.19865" lon="2.71731">
        <ele>982</ele>
        <time>2019-04-16T12:00:49Z</time>
      </trkpt>
      <trkpt lat="45.19898" lon="2.71748">
        <ele>985</ele>
        <time>2019-04-16T12:01:49Z</time>
      </trkpt>
      <trkpt lat="45.19921" lon="2.71749">
        <ele>984</ele>
        <time>2019-04-16T12:02:49Z</time>
      </trkpt>
      <trkpt lat="45.19934" lon="2.71747">
        <ele>984</ele>
        <time>2019-04-16T12:03:49Z</time>
      </trkpt>
      <trkpt lat="45.19967" lon="2.71726">
        <ele>981</ele>
        <time>2019-04-16T12:04:49Z</time>
      </trkpt>
      <trkpt lat="45.20029" lon="2.7167">
        <ele>972</ele>
        <time>2019-04-16T12:05:49Z</time>
      </trkpt>
      <trkpt lat="45.20051" lon="2.71672">
        <ele>971</ele>
        <time>2019-04-16T12:06:49Z</time>
      </trkpt>
      <trkpt lat="45.20085" lon="2.71693">
        <ele>975</ele>
        <time>2019-04-16T12:07:49Z</time>
      </trkpt>
      <trkpt lat="45.20141" lon="2.71688">
        <ele>973</ele>
        <time>2019-04-16T12:08:49Z</time>
      </trkpt>
      <trkpt lat="45.20164" lon="2.71696">
        <ele>975</ele>
        <time>2019-04-16T12:09:49Z</time>
      </trkpt>
      <trkpt lat="45.20184" lon="2.71695">
        <ele>977</ele>
        <time>2019-04-16T12:10:49Z</time>
      </trkpt>
      <trkpt lat="45.2022" lon="2.71674">
        <ele>975</ele>
        <time>2019-04-16T12:11:49Z</time>
      </trkpt>
      <trkpt lat="45.20279" lon="2.71633">
        <ele>973</ele>
        <time>2019-04-16T12:12:49Z</time>
      </trkpt>
      <trkpt lat="45.20416" lon="2.71575">
        <ele>968</ele>
        <time>2019-04-16T12:13:49Z</time>
      </trkpt>
      <trkpt lat="45.20518" lon="2.71584">
        <ele>974</ele>
        <time>2019-04-16T12:14:49Z</time>
      </trkpt>
      <trkpt lat="45.20581" lon="2.71564">
        <ele>968</ele>
        <time>2019-04-16T12:15:49Z</time>
      </trkpt>
      <trkpt lat="45.20597" lon="2.71562">
        <ele>967</ele>
        <time>2019-04-16T12:16:49Z</time>
      </trkpt>
      <trkpt lat="45.20615" lon="2.71565">
        <ele>967</ele>
        <time>2019-04-16T12:17:49Z</time>
      </trkpt>
      <trkpt lat="45.20635" lon="2.71578">
        <ele>970</ele>
        <time>2019-04-16T12:18:49Z</time>
      </trkpt>
      <trkpt lat="45.2066" lon="2.71601">
        <ele>974</ele>
        <time>2019-04-16T12:19:49Z</time>
      </trkpt>
      <trkpt lat="45.20676" lon="2.71608">
        <ele>974</ele>
        <time>2019-04-16T12:20:49Z</time>
      </trkpt>
      <trkpt lat="45.20736" lon="2.71625">
        <ele>969</ele>
        <time>2019-04-16T12:21:49Z</time>
      </trkpt>
      <trkpt lat="45.20818" lon="2.71618">
        <ele>963</ele>
        <time>2019-04-16T12:22:49Z</time>
      </trkpt>
      <trkpt lat="45.2083" lon="2.71625">
        <ele>963</ele>
        <time>2019-04-16T12:23:49Z</time>
      </trkpt>
      <trkpt lat="45.20882" lon="2.71643">
        <ele>963</ele>
        <time>2019-04-16T12:24:49Z</time>
      </trkpt>
      <trkpt lat="45.20917" lon="2.71644">
        <ele>962</ele>
        <time>2019-04-16T12:25:49Z</time>
      </trkpt>
      <trkpt lat="45.20932" lon="2.71648">
        <ele>962</ele>
        <time>2019-04-16T12:26:49Z</time>
      </trkpt>
      <trkpt lat="45.20979" lon="2.71672">
        <ele>966</ele>
        <time>2019-04-16T12:27:49Z</time>
      </trkpt>
      <trkpt lat="45.21002" lon="2.71667">
        <ele>965</ele>
        <time>2019-04-16T12:28:49Z</time>
      </trkpt>
      <trkpt lat="45.21029" lon="2.71685">
        <ele>969</ele>
        <time>2019-04-16T12:29:49Z</time>
      </trkpt>
      <trkpt lat="45.21171" lon="2.71768">
        <ele>983</ele>
        <time>2019-04-16T12:30:49Z</time>
      </trkpt>
      <trkpt lat="45.21213" lon="2.71812">
        <ele>984</ele>
        <time>2019-04-16T12:31:49Z</time>
      </trkpt>
      <trkpt lat="45.21239" lon="2.71855">
        <ele>986</ele>
        <time>2019-04-16T12:32:49Z</time>
      </trkpt>
      <trkpt lat="45.21266" lon="2.71905">
        <ele>990</ele>
        <time>2019-04-16T12:33:49Z</time>
      </trkpt>
      <trkpt lat="45.213" lon="2.71927">
        <ele>990</ele>
        <time>2019-04-16T12:34:49Z</time>
      </trkpt>
      <trkpt lat="45.21374" lon="2.71929">
        <ele>989</ele>
        <time>2019-04-16T12:35:49Z</time>
      </trkpt>
      <trkpt lat="45.21431" lon="2.71955">
        <ele>996</ele>
        <time>2019-04-16T12:36:49Z</time>
      </trkpt>
      <trkpt lat="45.21484" lon="2.71966">
        <ele>1000</ele>
        <time>2019-04-16T12:37:49Z</time>
      </trkpt>
      <trkpt lat="45.21508" lon="2.71963">
        <ele>1001</ele>
        <time>2019-04-16T12:38:49Z</time>
      </trkpt>
      <trkpt lat="45.21568" lon="2.71938">
        <ele>1000</ele>
        <time>2019-04-16T12:39:49Z</time>
      </trkpt>
      <trkpt lat="45.21597" lon="2.71938">
        <ele>1001</ele>
        <time>2019-04-16T12:40:49Z</time>
      </trkpt>
      <trkpt lat="45.21627" lon="2.7195">
        <ele>1004</ele>
        <time>2019-04-16T12:41:49Z</time>
      </trkpt>
      <trkpt lat="45.21649" lon="2.71962">
        <ele>1007</ele>
        <time>2019-04-16T12:42:49Z</time>
      </trkpt>
      <trkpt lat="45.21685" lon="2.71975">
        <ele>1010</ele>
        <time>2019-04-16T12:43:49Z</time>
      </trkpt>
      <trkpt lat="45.21789" lon="2.71973">
        <ele>1013</ele>
        <time>2019-04-16T12:44:49Z</time>
      </trkpt>
      <trkpt lat="45.21851" lon="2.71983">
        <ele>1018</ele>
        <time>2019-04-16T12:45:49Z</time>
      </trkpt>
      <trkpt lat="45.21999" lon="2.7206">
        <ele>1036</ele>
        <time>2019-04-16T12:46:49Z</time>
      </trkpt>
      <trkpt lat="45.22087" lon="2.72101">
        <ele>1041</ele>
        <time>2019-04-16T12:47:49Z</time>
      </trkpt>
      <trkpt lat="45.22144" lon="2.72142">
        <ele>1044</ele>
        <time>2019-04-16T12:48:49Z</time>
      </trkpt>
      <trkpt lat="45.22182" lon="2.72163">
        <ele>1044</ele>
        <time>2019-04-16T12:49:49Z</time>
      </trkpt>
      <trkpt lat="45.22217" lon="2.72201">
        <ele>1046</ele>
        <time>2019-04-16T12:50:49Z</time>
      </trkpt>
      <trkpt lat="45.22248" lon="2.7224">
        <ele>1049</ele>
        <time>2019-04-16T12:51:49Z</time>
      </trkpt>
      <trkpt lat="45.22274" lon="2.72285">
        <ele>1050</ele>
        <time>2019-04-16T12:52:49Z</time>
      </trkpt>
      <trkpt lat="45.22282" lon="2.72329">
        <ele>1054</ele>
        <time>2019-04-16T12:53:49Z</time>
      </trkpt>
      <trkpt lat="45.22296" lon="2.72391">
        <ele>1059</ele>
        <time>2019-04-16T12:54:49Z</time>
      </trkpt>
      <trkpt lat="45.2231" lon="2.72417">
        <ele>1061</ele>
        <time>2019-04-16T12:55:49Z</time>
      </trkpt>
      <trkpt lat="45.22366" lon="2.72484">
        <ele>1070</ele>
        <time>2019-04-16T12:56:49Z</time>
      </trkpt>
      <trkpt lat="45.2241" lon="2.72516">
        <ele>1070</ele>
        <time>2019-04-16T12:57:49Z</time>
      </trkpt>
      <trkpt lat="45.22473" lon="2.72553">
        <ele>1069</ele>
        <time>2019-04-16T12:58:49Z</time>
      </trkpt>
      <trkpt lat="45.22643" lon="2.72632">
        <ele>1063</ele>
        <time>2019-04-16T12:59:49Z</time>
      </trkpt>
      <trkpt lat="45.22709" lon="2.72645">
        <ele>1062</ele>
        <time>2019-04-16T13:00:49Z</time>
      </trkpt>
      <trkpt lat="45.22772" lon="2.72652">
        <ele>1063</ele>
        <time>2019-04-16T13:01:49Z</time>
      </trkpt>
      <trkpt lat="45.22819" lon="2.7265">
        <ele>1062</ele>
        <time>2019-04-16T13:02:49Z</time>
      </trkpt>
      <trkpt lat="45.22856" lon="2.72667">
        <ele>1062</ele>
        <time>2019-04-16T13:03:49Z</time>
      </trkpt>
      <trkpt lat="45.22878" lon="2.72702">
        <ele>1061</ele>
        <time>2019-04-16T13:04:49Z</time>
      </trkpt>
      <trkpt lat="45.22895" lon="2.72818">
        <ele>1059</ele>
        <time>2019-04-16T13:05:49Z</time>
      </trkpt>
      <trkpt lat="45.22893" lon="2.72885">
        <ele>1058</ele>
        <time>2019-04-16T13:06:49Z</time>
      </trkpt>
      <trkpt lat="45.22903" lon="2.72966">
        <ele>1051</ele>
        <time>2019-04-16T13:07:49Z</time>
      </trkpt>
      <trkpt lat="45.22915" lon="2.73041">
        <ele>1046</ele>
        <time>2019-04-16T13:08:49Z</time>
      </trkpt>
      <trkpt lat="45.22925" lon="2.73068">
        <ele>1045</ele>
        <time>2019-04-16T13:09:49Z</time>
      </trkpt>
      <trkpt lat="45.2294" lon="2.73092">
        <ele>1044</ele>
        <time>2019-04-16T13:10:49Z</time>
      </trkpt>
      <trkpt lat="45.22956" lon="2.73107">
        <ele>1043</ele>
        <time>2019-04-16T13:11:49Z</time>
      </trkpt>
      <trkpt lat="45.22988" lon="2.73122">
        <ele>1042</ele>
        <time>2019-04-16T13:12:49Z</time>
      </trkpt>
      <trkpt lat="45.23106" lon="2.73152">
        <ele>1038</ele>
        <time>2019-04-16T13:13:49Z</time>
      </trkpt>
      <trkpt lat="45.23141" lon="2.73168">
        <ele>1036</ele>
        <time>2019-04-16T13:14:49Z</time>
      </trkpt>
      <trkpt lat="45.23238" lon="2.73258">
        <ele>1037</ele>
        <time>2019-04-16T13:15:49Z</time>
      </trkpt>
      <trkpt lat="45.23281" lon="2.73293">
        <ele>1037</ele>
        <time>2019-04-16T13:16:49Z</time>
      </trkpt>
      <trkpt lat="45.23418" lon="2.73385">
        <ele>1035</ele>
        <time>2019-04-16T13:17:49Z</time>
      </trkpt>
      <trkpt lat="45.23452" lon="2.73394">
        <ele>1034</ele>
        <time>2019-04-16T13:18:49Z</time>
      </trkpt>
      <trkpt lat="45.23475" lon="2.73398">
        <ele>1033</ele>
        <time>2019-04-16T13:19:49Z</time>
      </trkpt>
      <trkpt lat="45.23476" lon="2.73425">
        <ele>1034</ele>
        <time>2019-04-16T13:20:49Z</time>
      </trkpt>
      <trkpt lat="45.23485" lon="2.73466">
        <ele>1037</ele>
        <time>2019-04-16T13:21:49Z</time>
      </trkpt>
      <trkpt lat="45.23492" lon="2.73484">
        <ele>1038</ele>
        <time>2019-04-16T13:22:49Z</time>
      </trkpt>
      <trkpt lat="45.23503" lon="2.73506">
        <ele>1040</ele>
        <time>2019-04-16T13:23:49Z</time>
      </trkpt>
      <trkpt lat="45.23555" lon="2.73587">
        <ele>1047</ele>
        <time>2019-04-16T13:24:49Z</time>
      </trkpt>
      <trkpt lat="45.23569" lon="2.73608">
        <ele>1049</ele>
        <time>2019-04-16T13:25:49Z</time>
      </trkpt>
      <trkpt lat="45.23599" lon="2.73637">
        <ele>1053</ele>
        <time>2019-04-16T13:26:49Z</time>
      </trkpt>
      <trkpt lat="45.23624" lon="2.7365">
        <ele>1055</ele>
        <time>2019-04-16T13:27:49Z</time>
      </trkpt>
      <trkpt lat="45.23642" lon="2.73656">
        <ele>1056</ele>
        <time>2019-04-16T13:28:49Z</time>
      </trkpt>
      <trkpt lat="45.2369" lon="2.73665">
        <ele>1057</ele>
        <time>2019-04-16T13:29:49Z</time>
      </trkpt>
      <trkpt lat="45.23705" lon="2.7367">
        <ele>1058</ele>
        <time>2019-04-16T13:30:49Z</time>
      </trkpt>
      <trkpt lat="45.23728" lon="2.73685">
        <ele>1059</ele>
        <time>2019-04-16T13:31:49Z</time>
      </trkpt>
      <trkpt lat="45.23745" lon="2.73706">
        <ele>1060</ele>
        <time>2019-04-16T13:32:49Z</time>
      </trkpt>
      <trkpt lat="45.23751" lon="2.73716">
        <ele>1061</ele>
        <time>2019-04-16T13:33:49Z</time>
      </trkpt>
      <trkpt lat="45.23764" lon="2.73711">
        <ele>1060</ele>
        <time>2019-04-16T13:34:49Z</time>
      </trkpt>
      <trkpt lat="45.23785" lon="2.73715">
        <ele>1060</ele>
        <time>2019-04-16T13:35:49Z</time>
      </trkpt>
      <trkpt lat="45.2382" lon="2.73734">
        <ele>1060</ele>
        <time>2019-04-16T13:36:49Z</time>
      </trkpt>
      <trkpt lat="45.23858" lon="2.73736">
        <ele>1058</ele>
        <time>2019-04-16T13:37:49Z</time>
      </trkpt>
      <trkpt lat="45.23877" lon="2.73738">
        <ele>1057</ele>
        <time>2019-04-16T13:38:49Z</time>
      </trkpt>
      <trkpt lat="45.23904" lon="2.73748">
        <ele>1056</ele>
        <time>2019-04-16T13:39:49Z</time>
      </trkpt>
      <trkpt lat="45.23945" lon="2.73768">
        <ele>1054</ele>
        <time>2019-04-16T13:40:49Z</time>
      </trkpt>
      <trkpt lat="45.23996" lon="2.73783">
        <ele>1050</ele>
        <time>2019-04-16T13:41:49Z</time>
      </trkpt>
      <trkpt lat="45.2402" lon="2.73793">
        <ele>1049</ele>
        <time>2019-04-16T13:42:49Z</time>
      </trkpt>
      <trkpt lat="45.24103" lon="2.73847">
        <ele>1042</ele>
        <time>2019-04-16T13:43:49Z</time>
      </trkpt>
      <trkpt lat="45.2415" lon="2.73881">
        <ele>1040</ele>
        <time>2019-04-16T13:44:49Z</time>
      </trkpt>
      <trkpt lat="45.24193" lon="2.7392">
        <ele>1039</ele>
        <time>2019-04-16T13:45:49Z</time>
      </trkpt>
      <trkpt lat="45.2422" lon="2.73948">
        <ele>1040</ele>
        <time>2019-04-16T13:46:49Z</time>
      </trkpt>
      <trkpt lat="45.24316" lon="2.7407">
        <ele>1045</ele>
        <time>2019-04-16T13:47:49Z</time>
      </trkpt>
      <trkpt lat="45.24357" lon="2.74113">
        <ele>1051</ele>
        <time>2019-04-16T13:48:49Z</time>
      </trkpt>
      <trkpt lat="45.24392" lon="2.74146">
        <ele>1055</ele>
        <time>2019-04-16T13:49:49Z</time>
      </trkpt>
      <trkpt lat="45.24408" lon="2.74152">
        <ele>1055</ele>
        <time>2019-04-16T13:50:49Z</time>
      </trkpt>
      <trkpt lat="45.24429" lon="2.7415">
        <ele>1054</ele>
        <time>2019-04-16T13:51:49Z</time>
      </trkpt>
      <trkpt lat="45.24461" lon="2.74153">
        <ele>1053</ele>
        <time>2019-04-16T13:52:49Z</time>
      </trkpt>
      <trkpt lat="45.24484" lon="2.74163">
        <ele>1054</ele>
        <time>2019-04-16T13:53:49Z</time>
      </trkpt>
      <trkpt lat="45.2451" lon="2.74184">
        <ele>1057</ele>
        <time>2019-04-16T13:54:49Z</time>
      </trkpt>
      <trkpt lat="45.24549" lon="2.74203">
        <ele>1057</ele>
        <time>2019-04-16T13:55:49Z</time>
      </trkpt>
      <trkpt lat="45.24567" lon="2.74228">
        <ele>1059</ele>
        <time>2019-04-16T13:56:49Z</time>
      </trkpt>
      <trkpt lat="45.24587" lon="2.74252">
        <ele>1061</ele>
        <time>2019-04-16T13:57:49Z</time>
      </trkpt>
      <trkpt lat="45.24605" lon="2.74265">
        <ele>1062</ele>
        <time>2019-04-16T13:58:49Z</time>
      </trkpt>
      <trkpt lat="45.24621" lon="2.74272">
        <ele>1062</ele>
        <time>2019-04-16T13:59:49Z</time>
      </trkpt>
      <trkpt lat="45.24818" lon="2.74264">
        <ele>1059</ele>
        <time>2019-04-16T14:00:49Z</time>
      </trkpt>
      <trkpt lat="45.2487" lon="2.74264">
        <ele>1058</ele>
        <time>2019-04-16T14:01:49Z</time>
      </trkpt>
      <trkpt lat="45.24912" lon="2.74272">
        <ele>1057</ele>
        <time>2019-04-16T14:02:49Z</time>
      </trkpt>
      <trkpt lat="45.24985" lon="2.74303">
        <ele>1057</ele>
        <time>2019-04-16T14:03:49Z</time>
      </trkpt>
      <trkpt lat="45.25033" lon="2.74314">
        <ele>1056</ele>
        <time>2019-04-16T14:04:49Z</time>
      </trkpt>
      <trkpt lat="45.2511" lon="2.74326">
        <ele>1055</ele>
        <time>2019-04-16T14:05:49Z</time>
      </trkpt>
      <trkpt lat="45.25204" lon="2.74348">
        <ele>1058</ele>
        <time>2019-04-16T14:06:49Z</time>
      </trkpt>
      <trkpt lat="45.25292" lon="2.74385">
        <ele>1062</ele>
        <time>2019-04-16T14:07:49Z</time>
      </trkpt>
      <trkpt lat="45.25318" lon="2.74385">
        <ele>1062</ele>
        <time>2019-04-16T14:08:49Z</time>
      </trkpt>
      <trkpt lat="45.25356" lon="2.74362">
        <ele>1060</ele>
        <time>2019-04-16T14:09:49Z</time>
      </trkpt>
      <trkpt lat="45.25378" lon="2.74355">
        <ele>1060</ele>
        <time>2019-04-16T14:10:49Z</time>
      </trkpt>
      <trkpt lat="45.25456" lon="2.74342">
        <ele>1061</ele>
        <time>2019-04-16T14:11:49Z</time>
      </trkpt>
      <trkpt lat="45.25504" lon="2.74314">
        <ele>1059</ele>
        <time>2019-04-16T14:12:49Z</time>
      </trkpt>
      <trkpt lat="45.2552" lon="2.7431">
        <ele>1059</ele>
        <time>2019-04-16T14:13:49Z</time>
      </trkpt>
      <trkpt lat="45.25531" lon="2.74313">
        <ele>1060</ele>
        <time>2019-04-16T14:14:49Z</time>
      </trkpt>
      <trkpt lat="45.25574" lon="2.74335">
        <ele>1063</ele>
        <time>2019-04-16T14:15:49Z</time>
      </trkpt>
      <trkpt lat="45.25598" lon="2.74331">
        <ele>1064</ele>
        <time>2019-04-16T14:16:49Z</time>
      </trkpt>
      <trkpt lat="45.25689" lon="2.74284">
        <ele>1062</ele>
        <time>2019-04-16T14:17:49Z</time>
      </trkpt>
      <trkpt lat="45.2573" lon="2.74259">
        <ele>1060</ele>
        <time>2019-04-16T14:18:49Z</time>
      </trkpt>
      <trkpt lat="45.25776" lon="2.7422">
        <ele>1055</ele>
        <time>2019-04-16T14:19:49Z</time>
      </trkpt>
      <trkpt lat="45.25799" lon="2.74209">
        <ele>1054</ele>
        <time>2019-04-16T14:20:49Z</time>
      </trkpt>
      <trkpt lat="45.25828" lon="2.74216">
        <ele>1055</ele>
        <time>2019-04-16T14:21:49Z</time>
      </trkpt>
      <trkpt lat="45.25847" lon="2.74233">
        <ele>1055</ele>
        <time>2019-04-16T14:22:49Z</time>
      </trkpt>
      <trkpt lat="45.25863" lon="2.74266">
        <ele>1055</ele>
        <time>2019-04-16T14:23:49Z</time>
      </trkpt>
      <trkpt lat="45.25872" lon="2.74315">
        <ele>1055</ele>
        <time>2019-04-16T14:24:49Z</time>
      </trkpt>
      <trkpt lat="45.2588" lon="2.74386">
        <ele>1057</ele>
        <time>2019-04-16T14:25:49Z</time>
      </trkpt>
      <trkpt lat="45.2589" lon="2.74422">
        <ele>1056</ele>
        <time>2019-04-16T14:26:49Z</time>
      </trkpt>
      <trkpt lat="45.25909" lon="2.74456">
        <ele>1056</ele>
        <time>2019-04-16T14:27:49Z</time>
      </trkpt>
      <trkpt lat="45.25929" lon="2.74483">
        <ele>1055</ele>
        <time>2019-04-16T14:28:49Z</time>
      </trkpt>
      <trkpt lat="45.25997" lon="2.74535">
        <ele>1046</ele>
        <time>2019-04-16T14:29:49Z</time>
      </trkpt>
      <trkpt lat="45.26014" lon="2.74558">
        <ele>1046</ele>
        <time>2019-04-16T14:30:49Z</time>
      </trkpt>
      <trkpt lat="45.26032" lon="2.74588">
        <ele>1045</ele>
        <time>2019-04-16T14:31:49Z</time>
      </trkpt>
      <trkpt lat="45.26055" lon="2.74693">
        <ele>1044</ele>
        <time>2019-04-16T14:32:49Z</time>
      </trkpt>
      <trkpt lat="45.2607" lon="2.74769">
        <ele>1038</ele>
        <time>2019-04-16T14:33:49Z</time>
      </trkpt>
      <trkpt lat="45.26116" lon="2.74973">
        <ele>1021</ele>
        <time>2019-04-16T14:34:49Z</time>
      </trkpt>
      <trkpt lat="45.26116" lon="2.75003">
        <ele>1019</ele>
        <time>2019-04-16T14:35:49Z</time>
      </trkpt>
      <trkpt lat="45.26109" lon="2.75034">
        <ele>1018</ele>
        <time>2019-04-16T14:36:49Z</time>
      </trkpt>
      <trkpt lat="45.261" lon="2.75061">
        <ele>1017</ele>
        <time>2019-04-16T14:37:49Z</time>
      </trkpt>
      <trkpt lat="45.26096" lon="2.75086">
        <ele>1015</ele>
        <time>2019-04-16T14:38:49Z</time>
      </trkpt>
      <trkpt lat="45.261" lon="2.75112">
        <ele>1015</ele>
        <time>2019-04-16T14:39:49Z</time>
      </trkpt>
      <trkpt lat="45.26108" lon="2.75126">
        <ele>1015</ele>
        <time>2019-04-16T14:40:49Z</time>
      </trkpt>
      <trkpt lat="45.26121" lon="2.75133">
        <ele>1015</ele>
        <time>2019-04-16T14:41:49Z</time>
      </trkpt>
      <trkpt lat="45.26236" lon="2.75151">
        <ele>1014</ele>
        <time>2019-04-16T14:42:49Z</time>
      </trkpt>
      <trkpt lat="45.26309" lon="2.75133">
        <ele>1012</ele>
        <time>2019-04-16T14:43:49Z</time>
      </trkpt>
      <trkpt lat="45.26357" lon="2.75119">
        <ele>1011</ele>
        <time>2019-04-16T14:44:49Z</time>
      </trkpt>
      <trkpt lat="45.26397" lon="2.7514">
        <ele>1015</ele>
        <time>2019-04-16T14:45:49Z</time>
      </trkpt>
      <trkpt lat="45.26433" lon="2.75165">
        <ele>1019</ele>
        <time>2019-04-16T14:46:49Z</time>
      </trkpt>
      <trkpt lat="45.26457" lon="2.75173">
        <ele>1020</ele>
        <time>2019-04-16T14:47:49Z</time>
      </trkpt>
      <trkpt lat="45.2655" lon="2.7517">
        <ele>1021</ele>
        <time>2019-04-16T14:48:49Z</time>
      </trkpt>
      <trkpt lat="45.2662" lon="2.75181">
        <ele>1021</ele>
        <time>2019-04-16T14:49:49Z</time>
      </trkpt>
      <trkpt lat="45.26661" lon="2.75193">
        <ele>1022</ele>
        <time>2019-04-16T14:50:49Z</time>
      </trkpt>
      <trkpt lat="45.26681" lon="2.75197">
        <ele>1024</ele>
        <time>2019-04-16T14:51:49Z</time>
      </trkpt>
      <trkpt lat="45.26693" lon="2.75196">
        <ele>1025</ele>
        <time>2019-04-16T14:52:49Z</time>
      </trkpt>
      <trkpt lat="45.2676" lon="2.75149">
        <ele>1027</ele>
        <time>2019-04-16T14:53:49Z</time>
      </trkpt>
      <trkpt lat="45.26799" lon="2.75139">
        <ele>1031</ele>
        <time>2019-04-16T14:54:49Z</time>
      </trkpt>
      <trkpt lat="45.26826" lon="2.75149">
        <ele>1034</ele>
        <time>2019-04-16T14:55:49Z</time>
      </trkpt>
      <trkpt lat="45.2687" lon="2.7519">
        <ele>1038</ele>
        <time>2019-04-16T14:56:49Z</time>
      </trkpt>
      <trkpt lat="45.26897" lon="2.75236">
        <ele>1039</ele>
        <time>2019-04-16T14:57:49Z</time>
      </trkpt>
      <trkpt lat="45.26916" lon="2.75249">
        <ele>1039</ele>
        <time>2019-04-16T14:58:49Z</time>
      </trkpt>
      <trkpt lat="45.26948" lon="2.75233">
        <ele>1037</ele>
        <time>2019-04-16T14:59:49Z</time>
      </trkpt>
      <trkpt lat="45.26991" lon="2.75198">
        <ele>1036</ele>
        <time>2019-04-16T15:00:49Z</time>
      </trkpt>
      <trkpt lat="45.27036" lon="2.75191">
        <ele>1035</ele>
        <time>2019-04-16T15:01:49Z</time>
      </trkpt>
      <trkpt lat="45.27081" lon="2.7518">
        <ele>1034</ele>
        <time>2019-04-16T15:02:49Z</time>
      </trkpt>
      <trkpt lat="45.27119" lon="2.75143">
        <ele>1033</ele>
        <time>2019-04-16T15:03:49Z</time>
      </trkpt>
      <trkpt lat="45.27161" lon="2.7509">
        <ele>1031</ele>
        <time>2019-04-16T15:04:49Z</time>
      </trkpt>
      <trkpt lat="45.27189" lon="2.75065">
        <ele>1030</ele>
        <time>2019-04-16T15:05:49Z</time>
      </trkpt>
      <trkpt lat="45.27258" lon="2.75029">
        <ele>1025</ele>
        <time>2019-04-16T15:06:49Z</time>
      </trkpt>
      <trkpt lat="45.27327" lon="2.75012">
        <ele>1023</ele>
        <time>2019-04-16T15:07:49Z</time>
      </trkpt>
      <trkpt lat="45.27385" lon="2.75012">
        <ele>1020</ele>
        <time>2019-04-16T15:08:49Z</time>
      </trkpt>
      <trkpt lat="45.27432" lon="2.75033">
        <ele>1020</ele>
        <time>2019-04-16T15:09:49Z</time>
      </trkpt>
      <trkpt lat="45.27462" lon="2.7504">
        <ele>1020</ele>
        <time>2019-04-16T15:10:49Z</time>
      </trkpt>
      <trkpt lat="45.27502" lon="2.75021">
        <ele>1016</ele>
        <time>2019-04-16T15:11:49Z</time>
      </trkpt>
      <trkpt lat="45.27542" lon="2.75019">
        <ele>1014</ele>
        <time>2019-04-16T15:12:49Z</time>
      </trkpt>
      <trkpt lat="45.27588" lon="2.75034">
        <ele>1013</ele>
        <time>2019-04-16T15:13:49Z</time>
      </trkpt>
      <trkpt lat="45.2763" lon="2.75056">
        <ele>1010</ele>
        <time>2019-04-16T15:14:49Z</time>
      </trkpt>
      <trkpt lat="45.27661" lon="2.75085">
        <ele>1009</ele>
        <time>2019-04-16T15:15:49Z</time>
      </trkpt>
      <trkpt lat="45.27772" lon="2.75174">
        <ele>1005</ele>
        <time>2019-04-16T15:16:49Z</time>
      </trkpt>
      <trkpt lat="45.27965" lon="2.75335">
        <ele>1004</ele>
        <time>2019-04-16T15:17:49Z</time>
      </trkpt>
      <trkpt lat="45.2807" lon="2.75394">
        <ele>1005</ele>
        <time>2019-04-16T15:18:49Z</time>
      </trkpt>
      <trkpt lat="45.28145" lon="2.75445">
        <ele>1005</ele>
        <time>2019-04-16T15:19:49Z</time>
      </trkpt>
      <trkpt lat="45.28334" lon="2.75682">
        <ele>998</ele>
        <time>2019-04-16T15:20:49Z</time>
      </trkpt>
      <trkpt lat="45.28351" lon="2.75696">
        <ele>999</ele>
        <time>2019-04-16T15:21:49Z</time>
      </trkpt>
      <trkpt lat="45.28372" lon="2.75699">
        <ele>999</ele>
        <time>2019-04-16T15:22:49Z</time>
      </trkpt>
      <trkpt lat="45.28415" lon="2.75655">
        <ele>998</ele>
        <time>2019-04-16T15:23:49Z</time>
      </trkpt>
      <trkpt lat="45.28439" lon="2.75636">
        <ele>1000</ele>
        <time>2019-04-16T15:24:49Z</time>
      </trkpt>
      <trkpt lat="45.28462" lon="2.75642">
        <ele>1001</ele>
        <time>2019-04-16T15:25:49Z</time>
      </trkpt>
      <trkpt lat="45.28529" lon="2.75687">
        <ele>1003</ele>
        <time>2019-04-16T15:26:49Z</time>
      </trkpt>
      <trkpt lat="45.28556" lon="2.75727">
        <ele>1003</ele>
        <time>2019-04-16T15:27:49Z</time>
      </trkpt>
      <trkpt lat="45.28596" lon="2.75773">
        <ele>1003</ele>
        <time>2019-04-16T15:28:49Z</time>
      </trkpt>
      <trkpt lat="45.28681" lon="2.75815">
        <ele>1004</ele>
        <time>2019-04-16T15:29:49Z</time>
      </trkpt>
      <trkpt lat="45.28723" lon="2.75845">
        <ele>1005</ele>
        <time>2019-04-16T15:30:49Z</time>
      </trkpt>
      <trkpt lat="45.28754" lon="2.75876">
        <ele>1006</ele>
        <time>2019-04-16T15:31:49Z</time>
      </trkpt>
      <trkpt lat="45.28784" lon="2.75873">
        <ele>1005</ele>
        <time>2019-04-16T15:32:49Z</time>
      </trkpt>
      <trkpt lat="45.28795" lon="2.75876">
        <ele>1005</ele>
        <time>2019-04-16T15:33:49Z</time>
      </trkpt>
      <trkpt lat="45.28822" lon="2.75905">
        <ele>1006</ele>
        <time>2019-04-16T15:34:49Z</time>
      </trkpt>
      <trkpt lat="45.28839" lon="2.75954">
        <ele>1006</ele>
        <time>2019-04-16T15:35:49Z</time>
      </trkpt>
      <trkpt lat="45.28837" lon="2.7601">
        <ele>1007</ele>
        <time>2019-04-16T15:36:49Z</time>
      </trkpt>
      <trkpt lat="45.2883" lon="2.76056">
        <ele>1009</ele>
        <time>2019-04-16T15:37:49Z</time>
      </trkpt>
      <trkpt lat="45.28828" lon="2.76113">
        <ele>1010</ele>
        <time>2019-04-16T15:38:49Z</time>
      </trkpt>
      <trkpt lat="45.28837" lon="2.76148">
        <ele>1009</ele>
        <time>2019-04-16T15:39:49Z</time>
      </trkpt>
      <trkpt lat="45.2885" lon="2.76181">
        <ele>1007</ele>
        <time>2019-04-16T15:40:49Z</time>
      </trkpt>
      <trkpt lat="45.28869" lon="2.76229">
        <ele>1005</ele>
        <time>2019-04-16T15:41:49Z</time>
      </trkpt>
      <trkpt lat="45.28875" lon="2.76229">
        <ele>1004</ele>
        <time>2019-04-16T15:42:49Z</time>
      </trkpt>
      <trkpt lat="45.2888" lon="2.76238">
        <ele>1003</ele>
        <time>2019-04-16T15:43:49Z</time>
      </trkpt>
      <trkpt lat="45.28903" lon="2.76299">
        <ele>1001</ele>
        <time>2019-04-16T15:44:49Z</time>
      </trkpt>
      <trkpt lat="45.28912" lon="2.76316">
        <ele>1000</ele>
        <time>2019-04-16T15:45:49Z</time>
      </trkpt>
      <trkpt lat="45.28926" lon="2.76332">
        <ele>999</ele>
        <time>2019-04-16T15:46:49Z</time>
      </trkpt>
      <trkpt lat="45.28988" lon="2.76358">
        <ele>994</ele>
        <time>2019-04-16T15:47:49Z</time>
      </trkpt>
      <trkpt lat="45.29096" lon="2.76397">
        <ele>986</ele>
        <time>2019-04-16T15:48:49Z</time>
      </trkpt>
      <trkpt lat="45.29115" lon="2.76396">
        <ele>983</ele>
        <time>2019-04-16T15:49:49Z</time>
      </trkpt>
      <trkpt lat="45.29192" lon="2.7636">
        <ele>980</ele>
        <time>2019-04-16T15:50:49Z</time>
      </trkpt>
      <trkpt lat="45.29213" lon="2.76355">
        <ele>979</ele>
        <time>2019-04-16T15:51:49Z</time>
      </trkpt>
      <trkpt lat="45.29288" lon="2.76347">
        <ele>972</ele>
        <time>2019-04-16T15:52:49Z</time>
      </trkpt>
      <trkpt lat="45.29307" lon="2.76338">
        <ele>972</ele>
        <time>2019-04-16T15:53:49Z</time>
      </trkpt>
      <trkpt lat="45.29348" lon="2.76303">
        <ele>975</ele>
        <time>2019-04-16T15:54:49Z</time>
      </trkpt>
      <trkpt lat="45.29368" lon="2.76297">
        <ele>975</ele>
        <time>2019-04-16T15:55:49Z</time>
      </trkpt>
      <trkpt lat="45.29445" lon="2.76311">
        <ele>967</ele>
        <time>2019-04-16T15:56:49Z</time>
      </trkpt>
      <trkpt lat="45.29468" lon="2.76317">
        <ele>965</ele>
        <time>2019-04-16T15:57:49Z</time>
      </trkpt>
      <trkpt lat="45.29487" lon="2.76318">
        <ele>964</ele>
        <time>2019-04-16T15:58:49Z</time>
      </trkpt>
      <trkpt lat="45.29535" lon="2.76312">
        <ele>965</ele>
        <time>2019-04-16T15:59:49Z</time>
      </trkpt>
      <trkpt lat="45.29572" lon="2.76316">
        <ele>963</ele>
        <time>2019-04-16T16:00:49Z</time>
      </trkpt>
      <trkpt lat="45.29584" lon="2.76321">
        <ele>962</ele>
        <time>2019-04-16T16:01:49Z</time>
      </trkpt>
      <trkpt lat="45.29591" lon="2.76331">
        <ele>961</ele>
        <time>2019-04-16T16:02:49Z</time>
      </trkpt>
      <trkpt lat="45.29595" lon="2.76348">
        <ele>957</ele>
        <time>2019-04-16T16:03:49Z</time>
      </trkpt>
      <trkpt lat="45.29606" lon="2.76379">
        <ele>950</ele>
        <time>2019-04-16T16:04:49Z</time>
      </trkpt>
      <trkpt lat="45.29616" lon="2.76392">
        <ele>948</ele>
        <time>2019-04-16T16:05:49Z</time>
      </trkpt>
      <trkpt lat="45.29639" lon="2.76404">
        <ele>946</ele>
        <time>2019-04-16T16:06:49Z</time>
      </trkpt>
      <trkpt lat="45.29677" lon="2.76432">
        <ele>942</ele>
        <time>2019-04-16T16:07:49Z</time>
      </trkpt>
      <trkpt lat="45.29728" lon="2.76482">
        <ele>936</ele>
        <time>2019-04-16T16:08:49Z</time>
      </trkpt>
      <trkpt lat="45.29745" lon="2.76495">
        <ele>935</ele>
        <time>2019-04-16T16:09:49Z</time>
      </trkpt>
      <trkpt lat="45.29763" lon="2.76498">
        <ele>935</ele>
        <time>2019-04-16T16:10:49Z</time>
      </trkpt>
      <trkpt lat="45.29811" lon="2.76475">
        <ele>942</ele>
        <time>2019-04-16T16:11:49Z</time>
      </trkpt>
      <trkpt lat="45.29826" lon="2.76471">
        <ele>944</ele>
        <time>2019-04-16T16:12:49Z</time>
      </trkpt>
      <trkpt lat="45.29851" lon="2.76469">
        <ele>947</ele>
        <time>2019-04-16T16:13:49Z</time>
      </trkpt>
      <trkpt lat="45.2986" lon="2.7647">
        <ele>948</ele>
        <time>2019-04-16T16:14:49Z</time>
      </trkpt>
      <trkpt lat="45.29864" lon="2.76474">
        <ele>947</ele>
        <time>2019-04-16T16:15:49Z</time>
      </trkpt>
      <trkpt lat="45.29867" lon="2.76481">
        <ele>946</ele>
        <time>2019-04-16T16:16:49Z</time>
      </trkpt>
      <trkpt lat="45.29869" lon="2.76503">
        <ele>941</ele>
        <time>2019-04-16T16:17:49Z</time>
      </trkpt>
      <trkpt lat="45.29855" lon="2.76563">
        <ele>928</ele>
        <time>2019-04-16T16:18:49Z</time>
      </trkpt>
      <trkpt lat="45.29854" lon="2.76591">
        <ele>922</ele>
        <time>2019-04-16T16:19:49Z</time>
      </trkpt>
      <trkpt lat="45.29859" lon="2.76607">
        <ele>919</ele>
        <time>2019-04-16T16:20:49Z</time>
      </trkpt>
      <trkpt lat="45.29885" lon="2.76642">
        <ele>917</ele>
        <time>2019-04-16T16:21:49Z</time>
      </trkpt>
      <trkpt lat="45.29924" lon="2.76679">
        <ele>914</ele>
        <time>2019-04-16T16:22:49Z</time>
      </trkpt>
      <trkpt lat="45.29982" lon="2.76708">
        <ele>906</ele>
        <time>2019-04-16T16:23:49Z</time>
      </trkpt>
      <trkpt lat="45.29995" lon="2.7671">
        <ele>906</ele>
        <time>2019-04-16T16:24:49Z</time>
      </trkpt>
      <trkpt lat="45.30007" lon="2.76704">
        <ele>906</ele>
        <time>2019-04-16T16:25:49Z</time>
      </trkpt>
      <trkpt lat="45.30026" lon="2.76668">
        <ele>910</ele>
        <time>2019-04-16T16:26:49Z</time>
      </trkpt>
      <trkpt lat="45.30038" lon="2.76655">
        <ele>910</ele>
        <time>2019-04-16T16:27:49Z</time>
      </trkpt>
      <trkpt lat="45.30052" lon="2.76651">
        <ele>908</ele>
        <time>2019-04-16T16:28:49Z</time>
      </trkpt>
      <trkpt lat="45.30096" lon="2.76668">
        <ele>900</ele>
        <time>2019-04-16T16:29:49Z</time>
      </trkpt>
      <trkpt lat="45.30123" lon="2.76682">
        <ele>893</ele>
        <time>2019-04-16T16:30:49Z</time>
      </trkpt>
      <trkpt lat="45.30142" lon="2.76682">
        <ele>892</ele>
        <time>2019-04-16T16:31:49Z</time>
      </trkpt>
      <trkpt lat="45.30157" lon="2.76672">
        <ele>893</ele>
        <time>2019-04-16T16:32:49Z</time>
      </trkpt>
      <trkpt lat="45.30236" lon="2.76601">
        <ele>896</ele>
        <time>2019-04-16T16:33:49Z</time>
      </trkpt>
      <trkpt lat="45.30246" lon="2.76593">
        <ele>897</ele>
        <time>2019-04-16T16:34:49Z</time>
      </trkpt>
      <trkpt lat="45.30255" lon="2.76596">
        <ele>896</ele>
        <time>2019-04-16T16:35:49Z</time>
      </trkpt>
      <trkpt lat="45.3027" lon="2.76616">
        <ele>891</ele>
        <time>2019-04-16T16:36:49Z</time>
      </trkpt>
      <trkpt lat="45.30287" lon="2.76628">
        <ele>887</ele>
        <time>2019-04-16T16:37:49Z</time>
      </trkpt>
      <trkpt lat="45.30314" lon="2.76631">
        <ele>886</ele>
        <time>2019-04-16T16:38:49Z</time>
      </trkpt>
      <trkpt lat="45.30341" lon="2.76617">
        <ele>887</ele>
        <time>2019-04-16T16:39:49Z</time>
      </trkpt>
      <trkpt lat="45.30356" lon="2.76597">
        <ele>888</ele>
        <time>2019-04-16T16:40:49Z</time>
      </trkpt>
      <trkpt lat="45.30386" lon="2.76565">
        <ele>886</ele>
        <time>2019-04-16T16:41:49Z</time>
      </trkpt>
      <trkpt lat="45.30429" lon="2.76526">
        <ele>881</ele>
        <time>2019-04-16T16:42:49Z</time>
      </trkpt>
      <trkpt lat="45.30443" lon="2.76508">
        <ele>879</ele>
        <time>2019-04-16T16:43:49Z</time>
      </trkpt>
      <trkpt lat="45.30443" lon="2.76466">
        <ele>887</ele>
        <time>2019-04-16T16:44:49Z</time>
      </trkpt>
      <trkpt lat="45.30451" lon="2.76457">
        <ele>884</ele>
        <time>2019-04-16T16:45:49Z</time>
      </trkpt>
      <trkpt lat="45.30473" lon="2.76445">
        <ele>875</ele>
        <time>2019-04-16T16:46:49Z</time>
      </trkpt>
      <trkpt lat="45.30481" lon="2.76434">
        <ele>873</ele>
        <time>2019-04-16T16:47:49Z</time>
      </trkpt>
      <trkpt lat="45.30487" lon="2.76404">
        <ele>875</ele>
        <time>2019-04-16T16:48:49Z</time>
      </trkpt>
      <trkpt lat="45.30488" lon="2.7638">
        <ele>877</ele>
        <time>2019-04-16T16:49:49Z</time>
      </trkpt>
      <trkpt lat="45.30495" lon="2.76362">
        <ele>877</ele>
        <time>2019-04-16T16:50:49Z</time>
      </trkpt>
      <trkpt lat="45.30529" lon="2.76305">
        <ele>875</ele>
        <time>2019-04-16T16:51:49Z</time>
      </trkpt>
      <trkpt lat="45.30547" lon="2.76259">
        <ele>880</ele>
        <time>2019-04-16T16:52:49Z</time>
      </trkpt>
      <trkpt lat="45.30559" lon="2.76246">
        <ele>880</ele>
        <time>2019-04-16T16:53:49Z</time>
      </trkpt>
      <trkpt lat="45.30576" lon="2.76246">
        <ele>875</ele>
        <time>2019-04-16T16:54:49Z</time>
      </trkpt>
      <trkpt lat="45.30607" lon="2.76252">
        <ele>873</ele>
        <time>2019-04-16T16:55:49Z</time>
      </trkpt>
      <trkpt lat="45.3062" lon="2.76263">
        <ele>871</ele>
        <time>2019-04-16T16:56:49Z</time>
      </trkpt>
      <trkpt lat="45.30623" lon="2.76274">
        <ele>868</ele>
        <time>2019-04-16T16:57:49Z</time>
      </trkpt>
      <trkpt lat="45.30622" lon="2.76327">
        <ele>853</ele>
        <time>2019-04-16T16:58:49Z</time>
      </trkpt>
      <trkpt lat="45.30628" lon="2.76335">
        <ele>851</ele>
        <time>2019-04-16T16:59:49Z</time>
      </trkpt>
      <trkpt lat="45.30648" lon="2.76327">
        <ele>854</ele>
        <time>2019-04-16T17:00:49Z</time>
      </trkpt>
      <trkpt lat="45.30665" lon="2.76326">
        <ele>855</ele>
        <time>2019-04-16T17:01:49Z</time>
      </trkpt>
      <trkpt lat="45.30687" lon="2.76337">
        <ele>855</ele>
        <time>2019-04-16T17:02:49Z</time>
      </trkpt>
      <trkpt lat="45.30712" lon="2.76363">
        <ele>850</ele>
        <time>2019-04-16T17:03:49Z</time>
      </trkpt>
      <trkpt lat="45.30726" lon="2.76367">
        <ele>851</ele>
        <time>2019-04-16T17:04:49Z</time>
      </trkpt>
      <trkpt lat="45.30746" lon="2.76369">
        <ele>854</ele>
        <time>2019-04-16T17:05:49Z</time>
      </trkpt>
      <trkpt lat="45.30771" lon="2.76393">
        <ele>851</ele>
        <time>2019-04-16T17:06:49Z</time>
      </trkpt>
      <trkpt lat="45.3078" lon="2.76407">
        <ele>849</ele>
        <time>2019-04-16T17:07:49Z</time>
      </trkpt>
      <trkpt lat="45.30784" lon="2.76426">
        <ele>843</ele>
        <time>2019-04-16T17:08:49Z</time>
      </trkpt>
      <trkpt lat="45.30782" lon="2.76489">
        <ele>821</ele>
        <time>2019-04-16T17:09:49Z</time>
      </trkpt>
      <trkpt lat="45.30786" lon="2.76499">
        <ele>818</ele>
        <time>2019-04-16T17:10:49Z</time>
      </trkpt>
      <trkpt lat="45.30793" lon="2.76502">
        <ele>818</ele>
        <time>2019-04-16T17:11:49Z</time>
      </trkpt>
      <trkpt lat="45.30809" lon="2.76501">
        <ele>821</ele>
        <time>2019-04-16T17:12:49Z</time>
      </trkpt>
      <trkpt lat="45.3085" lon="2.76484">
        <ele>831</ele>
        <time>2019-04-16T17:13:49Z</time>
      </trkpt>
      <trkpt lat="45.30878" lon="2.7647">
        <ele>835</ele>
        <time>2019-04-16T17:14:49Z</time>
      </trkpt>
      <trkpt lat="45.30908" lon="2.76476">
        <ele>830</ele>
        <time>2019-04-16T17:15:49Z</time>
      </trkpt>
      <trkpt lat="45.30926" lon="2.76473">
        <ele>832</ele>
        <time>2019-04-16T17:16:49Z</time>
      </trkpt>
      <trkpt lat="45.30938" lon="2.76467">
        <ele>836</ele>
        <time>2019-04-16T17:17:49Z</time>
      </trkpt>
      <trkpt lat="45.30943" lon="2.76467">
        <ele>837</ele>
        <time>2019-04-16T17:18:49Z</time>
      </trkpt>
      <trkpt lat="45.30949" lon="2.76471">
        <ele>836</ele>
        <time>2019-04-16T17:19:49Z</time>
      </trkpt>
      <trkpt lat="45.30952" lon="2.76477">
        <ele>834</ele>
        <time>2019-04-16T17:20:49Z</time>
      </trkpt>
      <trkpt lat="45.30954" lon="2.76525">
        <ele>817</ele>
        <time>2019-04-16T17:21:49Z</time>
      </trkpt>
      <trkpt lat="45.30959" lon="2.76541">
        <ele>813</ele>
        <time>2019-04-16T17:22:49Z</time>
      </trkpt>
      <trkpt lat="45.31014" lon="2.76572">
        <ele>817</ele>
        <time>2019-04-16T17:23:49Z</time>
      </trkpt>
      <trkpt lat="45.31024" lon="2.76584">
        <ele>817</ele>
        <time>2019-04-16T17:24:49Z</time>
      </trkpt>
      <trkpt lat="45.3104" lon="2.76621">
        <ele>811</ele>
        <time>2019-04-16T17:25:49Z</time>
      </trkpt>
      <trkpt lat="45.31051" lon="2.76632">
        <ele>811</ele>
        <time>2019-04-16T17:26:49Z</time>
      </trkpt>
      <trkpt lat="45.31072" lon="2.76641">
        <ele>814</ele>
        <time>2019-04-16T17:27:49Z</time>
      </trkpt>
      <trkpt lat="45.31091" lon="2.76662">
        <ele>811</ele>
        <time>2019-04-16T17:28:49Z</time>
      </trkpt>
      <trkpt lat="45.31121" lon="2.76712">
        <ele>800</ele>
        <time>2019-04-16T17:29:49Z</time>
      </trkpt>
      <trkpt lat="45.31131" lon="2.76717">
        <ele>800</ele>
        <time>2019-04-16T17:30:49Z</time>
      </trkpt>
      <trkpt lat="45.3114" lon="2.76711">
        <ele>802</ele>
        <time>2019-04-16T17:31:49Z</time>
      </trkpt>
      <trkpt lat="45.3117" lon="2.7668">
        <ele>815</ele>
        <time>2019-04-16T17:32:49Z</time>
      </trkpt>
      <trkpt lat="45.31185" lon="2.76675">
        <ele>816</ele>
        <time>2019-04-16T17:33:49Z</time>
      </trkpt>
      <trkpt lat="45.31309" lon="2.76706">
        <ele>796</ele>
        <time>2019-04-16T17:34:49Z</time>
      </trkpt>
      <trkpt lat="45.31338" lon="2.76704">
        <ele>796</ele>
        <time>2019-04-16T17:35:49Z</time>
      </trkpt>
      <trkpt lat="45.31397" lon="2.76713">
        <ele>795</ele>
        <time>2019-04-16T17:36:49Z</time>
      </trkpt>
      <trkpt lat="45.31407" lon="2.76723">
        <ele>792</ele>
        <time>2019-04-16T17:37:49Z</time>
      </trkpt>
      <trkpt lat="45.31429" lon="2.76756">
        <ele>787</ele>
        <time>2019-04-16T17:38:49Z</time>
      </trkpt>
      <trkpt lat="45.31481" lon="2.76809">
        <ele>790</ele>
        <time>2019-04-16T17:39:49Z</time>
      </trkpt>
      <trkpt lat="45.31496" lon="2.7684">
        <ele>791</ele>
        <time>2019-04-16T17:40:49Z</time>
      </trkpt>
      <trkpt lat="45.31544" lon="2.76768">
        <ele>791</ele>
        <time>2019-04-16T17:41:49Z</time>
      </trkpt>
      <trkpt lat="45.31552" lon="2.76758">
        <ele>789</ele>
        <time>2019-04-16T17:42:49Z</time>
      </trkpt>
      <trkpt lat="45.31568" lon="2.76754">
        <ele>787</ele>
        <time>2019-04-16T17:43:49Z</time>
      </trkpt>
      <trkpt lat="45.31633" lon="2.76767">
        <ele>787</ele>
        <time>2019-04-16T17:44:49Z</time>
      </trkpt>
      <trkpt lat="45.3169" lon="2.76801">
        <ele>793</ele>
        <time>2019-04-16T17:45:49Z</time>
      </trkpt>
      <trkpt lat="45.31739" lon="2.76847">
        <ele>798</ele>
        <time>2019-04-16T17:46:49Z</time>
      </trkpt>
      <trkpt lat="45.3175" lon="2.76853">
        <ele>799</ele>
        <time>2019-04-16T17:47:49Z</time>
      </trkpt>
      <trkpt lat="45.31774" lon="2.76857">
        <ele>801</ele>
        <time>2019-04-16T17:48:49Z</time>
      </trkpt>
      <trkpt lat="45.31785" lon="2.76856">
        <ele>801</ele>
        <time>2019-04-16T17:49:49Z</time>
      </trkpt>
      <trkpt lat="45.31831" lon="2.76827">
        <ele>794</ele>
        <time>2019-04-16T17:50:49Z</time>
      </trkpt>
      <trkpt lat="45.31848" lon="2.76821">
        <ele>791</ele>
        <time>2019-04-16T17:51:49Z</time>
      </trkpt>
      <trkpt lat="45.31872" lon="2.76827">
        <ele>792</ele>
        <time>2019-04-16T17:52:49Z</time>
      </trkpt>
      <trkpt lat="45.31919" lon="2.76865">
        <ele>797</ele>
        <time>2019-04-16T17:53:49Z</time>
      </trkpt>
      <trkpt lat="45.31945" lon="2.76876">
        <ele>798</ele>
        <time>2019-04-16T17:54:49Z</time>
      </trkpt>
      <trkpt lat="45.32103" lon="2.7689">
        <ele>801</ele>
        <time>2019-04-16T17:55:49Z</time>
      </trkpt>
      <trkpt lat="45.32125" lon="2.76895">
        <ele>802</ele>
        <time>2019-04-16T17:56:49Z</time>
      </trkpt>
      <trkpt lat="45.32144" lon="2.76906">
        <ele>804</ele>
        <time>2019-04-16T17:57:49Z</time>
      </trkpt>
      <trkpt lat="45.32161" lon="2.76921">
        <ele>806</ele>
        <time>2019-04-16T17:58:49Z</time>
      </trkpt>
      <trkpt lat="45.32206" lon="2.76976">
        <ele>806</ele>
        <time>2019-04-16T17:59:49Z</time>
      </trkpt>
      <trkpt lat="45.32216" lon="2.76996">
        <ele>805</ele>
        <time>2019-04-16T18:00:49Z</time>
      </trkpt>
      <trkpt lat="45.32249" lon="2.77033">
        <ele>805</ele>
        <time>2019-04-16T18:01:49Z</time>
      </trkpt>
      <trkpt lat="45.32287" lon="2.77047">
        <ele>805</ele>
        <time>2019-04-16T18:02:49Z</time>
      </trkpt>
      <trkpt lat="45.32312" lon="2.77044">
        <ele>804</ele>
        <time>2019-04-16T18:03:49Z</time>
      </trkpt>
      <trkpt lat="45.32426" lon="2.77">
        <ele>808</ele>
        <time>2019-04-16T18:04:49Z</time>
      </trkpt>
      <trkpt lat="45.32454" lon="2.76987">
        <ele>809</ele>
        <time>2019-04-16T18:05:49Z</time>
      </trkpt>
      <trkpt lat="45.32489" lon="2.76959">
        <ele>808</ele>
        <time>2019-04-16T18:06:49Z</time>
      </trkpt>
      <trkpt lat="45.32502" lon="2.76952">
        <ele>808</ele>
        <time>2019-04-16T18:07:49Z</time>
      </trkpt>
      <trkpt lat="45.32537" lon="2.76949">
        <ele>807</ele>
        <time>2019-04-16T18:08:49Z</time>
      </trkpt>
      <trkpt lat="45.32552" lon="2.76951">
        <ele>807</ele>
        <time>2019-04-16T18:09:49Z</time>
      </trkpt>
      <trkpt lat="45.32559" lon="2.76957">
        <ele>808</ele>
        <time>2019-04-16T18:10:49Z</time>
      </trkpt>
      <trkpt lat="45.32574" lon="2.76982">
        <ele>812</ele>
        <time>2019-04-16T18:11:49Z</time>
      </trkpt>
      <trkpt lat="45.32591" lon="2.76986">
        <ele>811</ele>
        <time>2019-04-16T18:12:49Z</time>
      </trkpt>
      <trkpt lat="45.32717" lon="2.77003">
        <ele>808</ele>
        <time>2019-04-16T18:13:49Z</time>
      </trkpt>
      <trkpt lat="45.32737" lon="2.7701">
        <ele>810</ele>
        <time>2019-04-16T18:14:49Z</time>
      </trkpt>
      <trkpt lat="45.32757" lon="2.77024">
        <ele>812</ele>
        <time>2019-04-16T18:15:49Z</time>
      </trkpt>
      <trkpt lat="45.32841" lon="2.77128">
        <ele>816</ele>
        <time>2019-04-16T18:16:49Z</time>
      </trkpt>
      <trkpt lat="45.32864" lon="2.77148">
        <ele>813</ele>
        <time>2019-04-16T18:17:49Z</time>
      </trkpt>
      <trkpt lat="45.32889" lon="2.77164">
        <ele>809</ele>
        <time>2019-04-16T18:18:49Z</time>
      </trkpt>
      <trkpt lat="45.3291" lon="2.7717">
        <ele>803</ele>
        <time>2019-04-16T18:19:49Z</time>
      </trkpt>
      <trkpt lat="45.32933" lon="2.77169">
        <ele>799</ele>
        <time>2019-04-16T18:20:49Z</time>
      </trkpt>
      <trkpt lat="45.3298" lon="2.77158">
        <ele>792</ele>
        <time>2019-04-16T18:21:49Z</time>
      </trkpt>
      <trkpt lat="45.33131" lon="2.77111">
        <ele>783</ele>
        <time>2019-04-16T18:22:49Z</time>
      </trkpt>
      <trkpt lat="45.33159" lon="2.77106">
        <ele>782</ele>
        <time>2019-04-16T18:23:49Z</time>
      </trkpt>
      <trkpt lat="45.33187" lon="2.7711">
        <ele>781</ele>
        <time>2019-04-16T18:24:49Z</time>
      </trkpt>
      <trkpt lat="45.33291" lon="2.77154">
        <ele>778</ele>
        <time>2019-04-16T18:25:49Z</time>
      </trkpt>
      <trkpt lat="45.33324" lon="2.77165">
        <ele>775</ele>
        <time>2019-04-16T18:26:49Z</time>
      </trkpt>
      <trkpt lat="45.33356" lon="2.77166">
        <ele>774</ele>
        <time>2019-04-16T18:27:49Z</time>
      </trkpt>
      <trkpt lat="45.33386" lon="2.77157">
        <ele>773</ele>
        <time>2019-04-16T18:28:49Z</time>
      </trkpt>
      <trkpt lat="45.33413" lon="2.77144">
        <ele>771</ele>
        <time>2019-04-16T18:29:49Z</time>
      </trkpt>
      <trkpt lat="45.33438" lon="2.7712">
        <ele>768</ele>
        <time>2019-04-16T18:30:49Z</time>
      </trkpt>
      <trkpt lat="45.33559" lon="2.76938">
        <ele>753</ele>
        <time>2019-04-16T18:31:49Z</time>
      </trkpt>
      <trkpt lat="45.33575" lon="2.76905">
        <ele>752</ele>
        <time>2019-04-16T18:32:49Z</time>
      </trkpt>
      <trkpt lat="45.33588" lon="2.76864">
        <ele>753</ele>
        <time>2019-04-16T18:33:49Z</time>
      </trkpt>
      <trkpt lat="45.33593" lon="2.76837">
        <ele>753</ele>
        <time>2019-04-16T18:34:49Z</time>
      </trkpt>
      <trkpt lat="45.33596" lon="2.76799">
        <ele>753</ele>
        <time>2019-04-16T18:35:49Z</time>
      </trkpt>
      <trkpt lat="45.33602" lon="2.7677">
        <ele>752</ele>
        <time>2019-04-16T18:36:49Z</time>
      </trkpt>
      <trkpt lat="45.33612" lon="2.76746">
        <ele>750</ele>
        <time>2019-04-16T18:37:49Z</time>
      </trkpt>
      <trkpt lat="45.33665" lon="2.76658">
        <ele>743</ele>
        <time>2019-04-16T18:38:49Z</time>
      </trkpt>
      <trkpt lat="45.3368" lon="2.76625">
        <ele>743</ele>
        <time>2019-04-16T18:39:49Z</time>
      </trkpt>
      <trkpt lat="45.33722" lon="2.76511">
        <ele>736</ele>
        <time>2019-04-16T18:40:49Z</time>
      </trkpt>
      <trkpt lat="45.33729" lon="2.76489">
        <ele>733</ele>
        <time>2019-04-16T18:41:49Z</time>
      </trkpt>
      <trkpt lat="45.33725" lon="2.76462">
        <ele>733</ele>
        <time>2019-04-16T18:42:49Z</time>
      </trkpt>
      <trkpt lat="45.33707" lon="2.76414">
        <ele>734</ele>
        <time>2019-04-16T18:43:49Z</time>
      </trkpt>
      <trkpt lat="45.33691" lon="2.76388">
        <ele>734</ele>
        <time>2019-04-16T18:44:49Z</time>
      </trkpt>
      <trkpt lat="45.33655" lon="2.76354">
        <ele>736</ele>
        <time>2019-04-16T18:45:49Z</time>
      </trkpt>
      <trkpt lat="45.33642" lon="2.76315">
        <ele>734</ele>
        <time>2019-04-16T18:46:49Z</time>
      </trkpt>
      <trkpt lat="45.33646" lon="2.76272">
        <ele>730</ele>
        <time>2019-04-16T18:47:49Z</time>
      </trkpt>
      <trkpt lat="45.33673" lon="2.76151">
        <ele>717</ele>
        <time>2019-04-16T18:48:49Z</time>
      </trkpt>
      <trkpt lat="45.33669" lon="2.76121">
        <ele>714</ele>
        <time>2019-04-16T18:49:49Z</time>
      </trkpt>
      <trkpt lat="45.33655" lon="2.761">
        <ele>712</ele>
        <time>2019-04-16T18:50:49Z</time>
      </trkpt>
      <trkpt lat="45.3362" lon="2.76085">
        <ele>715</ele>
        <time>2019-04-16T18:51:49Z</time>
      </trkpt>
      <trkpt lat="45.33619" lon="2.76068">
        <ele>714</ele>
        <time>2019-04-16T18:52:49Z</time>
      </trkpt>
      <trkpt lat="45.33621" lon="2.76052">
        <ele>712</ele>
        <time>2019-04-16T18:53:49Z</time>
      </trkpt>
      <trkpt lat="45.33641" lon="2.76056">
        <ele>709</ele>
        <time>2019-04-16T18:54:49Z</time>
      </trkpt>
      <trkpt lat="45.33682" lon="2.76103">
        <ele>709</ele>
        <time>2019-04-16T18:55:49Z</time>
      </trkpt>
      <trkpt lat="45.3369" lon="2.76131">
        <ele>712</ele>
        <time>2019-04-16T18:56:49Z</time>
      </trkpt>
      <trkpt lat="45.33693" lon="2.76162">
        <ele>715</ele>
        <time>2019-04-16T18:57:49Z</time>
      </trkpt>
      <trkpt lat="45.33699" lon="2.76182">
        <ele>715</ele>
        <time>2019-04-16T18:58:49Z</time>
      </trkpt>
      <trkpt lat="45.33708" lon="2.76199">
        <ele>714</ele>
        <time>2019-04-16T18:59:49Z</time>
      </trkpt>
      <trkpt lat="45.33762" lon="2.7624">
        <ele>709</ele>
        <time>2019-04-16T19:00:49Z</time>
      </trkpt>
      <trkpt lat="45.33779" lon="2.76255">
        <ele>708</ele>
        <time>2019-04-16T19:01:49Z</time>
      </trkpt>
      <trkpt lat="45.33795" lon="2.7626">
        <ele>707</ele>
        <time>2019-04-16T19:02:49Z</time>
      </trkpt>
      <trkpt lat="45.33807" lon="2.76256">
        <ele>706</ele>
        <time>2019-04-16T19:03:49Z</time>
      </trkpt>
      <trkpt lat="45.33837" lon="2.76216">
        <ele>704</ele>
        <time>2019-04-16T19:04:49Z</time>
      </trkpt>
      <trkpt lat="45.33849" lon="2.76206">
        <ele>705</ele>
        <time>2019-04-16T19:05:49Z</time>
      </trkpt>
      <trkpt lat="45.33853" lon="2.7621">
        <ele>705</ele>
        <time>2019-04-16T19:06:49Z</time>
      </trkpt>
      <trkpt lat="45.33858" lon="2.76211">
        <ele>705</ele>
        <time>2019-04-16T19:07:49Z</time>
      </trkpt>
      <trkpt lat="45.33863" lon="2.76208">
        <ele>706</ele>
        <time>2019-04-16T19:08:49Z</time>
      </trkpt>
      <trkpt lat="45.33866" lon="2.76203">
        <ele>706</ele>
        <time>2019-04-16T19:09:49Z</time>
      </trkpt>
      <trkpt lat="45.3395" lon="2.76317">
        <ele>713</ele>
        <time>2019-04-16T19:10:49Z</time>
      </trkpt>
      <trkpt lat="45.34048" lon="2.76476">
        <ele>717</ele>
        <time>2019-04-16T19:11:49Z</time>
      </trkpt>
      <trkpt lat="45.34072" lon="2.76507">
        <ele>716</ele>
        <time>2019-04-16T19:12:49Z</time>
      </trkpt>
      <trkpt lat="45.34091" lon="2.76523">
        <ele>717</ele>
        <time>2019-04-16T19:13:49Z</time>
      </trkpt>
      <trkpt lat="45.3411" lon="2.76535">
        <ele>717</ele>
        <time>2019-04-16T19:14:49Z</time>
      </trkpt>
      <trkpt lat="45.34133" lon="2.76542">
        <ele>717</ele>
        <time>2019-04-16T19:15:49Z</time>
      </trkpt>
      <trkpt lat="45.34203" lon="2.76547">
        <ele>718</ele>
        <time>2019-04-16T19:16:49Z</time>
      </trkpt>
      <trkpt lat="45.34222" lon="2.76552">
        <ele>717</ele>
        <time>2019-04-16T19:17:49Z</time>
      </trkpt>
      <trkpt lat="45.34239" lon="2.76559">
        <ele>716</ele>
        <time>2019-04-16T19:18:49Z</time>
      </trkpt>
      <trkpt lat="45.34273" lon="2.76587">
        <ele>712</ele>
        <time>2019-04-16T19:19:49Z</time>
      </trkpt>
      <trkpt lat="45.34364" lon="2.7669">
        <ele>723</ele>
        <time>2019-04-16T19:20:49Z</time>
      </trkpt>
      <trkpt lat="45.3439" lon="2.76726">
        <ele>727</ele>
        <time>2019-04-16T19:21:49Z</time>
      </trkpt>
      <trkpt lat="45.34427" lon="2.76785">
        <ele>731</ele>
        <time>2019-04-16T19:22:49Z</time>
      </trkpt>
      <trkpt lat="45.3446" lon="2.76853">
        <ele>738</ele>
        <time>2019-04-16T19:23:49Z</time>
      </trkpt>
      <trkpt lat="45.34545" lon="2.77046">
        <ele>747</ele>
        <time>2019-04-16T19:24:49Z</time>
      </trkpt>
      <trkpt lat="45.34567" lon="2.77092">
        <ele>748</ele>
        <time>2019-04-16T19:25:49Z</time>
      </trkpt>
      <trkpt lat="45.34593" lon="2.77133">
        <ele>751</ele>
        <time>2019-04-16T19:26:49Z</time>
      </trkpt>
      <trkpt lat="45.3462" lon="2.7717">
        <ele>755</ele>
        <time>2019-04-16T19:27:49Z</time>
      </trkpt>
      <trkpt lat="45.3465" lon="2.77203">
        <ele>760</ele>
        <time>2019-04-16T19:28:49Z</time>
      </trkpt>
      <trkpt lat="45.34682" lon="2.77231">
        <ele>762</ele>
        <time>2019-04-16T19:29:49Z</time>
      </trkpt>
      <trkpt lat="45.34771" lon="2.77297">
        <ele>762</ele>
        <time>2019-04-16T19:30:49Z</time>
      </trkpt>
      <trkpt lat="45.3481" lon="2.77314">
        <ele>765</ele>
        <time>2019-04-16T19:31:49Z</time>
      </trkpt>
      <trkpt lat="45.34834" lon="2.77318">
        <ele>767</ele>
        <time>2019-04-16T19:32:49Z</time>
      </trkpt>
      <trkpt lat="45.34866" lon="2.77314">
        <ele>767</ele>
        <time>2019-04-16T19:33:49Z</time>
      </trkpt>
      <trkpt lat="45.34893" lon="2.77302">
        <ele>769</ele>
        <time>2019-04-16T19:34:49Z</time>
      </trkpt>
      <trkpt lat="45.34929" lon="2.77283">
        <ele>775</ele>
        <time>2019-04-16T19:35:49Z</time>
      </trkpt>
      <trkpt lat="45.34955" lon="2.77273">
        <ele>779</ele>
        <time>2019-04-16T19:36:49Z</time>
      </trkpt>
      <trkpt lat="45.35006" lon="2.77278">
        <ele>781</ele>
        <time>2019-04-16T19:37:49Z</time>
      </trkpt>
      <trkpt lat="45.35035" lon="2.77292">
        <ele>781</ele>
        <time>2019-04-16T19:38:49Z</time>
      </trkpt>
      <trkpt lat="45.35062" lon="2.77302">
        <ele>782</ele>
        <time>2019-04-16T19:39:49Z</time>
      </trkpt>
      <trkpt lat="45.35101" lon="2.77342">
        <ele>779</ele>
        <time>2019-04-16T19:40:49Z</time>
      </trkpt>
      <trkpt lat="45.35124" lon="2.77373">
        <ele>779</ele>
        <time>2019-04-16T19:41:49Z</time>
      </trkpt>
      <trkpt lat="45.35159" lon="2.77442">
        <ele>777</ele>
        <time>2019-04-16T19:42:49Z</time>
      </trkpt>
      <trkpt lat="45.3518" lon="2.77476">
        <ele>779</ele>
        <time>2019-04-16T19:43:49Z</time>
      </trkpt>
      <trkpt lat="45.35205" lon="2.77504">
        <ele>784</ele>
        <time>2019-04-16T19:44:49Z</time>
      </trkpt>
      <trkpt lat="45.35259" lon="2.77546">
        <ele>790</ele>
        <time>2019-04-16T19:45:49Z</time>
      </trkpt>
      <trkpt lat="45.35296" lon="2.77583">
        <ele>791</ele>
        <time>2019-04-16T19:46:49Z</time>
      </trkpt>
      <trkpt lat="45.35328" lon="2.77626">
        <ele>790</ele>
        <time>2019-04-16T19:47:49Z</time>
      </trkpt>
      <trkpt lat="45.35347" lon="2.77658">
        <ele>788</ele>
        <time>2019-04-16T19:48:49Z</time>
      </trkpt>
      <trkpt lat="45.35371" lon="2.7771">
        <ele>788</ele>
        <time>2019-04-16T19:49:49Z</time>
      </trkpt>
      <trkpt lat="45.35407" lon="2.77811">
        <ele>789</ele>
        <time>2019-04-16T19:50:49Z</time>
      </trkpt>
      <trkpt lat="45.35469" lon="2.78042">
        <ele>776</ele>
        <time>2019-04-16T19:51:49Z</time>
      </trkpt>
      <trkpt lat="45.35485" lon="2.7811">
        <ele>774</ele>
        <time>2019-04-16T19:52:49Z</time>
      </trkpt>
      <trkpt lat="45.35489" lon="2.78153">
        <ele>772</ele>
        <time>2019-04-16T19:53:49Z</time>
      </trkpt>
      <trkpt lat="45.35485" lon="2.78195">
        <ele>770</ele>
        <time>2019-04-16T19:54:49Z</time>
      </trkpt>
      <trkpt lat="45.35473" lon="2.78256">
        <ele>768</ele>
        <time>2019-04-16T19:55:49Z</time>
      </trkpt>
      <trkpt lat="45.3547" lon="2.78297">
        <ele>770</ele>
        <time>2019-04-16T19:56:49Z</time>
      </trkpt>
      <trkpt lat="45.35472" lon="2.7834">
        <ele>772</ele>
        <time>2019-04-16T19:57:49Z</time>
      </trkpt>
      <trkpt lat="45.35498" lon="2.7845">
        <ele>774</ele>
        <time>2019-04-16T19:58:49Z</time>
      </trkpt>
      <trkpt lat="45.35517" lon="2.78521">
        <ele>777</ele>
        <time>2019-04-16T19:59:49Z</time>
      </trkpt>
      <trkpt lat="45.35543" lon="2.78586">
        <ele>781</ele>
        <time>2019-04-16T20:00:49Z</time>
      </trkpt>
      <trkpt lat="45.35574" lon="2.78643">
        <ele>778</ele>
        <time>2019-04-16T20:01:49Z</time>
      </trkpt>
      <trkpt lat="45.35633" lon="2.78735">
        <ele>781</ele>
        <time>2019-04-16T20:02:49Z</time>
      </trkpt>
      <trkpt lat="45.35695" lon="2.78812">
        <ele>785</ele>
        <time>2019-04-16T20:03:49Z</time>
      </trkpt>
      <trkpt lat="45.35715" lon="2.78847">
        <ele>787</ele>
        <time>2019-04-16T20:04:49Z</time>
      </trkpt>
      <trkpt lat="45.35739" lon="2.78906">
        <ele>780</ele>
        <time>2019-04-16T20:05:49Z</time>
      </trkpt>
      <trkpt lat="45.35764" lon="2.78977">
        <ele>775</ele>
        <time>2019-04-16T20:06:49Z</time>
      </trkpt>
      <trkpt lat="45.3582" lon="2.79116">
        <ele>772</ele>
        <time>2019-04-16T20:07:49Z</time>
      </trkpt>
      <trkpt lat="45.35836" lon="2.79151">
        <ele>769</ele>
        <time>2019-04-16T20:08:49Z</time>
      </trkpt>
      <trkpt lat="45.35859" lon="2.79189">
        <ele>769</ele>
        <time>2019-04-16T20:09:49Z</time>
      </trkpt>
      <trkpt lat="45.35981" lon="2.7927">
        <ele>780</ele>
        <time>2019-04-16T20:10:49Z</time>
      </trkpt>
      <trkpt lat="45.36024" lon="2.79303">
        <ele>785</ele>
        <time>2019-04-16T20:11:49Z</time>
      </trkpt>
      <trkpt lat="45.36075" lon="2.7936">
        <ele>788</ele>
        <time>2019-04-16T20:12:49Z</time>
      </trkpt>
      <trkpt lat="45.36162" lon="2.79409">
        <ele>788</ele>
        <time>2019-04-16T20:13:49Z</time>
      </trkpt>
      <trkpt lat="45.36201" lon="2.79448">
        <ele>793</ele>
        <time>2019-04-16T20:14:49Z</time>
      </trkpt>
      <trkpt lat="45.36238" lon="2.79465">
        <ele>794</ele>
        <time>2019-04-16T20:15:49Z</time>
      </trkpt>
      <trkpt lat="45.36268" lon="2.79463">
        <ele>795</ele>
        <time>2019-04-16T20:16:49Z</time>
      </trkpt>
      <trkpt lat="45.36323" lon="2.79434">
        <ele>794</ele>
        <time>2019-04-16T20:17:49Z</time>
      </trkpt>
      <trkpt lat="45.36363" lon="2.79405">
        <ele>793</ele>
        <time>2019-04-16T20:18:49Z</time>
      </trkpt>
      <trkpt lat="45.3639" lon="2.79399">
        <ele>794</ele>
        <time>2019-04-16T20:19:49Z</time>
      </trkpt>
      <trkpt lat="45.36416" lon="2.79405">
        <ele>795</ele>
        <time>2019-04-16T20:20:49Z</time>
      </trkpt>
      <trkpt lat="45.36449" lon="2.79437">
        <ele>796</ele>
        <time>2019-04-16T20:21:49Z</time>
      </trkpt>
      <trkpt lat="45.36484" lon="2.79479">
        <ele>796</ele>
        <time>2019-04-16T20:22:49Z</time>
      </trkpt>
      <trkpt lat="45.36521" lon="2.79516">
        <ele>795</ele>
        <time>2019-04-16T20:23:49Z</time>
      </trkpt>
      <trkpt lat="45.36539" lon="2.79544">
        <ele>795</ele>
        <time>2019-04-16T20:24:49Z</time>
      </trkpt>
      <trkpt lat="45.36554" lon="2.79586">
        <ele>796</ele>
        <time>2019-04-16T20:25:49Z</time>
      </trkpt>
      <trkpt lat="45.36571" lon="2.79667">
        <ele>801</ele>
        <time>2019-04-16T20:26:49Z</time>
      </trkpt>
      <trkpt lat="45.36583" lon="2.79707">
        <ele>803</ele>
        <time>2019-04-16T20:27:49Z</time>
      </trkpt>
      <trkpt lat="45.3661" lon="2.79761">
        <ele>808</ele>
        <time>2019-04-16T20:28:49Z</time>
      </trkpt>
      <trkpt lat="45.36636" lon="2.79792">
        <ele>811</ele>
        <time>2019-04-16T20:29:49Z</time>
      </trkpt>
      <trkpt lat="45.36704" lon="2.79848">
        <ele>811</ele>
        <time>2019-04-16T20:30:49Z</time>
      </trkpt>
      <trkpt lat="45.36757" lon="2.79926">
        <ele>817</ele>
        <time>2019-04-16T20:31:49Z</time>
      </trkpt>
      <trkpt lat="45.36782" lon="2.7995">
        <ele>819</ele>
        <time>2019-04-16T20:32:49Z</time>
      </trkpt>
      <trkpt lat="45.36898" lon="2.80024">
        <ele>821</ele>
        <time>2019-04-16T20:33:49Z</time>
      </trkpt>
      <trkpt lat="45.36955" lon="2.80051">
        <ele>820</ele>
        <time>2019-04-16T20:34:49Z</time>
      </trkpt>
      <trkpt lat="45.36978" lon="2.80073">
        <ele>822</ele>
        <time>2019-04-16T20:35:49Z</time>
      </trkpt>
      <trkpt lat="45.36998" lon="2.80104">
        <ele>824</ele>
        <time>2019-04-16T20:36:49Z</time>
      </trkpt>
      <trkpt lat="45.37008" lon="2.80136">
        <ele>827</ele>
        <time>2019-04-16T20:37:49Z</time>
      </trkpt>
      <trkpt lat="45.37041" lon="2.80341">
        <ele>845</ele>
        <time>2019-04-16T20:38:49Z</time>
      </trkpt>
      <trkpt lat="45.37051" lon="2.80378">
        <ele>847</ele>
        <time>2019-04-16T20:39:49Z</time>
      </trkpt>
      <trkpt lat="45.37068" lon="2.80413">
        <ele>844</ele>
        <time>2019-04-16T20:40:49Z</time>
      </trkpt>
      <trkpt lat="45.37104" lon="2.80453">
        <ele>844</ele>
        <time>2019-04-16T20:41:49Z</time>
      </trkpt>
      <trkpt lat="45.37154" lon="2.80505">
        <ele>840</ele>
        <time>2019-04-16T20:42:49Z</time>
      </trkpt>
      <trkpt lat="45.37178" lon="2.80537">
        <ele>845</ele>
        <time>2019-04-16T20:43:49Z</time>
      </trkpt>
      <trkpt lat="45.37202" lon="2.80562">
        <ele>852</ele>
        <time>2019-04-16T20:44:49Z</time>
      </trkpt>
      <trkpt lat="45.37229" lon="2.80581">
        <ele>857</ele>
        <time>2019-04-16T20:45:49Z</time>
      </trkpt>
      <trkpt lat="45.37242" lon="2.80584">
        <ele>857</ele>
        <time>2019-04-16T20:46:49Z</time>
      </trkpt>
      <trkpt lat="45.37351" lon="2.80563">
        <ele>861</ele>
        <time>2019-04-16T20:47:49Z</time>
      </trkpt>
      <trkpt lat="45.37389" lon="2.80542">
        <ele>861</ele>
        <time>2019-04-16T20:48:49Z</time>
      </trkpt>
      <trkpt lat="45.37408" lon="2.80517">
        <ele>855</ele>
        <time>2019-04-16T20:49:49Z</time>
      </trkpt>
      <trkpt lat="45.37429" lon="2.80499">
        <ele>853</ele>
        <time>2019-04-16T20:50:49Z</time>
      </trkpt>
      <trkpt lat="45.37484" lon="2.80415">
        <ele>849</ele>
        <time>2019-04-16T20:51:49Z</time>
      </trkpt>
      <trkpt lat="45.37546" lon="2.80354">
        <ele>849</ele>
        <time>2019-04-16T20:52:49Z</time>
      </trkpt>
      <trkpt lat="45.37584" lon="2.80328">
        <ele>852</ele>
        <time>2019-04-16T20:53:49Z</time>
      </trkpt>
      <trkpt lat="45.37626" lon="2.8032">
        <ele>851</ele>
        <time>2019-04-16T20:54:49Z</time>
      </trkpt>
      <trkpt lat="45.37667" lon="2.80337">
        <ele>855</ele>
        <time>2019-04-16T20:55:49Z</time>
      </trkpt>
      <trkpt lat="45.37708" lon="2.80379">
        <ele>854</ele>
        <time>2019-04-16T20:56:49Z</time>
      </trkpt>
      <trkpt lat="45.37732" lon="2.80432">
        <ele>854</ele>
        <time>2019-04-16T20:57:49Z</time>
      </trkpt>
      <trkpt lat="45.37751" lon="2.80492">
        <ele>856</ele>
        <time>2019-04-16T20:58:49Z</time>
      </trkpt>
      <trkpt lat="45.37752" lon="2.80603">
        <ele>867</ele>
        <time>2019-04-16T20:59:49Z</time>
      </trkpt>
      <trkpt lat="45.37756" lon="2.80644">
        <ele>873</ele>
        <time>2019-04-16T21:00:49Z</time>
      </trkpt>
      <trkpt lat="45.37769" lon="2.8068">
        <ele>873</ele>
        <time>2019-04-16T21:01:49Z</time>
      </trkpt>
      <trkpt lat="45.37794" lon="2.80725">
        <ele>869</ele>
        <time>2019-04-16T21:02:49Z</time>
      </trkpt>
      <trkpt lat="45.37843" lon="2.80783">
        <ele>862</ele>
        <time>2019-04-16T21:03:49Z</time>
      </trkpt>
      <trkpt lat="45.37892" lon="2.80823">
        <ele>864</ele>
        <time>2019-04-16T21:04:49Z</time>
      </trkpt>
      <trkpt lat="45.38058" lon="2.80913">
        <ele>861</ele>
        <time>2019-04-16T21:05:49Z</time>
      </trkpt>
      <trkpt lat="45.38088" lon="2.80944">
        <ele>862</ele>
        <time>2019-04-16T21:06:49Z</time>
      </trkpt>
      <trkpt lat="45.38109" lon="2.80988">
        <ele>865</ele>
        <time>2019-04-16T21:07:49Z</time>
      </trkpt>
      <trkpt lat="45.38148" lon="2.81091">
        <ele>868</ele>
        <time>2019-04-16T21:08:49Z</time>
      </trkpt>
      <trkpt lat="45.38181" lon="2.81154">
        <ele>867</ele>
        <time>2019-04-16T21:09:49Z</time>
      </trkpt>
      <trkpt lat="45.38213" lon="2.81188">
        <ele>867</ele>
        <time>2019-04-16T21:10:49Z</time>
      </trkpt>
      <trkpt lat="45.38227" lon="2.81193">
        <ele>866</ele>
        <time>2019-04-16T21:11:49Z</time>
      </trkpt>
      <trkpt lat="45.38257" lon="2.81197">
        <ele>866</ele>
        <time>2019-04-16T21:12:49Z</time>
      </trkpt>
      <trkpt lat="45.38264" lon="2.812">
        <ele>868</ele>
        <time>2019-04-16T21:13:49Z</time>
      </trkpt>
      <trkpt lat="45.38278" lon="2.81212">
        <ele>872</ele>
        <time>2019-04-16T21:14:49Z</time>
      </trkpt>
      <trkpt lat="45.38288" lon="2.81227">
        <ele>873</ele>
        <time>2019-04-16T21:15:49Z</time>
      </trkpt>
      <trkpt lat="45.38326" lon="2.81294">
        <ele>871</ele>
        <time>2019-04-16T21:16:49Z</time>
      </trkpt>
      <trkpt lat="45.38409" lon="2.81395">
        <ele>878</ele>
        <time>2019-04-16T21:17:49Z</time>
      </trkpt>
      <trkpt lat="45.38417" lon="2.81409">
        <ele>876</ele>
        <time>2019-04-16T21:18:49Z</time>
      </trkpt>
      <trkpt lat="45.38458" lon="2.81491">
        <ele>877</ele>
        <time>2019-04-16T21:19:49Z</time>
      </trkpt>
      <trkpt lat="45.38486" lon="2.81534">
        <ele>879</ele>
        <time>2019-04-16T21:20:49Z</time>
      </trkpt>
      <trkpt lat="45.38541" lon="2.81598">
        <ele>887</ele>
        <time>2019-04-16T21:21:49Z</time>
      </trkpt>
      <trkpt lat="45.38694" lon="2.81813">
        <ele>884</ele>
        <time>2019-04-16T21:22:49Z</time>
      </trkpt>
      <trkpt lat="45.3872" lon="2.81838">
        <ele>883</ele>
        <time>2019-04-16T21:23:49Z</time>
      </trkpt>
      <trkpt lat="45.38741" lon="2.81842">
        <ele>886</ele>
        <time>2019-04-16T21:24:49Z</time>
      </trkpt>
      <trkpt lat="45.38769" lon="2.81834">
        <ele>890</ele>
        <time>2019-04-16T21:25:49Z</time>
      </trkpt>
      <trkpt lat="45.38864" lon="2.81779">
        <ele>896</ele>
        <time>2019-04-16T21:26:49Z</time>
      </trkpt>
      <trkpt lat="45.38893" lon="2.81766">
        <ele>895</ele>
        <time>2019-04-16T21:27:49Z</time>
      </trkpt>
      <trkpt lat="45.38938" lon="2.81753">
        <ele>895</ele>
        <time>2019-04-16T21:28:49Z</time>
      </trkpt>
      <trkpt lat="45.38977" lon="2.81747">
        <ele>897</ele>
        <time>2019-04-16T21:29:49Z</time>
      </trkpt>
      <trkpt lat="45.39006" lon="2.81756">
        <ele>896</ele>
        <time>2019-04-16T21:30:49Z</time>
      </trkpt>
      <trkpt lat="45.39111" lon="2.81805">
        <ele>904</ele>
        <time>2019-04-16T21:31:49Z</time>
      </trkpt>
      <trkpt lat="45.39128" lon="2.81821">
        <ele>904</ele>
        <time>2019-04-16T21:32:49Z</time>
      </trkpt>
      <trkpt lat="45.39146" lon="2.81844">
        <ele>904</ele>
        <time>2019-04-16T21:33:49Z</time>
      </trkpt>
      <trkpt lat="45.39163" lon="2.81879">
        <ele>903</ele>
        <time>2019-04-16T21:34:49Z</time>
      </trkpt>
      <trkpt lat="45.3921" lon="2.82001">
        <ele>906</ele>
        <time>2019-04-16T21:35:49Z</time>
      </trkpt>
      <trkpt lat="45.39246" lon="2.8207">
        <ele>909</ele>
        <time>2019-04-16T21:36:49Z</time>
      </trkpt>
      <trkpt lat="45.39257" lon="2.82101">
        <ele>909</ele>
        <time>2019-04-16T21:37:49Z</time>
      </trkpt>
      <trkpt lat="45.39267" lon="2.82147">
        <ele>909</ele>
        <time>2019-04-16T21:38:49Z</time>
      </trkpt>
      <trkpt lat="45.39276" lon="2.82169">
        <ele>910</ele>
        <time>2019-04-16T21:39:49Z</time>
      </trkpt>
      <trkpt lat="45.39295" lon="2.82197">
        <ele>912</ele>
        <time>2019-04-16T21:40:49Z</time>
      </trkpt>
      <trkpt lat="45.39359" lon="2.82269">
        <ele>916</ele>
        <time>2019-04-16T21:41:49Z</time>
      </trkpt>
      <trkpt lat="45.39383" lon="2.8229">
        <ele>915</ele>
        <time>2019-04-16T21:42:49Z</time>
      </trkpt>
      <trkpt lat="45.39411" lon="2.82299">
        <ele>919</ele>
        <time>2019-04-16T21:43:49Z</time>
      </trkpt>
      <trkpt lat="45.39453" lon="2.82295">
        <ele>917</ele>
        <time>2019-04-16T21:44:49Z</time>
      </trkpt>
      <trkpt lat="45.39621" lon="2.82245">
        <ele>925</ele>
        <time>2019-04-16T21:45:49Z</time>
      </trkpt>
      <trkpt lat="45.39652" lon="2.8223">
        <ele>928</ele>
        <time>2019-04-16T21:46:49Z</time>
      </trkpt>
      <trkpt lat="45.39676" lon="2.82193">
        <ele>935</ele>
        <time>2019-04-16T21:47:49Z</time>
      </trkpt>
      <trkpt lat="45.39695" lon="2.82174">
        <ele>936</ele>
        <time>2019-04-16T21:48:49Z</time>
      </trkpt>
      <trkpt lat="45.3972" lon="2.82162">
        <ele>935</ele>
        <time>2019-04-16T21:49:49Z</time>
      </trkpt>
      <trkpt lat="45.39848" lon="2.82113">
        <ele>938</ele>
        <time>2019-04-16T21:50:49Z</time>
      </trkpt>
      <trkpt lat="45.39875" lon="2.82095">
        <ele>940</ele>
        <time>2019-04-16T21:51:49Z</time>
      </trkpt>
      <trkpt lat="45.39922" lon="2.8204">
        <ele>946</ele>
        <time>2019-04-16T21:52:49Z</time>
      </trkpt>
      <trkpt lat="45.39949" lon="2.82018">
        <ele>948</ele>
        <time>2019-04-16T21:53:49Z</time>
      </trkpt>
      <trkpt lat="45.39975" lon="2.82004">
        <ele>949</ele>
        <time>2019-04-16T21:54:49Z</time>
      </trkpt>
      <trkpt lat="45.40009" lon="2.81991">
        <ele>949</ele>
        <time>2019-04-16T21:55:49Z</time>
      </trkpt>
      <trkpt lat="45.40024" lon="2.81989">
        <ele>950</ele>
        <time>2019-04-16T21:56:49Z</time>
      </trkpt>
      <trkpt lat="45.40032" lon="2.8199">
        <ele>950</ele>
        <time>2019-04-16T21:57:49Z</time>
      </trkpt>
      <trkpt lat="45.40045" lon="2.82001">
        <ele>949</ele>
        <time>2019-04-16T21:58:49Z</time>
      </trkpt>
      <trkpt lat="45.40067" lon="2.82026">
        <ele>945</ele>
        <time>2019-04-16T21:59:49Z</time>
      </trkpt>
      <trkpt lat="45.40086" lon="2.82035">
        <ele>943</ele>
        <time>2019-04-16T22:00:49Z</time>
      </trkpt>
      <trkpt lat="45.40127" lon="2.82039">
        <ele>947</ele>
        <time>2019-04-16T22:01:49Z</time>
      </trkpt>
      <trkpt lat="45.40157" lon="2.82056">
        <ele>946</ele>
        <time>2019-04-16T22:02:49Z</time>
      </trkpt>
      <trkpt lat="45.40189" lon="2.82093">
        <ele>944</ele>
        <time>2019-04-16T22:03:49Z</time>
      </trkpt>
      <trkpt lat="45.40269" lon="2.82167">
        <ele>939</ele>
        <time>2019-04-16T22:04:49Z</time>
      </trkpt>
      <trkpt lat="45.40315" lon="2.82205">
        <ele>938</ele>
        <time>2019-04-16T22:05:49Z</time>
      </trkpt>
      <trkpt lat="45.40399" lon="2.8226">
        <ele>941</ele>
        <time>2019-04-16T22:06:49Z</time>
      </trkpt>
      <trkpt lat="45.40451" lon="2.82332">
        <ele>938</ele>
        <time>2019-04-16T22:07:49Z</time>
      </trkpt>
      <trkpt lat="45.40469" lon="2.82341">
        <ele>939</ele>
        <time>2019-04-16T22:08:49Z</time>
      </trkpt>
      <trkpt lat="45.4049" lon="2.82343">
        <ele>941</ele>
        <time>2019-04-16T22:09:49Z</time>
      </trkpt>
      <trkpt lat="45.40517" lon="2.82355">
        <ele>942</ele>
        <time>2019-04-16T22:10:49Z</time>
      </trkpt>
      <trkpt lat="45.40697" lon="2.8261">
        <ele>954</ele>
        <time>2019-04-16T22:11:49Z</time>
      </trkpt>
      <trkpt lat="45.40739" lon="2.82663">
        <ele>955</ele>
        <time>2019-04-16T22:12:49Z</time>
      </trkpt>
      <trkpt lat="45.40745" lon="2.82673">
        <ele>956</ele>
        <time>2019-04-16T22:13:49Z</time>
      </trkpt>
      <trkpt lat="45.4076" lon="2.82729">
        <ele>956</ele>
        <time>2019-04-16T22:14:49Z</time>
      </trkpt>
      <trkpt lat="45.40764" lon="2.82739">
        <ele>956</ele>
        <time>2019-04-16T22:15:49Z</time>
      </trkpt>
      <trkpt lat="45.40805" lon="2.82772">
        <ele>955</ele>
        <time>2019-04-16T22:16:49Z</time>
      </trkpt>
      <trkpt lat="45.40808" lon="2.82777">
        <ele>955</ele>
        <time>2019-04-16T22:17:49Z</time>
      </trkpt>
      <trkpt lat="45.40884" lon="2.82932">
        <ele>952</ele>
        <time>2019-04-16T22:18:49Z</time>
      </trkpt>
      <trkpt lat="45.40897" lon="2.82948">
        <ele>952</ele>
        <time>2019-04-16T22:19:49Z</time>
      </trkpt>
      <trkpt lat="45.40914" lon="2.82963">
        <ele>953</ele>
        <time>2019-04-16T22:20:49Z</time>
      </trkpt>
      <trkpt lat="45.41209" lon="2.83171">
        <ele>973</ele>
        <time>2019-04-16T22:21:49Z</time>
      </trkpt>
      <trkpt lat="45.41457" lon="2.83342">
        <ele>977</ele>
        <time>2019-04-16T22:22:49Z</time>
      </trkpt>
      <trkpt lat="45.41488" lon="2.83357">
        <ele>977</ele>
        <time>2019-04-16T22:23:49Z</time>
      </trkpt>
      <trkpt lat="45.41513" lon="2.83361">
        <ele>977</ele>
        <time>2019-04-16T22:24:49Z</time>
      </trkpt>
      <trkpt lat="45.41529" lon="2.8336">
        <ele>977</ele>
        <time>2019-04-16T22:25:49Z</time>
      </trkpt>
      <trkpt lat="45.41545" lon="2.83355">
        <ele>977</ele>
        <time>2019-04-16T22:26:49Z</time>
      </trkpt>
      <trkpt lat="45.41566" lon="2.83345">
        <ele>978</ele>
        <time>2019-04-16T22:27:49Z</time>
      </trkpt>
      <trkpt lat="45.41624" lon="2.83313">
        <ele>983</ele>
        <time>2019-04-16T22:28:49Z</time>
      </trkpt>
      <trkpt lat="45.41639" lon="2.83308">
        <ele>985</ele>
        <time>2019-04-16T22:29:49Z</time>
      </trkpt>
      <trkpt lat="45.41658" lon="2.83312">
        <ele>985</ele>
        <time>2019-04-16T22:30:49Z</time>
      </trkpt>
      <trkpt lat="45.41709" lon="2.8333">
        <ele>990</ele>
        <time>2019-04-16T22:31:49Z</time>
      </trkpt>
      <trkpt lat="45.4173" lon="2.83342">
        <ele>993</ele>
        <time>2019-04-16T22:32:49Z</time>
      </trkpt>
      <trkpt lat="45.41781" lon="2.83395">
        <ele>993</ele>
        <time>2019-04-16T22:33:49Z</time>
      </trkpt>
      <trkpt lat="45.41844" lon="2.83476">
        <ele>995</ele>
        <time>2019-04-16T22:34:49Z</time>
      </trkpt>
      <trkpt lat="45.41885" lon="2.83517">
        <ele>997</ele>
        <time>2019-04-16T22:35:49Z</time>
      </trkpt>
      <trkpt lat="45.41904" lon="2.83533">
        <ele>999</ele>
        <time>2019-04-16T22:36:49Z</time>
      </trkpt>
      <trkpt lat="45.41931" lon="2.83547">
        <ele>1001</ele>
        <time>2019-04-16T22:37:49Z</time>
      </trkpt>
      <trkpt lat="45.41973" lon="2.83548">
        <ele>1004</ele>
        <time>2019-04-16T22:38:49Z</time>
      </trkpt>
      <trkpt lat="45.42066" lon="2.83543">
        <ele>1009</ele>
        <time>2019-04-16T22:39:49Z</time>
      </trkpt>
      <trkpt lat="45.42114" lon="2.83536">
        <ele>1011</ele>
        <time>2019-04-16T22:40:49Z</time>
      </trkpt>
      <trkpt lat="45.42175" lon="2.83519">
        <ele>1013</ele>
        <time>2019-04-16T22:41:49Z</time>
      </trkpt>
      <trkpt lat="45.42231" lon="2.83494">
        <ele>1015</ele>
        <time>2019-04-16T22:42:49Z</time>
      </trkpt>
      <trkpt lat="45.42374" lon="2.83408">
        <ele>1025</ele>
        <time>2019-04-16T22:43:49Z</time>
      </trkpt>
      <trkpt lat="45.42394" lon="2.83398">
        <ele>1026</ele>
        <time>2019-04-16T22:44:49Z</time>
      </trkpt>
      <trkpt lat="45.42414" lon="2.83393">
        <ele>1026</ele>
        <time>2019-04-16T22:45:49Z</time>
      </trkpt>
      <trkpt lat="45.42554" lon="2.83363">
        <ele>1032</ele>
        <time>2019-04-16T22:46:49Z</time>
      </trkpt>
      <trkpt lat="45.42587" lon="2.83354">
        <ele>1033</ele>
        <time>2019-04-16T22:47:49Z</time>
      </trkpt>
      <trkpt lat="45.42687" lon="2.83304">
        <ele>1038</ele>
        <time>2019-04-16T22:48:49Z</time>
      </trkpt>
      <trkpt lat="45.42717" lon="2.83295">
        <ele>1040</ele>
        <time>2019-04-16T22:49:49Z</time>
      </trkpt>
      <trkpt lat="45.42815" lon="2.83285">
        <ele>1043</ele>
        <time>2019-04-16T22:50:49Z</time>
      </trkpt>
      <trkpt lat="45.42841" lon="2.83286">
        <ele>1044</ele>
        <time>2019-04-16T22:51:49Z</time>
      </trkpt>
      <trkpt lat="45.42872" lon="2.83296">
        <ele>1044</ele>
        <time>2019-04-16T22:52:49Z</time>
      </trkpt>
      <trkpt lat="45.42889" lon="2.83306">
        <ele>1044</ele>
        <time>2019-04-16T22:53:49Z</time>
      </trkpt>
      <trkpt lat="45.42909" lon="2.83319">
        <ele>1044</ele>
        <time>2019-04-16T22:54:49Z</time>
      </trkpt>
      <trkpt lat="45.42959" lon="2.8336">
        <ele>1051</ele>
        <time>2019-04-16T22:55:49Z</time>
      </trkpt>
      <trkpt lat="45.42981" lon="2.83373">
        <ele>1055</ele>
        <time>2019-04-16T22:56:49Z</time>
      </trkpt>
      <trkpt lat="45.43004" lon="2.83378">
        <ele>1058</ele>
        <time>2019-04-16T22:57:49Z</time>
      </trkpt>
      <trkpt lat="45.43043" lon="2.83375">
        <ele>1060</ele>
        <time>2019-04-16T22:58:49Z</time>
      </trkpt>
      <trkpt lat="45.4309" lon="2.83378">
        <ele>1062</ele>
        <time>2019-04-16T22:59:49Z</time>
      </trkpt>
      <trkpt lat="45.43114" lon="2.83382">
        <ele>1063</ele>
        <time>2019-04-16T23:00:49Z</time>
      </trkpt>
      <trkpt lat="45.43138" lon="2.83391">
        <ele>1063</ele>
        <time>2019-04-16T23:01:49Z</time>
      </trkpt>
      <trkpt lat="45.43159" lon="2.83407">
        <ele>1062</ele>
        <time>2019-04-16T23:02:49Z</time>
      </trkpt>
      <trkpt lat="45.43204" lon="2.83451">
        <ele>1067</ele>
        <time>2019-04-16T23:03:49Z</time>
      </trkpt>
      <trkpt lat="45.4323" lon="2.83474">
        <ele>1068</ele>
        <time>2019-04-16T23:04:49Z</time>
      </trkpt>
      <trkpt lat="45.43243" lon="2.83482">
        <ele>1068</ele>
        <time>2019-04-16T23:05:49Z</time>
      </trkpt>
      <trkpt lat="45.4328" lon="2.83499">
        <ele>1068</ele>
        <time>2019-04-16T23:06:49Z</time>
      </trkpt>
      <trkpt lat="45.43304" lon="2.83515">
        <ele>1069</ele>
        <time>2019-04-16T23:07:49Z</time>
      </trkpt>
      <trkpt lat="45.43324" lon="2.83539">
        <ele>1070</ele>
        <time>2019-04-16T23:08:49Z</time>
      </trkpt>
      <trkpt lat="45.4336" lon="2.83603">
        <ele>1075</ele>
        <time>2019-04-16T23:09:49Z</time>
      </trkpt>
      <trkpt lat="45.43377" lon="2.83621">
        <ele>1076</ele>
        <time>2019-04-16T23:10:49Z</time>
      </trkpt>
      <trkpt lat="45.43393" lon="2.83631">
        <ele>1077</ele>
        <time>2019-04-16T23:11:49Z</time>
      </trkpt>
      <trkpt lat="45.43412" lon="2.83634">
        <ele>1077</ele>
        <time>2019-04-16T23:12:49Z</time>
      </trkpt>
      <trkpt lat="45.43551" lon="2.8363">
        <ele>1084</ele>
        <time>2019-04-16T23:13:49Z</time>
      </trkpt>
      <trkpt lat="45.43581" lon="2.83632">
        <ele>1085</ele>
        <time>2019-04-16T23:14:49Z</time>
      </trkpt>
      <trkpt lat="45.43592" lon="2.83635">
        <ele>1086</ele>
        <time>2019-04-16T23:15:49Z</time>
      </trkpt>
      <trkpt lat="45.43652" lon="2.83668">
        <ele>1089</ele>
        <time>2019-04-16T23:16:49Z</time>
      </trkpt>
      <trkpt lat="45.43674" lon="2.83671">
        <ele>1090</ele>
        <time>2019-04-16T23:17:49Z</time>
      </trkpt>
      <trkpt lat="45.43685" lon="2.8367">
        <ele>1090</ele>
        <time>2019-04-16T23:18:49Z</time>
      </trkpt>
      <trkpt lat="45.43706" lon="2.83662">
        <ele>1092</ele>
        <time>2019-04-16T23:19:49Z</time>
      </trkpt>
      <trkpt lat="45.43772" lon="2.83614">
        <ele>1097</ele>
        <time>2019-04-16T23:20:49Z</time>
      </trkpt>
      <trkpt lat="45.43782" lon="2.83609">
        <ele>1098</ele>
        <time>2019-04-16T23:21:49Z</time>
      </trkpt>
      <trkpt lat="45.43795" lon="2.83607">
        <ele>1099</ele>
        <time>2019-04-16T23:22:49Z</time>
      </trkpt>
      <trkpt lat="45.43819" lon="2.83608">
        <ele>1101</ele>
        <time>2019-04-16T23:23:49Z</time>
      </trkpt>
      <trkpt lat="45.43863" lon="2.83622">
        <ele>1104</ele>
        <time>2019-04-16T23:24:49Z</time>
      </trkpt>
      <trkpt lat="45.43883" lon="2.83622">
        <ele>1104</ele>
        <time>2019-04-16T23:25:49Z</time>
      </trkpt>
      <trkpt lat="45.4392" lon="2.83614">
        <ele>1102</ele>
        <time>2019-04-16T23:26:49Z</time>
      </trkpt>
      <trkpt lat="45.43942" lon="2.83615">
        <ele>1102</ele>
        <time>2019-04-16T23:27:49Z</time>
      </trkpt>
      <trkpt lat="45.43962" lon="2.83624">
        <ele>1103</ele>
        <time>2019-04-16T23:28:49Z</time>
      </trkpt>
      <trkpt lat="45.44064" lon="2.83708">
        <ele>1110</ele>
        <time>2019-04-16T23:29:49Z</time>
      </trkpt>
      <trkpt lat="45.44081" lon="2.83717">
        <ele>1110</ele>
        <time>2019-04-16T23:30:49Z</time>
      </trkpt>
      <trkpt lat="45.44194" lon="2.83762">
        <ele>1107</ele>
        <time>2019-04-16T23:31:49Z</time>
      </trkpt>
      <trkpt lat="45.44221" lon="2.83767">
        <ele>1108</ele>
        <time>2019-04-16T23:32:49Z</time>
      </trkpt>
      <trkpt lat="45.44245" lon="2.83767">
        <ele>1108</ele>
        <time>2019-04-16T23:33:49Z</time>
      </trkpt>
      <trkpt lat="45.44377" lon="2.8375">
        <ele>1111</ele>
        <time>2019-04-16T23:34:49Z</time>
      </trkpt>
      <trkpt lat="45.44444" lon="2.83743">
        <ele>1111</ele>
        <time>2019-04-16T23:35:49Z</time>
      </trkpt>
      <trkpt lat="45.44458" lon="2.83744">
        <ele>1111</ele>
        <time>2019-04-16T23:36:49Z</time>
      </trkpt>
      <trkpt lat="45.44475" lon="2.83749">
        <ele>1111</ele>
        <time>2019-04-16T23:37:49Z</time>
      </trkpt>
      <trkpt lat="45.44495" lon="2.83757">
        <ele>1111</ele>
        <time>2019-04-16T23:38:49Z</time>
      </trkpt>
      <trkpt lat="45.44608" lon="2.83814">
        <ele>1118</ele>
        <time>2019-04-16T23:39:49Z</time>
      </trkpt>
      <trkpt lat="45.44665" lon="2.8385">
        <ele>1121</ele>
        <time>2019-04-16T23:40:49Z</time>
      </trkpt>
      <trkpt lat="45.44825" lon="2.83974">
        <ele>1132</ele>
        <time>2019-04-16T23:41:49Z</time>
      </trkpt>
      <trkpt lat="45.44841" lon="2.83986">
        <ele>1133</ele>
        <time>2019-04-16T23:42:49Z</time>
      </trkpt>
      <trkpt lat="45.44863" lon="2.83997">
        <ele>1134</ele>
        <time>2019-04-16T23:43:49Z</time>
      </trkpt>
      <trkpt lat="45.44898" lon="2.84001">
        <ele>1132</ele>
        <time>2019-04-16T23:44:49Z</time>
      </trkpt>
      <trkpt lat="45.45056" lon="2.84012">
        <ele>1140</ele>
        <time>2019-04-16T23:45:49Z</time>
      </trkpt>
      <trkpt lat="45.45086" lon="2.84023">
        <ele>1141</ele>
        <time>2019-04-16T23:46:49Z</time>
      </trkpt>
      <trkpt lat="45.45114" lon="2.84044">
        <ele>1139</ele>
        <time>2019-04-16T23:47:49Z</time>
      </trkpt>
      <trkpt lat="45.45242" lon="2.84189">
        <ele>1147</ele>
        <time>2019-04-16T23:48:49Z</time>
      </trkpt>
      <trkpt lat="45.45271" lon="2.84217">
        <ele>1148</ele>
        <time>2019-04-16T23:49:49Z</time>
      </trkpt>
      <trkpt lat="45.45297" lon="2.84234">
        <ele>1149</ele>
        <time>2019-04-16T23:50:49Z</time>
      </trkpt>
      <trkpt lat="45.45346" lon="2.84259">
        <ele>1149</ele>
        <time>2019-04-16T23:51:49Z</time>
      </trkpt>
      <trkpt lat="45.45385" lon="2.84274">
        <ele>1151</ele>
        <time>2019-04-16T23:52:49Z</time>
      </trkpt>
      <trkpt lat="45.45415" lon="2.84278">
        <ele>1151</ele>
        <time>2019-04-16T23:53:49Z</time>
      </trkpt>
      <trkpt lat="45.45463" lon="2.84271">
        <ele>1151</ele>
        <time>2019-04-16T23:54:49Z</time>
      </trkpt>
      <trkpt lat="45.45503" lon="2.84262">
        <ele>1150</ele>
        <time>2019-04-16T23:55:49Z</time>
      </trkpt>
      <trkpt lat="45.45564" lon="2.84238">
        <ele>1150</ele>
        <time>2019-04-16T23:56:49Z</time>
      </trkpt>
      <trkpt lat="45.45586" lon="2.84231">
        <ele>1150</ele>
        <time>2019-04-16T23:57:49Z</time>
      </trkpt>
      <trkpt lat="45.45613" lon="2.84228">
        <ele>1151</ele>
        <time>2019-04-16T23:58:49Z</time>
      </trkpt>
      <trkpt lat="45.4564" lon="2.8423">
        <ele>1152</ele>
        <time>2019-04-16T23:59:49Z</time>
      </trkpt>
      <trkpt lat="45.45657" lon="2.84234">
        <ele>1153</ele>
        <time>2019-04-17T00:00:49Z</time>
      </trkpt>
      <trkpt lat="45.4569" lon="2.84249">
        <ele>1154</ele>
        <time>2019-04-17T00:01:49Z</time>
      </trkpt>
      <trkpt lat="45.45703" lon="2.84257">
        <ele>1153</ele>
        <time>2019-04-17T00:02:49Z</time>
      </trkpt>
      <trkpt lat="45.45733" lon="2.84282">
        <ele>1154</ele>
        <time>2019-04-17T00:03:49Z</time>
      </trkpt>
      <trkpt lat="45.45765" lon="2.84313">
        <ele>1155</ele>
        <time>2019-04-17T00:04:49Z</time>
      </trkpt>
      <trkpt lat="45.45788" lon="2.84331">
        <ele>1156</ele>
        <time>2019-04-17T00:05:49Z</time>
      </trkpt>
      <trkpt lat="45.45824" lon="2.84349">
        <ele>1157</ele>
        <time>2019-04-17T00:06:49Z</time>
      </trkpt>
      <trkpt lat="45.45913" lon="2.84386">
        <ele>1161</ele>
        <time>2019-04-17T00:07:49Z</time>
      </trkpt>
      <trkpt lat="45.45945" lon="2.84397">
        <ele>1162</ele>
        <time>2019-04-17T00:08:49Z</time>
      </trkpt>
      <trkpt lat="45.45961" lon="2.844">
        <ele>1162</ele>
        <time>2019-04-17T00:09:49Z</time>
      </trkpt>
      <trkpt lat="45.46032" lon="2.84402">
        <ele>1161</ele>
        <time>2019-04-17T00:10:49Z</time>
      </trkpt>
      <trkpt lat="45.46077" lon="2.84411">
        <ele>1162</ele>
        <time>2019-04-17T00:11:49Z</time>
      </trkpt>
      <trkpt lat="45.46151" lon="2.84435">
        <ele>1162</ele>
        <time>2019-04-17T00:12:49Z</time>
      </trkpt>
      <trkpt lat="45.46184" lon="2.8445">
        <ele>1162</ele>
        <time>2019-04-17T00:13:49Z</time>
      </trkpt>
      <trkpt lat="45.46239" lon="2.84484">
        <ele>1164</ele>
        <time>2019-04-17T00:14:49Z</time>
      </trkpt>
      <trkpt lat="45.4637" lon="2.84586">
        <ele>1172</ele>
        <time>2019-04-17T00:15:49Z</time>
      </trkpt>
      <trkpt lat="45.46607" lon="2.84735">
        <ele>1180</ele>
        <time>2019-04-17T00:16:49Z</time>
      </trkpt>
      <trkpt lat="45.46629" lon="2.84746">
        <ele>1180</ele>
        <time>2019-04-17T00:17:49Z</time>
      </trkpt>
      <trkpt lat="45.4665" lon="2.84754">
        <ele>1179</ele>
        <time>2019-04-17T00:18:49Z</time>
      </trkpt>
      <trkpt lat="45.4682" lon="2.84802">
        <ele>1184</ele>
        <time>2019-04-17T00:19:49Z</time>
      </trkpt>
      <trkpt lat="45.46852" lon="2.84814">
        <ele>1186</ele>
        <time>2019-04-17T00:20:49Z</time>
      </trkpt>
      <trkpt lat="45.46882" lon="2.8483">
        <ele>1187</ele>
        <time>2019-04-17T00:21:49Z</time>
      </trkpt>
      <trkpt lat="45.46893" lon="2.84839">
        <ele>1188</ele>
        <time>2019-04-17T00:22:49Z</time>
      </trkpt>
      <trkpt lat="45.46952" lon="2.84892">
        <ele>1194</ele>
        <time>2019-04-17T00:23:49Z</time>
      </trkpt>
      <trkpt lat="45.46969" lon="2.84905">
        <ele>1193</ele>
        <time>2019-04-17T00:24:49Z</time>
      </trkpt>
      <trkpt lat="45.46987" lon="2.84915">
        <ele>1192</ele>
        <time>2019-04-17T00:25:49Z</time>
      </trkpt>
      <trkpt lat="45.47017" lon="2.84927">
        <ele>1192</ele>
        <time>2019-04-17T00:26:49Z</time>
      </trkpt>
      <trkpt lat="45.47032" lon="2.8493">
        <ele>1192</ele>
        <time>2019-04-17T00:27:49Z</time>
      </trkpt>
      <trkpt lat="45.47066" lon="2.84932">
        <ele>1192</ele>
        <time>2019-04-17T00:28:49Z</time>
      </trkpt>
      <trkpt lat="45.47083" lon="2.8493">
        <ele>1191</ele>
        <time>2019-04-17T00:29:49Z</time>
      </trkpt>
      <trkpt lat="45.47207" lon="2.84889">
        <ele>1192</ele>
        <time>2019-04-17T00:30:49Z</time>
      </trkpt>
      <trkpt lat="45.47242" lon="2.8488">
        <ele>1192</ele>
        <time>2019-04-17T00:31:49Z</time>
      </trkpt>
      <trkpt lat="45.47278" lon="2.84882">
        <ele>1190</ele>
        <time>2019-04-17T00:32:49Z</time>
      </trkpt>
      <trkpt lat="45.47304" lon="2.84893">
        <ele>1189</ele>
        <time>2019-04-17T00:33:49Z</time>
      </trkpt>
      <trkpt lat="45.47328" lon="2.8491">
        <ele>1188</ele>
        <time>2019-04-17T00:34:49Z</time>
      </trkpt>
      <trkpt lat="45.47347" lon="2.8493">
        <ele>1188</ele>
        <time>2019-04-17T00:35:49Z</time>
      </trkpt>
      <trkpt lat="45.47357" lon="2.84943">
        <ele>1188</ele>
        <time>2019-04-17T00:36:49Z</time>
      </trkpt>
      <trkpt lat="45.47379" lon="2.84983">
        <ele>1189</ele>
        <time>2019-04-17T00:37:49Z</time>
      </trkpt>
      <trkpt lat="45.47434" lon="2.85185">
        <ele>1190</ele>
        <time>2019-04-17T00:38:49Z</time>
      </trkpt>
      <trkpt lat="45.47458" lon="2.85228">
        <ele>1191</ele>
        <time>2019-04-17T00:39:49Z</time>
      </trkpt>
      <trkpt lat="45.47494" lon="2.85268">
        <ele>1190</ele>
        <time>2019-04-17T00:40:49Z</time>
      </trkpt>
      <trkpt lat="45.47514" lon="2.85312">
        <ele>1190</ele>
        <time>2019-04-17T00:41:49Z</time>
      </trkpt>
      <trkpt lat="45.47524" lon="2.85384">
        <ele>1191</ele>
        <time>2019-04-17T00:42:49Z</time>
      </trkpt>
      <trkpt lat="45.47531" lon="2.85423">
        <ele>1192</ele>
        <time>2019-04-17T00:43:49Z</time>
      </trkpt>
      <trkpt lat="45.47559" lon="2.855">
        <ele>1192</ele>
        <time>2019-04-17T00:44:49Z</time>
      </trkpt>
      <trkpt lat="45.47583" lon="2.85536">
        <ele>1192</ele>
        <time>2019-04-17T00:45:49Z</time>
      </trkpt>
      <trkpt lat="45.47629" lon="2.85578">
        <ele>1192</ele>
        <time>2019-04-17T00:46:49Z</time>
      </trkpt>
      <trkpt lat="45.47692" lon="2.85664">
        <ele>1196</ele>
        <time>2019-04-17T00:47:49Z</time>
      </trkpt>
      <trkpt lat="45.47769" lon="2.85711">
        <ele>1193</ele>
        <time>2019-04-17T00:48:49Z</time>
      </trkpt>
      <trkpt lat="45.47877" lon="2.85815">
        <ele>1194</ele>
        <time>2019-04-17T00:49:49Z</time>
      </trkpt>
      <trkpt lat="45.47909" lon="2.8584">
        <ele>1194</ele>
        <time>2019-04-17T00:50:49Z</time>
      </trkpt>
      <trkpt lat="45.4801" lon="2.85888">
        <ele>1195</ele>
        <time>2019-04-17T00:51:49Z</time>
      </trkpt>
      <trkpt lat="45.4804" lon="2.85911">
        <ele>1195</ele>
        <time>2019-04-17T00:52:49Z</time>
      </trkpt>
      <trkpt lat="45.48091" lon="2.85973">
        <ele>1197</ele>
        <time>2019-04-17T00:53:49Z</time>
      </trkpt>
      <trkpt lat="45.48117" lon="2.85993">
        <ele>1197</ele>
        <time>2019-04-17T00:54:49Z</time>
      </trkpt>
      <trkpt lat="45.48155" lon="2.86008">
        <ele>1197</ele>
        <time>2019-04-17T00:55:49Z</time>
      </trkpt>
      <trkpt lat="45.48193" lon="2.86019">
        <ele>1197</ele>
        <time>2019-04-17T00:56:49Z</time>
      </trkpt>
      <trkpt lat="45.48221" lon="2.86019">
        <ele>1197</ele>
        <time>2019-04-17T00:57:49Z</time>
      </trkpt>
      <trkpt lat="45.48292" lon="2.85998">
        <ele>1194</ele>
        <time>2019-04-17T00:58:49Z</time>
      </trkpt>
      <trkpt lat="45.48322" lon="2.85999">
        <ele>1194</ele>
        <time>2019-04-17T00:59:49Z</time>
      </trkpt>
      <trkpt lat="45.48337" lon="2.86004">
        <ele>1194</ele>
        <time>2019-04-17T01:00:49Z</time>
      </trkpt>
      <trkpt lat="45.48352" lon="2.86013">
        <ele>1195</ele>
        <time>2019-04-17T01:01:49Z</time>
      </trkpt>
      <trkpt lat="45.48536" lon="2.86182">
        <ele>1198</ele>
        <time>2019-04-17T01:02:49Z</time>
      </trkpt>
      <trkpt lat="45.48563" lon="2.86203">
        <ele>1200</ele>
        <time>2019-04-17T01:03:49Z</time>
      </trkpt>
      <trkpt lat="45.48586" lon="2.86214">
        <ele>1202</ele>
        <time>2019-04-17T01:04:49Z</time>
      </trkpt>
      <trkpt lat="45.48603" lon="2.86215">
        <ele>1204</ele>
        <time>2019-04-17T01:05:49Z</time>
      </trkpt>
      <trkpt lat="45.48633" lon="2.86207">
        <ele>1207</ele>
        <time>2019-04-17T01:06:49Z</time>
      </trkpt>
      <trkpt lat="45.48661" lon="2.86192">
        <ele>1208</ele>
        <time>2019-04-17T01:07:49Z</time>
      </trkpt>
      <trkpt lat="45.48717" lon="2.8614">
        <ele>1208</ele>
        <time>2019-04-17T01:08:49Z</time>
      </trkpt>
      <trkpt lat="45.48757" lon="2.86125">
        <ele>1210</ele>
        <time>2019-04-17T01:09:49Z</time>
      </trkpt>
      <trkpt lat="45.48933" lon="2.86116">
        <ele>1208</ele>
        <time>2019-04-17T01:10:49Z</time>
      </trkpt>
      <trkpt lat="45.4904" lon="2.86129">
        <ele>1207</ele>
        <time>2019-04-17T01:11:49Z</time>
      </trkpt>
      <trkpt lat="45.49067" lon="2.86128">
        <ele>1206</ele>
        <time>2019-04-17T01:12:49Z</time>
      </trkpt>
      <trkpt lat="45.49105" lon="2.86121">
        <ele>1206</ele>
        <time>2019-04-17T01:13:49Z</time>
      </trkpt>
      <trkpt lat="45.49224" lon="2.86085">
        <ele>1206</ele>
        <time>2019-04-17T01:14:49Z</time>
      </trkpt>
      <trkpt lat="45.49251" lon="2.86084">
        <ele>1206</ele>
        <time>2019-04-17T01:15:49Z</time>
      </trkpt>
      <trkpt lat="45.49271" lon="2.86093">
        <ele>1206</ele>
        <time>2019-04-17T01:16:49Z</time>
      </trkpt>
      <trkpt lat="45.49286" lon="2.86101">
        <ele>1206</ele>
        <time>2019-04-17T01:17:49Z</time>
      </trkpt>
      <trkpt lat="45.49299" lon="2.86115">
        <ele>1207</ele>
        <time>2019-04-17T01:18:49Z</time>
      </trkpt>
      <trkpt lat="45.49311" lon="2.86131">
        <ele>1207</ele>
        <time>2019-04-17T01:19:49Z</time>
      </trkpt>
      <trkpt lat="45.49318" lon="2.86146">
        <ele>1208</ele>
        <time>2019-04-17T01:20:49Z</time>
      </trkpt>
      <trkpt lat="45.49324" lon="2.86166">
        <ele>1209</ele>
        <time>2019-04-17T01:21:49Z</time>
      </trkpt>
      <trkpt lat="45.49332" lon="2.86205">
        <ele>1210</ele>
        <time>2019-04-17T01:22:49Z</time>
      </trkpt>
      <trkpt lat="45.49352" lon="2.86465">
        <ele>1217</ele>
        <time>2019-04-17T01:23:49Z</time>
      </trkpt>
      <trkpt lat="45.49359" lon="2.86527">
        <ele>1216</ele>
        <time>2019-04-17T01:24:49Z</time>
      </trkpt>
      <trkpt lat="45.49373" lon="2.86582">
        <ele>1214</ele>
        <time>2019-04-17T01:25:49Z</time>
      </trkpt>
      <trkpt lat="45.49424" lon="2.86695">
        <ele>1209</ele>
        <time>2019-04-17T01:26:49Z</time>
      </trkpt>
      <trkpt lat="45.4944" lon="2.86737">
        <ele>1209</ele>
        <time>2019-04-17T01:27:49Z</time>
      </trkpt>
      <trkpt lat="45.49454" lon="2.86831">
        <ele>1211</ele>
        <time>2019-04-17T01:28:49Z</time>
      </trkpt>
      <trkpt lat="45.49456" lon="2.86913">
        <ele>1209</ele>
        <time>2019-04-17T01:29:49Z</time>
      </trkpt>
      <trkpt lat="45.49461" lon="2.86967">
        <ele>1207</ele>
        <time>2019-04-17T01:30:49Z</time>
      </trkpt>
      <trkpt lat="45.49493" lon="2.87115">
        <ele>1206</ele>
        <time>2019-04-17T01:31:49Z</time>
      </trkpt>
      <trkpt lat="45.49528" lon="2.87325">
        <ele>1199</ele>
        <time>2019-04-17T01:32:49Z</time>
      </trkpt>
      <trkpt lat="45.49537" lon="2.87368">
        <ele>1196</ele>
        <time>2019-04-17T01:33:49Z</time>
      </trkpt>
      <trkpt lat="45.4955" lon="2.87405">
        <ele>1194</ele>
        <time>2019-04-17T01:34:49Z</time>
      </trkpt>
      <trkpt lat="45.49563" lon="2.8743">
        <ele>1193</ele>
        <time>2019-04-17T01:35:49Z</time>
      </trkpt>
      <trkpt lat="45.49578" lon="2.87451">
        <ele>1192</ele>
        <time>2019-04-17T01:36:49Z</time>
      </trkpt>
      <trkpt lat="45.49685" lon="2.87565">
        <ele>1190</ele>
        <time>2019-04-17T01:37:49Z</time>
      </trkpt>
      <trkpt lat="45.49715" lon="2.87586">
        <ele>1188</ele>
        <time>2019-04-17T01:38:49Z</time>
      </trkpt>
      <trkpt lat="45.49806" lon="2.87623">
        <ele>1185</ele>
        <time>2019-04-17T01:39:49Z</time>
      </trkpt>
      <trkpt lat="45.49833" lon="2.87643">
        <ele>1184</ele>
        <time>2019-04-17T01:40:49Z</time>
      </trkpt>
      <trkpt lat="45.49853" lon="2.87669">
        <ele>1183</ele>
        <time>2019-04-17T01:41:49Z</time>
      </trkpt>
      <trkpt lat="45.49866" lon="2.87688">
        <ele>1183</ele>
        <time>2019-04-17T01:42:49Z</time>
      </trkpt>
      <trkpt lat="45.49874" lon="2.87707">
        <ele>1183</ele>
        <time>2019-04-17T01:43:49Z</time>
      </trkpt>
      <trkpt lat="45.49887" lon="2.87749">
        <ele>1183</ele>
        <time>2019-04-17T01:44:49Z</time>
      </trkpt>
      <trkpt lat="45.49901" lon="2.87836">
        <ele>1181</ele>
        <time>2019-04-17T01:45:49Z</time>
      </trkpt>
      <trkpt lat="45.49915" lon="2.879">
        <ele>1178</ele>
        <time>2019-04-17T01:46:49Z</time>
      </trkpt>
      <trkpt lat="45.50068" lon="2.88404">
        <ele>1168</ele>
        <time>2019-04-17T01:47:49Z</time>
      </trkpt>
      <trkpt lat="45.50184" lon="2.88796">
        <ele>1166</ele>
        <time>2019-04-17T01:48:49Z</time>
      </trkpt>
      <trkpt lat="45.50227" lon="2.88976">
        <ele>1163</ele>
        <time>2019-04-17T01:49:49Z</time>
      </trkpt>
      <trkpt lat="45.50269" lon="2.89092">
        <ele>1162</ele>
        <time>2019-04-17T01:50:49Z</time>
      </trkpt>
      <trkpt lat="45.50283" lon="2.89135">
        <ele>1164</ele>
        <time>2019-04-17T01:51:49Z</time>
      </trkpt>
      <trkpt lat="45.50281" lon="2.89149">
        <ele>1165</ele>
        <time>2019-04-17T01:52:49Z</time>
      </trkpt>
      <trkpt lat="45.50277" lon="2.89156">
        <ele>1166</ele>
        <time>2019-04-17T01:53:49Z</time>
      </trkpt>
      <trkpt lat="45.50268" lon="2.8916">
        <ele>1168</ele>
        <time>2019-04-17T01:54:49Z</time>
      </trkpt>
      <trkpt lat="45.50252" lon="2.89156">
        <ele>1171</ele>
        <time>2019-04-17T01:55:49Z</time>
      </trkpt>
      <trkpt lat="45.50225" lon="2.89139">
        <ele>1176</ele>
        <time>2019-04-17T01:56:49Z</time>
      </trkpt>
      <trkpt lat="45.502" lon="2.89095">
        <ele>1178</ele>
        <time>2019-04-17T01:57:49Z</time>
      </trkpt>
      <trkpt lat="45.50162" lon="2.89019">
        <ele>1177</ele>
        <time>2019-04-17T01:58:49Z</time>
      </trkpt>
      <trkpt lat="45.50096" lon="2.88859">
        <ele>1188</ele>
        <time>2019-04-17T01:59:49Z</time>
      </trkpt>
      <trkpt lat="45.50076" lon="2.88806">
        <ele>1191</ele>
        <time>2019-04-17T02:00:49Z</time>
      </trkpt>
      <trkpt lat="45.50048" lon="2.88713">
        <ele>1191</ele>
        <time>2019-04-17T02:01:49Z</time>
      </trkpt>
      <trkpt lat="45.5004" lon="2.8869">
        <ele>1190</ele>
        <time>2019-04-17T02:02:49Z</time>
      </trkpt>
      <trkpt lat="45.5003" lon="2.88676">
        <ele>1191</ele>
        <time>2019-04-17T02:03:49Z</time>
      </trkpt>
      <trkpt lat="45.49978" lon="2.88654">
        <ele>1199</ele>
        <time>2019-04-17T02:04:49Z</time>
      </trkpt>
      <trkpt lat="45.49964" lon="2.88643">
        <ele>1201</ele>
        <time>2019-04-17T02:05:49Z</time>
      </trkpt>
      <trkpt lat="45.49958" lon="2.88628">
        <ele>1203</ele>
        <time>2019-04-17T02:06:49Z</time>
      </trkpt>
      <trkpt lat="45.49954" lon="2.88605">
        <ele>1205</ele>
        <time>2019-04-17T02:07:49Z</time>
      </trkpt>
      <trkpt lat="45.49971" lon="2.88577">
        <ele>1202</ele>
        <time>2019-04-17T02:08:49Z</time>
      </trkpt>
      <trkpt lat="45.49992" lon="2.88557">
        <ele>1195</ele>
        <time>2019-04-17T02:09:49Z</time>
      </trkpt>
      <trkpt lat="45.49998" lon="2.88547">
        <ele>1192</ele>
        <time>2019-04-17T02:10:49Z</time>
      </trkpt>
      <trkpt lat="45.50002" lon="2.88535">
        <ele>1191</ele>
        <time>2019-04-17T02:11:49Z</time>
      </trkpt>
      <trkpt lat="45.50001" lon="2.88516">
        <ele>1190</ele>
        <time>2019-04-17T02:12:49Z</time>
      </trkpt>
      <trkpt lat="45.49989" lon="2.88421">
        <ele>1184</ele>
        <time>2019-04-17T02:13:49Z</time>
      </trkpt>
      <trkpt lat="45.4997" lon="2.88354">
        <ele>1187</ele>
        <time>2019-04-17T02:14:49Z</time>
      </trkpt>
      <trkpt lat="45.49971" lon="2.88334">
        <ele>1186</ele>
        <time>2019-04-17T02:15:49Z</time>
      </trkpt>
      <trkpt lat="45.49985" lon="2.88325">
        <ele>1181</ele>
        <time>2019-04-17T02:16:49Z</time>
      </trkpt>
      <trkpt lat="45.49992" lon="2.88328">
        <ele>1178</ele>
        <time>2019-04-17T02:17:49Z</time>
      </trkpt>
      <trkpt lat="45.50077" lon="2.88474">
        <ele>1169</ele>
        <time>2019-04-17T02:18:49Z</time>
      </trkpt>
      <trkpt lat="45.50094" lon="2.88491">
        <ele>1168</ele>
        <time>2019-04-17T02:19:49Z</time>
      </trkpt>
      <trkpt lat="45.50184" lon="2.88796">
        <ele>1166</ele>
        <time>2019-04-17T02:20:49Z</time>
      </trkpt>
      <trkpt lat="45.50227" lon="2.88976">
        <ele>1163</ele>
        <time>2019-04-17T02:21:49Z</time>
      </trkpt>
      <trkpt lat="45.50269" lon="2.89092">
        <ele>1162</ele>
        <time>2019-04-17T02:22:49Z</time>
      </trkpt>
      <trkpt lat="45.50283" lon="2.89135">
        <ele>1164</ele>
        <time>2019-04-17T02:23:49Z</time>
      </trkpt>
      <trkpt lat="45.50281" lon="2.89149">
        <ele>1165</ele>
        <time>2019-04-17T02:24:49Z</time>
      </trkpt>
      <trkpt lat="45.50283" lon="2.89164">
        <ele>1166</ele>
        <time>2019-04-17T02:25:49Z</time>
      </trkpt>
      <trkpt lat="45.50287" lon="2.89172">
        <ele>1166</ele>
        <time>2019-04-17T02:26:49Z</time>
      </trkpt>
      <trkpt lat="45.50292" lon="2.89177">
        <ele>1166</ele>
        <time>2019-04-17T02:27:49Z</time>
      </trkpt>
      <trkpt lat="45.50304" lon="2.89182">
        <ele>1164</ele>
        <time>2019-04-17T02:28:49Z</time>
      </trkpt>
      <trkpt lat="45.50339" lon="2.89246">
        <ele>1164</ele>
        <time>2019-04-17T02:29:49Z</time>
      </trkpt>
      <trkpt lat="45.50365" lon="2.89312">
        <ele>1167</ele>
        <time>2019-04-17T02:30:49Z</time>
      </trkpt>
      <trkpt lat="45.50416" lon="2.8947">
        <ele>1163</ele>
        <time>2019-04-17T02:31:49Z</time>
      </trkpt>
      <trkpt lat="45.50433" lon="2.89548">
        <ele>1164</ele>
        <time>2019-04-17T02:32:49Z</time>
      </trkpt>
      <trkpt lat="45.50438" lon="2.89627">
        <ele>1163</ele>
        <time>2019-04-17T02:33:49Z</time>
      </trkpt>
      <trkpt lat="45.50438" lon="2.89676">
        <ele>1161</ele>
        <time>2019-04-17T02:34:49Z</time>
      </trkpt>
      <trkpt lat="45.50435" lon="2.89725">
        <ele>1160</ele>
        <time>2019-04-17T02:35:49Z</time>
      </trkpt>
      <trkpt lat="45.50425" lon="2.89788">
        <ele>1157</ele>
        <time>2019-04-17T02:36:49Z</time>
      </trkpt>
      <trkpt lat="45.5039" lon="2.89947">
        <ele>1163</ele>
        <time>2019-04-17T02:37:49Z</time>
      </trkpt>
      <trkpt lat="45.50378" lon="2.90017">
        <ele>1171</ele>
        <time>2019-04-17T02:38:49Z</time>
      </trkpt>
      <trkpt lat="45.50376" lon="2.90083">
        <ele>1176</ele>
        <time>2019-04-17T02:39:49Z</time>
      </trkpt>
      <trkpt lat="45.50381" lon="2.90133">
        <ele>1177</ele>
        <time>2019-04-17T02:40:49Z</time>
      </trkpt>
      <trkpt lat="45.5042" lon="2.90316">
        <ele>1178</ele>
        <time>2019-04-17T02:41:49Z</time>
      </trkpt>
      <trkpt lat="45.50449" lon="2.90464">
        <ele>1186</ele>
        <time>2019-04-17T02:42:49Z</time>
      </trkpt>
      <trkpt lat="45.50453" lon="2.905">
        <ele>1189</ele>
        <time>2019-04-17T02:43:49Z</time>
      </trkpt>
      <trkpt lat="45.50458" lon="2.90652">
        <ele>1192</ele>
        <time>2019-04-17T02:44:49Z</time>
      </trkpt>
      <trkpt lat="45.50472" lon="2.90879">
        <ele>1191</ele>
        <time>2019-04-17T02:45:49Z</time>
      </trkpt>
      <trkpt lat="45.5047" lon="2.91012">
        <ele>1192</ele>
        <time>2019-04-17T02:46:49Z</time>
      </trkpt>
      <trkpt lat="45.50477" lon="2.91119">
        <ele>1190</ele>
        <time>2019-04-17T02:47:49Z</time>
      </trkpt>
      <trkpt lat="45.50482" lon="2.9123">
        <ele>1182</ele>
        <time>2019-04-17T02:48:49Z</time>
      </trkpt>
      <trkpt lat="45.50488" lon="2.91311">
        <ele>1175</ele>
        <time>2019-04-17T02:49:49Z</time>
      </trkpt>
      <trkpt lat="45.50497" lon="2.91347">
        <ele>1172</ele>
        <time>2019-04-17T02:50:49Z</time>
      </trkpt>
      <trkpt lat="45.50565" lon="2.9149">
        <ele>1158</ele>
        <time>2019-04-17T02:51:49Z</time>
      </trkpt>
      <trkpt lat="45.5059" lon="2.91556">
        <ele>1155</ele>
        <time>2019-04-17T02:52:49Z</time>
      </trkpt>
      <trkpt lat="45.50602" lon="2.91593">
        <ele>1151</ele>
        <time>2019-04-17T02:53:49Z</time>
      </trkpt>
      <trkpt lat="45.50609" lon="2.91631">
        <ele>1149</ele>
        <time>2019-04-17T02:54:49Z</time>
      </trkpt>
      <trkpt lat="45.50616" lon="2.91687">
        <ele>1146</ele>
        <time>2019-04-17T02:55:49Z</time>
      </trkpt>
      <trkpt lat="45.50621" lon="2.91715">
        <ele>1145</ele>
        <time>2019-04-17T02:56:49Z</time>
      </trkpt>
      <trkpt lat="45.50629" lon="2.91739">
        <ele>1145</ele>
        <time>2019-04-17T02:57:49Z</time>
      </trkpt>
      <trkpt lat="45.50652" lon="2.91787">
        <ele>1144</ele>
        <time>2019-04-17T02:58:49Z</time>
      </trkpt>
      <trkpt lat="45.5067" lon="2.9182">
        <ele>1144</ele>
        <time>2019-04-17T02:59:49Z</time>
      </trkpt>
      <trkpt lat="45.50686" lon="2.91855">
        <ele>1143</ele>
        <time>2019-04-17T03:00:49Z</time>
      </trkpt>
      <trkpt lat="45.50701" lon="2.91905">
        <ele>1141</ele>
        <time>2019-04-17T03:01:49Z</time>
      </trkpt>
      <trkpt lat="45.50735" lon="2.92025">
        <ele>1137</ele>
        <time>2019-04-17T03:02:49Z</time>
      </trkpt>
      <trkpt lat="45.5075" lon="2.92083">
        <ele>1134</ele>
        <time>2019-04-17T03:03:49Z</time>
      </trkpt>
      <trkpt lat="45.50759" lon="2.92127">
        <ele>1129</ele>
        <time>2019-04-17T03:04:49Z</time>
      </trkpt>
      <trkpt lat="45.5076" lon="2.92152">
        <ele>1125</ele>
        <time>2019-04-17T03:05:49Z</time>
      </trkpt>
      <trkpt lat="45.50757" lon="2.92243">
        <ele>1113</ele>
        <time>2019-04-17T03:06:49Z</time>
      </trkpt>
      <trkpt lat="45.5078" lon="2.92421">
        <ele>1097</ele>
        <time>2019-04-17T03:07:49Z</time>
      </trkpt>
      <trkpt lat="45.508" lon="2.92499">
        <ele>1090</ele>
        <time>2019-04-17T03:08:49Z</time>
      </trkpt>
      <trkpt lat="45.50815" lon="2.92534">
        <ele>1088</ele>
        <time>2019-04-17T03:09:49Z</time>
      </trkpt>
      <trkpt lat="45.5089" lon="2.92618">
        <ele>1084</ele>
        <time>2019-04-17T03:10:49Z</time>
      </trkpt>
      <trkpt lat="45.50914" lon="2.92654">
        <ele>1080</ele>
        <time>2019-04-17T03:11:49Z</time>
      </trkpt>
      <trkpt lat="45.50933" lon="2.92692">
        <ele>1079</ele>
        <time>2019-04-17T03:12:49Z</time>
      </trkpt>
      <trkpt lat="45.50952" lon="2.92742">
        <ele>1076</ele>
        <time>2019-04-17T03:13:49Z</time>
      </trkpt>
      <trkpt lat="45.50966" lon="2.92786">
        <ele>1073</ele>
        <time>2019-04-17T03:14:49Z</time>
      </trkpt>
      <trkpt lat="45.50996" lon="2.92911">
        <ele>1061</ele>
        <time>2019-04-17T03:15:49Z</time>
      </trkpt>
      <trkpt lat="45.51005" lon="2.92933">
        <ele>1060</ele>
        <time>2019-04-17T03:16:49Z</time>
      </trkpt>
      <trkpt lat="45.51043" lon="2.92998">
        <ele>1057</ele>
        <time>2019-04-17T03:17:49Z</time>
      </trkpt>
      <trkpt lat="45.51064" lon="2.9303">
        <ele>1055</ele>
        <time>2019-04-17T03:18:49Z</time>
      </trkpt>
      <trkpt lat="45.51073" lon="2.93053">
        <ele>1054</ele>
        <time>2019-04-17T03:19:49Z</time>
      </trkpt>
      <trkpt lat="45.51075" lon="2.93063">
        <ele>1053</ele>
        <time>2019-04-17T03:20:49Z</time>
      </trkpt>
      <trkpt lat="45.51075" lon="2.93077">
        <ele>1053</ele>
        <time>2019-04-17T03:21:49Z</time>
      </trkpt>
      <trkpt lat="45.5106" lon="2.93121">
        <ele>1050</ele>
        <time>2019-04-17T03:22:49Z</time>
      </trkpt>
      <trkpt lat="45.51039" lon="2.93156">
        <ele>1049</ele>
        <time>2019-04-17T03:23:49Z</time>
      </trkpt>
      <trkpt lat="45.51024" lon="2.93167">
        <ele>1049</ele>
        <time>2019-04-17T03:24:49Z</time>
      </trkpt>
      <trkpt lat="45.51022" lon="2.93175">
        <ele>1048</ele>
        <time>2019-04-17T03:25:49Z</time>
      </trkpt>
      <trkpt lat="45.51023" lon="2.93183">
        <ele>1048</ele>
        <time>2019-04-17T03:26:49Z</time>
      </trkpt>
      <trkpt lat="45.51009" lon="2.93228">
        <ele>1047</ele>
        <time>2019-04-17T03:27:49Z</time>
      </trkpt>
      <trkpt lat="45.50994" lon="2.93264">
        <ele>1046</ele>
        <time>2019-04-17T03:28:49Z</time>
      </trkpt>
      <trkpt lat="45.5099" lon="2.93278">
        <ele>1045</ele>
        <time>2019-04-17T03:29:49Z</time>
      </trkpt>
      <trkpt lat="45.50984" lon="2.93314">
        <ele>1043</ele>
        <time>2019-04-17T03:30:49Z</time>
      </trkpt>
      <trkpt lat="45.50968" lon="2.93428">
        <ele>1041</ele>
        <time>2019-04-17T03:31:49Z</time>
      </trkpt>
      <trkpt lat="45.50962" lon="2.93431">
        <ele>1041</ele>
        <time>2019-04-17T03:32:49Z</time>
      </trkpt>
      <trkpt lat="45.5096" lon="2.93437">
        <ele>1041</ele>
        <time>2019-04-17T03:33:49Z</time>
      </trkpt>
      <trkpt lat="45.5096" lon="2.93443">
        <ele>1041</ele>
        <time>2019-04-17T03:34:49Z</time>
      </trkpt>
      <trkpt lat="45.50964" lon="2.9345">
        <ele>1040</ele>
        <time>2019-04-17T03:35:49Z</time>
      </trkpt>
      <trkpt lat="45.50969" lon="2.9345">
        <ele>1040</ele>
        <time>2019-04-17T03:36:49Z</time>
      </trkpt>
      <trkpt lat="45.50973" lon="2.93447">
        <ele>1040</ele>
        <time>2019-04-17T03:37:49Z</time>
      </trkpt>
      <trkpt lat="45.50975" lon="2.93439">
        <ele>1040</ele>
        <time>2019-04-17T03:38:49Z</time>
      </trkpt>
      <trkpt lat="45.51016" lon="2.93422">
        <ele>1039</ele>
        <time>2019-04-17T03:39:49Z</time>
      </trkpt>
      <trkpt lat="45.51106" lon="2.93371">
        <ele>1038</ele>
        <time>2019-04-17T03:40:49Z</time>
      </trkpt>
      <trkpt lat="45.51124" lon="2.93393">
        <ele>1037</ele>
        <time>2019-04-17T03:41:49Z</time>
      </trkpt>
      <trkpt lat="45.51151" lon="2.9344">
        <ele>1032</ele>
        <time>2019-04-17T03:42:49Z</time>
      </trkpt>
      <trkpt lat="45.51161" lon="2.93451">
        <ele>1031</ele>
        <time>2019-04-17T03:43:49Z</time>
      </trkpt>
      <trkpt lat="45.51173" lon="2.93459">
        <ele>1030</ele>
        <time>2019-04-17T03:44:49Z</time>
      </trkpt>
      <trkpt lat="45.51238" lon="2.93489">
        <ele>1027</ele>
        <time>2019-04-17T03:45:49Z</time>
      </trkpt>
      <trkpt lat="45.51262" lon="2.93551">
        <ele>1021</ele>
        <time>2019-04-17T03:46:49Z</time>
      </trkpt>
      <trkpt lat="45.51268" lon="2.93559">
        <ele>1020</ele>
        <time>2019-04-17T03:47:49Z</time>
      </trkpt>
      <trkpt lat="45.51276" lon="2.93569">
        <ele>1018</ele>
        <time>2019-04-17T03:48:49Z</time>
      </trkpt>
      <trkpt lat="45.5129" lon="2.93579">
        <ele>1017</ele>
        <time>2019-04-17T03:49:49Z</time>
      </trkpt>
      <trkpt lat="45.51305" lon="2.9358">
        <ele>1016</ele>
        <time>2019-04-17T03:50:49Z</time>
      </trkpt>
      <trkpt lat="45.51314" lon="2.93572">
        <ele>1016</ele>
        <time>2019-04-17T03:51:49Z</time>
      </trkpt>
      <trkpt lat="45.51327" lon="2.93541">
        <ele>1017</ele>
        <time>2019-04-17T03:52:49Z</time>
      </trkpt>
      <trkpt lat="45.51334" lon="2.9353">
        <ele>1016</ele>
        <time>2019-04-17T03:53:49Z</time>
      </trkpt>
      <trkpt lat="45.51351" lon="2.93514">
        <ele>1014</ele>
        <time>2019-04-17T03:54:49Z</time>
      </trkpt>
      <trkpt lat="45.51375" lon="2.93477">
        <ele>1012</ele>
        <time>2019-04-17T03:55:49Z</time>
      </trkpt>
      <trkpt lat="45.51383" lon="2.93474">
        <ele>1011</ele>
        <time>2019-04-17T03:56:49Z</time>
      </trkpt>
      <trkpt lat="45.51391" lon="2.93482">
        <ele>1009</ele>
        <time>2019-04-17T03:57:49Z</time>
      </trkpt>
      <trkpt lat="45.51394" lon="2.93496">
        <ele>1008</ele>
        <time>2019-04-17T03:58:49Z</time>
      </trkpt>
      <trkpt lat="45.51393" lon="2.93511">
        <ele>1007</ele>
        <time>2019-04-17T03:59:49Z</time>
      </trkpt>
      <trkpt lat="45.5137" lon="2.9355">
        <ele>1009</ele>
        <time>2019-04-17T04:00:49Z</time>
      </trkpt>
      <trkpt lat="45.51364" lon="2.93568">
        <ele>1009</ele>
        <time>2019-04-17T04:01:49Z</time>
      </trkpt>
      <trkpt lat="45.51364" lon="2.93587">
        <ele>1008</ele>
        <time>2019-04-17T04:02:49Z</time>
      </trkpt>
      <trkpt lat="45.5137" lon="2.93606">
        <ele>1006</ele>
        <time>2019-04-17T04:03:49Z</time>
      </trkpt>
      <trkpt lat="45.51407" lon="2.93653">
        <ele>999</ele>
        <time>2019-04-17T04:04:49Z</time>
      </trkpt>
      <trkpt lat="45.51462" lon="2.93764">
        <ele>992</ele>
        <time>2019-04-17T04:05:49Z</time>
      </trkpt>
      <trkpt lat="45.51533" lon="2.9388">
        <ele>986</ele>
        <time>2019-04-17T04:06:49Z</time>
      </trkpt>
      <trkpt lat="45.5153" lon="2.93888">
        <ele>987</ele>
        <time>2019-04-17T04:07:49Z</time>
      </trkpt>
      <trkpt lat="45.51531" lon="2.93896">
        <ele>987</ele>
        <time>2019-04-17T04:08:49Z</time>
      </trkpt>
      <trkpt lat="45.51535" lon="2.93903">
        <ele>986</ele>
        <time>2019-04-17T04:09:49Z</time>
      </trkpt>
      <trkpt lat="45.51541" lon="2.93905">
        <ele>986</ele>
        <time>2019-04-17T04:10:49Z</time>
      </trkpt>
      <trkpt lat="45.51547" lon="2.93901">
        <ele>985</ele>
        <time>2019-04-17T04:11:49Z</time>
      </trkpt>
      <trkpt lat="45.51548" lon="2.93897">
        <ele>985</ele>
        <time>2019-04-17T04:12:49Z</time>
      </trkpt>
      <trkpt lat="45.51549" lon="2.93886">
        <ele>985</ele>
        <time>2019-04-17T04:13:49Z</time>
      </trkpt>
      <trkpt lat="45.51548" lon="2.93882">
        <ele>985</ele>
        <time>2019-04-17T04:14:49Z</time>
      </trkpt>
      <trkpt lat="45.51558" lon="2.93875">
        <ele>984</ele>
        <time>2019-04-17T04:15:49Z</time>
      </trkpt>
      <trkpt lat="45.51573" lon="2.93868">
        <ele>984</ele>
        <time>2019-04-17T04:16:49Z</time>
      </trkpt>
      <trkpt lat="45.51587" lon="2.93865">
        <ele>983</ele>
        <time>2019-04-17T04:17:49Z</time>
      </trkpt>
      <trkpt lat="45.51603" lon="2.93865">
        <ele>986</ele>
        <time>2019-04-17T04:18:49Z</time>
      </trkpt>
      <trkpt lat="45.51616" lon="2.9387">
        <ele>987</ele>
        <time>2019-04-17T04:19:49Z</time>
      </trkpt>
      <trkpt lat="45.51744" lon="2.93945">
        <ele>989</ele>
        <time>2019-04-17T04:20:49Z</time>
      </trkpt>
      <trkpt lat="45.51784" lon="2.93964">
        <ele>990</ele>
        <time>2019-04-17T04:21:49Z</time>
      </trkpt>
      <trkpt lat="45.51822" lon="2.93964">
        <ele>994</ele>
        <time>2019-04-17T04:22:49Z</time>
      </trkpt>
      <trkpt lat="45.51921" lon="2.93956">
        <ele>997</ele>
        <time>2019-04-17T04:23:49Z</time>
      </trkpt>
      <trkpt lat="45.51951" lon="2.9396">
        <ele>1000</ele>
        <time>2019-04-17T04:24:49Z</time>
      </trkpt>
      <trkpt lat="45.51985" lon="2.93992">
        <ele>1001</ele>
        <time>2019-04-17T04:25:49Z</time>
      </trkpt>
      <trkpt lat="45.52102" lon="2.94179">
        <ele>994</ele>
        <time>2019-04-17T04:26:49Z</time>
      </trkpt>
      <trkpt lat="45.52145" lon="2.94265">
        <ele>993</ele>
        <time>2019-04-17T04:27:49Z</time>
      </trkpt>
      <trkpt lat="45.52194" lon="2.94344">
        <ele>988</ele>
        <time>2019-04-17T04:28:49Z</time>
      </trkpt>
      <trkpt lat="45.52243" lon="2.94405">
        <ele>989</ele>
        <time>2019-04-17T04:29:49Z</time>
      </trkpt>
      <trkpt lat="45.52377" lon="2.94527">
        <ele>993</ele>
        <time>2019-04-17T04:30:49Z</time>
      </trkpt>
      <trkpt lat="45.52412" lon="2.94572">
        <ele>996</ele>
        <time>2019-04-17T04:31:49Z</time>
      </trkpt>
      <trkpt lat="45.52436" lon="2.94614">
        <ele>995</ele>
        <time>2019-04-17T04:32:49Z</time>
      </trkpt>
      <trkpt lat="45.52548" lon="2.94831">
        <ele>992</ele>
        <time>2019-04-17T04:33:49Z</time>
      </trkpt>
      <trkpt lat="45.52574" lon="2.94862">
        <ele>992</ele>
        <time>2019-04-17T04:34:49Z</time>
      </trkpt>
      <trkpt lat="45.52598" lon="2.94875">
        <ele>993</ele>
        <time>2019-04-17T04:35:49Z</time>
      </trkpt>
      <trkpt lat="45.5263" lon="2.94877">
        <ele>995</ele>
        <time>2019-04-17T04:36:49Z</time>
      </trkpt>
      <trkpt lat="45.52665" lon="2.94869">
        <ele>997</ele>
        <time>2019-04-17T04:37:49Z</time>
      </trkpt>
      <trkpt lat="45.53076" lon="2.94687">
        <ele>1013</ele>
        <time>2019-04-17T04:38:49Z</time>
      </trkpt>
      <trkpt lat="45.53121" lon="2.94672">
        <ele>1014</ele>
        <time>2019-04-17T04:39:49Z</time>
      </trkpt>
      <trkpt lat="45.5317" lon="2.94664">
        <ele>1014</ele>
        <time>2019-04-17T04:40:49Z</time>
      </trkpt>
      <trkpt lat="45.53339" lon="2.9467">
        <ele>1024</ele>
        <time>2019-04-17T04:41:49Z</time>
      </trkpt>
      <trkpt lat="45.53377" lon="2.94684">
        <ele>1028</ele>
        <time>2019-04-17T04:42:49Z</time>
      </trkpt>
      <trkpt lat="45.53404" lon="2.94709">
        <ele>1029</ele>
        <time>2019-04-17T04:43:49Z</time>
      </trkpt>
      <trkpt lat="45.53449" lon="2.94776">
        <ele>1028</ele>
        <time>2019-04-17T04:44:49Z</time>
      </trkpt>
      <trkpt lat="45.5347" lon="2.94797">
        <ele>1028</ele>
        <time>2019-04-17T04:45:49Z</time>
      </trkpt>
      <trkpt lat="45.53486" lon="2.94809">
        <ele>1029</ele>
        <time>2019-04-17T04:46:49Z</time>
      </trkpt>
      <trkpt lat="45.53597" lon="2.94844">
        <ele>1035</ele>
        <time>2019-04-17T04:47:49Z</time>
      </trkpt>
      <trkpt lat="45.53638" lon="2.94851">
        <ele>1037</ele>
        <time>2019-04-17T04:48:49Z</time>
      </trkpt>
      <trkpt lat="45.53669" lon="2.94847">
        <ele>1040</ele>
        <time>2019-04-17T04:49:49Z</time>
      </trkpt>
      <trkpt lat="45.53696" lon="2.94839">
        <ele>1039</ele>
        <time>2019-04-17T04:50:49Z</time>
      </trkpt>
      <trkpt lat="45.53725" lon="2.9482">
        <ele>1040</ele>
        <time>2019-04-17T04:51:49Z</time>
      </trkpt>
      <trkpt lat="45.53911" lon="2.94653">
        <ele>1039</ele>
        <time>2019-04-17T04:52:49Z</time>
      </trkpt>
      <trkpt lat="45.54068" lon="2.94477">
        <ele>1031</ele>
        <time>2019-04-17T04:53:49Z</time>
      </trkpt>
      <trkpt lat="45.54087" lon="2.94443">
        <ele>1030</ele>
        <time>2019-04-17T04:54:49Z</time>
      </trkpt>
      <trkpt lat="45.54095" lon="2.94401">
        <ele>1031</ele>
        <time>2019-04-17T04:55:49Z</time>
      </trkpt>
      <trkpt lat="45.54097" lon="2.94322">
        <ele>1034</ele>
        <time>2019-04-17T04:56:49Z</time>
      </trkpt>
      <trkpt lat="45.54105" lon="2.9427">
        <ele>1035</ele>
        <time>2019-04-17T04:57:49Z</time>
      </trkpt>
      <trkpt lat="45.54116" lon="2.94234">
        <ele>1033</ele>
        <time>2019-04-17T04:58:49Z</time>
      </trkpt>
      <trkpt lat="45.54152" lon="2.94152">
        <ele>1028</ele>
        <time>2019-04-17T04:59:49Z</time>
      </trkpt>
      <trkpt lat="45.54217" lon="2.94071">
        <ele>1012</ele>
        <time>2019-04-17T05:00:49Z</time>
      </trkpt>
      <trkpt lat="45.54225" lon="2.94052">
        <ele>1010</ele>
        <time>2019-04-17T05:01:49Z</time>
      </trkpt>
      <trkpt lat="45.5423" lon="2.94027">
        <ele>1008</ele>
        <time>2019-04-17T05:02:49Z</time>
      </trkpt>
      <trkpt lat="45.54228" lon="2.94009">
        <ele>1008</ele>
        <time>2019-04-17T05:03:49Z</time>
      </trkpt>
      <trkpt lat="45.54201" lon="2.93935">
        <ele>1009</ele>
        <time>2019-04-17T05:04:49Z</time>
      </trkpt>
      <trkpt lat="45.54198" lon="2.93912">
        <ele>1008</ele>
        <time>2019-04-17T05:05:49Z</time>
      </trkpt>
      <trkpt lat="45.54202" lon="2.93885">
        <ele>1008</ele>
        <time>2019-04-17T05:06:49Z</time>
      </trkpt>
      <trkpt lat="45.54216" lon="2.9386">
        <ele>1006</ele>
        <time>2019-04-17T05:07:49Z</time>
      </trkpt>
      <trkpt lat="45.5423" lon="2.9385">
        <ele>1005</ele>
        <time>2019-04-17T05:08:49Z</time>
      </trkpt>
      <trkpt lat="45.54246" lon="2.93845">
        <ele>1004</ele>
        <time>2019-04-17T05:09:49Z</time>
      </trkpt>
      <trkpt lat="45.54301" lon="2.93858">
        <ele>1010</ele>
        <time>2019-04-17T05:10:49Z</time>
      </trkpt>
      <trkpt lat="45.54332" lon="2.93871">
        <ele>1013</ele>
        <time>2019-04-17T05:11:49Z</time>
      </trkpt>
      <trkpt lat="45.54355" lon="2.93894">
        <ele>1015</ele>
        <time>2019-04-17T05:12:49Z</time>
      </trkpt>
      <trkpt lat="45.5437" lon="2.93922">
        <ele>1015</ele>
        <time>2019-04-17T05:13:49Z</time>
      </trkpt>
      <trkpt lat="45.54387" lon="2.93961">
        <ele>1017</ele>
        <time>2019-04-17T05:14:49Z</time>
      </trkpt>
      <trkpt lat="45.54397" lon="2.93994">
        <ele>1018</ele>
        <time>2019-04-17T05:15:49Z</time>
      </trkpt>
      <trkpt lat="45.54399" lon="2.94039">
        <ele>1019</ele>
        <time>2019-04-17T05:16:49Z</time>
      </trkpt>
      <trkpt lat="45.54395" lon="2.94075">
        <ele>1019</ele>
        <time>2019-04-17T05:17:49Z</time>
      </trkpt>
      <trkpt lat="45.54387" lon="2.94122">
        <ele>1019</ele>
        <time>2019-04-17T05:18:49Z</time>
      </trkpt>
      <trkpt lat="45.54355" lon="2.94225">
        <ele>1018</ele>
        <time>2019-04-17T05:19:49Z</time>
      </trkpt>
      <trkpt lat="45.54349" lon="2.94261">
        <ele>1018</ele>
        <time>2019-04-17T05:20:49Z</time>
      </trkpt>
      <trkpt lat="45.5435" lon="2.94286">
        <ele>1017</ele>
        <time>2019-04-17T05:21:49Z</time>
      </trkpt>
      <trkpt lat="45.54358" lon="2.94318">
        <ele>1017</ele>
        <time>2019-04-17T05:22:49Z</time>
      </trkpt>
      <trkpt lat="45.54373" lon="2.94343">
        <ele>1018</ele>
        <time>2019-04-17T05:23:49Z</time>
      </trkpt>
      <trkpt lat="45.54392" lon="2.94359">
        <ele>1019</ele>
        <time>2019-04-17T05:24:49Z</time>
      </trkpt>
      <trkpt lat="45.54414" lon="2.94368">
        <ele>1021</ele>
        <time>2019-04-17T05:25:49Z</time>
      </trkpt>
      <trkpt lat="45.5444" lon="2.94363">
        <ele>1022</ele>
        <time>2019-04-17T05:26:49Z</time>
      </trkpt>
      <trkpt lat="45.54494" lon="2.94331">
        <ele>1024</ele>
        <time>2019-04-17T05:27:49Z</time>
      </trkpt>
      <trkpt lat="45.54511" lon="2.94323">
        <ele>1025</ele>
        <time>2019-04-17T05:28:49Z</time>
      </trkpt>
      <trkpt lat="45.54526" lon="2.94322">
        <ele>1024</ele>
        <time>2019-04-17T05:29:49Z</time>
      </trkpt>
      <trkpt lat="45.54548" lon="2.94333">
        <ele>1023</ele>
        <time>2019-04-17T05:30:49Z</time>
      </trkpt>
      <trkpt lat="45.54566" lon="2.94349">
        <ele>1023</ele>
        <time>2019-04-17T05:31:49Z</time>
      </trkpt>
      <trkpt lat="45.54586" lon="2.94387">
        <ele>1024</ele>
        <time>2019-04-17T05:32:49Z</time>
      </trkpt>
      <trkpt lat="45.54594" lon="2.94438">
        <ele>1025</ele>
        <time>2019-04-17T05:33:49Z</time>
      </trkpt>
      <trkpt lat="45.54611" lon="2.94483">
        <ele>1026</ele>
        <time>2019-04-17T05:34:49Z</time>
      </trkpt>
      <trkpt lat="45.54626" lon="2.94505">
        <ele>1027</ele>
        <time>2019-04-17T05:35:49Z</time>
      </trkpt>
      <trkpt lat="45.54645" lon="2.94521">
        <ele>1028</ele>
        <time>2019-04-17T05:36:49Z</time>
      </trkpt>
      <trkpt lat="45.5466" lon="2.94527">
        <ele>1029</ele>
        <time>2019-04-17T05:37:49Z</time>
      </trkpt>
      <trkpt lat="45.5468" lon="2.94531">
        <ele>1029</ele>
        <time>2019-04-17T05:38:49Z</time>
      </trkpt>
      <trkpt lat="45.54719" lon="2.94528">
        <ele>1031</ele>
        <time>2019-04-17T05:39:49Z</time>
      </trkpt>
      <trkpt lat="45.54805" lon="2.94516">
        <ele>1030</ele>
        <time>2019-04-17T05:40:49Z</time>
      </trkpt>
      <trkpt lat="45.5483" lon="2.9451">
        <ele>1029</ele>
        <time>2019-04-17T05:41:49Z</time>
      </trkpt>
      <trkpt lat="45.54857" lon="2.94488">
        <ele>1028</ele>
        <time>2019-04-17T05:42:49Z</time>
      </trkpt>
      <trkpt lat="45.54878" lon="2.94461">
        <ele>1027</ele>
        <time>2019-04-17T05:43:49Z</time>
      </trkpt>
      <trkpt lat="45.54895" lon="2.94436">
        <ele>1027</ele>
        <time>2019-04-17T05:44:49Z</time>
      </trkpt>
      <trkpt lat="45.54935" lon="2.94362">
        <ele>1025</ele>
        <time>2019-04-17T05:45:49Z</time>
      </trkpt>
      <trkpt lat="45.54968" lon="2.9427">
        <ele>1020</ele>
        <time>2019-04-17T05:46:49Z</time>
      </trkpt>
      <trkpt lat="45.5499" lon="2.94167">
        <ele>1020</ele>
        <time>2019-04-17T05:47:49Z</time>
      </trkpt>
      <trkpt lat="45.55008" lon="2.94056">
        <ele>1021</ele>
        <time>2019-04-17T05:48:49Z</time>
      </trkpt>
      <trkpt lat="45.55018" lon="2.94021">
        <ele>1022</ele>
        <time>2019-04-17T05:49:49Z</time>
      </trkpt>
      <trkpt lat="45.55028" lon="2.94008">
        <ele>1022</ele>
        <time>2019-04-17T05:50:49Z</time>
      </trkpt>
      <trkpt lat="45.5505" lon="2.94003">
        <ele>1021</ele>
        <time>2019-04-17T05:51:49Z</time>
      </trkpt>
      <trkpt lat="45.55068" lon="2.94013">
        <ele>1020</ele>
        <time>2019-04-17T05:52:49Z</time>
      </trkpt>
      <trkpt lat="45.55079" lon="2.94028">
        <ele>1018</ele>
        <time>2019-04-17T05:53:49Z</time>
      </trkpt>
      <trkpt lat="45.55106" lon="2.94068">
        <ele>1016</ele>
        <time>2019-04-17T05:54:49Z</time>
      </trkpt>
      <trkpt lat="45.55125" lon="2.94112">
        <ele>1013</ele>
        <time>2019-04-17T05:55:49Z</time>
      </trkpt>
      <trkpt lat="45.55137" lon="2.94132">
        <ele>1011</ele>
        <time>2019-04-17T05:56:49Z</time>
      </trkpt>
      <trkpt lat="45.55158" lon="2.94159">
        <ele>1008</ele>
        <time>2019-04-17T05:57:49Z</time>
      </trkpt>
      <trkpt lat="45.55353" lon="2.94376">
        <ele>985</ele>
        <time>2019-04-17T05:58:49Z</time>
      </trkpt>
      <trkpt lat="45.55469" lon="2.94509">
        <ele>975</ele>
        <time>2019-04-17T05:59:49Z</time>
      </trkpt>
      <trkpt lat="45.55545" lon="2.94595">
        <ele>972</ele>
        <time>2019-04-17T06:00:49Z</time>
      </trkpt>
      <trkpt lat="45.55608" lon="2.94631">
        <ele>971</ele>
        <time>2019-04-17T06:01:49Z</time>
      </trkpt>
      <trkpt lat="45.55632" lon="2.94656">
        <ele>969</ele>
        <time>2019-04-17T06:02:49Z</time>
      </trkpt>
      <trkpt lat="45.55652" lon="2.9469">
        <ele>968</ele>
        <time>2019-04-17T06:03:49Z</time>
      </trkpt>
      <trkpt lat="45.55662" lon="2.94716">
        <ele>967</ele>
        <time>2019-04-17T06:04:49Z</time>
      </trkpt>
      <trkpt lat="45.55668" lon="2.94751">
        <ele>966</ele>
        <time>2019-04-17T06:05:49Z</time>
      </trkpt>
      <trkpt lat="45.55673" lon="2.94813">
        <ele>964</ele>
        <time>2019-04-17T06:06:49Z</time>
      </trkpt>
      <trkpt lat="45.55678" lon="2.94842">
        <ele>963</ele>
        <time>2019-04-17T06:07:49Z</time>
      </trkpt>
      <trkpt lat="45.55687" lon="2.94864">
        <ele>960</ele>
        <time>2019-04-17T06:08:49Z</time>
      </trkpt>
      <trkpt lat="45.55703" lon="2.94884">
        <ele>956</ele>
        <time>2019-04-17T06:09:49Z</time>
      </trkpt>
      <trkpt lat="45.55718" lon="2.94892">
        <ele>953</ele>
        <time>2019-04-17T06:10:49Z</time>
      </trkpt>
      <trkpt lat="45.55743" lon="2.94894">
        <ele>948</ele>
        <time>2019-04-17T06:11:49Z</time>
      </trkpt>
      <trkpt lat="45.55764" lon="2.94888">
        <ele>945</ele>
        <time>2019-04-17T06:12:49Z</time>
      </trkpt>
      <trkpt lat="45.55788" lon="2.94858">
        <ele>944</ele>
        <time>2019-04-17T06:13:49Z</time>
      </trkpt>
      <trkpt lat="45.55862" lon="2.94723">
        <ele>939</ele>
        <time>2019-04-17T06:14:49Z</time>
      </trkpt>
      <trkpt lat="45.55882" lon="2.94705">
        <ele>936</ele>
        <time>2019-04-17T06:15:49Z</time>
      </trkpt>
      <trkpt lat="45.55899" lon="2.94699">
        <ele>934</ele>
        <time>2019-04-17T06:16:49Z</time>
      </trkpt>
      <trkpt lat="45.55916" lon="2.947">
        <ele>931</ele>
        <time>2019-04-17T06:17:49Z</time>
      </trkpt>
      <trkpt lat="45.55933" lon="2.94712">
        <ele>928</ele>
        <time>2019-04-17T06:18:49Z</time>
      </trkpt>
      <trkpt lat="45.55947" lon="2.94733">
        <ele>925</ele>
        <time>2019-04-17T06:19:49Z</time>
      </trkpt>
      <trkpt lat="45.55955" lon="2.94758">
        <ele>925</ele>
        <time>2019-04-17T06:20:49Z</time>
      </trkpt>
      <trkpt lat="45.55974" lon="2.94895">
        <ele>926</ele>
        <time>2019-04-17T06:21:49Z</time>
      </trkpt>
      <trkpt lat="45.55988" lon="2.94933">
        <ele>926</ele>
        <time>2019-04-17T06:22:49Z</time>
      </trkpt>
      <trkpt lat="45.56013" lon="2.9498">
        <ele>929</ele>
        <time>2019-04-17T06:23:49Z</time>
      </trkpt>
      <trkpt lat="45.5603" lon="2.94999">
        <ele>929</ele>
        <time>2019-04-17T06:24:49Z</time>
      </trkpt>
      <trkpt lat="45.56047" lon="2.95004">
        <ele>928</ele>
        <time>2019-04-17T06:25:49Z</time>
      </trkpt>
      <trkpt lat="45.5607" lon="2.95001">
        <ele>924</ele>
        <time>2019-04-17T06:26:49Z</time>
      </trkpt>
      <trkpt lat="45.56173" lon="2.94945">
        <ele>911</ele>
        <time>2019-04-17T06:27:49Z</time>
      </trkpt>
      <trkpt lat="45.56193" lon="2.9494">
        <ele>907</ele>
        <time>2019-04-17T06:28:49Z</time>
      </trkpt>
      <trkpt lat="45.56215" lon="2.9494">
        <ele>905</ele>
        <time>2019-04-17T06:29:49Z</time>
      </trkpt>
      <trkpt lat="45.56299" lon="2.94956">
        <ele>903</ele>
        <time>2019-04-17T06:30:49Z</time>
      </trkpt>
      <trkpt lat="45.56328" lon="2.94952">
        <ele>900</ele>
        <time>2019-04-17T06:31:49Z</time>
      </trkpt>
      <trkpt lat="45.56348" lon="2.94941">
        <ele>899</ele>
        <time>2019-04-17T06:32:49Z</time>
      </trkpt>
      <trkpt lat="45.56366" lon="2.94925">
        <ele>897</ele>
        <time>2019-04-17T06:33:49Z</time>
      </trkpt>
      <trkpt lat="45.56456" lon="2.9483">
        <ele>885</ele>
        <time>2019-04-17T06:34:49Z</time>
      </trkpt>
      <trkpt lat="45.56479" lon="2.94814">
        <ele>883</ele>
        <time>2019-04-17T06:35:49Z</time>
      </trkpt>
      <trkpt lat="45.56507" lon="2.94808">
        <ele>882</ele>
        <time>2019-04-17T06:36:49Z</time>
      </trkpt>
      <trkpt lat="45.56535" lon="2.94813">
        <ele>879</ele>
        <time>2019-04-17T06:37:49Z</time>
      </trkpt>
      <trkpt lat="45.56704" lon="2.94896">
        <ele>866</ele>
        <time>2019-04-17T06:38:49Z</time>
      </trkpt>
      <trkpt lat="45.56724" lon="2.94901">
        <ele>863</ele>
        <time>2019-04-17T06:39:49Z</time>
      </trkpt>
      <trkpt lat="45.56759" lon="2.94894">
        <ele>855</ele>
        <time>2019-04-17T06:40:49Z</time>
      </trkpt>
      <trkpt lat="45.56772" lon="2.94886">
        <ele>853</ele>
        <time>2019-04-17T06:41:49Z</time>
      </trkpt>
      <trkpt lat="45.56799" lon="2.94858">
        <ele>848</ele>
        <time>2019-04-17T06:42:49Z</time>
      </trkpt>
      <trkpt lat="45.56971" lon="2.94616">
        <ele>851</ele>
        <time>2019-04-17T06:43:49Z</time>
      </trkpt>
      <trkpt lat="45.57012" lon="2.94576">
        <ele>849</ele>
        <time>2019-04-17T06:44:49Z</time>
      </trkpt>
      <trkpt lat="45.57052" lon="2.94551">
        <ele>848</ele>
        <time>2019-04-17T06:45:49Z</time>
      </trkpt>
      <trkpt lat="45.57093" lon="2.94536">
        <ele>849</ele>
        <time>2019-04-17T06:46:49Z</time>
      </trkpt>
      <trkpt lat="45.57112" lon="2.94533">
        <ele>850</ele>
        <time>2019-04-17T06:47:49Z</time>
      </trkpt>
      <trkpt lat="45.5718" lon="2.94526">
        <ele>853</ele>
        <time>2019-04-17T06:48:49Z</time>
      </trkpt>
      <trkpt lat="45.57216" lon="2.94515">
        <ele>849</ele>
        <time>2019-04-17T06:49:49Z</time>
      </trkpt>
      <trkpt lat="45.57235" lon="2.94508">
        <ele>847</ele>
        <time>2019-04-17T06:50:49Z</time>
      </trkpt>
      <trkpt lat="45.57234" lon="2.94267">
        <ele>851</ele>
        <time>2019-04-17T06:51:49Z</time>
      </trkpt>
      <trkpt lat="45.57236" lon="2.94243">
        <ele>850</ele>
        <time>2019-04-17T06:52:49Z</time>
      </trkpt>
      <trkpt lat="45.57243" lon="2.94214">
        <ele>850</ele>
        <time>2019-04-17T06:53:49Z</time>
      </trkpt>
      <trkpt lat="45.57248" lon="2.942">
        <ele>849</ele>
        <time>2019-04-17T06:54:49Z</time>
      </trkpt>
      <trkpt lat="45.57315" lon="2.94038">
        <ele>858</ele>
        <time>2019-04-17T06:55:49Z</time>
      </trkpt>
      <trkpt lat="45.57323" lon="2.94022">
        <ele>861</ele>
        <time>2019-04-17T06:56:49Z</time>
      </trkpt>
      <trkpt lat="45.57331" lon="2.94013">
        <ele>862</ele>
        <time>2019-04-17T06:57:49Z</time>
      </trkpt>
      <trkpt lat="45.57404" lon="2.9397">
        <ele>855</ele>
        <time>2019-04-17T06:58:49Z</time>
      </trkpt>
      <trkpt lat="45.57455" lon="2.93932">
        <ele>853</ele>
        <time>2019-04-17T06:59:49Z</time>
      </trkpt>
      <trkpt lat="45.57457" lon="2.93931">
        <ele>853</ele>
        <time>2019-04-17T07:00:49Z</time>
      </trkpt>
      <trkpt lat="45.5746" lon="2.93938">
        <ele>851</ele>
        <time>2019-04-17T07:01:49Z</time>
      </trkpt>
      <trkpt lat="45.57463" lon="2.93939">
        <ele>850</ele>
        <time>2019-04-17T07:02:49Z</time>
      </trkpt>
      <trkpt lat="45.57472" lon="2.93927">
        <ele>850</ele>
        <time>2019-04-17T07:03:49Z</time>
      </trkpt>
      <trkpt lat="45.57474" lon="2.93927">
        <ele>849</ele>
        <time>2019-04-17T07:04:49Z</time>
      </trkpt>
      <trkpt lat="45.57477" lon="2.93921">
        <ele>849</ele>
        <time>2019-04-17T07:05:49Z</time>
      </trkpt>
      <trkpt lat="45.57474" lon="2.93889">
        <ele>858</ele>
        <time>2019-04-17T07:06:49Z</time>
      </trkpt>
      <trkpt lat="45.57474" lon="2.93873">
        <ele>862</ele>
        <time>2019-04-17T07:07:49Z</time>
      </trkpt>
      <trkpt lat="45.57477" lon="2.93853">
        <ele>865</ele>
        <time>2019-04-17T07:08:49Z</time>
      </trkpt>
      <trkpt lat="45.57481" lon="2.93839">
        <ele>866</ele>
        <time>2019-04-17T07:09:49Z</time>
      </trkpt>
      <trkpt lat="45.57497" lon="2.93815">
        <ele>864</ele>
        <time>2019-04-17T07:10:49Z</time>
      </trkpt>
      <trkpt lat="45.5751" lon="2.93802">
        <ele>866</ele>
        <time>2019-04-17T07:11:49Z</time>
      </trkpt>
      <trkpt lat="45.5753" lon="2.93789">
        <ele>866</ele>
        <time>2019-04-17T07:12:49Z</time>
      </trkpt>
      <trkpt lat="45.57537" lon="2.93781">
        <ele>865</ele>
        <time>2019-04-17T07:13:49Z</time>
      </trkpt>
      <trkpt lat="45.57543" lon="2.93769">
        <ele>866</ele>
        <time>2019-04-17T07:14:49Z</time>
      </trkpt>
      <trkpt lat="45.5755" lon="2.93748">
        <ele>865</ele>
        <time>2019-04-17T07:15:49Z</time>
      </trkpt>
      <trkpt lat="45.57566" lon="2.9365">
        <ele>863</ele>
        <time>2019-04-17T07:16:49Z</time>
      </trkpt>
      <trkpt lat="45.57565" lon="2.93613">
        <ele>863</ele>
        <time>2019-04-17T07:17:49Z</time>
      </trkpt>
      <trkpt lat="45.5754" lon="2.93516">
        <ele>872</ele>
        <time>2019-04-17T07:18:49Z</time>
      </trkpt>
      <trkpt lat="45.57538" lon="2.93479">
        <ele>871</ele>
        <time>2019-04-17T07:19:49Z</time>
      </trkpt>
      <trkpt lat="45.57543" lon="2.93454">
        <ele>868</ele>
        <time>2019-04-17T07:20:49Z</time>
      </trkpt>
      <trkpt lat="45.57553" lon="2.93424">
        <ele>864</ele>
        <time>2019-04-17T07:21:49Z</time>
      </trkpt>
      <trkpt lat="45.57593" lon="2.93344">
        <ele>857</ele>
        <time>2019-04-17T07:22:49Z</time>
      </trkpt>
      <trkpt lat="45.57598" lon="2.93318">
        <ele>857</ele>
        <time>2019-04-17T07:23:49Z</time>
      </trkpt>
      <trkpt lat="45.576" lon="2.93292">
        <ele>858</ele>
        <time>2019-04-17T07:24:49Z</time>
      </trkpt>
      <trkpt lat="45.57597" lon="2.93117">
        <ele>866</ele>
        <time>2019-04-17T07:25:49Z</time>
      </trkpt>
      <trkpt lat="45.57599" lon="2.93102">
        <ele>867</ele>
        <time>2019-04-17T07:26:49Z</time>
      </trkpt>
      <trkpt lat="45.57606" lon="2.93083">
        <ele>870</ele>
        <time>2019-04-17T07:27:49Z</time>
      </trkpt>
      <trkpt lat="45.5762" lon="2.93072">
        <ele>874</ele>
        <time>2019-04-17T07:28:49Z</time>
      </trkpt>
      <trkpt lat="45.57627" lon="2.93071">
        <ele>875</ele>
        <time>2019-04-17T07:29:49Z</time>
      </trkpt>
      <trkpt lat="45.57632" lon="2.93064">
        <ele>878</ele>
        <time>2019-04-17T07:30:49Z</time>
      </trkpt>
      <trkpt lat="45.57633" lon="2.93058">
        <ele>879</ele>
        <time>2019-04-17T07:31:49Z</time>
      </trkpt>
      <trkpt lat="45.5763" lon="2.93048">
        <ele>880</ele>
        <time>2019-04-17T07:32:49Z</time>
      </trkpt>
      <trkpt lat="45.57623" lon="2.93044">
        <ele>879</ele>
        <time>2019-04-17T07:33:49Z</time>
      </trkpt>
      <trkpt lat="45.57615" lon="2.93036">
        <ele>878</ele>
        <time>2019-04-17T07:34:49Z</time>
      </trkpt>
      <trkpt lat="45.576" lon="2.93016">
        <ele>877</ele>
        <time>2019-04-17T07:35:49Z</time>
      </trkpt>
      <trkpt lat="45.57583" lon="2.92985">
        <ele>876</ele>
        <time>2019-04-17T07:36:49Z</time>
      </trkpt>
      <trkpt lat="45.57576" lon="2.92967">
        <ele>877</ele>
        <time>2019-04-17T07:37:49Z</time>
      </trkpt>
      <trkpt lat="45.5756" lon="2.92906">
        <ele>882</ele>
        <time>2019-04-17T07:38:49Z</time>
      </trkpt>
      <trkpt lat="45.57533" lon="2.92843">
        <ele>885</ele>
        <time>2019-04-17T07:39:49Z</time>
      </trkpt>
      <trkpt lat="45.57526" lon="2.92832">
        <ele>886</ele>
        <time>2019-04-17T07:40:49Z</time>
      </trkpt>
      <trkpt lat="45.57507" lon="2.92817">
        <ele>885</ele>
        <time>2019-04-17T07:41:49Z</time>
      </trkpt>
      <trkpt lat="45.57481" lon="2.92808">
        <ele>884</ele>
        <time>2019-04-17T07:42:49Z</time>
      </trkpt>
      <trkpt lat="45.57463" lon="2.92796">
        <ele>885</ele>
        <time>2019-04-17T07:43:49Z</time>
      </trkpt>
      <trkpt lat="45.57457" lon="2.92784">
        <ele>886</ele>
        <time>2019-04-17T07:44:49Z</time>
      </trkpt>
      <trkpt lat="45.57438" lon="2.92771">
        <ele>886</ele>
        <time>2019-04-17T07:45:49Z</time>
      </trkpt>
      <trkpt lat="45.5743" lon="2.92762">
        <ele>886</ele>
        <time>2019-04-17T07:46:49Z</time>
      </trkpt>
      <trkpt lat="45.57417" lon="2.92744">
        <ele>885</ele>
        <time>2019-04-17T07:47:49Z</time>
      </trkpt>
      <trkpt lat="45.57378" lon="2.92706">
        <ele>884</ele>
        <time>2019-04-17T07:48:49Z</time>
      </trkpt>
      <trkpt lat="45.57366" lon="2.92683">
        <ele>884</ele>
        <time>2019-04-17T07:49:49Z</time>
      </trkpt>
      <trkpt lat="45.5736" lon="2.92647">
        <ele>884</ele>
        <time>2019-04-17T07:50:49Z</time>
      </trkpt>
      <trkpt lat="45.57356" lon="2.92604">
        <ele>883</ele>
        <time>2019-04-17T07:51:49Z</time>
      </trkpt>
      <trkpt lat="45.57367" lon="2.92445">
        <ele>882</ele>
        <time>2019-04-17T07:52:49Z</time>
      </trkpt>
      <trkpt lat="45.57366" lon="2.92321">
        <ele>881</ele>
        <time>2019-04-17T07:53:49Z</time>
      </trkpt>
      <trkpt lat="45.5736" lon="2.9228">
        <ele>883</ele>
        <time>2019-04-17T07:54:49Z</time>
      </trkpt>
      <trkpt lat="45.57345" lon="2.92228">
        <ele>884</ele>
        <time>2019-04-17T07:55:49Z</time>
      </trkpt>
      <trkpt lat="45.57331" lon="2.92164">
        <ele>884</ele>
        <time>2019-04-17T07:56:49Z</time>
      </trkpt>
      <trkpt lat="45.57327" lon="2.92136">
        <ele>884</ele>
        <time>2019-04-17T07:57:49Z</time>
      </trkpt>
      <trkpt lat="45.57325" lon="2.92085">
        <ele>884</ele>
        <time>2019-04-17T07:58:49Z</time>
      </trkpt>
      <trkpt lat="45.57326" lon="2.92045">
        <ele>881</ele>
        <time>2019-04-17T07:59:49Z</time>
      </trkpt>
      <trkpt lat="45.57327" lon="2.92028">
        <ele>880</ele>
        <time>2019-04-17T08:00:49Z</time>
      </trkpt>
      <trkpt lat="45.57333" lon="2.92001">
        <ele>879</ele>
        <time>2019-04-17T08:01:49Z</time>
      </trkpt>
      <trkpt lat="45.57386" lon="2.91889">
        <ele>879</ele>
        <time>2019-04-17T08:02:49Z</time>
      </trkpt>
      <trkpt lat="45.57401" lon="2.91866">
        <ele>879</ele>
        <time>2019-04-17T08:03:49Z</time>
      </trkpt>
      <trkpt lat="45.57457" lon="2.91794">
        <ele>880</ele>
        <time>2019-04-17T08:04:49Z</time>
      </trkpt>
      <trkpt lat="45.57498" lon="2.91735">
        <ele>880</ele>
        <time>2019-04-17T08:05:49Z</time>
      </trkpt>
      <trkpt lat="45.57527" lon="2.9169">
        <ele>882</ele>
        <time>2019-04-17T08:06:49Z</time>
      </trkpt>
      <trkpt lat="45.57543" lon="2.91663">
        <ele>882</ele>
        <time>2019-04-17T08:07:49Z</time>
      </trkpt>
      <trkpt lat="45.57551" lon="2.91643">
        <ele>883</ele>
        <time>2019-04-17T08:08:49Z</time>
      </trkpt>
      <trkpt lat="45.57566" lon="2.91591">
        <ele>883</ele>
        <time>2019-04-17T08:09:49Z</time>
      </trkpt>
      <trkpt lat="45.57572" lon="2.91566">
        <ele>883</ele>
        <time>2019-04-17T08:10:49Z</time>
      </trkpt>
      <trkpt lat="45.57572" lon="2.91528">
        <ele>884</ele>
        <time>2019-04-17T08:11:49Z</time>
      </trkpt>
      <trkpt lat="45.57565" lon="2.91379">
        <ele>887</ele>
        <time>2019-04-17T08:12:49Z</time>
      </trkpt>
      <trkpt lat="45.57563" lon="2.91341">
        <ele>887</ele>
        <time>2019-04-17T08:13:49Z</time>
      </trkpt>
      <trkpt lat="45.57558" lon="2.91304">
        <ele>886</ele>
        <time>2019-04-17T08:14:49Z</time>
      </trkpt>
      <trkpt lat="45.57552" lon="2.91284">
        <ele>886</ele>
        <time>2019-04-17T08:15:49Z</time>
      </trkpt>
      <trkpt lat="45.5753" lon="2.91229">
        <ele>885</ele>
        <time>2019-04-17T08:16:49Z</time>
      </trkpt>
      <trkpt lat="45.57509" lon="2.91136">
        <ele>881</ele>
        <time>2019-04-17T08:17:49Z</time>
      </trkpt>
      <trkpt lat="45.57497" lon="2.91097">
        <ele>879</ele>
        <time>2019-04-17T08:18:49Z</time>
      </trkpt>
      <trkpt lat="45.57412" lon="2.90883">
        <ele>880</ele>
        <time>2019-04-17T08:19:49Z</time>
      </trkpt>
      <trkpt lat="45.57363" lon="2.90756">
        <ele>880</ele>
        <time>2019-04-17T08:20:49Z</time>
      </trkpt>
      <trkpt lat="45.57345" lon="2.90722">
        <ele>881</ele>
        <time>2019-04-17T08:21:49Z</time>
      </trkpt>
      <trkpt lat="45.57324" lon="2.90692">
        <ele>881</ele>
        <time>2019-04-17T08:22:49Z</time>
      </trkpt>
      <trkpt lat="45.57301" lon="2.90663">
        <ele>884</ele>
        <time>2019-04-17T08:23:49Z</time>
      </trkpt>
      <trkpt lat="45.57249" lon="2.90607">
        <ele>889</ele>
        <time>2019-04-17T08:24:49Z</time>
      </trkpt>
      <trkpt lat="45.57114" lon="2.90394">
        <ele>888</ele>
        <time>2019-04-17T08:25:49Z</time>
      </trkpt>
      <trkpt lat="45.57093" lon="2.90357">
        <ele>887</ele>
        <time>2019-04-17T08:26:49Z</time>
      </trkpt>
      <trkpt lat="45.57085" lon="2.90333">
        <ele>886</ele>
        <time>2019-04-17T08:27:49Z</time>
      </trkpt>
      <trkpt lat="45.57057" lon="2.90187">
        <ele>890</ele>
        <time>2019-04-17T08:28:49Z</time>
      </trkpt>
      <trkpt lat="45.57053" lon="2.90153">
        <ele>890</ele>
        <time>2019-04-17T08:29:49Z</time>
      </trkpt>
      <trkpt lat="45.57054" lon="2.90109">
        <ele>888</ele>
        <time>2019-04-17T08:30:49Z</time>
      </trkpt>
      <trkpt lat="45.57073" lon="2.9001">
        <ele>889</ele>
        <time>2019-04-17T08:31:49Z</time>
      </trkpt>
      <trkpt lat="45.57081" lon="2.89992">
        <ele>889</ele>
        <time>2019-04-17T08:32:49Z</time>
      </trkpt>
      <trkpt lat="45.57095" lon="2.89965">
        <ele>891</ele>
        <time>2019-04-17T08:33:49Z</time>
      </trkpt>
      <trkpt lat="45.57093" lon="2.8996">
        <ele>891</ele>
        <time>2019-04-17T08:34:49Z</time>
      </trkpt>
      <trkpt lat="45.57103" lon="2.89959">
        <ele>892</ele>
        <time>2019-04-17T08:35:49Z</time>
      </trkpt>
      <trkpt lat="45.57114" lon="2.89942">
        <ele>893</ele>
        <time>2019-04-17T08:36:49Z</time>
      </trkpt>
      <trkpt lat="45.5714" lon="2.89912">
        <ele>895</ele>
        <time>2019-04-17T08:37:49Z</time>
      </trkpt>
      <trkpt lat="45.57143" lon="2.89904">
        <ele>895</ele>
        <time>2019-04-17T08:38:49Z</time>
      </trkpt>
      <trkpt lat="45.57234" lon="2.89838">
        <ele>904</ele>
        <time>2019-04-17T08:39:49Z</time>
      </trkpt>
      <trkpt lat="45.57265" lon="2.89819">
        <ele>909</ele>
        <time>2019-04-17T08:40:49Z</time>
      </trkpt>
      <trkpt lat="45.57281" lon="2.89806">
        <ele>913</ele>
        <time>2019-04-17T08:41:49Z</time>
      </trkpt>
      <trkpt lat="45.57315" lon="2.89766">
        <ele>915</ele>
        <time>2019-04-17T08:42:49Z</time>
      </trkpt>
      <trkpt lat="45.57329" lon="2.89745">
        <ele>914</ele>
        <time>2019-04-17T08:43:49Z</time>
      </trkpt>
      <trkpt lat="45.57343" lon="2.8972">
        <ele>916</ele>
        <time>2019-04-17T08:44:49Z</time>
      </trkpt>
      <trkpt lat="45.57356" lon="2.89694">
        <ele>917</ele>
        <time>2019-04-17T08:45:49Z</time>
      </trkpt>
      <trkpt lat="45.57377" lon="2.89642">
        <ele>923</ele>
        <time>2019-04-17T08:46:49Z</time>
      </trkpt>
      <trkpt lat="45.57386" lon="2.89608">
        <ele>929</ele>
        <time>2019-04-17T08:47:49Z</time>
      </trkpt>
      <trkpt lat="45.57396" lon="2.89562">
        <ele>938</ele>
        <time>2019-04-17T08:48:49Z</time>
      </trkpt>
      <trkpt lat="45.574" lon="2.89494">
        <ele>947</ele>
        <time>2019-04-17T08:49:49Z</time>
      </trkpt>
      <trkpt lat="45.574" lon="2.8945">
        <ele>949</ele>
        <time>2019-04-17T08:50:49Z</time>
      </trkpt>
      <trkpt lat="45.57391" lon="2.89367">
        <ele>950</ele>
        <time>2019-04-17T08:51:49Z</time>
      </trkpt>
      <trkpt lat="45.57392" lon="2.89275">
        <ele>960</ele>
        <time>2019-04-17T08:52:49Z</time>
      </trkpt>
      <trkpt lat="45.57384" lon="2.89218">
        <ele>962</ele>
        <time>2019-04-17T08:53:49Z</time>
      </trkpt>
      <trkpt lat="45.57385" lon="2.89194">
        <ele>963</ele>
        <time>2019-04-17T08:54:49Z</time>
      </trkpt>
      <trkpt lat="45.57388" lon="2.8916">
        <ele>963</ele>
        <time>2019-04-17T08:55:49Z</time>
      </trkpt>
      <trkpt lat="45.57389" lon="2.88951">
        <ele>971</ele>
        <time>2019-04-17T08:56:49Z</time>
      </trkpt>
      <trkpt lat="45.57395" lon="2.88855">
        <ele>975</ele>
        <time>2019-04-17T08:57:49Z</time>
      </trkpt>
      <trkpt lat="45.57396" lon="2.8882">
        <ele>977</ele>
        <time>2019-04-17T08:58:49Z</time>
      </trkpt>
      <trkpt lat="45.57391" lon="2.88757">
        <ele>979</ele>
        <time>2019-04-17T08:59:49Z</time>
      </trkpt>
      <trkpt lat="45.5739" lon="2.88725">
        <ele>979</ele>
        <time>2019-04-17T09:00:49Z</time>
      </trkpt>
      <trkpt lat="45.57394" lon="2.88694">
        <ele>979</ele>
        <time>2019-04-17T09:01:49Z</time>
      </trkpt>
      <trkpt lat="45.57405" lon="2.88643">
        <ele>978</ele>
        <time>2019-04-17T09:02:49Z</time>
      </trkpt>
      <trkpt lat="45.57407" lon="2.88622">
        <ele>977</ele>
        <time>2019-04-17T09:03:49Z</time>
      </trkpt>
      <trkpt lat="45.57407" lon="2.88601">
        <ele>976</ele>
        <time>2019-04-17T09:04:49Z</time>
      </trkpt>
      <trkpt lat="45.574" lon="2.88581">
        <ele>976</ele>
        <time>2019-04-17T09:05:49Z</time>
      </trkpt>
      <trkpt lat="45.57391" lon="2.88563">
        <ele>978</ele>
        <time>2019-04-17T09:06:49Z</time>
      </trkpt>
      <trkpt lat="45.57365" lon="2.8853">
        <ele>982</ele>
        <time>2019-04-17T09:07:49Z</time>
      </trkpt>
      <trkpt lat="45.57352" lon="2.88506">
        <ele>983</ele>
        <time>2019-04-17T09:08:49Z</time>
      </trkpt>
      <trkpt lat="45.57345" lon="2.88482">
        <ele>984</ele>
        <time>2019-04-17T09:09:49Z</time>
      </trkpt>
      <trkpt lat="45.57329" lon="2.88415">
        <ele>988</ele>
        <time>2019-04-17T09:10:49Z</time>
      </trkpt>
      <trkpt lat="45.57316" lon="2.88372">
        <ele>994</ele>
        <time>2019-04-17T09:11:49Z</time>
      </trkpt>
      <trkpt lat="45.57315" lon="2.88351">
        <ele>994</ele>
        <time>2019-04-17T09:12:49Z</time>
      </trkpt>
      <trkpt lat="45.57321" lon="2.88312">
        <ele>995</ele>
        <time>2019-04-17T09:13:49Z</time>
      </trkpt>
      <trkpt lat="45.57321" lon="2.88291">
        <ele>998</ele>
        <time>2019-04-17T09:14:49Z</time>
      </trkpt>
      <trkpt lat="45.57317" lon="2.88269">
        <ele>1001</ele>
        <time>2019-04-17T09:15:49Z</time>
      </trkpt>
      <trkpt lat="45.57293" lon="2.88222">
        <ele>1008</ele>
        <time>2019-04-17T09:16:49Z</time>
      </trkpt>
      <trkpt lat="45.57279" lon="2.88184">
        <ele>1010</ele>
        <time>2019-04-17T09:17:49Z</time>
      </trkpt>
      <trkpt lat="45.57241" lon="2.8812">
        <ele>1012</ele>
        <time>2019-04-17T09:18:49Z</time>
      </trkpt>
      <trkpt lat="45.57228" lon="2.8809">
        <ele>1016</ele>
        <time>2019-04-17T09:19:49Z</time>
      </trkpt>
      <trkpt lat="45.57214" lon="2.88067">
        <ele>1020</ele>
        <time>2019-04-17T09:20:49Z</time>
      </trkpt>
      <trkpt lat="45.57186" lon="2.88032">
        <ele>1025</ele>
        <time>2019-04-17T09:21:49Z</time>
      </trkpt>
      <trkpt lat="45.57182" lon="2.88022">
        <ele>1025</ele>
        <time>2019-04-17T09:22:49Z</time>
      </trkpt>
      <trkpt lat="45.5718" lon="2.88012">
        <ele>1025</ele>
        <time>2019-04-17T09:23:49Z</time>
      </trkpt>
      <trkpt lat="45.57183" lon="2.88">
        <ele>1024</ele>
        <time>2019-04-17T09:24:49Z</time>
      </trkpt>
      <trkpt lat="45.57192" lon="2.8799">
        <ele>1024</ele>
        <time>2019-04-17T09:25:49Z</time>
      </trkpt>
      <trkpt lat="45.57201" lon="2.87988">
        <ele>1024</ele>
        <time>2019-04-17T09:26:49Z</time>
      </trkpt>
      <trkpt lat="45.57212" lon="2.87998">
        <ele>1022</ele>
        <time>2019-04-17T09:27:49Z</time>
      </trkpt>
      <trkpt lat="45.5722" lon="2.88011">
        <ele>1021</ele>
        <time>2019-04-17T09:28:49Z</time>
      </trkpt>
      <trkpt lat="45.57229" lon="2.88032">
        <ele>1019</ele>
        <time>2019-04-17T09:29:49Z</time>
      </trkpt>
      <trkpt lat="45.57237" lon="2.88064">
        <ele>1015</ele>
        <time>2019-04-17T09:30:49Z</time>
      </trkpt>
      <trkpt lat="45.57253" lon="2.88108">
        <ele>1010</ele>
        <time>2019-04-17T09:31:49Z</time>
      </trkpt>
      <trkpt lat="45.57262" lon="2.88123">
        <ele>1011</ele>
        <time>2019-04-17T09:32:49Z</time>
      </trkpt>
      <trkpt lat="45.57292" lon="2.88151">
        <ele>1014</ele>
        <time>2019-04-17T09:33:49Z</time>
      </trkpt>
      <trkpt lat="45.57316" lon="2.88179">
        <ele>1014</ele>
        <time>2019-04-17T09:34:49Z</time>
      </trkpt>
      <trkpt lat="45.57346" lon="2.88207">
        <ele>1013</ele>
        <time>2019-04-17T09:35:49Z</time>
      </trkpt>
      <trkpt lat="45.57361" lon="2.88216">
        <ele>1014</ele>
        <time>2019-04-17T09:36:49Z</time>
      </trkpt>
      <trkpt lat="45.57373" lon="2.88221">
        <ele>1016</ele>
        <time>2019-04-17T09:37:49Z</time>
      </trkpt>
      <trkpt lat="45.574" lon="2.88225">
        <ele>1021</ele>
        <time>2019-04-17T09:38:49Z</time>
      </trkpt>
      <trkpt lat="45.57411" lon="2.88233">
        <ele>1022</ele>
        <time>2019-04-17T09:39:49Z</time>
      </trkpt>
      <trkpt lat="45.57427" lon="2.88256">
        <ele>1023</ele>
        <time>2019-04-17T09:40:49Z</time>
      </trkpt>
      <trkpt lat="45.57451" lon="2.88285">
        <ele>1028</ele>
        <time>2019-04-17T09:41:49Z</time>
      </trkpt>
      <trkpt lat="45.5746" lon="2.88306">
        <ele>1029</ele>
        <time>2019-04-17T09:42:49Z</time>
      </trkpt>
      <trkpt lat="45.57483" lon="2.88386">
        <ele>1028</ele>
        <time>2019-04-17T09:43:49Z</time>
      </trkpt>
      <trkpt lat="45.57499" lon="2.88438">
        <ele>1025</ele>
        <time>2019-04-17T09:44:49Z</time>
      </trkpt>
      <trkpt lat="45.5751" lon="2.88465">
        <ele>1023</ele>
        <time>2019-04-17T09:45:49Z</time>
      </trkpt>
      <trkpt lat="45.57521" lon="2.88481">
        <ele>1022</ele>
        <time>2019-04-17T09:46:49Z</time>
      </trkpt>
      <trkpt lat="45.57532" lon="2.88491">
        <ele>1023</ele>
        <time>2019-04-17T09:47:49Z</time>
      </trkpt>
      <trkpt lat="45.57546" lon="2.88498">
        <ele>1025</ele>
        <time>2019-04-17T09:48:49Z</time>
      </trkpt>
      <trkpt lat="45.576" lon="2.88514">
        <ele>1034</ele>
        <time>2019-04-17T09:49:49Z</time>
      </trkpt>
      <trkpt lat="45.57625" lon="2.88516">
        <ele>1037</ele>
        <time>2019-04-17T09:50:49Z</time>
      </trkpt>
      <trkpt lat="45.57639" lon="2.88509">
        <ele>1038</ele>
        <time>2019-04-17T09:51:49Z</time>
      </trkpt>
      <trkpt lat="45.57651" lon="2.88491">
        <ele>1041</ele>
        <time>2019-04-17T09:52:49Z</time>
      </trkpt>
      <trkpt lat="45.57683" lon="2.88462">
        <ele>1051</ele>
        <time>2019-04-17T09:53:49Z</time>
      </trkpt>
      <trkpt lat="45.57689" lon="2.88454">
        <ele>1053</ele>
        <time>2019-04-17T09:54:49Z</time>
      </trkpt>
      <trkpt lat="45.57698" lon="2.88425">
        <ele>1059</ele>
        <time>2019-04-17T09:55:49Z</time>
      </trkpt>
      <trkpt lat="45.57714" lon="2.88403">
        <ele>1060</ele>
        <time>2019-04-17T09:56:49Z</time>
      </trkpt>
      <trkpt lat="45.5772" lon="2.88386">
        <ele>1060</ele>
        <time>2019-04-17T09:57:49Z</time>
      </trkpt>
      <trkpt lat="45.57721" lon="2.8837">
        <ele>1060</ele>
        <time>2019-04-17T09:58:49Z</time>
      </trkpt>
      <trkpt lat="45.57719" lon="2.8835">
        <ele>1061</ele>
        <time>2019-04-17T09:59:49Z</time>
      </trkpt>
      <trkpt lat="45.57712" lon="2.88318">
        <ele>1063</ele>
        <time>2019-04-17T10:00:49Z</time>
      </trkpt>
      <trkpt lat="45.57713" lon="2.88293">
        <ele>1063</ele>
        <time>2019-04-17T10:01:49Z</time>
      </trkpt>
      <trkpt lat="45.5774" lon="2.88187">
        <ele>1061</ele>
        <time>2019-04-17T10:02:49Z</time>
      </trkpt>
      <trkpt lat="45.57748" lon="2.88168">
        <ele>1060</ele>
        <time>2019-04-17T10:03:49Z</time>
      </trkpt>
      <trkpt lat="45.57765" lon="2.88132">
        <ele>1063</ele>
        <time>2019-04-17T10:04:49Z</time>
      </trkpt>
      <trkpt lat="45.57775" lon="2.88103">
        <ele>1065</ele>
        <time>2019-04-17T10:05:49Z</time>
      </trkpt>
      <trkpt lat="45.5778" lon="2.88094">
        <ele>1065</ele>
        <time>2019-04-17T10:06:49Z</time>
      </trkpt>
      <trkpt lat="45.57788" lon="2.88088">
        <ele>1065</ele>
        <time>2019-04-17T10:07:49Z</time>
      </trkpt>
      <trkpt lat="45.57799" lon="2.88087">
        <ele>1066</ele>
        <time>2019-04-17T10:08:49Z</time>
      </trkpt>
      <trkpt lat="45.57816" lon="2.88099">
        <ele>1066</ele>
        <time>2019-04-17T10:09:49Z</time>
      </trkpt>
      <trkpt lat="45.57822" lon="2.8811">
        <ele>1066</ele>
        <time>2019-04-17T10:10:49Z</time>
      </trkpt>
      <trkpt lat="45.57823" lon="2.88133">
        <ele>1067</ele>
        <time>2019-04-17T10:11:49Z</time>
      </trkpt>
      <trkpt lat="45.57822" lon="2.88154">
        <ele>1067</ele>
        <time>2019-04-17T10:12:49Z</time>
      </trkpt>
      <trkpt lat="45.57807" lon="2.88203">
        <ele>1068</ele>
        <time>2019-04-17T10:13:49Z</time>
      </trkpt>
      <trkpt lat="45.57805" lon="2.8822">
        <ele>1068</ele>
        <time>2019-04-17T10:14:49Z</time>
      </trkpt>
      <trkpt lat="45.578" lon="2.88302">
        <ele>1070</ele>
        <time>2019-04-17T10:15:49Z</time>
      </trkpt>
      <trkpt lat="45.57801" lon="2.88334">
        <ele>1071</ele>
        <time>2019-04-17T10:16:49Z</time>
      </trkpt>
      <trkpt lat="45.57801" lon="2.88361">
        <ele>1073</ele>
        <time>2019-04-17T10:17:49Z</time>
      </trkpt>
      <trkpt lat="45.57792" lon="2.88439">
        <ele>1073</ele>
        <time>2019-04-17T10:18:49Z</time>
      </trkpt>
      <trkpt lat="45.57792" lon="2.88463">
        <ele>1072</ele>
        <time>2019-04-17T10:19:49Z</time>
      </trkpt>
      <trkpt lat="45.57794" lon="2.88482">
        <ele>1073</ele>
        <time>2019-04-17T10:20:49Z</time>
      </trkpt>
      <trkpt lat="45.57798" lon="2.88497">
        <ele>1074</ele>
        <time>2019-04-17T10:21:49Z</time>
      </trkpt>
      <trkpt lat="45.57815" lon="2.88537">
        <ele>1079</ele>
        <time>2019-04-17T10:22:49Z</time>
      </trkpt>
      <trkpt lat="45.57828" lon="2.88577">
        <ele>1081</ele>
        <time>2019-04-17T10:23:49Z</time>
      </trkpt>
      <trkpt lat="45.57844" lon="2.88607">
        <ele>1084</ele>
        <time>2019-04-17T10:24:49Z</time>
      </trkpt>
      <trkpt lat="45.5788" lon="2.8866">
        <ele>1088</ele>
        <time>2019-04-17T10:25:49Z</time>
      </trkpt>
      <trkpt lat="45.57918" lon="2.88741">
        <ele>1092</ele>
        <time>2019-04-17T10:26:49Z</time>
      </trkpt>
      <trkpt lat="45.57926" lon="2.88761">
        <ele>1094</ele>
        <time>2019-04-17T10:27:49Z</time>
      </trkpt>
      <trkpt lat="45.5793" lon="2.88788">
        <ele>1097</ele>
        <time>2019-04-17T10:28:49Z</time>
      </trkpt>
      <trkpt lat="45.57931" lon="2.88822">
        <ele>1099</ele>
        <time>2019-04-17T10:29:49Z</time>
      </trkpt>
      <trkpt lat="45.57929" lon="2.88834">
        <ele>1100</ele>
        <time>2019-04-17T10:30:49Z</time>
      </trkpt>
      <trkpt lat="45.57925" lon="2.88845">
        <ele>1100</ele>
        <time>2019-04-17T10:31:49Z</time>
      </trkpt>
      <trkpt lat="45.57916" lon="2.88858">
        <ele>1100</ele>
        <time>2019-04-17T10:32:49Z</time>
      </trkpt>
      <trkpt lat="45.57907" lon="2.88865">
        <ele>1100</ele>
        <time>2019-04-17T10:33:49Z</time>
      </trkpt>
      <trkpt lat="45.57844" lon="2.8889">
        <ele>1100</ele>
        <time>2019-04-17T10:34:49Z</time>
      </trkpt>
      <trkpt lat="45.57827" lon="2.88905">
        <ele>1100</ele>
        <time>2019-04-17T10:35:49Z</time>
      </trkpt>
      <trkpt lat="45.57819" lon="2.88918">
        <ele>1100</ele>
        <time>2019-04-17T10:36:49Z</time>
      </trkpt>
      <trkpt lat="45.57808" lon="2.88946">
        <ele>1101</ele>
        <time>2019-04-17T10:37:49Z</time>
      </trkpt>
      <trkpt lat="45.57806" lon="2.88966">
        <ele>1101</ele>
        <time>2019-04-17T10:38:49Z</time>
      </trkpt>
      <trkpt lat="45.57807" lon="2.88988">
        <ele>1102</ele>
        <time>2019-04-17T10:39:49Z</time>
      </trkpt>
      <trkpt lat="45.57813" lon="2.89005">
        <ele>1103</ele>
        <time>2019-04-17T10:40:49Z</time>
      </trkpt>
      <trkpt lat="45.57822" lon="2.89019">
        <ele>1105</ele>
        <time>2019-04-17T10:41:49Z</time>
      </trkpt>
      <trkpt lat="45.57833" lon="2.89024">
        <ele>1106</ele>
        <time>2019-04-17T10:42:49Z</time>
      </trkpt>
      <trkpt lat="45.57845" lon="2.89025">
        <ele>1107</ele>
        <time>2019-04-17T10:43:49Z</time>
      </trkpt>
      <trkpt lat="45.57858" lon="2.8902">
        <ele>1107</ele>
        <time>2019-04-17T10:44:49Z</time>
      </trkpt>
      <trkpt lat="45.57885" lon="2.89001">
        <ele>1109</ele>
        <time>2019-04-17T10:45:49Z</time>
      </trkpt>
      <trkpt lat="45.57902" lon="2.88993">
        <ele>1109</ele>
        <time>2019-04-17T10:46:49Z</time>
      </trkpt>
      <trkpt lat="45.57921" lon="2.8899">
        <ele>1110</ele>
        <time>2019-04-17T10:47:49Z</time>
      </trkpt>
      <trkpt lat="45.57992" lon="2.89017">
        <ele>1116</ele>
        <time>2019-04-17T10:48:49Z</time>
      </trkpt>
      <trkpt lat="45.58016" lon="2.89022">
        <ele>1118</ele>
        <time>2019-04-17T10:49:49Z</time>
      </trkpt>
      <trkpt lat="45.58033" lon="2.89021">
        <ele>1120</ele>
        <time>2019-04-17T10:50:49Z</time>
      </trkpt>
      <trkpt lat="45.58053" lon="2.89014">
        <ele>1121</ele>
        <time>2019-04-17T10:51:49Z</time>
      </trkpt>
      <trkpt lat="45.58112" lon="2.88982">
        <ele>1125</ele>
        <time>2019-04-17T10:52:49Z</time>
      </trkpt>
      <trkpt lat="45.58128" lon="2.88965">
        <ele>1127</ele>
        <time>2019-04-17T10:53:49Z</time>
      </trkpt>
      <trkpt lat="45.58135" lon="2.88952">
        <ele>1127</ele>
        <time>2019-04-17T10:54:49Z</time>
      </trkpt>
      <trkpt lat="45.5815" lon="2.88906">
        <ele>1128</ele>
        <time>2019-04-17T10:55:49Z</time>
      </trkpt>
      <trkpt lat="45.5816" lon="2.88888">
        <ele>1129</ele>
        <time>2019-04-17T10:56:49Z</time>
      </trkpt>
      <trkpt lat="45.5822" lon="2.88795">
        <ele>1135</ele>
        <time>2019-04-17T10:57:49Z</time>
      </trkpt>
      <trkpt lat="45.58238" lon="2.8877">
        <ele>1136</ele>
        <time>2019-04-17T10:58:49Z</time>
      </trkpt>
      <trkpt lat="45.58247" lon="2.88763">
        <ele>1137</ele>
        <time>2019-04-17T10:59:49Z</time>
      </trkpt>
      <trkpt lat="45.58258" lon="2.88761">
        <ele>1138</ele>
        <time>2019-04-17T11:00:49Z</time>
      </trkpt>
      <trkpt lat="45.58268" lon="2.88765">
        <ele>1139</ele>
        <time>2019-04-17T11:01:49Z</time>
      </trkpt>
      <trkpt lat="45.58282" lon="2.88782">
        <ele>1141</ele>
        <time>2019-04-17T11:02:49Z</time>
      </trkpt>
      <trkpt lat="45.58311" lon="2.88835">
        <ele>1144</ele>
        <time>2019-04-17T11:03:49Z</time>
      </trkpt>
      <trkpt lat="45.58333" lon="2.8887">
        <ele>1146</ele>
        <time>2019-04-17T11:04:49Z</time>
      </trkpt>
      <trkpt lat="45.58399" lon="2.8893">
        <ele>1150</ele>
        <time>2019-04-17T11:05:49Z</time>
      </trkpt>
      <trkpt lat="45.58414" lon="2.88957">
        <ele>1151</ele>
        <time>2019-04-17T11:06:49Z</time>
      </trkpt>
      <trkpt lat="45.58431" lon="2.89001">
        <ele>1153</ele>
        <time>2019-04-17T11:07:49Z</time>
      </trkpt>
      <trkpt lat="45.58441" lon="2.89048">
        <ele>1155</ele>
        <time>2019-04-17T11:08:49Z</time>
      </trkpt>
      <trkpt lat="45.58454" lon="2.89114">
        <ele>1156</ele>
        <time>2019-04-17T11:09:49Z</time>
      </trkpt>
      <trkpt lat="45.58468" lon="2.89151">
        <ele>1157</ele>
        <time>2019-04-17T11:10:49Z</time>
      </trkpt>
      <trkpt lat="45.58482" lon="2.89179">
        <ele>1158</ele>
        <time>2019-04-17T11:11:49Z</time>
      </trkpt>
      <trkpt lat="45.58502" lon="2.89199">
        <ele>1159</ele>
        <time>2019-04-17T11:12:49Z</time>
      </trkpt>
      <trkpt lat="45.58529" lon="2.89213">
        <ele>1161</ele>
        <time>2019-04-17T11:13:49Z</time>
      </trkpt>
      <trkpt lat="45.58554" lon="2.89216">
        <ele>1164</ele>
        <time>2019-04-17T11:14:49Z</time>
      </trkpt>
      <trkpt lat="45.58587" lon="2.89215">
        <ele>1167</ele>
        <time>2019-04-17T11:15:49Z</time>
      </trkpt>
      <trkpt lat="45.586" lon="2.8921">
        <ele>1167</ele>
        <time>2019-04-17T11:16:49Z</time>
      </trkpt>
      <trkpt lat="45.58611" lon="2.89198">
        <ele>1168</ele>
        <time>2019-04-17T11:17:49Z</time>
      </trkpt>
      <trkpt lat="45.58621" lon="2.89167">
        <ele>1170</ele>
        <time>2019-04-17T11:18:49Z</time>
      </trkpt>
      <trkpt lat="45.58643" lon="2.89081">
        <ele>1174</ele>
        <time>2019-04-17T11:19:49Z</time>
      </trkpt>
      <trkpt lat="45.58652" lon="2.8904">
        <ele>1177</ele>
        <time>2019-04-17T11:20:49Z</time>
      </trkpt>
      <trkpt lat="45.58658" lon="2.88977">
        <ele>1181</ele>
        <time>2019-04-17T11:21:49Z</time>
      </trkpt>
      <trkpt lat="45.58672" lon="2.88614">
        <ele>1202</ele>
        <time>2019-04-17T11:22:49Z</time>
      </trkpt>
      <trkpt lat="45.58677" lon="2.88588">
        <ele>1201</ele>
        <time>2019-04-17T11:23:49Z</time>
      </trkpt>
      <trkpt lat="45.58685" lon="2.88564">
        <ele>1200</ele>
        <time>2019-04-17T11:24:49Z</time>
      </trkpt>
      <trkpt lat="45.58718" lon="2.88483">
        <ele>1200</ele>
        <time>2019-04-17T11:25:49Z</time>
      </trkpt>
      <trkpt lat="45.58732" lon="2.88446">
        <ele>1201</ele>
        <time>2019-04-17T11:26:49Z</time>
      </trkpt>
      <trkpt lat="45.58738" lon="2.88423">
        <ele>1202</ele>
        <time>2019-04-17T11:27:49Z</time>
      </trkpt>
      <trkpt lat="45.58757" lon="2.88317">
        <ele>1204</ele>
        <time>2019-04-17T11:28:49Z</time>
      </trkpt>
      <trkpt lat="45.58759" lon="2.88292">
        <ele>1205</ele>
        <time>2019-04-17T11:29:49Z</time>
      </trkpt>
      <trkpt lat="45.58758" lon="2.88268">
        <ele>1205</ele>
        <time>2019-04-17T11:30:49Z</time>
      </trkpt>
      <trkpt lat="45.58754" lon="2.88234">
        <ele>1205</ele>
        <time>2019-04-17T11:31:49Z</time>
      </trkpt>
      <trkpt lat="45.58744" lon="2.88192">
        <ele>1205</ele>
        <time>2019-04-17T11:32:49Z</time>
      </trkpt>
      <trkpt lat="45.58741" lon="2.88162">
        <ele>1206</ele>
        <time>2019-04-17T11:33:49Z</time>
      </trkpt>
      <trkpt lat="45.58753" lon="2.88129">
        <ele>1208</ele>
        <time>2019-04-17T11:34:49Z</time>
      </trkpt>
      <trkpt lat="45.58788" lon="2.88049">
        <ele>1216</ele>
        <time>2019-04-17T11:35:49Z</time>
      </trkpt>
      <trkpt lat="45.58794" lon="2.88022">
        <ele>1218</ele>
        <time>2019-04-17T11:36:49Z</time>
      </trkpt>
      <trkpt lat="45.58794" lon="2.88008">
        <ele>1219</ele>
        <time>2019-04-17T11:37:49Z</time>
      </trkpt>
      <trkpt lat="45.58791" lon="2.87994">
        <ele>1220</ele>
        <time>2019-04-17T11:38:49Z</time>
      </trkpt>
      <trkpt lat="45.58769" lon="2.8793">
        <ele>1223</ele>
        <time>2019-04-17T11:39:49Z</time>
      </trkpt>
      <trkpt lat="45.58766" lon="2.87915">
        <ele>1223</ele>
        <time>2019-04-17T11:40:49Z</time>
      </trkpt>
      <trkpt lat="45.58766" lon="2.87902">
        <ele>1223</ele>
        <time>2019-04-17T11:41:49Z</time>
      </trkpt>
      <trkpt lat="45.58769" lon="2.87888">
        <ele>1223</ele>
        <time>2019-04-17T11:42:49Z</time>
      </trkpt>
      <trkpt lat="45.58776" lon="2.87866">
        <ele>1224</ele>
        <time>2019-04-17T11:43:49Z</time>
      </trkpt>
      <trkpt lat="45.58799" lon="2.87822">
        <ele>1228</ele>
        <time>2019-04-17T11:44:49Z</time>
      </trkpt>
      <trkpt lat="45.58816" lon="2.87795">
        <ele>1229</ele>
        <time>2019-04-17T11:45:49Z</time>
      </trkpt>
      <trkpt lat="45.58864" lon="2.87743">
        <ele>1233</ele>
        <time>2019-04-17T11:46:49Z</time>
      </trkpt>
      <trkpt lat="45.58877" lon="2.87722">
        <ele>1234</ele>
        <time>2019-04-17T11:47:49Z</time>
      </trkpt>
      <trkpt lat="45.58967" lon="2.87555">
        <ele>1242</ele>
        <time>2019-04-17T11:48:49Z</time>
      </trkpt>
      <trkpt lat="45.58976" lon="2.8753">
        <ele>1244</ele>
        <time>2019-04-17T11:49:49Z</time>
      </trkpt>
      <trkpt lat="45.58985" lon="2.87499">
        <ele>1246</ele>
        <time>2019-04-17T11:50:49Z</time>
      </trkpt>
      <trkpt lat="45.59003" lon="2.87416">
        <ele>1250</ele>
        <time>2019-04-17T11:51:49Z</time>
      </trkpt>
      <trkpt lat="45.59007" lon="2.87394">
        <ele>1252</ele>
        <time>2019-04-17T11:52:49Z</time>
      </trkpt>
      <trkpt lat="45.59009" lon="2.87368">
        <ele>1255</ele>
        <time>2019-04-17T11:53:49Z</time>
      </trkpt>
      <trkpt lat="45.5901" lon="2.87318">
        <ele>1259</ele>
        <time>2019-04-17T11:54:49Z</time>
      </trkpt>
      <trkpt lat="45.59005" lon="2.87292">
        <ele>1261</ele>
        <time>2019-04-17T11:55:49Z</time>
      </trkpt>
      <trkpt lat="45.58987" lon="2.87251">
        <ele>1260</ele>
        <time>2019-04-17T11:56:49Z</time>
      </trkpt>
      <trkpt lat="45.58974" lon="2.87205">
        <ele>1259</ele>
        <time>2019-04-17T11:57:49Z</time>
      </trkpt>
      <trkpt lat="45.58971" lon="2.8719">
        <ele>1259</ele>
        <time>2019-04-17T11:58:49Z</time>
      </trkpt>
      <trkpt lat="45.5897" lon="2.87176">
        <ele>1260</ele>
        <time>2019-04-17T11:59:49Z</time>
      </trkpt>
      <trkpt lat="45.58972" lon="2.87163">
        <ele>1262</ele>
        <time>2019-04-17T12:00:49Z</time>
      </trkpt>
      <trkpt lat="45.58986" lon="2.87123">
        <ele>1268</ele>
        <time>2019-04-17T12:01:49Z</time>
      </trkpt>
      <trkpt lat="45.5899" lon="2.871">
        <ele>1271</ele>
        <time>2019-04-17T12:02:49Z</time>
      </trkpt>
      <trkpt lat="45.58992" lon="2.87065">
        <ele>1273</ele>
        <time>2019-04-17T12:03:49Z</time>
      </trkpt>
      <trkpt lat="45.58991" lon="2.87017">
        <ele>1275</ele>
        <time>2019-04-17T12:04:49Z</time>
      </trkpt>
      <trkpt lat="45.58984" lon="2.86958">
        <ele>1276</ele>
        <time>2019-04-17T12:05:49Z</time>
      </trkpt>
      <trkpt lat="45.58981" lon="2.86923">
        <ele>1277</ele>
        <time>2019-04-17T12:06:49Z</time>
      </trkpt>
      <trkpt lat="45.58982" lon="2.86893">
        <ele>1278</ele>
        <time>2019-04-17T12:07:49Z</time>
      </trkpt>
      <trkpt lat="45.58987" lon="2.86851">
        <ele>1283</ele>
        <time>2019-04-17T12:08:49Z</time>
      </trkpt>
      <trkpt lat="45.5899" lon="2.86797">
        <ele>1283</ele>
        <time>2019-04-17T12:09:49Z</time>
      </trkpt>
      <trkpt lat="45.58994" lon="2.86774">
        <ele>1284</ele>
        <time>2019-04-17T12:10:49Z</time>
      </trkpt>
      <trkpt lat="45.59026" lon="2.86669">
        <ele>1295</ele>
        <time>2019-04-17T12:11:49Z</time>
      </trkpt>
      <trkpt lat="45.59031" lon="2.86647">
        <ele>1298</ele>
        <time>2019-04-17T12:12:49Z</time>
      </trkpt>
      <trkpt lat="45.59043" lon="2.86559">
        <ele>1300</ele>
        <time>2019-04-17T12:13:49Z</time>
      </trkpt>
      <trkpt lat="45.5906" lon="2.86468">
        <ele>1301</ele>
        <time>2019-04-17T12:14:49Z</time>
      </trkpt>
      <trkpt lat="45.59072" lon="2.86431">
        <ele>1303</ele>
        <time>2019-04-17T12:15:49Z</time>
      </trkpt>
      <trkpt lat="45.59086" lon="2.86398">
        <ele>1304</ele>
        <time>2019-04-17T12:16:49Z</time>
      </trkpt>
      <trkpt lat="45.59104" lon="2.86368">
        <ele>1305</ele>
        <time>2019-04-17T12:17:49Z</time>
      </trkpt>
      <trkpt lat="45.59139" lon="2.86319">
        <ele>1305</ele>
        <time>2019-04-17T12:18:49Z</time>
      </trkpt>
      <trkpt lat="45.59153" lon="2.86309">
        <ele>1307</ele>
        <time>2019-04-17T12:19:49Z</time>
      </trkpt>
      <trkpt lat="45.59204" lon="2.86294">
        <ele>1316</ele>
        <time>2019-04-17T12:20:49Z</time>
      </trkpt>
      <trkpt lat="45.5933" lon="2.86223">
        <ele>1324</ele>
        <time>2019-04-17T12:21:49Z</time>
      </trkpt>
      <trkpt lat="45.59343" lon="2.86219">
        <ele>1327</ele>
        <time>2019-04-17T12:22:49Z</time>
      </trkpt>
      <trkpt lat="45.59364" lon="2.86215">
        <ele>1333</ele>
        <time>2019-04-17T12:23:49Z</time>
      </trkpt>
      <trkpt lat="45.59377" lon="2.86207">
        <ele>1336</ele>
        <time>2019-04-17T12:24:49Z</time>
      </trkpt>
      <trkpt lat="45.59389" lon="2.86189">
        <ele>1335</ele>
        <time>2019-04-17T12:25:49Z</time>
      </trkpt>
      <trkpt lat="45.59396" lon="2.86173">
        <ele>1334</ele>
        <time>2019-04-17T12:26:49Z</time>
      </trkpt>
      <trkpt lat="45.59404" lon="2.86139">
        <ele>1333</ele>
        <time>2019-04-17T12:27:49Z</time>
      </trkpt>
      <trkpt lat="45.59421" lon="2.86096">
        <ele>1337</ele>
        <time>2019-04-17T12:28:49Z</time>
      </trkpt>
      <trkpt lat="45.59424" lon="2.86081">
        <ele>1338</ele>
        <time>2019-04-17T12:29:49Z</time>
      </trkpt>
      <trkpt lat="45.59423" lon="2.86069">
        <ele>1339</ele>
        <time>2019-04-17T12:30:49Z</time>
      </trkpt>
      <trkpt lat="45.59419" lon="2.86055">
        <ele>1338</ele>
        <time>2019-04-17T12:31:49Z</time>
      </trkpt>
      <trkpt lat="45.59405" lon="2.86036">
        <ele>1334</ele>
        <time>2019-04-17T12:32:49Z</time>
      </trkpt>
      <trkpt lat="45.594" lon="2.86022">
        <ele>1333</ele>
        <time>2019-04-17T12:33:49Z</time>
      </trkpt>
      <trkpt lat="45.59397" lon="2.86007">
        <ele>1333</ele>
        <time>2019-04-17T12:34:49Z</time>
      </trkpt>
      <trkpt lat="45.59394" lon="2.85953">
        <ele>1336</ele>
        <time>2019-04-17T12:35:49Z</time>
      </trkpt>
      <trkpt lat="45.59397" lon="2.85939">
        <ele>1338</ele>
        <time>2019-04-17T12:36:49Z</time>
      </trkpt>
      <trkpt lat="45.59406" lon="2.85913">
        <ele>1345</ele>
        <time>2019-04-17T12:37:49Z</time>
      </trkpt>
      <trkpt lat="45.59409" lon="2.85885">
        <ele>1347</ele>
        <time>2019-04-17T12:38:49Z</time>
      </trkpt>
      <trkpt lat="45.59419" lon="2.8584">
        <ele>1352</ele>
        <time>2019-04-17T12:39:49Z</time>
      </trkpt>
      <trkpt lat="45.59429" lon="2.85766">
        <ele>1359</ele>
        <time>2019-04-17T12:40:49Z</time>
      </trkpt>
      <trkpt lat="45.59427" lon="2.85748">
        <ele>1359</ele>
        <time>2019-04-17T12:41:49Z</time>
      </trkpt>
      <trkpt lat="45.59423" lon="2.85734">
        <ele>1360</ele>
        <time>2019-04-17T12:42:49Z</time>
      </trkpt>
      <trkpt lat="45.59416" lon="2.85719">
        <ele>1360</ele>
        <time>2019-04-17T12:43:49Z</time>
      </trkpt>
      <trkpt lat="45.59373" lon="2.85665">
        <ele>1355</ele>
        <time>2019-04-17T12:44:49Z</time>
      </trkpt>
      <trkpt lat="45.59368" lon="2.85654">
        <ele>1354</ele>
        <time>2019-04-17T12:45:49Z</time>
      </trkpt>
      <trkpt lat="45.59363" lon="2.8564">
        <ele>1354</ele>
        <time>2019-04-17T12:46:49Z</time>
      </trkpt>
      <trkpt lat="45.59361" lon="2.85617">
        <ele>1356</ele>
        <time>2019-04-17T12:47:49Z</time>
      </trkpt>
      <trkpt lat="45.59366" lon="2.85588">
        <ele>1360</ele>
        <time>2019-04-17T12:48:49Z</time>
      </trkpt>
      <trkpt lat="45.59399" lon="2.85454">
        <ele>1371</ele>
        <time>2019-04-17T12:49:49Z</time>
      </trkpt>
      <trkpt lat="45.59402" lon="2.85414">
        <ele>1372</ele>
        <time>2019-04-17T12:50:49Z</time>
      </trkpt>
      <trkpt lat="45.59406" lon="2.85392">
        <ele>1371</ele>
        <time>2019-04-17T12:51:49Z</time>
      </trkpt>
      <trkpt lat="45.59414" lon="2.85366">
        <ele>1371</ele>
        <time>2019-04-17T12:52:49Z</time>
      </trkpt>
      <trkpt lat="45.59423" lon="2.85348">
        <ele>1372</ele>
        <time>2019-04-17T12:53:49Z</time>
      </trkpt>
      <trkpt lat="45.59432" lon="2.85332">
        <ele>1373</ele>
        <time>2019-04-17T12:54:49Z</time>
      </trkpt>
      <trkpt lat="45.59469" lon="2.85299">
        <ele>1382</ele>
        <time>2019-04-17T12:55:49Z</time>
      </trkpt>
      <trkpt lat="45.59536" lon="2.85196">
        <ele>1389</ele>
        <time>2019-04-17T12:56:49Z</time>
      </trkpt>
      <trkpt lat="45.59544" lon="2.85188">
        <ele>1389</ele>
        <time>2019-04-17T12:57:49Z</time>
      </trkpt>
      <trkpt lat="45.59565" lon="2.85178">
        <ele>1392</ele>
        <time>2019-04-17T12:58:49Z</time>
      </trkpt>
      <trkpt lat="45.59634" lon="2.85166">
        <ele>1398</ele>
        <time>2019-04-17T12:59:49Z</time>
      </trkpt>
      <trkpt lat="45.59654" lon="2.85157">
        <ele>1400</ele>
        <time>2019-04-17T13:00:49Z</time>
      </trkpt>
      <trkpt lat="45.5967" lon="2.85145">
        <ele>1401</ele>
        <time>2019-04-17T13:01:49Z</time>
      </trkpt>
      <trkpt lat="45.59689" lon="2.85118">
        <ele>1401</ele>
        <time>2019-04-17T13:02:49Z</time>
      </trkpt>
      <trkpt lat="45.59708" lon="2.85081">
        <ele>1400</ele>
        <time>2019-04-17T13:03:49Z</time>
      </trkpt>
      <trkpt lat="45.59728" lon="2.85032">
        <ele>1397</ele>
        <time>2019-04-17T13:04:49Z</time>
      </trkpt>
      <trkpt lat="45.59942" lon="2.84493">
        <ele>1363</ele>
        <time>2019-04-17T13:05:49Z</time>
      </trkpt>
      <trkpt lat="45.59973" lon="2.84412">
        <ele>1359</ele>
        <time>2019-04-17T13:06:49Z</time>
      </trkpt>
      <trkpt lat="45.59985" lon="2.84373">
        <ele>1357</ele>
        <time>2019-04-17T13:07:49Z</time>
      </trkpt>
      <trkpt lat="45.59995" lon="2.84334">
        <ele>1355</ele>
        <time>2019-04-17T13:08:49Z</time>
      </trkpt>
      <trkpt lat="45.60013" lon="2.84179">
        <ele>1350</ele>
        <time>2019-04-17T13:09:49Z</time>
      </trkpt>
      <trkpt lat="45.60015" lon="2.84153">
        <ele>1348</ele>
        <time>2019-04-17T13:10:49Z</time>
      </trkpt>
      <trkpt lat="45.60015" lon="2.84128">
        <ele>1346</ele>
        <time>2019-04-17T13:11:49Z</time>
      </trkpt>
      <trkpt lat="45.60012" lon="2.84102">
        <ele>1345</ele>
        <time>2019-04-17T13:12:49Z</time>
      </trkpt>
      <trkpt lat="45.6" lon="2.84041">
        <ele>1343</ele>
        <time>2019-04-17T13:13:49Z</time>
      </trkpt>
      <trkpt lat="45.59991" lon="2.84006">
        <ele>1343</ele>
        <time>2019-04-17T13:14:49Z</time>
      </trkpt>
      <trkpt lat="45.59868" lon="2.83708">
        <ele>1329</ele>
        <time>2019-04-17T13:15:49Z</time>
      </trkpt>
      <trkpt lat="45.59851" lon="2.83673">
        <ele>1325</ele>
        <time>2019-04-17T13:16:49Z</time>
      </trkpt>
      <trkpt lat="45.59839" lon="2.83657">
        <ele>1324</ele>
        <time>2019-04-17T13:17:49Z</time>
      </trkpt>
      <trkpt lat="45.59803" lon="2.83625">
        <ele>1325</ele>
        <time>2019-04-17T13:18:49Z</time>
      </trkpt>
      <trkpt lat="45.59788" lon="2.83606">
        <ele>1323</ele>
        <time>2019-04-17T13:19:49Z</time>
      </trkpt>
      <trkpt lat="45.59681" lon="2.83451">
        <ele>1304</ele>
        <time>2019-04-17T13:20:49Z</time>
      </trkpt>
      <trkpt lat="45.59667" lon="2.83442">
        <ele>1304</ele>
        <time>2019-04-17T13:21:49Z</time>
      </trkpt>
      <trkpt lat="45.59657" lon="2.83442">
        <ele>1304</ele>
        <time>2019-04-17T13:22:49Z</time>
      </trkpt>
      <trkpt lat="45.59645" lon="2.83447">
        <ele>1305</ele>
        <time>2019-04-17T13:23:49Z</time>
      </trkpt>
      <trkpt lat="45.59614" lon="2.83473">
        <ele>1312</ele>
        <time>2019-04-17T13:24:49Z</time>
      </trkpt>
      <trkpt lat="45.59602" lon="2.83477">
        <ele>1313</ele>
        <time>2019-04-17T13:25:49Z</time>
      </trkpt>
      <trkpt lat="45.59595" lon="2.83476">
        <ele>1313</ele>
        <time>2019-04-17T13:26:49Z</time>
      </trkpt>
      <trkpt lat="45.59588" lon="2.83472">
        <ele>1312</ele>
        <time>2019-04-17T13:27:49Z</time>
      </trkpt>
      <trkpt lat="45.59576" lon="2.83462">
        <ele>1310</ele>
        <time>2019-04-17T13:28:49Z</time>
      </trkpt>
      <trkpt lat="45.59541" lon="2.83418">
        <ele>1302</ele>
        <time>2019-04-17T13:29:49Z</time>
      </trkpt>
      <trkpt lat="45.59533" lon="2.83414">
        <ele>1302</ele>
        <time>2019-04-17T13:30:49Z</time>
      </trkpt>
      <trkpt lat="45.59498" lon="2.83408">
        <ele>1304</ele>
        <time>2019-04-17T13:31:49Z</time>
      </trkpt>
      <trkpt lat="45.59483" lon="2.83402">
        <ele>1305</ele>
        <time>2019-04-17T13:32:49Z</time>
      </trkpt>
      <trkpt lat="45.5947" lon="2.83385">
        <ele>1303</ele>
        <time>2019-04-17T13:33:49Z</time>
      </trkpt>
      <trkpt lat="45.59453" lon="2.83348">
        <ele>1295</ele>
        <time>2019-04-17T13:34:49Z</time>
      </trkpt>
      <trkpt lat="45.59442" lon="2.83338">
        <ele>1293</ele>
        <time>2019-04-17T13:35:49Z</time>
      </trkpt>
      <trkpt lat="45.59431" lon="2.83338">
        <ele>1294</ele>
        <time>2019-04-17T13:36:49Z</time>
      </trkpt>
      <trkpt lat="45.59404" lon="2.83342">
        <ele>1300</ele>
        <time>2019-04-17T13:37:49Z</time>
      </trkpt>
      <trkpt lat="45.59395" lon="2.8334">
        <ele>1302</ele>
        <time>2019-04-17T13:38:49Z</time>
      </trkpt>
      <trkpt lat="45.59385" lon="2.83333">
        <ele>1303</ele>
        <time>2019-04-17T13:39:49Z</time>
      </trkpt>
      <trkpt lat="45.59376" lon="2.83322">
        <ele>1303</ele>
        <time>2019-04-17T13:40:49Z</time>
      </trkpt>
      <trkpt lat="45.5937" lon="2.83309">
        <ele>1302</ele>
        <time>2019-04-17T13:41:49Z</time>
      </trkpt>
      <trkpt lat="45.59364" lon="2.83291">
        <ele>1300</ele>
        <time>2019-04-17T13:42:49Z</time>
      </trkpt>
      <trkpt lat="45.59346" lon="2.83207">
        <ele>1283</ele>
        <time>2019-04-17T13:43:49Z</time>
      </trkpt>
      <trkpt lat="45.5934" lon="2.83193">
        <ele>1280</ele>
        <time>2019-04-17T13:44:49Z</time>
      </trkpt>
      <trkpt lat="45.59333" lon="2.83184">
        <ele>1279</ele>
        <time>2019-04-17T13:45:49Z</time>
      </trkpt>
      <trkpt lat="45.59323" lon="2.83178">
        <ele>1276</ele>
        <time>2019-04-17T13:46:49Z</time>
      </trkpt>
      <trkpt lat="45.5931" lon="2.83175">
        <ele>1275</ele>
        <time>2019-04-17T13:47:49Z</time>
      </trkpt>
      <trkpt lat="45.59293" lon="2.83175">
        <ele>1275</ele>
        <time>2019-04-17T13:48:49Z</time>
      </trkpt>
      <trkpt lat="45.59279" lon="2.83186">
        <ele>1278</ele>
        <time>2019-04-17T13:49:49Z</time>
      </trkpt>
      <trkpt lat="45.59228" lon="2.8324">
        <ele>1294</ele>
        <time>2019-04-17T13:50:49Z</time>
      </trkpt>
      <trkpt lat="45.59214" lon="2.83247">
        <ele>1295</ele>
        <time>2019-04-17T13:51:49Z</time>
      </trkpt>
      <trkpt lat="45.5921" lon="2.83247">
        <ele>1296</ele>
        <time>2019-04-17T13:52:49Z</time>
      </trkpt>
      <trkpt lat="45.59199" lon="2.83241">
        <ele>1296</ele>
        <time>2019-04-17T13:53:49Z</time>
      </trkpt>
      <trkpt lat="45.59193" lon="2.83228">
        <ele>1295</ele>
        <time>2019-04-17T13:54:49Z</time>
      </trkpt>
      <trkpt lat="45.59192" lon="2.83208">
        <ele>1295</ele>
        <time>2019-04-17T13:55:49Z</time>
      </trkpt>
      <trkpt lat="45.59218" lon="2.83129">
        <ele>1284</ele>
        <time>2019-04-17T13:56:49Z</time>
      </trkpt>
      <trkpt lat="45.59231" lon="2.83086">
        <ele>1278</ele>
        <time>2019-04-17T13:57:49Z</time>
      </trkpt>
      <trkpt lat="45.59261" lon="2.82967">
        <ele>1266</ele>
        <time>2019-04-17T13:58:49Z</time>
      </trkpt>
      <trkpt lat="45.59268" lon="2.82936">
        <ele>1262</ele>
        <time>2019-04-17T13:59:49Z</time>
      </trkpt>
      <trkpt lat="45.59269" lon="2.8292">
        <ele>1261</ele>
        <time>2019-04-17T14:00:49Z</time>
      </trkpt>
      <trkpt lat="45.59268" lon="2.82903">
        <ele>1258</ele>
        <time>2019-04-17T14:01:49Z</time>
      </trkpt>
      <trkpt lat="45.59264" lon="2.82888">
        <ele>1256</ele>
        <time>2019-04-17T14:02:49Z</time>
      </trkpt>
      <trkpt lat="45.59254" lon="2.8287">
        <ele>1256</ele>
        <time>2019-04-17T14:03:49Z</time>
      </trkpt>
      <trkpt lat="45.59226" lon="2.82833">
        <ele>1253</ele>
        <time>2019-04-17T14:04:49Z</time>
      </trkpt>
      <trkpt lat="45.59212" lon="2.82818">
        <ele>1252</ele>
        <time>2019-04-17T14:05:49Z</time>
      </trkpt>
      <trkpt lat="45.59195" lon="2.82805">
        <ele>1251</ele>
        <time>2019-04-17T14:06:49Z</time>
      </trkpt>
      <trkpt lat="45.59188" lon="2.82802">
        <ele>1252</ele>
        <time>2019-04-17T14:07:49Z</time>
      </trkpt>
      <trkpt lat="45.59152" lon="2.82794">
        <ele>1255</ele>
        <time>2019-04-17T14:08:49Z</time>
      </trkpt>
      <trkpt lat="45.59133" lon="2.82785">
        <ele>1255</ele>
        <time>2019-04-17T14:09:49Z</time>
      </trkpt>
      <trkpt lat="45.59099" lon="2.82743">
        <ele>1248</ele>
        <time>2019-04-17T14:10:49Z</time>
      </trkpt>
      <trkpt lat="45.59084" lon="2.8273">
        <ele>1247</ele>
        <time>2019-04-17T14:11:49Z</time>
      </trkpt>
      <trkpt lat="45.59037" lon="2.82697">
        <ele>1247</ele>
        <time>2019-04-17T14:12:49Z</time>
      </trkpt>
      <trkpt lat="45.58991" lon="2.82649">
        <ele>1242</ele>
        <time>2019-04-17T14:13:49Z</time>
      </trkpt>
      <trkpt lat="45.58969" lon="2.82622">
        <ele>1241</ele>
        <time>2019-04-17T14:14:49Z</time>
      </trkpt>
      <trkpt lat="45.58933" lon="2.82564">
        <ele>1234</ele>
        <time>2019-04-17T14:15:49Z</time>
      </trkpt>
      <trkpt lat="45.58916" lon="2.82545">
        <ele>1232</ele>
        <time>2019-04-17T14:16:49Z</time>
      </trkpt>
      <trkpt lat="45.58895" lon="2.82527">
        <ele>1230</ele>
        <time>2019-04-17T14:17:49Z</time>
      </trkpt>
      <trkpt lat="45.58856" lon="2.82506">
        <ele>1230</ele>
        <time>2019-04-17T14:18:49Z</time>
      </trkpt>
      <trkpt lat="45.58843" lon="2.82496">
        <ele>1229</ele>
        <time>2019-04-17T14:19:49Z</time>
      </trkpt>
      <trkpt lat="45.58816" lon="2.82467">
        <ele>1225</ele>
        <time>2019-04-17T14:20:49Z</time>
      </trkpt>
      <trkpt lat="45.58799" lon="2.82454">
        <ele>1223</ele>
        <time>2019-04-17T14:21:49Z</time>
      </trkpt>
      <trkpt lat="45.58748" lon="2.82433">
        <ele>1221</ele>
        <time>2019-04-17T14:22:49Z</time>
      </trkpt>
      <trkpt lat="45.58731" lon="2.82424">
        <ele>1221</ele>
        <time>2019-04-17T14:23:49Z</time>
      </trkpt>
      <trkpt lat="45.58683" lon="2.82381">
        <ele>1217</ele>
        <time>2019-04-17T14:24:49Z</time>
      </trkpt>
      <trkpt lat="45.58654" lon="2.82351">
        <ele>1214</ele>
        <time>2019-04-17T14:25:49Z</time>
      </trkpt>
      <trkpt lat="45.58631" lon="2.82324">
        <ele>1212</ele>
        <time>2019-04-17T14:26:49Z</time>
      </trkpt>
      <trkpt lat="45.58621" lon="2.82309">
        <ele>1210</ele>
        <time>2019-04-17T14:27:49Z</time>
      </trkpt>
      <trkpt lat="45.58612" lon="2.82291">
        <ele>1208</ele>
        <time>2019-04-17T14:28:49Z</time>
      </trkpt>
      <trkpt lat="45.58574" lon="2.82204">
        <ele>1199</ele>
        <time>2019-04-17T14:29:49Z</time>
      </trkpt>
      <trkpt lat="45.58564" lon="2.82187">
        <ele>1198</ele>
        <time>2019-04-17T14:30:49Z</time>
      </trkpt>
      <trkpt lat="45.58561" lon="2.82172">
        <ele>1196</ele>
        <time>2019-04-17T14:31:49Z</time>
      </trkpt>
      <trkpt lat="45.58575" lon="2.8218">
        <ele>1197</ele>
        <time>2019-04-17T14:32:49Z</time>
      </trkpt>
      <trkpt lat="45.58599" lon="2.82198">
        <ele>1197</ele>
        <time>2019-04-17T14:33:49Z</time>
      </trkpt>
      <trkpt lat="45.58646" lon="2.82258">
        <ele>1200</ele>
        <time>2019-04-17T14:34:49Z</time>
      </trkpt>
      <trkpt lat="45.58658" lon="2.8227">
        <ele>1201</ele>
        <time>2019-04-17T14:35:49Z</time>
      </trkpt>
      <trkpt lat="45.58672" lon="2.82278">
        <ele>1202</ele>
        <time>2019-04-17T14:36:49Z</time>
      </trkpt>
      <trkpt lat="45.58694" lon="2.8228">
        <ele>1202</ele>
        <time>2019-04-17T14:37:49Z</time>
      </trkpt>
      <trkpt lat="45.58716" lon="2.82271">
        <ele>1200</ele>
        <time>2019-04-17T14:38:49Z</time>
      </trkpt>
      <trkpt lat="45.58775" lon="2.82219">
        <ele>1195</ele>
        <time>2019-04-17T14:39:49Z</time>
      </trkpt>
      <trkpt lat="45.58796" lon="2.82212">
        <ele>1194</ele>
        <time>2019-04-17T14:40:49Z</time>
      </trkpt>
      <trkpt lat="45.58818" lon="2.82216">
        <ele>1195</ele>
        <time>2019-04-17T14:41:49Z</time>
      </trkpt>
      <trkpt lat="45.58852" lon="2.8223">
        <ele>1195</ele>
        <time>2019-04-17T14:42:49Z</time>
      </trkpt>
      <trkpt lat="45.58949" lon="2.82216">
        <ele>1193</ele>
        <time>2019-04-17T14:43:49Z</time>
      </trkpt>
      <trkpt lat="45.58961" lon="2.82219">
        <ele>1193</ele>
        <time>2019-04-17T14:44:49Z</time>
      </trkpt>
      <trkpt lat="45.58993" lon="2.82241">
        <ele>1193</ele>
        <time>2019-04-17T14:45:49Z</time>
      </trkpt>
      <trkpt lat="45.59014" lon="2.82261">
        <ele>1192</ele>
        <time>2019-04-17T14:46:49Z</time>
      </trkpt>
      <trkpt lat="45.59033" lon="2.82286">
        <ele>1189</ele>
        <time>2019-04-17T14:47:49Z</time>
      </trkpt>
      <trkpt lat="45.59048" lon="2.82317">
        <ele>1189</ele>
        <time>2019-04-17T14:48:49Z</time>
      </trkpt>
      <trkpt lat="45.59053" lon="2.82334">
        <ele>1190</ele>
        <time>2019-04-17T14:49:49Z</time>
      </trkpt>
      <trkpt lat="45.59057" lon="2.82402">
        <ele>1196</ele>
        <time>2019-04-17T14:50:49Z</time>
      </trkpt>
      <trkpt lat="45.59064" lon="2.82426">
        <ele>1198</ele>
        <time>2019-04-17T14:51:49Z</time>
      </trkpt>
      <trkpt lat="45.59076" lon="2.82443">
        <ele>1198</ele>
        <time>2019-04-17T14:52:49Z</time>
      </trkpt>
      <trkpt lat="45.5909" lon="2.82454">
        <ele>1198</ele>
        <time>2019-04-17T14:53:49Z</time>
      </trkpt>
      <trkpt lat="45.59116" lon="2.82465">
        <ele>1197</ele>
        <time>2019-04-17T14:54:49Z</time>
      </trkpt>
      <trkpt lat="45.59191" lon="2.82483">
        <ele>1193</ele>
        <time>2019-04-17T14:55:49Z</time>
      </trkpt>
      <trkpt lat="45.59222" lon="2.82493">
        <ele>1190</ele>
        <time>2019-04-17T14:56:49Z</time>
      </trkpt>
      <trkpt lat="45.59255" lon="2.82509">
        <ele>1188</ele>
        <time>2019-04-17T14:57:49Z</time>
      </trkpt>
      <trkpt lat="45.59278" lon="2.82527">
        <ele>1187</ele>
        <time>2019-04-17T14:58:49Z</time>
      </trkpt>
      <trkpt lat="45.59293" lon="2.82545">
        <ele>1187</ele>
        <time>2019-04-17T14:59:49Z</time>
      </trkpt>
      <trkpt lat="45.5933" lon="2.82602">
        <ele>1188</ele>
        <time>2019-04-17T15:00:49Z</time>
      </trkpt>
      <trkpt lat="45.59351" lon="2.82623">
        <ele>1188</ele>
        <time>2019-04-17T15:01:49Z</time>
      </trkpt>
      <trkpt lat="45.59403" lon="2.82658">
        <ele>1187</ele>
        <time>2019-04-17T15:02:49Z</time>
      </trkpt>
      <trkpt lat="45.59427" lon="2.82681">
        <ele>1190</ele>
        <time>2019-04-17T15:03:49Z</time>
      </trkpt>
      <trkpt lat="45.59488" lon="2.82767">
        <ele>1190</ele>
        <time>2019-04-17T15:04:49Z</time>
      </trkpt>
      <trkpt lat="45.59499" lon="2.82778">
        <ele>1188</ele>
        <time>2019-04-17T15:05:49Z</time>
      </trkpt>
      <trkpt lat="45.5951" lon="2.82782">
        <ele>1190</ele>
        <time>2019-04-17T15:06:49Z</time>
      </trkpt>
      <trkpt lat="45.5952" lon="2.8278">
        <ele>1191</ele>
        <time>2019-04-17T15:07:49Z</time>
      </trkpt>
      <trkpt lat="45.59529" lon="2.82775">
        <ele>1193</ele>
        <time>2019-04-17T15:08:49Z</time>
      </trkpt>
      <trkpt lat="45.59537" lon="2.82763">
        <ele>1194</ele>
        <time>2019-04-17T15:09:49Z</time>
      </trkpt>
      <trkpt lat="45.59542" lon="2.82745">
        <ele>1195</ele>
        <time>2019-04-17T15:10:49Z</time>
      </trkpt>
      <trkpt lat="45.59541" lon="2.82728">
        <ele>1194</ele>
        <time>2019-04-17T15:11:49Z</time>
      </trkpt>
      <trkpt lat="45.59532" lon="2.82666">
        <ele>1190</ele>
        <time>2019-04-17T15:12:49Z</time>
      </trkpt>
      <trkpt lat="45.59514" lon="2.82589">
        <ele>1189</ele>
        <time>2019-04-17T15:13:49Z</time>
      </trkpt>
      <trkpt lat="45.59505" lon="2.82564">
        <ele>1189</ele>
        <time>2019-04-17T15:14:49Z</time>
      </trkpt>
      <trkpt lat="45.59466" lon="2.82498">
        <ele>1184</ele>
        <time>2019-04-17T15:15:49Z</time>
      </trkpt>
      <trkpt lat="45.59455" lon="2.82474">
        <ele>1182</ele>
        <time>2019-04-17T15:16:49Z</time>
      </trkpt>
      <trkpt lat="45.59449" lon="2.82448">
        <ele>1182</ele>
        <time>2019-04-17T15:17:49Z</time>
      </trkpt>
      <trkpt lat="45.59424" lon="2.8228">
        <ele>1185</ele>
        <time>2019-04-17T15:18:49Z</time>
      </trkpt>
      <trkpt lat="45.59423" lon="2.82248">
        <ele>1186</ele>
        <time>2019-04-17T15:19:49Z</time>
      </trkpt>
      <trkpt lat="45.59426" lon="2.82225">
        <ele>1185</ele>
        <time>2019-04-17T15:20:49Z</time>
      </trkpt>
      <trkpt lat="45.59433" lon="2.82209">
        <ele>1185</ele>
        <time>2019-04-17T15:21:49Z</time>
      </trkpt>
      <trkpt lat="45.59441" lon="2.82199">
        <ele>1185</ele>
        <time>2019-04-17T15:22:49Z</time>
      </trkpt>
      <trkpt lat="45.59451" lon="2.82193">
        <ele>1186</ele>
        <time>2019-04-17T15:23:49Z</time>
      </trkpt>
      <trkpt lat="45.59464" lon="2.82192">
        <ele>1187</ele>
        <time>2019-04-17T15:24:49Z</time>
      </trkpt>
      <trkpt lat="45.59477" lon="2.82196">
        <ele>1190</ele>
        <time>2019-04-17T15:25:49Z</time>
      </trkpt>
      <trkpt lat="45.59492" lon="2.82207">
        <ele>1194</ele>
        <time>2019-04-17T15:26:49Z</time>
      </trkpt>
      <trkpt lat="45.59565" lon="2.82285">
        <ele>1199</ele>
        <time>2019-04-17T15:27:49Z</time>
      </trkpt>
      <trkpt lat="45.59766" lon="2.82482">
        <ele>1205</ele>
        <time>2019-04-17T15:28:49Z</time>
      </trkpt>
      <trkpt lat="45.59862" lon="2.82568">
        <ele>1208</ele>
        <time>2019-04-17T15:29:49Z</time>
      </trkpt>
      <trkpt lat="45.59879" lon="2.82581">
        <ele>1207</ele>
        <time>2019-04-17T15:30:49Z</time>
      </trkpt>
      <trkpt lat="45.59956" lon="2.82629">
        <ele>1205</ele>
        <time>2019-04-17T15:31:49Z</time>
      </trkpt>
      <trkpt lat="45.59977" lon="2.82646">
        <ele>1204</ele>
        <time>2019-04-17T15:32:49Z</time>
      </trkpt>
      <trkpt lat="45.60005" lon="2.82687">
        <ele>1207</ele>
        <time>2019-04-17T15:33:49Z</time>
      </trkpt>
      <trkpt lat="45.60022" lon="2.82704">
        <ele>1210</ele>
        <time>2019-04-17T15:34:49Z</time>
      </trkpt>
      <trkpt lat="45.60037" lon="2.8271">
        <ele>1211</ele>
        <time>2019-04-17T15:35:49Z</time>
      </trkpt>
      <trkpt lat="45.60055" lon="2.82708">
        <ele>1209</ele>
        <time>2019-04-17T15:36:49Z</time>
      </trkpt>
      <trkpt lat="45.60071" lon="2.82699">
        <ele>1208</ele>
        <time>2019-04-17T15:37:49Z</time>
      </trkpt>
      <trkpt lat="45.60083" lon="2.82686">
        <ele>1207</ele>
        <time>2019-04-17T15:38:49Z</time>
      </trkpt>
      <trkpt lat="45.6009" lon="2.82672">
        <ele>1209</ele>
        <time>2019-04-17T15:39:49Z</time>
      </trkpt>
      <trkpt lat="45.60096" lon="2.82648">
        <ele>1210</ele>
        <time>2019-04-17T15:40:49Z</time>
      </trkpt>
      <trkpt lat="45.60107" lon="2.82591">
        <ele>1208</ele>
        <time>2019-04-17T15:41:49Z</time>
      </trkpt>
      <trkpt lat="45.60135" lon="2.82553">
        <ele>1212</ele>
        <time>2019-04-17T15:42:49Z</time>
      </trkpt>
      <trkpt lat="45.60159" lon="2.82548">
        <ele>1218</ele>
        <time>2019-04-17T15:43:49Z</time>
      </trkpt>
      <trkpt lat="45.60184" lon="2.82548">
        <ele>1223</ele>
        <time>2019-04-17T15:44:49Z</time>
      </trkpt>
      <trkpt lat="45.60234" lon="2.82561">
        <ele>1233</ele>
        <time>2019-04-17T15:45:49Z</time>
      </trkpt>
      <trkpt lat="45.60261" lon="2.8256">
        <ele>1236</ele>
        <time>2019-04-17T15:46:49Z</time>
      </trkpt>
      <trkpt lat="45.60345" lon="2.82542">
        <ele>1242</ele>
        <time>2019-04-17T15:47:49Z</time>
      </trkpt>
      <trkpt lat="45.60371" lon="2.82545">
        <ele>1243</ele>
        <time>2019-04-17T15:48:49Z</time>
      </trkpt>
      <trkpt lat="45.60435" lon="2.82575">
        <ele>1244</ele>
        <time>2019-04-17T15:49:49Z</time>
      </trkpt>
      <trkpt lat="45.60463" lon="2.82583">
        <ele>1242</ele>
        <time>2019-04-17T15:50:49Z</time>
      </trkpt>
      <trkpt lat="45.60492" lon="2.82584">
        <ele>1240</ele>
        <time>2019-04-17T15:51:49Z</time>
      </trkpt>
      <trkpt lat="45.60642" lon="2.82546">
        <ele>1246</ele>
        <time>2019-04-17T15:52:49Z</time>
      </trkpt>
      <trkpt lat="45.60723" lon="2.82514">
        <ele>1244</ele>
        <time>2019-04-17T15:53:49Z</time>
      </trkpt>
      <trkpt lat="45.60747" lon="2.82516">
        <ele>1244</ele>
        <time>2019-04-17T15:54:49Z</time>
      </trkpt>
      <trkpt lat="45.60784" lon="2.8253">
        <ele>1245</ele>
        <time>2019-04-17T15:55:49Z</time>
      </trkpt>
      <trkpt lat="45.60851" lon="2.82541">
        <ele>1245</ele>
        <time>2019-04-17T15:56:49Z</time>
      </trkpt>
      <trkpt lat="45.60878" lon="2.8254">
        <ele>1245</ele>
        <time>2019-04-17T15:57:49Z</time>
      </trkpt>
      <trkpt lat="45.60976" lon="2.82512">
        <ele>1243</ele>
        <time>2019-04-17T15:58:49Z</time>
      </trkpt>
      <trkpt lat="45.61029" lon="2.825">
        <ele>1245</ele>
        <time>2019-04-17T15:59:49Z</time>
      </trkpt>
      <trkpt lat="45.61124" lon="2.82444">
        <ele>1246</ele>
        <time>2019-04-17T16:00:49Z</time>
      </trkpt>
      <trkpt lat="45.61141" lon="2.82443">
        <ele>1247</ele>
        <time>2019-04-17T16:01:49Z</time>
      </trkpt>
      <trkpt lat="45.61152" lon="2.82446">
        <ele>1247</ele>
        <time>2019-04-17T16:02:49Z</time>
      </trkpt>
      <trkpt lat="45.61174" lon="2.82457">
        <ele>1248</ele>
        <time>2019-04-17T16:03:49Z</time>
      </trkpt>
      <trkpt lat="45.61192" lon="2.82476">
        <ele>1248</ele>
        <time>2019-04-17T16:04:49Z</time>
      </trkpt>
      <trkpt lat="45.61196" lon="2.8249">
        <ele>1248</ele>
        <time>2019-04-17T16:05:49Z</time>
      </trkpt>
      <trkpt lat="45.61197" lon="2.82522">
        <ele>1249</ele>
        <time>2019-04-17T16:06:49Z</time>
      </trkpt>
      <trkpt lat="45.61191" lon="2.82572">
        <ele>1252</ele>
        <time>2019-04-17T16:07:49Z</time>
      </trkpt>
      <trkpt lat="45.61191" lon="2.82588">
        <ele>1252</ele>
        <time>2019-04-17T16:08:49Z</time>
      </trkpt>
      <trkpt lat="45.61196" lon="2.82599">
        <ele>1252</ele>
        <time>2019-04-17T16:09:49Z</time>
      </trkpt>
      <trkpt lat="45.61217" lon="2.82618">
        <ele>1251</ele>
        <time>2019-04-17T16:10:49Z</time>
      </trkpt>
      <trkpt lat="45.61258" lon="2.82641">
        <ele>1250</ele>
        <time>2019-04-17T16:11:49Z</time>
      </trkpt>
      <trkpt lat="45.61279" lon="2.82645">
        <ele>1250</ele>
        <time>2019-04-17T16:12:49Z</time>
      </trkpt>
      <trkpt lat="45.6131" lon="2.82636">
        <ele>1251</ele>
        <time>2019-04-17T16:13:49Z</time>
      </trkpt>
      <trkpt lat="45.61368" lon="2.82611">
        <ele>1252</ele>
        <time>2019-04-17T16:14:49Z</time>
      </trkpt>
      <trkpt lat="45.61498" lon="2.82534">
        <ele>1251</ele>
        <time>2019-04-17T16:15:49Z</time>
      </trkpt>
      <trkpt lat="45.61656" lon="2.82463">
        <ele>1251</ele>
        <time>2019-04-17T16:16:49Z</time>
      </trkpt>
      <trkpt lat="45.61785" lon="2.82426">
        <ele>1255</ele>
        <time>2019-04-17T16:17:49Z</time>
      </trkpt>
      <trkpt lat="45.61869" lon="2.82377">
        <ele>1260</ele>
        <time>2019-04-17T16:18:49Z</time>
      </trkpt>
      <trkpt lat="45.61903" lon="2.82355">
        <ele>1261</ele>
        <time>2019-04-17T16:19:49Z</time>
      </trkpt>
      <trkpt lat="45.6195" lon="2.8231">
        <ele>1265</ele>
        <time>2019-04-17T16:20:49Z</time>
      </trkpt>
      <trkpt lat="45.6197" lon="2.82282">
        <ele>1266</ele>
        <time>2019-04-17T16:21:49Z</time>
      </trkpt>
      <trkpt lat="45.61977" lon="2.82269">
        <ele>1266</ele>
        <time>2019-04-17T16:22:49Z</time>
      </trkpt>
      <trkpt lat="45.61992" lon="2.82225">
        <ele>1267</ele>
        <time>2019-04-17T16:23:49Z</time>
      </trkpt>
      <trkpt lat="45.62012" lon="2.82182">
        <ele>1267</ele>
        <time>2019-04-17T16:24:49Z</time>
      </trkpt>
      <trkpt lat="45.62021" lon="2.82138">
        <ele>1265</ele>
        <time>2019-04-17T16:25:49Z</time>
      </trkpt>
      <trkpt lat="45.62033" lon="2.82107">
        <ele>1265</ele>
        <time>2019-04-17T16:26:49Z</time>
      </trkpt>
      <trkpt lat="45.62049" lon="2.82087">
        <ele>1265</ele>
        <time>2019-04-17T16:27:49Z</time>
      </trkpt>
      <trkpt lat="45.62069" lon="2.8207">
        <ele>1266</ele>
        <time>2019-04-17T16:28:49Z</time>
      </trkpt>
      <trkpt lat="45.62079" lon="2.82066">
        <ele>1267</ele>
        <time>2019-04-17T16:29:49Z</time>
      </trkpt>
      <trkpt lat="45.62091" lon="2.82065">
        <ele>1267</ele>
        <time>2019-04-17T16:30:49Z</time>
      </trkpt>
      <trkpt lat="45.62149" lon="2.82074">
        <ele>1266</ele>
        <time>2019-04-17T16:31:49Z</time>
      </trkpt>
      <trkpt lat="45.62199" lon="2.82084">
        <ele>1264</ele>
        <time>2019-04-17T16:32:49Z</time>
      </trkpt>
      <trkpt lat="45.62214" lon="2.82092">
        <ele>1263</ele>
        <time>2019-04-17T16:33:49Z</time>
      </trkpt>
      <trkpt lat="45.62223" lon="2.821">
        <ele>1263</ele>
        <time>2019-04-17T16:34:49Z</time>
      </trkpt>
      <trkpt lat="45.62233" lon="2.82123">
        <ele>1265</ele>
        <time>2019-04-17T16:35:49Z</time>
      </trkpt>
      <trkpt lat="45.62277" lon="2.82257">
        <ele>1279</ele>
        <time>2019-04-17T16:36:49Z</time>
      </trkpt>
      <trkpt lat="45.62282" lon="2.82268">
        <ele>1281</ele>
        <time>2019-04-17T16:37:49Z</time>
      </trkpt>
      <trkpt lat="45.62287" lon="2.82273">
        <ele>1281</ele>
        <time>2019-04-17T16:38:49Z</time>
      </trkpt>
      <trkpt lat="45.62301" lon="2.8228">
        <ele>1280</ele>
        <time>2019-04-17T16:39:49Z</time>
      </trkpt>
      <trkpt lat="45.62341" lon="2.82282">
        <ele>1270</ele>
        <time>2019-04-17T16:40:49Z</time>
      </trkpt>
      <trkpt lat="45.62354" lon="2.82286">
        <ele>1266</ele>
        <time>2019-04-17T16:41:49Z</time>
      </trkpt>
      <trkpt lat="45.62373" lon="2.82297">
        <ele>1263</ele>
        <time>2019-04-17T16:42:49Z</time>
      </trkpt>
      <trkpt lat="45.6239" lon="2.82312">
        <ele>1262</ele>
        <time>2019-04-17T16:43:49Z</time>
      </trkpt>
      <trkpt lat="45.62439" lon="2.82373">
        <ele>1271</ele>
        <time>2019-04-17T16:44:49Z</time>
      </trkpt>
      <trkpt lat="45.62469" lon="2.824">
        <ele>1272</ele>
        <time>2019-04-17T16:45:49Z</time>
      </trkpt>
      <trkpt lat="45.62487" lon="2.82419">
        <ele>1273</ele>
        <time>2019-04-17T16:46:49Z</time>
      </trkpt>
      <trkpt lat="45.62503" lon="2.82439">
        <ele>1273</ele>
        <time>2019-04-17T16:47:49Z</time>
      </trkpt>
      <trkpt lat="45.62526" lon="2.82463">
        <ele>1273</ele>
        <time>2019-04-17T16:48:49Z</time>
      </trkpt>
      <trkpt lat="45.62549" lon="2.82477">
        <ele>1268</ele>
        <time>2019-04-17T16:49:49Z</time>
      </trkpt>
      <trkpt lat="45.62567" lon="2.82499">
        <ele>1267</ele>
        <time>2019-04-17T16:50:49Z</time>
      </trkpt>
      <trkpt lat="45.62577" lon="2.82519">
        <ele>1266</ele>
        <time>2019-04-17T16:51:49Z</time>
      </trkpt>
      <trkpt lat="45.62586" lon="2.82544">
        <ele>1266</ele>
        <time>2019-04-17T16:52:49Z</time>
      </trkpt>
      <trkpt lat="45.6261" lon="2.82625">
        <ele>1267</ele>
        <time>2019-04-17T16:53:49Z</time>
      </trkpt>
      <trkpt lat="45.62618" lon="2.82667">
        <ele>1270</ele>
        <time>2019-04-17T16:54:49Z</time>
      </trkpt>
      <trkpt lat="45.62621" lon="2.82676">
        <ele>1271</ele>
        <time>2019-04-17T16:55:49Z</time>
      </trkpt>
      <trkpt lat="45.62628" lon="2.82686">
        <ele>1273</ele>
        <time>2019-04-17T16:56:49Z</time>
      </trkpt>
      <trkpt lat="45.62632" lon="2.82688">
        <ele>1273</ele>
        <time>2019-04-17T16:57:49Z</time>
      </trkpt>
      <trkpt lat="45.62644" lon="2.8269">
        <ele>1272</ele>
        <time>2019-04-17T16:58:49Z</time>
      </trkpt>
      <trkpt lat="45.62658" lon="2.82683">
        <ele>1267</ele>
        <time>2019-04-17T16:59:49Z</time>
      </trkpt>
      <trkpt lat="45.62668" lon="2.82675">
        <ele>1263</ele>
        <time>2019-04-17T17:00:49Z</time>
      </trkpt>
      <trkpt lat="45.62723" lon="2.826">
        <ele>1256</ele>
        <time>2019-04-17T17:01:49Z</time>
      </trkpt>
      <trkpt lat="45.62743" lon="2.82577">
        <ele>1252</ele>
        <time>2019-04-17T17:02:49Z</time>
      </trkpt>
      <trkpt lat="45.62767" lon="2.82554">
        <ele>1246</ele>
        <time>2019-04-17T17:03:49Z</time>
      </trkpt>
      <trkpt lat="45.62781" lon="2.82547">
        <ele>1245</ele>
        <time>2019-04-17T17:04:49Z</time>
      </trkpt>
      <trkpt lat="45.6282" lon="2.82542">
        <ele>1248</ele>
        <time>2019-04-17T17:05:49Z</time>
      </trkpt>
      <trkpt lat="45.62837" lon="2.82538">
        <ele>1248</ele>
        <time>2019-04-17T17:06:49Z</time>
      </trkpt>
      <trkpt lat="45.62851" lon="2.8254">
        <ele>1246</ele>
        <time>2019-04-17T17:07:49Z</time>
      </trkpt>
      <trkpt lat="45.62862" lon="2.82546">
        <ele>1247</ele>
        <time>2019-04-17T17:08:49Z</time>
      </trkpt>
      <trkpt lat="45.62895" lon="2.82589">
        <ele>1257</ele>
        <time>2019-04-17T17:09:49Z</time>
      </trkpt>
      <trkpt lat="45.62911" lon="2.82597">
        <ele>1259</ele>
        <time>2019-04-17T17:10:49Z</time>
      </trkpt>
      <trkpt lat="45.62921" lon="2.82597">
        <ele>1258</ele>
        <time>2019-04-17T17:11:49Z</time>
      </trkpt>
      <trkpt lat="45.62941" lon="2.82589">
        <ele>1255</ele>
        <time>2019-04-17T17:12:49Z</time>
      </trkpt>
      <trkpt lat="45.62962" lon="2.82576">
        <ele>1250</ele>
        <time>2019-04-17T17:13:49Z</time>
      </trkpt>
      <trkpt lat="45.62981" lon="2.82576">
        <ele>1250</ele>
        <time>2019-04-17T17:14:49Z</time>
      </trkpt>
      <trkpt lat="45.63001" lon="2.82583">
        <ele>1254</ele>
        <time>2019-04-17T17:15:49Z</time>
      </trkpt>
      <trkpt lat="45.63009" lon="2.82582">
        <ele>1255</ele>
        <time>2019-04-17T17:16:49Z</time>
      </trkpt>
      <trkpt lat="45.63019" lon="2.82576">
        <ele>1255</ele>
        <time>2019-04-17T17:17:49Z</time>
      </trkpt>
      <trkpt lat="45.63025" lon="2.82567">
        <ele>1252</ele>
        <time>2019-04-17T17:18:49Z</time>
      </trkpt>
      <trkpt lat="45.63042" lon="2.82528">
        <ele>1238</ele>
        <time>2019-04-17T17:19:49Z</time>
      </trkpt>
      <trkpt lat="45.63055" lon="2.82517">
        <ele>1236</ele>
        <time>2019-04-17T17:20:49Z</time>
      </trkpt>
      <trkpt lat="45.63161" lon="2.82491">
        <ele>1238</ele>
        <time>2019-04-17T17:21:49Z</time>
      </trkpt>
      <trkpt lat="45.63202" lon="2.82483">
        <ele>1234</ele>
        <time>2019-04-17T17:22:49Z</time>
      </trkpt>
      <trkpt lat="45.6321" lon="2.82484">
        <ele>1234</ele>
        <time>2019-04-17T17:23:49Z</time>
      </trkpt>
      <trkpt lat="45.63217" lon="2.82488">
        <ele>1234</ele>
        <time>2019-04-17T17:24:49Z</time>
      </trkpt>
      <trkpt lat="45.63225" lon="2.82498">
        <ele>1236</ele>
        <time>2019-04-17T17:25:49Z</time>
      </trkpt>
      <trkpt lat="45.63229" lon="2.8251">
        <ele>1238</ele>
        <time>2019-04-17T17:26:49Z</time>
      </trkpt>
      <trkpt lat="45.63229" lon="2.82545">
        <ele>1245</ele>
        <time>2019-04-17T17:27:49Z</time>
      </trkpt>
      <trkpt lat="45.63233" lon="2.82549">
        <ele>1245</ele>
        <time>2019-04-17T17:28:49Z</time>
      </trkpt>
      <trkpt lat="45.63238" lon="2.82581">
        <ele>1249</ele>
        <time>2019-04-17T17:29:49Z</time>
      </trkpt>
      <trkpt lat="45.63243" lon="2.82598">
        <ele>1250</ele>
        <time>2019-04-17T17:30:49Z</time>
      </trkpt>
      <trkpt lat="45.63255" lon="2.82621">
        <ele>1251</ele>
        <time>2019-04-17T17:31:49Z</time>
      </trkpt>
      <trkpt lat="45.6327" lon="2.82636">
        <ele>1251</ele>
        <time>2019-04-17T17:32:49Z</time>
      </trkpt>
      <trkpt lat="45.6328" lon="2.82643">
        <ele>1250</ele>
        <time>2019-04-17T17:33:49Z</time>
      </trkpt>
      <trkpt lat="45.63291" lon="2.82643">
        <ele>1249</ele>
        <time>2019-04-17T17:34:49Z</time>
      </trkpt>
      <trkpt lat="45.63312" lon="2.82637">
        <ele>1245</ele>
        <time>2019-04-17T17:35:49Z</time>
      </trkpt>
      <trkpt lat="45.63335" lon="2.82621">
        <ele>1238</ele>
        <time>2019-04-17T17:36:49Z</time>
      </trkpt>
      <trkpt lat="45.63359" lon="2.82609">
        <ele>1235</ele>
        <time>2019-04-17T17:37:49Z</time>
      </trkpt>
      <trkpt lat="45.63399" lon="2.82601">
        <ele>1232</ele>
        <time>2019-04-17T17:38:49Z</time>
      </trkpt>
      <trkpt lat="45.63421" lon="2.82602">
        <ele>1231</ele>
        <time>2019-04-17T17:39:49Z</time>
      </trkpt>
      <trkpt lat="45.63432" lon="2.82605">
        <ele>1231</ele>
        <time>2019-04-17T17:40:49Z</time>
      </trkpt>
      <trkpt lat="45.63477" lon="2.82624">
        <ele>1230</ele>
        <time>2019-04-17T17:41:49Z</time>
      </trkpt>
      <trkpt lat="45.63546" lon="2.82629">
        <ele>1226</ele>
        <time>2019-04-17T17:42:49Z</time>
      </trkpt>
      <trkpt lat="45.63571" lon="2.82624">
        <ele>1223</ele>
        <time>2019-04-17T17:43:49Z</time>
      </trkpt>
      <trkpt lat="45.63647" lon="2.82599">
        <ele>1205</ele>
        <time>2019-04-17T17:44:49Z</time>
      </trkpt>
      <trkpt lat="45.63671" lon="2.82597">
        <ele>1201</ele>
        <time>2019-04-17T17:45:49Z</time>
      </trkpt>
      <trkpt lat="45.63695" lon="2.82601">
        <ele>1197</ele>
        <time>2019-04-17T17:46:49Z</time>
      </trkpt>
      <trkpt lat="45.6372" lon="2.8261">
        <ele>1195</ele>
        <time>2019-04-17T17:47:49Z</time>
      </trkpt>
      <trkpt lat="45.63758" lon="2.82631">
        <ele>1196</ele>
        <time>2019-04-17T17:48:49Z</time>
      </trkpt>
      <trkpt lat="45.63799" lon="2.8266">
        <ele>1197</ele>
        <time>2019-04-17T17:49:49Z</time>
      </trkpt>
      <trkpt lat="45.6381" lon="2.82663">
        <ele>1195</ele>
        <time>2019-04-17T17:50:49Z</time>
      </trkpt>
      <trkpt lat="45.63823" lon="2.82663">
        <ele>1192</ele>
        <time>2019-04-17T17:51:49Z</time>
      </trkpt>
      <trkpt lat="45.63877" lon="2.82657">
        <ele>1189</ele>
        <time>2019-04-17T17:52:49Z</time>
      </trkpt>
      <trkpt lat="45.63894" lon="2.82653">
        <ele>1189</ele>
        <time>2019-04-17T17:53:49Z</time>
      </trkpt>
      <trkpt lat="45.63917" lon="2.82643">
        <ele>1186</ele>
        <time>2019-04-17T17:54:49Z</time>
      </trkpt>
      <trkpt lat="45.63938" lon="2.82628">
        <ele>1185</ele>
        <time>2019-04-17T17:55:49Z</time>
      </trkpt>
      <trkpt lat="45.63961" lon="2.82606">
        <ele>1182</ele>
        <time>2019-04-17T17:56:49Z</time>
      </trkpt>
      <trkpt lat="45.64059" lon="2.82505">
        <ele>1174</ele>
        <time>2019-04-17T17:57:49Z</time>
      </trkpt>
      <trkpt lat="45.64083" lon="2.82484">
        <ele>1172</ele>
        <time>2019-04-17T17:58:49Z</time>
      </trkpt>
      <trkpt lat="45.64105" lon="2.82469">
        <ele>1168</ele>
        <time>2019-04-17T17:59:49Z</time>
      </trkpt>
      <trkpt lat="45.64128" lon="2.82458">
        <ele>1166</ele>
        <time>2019-04-17T18:00:49Z</time>
      </trkpt>
      <trkpt lat="45.64162" lon="2.82448">
        <ele>1163</ele>
        <time>2019-04-17T18:01:49Z</time>
      </trkpt>
      <trkpt lat="45.64198" lon="2.82445">
        <ele>1161</ele>
        <time>2019-04-17T18:02:49Z</time>
      </trkpt>
      <trkpt lat="45.64229" lon="2.82451">
        <ele>1160</ele>
        <time>2019-04-17T18:03:49Z</time>
      </trkpt>
      <trkpt lat="45.64248" lon="2.82457">
        <ele>1161</ele>
        <time>2019-04-17T18:04:49Z</time>
      </trkpt>
      <trkpt lat="45.64308" lon="2.82485">
        <ele>1158</ele>
        <time>2019-04-17T18:05:49Z</time>
      </trkpt>
      <trkpt lat="45.64369" lon="2.82501">
        <ele>1153</ele>
        <time>2019-04-17T18:06:49Z</time>
      </trkpt>
      <trkpt lat="45.64445" lon="2.82517">
        <ele>1148</ele>
        <time>2019-04-17T18:07:49Z</time>
      </trkpt>
      <trkpt lat="45.64464" lon="2.82517">
        <ele>1147</ele>
        <time>2019-04-17T18:08:49Z</time>
      </trkpt>
      <trkpt lat="45.64526" lon="2.82508">
        <ele>1140</ele>
        <time>2019-04-17T18:09:49Z</time>
      </trkpt>
      <trkpt lat="45.6455" lon="2.82512">
        <ele>1139</ele>
        <time>2019-04-17T18:10:49Z</time>
      </trkpt>
      <trkpt lat="45.64629" lon="2.8253">
        <ele>1136</ele>
        <time>2019-04-17T18:11:49Z</time>
      </trkpt>
      <trkpt lat="45.64652" lon="2.82525">
        <ele>1135</ele>
        <time>2019-04-17T18:12:49Z</time>
      </trkpt>
      <trkpt lat="45.6467" lon="2.82512">
        <ele>1133</ele>
        <time>2019-04-17T18:13:49Z</time>
      </trkpt>
      <trkpt lat="45.64755" lon="2.8243">
        <ele>1127</ele>
        <time>2019-04-17T18:14:49Z</time>
      </trkpt>
      <trkpt lat="45.6477" lon="2.82419">
        <ele>1126</ele>
        <time>2019-04-17T18:15:49Z</time>
      </trkpt>
      <trkpt lat="45.64785" lon="2.8241">
        <ele>1126</ele>
        <time>2019-04-17T18:16:49Z</time>
      </trkpt>
      <trkpt lat="45.64815" lon="2.82404">
        <ele>1126</ele>
        <time>2019-04-17T18:17:49Z</time>
      </trkpt>
      <trkpt lat="45.65145" lon="2.82358">
        <ele>1117</ele>
        <time>2019-04-17T18:18:49Z</time>
      </trkpt>
      <trkpt lat="45.65178" lon="2.82362">
        <ele>1117</ele>
        <time>2019-04-17T18:19:49Z</time>
      </trkpt>
      <trkpt lat="45.65199" lon="2.82373">
        <ele>1116</ele>
        <time>2019-04-17T18:20:49Z</time>
      </trkpt>
      <trkpt lat="45.65213" lon="2.82383">
        <ele>1116</ele>
        <time>2019-04-17T18:21:49Z</time>
      </trkpt>
      <trkpt lat="45.6535" lon="2.82501">
        <ele>1113</ele>
        <time>2019-04-17T18:22:49Z</time>
      </trkpt>
      <trkpt lat="45.65377" lon="2.82531">
        <ele>1112</ele>
        <time>2019-04-17T18:23:49Z</time>
      </trkpt>
      <trkpt lat="45.65512" lon="2.82715">
        <ele>1107</ele>
        <time>2019-04-17T18:24:49Z</time>
      </trkpt>
      <trkpt lat="45.65521" lon="2.8273">
        <ele>1106</ele>
        <time>2019-04-17T18:25:49Z</time>
      </trkpt>
      <trkpt lat="45.65529" lon="2.8275">
        <ele>1105</ele>
        <time>2019-04-17T18:26:49Z</time>
      </trkpt>
      <trkpt lat="45.65537" lon="2.82781">
        <ele>1104</ele>
        <time>2019-04-17T18:27:49Z</time>
      </trkpt>
      <trkpt lat="45.65541" lon="2.82816">
        <ele>1104</ele>
        <time>2019-04-17T18:28:49Z</time>
      </trkpt>
      <trkpt lat="45.6554" lon="2.82905">
        <ele>1102</ele>
        <time>2019-04-17T18:29:49Z</time>
      </trkpt>
      <trkpt lat="45.6554" lon="2.82924">
        <ele>1101</ele>
        <time>2019-04-17T18:30:49Z</time>
      </trkpt>
      <trkpt lat="45.65545" lon="2.82956">
        <ele>1099</ele>
        <time>2019-04-17T18:31:49Z</time>
      </trkpt>
      <trkpt lat="45.65557" lon="2.82992">
        <ele>1098</ele>
        <time>2019-04-17T18:32:49Z</time>
      </trkpt>
      <trkpt lat="45.65571" lon="2.83018">
        <ele>1096</ele>
        <time>2019-04-17T18:33:49Z</time>
      </trkpt>
      <trkpt lat="45.65589" lon="2.83039">
        <ele>1095</ele>
        <time>2019-04-17T18:34:49Z</time>
      </trkpt>
      <trkpt lat="45.65669" lon="2.83116">
        <ele>1092</ele>
        <time>2019-04-17T18:35:49Z</time>
      </trkpt>
      <trkpt lat="45.6569" lon="2.83145">
        <ele>1090</ele>
        <time>2019-04-17T18:36:49Z</time>
      </trkpt>
      <trkpt lat="45.65702" lon="2.83169">
        <ele>1088</ele>
        <time>2019-04-17T18:37:49Z</time>
      </trkpt>
      <trkpt lat="45.65801" lon="2.83387">
        <ele>1080</ele>
        <time>2019-04-17T18:38:49Z</time>
      </trkpt>
      <trkpt lat="45.65828" lon="2.83433">
        <ele>1079</ele>
        <time>2019-04-17T18:39:49Z</time>
      </trkpt>
      <trkpt lat="45.65859" lon="2.83471">
        <ele>1077</ele>
        <time>2019-04-17T18:40:49Z</time>
      </trkpt>
      <trkpt lat="45.66016" lon="2.83607">
        <ele>1066</ele>
        <time>2019-04-17T18:41:49Z</time>
      </trkpt>
      <trkpt lat="45.66064" lon="2.83636">
        <ele>1061</ele>
        <time>2019-04-17T18:42:49Z</time>
      </trkpt>
      <trkpt lat="45.6609" lon="2.83647">
        <ele>1059</ele>
        <time>2019-04-17T18:43:49Z</time>
      </trkpt>
      <trkpt lat="45.66102" lon="2.83649">
        <ele>1057</ele>
        <time>2019-04-17T18:44:49Z</time>
      </trkpt>
      <trkpt lat="45.66379" lon="2.83636">
        <ele>1045</ele>
        <time>2019-04-17T18:45:49Z</time>
      </trkpt>
      <trkpt lat="45.664" lon="2.83639">
        <ele>1043</ele>
        <time>2019-04-17T18:46:49Z</time>
      </trkpt>
      <trkpt lat="45.66416" lon="2.83648">
        <ele>1039</ele>
        <time>2019-04-17T18:47:49Z</time>
      </trkpt>
      <trkpt lat="45.66428" lon="2.83659">
        <ele>1037</ele>
        <time>2019-04-17T18:48:49Z</time>
      </trkpt>
      <trkpt lat="45.66463" lon="2.83714">
        <ele>1030</ele>
        <time>2019-04-17T18:49:49Z</time>
      </trkpt>
      <trkpt lat="45.66484" lon="2.83735">
        <ele>1028</ele>
        <time>2019-04-17T18:50:49Z</time>
      </trkpt>
      <trkpt lat="45.66556" lon="2.83784">
        <ele>1019</ele>
        <time>2019-04-17T18:51:49Z</time>
      </trkpt>
      <trkpt lat="45.66578" lon="2.8379">
        <ele>1018</ele>
        <time>2019-04-17T18:52:49Z</time>
      </trkpt>
      <trkpt lat="45.66605" lon="2.83788">
        <ele>1018</ele>
        <time>2019-04-17T18:53:49Z</time>
      </trkpt>
      <trkpt lat="45.667" lon="2.83767">
        <ele>1019</ele>
        <time>2019-04-17T18:54:49Z</time>
      </trkpt>
      <trkpt lat="45.66731" lon="2.83765">
        <ele>1018</ele>
        <time>2019-04-17T18:55:49Z</time>
      </trkpt>
      <trkpt lat="45.66835" lon="2.83784">
        <ele>1007</ele>
        <time>2019-04-17T18:56:49Z</time>
      </trkpt>
      <trkpt lat="45.67028" lon="2.83791">
        <ele>993</ele>
        <time>2019-04-17T18:57:49Z</time>
      </trkpt>
      <trkpt lat="45.67053" lon="2.83801">
        <ele>990</ele>
        <time>2019-04-17T18:58:49Z</time>
      </trkpt>
      <trkpt lat="45.67135" lon="2.83877">
        <ele>978</ele>
        <time>2019-04-17T18:59:49Z</time>
      </trkpt>
      <trkpt lat="45.672" lon="2.83919">
        <ele>973</ele>
        <time>2019-04-17T19:00:49Z</time>
      </trkpt>
      <trkpt lat="45.67221" lon="2.8393">
        <ele>970</ele>
        <time>2019-04-17T19:01:49Z</time>
      </trkpt>
      <trkpt lat="45.67238" lon="2.83931">
        <ele>971</ele>
        <time>2019-04-17T19:02:49Z</time>
      </trkpt>
      <trkpt lat="45.67368" lon="2.83893">
        <ele>958</ele>
        <time>2019-04-17T19:03:49Z</time>
      </trkpt>
      <trkpt lat="45.67388" lon="2.8388">
        <ele>956</ele>
        <time>2019-04-17T19:04:49Z</time>
      </trkpt>
      <trkpt lat="45.67396" lon="2.83871">
        <ele>955</ele>
        <time>2019-04-17T19:05:49Z</time>
      </trkpt>
      <trkpt lat="45.67408" lon="2.83849">
        <ele>954</ele>
        <time>2019-04-17T19:06:49Z</time>
      </trkpt>
      <trkpt lat="45.67423" lon="2.83819">
        <ele>953</ele>
        <time>2019-04-17T19:07:49Z</time>
      </trkpt>
      <trkpt lat="45.67437" lon="2.83801">
        <ele>952</ele>
        <time>2019-04-17T19:08:49Z</time>
      </trkpt>
      <trkpt lat="45.67457" lon="2.83789">
        <ele>952</ele>
        <time>2019-04-17T19:09:49Z</time>
      </trkpt>
      <trkpt lat="45.67473" lon="2.83788">
        <ele>951</ele>
        <time>2019-04-17T19:10:49Z</time>
      </trkpt>
      <trkpt lat="45.67484" lon="2.8379">
        <ele>950</ele>
        <time>2019-04-17T19:11:49Z</time>
      </trkpt>
      <trkpt lat="45.675" lon="2.83798">
        <ele>948</ele>
        <time>2019-04-17T19:12:49Z</time>
      </trkpt>
      <trkpt lat="45.67517" lon="2.83816">
        <ele>946</ele>
        <time>2019-04-17T19:13:49Z</time>
      </trkpt>
      <trkpt lat="45.67569" lon="2.83916">
        <ele>934</ele>
        <time>2019-04-17T19:14:49Z</time>
      </trkpt>
      <trkpt lat="45.67579" lon="2.8393">
        <ele>933</ele>
        <time>2019-04-17T19:15:49Z</time>
      </trkpt>
      <trkpt lat="45.6759" lon="2.83937">
        <ele>932</ele>
        <time>2019-04-17T19:16:49Z</time>
      </trkpt>
      <trkpt lat="45.67605" lon="2.83939">
        <ele>930</ele>
        <time>2019-04-17T19:17:49Z</time>
      </trkpt>
      <trkpt lat="45.67621" lon="2.83938">
        <ele>929</ele>
        <time>2019-04-17T19:18:49Z</time>
      </trkpt>
      <trkpt lat="45.67704" lon="2.83904">
        <ele>929</ele>
        <time>2019-04-17T19:19:49Z</time>
      </trkpt>
      <trkpt lat="45.67717" lon="2.83904">
        <ele>928</ele>
        <time>2019-04-17T19:20:49Z</time>
      </trkpt>
      <trkpt lat="45.67734" lon="2.8391">
        <ele>927</ele>
        <time>2019-04-17T19:21:49Z</time>
      </trkpt>
      <trkpt lat="45.67746" lon="2.83922">
        <ele>925</ele>
        <time>2019-04-17T19:22:49Z</time>
      </trkpt>
      <trkpt lat="45.67753" lon="2.83932">
        <ele>924</ele>
        <time>2019-04-17T19:23:49Z</time>
      </trkpt>
      <trkpt lat="45.6776" lon="2.83947">
        <ele>923</ele>
        <time>2019-04-17T19:24:49Z</time>
      </trkpt>
      <trkpt lat="45.67798" lon="2.84046">
        <ele>912</ele>
        <time>2019-04-17T19:25:49Z</time>
      </trkpt>
      <trkpt lat="45.67806" lon="2.84061">
        <ele>909</ele>
        <time>2019-04-17T19:26:49Z</time>
      </trkpt>
      <trkpt lat="45.67821" lon="2.84078">
        <ele>907</ele>
        <time>2019-04-17T19:27:49Z</time>
      </trkpt>
      <trkpt lat="45.6783" lon="2.84083">
        <ele>906</ele>
        <time>2019-04-17T19:28:49Z</time>
      </trkpt>
      <trkpt lat="45.67844" lon="2.84085">
        <ele>905</ele>
        <time>2019-04-17T19:29:49Z</time>
      </trkpt>
      <trkpt lat="45.67855" lon="2.84084">
        <ele>904</ele>
        <time>2019-04-17T19:30:49Z</time>
      </trkpt>
      <trkpt lat="45.67916" lon="2.8405">
        <ele>909</ele>
        <time>2019-04-17T19:31:49Z</time>
      </trkpt>
      <trkpt lat="45.67936" lon="2.84042">
        <ele>908</ele>
        <time>2019-04-17T19:32:49Z</time>
      </trkpt>
      <trkpt lat="45.67961" lon="2.84039">
        <ele>905</ele>
        <time>2019-04-17T19:33:49Z</time>
      </trkpt>
      <trkpt lat="45.67972" lon="2.8404">
        <ele>904</ele>
        <time>2019-04-17T19:34:49Z</time>
      </trkpt>
      <trkpt lat="45.67997" lon="2.84051">
        <ele>898</ele>
        <time>2019-04-17T19:35:49Z</time>
      </trkpt>
      <trkpt lat="45.68011" lon="2.8406">
        <ele>898</ele>
        <time>2019-04-17T19:36:49Z</time>
      </trkpt>
      <trkpt lat="45.68025" lon="2.84074">
        <ele>897</ele>
        <time>2019-04-17T19:37:49Z</time>
      </trkpt>
      <trkpt lat="45.68032" lon="2.84083">
        <ele>897</ele>
        <time>2019-04-17T19:38:49Z</time>
      </trkpt>
      <trkpt lat="45.68038" lon="2.84095">
        <ele>896</ele>
        <time>2019-04-17T19:39:49Z</time>
      </trkpt>
      <trkpt lat="45.68106" lon="2.84259">
        <ele>887</ele>
        <time>2019-04-17T19:40:49Z</time>
      </trkpt>
      <trkpt lat="45.68117" lon="2.84276">
        <ele>889</ele>
        <time>2019-04-17T19:41:49Z</time>
      </trkpt>
      <trkpt lat="45.68137" lon="2.8429">
        <ele>890</ele>
        <time>2019-04-17T19:42:49Z</time>
      </trkpt>
      <trkpt lat="45.68152" lon="2.84298">
        <ele>890</ele>
        <time>2019-04-17T19:43:49Z</time>
      </trkpt>
      <trkpt lat="45.68241" lon="2.84331">
        <ele>890</ele>
        <time>2019-04-17T19:44:49Z</time>
      </trkpt>
      <trkpt lat="45.68305" lon="2.84353">
        <ele>890</ele>
        <time>2019-04-17T19:45:49Z</time>
      </trkpt>
      <trkpt lat="45.68363" lon="2.84369">
        <ele>889</ele>
        <time>2019-04-17T19:46:49Z</time>
      </trkpt>
      <trkpt lat="45.68427" lon="2.84394">
        <ele>888</ele>
        <time>2019-04-17T19:47:49Z</time>
      </trkpt>
      <trkpt lat="45.68446" lon="2.84396">
        <ele>888</ele>
        <time>2019-04-17T19:48:49Z</time>
      </trkpt>
      <trkpt lat="45.68495" lon="2.84395">
        <ele>886</ele>
        <time>2019-04-17T19:49:49Z</time>
      </trkpt>
      <trkpt lat="45.68569" lon="2.84405">
        <ele>890</ele>
        <time>2019-04-17T19:50:49Z</time>
      </trkpt>
      <trkpt lat="45.68613" lon="2.84405">
        <ele>893</ele>
        <time>2019-04-17T19:51:49Z</time>
      </trkpt>
      <trkpt lat="45.68641" lon="2.84397">
        <ele>893</ele>
        <time>2019-04-17T19:52:49Z</time>
      </trkpt>
      <trkpt lat="45.6874" lon="2.84358">
        <ele>894</ele>
        <time>2019-04-17T19:53:49Z</time>
      </trkpt>
      <trkpt lat="45.68813" lon="2.8432">
        <ele>896</ele>
        <time>2019-04-17T19:54:49Z</time>
      </trkpt>
      <trkpt lat="45.6884" lon="2.8431">
        <ele>898</ele>
        <time>2019-04-17T19:55:49Z</time>
      </trkpt>
      <trkpt lat="45.68864" lon="2.84308">
        <ele>899</ele>
        <time>2019-04-17T19:56:49Z</time>
      </trkpt>
      <trkpt lat="45.68921" lon="2.84312">
        <ele>904</ele>
        <time>2019-04-17T19:57:49Z</time>
      </trkpt>
      <trkpt lat="45.68946" lon="2.84308">
        <ele>904</ele>
        <time>2019-04-17T19:58:49Z</time>
      </trkpt>
      <trkpt lat="45.68957" lon="2.84303">
        <ele>904</ele>
        <time>2019-04-17T19:59:49Z</time>
      </trkpt>
      <trkpt lat="45.6902" lon="2.8426">
        <ele>899</ele>
        <time>2019-04-17T20:00:49Z</time>
      </trkpt>
      <trkpt lat="45.69038" lon="2.84256">
        <ele>898</ele>
        <time>2019-04-17T20:01:49Z</time>
      </trkpt>
      <trkpt lat="45.6905" lon="2.84258">
        <ele>899</ele>
        <time>2019-04-17T20:02:49Z</time>
      </trkpt>
      <trkpt lat="45.69056" lon="2.84261">
        <ele>900</ele>
        <time>2019-04-17T20:03:49Z</time>
      </trkpt>
      <trkpt lat="45.69068" lon="2.84272">
        <ele>902</ele>
        <time>2019-04-17T20:04:49Z</time>
      </trkpt>
      <trkpt lat="45.69079" lon="2.84287">
        <ele>904</ele>
        <time>2019-04-17T20:05:49Z</time>
      </trkpt>
      <trkpt lat="45.69108" lon="2.84338">
        <ele>908</ele>
        <time>2019-04-17T20:06:49Z</time>
      </trkpt>
      <trkpt lat="45.6912" lon="2.84354">
        <ele>909</ele>
        <time>2019-04-17T20:07:49Z</time>
      </trkpt>
      <trkpt lat="45.69141" lon="2.84375">
        <ele>910</ele>
        <time>2019-04-17T20:08:49Z</time>
      </trkpt>
      <trkpt lat="45.69163" lon="2.8439">
        <ele>909</ele>
        <time>2019-04-17T20:09:49Z</time>
      </trkpt>
      <trkpt lat="45.69278" lon="2.84447">
        <ele>904</ele>
        <time>2019-04-17T20:10:49Z</time>
      </trkpt>
      <trkpt lat="45.69304" lon="2.84454">
        <ele>902</ele>
        <time>2019-04-17T20:11:49Z</time>
      </trkpt>
      <trkpt lat="45.69335" lon="2.84451">
        <ele>900</ele>
        <time>2019-04-17T20:12:49Z</time>
      </trkpt>
      <trkpt lat="45.69402" lon="2.84424">
        <ele>899</ele>
        <time>2019-04-17T20:13:49Z</time>
      </trkpt>
      <trkpt lat="45.69436" lon="2.84417">
        <ele>898</ele>
        <time>2019-04-17T20:14:49Z</time>
      </trkpt>
      <trkpt lat="45.69468" lon="2.84414">
        <ele>896</ele>
        <time>2019-04-17T20:15:49Z</time>
      </trkpt>
      <trkpt lat="45.69483" lon="2.84415">
        <ele>896</ele>
        <time>2019-04-17T20:16:49Z</time>
      </trkpt>
      <trkpt lat="45.69496" lon="2.84418">
        <ele>895</ele>
        <time>2019-04-17T20:17:49Z</time>
      </trkpt>
      <trkpt lat="45.6952" lon="2.84433">
        <ele>895</ele>
        <time>2019-04-17T20:18:49Z</time>
      </trkpt>
      <trkpt lat="45.69563" lon="2.84468">
        <ele>895</ele>
        <time>2019-04-17T20:19:49Z</time>
      </trkpt>
      <trkpt lat="45.69581" lon="2.84485">
        <ele>894</ele>
        <time>2019-04-17T20:20:49Z</time>
      </trkpt>
      <trkpt lat="45.69598" lon="2.84507">
        <ele>894</ele>
        <time>2019-04-17T20:21:49Z</time>
      </trkpt>
      <trkpt lat="45.69625" lon="2.84566">
        <ele>894</ele>
        <time>2019-04-17T20:22:49Z</time>
      </trkpt>
      <trkpt lat="45.69635" lon="2.84579">
        <ele>894</ele>
        <time>2019-04-17T20:23:49Z</time>
      </trkpt>
      <trkpt lat="45.69653" lon="2.84594">
        <ele>895</ele>
        <time>2019-04-17T20:24:49Z</time>
      </trkpt>
      <trkpt lat="45.69675" lon="2.84605">
        <ele>895</ele>
        <time>2019-04-17T20:25:49Z</time>
      </trkpt>
      <trkpt lat="45.69732" lon="2.84614">
        <ele>893</ele>
        <time>2019-04-17T20:26:49Z</time>
      </trkpt>
      <trkpt lat="45.69752" lon="2.84619">
        <ele>893</ele>
        <time>2019-04-17T20:27:49Z</time>
      </trkpt>
      <trkpt lat="45.69766" lon="2.84625">
        <ele>892</ele>
        <time>2019-04-17T20:28:49Z</time>
      </trkpt>
      <trkpt lat="45.6978" lon="2.84633">
        <ele>892</ele>
        <time>2019-04-17T20:29:49Z</time>
      </trkpt>
      <trkpt lat="45.69871" lon="2.84703">
        <ele>886</ele>
        <time>2019-04-17T20:30:49Z</time>
      </trkpt>
      <trkpt lat="45.69884" lon="2.84715">
        <ele>885</ele>
        <time>2019-04-17T20:31:49Z</time>
      </trkpt>
      <trkpt lat="45.69894" lon="2.84729">
        <ele>884</ele>
        <time>2019-04-17T20:32:49Z</time>
      </trkpt>
      <trkpt lat="45.69903" lon="2.84747">
        <ele>883</ele>
        <time>2019-04-17T20:33:49Z</time>
      </trkpt>
      <trkpt lat="45.69924" lon="2.84806">
        <ele>886</ele>
        <time>2019-04-17T20:34:49Z</time>
      </trkpt>
      <trkpt lat="45.69943" lon="2.84847">
        <ele>888</ele>
        <time>2019-04-17T20:35:49Z</time>
      </trkpt>
      <trkpt lat="45.69953" lon="2.84863">
        <ele>888</ele>
        <time>2019-04-17T20:36:49Z</time>
      </trkpt>
      <trkpt lat="45.69978" lon="2.84893">
        <ele>886</ele>
        <time>2019-04-17T20:37:49Z</time>
      </trkpt>
      <trkpt lat="45.70014" lon="2.84929">
        <ele>885</ele>
        <time>2019-04-17T20:38:49Z</time>
      </trkpt>
      <trkpt lat="45.70052" lon="2.84963">
        <ele>887</ele>
        <time>2019-04-17T20:39:49Z</time>
      </trkpt>
      <trkpt lat="45.70089" lon="2.84985">
        <ele>886</ele>
        <time>2019-04-17T20:40:49Z</time>
      </trkpt>
      <trkpt lat="45.70132" lon="2.84998">
        <ele>884</ele>
        <time>2019-04-17T20:41:49Z</time>
      </trkpt>
      <trkpt lat="45.70171" lon="2.85005">
        <ele>881</ele>
        <time>2019-04-17T20:42:49Z</time>
      </trkpt>
      <trkpt lat="45.70185" lon="2.85009">
        <ele>880</ele>
        <time>2019-04-17T20:43:49Z</time>
      </trkpt>
      <trkpt lat="45.70208" lon="2.85022">
        <ele>880</ele>
        <time>2019-04-17T20:44:49Z</time>
      </trkpt>
      <trkpt lat="45.70236" lon="2.85049">
        <ele>882</ele>
        <time>2019-04-17T20:45:49Z</time>
      </trkpt>
      <trkpt lat="45.70258" lon="2.85062">
        <ele>882</ele>
        <time>2019-04-17T20:46:49Z</time>
      </trkpt>
      <trkpt lat="45.70296" lon="2.85072">
        <ele>882</ele>
        <time>2019-04-17T20:47:49Z</time>
      </trkpt>
      <trkpt lat="45.70331" lon="2.85075">
        <ele>881</ele>
        <time>2019-04-17T20:48:49Z</time>
      </trkpt>
      <trkpt lat="45.70381" lon="2.85077">
        <ele>877</ele>
        <time>2019-04-17T20:49:49Z</time>
      </trkpt>
      <trkpt lat="45.70401" lon="2.85081">
        <ele>876</ele>
        <time>2019-04-17T20:50:49Z</time>
      </trkpt>
      <trkpt lat="45.70563" lon="2.85168">
        <ele>870</ele>
        <time>2019-04-17T20:51:49Z</time>
      </trkpt>
      <trkpt lat="45.70576" lon="2.8518">
        <ele>870</ele>
        <time>2019-04-17T20:52:49Z</time>
      </trkpt>
      <trkpt lat="45.70584" lon="2.85194">
        <ele>870</ele>
        <time>2019-04-17T20:53:49Z</time>
      </trkpt>
      <trkpt lat="45.70597" lon="2.85231">
        <ele>872</ele>
        <time>2019-04-17T20:54:49Z</time>
      </trkpt>
      <trkpt lat="45.70609" lon="2.85251">
        <ele>872</ele>
        <time>2019-04-17T20:55:49Z</time>
      </trkpt>
      <trkpt lat="45.70617" lon="2.85259">
        <ele>872</ele>
        <time>2019-04-17T20:56:49Z</time>
      </trkpt>
      <trkpt lat="45.70653" lon="2.85286">
        <ele>871</ele>
        <time>2019-04-17T20:57:49Z</time>
      </trkpt>
      <trkpt lat="45.70679" lon="2.85309">
        <ele>870</ele>
        <time>2019-04-17T20:58:49Z</time>
      </trkpt>
      <trkpt lat="45.70728" lon="2.85357">
        <ele>868</ele>
        <time>2019-04-17T20:59:49Z</time>
      </trkpt>
      <trkpt lat="45.70743" lon="2.85367">
        <ele>867</ele>
        <time>2019-04-17T21:00:49Z</time>
      </trkpt>
      <trkpt lat="45.70797" lon="2.85397">
        <ele>863</ele>
        <time>2019-04-17T21:01:49Z</time>
      </trkpt>
      <trkpt lat="45.70814" lon="2.85416">
        <ele>864</ele>
        <time>2019-04-17T21:02:49Z</time>
      </trkpt>
      <trkpt lat="45.7082" lon="2.85432">
        <ele>864</ele>
        <time>2019-04-17T21:03:49Z</time>
      </trkpt>
      <trkpt lat="45.70825" lon="2.85454">
        <ele>865</ele>
        <time>2019-04-17T21:04:49Z</time>
      </trkpt>
      <trkpt lat="45.70829" lon="2.8548">
        <ele>866</ele>
        <time>2019-04-17T21:05:49Z</time>
      </trkpt>
      <trkpt lat="45.70836" lon="2.85557">
        <ele>865</ele>
        <time>2019-04-17T21:06:49Z</time>
      </trkpt>
      <trkpt lat="45.7084" lon="2.85584">
        <ele>865</ele>
        <time>2019-04-17T21:07:49Z</time>
      </trkpt>
      <trkpt lat="45.70846" lon="2.8561">
        <ele>864</ele>
        <time>2019-04-17T21:08:49Z</time>
      </trkpt>
      <trkpt lat="45.70852" lon="2.8563">
        <ele>863</ele>
        <time>2019-04-17T21:09:49Z</time>
      </trkpt>
      <trkpt lat="45.70861" lon="2.8565">
        <ele>863</ele>
        <time>2019-04-17T21:10:49Z</time>
      </trkpt>
      <trkpt lat="45.70876" lon="2.85678">
        <ele>862</ele>
        <time>2019-04-17T21:11:49Z</time>
      </trkpt>
      <trkpt lat="45.70893" lon="2.85702">
        <ele>860</ele>
        <time>2019-04-17T21:12:49Z</time>
      </trkpt>
      <trkpt lat="45.70905" lon="2.85715">
        <ele>858</ele>
        <time>2019-04-17T21:13:49Z</time>
      </trkpt>
      <trkpt lat="45.70932" lon="2.85737">
        <ele>855</ele>
        <time>2019-04-17T21:14:49Z</time>
      </trkpt>
      <trkpt lat="45.70949" lon="2.85745">
        <ele>853</ele>
        <time>2019-04-17T21:15:49Z</time>
      </trkpt>
      <trkpt lat="45.70972" lon="2.85753">
        <ele>851</ele>
        <time>2019-04-17T21:16:49Z</time>
      </trkpt>
      <trkpt lat="45.7101" lon="2.85761">
        <ele>850</ele>
        <time>2019-04-17T21:17:49Z</time>
      </trkpt>
      <trkpt lat="45.71059" lon="2.8577">
        <ele>846</ele>
        <time>2019-04-17T21:18:49Z</time>
      </trkpt>
      <trkpt lat="45.71119" lon="2.85783">
        <ele>843</ele>
        <time>2019-04-17T21:19:49Z</time>
      </trkpt>
      <trkpt lat="45.71143" lon="2.85801">
        <ele>842</ele>
        <time>2019-04-17T21:20:49Z</time>
      </trkpt>
      <trkpt lat="45.71165" lon="2.8583">
        <ele>840</ele>
        <time>2019-04-17T21:21:49Z</time>
      </trkpt>
      <trkpt lat="45.71203" lon="2.85948">
        <ele>834</ele>
        <time>2019-04-17T21:22:49Z</time>
      </trkpt>
      <trkpt lat="45.71226" lon="2.8601">
        <ele>832</ele>
        <time>2019-04-17T21:23:49Z</time>
      </trkpt>
      <trkpt lat="45.71283" lon="2.86131">
        <ele>829</ele>
        <time>2019-04-17T21:24:49Z</time>
      </trkpt>
      <trkpt lat="45.71303" lon="2.86167">
        <ele>828</ele>
        <time>2019-04-17T21:25:49Z</time>
      </trkpt>
      <trkpt lat="45.71328" lon="2.86198">
        <ele>827</ele>
        <time>2019-04-17T21:26:49Z</time>
      </trkpt>
      <trkpt lat="45.71362" lon="2.86222">
        <ele>826</ele>
        <time>2019-04-17T21:27:49Z</time>
      </trkpt>
      <trkpt lat="45.71502" lon="2.86271">
        <ele>821</ele>
        <time>2019-04-17T21:28:49Z</time>
      </trkpt>
      <trkpt lat="45.71547" lon="2.8629">
        <ele>820</ele>
        <time>2019-04-17T21:29:49Z</time>
      </trkpt>
      <trkpt lat="45.7157" lon="2.86302">
        <ele>819</ele>
        <time>2019-04-17T21:30:49Z</time>
      </trkpt>
      <trkpt lat="45.71591" lon="2.86322">
        <ele>817</ele>
        <time>2019-04-17T21:31:49Z</time>
      </trkpt>
      <trkpt lat="45.71606" lon="2.86346">
        <ele>815</ele>
        <time>2019-04-17T21:32:49Z</time>
      </trkpt>
      <trkpt lat="45.71618" lon="2.8639">
        <ele>812</ele>
        <time>2019-04-17T21:33:49Z</time>
      </trkpt>
      <trkpt lat="45.71782" lon="2.87122">
        <ele>804</ele>
        <time>2019-04-17T21:34:49Z</time>
      </trkpt>
      <trkpt lat="45.71794" lon="2.87156">
        <ele>804</ele>
        <time>2019-04-17T21:35:49Z</time>
      </trkpt>
      <trkpt lat="45.71814" lon="2.8719">
        <ele>803</ele>
        <time>2019-04-17T21:36:49Z</time>
      </trkpt>
      <trkpt lat="45.71855" lon="2.87247">
        <ele>797</ele>
        <time>2019-04-17T21:37:49Z</time>
      </trkpt>
      <trkpt lat="45.71877" lon="2.87285">
        <ele>794</ele>
        <time>2019-04-17T21:38:49Z</time>
      </trkpt>
      <trkpt lat="45.71893" lon="2.87318">
        <ele>793</ele>
        <time>2019-04-17T21:39:49Z</time>
      </trkpt>
      <trkpt lat="45.71906" lon="2.87356">
        <ele>792</ele>
        <time>2019-04-17T21:40:49Z</time>
      </trkpt>
      <trkpt lat="45.71913" lon="2.87396">
        <ele>792</ele>
        <time>2019-04-17T21:41:49Z</time>
      </trkpt>
      <trkpt lat="45.71927" lon="2.87594">
        <ele>788</ele>
        <time>2019-04-17T21:42:49Z</time>
      </trkpt>
      <trkpt lat="45.71938" lon="2.87686">
        <ele>787</ele>
        <time>2019-04-17T21:43:49Z</time>
      </trkpt>
      <trkpt lat="45.71955" lon="2.87776">
        <ele>784</ele>
        <time>2019-04-17T21:44:49Z</time>
      </trkpt>
      <trkpt lat="45.71964" lon="2.87799">
        <ele>783</ele>
        <time>2019-04-17T21:45:49Z</time>
      </trkpt>
      <trkpt lat="45.71977" lon="2.87818">
        <ele>782</ele>
        <time>2019-04-17T21:46:49Z</time>
      </trkpt>
      <trkpt lat="45.72035" lon="2.87845">
        <ele>782</ele>
        <time>2019-04-17T21:47:49Z</time>
      </trkpt>
      <trkpt lat="45.72049" lon="2.87861">
        <ele>782</ele>
        <time>2019-04-17T21:48:49Z</time>
      </trkpt>
      <trkpt lat="45.72056" lon="2.87878">
        <ele>781</ele>
        <time>2019-04-17T21:49:49Z</time>
      </trkpt>
      <trkpt lat="45.72059" lon="2.87894">
        <ele>780</ele>
        <time>2019-04-17T21:50:49Z</time>
      </trkpt>
      <trkpt lat="45.7206" lon="2.87908">
        <ele>779</ele>
        <time>2019-04-17T21:51:49Z</time>
      </trkpt>
      <trkpt lat="45.72056" lon="2.87955">
        <ele>779</ele>
        <time>2019-04-17T21:52:49Z</time>
      </trkpt>
      <trkpt lat="45.72059" lon="2.87987">
        <ele>778</ele>
        <time>2019-04-17T21:53:49Z</time>
      </trkpt>
      <trkpt lat="45.72076" lon="2.88036">
        <ele>778</ele>
        <time>2019-04-17T21:54:49Z</time>
      </trkpt>
      <trkpt lat="45.72117" lon="2.88122">
        <ele>782</ele>
        <time>2019-04-17T21:55:49Z</time>
      </trkpt>
      <trkpt lat="45.72164" lon="2.88183">
        <ele>785</ele>
        <time>2019-04-17T21:56:49Z</time>
      </trkpt>
      <trkpt lat="45.72185" lon="2.88189">
        <ele>786</ele>
        <time>2019-04-17T21:57:49Z</time>
      </trkpt>
      <trkpt lat="45.72241" lon="2.88184">
        <ele>789</ele>
        <time>2019-04-17T21:58:49Z</time>
      </trkpt>
      <trkpt lat="45.7228" lon="2.88185">
        <ele>792</ele>
        <time>2019-04-17T21:59:49Z</time>
      </trkpt>
      <trkpt lat="45.72332" lon="2.88201">
        <ele>794</ele>
        <time>2019-04-17T22:00:49Z</time>
      </trkpt>
      <trkpt lat="45.72373" lon="2.88219">
        <ele>796</ele>
        <time>2019-04-17T22:01:49Z</time>
      </trkpt>
      <trkpt lat="45.72405" lon="2.8824">
        <ele>797</ele>
        <time>2019-04-17T22:02:49Z</time>
      </trkpt>
      <trkpt lat="45.72469" lon="2.8821">
        <ele>797</ele>
        <time>2019-04-17T22:03:49Z</time>
      </trkpt>
      <trkpt lat="45.72484" lon="2.88198">
        <ele>797</ele>
        <time>2019-04-17T22:04:49Z</time>
      </trkpt>
      <trkpt lat="45.72693" lon="2.88002">
        <ele>798</ele>
        <time>2019-04-17T22:05:49Z</time>
      </trkpt>
      <trkpt lat="45.72703" lon="2.87987">
        <ele>798</ele>
        <time>2019-04-17T22:06:49Z</time>
      </trkpt>
      <trkpt lat="45.7273" lon="2.87917">
        <ele>799</ele>
        <time>2019-04-17T22:07:49Z</time>
      </trkpt>
      <trkpt lat="45.72766" lon="2.87851">
        <ele>796</ele>
        <time>2019-04-17T22:08:49Z</time>
      </trkpt>
      <trkpt lat="45.72779" lon="2.8783">
        <ele>795</ele>
        <time>2019-04-17T22:09:49Z</time>
      </trkpt>
      <trkpt lat="45.72795" lon="2.87821">
        <ele>794</ele>
        <time>2019-04-17T22:10:49Z</time>
      </trkpt>
      <trkpt lat="45.72859" lon="2.87746">
        <ele>789</ele>
        <time>2019-04-17T22:11:49Z</time>
      </trkpt>
      <trkpt lat="45.72874" lon="2.87734">
        <ele>788</ele>
        <time>2019-04-17T22:12:49Z</time>
      </trkpt>
      <trkpt lat="45.72967" lon="2.87732">
        <ele>787</ele>
        <time>2019-04-17T22:13:49Z</time>
      </trkpt>
      <trkpt lat="45.72996" lon="2.87744">
        <ele>787</ele>
        <time>2019-04-17T22:14:49Z</time>
      </trkpt>
      <trkpt lat="45.73036" lon="2.8773">
        <ele>785</ele>
        <time>2019-04-17T22:15:49Z</time>
      </trkpt>
      <trkpt lat="45.73064" lon="2.87723">
        <ele>784</ele>
        <time>2019-04-17T22:16:49Z</time>
      </trkpt>
      <trkpt lat="45.73071" lon="2.87726">
        <ele>784</ele>
        <time>2019-04-17T22:17:49Z</time>
      </trkpt>
      <trkpt lat="45.73075" lon="2.87715">
        <ele>784</ele>
        <time>2019-04-17T22:18:49Z</time>
      </trkpt>
      <trkpt lat="45.73079" lon="2.87718">
        <ele>784</ele>
        <time>2019-04-17T22:19:49Z</time>
      </trkpt>
      <trkpt lat="45.73087" lon="2.87718">
        <ele>783</ele>
        <time>2019-04-17T22:20:49Z</time>
      </trkpt>
      <trkpt lat="45.73094" lon="2.87712">
        <ele>783</ele>
        <time>2019-04-17T22:21:49Z</time>
      </trkpt>
      <trkpt lat="45.73169" lon="2.87617">
        <ele>780</ele>
        <time>2019-04-17T22:22:49Z</time>
      </trkpt>
      <trkpt lat="45.73249" lon="2.87563">
        <ele>777</ele>
        <time>2019-04-17T22:23:49Z</time>
      </trkpt>
      <trkpt lat="45.73314" lon="2.87538">
        <ele>775</ele>
        <time>2019-04-17T22:24:49Z</time>
      </trkpt>
      <trkpt lat="45.73481" lon="2.87428">
        <ele>773</ele>
        <time>2019-04-17T22:25:49Z</time>
      </trkpt>
      <trkpt lat="45.73577" lon="2.87371">
        <ele>772</ele>
        <time>2019-04-17T22:26:49Z</time>
      </trkpt>
      <trkpt lat="45.73604" lon="2.87363">
        <ele>772</ele>
        <time>2019-04-17T22:27:49Z</time>
      </trkpt>
      <trkpt lat="45.73659" lon="2.87363">
        <ele>771</ele>
        <time>2019-04-17T22:28:49Z</time>
      </trkpt>
      <trkpt lat="45.73669" lon="2.87366">
        <ele>771</ele>
        <time>2019-04-17T22:29:49Z</time>
      </trkpt>
      <trkpt lat="45.73713" lon="2.87391">
        <ele>771</ele>
        <time>2019-04-17T22:30:49Z</time>
      </trkpt>
      <trkpt lat="45.73729" lon="2.87395">
        <ele>771</ele>
        <time>2019-04-17T22:31:49Z</time>
      </trkpt>
      <trkpt lat="45.7376" lon="2.87391">
        <ele>771</ele>
        <time>2019-04-17T22:32:49Z</time>
      </trkpt>
      <trkpt lat="45.73791" lon="2.87377">
        <ele>771</ele>
        <time>2019-04-17T22:33:49Z</time>
      </trkpt>
      <trkpt lat="45.73836" lon="2.87362">
        <ele>771</ele>
        <time>2019-04-17T22:34:49Z</time>
      </trkpt>
      <trkpt lat="45.73874" lon="2.87342">
        <ele>770</ele>
        <time>2019-04-17T22:35:49Z</time>
      </trkpt>
      <trkpt lat="45.73886" lon="2.87333">
        <ele>770</ele>
        <time>2019-04-17T22:36:49Z</time>
      </trkpt>
      <trkpt lat="45.73949" lon="2.87219">
        <ele>768</ele>
        <time>2019-04-17T22:37:49Z</time>
      </trkpt>
      <trkpt lat="45.73966" lon="2.87206">
        <ele>768</ele>
        <time>2019-04-17T22:38:49Z</time>
      </trkpt>
      <trkpt lat="45.7403" lon="2.87169">
        <ele>766</ele>
        <time>2019-04-17T22:39:49Z</time>
      </trkpt>
      <trkpt lat="45.7407" lon="2.87142">
        <ele>765</ele>
        <time>2019-04-17T22:40:49Z</time>
      </trkpt>
      <trkpt lat="45.74072" lon="2.87128">
        <ele>765</ele>
        <time>2019-04-17T22:41:49Z</time>
      </trkpt>
      <trkpt lat="45.74069" lon="2.87088">
        <ele>765</ele>
        <time>2019-04-17T22:42:49Z</time>
      </trkpt>
      <trkpt lat="45.74069" lon="2.87068">
        <ele>765</ele>
        <time>2019-04-17T22:43:49Z</time>
      </trkpt>
      <trkpt lat="45.74073" lon="2.87056">
        <ele>765</ele>
        <time>2019-04-17T22:44:49Z</time>
      </trkpt>
      <trkpt lat="45.74126" lon="2.86973">
        <ele>764</ele>
        <time>2019-04-17T22:45:49Z</time>
      </trkpt>
      <trkpt lat="45.74137" lon="2.8695">
        <ele>764</ele>
        <time>2019-04-17T22:46:49Z</time>
      </trkpt>
      <trkpt lat="45.74144" lon="2.86923">
        <ele>765</ele>
        <time>2019-04-17T22:47:49Z</time>
      </trkpt>
      <trkpt lat="45.74147" lon="2.869">
        <ele>764</ele>
        <time>2019-04-17T22:48:49Z</time>
      </trkpt>
      <trkpt lat="45.74145" lon="2.86852">
        <ele>763</ele>
        <time>2019-04-17T22:49:49Z</time>
      </trkpt>
      <trkpt lat="45.74222" lon="2.86807">
        <ele>762</ele>
        <time>2019-04-17T22:50:49Z</time>
      </trkpt>
      <trkpt lat="45.74355" lon="2.86685">
        <ele>760</ele>
        <time>2019-04-17T22:51:49Z</time>
      </trkpt>
      <trkpt lat="45.744" lon="2.86643">
        <ele>759</ele>
        <time>2019-04-17T22:52:49Z</time>
      </trkpt>
      <trkpt lat="45.7442" lon="2.86622">
        <ele>758</ele>
        <time>2019-04-17T22:53:49Z</time>
      </trkpt>
      <trkpt lat="45.74447" lon="2.86602">
        <ele>756</ele>
        <time>2019-04-17T22:54:49Z</time>
      </trkpt>
      <trkpt lat="45.74457" lon="2.86599">
        <ele>756</ele>
        <time>2019-04-17T22:55:49Z</time>
      </trkpt>
      <trkpt lat="45.74467" lon="2.86599">
        <ele>756</ele>
        <time>2019-04-17T22:56:49Z</time>
      </trkpt>
      <trkpt lat="45.74528" lon="2.86634">
        <ele>759</ele>
        <time>2019-04-17T22:57:49Z</time>
      </trkpt>
      <trkpt lat="45.74537" lon="2.86633">
        <ele>758</ele>
        <time>2019-04-17T22:58:49Z</time>
      </trkpt>
      <trkpt lat="45.74562" lon="2.8662">
        <ele>757</ele>
        <time>2019-04-17T22:59:49Z</time>
      </trkpt>
      <trkpt lat="45.74574" lon="2.86618">
        <ele>757</ele>
        <time>2019-04-17T23:00:49Z</time>
      </trkpt>
      <trkpt lat="45.74591" lon="2.86619">
        <ele>757</ele>
        <time>2019-04-17T23:01:49Z</time>
      </trkpt>
      <trkpt lat="45.74617" lon="2.86625">
        <ele>757</ele>
        <time>2019-04-17T23:02:49Z</time>
      </trkpt>
      <trkpt lat="45.74656" lon="2.86626">
        <ele>756</ele>
        <time>2019-04-17T23:03:49Z</time>
      </trkpt>
      <trkpt lat="45.74674" lon="2.86632">
        <ele>756</ele>
        <time>2019-04-17T23:04:49Z</time>
      </trkpt>
      <trkpt lat="45.74725" lon="2.86641">
        <ele>756</ele>
        <time>2019-04-17T23:05:49Z</time>
      </trkpt>
      <trkpt lat="45.74751" lon="2.86622">
        <ele>755</ele>
        <time>2019-04-17T23:06:49Z</time>
      </trkpt>
      <trkpt lat="45.74755" lon="2.86616">
        <ele>755</ele>
        <time>2019-04-17T23:07:49Z</time>
      </trkpt>
      <trkpt lat="45.74763" lon="2.86598">
        <ele>753</ele>
        <time>2019-04-17T23:08:49Z</time>
      </trkpt>
      <trkpt lat="45.74763" lon="2.86588">
        <ele>752</ele>
        <time>2019-04-17T23:09:49Z</time>
      </trkpt>
      <trkpt lat="45.74788" lon="2.86572">
        <ele>750</ele>
        <time>2019-04-17T23:10:49Z</time>
      </trkpt>
      <trkpt lat="45.74805" lon="2.86565">
        <ele>748</ele>
        <time>2019-04-17T23:11:49Z</time>
      </trkpt>
      <trkpt lat="45.74819" lon="2.86564">
        <ele>747</ele>
        <time>2019-04-17T23:12:49Z</time>
      </trkpt>
      <trkpt lat="45.74867" lon="2.86576">
        <ele>747</ele>
        <time>2019-04-17T23:13:49Z</time>
      </trkpt>
      <trkpt lat="45.74875" lon="2.86576">
        <ele>747</ele>
        <time>2019-04-17T23:14:49Z</time>
      </trkpt>
      <trkpt lat="45.74898" lon="2.86567">
        <ele>746</ele>
        <time>2019-04-17T23:15:49Z</time>
      </trkpt>
      <trkpt lat="45.74953" lon="2.86521">
        <ele>742</ele>
        <time>2019-04-17T23:16:49Z</time>
      </trkpt>
      <trkpt lat="45.74976" lon="2.86512">
        <ele>741</ele>
        <time>2019-04-17T23:17:49Z</time>
      </trkpt>
      <trkpt lat="45.74992" lon="2.86509">
        <ele>741</ele>
        <time>2019-04-17T23:18:49Z</time>
      </trkpt>
      <trkpt lat="45.75051" lon="2.86508">
        <ele>741</ele>
        <time>2019-04-17T23:19:49Z</time>
      </trkpt>
      <trkpt lat="45.7507" lon="2.86499">
        <ele>741</ele>
        <time>2019-04-17T23:20:49Z</time>
      </trkpt>
      <trkpt lat="45.75109" lon="2.86461">
        <ele>743</ele>
        <time>2019-04-17T23:21:49Z</time>
      </trkpt>
      <trkpt lat="45.75119" lon="2.86454">
        <ele>744</ele>
        <time>2019-04-17T23:22:49Z</time>
      </trkpt>
      <trkpt lat="45.75135" lon="2.86449">
        <ele>745</ele>
        <time>2019-04-17T23:23:49Z</time>
      </trkpt>
      <trkpt lat="45.75164" lon="2.86448">
        <ele>746</ele>
        <time>2019-04-17T23:24:49Z</time>
      </trkpt>
      <trkpt lat="45.75233" lon="2.86452">
        <ele>750</ele>
        <time>2019-04-17T23:25:49Z</time>
      </trkpt>
      <trkpt lat="45.75245" lon="2.86449">
        <ele>751</ele>
        <time>2019-04-17T23:26:49Z</time>
      </trkpt>
      <trkpt lat="45.75347" lon="2.86399">
        <ele>760</ele>
        <time>2019-04-17T23:27:49Z</time>
      </trkpt>
      <trkpt lat="45.75368" lon="2.86391">
        <ele>761</ele>
        <time>2019-04-17T23:28:49Z</time>
      </trkpt>
      <trkpt lat="45.75375" lon="2.86391">
        <ele>762</ele>
        <time>2019-04-17T23:29:49Z</time>
      </trkpt>
      <trkpt lat="45.75415" lon="2.86402">
        <ele>764</ele>
        <time>2019-04-17T23:30:49Z</time>
      </trkpt>
      <trkpt lat="45.75423" lon="2.86402">
        <ele>764</ele>
        <time>2019-04-17T23:31:49Z</time>
      </trkpt>
      <trkpt lat="45.75439" lon="2.86393">
        <ele>765</ele>
        <time>2019-04-17T23:32:49Z</time>
      </trkpt>
      <trkpt lat="45.75455" lon="2.86378">
        <ele>766</ele>
        <time>2019-04-17T23:33:49Z</time>
      </trkpt>
      <trkpt lat="45.75467" lon="2.86359">
        <ele>767</ele>
        <time>2019-04-17T23:34:49Z</time>
      </trkpt>
      <trkpt lat="45.75478" lon="2.86327">
        <ele>769</ele>
        <time>2019-04-17T23:35:49Z</time>
      </trkpt>
      <trkpt lat="45.75511" lon="2.86187">
        <ele>781</ele>
        <time>2019-04-17T23:36:49Z</time>
      </trkpt>
      <trkpt lat="45.7553" lon="2.86165">
        <ele>781</ele>
        <time>2019-04-17T23:37:49Z</time>
      </trkpt>
      <trkpt lat="45.75589" lon="2.86111">
        <ele>781</ele>
        <time>2019-04-17T23:38:49Z</time>
      </trkpt>
      <trkpt lat="45.75604" lon="2.86093">
        <ele>781</ele>
        <time>2019-04-17T23:39:49Z</time>
      </trkpt>
      <trkpt lat="45.75632" lon="2.86047">
        <ele>782</ele>
        <time>2019-04-17T23:40:49Z</time>
      </trkpt>
      <trkpt lat="45.75734" lon="2.85907">
        <ele>784</ele>
        <time>2019-04-17T23:41:49Z</time>
      </trkpt>
      <trkpt lat="45.75785" lon="2.85848">
        <ele>783</ele>
        <time>2019-04-17T23:42:49Z</time>
      </trkpt>
      <trkpt lat="45.75832" lon="2.85783">
        <ele>784</ele>
        <time>2019-04-17T23:43:49Z</time>
      </trkpt>
      <trkpt lat="45.75883" lon="2.85698">
        <ele>784</ele>
        <time>2019-04-17T23:44:49Z</time>
      </trkpt>
      <trkpt lat="45.75938" lon="2.85635">
        <ele>785</ele>
        <time>2019-04-17T23:45:49Z</time>
      </trkpt>
      <trkpt lat="45.76103" lon="2.85418">
        <ele>792</ele>
        <time>2019-04-17T23:46:49Z</time>
      </trkpt>
      <trkpt lat="45.7614" lon="2.85352">
        <ele>793</ele>
        <time>2019-04-17T23:47:49Z</time>
      </trkpt>
      <trkpt lat="45.76182" lon="2.85221">
        <ele>796</ele>
        <time>2019-04-17T23:48:49Z</time>
      </trkpt>
      <trkpt lat="45.76206" lon="2.85178">
        <ele>797</ele>
        <time>2019-04-17T23:49:49Z</time>
      </trkpt>
      <trkpt lat="45.76211" lon="2.85177">
        <ele>797</ele>
        <time>2019-04-17T23:50:49Z</time>
      </trkpt>
      <trkpt lat="45.76228" lon="2.85183">
        <ele>797</ele>
        <time>2019-04-17T23:51:49Z</time>
      </trkpt>
      <trkpt lat="45.7625" lon="2.85182">
        <ele>798</ele>
        <time>2019-04-17T23:52:49Z</time>
      </trkpt>
      <trkpt lat="45.76416" lon="2.8524">
        <ele>791</ele>
        <time>2019-04-17T23:53:49Z</time>
      </trkpt>
      <trkpt lat="45.76452" lon="2.85255">
        <ele>790</ele>
        <time>2019-04-17T23:54:49Z</time>
      </trkpt>
      <trkpt lat="45.76475" lon="2.85268">
        <ele>790</ele>
        <time>2019-04-17T23:55:49Z</time>
      </trkpt>
      <trkpt lat="45.76525" lon="2.85309">
        <ele>789</ele>
        <time>2019-04-17T23:56:49Z</time>
      </trkpt>
      <trkpt lat="45.76574" lon="2.85343">
        <ele>789</ele>
        <time>2019-04-17T23:57:49Z</time>
      </trkpt>
      <trkpt lat="45.76654" lon="2.85378">
        <ele>787</ele>
        <time>2019-04-17T23:58:49Z</time>
      </trkpt>
      <trkpt lat="45.76693" lon="2.85392">
        <ele>787</ele>
        <time>2019-04-17T23:59:49Z</time>
      </trkpt>
      <trkpt lat="45.76735" lon="2.85401">
        <ele>787</ele>
        <time>2019-04-18T00:00:49Z</time>
      </trkpt>
      <trkpt lat="45.76796" lon="2.85422">
        <ele>787</ele>
        <time>2019-04-18T00:01:49Z</time>
      </trkpt>
      <trkpt lat="45.76815" lon="2.85437">
        <ele>787</ele>
        <time>2019-04-18T00:02:49Z</time>
      </trkpt>
      <trkpt lat="45.76841" lon="2.8547">
        <ele>786</ele>
        <time>2019-04-18T00:03:49Z</time>
      </trkpt>
      <trkpt lat="45.76884" lon="2.8551">
        <ele>785</ele>
        <time>2019-04-18T00:04:49Z</time>
      </trkpt>
      <trkpt lat="45.76941" lon="2.85566">
        <ele>783</ele>
        <time>2019-04-18T00:05:49Z</time>
      </trkpt>
      <trkpt lat="45.76953" lon="2.85576">
        <ele>783</ele>
        <time>2019-04-18T00:06:49Z</time>
      </trkpt>
      <trkpt lat="45.76985" lon="2.85595">
        <ele>782</ele>
        <time>2019-04-18T00:07:49Z</time>
      </trkpt>
      <trkpt lat="45.7701" lon="2.85599">
        <ele>782</ele>
        <time>2019-04-18T00:08:49Z</time>
      </trkpt>
      <trkpt lat="45.77128" lon="2.85599">
        <ele>780</ele>
        <time>2019-04-18T00:09:49Z</time>
      </trkpt>
      <trkpt lat="45.77456" lon="2.85626">
        <ele>776</ele>
        <time>2019-04-18T00:10:49Z</time>
      </trkpt>
      <trkpt lat="45.77583" lon="2.85609">
        <ele>776</ele>
        <time>2019-04-18T00:11:49Z</time>
      </trkpt>
      <trkpt lat="45.77646" lon="2.85605">
        <ele>775</ele>
        <time>2019-04-18T00:12:49Z</time>
      </trkpt>
      <trkpt lat="45.77681" lon="2.85609">
        <ele>775</ele>
        <time>2019-04-18T00:13:49Z</time>
      </trkpt>
      <trkpt lat="45.7776" lon="2.85624">
        <ele>773</ele>
        <time>2019-04-18T00:14:49Z</time>
      </trkpt>
      <trkpt lat="45.77783" lon="2.85631">
        <ele>773</ele>
        <time>2019-04-18T00:15:49Z</time>
      </trkpt>
      <trkpt lat="45.77848" lon="2.85658">
        <ele>771</ele>
        <time>2019-04-18T00:16:49Z</time>
      </trkpt>
      <trkpt lat="45.77914" lon="2.85681">
        <ele>768</ele>
        <time>2019-04-18T00:17:49Z</time>
      </trkpt>
      <trkpt lat="45.77961" lon="2.85706">
        <ele>765</ele>
        <time>2019-04-18T00:18:49Z</time>
      </trkpt>
      <trkpt lat="45.77977" lon="2.85718">
        <ele>764</ele>
        <time>2019-04-18T00:19:49Z</time>
      </trkpt>
      <trkpt lat="45.78013" lon="2.85761">
        <ele>761</ele>
        <time>2019-04-18T00:20:49Z</time>
      </trkpt>
      <trkpt lat="45.78067" lon="2.8584">
        <ele>756</ele>
        <time>2019-04-18T00:21:49Z</time>
      </trkpt>
      <trkpt lat="45.78096" lon="2.85885">
        <ele>753</ele>
        <time>2019-04-18T00:22:49Z</time>
      </trkpt>
      <trkpt lat="45.78111" lon="2.85904">
        <ele>753</ele>
        <time>2019-04-18T00:23:49Z</time>
      </trkpt>
      <trkpt lat="45.78127" lon="2.85916">
        <ele>752</ele>
        <time>2019-04-18T00:24:49Z</time>
      </trkpt>
      <trkpt lat="45.78133" lon="2.85917">
        <ele>752</ele>
        <time>2019-04-18T00:25:49Z</time>
      </trkpt>
      <trkpt lat="45.78157" lon="2.8591">
        <ele>752</ele>
        <time>2019-04-18T00:26:49Z</time>
      </trkpt>
      <trkpt lat="45.782" lon="2.85892">
        <ele>750</ele>
        <time>2019-04-18T00:27:49Z</time>
      </trkpt>
      <trkpt lat="45.7821" lon="2.85889">
        <ele>750</ele>
        <time>2019-04-18T00:28:49Z</time>
      </trkpt>
      <trkpt lat="45.78228" lon="2.85889">
        <ele>749</ele>
        <time>2019-04-18T00:29:49Z</time>
      </trkpt>
      <trkpt lat="45.78254" lon="2.85898">
        <ele>748</ele>
        <time>2019-04-18T00:30:49Z</time>
      </trkpt>
      <trkpt lat="45.78292" lon="2.85921">
        <ele>748</ele>
        <time>2019-04-18T00:31:49Z</time>
      </trkpt>
      <trkpt lat="45.78321" lon="2.8593">
        <ele>748</ele>
        <time>2019-04-18T00:32:49Z</time>
      </trkpt>
      <trkpt lat="45.78333" lon="2.85931">
        <ele>748</ele>
        <time>2019-04-18T00:33:49Z</time>
      </trkpt>
      <trkpt lat="45.78355" lon="2.85928">
        <ele>748</ele>
        <time>2019-04-18T00:34:49Z</time>
      </trkpt>
      <trkpt lat="45.78384" lon="2.85918">
        <ele>747</ele>
        <time>2019-04-18T00:35:49Z</time>
      </trkpt>
      <trkpt lat="45.78404" lon="2.85916">
        <ele>747</ele>
        <time>2019-04-18T00:36:49Z</time>
      </trkpt>
      <trkpt lat="45.78422" lon="2.85922">
        <ele>747</ele>
        <time>2019-04-18T00:37:49Z</time>
      </trkpt>
      <trkpt lat="45.78445" lon="2.85933">
        <ele>747</ele>
        <time>2019-04-18T00:38:49Z</time>
      </trkpt>
      <trkpt lat="45.78476" lon="2.85931">
        <ele>746</ele>
        <time>2019-04-18T00:39:49Z</time>
      </trkpt>
      <trkpt lat="45.78481" lon="2.85933">
        <ele>746</ele>
        <time>2019-04-18T00:40:49Z</time>
      </trkpt>
      <trkpt lat="45.78496" lon="2.85947">
        <ele>747</ele>
        <time>2019-04-18T00:41:49Z</time>
      </trkpt>
      <trkpt lat="45.78502" lon="2.85955">
        <ele>747</ele>
        <time>2019-04-18T00:42:49Z</time>
      </trkpt>
      <trkpt lat="45.78516" lon="2.8598">
        <ele>748</ele>
        <time>2019-04-18T00:43:49Z</time>
      </trkpt>
      <trkpt lat="45.78536" lon="2.86021">
        <ele>749</ele>
        <time>2019-04-18T00:44:49Z</time>
      </trkpt>
      <trkpt lat="45.78543" lon="2.86047">
        <ele>749</ele>
        <time>2019-04-18T00:45:49Z</time>
      </trkpt>
      <trkpt lat="45.78551" lon="2.86093">
        <ele>749</ele>
        <time>2019-04-18T00:46:49Z</time>
      </trkpt>
      <trkpt lat="45.78552" lon="2.86131">
        <ele>749</ele>
        <time>2019-04-18T00:47:49Z</time>
      </trkpt>
      <trkpt lat="45.7855" lon="2.86147">
        <ele>750</ele>
        <time>2019-04-18T00:48:49Z</time>
      </trkpt>
      <trkpt lat="45.78521" lon="2.86237">
        <ele>752</ele>
        <time>2019-04-18T00:49:49Z</time>
      </trkpt>
      <trkpt lat="45.78511" lon="2.86292">
        <ele>754</ele>
        <time>2019-04-18T00:50:49Z</time>
      </trkpt>
      <trkpt lat="45.78509" lon="2.86368">
        <ele>757</ele>
        <time>2019-04-18T00:51:49Z</time>
      </trkpt>
      <trkpt lat="45.78505" lon="2.86386">
        <ele>758</ele>
        <time>2019-04-18T00:52:49Z</time>
      </trkpt>
      <trkpt lat="45.78494" lon="2.86415">
        <ele>759</ele>
        <time>2019-04-18T00:53:49Z</time>
      </trkpt>
      <trkpt lat="45.78488" lon="2.86425">
        <ele>760</ele>
        <time>2019-04-18T00:54:49Z</time>
      </trkpt>
      <trkpt lat="45.78473" lon="2.8644">
        <ele>761</ele>
        <time>2019-04-18T00:55:49Z</time>
      </trkpt>
      <trkpt lat="45.7842" lon="2.86484">
        <ele>761</ele>
        <time>2019-04-18T00:56:49Z</time>
      </trkpt>
      <trkpt lat="45.78413" lon="2.86495">
        <ele>761</ele>
        <time>2019-04-18T00:57:49Z</time>
      </trkpt>
      <trkpt lat="45.78397" lon="2.86529">
        <ele>764</ele>
        <time>2019-04-18T00:58:49Z</time>
      </trkpt>
      <trkpt lat="45.7831" lon="2.86749">
        <ele>770</ele>
        <time>2019-04-18T00:59:49Z</time>
      </trkpt>
      <trkpt lat="45.783" lon="2.86787">
        <ele>773</ele>
        <time>2019-04-18T01:00:49Z</time>
      </trkpt>
      <trkpt lat="45.7829" lon="2.86841">
        <ele>776</ele>
        <time>2019-04-18T01:01:49Z</time>
      </trkpt>
      <trkpt lat="45.78288" lon="2.86888">
        <ele>779</ele>
        <time>2019-04-18T01:02:49Z</time>
      </trkpt>
      <trkpt lat="45.78291" lon="2.86921">
        <ele>780</ele>
        <time>2019-04-18T01:03:49Z</time>
      </trkpt>
      <trkpt lat="45.78306" lon="2.87031">
        <ele>789</ele>
        <time>2019-04-18T01:04:49Z</time>
      </trkpt>
      <trkpt lat="45.78312" lon="2.87064">
        <ele>792</ele>
        <time>2019-04-18T01:05:49Z</time>
      </trkpt>
      <trkpt lat="45.78339" lon="2.87123">
        <ele>793</ele>
        <time>2019-04-18T01:06:49Z</time>
      </trkpt>
      <trkpt lat="45.78343" lon="2.87141">
        <ele>793</ele>
        <time>2019-04-18T01:07:49Z</time>
      </trkpt>
      <trkpt lat="45.78345" lon="2.87155">
        <ele>794</ele>
        <time>2019-04-18T01:08:49Z</time>
      </trkpt>
      <trkpt lat="45.78345" lon="2.87247">
        <ele>794</ele>
        <time>2019-04-18T01:09:49Z</time>
      </trkpt>
      <trkpt lat="45.78351" lon="2.8728">
        <ele>795</ele>
        <time>2019-04-18T01:10:49Z</time>
      </trkpt>
      <trkpt lat="45.78358" lon="2.87296">
        <ele>794</ele>
        <time>2019-04-18T01:11:49Z</time>
      </trkpt>
      <trkpt lat="45.78371" lon="2.87318">
        <ele>792</ele>
        <time>2019-04-18T01:12:49Z</time>
      </trkpt>
      <trkpt lat="45.78501" lon="2.87502">
        <ele>778</ele>
        <time>2019-04-18T01:13:49Z</time>
      </trkpt>
      <trkpt lat="45.78525" lon="2.87557">
        <ele>779</ele>
        <time>2019-04-18T01:14:49Z</time>
      </trkpt>
      <trkpt lat="45.78545" lon="2.87618">
        <ele>780</ele>
        <time>2019-04-18T01:15:49Z</time>
      </trkpt>
      <trkpt lat="45.78561" lon="2.8768">
        <ele>781</ele>
        <time>2019-04-18T01:16:49Z</time>
      </trkpt>
      <trkpt lat="45.78572" lon="2.87775">
        <ele>785</ele>
        <time>2019-04-18T01:17:49Z</time>
      </trkpt>
      <trkpt lat="45.78577" lon="2.8789">
        <ele>787</ele>
        <time>2019-04-18T01:18:49Z</time>
      </trkpt>
      <trkpt lat="45.78585" lon="2.87927">
        <ele>787</ele>
        <time>2019-04-18T01:19:49Z</time>
      </trkpt>
      <trkpt lat="45.78586" lon="2.87949">
        <ele>788</ele>
        <time>2019-04-18T01:20:49Z</time>
      </trkpt>
      <trkpt lat="45.78584" lon="2.87966">
        <ele>788</ele>
        <time>2019-04-18T01:21:49Z</time>
      </trkpt>
      <trkpt lat="45.78566" lon="2.88016">
        <ele>792</ele>
        <time>2019-04-18T01:22:49Z</time>
      </trkpt>
      <trkpt lat="45.78553" lon="2.88071">
        <ele>796</ele>
        <time>2019-04-18T01:23:49Z</time>
      </trkpt>
      <trkpt lat="45.78564" lon="2.88076">
        <ele>794</ele>
        <time>2019-04-18T01:24:49Z</time>
      </trkpt>
      <trkpt lat="45.78639" lon="2.88109">
        <ele>787</ele>
        <time>2019-04-18T01:25:49Z</time>
      </trkpt>
      <trkpt lat="45.78674" lon="2.88108">
        <ele>785</ele>
        <time>2019-04-18T01:26:49Z</time>
      </trkpt>
      <trkpt lat="45.788" lon="2.88059">
        <ele>789</ele>
        <time>2019-04-18T01:27:49Z</time>
      </trkpt>
      <trkpt lat="45.78827" lon="2.88055">
        <ele>791</ele>
        <time>2019-04-18T01:28:49Z</time>
      </trkpt>
      <trkpt lat="45.79252" lon="2.88067">
        <ele>795</ele>
        <time>2019-04-18T01:29:49Z</time>
      </trkpt>
      <trkpt lat="45.79267" lon="2.88065">
        <ele>795</ele>
        <time>2019-04-18T01:30:49Z</time>
      </trkpt>
      <trkpt lat="45.79279" lon="2.88058">
        <ele>796</ele>
        <time>2019-04-18T01:31:49Z</time>
      </trkpt>
      <trkpt lat="45.79284" lon="2.88052">
        <ele>796</ele>
        <time>2019-04-18T01:32:49Z</time>
      </trkpt>
      <trkpt lat="45.79291" lon="2.88041">
        <ele>796</ele>
        <time>2019-04-18T01:33:49Z</time>
      </trkpt>
      <trkpt lat="45.79307" lon="2.88005">
        <ele>798</ele>
        <time>2019-04-18T01:34:49Z</time>
      </trkpt>
      <trkpt lat="45.79331" lon="2.87946">
        <ele>800</ele>
        <time>2019-04-18T01:35:49Z</time>
      </trkpt>
      <trkpt lat="45.79341" lon="2.87907">
        <ele>800</ele>
        <time>2019-04-18T01:36:49Z</time>
      </trkpt>
      <trkpt lat="45.79344" lon="2.87871">
        <ele>800</ele>
        <time>2019-04-18T01:37:49Z</time>
      </trkpt>
      <trkpt lat="45.79344" lon="2.87833">
        <ele>799</ele>
        <time>2019-04-18T01:38:49Z</time>
      </trkpt>
      <trkpt lat="45.7934" lon="2.8781">
        <ele>800</ele>
        <time>2019-04-18T01:39:49Z</time>
      </trkpt>
      <trkpt lat="45.79299" lon="2.87601">
        <ele>801</ele>
        <time>2019-04-18T01:40:49Z</time>
      </trkpt>
      <trkpt lat="45.79297" lon="2.87577">
        <ele>802</ele>
        <time>2019-04-18T01:41:49Z</time>
      </trkpt>
      <trkpt lat="45.79298" lon="2.8756">
        <ele>802</ele>
        <time>2019-04-18T01:42:49Z</time>
      </trkpt>
      <trkpt lat="45.79306" lon="2.87526">
        <ele>802</ele>
        <time>2019-04-18T01:43:49Z</time>
      </trkpt>
      <trkpt lat="45.79314" lon="2.87509">
        <ele>802</ele>
        <time>2019-04-18T01:44:49Z</time>
      </trkpt>
      <trkpt lat="45.79323" lon="2.87498">
        <ele>802</ele>
        <time>2019-04-18T01:45:49Z</time>
      </trkpt>
      <trkpt lat="45.7934" lon="2.87485">
        <ele>802</ele>
        <time>2019-04-18T01:46:49Z</time>
      </trkpt>
      <trkpt lat="45.79348" lon="2.87482">
        <ele>803</ele>
        <time>2019-04-18T01:47:49Z</time>
      </trkpt>
      <trkpt lat="45.79377" lon="2.87474">
        <ele>803</ele>
        <time>2019-04-18T01:48:49Z</time>
      </trkpt>
      <trkpt lat="45.79454" lon="2.87465">
        <ele>805</ele>
        <time>2019-04-18T01:49:49Z</time>
      </trkpt>
      <trkpt lat="45.79479" lon="2.87456">
        <ele>806</ele>
        <time>2019-04-18T01:50:49Z</time>
      </trkpt>
      <trkpt lat="45.7949" lon="2.87448">
        <ele>807</ele>
        <time>2019-04-18T01:51:49Z</time>
      </trkpt>
      <trkpt lat="45.79501" lon="2.87438">
        <ele>807</ele>
        <time>2019-04-18T01:52:49Z</time>
      </trkpt>
      <trkpt lat="45.79536" lon="2.8739">
        <ele>807</ele>
        <time>2019-04-18T01:53:49Z</time>
      </trkpt>
      <trkpt lat="45.79553" lon="2.87376">
        <ele>807</ele>
        <time>2019-04-18T01:54:49Z</time>
      </trkpt>
      <trkpt lat="45.79762" lon="2.87321">
        <ele>803</ele>
        <time>2019-04-18T01:55:49Z</time>
      </trkpt>
      <trkpt lat="45.79792" lon="2.87311">
        <ele>803</ele>
        <time>2019-04-18T01:56:49Z</time>
      </trkpt>
      <trkpt lat="45.7982" lon="2.87297">
        <ele>804</ele>
        <time>2019-04-18T01:57:49Z</time>
      </trkpt>
      <trkpt lat="45.7985" lon="2.87275">
        <ele>804</ele>
        <time>2019-04-18T01:58:49Z</time>
      </trkpt>
      <trkpt lat="45.79857" lon="2.87268">
        <ele>804</ele>
        <time>2019-04-18T01:59:49Z</time>
      </trkpt>
      <trkpt lat="45.79873" lon="2.87246">
        <ele>803</ele>
        <time>2019-04-18T02:00:49Z</time>
      </trkpt>
      <trkpt lat="45.79956" lon="2.87094">
        <ele>796</ele>
        <time>2019-04-18T02:01:49Z</time>
      </trkpt>
      <trkpt lat="45.79974" lon="2.87067">
        <ele>794</ele>
        <time>2019-04-18T02:02:49Z</time>
      </trkpt>
      <trkpt lat="45.79984" lon="2.87052">
        <ele>793</ele>
        <time>2019-04-18T02:03:49Z</time>
      </trkpt>
      <trkpt lat="45.801" lon="2.86917">
        <ele>788</ele>
        <time>2019-04-18T02:04:49Z</time>
      </trkpt>
      <trkpt lat="45.80117" lon="2.86894">
        <ele>786</ele>
        <time>2019-04-18T02:05:49Z</time>
      </trkpt>
      <trkpt lat="45.80139" lon="2.86853">
        <ele>785</ele>
        <time>2019-04-18T02:06:49Z</time>
      </trkpt>
      <trkpt lat="45.80187" lon="2.86757">
        <ele>782</ele>
        <time>2019-04-18T02:07:49Z</time>
      </trkpt>
      <trkpt lat="45.80207" lon="2.86714">
        <ele>781</ele>
        <time>2019-04-18T02:08:49Z</time>
      </trkpt>
      <trkpt lat="45.80267" lon="2.86552">
        <ele>780</ele>
        <time>2019-04-18T02:09:49Z</time>
      </trkpt>
      <trkpt lat="45.80272" lon="2.86539">
        <ele>780</ele>
        <time>2019-04-18T02:10:49Z</time>
      </trkpt>
      <trkpt lat="45.80292" lon="2.86504">
        <ele>780</ele>
        <time>2019-04-18T02:11:49Z</time>
      </trkpt>
      <trkpt lat="45.80406" lon="2.86315">
        <ele>776</ele>
        <time>2019-04-18T02:12:49Z</time>
      </trkpt>
      <trkpt lat="45.8045" lon="2.86236">
        <ele>774</ele>
        <time>2019-04-18T02:13:49Z</time>
      </trkpt>
      <trkpt lat="45.80493" lon="2.86155">
        <ele>772</ele>
        <time>2019-04-18T02:14:49Z</time>
      </trkpt>
      <trkpt lat="45.80511" lon="2.86118">
        <ele>772</ele>
        <time>2019-04-18T02:15:49Z</time>
      </trkpt>
      <trkpt lat="45.80526" lon="2.86136">
        <ele>773</ele>
        <time>2019-04-18T02:16:49Z</time>
      </trkpt>
      <trkpt lat="45.80652" lon="2.86359">
        <ele>775</ele>
        <time>2019-04-18T02:17:49Z</time>
      </trkpt>
      <trkpt lat="45.80688" lon="2.86432">
        <ele>773</ele>
        <time>2019-04-18T02:18:49Z</time>
      </trkpt>
      <trkpt lat="45.80826" lon="2.8679">
        <ele>777</ele>
        <time>2019-04-18T02:19:49Z</time>
      </trkpt>
      <trkpt lat="45.80841" lon="2.86809">
        <ele>779</ele>
        <time>2019-04-18T02:20:49Z</time>
      </trkpt>
      <trkpt lat="45.80873" lon="2.86827">
        <ele>781</ele>
        <time>2019-04-18T02:21:49Z</time>
      </trkpt>
      <trkpt lat="45.80881" lon="2.86833">
        <ele>782</ele>
        <time>2019-04-18T02:22:49Z</time>
      </trkpt>
      <trkpt lat="45.80894" lon="2.86856">
        <ele>783</ele>
        <time>2019-04-18T02:23:49Z</time>
      </trkpt>
      <trkpt lat="45.80914" lon="2.86915">
        <ele>785</ele>
        <time>2019-04-18T02:24:49Z</time>
      </trkpt>
      <trkpt lat="45.80923" lon="2.86928">
        <ele>786</ele>
        <time>2019-04-18T02:25:49Z</time>
      </trkpt>
      <trkpt lat="45.80968" lon="2.86945">
        <ele>787</ele>
        <time>2019-04-18T02:26:49Z</time>
      </trkpt>
      <trkpt lat="45.80976" lon="2.86954">
        <ele>787</ele>
        <time>2019-04-18T02:27:49Z</time>
      </trkpt>
      <trkpt lat="45.80983" lon="2.86967">
        <ele>787</ele>
        <time>2019-04-18T02:28:49Z</time>
      </trkpt>
      <trkpt lat="45.8099" lon="2.86992">
        <ele>786</ele>
        <time>2019-04-18T02:29:49Z</time>
      </trkpt>
      <trkpt lat="45.80994" lon="2.87017">
        <ele>787</ele>
        <time>2019-04-18T02:30:49Z</time>
      </trkpt>
      <trkpt lat="45.81005" lon="2.8721">
        <ele>795</ele>
        <time>2019-04-18T02:31:49Z</time>
      </trkpt>
      <trkpt lat="45.81007" lon="2.87237">
        <ele>796</ele>
        <time>2019-04-18T02:32:49Z</time>
      </trkpt>
      <trkpt lat="45.81012" lon="2.87258">
        <ele>796</ele>
        <time>2019-04-18T02:33:49Z</time>
      </trkpt>
      <trkpt lat="45.8102" lon="2.87272">
        <ele>797</ele>
        <time>2019-04-18T02:34:49Z</time>
      </trkpt>
      <trkpt lat="45.81052" lon="2.87297">
        <ele>797</ele>
        <time>2019-04-18T02:35:49Z</time>
      </trkpt>
      <trkpt lat="45.81073" lon="2.87318">
        <ele>798</ele>
        <time>2019-04-18T02:36:49Z</time>
      </trkpt>
      <trkpt lat="45.81082" lon="2.87328">
        <ele>798</ele>
        <time>2019-04-18T02:37:49Z</time>
      </trkpt>
      <trkpt lat="45.8109" lon="2.87344">
        <ele>798</ele>
        <time>2019-04-18T02:38:49Z</time>
      </trkpt>
      <trkpt lat="45.81147" lon="2.87474">
        <ele>797</ele>
        <time>2019-04-18T02:39:49Z</time>
      </trkpt>
      <trkpt lat="45.81182" lon="2.87549">
        <ele>796</ele>
        <time>2019-04-18T02:40:49Z</time>
      </trkpt>
      <trkpt lat="45.81197" lon="2.87578">
        <ele>796</ele>
        <time>2019-04-18T02:41:49Z</time>
      </trkpt>
      <trkpt lat="45.81212" lon="2.87595">
        <ele>796</ele>
        <time>2019-04-18T02:42:49Z</time>
      </trkpt>
      <trkpt lat="45.81224" lon="2.87605">
        <ele>796</ele>
        <time>2019-04-18T02:43:49Z</time>
      </trkpt>
      <trkpt lat="45.81259" lon="2.87618">
        <ele>796</ele>
        <time>2019-04-18T02:44:49Z</time>
      </trkpt>
      <trkpt lat="45.81309" lon="2.87628">
        <ele>794</ele>
        <time>2019-04-18T02:45:49Z</time>
      </trkpt>
      <trkpt lat="45.81357" lon="2.87644">
        <ele>793</ele>
        <time>2019-04-18T02:46:49Z</time>
      </trkpt>
      <trkpt lat="45.81372" lon="2.87653">
        <ele>793</ele>
        <time>2019-04-18T02:47:49Z</time>
      </trkpt>
      <trkpt lat="45.81458" lon="2.87744">
        <ele>788</ele>
        <time>2019-04-18T02:48:49Z</time>
      </trkpt>
      <trkpt lat="45.8147" lon="2.87755">
        <ele>788</ele>
        <time>2019-04-18T02:49:49Z</time>
      </trkpt>
      <trkpt lat="45.81484" lon="2.87761">
        <ele>788</ele>
        <time>2019-04-18T02:50:49Z</time>
      </trkpt>
      <trkpt lat="45.81689" lon="2.87764">
        <ele>782</ele>
        <time>2019-04-18T02:51:49Z</time>
      </trkpt>
      <trkpt lat="45.81713" lon="2.87769">
        <ele>781</ele>
        <time>2019-04-18T02:52:49Z</time>
      </trkpt>
      <trkpt lat="45.81736" lon="2.8778">
        <ele>780</ele>
        <time>2019-04-18T02:53:49Z</time>
      </trkpt>
      <trkpt lat="45.81761" lon="2.87786">
        <ele>779</ele>
        <time>2019-04-18T02:54:49Z</time>
      </trkpt>
      <trkpt lat="45.81783" lon="2.87788">
        <ele>778</ele>
        <time>2019-04-18T02:55:49Z</time>
      </trkpt>
      <trkpt lat="45.81855" lon="2.8778">
        <ele>775</ele>
        <time>2019-04-18T02:56:49Z</time>
      </trkpt>
      <trkpt lat="45.81879" lon="2.87783">
        <ele>773</ele>
        <time>2019-04-18T02:57:49Z</time>
      </trkpt>
      <trkpt lat="45.81946" lon="2.87821">
        <ele>770</ele>
        <time>2019-04-18T02:58:49Z</time>
      </trkpt>
      <trkpt lat="45.82039" lon="2.87879">
        <ele>769</ele>
        <time>2019-04-18T02:59:49Z</time>
      </trkpt>
      <trkpt lat="45.82053" lon="2.87885">
        <ele>769</ele>
        <time>2019-04-18T03:00:49Z</time>
      </trkpt>
      <trkpt lat="45.82255" lon="2.87935">
        <ele>773</ele>
        <time>2019-04-18T03:01:49Z</time>
      </trkpt>
      <trkpt lat="45.82324" lon="2.87964">
        <ele>773</ele>
        <time>2019-04-18T03:02:49Z</time>
      </trkpt>
      <trkpt lat="45.82335" lon="2.87969">
        <ele>773</ele>
        <time>2019-04-18T03:03:49Z</time>
      </trkpt>
      <trkpt lat="45.82354" lon="2.87983">
        <ele>772</ele>
        <time>2019-04-18T03:04:49Z</time>
      </trkpt>
      <trkpt lat="45.82383" lon="2.88014">
        <ele>772</ele>
        <time>2019-04-18T03:05:49Z</time>
      </trkpt>
      <trkpt lat="45.82409" lon="2.88049">
        <ele>773</ele>
        <time>2019-04-18T03:06:49Z</time>
      </trkpt>
      <trkpt lat="45.82433" lon="2.88095">
        <ele>776</ele>
        <time>2019-04-18T03:07:49Z</time>
      </trkpt>
      <trkpt lat="45.82446" lon="2.88118">
        <ele>776</ele>
        <time>2019-04-18T03:08:49Z</time>
      </trkpt>
      <trkpt lat="45.82464" lon="2.88141">
        <ele>777</ele>
        <time>2019-04-18T03:09:49Z</time>
      </trkpt>
      <trkpt lat="45.82562" lon="2.88252">
        <ele>783</ele>
        <time>2019-04-18T03:10:49Z</time>
      </trkpt>
      <trkpt lat="45.82573" lon="2.88268">
        <ele>784</ele>
        <time>2019-04-18T03:11:49Z</time>
      </trkpt>
      <trkpt lat="45.82645" lon="2.88409">
        <ele>789</ele>
        <time>2019-04-18T03:12:49Z</time>
      </trkpt>
      <trkpt lat="45.82684" lon="2.88492">
        <ele>792</ele>
        <time>2019-04-18T03:13:49Z</time>
      </trkpt>
      <trkpt lat="45.82705" lon="2.88555">
        <ele>792</ele>
        <time>2019-04-18T03:14:49Z</time>
      </trkpt>
      <trkpt lat="45.82819" lon="2.8895">
        <ele>797</ele>
        <time>2019-04-18T03:15:49Z</time>
      </trkpt>
      <trkpt lat="45.83004" lon="2.89486">
        <ele>803</ele>
        <time>2019-04-18T03:16:49Z</time>
      </trkpt>
      <trkpt lat="45.83017" lon="2.89517">
        <ele>803</ele>
        <time>2019-04-18T03:17:49Z</time>
      </trkpt>
      <trkpt lat="45.83012" lon="2.89531">
        <ele>803</ele>
        <time>2019-04-18T03:18:49Z</time>
      </trkpt>
      <trkpt lat="45.8302" lon="2.89541">
        <ele>803</ele>
        <time>2019-04-18T03:19:49Z</time>
      </trkpt>
      <trkpt lat="45.83022" lon="2.89547">
        <ele>803</ele>
        <time>2019-04-18T03:20:49Z</time>
      </trkpt>
      <trkpt lat="45.8303" lon="2.89592">
        <ele>804</ele>
        <time>2019-04-18T03:21:49Z</time>
      </trkpt>
      <trkpt lat="45.83045" lon="2.89715">
        <ele>805</ele>
        <time>2019-04-18T03:22:49Z</time>
      </trkpt>
      <trkpt lat="45.83048" lon="2.89724">
        <ele>805</ele>
        <time>2019-04-18T03:23:49Z</time>
      </trkpt>
      <trkpt lat="45.83067" lon="2.89764">
        <ele>805</ele>
        <time>2019-04-18T03:24:49Z</time>
      </trkpt>
      <trkpt lat="45.83086" lon="2.89796">
        <ele>804</ele>
        <time>2019-04-18T03:25:49Z</time>
      </trkpt>
      <trkpt lat="45.83098" lon="2.89812">
        <ele>803</ele>
        <time>2019-04-18T03:26:49Z</time>
      </trkpt>
      <trkpt lat="45.83135" lon="2.89844">
        <ele>800</ele>
        <time>2019-04-18T03:27:49Z</time>
      </trkpt>
      <trkpt lat="45.83154" lon="2.89855">
        <ele>799</ele>
        <time>2019-04-18T03:28:49Z</time>
      </trkpt>
      <trkpt lat="45.83188" lon="2.89865">
        <ele>798</ele>
        <time>2019-04-18T03:29:49Z</time>
      </trkpt>
      <trkpt lat="45.83233" lon="2.89871">
        <ele>798</ele>
        <time>2019-04-18T03:30:49Z</time>
      </trkpt>
      <trkpt lat="45.83249" lon="2.89876">
        <ele>799</ele>
        <time>2019-04-18T03:31:49Z</time>
      </trkpt>
      <trkpt lat="45.83296" lon="2.89902">
        <ele>804</ele>
        <time>2019-04-18T03:32:49Z</time>
      </trkpt>
      <trkpt lat="45.83323" lon="2.89926">
        <ele>807</ele>
        <time>2019-04-18T03:33:49Z</time>
      </trkpt>
      <trkpt lat="45.83342" lon="2.89946">
        <ele>809</ele>
        <time>2019-04-18T03:34:49Z</time>
      </trkpt>
      <trkpt lat="45.83356" lon="2.89957">
        <ele>811</ele>
        <time>2019-04-18T03:35:49Z</time>
      </trkpt>
      <trkpt lat="45.83409" lon="2.89976">
        <ele>814</ele>
        <time>2019-04-18T03:36:49Z</time>
      </trkpt>
      <trkpt lat="45.83457" lon="2.89966">
        <ele>815</ele>
        <time>2019-04-18T03:37:49Z</time>
      </trkpt>
      <trkpt lat="45.83501" lon="2.89966">
        <ele>816</ele>
        <time>2019-04-18T03:38:49Z</time>
      </trkpt>
      <trkpt lat="45.83532" lon="2.8996">
        <ele>817</ele>
        <time>2019-04-18T03:39:49Z</time>
      </trkpt>
      <trkpt lat="45.83534" lon="2.89957">
        <ele>817</ele>
        <time>2019-04-18T03:40:49Z</time>
      </trkpt>
      <trkpt lat="45.83558" lon="2.89944">
        <ele>817</ele>
        <time>2019-04-18T03:41:49Z</time>
      </trkpt>
      <trkpt lat="45.83566" lon="2.89942">
        <ele>818</ele>
        <time>2019-04-18T03:42:49Z</time>
      </trkpt>
      <trkpt lat="45.83572" lon="2.89946">
        <ele>818</ele>
        <time>2019-04-18T03:43:49Z</time>
      </trkpt>
      <trkpt lat="45.83616" lon="2.90005">
        <ele>822</ele>
        <time>2019-04-18T03:44:49Z</time>
      </trkpt>
      <trkpt lat="45.83624" lon="2.90011">
        <ele>823</ele>
        <time>2019-04-18T03:45:49Z</time>
      </trkpt>
      <trkpt lat="45.83631" lon="2.90013">
        <ele>823</ele>
        <time>2019-04-18T03:46:49Z</time>
      </trkpt>
      <trkpt lat="45.83636" lon="2.90013">
        <ele>823</ele>
        <time>2019-04-18T03:47:49Z</time>
      </trkpt>
      <trkpt lat="45.83642" lon="2.90009">
        <ele>823</ele>
        <time>2019-04-18T03:48:49Z</time>
      </trkpt>
      <trkpt lat="45.83651" lon="2.89992">
        <ele>823</ele>
        <time>2019-04-18T03:49:49Z</time>
      </trkpt>
      <trkpt lat="45.8366" lon="2.89979">
        <ele>823</ele>
        <time>2019-04-18T03:50:49Z</time>
      </trkpt>
      <trkpt lat="45.83676" lon="2.8997">
        <ele>823</ele>
        <time>2019-04-18T03:51:49Z</time>
      </trkpt>
      <trkpt lat="45.83687" lon="2.89971">
        <ele>823</ele>
        <time>2019-04-18T03:52:49Z</time>
      </trkpt>
      <trkpt lat="45.8372" lon="2.89984">
        <ele>824</ele>
        <time>2019-04-18T03:53:49Z</time>
      </trkpt>
      <trkpt lat="45.8373" lon="2.8999">
        <ele>824</ele>
        <time>2019-04-18T03:54:49Z</time>
      </trkpt>
      <trkpt lat="45.83737" lon="2.89998">
        <ele>825</ele>
        <time>2019-04-18T03:55:49Z</time>
      </trkpt>
      <trkpt lat="45.83742" lon="2.90008">
        <ele>825</ele>
        <time>2019-04-18T03:56:49Z</time>
      </trkpt>
      <trkpt lat="45.83754" lon="2.90063">
        <ele>827</ele>
        <time>2019-04-18T03:57:49Z</time>
      </trkpt>
      <trkpt lat="45.83762" lon="2.9012">
        <ele>826</ele>
        <time>2019-04-18T03:58:49Z</time>
      </trkpt>
      <trkpt lat="45.83776" lon="2.90193">
        <ele>825</ele>
        <time>2019-04-18T03:59:49Z</time>
      </trkpt>
      <trkpt lat="45.8378" lon="2.90245">
        <ele>825</ele>
        <time>2019-04-18T04:00:49Z</time>
      </trkpt>
      <trkpt lat="45.83785" lon="2.90267">
        <ele>824</ele>
        <time>2019-04-18T04:01:49Z</time>
      </trkpt>
      <trkpt lat="45.83812" lon="2.90355">
        <ele>824</ele>
        <time>2019-04-18T04:02:49Z</time>
      </trkpt>
      <trkpt lat="45.83835" lon="2.90466">
        <ele>824</ele>
        <time>2019-04-18T04:03:49Z</time>
      </trkpt>
      <trkpt lat="45.83848" lon="2.90498">
        <ele>824</ele>
        <time>2019-04-18T04:04:49Z</time>
      </trkpt>
      <trkpt lat="45.83856" lon="2.9051">
        <ele>825</ele>
        <time>2019-04-18T04:05:49Z</time>
      </trkpt>
      <trkpt lat="45.83863" lon="2.90516">
        <ele>825</ele>
        <time>2019-04-18T04:06:49Z</time>
      </trkpt>
      <trkpt lat="45.83869" lon="2.90515">
        <ele>825</ele>
        <time>2019-04-18T04:07:49Z</time>
      </trkpt>
      <trkpt lat="45.8388" lon="2.90492">
        <ele>826</ele>
        <time>2019-04-18T04:08:49Z</time>
      </trkpt>
      <trkpt lat="45.8389" lon="2.90488">
        <ele>827</ele>
        <time>2019-04-18T04:09:49Z</time>
      </trkpt>
      <trkpt lat="45.83944" lon="2.90486">
        <ele>829</ele>
        <time>2019-04-18T04:10:49Z</time>
      </trkpt>
      <trkpt lat="45.83978" lon="2.9048">
        <ele>831</ele>
        <time>2019-04-18T04:11:49Z</time>
      </trkpt>
      <trkpt lat="45.8401" lon="2.90483">
        <ele>831</ele>
        <time>2019-04-18T04:12:49Z</time>
      </trkpt>
      <trkpt lat="45.84033" lon="2.90488">
        <ele>831</ele>
        <time>2019-04-18T04:13:49Z</time>
      </trkpt>
      <trkpt lat="45.8406" lon="2.90496">
        <ele>831</ele>
        <time>2019-04-18T04:14:49Z</time>
      </trkpt>
      <trkpt lat="45.84114" lon="2.90522">
        <ele>832</ele>
        <time>2019-04-18T04:15:49Z</time>
      </trkpt>
      <trkpt lat="45.8413" lon="2.90526">
        <ele>833</ele>
        <time>2019-04-18T04:16:49Z</time>
      </trkpt>
      <trkpt lat="45.84276" lon="2.90453">
        <ele>833</ele>
        <time>2019-04-18T04:17:49Z</time>
      </trkpt>
      <trkpt lat="45.84311" lon="2.90434">
        <ele>834</ele>
        <time>2019-04-18T04:18:49Z</time>
      </trkpt>
      <trkpt lat="45.84344" lon="2.90408">
        <ele>834</ele>
        <time>2019-04-18T04:19:49Z</time>
      </trkpt>
      <trkpt lat="45.84378" lon="2.90377">
        <ele>833</ele>
        <time>2019-04-18T04:20:49Z</time>
      </trkpt>
      <trkpt lat="45.84411" lon="2.90336">
        <ele>831</ele>
        <time>2019-04-18T04:21:49Z</time>
      </trkpt>
      <trkpt lat="45.84487" lon="2.90212">
        <ele>826</ele>
        <time>2019-04-18T04:22:49Z</time>
      </trkpt>
      <trkpt lat="45.84498" lon="2.90198">
        <ele>826</ele>
        <time>2019-04-18T04:23:49Z</time>
      </trkpt>
      <trkpt lat="45.847" lon="2.9005">
        <ele>823</ele>
        <time>2019-04-18T04:24:49Z</time>
      </trkpt>
      <trkpt lat="45.8472" lon="2.90033">
        <ele>822</ele>
        <time>2019-04-18T04:25:49Z</time>
      </trkpt>
      <trkpt lat="45.84731" lon="2.90021">
        <ele>821</ele>
        <time>2019-04-18T04:26:49Z</time>
      </trkpt>
      <trkpt lat="45.84741" lon="2.90007">
        <ele>820</ele>
        <time>2019-04-18T04:27:49Z</time>
      </trkpt>
      <trkpt lat="45.84758" lon="2.89978">
        <ele>819</ele>
        <time>2019-04-18T04:28:49Z</time>
      </trkpt>
      <trkpt lat="45.84784" lon="2.89919">
        <ele>817</ele>
        <time>2019-04-18T04:29:49Z</time>
      </trkpt>
      <trkpt lat="45.84798" lon="2.89898">
        <ele>816</ele>
        <time>2019-04-18T04:30:49Z</time>
      </trkpt>
      <trkpt lat="45.84814" lon="2.8988">
        <ele>816</ele>
        <time>2019-04-18T04:31:49Z</time>
      </trkpt>
      <trkpt lat="45.84831" lon="2.89865">
        <ele>815</ele>
        <time>2019-04-18T04:32:49Z</time>
      </trkpt>
      <trkpt lat="45.84851" lon="2.89853">
        <ele>815</ele>
        <time>2019-04-18T04:33:49Z</time>
      </trkpt>
      <trkpt lat="45.84837" lon="2.89758">
        <ele>809</ele>
        <time>2019-04-18T04:34:49Z</time>
      </trkpt>
      <trkpt lat="45.84826" lon="2.89654">
        <ele>808</ele>
        <time>2019-04-18T04:35:49Z</time>
      </trkpt>
      <trkpt lat="45.84829" lon="2.8963">
        <ele>810</ele>
        <time>2019-04-18T04:36:49Z</time>
      </trkpt>
      <trkpt lat="45.84881" lon="2.89444">
        <ele>815</ele>
        <time>2019-04-18T04:37:49Z</time>
      </trkpt>
      <trkpt lat="45.84877" lon="2.89358">
        <ele>816</ele>
        <time>2019-04-18T04:38:49Z</time>
      </trkpt>
    </trkseg>
  </trk>
  <trk>
    <name><![CDATA[J4]]></name>
    <trkseg>
      <trkpt lat="45.8488" lon="2.89424">
        <ele>815</ele>
        <time>2019-04-17T09:50:41Z</time>
      </trkpt>
      <trkpt lat="45.84881" lon="2.89444">
        <ele>815</ele>
        <time>2019-04-17T09:51:41Z</time>
      </trkpt>
      <trkpt lat="45.84829" lon="2.8963">
        <ele>810</ele>
        <time>2019-04-17T09:52:41Z</time>
      </trkpt>
      <trkpt lat="45.84826" lon="2.89654">
        <ele>808</ele>
        <time>2019-04-17T09:53:41Z</time>
      </trkpt>
      <trkpt lat="45.84837" lon="2.89758">
        <ele>809</ele>
        <time>2019-04-17T09:54:41Z</time>
      </trkpt>
      <trkpt lat="45.84851" lon="2.89853">
        <ele>815</ele>
        <time>2019-04-17T09:55:41Z</time>
      </trkpt>
      <trkpt lat="45.84831" lon="2.89865">
        <ele>815</ele>
        <time>2019-04-17T09:56:41Z</time>
      </trkpt>
      <trkpt lat="45.84814" lon="2.8988">
        <ele>816</ele>
        <time>2019-04-17T09:57:41Z</time>
      </trkpt>
      <trkpt lat="45.84798" lon="2.89898">
        <ele>816</ele>
        <time>2019-04-17T09:58:41Z</time>
      </trkpt>
      <trkpt lat="45.84784" lon="2.89919">
        <ele>817</ele>
        <time>2019-04-17T09:59:41Z</time>
      </trkpt>
      <trkpt lat="45.84758" lon="2.89978">
        <ele>819</ele>
        <time>2019-04-17T10:00:41Z</time>
      </trkpt>
      <trkpt lat="45.84741" lon="2.90007">
        <ele>820</ele>
        <time>2019-04-17T10:01:41Z</time>
      </trkpt>
      <trkpt lat="45.84731" lon="2.90021">
        <ele>821</ele>
        <time>2019-04-17T10:02:41Z</time>
      </trkpt>
      <trkpt lat="45.8472" lon="2.90033">
        <ele>822</ele>
        <time>2019-04-17T10:03:41Z</time>
      </trkpt>
      <trkpt lat="45.847" lon="2.9005">
        <ele>823</ele>
        <time>2019-04-17T10:04:41Z</time>
      </trkpt>
      <trkpt lat="45.84498" lon="2.90198">
        <ele>826</ele>
        <time>2019-04-17T10:05:41Z</time>
      </trkpt>
      <trkpt lat="45.84487" lon="2.90212">
        <ele>826</ele>
        <time>2019-04-17T10:06:41Z</time>
      </trkpt>
      <trkpt lat="45.84411" lon="2.90336">
        <ele>831</ele>
        <time>2019-04-17T10:07:41Z</time>
      </trkpt>
      <trkpt lat="45.84378" lon="2.90377">
        <ele>833</ele>
        <time>2019-04-17T10:08:41Z</time>
      </trkpt>
      <trkpt lat="45.84344" lon="2.90408">
        <ele>834</ele>
        <time>2019-04-17T10:09:41Z</time>
      </trkpt>
      <trkpt lat="45.84311" lon="2.90434">
        <ele>834</ele>
        <time>2019-04-17T10:10:41Z</time>
      </trkpt>
      <trkpt lat="45.84276" lon="2.90453">
        <ele>833</ele>
        <time>2019-04-17T10:11:41Z</time>
      </trkpt>
      <trkpt lat="45.83935" lon="2.90623">
        <ele>829</ele>
        <time>2019-04-17T10:12:41Z</time>
      </trkpt>
      <trkpt lat="45.8391" lon="2.9064">
        <ele>827</ele>
        <time>2019-04-17T10:13:41Z</time>
      </trkpt>
      <trkpt lat="45.83894" lon="2.90659">
        <ele>826</ele>
        <time>2019-04-17T10:14:41Z</time>
      </trkpt>
      <trkpt lat="45.83703" lon="2.90968">
        <ele>824</ele>
        <time>2019-04-17T10:15:41Z</time>
      </trkpt>
      <trkpt lat="45.83678" lon="2.90999">
        <ele>824</ele>
        <time>2019-04-17T10:16:41Z</time>
      </trkpt>
      <trkpt lat="45.83664" lon="2.91011">
        <ele>824</ele>
        <time>2019-04-17T10:17:41Z</time>
      </trkpt>
      <trkpt lat="45.83649" lon="2.9102">
        <ele>824</ele>
        <time>2019-04-17T10:18:41Z</time>
      </trkpt>
      <trkpt lat="45.83634" lon="2.91025">
        <ele>824</ele>
        <time>2019-04-17T10:19:41Z</time>
      </trkpt>
      <trkpt lat="45.83589" lon="2.91032">
        <ele>824</ele>
        <time>2019-04-17T10:20:41Z</time>
      </trkpt>
      <trkpt lat="45.83358" lon="2.91046">
        <ele>822</ele>
        <time>2019-04-17T10:21:41Z</time>
      </trkpt>
      <trkpt lat="45.83344" lon="2.91048">
        <ele>822</ele>
        <time>2019-04-17T10:22:41Z</time>
      </trkpt>
      <trkpt lat="45.8333" lon="2.91047">
        <ele>822</ele>
        <time>2019-04-17T10:23:41Z</time>
      </trkpt>
      <trkpt lat="45.83302" lon="2.91041">
        <ele>821</ele>
        <time>2019-04-17T10:24:41Z</time>
      </trkpt>
      <trkpt lat="45.83277" lon="2.91027">
        <ele>821</ele>
        <time>2019-04-17T10:25:41Z</time>
      </trkpt>
      <trkpt lat="45.83254" lon="2.91006">
        <ele>821</ele>
        <time>2019-04-17T10:26:41Z</time>
      </trkpt>
      <trkpt lat="45.832" lon="2.90947">
        <ele>820</ele>
        <time>2019-04-17T10:27:41Z</time>
      </trkpt>
      <trkpt lat="45.83186" lon="2.90933">
        <ele>820</ele>
        <time>2019-04-17T10:28:41Z</time>
      </trkpt>
      <trkpt lat="45.83157" lon="2.90916">
        <ele>820</ele>
        <time>2019-04-17T10:29:41Z</time>
      </trkpt>
      <trkpt lat="45.83147" lon="2.90911">
        <ele>821</ele>
        <time>2019-04-17T10:30:41Z</time>
      </trkpt>
      <trkpt lat="45.83127" lon="2.90907">
        <ele>822</ele>
        <time>2019-04-17T10:31:41Z</time>
      </trkpt>
      <trkpt lat="45.83113" lon="2.90907">
        <ele>823</ele>
        <time>2019-04-17T10:32:41Z</time>
      </trkpt>
      <trkpt lat="45.83087" lon="2.90912">
        <ele>824</ele>
        <time>2019-04-17T10:33:41Z</time>
      </trkpt>
      <trkpt lat="45.83069" lon="2.90921">
        <ele>825</ele>
        <time>2019-04-17T10:34:41Z</time>
      </trkpt>
      <trkpt lat="45.83048" lon="2.90935">
        <ele>826</ele>
        <time>2019-04-17T10:35:41Z</time>
      </trkpt>
      <trkpt lat="45.83038" lon="2.90944">
        <ele>827</ele>
        <time>2019-04-17T10:36:41Z</time>
      </trkpt>
      <trkpt lat="45.8302" lon="2.90966">
        <ele>828</ele>
        <time>2019-04-17T10:37:41Z</time>
      </trkpt>
      <trkpt lat="45.82979" lon="2.91021">
        <ele>830</ele>
        <time>2019-04-17T10:38:41Z</time>
      </trkpt>
      <trkpt lat="45.82969" lon="2.91032">
        <ele>831</ele>
        <time>2019-04-17T10:39:41Z</time>
      </trkpt>
      <trkpt lat="45.82951" lon="2.91047">
        <ele>832</ele>
        <time>2019-04-17T10:40:41Z</time>
      </trkpt>
      <trkpt lat="45.82929" lon="2.91059">
        <ele>833</ele>
        <time>2019-04-17T10:41:41Z</time>
      </trkpt>
      <trkpt lat="45.82894" lon="2.91066">
        <ele>834</ele>
        <time>2019-04-17T10:42:41Z</time>
      </trkpt>
      <trkpt lat="45.82644" lon="2.91094">
        <ele>836</ele>
        <time>2019-04-17T10:43:41Z</time>
      </trkpt>
      <trkpt lat="45.82628" lon="2.91097">
        <ele>835</ele>
        <time>2019-04-17T10:44:41Z</time>
      </trkpt>
      <trkpt lat="45.82612" lon="2.91103">
        <ele>834</ele>
        <time>2019-04-17T10:45:41Z</time>
      </trkpt>
      <trkpt lat="45.82597" lon="2.91112">
        <ele>833</ele>
        <time>2019-04-17T10:46:41Z</time>
      </trkpt>
      <trkpt lat="45.8251" lon="2.91174">
        <ele>830</ele>
        <time>2019-04-17T10:47:41Z</time>
      </trkpt>
      <trkpt lat="45.82479" lon="2.91193">
        <ele>830</ele>
        <time>2019-04-17T10:48:41Z</time>
      </trkpt>
      <trkpt lat="45.82465" lon="2.91197">
        <ele>830</ele>
        <time>2019-04-17T10:49:41Z</time>
      </trkpt>
      <trkpt lat="45.8245" lon="2.91195">
        <ele>830</ele>
        <time>2019-04-17T10:50:41Z</time>
      </trkpt>
      <trkpt lat="45.8244" lon="2.91187">
        <ele>830</ele>
        <time>2019-04-17T10:51:41Z</time>
      </trkpt>
      <trkpt lat="45.82435" lon="2.91178">
        <ele>830</ele>
        <time>2019-04-17T10:52:41Z</time>
      </trkpt>
      <trkpt lat="45.82426" lon="2.91172">
        <ele>829</ele>
        <time>2019-04-17T10:53:41Z</time>
      </trkpt>
      <trkpt lat="45.82417" lon="2.91174">
        <ele>829</ele>
        <time>2019-04-17T10:54:41Z</time>
      </trkpt>
      <trkpt lat="45.8241" lon="2.9118">
        <ele>830</ele>
        <time>2019-04-17T10:55:41Z</time>
      </trkpt>
      <trkpt lat="45.82404" lon="2.91192">
        <ele>831</ele>
        <time>2019-04-17T10:56:41Z</time>
      </trkpt>
      <trkpt lat="45.82403" lon="2.91201">
        <ele>832</ele>
        <time>2019-04-17T10:57:41Z</time>
      </trkpt>
      <trkpt lat="45.82406" lon="2.91218">
        <ele>832</ele>
        <time>2019-04-17T10:58:41Z</time>
      </trkpt>
      <trkpt lat="45.82406" lon="2.91232">
        <ele>833</ele>
        <time>2019-04-17T10:59:41Z</time>
      </trkpt>
      <trkpt lat="45.8239" lon="2.91278">
        <ele>835</ele>
        <time>2019-04-17T11:00:41Z</time>
      </trkpt>
      <trkpt lat="45.82387" lon="2.91292">
        <ele>836</ele>
        <time>2019-04-17T11:01:41Z</time>
      </trkpt>
      <trkpt lat="45.82235" lon="2.91724">
        <ele>854</ele>
        <time>2019-04-17T11:02:41Z</time>
      </trkpt>
      <trkpt lat="45.8213" lon="2.92026">
        <ele>865</ele>
        <time>2019-04-17T11:03:41Z</time>
      </trkpt>
      <trkpt lat="45.81989" lon="2.92427">
        <ele>884</ele>
        <time>2019-04-17T11:04:41Z</time>
      </trkpt>
      <trkpt lat="45.81968" lon="2.92499">
        <ele>888</ele>
        <time>2019-04-17T11:05:41Z</time>
      </trkpt>
      <trkpt lat="45.81963" lon="2.92551">
        <ele>891</ele>
        <time>2019-04-17T11:06:41Z</time>
      </trkpt>
      <trkpt lat="45.81963" lon="2.92629">
        <ele>895</ele>
        <time>2019-04-17T11:07:41Z</time>
      </trkpt>
      <trkpt lat="45.81978" lon="2.92803">
        <ele>904</ele>
        <time>2019-04-17T11:08:41Z</time>
      </trkpt>
      <trkpt lat="45.81976" lon="2.92858">
        <ele>906</ele>
        <time>2019-04-17T11:09:41Z</time>
      </trkpt>
      <trkpt lat="45.8197" lon="2.92901">
        <ele>908</ele>
        <time>2019-04-17T11:10:41Z</time>
      </trkpt>
      <trkpt lat="45.81961" lon="2.92949">
        <ele>910</ele>
        <time>2019-04-17T11:11:41Z</time>
      </trkpt>
      <trkpt lat="45.81907" lon="2.93134">
        <ele>914</ele>
        <time>2019-04-17T11:12:41Z</time>
      </trkpt>
      <trkpt lat="45.8189" lon="2.93199">
        <ele>918</ele>
        <time>2019-04-17T11:13:41Z</time>
      </trkpt>
      <trkpt lat="45.81877" lon="2.93254">
        <ele>922</ele>
        <time>2019-04-17T11:14:41Z</time>
      </trkpt>
      <trkpt lat="45.81765" lon="2.93933">
        <ele>959</ele>
        <time>2019-04-17T11:15:41Z</time>
      </trkpt>
      <trkpt lat="45.8142" lon="2.95106">
        <ele>958</ele>
        <time>2019-04-17T11:16:41Z</time>
      </trkpt>
      <trkpt lat="45.81404" lon="2.9515">
        <ele>959</ele>
        <time>2019-04-17T11:17:41Z</time>
      </trkpt>
      <trkpt lat="45.81384" lon="2.95213">
        <ele>959</ele>
        <time>2019-04-17T11:18:41Z</time>
      </trkpt>
      <trkpt lat="45.81378" lon="2.95227">
        <ele>960</ele>
        <time>2019-04-17T11:19:41Z</time>
      </trkpt>
      <trkpt lat="45.81372" lon="2.95236">
        <ele>960</ele>
        <time>2019-04-17T11:20:41Z</time>
      </trkpt>
      <trkpt lat="45.81362" lon="2.95247">
        <ele>961</ele>
        <time>2019-04-17T11:21:41Z</time>
      </trkpt>
      <trkpt lat="45.81348" lon="2.95252">
        <ele>962</ele>
        <time>2019-04-17T11:22:41Z</time>
      </trkpt>
      <trkpt lat="45.81332" lon="2.95242">
        <ele>961</ele>
        <time>2019-04-17T11:23:41Z</time>
      </trkpt>
      <trkpt lat="45.81323" lon="2.95229">
        <ele>961</ele>
        <time>2019-04-17T11:24:41Z</time>
      </trkpt>
      <trkpt lat="45.81274" lon="2.95051">
        <ele>956</ele>
        <time>2019-04-17T11:25:41Z</time>
      </trkpt>
      <trkpt lat="45.81273" lon="2.95033">
        <ele>955</ele>
        <time>2019-04-17T11:26:41Z</time>
      </trkpt>
      <trkpt lat="45.81275" lon="2.95018">
        <ele>955</ele>
        <time>2019-04-17T11:27:41Z</time>
      </trkpt>
      <trkpt lat="45.81274" lon="2.95003">
        <ele>954</ele>
        <time>2019-04-17T11:28:41Z</time>
      </trkpt>
      <trkpt lat="45.81271" lon="2.94999">
        <ele>954</ele>
        <time>2019-04-17T11:29:41Z</time>
      </trkpt>
      <trkpt lat="45.81263" lon="2.94995">
        <ele>954</ele>
        <time>2019-04-17T11:30:41Z</time>
      </trkpt>
      <trkpt lat="45.81248" lon="2.94978">
        <ele>953</ele>
        <time>2019-04-17T11:31:41Z</time>
      </trkpt>
      <trkpt lat="45.8123" lon="2.94904">
        <ele>951</ele>
        <time>2019-04-17T11:32:41Z</time>
      </trkpt>
      <trkpt lat="45.81213" lon="2.94868">
        <ele>951</ele>
        <time>2019-04-17T11:33:41Z</time>
      </trkpt>
      <trkpt lat="45.812" lon="2.94833">
        <ele>950</ele>
        <time>2019-04-17T11:34:41Z</time>
      </trkpt>
      <trkpt lat="45.81195" lon="2.94805">
        <ele>949</ele>
        <time>2019-04-17T11:35:41Z</time>
      </trkpt>
      <trkpt lat="45.81193" lon="2.94781">
        <ele>948</ele>
        <time>2019-04-17T11:36:41Z</time>
      </trkpt>
      <trkpt lat="45.81195" lon="2.94805">
        <ele>949</ele>
        <time>2019-04-17T11:37:41Z</time>
      </trkpt>
      <trkpt lat="45.812" lon="2.94833">
        <ele>950</ele>
        <time>2019-04-17T11:38:41Z</time>
      </trkpt>
      <trkpt lat="45.81213" lon="2.94868">
        <ele>951</ele>
        <time>2019-04-17T11:39:41Z</time>
      </trkpt>
      <trkpt lat="45.8123" lon="2.94904">
        <ele>951</ele>
        <time>2019-04-17T11:40:41Z</time>
      </trkpt>
      <trkpt lat="45.81248" lon="2.94978">
        <ele>953</ele>
        <time>2019-04-17T11:41:41Z</time>
      </trkpt>
      <trkpt lat="45.8125" lon="2.95003">
        <ele>954</ele>
        <time>2019-04-17T11:42:41Z</time>
      </trkpt>
      <trkpt lat="45.81247" lon="2.95013">
        <ele>955</ele>
        <time>2019-04-17T11:43:41Z</time>
      </trkpt>
      <trkpt lat="45.81248" lon="2.95021">
        <ele>955</ele>
        <time>2019-04-17T11:44:41Z</time>
      </trkpt>
      <trkpt lat="45.81258" lon="2.95065">
        <ele>957</ele>
        <time>2019-04-17T11:45:41Z</time>
      </trkpt>
      <trkpt lat="45.81304" lon="2.95228">
        <ele>963</ele>
        <time>2019-04-17T11:46:41Z</time>
      </trkpt>
      <trkpt lat="45.81329" lon="2.95285">
        <ele>964</ele>
        <time>2019-04-17T11:47:41Z</time>
      </trkpt>
      <trkpt lat="45.81327" lon="2.95296">
        <ele>964</ele>
        <time>2019-04-17T11:48:41Z</time>
      </trkpt>
      <trkpt lat="45.8133" lon="2.95318">
        <ele>965</ele>
        <time>2019-04-17T11:49:41Z</time>
      </trkpt>
      <trkpt lat="45.81336" lon="2.95332">
        <ele>965</ele>
        <time>2019-04-17T11:50:41Z</time>
      </trkpt>
      <trkpt lat="45.81346" lon="2.95345">
        <ele>964</ele>
        <time>2019-04-17T11:51:41Z</time>
      </trkpt>
      <trkpt lat="45.8136" lon="2.9535">
        <ele>963</ele>
        <time>2019-04-17T11:52:41Z</time>
      </trkpt>
      <trkpt lat="45.81368" lon="2.95351">
        <ele>962</ele>
        <time>2019-04-17T11:53:41Z</time>
      </trkpt>
      <trkpt lat="45.81381" lon="2.95346">
        <ele>961</ele>
        <time>2019-04-17T11:54:41Z</time>
      </trkpt>
      <trkpt lat="45.81387" lon="2.95348">
        <ele>960</ele>
        <time>2019-04-17T11:55:41Z</time>
      </trkpt>
      <trkpt lat="45.814" lon="2.95359">
        <ele>958</ele>
        <time>2019-04-17T11:56:41Z</time>
      </trkpt>
      <trkpt lat="45.81401" lon="2.95397">
        <ele>956</ele>
        <time>2019-04-17T11:57:41Z</time>
      </trkpt>
      <trkpt lat="45.8139" lon="2.95407">
        <ele>958</ele>
        <time>2019-04-17T11:58:41Z</time>
      </trkpt>
      <trkpt lat="45.81368" lon="2.95422">
        <ele>961</ele>
        <time>2019-04-17T11:59:41Z</time>
      </trkpt>
      <trkpt lat="45.81359" lon="2.95438">
        <ele>962</ele>
        <time>2019-04-17T12:00:41Z</time>
      </trkpt>
      <trkpt lat="45.81355" lon="2.95461">
        <ele>962</ele>
        <time>2019-04-17T12:01:41Z</time>
      </trkpt>
      <trkpt lat="45.81422" lon="2.95999">
        <ele>969</ele>
        <time>2019-04-17T12:02:41Z</time>
      </trkpt>
      <trkpt lat="45.81454" lon="2.96113">
        <ele>966</ele>
        <time>2019-04-17T12:03:41Z</time>
      </trkpt>
      <trkpt lat="45.81467" lon="2.96282">
        <ele>969</ele>
        <time>2019-04-17T12:04:41Z</time>
      </trkpt>
      <trkpt lat="45.815" lon="2.96379">
        <ele>968</ele>
        <time>2019-04-17T12:05:41Z</time>
      </trkpt>
      <trkpt lat="45.81564" lon="2.96561">
        <ele>968</ele>
        <time>2019-04-17T12:06:41Z</time>
      </trkpt>
      <trkpt lat="45.81606" lon="2.96718">
        <ele>969</ele>
        <time>2019-04-17T12:07:41Z</time>
      </trkpt>
      <trkpt lat="45.8163" lon="2.96781">
        <ele>971</ele>
        <time>2019-04-17T12:08:41Z</time>
      </trkpt>
      <trkpt lat="45.8167" lon="2.96875">
        <ele>972</ele>
        <time>2019-04-17T12:09:41Z</time>
      </trkpt>
      <trkpt lat="45.81777" lon="2.9715">
        <ele>964</ele>
        <time>2019-04-17T12:10:41Z</time>
      </trkpt>
      <trkpt lat="45.81886" lon="2.97416">
        <ele>957</ele>
        <time>2019-04-17T12:11:41Z</time>
      </trkpt>
      <trkpt lat="45.82041" lon="2.97647">
        <ele>955</ele>
        <time>2019-04-17T12:12:41Z</time>
      </trkpt>
      <trkpt lat="45.82082" lon="2.97735">
        <ele>949</ele>
        <time>2019-04-17T12:13:41Z</time>
      </trkpt>
      <trkpt lat="45.82095" lon="2.97747">
        <ele>948</ele>
        <time>2019-04-17T12:14:41Z</time>
      </trkpt>
      <trkpt lat="45.82192" lon="2.97779">
        <ele>937</ele>
        <time>2019-04-17T12:15:41Z</time>
      </trkpt>
      <trkpt lat="45.82258" lon="2.97809">
        <ele>932</ele>
        <time>2019-04-17T12:16:41Z</time>
      </trkpt>
      <trkpt lat="45.82288" lon="2.97863">
        <ele>930</ele>
        <time>2019-04-17T12:17:41Z</time>
      </trkpt>
      <trkpt lat="45.82325" lon="2.97957">
        <ele>926</ele>
        <time>2019-04-17T12:18:41Z</time>
      </trkpt>
      <trkpt lat="45.82323" lon="2.98025">
        <ele>926</ele>
        <time>2019-04-17T12:19:41Z</time>
      </trkpt>
      <trkpt lat="45.82332" lon="2.9805">
        <ele>925</ele>
        <time>2019-04-17T12:20:41Z</time>
      </trkpt>
      <trkpt lat="45.82345" lon="2.98059">
        <ele>924</ele>
        <time>2019-04-17T12:21:41Z</time>
      </trkpt>
      <trkpt lat="45.8238" lon="2.98052">
        <ele>923</ele>
        <time>2019-04-17T12:22:41Z</time>
      </trkpt>
      <trkpt lat="45.82418" lon="2.98039">
        <ele>921</ele>
        <time>2019-04-17T12:23:41Z</time>
      </trkpt>
      <trkpt lat="45.82443" lon="2.98027">
        <ele>919</ele>
        <time>2019-04-17T12:24:41Z</time>
      </trkpt>
      <trkpt lat="45.82451" lon="2.98019">
        <ele>918</ele>
        <time>2019-04-17T12:25:41Z</time>
      </trkpt>
      <trkpt lat="45.82469" lon="2.97985">
        <ele>916</ele>
        <time>2019-04-17T12:26:41Z</time>
      </trkpt>
      <trkpt lat="45.82485" lon="2.97975">
        <ele>915</ele>
        <time>2019-04-17T12:27:41Z</time>
      </trkpt>
      <trkpt lat="45.82494" lon="2.97976">
        <ele>914</ele>
        <time>2019-04-17T12:28:41Z</time>
      </trkpt>
      <trkpt lat="45.82501" lon="2.9798">
        <ele>913</ele>
        <time>2019-04-17T12:29:41Z</time>
      </trkpt>
      <trkpt lat="45.82507" lon="2.97986">
        <ele>912</ele>
        <time>2019-04-17T12:30:41Z</time>
      </trkpt>
      <trkpt lat="45.82512" lon="2.97998">
        <ele>911</ele>
        <time>2019-04-17T12:31:41Z</time>
      </trkpt>
      <trkpt lat="45.82513" lon="2.98011">
        <ele>911</ele>
        <time>2019-04-17T12:32:41Z</time>
      </trkpt>
      <trkpt lat="45.82512" lon="2.98024">
        <ele>912</ele>
        <time>2019-04-17T12:33:41Z</time>
      </trkpt>
      <trkpt lat="45.82501" lon="2.98047">
        <ele>914</ele>
        <time>2019-04-17T12:34:41Z</time>
      </trkpt>
      <trkpt lat="45.82495" lon="2.98082">
        <ele>915</ele>
        <time>2019-04-17T12:35:41Z</time>
      </trkpt>
      <trkpt lat="45.82495" lon="2.98097">
        <ele>915</ele>
        <time>2019-04-17T12:36:41Z</time>
      </trkpt>
      <trkpt lat="45.82503" lon="2.98119">
        <ele>914</ele>
        <time>2019-04-17T12:37:41Z</time>
      </trkpt>
      <trkpt lat="45.82511" lon="2.98122">
        <ele>913</ele>
        <time>2019-04-17T12:38:41Z</time>
      </trkpt>
      <trkpt lat="45.82532" lon="2.98125">
        <ele>910</ele>
        <time>2019-04-17T12:39:41Z</time>
      </trkpt>
      <trkpt lat="45.82543" lon="2.98132">
        <ele>908</ele>
        <time>2019-04-17T12:40:41Z</time>
      </trkpt>
      <trkpt lat="45.82566" lon="2.98158">
        <ele>904</ele>
        <time>2019-04-17T12:41:41Z</time>
      </trkpt>
      <trkpt lat="45.82587" lon="2.98191">
        <ele>902</ele>
        <time>2019-04-17T12:42:41Z</time>
      </trkpt>
      <trkpt lat="45.82607" lon="2.98248">
        <ele>900</ele>
        <time>2019-04-17T12:43:41Z</time>
      </trkpt>
      <trkpt lat="45.82615" lon="2.98263">
        <ele>899</ele>
        <time>2019-04-17T12:44:41Z</time>
      </trkpt>
      <trkpt lat="45.82632" lon="2.98284">
        <ele>896</ele>
        <time>2019-04-17T12:45:41Z</time>
      </trkpt>
      <trkpt lat="45.82653" lon="2.98302">
        <ele>893</ele>
        <time>2019-04-17T12:46:41Z</time>
      </trkpt>
      <trkpt lat="45.82695" lon="2.98343">
        <ele>890</ele>
        <time>2019-04-17T12:47:41Z</time>
      </trkpt>
      <trkpt lat="45.82748" lon="2.98422">
        <ele>885</ele>
        <time>2019-04-17T12:48:41Z</time>
      </trkpt>
      <trkpt lat="45.82807" lon="2.98516">
        <ele>885</ele>
        <time>2019-04-17T12:49:41Z</time>
      </trkpt>
      <trkpt lat="45.82816" lon="2.98534">
        <ele>885</ele>
        <time>2019-04-17T12:50:41Z</time>
      </trkpt>
      <trkpt lat="45.82852" lon="2.98627">
        <ele>883</ele>
        <time>2019-04-17T12:51:41Z</time>
      </trkpt>
      <trkpt lat="45.82871" lon="2.98694">
        <ele>880</ele>
        <time>2019-04-17T12:52:41Z</time>
      </trkpt>
      <trkpt lat="45.82881" lon="2.98757">
        <ele>878</ele>
        <time>2019-04-17T12:53:41Z</time>
      </trkpt>
      <trkpt lat="45.8289" lon="2.9885">
        <ele>876</ele>
        <time>2019-04-17T12:54:41Z</time>
      </trkpt>
      <trkpt lat="45.82903" lon="2.98953">
        <ele>871</ele>
        <time>2019-04-17T12:55:41Z</time>
      </trkpt>
      <trkpt lat="45.82917" lon="2.99013">
        <ele>870</ele>
        <time>2019-04-17T12:56:41Z</time>
      </trkpt>
      <trkpt lat="45.82971" lon="2.99151">
        <ele>865</ele>
        <time>2019-04-17T12:57:41Z</time>
      </trkpt>
      <trkpt lat="45.83031" lon="2.99288">
        <ele>864</ele>
        <time>2019-04-17T12:58:41Z</time>
      </trkpt>
      <trkpt lat="45.83111" lon="2.99539">
        <ele>864</ele>
        <time>2019-04-17T12:59:41Z</time>
      </trkpt>
      <trkpt lat="45.83234" lon="2.99693">
        <ele>859</ele>
        <time>2019-04-17T13:00:41Z</time>
      </trkpt>
      <trkpt lat="45.83258" lon="2.99735">
        <ele>859</ele>
        <time>2019-04-17T13:01:41Z</time>
      </trkpt>
      <trkpt lat="45.83278" lon="2.99794">
        <ele>858</ele>
        <time>2019-04-17T13:02:41Z</time>
      </trkpt>
      <trkpt lat="45.83292" lon="2.99867">
        <ele>858</ele>
        <time>2019-04-17T13:03:41Z</time>
      </trkpt>
      <trkpt lat="45.83296" lon="2.999">
        <ele>858</ele>
        <time>2019-04-17T13:04:41Z</time>
      </trkpt>
      <trkpt lat="45.83312" lon="2.99985">
        <ele>857</ele>
        <time>2019-04-17T13:05:41Z</time>
      </trkpt>
      <trkpt lat="45.83318" lon="3.00044">
        <ele>857</ele>
        <time>2019-04-17T13:06:41Z</time>
      </trkpt>
      <trkpt lat="45.83309" lon="3.00299">
        <ele>850</ele>
        <time>2019-04-17T13:07:41Z</time>
      </trkpt>
      <trkpt lat="45.83303" lon="3.00367">
        <ele>848</ele>
        <time>2019-04-17T13:08:41Z</time>
      </trkpt>
      <trkpt lat="45.83286" lon="3.00495">
        <ele>846</ele>
        <time>2019-04-17T13:09:41Z</time>
      </trkpt>
      <trkpt lat="45.83284" lon="3.00526">
        <ele>845</ele>
        <time>2019-04-17T13:10:41Z</time>
      </trkpt>
      <trkpt lat="45.83273" lon="3.01126">
        <ele>832</ele>
        <time>2019-04-17T13:11:41Z</time>
      </trkpt>
      <trkpt lat="45.83263" lon="3.01171">
        <ele>829</ele>
        <time>2019-04-17T13:12:41Z</time>
      </trkpt>
      <trkpt lat="45.83243" lon="3.01212">
        <ele>825</ele>
        <time>2019-04-17T13:13:41Z</time>
      </trkpt>
      <trkpt lat="45.83207" lon="3.01266">
        <ele>821</ele>
        <time>2019-04-17T13:14:41Z</time>
      </trkpt>
      <trkpt lat="45.83134" lon="3.01363">
        <ele>814</ele>
        <time>2019-04-17T13:15:41Z</time>
      </trkpt>
      <trkpt lat="45.83116" lon="3.01382">
        <ele>813</ele>
        <time>2019-04-17T13:16:41Z</time>
      </trkpt>
      <trkpt lat="45.83096" lon="3.01396">
        <ele>812</ele>
        <time>2019-04-17T13:17:41Z</time>
      </trkpt>
      <trkpt lat="45.83077" lon="3.01414">
        <ele>810</ele>
        <time>2019-04-17T13:18:41Z</time>
      </trkpt>
      <trkpt lat="45.83063" lon="3.01417">
        <ele>809</ele>
        <time>2019-04-17T13:19:41Z</time>
      </trkpt>
      <trkpt lat="45.83057" lon="3.01421">
        <ele>809</ele>
        <time>2019-04-17T13:20:41Z</time>
      </trkpt>
      <trkpt lat="45.83046" lon="3.01443">
        <ele>806</ele>
        <time>2019-04-17T13:21:41Z</time>
      </trkpt>
      <trkpt lat="45.83042" lon="3.01446">
        <ele>805</ele>
        <time>2019-04-17T13:22:41Z</time>
      </trkpt>
      <trkpt lat="45.83037" lon="3.01448">
        <ele>805</ele>
        <time>2019-04-17T13:23:41Z</time>
      </trkpt>
      <trkpt lat="45.83001" lon="3.01446">
        <ele>803</ele>
        <time>2019-04-17T13:24:41Z</time>
      </trkpt>
      <trkpt lat="45.82993" lon="3.0145">
        <ele>803</ele>
        <time>2019-04-17T13:25:41Z</time>
      </trkpt>
      <trkpt lat="45.82964" lon="3.01476">
        <ele>799</ele>
        <time>2019-04-17T13:26:41Z</time>
      </trkpt>
      <trkpt lat="45.82959" lon="3.01487">
        <ele>798</ele>
        <time>2019-04-17T13:27:41Z</time>
      </trkpt>
      <trkpt lat="45.8296" lon="3.01503">
        <ele>796</ele>
        <time>2019-04-17T13:28:41Z</time>
      </trkpt>
      <trkpt lat="45.82967" lon="3.01528">
        <ele>794</ele>
        <time>2019-04-17T13:29:41Z</time>
      </trkpt>
      <trkpt lat="45.82976" lon="3.01546">
        <ele>792</ele>
        <time>2019-04-17T13:30:41Z</time>
      </trkpt>
      <trkpt lat="45.82984" lon="3.01557">
        <ele>791</ele>
        <time>2019-04-17T13:31:41Z</time>
      </trkpt>
      <trkpt lat="45.83024" lon="3.01583">
        <ele>789</ele>
        <time>2019-04-17T13:32:41Z</time>
      </trkpt>
      <trkpt lat="45.83037" lon="3.01598">
        <ele>788</ele>
        <time>2019-04-17T13:33:41Z</time>
      </trkpt>
      <trkpt lat="45.83079" lon="3.01629">
        <ele>787</ele>
        <time>2019-04-17T13:34:41Z</time>
      </trkpt>
      <trkpt lat="45.83087" lon="3.0164">
        <ele>786</ele>
        <time>2019-04-17T13:35:41Z</time>
      </trkpt>
      <trkpt lat="45.8309" lon="3.01652">
        <ele>785</ele>
        <time>2019-04-17T13:36:41Z</time>
      </trkpt>
      <trkpt lat="45.83099" lon="3.01655">
        <ele>785</ele>
        <time>2019-04-17T13:37:41Z</time>
      </trkpt>
      <trkpt lat="45.83107" lon="3.01665">
        <ele>785</ele>
        <time>2019-04-17T13:38:41Z</time>
      </trkpt>
      <trkpt lat="45.83179" lon="3.01809">
        <ele>776</ele>
        <time>2019-04-17T13:39:41Z</time>
      </trkpt>
      <trkpt lat="45.83193" lon="3.01822">
        <ele>775</ele>
        <time>2019-04-17T13:40:41Z</time>
      </trkpt>
      <trkpt lat="45.83212" lon="3.01827">
        <ele>773</ele>
        <time>2019-04-17T13:41:41Z</time>
      </trkpt>
      <trkpt lat="45.83323" lon="3.01795">
        <ele>767</ele>
        <time>2019-04-17T13:42:41Z</time>
      </trkpt>
      <trkpt lat="45.83345" lon="3.01783">
        <ele>765</ele>
        <time>2019-04-17T13:43:41Z</time>
      </trkpt>
      <trkpt lat="45.83372" lon="3.01762">
        <ele>764</ele>
        <time>2019-04-17T13:44:41Z</time>
      </trkpt>
      <trkpt lat="45.83382" lon="3.01763">
        <ele>762</ele>
        <time>2019-04-17T13:45:41Z</time>
      </trkpt>
      <trkpt lat="45.83392" lon="3.01767">
        <ele>761</ele>
        <time>2019-04-17T13:46:41Z</time>
      </trkpt>
      <trkpt lat="45.83442" lon="3.0183">
        <ele>755</ele>
        <time>2019-04-17T13:47:41Z</time>
      </trkpt>
      <trkpt lat="45.83465" lon="3.01849">
        <ele>752</ele>
        <time>2019-04-17T13:48:41Z</time>
      </trkpt>
      <trkpt lat="45.83502" lon="3.01871">
        <ele>749</ele>
        <time>2019-04-17T13:49:41Z</time>
      </trkpt>
      <trkpt lat="45.83517" lon="3.01886">
        <ele>747</ele>
        <time>2019-04-17T13:50:41Z</time>
      </trkpt>
      <trkpt lat="45.83525" lon="3.01905">
        <ele>745</ele>
        <time>2019-04-17T13:51:41Z</time>
      </trkpt>
      <trkpt lat="45.83527" lon="3.01925">
        <ele>744</ele>
        <time>2019-04-17T13:52:41Z</time>
      </trkpt>
      <trkpt lat="45.83528" lon="3.01977">
        <ele>740</ele>
        <time>2019-04-17T13:53:41Z</time>
      </trkpt>
      <trkpt lat="45.83526" lon="3.02005">
        <ele>739</ele>
        <time>2019-04-17T13:54:41Z</time>
      </trkpt>
      <trkpt lat="45.8352" lon="3.02021">
        <ele>737</ele>
        <time>2019-04-17T13:55:41Z</time>
      </trkpt>
      <trkpt lat="45.83511" lon="3.0203">
        <ele>737</ele>
        <time>2019-04-17T13:56:41Z</time>
      </trkpt>
      <trkpt lat="45.83501" lon="3.02033">
        <ele>737</ele>
        <time>2019-04-17T13:57:41Z</time>
      </trkpt>
      <trkpt lat="45.83492" lon="3.02032">
        <ele>737</ele>
        <time>2019-04-17T13:58:41Z</time>
      </trkpt>
      <trkpt lat="45.83467" lon="3.02023">
        <ele>738</ele>
        <time>2019-04-17T13:59:41Z</time>
      </trkpt>
      <trkpt lat="45.83455" lon="3.02023">
        <ele>738</ele>
        <time>2019-04-17T14:00:41Z</time>
      </trkpt>
      <trkpt lat="45.83445" lon="3.02033">
        <ele>737</ele>
        <time>2019-04-17T14:01:41Z</time>
      </trkpt>
      <trkpt lat="45.83437" lon="3.02047">
        <ele>735</ele>
        <time>2019-04-17T14:02:41Z</time>
      </trkpt>
      <trkpt lat="45.83436" lon="3.02064">
        <ele>733</ele>
        <time>2019-04-17T14:03:41Z</time>
      </trkpt>
      <trkpt lat="45.83439" lon="3.02078">
        <ele>731</ele>
        <time>2019-04-17T14:04:41Z</time>
      </trkpt>
      <trkpt lat="45.83447" lon="3.02092">
        <ele>729</ele>
        <time>2019-04-17T14:05:41Z</time>
      </trkpt>
      <trkpt lat="45.83461" lon="3.02101">
        <ele>728</ele>
        <time>2019-04-17T14:06:41Z</time>
      </trkpt>
      <trkpt lat="45.83515" lon="3.02118">
        <ele>725</ele>
        <time>2019-04-17T14:07:41Z</time>
      </trkpt>
      <trkpt lat="45.83569" lon="3.02131">
        <ele>721</ele>
        <time>2019-04-17T14:08:41Z</time>
      </trkpt>
      <trkpt lat="45.83582" lon="3.02132">
        <ele>720</ele>
        <time>2019-04-17T14:09:41Z</time>
      </trkpt>
      <trkpt lat="45.83591" lon="3.0213">
        <ele>720</ele>
        <time>2019-04-17T14:10:41Z</time>
      </trkpt>
      <trkpt lat="45.83618" lon="3.02091">
        <ele>722</ele>
        <time>2019-04-17T14:11:41Z</time>
      </trkpt>
      <trkpt lat="45.83627" lon="3.02085">
        <ele>721</ele>
        <time>2019-04-17T14:12:41Z</time>
      </trkpt>
      <trkpt lat="45.8364" lon="3.02085">
        <ele>720</ele>
        <time>2019-04-17T14:13:41Z</time>
      </trkpt>
      <trkpt lat="45.83648" lon="3.02092">
        <ele>718</ele>
        <time>2019-04-17T14:14:41Z</time>
      </trkpt>
      <trkpt lat="45.83656" lon="3.02105">
        <ele>715</ele>
        <time>2019-04-17T14:15:41Z</time>
      </trkpt>
      <trkpt lat="45.83658" lon="3.02119">
        <ele>713</ele>
        <time>2019-04-17T14:16:41Z</time>
      </trkpt>
      <trkpt lat="45.83658" lon="3.02132">
        <ele>712</ele>
        <time>2019-04-17T14:17:41Z</time>
      </trkpt>
      <trkpt lat="45.83654" lon="3.02143">
        <ele>711</ele>
        <time>2019-04-17T14:18:41Z</time>
      </trkpt>
      <trkpt lat="45.83644" lon="3.02156">
        <ele>710</ele>
        <time>2019-04-17T14:19:41Z</time>
      </trkpt>
      <trkpt lat="45.83627" lon="3.0217">
        <ele>711</ele>
        <time>2019-04-17T14:20:41Z</time>
      </trkpt>
      <trkpt lat="45.83618" lon="3.02182">
        <ele>710</ele>
        <time>2019-04-17T14:21:41Z</time>
      </trkpt>
      <trkpt lat="45.83612" lon="3.02202">
        <ele>709</ele>
        <time>2019-04-17T14:22:41Z</time>
      </trkpt>
      <trkpt lat="45.83615" lon="3.02221">
        <ele>707</ele>
        <time>2019-04-17T14:23:41Z</time>
      </trkpt>
      <trkpt lat="45.83623" lon="3.02247">
        <ele>704</ele>
        <time>2019-04-17T14:24:41Z</time>
      </trkpt>
      <trkpt lat="45.83633" lon="3.02258">
        <ele>703</ele>
        <time>2019-04-17T14:25:41Z</time>
      </trkpt>
      <trkpt lat="45.83647" lon="3.02263">
        <ele>702</ele>
        <time>2019-04-17T14:26:41Z</time>
      </trkpt>
      <trkpt lat="45.83659" lon="3.0226">
        <ele>701</ele>
        <time>2019-04-17T14:27:41Z</time>
      </trkpt>
      <trkpt lat="45.83669" lon="3.02247">
        <ele>702</ele>
        <time>2019-04-17T14:28:41Z</time>
      </trkpt>
      <trkpt lat="45.83676" lon="3.02227">
        <ele>702</ele>
        <time>2019-04-17T14:29:41Z</time>
      </trkpt>
      <trkpt lat="45.83684" lon="3.02187">
        <ele>704</ele>
        <time>2019-04-17T14:30:41Z</time>
      </trkpt>
      <trkpt lat="45.83692" lon="3.02169">
        <ele>704</ele>
        <time>2019-04-17T14:31:41Z</time>
      </trkpt>
      <trkpt lat="45.83704" lon="3.02153">
        <ele>703</ele>
        <time>2019-04-17T14:32:41Z</time>
      </trkpt>
      <trkpt lat="45.83714" lon="3.02151">
        <ele>702</ele>
        <time>2019-04-17T14:33:41Z</time>
      </trkpt>
      <trkpt lat="45.83721" lon="3.02154">
        <ele>701</ele>
        <time>2019-04-17T14:34:41Z</time>
      </trkpt>
      <trkpt lat="45.83728" lon="3.02164">
        <ele>700</ele>
        <time>2019-04-17T14:35:41Z</time>
      </trkpt>
      <trkpt lat="45.8373" lon="3.02178">
        <ele>699</ele>
        <time>2019-04-17T14:36:41Z</time>
      </trkpt>
      <trkpt lat="45.83728" lon="3.02191">
        <ele>698</ele>
        <time>2019-04-17T14:37:41Z</time>
      </trkpt>
      <trkpt lat="45.83683" lon="3.02274">
        <ele>698</ele>
        <time>2019-04-17T14:38:41Z</time>
      </trkpt>
      <trkpt lat="45.83673" lon="3.02297">
        <ele>697</ele>
        <time>2019-04-17T14:39:41Z</time>
      </trkpt>
      <trkpt lat="45.83669" lon="3.02333">
        <ele>694</ele>
        <time>2019-04-17T14:40:41Z</time>
      </trkpt>
      <trkpt lat="45.83694" lon="3.02493">
        <ele>685</ele>
        <time>2019-04-17T14:41:41Z</time>
      </trkpt>
      <trkpt lat="45.83702" lon="3.02512">
        <ele>684</ele>
        <time>2019-04-17T14:42:41Z</time>
      </trkpt>
      <trkpt lat="45.83716" lon="3.02525">
        <ele>682</ele>
        <time>2019-04-17T14:43:41Z</time>
      </trkpt>
      <trkpt lat="45.8373" lon="3.02532">
        <ele>682</ele>
        <time>2019-04-17T14:44:41Z</time>
      </trkpt>
      <trkpt lat="45.83753" lon="3.02536">
        <ele>680</ele>
        <time>2019-04-17T14:45:41Z</time>
      </trkpt>
      <trkpt lat="45.8377" lon="3.02531">
        <ele>679</ele>
        <time>2019-04-17T14:46:41Z</time>
      </trkpt>
      <trkpt lat="45.83824" lon="3.02477">
        <ele>674</ele>
        <time>2019-04-17T14:47:41Z</time>
      </trkpt>
      <trkpt lat="45.83835" lon="3.02471">
        <ele>673</ele>
        <time>2019-04-17T14:48:41Z</time>
      </trkpt>
      <trkpt lat="45.8386" lon="3.02468">
        <ele>672</ele>
        <time>2019-04-17T14:49:41Z</time>
      </trkpt>
      <trkpt lat="45.83887" lon="3.02469">
        <ele>671</ele>
        <time>2019-04-17T14:50:41Z</time>
      </trkpt>
      <trkpt lat="45.83899" lon="3.02466">
        <ele>670</ele>
        <time>2019-04-17T14:51:41Z</time>
      </trkpt>
      <trkpt lat="45.83908" lon="3.02457">
        <ele>669</ele>
        <time>2019-04-17T14:52:41Z</time>
      </trkpt>
      <trkpt lat="45.83914" lon="3.02444">
        <ele>669</ele>
        <time>2019-04-17T14:53:41Z</time>
      </trkpt>
      <trkpt lat="45.83917" lon="3.02428">
        <ele>668</ele>
        <time>2019-04-17T14:54:41Z</time>
      </trkpt>
      <trkpt lat="45.83915" lon="3.02412">
        <ele>668</ele>
        <time>2019-04-17T14:55:41Z</time>
      </trkpt>
      <trkpt lat="45.83907" lon="3.02395">
        <ele>668</ele>
        <time>2019-04-17T14:56:41Z</time>
      </trkpt>
      <trkpt lat="45.83884" lon="3.02365">
        <ele>669</ele>
        <time>2019-04-17T14:57:41Z</time>
      </trkpt>
      <trkpt lat="45.83878" lon="3.02347">
        <ele>670</ele>
        <time>2019-04-17T14:58:41Z</time>
      </trkpt>
      <trkpt lat="45.83877" lon="3.02331">
        <ele>670</ele>
        <time>2019-04-17T14:59:41Z</time>
      </trkpt>
      <trkpt lat="45.83881" lon="3.02316">
        <ele>669</ele>
        <time>2019-04-17T15:00:41Z</time>
      </trkpt>
      <trkpt lat="45.83889" lon="3.02305">
        <ele>667</ele>
        <time>2019-04-17T15:01:41Z</time>
      </trkpt>
      <trkpt lat="45.83902" lon="3.02295">
        <ele>664</ele>
        <time>2019-04-17T15:02:41Z</time>
      </trkpt>
      <trkpt lat="45.83964" lon="3.02264">
        <ele>659</ele>
        <time>2019-04-17T15:03:41Z</time>
      </trkpt>
      <trkpt lat="45.83977" lon="3.02262">
        <ele>659</ele>
        <time>2019-04-17T15:04:41Z</time>
      </trkpt>
      <trkpt lat="45.84068" lon="3.023">
        <ele>650</ele>
        <time>2019-04-17T15:05:41Z</time>
      </trkpt>
      <trkpt lat="45.84068" lon="3.02305">
        <ele>650</ele>
        <time>2019-04-17T15:06:41Z</time>
      </trkpt>
      <trkpt lat="45.84081" lon="3.02312">
        <ele>648</ele>
        <time>2019-04-17T15:07:41Z</time>
      </trkpt>
      <trkpt lat="45.84114" lon="3.02354">
        <ele>647</ele>
        <time>2019-04-17T15:08:41Z</time>
      </trkpt>
      <trkpt lat="45.84165" lon="3.02406">
        <ele>640</ele>
        <time>2019-04-17T15:09:41Z</time>
      </trkpt>
      <trkpt lat="45.84189" lon="3.02418">
        <ele>640</ele>
        <time>2019-04-17T15:10:41Z</time>
      </trkpt>
      <trkpt lat="45.84211" lon="3.02426">
        <ele>640</ele>
        <time>2019-04-17T15:11:41Z</time>
      </trkpt>
      <trkpt lat="45.84224" lon="3.02436">
        <ele>641</ele>
        <time>2019-04-17T15:12:41Z</time>
      </trkpt>
      <trkpt lat="45.84242" lon="3.02473">
        <ele>640</ele>
        <time>2019-04-17T15:13:41Z</time>
      </trkpt>
      <trkpt lat="45.84296" lon="3.02536">
        <ele>640</ele>
        <time>2019-04-17T15:14:41Z</time>
      </trkpt>
      <trkpt lat="45.84308" lon="3.02548">
        <ele>640</ele>
        <time>2019-04-17T15:15:41Z</time>
      </trkpt>
      <trkpt lat="45.84337" lon="3.02567">
        <ele>641</ele>
        <time>2019-04-17T15:16:41Z</time>
      </trkpt>
      <trkpt lat="45.84363" lon="3.026">
        <ele>641</ele>
        <time>2019-04-17T15:17:41Z</time>
      </trkpt>
      <trkpt lat="45.84385" lon="3.02636">
        <ele>641</ele>
        <time>2019-04-17T15:18:41Z</time>
      </trkpt>
      <trkpt lat="45.84471" lon="3.02684">
        <ele>645</ele>
        <time>2019-04-17T15:19:41Z</time>
      </trkpt>
      <trkpt lat="45.84482" lon="3.02687">
        <ele>646</ele>
        <time>2019-04-17T15:20:41Z</time>
      </trkpt>
      <trkpt lat="45.8449" lon="3.02711">
        <ele>646</ele>
        <time>2019-04-17T15:21:41Z</time>
      </trkpt>
      <trkpt lat="45.84511" lon="3.0285">
        <ele>641</ele>
        <time>2019-04-17T15:22:41Z</time>
      </trkpt>
      <trkpt lat="45.84516" lon="3.02901">
        <ele>640</ele>
        <time>2019-04-17T15:23:41Z</time>
      </trkpt>
      <trkpt lat="45.84516" lon="3.02969">
        <ele>638</ele>
        <time>2019-04-17T15:24:41Z</time>
      </trkpt>
      <trkpt lat="45.84508" lon="3.03029">
        <ele>637</ele>
        <time>2019-04-17T15:25:41Z</time>
      </trkpt>
      <trkpt lat="45.84485" lon="3.03131">
        <ele>635</ele>
        <time>2019-04-17T15:26:41Z</time>
      </trkpt>
      <trkpt lat="45.84452" lon="3.03205">
        <ele>631</ele>
        <time>2019-04-17T15:27:41Z</time>
      </trkpt>
      <trkpt lat="45.84428" lon="3.03274">
        <ele>628</ele>
        <time>2019-04-17T15:28:41Z</time>
      </trkpt>
      <trkpt lat="45.84422" lon="3.03296">
        <ele>626</ele>
        <time>2019-04-17T15:29:41Z</time>
      </trkpt>
      <trkpt lat="45.84422" lon="3.03302">
        <ele>626</ele>
        <time>2019-04-17T15:30:41Z</time>
      </trkpt>
      <trkpt lat="45.84425" lon="3.03319">
        <ele>625</ele>
        <time>2019-04-17T15:31:41Z</time>
      </trkpt>
      <trkpt lat="45.84432" lon="3.03331">
        <ele>624</ele>
        <time>2019-04-17T15:32:41Z</time>
      </trkpt>
      <trkpt lat="45.8444" lon="3.03337">
        <ele>623</ele>
        <time>2019-04-17T15:33:41Z</time>
      </trkpt>
      <trkpt lat="45.8445" lon="3.0334">
        <ele>623</ele>
        <time>2019-04-17T15:34:41Z</time>
      </trkpt>
      <trkpt lat="45.84464" lon="3.0334">
        <ele>623</ele>
        <time>2019-04-17T15:35:41Z</time>
      </trkpt>
      <trkpt lat="45.84496" lon="3.03332">
        <ele>623</ele>
        <time>2019-04-17T15:36:41Z</time>
      </trkpt>
      <trkpt lat="45.8451" lon="3.03334">
        <ele>622</ele>
        <time>2019-04-17T15:37:41Z</time>
      </trkpt>
      <trkpt lat="45.8452" lon="3.03342">
        <ele>621</ele>
        <time>2019-04-17T15:38:41Z</time>
      </trkpt>
      <trkpt lat="45.84523" lon="3.03349">
        <ele>621</ele>
        <time>2019-04-17T15:39:41Z</time>
      </trkpt>
      <trkpt lat="45.84527" lon="3.03361">
        <ele>620</ele>
        <time>2019-04-17T15:40:41Z</time>
      </trkpt>
      <trkpt lat="45.84528" lon="3.0337">
        <ele>619</ele>
        <time>2019-04-17T15:41:41Z</time>
      </trkpt>
      <trkpt lat="45.84526" lon="3.03383">
        <ele>618</ele>
        <time>2019-04-17T15:42:41Z</time>
      </trkpt>
      <trkpt lat="45.84518" lon="3.03399">
        <ele>617</ele>
        <time>2019-04-17T15:43:41Z</time>
      </trkpt>
      <trkpt lat="45.84471" lon="3.03441">
        <ele>613</ele>
        <time>2019-04-17T15:44:41Z</time>
      </trkpt>
      <trkpt lat="45.8446" lon="3.0345">
        <ele>612</ele>
        <time>2019-04-17T15:45:41Z</time>
      </trkpt>
      <trkpt lat="45.84447" lon="3.03457">
        <ele>611</ele>
        <time>2019-04-17T15:46:41Z</time>
      </trkpt>
      <trkpt lat="45.84433" lon="3.03461">
        <ele>610</ele>
        <time>2019-04-17T15:47:41Z</time>
      </trkpt>
      <trkpt lat="45.84423" lon="3.03461">
        <ele>610</ele>
        <time>2019-04-17T15:48:41Z</time>
      </trkpt>
      <trkpt lat="45.84384" lon="3.0345">
        <ele>609</ele>
        <time>2019-04-17T15:49:41Z</time>
      </trkpt>
      <trkpt lat="45.84366" lon="3.03448">
        <ele>609</ele>
        <time>2019-04-17T15:50:41Z</time>
      </trkpt>
      <trkpt lat="45.84355" lon="3.03453">
        <ele>608</ele>
        <time>2019-04-17T15:51:41Z</time>
      </trkpt>
      <trkpt lat="45.84346" lon="3.03465">
        <ele>606</ele>
        <time>2019-04-17T15:52:41Z</time>
      </trkpt>
      <trkpt lat="45.84339" lon="3.03487">
        <ele>603</ele>
        <time>2019-04-17T15:53:41Z</time>
      </trkpt>
      <trkpt lat="45.84327" lon="3.03593">
        <ele>598</ele>
        <time>2019-04-17T15:54:41Z</time>
      </trkpt>
      <trkpt lat="45.84322" lon="3.03617">
        <ele>597</ele>
        <time>2019-04-17T15:55:41Z</time>
      </trkpt>
      <trkpt lat="45.84274" lon="3.03754">
        <ele>591</ele>
        <time>2019-04-17T15:56:41Z</time>
      </trkpt>
      <trkpt lat="45.84264" lon="3.03793">
        <ele>590</ele>
        <time>2019-04-17T15:57:41Z</time>
      </trkpt>
      <trkpt lat="45.84242" lon="3.03926">
        <ele>585</ele>
        <time>2019-04-17T15:58:41Z</time>
      </trkpt>
      <trkpt lat="45.84232" lon="3.03954">
        <ele>585</ele>
        <time>2019-04-17T15:59:41Z</time>
      </trkpt>
      <trkpt lat="45.84189" lon="3.04023">
        <ele>581</ele>
        <time>2019-04-17T16:00:41Z</time>
      </trkpt>
      <trkpt lat="45.84145" lon="3.04066">
        <ele>578</ele>
        <time>2019-04-17T16:01:41Z</time>
      </trkpt>
      <trkpt lat="45.84138" lon="3.04077">
        <ele>578</ele>
        <time>2019-04-17T16:02:41Z</time>
      </trkpt>
      <trkpt lat="45.8412" lon="3.04112">
        <ele>575</ele>
        <time>2019-04-17T16:03:41Z</time>
      </trkpt>
      <trkpt lat="45.84099" lon="3.04141">
        <ele>573</ele>
        <time>2019-04-17T16:04:41Z</time>
      </trkpt>
      <trkpt lat="45.84085" lon="3.04172">
        <ele>571</ele>
        <time>2019-04-17T16:05:41Z</time>
      </trkpt>
      <trkpt lat="45.84073" lon="3.04217">
        <ele>567</ele>
        <time>2019-04-17T16:06:41Z</time>
      </trkpt>
      <trkpt lat="45.84065" lon="3.04239">
        <ele>566</ele>
        <time>2019-04-17T16:07:41Z</time>
      </trkpt>
      <trkpt lat="45.84047" lon="3.04266">
        <ele>563</ele>
        <time>2019-04-17T16:08:41Z</time>
      </trkpt>
      <trkpt lat="45.84042" lon="3.04272">
        <ele>563</ele>
        <time>2019-04-17T16:09:41Z</time>
      </trkpt>
      <trkpt lat="45.84028" lon="3.04281">
        <ele>562</ele>
        <time>2019-04-17T16:10:41Z</time>
      </trkpt>
      <trkpt lat="45.83995" lon="3.0429">
        <ele>561</ele>
        <time>2019-04-17T16:11:41Z</time>
      </trkpt>
      <trkpt lat="45.83989" lon="3.04294">
        <ele>560</ele>
        <time>2019-04-17T16:12:41Z</time>
      </trkpt>
      <trkpt lat="45.83968" lon="3.04313">
        <ele>557</ele>
        <time>2019-04-17T16:13:41Z</time>
      </trkpt>
      <trkpt lat="45.83954" lon="3.04332">
        <ele>555</ele>
        <time>2019-04-17T16:14:41Z</time>
      </trkpt>
      <trkpt lat="45.83946" lon="3.04349">
        <ele>553</ele>
        <time>2019-04-17T16:15:41Z</time>
      </trkpt>
      <trkpt lat="45.83943" lon="3.04364">
        <ele>552</ele>
        <time>2019-04-17T16:16:41Z</time>
      </trkpt>
      <trkpt lat="45.83941" lon="3.04382">
        <ele>551</ele>
        <time>2019-04-17T16:17:41Z</time>
      </trkpt>
      <trkpt lat="45.83942" lon="3.04406">
        <ele>550</ele>
        <time>2019-04-17T16:18:41Z</time>
      </trkpt>
      <trkpt lat="45.83953" lon="3.0447">
        <ele>547</ele>
        <time>2019-04-17T16:19:41Z</time>
      </trkpt>
      <trkpt lat="45.83953" lon="3.04488">
        <ele>547</ele>
        <time>2019-04-17T16:20:41Z</time>
      </trkpt>
      <trkpt lat="45.83945" lon="3.04515">
        <ele>545</ele>
        <time>2019-04-17T16:21:41Z</time>
      </trkpt>
      <trkpt lat="45.83941" lon="3.04523">
        <ele>544</ele>
        <time>2019-04-17T16:22:41Z</time>
      </trkpt>
      <trkpt lat="45.83929" lon="3.04536">
        <ele>543</ele>
        <time>2019-04-17T16:23:41Z</time>
      </trkpt>
      <trkpt lat="45.83918" lon="3.04543">
        <ele>543</ele>
        <time>2019-04-17T16:24:41Z</time>
      </trkpt>
      <trkpt lat="45.8391" lon="3.04546">
        <ele>542</ele>
        <time>2019-04-17T16:25:41Z</time>
      </trkpt>
      <trkpt lat="45.83889" lon="3.04545">
        <ele>540</ele>
        <time>2019-04-17T16:26:41Z</time>
      </trkpt>
      <trkpt lat="45.83871" lon="3.04535">
        <ele>538</ele>
        <time>2019-04-17T16:27:41Z</time>
      </trkpt>
      <trkpt lat="45.83828" lon="3.04498">
        <ele>534</ele>
        <time>2019-04-17T16:28:41Z</time>
      </trkpt>
      <trkpt lat="45.83813" lon="3.04489">
        <ele>534</ele>
        <time>2019-04-17T16:29:41Z</time>
      </trkpt>
      <trkpt lat="45.83798" lon="3.04487">
        <ele>533</ele>
        <time>2019-04-17T16:30:41Z</time>
      </trkpt>
      <trkpt lat="45.83778" lon="3.04495">
        <ele>532</ele>
        <time>2019-04-17T16:31:41Z</time>
      </trkpt>
      <trkpt lat="45.83764" lon="3.04505">
        <ele>531</ele>
        <time>2019-04-17T16:32:41Z</time>
      </trkpt>
      <trkpt lat="45.8375" lon="3.04518">
        <ele>529</ele>
        <time>2019-04-17T16:33:41Z</time>
      </trkpt>
      <trkpt lat="45.83701" lon="3.04586">
        <ele>526</ele>
        <time>2019-04-17T16:34:41Z</time>
      </trkpt>
      <trkpt lat="45.83688" lon="3.04612">
        <ele>525</ele>
        <time>2019-04-17T16:35:41Z</time>
      </trkpt>
      <trkpt lat="45.8367" lon="3.04656">
        <ele>524</ele>
        <time>2019-04-17T16:36:41Z</time>
      </trkpt>
      <trkpt lat="45.83663" lon="3.04666">
        <ele>524</ele>
        <time>2019-04-17T16:37:41Z</time>
      </trkpt>
      <trkpt lat="45.83655" lon="3.04674">
        <ele>523</ele>
        <time>2019-04-17T16:38:41Z</time>
      </trkpt>
      <trkpt lat="45.83642" lon="3.04678">
        <ele>522</ele>
        <time>2019-04-17T16:39:41Z</time>
      </trkpt>
      <trkpt lat="45.83632" lon="3.04679">
        <ele>521</ele>
        <time>2019-04-17T16:40:41Z</time>
      </trkpt>
      <trkpt lat="45.83589" lon="3.0468">
        <ele>518</ele>
        <time>2019-04-17T16:41:41Z</time>
      </trkpt>
      <trkpt lat="45.83571" lon="3.04675">
        <ele>517</ele>
        <time>2019-04-17T16:42:41Z</time>
      </trkpt>
      <trkpt lat="45.8355" lon="3.04659">
        <ele>516</ele>
        <time>2019-04-17T16:43:41Z</time>
      </trkpt>
      <trkpt lat="45.83537" lon="3.04652">
        <ele>516</ele>
        <time>2019-04-17T16:44:41Z</time>
      </trkpt>
      <trkpt lat="45.8352" lon="3.0465">
        <ele>515</ele>
        <time>2019-04-17T16:45:41Z</time>
      </trkpt>
      <trkpt lat="45.83508" lon="3.04658">
        <ele>514</ele>
        <time>2019-04-17T16:46:41Z</time>
      </trkpt>
      <trkpt lat="45.83548" lon="3.04711">
        <ele>514</ele>
        <time>2019-04-17T16:47:41Z</time>
      </trkpt>
      <trkpt lat="45.83612" lon="3.04789">
        <ele>515</ele>
        <time>2019-04-17T16:48:41Z</time>
      </trkpt>
      <trkpt lat="45.83699" lon="3.04874">
        <ele>520</ele>
        <time>2019-04-17T16:49:41Z</time>
      </trkpt>
      <trkpt lat="45.83727" lon="3.04892">
        <ele>522</ele>
        <time>2019-04-17T16:50:41Z</time>
      </trkpt>
      <trkpt lat="45.83737" lon="3.04896">
        <ele>522</ele>
        <time>2019-04-17T16:51:41Z</time>
      </trkpt>
      <trkpt lat="45.8377" lon="3.04901">
        <ele>524</ele>
        <time>2019-04-17T16:52:41Z</time>
      </trkpt>
      <trkpt lat="45.83795" lon="3.04898">
        <ele>525</ele>
        <time>2019-04-17T16:53:41Z</time>
      </trkpt>
      <trkpt lat="45.83817" lon="3.04887">
        <ele>525</ele>
        <time>2019-04-17T16:54:41Z</time>
      </trkpt>
      <trkpt lat="45.83956" lon="3.048">
        <ele>535</ele>
        <time>2019-04-17T16:55:41Z</time>
      </trkpt>
      <trkpt lat="45.84081" lon="3.04724">
        <ele>537</ele>
        <time>2019-04-17T16:56:41Z</time>
      </trkpt>
      <trkpt lat="45.84145" lon="3.04703">
        <ele>536</ele>
        <time>2019-04-17T16:57:41Z</time>
      </trkpt>
      <trkpt lat="45.84156" lon="3.04702">
        <ele>536</ele>
        <time>2019-04-17T16:58:41Z</time>
      </trkpt>
      <trkpt lat="45.84157" lon="3.04709">
        <ele>536</ele>
        <time>2019-04-17T16:59:41Z</time>
      </trkpt>
      <trkpt lat="45.84162" lon="3.04721">
        <ele>536</ele>
        <time>2019-04-17T17:00:41Z</time>
      </trkpt>
      <trkpt lat="45.84169" lon="3.04729">
        <ele>535</ele>
        <time>2019-04-17T17:01:41Z</time>
      </trkpt>
      <trkpt lat="45.84156" lon="3.04764">
        <ele>535</ele>
        <time>2019-04-17T17:02:41Z</time>
      </trkpt>
      <trkpt lat="45.84131" lon="3.0486">
        <ele>533</ele>
        <time>2019-04-17T17:03:41Z</time>
      </trkpt>
      <trkpt lat="45.84125" lon="3.04894">
        <ele>532</ele>
        <time>2019-04-17T17:04:41Z</time>
      </trkpt>
      <trkpt lat="45.84118" lon="3.0495">
        <ele>530</ele>
        <time>2019-04-17T17:05:41Z</time>
      </trkpt>
      <trkpt lat="45.84114" lon="3.05006">
        <ele>529</ele>
        <time>2019-04-17T17:06:41Z</time>
      </trkpt>
      <trkpt lat="45.84113" lon="3.05064">
        <ele>528</ele>
        <time>2019-04-17T17:07:41Z</time>
      </trkpt>
      <trkpt lat="45.84115" lon="3.05105">
        <ele>527</ele>
        <time>2019-04-17T17:08:41Z</time>
      </trkpt>
      <trkpt lat="45.84122" lon="3.05165">
        <ele>525</ele>
        <time>2019-04-17T17:09:41Z</time>
      </trkpt>
      <trkpt lat="45.84131" lon="3.05222">
        <ele>524</ele>
        <time>2019-04-17T17:10:41Z</time>
      </trkpt>
      <trkpt lat="45.84148" lon="3.0529">
        <ele>524</ele>
        <time>2019-04-17T17:11:41Z</time>
      </trkpt>
      <trkpt lat="45.84284" lon="3.05727">
        <ele>516</ele>
        <time>2019-04-17T17:12:41Z</time>
      </trkpt>
      <trkpt lat="45.84298" lon="3.05767">
        <ele>515</ele>
        <time>2019-04-17T17:13:41Z</time>
      </trkpt>
      <trkpt lat="45.84318" lon="3.05818">
        <ele>514</ele>
        <time>2019-04-17T17:14:41Z</time>
      </trkpt>
      <trkpt lat="45.84338" lon="3.0586">
        <ele>513</ele>
        <time>2019-04-17T17:15:41Z</time>
      </trkpt>
      <trkpt lat="45.84356" lon="3.05894">
        <ele>512</ele>
        <time>2019-04-17T17:16:41Z</time>
      </trkpt>
      <trkpt lat="45.84392" lon="3.05951">
        <ele>511</ele>
        <time>2019-04-17T17:17:41Z</time>
      </trkpt>
      <trkpt lat="45.8453" lon="3.06152">
        <ele>500</ele>
        <time>2019-04-17T17:18:41Z</time>
      </trkpt>
      <trkpt lat="45.84521" lon="3.06164">
        <ele>500</ele>
        <time>2019-04-17T17:19:41Z</time>
      </trkpt>
      <trkpt lat="45.84516" lon="3.06176">
        <ele>500</ele>
        <time>2019-04-17T17:20:41Z</time>
      </trkpt>
      <trkpt lat="45.84501" lon="3.06226">
        <ele>501</ele>
        <time>2019-04-17T17:21:41Z</time>
      </trkpt>
      <trkpt lat="45.84486" lon="3.06298">
        <ele>502</ele>
        <time>2019-04-17T17:22:41Z</time>
      </trkpt>
      <trkpt lat="45.84472" lon="3.0635">
        <ele>502</ele>
        <time>2019-04-17T17:23:41Z</time>
      </trkpt>
      <trkpt lat="45.84462" lon="3.0638">
        <ele>501</ele>
        <time>2019-04-17T17:24:41Z</time>
      </trkpt>
      <trkpt lat="45.84448" lon="3.06407">
        <ele>501</ele>
        <time>2019-04-17T17:25:41Z</time>
      </trkpt>
      <trkpt lat="45.84425" lon="3.06438">
        <ele>501</ele>
        <time>2019-04-17T17:26:41Z</time>
      </trkpt>
      <trkpt lat="45.84415" lon="3.06455">
        <ele>502</ele>
        <time>2019-04-17T17:27:41Z</time>
      </trkpt>
      <trkpt lat="45.84383" lon="3.06532">
        <ele>502</ele>
        <time>2019-04-17T17:28:41Z</time>
      </trkpt>
      <trkpt lat="45.84342" lon="3.06618">
        <ele>501</ele>
        <time>2019-04-17T17:29:41Z</time>
      </trkpt>
      <trkpt lat="45.84331" lon="3.06647">
        <ele>500</ele>
        <time>2019-04-17T17:30:41Z</time>
      </trkpt>
      <trkpt lat="45.84307" lon="3.06737">
        <ele>499</ele>
        <time>2019-04-17T17:31:41Z</time>
      </trkpt>
      <trkpt lat="45.84297" lon="3.06767">
        <ele>499</ele>
        <time>2019-04-17T17:32:41Z</time>
      </trkpt>
      <trkpt lat="45.84228" lon="3.06925">
        <ele>497</ele>
        <time>2019-04-17T17:33:41Z</time>
      </trkpt>
      <trkpt lat="45.84206" lon="3.06988">
        <ele>498</ele>
        <time>2019-04-17T17:34:41Z</time>
      </trkpt>
      <trkpt lat="45.8419" lon="3.07041">
        <ele>498</ele>
        <time>2019-04-17T17:35:41Z</time>
      </trkpt>
      <trkpt lat="45.84166" lon="3.07144">
        <ele>497</ele>
        <time>2019-04-17T17:36:41Z</time>
      </trkpt>
      <trkpt lat="45.84145" lon="3.07205">
        <ele>497</ele>
        <time>2019-04-17T17:37:41Z</time>
      </trkpt>
      <trkpt lat="45.84135" lon="3.07228">
        <ele>497</ele>
        <time>2019-04-17T17:38:41Z</time>
      </trkpt>
      <trkpt lat="45.84126" lon="3.07244">
        <ele>498</ele>
        <time>2019-04-17T17:39:41Z</time>
      </trkpt>
      <trkpt lat="45.84111" lon="3.0726">
        <ele>498</ele>
        <time>2019-04-17T17:40:41Z</time>
      </trkpt>
      <trkpt lat="45.84051" lon="3.07317">
        <ele>495</ele>
        <time>2019-04-17T17:41:41Z</time>
      </trkpt>
      <trkpt lat="45.8399" lon="3.07359">
        <ele>490</ele>
        <time>2019-04-17T17:42:41Z</time>
      </trkpt>
      <trkpt lat="45.83986" lon="3.07363">
        <ele>490</ele>
        <time>2019-04-17T17:43:41Z</time>
      </trkpt>
      <trkpt lat="45.83983" lon="3.07372">
        <ele>489</ele>
        <time>2019-04-17T17:44:41Z</time>
      </trkpt>
      <trkpt lat="45.83983" lon="3.0738">
        <ele>488</ele>
        <time>2019-04-17T17:45:41Z</time>
      </trkpt>
      <trkpt lat="45.83984" lon="3.07398">
        <ele>486</ele>
        <time>2019-04-17T17:46:41Z</time>
      </trkpt>
      <trkpt lat="45.83991" lon="3.07417">
        <ele>484</ele>
        <time>2019-04-17T17:47:41Z</time>
      </trkpt>
      <trkpt lat="45.83993" lon="3.0743">
        <ele>483</ele>
        <time>2019-04-17T17:48:41Z</time>
      </trkpt>
      <trkpt lat="45.83989" lon="3.07434">
        <ele>483</ele>
        <time>2019-04-17T17:49:41Z</time>
      </trkpt>
      <trkpt lat="45.83989" lon="3.0744">
        <ele>483</ele>
        <time>2019-04-17T17:50:41Z</time>
      </trkpt>
      <trkpt lat="45.83991" lon="3.07442">
        <ele>482</ele>
        <time>2019-04-17T17:51:41Z</time>
      </trkpt>
      <trkpt lat="45.83996" lon="3.07442">
        <ele>482</ele>
        <time>2019-04-17T17:52:41Z</time>
      </trkpt>
      <trkpt lat="45.83996" lon="3.07433">
        <ele>483</ele>
        <time>2019-04-17T17:53:41Z</time>
      </trkpt>
      <trkpt lat="45.84022" lon="3.0745">
        <ele>484</ele>
        <time>2019-04-17T17:54:41Z</time>
      </trkpt>
      <trkpt lat="45.84033" lon="3.07465">
        <ele>484</ele>
        <time>2019-04-17T17:55:41Z</time>
      </trkpt>
      <trkpt lat="45.84037" lon="3.07475">
        <ele>484</ele>
        <time>2019-04-17T17:56:41Z</time>
      </trkpt>
      <trkpt lat="45.84039" lon="3.07487">
        <ele>484</ele>
        <time>2019-04-17T17:57:41Z</time>
      </trkpt>
      <trkpt lat="45.84036" lon="3.07501">
        <ele>483</ele>
        <time>2019-04-17T17:58:41Z</time>
      </trkpt>
      <trkpt lat="45.84075" lon="3.07529">
        <ele>489</ele>
        <time>2019-04-17T17:59:41Z</time>
      </trkpt>
      <trkpt lat="45.84069" lon="3.0757">
        <ele>489</ele>
        <time>2019-04-17T18:00:41Z</time>
      </trkpt>
      <trkpt lat="45.84063" lon="3.07582">
        <ele>489</ele>
        <time>2019-04-17T18:01:41Z</time>
      </trkpt>
      <trkpt lat="45.84058" lon="3.07597">
        <ele>488</ele>
        <time>2019-04-17T18:02:41Z</time>
      </trkpt>
      <trkpt lat="45.84057" lon="3.0763">
        <ele>488</ele>
        <time>2019-04-17T18:03:41Z</time>
      </trkpt>
      <trkpt lat="45.84054" lon="3.0765">
        <ele>487</ele>
        <time>2019-04-17T18:04:41Z</time>
      </trkpt>
      <trkpt lat="45.84046" lon="3.07692">
        <ele>484</ele>
        <time>2019-04-17T18:05:41Z</time>
      </trkpt>
      <trkpt lat="45.84053" lon="3.07729">
        <ele>484</ele>
        <time>2019-04-17T18:06:41Z</time>
      </trkpt>
      <trkpt lat="45.84055" lon="3.07807">
        <ele>482</ele>
        <time>2019-04-17T18:07:41Z</time>
      </trkpt>
      <trkpt lat="45.8406" lon="3.07878">
        <ele>483</ele>
        <time>2019-04-17T18:08:41Z</time>
      </trkpt>
      <trkpt lat="45.84078" lon="3.07964">
        <ele>488</ele>
        <time>2019-04-17T18:09:41Z</time>
      </trkpt>
      <trkpt lat="45.84083" lon="3.0802">
        <ele>490</ele>
        <time>2019-04-17T18:10:41Z</time>
      </trkpt>
      <trkpt lat="45.8408" lon="3.08099">
        <ele>489</ele>
        <time>2019-04-17T18:11:41Z</time>
      </trkpt>
      <trkpt lat="45.84084" lon="3.08119">
        <ele>489</ele>
        <time>2019-04-17T18:12:41Z</time>
      </trkpt>
      <trkpt lat="45.84099" lon="3.08154">
        <ele>491</ele>
        <time>2019-04-17T18:13:41Z</time>
      </trkpt>
      <trkpt lat="45.84117" lon="3.08177">
        <ele>495</ele>
        <time>2019-04-17T18:14:41Z</time>
      </trkpt>
      <trkpt lat="45.84136" lon="3.08195">
        <ele>499</ele>
        <time>2019-04-17T18:15:41Z</time>
      </trkpt>
      <trkpt lat="45.84147" lon="3.08209">
        <ele>501</ele>
        <time>2019-04-17T18:16:41Z</time>
      </trkpt>
      <trkpt lat="45.84171" lon="3.08273">
        <ele>500</ele>
        <time>2019-04-17T18:17:41Z</time>
      </trkpt>
      <trkpt lat="45.84188" lon="3.08311">
        <ele>498</ele>
        <time>2019-04-17T18:18:41Z</time>
      </trkpt>
      <trkpt lat="45.84171" lon="3.0834">
        <ele>495</ele>
        <time>2019-04-17T18:19:41Z</time>
      </trkpt>
      <trkpt lat="45.8415" lon="3.08396">
        <ele>490</ele>
        <time>2019-04-17T18:20:41Z</time>
      </trkpt>
      <trkpt lat="45.84145" lon="3.0842">
        <ele>488</ele>
        <time>2019-04-17T18:21:41Z</time>
      </trkpt>
      <trkpt lat="45.84142" lon="3.08445">
        <ele>486</ele>
        <time>2019-04-17T18:22:41Z</time>
      </trkpt>
      <trkpt lat="45.8414" lon="3.0848">
        <ele>485</ele>
        <time>2019-04-17T18:23:41Z</time>
      </trkpt>
      <trkpt lat="45.84142" lon="3.08515">
        <ele>483</ele>
        <time>2019-04-17T18:24:41Z</time>
      </trkpt>
      <trkpt lat="45.84146" lon="3.08537">
        <ele>481</ele>
        <time>2019-04-17T18:25:41Z</time>
      </trkpt>
      <trkpt lat="45.84151" lon="3.08559">
        <ele>480</ele>
        <time>2019-04-17T18:26:41Z</time>
      </trkpt>
      <trkpt lat="45.84159" lon="3.08582">
        <ele>478</ele>
        <time>2019-04-17T18:27:41Z</time>
      </trkpt>
      <trkpt lat="45.84169" lon="3.08604">
        <ele>475</ele>
        <time>2019-04-17T18:28:41Z</time>
      </trkpt>
      <trkpt lat="45.84187" lon="3.08634">
        <ele>471</ele>
        <time>2019-04-17T18:29:41Z</time>
      </trkpt>
      <trkpt lat="45.84199" lon="3.0865">
        <ele>469</ele>
        <time>2019-04-17T18:30:41Z</time>
      </trkpt>
      <trkpt lat="45.84219" lon="3.08667">
        <ele>466</ele>
        <time>2019-04-17T18:31:41Z</time>
      </trkpt>
      <trkpt lat="45.84586" lon="3.08889">
        <ele>443</ele>
        <time>2019-04-17T18:32:41Z</time>
      </trkpt>
      <trkpt lat="45.84604" lon="3.08902">
        <ele>442</ele>
        <time>2019-04-17T18:33:41Z</time>
      </trkpt>
      <trkpt lat="45.84638" lon="3.08938">
        <ele>439</ele>
        <time>2019-04-17T18:34:41Z</time>
      </trkpt>
      <trkpt lat="45.84711" lon="3.09028">
        <ele>435</ele>
        <time>2019-04-17T18:35:41Z</time>
      </trkpt>
      <trkpt lat="45.84727" lon="3.09051">
        <ele>435</ele>
        <time>2019-04-17T18:36:41Z</time>
      </trkpt>
      <trkpt lat="45.84739" lon="3.0908">
        <ele>432</ele>
        <time>2019-04-17T18:37:41Z</time>
      </trkpt>
      <trkpt lat="45.84743" lon="3.09098">
        <ele>430</ele>
        <time>2019-04-17T18:38:41Z</time>
      </trkpt>
      <trkpt lat="45.84766" lon="3.09266">
        <ele>417</ele>
        <time>2019-04-17T18:39:41Z</time>
      </trkpt>
      <trkpt lat="45.84771" lon="3.0929">
        <ele>415</ele>
        <time>2019-04-17T18:40:41Z</time>
      </trkpt>
      <trkpt lat="45.84778" lon="3.09314">
        <ele>413</ele>
        <time>2019-04-17T18:41:41Z</time>
      </trkpt>
      <trkpt lat="45.84788" lon="3.09337">
        <ele>411</ele>
        <time>2019-04-17T18:42:41Z</time>
      </trkpt>
      <trkpt lat="45.84812" lon="3.09377">
        <ele>409</ele>
        <time>2019-04-17T18:43:41Z</time>
      </trkpt>
      <trkpt lat="45.84853" lon="3.09429">
        <ele>405</ele>
        <time>2019-04-17T18:44:41Z</time>
      </trkpt>
      <trkpt lat="45.84872" lon="3.09458">
        <ele>403</ele>
        <time>2019-04-17T18:45:41Z</time>
      </trkpt>
      <trkpt lat="45.84884" lon="3.09483">
        <ele>401</ele>
        <time>2019-04-17T18:46:41Z</time>
      </trkpt>
      <trkpt lat="45.84892" lon="3.09508">
        <ele>400</ele>
        <time>2019-04-17T18:47:41Z</time>
      </trkpt>
      <trkpt lat="45.84896" lon="3.09533">
        <ele>398</ele>
        <time>2019-04-17T18:48:41Z</time>
      </trkpt>
      <trkpt lat="45.84898" lon="3.09553">
        <ele>397</ele>
        <time>2019-04-17T18:49:41Z</time>
      </trkpt>
      <trkpt lat="45.84897" lon="3.09577">
        <ele>396</ele>
        <time>2019-04-17T18:50:41Z</time>
      </trkpt>
      <trkpt lat="45.84884" lon="3.09685">
        <ele>389</ele>
        <time>2019-04-17T18:51:41Z</time>
      </trkpt>
      <trkpt lat="45.84882" lon="3.09734">
        <ele>386</ele>
        <time>2019-04-17T18:52:41Z</time>
      </trkpt>
      <trkpt lat="45.84884" lon="3.09765">
        <ele>384</ele>
        <time>2019-04-17T18:53:41Z</time>
      </trkpt>
      <trkpt lat="45.84888" lon="3.09797">
        <ele>382</ele>
        <time>2019-04-17T18:54:41Z</time>
      </trkpt>
      <trkpt lat="45.84913" lon="3.09915">
        <ele>374</ele>
        <time>2019-04-17T18:55:41Z</time>
      </trkpt>
      <trkpt lat="45.8492" lon="3.09956">
        <ele>371</ele>
        <time>2019-04-17T18:56:41Z</time>
      </trkpt>
      <trkpt lat="45.84923" lon="3.09993">
        <ele>368</ele>
        <time>2019-04-17T18:57:41Z</time>
      </trkpt>
      <trkpt lat="45.84924" lon="3.10187">
        <ele>363</ele>
        <time>2019-04-17T18:58:41Z</time>
      </trkpt>
      <trkpt lat="45.84923" lon="3.10216">
        <ele>361</ele>
        <time>2019-04-17T18:59:41Z</time>
      </trkpt>
      <trkpt lat="45.84921" lon="3.10233">
        <ele>361</ele>
        <time>2019-04-17T19:00:41Z</time>
      </trkpt>
      <trkpt lat="45.84917" lon="3.10261">
        <ele>359</ele>
        <time>2019-04-17T19:01:41Z</time>
      </trkpt>
      <trkpt lat="45.8491" lon="3.10288">
        <ele>358</ele>
        <time>2019-04-17T19:02:41Z</time>
      </trkpt>
      <trkpt lat="45.84895" lon="3.10325">
        <ele>355</ele>
        <time>2019-04-17T19:03:41Z</time>
      </trkpt>
      <trkpt lat="45.84871" lon="3.10369">
        <ele>352</ele>
        <time>2019-04-17T19:04:41Z</time>
      </trkpt>
      <trkpt lat="45.8484" lon="3.10403">
        <ele>349</ele>
        <time>2019-04-17T19:05:41Z</time>
      </trkpt>
      <trkpt lat="45.84823" lon="3.10417">
        <ele>349</ele>
        <time>2019-04-17T19:06:41Z</time>
      </trkpt>
      <trkpt lat="45.84411" lon="3.10683">
        <ele>343</ele>
        <time>2019-04-17T19:07:41Z</time>
      </trkpt>
      <trkpt lat="45.8437" lon="3.10718">
        <ele>345</ele>
        <time>2019-04-17T19:08:41Z</time>
      </trkpt>
      <trkpt lat="45.84347" lon="3.10743">
        <ele>345</ele>
        <time>2019-04-17T19:09:41Z</time>
      </trkpt>
      <trkpt lat="45.84335" lon="3.10759">
        <ele>345</ele>
        <time>2019-04-17T19:10:41Z</time>
      </trkpt>
      <trkpt lat="45.84314" lon="3.10793">
        <ele>346</ele>
        <time>2019-04-17T19:11:41Z</time>
      </trkpt>
      <trkpt lat="45.8429" lon="3.10848">
        <ele>349</ele>
        <time>2019-04-17T19:12:41Z</time>
      </trkpt>
      <trkpt lat="45.84273" lon="3.10902">
        <ele>351</ele>
        <time>2019-04-17T19:13:41Z</time>
      </trkpt>
      <trkpt lat="45.84267" lon="3.10928">
        <ele>352</ele>
        <time>2019-04-17T19:14:41Z</time>
      </trkpt>
      <trkpt lat="45.84258" lon="3.11001">
        <ele>352</ele>
        <time>2019-04-17T19:15:41Z</time>
      </trkpt>
      <trkpt lat="45.84236" lon="3.11262">
        <ele>357</ele>
        <time>2019-04-17T19:16:41Z</time>
      </trkpt>
      <trkpt lat="45.84229" lon="3.11296">
        <ele>356</ele>
        <time>2019-04-17T19:17:41Z</time>
      </trkpt>
      <trkpt lat="45.84221" lon="3.11313">
        <ele>356</ele>
        <time>2019-04-17T19:18:41Z</time>
      </trkpt>
      <trkpt lat="45.84221" lon="3.11323">
        <ele>355</ele>
        <time>2019-04-17T19:19:41Z</time>
      </trkpt>
      <trkpt lat="45.84224" lon="3.1133">
        <ele>355</ele>
        <time>2019-04-17T19:20:41Z</time>
      </trkpt>
      <trkpt lat="45.84228" lon="3.11334">
        <ele>355</ele>
        <time>2019-04-17T19:21:41Z</time>
      </trkpt>
      <trkpt lat="45.84232" lon="3.11346">
        <ele>355</ele>
        <time>2019-04-17T19:22:41Z</time>
      </trkpt>
      <trkpt lat="45.84238" lon="3.1138">
        <ele>355</ele>
        <time>2019-04-17T19:23:41Z</time>
      </trkpt>
      <trkpt lat="45.84251" lon="3.11548">
        <ele>357</ele>
        <time>2019-04-17T19:24:41Z</time>
      </trkpt>
      <trkpt lat="45.84244" lon="3.11596">
        <ele>357</ele>
        <time>2019-04-17T19:25:41Z</time>
      </trkpt>
      <trkpt lat="45.8424" lon="3.11606">
        <ele>357</ele>
        <time>2019-04-17T19:26:41Z</time>
      </trkpt>
      <trkpt lat="45.84229" lon="3.11617">
        <ele>357</ele>
        <time>2019-04-17T19:27:41Z</time>
      </trkpt>
      <trkpt lat="45.84224" lon="3.11625">
        <ele>357</ele>
        <time>2019-04-17T19:28:41Z</time>
      </trkpt>
      <trkpt lat="45.84221" lon="3.11636">
        <ele>357</ele>
        <time>2019-04-17T19:29:41Z</time>
      </trkpt>
      <trkpt lat="45.8422" lon="3.11649">
        <ele>357</ele>
        <time>2019-04-17T19:30:41Z</time>
      </trkpt>
      <trkpt lat="45.84217" lon="3.11657">
        <ele>357</ele>
        <time>2019-04-17T19:31:41Z</time>
      </trkpt>
      <trkpt lat="45.84212" lon="3.11666">
        <ele>357</ele>
        <time>2019-04-17T19:32:41Z</time>
      </trkpt>
      <trkpt lat="45.84188" lon="3.11689">
        <ele>357</ele>
        <time>2019-04-17T19:33:41Z</time>
      </trkpt>
      <trkpt lat="45.84082" lon="3.11737">
        <ele>355</ele>
        <time>2019-04-17T19:34:41Z</time>
      </trkpt>
      <trkpt lat="45.84053" lon="3.11745">
        <ele>354</ele>
        <time>2019-04-17T19:35:41Z</time>
      </trkpt>
      <trkpt lat="45.83858" lon="3.11786">
        <ele>352</ele>
        <time>2019-04-17T19:36:41Z</time>
      </trkpt>
      <trkpt lat="45.83812" lon="3.11792">
        <ele>352</ele>
        <time>2019-04-17T19:37:41Z</time>
      </trkpt>
      <trkpt lat="45.83805" lon="3.11785">
        <ele>352</ele>
        <time>2019-04-17T19:38:41Z</time>
      </trkpt>
      <trkpt lat="45.83797" lon="3.11783">
        <ele>351</ele>
        <time>2019-04-17T19:39:41Z</time>
      </trkpt>
      <trkpt lat="45.8379" lon="3.11785">
        <ele>351</ele>
        <time>2019-04-17T19:40:41Z</time>
      </trkpt>
      <trkpt lat="45.83783" lon="3.11791">
        <ele>351</ele>
        <time>2019-04-17T19:41:41Z</time>
      </trkpt>
      <trkpt lat="45.83779" lon="3.118">
        <ele>351</ele>
        <time>2019-04-17T19:42:41Z</time>
      </trkpt>
      <trkpt lat="45.83777" lon="3.11813">
        <ele>351</ele>
        <time>2019-04-17T19:43:41Z</time>
      </trkpt>
      <trkpt lat="45.83779" lon="3.11825">
        <ele>351</ele>
        <time>2019-04-17T19:44:41Z</time>
      </trkpt>
      <trkpt lat="45.83785" lon="3.11835">
        <ele>351</ele>
        <time>2019-04-17T19:45:41Z</time>
      </trkpt>
      <trkpt lat="45.83791" lon="3.11839">
        <ele>351</ele>
        <time>2019-04-17T19:46:41Z</time>
      </trkpt>
      <trkpt lat="45.83795" lon="3.11852">
        <ele>351</ele>
        <time>2019-04-17T19:47:41Z</time>
      </trkpt>
      <trkpt lat="45.83803" lon="3.11885">
        <ele>351</ele>
        <time>2019-04-17T19:48:41Z</time>
      </trkpt>
      <trkpt lat="45.83796" lon="3.11984">
        <ele>351</ele>
        <time>2019-04-17T19:49:41Z</time>
      </trkpt>
      <trkpt lat="45.83797" lon="3.1204">
        <ele>350</ele>
        <time>2019-04-17T19:50:41Z</time>
      </trkpt>
      <trkpt lat="45.83802" lon="3.12106">
        <ele>350</ele>
        <time>2019-04-17T19:51:41Z</time>
      </trkpt>
      <trkpt lat="45.8383" lon="3.1232">
        <ele>348</ele>
        <time>2019-04-17T19:52:41Z</time>
      </trkpt>
      <trkpt lat="45.83831" lon="3.12368">
        <ele>348</ele>
        <time>2019-04-17T19:53:41Z</time>
      </trkpt>
      <trkpt lat="45.83827" lon="3.12407">
        <ele>347</ele>
        <time>2019-04-17T19:54:41Z</time>
      </trkpt>
      <trkpt lat="45.83759" lon="3.12771">
        <ele>344</ele>
        <time>2019-04-17T19:55:41Z</time>
      </trkpt>
      <trkpt lat="45.83697" lon="3.13131">
        <ele>341</ele>
        <time>2019-04-17T19:56:41Z</time>
      </trkpt>
      <trkpt lat="45.8369" lon="3.13209">
        <ele>341</ele>
        <time>2019-04-17T19:57:41Z</time>
      </trkpt>
      <trkpt lat="45.83684" lon="3.13434">
        <ele>341</ele>
        <time>2019-04-17T19:58:41Z</time>
      </trkpt>
      <trkpt lat="45.83676" lon="3.1355">
        <ele>341</ele>
        <time>2019-04-17T19:59:41Z</time>
      </trkpt>
      <trkpt lat="45.83672" lon="3.13671">
        <ele>339</ele>
        <time>2019-04-17T20:00:41Z</time>
      </trkpt>
      <trkpt lat="45.83673" lon="3.13698">
        <ele>339</ele>
        <time>2019-04-17T20:01:41Z</time>
      </trkpt>
      <trkpt lat="45.83701" lon="3.13809">
        <ele>338</ele>
        <time>2019-04-17T20:02:41Z</time>
      </trkpt>
      <trkpt lat="45.83717" lon="3.1387">
        <ele>337</ele>
        <time>2019-04-17T20:03:41Z</time>
      </trkpt>
      <trkpt lat="45.83728" lon="3.13903">
        <ele>336</ele>
        <time>2019-04-17T20:04:41Z</time>
      </trkpt>
      <trkpt lat="45.83742" lon="3.13932">
        <ele>335</ele>
        <time>2019-04-17T20:05:41Z</time>
      </trkpt>
      <trkpt lat="45.83769" lon="3.13966">
        <ele>334</ele>
        <time>2019-04-17T20:06:41Z</time>
      </trkpt>
      <trkpt lat="45.83793" lon="3.13984">
        <ele>334</ele>
        <time>2019-04-17T20:07:41Z</time>
      </trkpt>
      <trkpt lat="45.83878" lon="3.14021">
        <ele>338</ele>
        <time>2019-04-17T20:08:41Z</time>
      </trkpt>
      <trkpt lat="45.83902" lon="3.14033">
        <ele>339</ele>
        <time>2019-04-17T20:09:41Z</time>
      </trkpt>
      <trkpt lat="45.83922" lon="3.14047">
        <ele>340</ele>
        <time>2019-04-17T20:10:41Z</time>
      </trkpt>
      <trkpt lat="45.83943" lon="3.14069">
        <ele>340</ele>
        <time>2019-04-17T20:11:41Z</time>
      </trkpt>
      <trkpt lat="45.83972" lon="3.14115">
        <ele>341</ele>
        <time>2019-04-17T20:12:41Z</time>
      </trkpt>
      <trkpt lat="45.83984" lon="3.14139">
        <ele>341</ele>
        <time>2019-04-17T20:13:41Z</time>
      </trkpt>
      <trkpt lat="45.83993" lon="3.14163">
        <ele>342</ele>
        <time>2019-04-17T20:14:41Z</time>
      </trkpt>
      <trkpt lat="45.84" lon="3.14194">
        <ele>341</ele>
        <time>2019-04-17T20:15:41Z</time>
      </trkpt>
      <trkpt lat="45.84029" lon="3.14366">
        <ele>340</ele>
        <time>2019-04-17T20:16:41Z</time>
      </trkpt>
      <trkpt lat="45.84038" lon="3.14433">
        <ele>341</ele>
        <time>2019-04-17T20:17:41Z</time>
      </trkpt>
      <trkpt lat="45.84038" lon="3.14444">
        <ele>341</ele>
        <time>2019-04-17T20:18:41Z</time>
      </trkpt>
      <trkpt lat="45.84035" lon="3.14457">
        <ele>341</ele>
        <time>2019-04-17T20:19:41Z</time>
      </trkpt>
      <trkpt lat="45.84036" lon="3.14465">
        <ele>341</ele>
        <time>2019-04-17T20:20:41Z</time>
      </trkpt>
      <trkpt lat="45.8404" lon="3.14474">
        <ele>340</ele>
        <time>2019-04-17T20:21:41Z</time>
      </trkpt>
      <trkpt lat="45.84045" lon="3.14479">
        <ele>340</ele>
        <time>2019-04-17T20:22:41Z</time>
      </trkpt>
      <trkpt lat="45.84052" lon="3.14502">
        <ele>340</ele>
        <time>2019-04-17T20:23:41Z</time>
      </trkpt>
      <trkpt lat="45.84062" lon="3.14586">
        <ele>341</ele>
        <time>2019-04-17T20:24:41Z</time>
      </trkpt>
      <trkpt lat="45.84088" lon="3.14735">
        <ele>340</ele>
        <time>2019-04-17T20:25:41Z</time>
      </trkpt>
      <trkpt lat="45.84154" lon="3.15157">
        <ele>338</ele>
        <time>2019-04-17T20:26:41Z</time>
      </trkpt>
      <trkpt lat="45.84169" lon="3.15282">
        <ele>337</ele>
        <time>2019-04-17T20:27:41Z</time>
      </trkpt>
      <trkpt lat="45.84183" lon="3.15482">
        <ele>334</ele>
        <time>2019-04-17T20:28:41Z</time>
      </trkpt>
      <trkpt lat="45.84186" lon="3.15568">
        <ele>332</ele>
        <time>2019-04-17T20:29:41Z</time>
      </trkpt>
      <trkpt lat="45.84187" lon="3.15654">
        <ele>329</ele>
        <time>2019-04-17T20:30:41Z</time>
      </trkpt>
      <trkpt lat="45.84186" lon="3.15697">
        <ele>328</ele>
        <time>2019-04-17T20:31:41Z</time>
      </trkpt>
      <trkpt lat="45.84178" lon="3.15763">
        <ele>326</ele>
        <time>2019-04-17T20:32:41Z</time>
      </trkpt>
      <trkpt lat="45.84174" lon="3.15778">
        <ele>326</ele>
        <time>2019-04-17T20:33:41Z</time>
      </trkpt>
      <trkpt lat="45.84162" lon="3.15784">
        <ele>325</ele>
        <time>2019-04-17T20:34:41Z</time>
      </trkpt>
      <trkpt lat="45.84156" lon="3.15791">
        <ele>325</ele>
        <time>2019-04-17T20:35:41Z</time>
      </trkpt>
      <trkpt lat="45.84151" lon="3.158">
        <ele>325</ele>
        <time>2019-04-17T20:36:41Z</time>
      </trkpt>
      <trkpt lat="45.84147" lon="3.15817">
        <ele>324</ele>
        <time>2019-04-17T20:37:41Z</time>
      </trkpt>
      <trkpt lat="45.84147" lon="3.1583">
        <ele>324</ele>
        <time>2019-04-17T20:38:41Z</time>
      </trkpt>
      <trkpt lat="45.84149" lon="3.15838">
        <ele>324</ele>
        <time>2019-04-17T20:39:41Z</time>
      </trkpt>
      <trkpt lat="45.84154" lon="3.1585">
        <ele>324</ele>
        <time>2019-04-17T20:40:41Z</time>
      </trkpt>
      <trkpt lat="45.84158" lon="3.15857">
        <ele>324</ele>
        <time>2019-04-17T20:41:41Z</time>
      </trkpt>
      <trkpt lat="45.84167" lon="3.15864">
        <ele>324</ele>
        <time>2019-04-17T20:42:41Z</time>
      </trkpt>
      <trkpt lat="45.84175" lon="3.15867">
        <ele>324</ele>
        <time>2019-04-17T20:43:41Z</time>
      </trkpt>
      <trkpt lat="45.84189" lon="3.15864">
        <ele>324</ele>
        <time>2019-04-17T20:44:41Z</time>
      </trkpt>
      <trkpt lat="45.84196" lon="3.15859">
        <ele>324</ele>
        <time>2019-04-17T20:45:41Z</time>
      </trkpt>
      <trkpt lat="45.84202" lon="3.15851">
        <ele>324</ele>
        <time>2019-04-17T20:46:41Z</time>
      </trkpt>
      <trkpt lat="45.84211" lon="3.15847">
        <ele>324</ele>
        <time>2019-04-17T20:47:41Z</time>
      </trkpt>
      <trkpt lat="45.84219" lon="3.15845">
        <ele>324</ele>
        <time>2019-04-17T20:48:41Z</time>
      </trkpt>
      <trkpt lat="45.84229" lon="3.15845">
        <ele>324</ele>
        <time>2019-04-17T20:49:41Z</time>
      </trkpt>
      <trkpt lat="45.84258" lon="3.1586">
        <ele>324</ele>
        <time>2019-04-17T20:50:41Z</time>
      </trkpt>
      <trkpt lat="45.84278" lon="3.15888">
        <ele>323</ele>
        <time>2019-04-17T20:51:41Z</time>
      </trkpt>
      <trkpt lat="45.84298" lon="3.15933">
        <ele>322</ele>
        <time>2019-04-17T20:52:41Z</time>
      </trkpt>
      <trkpt lat="45.84313" lon="3.15979">
        <ele>322</ele>
        <time>2019-04-17T20:53:41Z</time>
      </trkpt>
      <trkpt lat="45.8435" lon="3.16118">
        <ele>321</ele>
        <time>2019-04-17T20:54:41Z</time>
      </trkpt>
      <trkpt lat="45.84378" lon="3.1621">
        <ele>321</ele>
        <time>2019-04-17T20:55:41Z</time>
      </trkpt>
      <trkpt lat="45.84416" lon="3.16314">
        <ele>320</ele>
        <time>2019-04-17T20:56:41Z</time>
      </trkpt>
      <trkpt lat="45.8446" lon="3.164">
        <ele>320</ele>
        <time>2019-04-17T20:57:41Z</time>
      </trkpt>
      <trkpt lat="45.84479" lon="3.16436">
        <ele>320</ele>
        <time>2019-04-17T20:58:41Z</time>
      </trkpt>
      <trkpt lat="45.84498" lon="3.16463">
        <ele>320</ele>
        <time>2019-04-17T20:59:41Z</time>
      </trkpt>
      <trkpt lat="45.84521" lon="3.16482">
        <ele>320</ele>
        <time>2019-04-17T21:00:41Z</time>
      </trkpt>
      <trkpt lat="45.84544" lon="3.16494">
        <ele>320</ele>
        <time>2019-04-17T21:01:41Z</time>
      </trkpt>
      <trkpt lat="45.84601" lon="3.1651">
        <ele>319</ele>
        <time>2019-04-17T21:02:41Z</time>
      </trkpt>
      <trkpt lat="45.84612" lon="3.1652">
        <ele>319</ele>
        <time>2019-04-17T21:03:41Z</time>
      </trkpt>
      <trkpt lat="45.84623" lon="3.16538">
        <ele>319</ele>
        <time>2019-04-17T21:04:41Z</time>
      </trkpt>
      <trkpt lat="45.84626" lon="3.16559">
        <ele>319</ele>
        <time>2019-04-17T21:05:41Z</time>
      </trkpt>
      <trkpt lat="45.84622" lon="3.1658">
        <ele>319</ele>
        <time>2019-04-17T21:06:41Z</time>
      </trkpt>
      <trkpt lat="45.84617" lon="3.1659">
        <ele>320</ele>
        <time>2019-04-17T21:07:41Z</time>
      </trkpt>
      <trkpt lat="45.84608" lon="3.16594">
        <ele>320</ele>
        <time>2019-04-17T21:08:41Z</time>
      </trkpt>
      <trkpt lat="45.84598" lon="3.16604">
        <ele>320</ele>
        <time>2019-04-17T21:09:41Z</time>
      </trkpt>
      <trkpt lat="45.8459" lon="3.16617">
        <ele>320</ele>
        <time>2019-04-17T21:10:41Z</time>
      </trkpt>
      <trkpt lat="45.84585" lon="3.16628">
        <ele>320</ele>
        <time>2019-04-17T21:11:41Z</time>
      </trkpt>
      <trkpt lat="45.84582" lon="3.16644">
        <ele>320</ele>
        <time>2019-04-17T21:12:41Z</time>
      </trkpt>
      <trkpt lat="45.84582" lon="3.16655">
        <ele>320</ele>
        <time>2019-04-17T21:13:41Z</time>
      </trkpt>
      <trkpt lat="45.84584" lon="3.1667">
        <ele>320</ele>
        <time>2019-04-17T21:14:41Z</time>
      </trkpt>
      <trkpt lat="45.84588" lon="3.16684">
        <ele>320</ele>
        <time>2019-04-17T21:15:41Z</time>
      </trkpt>
      <trkpt lat="45.84594" lon="3.16696">
        <ele>319</ele>
        <time>2019-04-17T21:16:41Z</time>
      </trkpt>
      <trkpt lat="45.84579" lon="3.16709">
        <ele>319</ele>
        <time>2019-04-17T21:17:41Z</time>
      </trkpt>
      <trkpt lat="45.84551" lon="3.16744">
        <ele>318</ele>
        <time>2019-04-17T21:18:41Z</time>
      </trkpt>
      <trkpt lat="45.84526" lon="3.16781">
        <ele>318</ele>
        <time>2019-04-17T21:19:41Z</time>
      </trkpt>
      <trkpt lat="45.84503" lon="3.16825">
        <ele>318</ele>
        <time>2019-04-17T21:20:41Z</time>
      </trkpt>
      <trkpt lat="45.84487" lon="3.16867">
        <ele>318</ele>
        <time>2019-04-17T21:21:41Z</time>
      </trkpt>
      <trkpt lat="45.84369" lon="3.1732">
        <ele>317</ele>
        <time>2019-04-17T21:22:41Z</time>
      </trkpt>
      <trkpt lat="45.84356" lon="3.17376">
        <ele>317</ele>
        <time>2019-04-17T21:23:41Z</time>
      </trkpt>
      <trkpt lat="45.84348" lon="3.1744">
        <ele>317</ele>
        <time>2019-04-17T21:24:41Z</time>
      </trkpt>
      <trkpt lat="45.84345" lon="3.17513">
        <ele>317</ele>
        <time>2019-04-17T21:25:41Z</time>
      </trkpt>
      <trkpt lat="45.84347" lon="3.17571">
        <ele>317</ele>
        <time>2019-04-17T21:26:41Z</time>
      </trkpt>
      <trkpt lat="45.84352" lon="3.17619">
        <ele>317</ele>
        <time>2019-04-17T21:27:41Z</time>
      </trkpt>
      <trkpt lat="45.84361" lon="3.17676">
        <ele>317</ele>
        <time>2019-04-17T21:28:41Z</time>
      </trkpt>
      <trkpt lat="45.84373" lon="3.17726">
        <ele>317</ele>
        <time>2019-04-17T21:29:41Z</time>
      </trkpt>
      <trkpt lat="45.84401" lon="3.17809">
        <ele>317</ele>
        <time>2019-04-17T21:30:41Z</time>
      </trkpt>
      <trkpt lat="45.84654" lon="3.18306">
        <ele>317</ele>
        <time>2019-04-17T21:31:41Z</time>
      </trkpt>
      <trkpt lat="45.84733" lon="3.18444">
        <ele>317</ele>
        <time>2019-04-17T21:32:41Z</time>
      </trkpt>
      <trkpt lat="45.84727" lon="3.18458">
        <ele>317</ele>
        <time>2019-04-17T21:33:41Z</time>
      </trkpt>
      <trkpt lat="45.84727" lon="3.18466">
        <ele>317</ele>
        <time>2019-04-17T21:34:41Z</time>
      </trkpt>
      <trkpt lat="45.84728" lon="3.18474">
        <ele>317</ele>
        <time>2019-04-17T21:35:41Z</time>
      </trkpt>
      <trkpt lat="45.84732" lon="3.18482">
        <ele>317</ele>
        <time>2019-04-17T21:36:41Z</time>
      </trkpt>
      <trkpt lat="45.84737" lon="3.18487">
        <ele>317</ele>
        <time>2019-04-17T21:37:41Z</time>
      </trkpt>
      <trkpt lat="45.84743" lon="3.1849">
        <ele>317</ele>
        <time>2019-04-17T21:38:41Z</time>
      </trkpt>
      <trkpt lat="45.8475" lon="3.1849">
        <ele>317</ele>
        <time>2019-04-17T21:39:41Z</time>
      </trkpt>
      <trkpt lat="45.84753" lon="3.18559">
        <ele>317</ele>
        <time>2019-04-17T21:40:41Z</time>
      </trkpt>
      <trkpt lat="45.84749" lon="3.18594">
        <ele>317</ele>
        <time>2019-04-17T21:41:41Z</time>
      </trkpt>
      <trkpt lat="45.84729" lon="3.18665">
        <ele>317</ele>
        <time>2019-04-17T21:42:41Z</time>
      </trkpt>
      <trkpt lat="45.84647" lon="3.18851">
        <ele>316</ele>
        <time>2019-04-17T21:43:41Z</time>
      </trkpt>
      <trkpt lat="45.84636" lon="3.18881">
        <ele>317</ele>
        <time>2019-04-17T21:44:41Z</time>
      </trkpt>
      <trkpt lat="45.84626" lon="3.18921">
        <ele>317</ele>
        <time>2019-04-17T21:45:41Z</time>
      </trkpt>
      <trkpt lat="45.84587" lon="3.19168">
        <ele>316</ele>
        <time>2019-04-17T21:46:41Z</time>
      </trkpt>
      <trkpt lat="45.84582" lon="3.19209">
        <ele>316</ele>
        <time>2019-04-17T21:47:41Z</time>
      </trkpt>
      <trkpt lat="45.84581" lon="3.19255">
        <ele>315</ele>
        <time>2019-04-17T21:48:41Z</time>
      </trkpt>
      <trkpt lat="45.84587" lon="3.19595">
        <ele>316</ele>
        <time>2019-04-17T21:49:41Z</time>
      </trkpt>
      <trkpt lat="45.84584" lon="3.19641">
        <ele>315</ele>
        <time>2019-04-17T21:50:41Z</time>
      </trkpt>
      <trkpt lat="45.84527" lon="3.20011">
        <ele>317</ele>
        <time>2019-04-17T21:51:41Z</time>
      </trkpt>
      <trkpt lat="45.84515" lon="3.20058">
        <ele>317</ele>
        <time>2019-04-17T21:52:41Z</time>
      </trkpt>
      <trkpt lat="45.84464" lon="3.20181">
        <ele>317</ele>
        <time>2019-04-17T21:53:41Z</time>
      </trkpt>
      <trkpt lat="45.8445" lon="3.20224">
        <ele>316</ele>
        <time>2019-04-17T21:54:41Z</time>
      </trkpt>
      <trkpt lat="45.84434" lon="3.20286">
        <ele>316</ele>
        <time>2019-04-17T21:55:41Z</time>
      </trkpt>
      <trkpt lat="45.84367" lon="3.20574">
        <ele>315</ele>
        <time>2019-04-17T21:56:41Z</time>
      </trkpt>
      <trkpt lat="45.84354" lon="3.20618">
        <ele>315</ele>
        <time>2019-04-17T21:57:41Z</time>
      </trkpt>
      <trkpt lat="45.84341" lon="3.20649">
        <ele>315</ele>
        <time>2019-04-17T21:58:41Z</time>
      </trkpt>
      <trkpt lat="45.84252" lon="3.20814">
        <ele>316</ele>
        <time>2019-04-17T21:59:41Z</time>
      </trkpt>
      <trkpt lat="45.84235" lon="3.20856">
        <ele>316</ele>
        <time>2019-04-17T22:00:41Z</time>
      </trkpt>
      <trkpt lat="45.8416" lon="3.21142">
        <ele>317</ele>
        <time>2019-04-17T22:01:41Z</time>
      </trkpt>
      <trkpt lat="45.84155" lon="3.2114">
        <ele>317</ele>
        <time>2019-04-17T22:02:41Z</time>
      </trkpt>
      <trkpt lat="45.84144" lon="3.21141">
        <ele>317</ele>
        <time>2019-04-17T22:03:41Z</time>
      </trkpt>
      <trkpt lat="45.84139" lon="3.21145">
        <ele>317</ele>
        <time>2019-04-17T22:04:41Z</time>
      </trkpt>
      <trkpt lat="45.84133" lon="3.21157">
        <ele>316</ele>
        <time>2019-04-17T22:05:41Z</time>
      </trkpt>
      <trkpt lat="45.84132" lon="3.21172">
        <ele>316</ele>
        <time>2019-04-17T22:06:41Z</time>
      </trkpt>
      <trkpt lat="45.84138" lon="3.21186">
        <ele>316</ele>
        <time>2019-04-17T22:07:41Z</time>
      </trkpt>
      <trkpt lat="45.84143" lon="3.21191">
        <ele>316</ele>
        <time>2019-04-17T22:08:41Z</time>
      </trkpt>
      <trkpt lat="45.84149" lon="3.21193">
        <ele>316</ele>
        <time>2019-04-17T22:09:41Z</time>
      </trkpt>
      <trkpt lat="45.84155" lon="3.21193">
        <ele>316</ele>
        <time>2019-04-17T22:10:41Z</time>
      </trkpt>
      <trkpt lat="45.84193" lon="3.21429">
        <ele>317</ele>
        <time>2019-04-17T22:11:41Z</time>
      </trkpt>
      <trkpt lat="45.84201" lon="3.21501">
        <ele>318</ele>
        <time>2019-04-17T22:12:41Z</time>
      </trkpt>
      <trkpt lat="45.84197" lon="3.21545">
        <ele>318</ele>
        <time>2019-04-17T22:13:41Z</time>
      </trkpt>
      <trkpt lat="45.84171" lon="3.22">
        <ele>319</ele>
        <time>2019-04-17T22:14:41Z</time>
      </trkpt>
      <trkpt lat="45.84166" lon="3.22063">
        <ele>321</ele>
        <time>2019-04-17T22:15:41Z</time>
      </trkpt>
      <trkpt lat="45.84153" lon="3.22116">
        <ele>321</ele>
        <time>2019-04-17T22:16:41Z</time>
      </trkpt>
      <trkpt lat="45.84133" lon="3.22163">
        <ele>322</ele>
        <time>2019-04-17T22:17:41Z</time>
      </trkpt>
      <trkpt lat="45.84071" lon="3.22281">
        <ele>320</ele>
        <time>2019-04-17T22:18:41Z</time>
      </trkpt>
      <trkpt lat="45.84042" lon="3.2234">
        <ele>319</ele>
        <time>2019-04-17T22:19:41Z</time>
      </trkpt>
      <trkpt lat="45.8402" lon="3.22406">
        <ele>320</ele>
        <time>2019-04-17T22:20:41Z</time>
      </trkpt>
      <trkpt lat="45.84011" lon="3.22459">
        <ele>320</ele>
        <time>2019-04-17T22:21:41Z</time>
      </trkpt>
      <trkpt lat="45.83999" lon="3.22635">
        <ele>320</ele>
        <time>2019-04-17T22:22:41Z</time>
      </trkpt>
      <trkpt lat="45.83994" lon="3.2275">
        <ele>322</ele>
        <time>2019-04-17T22:23:41Z</time>
      </trkpt>
      <trkpt lat="45.83996" lon="3.22867">
        <ele>320</ele>
        <time>2019-04-17T22:24:41Z</time>
      </trkpt>
      <trkpt lat="45.84007" lon="3.23052">
        <ele>323</ele>
        <time>2019-04-17T22:25:41Z</time>
      </trkpt>
      <trkpt lat="45.84046" lon="3.23618">
        <ele>324</ele>
        <time>2019-04-17T22:26:41Z</time>
      </trkpt>
      <trkpt lat="45.84108" lon="3.24028">
        <ele>321</ele>
        <time>2019-04-17T22:27:41Z</time>
      </trkpt>
      <trkpt lat="45.8411" lon="3.24194">
        <ele>321</ele>
        <time>2019-04-17T22:28:41Z</time>
      </trkpt>
      <trkpt lat="45.84115" lon="3.24257">
        <ele>320</ele>
        <time>2019-04-17T22:29:41Z</time>
      </trkpt>
      <trkpt lat="45.8416" lon="3.24466">
        <ele>322</ele>
        <time>2019-04-17T22:30:41Z</time>
      </trkpt>
      <trkpt lat="45.84178" lon="3.24556">
        <ele>324</ele>
        <time>2019-04-17T22:31:41Z</time>
      </trkpt>
      <trkpt lat="45.84184" lon="3.2457">
        <ele>324</ele>
        <time>2019-04-17T22:32:41Z</time>
      </trkpt>
      <trkpt lat="45.84189" lon="3.24607">
        <ele>324</ele>
        <time>2019-04-17T22:33:41Z</time>
      </trkpt>
      <trkpt lat="45.84189" lon="3.24639">
        <ele>324</ele>
        <time>2019-04-17T22:34:41Z</time>
      </trkpt>
      <trkpt lat="45.84181" lon="3.24673">
        <ele>323</ele>
        <time>2019-04-17T22:35:41Z</time>
      </trkpt>
      <trkpt lat="45.84097" lon="3.24844">
        <ele>321</ele>
        <time>2019-04-17T22:36:41Z</time>
      </trkpt>
      <trkpt lat="45.84055" lon="3.24906">
        <ele>319</ele>
        <time>2019-04-17T22:37:41Z</time>
      </trkpt>
      <trkpt lat="45.84028" lon="3.24955">
        <ele>319</ele>
        <time>2019-04-17T22:38:41Z</time>
      </trkpt>
      <trkpt lat="45.83932" lon="3.25182">
        <ele>318</ele>
        <time>2019-04-17T22:39:41Z</time>
      </trkpt>
      <trkpt lat="45.8374" lon="3.25525">
        <ele>323</ele>
        <time>2019-04-17T22:40:41Z</time>
      </trkpt>
      <trkpt lat="45.83718" lon="3.2557">
        <ele>324</ele>
        <time>2019-04-17T22:41:41Z</time>
      </trkpt>
      <trkpt lat="45.83706" lon="3.25603">
        <ele>324</ele>
        <time>2019-04-17T22:42:41Z</time>
      </trkpt>
      <trkpt lat="45.83696" lon="3.25642">
        <ele>323</ele>
        <time>2019-04-17T22:43:41Z</time>
      </trkpt>
      <trkpt lat="45.83685" lon="3.2571">
        <ele>323</ele>
        <time>2019-04-17T22:44:41Z</time>
      </trkpt>
      <trkpt lat="45.83683" lon="3.25746">
        <ele>323</ele>
        <time>2019-04-17T22:45:41Z</time>
      </trkpt>
      <trkpt lat="45.83683" lon="3.25783">
        <ele>323</ele>
        <time>2019-04-17T22:46:41Z</time>
      </trkpt>
      <trkpt lat="45.83685" lon="3.25826">
        <ele>324</ele>
        <time>2019-04-17T22:47:41Z</time>
      </trkpt>
      <trkpt lat="45.83822" lon="3.26553">
        <ele>312</ele>
        <time>2019-04-17T22:48:41Z</time>
      </trkpt>
      <trkpt lat="45.83834" lon="3.2663">
        <ele>312</ele>
        <time>2019-04-17T22:49:41Z</time>
      </trkpt>
      <trkpt lat="45.83847" lon="3.26755">
        <ele>311</ele>
        <time>2019-04-17T22:50:41Z</time>
      </trkpt>
      <trkpt lat="45.83854" lon="3.26789">
        <ele>312</ele>
        <time>2019-04-17T22:51:41Z</time>
      </trkpt>
      <trkpt lat="45.83862" lon="3.26824">
        <ele>312</ele>
        <time>2019-04-17T22:52:41Z</time>
      </trkpt>
      <trkpt lat="45.83891" lon="3.26931">
        <ele>313</ele>
        <time>2019-04-17T22:53:41Z</time>
      </trkpt>
      <trkpt lat="45.839" lon="3.26987">
        <ele>313</ele>
        <time>2019-04-17T22:54:41Z</time>
      </trkpt>
      <trkpt lat="45.83899" lon="3.27003">
        <ele>312</ele>
        <time>2019-04-17T22:55:41Z</time>
      </trkpt>
      <trkpt lat="45.83893" lon="3.27018">
        <ele>311</ele>
        <time>2019-04-17T22:56:41Z</time>
      </trkpt>
      <trkpt lat="45.83946" lon="3.27077">
        <ele>310</ele>
        <time>2019-04-17T22:57:41Z</time>
      </trkpt>
      <trkpt lat="45.8399" lon="3.27135">
        <ele>311</ele>
        <time>2019-04-17T22:58:41Z</time>
      </trkpt>
      <trkpt lat="45.84021" lon="3.27166">
        <ele>312</ele>
        <time>2019-04-17T22:59:41Z</time>
      </trkpt>
      <trkpt lat="45.8427" lon="3.2738">
        <ele>313</ele>
        <time>2019-04-17T23:00:41Z</time>
      </trkpt>
      <trkpt lat="45.84375" lon="3.27491">
        <ele>317</ele>
        <time>2019-04-17T23:01:41Z</time>
      </trkpt>
      <trkpt lat="45.84429" lon="3.27559">
        <ele>317</ele>
        <time>2019-04-17T23:02:41Z</time>
      </trkpt>
      <trkpt lat="45.84459" lon="3.27637">
        <ele>319</ele>
        <time>2019-04-17T23:03:41Z</time>
      </trkpt>
      <trkpt lat="45.84563" lon="3.27991">
        <ele>316</ele>
        <time>2019-04-17T23:04:41Z</time>
      </trkpt>
      <trkpt lat="45.84588" lon="3.28038">
        <ele>315</ele>
        <time>2019-04-17T23:05:41Z</time>
      </trkpt>
      <trkpt lat="45.84701" lon="3.28158">
        <ele>313</ele>
        <time>2019-04-17T23:06:41Z</time>
      </trkpt>
      <trkpt lat="45.84846" lon="3.28306">
        <ele>309</ele>
        <time>2019-04-17T23:07:41Z</time>
      </trkpt>
      <trkpt lat="45.84879" lon="3.28325">
        <ele>310</ele>
        <time>2019-04-17T23:08:41Z</time>
      </trkpt>
      <trkpt lat="45.84914" lon="3.28334">
        <ele>311</ele>
        <time>2019-04-17T23:09:41Z</time>
      </trkpt>
      <trkpt lat="45.84985" lon="3.28346">
        <ele>311</ele>
        <time>2019-04-17T23:10:41Z</time>
      </trkpt>
      <trkpt lat="45.85025" lon="3.28355">
        <ele>311</ele>
        <time>2019-04-17T23:11:41Z</time>
      </trkpt>
      <trkpt lat="45.85068" lon="3.28375">
        <ele>311</ele>
        <time>2019-04-17T23:12:41Z</time>
      </trkpt>
      <trkpt lat="45.85109" lon="3.28405">
        <ele>309</ele>
        <time>2019-04-17T23:13:41Z</time>
      </trkpt>
      <trkpt lat="45.85151" lon="3.28448">
        <ele>307</ele>
        <time>2019-04-17T23:14:41Z</time>
      </trkpt>
      <trkpt lat="45.85184" lon="3.28494">
        <ele>307</ele>
        <time>2019-04-17T23:15:41Z</time>
      </trkpt>
      <trkpt lat="45.85362" lon="3.28786">
        <ele>308</ele>
        <time>2019-04-17T23:16:41Z</time>
      </trkpt>
      <trkpt lat="45.85467" lon="3.28953">
        <ele>309</ele>
        <time>2019-04-17T23:17:41Z</time>
      </trkpt>
      <trkpt lat="45.8549" lon="3.28998">
        <ele>309</ele>
        <time>2019-04-17T23:18:41Z</time>
      </trkpt>
      <trkpt lat="45.8559" lon="3.29274">
        <ele>305</ele>
        <time>2019-04-17T23:19:41Z</time>
      </trkpt>
      <trkpt lat="45.85639" lon="3.29391">
        <ele>304</ele>
        <time>2019-04-17T23:20:41Z</time>
      </trkpt>
      <trkpt lat="45.85729" lon="3.2968">
        <ele>304</ele>
        <time>2019-04-17T23:21:41Z</time>
      </trkpt>
      <trkpt lat="45.85776" lon="3.29774">
        <ele>305</ele>
        <time>2019-04-17T23:22:41Z</time>
      </trkpt>
      <trkpt lat="45.8582" lon="3.29912">
        <ele>305</ele>
        <time>2019-04-17T23:23:41Z</time>
      </trkpt>
      <trkpt lat="45.85838" lon="3.29949">
        <ele>306</ele>
        <time>2019-04-17T23:24:41Z</time>
      </trkpt>
      <trkpt lat="45.85855" lon="3.29968">
        <ele>306</ele>
        <time>2019-04-17T23:25:41Z</time>
      </trkpt>
      <trkpt lat="45.8588" lon="3.29991">
        <ele>306</ele>
        <time>2019-04-17T23:26:41Z</time>
      </trkpt>
      <trkpt lat="45.85948" lon="3.30043">
        <ele>307</ele>
        <time>2019-04-17T23:27:41Z</time>
      </trkpt>
      <trkpt lat="45.85978" lon="3.30073">
        <ele>307</ele>
        <time>2019-04-17T23:28:41Z</time>
      </trkpt>
      <trkpt lat="45.85989" lon="3.3008">
        <ele>307</ele>
        <time>2019-04-17T23:29:41Z</time>
      </trkpt>
      <trkpt lat="45.85992" lon="3.3009">
        <ele>307</ele>
        <time>2019-04-17T23:30:41Z</time>
      </trkpt>
      <trkpt lat="45.8599" lon="3.30113">
        <ele>308</ele>
        <time>2019-04-17T23:31:41Z</time>
      </trkpt>
      <trkpt lat="45.86017" lon="3.30163">
        <ele>309</ele>
        <time>2019-04-17T23:32:41Z</time>
      </trkpt>
      <trkpt lat="45.86057" lon="3.30203">
        <ele>309</ele>
        <time>2019-04-17T23:33:41Z</time>
      </trkpt>
      <trkpt lat="45.86169" lon="3.30339">
        <ele>306</ele>
        <time>2019-04-17T23:34:41Z</time>
      </trkpt>
      <trkpt lat="45.86182" lon="3.3035">
        <ele>305</ele>
        <time>2019-04-17T23:35:41Z</time>
      </trkpt>
      <trkpt lat="45.8619" lon="3.30355">
        <ele>304</ele>
        <time>2019-04-17T23:36:41Z</time>
      </trkpt>
      <trkpt lat="45.86205" lon="3.30357">
        <ele>304</ele>
        <time>2019-04-17T23:37:41Z</time>
      </trkpt>
      <trkpt lat="45.86213" lon="3.30363">
        <ele>303</ele>
        <time>2019-04-17T23:38:41Z</time>
      </trkpt>
      <trkpt lat="45.86217" lon="3.30374">
        <ele>302</ele>
        <time>2019-04-17T23:39:41Z</time>
      </trkpt>
      <trkpt lat="45.8622" lon="3.30385">
        <ele>300</ele>
        <time>2019-04-17T23:40:41Z</time>
      </trkpt>
      <trkpt lat="45.8622" lon="3.30398">
        <ele>299</ele>
        <time>2019-04-17T23:41:41Z</time>
      </trkpt>
      <trkpt lat="45.86212" lon="3.30494">
        <ele>295</ele>
        <time>2019-04-17T23:42:41Z</time>
      </trkpt>
      <trkpt lat="45.86205" lon="3.3054">
        <ele>294</ele>
        <time>2019-04-17T23:43:41Z</time>
      </trkpt>
      <trkpt lat="45.86161" lon="3.30762">
        <ele>294</ele>
        <time>2019-04-17T23:44:41Z</time>
      </trkpt>
      <trkpt lat="45.86071" lon="3.31202">
        <ele>294</ele>
        <time>2019-04-17T23:45:41Z</time>
      </trkpt>
      <trkpt lat="45.86046" lon="3.3133">
        <ele>292</ele>
        <time>2019-04-17T23:46:41Z</time>
      </trkpt>
      <trkpt lat="45.86042" lon="3.31368">
        <ele>292</ele>
        <time>2019-04-17T23:47:41Z</time>
      </trkpt>
      <trkpt lat="45.86041" lon="3.31409">
        <ele>292</ele>
        <time>2019-04-17T23:48:41Z</time>
      </trkpt>
      <trkpt lat="45.86039" lon="3.31595">
        <ele>293</ele>
        <time>2019-04-17T23:49:41Z</time>
      </trkpt>
      <trkpt lat="45.8604" lon="3.31846">
        <ele>293</ele>
        <time>2019-04-17T23:50:41Z</time>
      </trkpt>
      <trkpt lat="45.86039" lon="3.32043">
        <ele>293</ele>
        <time>2019-04-17T23:51:41Z</time>
      </trkpt>
      <trkpt lat="45.86045" lon="3.32211">
        <ele>295</ele>
        <time>2019-04-17T23:52:41Z</time>
      </trkpt>
      <trkpt lat="45.86052" lon="3.32269">
        <ele>296</ele>
        <time>2019-04-17T23:53:41Z</time>
      </trkpt>
      <trkpt lat="45.86113" lon="3.32465">
        <ele>301</ele>
        <time>2019-04-17T23:54:41Z</time>
      </trkpt>
      <trkpt lat="45.86117" lon="3.32549">
        <ele>302</ele>
        <time>2019-04-17T23:55:41Z</time>
      </trkpt>
      <trkpt lat="45.86097" lon="3.32678">
        <ele>301</ele>
        <time>2019-04-17T23:56:41Z</time>
      </trkpt>
      <trkpt lat="45.86089" lon="3.32905">
        <ele>303</ele>
        <time>2019-04-17T23:57:41Z</time>
      </trkpt>
      <trkpt lat="45.86116" lon="3.33215">
        <ele>301</ele>
        <time>2019-04-17T23:58:41Z</time>
      </trkpt>
      <trkpt lat="45.86122" lon="3.33248">
        <ele>301</ele>
        <time>2019-04-17T23:59:41Z</time>
      </trkpt>
      <trkpt lat="45.8617" lon="3.33415">
        <ele>298</ele>
        <time>2019-04-18T00:00:41Z</time>
      </trkpt>
      <trkpt lat="45.86196" lon="3.33484">
        <ele>297</ele>
        <time>2019-04-18T00:01:41Z</time>
      </trkpt>
      <trkpt lat="45.8621" lon="3.33501">
        <ele>298</ele>
        <time>2019-04-18T00:02:41Z</time>
      </trkpt>
      <trkpt lat="45.86271" lon="3.33533">
        <ele>299</ele>
        <time>2019-04-18T00:03:41Z</time>
      </trkpt>
      <trkpt lat="45.86298" lon="3.33549">
        <ele>300</ele>
        <time>2019-04-18T00:04:41Z</time>
      </trkpt>
      <trkpt lat="45.86345" lon="3.3355">
        <ele>301</ele>
        <time>2019-04-18T00:05:41Z</time>
      </trkpt>
      <trkpt lat="45.86364" lon="3.33544">
        <ele>301</ele>
        <time>2019-04-18T00:06:41Z</time>
      </trkpt>
      <trkpt lat="45.86388" lon="3.33528">
        <ele>301</ele>
        <time>2019-04-18T00:07:41Z</time>
      </trkpt>
      <trkpt lat="45.86411" lon="3.33521">
        <ele>300</ele>
        <time>2019-04-18T00:08:41Z</time>
      </trkpt>
      <trkpt lat="45.86616" lon="3.33495">
        <ele>298</ele>
        <time>2019-04-18T00:09:41Z</time>
      </trkpt>
      <trkpt lat="45.86633" lon="3.33494">
        <ele>298</ele>
        <time>2019-04-18T00:10:41Z</time>
      </trkpt>
      <trkpt lat="45.86649" lon="3.33497">
        <ele>298</ele>
        <time>2019-04-18T00:11:41Z</time>
      </trkpt>
      <trkpt lat="45.8667" lon="3.33508">
        <ele>299</ele>
        <time>2019-04-18T00:12:41Z</time>
      </trkpt>
      <trkpt lat="45.86709" lon="3.33539">
        <ele>301</ele>
        <time>2019-04-18T00:13:41Z</time>
      </trkpt>
      <trkpt lat="45.86752" lon="3.33578">
        <ele>302</ele>
        <time>2019-04-18T00:14:41Z</time>
      </trkpt>
      <trkpt lat="45.86801" lon="3.33604">
        <ele>302</ele>
        <time>2019-04-18T00:15:41Z</time>
      </trkpt>
      <trkpt lat="45.86859" lon="3.33619">
        <ele>301</ele>
        <time>2019-04-18T00:16:41Z</time>
      </trkpt>
      <trkpt lat="45.86963" lon="3.3363">
        <ele>301</ele>
        <time>2019-04-18T00:17:41Z</time>
      </trkpt>
      <trkpt lat="45.86992" lon="3.33635">
        <ele>301</ele>
        <time>2019-04-18T00:18:41Z</time>
      </trkpt>
      <trkpt lat="45.87023" lon="3.33643">
        <ele>301</ele>
        <time>2019-04-18T00:19:41Z</time>
      </trkpt>
      <trkpt lat="45.8705" lon="3.33654">
        <ele>301</ele>
        <time>2019-04-18T00:20:41Z</time>
      </trkpt>
      <trkpt lat="45.87074" lon="3.33667">
        <ele>301</ele>
        <time>2019-04-18T00:21:41Z</time>
      </trkpt>
      <trkpt lat="45.87122" lon="3.33698">
        <ele>300</ele>
        <time>2019-04-18T00:22:41Z</time>
      </trkpt>
      <trkpt lat="45.87158" lon="3.33727">
        <ele>299</ele>
        <time>2019-04-18T00:23:41Z</time>
      </trkpt>
      <trkpt lat="45.87187" lon="3.33755">
        <ele>297</ele>
        <time>2019-04-18T00:24:41Z</time>
      </trkpt>
      <trkpt lat="45.87216" lon="3.33786">
        <ele>297</ele>
        <time>2019-04-18T00:25:41Z</time>
      </trkpt>
      <trkpt lat="45.87239" lon="3.33813">
        <ele>297</ele>
        <time>2019-04-18T00:26:41Z</time>
      </trkpt>
      <trkpt lat="45.87265" lon="3.33866">
        <ele>296</ele>
        <time>2019-04-18T00:27:41Z</time>
      </trkpt>
      <trkpt lat="45.87291" lon="3.33929">
        <ele>295</ele>
        <time>2019-04-18T00:28:41Z</time>
      </trkpt>
      <trkpt lat="45.87303" lon="3.33962">
        <ele>296</ele>
        <time>2019-04-18T00:29:41Z</time>
      </trkpt>
      <trkpt lat="45.87343" lon="3.34102">
        <ele>299</ele>
        <time>2019-04-18T00:30:41Z</time>
      </trkpt>
      <trkpt lat="45.87355" lon="3.34134">
        <ele>299</ele>
        <time>2019-04-18T00:31:41Z</time>
      </trkpt>
      <trkpt lat="45.87367" lon="3.34158">
        <ele>299</ele>
        <time>2019-04-18T00:32:41Z</time>
      </trkpt>
      <trkpt lat="45.87381" lon="3.34181">
        <ele>299</ele>
        <time>2019-04-18T00:33:41Z</time>
      </trkpt>
      <trkpt lat="45.87411" lon="3.34216">
        <ele>299</ele>
        <time>2019-04-18T00:34:41Z</time>
      </trkpt>
      <trkpt lat="45.87428" lon="3.3423">
        <ele>299</ele>
        <time>2019-04-18T00:35:41Z</time>
      </trkpt>
      <trkpt lat="45.8745" lon="3.34243">
        <ele>298</ele>
        <time>2019-04-18T00:36:41Z</time>
      </trkpt>
      <trkpt lat="45.87519" lon="3.34275">
        <ele>298</ele>
        <time>2019-04-18T00:37:41Z</time>
      </trkpt>
      <trkpt lat="45.87549" lon="3.34299">
        <ele>299</ele>
        <time>2019-04-18T00:38:41Z</time>
      </trkpt>
      <trkpt lat="45.87681" lon="3.34444">
        <ele>298</ele>
        <time>2019-04-18T00:39:41Z</time>
      </trkpt>
      <trkpt lat="45.8771" lon="3.34463">
        <ele>297</ele>
        <time>2019-04-18T00:40:41Z</time>
      </trkpt>
      <trkpt lat="45.87722" lon="3.34475">
        <ele>297</ele>
        <time>2019-04-18T00:41:41Z</time>
      </trkpt>
      <trkpt lat="45.87741" lon="3.34498">
        <ele>297</ele>
        <time>2019-04-18T00:42:41Z</time>
      </trkpt>
      <trkpt lat="45.87774" lon="3.34551">
        <ele>298</ele>
        <time>2019-04-18T00:43:41Z</time>
      </trkpt>
      <trkpt lat="45.87788" lon="3.34576">
        <ele>299</ele>
        <time>2019-04-18T00:44:41Z</time>
      </trkpt>
      <trkpt lat="45.87805" lon="3.34611">
        <ele>299</ele>
        <time>2019-04-18T00:45:41Z</time>
      </trkpt>
      <trkpt lat="45.87818" lon="3.34632">
        <ele>300</ele>
        <time>2019-04-18T00:46:41Z</time>
      </trkpt>
      <trkpt lat="45.87866" lon="3.347">
        <ele>300</ele>
        <time>2019-04-18T00:47:41Z</time>
      </trkpt>
      <trkpt lat="45.87925" lon="3.34768">
        <ele>300</ele>
        <time>2019-04-18T00:48:41Z</time>
      </trkpt>
      <trkpt lat="45.8795" lon="3.34792">
        <ele>300</ele>
        <time>2019-04-18T00:49:41Z</time>
      </trkpt>
      <trkpt lat="45.88001" lon="3.34819">
        <ele>300</ele>
        <time>2019-04-18T00:50:41Z</time>
      </trkpt>
      <trkpt lat="45.88026" lon="3.34829">
        <ele>300</ele>
        <time>2019-04-18T00:51:41Z</time>
      </trkpt>
      <trkpt lat="45.88053" lon="3.34836">
        <ele>299</ele>
        <time>2019-04-18T00:52:41Z</time>
      </trkpt>
      <trkpt lat="45.88131" lon="3.34847">
        <ele>297</ele>
        <time>2019-04-18T00:53:41Z</time>
      </trkpt>
      <trkpt lat="45.88145" lon="3.34852">
        <ele>297</ele>
        <time>2019-04-18T00:54:41Z</time>
      </trkpt>
      <trkpt lat="45.8816" lon="3.34862">
        <ele>297</ele>
        <time>2019-04-18T00:55:41Z</time>
      </trkpt>
      <trkpt lat="45.88231" lon="3.34935">
        <ele>297</ele>
        <time>2019-04-18T00:56:41Z</time>
      </trkpt>
      <trkpt lat="45.88262" lon="3.34962">
        <ele>297</ele>
        <time>2019-04-18T00:57:41Z</time>
      </trkpt>
      <trkpt lat="45.8828" lon="3.34973">
        <ele>298</ele>
        <time>2019-04-18T00:58:41Z</time>
      </trkpt>
      <trkpt lat="45.88373" lon="3.35013">
        <ele>298</ele>
        <time>2019-04-18T00:59:41Z</time>
      </trkpt>
      <trkpt lat="45.88483" lon="3.35032">
        <ele>299</ele>
        <time>2019-04-18T01:00:41Z</time>
      </trkpt>
      <trkpt lat="45.88513" lon="3.35032">
        <ele>298</ele>
        <time>2019-04-18T01:01:41Z</time>
      </trkpt>
      <trkpt lat="45.88661" lon="3.35">
        <ele>294</ele>
        <time>2019-04-18T01:02:41Z</time>
      </trkpt>
      <trkpt lat="45.88709" lon="3.3498">
        <ele>295</ele>
        <time>2019-04-18T01:03:41Z</time>
      </trkpt>
      <trkpt lat="45.88793" lon="3.34941">
        <ele>295</ele>
        <time>2019-04-18T01:04:41Z</time>
      </trkpt>
      <trkpt lat="45.88856" lon="3.34902">
        <ele>294</ele>
        <time>2019-04-18T01:05:41Z</time>
      </trkpt>
      <trkpt lat="45.88875" lon="3.34894">
        <ele>294</ele>
        <time>2019-04-18T01:06:41Z</time>
      </trkpt>
      <trkpt lat="45.88923" lon="3.34883">
        <ele>294</ele>
        <time>2019-04-18T01:07:41Z</time>
      </trkpt>
      <trkpt lat="45.88953" lon="3.34885">
        <ele>296</ele>
        <time>2019-04-18T01:08:41Z</time>
      </trkpt>
      <trkpt lat="45.88968" lon="3.34892">
        <ele>297</ele>
        <time>2019-04-18T01:09:41Z</time>
      </trkpt>
      <trkpt lat="45.89023" lon="3.34926">
        <ele>300</ele>
        <time>2019-04-18T01:10:41Z</time>
      </trkpt>
      <trkpt lat="45.89044" lon="3.34934">
        <ele>300</ele>
        <time>2019-04-18T01:11:41Z</time>
      </trkpt>
      <trkpt lat="45.89033" lon="3.34983">
        <ele>304</ele>
        <time>2019-04-18T01:12:41Z</time>
      </trkpt>
      <trkpt lat="45.89021" lon="3.35018">
        <ele>308</ele>
        <time>2019-04-18T01:13:41Z</time>
      </trkpt>
      <trkpt lat="45.89002" lon="3.35039">
        <ele>313</ele>
        <time>2019-04-18T01:14:41Z</time>
      </trkpt>
      <trkpt lat="45.8898" lon="3.35046">
        <ele>314</ele>
        <time>2019-04-18T01:15:41Z</time>
      </trkpt>
      <trkpt lat="45.8897" lon="3.35051">
        <ele>315</ele>
        <time>2019-04-18T01:16:41Z</time>
      </trkpt>
      <trkpt lat="45.88951" lon="3.35078">
        <ele>320</ele>
        <time>2019-04-18T01:17:41Z</time>
      </trkpt>
      <trkpt lat="45.88943" lon="3.35096">
        <ele>322</ele>
        <time>2019-04-18T01:18:41Z</time>
      </trkpt>
      <trkpt lat="45.88942" lon="3.35117">
        <ele>324</ele>
        <time>2019-04-18T01:19:41Z</time>
      </trkpt>
      <trkpt lat="45.88943" lon="3.35139">
        <ele>325</ele>
        <time>2019-04-18T01:20:41Z</time>
      </trkpt>
      <trkpt lat="45.88956" lon="3.35139">
        <ele>325</ele>
        <time>2019-04-18T01:21:41Z</time>
      </trkpt>
      <trkpt lat="45.88965" lon="3.35148">
        <ele>326</ele>
        <time>2019-04-18T01:22:41Z</time>
      </trkpt>
      <trkpt lat="45.88971" lon="3.35165">
        <ele>328</ele>
        <time>2019-04-18T01:23:41Z</time>
      </trkpt>
      <trkpt lat="45.88975" lon="3.35193">
        <ele>328</ele>
        <time>2019-04-18T01:24:41Z</time>
      </trkpt>
      <trkpt lat="45.88978" lon="3.3524">
        <ele>328</ele>
        <time>2019-04-18T01:25:41Z</time>
      </trkpt>
      <trkpt lat="45.88974" lon="3.35292">
        <ele>328</ele>
        <time>2019-04-18T01:26:41Z</time>
      </trkpt>
      <trkpt lat="45.88976" lon="3.35312">
        <ele>328</ele>
        <time>2019-04-18T01:27:41Z</time>
      </trkpt>
      <trkpt lat="45.88989" lon="3.35335">
        <ele>328</ele>
        <time>2019-04-18T01:28:41Z</time>
      </trkpt>
      <trkpt lat="45.89043" lon="3.35409">
        <ele>328</ele>
        <time>2019-04-18T01:29:41Z</time>
      </trkpt>
      <trkpt lat="45.89055" lon="3.35434">
        <ele>327</ele>
        <time>2019-04-18T01:30:41Z</time>
      </trkpt>
      <trkpt lat="45.89062" lon="3.35463">
        <ele>327</ele>
        <time>2019-04-18T01:31:41Z</time>
      </trkpt>
      <trkpt lat="45.89066" lon="3.35502">
        <ele>327</ele>
        <time>2019-04-18T01:32:41Z</time>
      </trkpt>
      <trkpt lat="45.89075" lon="3.35528">
        <ele>327</ele>
        <time>2019-04-18T01:33:41Z</time>
      </trkpt>
      <trkpt lat="45.89101" lon="3.3557">
        <ele>328</ele>
        <time>2019-04-18T01:34:41Z</time>
      </trkpt>
      <trkpt lat="45.89169" lon="3.35659">
        <ele>327</ele>
        <time>2019-04-18T01:35:41Z</time>
      </trkpt>
      <trkpt lat="45.89157" lon="3.35682">
        <ele>327</ele>
        <time>2019-04-18T01:36:41Z</time>
      </trkpt>
      <trkpt lat="45.8914" lon="3.35733">
        <ele>326</ele>
        <time>2019-04-18T01:37:41Z</time>
      </trkpt>
      <trkpt lat="45.89136" lon="3.35761">
        <ele>326</ele>
        <time>2019-04-18T01:38:41Z</time>
      </trkpt>
      <trkpt lat="45.89136" lon="3.35812">
        <ele>326</ele>
        <time>2019-04-18T01:39:41Z</time>
      </trkpt>
      <trkpt lat="45.89132" lon="3.35862">
        <ele>326</ele>
        <time>2019-04-18T01:40:41Z</time>
      </trkpt>
      <trkpt lat="45.89136" lon="3.35905">
        <ele>325</ele>
        <time>2019-04-18T01:41:41Z</time>
      </trkpt>
      <trkpt lat="45.89145" lon="3.35941">
        <ele>326</ele>
        <time>2019-04-18T01:42:41Z</time>
      </trkpt>
      <trkpt lat="45.89175" lon="3.35964">
        <ele>326</ele>
        <time>2019-04-18T01:43:41Z</time>
      </trkpt>
      <trkpt lat="45.89221" lon="3.35987">
        <ele>326</ele>
        <time>2019-04-18T01:44:41Z</time>
      </trkpt>
      <trkpt lat="45.89243" lon="3.36012">
        <ele>326</ele>
        <time>2019-04-18T01:45:41Z</time>
      </trkpt>
      <trkpt lat="45.8926" lon="3.36077">
        <ele>326</ele>
        <time>2019-04-18T01:46:41Z</time>
      </trkpt>
      <trkpt lat="45.89281" lon="3.36177">
        <ele>328</ele>
        <time>2019-04-18T01:47:41Z</time>
      </trkpt>
      <trkpt lat="45.8933" lon="3.36304">
        <ele>327</ele>
        <time>2019-04-18T01:48:41Z</time>
      </trkpt>
      <trkpt lat="45.8934" lon="3.36347">
        <ele>327</ele>
        <time>2019-04-18T01:49:41Z</time>
      </trkpt>
      <trkpt lat="45.89344" lon="3.36445">
        <ele>327</ele>
        <time>2019-04-18T01:50:41Z</time>
      </trkpt>
      <trkpt lat="45.89351" lon="3.36551">
        <ele>327</ele>
        <time>2019-04-18T01:51:41Z</time>
      </trkpt>
      <trkpt lat="45.89363" lon="3.3668">
        <ele>328</ele>
        <time>2019-04-18T01:52:41Z</time>
      </trkpt>
      <trkpt lat="45.89387" lon="3.37001">
        <ele>324</ele>
        <time>2019-04-18T01:53:41Z</time>
      </trkpt>
      <trkpt lat="45.89393" lon="3.37051">
        <ele>324</ele>
        <time>2019-04-18T01:54:41Z</time>
      </trkpt>
      <trkpt lat="45.89403" lon="3.37106">
        <ele>323</ele>
        <time>2019-04-18T01:55:41Z</time>
      </trkpt>
      <trkpt lat="45.89412" lon="3.37173">
        <ele>324</ele>
        <time>2019-04-18T01:56:41Z</time>
      </trkpt>
      <trkpt lat="45.89413" lon="3.37244">
        <ele>324</ele>
        <time>2019-04-18T01:57:41Z</time>
      </trkpt>
      <trkpt lat="45.89407" lon="3.3739">
        <ele>322</ele>
        <time>2019-04-18T01:58:41Z</time>
      </trkpt>
      <trkpt lat="45.89382" lon="3.37504">
        <ele>319</ele>
        <time>2019-04-18T01:59:41Z</time>
      </trkpt>
      <trkpt lat="45.89375" lon="3.37554">
        <ele>319</ele>
        <time>2019-04-18T02:00:41Z</time>
      </trkpt>
      <trkpt lat="45.89382" lon="3.37599">
        <ele>318</ele>
        <time>2019-04-18T02:01:41Z</time>
      </trkpt>
      <trkpt lat="45.894" lon="3.37617">
        <ele>318</ele>
        <time>2019-04-18T02:02:41Z</time>
      </trkpt>
      <trkpt lat="45.89455" lon="3.3762">
        <ele>319</ele>
        <time>2019-04-18T02:03:41Z</time>
      </trkpt>
      <trkpt lat="45.89472" lon="3.3763">
        <ele>319</ele>
        <time>2019-04-18T02:04:41Z</time>
      </trkpt>
      <trkpt lat="45.89495" lon="3.3768">
        <ele>322</ele>
        <time>2019-04-18T02:05:41Z</time>
      </trkpt>
      <trkpt lat="45.89575" lon="3.37888">
        <ele>331</ele>
        <time>2019-04-18T02:06:41Z</time>
      </trkpt>
      <trkpt lat="45.89586" lon="3.37931">
        <ele>332</ele>
        <time>2019-04-18T02:07:41Z</time>
      </trkpt>
      <trkpt lat="45.89593" lon="3.37968">
        <ele>334</ele>
        <time>2019-04-18T02:08:41Z</time>
      </trkpt>
      <trkpt lat="45.89593" lon="3.37996">
        <ele>335</ele>
        <time>2019-04-18T02:09:41Z</time>
      </trkpt>
      <trkpt lat="45.89574" lon="3.38067">
        <ele>339</ele>
        <time>2019-04-18T02:10:41Z</time>
      </trkpt>
      <trkpt lat="45.89574" lon="3.38114">
        <ele>340</ele>
        <time>2019-04-18T02:11:41Z</time>
      </trkpt>
      <trkpt lat="45.89583" lon="3.38171">
        <ele>339</ele>
        <time>2019-04-18T02:12:41Z</time>
      </trkpt>
      <trkpt lat="45.89581" lon="3.38205">
        <ele>341</ele>
        <time>2019-04-18T02:13:41Z</time>
      </trkpt>
      <trkpt lat="45.89565" lon="3.3826">
        <ele>343</ele>
        <time>2019-04-18T02:14:41Z</time>
      </trkpt>
      <trkpt lat="45.89554" lon="3.38335">
        <ele>345</ele>
        <time>2019-04-18T02:15:41Z</time>
      </trkpt>
      <trkpt lat="45.89548" lon="3.38348">
        <ele>345</ele>
        <time>2019-04-18T02:16:41Z</time>
      </trkpt>
      <trkpt lat="45.89516" lon="3.38352">
        <ele>347</ele>
        <time>2019-04-18T02:17:41Z</time>
      </trkpt>
      <trkpt lat="45.89505" lon="3.38359">
        <ele>347</ele>
        <time>2019-04-18T02:18:41Z</time>
      </trkpt>
      <trkpt lat="45.89498" lon="3.38371">
        <ele>347</ele>
        <time>2019-04-18T02:19:41Z</time>
      </trkpt>
      <trkpt lat="45.89486" lon="3.38425">
        <ele>348</ele>
        <time>2019-04-18T02:20:41Z</time>
      </trkpt>
      <trkpt lat="45.89481" lon="3.38435">
        <ele>348</ele>
        <time>2019-04-18T02:21:41Z</time>
      </trkpt>
      <trkpt lat="45.89444" lon="3.38446">
        <ele>348</ele>
        <time>2019-04-18T02:22:41Z</time>
      </trkpt>
      <trkpt lat="45.89433" lon="3.38465">
        <ele>348</ele>
        <time>2019-04-18T02:23:41Z</time>
      </trkpt>
      <trkpt lat="45.89421" lon="3.38545">
        <ele>348</ele>
        <time>2019-04-18T02:24:41Z</time>
      </trkpt>
      <trkpt lat="45.89422" lon="3.38571">
        <ele>348</ele>
        <time>2019-04-18T02:25:41Z</time>
      </trkpt>
      <trkpt lat="45.89424" lon="3.38576">
        <ele>348</ele>
        <time>2019-04-18T02:26:41Z</time>
      </trkpt>
      <trkpt lat="45.89415" lon="3.38589">
        <ele>348</ele>
        <time>2019-04-18T02:27:41Z</time>
      </trkpt>
      <trkpt lat="45.89417" lon="3.38593">
        <ele>348</ele>
        <time>2019-04-18T02:28:41Z</time>
      </trkpt>
      <trkpt lat="45.89415" lon="3.38648">
        <ele>347</ele>
        <time>2019-04-18T02:29:41Z</time>
      </trkpt>
      <trkpt lat="45.89419" lon="3.38696">
        <ele>347</ele>
        <time>2019-04-18T02:30:41Z</time>
      </trkpt>
      <trkpt lat="45.89419" lon="3.38716">
        <ele>347</ele>
        <time>2019-04-18T02:31:41Z</time>
      </trkpt>
      <trkpt lat="45.89415" lon="3.38761">
        <ele>347</ele>
        <time>2019-04-18T02:32:41Z</time>
      </trkpt>
      <trkpt lat="45.89414" lon="3.38789">
        <ele>346</ele>
        <time>2019-04-18T02:33:41Z</time>
      </trkpt>
      <trkpt lat="45.89415" lon="3.38819">
        <ele>345</ele>
        <time>2019-04-18T02:34:41Z</time>
      </trkpt>
      <trkpt lat="45.89428" lon="3.38964">
        <ele>348</ele>
        <time>2019-04-18T02:35:41Z</time>
      </trkpt>
      <trkpt lat="45.89432" lon="3.38988">
        <ele>349</ele>
        <time>2019-04-18T02:36:41Z</time>
      </trkpt>
      <trkpt lat="45.89462" lon="3.39163">
        <ele>351</ele>
        <time>2019-04-18T02:37:41Z</time>
      </trkpt>
      <trkpt lat="45.89477" lon="3.39228">
        <ele>352</ele>
        <time>2019-04-18T02:38:41Z</time>
      </trkpt>
      <trkpt lat="45.8948" lon="3.39246">
        <ele>352</ele>
        <time>2019-04-18T02:39:41Z</time>
      </trkpt>
      <trkpt lat="45.89482" lon="3.39318">
        <ele>353</ele>
        <time>2019-04-18T02:40:41Z</time>
      </trkpt>
      <trkpt lat="45.89489" lon="3.39466">
        <ele>353</ele>
        <time>2019-04-18T02:41:41Z</time>
      </trkpt>
      <trkpt lat="45.89485" lon="3.39654">
        <ele>354</ele>
        <time>2019-04-18T02:42:41Z</time>
      </trkpt>
      <trkpt lat="45.89486" lon="3.39682">
        <ele>354</ele>
        <time>2019-04-18T02:43:41Z</time>
      </trkpt>
      <trkpt lat="45.89493" lon="3.39719">
        <ele>354</ele>
        <time>2019-04-18T02:44:41Z</time>
      </trkpt>
      <trkpt lat="45.89514" lon="3.39754">
        <ele>354</ele>
        <time>2019-04-18T02:45:41Z</time>
      </trkpt>
      <trkpt lat="45.89827" lon="3.40185">
        <ele>355</ele>
        <time>2019-04-18T02:46:41Z</time>
      </trkpt>
      <trkpt lat="45.89849" lon="3.40217">
        <ele>355</ele>
        <time>2019-04-18T02:47:41Z</time>
      </trkpt>
      <trkpt lat="45.89857" lon="3.40236">
        <ele>355</ele>
        <time>2019-04-18T02:48:41Z</time>
      </trkpt>
      <trkpt lat="45.8987" lon="3.40334">
        <ele>356</ele>
        <time>2019-04-18T02:49:41Z</time>
      </trkpt>
      <trkpt lat="45.89904" lon="3.40615">
        <ele>353</ele>
        <time>2019-04-18T02:50:41Z</time>
      </trkpt>
      <trkpt lat="45.89951" lon="3.40877">
        <ele>352</ele>
        <time>2019-04-18T02:51:41Z</time>
      </trkpt>
      <trkpt lat="45.89953" lon="3.40911">
        <ele>351</ele>
        <time>2019-04-18T02:52:41Z</time>
      </trkpt>
      <trkpt lat="45.89952" lon="3.40948">
        <ele>351</ele>
        <time>2019-04-18T02:53:41Z</time>
      </trkpt>
      <trkpt lat="45.89939" lon="3.41053">
        <ele>351</ele>
        <time>2019-04-18T02:54:41Z</time>
      </trkpt>
      <trkpt lat="45.89939" lon="3.41142">
        <ele>349</ele>
        <time>2019-04-18T02:55:41Z</time>
      </trkpt>
      <trkpt lat="45.89941" lon="3.41157">
        <ele>349</ele>
        <time>2019-04-18T02:56:41Z</time>
      </trkpt>
      <trkpt lat="45.89945" lon="3.41161">
        <ele>349</ele>
        <time>2019-04-18T02:57:41Z</time>
      </trkpt>
      <trkpt lat="45.89941" lon="3.41171">
        <ele>349</ele>
        <time>2019-04-18T02:58:41Z</time>
      </trkpt>
      <trkpt lat="45.89931" lon="3.41222">
        <ele>349</ele>
        <time>2019-04-18T02:59:41Z</time>
      </trkpt>
      <trkpt lat="45.89919" lon="3.41341">
        <ele>348</ele>
        <time>2019-04-18T03:00:41Z</time>
      </trkpt>
      <trkpt lat="45.89899" lon="3.41397">
        <ele>349</ele>
        <time>2019-04-18T03:01:41Z</time>
      </trkpt>
      <trkpt lat="45.89861" lon="3.41482">
        <ele>349</ele>
        <time>2019-04-18T03:02:41Z</time>
      </trkpt>
      <trkpt lat="45.89826" lon="3.41547">
        <ele>348</ele>
        <time>2019-04-18T03:03:41Z</time>
      </trkpt>
      <trkpt lat="45.89801" lon="3.4158">
        <ele>347</ele>
        <time>2019-04-18T03:04:41Z</time>
      </trkpt>
      <trkpt lat="45.89774" lon="3.41611">
        <ele>348</ele>
        <time>2019-04-18T03:05:41Z</time>
      </trkpt>
      <trkpt lat="45.89732" lon="3.4167">
        <ele>350</ele>
        <time>2019-04-18T03:06:41Z</time>
      </trkpt>
      <trkpt lat="45.89693" lon="3.41746">
        <ele>349</ele>
        <time>2019-04-18T03:07:41Z</time>
      </trkpt>
      <trkpt lat="45.89661" lon="3.41827">
        <ele>347</ele>
        <time>2019-04-18T03:08:41Z</time>
      </trkpt>
      <trkpt lat="45.8961" lon="3.41965">
        <ele>347</ele>
        <time>2019-04-18T03:09:41Z</time>
      </trkpt>
      <trkpt lat="45.89368" lon="3.42212">
        <ele>347</ele>
        <time>2019-04-18T03:10:41Z</time>
      </trkpt>
      <trkpt lat="45.89308" lon="3.42398">
        <ele>346</ele>
        <time>2019-04-18T03:11:41Z</time>
      </trkpt>
      <trkpt lat="45.89292" lon="3.42439">
        <ele>345</ele>
        <time>2019-04-18T03:12:41Z</time>
      </trkpt>
      <trkpt lat="45.89257" lon="3.42509">
        <ele>346</ele>
        <time>2019-04-18T03:13:41Z</time>
      </trkpt>
      <trkpt lat="45.8925" lon="3.42549">
        <ele>344</ele>
        <time>2019-04-18T03:14:41Z</time>
      </trkpt>
      <trkpt lat="45.89249" lon="3.42585">
        <ele>343</ele>
        <time>2019-04-18T03:15:41Z</time>
      </trkpt>
      <trkpt lat="45.89251" lon="3.4262">
        <ele>342</ele>
        <time>2019-04-18T03:16:41Z</time>
      </trkpt>
      <trkpt lat="45.89269" lon="3.42764">
        <ele>337</ele>
        <time>2019-04-18T03:17:41Z</time>
      </trkpt>
      <trkpt lat="45.89273" lon="3.42836">
        <ele>333</ele>
        <time>2019-04-18T03:18:41Z</time>
      </trkpt>
      <trkpt lat="45.89271" lon="3.42896">
        <ele>331</ele>
        <time>2019-04-18T03:19:41Z</time>
      </trkpt>
      <trkpt lat="45.89264" lon="3.42948">
        <ele>330</ele>
        <time>2019-04-18T03:20:41Z</time>
      </trkpt>
      <trkpt lat="45.89255" lon="3.42994">
        <ele>329</ele>
        <time>2019-04-18T03:21:41Z</time>
      </trkpt>
      <trkpt lat="45.89101" lon="3.43515">
        <ele>320</ele>
        <time>2019-04-18T03:22:41Z</time>
      </trkpt>
      <trkpt lat="45.89036" lon="3.43726">
        <ele>317</ele>
        <time>2019-04-18T03:23:41Z</time>
      </trkpt>
      <trkpt lat="45.88992" lon="3.43877">
        <ele>318</ele>
        <time>2019-04-18T03:24:41Z</time>
      </trkpt>
      <trkpt lat="45.88948" lon="3.44013">
        <ele>316</ele>
        <time>2019-04-18T03:25:41Z</time>
      </trkpt>
      <trkpt lat="45.88918" lon="3.44088">
        <ele>317</ele>
        <time>2019-04-18T03:26:41Z</time>
      </trkpt>
      <trkpt lat="45.88858" lon="3.44201">
        <ele>318</ele>
        <time>2019-04-18T03:27:41Z</time>
      </trkpt>
      <trkpt lat="45.888" lon="3.44286">
        <ele>317</ele>
        <time>2019-04-18T03:28:41Z</time>
      </trkpt>
      <trkpt lat="45.88744" lon="3.44353">
        <ele>315</ele>
        <time>2019-04-18T03:29:41Z</time>
      </trkpt>
      <trkpt lat="45.8858" lon="3.44513">
        <ele>315</ele>
        <time>2019-04-18T03:30:41Z</time>
      </trkpt>
      <trkpt lat="45.88552" lon="3.44548">
        <ele>315</ele>
        <time>2019-04-18T03:31:41Z</time>
      </trkpt>
      <trkpt lat="45.88592" lon="3.44604">
        <ele>314</ele>
        <time>2019-04-18T03:32:41Z</time>
      </trkpt>
      <trkpt lat="45.88674" lon="3.44739">
        <ele>312</ele>
        <time>2019-04-18T03:33:41Z</time>
      </trkpt>
      <trkpt lat="45.88736" lon="3.44803">
        <ele>313</ele>
        <time>2019-04-18T03:34:41Z</time>
      </trkpt>
      <trkpt lat="45.88831" lon="3.44874">
        <ele>312</ele>
        <time>2019-04-18T03:35:41Z</time>
      </trkpt>
      <trkpt lat="45.88848" lon="3.44895">
        <ele>312</ele>
        <time>2019-04-18T03:36:41Z</time>
      </trkpt>
      <trkpt lat="45.88886" lon="3.45185">
        <ele>304</ele>
        <time>2019-04-18T03:37:41Z</time>
      </trkpt>
      <trkpt lat="45.88902" lon="3.45232">
        <ele>304</ele>
        <time>2019-04-18T03:38:41Z</time>
      </trkpt>
      <trkpt lat="45.88929" lon="3.4534">
        <ele>303</ele>
        <time>2019-04-18T03:39:41Z</time>
      </trkpt>
      <trkpt lat="45.88976" lon="3.45507">
        <ele>305</ele>
        <time>2019-04-18T03:40:41Z</time>
      </trkpt>
      <trkpt lat="45.89095" lon="3.46021">
        <ele>299</ele>
        <time>2019-04-18T03:41:41Z</time>
      </trkpt>
      <trkpt lat="45.89127" lon="3.46175">
        <ele>300</ele>
        <time>2019-04-18T03:42:41Z</time>
      </trkpt>
      <trkpt lat="45.89164" lon="3.4644">
        <ele>298</ele>
        <time>2019-04-18T03:43:41Z</time>
      </trkpt>
      <trkpt lat="45.8916" lon="3.46507">
        <ele>296</ele>
        <time>2019-04-18T03:44:41Z</time>
      </trkpt>
      <trkpt lat="45.89145" lon="3.46568">
        <ele>293</ele>
        <time>2019-04-18T03:45:41Z</time>
      </trkpt>
      <trkpt lat="45.8913" lon="3.46608">
        <ele>291</ele>
        <time>2019-04-18T03:46:41Z</time>
      </trkpt>
      <trkpt lat="45.89103" lon="3.46662">
        <ele>288</ele>
        <time>2019-04-18T03:47:41Z</time>
      </trkpt>
      <trkpt lat="45.89083" lon="3.46721">
        <ele>285</ele>
        <time>2019-04-18T03:48:41Z</time>
      </trkpt>
      <trkpt lat="45.89075" lon="3.46768">
        <ele>284</ele>
        <time>2019-04-18T03:49:41Z</time>
      </trkpt>
      <trkpt lat="45.89074" lon="3.46801">
        <ele>283</ele>
        <time>2019-04-18T03:50:41Z</time>
      </trkpt>
      <trkpt lat="45.89079" lon="3.46957">
        <ele>283</ele>
        <time>2019-04-18T03:51:41Z</time>
      </trkpt>
      <trkpt lat="45.89078" lon="3.46994">
        <ele>283</ele>
        <time>2019-04-18T03:52:41Z</time>
      </trkpt>
      <trkpt lat="45.89074" lon="3.47019">
        <ele>284</ele>
        <time>2019-04-18T03:53:41Z</time>
      </trkpt>
      <trkpt lat="45.89067" lon="3.47045">
        <ele>284</ele>
        <time>2019-04-18T03:54:41Z</time>
      </trkpt>
      <trkpt lat="45.89057" lon="3.47071">
        <ele>284</ele>
        <time>2019-04-18T03:55:41Z</time>
      </trkpt>
      <trkpt lat="45.89004" lon="3.47181">
        <ele>283</ele>
        <time>2019-04-18T03:56:41Z</time>
      </trkpt>
      <trkpt lat="45.88996" lon="3.4721">
        <ele>284</ele>
        <time>2019-04-18T03:57:41Z</time>
      </trkpt>
      <trkpt lat="45.88989" lon="3.47242">
        <ele>284</ele>
        <time>2019-04-18T03:58:41Z</time>
      </trkpt>
      <trkpt lat="45.88986" lon="3.47287">
        <ele>283</ele>
        <time>2019-04-18T03:59:41Z</time>
      </trkpt>
      <trkpt lat="45.88989" lon="3.47326">
        <ele>282</ele>
        <time>2019-04-18T04:00:41Z</time>
      </trkpt>
      <trkpt lat="45.89022" lon="3.47512">
        <ele>282</ele>
        <time>2019-04-18T04:01:41Z</time>
      </trkpt>
      <trkpt lat="45.89038" lon="3.476">
        <ele>282</ele>
        <time>2019-04-18T04:02:41Z</time>
      </trkpt>
      <trkpt lat="45.89053" lon="3.47652">
        <ele>282</ele>
        <time>2019-04-18T04:03:41Z</time>
      </trkpt>
      <trkpt lat="45.89076" lon="3.47701">
        <ele>282</ele>
        <time>2019-04-18T04:04:41Z</time>
      </trkpt>
      <trkpt lat="45.89175" lon="3.47895">
        <ele>282</ele>
        <time>2019-04-18T04:05:41Z</time>
      </trkpt>
      <trkpt lat="45.89193" lon="3.47949">
        <ele>282</ele>
        <time>2019-04-18T04:06:41Z</time>
      </trkpt>
      <trkpt lat="45.892" lon="3.47987">
        <ele>283</ele>
        <time>2019-04-18T04:07:41Z</time>
      </trkpt>
      <trkpt lat="45.89205" lon="3.48038">
        <ele>285</ele>
        <time>2019-04-18T04:08:41Z</time>
      </trkpt>
      <trkpt lat="45.89209" lon="3.48122">
        <ele>290</ele>
        <time>2019-04-18T04:09:41Z</time>
      </trkpt>
      <trkpt lat="45.89208" lon="3.48144">
        <ele>291</ele>
        <time>2019-04-18T04:10:41Z</time>
      </trkpt>
      <trkpt lat="45.89204" lon="3.48157">
        <ele>291</ele>
        <time>2019-04-18T04:11:41Z</time>
      </trkpt>
      <trkpt lat="45.89192" lon="3.48184">
        <ele>292</ele>
        <time>2019-04-18T04:12:41Z</time>
      </trkpt>
      <trkpt lat="45.89142" lon="3.48178">
        <ele>290</ele>
        <time>2019-04-18T04:13:41Z</time>
      </trkpt>
      <trkpt lat="45.89093" lon="3.48174">
        <ele>290</ele>
        <time>2019-04-18T04:14:41Z</time>
      </trkpt>
      <trkpt lat="45.88984" lon="3.48246">
        <ele>292</ele>
        <time>2019-04-18T04:15:41Z</time>
      </trkpt>
      <trkpt lat="45.8897" lon="3.48261">
        <ele>292</ele>
        <time>2019-04-18T04:16:41Z</time>
      </trkpt>
      <trkpt lat="45.88932" lon="3.48308">
        <ele>292</ele>
        <time>2019-04-18T04:17:41Z</time>
      </trkpt>
      <trkpt lat="45.88819" lon="3.48439">
        <ele>295</ele>
        <time>2019-04-18T04:18:41Z</time>
      </trkpt>
      <trkpt lat="45.88806" lon="3.48451">
        <ele>295</ele>
        <time>2019-04-18T04:19:41Z</time>
      </trkpt>
      <trkpt lat="45.8879" lon="3.48461">
        <ele>295</ele>
        <time>2019-04-18T04:20:41Z</time>
      </trkpt>
      <trkpt lat="45.88749" lon="3.48481">
        <ele>295</ele>
        <time>2019-04-18T04:21:41Z</time>
      </trkpt>
      <trkpt lat="45.88596" lon="3.48537">
        <ele>294</ele>
        <time>2019-04-18T04:22:41Z</time>
      </trkpt>
      <trkpt lat="45.88536" lon="3.48551">
        <ele>295</ele>
        <time>2019-04-18T04:23:41Z</time>
      </trkpt>
      <trkpt lat="45.885" lon="3.48556">
        <ele>295</ele>
        <time>2019-04-18T04:24:41Z</time>
      </trkpt>
      <trkpt lat="45.88422" lon="3.48578">
        <ele>298</ele>
        <time>2019-04-18T04:25:41Z</time>
      </trkpt>
      <trkpt lat="45.88394" lon="3.48581">
        <ele>298</ele>
        <time>2019-04-18T04:26:41Z</time>
      </trkpt>
      <trkpt lat="45.88362" lon="3.48581">
        <ele>298</ele>
        <time>2019-04-18T04:27:41Z</time>
      </trkpt>
      <trkpt lat="45.88328" lon="3.48574">
        <ele>297</ele>
        <time>2019-04-18T04:28:41Z</time>
      </trkpt>
      <trkpt lat="45.87929" lon="3.48476">
        <ele>291</ele>
        <time>2019-04-18T04:29:41Z</time>
      </trkpt>
      <trkpt lat="45.87864" lon="3.48471">
        <ele>291</ele>
        <time>2019-04-18T04:30:41Z</time>
      </trkpt>
      <trkpt lat="45.87805" lon="3.48477">
        <ele>291</ele>
        <time>2019-04-18T04:31:41Z</time>
      </trkpt>
      <trkpt lat="45.87741" lon="3.48494">
        <ele>291</ele>
        <time>2019-04-18T04:32:41Z</time>
      </trkpt>
      <trkpt lat="45.87593" lon="3.48537">
        <ele>291</ele>
        <time>2019-04-18T04:33:41Z</time>
      </trkpt>
      <trkpt lat="45.87484" lon="3.4859">
        <ele>292</ele>
        <time>2019-04-18T04:34:41Z</time>
      </trkpt>
      <trkpt lat="45.87459" lon="3.486">
        <ele>293</ele>
        <time>2019-04-18T04:35:41Z</time>
      </trkpt>
      <trkpt lat="45.87422" lon="3.48611">
        <ele>294</ele>
        <time>2019-04-18T04:36:41Z</time>
      </trkpt>
      <trkpt lat="45.87382" lon="3.48619">
        <ele>294</ele>
        <time>2019-04-18T04:37:41Z</time>
      </trkpt>
      <trkpt lat="45.87349" lon="3.48629">
        <ele>294</ele>
        <time>2019-04-18T04:38:41Z</time>
      </trkpt>
      <trkpt lat="45.87325" lon="3.48639">
        <ele>293</ele>
        <time>2019-04-18T04:39:41Z</time>
      </trkpt>
      <trkpt lat="45.87247" lon="3.48684">
        <ele>290</ele>
        <time>2019-04-18T04:40:41Z</time>
      </trkpt>
      <trkpt lat="45.87182" lon="3.48724">
        <ele>293</ele>
        <time>2019-04-18T04:41:41Z</time>
      </trkpt>
      <trkpt lat="45.87162" lon="3.48739">
        <ele>293</ele>
        <time>2019-04-18T04:42:41Z</time>
      </trkpt>
      <trkpt lat="45.87128" lon="3.48782">
        <ele>294</ele>
        <time>2019-04-18T04:43:41Z</time>
      </trkpt>
      <trkpt lat="45.87089" lon="3.48854">
        <ele>294</ele>
        <time>2019-04-18T04:44:41Z</time>
      </trkpt>
      <trkpt lat="45.87062" lon="3.48894">
        <ele>293</ele>
        <time>2019-04-18T04:45:41Z</time>
      </trkpt>
      <trkpt lat="45.87042" lon="3.48913">
        <ele>292</ele>
        <time>2019-04-18T04:46:41Z</time>
      </trkpt>
      <trkpt lat="45.87015" lon="3.48936">
        <ele>291</ele>
        <time>2019-04-18T04:47:41Z</time>
      </trkpt>
      <trkpt lat="45.86867" lon="3.4904">
        <ele>292</ele>
        <time>2019-04-18T04:48:41Z</time>
      </trkpt>
      <trkpt lat="45.86851" lon="3.49057">
        <ele>293</ele>
        <time>2019-04-18T04:49:41Z</time>
      </trkpt>
      <trkpt lat="45.86807" lon="3.49112">
        <ele>296</ele>
        <time>2019-04-18T04:50:41Z</time>
      </trkpt>
      <trkpt lat="45.86784" lon="3.49147">
        <ele>297</ele>
        <time>2019-04-18T04:51:41Z</time>
      </trkpt>
      <trkpt lat="45.86744" lon="3.49199">
        <ele>299</ele>
        <time>2019-04-18T04:52:41Z</time>
      </trkpt>
      <trkpt lat="45.8672" lon="3.49235">
        <ele>299</ele>
        <time>2019-04-18T04:53:41Z</time>
      </trkpt>
      <trkpt lat="45.86702" lon="3.49273">
        <ele>299</ele>
        <time>2019-04-18T04:54:41Z</time>
      </trkpt>
      <trkpt lat="45.86675" lon="3.4934">
        <ele>298</ele>
        <time>2019-04-18T04:55:41Z</time>
      </trkpt>
      <trkpt lat="45.86669" lon="3.49377">
        <ele>299</ele>
        <time>2019-04-18T04:56:41Z</time>
      </trkpt>
      <trkpt lat="45.86655" lon="3.49452">
        <ele>300</ele>
        <time>2019-04-18T04:57:41Z</time>
      </trkpt>
      <trkpt lat="45.86649" lon="3.49494">
        <ele>300</ele>
        <time>2019-04-18T04:58:41Z</time>
      </trkpt>
      <trkpt lat="45.86635" lon="3.49535">
        <ele>302</ele>
        <time>2019-04-18T04:59:41Z</time>
      </trkpt>
      <trkpt lat="45.86623" lon="3.4956">
        <ele>302</ele>
        <time>2019-04-18T05:00:41Z</time>
      </trkpt>
      <trkpt lat="45.8661" lon="3.49572">
        <ele>302</ele>
        <time>2019-04-18T05:01:41Z</time>
      </trkpt>
      <trkpt lat="45.86578" lon="3.49578">
        <ele>301</ele>
        <time>2019-04-18T05:02:41Z</time>
      </trkpt>
      <trkpt lat="45.8656" lon="3.49587">
        <ele>300</ele>
        <time>2019-04-18T05:03:41Z</time>
      </trkpt>
      <trkpt lat="45.86544" lon="3.496">
        <ele>300</ele>
        <time>2019-04-18T05:04:41Z</time>
      </trkpt>
      <trkpt lat="45.86536" lon="3.49615">
        <ele>301</ele>
        <time>2019-04-18T05:05:41Z</time>
      </trkpt>
      <trkpt lat="45.86529" lon="3.49634">
        <ele>301</ele>
        <time>2019-04-18T05:06:41Z</time>
      </trkpt>
      <trkpt lat="45.86521" lon="3.49665">
        <ele>302</ele>
        <time>2019-04-18T05:07:41Z</time>
      </trkpt>
      <trkpt lat="45.86491" lon="3.49829">
        <ele>302</ele>
        <time>2019-04-18T05:08:41Z</time>
      </trkpt>
      <trkpt lat="45.86482" lon="3.49903">
        <ele>303</ele>
        <time>2019-04-18T05:09:41Z</time>
      </trkpt>
      <trkpt lat="45.86481" lon="3.49995">
        <ele>302</ele>
        <time>2019-04-18T05:10:41Z</time>
      </trkpt>
      <trkpt lat="45.86493" lon="3.50177">
        <ele>304</ele>
        <time>2019-04-18T05:11:41Z</time>
      </trkpt>
      <trkpt lat="45.86494" lon="3.50236">
        <ele>304</ele>
        <time>2019-04-18T05:12:41Z</time>
      </trkpt>
      <trkpt lat="45.86486" lon="3.50333">
        <ele>304</ele>
        <time>2019-04-18T05:13:41Z</time>
      </trkpt>
      <trkpt lat="45.86478" lon="3.50489">
        <ele>304</ele>
        <time>2019-04-18T05:14:41Z</time>
      </trkpt>
      <trkpt lat="45.86473" lon="3.50514">
        <ele>304</ele>
        <time>2019-04-18T05:15:41Z</time>
      </trkpt>
      <trkpt lat="45.86471" lon="3.50522">
        <ele>304</ele>
        <time>2019-04-18T05:16:41Z</time>
      </trkpt>
      <trkpt lat="45.86458" lon="3.50536">
        <ele>303</ele>
        <time>2019-04-18T05:17:41Z</time>
      </trkpt>
      <trkpt lat="45.86445" lon="3.50534">
        <ele>303</ele>
        <time>2019-04-18T05:18:41Z</time>
      </trkpt>
      <trkpt lat="45.86432" lon="3.50541">
        <ele>303</ele>
        <time>2019-04-18T05:19:41Z</time>
      </trkpt>
      <trkpt lat="45.86428" lon="3.50547">
        <ele>303</ele>
        <time>2019-04-18T05:20:41Z</time>
      </trkpt>
      <trkpt lat="45.86423" lon="3.50558">
        <ele>303</ele>
        <time>2019-04-18T05:21:41Z</time>
      </trkpt>
      <trkpt lat="45.86421" lon="3.50571">
        <ele>303</ele>
        <time>2019-04-18T05:22:41Z</time>
      </trkpt>
      <trkpt lat="45.86416" lon="3.50581">
        <ele>303</ele>
        <time>2019-04-18T05:23:41Z</time>
      </trkpt>
      <trkpt lat="45.86399" lon="3.50595">
        <ele>304</ele>
        <time>2019-04-18T05:24:41Z</time>
      </trkpt>
      <trkpt lat="45.86362" lon="3.50635">
        <ele>306</ele>
        <time>2019-04-18T05:25:41Z</time>
      </trkpt>
      <trkpt lat="45.86314" lon="3.50741">
        <ele>311</ele>
        <time>2019-04-18T05:26:41Z</time>
      </trkpt>
      <trkpt lat="45.86301" lon="3.50783">
        <ele>316</ele>
        <time>2019-04-18T05:27:41Z</time>
      </trkpt>
      <trkpt lat="45.86286" lon="3.50849">
        <ele>321</ele>
        <time>2019-04-18T05:28:41Z</time>
      </trkpt>
      <trkpt lat="45.86272" lon="3.5088">
        <ele>323</ele>
        <time>2019-04-18T05:29:41Z</time>
      </trkpt>
      <trkpt lat="45.86194" lon="3.50977">
        <ele>331</ele>
        <time>2019-04-18T05:30:41Z</time>
      </trkpt>
      <trkpt lat="45.86164" lon="3.51022">
        <ele>333</ele>
        <time>2019-04-18T05:31:41Z</time>
      </trkpt>
      <trkpt lat="45.86149" lon="3.51055">
        <ele>334</ele>
        <time>2019-04-18T05:32:41Z</time>
      </trkpt>
      <trkpt lat="45.86129" lon="3.51121">
        <ele>337</ele>
        <time>2019-04-18T05:33:41Z</time>
      </trkpt>
      <trkpt lat="45.86115" lon="3.51207">
        <ele>339</ele>
        <time>2019-04-18T05:34:41Z</time>
      </trkpt>
      <trkpt lat="45.86102" lon="3.51323">
        <ele>344</ele>
        <time>2019-04-18T05:35:41Z</time>
      </trkpt>
      <trkpt lat="45.86093" lon="3.51432">
        <ele>351</ele>
        <time>2019-04-18T05:36:41Z</time>
      </trkpt>
      <trkpt lat="45.86091" lon="3.51479">
        <ele>356</ele>
        <time>2019-04-18T05:37:41Z</time>
      </trkpt>
      <trkpt lat="45.86101" lon="3.51499">
        <ele>358</ele>
        <time>2019-04-18T05:38:41Z</time>
      </trkpt>
      <trkpt lat="45.86142" lon="3.51526">
        <ele>360</ele>
        <time>2019-04-18T05:39:41Z</time>
      </trkpt>
      <trkpt lat="45.86151" lon="3.51552">
        <ele>361</ele>
        <time>2019-04-18T05:40:41Z</time>
      </trkpt>
      <trkpt lat="45.86144" lon="3.51565">
        <ele>363</ele>
        <time>2019-04-18T05:41:41Z</time>
      </trkpt>
      <trkpt lat="45.86139" lon="3.51581">
        <ele>364</ele>
        <time>2019-04-18T05:42:41Z</time>
      </trkpt>
      <trkpt lat="45.86115" lon="3.51631">
        <ele>366</ele>
        <time>2019-04-18T05:43:41Z</time>
      </trkpt>
      <trkpt lat="45.86102" lon="3.51694">
        <ele>368</ele>
        <time>2019-04-18T05:44:41Z</time>
      </trkpt>
      <trkpt lat="45.86091" lon="3.51787">
        <ele>368</ele>
        <time>2019-04-18T05:45:41Z</time>
      </trkpt>
      <trkpt lat="45.86092" lon="3.51835">
        <ele>368</ele>
        <time>2019-04-18T05:46:41Z</time>
      </trkpt>
      <trkpt lat="45.86113" lon="3.5197">
        <ele>371</ele>
        <time>2019-04-18T05:47:41Z</time>
      </trkpt>
      <trkpt lat="45.8612" lon="3.5201">
        <ele>372</ele>
        <time>2019-04-18T05:48:41Z</time>
      </trkpt>
      <trkpt lat="45.86148" lon="3.52129">
        <ele>378</ele>
        <time>2019-04-18T05:49:41Z</time>
      </trkpt>
      <trkpt lat="45.86159" lon="3.52158">
        <ele>380</ele>
        <time>2019-04-18T05:50:41Z</time>
      </trkpt>
      <trkpt lat="45.86173" lon="3.52181">
        <ele>381</ele>
        <time>2019-04-18T05:51:41Z</time>
      </trkpt>
      <trkpt lat="45.86302" lon="3.52356">
        <ele>388</ele>
        <time>2019-04-18T05:52:41Z</time>
      </trkpt>
      <trkpt lat="45.86328" lon="3.52404">
        <ele>392</ele>
        <time>2019-04-18T05:53:41Z</time>
      </trkpt>
      <trkpt lat="45.86358" lon="3.52475">
        <ele>395</ele>
        <time>2019-04-18T05:54:41Z</time>
      </trkpt>
      <trkpt lat="45.86362" lon="3.52515">
        <ele>396</ele>
        <time>2019-04-18T05:55:41Z</time>
      </trkpt>
      <trkpt lat="45.86357" lon="3.52549">
        <ele>397</ele>
        <time>2019-04-18T05:56:41Z</time>
      </trkpt>
      <trkpt lat="45.86347" lon="3.52594">
        <ele>399</ele>
        <time>2019-04-18T05:57:41Z</time>
      </trkpt>
      <trkpt lat="45.86346" lon="3.52628">
        <ele>401</ele>
        <time>2019-04-18T05:58:41Z</time>
      </trkpt>
      <trkpt lat="45.86361" lon="3.52679">
        <ele>402</ele>
        <time>2019-04-18T05:59:41Z</time>
      </trkpt>
      <trkpt lat="45.86369" lon="3.52718">
        <ele>404</ele>
        <time>2019-04-18T06:00:41Z</time>
      </trkpt>
      <trkpt lat="45.8636" lon="3.52748">
        <ele>408</ele>
        <time>2019-04-18T06:01:41Z</time>
      </trkpt>
      <trkpt lat="45.86355" lon="3.52786">
        <ele>411</ele>
        <time>2019-04-18T06:02:41Z</time>
      </trkpt>
      <trkpt lat="45.86344" lon="3.52824">
        <ele>414</ele>
        <time>2019-04-18T06:03:41Z</time>
      </trkpt>
      <trkpt lat="45.86342" lon="3.52867">
        <ele>416</ele>
        <time>2019-04-18T06:04:41Z</time>
      </trkpt>
      <trkpt lat="45.86348" lon="3.52891">
        <ele>417</ele>
        <time>2019-04-18T06:05:41Z</time>
      </trkpt>
      <trkpt lat="45.86407" lon="3.53006">
        <ele>422</ele>
        <time>2019-04-18T06:06:41Z</time>
      </trkpt>
      <trkpt lat="45.86427" lon="3.53039">
        <ele>422</ele>
        <time>2019-04-18T06:07:41Z</time>
      </trkpt>
      <trkpt lat="45.86429" lon="3.53044">
        <ele>422</ele>
        <time>2019-04-18T06:08:41Z</time>
      </trkpt>
      <trkpt lat="45.86429" lon="3.53051">
        <ele>421</ele>
        <time>2019-04-18T06:09:41Z</time>
      </trkpt>
      <trkpt lat="45.86422" lon="3.53057">
        <ele>421</ele>
        <time>2019-04-18T06:10:41Z</time>
      </trkpt>
      <trkpt lat="45.86421" lon="3.53061">
        <ele>421</ele>
        <time>2019-04-18T06:11:41Z</time>
      </trkpt>
      <trkpt lat="45.86422" lon="3.53066">
        <ele>421</ele>
        <time>2019-04-18T06:12:41Z</time>
      </trkpt>
      <trkpt lat="45.8643" lon="3.5307">
        <ele>421</ele>
        <time>2019-04-18T06:13:41Z</time>
      </trkpt>
      <trkpt lat="45.86438" lon="3.53067">
        <ele>422</ele>
        <time>2019-04-18T06:14:41Z</time>
      </trkpt>
      <trkpt lat="45.86439" lon="3.53065">
        <ele>422</ele>
        <time>2019-04-18T06:15:41Z</time>
      </trkpt>
      <trkpt lat="45.86454" lon="3.53074">
        <ele>423</ele>
        <time>2019-04-18T06:16:41Z</time>
      </trkpt>
      <trkpt lat="45.86608" lon="3.53262">
        <ele>430</ele>
        <time>2019-04-18T06:17:41Z</time>
      </trkpt>
      <trkpt lat="45.86615" lon="3.53285">
        <ele>432</ele>
        <time>2019-04-18T06:18:41Z</time>
      </trkpt>
      <trkpt lat="45.86612" lon="3.53317">
        <ele>433</ele>
        <time>2019-04-18T06:19:41Z</time>
      </trkpt>
      <trkpt lat="45.86603" lon="3.53337">
        <ele>433</ele>
        <time>2019-04-18T06:20:41Z</time>
      </trkpt>
      <trkpt lat="45.86589" lon="3.53348">
        <ele>433</ele>
        <time>2019-04-18T06:21:41Z</time>
      </trkpt>
      <trkpt lat="45.86537" lon="3.53365">
        <ele>431</ele>
        <time>2019-04-18T06:22:41Z</time>
      </trkpt>
      <trkpt lat="45.86499" lon="3.53381">
        <ele>430</ele>
        <time>2019-04-18T06:23:41Z</time>
      </trkpt>
      <trkpt lat="45.86454" lon="3.53413">
        <ele>430</ele>
        <time>2019-04-18T06:24:41Z</time>
      </trkpt>
      <trkpt lat="45.86445" lon="3.53418">
        <ele>430</ele>
        <time>2019-04-18T06:25:41Z</time>
      </trkpt>
      <trkpt lat="45.8644" lon="3.53423">
        <ele>430</ele>
        <time>2019-04-18T06:26:41Z</time>
      </trkpt>
      <trkpt lat="45.86437" lon="3.53437">
        <ele>432</ele>
        <time>2019-04-18T06:27:41Z</time>
      </trkpt>
      <trkpt lat="45.86437" lon="3.53445">
        <ele>432</ele>
        <time>2019-04-18T06:28:41Z</time>
      </trkpt>
      <trkpt lat="45.86434" lon="3.53451">
        <ele>433</ele>
        <time>2019-04-18T06:29:41Z</time>
      </trkpt>
      <trkpt lat="45.86432" lon="3.53458">
        <ele>433</ele>
        <time>2019-04-18T06:30:41Z</time>
      </trkpt>
      <trkpt lat="45.86418" lon="3.5347">
        <ele>433</ele>
        <time>2019-04-18T06:31:41Z</time>
      </trkpt>
      <trkpt lat="45.86403" lon="3.53471">
        <ele>432</ele>
        <time>2019-04-18T06:32:41Z</time>
      </trkpt>
      <trkpt lat="45.86385" lon="3.5347">
        <ele>431</ele>
        <time>2019-04-18T06:33:41Z</time>
      </trkpt>
      <trkpt lat="45.86319" lon="3.53456">
        <ele>426</ele>
        <time>2019-04-18T06:34:41Z</time>
      </trkpt>
      <trkpt lat="45.86288" lon="3.53455">
        <ele>424</ele>
        <time>2019-04-18T06:35:41Z</time>
      </trkpt>
      <trkpt lat="45.86236" lon="3.5346">
        <ele>421</ele>
        <time>2019-04-18T06:36:41Z</time>
      </trkpt>
      <trkpt lat="45.8622" lon="3.5347">
        <ele>421</ele>
        <time>2019-04-18T06:37:41Z</time>
      </trkpt>
      <trkpt lat="45.8613" lon="3.53558">
        <ele>421</ele>
        <time>2019-04-18T06:38:41Z</time>
      </trkpt>
      <trkpt lat="45.86055" lon="3.53666">
        <ele>419</ele>
        <time>2019-04-18T06:39:41Z</time>
      </trkpt>
      <trkpt lat="45.86032" lon="3.53702">
        <ele>417</ele>
        <time>2019-04-18T06:40:41Z</time>
      </trkpt>
      <trkpt lat="45.86025" lon="3.53733">
        <ele>417</ele>
        <time>2019-04-18T06:41:41Z</time>
      </trkpt>
      <trkpt lat="45.86023" lon="3.53752">
        <ele>418</ele>
        <time>2019-04-18T06:42:41Z</time>
      </trkpt>
      <trkpt lat="45.86025" lon="3.53762">
        <ele>417</ele>
        <time>2019-04-18T06:43:41Z</time>
      </trkpt>
      <trkpt lat="45.86034" lon="3.53782">
        <ele>417</ele>
        <time>2019-04-18T06:44:41Z</time>
      </trkpt>
      <trkpt lat="45.86045" lon="3.5379">
        <ele>417</ele>
        <time>2019-04-18T06:45:41Z</time>
      </trkpt>
      <trkpt lat="45.86113" lon="3.53813">
        <ele>420</ele>
        <time>2019-04-18T06:46:41Z</time>
      </trkpt>
      <trkpt lat="45.86126" lon="3.53829">
        <ele>420</ele>
        <time>2019-04-18T06:47:41Z</time>
      </trkpt>
      <trkpt lat="45.86136" lon="3.53843">
        <ele>419</ele>
        <time>2019-04-18T06:48:41Z</time>
      </trkpt>
      <trkpt lat="45.86189" lon="3.53945">
        <ele>420</ele>
        <time>2019-04-18T06:49:41Z</time>
      </trkpt>
      <trkpt lat="45.86194" lon="3.53961">
        <ele>420</ele>
        <time>2019-04-18T06:50:41Z</time>
      </trkpt>
      <trkpt lat="45.86185" lon="3.5398">
        <ele>418</ele>
        <time>2019-04-18T06:51:41Z</time>
      </trkpt>
      <trkpt lat="45.86152" lon="3.54007">
        <ele>413</ele>
        <time>2019-04-18T06:52:41Z</time>
      </trkpt>
      <trkpt lat="45.8613" lon="3.54019">
        <ele>411</ele>
        <time>2019-04-18T06:53:41Z</time>
      </trkpt>
      <trkpt lat="45.86111" lon="3.54019">
        <ele>408</ele>
        <time>2019-04-18T06:54:41Z</time>
      </trkpt>
      <trkpt lat="45.8607" lon="3.54036">
        <ele>405</ele>
        <time>2019-04-18T06:55:41Z</time>
      </trkpt>
      <trkpt lat="45.86046" lon="3.54048">
        <ele>403</ele>
        <time>2019-04-18T06:56:41Z</time>
      </trkpt>
      <trkpt lat="45.86029" lon="3.54066">
        <ele>403</ele>
        <time>2019-04-18T06:57:41Z</time>
      </trkpt>
      <trkpt lat="45.86015" lon="3.54103">
        <ele>405</ele>
        <time>2019-04-18T06:58:41Z</time>
      </trkpt>
      <trkpt lat="45.86002" lon="3.54148">
        <ele>409</ele>
        <time>2019-04-18T06:59:41Z</time>
      </trkpt>
      <trkpt lat="45.85976" lon="3.54219">
        <ele>412</ele>
        <time>2019-04-18T07:00:41Z</time>
      </trkpt>
      <trkpt lat="45.85953" lon="3.54274">
        <ele>414</ele>
        <time>2019-04-18T07:01:41Z</time>
      </trkpt>
      <trkpt lat="45.85945" lon="3.54316">
        <ele>414</ele>
        <time>2019-04-18T07:02:41Z</time>
      </trkpt>
      <trkpt lat="45.8595" lon="3.54364">
        <ele>415</ele>
        <time>2019-04-18T07:03:41Z</time>
      </trkpt>
      <trkpt lat="45.85992" lon="3.54524">
        <ele>425</ele>
        <time>2019-04-18T07:04:41Z</time>
      </trkpt>
      <trkpt lat="45.86012" lon="3.54579">
        <ele>428</ele>
        <time>2019-04-18T07:05:41Z</time>
      </trkpt>
      <trkpt lat="45.86013" lon="3.54598">
        <ele>431</ele>
        <time>2019-04-18T07:06:41Z</time>
      </trkpt>
      <trkpt lat="45.86006" lon="3.54619">
        <ele>433</ele>
        <time>2019-04-18T07:07:41Z</time>
      </trkpt>
      <trkpt lat="45.85996" lon="3.54626">
        <ele>433</ele>
        <time>2019-04-18T07:08:41Z</time>
      </trkpt>
      <trkpt lat="45.85981" lon="3.54627">
        <ele>433</ele>
        <time>2019-04-18T07:09:41Z</time>
      </trkpt>
      <trkpt lat="45.8596" lon="3.54619">
        <ele>432</ele>
        <time>2019-04-18T07:10:41Z</time>
      </trkpt>
      <trkpt lat="45.85929" lon="3.54593">
        <ele>429</ele>
        <time>2019-04-18T07:11:41Z</time>
      </trkpt>
      <trkpt lat="45.85914" lon="3.54587">
        <ele>427</ele>
        <time>2019-04-18T07:12:41Z</time>
      </trkpt>
      <trkpt lat="45.8589" lon="3.54581">
        <ele>425</ele>
        <time>2019-04-18T07:13:41Z</time>
      </trkpt>
      <trkpt lat="45.85865" lon="3.5459">
        <ele>425</ele>
        <time>2019-04-18T07:14:41Z</time>
      </trkpt>
      <trkpt lat="45.85828" lon="3.54626">
        <ele>429</ele>
        <time>2019-04-18T07:15:41Z</time>
      </trkpt>
      <trkpt lat="45.85802" lon="3.54644">
        <ele>430</ele>
        <time>2019-04-18T07:16:41Z</time>
      </trkpt>
      <trkpt lat="45.85736" lon="3.54676">
        <ele>431</ele>
        <time>2019-04-18T07:17:41Z</time>
      </trkpt>
      <trkpt lat="45.85721" lon="3.54685">
        <ele>430</ele>
        <time>2019-04-18T07:18:41Z</time>
      </trkpt>
      <trkpt lat="45.85686" lon="3.54716">
        <ele>430</ele>
        <time>2019-04-18T07:19:41Z</time>
      </trkpt>
      <trkpt lat="45.85674" lon="3.54733">
        <ele>431</ele>
        <time>2019-04-18T07:20:41Z</time>
      </trkpt>
      <trkpt lat="45.85665" lon="3.54757">
        <ele>432</ele>
        <time>2019-04-18T07:21:41Z</time>
      </trkpt>
      <trkpt lat="45.85661" lon="3.54778">
        <ele>431</ele>
        <time>2019-04-18T07:22:41Z</time>
      </trkpt>
      <trkpt lat="45.85667" lon="3.54904">
        <ele>428</ele>
        <time>2019-04-18T07:23:41Z</time>
      </trkpt>
      <trkpt lat="45.85661" lon="3.54926">
        <ele>425</ele>
        <time>2019-04-18T07:24:41Z</time>
      </trkpt>
      <trkpt lat="45.85676" lon="3.54954">
        <ele>423</ele>
        <time>2019-04-18T07:25:41Z</time>
      </trkpt>
      <trkpt lat="45.85695" lon="3.5497">
        <ele>423</ele>
        <time>2019-04-18T07:26:41Z</time>
      </trkpt>
      <trkpt lat="45.85696" lon="3.54967">
        <ele>424</ele>
        <time>2019-04-18T07:27:41Z</time>
      </trkpt>
      <trkpt lat="45.85695" lon="3.5497">
        <ele>423</ele>
        <time>2019-04-18T07:28:41Z</time>
      </trkpt>
      <trkpt lat="45.85727" lon="3.54985">
        <ele>424</ele>
        <time>2019-04-18T07:29:41Z</time>
      </trkpt>
      <trkpt lat="45.85753" lon="3.54995">
        <ele>424</ele>
        <time>2019-04-18T07:30:41Z</time>
      </trkpt>
      <trkpt lat="45.85776" lon="3.55001">
        <ele>425</ele>
        <time>2019-04-18T07:31:41Z</time>
      </trkpt>
      <trkpt lat="45.8579" lon="3.55003">
        <ele>425</ele>
        <time>2019-04-18T07:32:41Z</time>
      </trkpt>
      <trkpt lat="45.85805" lon="3.55001">
        <ele>427</ele>
        <time>2019-04-18T07:33:41Z</time>
      </trkpt>
      <trkpt lat="45.85874" lon="3.54971">
        <ele>437</ele>
        <time>2019-04-18T07:34:41Z</time>
      </trkpt>
      <trkpt lat="45.85912" lon="3.54977">
        <ele>437</ele>
        <time>2019-04-18T07:35:41Z</time>
      </trkpt>
      <trkpt lat="45.85948" lon="3.54988">
        <ele>440</ele>
        <time>2019-04-18T07:36:41Z</time>
      </trkpt>
      <trkpt lat="45.85976" lon="3.55016">
        <ele>441</ele>
        <time>2019-04-18T07:37:41Z</time>
      </trkpt>
      <trkpt lat="45.85986" lon="3.55032">
        <ele>443</ele>
        <time>2019-04-18T07:38:41Z</time>
      </trkpt>
      <trkpt lat="45.85984" lon="3.55045">
        <ele>442</ele>
        <time>2019-04-18T07:39:41Z</time>
      </trkpt>
      <trkpt lat="45.85952" lon="3.55081">
        <ele>434</ele>
        <time>2019-04-18T07:40:41Z</time>
      </trkpt>
      <trkpt lat="45.85945" lon="3.55101">
        <ele>433</ele>
        <time>2019-04-18T07:41:41Z</time>
      </trkpt>
      <trkpt lat="45.85941" lon="3.55125">
        <ele>433</ele>
        <time>2019-04-18T07:42:41Z</time>
      </trkpt>
      <trkpt lat="45.85942" lon="3.55152">
        <ele>435</ele>
        <time>2019-04-18T07:43:41Z</time>
      </trkpt>
      <trkpt lat="45.85951" lon="3.55224">
        <ele>442</ele>
        <time>2019-04-18T07:44:41Z</time>
      </trkpt>
      <trkpt lat="45.85946" lon="3.55267">
        <ele>442</ele>
        <time>2019-04-18T07:45:41Z</time>
      </trkpt>
      <trkpt lat="45.85947" lon="3.55285">
        <ele>442</ele>
        <time>2019-04-18T07:46:41Z</time>
      </trkpt>
      <trkpt lat="45.85953" lon="3.55362">
        <ele>444</ele>
        <time>2019-04-18T07:47:41Z</time>
      </trkpt>
      <trkpt lat="45.85958" lon="3.55382">
        <ele>444</ele>
        <time>2019-04-18T07:48:41Z</time>
      </trkpt>
      <trkpt lat="45.85965" lon="3.55388">
        <ele>444</ele>
        <time>2019-04-18T07:49:41Z</time>
      </trkpt>
      <trkpt lat="45.85977" lon="3.55389">
        <ele>445</ele>
        <time>2019-04-18T07:50:41Z</time>
      </trkpt>
      <trkpt lat="45.86009" lon="3.55371">
        <ele>448</ele>
        <time>2019-04-18T07:51:41Z</time>
      </trkpt>
      <trkpt lat="45.8608" lon="3.55349">
        <ele>455</ele>
        <time>2019-04-18T07:52:41Z</time>
      </trkpt>
      <trkpt lat="45.86105" lon="3.55337">
        <ele>462</ele>
        <time>2019-04-18T07:53:41Z</time>
      </trkpt>
      <trkpt lat="45.86129" lon="3.55333">
        <ele>467</ele>
        <time>2019-04-18T07:54:41Z</time>
      </trkpt>
      <trkpt lat="45.86248" lon="3.55395">
        <ele>466</ele>
        <time>2019-04-18T07:55:41Z</time>
      </trkpt>
      <trkpt lat="45.86274" lon="3.55411">
        <ele>469</ele>
        <time>2019-04-18T07:56:41Z</time>
      </trkpt>
      <trkpt lat="45.8629" lon="3.55436">
        <ele>467</ele>
        <time>2019-04-18T07:57:41Z</time>
      </trkpt>
      <trkpt lat="45.8631" lon="3.55461">
        <ele>468</ele>
        <time>2019-04-18T07:58:41Z</time>
      </trkpt>
      <trkpt lat="45.86338" lon="3.55483">
        <ele>474</ele>
        <time>2019-04-18T07:59:41Z</time>
      </trkpt>
      <trkpt lat="45.86342" lon="3.55509">
        <ele>473</ele>
        <time>2019-04-18T08:00:41Z</time>
      </trkpt>
      <trkpt lat="45.86339" lon="3.55554">
        <ele>476</ele>
        <time>2019-04-18T08:01:41Z</time>
      </trkpt>
      <trkpt lat="45.86333" lon="3.55579">
        <ele>474</ele>
        <time>2019-04-18T08:02:41Z</time>
      </trkpt>
      <trkpt lat="45.86315" lon="3.55618">
        <ele>469</ele>
        <time>2019-04-18T08:03:41Z</time>
      </trkpt>
      <trkpt lat="45.86309" lon="3.55645">
        <ele>470</ele>
        <time>2019-04-18T08:04:41Z</time>
      </trkpt>
      <trkpt lat="45.86304" lon="3.55681">
        <ele>470</ele>
        <time>2019-04-18T08:05:41Z</time>
      </trkpt>
      <trkpt lat="45.86304" lon="3.55716">
        <ele>471</ele>
        <time>2019-04-18T08:06:41Z</time>
      </trkpt>
      <trkpt lat="45.86309" lon="3.5574">
        <ele>474</ele>
        <time>2019-04-18T08:07:41Z</time>
      </trkpt>
      <trkpt lat="45.86323" lon="3.55782">
        <ele>482</ele>
        <time>2019-04-18T08:08:41Z</time>
      </trkpt>
      <trkpt lat="45.86323" lon="3.55799">
        <ele>482</ele>
        <time>2019-04-18T08:09:41Z</time>
      </trkpt>
      <trkpt lat="45.86299" lon="3.55846">
        <ele>475</ele>
        <time>2019-04-18T08:10:41Z</time>
      </trkpt>
      <trkpt lat="45.86271" lon="3.55888">
        <ele>470</ele>
        <time>2019-04-18T08:11:41Z</time>
      </trkpt>
      <trkpt lat="45.86266" lon="3.55908">
        <ele>472</ele>
        <time>2019-04-18T08:12:41Z</time>
      </trkpt>
      <trkpt lat="45.86264" lon="3.55928">
        <ele>471</ele>
        <time>2019-04-18T08:13:41Z</time>
      </trkpt>
      <trkpt lat="45.86265" lon="3.55944">
        <ele>470</ele>
        <time>2019-04-18T08:14:41Z</time>
      </trkpt>
      <trkpt lat="45.86271" lon="3.5597">
        <ele>470</ele>
        <time>2019-04-18T08:15:41Z</time>
      </trkpt>
      <trkpt lat="45.86282" lon="3.55991">
        <ele>473</ele>
        <time>2019-04-18T08:16:41Z</time>
      </trkpt>
      <trkpt lat="45.86303" lon="3.56016">
        <ele>475</ele>
        <time>2019-04-18T08:17:41Z</time>
      </trkpt>
      <trkpt lat="45.86344" lon="3.56054">
        <ele>477</ele>
        <time>2019-04-18T08:18:41Z</time>
      </trkpt>
      <trkpt lat="45.86374" lon="3.56075">
        <ele>480</ele>
        <time>2019-04-18T08:19:41Z</time>
      </trkpt>
      <trkpt lat="45.86411" lon="3.5611">
        <ele>479</ele>
        <time>2019-04-18T08:20:41Z</time>
      </trkpt>
      <trkpt lat="45.86437" lon="3.56129">
        <ele>479</ele>
        <time>2019-04-18T08:21:41Z</time>
      </trkpt>
      <trkpt lat="45.865" lon="3.56162">
        <ele>482</ele>
        <time>2019-04-18T08:22:41Z</time>
      </trkpt>
      <trkpt lat="45.86518" lon="3.56173">
        <ele>482</ele>
        <time>2019-04-18T08:23:41Z</time>
      </trkpt>
      <trkpt lat="45.8653" lon="3.56185">
        <ele>483</ele>
        <time>2019-04-18T08:24:41Z</time>
      </trkpt>
      <trkpt lat="45.86538" lon="3.56202">
        <ele>483</ele>
        <time>2019-04-18T08:25:41Z</time>
      </trkpt>
      <trkpt lat="45.86543" lon="3.56218">
        <ele>483</ele>
        <time>2019-04-18T08:26:41Z</time>
      </trkpt>
      <trkpt lat="45.86545" lon="3.56237">
        <ele>482</ele>
        <time>2019-04-18T08:27:41Z</time>
      </trkpt>
      <trkpt lat="45.86542" lon="3.56257">
        <ele>482</ele>
        <time>2019-04-18T08:28:41Z</time>
      </trkpt>
      <trkpt lat="45.86536" lon="3.56275">
        <ele>484</ele>
        <time>2019-04-18T08:29:41Z</time>
      </trkpt>
      <trkpt lat="45.86475" lon="3.56382">
        <ele>483</ele>
        <time>2019-04-18T08:30:41Z</time>
      </trkpt>
      <trkpt lat="45.86466" lon="3.56407">
        <ele>483</ele>
        <time>2019-04-18T08:31:41Z</time>
      </trkpt>
      <trkpt lat="45.8646" lon="3.56432">
        <ele>482</ele>
        <time>2019-04-18T08:32:41Z</time>
      </trkpt>
      <trkpt lat="45.86458" lon="3.56457">
        <ele>481</ele>
        <time>2019-04-18T08:33:41Z</time>
      </trkpt>
      <trkpt lat="45.86459" lon="3.5648">
        <ele>481</ele>
        <time>2019-04-18T08:34:41Z</time>
      </trkpt>
      <trkpt lat="45.86463" lon="3.56504">
        <ele>482</ele>
        <time>2019-04-18T08:35:41Z</time>
      </trkpt>
      <trkpt lat="45.86472" lon="3.56535">
        <ele>479</ele>
        <time>2019-04-18T08:36:41Z</time>
      </trkpt>
      <trkpt lat="45.86484" lon="3.56557">
        <ele>480</ele>
        <time>2019-04-18T08:37:41Z</time>
      </trkpt>
      <trkpt lat="45.86499" lon="3.56577">
        <ele>482</ele>
        <time>2019-04-18T08:38:41Z</time>
      </trkpt>
      <trkpt lat="45.86559" lon="3.56626">
        <ele>492</ele>
        <time>2019-04-18T08:39:41Z</time>
      </trkpt>
      <trkpt lat="45.86589" lon="3.56658">
        <ele>497</ele>
        <time>2019-04-18T08:40:41Z</time>
      </trkpt>
      <trkpt lat="45.86598" lon="3.56676">
        <ele>495</ele>
        <time>2019-04-18T08:41:41Z</time>
      </trkpt>
      <trkpt lat="45.86604" lon="3.56702">
        <ele>490</ele>
        <time>2019-04-18T08:42:41Z</time>
      </trkpt>
      <trkpt lat="45.86608" lon="3.56729">
        <ele>484</ele>
        <time>2019-04-18T08:43:41Z</time>
      </trkpt>
      <trkpt lat="45.86606" lon="3.56757">
        <ele>478</ele>
        <time>2019-04-18T08:44:41Z</time>
      </trkpt>
      <trkpt lat="45.86604" lon="3.56774">
        <ele>479</ele>
        <time>2019-04-18T08:45:41Z</time>
      </trkpt>
      <trkpt lat="45.86595" lon="3.56811">
        <ele>481</ele>
        <time>2019-04-18T08:46:41Z</time>
      </trkpt>
      <trkpt lat="45.86584" lon="3.56836">
        <ele>483</ele>
        <time>2019-04-18T08:47:41Z</time>
      </trkpt>
      <trkpt lat="45.86572" lon="3.56847">
        <ele>488</ele>
        <time>2019-04-18T08:48:41Z</time>
      </trkpt>
      <trkpt lat="45.86559" lon="3.56855">
        <ele>491</ele>
        <time>2019-04-18T08:49:41Z</time>
      </trkpt>
      <trkpt lat="45.8655" lon="3.56857">
        <ele>491</ele>
        <time>2019-04-18T08:50:41Z</time>
      </trkpt>
      <trkpt lat="45.86491" lon="3.56839">
        <ele>475</ele>
        <time>2019-04-18T08:51:41Z</time>
      </trkpt>
      <trkpt lat="45.86476" lon="3.5684">
        <ele>473</ele>
        <time>2019-04-18T08:52:41Z</time>
      </trkpt>
      <trkpt lat="45.86463" lon="3.56845">
        <ele>472</ele>
        <time>2019-04-18T08:53:41Z</time>
      </trkpt>
      <trkpt lat="45.86457" lon="3.5685">
        <ele>472</ele>
        <time>2019-04-18T08:54:41Z</time>
      </trkpt>
      <trkpt lat="45.8645" lon="3.56862">
        <ele>473</ele>
        <time>2019-04-18T08:55:41Z</time>
      </trkpt>
      <trkpt lat="45.86445" lon="3.56883">
        <ele>476</ele>
        <time>2019-04-18T08:56:41Z</time>
      </trkpt>
      <trkpt lat="45.86443" lon="3.56931">
        <ele>485</ele>
        <time>2019-04-18T08:57:41Z</time>
      </trkpt>
      <trkpt lat="45.86426" lon="3.57056">
        <ele>495</ele>
        <time>2019-04-18T08:58:41Z</time>
      </trkpt>
      <trkpt lat="45.86422" lon="3.57073">
        <ele>495</ele>
        <time>2019-04-18T08:59:41Z</time>
      </trkpt>
      <trkpt lat="45.86404" lon="3.57109">
        <ele>491</ele>
        <time>2019-04-18T09:00:41Z</time>
      </trkpt>
      <trkpt lat="45.86398" lon="3.57125">
        <ele>491</ele>
        <time>2019-04-18T09:01:41Z</time>
      </trkpt>
      <trkpt lat="45.86394" lon="3.57144">
        <ele>492</ele>
        <time>2019-04-18T09:02:41Z</time>
      </trkpt>
      <trkpt lat="45.86387" lon="3.57237">
        <ele>501</ele>
        <time>2019-04-18T09:03:41Z</time>
      </trkpt>
      <trkpt lat="45.86385" lon="3.57256">
        <ele>502</ele>
        <time>2019-04-18T09:04:41Z</time>
      </trkpt>
      <trkpt lat="45.86374" lon="3.57282">
        <ele>499</ele>
        <time>2019-04-18T09:05:41Z</time>
      </trkpt>
      <trkpt lat="45.86356" lon="3.57317">
        <ele>496</ele>
        <time>2019-04-18T09:06:41Z</time>
      </trkpt>
      <trkpt lat="45.86351" lon="3.57328">
        <ele>495</ele>
        <time>2019-04-18T09:07:41Z</time>
      </trkpt>
      <trkpt lat="45.8635" lon="3.57339">
        <ele>495</ele>
        <time>2019-04-18T09:08:41Z</time>
      </trkpt>
      <trkpt lat="45.86351" lon="3.57351">
        <ele>495</ele>
        <time>2019-04-18T09:09:41Z</time>
      </trkpt>
      <trkpt lat="45.86354" lon="3.57361">
        <ele>496</ele>
        <time>2019-04-18T09:10:41Z</time>
      </trkpt>
      <trkpt lat="45.8636" lon="3.5737">
        <ele>498</ele>
        <time>2019-04-18T09:11:41Z</time>
      </trkpt>
      <trkpt lat="45.86433" lon="3.5745">
        <ele>526</ele>
        <time>2019-04-18T09:12:41Z</time>
      </trkpt>
      <trkpt lat="45.86441" lon="3.57471">
        <ele>527</ele>
        <time>2019-04-18T09:13:41Z</time>
      </trkpt>
      <trkpt lat="45.8644" lon="3.57489">
        <ele>525</ele>
        <time>2019-04-18T09:14:41Z</time>
      </trkpt>
      <trkpt lat="45.86437" lon="3.57497">
        <ele>523</ele>
        <time>2019-04-18T09:15:41Z</time>
      </trkpt>
      <trkpt lat="45.86429" lon="3.57508">
        <ele>520</ele>
        <time>2019-04-18T09:16:41Z</time>
      </trkpt>
      <trkpt lat="45.86417" lon="3.57517">
        <ele>515</ele>
        <time>2019-04-18T09:17:41Z</time>
      </trkpt>
      <trkpt lat="45.86408" lon="3.57528">
        <ele>512</ele>
        <time>2019-04-18T09:18:41Z</time>
      </trkpt>
      <trkpt lat="45.86402" lon="3.57541">
        <ele>510</ele>
        <time>2019-04-18T09:19:41Z</time>
      </trkpt>
      <trkpt lat="45.86398" lon="3.57563">
        <ele>510</ele>
        <time>2019-04-18T09:20:41Z</time>
      </trkpt>
      <trkpt lat="45.86398" lon="3.57587">
        <ele>513</ele>
        <time>2019-04-18T09:21:41Z</time>
      </trkpt>
      <trkpt lat="45.86399" lon="3.57599">
        <ele>514</ele>
        <time>2019-04-18T09:22:41Z</time>
      </trkpt>
      <trkpt lat="45.86407" lon="3.57642">
        <ele>522</ele>
        <time>2019-04-18T09:23:41Z</time>
      </trkpt>
      <trkpt lat="45.86403" lon="3.57707">
        <ele>524</ele>
        <time>2019-04-18T09:24:41Z</time>
      </trkpt>
      <trkpt lat="45.86394" lon="3.57766">
        <ele>521</ele>
        <time>2019-04-18T09:25:41Z</time>
      </trkpt>
      <trkpt lat="45.86395" lon="3.57792">
        <ele>522</ele>
        <time>2019-04-18T09:26:41Z</time>
      </trkpt>
      <trkpt lat="45.864" lon="3.57835">
        <ele>525</ele>
        <time>2019-04-18T09:27:41Z</time>
      </trkpt>
      <trkpt lat="45.86399" lon="3.57868">
        <ele>525</ele>
        <time>2019-04-18T09:28:41Z</time>
      </trkpt>
      <trkpt lat="45.86401" lon="3.57912">
        <ele>527</ele>
        <time>2019-04-18T09:29:41Z</time>
      </trkpt>
      <trkpt lat="45.86398" lon="3.57963">
        <ele>526</ele>
        <time>2019-04-18T09:30:41Z</time>
      </trkpt>
      <trkpt lat="45.86409" lon="3.57996">
        <ele>530</ele>
        <time>2019-04-18T09:31:41Z</time>
      </trkpt>
      <trkpt lat="45.86472" lon="3.58048">
        <ele>539</ele>
        <time>2019-04-18T09:32:41Z</time>
      </trkpt>
      <trkpt lat="45.86478" lon="3.58064">
        <ele>539</ele>
        <time>2019-04-18T09:33:41Z</time>
      </trkpt>
      <trkpt lat="45.86476" lon="3.58099">
        <ele>536</ele>
        <time>2019-04-18T09:34:41Z</time>
      </trkpt>
      <trkpt lat="45.86468" lon="3.58155">
        <ele>531</ele>
        <time>2019-04-18T09:35:41Z</time>
      </trkpt>
      <trkpt lat="45.86468" lon="3.58196">
        <ele>530</ele>
        <time>2019-04-18T09:36:41Z</time>
      </trkpt>
      <trkpt lat="45.86491" lon="3.58312">
        <ele>535</ele>
        <time>2019-04-18T09:37:41Z</time>
      </trkpt>
      <trkpt lat="45.86513" lon="3.58388">
        <ele>540</ele>
        <time>2019-04-18T09:38:41Z</time>
      </trkpt>
      <trkpt lat="45.86541" lon="3.58448">
        <ele>542</ele>
        <time>2019-04-18T09:39:41Z</time>
      </trkpt>
      <trkpt lat="45.86551" lon="3.58462">
        <ele>542</ele>
        <time>2019-04-18T09:40:41Z</time>
      </trkpt>
      <trkpt lat="45.86563" lon="3.58476">
        <ele>542</ele>
        <time>2019-04-18T09:41:41Z</time>
      </trkpt>
      <trkpt lat="45.8659" lon="3.58483">
        <ele>544</ele>
        <time>2019-04-18T09:42:41Z</time>
      </trkpt>
      <trkpt lat="45.866" lon="3.58492">
        <ele>544</ele>
        <time>2019-04-18T09:43:41Z</time>
      </trkpt>
      <trkpt lat="45.86609" lon="3.58504">
        <ele>545</ele>
        <time>2019-04-18T09:44:41Z</time>
      </trkpt>
      <trkpt lat="45.86637" lon="3.58587">
        <ele>543</ele>
        <time>2019-04-18T09:45:41Z</time>
      </trkpt>
      <trkpt lat="45.86647" lon="3.58625">
        <ele>542</ele>
        <time>2019-04-18T09:46:41Z</time>
      </trkpt>
      <trkpt lat="45.86635" lon="3.587">
        <ele>540</ele>
        <time>2019-04-18T09:47:41Z</time>
      </trkpt>
      <trkpt lat="45.86603" lon="3.58751">
        <ele>537</ele>
        <time>2019-04-18T09:48:41Z</time>
      </trkpt>
      <trkpt lat="45.86563" lon="3.5881">
        <ele>534</ele>
        <time>2019-04-18T09:49:41Z</time>
      </trkpt>
      <trkpt lat="45.86555" lon="3.58836">
        <ele>534</ele>
        <time>2019-04-18T09:50:41Z</time>
      </trkpt>
      <trkpt lat="45.86553" lon="3.58854">
        <ele>532</ele>
        <time>2019-04-18T09:51:41Z</time>
      </trkpt>
      <trkpt lat="45.8656" lon="3.58867">
        <ele>531</ele>
        <time>2019-04-18T09:52:41Z</time>
      </trkpt>
      <trkpt lat="45.86569" lon="3.58877">
        <ele>530</ele>
        <time>2019-04-18T09:53:41Z</time>
      </trkpt>
      <trkpt lat="45.86659" lon="3.58928">
        <ele>535</ele>
        <time>2019-04-18T09:54:41Z</time>
      </trkpt>
      <trkpt lat="45.86677" lon="3.58941">
        <ele>536</ele>
        <time>2019-04-18T09:55:41Z</time>
      </trkpt>
      <trkpt lat="45.86688" lon="3.58957">
        <ele>535</ele>
        <time>2019-04-18T09:56:41Z</time>
      </trkpt>
      <trkpt lat="45.86692" lon="3.58973">
        <ele>534</ele>
        <time>2019-04-18T09:57:41Z</time>
      </trkpt>
      <trkpt lat="45.8669" lon="3.58998">
        <ele>532</ele>
        <time>2019-04-18T09:58:41Z</time>
      </trkpt>
      <trkpt lat="45.86659" lon="3.5905">
        <ele>532</ele>
        <time>2019-04-18T09:59:41Z</time>
      </trkpt>
      <trkpt lat="45.86656" lon="3.59075">
        <ele>534</ele>
        <time>2019-04-18T10:00:41Z</time>
      </trkpt>
      <trkpt lat="45.86657" lon="3.59105">
        <ele>535</ele>
        <time>2019-04-18T10:01:41Z</time>
      </trkpt>
      <trkpt lat="45.86661" lon="3.59121">
        <ele>534</ele>
        <time>2019-04-18T10:02:41Z</time>
      </trkpt>
      <trkpt lat="45.8667" lon="3.59134">
        <ele>533</ele>
        <time>2019-04-18T10:03:41Z</time>
      </trkpt>
      <trkpt lat="45.86676" lon="3.59138">
        <ele>533</ele>
        <time>2019-04-18T10:04:41Z</time>
      </trkpt>
      <trkpt lat="45.86714" lon="3.59141">
        <ele>537</ele>
        <time>2019-04-18T10:05:41Z</time>
      </trkpt>
      <trkpt lat="45.86727" lon="3.59145">
        <ele>538</ele>
        <time>2019-04-18T10:06:41Z</time>
      </trkpt>
      <trkpt lat="45.86738" lon="3.59154">
        <ele>538</ele>
        <time>2019-04-18T10:07:41Z</time>
      </trkpt>
      <trkpt lat="45.86751" lon="3.59176">
        <ele>537</ele>
        <time>2019-04-18T10:08:41Z</time>
      </trkpt>
      <trkpt lat="45.86762" lon="3.59201">
        <ele>540</ele>
        <time>2019-04-18T10:09:41Z</time>
      </trkpt>
      <trkpt lat="45.86785" lon="3.5926">
        <ele>544</ele>
        <time>2019-04-18T10:10:41Z</time>
      </trkpt>
      <trkpt lat="45.86805" lon="3.59321">
        <ele>542</ele>
        <time>2019-04-18T10:11:41Z</time>
      </trkpt>
      <trkpt lat="45.86818" lon="3.59374">
        <ele>540</ele>
        <time>2019-04-18T10:12:41Z</time>
      </trkpt>
      <trkpt lat="45.86819" lon="3.59403">
        <ele>539</ele>
        <time>2019-04-18T10:13:41Z</time>
      </trkpt>
      <trkpt lat="45.86816" lon="3.59427">
        <ele>539</ele>
        <time>2019-04-18T10:14:41Z</time>
      </trkpt>
      <trkpt lat="45.8681" lon="3.59454">
        <ele>538</ele>
        <time>2019-04-18T10:15:41Z</time>
      </trkpt>
      <trkpt lat="45.86806" lon="3.59488">
        <ele>537</ele>
        <time>2019-04-18T10:16:41Z</time>
      </trkpt>
      <trkpt lat="45.86808" lon="3.59506">
        <ele>536</ele>
        <time>2019-04-18T10:17:41Z</time>
      </trkpt>
      <trkpt lat="45.86813" lon="3.59522">
        <ele>535</ele>
        <time>2019-04-18T10:18:41Z</time>
      </trkpt>
      <trkpt lat="45.86822" lon="3.59538">
        <ele>534</ele>
        <time>2019-04-18T10:19:41Z</time>
      </trkpt>
      <trkpt lat="45.86852" lon="3.59577">
        <ele>533</ele>
        <time>2019-04-18T10:20:41Z</time>
      </trkpt>
      <trkpt lat="45.8686" lon="3.59593">
        <ele>533</ele>
        <time>2019-04-18T10:21:41Z</time>
      </trkpt>
      <trkpt lat="45.86868" lon="3.59628">
        <ele>533</ele>
        <time>2019-04-18T10:22:41Z</time>
      </trkpt>
      <trkpt lat="45.86923" lon="3.5994">
        <ele>535</ele>
        <time>2019-04-18T10:23:41Z</time>
      </trkpt>
      <trkpt lat="45.86923" lon="3.59963">
        <ele>536</ele>
        <time>2019-04-18T10:24:41Z</time>
      </trkpt>
      <trkpt lat="45.86913" lon="3.60028">
        <ele>539</ele>
        <time>2019-04-18T10:25:41Z</time>
      </trkpt>
      <trkpt lat="45.86912" lon="3.6005">
        <ele>540</ele>
        <time>2019-04-18T10:26:41Z</time>
      </trkpt>
      <trkpt lat="45.86915" lon="3.60092">
        <ele>542</ele>
        <time>2019-04-18T10:27:41Z</time>
      </trkpt>
      <trkpt lat="45.86915" lon="3.60112">
        <ele>544</ele>
        <time>2019-04-18T10:28:41Z</time>
      </trkpt>
      <trkpt lat="45.86911" lon="3.60132">
        <ele>545</ele>
        <time>2019-04-18T10:29:41Z</time>
      </trkpt>
      <trkpt lat="45.86905" lon="3.6015">
        <ele>547</ele>
        <time>2019-04-18T10:30:41Z</time>
      </trkpt>
      <trkpt lat="45.86846" lon="3.60253">
        <ele>544</ele>
        <time>2019-04-18T10:31:41Z</time>
      </trkpt>
      <trkpt lat="45.8684" lon="3.60276">
        <ele>544</ele>
        <time>2019-04-18T10:32:41Z</time>
      </trkpt>
      <trkpt lat="45.86839" lon="3.60288">
        <ele>544</ele>
        <time>2019-04-18T10:33:41Z</time>
      </trkpt>
      <trkpt lat="45.86844" lon="3.6034">
        <ele>546</ele>
        <time>2019-04-18T10:34:41Z</time>
      </trkpt>
      <trkpt lat="45.86854" lon="3.60396">
        <ele>546</ele>
        <time>2019-04-18T10:35:41Z</time>
      </trkpt>
      <trkpt lat="45.86868" lon="3.6045">
        <ele>546</ele>
        <time>2019-04-18T10:36:41Z</time>
      </trkpt>
      <trkpt lat="45.86909" lon="3.60538">
        <ele>546</ele>
        <time>2019-04-18T10:37:41Z</time>
      </trkpt>
      <trkpt lat="45.86928" lon="3.60585">
        <ele>546</ele>
        <time>2019-04-18T10:38:41Z</time>
      </trkpt>
      <trkpt lat="45.86938" lon="3.60618">
        <ele>545</ele>
        <time>2019-04-18T10:39:41Z</time>
      </trkpt>
      <trkpt lat="45.86961" lon="3.60654">
        <ele>545</ele>
        <time>2019-04-18T10:40:41Z</time>
      </trkpt>
      <trkpt lat="45.86967" lon="3.60674">
        <ele>544</ele>
        <time>2019-04-18T10:41:41Z</time>
      </trkpt>
      <trkpt lat="45.86976" lon="3.60709">
        <ele>545</ele>
        <time>2019-04-18T10:42:41Z</time>
      </trkpt>
      <trkpt lat="45.86998" lon="3.60878">
        <ele>547</ele>
        <time>2019-04-18T10:43:41Z</time>
      </trkpt>
      <trkpt lat="45.86998" lon="3.6092">
        <ele>548</ele>
        <time>2019-04-18T10:44:41Z</time>
      </trkpt>
      <trkpt lat="45.86992" lon="3.60964">
        <ele>550</ele>
        <time>2019-04-18T10:45:41Z</time>
      </trkpt>
      <trkpt lat="45.8699" lon="3.60989">
        <ele>550</ele>
        <time>2019-04-18T10:46:41Z</time>
      </trkpt>
      <trkpt lat="45.87001" lon="3.61052">
        <ele>552</ele>
        <time>2019-04-18T10:47:41Z</time>
      </trkpt>
      <trkpt lat="45.8702" lon="3.61098">
        <ele>558</ele>
        <time>2019-04-18T10:48:41Z</time>
      </trkpt>
      <trkpt lat="45.87031" lon="3.61118">
        <ele>560</ele>
        <time>2019-04-18T10:49:41Z</time>
      </trkpt>
      <trkpt lat="45.87045" lon="3.61138">
        <ele>563</ele>
        <time>2019-04-18T10:50:41Z</time>
      </trkpt>
      <trkpt lat="45.87065" lon="3.61162">
        <ele>565</ele>
        <time>2019-04-18T10:51:41Z</time>
      </trkpt>
      <trkpt lat="45.87071" lon="3.61174">
        <ele>566</ele>
        <time>2019-04-18T10:52:41Z</time>
      </trkpt>
      <trkpt lat="45.87077" lon="3.61206">
        <ele>566</ele>
        <time>2019-04-18T10:53:41Z</time>
      </trkpt>
      <trkpt lat="45.87075" lon="3.61227">
        <ele>566</ele>
        <time>2019-04-18T10:54:41Z</time>
      </trkpt>
      <trkpt lat="45.87057" lon="3.61323">
        <ele>571</ele>
        <time>2019-04-18T10:55:41Z</time>
      </trkpt>
      <trkpt lat="45.87055" lon="3.61342">
        <ele>572</ele>
        <time>2019-04-18T10:56:41Z</time>
      </trkpt>
      <trkpt lat="45.87055" lon="3.61359">
        <ele>572</ele>
        <time>2019-04-18T10:57:41Z</time>
      </trkpt>
      <trkpt lat="45.87058" lon="3.61389">
        <ele>572</ele>
        <time>2019-04-18T10:58:41Z</time>
      </trkpt>
      <trkpt lat="45.87062" lon="3.6141">
        <ele>572</ele>
        <time>2019-04-18T10:59:41Z</time>
      </trkpt>
      <trkpt lat="45.87091" lon="3.61498">
        <ele>566</ele>
        <time>2019-04-18T11:00:41Z</time>
      </trkpt>
      <trkpt lat="45.87096" lon="3.61537">
        <ele>569</ele>
        <time>2019-04-18T11:01:41Z</time>
      </trkpt>
      <trkpt lat="45.87111" lon="3.61687">
        <ele>574</ele>
        <time>2019-04-18T11:02:41Z</time>
      </trkpt>
      <trkpt lat="45.87119" lon="3.6183">
        <ele>574</ele>
        <time>2019-04-18T11:03:41Z</time>
      </trkpt>
      <trkpt lat="45.87123" lon="3.61857">
        <ele>574</ele>
        <time>2019-04-18T11:04:41Z</time>
      </trkpt>
      <trkpt lat="45.87134" lon="3.61896">
        <ele>573</ele>
        <time>2019-04-18T11:05:41Z</time>
      </trkpt>
      <trkpt lat="45.87142" lon="3.61932">
        <ele>572</ele>
        <time>2019-04-18T11:06:41Z</time>
      </trkpt>
      <trkpt lat="45.87149" lon="3.61991">
        <ele>570</ele>
        <time>2019-04-18T11:07:41Z</time>
      </trkpt>
      <trkpt lat="45.87149" lon="3.62012">
        <ele>569</ele>
        <time>2019-04-18T11:08:41Z</time>
      </trkpt>
      <trkpt lat="45.87144" lon="3.62031">
        <ele>569</ele>
        <time>2019-04-18T11:09:41Z</time>
      </trkpt>
      <trkpt lat="45.87126" lon="3.62071">
        <ele>566</ele>
        <time>2019-04-18T11:10:41Z</time>
      </trkpt>
      <trkpt lat="45.87118" lon="3.62093">
        <ele>565</ele>
        <time>2019-04-18T11:11:41Z</time>
      </trkpt>
      <trkpt lat="45.87104" lon="3.62149">
        <ele>564</ele>
        <time>2019-04-18T11:12:41Z</time>
      </trkpt>
      <trkpt lat="45.87086" lon="3.62194">
        <ele>561</ele>
        <time>2019-04-18T11:13:41Z</time>
      </trkpt>
      <trkpt lat="45.87083" lon="3.62208">
        <ele>561</ele>
        <time>2019-04-18T11:14:41Z</time>
      </trkpt>
      <trkpt lat="45.87083" lon="3.62228">
        <ele>562</ele>
        <time>2019-04-18T11:15:41Z</time>
      </trkpt>
      <trkpt lat="45.87087" lon="3.62267">
        <ele>563</ele>
        <time>2019-04-18T11:16:41Z</time>
      </trkpt>
      <trkpt lat="45.87103" lon="3.6236">
        <ele>565</ele>
        <time>2019-04-18T11:17:41Z</time>
      </trkpt>
      <trkpt lat="45.87106" lon="3.62404">
        <ele>565</ele>
        <time>2019-04-18T11:18:41Z</time>
      </trkpt>
      <trkpt lat="45.87099" lon="3.62471">
        <ele>563</ele>
        <time>2019-04-18T11:19:41Z</time>
      </trkpt>
      <trkpt lat="45.87101" lon="3.62515">
        <ele>563</ele>
        <time>2019-04-18T11:20:41Z</time>
      </trkpt>
      <trkpt lat="45.87106" lon="3.62538">
        <ele>564</ele>
        <time>2019-04-18T11:21:41Z</time>
      </trkpt>
      <trkpt lat="45.8713" lon="3.62584">
        <ele>568</ele>
        <time>2019-04-18T11:22:41Z</time>
      </trkpt>
      <trkpt lat="45.87137" lon="3.62601">
        <ele>569</ele>
        <time>2019-04-18T11:23:41Z</time>
      </trkpt>
      <trkpt lat="45.87142" lon="3.62621">
        <ele>571</ele>
        <time>2019-04-18T11:24:41Z</time>
      </trkpt>
      <trkpt lat="45.87147" lon="3.62654">
        <ele>573</ele>
        <time>2019-04-18T11:25:41Z</time>
      </trkpt>
      <trkpt lat="45.87149" lon="3.62675">
        <ele>574</ele>
        <time>2019-04-18T11:26:41Z</time>
      </trkpt>
      <trkpt lat="45.87147" lon="3.62694">
        <ele>576</ele>
        <time>2019-04-18T11:27:41Z</time>
      </trkpt>
      <trkpt lat="45.87139" lon="3.62721">
        <ele>577</ele>
        <time>2019-04-18T11:28:41Z</time>
      </trkpt>
      <trkpt lat="45.87131" lon="3.62735">
        <ele>576</ele>
        <time>2019-04-18T11:29:41Z</time>
      </trkpt>
      <trkpt lat="45.87122" lon="3.62743">
        <ele>575</ele>
        <time>2019-04-18T11:30:41Z</time>
      </trkpt>
      <trkpt lat="45.87117" lon="3.62748">
        <ele>574</ele>
        <time>2019-04-18T11:31:41Z</time>
      </trkpt>
      <trkpt lat="45.8706" lon="3.62761">
        <ele>567</ele>
        <time>2019-04-18T11:32:41Z</time>
      </trkpt>
      <trkpt lat="45.87051" lon="3.62765">
        <ele>568</ele>
        <time>2019-04-18T11:33:41Z</time>
      </trkpt>
      <trkpt lat="45.87045" lon="3.62772">
        <ele>568</ele>
        <time>2019-04-18T11:34:41Z</time>
      </trkpt>
      <trkpt lat="45.8704" lon="3.62782">
        <ele>568</ele>
        <time>2019-04-18T11:35:41Z</time>
      </trkpt>
      <trkpt lat="45.87033" lon="3.62792">
        <ele>569</ele>
        <time>2019-04-18T11:36:41Z</time>
      </trkpt>
      <trkpt lat="45.87018" lon="3.62796">
        <ele>568</ele>
        <time>2019-04-18T11:37:41Z</time>
      </trkpt>
      <trkpt lat="45.87011" lon="3.62802">
        <ele>568</ele>
        <time>2019-04-18T11:38:41Z</time>
      </trkpt>
      <trkpt lat="45.87005" lon="3.6281">
        <ele>568</ele>
        <time>2019-04-18T11:39:41Z</time>
      </trkpt>
      <trkpt lat="45.87002" lon="3.62821">
        <ele>567</ele>
        <time>2019-04-18T11:40:41Z</time>
      </trkpt>
      <trkpt lat="45.87002" lon="3.62848">
        <ele>569</ele>
        <time>2019-04-18T11:41:41Z</time>
      </trkpt>
      <trkpt lat="45.86999" lon="3.62864">
        <ele>570</ele>
        <time>2019-04-18T11:42:41Z</time>
      </trkpt>
      <trkpt lat="45.86934" lon="3.62989">
        <ele>572</ele>
        <time>2019-04-18T11:43:41Z</time>
      </trkpt>
      <trkpt lat="45.86918" lon="3.63012">
        <ele>572</ele>
        <time>2019-04-18T11:44:41Z</time>
      </trkpt>
      <trkpt lat="45.86852" lon="3.63085">
        <ele>575</ele>
        <time>2019-04-18T11:45:41Z</time>
      </trkpt>
      <trkpt lat="45.86837" lon="3.63104">
        <ele>574</ele>
        <time>2019-04-18T11:46:41Z</time>
      </trkpt>
      <trkpt lat="45.86828" lon="3.63124">
        <ele>573</ele>
        <time>2019-04-18T11:47:41Z</time>
      </trkpt>
      <trkpt lat="45.86824" lon="3.63146">
        <ele>573</ele>
        <time>2019-04-18T11:48:41Z</time>
      </trkpt>
      <trkpt lat="45.86825" lon="3.63167">
        <ele>574</ele>
        <time>2019-04-18T11:49:41Z</time>
      </trkpt>
      <trkpt lat="45.86859" lon="3.63362">
        <ele>577</ele>
        <time>2019-04-18T11:50:41Z</time>
      </trkpt>
      <trkpt lat="45.8686" lon="3.63411">
        <ele>576</ele>
        <time>2019-04-18T11:51:41Z</time>
      </trkpt>
      <trkpt lat="45.86855" lon="3.63465">
        <ele>574</ele>
        <time>2019-04-18T11:52:41Z</time>
      </trkpt>
      <trkpt lat="45.86847" lon="3.63505">
        <ele>573</ele>
        <time>2019-04-18T11:53:41Z</time>
      </trkpt>
      <trkpt lat="45.86841" lon="3.63522">
        <ele>573</ele>
        <time>2019-04-18T11:54:41Z</time>
      </trkpt>
      <trkpt lat="45.86834" lon="3.6354">
        <ele>573</ele>
        <time>2019-04-18T11:55:41Z</time>
      </trkpt>
      <trkpt lat="45.86816" lon="3.63571">
        <ele>573</ele>
        <time>2019-04-18T11:56:41Z</time>
      </trkpt>
      <trkpt lat="45.86784" lon="3.63612">
        <ele>574</ele>
        <time>2019-04-18T11:57:41Z</time>
      </trkpt>
      <trkpt lat="45.86771" lon="3.63634">
        <ele>575</ele>
        <time>2019-04-18T11:58:41Z</time>
      </trkpt>
      <trkpt lat="45.86765" lon="3.63651">
        <ele>575</ele>
        <time>2019-04-18T11:59:41Z</time>
      </trkpt>
      <trkpt lat="45.86757" lon="3.63683">
        <ele>575</ele>
        <time>2019-04-18T12:00:41Z</time>
      </trkpt>
      <trkpt lat="45.86757" lon="3.63708">
        <ele>576</ele>
        <time>2019-04-18T12:01:41Z</time>
      </trkpt>
      <trkpt lat="45.86762" lon="3.63734">
        <ele>578</ele>
        <time>2019-04-18T12:02:41Z</time>
      </trkpt>
      <trkpt lat="45.86775" lon="3.63774">
        <ele>582</ele>
        <time>2019-04-18T12:03:41Z</time>
      </trkpt>
      <trkpt lat="45.86779" lon="3.63809">
        <ele>584</ele>
        <time>2019-04-18T12:04:41Z</time>
      </trkpt>
      <trkpt lat="45.86778" lon="3.63815">
        <ele>584</ele>
        <time>2019-04-18T12:05:41Z</time>
      </trkpt>
      <trkpt lat="45.86773" lon="3.63842">
        <ele>585</ele>
        <time>2019-04-18T12:06:41Z</time>
      </trkpt>
      <trkpt lat="45.86764" lon="3.63861">
        <ele>585</ele>
        <time>2019-04-18T12:07:41Z</time>
      </trkpt>
      <trkpt lat="45.86729" lon="3.63918">
        <ele>585</ele>
        <time>2019-04-18T12:08:41Z</time>
      </trkpt>
      <trkpt lat="45.86717" lon="3.63949">
        <ele>584</ele>
        <time>2019-04-18T12:09:41Z</time>
      </trkpt>
      <trkpt lat="45.86715" lon="3.63985">
        <ele>585</ele>
        <time>2019-04-18T12:10:41Z</time>
      </trkpt>
      <trkpt lat="45.86718" lon="3.6401">
        <ele>586</ele>
        <time>2019-04-18T12:11:41Z</time>
      </trkpt>
      <trkpt lat="45.86725" lon="3.64033">
        <ele>587</ele>
        <time>2019-04-18T12:12:41Z</time>
      </trkpt>
      <trkpt lat="45.8676" lon="3.64121">
        <ele>591</ele>
        <time>2019-04-18T12:13:41Z</time>
      </trkpt>
      <trkpt lat="45.86765" lon="3.64156">
        <ele>591</ele>
        <time>2019-04-18T12:14:41Z</time>
      </trkpt>
      <trkpt lat="45.86763" lon="3.64185">
        <ele>590</ele>
        <time>2019-04-18T12:15:41Z</time>
      </trkpt>
      <trkpt lat="45.86757" lon="3.6421">
        <ele>589</ele>
        <time>2019-04-18T12:16:41Z</time>
      </trkpt>
      <trkpt lat="45.8673" lon="3.64259">
        <ele>585</ele>
        <time>2019-04-18T12:17:41Z</time>
      </trkpt>
      <trkpt lat="45.8672" lon="3.64285">
        <ele>585</ele>
        <time>2019-04-18T12:18:41Z</time>
      </trkpt>
      <trkpt lat="45.86714" lon="3.64305">
        <ele>585</ele>
        <time>2019-04-18T12:19:41Z</time>
      </trkpt>
      <trkpt lat="45.86705" lon="3.64357">
        <ele>585</ele>
        <time>2019-04-18T12:20:41Z</time>
      </trkpt>
      <trkpt lat="45.86683" lon="3.6443">
        <ele>582</ele>
        <time>2019-04-18T12:21:41Z</time>
      </trkpt>
      <trkpt lat="45.8668" lon="3.64449">
        <ele>581</ele>
        <time>2019-04-18T12:22:41Z</time>
      </trkpt>
      <trkpt lat="45.86676" lon="3.64523">
        <ele>580</ele>
        <time>2019-04-18T12:23:41Z</time>
      </trkpt>
      <trkpt lat="45.86669" lon="3.64573">
        <ele>579</ele>
        <time>2019-04-18T12:24:41Z</time>
      </trkpt>
      <trkpt lat="45.86668" lon="3.64602">
        <ele>579</ele>
        <time>2019-04-18T12:25:41Z</time>
      </trkpt>
      <trkpt lat="45.86672" lon="3.64626">
        <ele>580</ele>
        <time>2019-04-18T12:26:41Z</time>
      </trkpt>
      <trkpt lat="45.86679" lon="3.64651">
        <ele>581</ele>
        <time>2019-04-18T12:27:41Z</time>
      </trkpt>
      <trkpt lat="45.86702" lon="3.64711">
        <ele>583</ele>
        <time>2019-04-18T12:28:41Z</time>
      </trkpt>
      <trkpt lat="45.86708" lon="3.64768">
        <ele>584</ele>
        <time>2019-04-18T12:29:41Z</time>
      </trkpt>
      <trkpt lat="45.86717" lon="3.64827">
        <ele>585</ele>
        <time>2019-04-18T12:30:41Z</time>
      </trkpt>
      <trkpt lat="45.86745" lon="3.649">
        <ele>586</ele>
        <time>2019-04-18T12:31:41Z</time>
      </trkpt>
      <trkpt lat="45.86753" lon="3.64934">
        <ele>585</ele>
        <time>2019-04-18T12:32:41Z</time>
      </trkpt>
      <trkpt lat="45.86761" lon="3.64989">
        <ele>586</ele>
        <time>2019-04-18T12:33:41Z</time>
      </trkpt>
      <trkpt lat="45.86764" lon="3.65018">
        <ele>587</ele>
        <time>2019-04-18T12:34:41Z</time>
      </trkpt>
      <trkpt lat="45.86747" lon="3.65091">
        <ele>586</ele>
        <time>2019-04-18T12:35:41Z</time>
      </trkpt>
      <trkpt lat="45.86745" lon="3.65109">
        <ele>585</ele>
        <time>2019-04-18T12:36:41Z</time>
      </trkpt>
      <trkpt lat="45.86746" lon="3.65129">
        <ele>585</ele>
        <time>2019-04-18T12:37:41Z</time>
      </trkpt>
      <trkpt lat="45.86752" lon="3.6515">
        <ele>585</ele>
        <time>2019-04-18T12:38:41Z</time>
      </trkpt>
      <trkpt lat="45.86764" lon="3.65169">
        <ele>586</ele>
        <time>2019-04-18T12:39:41Z</time>
      </trkpt>
      <trkpt lat="45.86809" lon="3.65221">
        <ele>588</ele>
        <time>2019-04-18T12:40:41Z</time>
      </trkpt>
      <trkpt lat="45.86822" lon="3.65246">
        <ele>587</ele>
        <time>2019-04-18T12:41:41Z</time>
      </trkpt>
      <trkpt lat="45.86841" lon="3.65309">
        <ele>586</ele>
        <time>2019-04-18T12:42:41Z</time>
      </trkpt>
      <trkpt lat="45.86852" lon="3.65326">
        <ele>586</ele>
        <time>2019-04-18T12:43:41Z</time>
      </trkpt>
      <trkpt lat="45.86868" lon="3.65343">
        <ele>586</ele>
        <time>2019-04-18T12:44:41Z</time>
      </trkpt>
      <trkpt lat="45.86886" lon="3.65354">
        <ele>587</ele>
        <time>2019-04-18T12:45:41Z</time>
      </trkpt>
      <trkpt lat="45.86899" lon="3.6536">
        <ele>587</ele>
        <time>2019-04-18T12:46:41Z</time>
      </trkpt>
      <trkpt lat="45.86951" lon="3.65358">
        <ele>589</ele>
        <time>2019-04-18T12:47:41Z</time>
      </trkpt>
      <trkpt lat="45.86969" lon="3.6536">
        <ele>590</ele>
        <time>2019-04-18T12:48:41Z</time>
      </trkpt>
      <trkpt lat="45.86984" lon="3.65368">
        <ele>590</ele>
        <time>2019-04-18T12:49:41Z</time>
      </trkpt>
      <trkpt lat="45.86992" lon="3.65381">
        <ele>590</ele>
        <time>2019-04-18T12:50:41Z</time>
      </trkpt>
      <trkpt lat="45.87002" lon="3.65408">
        <ele>589</ele>
        <time>2019-04-18T12:51:41Z</time>
      </trkpt>
      <trkpt lat="45.8701" lon="3.65432">
        <ele>589</ele>
        <time>2019-04-18T12:52:41Z</time>
      </trkpt>
      <trkpt lat="45.87046" lon="3.65483">
        <ele>591</ele>
        <time>2019-04-18T12:53:41Z</time>
      </trkpt>
      <trkpt lat="45.87059" lon="3.6551">
        <ele>591</ele>
        <time>2019-04-18T12:54:41Z</time>
      </trkpt>
      <trkpt lat="45.87073" lon="3.65549">
        <ele>591</ele>
        <time>2019-04-18T12:55:41Z</time>
      </trkpt>
      <trkpt lat="45.87135" lon="3.65833">
        <ele>588</ele>
        <time>2019-04-18T12:56:41Z</time>
      </trkpt>
      <trkpt lat="45.87138" lon="3.65855">
        <ele>589</ele>
        <time>2019-04-18T12:57:41Z</time>
      </trkpt>
      <trkpt lat="45.87135" lon="3.65896">
        <ele>591</ele>
        <time>2019-04-18T12:58:41Z</time>
      </trkpt>
      <trkpt lat="45.87125" lon="3.65994">
        <ele>591</ele>
        <time>2019-04-18T12:59:41Z</time>
      </trkpt>
      <trkpt lat="45.87124" lon="3.66035">
        <ele>591</ele>
        <time>2019-04-18T13:00:41Z</time>
      </trkpt>
      <trkpt lat="45.87174" lon="3.66323">
        <ele>593</ele>
        <time>2019-04-18T13:01:41Z</time>
      </trkpt>
      <trkpt lat="45.87177" lon="3.66359">
        <ele>594</ele>
        <time>2019-04-18T13:02:41Z</time>
      </trkpt>
      <trkpt lat="45.87178" lon="3.66399">
        <ele>595</ele>
        <time>2019-04-18T13:03:41Z</time>
      </trkpt>
      <trkpt lat="45.87177" lon="3.66498">
        <ele>592</ele>
        <time>2019-04-18T13:04:41Z</time>
      </trkpt>
      <trkpt lat="45.87219" lon="3.66857">
        <ele>592</ele>
        <time>2019-04-18T13:05:41Z</time>
      </trkpt>
      <trkpt lat="45.87232" lon="3.66981">
        <ele>594</ele>
        <time>2019-04-18T13:06:41Z</time>
      </trkpt>
      <trkpt lat="45.87242" lon="3.67093">
        <ele>595</ele>
        <time>2019-04-18T13:07:41Z</time>
      </trkpt>
      <trkpt lat="45.87243" lon="3.67157">
        <ele>594</ele>
        <time>2019-04-18T13:08:41Z</time>
      </trkpt>
      <trkpt lat="45.87238" lon="3.67216">
        <ele>595</ele>
        <time>2019-04-18T13:09:41Z</time>
      </trkpt>
      <trkpt lat="45.87224" lon="3.6733">
        <ele>595</ele>
        <time>2019-04-18T13:10:41Z</time>
      </trkpt>
      <trkpt lat="45.87224" lon="3.67396">
        <ele>596</ele>
        <time>2019-04-18T13:11:41Z</time>
      </trkpt>
      <trkpt lat="45.87231" lon="3.67454">
        <ele>596</ele>
        <time>2019-04-18T13:12:41Z</time>
      </trkpt>
      <trkpt lat="45.87243" lon="3.67508">
        <ele>597</ele>
        <time>2019-04-18T13:13:41Z</time>
      </trkpt>
      <trkpt lat="45.87267" lon="3.67574">
        <ele>597</ele>
        <time>2019-04-18T13:14:41Z</time>
      </trkpt>
      <trkpt lat="45.87293" lon="3.67623">
        <ele>598</ele>
        <time>2019-04-18T13:15:41Z</time>
      </trkpt>
      <trkpt lat="45.87317" lon="3.67658">
        <ele>599</ele>
        <time>2019-04-18T13:16:41Z</time>
      </trkpt>
      <trkpt lat="45.87357" lon="3.67702">
        <ele>600</ele>
        <time>2019-04-18T13:17:41Z</time>
      </trkpt>
      <trkpt lat="45.87454" lon="3.67775">
        <ele>604</ele>
        <time>2019-04-18T13:18:41Z</time>
      </trkpt>
      <trkpt lat="45.87517" lon="3.67835">
        <ele>604</ele>
        <time>2019-04-18T13:19:41Z</time>
      </trkpt>
      <trkpt lat="45.87561" lon="3.67899">
        <ele>605</ele>
        <time>2019-04-18T13:20:41Z</time>
      </trkpt>
      <trkpt lat="45.87589" lon="3.67948">
        <ele>605</ele>
        <time>2019-04-18T13:21:41Z</time>
      </trkpt>
      <trkpt lat="45.87662" lon="3.68033">
        <ele>610</ele>
        <time>2019-04-18T13:22:41Z</time>
      </trkpt>
      <trkpt lat="45.87735" lon="3.68103">
        <ele>608</ele>
        <time>2019-04-18T13:23:41Z</time>
      </trkpt>
      <trkpt lat="45.87756" lon="3.68129">
        <ele>606</ele>
        <time>2019-04-18T13:24:41Z</time>
      </trkpt>
      <trkpt lat="45.87772" lon="3.68155">
        <ele>603</ele>
        <time>2019-04-18T13:25:41Z</time>
      </trkpt>
      <trkpt lat="45.87789" lon="3.68196">
        <ele>603</ele>
        <time>2019-04-18T13:26:41Z</time>
      </trkpt>
      <trkpt lat="45.87798" lon="3.68286">
        <ele>605</ele>
        <time>2019-04-18T13:27:41Z</time>
      </trkpt>
      <trkpt lat="45.87797" lon="3.68326">
        <ele>607</ele>
        <time>2019-04-18T13:28:41Z</time>
      </trkpt>
      <trkpt lat="45.87787" lon="3.68466">
        <ele>611</ele>
        <time>2019-04-18T13:29:41Z</time>
      </trkpt>
      <trkpt lat="45.87789" lon="3.68495">
        <ele>612</ele>
        <time>2019-04-18T13:30:41Z</time>
      </trkpt>
      <trkpt lat="45.87797" lon="3.68524">
        <ele>611</ele>
        <time>2019-04-18T13:31:41Z</time>
      </trkpt>
      <trkpt lat="45.87839" lon="3.68626">
        <ele>609</ele>
        <time>2019-04-18T13:32:41Z</time>
      </trkpt>
      <trkpt lat="45.87845" lon="3.68652">
        <ele>609</ele>
        <time>2019-04-18T13:33:41Z</time>
      </trkpt>
      <trkpt lat="45.87847" lon="3.68689">
        <ele>609</ele>
        <time>2019-04-18T13:34:41Z</time>
      </trkpt>
      <trkpt lat="45.87843" lon="3.68724">
        <ele>609</ele>
        <time>2019-04-18T13:35:41Z</time>
      </trkpt>
      <trkpt lat="45.8783" lon="3.68807">
        <ele>611</ele>
        <time>2019-04-18T13:36:41Z</time>
      </trkpt>
      <trkpt lat="45.87829" lon="3.68826">
        <ele>612</ele>
        <time>2019-04-18T13:37:41Z</time>
      </trkpt>
      <trkpt lat="45.87829" lon="3.68846">
        <ele>612</ele>
        <time>2019-04-18T13:38:41Z</time>
      </trkpt>
      <trkpt lat="45.87837" lon="3.68874">
        <ele>612</ele>
        <time>2019-04-18T13:39:41Z</time>
      </trkpt>
      <trkpt lat="45.8786" lon="3.68914">
        <ele>615</ele>
        <time>2019-04-18T13:40:41Z</time>
      </trkpt>
      <trkpt lat="45.8787" lon="3.68941">
        <ele>617</ele>
        <time>2019-04-18T13:41:41Z</time>
      </trkpt>
      <trkpt lat="45.87879" lon="3.69002">
        <ele>619</ele>
        <time>2019-04-18T13:42:41Z</time>
      </trkpt>
      <trkpt lat="45.87912" lon="3.69289">
        <ele>620</ele>
        <time>2019-04-18T13:43:41Z</time>
      </trkpt>
      <trkpt lat="45.87933" lon="3.69445">
        <ele>620</ele>
        <time>2019-04-18T13:44:41Z</time>
      </trkpt>
      <trkpt lat="45.87935" lon="3.6957">
        <ele>620</ele>
        <time>2019-04-18T13:45:41Z</time>
      </trkpt>
      <trkpt lat="45.87932" lon="3.69587">
        <ele>620</ele>
        <time>2019-04-18T13:46:41Z</time>
      </trkpt>
      <trkpt lat="45.87935" lon="3.69607">
        <ele>621</ele>
        <time>2019-04-18T13:47:41Z</time>
      </trkpt>
      <trkpt lat="45.87936" lon="3.69661">
        <ele>624</ele>
        <time>2019-04-18T13:48:41Z</time>
      </trkpt>
      <trkpt lat="45.8794" lon="3.69731">
        <ele>627</ele>
        <time>2019-04-18T13:49:41Z</time>
      </trkpt>
      <trkpt lat="45.87948" lon="3.69769">
        <ele>629</ele>
        <time>2019-04-18T13:50:41Z</time>
      </trkpt>
      <trkpt lat="45.87983" lon="3.69952">
        <ele>634</ele>
        <time>2019-04-18T13:51:41Z</time>
      </trkpt>
      <trkpt lat="45.87996" lon="3.70079">
        <ele>641</ele>
        <time>2019-04-18T13:52:41Z</time>
      </trkpt>
      <trkpt lat="45.88028" lon="3.70285">
        <ele>649</ele>
        <time>2019-04-18T13:53:41Z</time>
      </trkpt>
      <trkpt lat="45.881" lon="3.70449">
        <ele>656</ele>
        <time>2019-04-18T13:54:41Z</time>
      </trkpt>
      <trkpt lat="45.88128" lon="3.70526">
        <ele>661</ele>
        <time>2019-04-18T13:55:41Z</time>
      </trkpt>
      <trkpt lat="45.88145" lon="3.70586">
        <ele>665</ele>
        <time>2019-04-18T13:56:41Z</time>
      </trkpt>
      <trkpt lat="45.883" lon="3.71867">
        <ele>732</ele>
        <time>2019-04-18T13:57:41Z</time>
      </trkpt>
      <trkpt lat="45.88331" lon="3.7209">
        <ele>748</ele>
        <time>2019-04-18T13:58:41Z</time>
      </trkpt>
      <trkpt lat="45.88341" lon="3.7215">
        <ele>751</ele>
        <time>2019-04-18T13:59:41Z</time>
      </trkpt>
      <trkpt lat="45.88367" lon="3.72241">
        <ele>759</ele>
        <time>2019-04-18T14:00:41Z</time>
      </trkpt>
      <trkpt lat="45.88371" lon="3.72279">
        <ele>760</ele>
        <time>2019-04-18T14:01:41Z</time>
      </trkpt>
      <trkpt lat="45.8835" lon="3.72731">
        <ele>785</ele>
        <time>2019-04-18T14:02:41Z</time>
      </trkpt>
      <trkpt lat="45.88349" lon="3.72792">
        <ele>784</ele>
        <time>2019-04-18T14:03:41Z</time>
      </trkpt>
      <trkpt lat="45.88357" lon="3.73265">
        <ele>770</ele>
        <time>2019-04-18T14:04:41Z</time>
      </trkpt>
      <trkpt lat="45.88359" lon="3.733">
        <ele>771</ele>
        <time>2019-04-18T14:05:41Z</time>
      </trkpt>
      <trkpt lat="45.88365" lon="3.73335">
        <ele>773</ele>
        <time>2019-04-18T14:06:41Z</time>
      </trkpt>
      <trkpt lat="45.88391" lon="3.73437">
        <ele>776</ele>
        <time>2019-04-18T14:07:41Z</time>
      </trkpt>
      <trkpt lat="45.88466" lon="3.73692">
        <ele>782</ele>
        <time>2019-04-18T14:08:41Z</time>
      </trkpt>
      <trkpt lat="45.88484" lon="3.73796">
        <ele>788</ele>
        <time>2019-04-18T14:09:41Z</time>
      </trkpt>
      <trkpt lat="45.88481" lon="3.73834">
        <ele>790</ele>
        <time>2019-04-18T14:10:41Z</time>
      </trkpt>
      <trkpt lat="45.88474" lon="3.7387">
        <ele>790</ele>
        <time>2019-04-18T14:11:41Z</time>
      </trkpt>
      <trkpt lat="45.88447" lon="3.73979">
        <ele>788</ele>
        <time>2019-04-18T14:12:41Z</time>
      </trkpt>
      <trkpt lat="45.88408" lon="3.74104">
        <ele>795</ele>
        <time>2019-04-18T14:13:41Z</time>
      </trkpt>
      <trkpt lat="45.88398" lon="3.74148">
        <ele>801</ele>
        <time>2019-04-18T14:14:41Z</time>
      </trkpt>
      <trkpt lat="45.88401" lon="3.74201">
        <ele>806</ele>
        <time>2019-04-18T14:15:41Z</time>
      </trkpt>
      <trkpt lat="45.88423" lon="3.74449">
        <ele>836</ele>
        <time>2019-04-18T14:16:41Z</time>
      </trkpt>
      <trkpt lat="45.88446" lon="3.74696">
        <ele>869</ele>
        <time>2019-04-18T14:17:41Z</time>
      </trkpt>
      <trkpt lat="45.88445" lon="3.74746">
        <ele>875</ele>
        <time>2019-04-18T14:18:41Z</time>
      </trkpt>
      <trkpt lat="45.8841" lon="3.74925">
        <ele>893</ele>
        <time>2019-04-18T14:19:41Z</time>
      </trkpt>
      <trkpt lat="45.88442" lon="3.75139">
        <ele>911</ele>
        <time>2019-04-18T14:20:41Z</time>
      </trkpt>
      <trkpt lat="45.88463" lon="3.75205">
        <ele>917</ele>
        <time>2019-04-18T14:21:41Z</time>
      </trkpt>
      <trkpt lat="45.88609" lon="3.75427">
        <ele>936</ele>
        <time>2019-04-18T14:22:41Z</time>
      </trkpt>
      <trkpt lat="45.88611" lon="3.75434">
        <ele>936</ele>
        <time>2019-04-18T14:23:41Z</time>
      </trkpt>
      <trkpt lat="45.88607" lon="3.75458">
        <ele>936</ele>
        <time>2019-04-18T14:24:41Z</time>
      </trkpt>
      <trkpt lat="45.88545" lon="3.75548">
        <ele>931</ele>
        <time>2019-04-18T14:25:41Z</time>
      </trkpt>
      <trkpt lat="45.8854" lon="3.75559">
        <ele>930</ele>
        <time>2019-04-18T14:26:41Z</time>
      </trkpt>
      <trkpt lat="45.8854" lon="3.75574">
        <ele>929</ele>
        <time>2019-04-18T14:27:41Z</time>
      </trkpt>
      <trkpt lat="45.88547" lon="3.75591">
        <ele>928</ele>
        <time>2019-04-18T14:28:41Z</time>
      </trkpt>
      <trkpt lat="45.88644" lon="3.75746">
        <ele>908</ele>
        <time>2019-04-18T14:29:41Z</time>
      </trkpt>
      <trkpt lat="45.88656" lon="3.75755">
        <ele>907</ele>
        <time>2019-04-18T14:30:41Z</time>
      </trkpt>
      <trkpt lat="45.88671" lon="3.75762">
        <ele>906</ele>
        <time>2019-04-18T14:31:41Z</time>
      </trkpt>
      <trkpt lat="45.88787" lon="3.75786">
        <ele>901</ele>
        <time>2019-04-18T14:32:41Z</time>
      </trkpt>
      <trkpt lat="45.88927" lon="3.75862">
        <ele>882</ele>
        <time>2019-04-18T14:33:41Z</time>
      </trkpt>
      <trkpt lat="45.88973" lon="3.75895">
        <ele>877</ele>
        <time>2019-04-18T14:34:41Z</time>
      </trkpt>
      <trkpt lat="45.8908" lon="3.7604">
        <ele>854</ele>
        <time>2019-04-18T14:35:41Z</time>
      </trkpt>
      <trkpt lat="45.89084" lon="3.7605">
        <ele>852</ele>
        <time>2019-04-18T14:36:41Z</time>
      </trkpt>
      <trkpt lat="45.89085" lon="3.76061">
        <ele>849</ele>
        <time>2019-04-18T14:37:41Z</time>
      </trkpt>
      <trkpt lat="45.89078" lon="3.76067">
        <ele>848</ele>
        <time>2019-04-18T14:38:41Z</time>
      </trkpt>
      <trkpt lat="45.8907" lon="3.76071">
        <ele>846</ele>
        <time>2019-04-18T14:39:41Z</time>
      </trkpt>
      <trkpt lat="45.88939" lon="3.76081">
        <ele>841</ele>
        <time>2019-04-18T14:40:41Z</time>
      </trkpt>
      <trkpt lat="45.88931" lon="3.76085">
        <ele>841</ele>
        <time>2019-04-18T14:41:41Z</time>
      </trkpt>
      <trkpt lat="45.88925" lon="3.76096">
        <ele>839</ele>
        <time>2019-04-18T14:42:41Z</time>
      </trkpt>
      <trkpt lat="45.88924" lon="3.76105">
        <ele>838</ele>
        <time>2019-04-18T14:43:41Z</time>
      </trkpt>
      <trkpt lat="45.88924" lon="3.76121">
        <ele>835</ele>
        <time>2019-04-18T14:44:41Z</time>
      </trkpt>
      <trkpt lat="45.8893" lon="3.76148">
        <ele>831</ele>
        <time>2019-04-18T14:45:41Z</time>
      </trkpt>
      <trkpt lat="45.88994" lon="3.76514">
        <ele>802</ele>
        <time>2019-04-18T14:46:41Z</time>
      </trkpt>
      <trkpt lat="45.88993" lon="3.76544">
        <ele>804</ele>
        <time>2019-04-18T14:47:41Z</time>
      </trkpt>
      <trkpt lat="45.88985" lon="3.76572">
        <ele>806</ele>
        <time>2019-04-18T14:48:41Z</time>
      </trkpt>
      <trkpt lat="45.88968" lon="3.76614">
        <ele>808</ele>
        <time>2019-04-18T14:49:41Z</time>
      </trkpt>
      <trkpt lat="45.8896" lon="3.76646">
        <ele>809</ele>
        <time>2019-04-18T14:50:41Z</time>
      </trkpt>
      <trkpt lat="45.88959" lon="3.76662">
        <ele>809</ele>
        <time>2019-04-18T14:51:41Z</time>
      </trkpt>
      <trkpt lat="45.8896" lon="3.76681">
        <ele>809</ele>
        <time>2019-04-18T14:52:41Z</time>
      </trkpt>
      <trkpt lat="45.88965" lon="3.76703">
        <ele>808</ele>
        <time>2019-04-18T14:53:41Z</time>
      </trkpt>
      <trkpt lat="45.88973" lon="3.76724">
        <ele>807</ele>
        <time>2019-04-18T14:54:41Z</time>
      </trkpt>
      <trkpt lat="45.89017" lon="3.76832">
        <ele>797</ele>
        <time>2019-04-18T14:55:41Z</time>
      </trkpt>
      <trkpt lat="45.89021" lon="3.76854">
        <ele>794</ele>
        <time>2019-04-18T14:56:41Z</time>
      </trkpt>
      <trkpt lat="45.89019" lon="3.76912">
        <ele>788</ele>
        <time>2019-04-18T14:57:41Z</time>
      </trkpt>
      <trkpt lat="45.89014" lon="3.76975">
        <ele>784</ele>
        <time>2019-04-18T14:58:41Z</time>
      </trkpt>
      <trkpt lat="45.88993" lon="3.77136">
        <ele>774</ele>
        <time>2019-04-18T14:59:41Z</time>
      </trkpt>
      <trkpt lat="45.88994" lon="3.77167">
        <ele>773</ele>
        <time>2019-04-18T15:00:41Z</time>
      </trkpt>
      <trkpt lat="45.89033" lon="3.77285">
        <ele>762</ele>
        <time>2019-04-18T15:01:41Z</time>
      </trkpt>
      <trkpt lat="45.8924" lon="3.77976">
        <ele>721</ele>
        <time>2019-04-18T15:02:41Z</time>
      </trkpt>
      <trkpt lat="45.89561" lon="3.79029">
        <ele>687</ele>
        <time>2019-04-18T15:03:41Z</time>
      </trkpt>
      <trkpt lat="45.89606" lon="3.79397">
        <ele>679</ele>
        <time>2019-04-18T15:04:41Z</time>
      </trkpt>
      <trkpt lat="45.89614" lon="3.79475">
        <ele>677</ele>
        <time>2019-04-18T15:05:41Z</time>
      </trkpt>
      <trkpt lat="45.89669" lon="3.79879">
        <ele>662</ele>
        <time>2019-04-18T15:06:41Z</time>
      </trkpt>
      <trkpt lat="45.89734" lon="3.80464">
        <ele>639</ele>
        <time>2019-04-18T15:07:41Z</time>
      </trkpt>
      <trkpt lat="45.89774" lon="3.80775">
        <ele>634</ele>
        <time>2019-04-18T15:08:41Z</time>
      </trkpt>
      <trkpt lat="45.89789" lon="3.80925">
        <ele>640</ele>
        <time>2019-04-18T15:09:41Z</time>
      </trkpt>
      <trkpt lat="45.89786" lon="3.80953">
        <ele>643</ele>
        <time>2019-04-18T15:10:41Z</time>
      </trkpt>
      <trkpt lat="45.89775" lon="3.80977">
        <ele>645</ele>
        <time>2019-04-18T15:11:41Z</time>
      </trkpt>
      <trkpt lat="45.8971" lon="3.8107">
        <ele>656</ele>
        <time>2019-04-18T15:12:41Z</time>
      </trkpt>
      <trkpt lat="45.89665" lon="3.81147">
        <ele>667</ele>
        <time>2019-04-18T15:13:41Z</time>
      </trkpt>
      <trkpt lat="45.89662" lon="3.81167">
        <ele>670</ele>
        <time>2019-04-18T15:14:41Z</time>
      </trkpt>
      <trkpt lat="45.89672" lon="3.81179">
        <ele>672</ele>
        <time>2019-04-18T15:15:41Z</time>
      </trkpt>
      <trkpt lat="45.89823" lon="3.81247">
        <ele>686</ele>
        <time>2019-04-18T15:16:41Z</time>
      </trkpt>
      <trkpt lat="45.89833" lon="3.81255">
        <ele>687</ele>
        <time>2019-04-18T15:17:41Z</time>
      </trkpt>
      <trkpt lat="45.89843" lon="3.8127">
        <ele>689</ele>
        <time>2019-04-18T15:18:41Z</time>
      </trkpt>
      <trkpt lat="45.89851" lon="3.81294">
        <ele>691</ele>
        <time>2019-04-18T15:19:41Z</time>
      </trkpt>
      <trkpt lat="45.89879" lon="3.81416">
        <ele>698</ele>
        <time>2019-04-18T15:20:41Z</time>
      </trkpt>
      <trkpt lat="45.89889" lon="3.81441">
        <ele>700</ele>
        <time>2019-04-18T15:21:41Z</time>
      </trkpt>
      <trkpt lat="45.89906" lon="3.81465">
        <ele>703</ele>
        <time>2019-04-18T15:22:41Z</time>
      </trkpt>
      <trkpt lat="45.90015" lon="3.81563">
        <ele>728</ele>
        <time>2019-04-18T15:23:41Z</time>
      </trkpt>
      <trkpt lat="45.90156" lon="3.81698">
        <ele>731</ele>
        <time>2019-04-18T15:24:41Z</time>
      </trkpt>
      <trkpt lat="45.90309" lon="3.81842">
        <ele>729</ele>
        <time>2019-04-18T15:25:41Z</time>
      </trkpt>
      <trkpt lat="45.9071" lon="3.82321">
        <ele>730</ele>
        <time>2019-04-18T15:26:41Z</time>
      </trkpt>
      <trkpt lat="45.90748" lon="3.82363">
        <ele>727</ele>
        <time>2019-04-18T15:27:41Z</time>
      </trkpt>
      <trkpt lat="45.90759" lon="3.82388">
        <ele>727</ele>
        <time>2019-04-18T15:28:41Z</time>
      </trkpt>
      <trkpt lat="45.90763" lon="3.82414">
        <ele>728</ele>
        <time>2019-04-18T15:29:41Z</time>
      </trkpt>
      <trkpt lat="45.90748" lon="3.82469">
        <ele>725</ele>
        <time>2019-04-18T15:30:41Z</time>
      </trkpt>
      <trkpt lat="45.90721" lon="3.82556">
        <ele>722</ele>
        <time>2019-04-18T15:31:41Z</time>
      </trkpt>
      <trkpt lat="45.90715" lon="3.82584">
        <ele>720</ele>
        <time>2019-04-18T15:32:41Z</time>
      </trkpt>
      <trkpt lat="45.90726" lon="3.82668">
        <ele>716</ele>
        <time>2019-04-18T15:33:41Z</time>
      </trkpt>
      <trkpt lat="45.9074" lon="3.82713">
        <ele>713</ele>
        <time>2019-04-18T15:34:41Z</time>
      </trkpt>
      <trkpt lat="45.90761" lon="3.82743">
        <ele>709</ele>
        <time>2019-04-18T15:35:41Z</time>
      </trkpt>
      <trkpt lat="45.90917" lon="3.82823">
        <ele>692</ele>
        <time>2019-04-18T15:36:41Z</time>
      </trkpt>
      <trkpt lat="45.90975" lon="3.82858">
        <ele>681</ele>
        <time>2019-04-18T15:37:41Z</time>
      </trkpt>
      <trkpt lat="45.91019" lon="3.82902">
        <ele>677</ele>
        <time>2019-04-18T15:38:41Z</time>
      </trkpt>
      <trkpt lat="45.91047" lon="3.8294">
        <ele>673</ele>
        <time>2019-04-18T15:39:41Z</time>
      </trkpt>
      <trkpt lat="45.91065" lon="3.82971">
        <ele>670</ele>
        <time>2019-04-18T15:40:41Z</time>
      </trkpt>
      <trkpt lat="45.91088" lon="3.83056">
        <ele>665</ele>
        <time>2019-04-18T15:41:41Z</time>
      </trkpt>
      <trkpt lat="45.91089" lon="3.83094">
        <ele>664</ele>
        <time>2019-04-18T15:42:41Z</time>
      </trkpt>
      <trkpt lat="45.91076" lon="3.83134">
        <ele>661</ele>
        <time>2019-04-18T15:43:41Z</time>
      </trkpt>
      <trkpt lat="45.9104" lon="3.83192">
        <ele>659</ele>
        <time>2019-04-18T15:44:41Z</time>
      </trkpt>
      <trkpt lat="45.90996" lon="3.83278">
        <ele>650</ele>
        <time>2019-04-18T15:45:41Z</time>
      </trkpt>
      <trkpt lat="45.90978" lon="3.83322">
        <ele>645</ele>
        <time>2019-04-18T15:46:41Z</time>
      </trkpt>
      <trkpt lat="45.90973" lon="3.83353">
        <ele>642</ele>
        <time>2019-04-18T15:47:41Z</time>
      </trkpt>
      <trkpt lat="45.90977" lon="3.83375">
        <ele>640</ele>
        <time>2019-04-18T15:48:41Z</time>
      </trkpt>
      <trkpt lat="45.90997" lon="3.83393">
        <ele>636</ele>
        <time>2019-04-18T15:49:41Z</time>
      </trkpt>
      <trkpt lat="45.91064" lon="3.83421">
        <ele>630</ele>
        <time>2019-04-18T15:50:41Z</time>
      </trkpt>
      <trkpt lat="45.91086" lon="3.83432">
        <ele>627</ele>
        <time>2019-04-18T15:51:41Z</time>
      </trkpt>
      <trkpt lat="45.91098" lon="3.83445">
        <ele>625</ele>
        <time>2019-04-18T15:52:41Z</time>
      </trkpt>
      <trkpt lat="45.91101" lon="3.83466">
        <ele>623</ele>
        <time>2019-04-18T15:53:41Z</time>
      </trkpt>
      <trkpt lat="45.91049" lon="3.83725">
        <ele>609</ele>
        <time>2019-04-18T15:54:41Z</time>
      </trkpt>
      <trkpt lat="45.91002" lon="3.83976">
        <ele>598</ele>
        <time>2019-04-18T15:55:41Z</time>
      </trkpt>
      <trkpt lat="45.91002" lon="3.84">
        <ele>596</ele>
        <time>2019-04-18T15:56:41Z</time>
      </trkpt>
      <trkpt lat="45.91015" lon="3.84034">
        <ele>597</ele>
        <time>2019-04-18T15:57:41Z</time>
      </trkpt>
      <trkpt lat="45.91027" lon="3.84053">
        <ele>597</ele>
        <time>2019-04-18T15:58:41Z</time>
      </trkpt>
      <trkpt lat="45.9108" lon="3.84089">
        <ele>599</ele>
        <time>2019-04-18T15:59:41Z</time>
      </trkpt>
      <trkpt lat="45.91202" lon="3.84149">
        <ele>602</ele>
        <time>2019-04-18T16:00:41Z</time>
      </trkpt>
      <trkpt lat="45.91261" lon="3.84173">
        <ele>605</ele>
        <time>2019-04-18T16:01:41Z</time>
      </trkpt>
      <trkpt lat="45.91279" lon="3.84188">
        <ele>608</ele>
        <time>2019-04-18T16:02:41Z</time>
      </trkpt>
      <trkpt lat="45.91305" lon="3.84204">
        <ele>612</ele>
        <time>2019-04-18T16:03:41Z</time>
      </trkpt>
      <trkpt lat="45.91365" lon="3.84233">
        <ele>618</ele>
        <time>2019-04-18T16:04:41Z</time>
      </trkpt>
      <trkpt lat="45.91434" lon="3.84269">
        <ele>625</ele>
        <time>2019-04-18T16:05:41Z</time>
      </trkpt>
      <trkpt lat="45.91448" lon="3.84277">
        <ele>628</ele>
        <time>2019-04-18T16:06:41Z</time>
      </trkpt>
      <trkpt lat="45.91454" lon="3.84286">
        <ele>630</ele>
        <time>2019-04-18T16:07:41Z</time>
      </trkpt>
      <trkpt lat="45.91459" lon="3.84298">
        <ele>631</ele>
        <time>2019-04-18T16:08:41Z</time>
      </trkpt>
      <trkpt lat="45.91464" lon="3.84315">
        <ele>633</ele>
        <time>2019-04-18T16:09:41Z</time>
      </trkpt>
      <trkpt lat="45.91465" lon="3.8433">
        <ele>634</ele>
        <time>2019-04-18T16:10:41Z</time>
      </trkpt>
      <trkpt lat="45.91463" lon="3.84379">
        <ele>638</ele>
        <time>2019-04-18T16:11:41Z</time>
      </trkpt>
      <trkpt lat="45.91454" lon="3.8447">
        <ele>645</ele>
        <time>2019-04-18T16:12:41Z</time>
      </trkpt>
      <trkpt lat="45.91447" lon="3.84526">
        <ele>650</ele>
        <time>2019-04-18T16:13:41Z</time>
      </trkpt>
      <trkpt lat="45.91448" lon="3.84551">
        <ele>652</ele>
        <time>2019-04-18T16:14:41Z</time>
      </trkpt>
      <trkpt lat="45.91443" lon="3.84606">
        <ele>654</ele>
        <time>2019-04-18T16:15:41Z</time>
      </trkpt>
      <trkpt lat="45.91433" lon="3.84645">
        <ele>654</ele>
        <time>2019-04-18T16:16:41Z</time>
      </trkpt>
      <trkpt lat="45.91424" lon="3.8467">
        <ele>653</ele>
        <time>2019-04-18T16:17:41Z</time>
      </trkpt>
      <trkpt lat="45.91438" lon="3.84684">
        <ele>655</ele>
        <time>2019-04-18T16:18:41Z</time>
      </trkpt>
      <trkpt lat="45.91448" lon="3.8469">
        <ele>656</ele>
        <time>2019-04-18T16:19:41Z</time>
      </trkpt>
      <trkpt lat="45.91456" lon="3.8469">
        <ele>657</ele>
        <time>2019-04-18T16:20:41Z</time>
      </trkpt>
      <trkpt lat="45.91466" lon="3.84682">
        <ele>658</ele>
        <time>2019-04-18T16:21:41Z</time>
      </trkpt>
      <trkpt lat="45.91478" lon="3.84663">
        <ele>659</ele>
        <time>2019-04-18T16:22:41Z</time>
      </trkpt>
      <trkpt lat="45.91509" lon="3.84594">
        <ele>662</ele>
        <time>2019-04-18T16:23:41Z</time>
      </trkpt>
      <trkpt lat="45.91542" lon="3.84531">
        <ele>662</ele>
        <time>2019-04-18T16:24:41Z</time>
      </trkpt>
      <trkpt lat="45.91632" lon="3.84482">
        <ele>669</ele>
        <time>2019-04-18T16:25:41Z</time>
      </trkpt>
      <trkpt lat="45.91719" lon="3.84425">
        <ele>671</ele>
        <time>2019-04-18T16:26:41Z</time>
      </trkpt>
      <trkpt lat="45.91748" lon="3.84417">
        <ele>673</ele>
        <time>2019-04-18T16:27:41Z</time>
      </trkpt>
      <trkpt lat="45.91763" lon="3.84419">
        <ele>673</ele>
        <time>2019-04-18T16:28:41Z</time>
      </trkpt>
      <trkpt lat="45.91783" lon="3.84432">
        <ele>674</ele>
        <time>2019-04-18T16:29:41Z</time>
      </trkpt>
      <trkpt lat="45.91908" lon="3.84543">
        <ele>686</ele>
        <time>2019-04-18T16:30:41Z</time>
      </trkpt>
      <trkpt lat="45.91929" lon="3.84546">
        <ele>687</ele>
        <time>2019-04-18T16:31:41Z</time>
      </trkpt>
      <trkpt lat="45.92007" lon="3.84539">
        <ele>690</ele>
        <time>2019-04-18T16:32:41Z</time>
      </trkpt>
      <trkpt lat="45.9203" lon="3.84543">
        <ele>692</ele>
        <time>2019-04-18T16:33:41Z</time>
      </trkpt>
      <trkpt lat="45.92137" lon="3.84578">
        <ele>702</ele>
        <time>2019-04-18T16:34:41Z</time>
      </trkpt>
      <trkpt lat="45.92212" lon="3.84585">
        <ele>706</ele>
        <time>2019-04-18T16:35:41Z</time>
      </trkpt>
      <trkpt lat="45.92252" lon="3.84596">
        <ele>710</ele>
        <time>2019-04-18T16:36:41Z</time>
      </trkpt>
      <trkpt lat="45.92289" lon="3.84613">
        <ele>712</ele>
        <time>2019-04-18T16:37:41Z</time>
      </trkpt>
      <trkpt lat="45.92335" lon="3.84644">
        <ele>717</ele>
        <time>2019-04-18T16:38:41Z</time>
      </trkpt>
      <trkpt lat="45.92357" lon="3.84662">
        <ele>718</ele>
        <time>2019-04-18T16:39:41Z</time>
      </trkpt>
      <trkpt lat="45.92374" lon="3.8468">
        <ele>720</ele>
        <time>2019-04-18T16:40:41Z</time>
      </trkpt>
      <trkpt lat="45.92419" lon="3.84749">
        <ele>731</ele>
        <time>2019-04-18T16:41:41Z</time>
      </trkpt>
      <trkpt lat="45.92438" lon="3.8477">
        <ele>733</ele>
        <time>2019-04-18T16:42:41Z</time>
      </trkpt>
      <trkpt lat="45.92458" lon="3.84785">
        <ele>733</ele>
        <time>2019-04-18T16:43:41Z</time>
      </trkpt>
      <trkpt lat="45.92537" lon="3.84825">
        <ele>732</ele>
        <time>2019-04-18T16:44:41Z</time>
      </trkpt>
      <trkpt lat="45.9258" lon="3.84872">
        <ele>738</ele>
        <time>2019-04-18T16:45:41Z</time>
      </trkpt>
      <trkpt lat="45.92629" lon="3.84934">
        <ele>744</ele>
        <time>2019-04-18T16:46:41Z</time>
      </trkpt>
      <trkpt lat="45.92703" lon="3.85058">
        <ele>750</ele>
        <time>2019-04-18T16:47:41Z</time>
      </trkpt>
      <trkpt lat="45.92743" lon="3.85135">
        <ele>756</ele>
        <time>2019-04-18T16:48:41Z</time>
      </trkpt>
      <trkpt lat="45.92804" lon="3.85219">
        <ele>758</ele>
        <time>2019-04-18T16:49:41Z</time>
      </trkpt>
      <trkpt lat="45.92817" lon="3.85246">
        <ele>761</ele>
        <time>2019-04-18T16:50:41Z</time>
      </trkpt>
      <trkpt lat="45.92843" lon="3.85305">
        <ele>768</ele>
        <time>2019-04-18T16:51:41Z</time>
      </trkpt>
      <trkpt lat="45.92853" lon="3.85319">
        <ele>770</ele>
        <time>2019-04-18T16:52:41Z</time>
      </trkpt>
      <trkpt lat="45.92865" lon="3.85331">
        <ele>771</ele>
        <time>2019-04-18T16:53:41Z</time>
      </trkpt>
      <trkpt lat="45.92883" lon="3.8534">
        <ele>769</ele>
        <time>2019-04-18T16:54:41Z</time>
      </trkpt>
      <trkpt lat="45.9292" lon="3.85346">
        <ele>765</ele>
        <time>2019-04-18T16:55:41Z</time>
      </trkpt>
      <trkpt lat="45.92938" lon="3.85352">
        <ele>764</ele>
        <time>2019-04-18T16:56:41Z</time>
      </trkpt>
      <trkpt lat="45.9299" lon="3.85385">
        <ele>766</ele>
        <time>2019-04-18T16:57:41Z</time>
      </trkpt>
      <trkpt lat="45.93" lon="3.85398">
        <ele>767</ele>
        <time>2019-04-18T16:58:41Z</time>
      </trkpt>
      <trkpt lat="45.93008" lon="3.85412">
        <ele>768</ele>
        <time>2019-04-18T16:59:41Z</time>
      </trkpt>
      <trkpt lat="45.93013" lon="3.85436">
        <ele>769</ele>
        <time>2019-04-18T17:00:41Z</time>
      </trkpt>
      <trkpt lat="45.93012" lon="3.85457">
        <ele>771</ele>
        <time>2019-04-18T17:01:41Z</time>
      </trkpt>
      <trkpt lat="45.92994" lon="3.85527">
        <ele>782</ele>
        <time>2019-04-18T17:02:41Z</time>
      </trkpt>
      <trkpt lat="45.92989" lon="3.85567">
        <ele>786</ele>
        <time>2019-04-18T17:03:41Z</time>
      </trkpt>
      <trkpt lat="45.92988" lon="3.85597">
        <ele>789</ele>
        <time>2019-04-18T17:04:41Z</time>
      </trkpt>
      <trkpt lat="45.92998" lon="3.85635">
        <ele>790</ele>
        <time>2019-04-18T17:05:41Z</time>
      </trkpt>
      <trkpt lat="45.93011" lon="3.85669">
        <ele>790</ele>
        <time>2019-04-18T17:06:41Z</time>
      </trkpt>
      <trkpt lat="45.93033" lon="3.85702">
        <ele>790</ele>
        <time>2019-04-18T17:07:41Z</time>
      </trkpt>
      <trkpt lat="45.93106" lon="3.85788">
        <ele>787</ele>
        <time>2019-04-18T17:08:41Z</time>
      </trkpt>
      <trkpt lat="45.93118" lon="3.8581">
        <ele>788</ele>
        <time>2019-04-18T17:09:41Z</time>
      </trkpt>
      <trkpt lat="45.93127" lon="3.85842">
        <ele>791</ele>
        <time>2019-04-18T17:10:41Z</time>
      </trkpt>
      <trkpt lat="45.93125" lon="3.8589">
        <ele>793</ele>
        <time>2019-04-18T17:11:41Z</time>
      </trkpt>
      <trkpt lat="45.93086" lon="3.86081">
        <ele>802</ele>
        <time>2019-04-18T17:12:41Z</time>
      </trkpt>
      <trkpt lat="45.93091" lon="3.86129">
        <ele>804</ele>
        <time>2019-04-18T17:13:41Z</time>
      </trkpt>
      <trkpt lat="45.93111" lon="3.86173">
        <ele>806</ele>
        <time>2019-04-18T17:14:41Z</time>
      </trkpt>
      <trkpt lat="45.93144" lon="3.86202">
        <ele>809</ele>
        <time>2019-04-18T17:15:41Z</time>
      </trkpt>
      <trkpt lat="45.93163" lon="3.86205">
        <ele>809</ele>
        <time>2019-04-18T17:16:41Z</time>
      </trkpt>
      <trkpt lat="45.93235" lon="3.86205">
        <ele>810</ele>
        <time>2019-04-18T17:17:41Z</time>
      </trkpt>
      <trkpt lat="45.93265" lon="3.86222">
        <ele>812</ele>
        <time>2019-04-18T17:18:41Z</time>
      </trkpt>
      <trkpt lat="45.93299" lon="3.8627">
        <ele>816</ele>
        <time>2019-04-18T17:19:41Z</time>
      </trkpt>
      <trkpt lat="45.93473" lon="3.86566">
        <ele>834</ele>
        <time>2019-04-18T17:20:41Z</time>
      </trkpt>
      <trkpt lat="45.93521" lon="3.86629">
        <ele>838</ele>
        <time>2019-04-18T17:21:41Z</time>
      </trkpt>
      <trkpt lat="45.93572" lon="3.86678">
        <ele>843</ele>
        <time>2019-04-18T17:22:41Z</time>
      </trkpt>
      <trkpt lat="45.93624" lon="3.86706">
        <ele>848</ele>
        <time>2019-04-18T17:23:41Z</time>
      </trkpt>
      <trkpt lat="45.93723" lon="3.8674">
        <ele>855</ele>
        <time>2019-04-18T17:24:41Z</time>
      </trkpt>
      <trkpt lat="45.94155" lon="3.86876">
        <ele>876</ele>
        <time>2019-04-18T17:25:41Z</time>
      </trkpt>
      <trkpt lat="45.9419" lon="3.86897">
        <ele>877</ele>
        <time>2019-04-18T17:26:41Z</time>
      </trkpt>
      <trkpt lat="45.9423" lon="3.86944">
        <ele>878</ele>
        <time>2019-04-18T17:27:41Z</time>
      </trkpt>
      <trkpt lat="45.94249" lon="3.86977">
        <ele>880</ele>
        <time>2019-04-18T17:28:41Z</time>
      </trkpt>
      <trkpt lat="45.9427" lon="3.87025">
        <ele>885</ele>
        <time>2019-04-18T17:29:41Z</time>
      </trkpt>
      <trkpt lat="45.94296" lon="3.87205">
        <ele>901</ele>
        <time>2019-04-18T17:30:41Z</time>
      </trkpt>
      <trkpt lat="45.94319" lon="3.87282">
        <ele>906</ele>
        <time>2019-04-18T17:31:41Z</time>
      </trkpt>
      <trkpt lat="45.94341" lon="3.87326">
        <ele>909</ele>
        <time>2019-04-18T17:32:41Z</time>
      </trkpt>
      <trkpt lat="45.94368" lon="3.87367">
        <ele>913</ele>
        <time>2019-04-18T17:33:41Z</time>
      </trkpt>
      <trkpt lat="45.94415" lon="3.87407">
        <ele>917</ele>
        <time>2019-04-18T17:34:41Z</time>
      </trkpt>
      <trkpt lat="45.94517" lon="3.87483">
        <ele>916</ele>
        <time>2019-04-18T17:35:41Z</time>
      </trkpt>
      <trkpt lat="45.94556" lon="3.8752">
        <ele>917</ele>
        <time>2019-04-18T17:36:41Z</time>
      </trkpt>
      <trkpt lat="45.9458" lon="3.87561">
        <ele>917</ele>
        <time>2019-04-18T17:37:41Z</time>
      </trkpt>
      <trkpt lat="45.94632" lon="3.87658">
        <ele>914</ele>
        <time>2019-04-18T17:38:41Z</time>
      </trkpt>
      <trkpt lat="45.94652" lon="3.87684">
        <ele>915</ele>
        <time>2019-04-18T17:39:41Z</time>
      </trkpt>
      <trkpt lat="45.94763" lon="3.87749">
        <ele>913</ele>
        <time>2019-04-18T17:40:41Z</time>
      </trkpt>
      <trkpt lat="45.94899" lon="3.8786">
        <ele>900</ele>
        <time>2019-04-18T17:41:41Z</time>
      </trkpt>
      <trkpt lat="45.94925" lon="3.87871">
        <ele>899</ele>
        <time>2019-04-18T17:42:41Z</time>
      </trkpt>
      <trkpt lat="45.94959" lon="3.87871">
        <ele>896</ele>
        <time>2019-04-18T17:43:41Z</time>
      </trkpt>
      <trkpt lat="45.94987" lon="3.87854">
        <ele>895</ele>
        <time>2019-04-18T17:44:41Z</time>
      </trkpt>
      <trkpt lat="45.9501" lon="3.87824">
        <ele>894</ele>
        <time>2019-04-18T17:45:41Z</time>
      </trkpt>
      <trkpt lat="45.95023" lon="3.87793">
        <ele>893</ele>
        <time>2019-04-18T17:46:41Z</time>
      </trkpt>
      <trkpt lat="45.95043" lon="3.87653">
        <ele>896</ele>
        <time>2019-04-18T17:47:41Z</time>
      </trkpt>
      <trkpt lat="45.95053" lon="3.87621">
        <ele>896</ele>
        <time>2019-04-18T17:48:41Z</time>
      </trkpt>
      <trkpt lat="45.9507" lon="3.87598">
        <ele>896</ele>
        <time>2019-04-18T17:49:41Z</time>
      </trkpt>
      <trkpt lat="45.95096" lon="3.87581">
        <ele>897</ele>
        <time>2019-04-18T17:50:41Z</time>
      </trkpt>
      <trkpt lat="45.95125" lon="3.87581">
        <ele>900</ele>
        <time>2019-04-18T17:51:41Z</time>
      </trkpt>
      <trkpt lat="45.95149" lon="3.87598">
        <ele>901</ele>
        <time>2019-04-18T17:52:41Z</time>
      </trkpt>
      <trkpt lat="45.95188" lon="3.87649">
        <ele>900</ele>
        <time>2019-04-18T17:53:41Z</time>
      </trkpt>
      <trkpt lat="45.95396" lon="3.87954">
        <ele>891</ele>
        <time>2019-04-18T17:54:41Z</time>
      </trkpt>
      <trkpt lat="45.95435" lon="3.88047">
        <ele>885</ele>
        <time>2019-04-18T17:55:41Z</time>
      </trkpt>
      <trkpt lat="45.95453" lon="3.88119">
        <ele>881</ele>
        <time>2019-04-18T17:56:41Z</time>
      </trkpt>
      <trkpt lat="45.95458" lon="3.88193">
        <ele>875</ele>
        <time>2019-04-18T17:57:41Z</time>
      </trkpt>
      <trkpt lat="45.95453" lon="3.88415">
        <ele>868</ele>
        <time>2019-04-18T17:58:41Z</time>
      </trkpt>
      <trkpt lat="45.95463" lon="3.88449">
        <ele>869</ele>
        <time>2019-04-18T17:59:41Z</time>
      </trkpt>
      <trkpt lat="45.95479" lon="3.88472">
        <ele>869</ele>
        <time>2019-04-18T18:00:41Z</time>
      </trkpt>
      <trkpt lat="45.95501" lon="3.88486">
        <ele>869</ele>
        <time>2019-04-18T18:01:41Z</time>
      </trkpt>
      <trkpt lat="45.95672" lon="3.88541">
        <ele>847</ele>
        <time>2019-04-18T18:02:41Z</time>
      </trkpt>
      <trkpt lat="45.95698" lon="3.88547">
        <ele>843</ele>
        <time>2019-04-18T18:03:41Z</time>
      </trkpt>
      <trkpt lat="45.95727" lon="3.88544">
        <ele>840</ele>
        <time>2019-04-18T18:04:41Z</time>
      </trkpt>
      <trkpt lat="45.95754" lon="3.88531">
        <ele>839</ele>
        <time>2019-04-18T18:05:41Z</time>
      </trkpt>
      <trkpt lat="45.95787" lon="3.88509">
        <ele>836</ele>
        <time>2019-04-18T18:06:41Z</time>
      </trkpt>
      <trkpt lat="45.95842" lon="3.88423">
        <ele>840</ele>
        <time>2019-04-18T18:07:41Z</time>
      </trkpt>
      <trkpt lat="45.9586" lon="3.884">
        <ele>840</ele>
        <time>2019-04-18T18:08:41Z</time>
      </trkpt>
      <trkpt lat="45.95886" lon="3.88401">
        <ele>836</ele>
        <time>2019-04-18T18:09:41Z</time>
      </trkpt>
      <trkpt lat="45.95907" lon="3.88416">
        <ele>830</ele>
        <time>2019-04-18T18:10:41Z</time>
      </trkpt>
      <trkpt lat="45.95969" lon="3.88513">
        <ele>818</ele>
        <time>2019-04-18T18:11:41Z</time>
      </trkpt>
      <trkpt lat="45.95987" lon="3.88532">
        <ele>816</ele>
        <time>2019-04-18T18:12:41Z</time>
      </trkpt>
      <trkpt lat="45.95992" lon="3.88536">
        <ele>816</ele>
        <time>2019-04-18T18:13:41Z</time>
      </trkpt>
      <trkpt lat="45.96015" lon="3.88539">
        <ele>814</ele>
        <time>2019-04-18T18:14:41Z</time>
      </trkpt>
      <trkpt lat="45.96039" lon="3.88529">
        <ele>813</ele>
        <time>2019-04-18T18:15:41Z</time>
      </trkpt>
      <trkpt lat="45.96065" lon="3.88503">
        <ele>814</ele>
        <time>2019-04-18T18:16:41Z</time>
      </trkpt>
      <trkpt lat="45.9616" lon="3.88381">
        <ele>808</ele>
        <time>2019-04-18T18:17:41Z</time>
      </trkpt>
      <trkpt lat="45.96179" lon="3.88366">
        <ele>808</ele>
        <time>2019-04-18T18:18:41Z</time>
      </trkpt>
      <trkpt lat="45.96201" lon="3.88357">
        <ele>808</ele>
        <time>2019-04-18T18:19:41Z</time>
      </trkpt>
      <trkpt lat="45.96222" lon="3.88359">
        <ele>807</ele>
        <time>2019-04-18T18:20:41Z</time>
      </trkpt>
      <trkpt lat="45.96239" lon="3.88366">
        <ele>806</ele>
        <time>2019-04-18T18:21:41Z</time>
      </trkpt>
      <trkpt lat="45.96258" lon="3.88387">
        <ele>804</ele>
        <time>2019-04-18T18:22:41Z</time>
      </trkpt>
      <trkpt lat="45.96272" lon="3.88416">
        <ele>804</ele>
        <time>2019-04-18T18:23:41Z</time>
      </trkpt>
      <trkpt lat="45.96349" lon="3.88685">
        <ele>786</ele>
        <time>2019-04-18T18:24:41Z</time>
      </trkpt>
      <trkpt lat="45.96361" lon="3.88795">
        <ele>781</ele>
        <time>2019-04-18T18:25:41Z</time>
      </trkpt>
      <trkpt lat="45.96366" lon="3.88825">
        <ele>779</ele>
        <time>2019-04-18T18:26:41Z</time>
      </trkpt>
      <trkpt lat="45.96373" lon="3.88849">
        <ele>778</ele>
        <time>2019-04-18T18:27:41Z</time>
      </trkpt>
      <trkpt lat="45.96386" lon="3.88875">
        <ele>776</ele>
        <time>2019-04-18T18:28:41Z</time>
      </trkpt>
      <trkpt lat="45.96406" lon="3.889">
        <ele>775</ele>
        <time>2019-04-18T18:29:41Z</time>
      </trkpt>
      <trkpt lat="45.96474" lon="3.88956">
        <ele>773</ele>
        <time>2019-04-18T18:30:41Z</time>
      </trkpt>
      <trkpt lat="45.96492" lon="3.88989">
        <ele>769</ele>
        <time>2019-04-18T18:31:41Z</time>
      </trkpt>
      <trkpt lat="45.96499" lon="3.89029">
        <ele>768</ele>
        <time>2019-04-18T18:32:41Z</time>
      </trkpt>
      <trkpt lat="45.96499" lon="3.89051">
        <ele>767</ele>
        <time>2019-04-18T18:33:41Z</time>
      </trkpt>
      <trkpt lat="45.96495" lon="3.89073">
        <ele>766</ele>
        <time>2019-04-18T18:34:41Z</time>
      </trkpt>
      <trkpt lat="45.96477" lon="3.89105">
        <ele>765</ele>
        <time>2019-04-18T18:35:41Z</time>
      </trkpt>
      <trkpt lat="45.96454" lon="3.89138">
        <ele>762</ele>
        <time>2019-04-18T18:36:41Z</time>
      </trkpt>
      <trkpt lat="45.96427" lon="3.89168">
        <ele>757</ele>
        <time>2019-04-18T18:37:41Z</time>
      </trkpt>
      <trkpt lat="45.96406" lon="3.89229">
        <ele>755</ele>
        <time>2019-04-18T18:38:41Z</time>
      </trkpt>
      <trkpt lat="45.96411" lon="3.89409">
        <ele>751</ele>
        <time>2019-04-18T18:39:41Z</time>
      </trkpt>
      <trkpt lat="45.96402" lon="3.89614">
        <ele>738</ele>
        <time>2019-04-18T18:40:41Z</time>
      </trkpt>
      <trkpt lat="45.96408" lon="3.89723">
        <ele>728</ele>
        <time>2019-04-18T18:41:41Z</time>
      </trkpt>
      <trkpt lat="45.96406" lon="3.89815">
        <ele>723</ele>
        <time>2019-04-18T18:42:41Z</time>
      </trkpt>
      <trkpt lat="45.96399" lon="3.8987">
        <ele>720</ele>
        <time>2019-04-18T18:43:41Z</time>
      </trkpt>
      <trkpt lat="45.96389" lon="3.89923">
        <ele>717</ele>
        <time>2019-04-18T18:44:41Z</time>
      </trkpt>
      <trkpt lat="45.96383" lon="3.89976">
        <ele>714</ele>
        <time>2019-04-18T18:45:41Z</time>
      </trkpt>
      <trkpt lat="45.9638" lon="3.90018">
        <ele>711</ele>
        <time>2019-04-18T18:46:41Z</time>
      </trkpt>
      <trkpt lat="45.96349" lon="3.90144">
        <ele>700</ele>
        <time>2019-04-18T18:47:41Z</time>
      </trkpt>
      <trkpt lat="45.96347" lon="3.90166">
        <ele>699</ele>
        <time>2019-04-18T18:48:41Z</time>
      </trkpt>
      <trkpt lat="45.96365" lon="3.90341">
        <ele>690</ele>
        <time>2019-04-18T18:49:41Z</time>
      </trkpt>
      <trkpt lat="45.96381" lon="3.90392">
        <ele>688</ele>
        <time>2019-04-18T18:50:41Z</time>
      </trkpt>
      <trkpt lat="45.96406" lon="3.90455">
        <ele>685</ele>
        <time>2019-04-18T18:51:41Z</time>
      </trkpt>
      <trkpt lat="45.96435" lon="3.90502">
        <ele>684</ele>
        <time>2019-04-18T18:52:41Z</time>
      </trkpt>
      <trkpt lat="45.96454" lon="3.90544">
        <ele>686</ele>
        <time>2019-04-18T18:53:41Z</time>
      </trkpt>
      <trkpt lat="45.96462" lon="3.90587">
        <ele>684</ele>
        <time>2019-04-18T18:54:41Z</time>
      </trkpt>
      <trkpt lat="45.96465" lon="3.90617">
        <ele>683</ele>
        <time>2019-04-18T18:55:41Z</time>
      </trkpt>
      <trkpt lat="45.96464" lon="3.90643">
        <ele>681</ele>
        <time>2019-04-18T18:56:41Z</time>
      </trkpt>
      <trkpt lat="45.9647" lon="3.90682">
        <ele>679</ele>
        <time>2019-04-18T18:57:41Z</time>
      </trkpt>
      <trkpt lat="45.96471" lon="3.90825">
        <ele>669</ele>
        <time>2019-04-18T18:58:41Z</time>
      </trkpt>
      <trkpt lat="45.96466" lon="3.90959">
        <ele>663</ele>
        <time>2019-04-18T18:59:41Z</time>
      </trkpt>
      <trkpt lat="45.96465" lon="3.91103">
        <ele>653</ele>
        <time>2019-04-18T19:00:41Z</time>
      </trkpt>
      <trkpt lat="45.96463" lon="3.91121">
        <ele>652</ele>
        <time>2019-04-18T19:01:41Z</time>
      </trkpt>
      <trkpt lat="45.96407" lon="3.91293">
        <ele>647</ele>
        <time>2019-04-18T19:02:41Z</time>
      </trkpt>
      <trkpt lat="45.96345" lon="3.91453">
        <ele>645</ele>
        <time>2019-04-18T19:03:41Z</time>
      </trkpt>
      <trkpt lat="45.96334" lon="3.91479">
        <ele>643</ele>
        <time>2019-04-18T19:04:41Z</time>
      </trkpt>
      <trkpt lat="45.96315" lon="3.91512">
        <ele>644</ele>
        <time>2019-04-18T19:05:41Z</time>
      </trkpt>
      <trkpt lat="45.96294" lon="3.91539">
        <ele>646</ele>
        <time>2019-04-18T19:06:41Z</time>
      </trkpt>
      <trkpt lat="45.96193" lon="3.91638">
        <ele>648</ele>
        <time>2019-04-18T19:07:41Z</time>
      </trkpt>
      <trkpt lat="45.96154" lon="3.9169">
        <ele>652</ele>
        <time>2019-04-18T19:08:41Z</time>
      </trkpt>
      <trkpt lat="45.96113" lon="3.9176">
        <ele>652</ele>
        <time>2019-04-18T19:09:41Z</time>
      </trkpt>
      <trkpt lat="45.96052" lon="3.91855">
        <ele>654</ele>
        <time>2019-04-18T19:10:41Z</time>
      </trkpt>
      <trkpt lat="45.96011" lon="3.91891">
        <ele>658</ele>
        <time>2019-04-18T19:11:41Z</time>
      </trkpt>
      <trkpt lat="45.95964" lon="3.91919">
        <ele>665</ele>
        <time>2019-04-18T19:12:41Z</time>
      </trkpt>
      <trkpt lat="45.95828" lon="3.91971">
        <ele>676</ele>
        <time>2019-04-18T19:13:41Z</time>
      </trkpt>
      <trkpt lat="45.95715" lon="3.9202">
        <ele>684</ele>
        <time>2019-04-18T19:14:41Z</time>
      </trkpt>
      <trkpt lat="45.95658" lon="3.92055">
        <ele>686</ele>
        <time>2019-04-18T19:15:41Z</time>
      </trkpt>
      <trkpt lat="45.95601" lon="3.92101">
        <ele>685</ele>
        <time>2019-04-18T19:16:41Z</time>
      </trkpt>
      <trkpt lat="45.95575" lon="3.92128">
        <ele>686</ele>
        <time>2019-04-18T19:17:41Z</time>
      </trkpt>
      <trkpt lat="45.95551" lon="3.92165">
        <ele>689</ele>
        <time>2019-04-18T19:18:41Z</time>
      </trkpt>
      <trkpt lat="45.95431" lon="3.92363">
        <ele>699</ele>
        <time>2019-04-18T19:19:41Z</time>
      </trkpt>
      <trkpt lat="45.95408" lon="3.92405">
        <ele>699</ele>
        <time>2019-04-18T19:20:41Z</time>
      </trkpt>
      <trkpt lat="45.95396" lon="3.9244">
        <ele>699</ele>
        <time>2019-04-18T19:21:41Z</time>
      </trkpt>
      <trkpt lat="45.95386" lon="3.92485">
        <ele>701</ele>
        <time>2019-04-18T19:22:41Z</time>
      </trkpt>
      <trkpt lat="45.95381" lon="3.92535">
        <ele>704</ele>
        <time>2019-04-18T19:23:41Z</time>
      </trkpt>
      <trkpt lat="45.95398" lon="3.92848">
        <ele>715</ele>
        <time>2019-04-18T19:24:41Z</time>
      </trkpt>
      <trkpt lat="45.95405" lon="3.92915">
        <ele>718</ele>
        <time>2019-04-18T19:25:41Z</time>
      </trkpt>
      <trkpt lat="45.95415" lon="3.92952">
        <ele>721</ele>
        <time>2019-04-18T19:26:41Z</time>
      </trkpt>
      <trkpt lat="45.9543" lon="3.92979">
        <ele>723</ele>
        <time>2019-04-18T19:27:41Z</time>
      </trkpt>
      <trkpt lat="45.95449" lon="3.93002">
        <ele>725</ele>
        <time>2019-04-18T19:28:41Z</time>
      </trkpt>
      <trkpt lat="45.95476" lon="3.9302">
        <ele>724</ele>
        <time>2019-04-18T19:29:41Z</time>
      </trkpt>
      <trkpt lat="45.95507" lon="3.93027">
        <ele>724</ele>
        <time>2019-04-18T19:30:41Z</time>
      </trkpt>
      <trkpt lat="45.95544" lon="3.93021">
        <ele>726</ele>
        <time>2019-04-18T19:31:41Z</time>
      </trkpt>
      <trkpt lat="45.95809" lon="3.92938">
        <ele>737</ele>
        <time>2019-04-18T19:32:41Z</time>
      </trkpt>
      <trkpt lat="45.95918" lon="3.92903">
        <ele>739</ele>
        <time>2019-04-18T19:33:41Z</time>
      </trkpt>
      <trkpt lat="45.95947" lon="3.92901">
        <ele>741</ele>
        <time>2019-04-18T19:34:41Z</time>
      </trkpt>
      <trkpt lat="45.95982" lon="3.92913">
        <ele>740</ele>
        <time>2019-04-18T19:35:41Z</time>
      </trkpt>
      <trkpt lat="45.96006" lon="3.92931">
        <ele>739</ele>
        <time>2019-04-18T19:36:41Z</time>
      </trkpt>
      <trkpt lat="45.9605" lon="3.9298">
        <ele>738</ele>
        <time>2019-04-18T19:37:41Z</time>
      </trkpt>
      <trkpt lat="45.96167" lon="3.93119">
        <ele>744</ele>
        <time>2019-04-18T19:38:41Z</time>
      </trkpt>
      <trkpt lat="45.96186" lon="3.93153">
        <ele>745</ele>
        <time>2019-04-18T19:39:41Z</time>
      </trkpt>
      <trkpt lat="45.96194" lon="3.9318">
        <ele>746</ele>
        <time>2019-04-18T19:40:41Z</time>
      </trkpt>
      <trkpt lat="45.96198" lon="3.93209">
        <ele>747</ele>
        <time>2019-04-18T19:41:41Z</time>
      </trkpt>
      <trkpt lat="45.96197" lon="3.93513">
        <ele>751</ele>
        <time>2019-04-18T19:42:41Z</time>
      </trkpt>
      <trkpt lat="45.96201" lon="3.93545">
        <ele>752</ele>
        <time>2019-04-18T19:43:41Z</time>
      </trkpt>
      <trkpt lat="45.96223" lon="3.93629">
        <ele>752</ele>
        <time>2019-04-18T19:44:41Z</time>
      </trkpt>
      <trkpt lat="45.96226" lon="3.93663">
        <ele>751</ele>
        <time>2019-04-18T19:45:41Z</time>
      </trkpt>
      <trkpt lat="45.96214" lon="3.93751">
        <ele>748</ele>
        <time>2019-04-18T19:46:41Z</time>
      </trkpt>
      <trkpt lat="45.96219" lon="3.9378">
        <ele>747</ele>
        <time>2019-04-18T19:47:41Z</time>
      </trkpt>
      <trkpt lat="45.96231" lon="3.93802">
        <ele>745</ele>
        <time>2019-04-18T19:48:41Z</time>
      </trkpt>
      <trkpt lat="45.96245" lon="3.93815">
        <ele>742</ele>
        <time>2019-04-18T19:49:41Z</time>
      </trkpt>
      <trkpt lat="45.96266" lon="3.93817">
        <ele>740</ele>
        <time>2019-04-18T19:50:41Z</time>
      </trkpt>
      <trkpt lat="45.96342" lon="3.93801">
        <ele>734</ele>
        <time>2019-04-18T19:51:41Z</time>
      </trkpt>
      <trkpt lat="45.96359" lon="3.93792">
        <ele>732</ele>
        <time>2019-04-18T19:52:41Z</time>
      </trkpt>
      <trkpt lat="45.96375" lon="3.9378">
        <ele>730</ele>
        <time>2019-04-18T19:53:41Z</time>
      </trkpt>
      <trkpt lat="45.96388" lon="3.93762">
        <ele>729</ele>
        <time>2019-04-18T19:54:41Z</time>
      </trkpt>
      <trkpt lat="45.96418" lon="3.93695">
        <ele>730</ele>
        <time>2019-04-18T19:55:41Z</time>
      </trkpt>
      <trkpt lat="45.96438" lon="3.93664">
        <ele>729</ele>
        <time>2019-04-18T19:56:41Z</time>
      </trkpt>
      <trkpt lat="45.96519" lon="3.93571">
        <ele>735</ele>
        <time>2019-04-18T19:57:41Z</time>
      </trkpt>
      <trkpt lat="45.9653" lon="3.93562">
        <ele>736</ele>
        <time>2019-04-18T19:58:41Z</time>
      </trkpt>
      <trkpt lat="45.96542" lon="3.93565">
        <ele>735</ele>
        <time>2019-04-18T19:59:41Z</time>
      </trkpt>
      <trkpt lat="45.96549" lon="3.9358">
        <ele>732</ele>
        <time>2019-04-18T20:00:41Z</time>
      </trkpt>
      <trkpt lat="45.96548" lon="3.93596">
        <ele>729</ele>
        <time>2019-04-18T20:01:41Z</time>
      </trkpt>
      <trkpt lat="45.96532" lon="3.93617">
        <ele>725</ele>
        <time>2019-04-18T20:02:41Z</time>
      </trkpt>
      <trkpt lat="45.96507" lon="3.93641">
        <ele>721</ele>
        <time>2019-04-18T20:03:41Z</time>
      </trkpt>
      <trkpt lat="45.96484" lon="3.93672">
        <ele>718</ele>
        <time>2019-04-18T20:04:41Z</time>
      </trkpt>
      <trkpt lat="45.96472" lon="3.93706">
        <ele>716</ele>
        <time>2019-04-18T20:05:41Z</time>
      </trkpt>
      <trkpt lat="45.96467" lon="3.93734">
        <ele>714</ele>
        <time>2019-04-18T20:06:41Z</time>
      </trkpt>
      <trkpt lat="45.96467" lon="3.93766">
        <ele>712</ele>
        <time>2019-04-18T20:07:41Z</time>
      </trkpt>
      <trkpt lat="45.96472" lon="3.93803">
        <ele>711</ele>
        <time>2019-04-18T20:08:41Z</time>
      </trkpt>
      <trkpt lat="45.96535" lon="3.93964">
        <ele>698</ele>
        <time>2019-04-18T20:09:41Z</time>
      </trkpt>
      <trkpt lat="45.96544" lon="3.94007">
        <ele>695</ele>
        <time>2019-04-18T20:10:41Z</time>
      </trkpt>
      <trkpt lat="45.96545" lon="3.94038">
        <ele>692</ele>
        <time>2019-04-18T20:11:41Z</time>
      </trkpt>
      <trkpt lat="45.96536" lon="3.94079">
        <ele>691</ele>
        <time>2019-04-18T20:12:41Z</time>
      </trkpt>
      <trkpt lat="45.96529" lon="3.94097">
        <ele>690</ele>
        <time>2019-04-18T20:13:41Z</time>
      </trkpt>
      <trkpt lat="45.96521" lon="3.94109">
        <ele>690</ele>
        <time>2019-04-18T20:14:41Z</time>
      </trkpt>
      <trkpt lat="45.96504" lon="3.94128">
        <ele>691</ele>
        <time>2019-04-18T20:15:41Z</time>
      </trkpt>
      <trkpt lat="45.96428" lon="3.94176">
        <ele>684</ele>
        <time>2019-04-18T20:16:41Z</time>
      </trkpt>
      <trkpt lat="45.96346" lon="3.9424">
        <ele>683</ele>
        <time>2019-04-18T20:17:41Z</time>
      </trkpt>
      <trkpt lat="45.96327" lon="3.94257">
        <ele>684</ele>
        <time>2019-04-18T20:18:41Z</time>
      </trkpt>
      <trkpt lat="45.96318" lon="3.94272">
        <ele>684</ele>
        <time>2019-04-18T20:19:41Z</time>
      </trkpt>
      <trkpt lat="45.96315" lon="3.94291">
        <ele>682</ele>
        <time>2019-04-18T20:20:41Z</time>
      </trkpt>
      <trkpt lat="45.96316" lon="3.94309">
        <ele>679</ele>
        <time>2019-04-18T20:21:41Z</time>
      </trkpt>
      <trkpt lat="45.96322" lon="3.94326">
        <ele>675</ele>
        <time>2019-04-18T20:22:41Z</time>
      </trkpt>
      <trkpt lat="45.96333" lon="3.9434">
        <ele>671</ele>
        <time>2019-04-18T20:23:41Z</time>
      </trkpt>
      <trkpt lat="45.96343" lon="3.94345">
        <ele>669</ele>
        <time>2019-04-18T20:24:41Z</time>
      </trkpt>
      <trkpt lat="45.96527" lon="3.9433">
        <ele>663</ele>
        <time>2019-04-18T20:25:41Z</time>
      </trkpt>
      <trkpt lat="45.96556" lon="3.9432">
        <ele>661</ele>
        <time>2019-04-18T20:26:41Z</time>
      </trkpt>
      <trkpt lat="45.9658" lon="3.94302">
        <ele>660</ele>
        <time>2019-04-18T20:27:41Z</time>
      </trkpt>
      <trkpt lat="45.96605" lon="3.94274">
        <ele>657</ele>
        <time>2019-04-18T20:28:41Z</time>
      </trkpt>
      <trkpt lat="45.96674" lon="3.94182">
        <ele>648</ele>
        <time>2019-04-18T20:29:41Z</time>
      </trkpt>
      <trkpt lat="45.9669" lon="3.94166">
        <ele>647</ele>
        <time>2019-04-18T20:30:41Z</time>
      </trkpt>
      <trkpt lat="45.96707" lon="3.94158">
        <ele>646</ele>
        <time>2019-04-18T20:31:41Z</time>
      </trkpt>
      <trkpt lat="45.9673" lon="3.94152">
        <ele>643</ele>
        <time>2019-04-18T20:32:41Z</time>
      </trkpt>
      <trkpt lat="45.96762" lon="3.94159">
        <ele>640</ele>
        <time>2019-04-18T20:33:41Z</time>
      </trkpt>
      <trkpt lat="45.96775" lon="3.94168">
        <ele>639</ele>
        <time>2019-04-18T20:34:41Z</time>
      </trkpt>
      <trkpt lat="45.96789" lon="3.94182">
        <ele>639</ele>
        <time>2019-04-18T20:35:41Z</time>
      </trkpt>
      <trkpt lat="45.968" lon="3.94197">
        <ele>638</ele>
        <time>2019-04-18T20:36:41Z</time>
      </trkpt>
      <trkpt lat="45.96811" lon="3.94218">
        <ele>636</ele>
        <time>2019-04-18T20:37:41Z</time>
      </trkpt>
      <trkpt lat="45.96819" lon="3.94244">
        <ele>634</ele>
        <time>2019-04-18T20:38:41Z</time>
      </trkpt>
      <trkpt lat="45.96906" lon="3.94801">
        <ele>613</ele>
        <time>2019-04-18T20:39:41Z</time>
      </trkpt>
      <trkpt lat="45.96934" lon="3.94886">
        <ele>606</ele>
        <time>2019-04-18T20:40:41Z</time>
      </trkpt>
      <trkpt lat="45.96984" lon="3.94996">
        <ele>596</ele>
        <time>2019-04-18T20:41:41Z</time>
      </trkpt>
      <trkpt lat="45.97066" lon="3.95167">
        <ele>585</ele>
        <time>2019-04-18T20:42:41Z</time>
      </trkpt>
      <trkpt lat="45.97083" lon="3.95189">
        <ele>584</ele>
        <time>2019-04-18T20:43:41Z</time>
      </trkpt>
      <trkpt lat="45.97101" lon="3.95203">
        <ele>582</ele>
        <time>2019-04-18T20:44:41Z</time>
      </trkpt>
      <trkpt lat="45.97121" lon="3.95214">
        <ele>581</ele>
        <time>2019-04-18T20:45:41Z</time>
      </trkpt>
      <trkpt lat="45.97137" lon="3.95219">
        <ele>580</ele>
        <time>2019-04-18T20:46:41Z</time>
      </trkpt>
      <trkpt lat="45.97156" lon="3.95218">
        <ele>581</ele>
        <time>2019-04-18T20:47:41Z</time>
      </trkpt>
      <trkpt lat="45.97173" lon="3.95214">
        <ele>580</ele>
        <time>2019-04-18T20:48:41Z</time>
      </trkpt>
      <trkpt lat="45.97195" lon="3.95201">
        <ele>578</ele>
        <time>2019-04-18T20:49:41Z</time>
      </trkpt>
      <trkpt lat="45.97218" lon="3.95181">
        <ele>575</ele>
        <time>2019-04-18T20:50:41Z</time>
      </trkpt>
      <trkpt lat="45.97234" lon="3.95152">
        <ele>574</ele>
        <time>2019-04-18T20:51:41Z</time>
      </trkpt>
      <trkpt lat="45.973" lon="3.94995">
        <ele>563</ele>
        <time>2019-04-18T20:52:41Z</time>
      </trkpt>
      <trkpt lat="45.97326" lon="3.94959">
        <ele>560</ele>
        <time>2019-04-18T20:53:41Z</time>
      </trkpt>
      <trkpt lat="45.97359" lon="3.94935">
        <ele>558</ele>
        <time>2019-04-18T20:54:41Z</time>
      </trkpt>
      <trkpt lat="45.97609" lon="3.94835">
        <ele>544</ele>
        <time>2019-04-18T20:55:41Z</time>
      </trkpt>
      <trkpt lat="45.97626" lon="3.94832">
        <ele>543</ele>
        <time>2019-04-18T20:56:41Z</time>
      </trkpt>
      <trkpt lat="45.97688" lon="3.9484">
        <ele>538</ele>
        <time>2019-04-18T20:57:41Z</time>
      </trkpt>
      <trkpt lat="45.97714" lon="3.94832">
        <ele>536</ele>
        <time>2019-04-18T20:58:41Z</time>
      </trkpt>
      <trkpt lat="45.97747" lon="3.94799">
        <ele>533</ele>
        <time>2019-04-18T20:59:41Z</time>
      </trkpt>
      <trkpt lat="45.97765" lon="3.94793">
        <ele>530</ele>
        <time>2019-04-18T21:00:41Z</time>
      </trkpt>
      <trkpt lat="45.97781" lon="3.94794">
        <ele>528</ele>
        <time>2019-04-18T21:01:41Z</time>
      </trkpt>
      <trkpt lat="45.97811" lon="3.94822">
        <ele>526</ele>
        <time>2019-04-18T21:02:41Z</time>
      </trkpt>
      <trkpt lat="45.97879" lon="3.94891">
        <ele>520</ele>
        <time>2019-04-18T21:03:41Z</time>
      </trkpt>
      <trkpt lat="45.97898" lon="3.94904">
        <ele>520</ele>
        <time>2019-04-18T21:04:41Z</time>
      </trkpt>
      <trkpt lat="45.97922" lon="3.94904">
        <ele>518</ele>
        <time>2019-04-18T21:05:41Z</time>
      </trkpt>
      <trkpt lat="45.9794" lon="3.94908">
        <ele>516</ele>
        <time>2019-04-18T21:06:41Z</time>
      </trkpt>
      <trkpt lat="45.97957" lon="3.94919">
        <ele>514</ele>
        <time>2019-04-18T21:07:41Z</time>
      </trkpt>
      <trkpt lat="45.9797" lon="3.9494">
        <ele>512</ele>
        <time>2019-04-18T21:08:41Z</time>
      </trkpt>
      <trkpt lat="45.98045" lon="3.95124">
        <ele>499</ele>
        <time>2019-04-18T21:09:41Z</time>
      </trkpt>
      <trkpt lat="45.98075" lon="3.95165">
        <ele>497</ele>
        <time>2019-04-18T21:10:41Z</time>
      </trkpt>
      <trkpt lat="45.98082" lon="3.95182">
        <ele>497</ele>
        <time>2019-04-18T21:11:41Z</time>
      </trkpt>
      <trkpt lat="45.98083" lon="3.95205">
        <ele>497</ele>
        <time>2019-04-18T21:12:41Z</time>
      </trkpt>
      <trkpt lat="45.98076" lon="3.95229">
        <ele>496</ele>
        <time>2019-04-18T21:13:41Z</time>
      </trkpt>
      <trkpt lat="45.98065" lon="3.95242">
        <ele>496</ele>
        <time>2019-04-18T21:14:41Z</time>
      </trkpt>
      <trkpt lat="45.98049" lon="3.9525">
        <ele>496</ele>
        <time>2019-04-18T21:15:41Z</time>
      </trkpt>
      <trkpt lat="45.9796" lon="3.95257">
        <ele>493</ele>
        <time>2019-04-18T21:16:41Z</time>
      </trkpt>
      <trkpt lat="45.97923" lon="3.9524">
        <ele>494</ele>
        <time>2019-04-18T21:17:41Z</time>
      </trkpt>
      <trkpt lat="45.97912" lon="3.95242">
        <ele>494</ele>
        <time>2019-04-18T21:18:41Z</time>
      </trkpt>
      <trkpt lat="45.97902" lon="3.95247">
        <ele>493</ele>
        <time>2019-04-18T21:19:41Z</time>
      </trkpt>
      <trkpt lat="45.97885" lon="3.95261">
        <ele>491</ele>
        <time>2019-04-18T21:20:41Z</time>
      </trkpt>
      <trkpt lat="45.97874" lon="3.9526">
        <ele>491</ele>
        <time>2019-04-18T21:21:41Z</time>
      </trkpt>
      <trkpt lat="45.97865" lon="3.95256">
        <ele>491</ele>
        <time>2019-04-18T21:22:41Z</time>
      </trkpt>
      <trkpt lat="45.97825" lon="3.95228">
        <ele>494</ele>
        <time>2019-04-18T21:23:41Z</time>
      </trkpt>
      <trkpt lat="45.97814" lon="3.95225">
        <ele>495</ele>
        <time>2019-04-18T21:24:41Z</time>
      </trkpt>
      <trkpt lat="45.978" lon="3.95228">
        <ele>495</ele>
        <time>2019-04-18T21:25:41Z</time>
      </trkpt>
      <trkpt lat="45.9779" lon="3.95241">
        <ele>494</ele>
        <time>2019-04-18T21:26:41Z</time>
      </trkpt>
      <trkpt lat="45.97787" lon="3.95265">
        <ele>493</ele>
        <time>2019-04-18T21:27:41Z</time>
      </trkpt>
      <trkpt lat="45.97806" lon="3.9532">
        <ele>488</ele>
        <time>2019-04-18T21:28:41Z</time>
      </trkpt>
      <trkpt lat="45.97977" lon="3.95754">
        <ele>455</ele>
        <time>2019-04-18T21:29:41Z</time>
      </trkpt>
      <trkpt lat="45.97982" lon="3.9578">
        <ele>453</ele>
        <time>2019-04-18T21:30:41Z</time>
      </trkpt>
      <trkpt lat="45.97983" lon="3.95802">
        <ele>453</ele>
        <time>2019-04-18T21:31:41Z</time>
      </trkpt>
      <trkpt lat="45.97979" lon="3.95823">
        <ele>452</ele>
        <time>2019-04-18T21:32:41Z</time>
      </trkpt>
      <trkpt lat="45.97953" lon="3.95887">
        <ele>450</ele>
        <time>2019-04-18T21:33:41Z</time>
      </trkpt>
      <trkpt lat="45.97947" lon="3.95911">
        <ele>449</ele>
        <time>2019-04-18T21:34:41Z</time>
      </trkpt>
      <trkpt lat="45.97946" lon="3.9593">
        <ele>448</ele>
        <time>2019-04-18T21:35:41Z</time>
      </trkpt>
      <trkpt lat="45.97949" lon="3.95952">
        <ele>447</ele>
        <time>2019-04-18T21:36:41Z</time>
      </trkpt>
      <trkpt lat="45.97956" lon="3.95975">
        <ele>446</ele>
        <time>2019-04-18T21:37:41Z</time>
      </trkpt>
      <trkpt lat="45.97968" lon="3.95998">
        <ele>445</ele>
        <time>2019-04-18T21:38:41Z</time>
      </trkpt>
      <trkpt lat="45.97984" lon="3.96015">
        <ele>443</ele>
        <time>2019-04-18T21:39:41Z</time>
      </trkpt>
      <trkpt lat="45.98002" lon="3.96024">
        <ele>442</ele>
        <time>2019-04-18T21:40:41Z</time>
      </trkpt>
      <trkpt lat="45.98021" lon="3.96026">
        <ele>441</ele>
        <time>2019-04-18T21:41:41Z</time>
      </trkpt>
      <trkpt lat="45.98041" lon="3.96022">
        <ele>439</ele>
        <time>2019-04-18T21:42:41Z</time>
      </trkpt>
      <trkpt lat="45.98061" lon="3.96004">
        <ele>439</ele>
        <time>2019-04-18T21:43:41Z</time>
      </trkpt>
      <trkpt lat="45.98091" lon="3.95957">
        <ele>438</ele>
        <time>2019-04-18T21:44:41Z</time>
      </trkpt>
      <trkpt lat="45.98109" lon="3.9594">
        <ele>438</ele>
        <time>2019-04-18T21:45:41Z</time>
      </trkpt>
      <trkpt lat="45.98124" lon="3.95934">
        <ele>438</ele>
        <time>2019-04-18T21:46:41Z</time>
      </trkpt>
      <trkpt lat="45.98142" lon="3.95934">
        <ele>437</ele>
        <time>2019-04-18T21:47:41Z</time>
      </trkpt>
      <trkpt lat="45.98161" lon="3.95942">
        <ele>436</ele>
        <time>2019-04-18T21:48:41Z</time>
      </trkpt>
      <trkpt lat="45.98176" lon="3.95953">
        <ele>435</ele>
        <time>2019-04-18T21:49:41Z</time>
      </trkpt>
      <trkpt lat="45.98232" lon="3.96037">
        <ele>427</ele>
        <time>2019-04-18T21:50:41Z</time>
      </trkpt>
      <trkpt lat="45.98269" lon="3.96109">
        <ele>422</ele>
        <time>2019-04-18T21:51:41Z</time>
      </trkpt>
      <trkpt lat="45.98299" lon="3.96177">
        <ele>419</ele>
        <time>2019-04-18T21:52:41Z</time>
      </trkpt>
      <trkpt lat="45.98308" lon="3.96206">
        <ele>418</ele>
        <time>2019-04-18T21:53:41Z</time>
      </trkpt>
      <trkpt lat="45.9831" lon="3.96225">
        <ele>417</ele>
        <time>2019-04-18T21:54:41Z</time>
      </trkpt>
      <trkpt lat="45.98306" lon="3.96237">
        <ele>417</ele>
        <time>2019-04-18T21:55:41Z</time>
      </trkpt>
      <trkpt lat="45.98305" lon="3.96249">
        <ele>416</ele>
        <time>2019-04-18T21:56:41Z</time>
      </trkpt>
      <trkpt lat="45.98307" lon="3.96258">
        <ele>416</ele>
        <time>2019-04-18T21:57:41Z</time>
      </trkpt>
      <trkpt lat="45.98317" lon="3.96269">
        <ele>415</ele>
        <time>2019-04-18T21:58:41Z</time>
      </trkpt>
      <trkpt lat="45.98325" lon="3.96271">
        <ele>414</ele>
        <time>2019-04-18T21:59:41Z</time>
      </trkpt>
      <trkpt lat="45.98361" lon="3.96318">
        <ele>412</ele>
        <time>2019-04-18T22:00:41Z</time>
      </trkpt>
      <trkpt lat="45.98367" lon="3.96328">
        <ele>412</ele>
        <time>2019-04-18T22:01:41Z</time>
      </trkpt>
      <trkpt lat="45.98512" lon="3.96663">
        <ele>397</ele>
        <time>2019-04-18T22:02:41Z</time>
      </trkpt>
      <trkpt lat="45.98655" lon="3.96984">
        <ele>390</ele>
        <time>2019-04-18T22:03:41Z</time>
      </trkpt>
      <trkpt lat="45.98706" lon="3.97108">
        <ele>389</ele>
        <time>2019-04-18T22:04:41Z</time>
      </trkpt>
      <trkpt lat="45.99022" lon="3.97839">
        <ele>378</ele>
        <time>2019-04-18T22:05:41Z</time>
      </trkpt>
      <trkpt lat="45.99208" lon="3.98264">
        <ele>373</ele>
        <time>2019-04-18T22:06:41Z</time>
      </trkpt>
      <trkpt lat="45.99215" lon="3.98283">
        <ele>373</ele>
        <time>2019-04-18T22:07:41Z</time>
      </trkpt>
      <trkpt lat="45.99267" lon="3.98406">
        <ele>372</ele>
        <time>2019-04-18T22:08:41Z</time>
      </trkpt>
      <trkpt lat="45.99315" lon="3.98515">
        <ele>372</ele>
        <time>2019-04-18T22:09:41Z</time>
      </trkpt>
      <trkpt lat="45.99322" lon="3.98528">
        <ele>372</ele>
        <time>2019-04-18T22:10:41Z</time>
      </trkpt>
      <trkpt lat="45.99388" lon="3.98678">
        <ele>368</ele>
        <time>2019-04-18T22:11:41Z</time>
      </trkpt>
      <trkpt lat="45.99403" lon="3.98724">
        <ele>367</ele>
        <time>2019-04-18T22:12:41Z</time>
      </trkpt>
      <trkpt lat="45.99433" lon="3.98794">
        <ele>366</ele>
        <time>2019-04-18T22:13:41Z</time>
      </trkpt>
      <trkpt lat="45.99421" lon="3.98889">
        <ele>364</ele>
        <time>2019-04-18T22:14:41Z</time>
      </trkpt>
      <trkpt lat="45.99416" lon="3.98959">
        <ele>363</ele>
        <time>2019-04-18T22:15:41Z</time>
      </trkpt>
      <trkpt lat="45.99412" lon="3.98987">
        <ele>363</ele>
        <time>2019-04-18T22:16:41Z</time>
      </trkpt>
      <trkpt lat="45.99385" lon="3.99096">
        <ele>362</ele>
        <time>2019-04-18T22:17:41Z</time>
      </trkpt>
      <trkpt lat="45.99336" lon="3.99302">
        <ele>360</ele>
        <time>2019-04-18T22:18:41Z</time>
      </trkpt>
      <trkpt lat="45.99325" lon="3.99357">
        <ele>360</ele>
        <time>2019-04-18T22:19:41Z</time>
      </trkpt>
      <trkpt lat="45.9931" lon="3.99416">
        <ele>360</ele>
        <time>2019-04-18T22:20:41Z</time>
      </trkpt>
      <trkpt lat="45.99284" lon="3.99477">
        <ele>360</ele>
        <time>2019-04-18T22:21:41Z</time>
      </trkpt>
      <trkpt lat="45.99259" lon="3.99553">
        <ele>359</ele>
        <time>2019-04-18T22:22:41Z</time>
      </trkpt>
      <trkpt lat="45.99237" lon="3.99629">
        <ele>360</ele>
        <time>2019-04-18T22:23:41Z</time>
      </trkpt>
      <trkpt lat="45.99207" lon="3.99758">
        <ele>360</ele>
        <time>2019-04-18T22:24:41Z</time>
      </trkpt>
      <trkpt lat="45.99192" lon="3.99813">
        <ele>361</ele>
        <time>2019-04-18T22:25:41Z</time>
      </trkpt>
      <trkpt lat="45.99162" lon="3.99881">
        <ele>362</ele>
        <time>2019-04-18T22:26:41Z</time>
      </trkpt>
      <trkpt lat="45.9911" lon="3.99972">
        <ele>363</ele>
        <time>2019-04-18T22:27:41Z</time>
      </trkpt>
      <trkpt lat="45.99092" lon="4.00015">
        <ele>364</ele>
        <time>2019-04-18T22:28:41Z</time>
      </trkpt>
      <trkpt lat="45.99079" lon="4.00057">
        <ele>365</ele>
        <time>2019-04-18T22:29:41Z</time>
      </trkpt>
      <trkpt lat="45.99061" lon="4.00135">
        <ele>368</ele>
        <time>2019-04-18T22:30:41Z</time>
      </trkpt>
      <trkpt lat="45.99037" lon="4.00256">
        <ele>374</ele>
        <time>2019-04-18T22:31:41Z</time>
      </trkpt>
      <trkpt lat="45.99022" lon="4.00304">
        <ele>375</ele>
        <time>2019-04-18T22:32:41Z</time>
      </trkpt>
      <trkpt lat="45.98999" lon="4.00368">
        <ele>377</ele>
        <time>2019-04-18T22:33:41Z</time>
      </trkpt>
      <trkpt lat="45.98973" lon="4.00425">
        <ele>379</ele>
        <time>2019-04-18T22:34:41Z</time>
      </trkpt>
      <trkpt lat="45.98947" lon="4.00487">
        <ele>380</ele>
        <time>2019-04-18T22:35:41Z</time>
      </trkpt>
      <trkpt lat="45.98931" lon="4.00545">
        <ele>382</ele>
        <time>2019-04-18T22:36:41Z</time>
      </trkpt>
      <trkpt lat="45.98919" lon="4.0065">
        <ele>385</ele>
        <time>2019-04-18T22:37:41Z</time>
      </trkpt>
      <trkpt lat="45.98912" lon="4.00776">
        <ele>388</ele>
        <time>2019-04-18T22:38:41Z</time>
      </trkpt>
      <trkpt lat="45.98899" lon="4.00918">
        <ele>392</ele>
        <time>2019-04-18T22:39:41Z</time>
      </trkpt>
      <trkpt lat="45.98887" lon="4.01022">
        <ele>396</ele>
        <time>2019-04-18T22:40:41Z</time>
      </trkpt>
      <trkpt lat="45.9888" lon="4.0112">
        <ele>400</ele>
        <time>2019-04-18T22:41:41Z</time>
      </trkpt>
      <trkpt lat="45.98884" lon="4.01181">
        <ele>401</ele>
        <time>2019-04-18T22:42:41Z</time>
      </trkpt>
      <trkpt lat="45.98912" lon="4.01413">
        <ele>408</ele>
        <time>2019-04-18T22:43:41Z</time>
      </trkpt>
      <trkpt lat="45.98932" lon="4.01556">
        <ele>408</ele>
        <time>2019-04-18T22:44:41Z</time>
      </trkpt>
      <trkpt lat="45.98944" lon="4.01607">
        <ele>408</ele>
        <time>2019-04-18T22:45:41Z</time>
      </trkpt>
      <trkpt lat="45.98973" lon="4.01715">
        <ele>408</ele>
        <time>2019-04-18T22:46:41Z</time>
      </trkpt>
      <trkpt lat="45.98986" lon="4.01771">
        <ele>408</ele>
        <time>2019-04-18T22:47:41Z</time>
      </trkpt>
      <trkpt lat="45.98993" lon="4.01833">
        <ele>409</ele>
        <time>2019-04-18T22:48:41Z</time>
      </trkpt>
      <trkpt lat="45.98993" lon="4.01878">
        <ele>410</ele>
        <time>2019-04-18T22:49:41Z</time>
      </trkpt>
      <trkpt lat="45.9899" lon="4.01938">
        <ele>410</ele>
        <time>2019-04-18T22:50:41Z</time>
      </trkpt>
      <trkpt lat="45.98984" lon="4.02052">
        <ele>407</ele>
        <time>2019-04-18T22:51:41Z</time>
      </trkpt>
      <trkpt lat="45.98984" lon="4.02126">
        <ele>404</ele>
        <time>2019-04-18T22:52:41Z</time>
      </trkpt>
      <trkpt lat="45.98993" lon="4.02216">
        <ele>399</ele>
        <time>2019-04-18T22:53:41Z</time>
      </trkpt>
      <trkpt lat="45.9903" lon="4.0243">
        <ele>389</ele>
        <time>2019-04-18T22:54:41Z</time>
      </trkpt>
      <trkpt lat="45.99027" lon="4.025">
        <ele>388</ele>
        <time>2019-04-18T22:55:41Z</time>
      </trkpt>
      <trkpt lat="45.99021" lon="4.02584">
        <ele>385</ele>
        <time>2019-04-18T22:56:41Z</time>
      </trkpt>
      <trkpt lat="45.99019" lon="4.02692">
        <ele>380</ele>
        <time>2019-04-18T22:57:41Z</time>
      </trkpt>
      <trkpt lat="45.99026" lon="4.02769">
        <ele>374</ele>
        <time>2019-04-18T22:58:41Z</time>
      </trkpt>
      <trkpt lat="45.9905" lon="4.02891">
        <ele>365</ele>
        <time>2019-04-18T22:59:41Z</time>
      </trkpt>
      <trkpt lat="45.99068" lon="4.03018">
        <ele>360</ele>
        <time>2019-04-18T23:00:41Z</time>
      </trkpt>
      <trkpt lat="45.99081" lon="4.03217">
        <ele>353</ele>
        <time>2019-04-18T23:01:41Z</time>
      </trkpt>
      <trkpt lat="45.99106" lon="4.03355">
        <ele>353</ele>
        <time>2019-04-18T23:02:41Z</time>
      </trkpt>
      <trkpt lat="45.99108" lon="4.03385">
        <ele>353</ele>
        <time>2019-04-18T23:03:41Z</time>
      </trkpt>
      <trkpt lat="45.99104" lon="4.03422">
        <ele>353</ele>
        <time>2019-04-18T23:04:41Z</time>
      </trkpt>
      <trkpt lat="45.99095" lon="4.03424">
        <ele>353</ele>
        <time>2019-04-18T23:05:41Z</time>
      </trkpt>
      <trkpt lat="45.99089" lon="4.03434">
        <ele>353</ele>
        <time>2019-04-18T23:06:41Z</time>
      </trkpt>
      <trkpt lat="45.99088" lon="4.03448">
        <ele>353</ele>
        <time>2019-04-18T23:07:41Z</time>
      </trkpt>
      <trkpt lat="45.99091" lon="4.03454">
        <ele>353</ele>
        <time>2019-04-18T23:08:41Z</time>
      </trkpt>
      <trkpt lat="45.9909" lon="4.03466">
        <ele>354</ele>
        <time>2019-04-18T23:09:41Z</time>
      </trkpt>
      <trkpt lat="45.99084" lon="4.03502">
        <ele>354</ele>
        <time>2019-04-18T23:10:41Z</time>
      </trkpt>
      <trkpt lat="45.9909" lon="4.03494">
        <ele>354</ele>
        <time>2019-04-18T23:11:41Z</time>
      </trkpt>
      <trkpt lat="45.99105" lon="4.03516">
        <ele>354</ele>
        <time>2019-04-18T23:12:41Z</time>
      </trkpt>
      <trkpt lat="45.99111" lon="4.03536">
        <ele>354</ele>
        <time>2019-04-18T23:13:41Z</time>
      </trkpt>
      <trkpt lat="45.99115" lon="4.03633">
        <ele>357</ele>
        <time>2019-04-18T23:14:41Z</time>
      </trkpt>
      <trkpt lat="45.99135" lon="4.03823">
        <ele>363</ele>
        <time>2019-04-18T23:15:41Z</time>
      </trkpt>
      <trkpt lat="45.99142" lon="4.0391">
        <ele>360</ele>
        <time>2019-04-18T23:16:41Z</time>
      </trkpt>
      <trkpt lat="45.99141" lon="4.03935">
        <ele>359</ele>
        <time>2019-04-18T23:17:41Z</time>
      </trkpt>
      <trkpt lat="45.99144" lon="4.03954">
        <ele>357</ele>
        <time>2019-04-18T23:18:41Z</time>
      </trkpt>
      <trkpt lat="45.9915" lon="4.03967">
        <ele>356</ele>
        <time>2019-04-18T23:19:41Z</time>
      </trkpt>
      <trkpt lat="45.99139" lon="4.0398">
        <ele>356</ele>
        <time>2019-04-18T23:20:41Z</time>
      </trkpt>
      <trkpt lat="45.99116" lon="4.03998">
        <ele>356</ele>
        <time>2019-04-18T23:21:41Z</time>
      </trkpt>
      <trkpt lat="45.99094" lon="4.04028">
        <ele>353</ele>
        <time>2019-04-18T23:22:41Z</time>
      </trkpt>
      <trkpt lat="45.99063" lon="4.04089">
        <ele>346</ele>
        <time>2019-04-18T23:23:41Z</time>
      </trkpt>
      <trkpt lat="45.99049" lon="4.04111">
        <ele>345</ele>
        <time>2019-04-18T23:24:41Z</time>
      </trkpt>
      <trkpt lat="45.98985" lon="4.04178">
        <ele>342</ele>
        <time>2019-04-18T23:25:41Z</time>
      </trkpt>
      <trkpt lat="45.98965" lon="4.04193">
        <ele>341</ele>
        <time>2019-04-18T23:26:41Z</time>
      </trkpt>
      <trkpt lat="45.98916" lon="4.04217">
        <ele>342</ele>
        <time>2019-04-18T23:27:41Z</time>
      </trkpt>
      <trkpt lat="45.98854" lon="4.04272">
        <ele>338</ele>
        <time>2019-04-18T23:28:41Z</time>
      </trkpt>
      <trkpt lat="45.98844" lon="4.04286">
        <ele>337</ele>
        <time>2019-04-18T23:29:41Z</time>
      </trkpt>
      <trkpt lat="45.98839" lon="4.04302">
        <ele>336</ele>
        <time>2019-04-18T23:30:41Z</time>
      </trkpt>
      <trkpt lat="45.98847" lon="4.04385">
        <ele>328</ele>
        <time>2019-04-18T23:31:41Z</time>
      </trkpt>
      <trkpt lat="45.9884" lon="4.04383">
        <ele>328</ele>
        <time>2019-04-18T23:32:41Z</time>
      </trkpt>
      <trkpt lat="45.98837" lon="4.04397">
        <ele>327</ele>
        <time>2019-04-18T23:33:41Z</time>
      </trkpt>
      <trkpt lat="45.98835" lon="4.0441">
        <ele>326</ele>
        <time>2019-04-18T23:34:41Z</time>
      </trkpt>
      <trkpt lat="45.98836" lon="4.04433">
        <ele>324</ele>
        <time>2019-04-18T23:35:41Z</time>
      </trkpt>
      <trkpt lat="45.98838" lon="4.04467">
        <ele>322</ele>
        <time>2019-04-18T23:36:41Z</time>
      </trkpt>
      <trkpt lat="45.98833" lon="4.04488">
        <ele>321</ele>
        <time>2019-04-18T23:37:41Z</time>
      </trkpt>
      <trkpt lat="45.98828" lon="4.04534">
        <ele>318</ele>
        <time>2019-04-18T23:38:41Z</time>
      </trkpt>
    </trkseg>
  </trk>
  <trk>
    <name><![CDATA[J5]]></name>
    <trkseg>
      <trkpt lat="45.9883" lon="4.04515">
        <ele>319</ele>
        <time>2019-04-17T10:06:49Z</time>
      </trkpt>
      <trkpt lat="45.98833" lon="4.04488">
        <ele>321</ele>
        <time>2019-04-17T10:07:49Z</time>
      </trkpt>
      <trkpt lat="45.98838" lon="4.04467">
        <ele>322</ele>
        <time>2019-04-17T10:08:49Z</time>
      </trkpt>
      <trkpt lat="45.98835" lon="4.0441">
        <ele>326</ele>
        <time>2019-04-17T10:09:49Z</time>
      </trkpt>
      <trkpt lat="45.9884" lon="4.04383">
        <ele>328</ele>
        <time>2019-04-17T10:10:49Z</time>
      </trkpt>
      <trkpt lat="45.98825" lon="4.04378">
        <ele>329</ele>
        <time>2019-04-17T10:11:49Z</time>
      </trkpt>
      <trkpt lat="45.98803" lon="4.04379">
        <ele>329</ele>
        <time>2019-04-17T10:12:49Z</time>
      </trkpt>
      <trkpt lat="45.98789" lon="4.04385">
        <ele>328</ele>
        <time>2019-04-17T10:13:49Z</time>
      </trkpt>
      <trkpt lat="45.98773" lon="4.04397">
        <ele>327</ele>
        <time>2019-04-17T10:14:49Z</time>
      </trkpt>
      <trkpt lat="45.98705" lon="4.0455">
        <ele>317</ele>
        <time>2019-04-17T10:15:49Z</time>
      </trkpt>
      <trkpt lat="45.98649" lon="4.04666">
        <ele>306</ele>
        <time>2019-04-17T10:16:49Z</time>
      </trkpt>
      <trkpt lat="45.98634" lon="4.047">
        <ele>307</ele>
        <time>2019-04-17T10:17:49Z</time>
      </trkpt>
      <trkpt lat="45.98624" lon="4.04743">
        <ele>308</ele>
        <time>2019-04-17T10:18:49Z</time>
      </trkpt>
      <trkpt lat="45.9862" lon="4.04773">
        <ele>308</ele>
        <time>2019-04-17T10:19:49Z</time>
      </trkpt>
      <trkpt lat="45.98621" lon="4.04812">
        <ele>308</ele>
        <time>2019-04-17T10:20:49Z</time>
      </trkpt>
      <trkpt lat="45.98628" lon="4.04853">
        <ele>308</ele>
        <time>2019-04-17T10:21:49Z</time>
      </trkpt>
      <trkpt lat="45.98639" lon="4.04899">
        <ele>311</ele>
        <time>2019-04-17T10:22:49Z</time>
      </trkpt>
      <trkpt lat="45.98659" lon="4.04954">
        <ele>322</ele>
        <time>2019-04-17T10:23:49Z</time>
      </trkpt>
      <trkpt lat="45.98667" lon="4.04968">
        <ele>326</ele>
        <time>2019-04-17T10:24:49Z</time>
      </trkpt>
      <trkpt lat="45.98684" lon="4.04981">
        <ele>328</ele>
        <time>2019-04-17T10:25:49Z</time>
      </trkpt>
      <trkpt lat="45.98718" lon="4.0499">
        <ele>327</ele>
        <time>2019-04-17T10:26:49Z</time>
      </trkpt>
      <trkpt lat="45.98747" lon="4.05003">
        <ele>328</ele>
        <time>2019-04-17T10:27:49Z</time>
      </trkpt>
      <trkpt lat="45.98765" lon="4.05023">
        <ele>333</ele>
        <time>2019-04-17T10:28:49Z</time>
      </trkpt>
      <trkpt lat="45.98804" lon="4.05082">
        <ele>348</ele>
        <time>2019-04-17T10:29:49Z</time>
      </trkpt>
      <trkpt lat="45.98817" lon="4.05094">
        <ele>349</ele>
        <time>2019-04-17T10:30:49Z</time>
      </trkpt>
      <trkpt lat="45.98836" lon="4.05098">
        <ele>347</ele>
        <time>2019-04-17T10:31:49Z</time>
      </trkpt>
      <trkpt lat="45.98859" lon="4.05101">
        <ele>347</ele>
        <time>2019-04-17T10:32:49Z</time>
      </trkpt>
      <trkpt lat="45.98901" lon="4.05101">
        <ele>344</ele>
        <time>2019-04-17T10:33:49Z</time>
      </trkpt>
      <trkpt lat="45.9892" lon="4.05111">
        <ele>345</ele>
        <time>2019-04-17T10:34:49Z</time>
      </trkpt>
      <trkpt lat="45.98935" lon="4.05131">
        <ele>347</ele>
        <time>2019-04-17T10:35:49Z</time>
      </trkpt>
      <trkpt lat="45.98948" lon="4.05156">
        <ele>350</ele>
        <time>2019-04-17T10:36:49Z</time>
      </trkpt>
      <trkpt lat="45.98953" lon="4.05173">
        <ele>352</ele>
        <time>2019-04-17T10:37:49Z</time>
      </trkpt>
      <trkpt lat="45.98956" lon="4.05193">
        <ele>353</ele>
        <time>2019-04-17T10:38:49Z</time>
      </trkpt>
      <trkpt lat="45.98956" lon="4.05224">
        <ele>356</ele>
        <time>2019-04-17T10:39:49Z</time>
      </trkpt>
      <trkpt lat="45.98951" lon="4.05248">
        <ele>359</ele>
        <time>2019-04-17T10:40:49Z</time>
      </trkpt>
      <trkpt lat="45.98912" lon="4.0534">
        <ele>366</ele>
        <time>2019-04-17T10:41:49Z</time>
      </trkpt>
      <trkpt lat="45.989" lon="4.05374">
        <ele>368</ele>
        <time>2019-04-17T10:42:49Z</time>
      </trkpt>
      <trkpt lat="45.98894" lon="4.05407">
        <ele>370</ele>
        <time>2019-04-17T10:43:49Z</time>
      </trkpt>
      <trkpt lat="45.98893" lon="4.0543">
        <ele>371</ele>
        <time>2019-04-17T10:44:49Z</time>
      </trkpt>
      <trkpt lat="45.98893" lon="4.05456">
        <ele>372</ele>
        <time>2019-04-17T10:45:49Z</time>
      </trkpt>
      <trkpt lat="45.98901" lon="4.05491">
        <ele>374</ele>
        <time>2019-04-17T10:46:49Z</time>
      </trkpt>
      <trkpt lat="45.98902" lon="4.05512">
        <ele>375</ele>
        <time>2019-04-17T10:47:49Z</time>
      </trkpt>
      <trkpt lat="45.989" lon="4.05537">
        <ele>376</ele>
        <time>2019-04-17T10:48:49Z</time>
      </trkpt>
      <trkpt lat="45.98896" lon="4.05545">
        <ele>377</ele>
        <time>2019-04-17T10:49:49Z</time>
      </trkpt>
      <trkpt lat="45.98894" lon="4.05553">
        <ele>377</ele>
        <time>2019-04-17T10:50:49Z</time>
      </trkpt>
      <trkpt lat="45.98894" lon="4.05562">
        <ele>378</ele>
        <time>2019-04-17T10:51:49Z</time>
      </trkpt>
      <trkpt lat="45.98853" lon="4.05604">
        <ele>378</ele>
        <time>2019-04-17T10:52:49Z</time>
      </trkpt>
      <trkpt lat="45.9883" lon="4.05618">
        <ele>378</ele>
        <time>2019-04-17T10:53:49Z</time>
      </trkpt>
      <trkpt lat="45.98796" lon="4.05631">
        <ele>378</ele>
        <time>2019-04-17T10:54:49Z</time>
      </trkpt>
      <trkpt lat="45.98709" lon="4.05679">
        <ele>378</ele>
        <time>2019-04-17T10:55:49Z</time>
      </trkpt>
      <trkpt lat="45.98663" lon="4.05697">
        <ele>379</ele>
        <time>2019-04-17T10:56:49Z</time>
      </trkpt>
      <trkpt lat="45.98627" lon="4.05706">
        <ele>381</ele>
        <time>2019-04-17T10:57:49Z</time>
      </trkpt>
      <trkpt lat="45.98559" lon="4.05714">
        <ele>384</ele>
        <time>2019-04-17T10:58:49Z</time>
      </trkpt>
      <trkpt lat="45.98379" lon="4.05728">
        <ele>392</ele>
        <time>2019-04-17T10:59:49Z</time>
      </trkpt>
      <trkpt lat="45.98352" lon="4.05728">
        <ele>393</ele>
        <time>2019-04-17T11:00:49Z</time>
      </trkpt>
      <trkpt lat="45.9833" lon="4.05721">
        <ele>394</ele>
        <time>2019-04-17T11:01:49Z</time>
      </trkpt>
      <trkpt lat="45.98292" lon="4.05697">
        <ele>396</ele>
        <time>2019-04-17T11:02:49Z</time>
      </trkpt>
      <trkpt lat="45.98267" lon="4.05669">
        <ele>398</ele>
        <time>2019-04-17T11:03:49Z</time>
      </trkpt>
      <trkpt lat="45.98163" lon="4.05531">
        <ele>399</ele>
        <time>2019-04-17T11:04:49Z</time>
      </trkpt>
      <trkpt lat="45.98144" lon="4.05513">
        <ele>398</ele>
        <time>2019-04-17T11:05:49Z</time>
      </trkpt>
      <trkpt lat="45.98115" lon="4.05495">
        <ele>397</ele>
        <time>2019-04-17T11:06:49Z</time>
      </trkpt>
      <trkpt lat="45.98039" lon="4.05458">
        <ele>393</ele>
        <time>2019-04-17T11:07:49Z</time>
      </trkpt>
      <trkpt lat="45.98025" lon="4.05449">
        <ele>393</ele>
        <time>2019-04-17T11:08:49Z</time>
      </trkpt>
      <trkpt lat="45.97851" lon="4.05297">
        <ele>391</ele>
        <time>2019-04-17T11:09:49Z</time>
      </trkpt>
      <trkpt lat="45.97807" lon="4.0525">
        <ele>393</ele>
        <time>2019-04-17T11:10:49Z</time>
      </trkpt>
      <trkpt lat="45.97772" lon="4.05201">
        <ele>393</ele>
        <time>2019-04-17T11:11:49Z</time>
      </trkpt>
      <trkpt lat="45.97725" lon="4.05124">
        <ele>394</ele>
        <time>2019-04-17T11:12:49Z</time>
      </trkpt>
      <trkpt lat="45.97713" lon="4.05098">
        <ele>394</ele>
        <time>2019-04-17T11:13:49Z</time>
      </trkpt>
      <trkpt lat="45.97703" lon="4.05056">
        <ele>394</ele>
        <time>2019-04-17T11:14:49Z</time>
      </trkpt>
      <trkpt lat="45.97699" lon="4.05011">
        <ele>394</ele>
        <time>2019-04-17T11:15:49Z</time>
      </trkpt>
      <trkpt lat="45.97701" lon="4.04979">
        <ele>394</ele>
        <time>2019-04-17T11:16:49Z</time>
      </trkpt>
      <trkpt lat="45.9772" lon="4.04848">
        <ele>392</ele>
        <time>2019-04-17T11:17:49Z</time>
      </trkpt>
      <trkpt lat="45.97723" lon="4.0482">
        <ele>391</ele>
        <time>2019-04-17T11:18:49Z</time>
      </trkpt>
      <trkpt lat="45.97724" lon="4.04784">
        <ele>391</ele>
        <time>2019-04-17T11:19:49Z</time>
      </trkpt>
      <trkpt lat="45.9771" lon="4.04553">
        <ele>391</ele>
        <time>2019-04-17T11:20:49Z</time>
      </trkpt>
      <trkpt lat="45.97705" lon="4.04505">
        <ele>391</ele>
        <time>2019-04-17T11:21:49Z</time>
      </trkpt>
      <trkpt lat="45.97697" lon="4.0447">
        <ele>390</ele>
        <time>2019-04-17T11:22:49Z</time>
      </trkpt>
      <trkpt lat="45.97648" lon="4.04293">
        <ele>384</ele>
        <time>2019-04-17T11:23:49Z</time>
      </trkpt>
      <trkpt lat="45.97634" lon="4.04263">
        <ele>383</ele>
        <time>2019-04-17T11:24:49Z</time>
      </trkpt>
      <trkpt lat="45.97623" lon="4.04244">
        <ele>382</ele>
        <time>2019-04-17T11:25:49Z</time>
      </trkpt>
      <trkpt lat="45.97603" lon="4.04218">
        <ele>382</ele>
        <time>2019-04-17T11:26:49Z</time>
      </trkpt>
      <trkpt lat="45.97581" lon="4.04196">
        <ele>382</ele>
        <time>2019-04-17T11:27:49Z</time>
      </trkpt>
      <trkpt lat="45.9751" lon="4.04139">
        <ele>375</ele>
        <time>2019-04-17T11:28:49Z</time>
      </trkpt>
      <trkpt lat="45.97457" lon="4.04114">
        <ele>369</ele>
        <time>2019-04-17T11:29:49Z</time>
      </trkpt>
      <trkpt lat="45.97418" lon="4.04109">
        <ele>365</ele>
        <time>2019-04-17T11:30:49Z</time>
      </trkpt>
      <trkpt lat="45.97266" lon="4.04124">
        <ele>356</ele>
        <time>2019-04-17T11:31:49Z</time>
      </trkpt>
      <trkpt lat="45.97245" lon="4.0413">
        <ele>355</ele>
        <time>2019-04-17T11:32:49Z</time>
      </trkpt>
      <trkpt lat="45.97224" lon="4.04142">
        <ele>352</ele>
        <time>2019-04-17T11:33:49Z</time>
      </trkpt>
      <trkpt lat="45.97206" lon="4.04158">
        <ele>350</ele>
        <time>2019-04-17T11:34:49Z</time>
      </trkpt>
      <trkpt lat="45.97191" lon="4.04187">
        <ele>348</ele>
        <time>2019-04-17T11:35:49Z</time>
      </trkpt>
      <trkpt lat="45.97178" lon="4.0422">
        <ele>346</ele>
        <time>2019-04-17T11:36:49Z</time>
      </trkpt>
      <trkpt lat="45.97113" lon="4.04442">
        <ele>338</ele>
        <time>2019-04-17T11:37:49Z</time>
      </trkpt>
      <trkpt lat="45.97102" lon="4.0447">
        <ele>335</ele>
        <time>2019-04-17T11:38:49Z</time>
      </trkpt>
      <trkpt lat="45.97084" lon="4.04497">
        <ele>330</ele>
        <time>2019-04-17T11:39:49Z</time>
      </trkpt>
      <trkpt lat="45.97072" lon="4.04507">
        <ele>331</ele>
        <time>2019-04-17T11:40:49Z</time>
      </trkpt>
      <trkpt lat="45.97061" lon="4.04512">
        <ele>332</ele>
        <time>2019-04-17T11:41:49Z</time>
      </trkpt>
      <trkpt lat="45.97045" lon="4.04512">
        <ele>333</ele>
        <time>2019-04-17T11:42:49Z</time>
      </trkpt>
      <trkpt lat="45.97031" lon="4.04506">
        <ele>334</ele>
        <time>2019-04-17T11:43:49Z</time>
      </trkpt>
      <trkpt lat="45.9702" lon="4.04495">
        <ele>335</ele>
        <time>2019-04-17T11:44:49Z</time>
      </trkpt>
      <trkpt lat="45.97007" lon="4.04478">
        <ele>336</ele>
        <time>2019-04-17T11:45:49Z</time>
      </trkpt>
      <trkpt lat="45.96997" lon="4.04455">
        <ele>337</ele>
        <time>2019-04-17T11:46:49Z</time>
      </trkpt>
      <trkpt lat="45.96985" lon="4.04416">
        <ele>340</ele>
        <time>2019-04-17T11:47:49Z</time>
      </trkpt>
      <trkpt lat="45.96966" lon="4.04341">
        <ele>345</ele>
        <time>2019-04-17T11:48:49Z</time>
      </trkpt>
      <trkpt lat="45.96951" lon="4.04309">
        <ele>346</ele>
        <time>2019-04-17T11:49:49Z</time>
      </trkpt>
      <trkpt lat="45.96937" lon="4.04293">
        <ele>348</ele>
        <time>2019-04-17T11:50:49Z</time>
      </trkpt>
      <trkpt lat="45.96919" lon="4.0428">
        <ele>349</ele>
        <time>2019-04-17T11:51:49Z</time>
      </trkpt>
      <trkpt lat="45.96902" lon="4.04273">
        <ele>351</ele>
        <time>2019-04-17T11:52:49Z</time>
      </trkpt>
      <trkpt lat="45.96883" lon="4.0427">
        <ele>352</ele>
        <time>2019-04-17T11:53:49Z</time>
      </trkpt>
      <trkpt lat="45.96856" lon="4.04276">
        <ele>355</ele>
        <time>2019-04-17T11:54:49Z</time>
      </trkpt>
      <trkpt lat="45.96749" lon="4.04317">
        <ele>367</ele>
        <time>2019-04-17T11:55:49Z</time>
      </trkpt>
      <trkpt lat="45.96709" lon="4.04321">
        <ele>372</ele>
        <time>2019-04-17T11:56:49Z</time>
      </trkpt>
      <trkpt lat="45.9668" lon="4.04317">
        <ele>375</ele>
        <time>2019-04-17T11:57:49Z</time>
      </trkpt>
      <trkpt lat="45.96582" lon="4.04274">
        <ele>385</ele>
        <time>2019-04-17T11:58:49Z</time>
      </trkpt>
      <trkpt lat="45.96539" lon="4.04258">
        <ele>388</ele>
        <time>2019-04-17T11:59:49Z</time>
      </trkpt>
      <trkpt lat="45.96503" lon="4.04249">
        <ele>392</ele>
        <time>2019-04-17T12:00:49Z</time>
      </trkpt>
      <trkpt lat="45.96469" lon="4.04245">
        <ele>394</ele>
        <time>2019-04-17T12:01:49Z</time>
      </trkpt>
      <trkpt lat="45.96421" lon="4.04244">
        <ele>398</ele>
        <time>2019-04-17T12:02:49Z</time>
      </trkpt>
      <trkpt lat="45.96305" lon="4.0426">
        <ele>407</ele>
        <time>2019-04-17T12:03:49Z</time>
      </trkpt>
      <trkpt lat="45.96284" lon="4.04262">
        <ele>410</ele>
        <time>2019-04-17T12:04:49Z</time>
      </trkpt>
      <trkpt lat="45.96142" lon="4.04265">
        <ele>421</ele>
        <time>2019-04-17T12:05:49Z</time>
      </trkpt>
      <trkpt lat="45.96124" lon="4.04261">
        <ele>422</ele>
        <time>2019-04-17T12:06:49Z</time>
      </trkpt>
      <trkpt lat="45.96104" lon="4.04253">
        <ele>424</ele>
        <time>2019-04-17T12:07:49Z</time>
      </trkpt>
      <trkpt lat="45.96085" lon="4.0424">
        <ele>426</ele>
        <time>2019-04-17T12:08:49Z</time>
      </trkpt>
      <trkpt lat="45.96065" lon="4.04222">
        <ele>427</ele>
        <time>2019-04-17T12:09:49Z</time>
      </trkpt>
      <trkpt lat="45.96018" lon="4.04153">
        <ele>433</ele>
        <time>2019-04-17T12:10:49Z</time>
      </trkpt>
      <trkpt lat="45.96004" lon="4.04141">
        <ele>434</ele>
        <time>2019-04-17T12:11:49Z</time>
      </trkpt>
      <trkpt lat="45.95993" lon="4.04134">
        <ele>435</ele>
        <time>2019-04-17T12:12:49Z</time>
      </trkpt>
      <trkpt lat="45.9598" lon="4.04131">
        <ele>436</ele>
        <time>2019-04-17T12:13:49Z</time>
      </trkpt>
      <trkpt lat="45.95952" lon="4.04135">
        <ele>438</ele>
        <time>2019-04-17T12:14:49Z</time>
      </trkpt>
      <trkpt lat="45.95933" lon="4.04142">
        <ele>439</ele>
        <time>2019-04-17T12:15:49Z</time>
      </trkpt>
      <trkpt lat="45.95909" lon="4.04157">
        <ele>440</ele>
        <time>2019-04-17T12:16:49Z</time>
      </trkpt>
      <trkpt lat="45.95835" lon="4.04228">
        <ele>441</ele>
        <time>2019-04-17T12:17:49Z</time>
      </trkpt>
      <trkpt lat="45.95817" lon="4.04242">
        <ele>442</ele>
        <time>2019-04-17T12:18:49Z</time>
      </trkpt>
      <trkpt lat="45.95795" lon="4.04254">
        <ele>443</ele>
        <time>2019-04-17T12:19:49Z</time>
      </trkpt>
      <trkpt lat="45.95778" lon="4.0426">
        <ele>444</ele>
        <time>2019-04-17T12:20:49Z</time>
      </trkpt>
      <trkpt lat="45.95752" lon="4.04266">
        <ele>445</ele>
        <time>2019-04-17T12:21:49Z</time>
      </trkpt>
      <trkpt lat="45.95572" lon="4.04278">
        <ele>445</ele>
        <time>2019-04-17T12:22:49Z</time>
      </trkpt>
      <trkpt lat="45.95552" lon="4.04276">
        <ele>445</ele>
        <time>2019-04-17T12:23:49Z</time>
      </trkpt>
      <trkpt lat="45.9548" lon="4.04254">
        <ele>443</ele>
        <time>2019-04-17T12:24:49Z</time>
      </trkpt>
      <trkpt lat="45.95461" lon="4.04254">
        <ele>443</ele>
        <time>2019-04-17T12:25:49Z</time>
      </trkpt>
      <trkpt lat="45.95438" lon="4.04258">
        <ele>442</ele>
        <time>2019-04-17T12:26:49Z</time>
      </trkpt>
      <trkpt lat="45.95391" lon="4.0427">
        <ele>444</ele>
        <time>2019-04-17T12:27:49Z</time>
      </trkpt>
      <trkpt lat="45.95367" lon="4.04281">
        <ele>446</ele>
        <time>2019-04-17T12:28:49Z</time>
      </trkpt>
      <trkpt lat="45.9535" lon="4.04293">
        <ele>447</ele>
        <time>2019-04-17T12:29:49Z</time>
      </trkpt>
      <trkpt lat="45.95337" lon="4.0431">
        <ele>449</ele>
        <time>2019-04-17T12:30:49Z</time>
      </trkpt>
      <trkpt lat="45.95301" lon="4.04382">
        <ele>453</ele>
        <time>2019-04-17T12:31:49Z</time>
      </trkpt>
      <trkpt lat="45.95285" lon="4.0441">
        <ele>454</ele>
        <time>2019-04-17T12:32:49Z</time>
      </trkpt>
      <trkpt lat="45.9527" lon="4.04428">
        <ele>455</ele>
        <time>2019-04-17T12:33:49Z</time>
      </trkpt>
      <trkpt lat="45.95251" lon="4.04445">
        <ele>456</ele>
        <time>2019-04-17T12:34:49Z</time>
      </trkpt>
      <trkpt lat="45.9523" lon="4.04458">
        <ele>457</ele>
        <time>2019-04-17T12:35:49Z</time>
      </trkpt>
      <trkpt lat="45.95213" lon="4.04465">
        <ele>458</ele>
        <time>2019-04-17T12:36:49Z</time>
      </trkpt>
      <trkpt lat="45.95131" lon="4.04489">
        <ele>461</ele>
        <time>2019-04-17T12:37:49Z</time>
      </trkpt>
      <trkpt lat="45.95089" lon="4.0451">
        <ele>462</ele>
        <time>2019-04-17T12:38:49Z</time>
      </trkpt>
      <trkpt lat="45.95001" lon="4.04569">
        <ele>463</ele>
        <time>2019-04-17T12:39:49Z</time>
      </trkpt>
      <trkpt lat="45.94949" lon="4.04615">
        <ele>463</ele>
        <time>2019-04-17T12:40:49Z</time>
      </trkpt>
      <trkpt lat="45.94929" lon="4.04638">
        <ele>462</ele>
        <time>2019-04-17T12:41:49Z</time>
      </trkpt>
      <trkpt lat="45.94921" lon="4.04653">
        <ele>461</ele>
        <time>2019-04-17T12:42:49Z</time>
      </trkpt>
      <trkpt lat="45.94895" lon="4.04748">
        <ele>456</ele>
        <time>2019-04-17T12:43:49Z</time>
      </trkpt>
      <trkpt lat="45.94883" lon="4.04779">
        <ele>455</ele>
        <time>2019-04-17T12:44:49Z</time>
      </trkpt>
      <trkpt lat="45.94864" lon="4.04815">
        <ele>454</ele>
        <time>2019-04-17T12:45:49Z</time>
      </trkpt>
      <trkpt lat="45.94821" lon="4.04884">
        <ele>454</ele>
        <time>2019-04-17T12:46:49Z</time>
      </trkpt>
      <trkpt lat="45.94798" lon="4.04905">
        <ele>454</ele>
        <time>2019-04-17T12:47:49Z</time>
      </trkpt>
      <trkpt lat="45.94771" lon="4.0492">
        <ele>455</ele>
        <time>2019-04-17T12:48:49Z</time>
      </trkpt>
      <trkpt lat="45.94672" lon="4.04959">
        <ele>459</ele>
        <time>2019-04-17T12:49:49Z</time>
      </trkpt>
      <trkpt lat="45.9465" lon="4.04975">
        <ele>460</ele>
        <time>2019-04-17T12:50:49Z</time>
      </trkpt>
      <trkpt lat="45.94632" lon="4.04992">
        <ele>461</ele>
        <time>2019-04-17T12:51:49Z</time>
      </trkpt>
      <trkpt lat="45.94615" lon="4.05011">
        <ele>461</ele>
        <time>2019-04-17T12:52:49Z</time>
      </trkpt>
      <trkpt lat="45.946" lon="4.05035">
        <ele>462</ele>
        <time>2019-04-17T12:53:49Z</time>
      </trkpt>
      <trkpt lat="45.94513" lon="4.05194">
        <ele>460</ele>
        <time>2019-04-17T12:54:49Z</time>
      </trkpt>
      <trkpt lat="45.94499" lon="4.05216">
        <ele>459</ele>
        <time>2019-04-17T12:55:49Z</time>
      </trkpt>
      <trkpt lat="45.94482" lon="4.05237">
        <ele>458</ele>
        <time>2019-04-17T12:56:49Z</time>
      </trkpt>
      <trkpt lat="45.94442" lon="4.05274">
        <ele>458</ele>
        <time>2019-04-17T12:57:49Z</time>
      </trkpt>
      <trkpt lat="45.94379" lon="4.05326">
        <ele>460</ele>
        <time>2019-04-17T12:58:49Z</time>
      </trkpt>
      <trkpt lat="45.94155" lon="4.05538">
        <ele>476</ele>
        <time>2019-04-17T12:59:49Z</time>
      </trkpt>
      <trkpt lat="45.9411" lon="4.05579">
        <ele>477</ele>
        <time>2019-04-17T13:00:49Z</time>
      </trkpt>
      <trkpt lat="45.94054" lon="4.05617">
        <ele>476</ele>
        <time>2019-04-17T13:01:49Z</time>
      </trkpt>
      <trkpt lat="45.93979" lon="4.05644">
        <ele>473</ele>
        <time>2019-04-17T13:02:49Z</time>
      </trkpt>
      <trkpt lat="45.93955" lon="4.05655">
        <ele>472</ele>
        <time>2019-04-17T13:03:49Z</time>
      </trkpt>
      <trkpt lat="45.93742" lon="4.05779">
        <ele>464</ele>
        <time>2019-04-17T13:04:49Z</time>
      </trkpt>
      <trkpt lat="45.93716" lon="4.05792">
        <ele>463</ele>
        <time>2019-04-17T13:05:49Z</time>
      </trkpt>
      <trkpt lat="45.93701" lon="4.05796">
        <ele>462</ele>
        <time>2019-04-17T13:06:49Z</time>
      </trkpt>
      <trkpt lat="45.93685" lon="4.05796">
        <ele>461</ele>
        <time>2019-04-17T13:07:49Z</time>
      </trkpt>
      <trkpt lat="45.93526" lon="4.05771">
        <ele>452</ele>
        <time>2019-04-17T13:08:49Z</time>
      </trkpt>
      <trkpt lat="45.93493" lon="4.05759">
        <ele>450</ele>
        <time>2019-04-17T13:09:49Z</time>
      </trkpt>
      <trkpt lat="45.93479" lon="4.05748">
        <ele>449</ele>
        <time>2019-04-17T13:10:49Z</time>
      </trkpt>
      <trkpt lat="45.93469" lon="4.05734">
        <ele>449</ele>
        <time>2019-04-17T13:11:49Z</time>
      </trkpt>
      <trkpt lat="45.93459" lon="4.05714">
        <ele>449</ele>
        <time>2019-04-17T13:12:49Z</time>
      </trkpt>
      <trkpt lat="45.93423" lon="4.05625">
        <ele>451</ele>
        <time>2019-04-17T13:13:49Z</time>
      </trkpt>
      <trkpt lat="45.93416" lon="4.05616">
        <ele>452</ele>
        <time>2019-04-17T13:14:49Z</time>
      </trkpt>
      <trkpt lat="45.93392" lon="4.05597">
        <ele>452</ele>
        <time>2019-04-17T13:15:49Z</time>
      </trkpt>
      <trkpt lat="45.93378" lon="4.05594">
        <ele>452</ele>
        <time>2019-04-17T13:16:49Z</time>
      </trkpt>
      <trkpt lat="45.93173" lon="4.05603">
        <ele>440</ele>
        <time>2019-04-17T13:17:49Z</time>
      </trkpt>
      <trkpt lat="45.9315" lon="4.05602">
        <ele>437</ele>
        <time>2019-04-17T13:18:49Z</time>
      </trkpt>
      <trkpt lat="45.93134" lon="4.05594">
        <ele>436</ele>
        <time>2019-04-17T13:19:49Z</time>
      </trkpt>
      <trkpt lat="45.93122" lon="4.05582">
        <ele>436</ele>
        <time>2019-04-17T13:20:49Z</time>
      </trkpt>
      <trkpt lat="45.93112" lon="4.05568">
        <ele>435</ele>
        <time>2019-04-17T13:21:49Z</time>
      </trkpt>
      <trkpt lat="45.93104" lon="4.05547">
        <ele>435</ele>
        <time>2019-04-17T13:22:49Z</time>
      </trkpt>
      <trkpt lat="45.93099" lon="4.05528">
        <ele>436</ele>
        <time>2019-04-17T13:23:49Z</time>
      </trkpt>
      <trkpt lat="45.93097" lon="4.05503">
        <ele>437</ele>
        <time>2019-04-17T13:24:49Z</time>
      </trkpt>
      <trkpt lat="45.93098" lon="4.05465">
        <ele>437</ele>
        <time>2019-04-17T13:25:49Z</time>
      </trkpt>
      <trkpt lat="45.93094" lon="4.05394">
        <ele>435</ele>
        <time>2019-04-17T13:26:49Z</time>
      </trkpt>
      <trkpt lat="45.93079" lon="4.05319">
        <ele>431</ele>
        <time>2019-04-17T13:27:49Z</time>
      </trkpt>
      <trkpt lat="45.93062" lon="4.05244">
        <ele>427</ele>
        <time>2019-04-17T13:28:49Z</time>
      </trkpt>
      <trkpt lat="45.93053" lon="4.052">
        <ele>425</ele>
        <time>2019-04-17T13:29:49Z</time>
      </trkpt>
      <trkpt lat="45.93051" lon="4.05158">
        <ele>425</ele>
        <time>2019-04-17T13:30:49Z</time>
      </trkpt>
      <trkpt lat="45.93055" lon="4.05066">
        <ele>422</ele>
        <time>2019-04-17T13:31:49Z</time>
      </trkpt>
      <trkpt lat="45.93054" lon="4.0505">
        <ele>421</ele>
        <time>2019-04-17T13:32:49Z</time>
      </trkpt>
      <trkpt lat="45.93051" lon="4.05038">
        <ele>420</ele>
        <time>2019-04-17T13:33:49Z</time>
      </trkpt>
      <trkpt lat="45.93044" lon="4.05029">
        <ele>418</ele>
        <time>2019-04-17T13:34:49Z</time>
      </trkpt>
      <trkpt lat="45.93034" lon="4.05023">
        <ele>416</ele>
        <time>2019-04-17T13:35:49Z</time>
      </trkpt>
      <trkpt lat="45.93018" lon="4.05024">
        <ele>413</ele>
        <time>2019-04-17T13:36:49Z</time>
      </trkpt>
      <trkpt lat="45.93007" lon="4.05035">
        <ele>412</ele>
        <time>2019-04-17T13:37:49Z</time>
      </trkpt>
      <trkpt lat="45.92997" lon="4.05059">
        <ele>411</ele>
        <time>2019-04-17T13:38:49Z</time>
      </trkpt>
      <trkpt lat="45.92975" lon="4.05124">
        <ele>407</ele>
        <time>2019-04-17T13:39:49Z</time>
      </trkpt>
      <trkpt lat="45.9295" lon="4.05168">
        <ele>403</ele>
        <time>2019-04-17T13:40:49Z</time>
      </trkpt>
      <trkpt lat="45.92899" lon="4.05226">
        <ele>392</ele>
        <time>2019-04-17T13:41:49Z</time>
      </trkpt>
      <trkpt lat="45.92885" lon="4.05257">
        <ele>389</ele>
        <time>2019-04-17T13:42:49Z</time>
      </trkpt>
      <trkpt lat="45.92879" lon="4.05285">
        <ele>387</ele>
        <time>2019-04-17T13:43:49Z</time>
      </trkpt>
      <trkpt lat="45.92877" lon="4.05314">
        <ele>386</ele>
        <time>2019-04-17T13:44:49Z</time>
      </trkpt>
      <trkpt lat="45.92886" lon="4.05371">
        <ele>389</ele>
        <time>2019-04-17T13:45:49Z</time>
      </trkpt>
      <trkpt lat="45.92889" lon="4.05401">
        <ele>390</ele>
        <time>2019-04-17T13:46:49Z</time>
      </trkpt>
      <trkpt lat="45.92885" lon="4.05424">
        <ele>390</ele>
        <time>2019-04-17T13:47:49Z</time>
      </trkpt>
      <trkpt lat="45.92876" lon="4.05443">
        <ele>388</ele>
        <time>2019-04-17T13:48:49Z</time>
      </trkpt>
      <trkpt lat="45.92864" lon="4.05453">
        <ele>385</ele>
        <time>2019-04-17T13:49:49Z</time>
      </trkpt>
      <trkpt lat="45.9285" lon="4.05459">
        <ele>382</ele>
        <time>2019-04-17T13:50:49Z</time>
      </trkpt>
      <trkpt lat="45.92837" lon="4.0546">
        <ele>379</ele>
        <time>2019-04-17T13:51:49Z</time>
      </trkpt>
      <trkpt lat="45.92822" lon="4.05454">
        <ele>379</ele>
        <time>2019-04-17T13:52:49Z</time>
      </trkpt>
      <trkpt lat="45.92803" lon="4.05439">
        <ele>381</ele>
        <time>2019-04-17T13:53:49Z</time>
      </trkpt>
      <trkpt lat="45.92755" lon="4.05393">
        <ele>382</ele>
        <time>2019-04-17T13:54:49Z</time>
      </trkpt>
      <trkpt lat="45.92739" lon="4.05376">
        <ele>383</ele>
        <time>2019-04-17T13:55:49Z</time>
      </trkpt>
      <trkpt lat="45.9273" lon="4.05354">
        <ele>383</ele>
        <time>2019-04-17T13:56:49Z</time>
      </trkpt>
      <trkpt lat="45.92717" lon="4.05286">
        <ele>382</ele>
        <time>2019-04-17T13:57:49Z</time>
      </trkpt>
      <trkpt lat="45.92709" lon="4.05259">
        <ele>383</ele>
        <time>2019-04-17T13:58:49Z</time>
      </trkpt>
      <trkpt lat="45.92695" lon="4.05234">
        <ele>384</ele>
        <time>2019-04-17T13:59:49Z</time>
      </trkpt>
      <trkpt lat="45.92658" lon="4.05186">
        <ele>388</ele>
        <time>2019-04-17T14:00:49Z</time>
      </trkpt>
      <trkpt lat="45.9263" lon="4.05156">
        <ele>389</ele>
        <time>2019-04-17T14:01:49Z</time>
      </trkpt>
      <trkpt lat="45.92609" lon="4.05141">
        <ele>391</ele>
        <time>2019-04-17T14:02:49Z</time>
      </trkpt>
      <trkpt lat="45.92587" lon="4.0513">
        <ele>393</ele>
        <time>2019-04-17T14:03:49Z</time>
      </trkpt>
      <trkpt lat="45.92559" lon="4.05125">
        <ele>396</ele>
        <time>2019-04-17T14:04:49Z</time>
      </trkpt>
      <trkpt lat="45.92526" lon="4.05126">
        <ele>398</ele>
        <time>2019-04-17T14:05:49Z</time>
      </trkpt>
      <trkpt lat="45.92295" lon="4.0514">
        <ele>400</ele>
        <time>2019-04-17T14:06:49Z</time>
      </trkpt>
      <trkpt lat="45.9227" lon="4.05144">
        <ele>399</ele>
        <time>2019-04-17T14:07:49Z</time>
      </trkpt>
      <trkpt lat="45.9224" lon="4.0516">
        <ele>400</ele>
        <time>2019-04-17T14:08:49Z</time>
      </trkpt>
      <trkpt lat="45.9223" lon="4.05172">
        <ele>400</ele>
        <time>2019-04-17T14:09:49Z</time>
      </trkpt>
      <trkpt lat="45.92214" lon="4.05194">
        <ele>399</ele>
        <time>2019-04-17T14:10:49Z</time>
      </trkpt>
      <trkpt lat="45.922" lon="4.05221">
        <ele>400</ele>
        <time>2019-04-17T14:11:49Z</time>
      </trkpt>
      <trkpt lat="45.92177" lon="4.05272">
        <ele>402</ele>
        <time>2019-04-17T14:12:49Z</time>
      </trkpt>
      <trkpt lat="45.92166" lon="4.05291">
        <ele>403</ele>
        <time>2019-04-17T14:13:49Z</time>
      </trkpt>
      <trkpt lat="45.92154" lon="4.05305">
        <ele>404</ele>
        <time>2019-04-17T14:14:49Z</time>
      </trkpt>
      <trkpt lat="45.92139" lon="4.05317">
        <ele>404</ele>
        <time>2019-04-17T14:15:49Z</time>
      </trkpt>
      <trkpt lat="45.92121" lon="4.05328">
        <ele>404</ele>
        <time>2019-04-17T14:16:49Z</time>
      </trkpt>
      <trkpt lat="45.92061" lon="4.05359">
        <ele>400</ele>
        <time>2019-04-17T14:17:49Z</time>
      </trkpt>
      <trkpt lat="45.92034" lon="4.05378">
        <ele>399</ele>
        <time>2019-04-17T14:18:49Z</time>
      </trkpt>
      <trkpt lat="45.92002" lon="4.05413">
        <ele>399</ele>
        <time>2019-04-17T14:19:49Z</time>
      </trkpt>
      <trkpt lat="45.9199" lon="4.05432">
        <ele>398</ele>
        <time>2019-04-17T14:20:49Z</time>
      </trkpt>
      <trkpt lat="45.91976" lon="4.05459">
        <ele>399</ele>
        <time>2019-04-17T14:21:49Z</time>
      </trkpt>
      <trkpt lat="45.91961" lon="4.05497">
        <ele>402</ele>
        <time>2019-04-17T14:22:49Z</time>
      </trkpt>
      <trkpt lat="45.91956" lon="4.05517">
        <ele>402</ele>
        <time>2019-04-17T14:23:49Z</time>
      </trkpt>
      <trkpt lat="45.91945" lon="4.05596">
        <ele>403</ele>
        <time>2019-04-17T14:24:49Z</time>
      </trkpt>
      <trkpt lat="45.91942" lon="4.05655">
        <ele>404</ele>
        <time>2019-04-17T14:25:49Z</time>
      </trkpt>
      <trkpt lat="45.91934" lon="4.05696">
        <ele>404</ele>
        <time>2019-04-17T14:26:49Z</time>
      </trkpt>
      <trkpt lat="45.91928" lon="4.05716">
        <ele>404</ele>
        <time>2019-04-17T14:27:49Z</time>
      </trkpt>
      <trkpt lat="45.91904" lon="4.05757">
        <ele>403</ele>
        <time>2019-04-17T14:28:49Z</time>
      </trkpt>
      <trkpt lat="45.9189" lon="4.05775">
        <ele>402</ele>
        <time>2019-04-17T14:29:49Z</time>
      </trkpt>
      <trkpt lat="45.91879" lon="4.05796">
        <ele>403</ele>
        <time>2019-04-17T14:30:49Z</time>
      </trkpt>
      <trkpt lat="45.91871" lon="4.05819">
        <ele>404</ele>
        <time>2019-04-17T14:31:49Z</time>
      </trkpt>
      <trkpt lat="45.91867" lon="4.05843">
        <ele>404</ele>
        <time>2019-04-17T14:32:49Z</time>
      </trkpt>
      <trkpt lat="45.91866" lon="4.05863">
        <ele>403</ele>
        <time>2019-04-17T14:33:49Z</time>
      </trkpt>
      <trkpt lat="45.91867" lon="4.05883">
        <ele>402</ele>
        <time>2019-04-17T14:34:49Z</time>
      </trkpt>
      <trkpt lat="45.9187" lon="4.05902">
        <ele>401</ele>
        <time>2019-04-17T14:35:49Z</time>
      </trkpt>
      <trkpt lat="45.91877" lon="4.05925">
        <ele>400</ele>
        <time>2019-04-17T14:36:49Z</time>
      </trkpt>
      <trkpt lat="45.91953" lon="4.0611">
        <ele>396</ele>
        <time>2019-04-17T14:37:49Z</time>
      </trkpt>
      <trkpt lat="45.91965" lon="4.06146">
        <ele>395</ele>
        <time>2019-04-17T14:38:49Z</time>
      </trkpt>
      <trkpt lat="45.9197" lon="4.06169">
        <ele>394</ele>
        <time>2019-04-17T14:39:49Z</time>
      </trkpt>
      <trkpt lat="45.91974" lon="4.06192">
        <ele>393</ele>
        <time>2019-04-17T14:40:49Z</time>
      </trkpt>
      <trkpt lat="45.91977" lon="4.06218">
        <ele>393</ele>
        <time>2019-04-17T14:41:49Z</time>
      </trkpt>
      <trkpt lat="45.91973" lon="4.06262">
        <ele>391</ele>
        <time>2019-04-17T14:42:49Z</time>
      </trkpt>
      <trkpt lat="45.91963" lon="4.06307">
        <ele>393</ele>
        <time>2019-04-17T14:43:49Z</time>
      </trkpt>
      <trkpt lat="45.91944" lon="4.0636">
        <ele>395</ele>
        <time>2019-04-17T14:44:49Z</time>
      </trkpt>
      <trkpt lat="45.91899" lon="4.06457">
        <ele>401</ele>
        <time>2019-04-17T14:45:49Z</time>
      </trkpt>
      <trkpt lat="45.91868" lon="4.06532">
        <ele>400</ele>
        <time>2019-04-17T14:46:49Z</time>
      </trkpt>
      <trkpt lat="45.91857" lon="4.06579">
        <ele>396</ele>
        <time>2019-04-17T14:47:49Z</time>
      </trkpt>
      <trkpt lat="45.91854" lon="4.06621">
        <ele>393</ele>
        <time>2019-04-17T14:48:49Z</time>
      </trkpt>
      <trkpt lat="45.91855" lon="4.06646">
        <ele>392</ele>
        <time>2019-04-17T14:49:49Z</time>
      </trkpt>
      <trkpt lat="45.91859" lon="4.06669">
        <ele>391</ele>
        <time>2019-04-17T14:50:49Z</time>
      </trkpt>
      <trkpt lat="45.91877" lon="4.06714">
        <ele>387</ele>
        <time>2019-04-17T14:51:49Z</time>
      </trkpt>
      <trkpt lat="45.91891" lon="4.06738">
        <ele>385</ele>
        <time>2019-04-17T14:52:49Z</time>
      </trkpt>
      <trkpt lat="45.91905" lon="4.06757">
        <ele>383</ele>
        <time>2019-04-17T14:53:49Z</time>
      </trkpt>
      <trkpt lat="45.9194" lon="4.0679">
        <ele>380</ele>
        <time>2019-04-17T14:54:49Z</time>
      </trkpt>
      <trkpt lat="45.92029" lon="4.06855">
        <ele>376</ele>
        <time>2019-04-17T14:55:49Z</time>
      </trkpt>
      <trkpt lat="45.9204" lon="4.06866">
        <ele>375</ele>
        <time>2019-04-17T14:56:49Z</time>
      </trkpt>
      <trkpt lat="45.92048" lon="4.06879">
        <ele>374</ele>
        <time>2019-04-17T14:57:49Z</time>
      </trkpt>
      <trkpt lat="45.92055" lon="4.06893">
        <ele>372</ele>
        <time>2019-04-17T14:58:49Z</time>
      </trkpt>
      <trkpt lat="45.92057" lon="4.06907">
        <ele>370</ele>
        <time>2019-04-17T14:59:49Z</time>
      </trkpt>
      <trkpt lat="45.92057" lon="4.06922">
        <ele>369</ele>
        <time>2019-04-17T15:00:49Z</time>
      </trkpt>
      <trkpt lat="45.92055" lon="4.06937">
        <ele>369</ele>
        <time>2019-04-17T15:01:49Z</time>
      </trkpt>
      <trkpt lat="45.9205" lon="4.06954">
        <ele>369</ele>
        <time>2019-04-17T15:02:49Z</time>
      </trkpt>
      <trkpt lat="45.92043" lon="4.06965">
        <ele>369</ele>
        <time>2019-04-17T15:03:49Z</time>
      </trkpt>
      <trkpt lat="45.92032" lon="4.06979">
        <ele>368</ele>
        <time>2019-04-17T15:04:49Z</time>
      </trkpt>
      <trkpt lat="45.91996" lon="4.06996">
        <ele>364</ele>
        <time>2019-04-17T15:05:49Z</time>
      </trkpt>
      <trkpt lat="45.91965" lon="4.07001">
        <ele>363</ele>
        <time>2019-04-17T15:06:49Z</time>
      </trkpt>
      <trkpt lat="45.91935" lon="4.07002">
        <ele>361</ele>
        <time>2019-04-17T15:07:49Z</time>
      </trkpt>
      <trkpt lat="45.91908" lon="4.06996">
        <ele>360</ele>
        <time>2019-04-17T15:08:49Z</time>
      </trkpt>
      <trkpt lat="45.91785" lon="4.06952">
        <ele>351</ele>
        <time>2019-04-17T15:09:49Z</time>
      </trkpt>
      <trkpt lat="45.91727" lon="4.06935">
        <ele>344</ele>
        <time>2019-04-17T15:10:49Z</time>
      </trkpt>
      <trkpt lat="45.91692" lon="4.06935">
        <ele>341</ele>
        <time>2019-04-17T15:11:49Z</time>
      </trkpt>
      <trkpt lat="45.91618" lon="4.06947">
        <ele>336</ele>
        <time>2019-04-17T15:12:49Z</time>
      </trkpt>
      <trkpt lat="45.91584" lon="4.06957">
        <ele>333</ele>
        <time>2019-04-17T15:13:49Z</time>
      </trkpt>
      <trkpt lat="45.91568" lon="4.06968">
        <ele>332</ele>
        <time>2019-04-17T15:14:49Z</time>
      </trkpt>
      <trkpt lat="45.9155" lon="4.06985">
        <ele>331</ele>
        <time>2019-04-17T15:15:49Z</time>
      </trkpt>
      <trkpt lat="45.91524" lon="4.07023">
        <ele>329</ele>
        <time>2019-04-17T15:16:49Z</time>
      </trkpt>
      <trkpt lat="45.91514" lon="4.07046">
        <ele>328</ele>
        <time>2019-04-17T15:17:49Z</time>
      </trkpt>
      <trkpt lat="45.91505" lon="4.07075">
        <ele>327</ele>
        <time>2019-04-17T15:18:49Z</time>
      </trkpt>
      <trkpt lat="45.91387" lon="4.0749">
        <ele>326</ele>
        <time>2019-04-17T15:19:49Z</time>
      </trkpt>
      <trkpt lat="45.91374" lon="4.07545">
        <ele>325</ele>
        <time>2019-04-17T15:20:49Z</time>
      </trkpt>
      <trkpt lat="45.91371" lon="4.07569">
        <ele>325</ele>
        <time>2019-04-17T15:21:49Z</time>
      </trkpt>
      <trkpt lat="45.91372" lon="4.0768">
        <ele>324</ele>
        <time>2019-04-17T15:22:49Z</time>
      </trkpt>
      <trkpt lat="45.91366" lon="4.07715">
        <ele>322</ele>
        <time>2019-04-17T15:23:49Z</time>
      </trkpt>
      <trkpt lat="45.91352" lon="4.07751">
        <ele>320</ele>
        <time>2019-04-17T15:24:49Z</time>
      </trkpt>
      <trkpt lat="45.9133" lon="4.07788">
        <ele>323</ele>
        <time>2019-04-17T15:25:49Z</time>
      </trkpt>
      <trkpt lat="45.91269" lon="4.07851">
        <ele>327</ele>
        <time>2019-04-17T15:26:49Z</time>
      </trkpt>
      <trkpt lat="45.91242" lon="4.07886">
        <ele>332</ele>
        <time>2019-04-17T15:27:49Z</time>
      </trkpt>
      <trkpt lat="45.91224" lon="4.07915">
        <ele>333</ele>
        <time>2019-04-17T15:28:49Z</time>
      </trkpt>
      <trkpt lat="45.91214" lon="4.07944">
        <ele>334</ele>
        <time>2019-04-17T15:29:49Z</time>
      </trkpt>
      <trkpt lat="45.91202" lon="4.07992">
        <ele>336</ele>
        <time>2019-04-17T15:30:49Z</time>
      </trkpt>
      <trkpt lat="45.91187" lon="4.0808">
        <ele>336</ele>
        <time>2019-04-17T15:31:49Z</time>
      </trkpt>
      <trkpt lat="45.91177" lon="4.08115">
        <ele>337</ele>
        <time>2019-04-17T15:32:49Z</time>
      </trkpt>
      <trkpt lat="45.9114" lon="4.0821">
        <ele>339</ele>
        <time>2019-04-17T15:33:49Z</time>
      </trkpt>
      <trkpt lat="45.91129" lon="4.08257">
        <ele>340</ele>
        <time>2019-04-17T15:34:49Z</time>
      </trkpt>
      <trkpt lat="45.91109" lon="4.08357">
        <ele>341</ele>
        <time>2019-04-17T15:35:49Z</time>
      </trkpt>
      <trkpt lat="45.91093" lon="4.08416">
        <ele>339</ele>
        <time>2019-04-17T15:36:49Z</time>
      </trkpt>
      <trkpt lat="45.9104" lon="4.08533">
        <ele>343</ele>
        <time>2019-04-17T15:37:49Z</time>
      </trkpt>
      <trkpt lat="45.90982" lon="4.08656">
        <ele>345</ele>
        <time>2019-04-17T15:38:49Z</time>
      </trkpt>
      <trkpt lat="45.90966" lon="4.08684">
        <ele>345</ele>
        <time>2019-04-17T15:39:49Z</time>
      </trkpt>
      <trkpt lat="45.90949" lon="4.08704">
        <ele>344</ele>
        <time>2019-04-17T15:40:49Z</time>
      </trkpt>
      <trkpt lat="45.90933" lon="4.08718">
        <ele>343</ele>
        <time>2019-04-17T15:41:49Z</time>
      </trkpt>
      <trkpt lat="45.9091" lon="4.08728">
        <ele>341</ele>
        <time>2019-04-17T15:42:49Z</time>
      </trkpt>
      <trkpt lat="45.90838" lon="4.08748">
        <ele>336</ele>
        <time>2019-04-17T15:43:49Z</time>
      </trkpt>
      <trkpt lat="45.90816" lon="4.08761">
        <ele>335</ele>
        <time>2019-04-17T15:44:49Z</time>
      </trkpt>
      <trkpt lat="45.90793" lon="4.08778">
        <ele>333</ele>
        <time>2019-04-17T15:45:49Z</time>
      </trkpt>
      <trkpt lat="45.90776" lon="4.088">
        <ele>333</ele>
        <time>2019-04-17T15:46:49Z</time>
      </trkpt>
      <trkpt lat="45.90766" lon="4.08822">
        <ele>333</ele>
        <time>2019-04-17T15:47:49Z</time>
      </trkpt>
      <trkpt lat="45.9076" lon="4.08847">
        <ele>333</ele>
        <time>2019-04-17T15:48:49Z</time>
      </trkpt>
      <trkpt lat="45.90758" lon="4.08877">
        <ele>333</ele>
        <time>2019-04-17T15:49:49Z</time>
      </trkpt>
      <trkpt lat="45.9076" lon="4.08909">
        <ele>334</ele>
        <time>2019-04-17T15:50:49Z</time>
      </trkpt>
      <trkpt lat="45.9077" lon="4.08974">
        <ele>337</ele>
        <time>2019-04-17T15:51:49Z</time>
      </trkpt>
      <trkpt lat="45.90778" lon="4.09047">
        <ele>340</ele>
        <time>2019-04-17T15:52:49Z</time>
      </trkpt>
      <trkpt lat="45.90778" lon="4.09078">
        <ele>342</ele>
        <time>2019-04-17T15:53:49Z</time>
      </trkpt>
      <trkpt lat="45.90771" lon="4.09105">
        <ele>342</ele>
        <time>2019-04-17T15:54:49Z</time>
      </trkpt>
      <trkpt lat="45.9076" lon="4.0913">
        <ele>342</ele>
        <time>2019-04-17T15:55:49Z</time>
      </trkpt>
      <trkpt lat="45.9074" lon="4.09151">
        <ele>343</ele>
        <time>2019-04-17T15:56:49Z</time>
      </trkpt>
      <trkpt lat="45.90718" lon="4.09165">
        <ele>343</ele>
        <time>2019-04-17T15:57:49Z</time>
      </trkpt>
      <trkpt lat="45.90357" lon="4.09333">
        <ele>336</ele>
        <time>2019-04-17T15:58:49Z</time>
      </trkpt>
      <trkpt lat="45.90136" lon="4.09427">
        <ele>340</ele>
        <time>2019-04-17T15:59:49Z</time>
      </trkpt>
      <trkpt lat="45.8993" lon="4.09563">
        <ele>345</ele>
        <time>2019-04-17T16:00:49Z</time>
      </trkpt>
      <trkpt lat="45.89887" lon="4.09574">
        <ele>345</ele>
        <time>2019-04-17T16:01:49Z</time>
      </trkpt>
      <trkpt lat="45.89845" lon="4.09566">
        <ele>343</ele>
        <time>2019-04-17T16:02:49Z</time>
      </trkpt>
      <trkpt lat="45.89816" lon="4.09568">
        <ele>340</ele>
        <time>2019-04-17T16:03:49Z</time>
      </trkpt>
      <trkpt lat="45.89796" lon="4.09575">
        <ele>339</ele>
        <time>2019-04-17T16:04:49Z</time>
      </trkpt>
      <trkpt lat="45.89781" lon="4.09586">
        <ele>338</ele>
        <time>2019-04-17T16:05:49Z</time>
      </trkpt>
      <trkpt lat="45.89756" lon="4.09623">
        <ele>336</ele>
        <time>2019-04-17T16:06:49Z</time>
      </trkpt>
      <trkpt lat="45.89749" lon="4.09642">
        <ele>335</ele>
        <time>2019-04-17T16:07:49Z</time>
      </trkpt>
      <trkpt lat="45.89745" lon="4.09659">
        <ele>336</ele>
        <time>2019-04-17T16:08:49Z</time>
      </trkpt>
      <trkpt lat="45.89742" lon="4.09683">
        <ele>336</ele>
        <time>2019-04-17T16:09:49Z</time>
      </trkpt>
      <trkpt lat="45.89741" lon="4.09713">
        <ele>336</ele>
        <time>2019-04-17T16:10:49Z</time>
      </trkpt>
      <trkpt lat="45.89743" lon="4.09814">
        <ele>336</ele>
        <time>2019-04-17T16:11:49Z</time>
      </trkpt>
      <trkpt lat="45.89741" lon="4.09849">
        <ele>337</ele>
        <time>2019-04-17T16:12:49Z</time>
      </trkpt>
      <trkpt lat="45.89729" lon="4.099">
        <ele>339</ele>
        <time>2019-04-17T16:13:49Z</time>
      </trkpt>
      <trkpt lat="45.89699" lon="4.09983">
        <ele>336</ele>
        <time>2019-04-17T16:14:49Z</time>
      </trkpt>
      <trkpt lat="45.89688" lon="4.10027">
        <ele>334</ele>
        <time>2019-04-17T16:15:49Z</time>
      </trkpt>
      <trkpt lat="45.89685" lon="4.10062">
        <ele>333</ele>
        <time>2019-04-17T16:16:49Z</time>
      </trkpt>
      <trkpt lat="45.89688" lon="4.1009">
        <ele>334</ele>
        <time>2019-04-17T16:17:49Z</time>
      </trkpt>
      <trkpt lat="45.89704" lon="4.10149">
        <ele>333</ele>
        <time>2019-04-17T16:18:49Z</time>
      </trkpt>
      <trkpt lat="45.89708" lon="4.10179">
        <ele>332</ele>
        <time>2019-04-17T16:19:49Z</time>
      </trkpt>
      <trkpt lat="45.89707" lon="4.10206">
        <ele>332</ele>
        <time>2019-04-17T16:20:49Z</time>
      </trkpt>
      <trkpt lat="45.89704" lon="4.10239">
        <ele>331</ele>
        <time>2019-04-17T16:21:49Z</time>
      </trkpt>
      <trkpt lat="45.89693" lon="4.10273">
        <ele>330</ele>
        <time>2019-04-17T16:22:49Z</time>
      </trkpt>
      <trkpt lat="45.89658" lon="4.10369">
        <ele>331</ele>
        <time>2019-04-17T16:23:49Z</time>
      </trkpt>
      <trkpt lat="45.89645" lon="4.10415">
        <ele>334</ele>
        <time>2019-04-17T16:24:49Z</time>
      </trkpt>
      <trkpt lat="45.89635" lon="4.10466">
        <ele>335</ele>
        <time>2019-04-17T16:25:49Z</time>
      </trkpt>
      <trkpt lat="45.89633" lon="4.10508">
        <ele>338</ele>
        <time>2019-04-17T16:26:49Z</time>
      </trkpt>
      <trkpt lat="45.89636" lon="4.10548">
        <ele>341</ele>
        <time>2019-04-17T16:27:49Z</time>
      </trkpt>
      <trkpt lat="45.89659" lon="4.10707">
        <ele>347</ele>
        <time>2019-04-17T16:28:49Z</time>
      </trkpt>
      <trkpt lat="45.89666" lon="4.10749">
        <ele>347</ele>
        <time>2019-04-17T16:29:49Z</time>
      </trkpt>
      <trkpt lat="45.89667" lon="4.10793">
        <ele>343</ele>
        <time>2019-04-17T16:30:49Z</time>
      </trkpt>
      <trkpt lat="45.89663" lon="4.10829">
        <ele>340</ele>
        <time>2019-04-17T16:31:49Z</time>
      </trkpt>
      <trkpt lat="45.8965" lon="4.10864">
        <ele>341</ele>
        <time>2019-04-17T16:32:49Z</time>
      </trkpt>
      <trkpt lat="45.89637" lon="4.10882">
        <ele>341</ele>
        <time>2019-04-17T16:33:49Z</time>
      </trkpt>
      <trkpt lat="45.89622" lon="4.10897">
        <ele>342</ele>
        <time>2019-04-17T16:34:49Z</time>
      </trkpt>
      <trkpt lat="45.89602" lon="4.10909">
        <ele>343</ele>
        <time>2019-04-17T16:35:49Z</time>
      </trkpt>
      <trkpt lat="45.89576" lon="4.10916">
        <ele>344</ele>
        <time>2019-04-17T16:36:49Z</time>
      </trkpt>
      <trkpt lat="45.89461" lon="4.10923">
        <ele>350</ele>
        <time>2019-04-17T16:37:49Z</time>
      </trkpt>
      <trkpt lat="45.89413" lon="4.10928">
        <ele>350</ele>
        <time>2019-04-17T16:38:49Z</time>
      </trkpt>
      <trkpt lat="45.89369" lon="4.10936">
        <ele>345</ele>
        <time>2019-04-17T16:39:49Z</time>
      </trkpt>
      <trkpt lat="45.89283" lon="4.10964">
        <ele>348</ele>
        <time>2019-04-17T16:40:49Z</time>
      </trkpt>
      <trkpt lat="45.89248" lon="4.10982">
        <ele>353</ele>
        <time>2019-04-17T16:41:49Z</time>
      </trkpt>
      <trkpt lat="45.89073" lon="4.11105">
        <ele>373</ele>
        <time>2019-04-17T16:42:49Z</time>
      </trkpt>
      <trkpt lat="45.89049" lon="4.11126">
        <ele>374</ele>
        <time>2019-04-17T16:43:49Z</time>
      </trkpt>
      <trkpt lat="45.89027" lon="4.11154">
        <ele>376</ele>
        <time>2019-04-17T16:44:49Z</time>
      </trkpt>
      <trkpt lat="45.89011" lon="4.1118">
        <ele>378</ele>
        <time>2019-04-17T16:45:49Z</time>
      </trkpt>
      <trkpt lat="45.88997" lon="4.11216">
        <ele>380</ele>
        <time>2019-04-17T16:46:49Z</time>
      </trkpt>
      <trkpt lat="45.88985" lon="4.11255">
        <ele>381</ele>
        <time>2019-04-17T16:47:49Z</time>
      </trkpt>
      <trkpt lat="45.88964" lon="4.11363">
        <ele>384</ele>
        <time>2019-04-17T16:48:49Z</time>
      </trkpt>
      <trkpt lat="45.88956" lon="4.11391">
        <ele>384</ele>
        <time>2019-04-17T16:49:49Z</time>
      </trkpt>
      <trkpt lat="45.88945" lon="4.11414">
        <ele>384</ele>
        <time>2019-04-17T16:50:49Z</time>
      </trkpt>
      <trkpt lat="45.88933" lon="4.11432">
        <ele>384</ele>
        <time>2019-04-17T16:51:49Z</time>
      </trkpt>
      <trkpt lat="45.88914" lon="4.11449">
        <ele>383</ele>
        <time>2019-04-17T16:52:49Z</time>
      </trkpt>
      <trkpt lat="45.88893" lon="4.11459">
        <ele>384</ele>
        <time>2019-04-17T16:53:49Z</time>
      </trkpt>
      <trkpt lat="45.88869" lon="4.11463">
        <ele>384</ele>
        <time>2019-04-17T16:54:49Z</time>
      </trkpt>
      <trkpt lat="45.88699" lon="4.11453">
        <ele>377</ele>
        <time>2019-04-17T16:55:49Z</time>
      </trkpt>
      <trkpt lat="45.88617" lon="4.11458">
        <ele>373</ele>
        <time>2019-04-17T16:56:49Z</time>
      </trkpt>
      <trkpt lat="45.88536" lon="4.1147">
        <ele>369</ele>
        <time>2019-04-17T16:57:49Z</time>
      </trkpt>
      <trkpt lat="45.88497" lon="4.1148">
        <ele>368</ele>
        <time>2019-04-17T16:58:49Z</time>
      </trkpt>
      <trkpt lat="45.88467" lon="4.11491">
        <ele>365</ele>
        <time>2019-04-17T16:59:49Z</time>
      </trkpt>
      <trkpt lat="45.88436" lon="4.11513">
        <ele>364</ele>
        <time>2019-04-17T17:00:49Z</time>
      </trkpt>
      <trkpt lat="45.88417" lon="4.11537">
        <ele>364</ele>
        <time>2019-04-17T17:01:49Z</time>
      </trkpt>
      <trkpt lat="45.88401" lon="4.11565">
        <ele>364</ele>
        <time>2019-04-17T17:02:49Z</time>
      </trkpt>
      <trkpt lat="45.8839" lon="4.11594">
        <ele>363</ele>
        <time>2019-04-17T17:03:49Z</time>
      </trkpt>
      <trkpt lat="45.88383" lon="4.11624">
        <ele>362</ele>
        <time>2019-04-17T17:04:49Z</time>
      </trkpt>
      <trkpt lat="45.88378" lon="4.1167">
        <ele>362</ele>
        <time>2019-04-17T17:05:49Z</time>
      </trkpt>
      <trkpt lat="45.88391" lon="4.11884">
        <ele>362</ele>
        <time>2019-04-17T17:06:49Z</time>
      </trkpt>
      <trkpt lat="45.88395" lon="4.11922">
        <ele>364</ele>
        <time>2019-04-17T17:07:49Z</time>
      </trkpt>
      <trkpt lat="45.88403" lon="4.11952">
        <ele>366</ele>
        <time>2019-04-17T17:08:49Z</time>
      </trkpt>
      <trkpt lat="45.88422" lon="4.12">
        <ele>368</ele>
        <time>2019-04-17T17:09:49Z</time>
      </trkpt>
      <trkpt lat="45.88428" lon="4.12022">
        <ele>369</ele>
        <time>2019-04-17T17:10:49Z</time>
      </trkpt>
      <trkpt lat="45.88433" lon="4.12078">
        <ele>372</ele>
        <time>2019-04-17T17:11:49Z</time>
      </trkpt>
      <trkpt lat="45.88433" lon="4.1216">
        <ele>380</ele>
        <time>2019-04-17T17:12:49Z</time>
      </trkpt>
      <trkpt lat="45.88436" lon="4.1219">
        <ele>382</ele>
        <time>2019-04-17T17:13:49Z</time>
      </trkpt>
      <trkpt lat="45.88445" lon="4.12219">
        <ele>384</ele>
        <time>2019-04-17T17:14:49Z</time>
      </trkpt>
      <trkpt lat="45.88455" lon="4.12244">
        <ele>385</ele>
        <time>2019-04-17T17:15:49Z</time>
      </trkpt>
      <trkpt lat="45.88525" lon="4.12373">
        <ele>393</ele>
        <time>2019-04-17T17:16:49Z</time>
      </trkpt>
      <trkpt lat="45.88549" lon="4.12412">
        <ele>394</ele>
        <time>2019-04-17T17:17:49Z</time>
      </trkpt>
      <trkpt lat="45.8857" lon="4.12441">
        <ele>395</ele>
        <time>2019-04-17T17:18:49Z</time>
      </trkpt>
      <trkpt lat="45.88593" lon="4.12462">
        <ele>395</ele>
        <time>2019-04-17T17:19:49Z</time>
      </trkpt>
      <trkpt lat="45.88649" lon="4.12505">
        <ele>396</ele>
        <time>2019-04-17T17:20:49Z</time>
      </trkpt>
      <trkpt lat="45.8866" lon="4.12518">
        <ele>396</ele>
        <time>2019-04-17T17:21:49Z</time>
      </trkpt>
      <trkpt lat="45.88666" lon="4.12533">
        <ele>397</ele>
        <time>2019-04-17T17:22:49Z</time>
      </trkpt>
      <trkpt lat="45.88669" lon="4.12546">
        <ele>397</ele>
        <time>2019-04-17T17:23:49Z</time>
      </trkpt>
      <trkpt lat="45.8867" lon="4.12567">
        <ele>398</ele>
        <time>2019-04-17T17:24:49Z</time>
      </trkpt>
      <trkpt lat="45.88668" lon="4.12587">
        <ele>399</ele>
        <time>2019-04-17T17:25:49Z</time>
      </trkpt>
      <trkpt lat="45.88663" lon="4.12609">
        <ele>401</ele>
        <time>2019-04-17T17:26:49Z</time>
      </trkpt>
      <trkpt lat="45.88652" lon="4.12619">
        <ele>403</ele>
        <time>2019-04-17T17:27:49Z</time>
      </trkpt>
      <trkpt lat="45.88639" lon="4.12624">
        <ele>404</ele>
        <time>2019-04-17T17:28:49Z</time>
      </trkpt>
      <trkpt lat="45.88627" lon="4.12621">
        <ele>404</ele>
        <time>2019-04-17T17:29:49Z</time>
      </trkpt>
      <trkpt lat="45.88528" lon="4.12565">
        <ele>404</ele>
        <time>2019-04-17T17:30:49Z</time>
      </trkpt>
      <trkpt lat="45.88504" lon="4.12561">
        <ele>406</ele>
        <time>2019-04-17T17:31:49Z</time>
      </trkpt>
      <trkpt lat="45.88463" lon="4.12566">
        <ele>407</ele>
        <time>2019-04-17T17:32:49Z</time>
      </trkpt>
      <trkpt lat="45.8843" lon="4.12574">
        <ele>407</ele>
        <time>2019-04-17T17:33:49Z</time>
      </trkpt>
      <trkpt lat="45.88391" lon="4.12595">
        <ele>409</ele>
        <time>2019-04-17T17:34:49Z</time>
      </trkpt>
      <trkpt lat="45.88265" lon="4.12705">
        <ele>409</ele>
        <time>2019-04-17T17:35:49Z</time>
      </trkpt>
      <trkpt lat="45.88258" lon="4.12717">
        <ele>408</ele>
        <time>2019-04-17T17:36:49Z</time>
      </trkpt>
      <trkpt lat="45.88255" lon="4.12727">
        <ele>408</ele>
        <time>2019-04-17T17:37:49Z</time>
      </trkpt>
      <trkpt lat="45.88253" lon="4.12742">
        <ele>408</ele>
        <time>2019-04-17T17:38:49Z</time>
      </trkpt>
      <trkpt lat="45.88265" lon="4.12835">
        <ele>410</ele>
        <time>2019-04-17T17:39:49Z</time>
      </trkpt>
      <trkpt lat="45.88267" lon="4.12868">
        <ele>411</ele>
        <time>2019-04-17T17:40:49Z</time>
      </trkpt>
      <trkpt lat="45.88261" lon="4.12973">
        <ele>412</ele>
        <time>2019-04-17T17:41:49Z</time>
      </trkpt>
      <trkpt lat="45.8826" lon="4.1305">
        <ele>413</ele>
        <time>2019-04-17T17:42:49Z</time>
      </trkpt>
      <trkpt lat="45.88257" lon="4.13081">
        <ele>413</ele>
        <time>2019-04-17T17:43:49Z</time>
      </trkpt>
      <trkpt lat="45.88252" lon="4.13096">
        <ele>413</ele>
        <time>2019-04-17T17:44:49Z</time>
      </trkpt>
      <trkpt lat="45.88243" lon="4.13113">
        <ele>413</ele>
        <time>2019-04-17T17:45:49Z</time>
      </trkpt>
      <trkpt lat="45.88232" lon="4.13123">
        <ele>413</ele>
        <time>2019-04-17T17:46:49Z</time>
      </trkpt>
      <trkpt lat="45.88199" lon="4.13138">
        <ele>414</ele>
        <time>2019-04-17T17:47:49Z</time>
      </trkpt>
      <trkpt lat="45.88083" lon="4.13167">
        <ele>418</ele>
        <time>2019-04-17T17:48:49Z</time>
      </trkpt>
      <trkpt lat="45.88061" lon="4.13178">
        <ele>418</ele>
        <time>2019-04-17T17:49:49Z</time>
      </trkpt>
      <trkpt lat="45.88074" lon="4.13256">
        <ele>420</ele>
        <time>2019-04-17T17:50:49Z</time>
      </trkpt>
      <trkpt lat="45.88084" lon="4.13285">
        <ele>421</ele>
        <time>2019-04-17T17:51:49Z</time>
      </trkpt>
      <trkpt lat="45.88127" lon="4.13323">
        <ele>422</ele>
        <time>2019-04-17T17:52:49Z</time>
      </trkpt>
      <trkpt lat="45.88183" lon="4.13377">
        <ele>422</ele>
        <time>2019-04-17T17:53:49Z</time>
      </trkpt>
      <trkpt lat="45.88205" lon="4.13404">
        <ele>422</ele>
        <time>2019-04-17T17:54:49Z</time>
      </trkpt>
      <trkpt lat="45.88221" lon="4.13427">
        <ele>422</ele>
        <time>2019-04-17T17:55:49Z</time>
      </trkpt>
      <trkpt lat="45.88235" lon="4.13453">
        <ele>423</ele>
        <time>2019-04-17T17:56:49Z</time>
      </trkpt>
      <trkpt lat="45.88253" lon="4.13504">
        <ele>426</ele>
        <time>2019-04-17T17:57:49Z</time>
      </trkpt>
      <trkpt lat="45.88287" lon="4.13593">
        <ele>427</ele>
        <time>2019-04-17T17:58:49Z</time>
      </trkpt>
      <trkpt lat="45.88311" lon="4.1365">
        <ele>428</ele>
        <time>2019-04-17T17:59:49Z</time>
      </trkpt>
      <trkpt lat="45.88333" lon="4.13696">
        <ele>429</ele>
        <time>2019-04-17T18:00:49Z</time>
      </trkpt>
      <trkpt lat="45.88357" lon="4.13732">
        <ele>429</ele>
        <time>2019-04-17T18:01:49Z</time>
      </trkpt>
      <trkpt lat="45.88392" lon="4.13774">
        <ele>430</ele>
        <time>2019-04-17T18:02:49Z</time>
      </trkpt>
      <trkpt lat="45.88426" lon="4.13806">
        <ele>431</ele>
        <time>2019-04-17T18:03:49Z</time>
      </trkpt>
      <trkpt lat="45.8854" lon="4.13904">
        <ele>435</ele>
        <time>2019-04-17T18:04:49Z</time>
      </trkpt>
      <trkpt lat="45.88557" lon="4.1392">
        <ele>435</ele>
        <time>2019-04-17T18:05:49Z</time>
      </trkpt>
      <trkpt lat="45.8859" lon="4.13975">
        <ele>436</ele>
        <time>2019-04-17T18:06:49Z</time>
      </trkpt>
      <trkpt lat="45.88625" lon="4.14048">
        <ele>437</ele>
        <time>2019-04-17T18:07:49Z</time>
      </trkpt>
      <trkpt lat="45.88657" lon="4.14125">
        <ele>438</ele>
        <time>2019-04-17T18:08:49Z</time>
      </trkpt>
      <trkpt lat="45.88677" lon="4.14149">
        <ele>438</ele>
        <time>2019-04-17T18:09:49Z</time>
      </trkpt>
      <trkpt lat="45.887" lon="4.14169">
        <ele>438</ele>
        <time>2019-04-17T18:10:49Z</time>
      </trkpt>
      <trkpt lat="45.88766" lon="4.14201">
        <ele>439</ele>
        <time>2019-04-17T18:11:49Z</time>
      </trkpt>
      <trkpt lat="45.88788" lon="4.14215">
        <ele>440</ele>
        <time>2019-04-17T18:12:49Z</time>
      </trkpt>
      <trkpt lat="45.88805" lon="4.14233">
        <ele>440</ele>
        <time>2019-04-17T18:13:49Z</time>
      </trkpt>
      <trkpt lat="45.88853" lon="4.14296">
        <ele>443</ele>
        <time>2019-04-17T18:14:49Z</time>
      </trkpt>
      <trkpt lat="45.88887" lon="4.14344">
        <ele>446</ele>
        <time>2019-04-17T18:15:49Z</time>
      </trkpt>
      <trkpt lat="45.88922" lon="4.14413">
        <ele>449</ele>
        <time>2019-04-17T18:16:49Z</time>
      </trkpt>
      <trkpt lat="45.88941" lon="4.14428">
        <ele>449</ele>
        <time>2019-04-17T18:17:49Z</time>
      </trkpt>
      <trkpt lat="45.88974" lon="4.14444">
        <ele>450</ele>
        <time>2019-04-17T18:18:49Z</time>
      </trkpt>
      <trkpt lat="45.89015" lon="4.14454">
        <ele>451</ele>
        <time>2019-04-17T18:19:49Z</time>
      </trkpt>
      <trkpt lat="45.89118" lon="4.14494">
        <ele>456</ele>
        <time>2019-04-17T18:20:49Z</time>
      </trkpt>
      <trkpt lat="45.89163" lon="4.14505">
        <ele>460</ele>
        <time>2019-04-17T18:21:49Z</time>
      </trkpt>
      <trkpt lat="45.89217" lon="4.14513">
        <ele>462</ele>
        <time>2019-04-17T18:22:49Z</time>
      </trkpt>
      <trkpt lat="45.8923" lon="4.1452">
        <ele>463</ele>
        <time>2019-04-17T18:23:49Z</time>
      </trkpt>
      <trkpt lat="45.89315" lon="4.14593">
        <ele>466</ele>
        <time>2019-04-17T18:24:49Z</time>
      </trkpt>
      <trkpt lat="45.8941" lon="4.14712">
        <ele>473</ele>
        <time>2019-04-17T18:25:49Z</time>
      </trkpt>
      <trkpt lat="45.89426" lon="4.14735">
        <ele>474</ele>
        <time>2019-04-17T18:26:49Z</time>
      </trkpt>
      <trkpt lat="45.89444" lon="4.14771">
        <ele>476</ele>
        <time>2019-04-17T18:27:49Z</time>
      </trkpt>
      <trkpt lat="45.89509" lon="4.14923">
        <ele>480</ele>
        <time>2019-04-17T18:28:49Z</time>
      </trkpt>
      <trkpt lat="45.89536" lon="4.14992">
        <ele>483</ele>
        <time>2019-04-17T18:29:49Z</time>
      </trkpt>
      <trkpt lat="45.89559" lon="4.15028">
        <ele>483</ele>
        <time>2019-04-17T18:30:49Z</time>
      </trkpt>
      <trkpt lat="45.89581" lon="4.15054">
        <ele>482</ele>
        <time>2019-04-17T18:31:49Z</time>
      </trkpt>
      <trkpt lat="45.89626" lon="4.1509">
        <ele>486</ele>
        <time>2019-04-17T18:32:49Z</time>
      </trkpt>
      <trkpt lat="45.89641" lon="4.15116">
        <ele>487</ele>
        <time>2019-04-17T18:33:49Z</time>
      </trkpt>
      <trkpt lat="45.89647" lon="4.15142">
        <ele>488</ele>
        <time>2019-04-17T18:34:49Z</time>
      </trkpt>
      <trkpt lat="45.89647" lon="4.15237">
        <ele>490</ele>
        <time>2019-04-17T18:35:49Z</time>
      </trkpt>
      <trkpt lat="45.8966" lon="4.1528">
        <ele>491</ele>
        <time>2019-04-17T18:36:49Z</time>
      </trkpt>
      <trkpt lat="45.89689" lon="4.15314">
        <ele>493</ele>
        <time>2019-04-17T18:37:49Z</time>
      </trkpt>
      <trkpt lat="45.89707" lon="4.15326">
        <ele>494</ele>
        <time>2019-04-17T18:38:49Z</time>
      </trkpt>
      <trkpt lat="45.89734" lon="4.1533">
        <ele>495</ele>
        <time>2019-04-17T18:39:49Z</time>
      </trkpt>
      <trkpt lat="45.8978" lon="4.15328">
        <ele>498</ele>
        <time>2019-04-17T18:40:49Z</time>
      </trkpt>
      <trkpt lat="45.89852" lon="4.15317">
        <ele>502</ele>
        <time>2019-04-17T18:41:49Z</time>
      </trkpt>
      <trkpt lat="45.89878" lon="4.15321">
        <ele>503</ele>
        <time>2019-04-17T18:42:49Z</time>
      </trkpt>
      <trkpt lat="45.89901" lon="4.15331">
        <ele>504</ele>
        <time>2019-04-17T18:43:49Z</time>
      </trkpt>
      <trkpt lat="45.89917" lon="4.15359">
        <ele>504</ele>
        <time>2019-04-17T18:44:49Z</time>
      </trkpt>
      <trkpt lat="45.89933" lon="4.15401">
        <ele>503</ele>
        <time>2019-04-17T18:45:49Z</time>
      </trkpt>
      <trkpt lat="45.89955" lon="4.15448">
        <ele>503</ele>
        <time>2019-04-17T18:46:49Z</time>
      </trkpt>
      <trkpt lat="45.89979" lon="4.15495">
        <ele>503</ele>
        <time>2019-04-17T18:47:49Z</time>
      </trkpt>
      <trkpt lat="45.90007" lon="4.15532">
        <ele>503</ele>
        <time>2019-04-17T18:48:49Z</time>
      </trkpt>
      <trkpt lat="45.9004" lon="4.15555">
        <ele>502</ele>
        <time>2019-04-17T18:49:49Z</time>
      </trkpt>
      <trkpt lat="45.90111" lon="4.15583">
        <ele>502</ele>
        <time>2019-04-17T18:50:49Z</time>
      </trkpt>
      <trkpt lat="45.90134" lon="4.15602">
        <ele>503</ele>
        <time>2019-04-17T18:51:49Z</time>
      </trkpt>
      <trkpt lat="45.90158" lon="4.15637">
        <ele>503</ele>
        <time>2019-04-17T18:52:49Z</time>
      </trkpt>
      <trkpt lat="45.90174" lon="4.1568">
        <ele>503</ele>
        <time>2019-04-17T18:53:49Z</time>
      </trkpt>
      <trkpt lat="45.90177" lon="4.15727">
        <ele>502</ele>
        <time>2019-04-17T18:54:49Z</time>
      </trkpt>
      <trkpt lat="45.90179" lon="4.15791">
        <ele>500</ele>
        <time>2019-04-17T18:55:49Z</time>
      </trkpt>
      <trkpt lat="45.90189" lon="4.15841">
        <ele>498</ele>
        <time>2019-04-17T18:56:49Z</time>
      </trkpt>
      <trkpt lat="45.90207" lon="4.15886">
        <ele>497</ele>
        <time>2019-04-17T18:57:49Z</time>
      </trkpt>
      <trkpt lat="45.904" lon="4.16266">
        <ele>504</ele>
        <time>2019-04-17T18:58:49Z</time>
      </trkpt>
      <trkpt lat="45.90416" lon="4.16306">
        <ele>505</ele>
        <time>2019-04-17T18:59:49Z</time>
      </trkpt>
      <trkpt lat="45.90431" lon="4.16358">
        <ele>506</ele>
        <time>2019-04-17T19:00:49Z</time>
      </trkpt>
      <trkpt lat="45.90493" lon="4.16613">
        <ele>509</ele>
        <time>2019-04-17T19:01:49Z</time>
      </trkpt>
      <trkpt lat="45.90509" lon="4.16647">
        <ele>509</ele>
        <time>2019-04-17T19:02:49Z</time>
      </trkpt>
      <trkpt lat="45.90524" lon="4.16668">
        <ele>509</ele>
        <time>2019-04-17T19:03:49Z</time>
      </trkpt>
      <trkpt lat="45.90564" lon="4.16705">
        <ele>510</ele>
        <time>2019-04-17T19:04:49Z</time>
      </trkpt>
      <trkpt lat="45.90588" lon="4.16733">
        <ele>511</ele>
        <time>2019-04-17T19:05:49Z</time>
      </trkpt>
      <trkpt lat="45.906" lon="4.1675">
        <ele>511</ele>
        <time>2019-04-17T19:06:49Z</time>
      </trkpt>
      <trkpt lat="45.9061" lon="4.16777">
        <ele>512</ele>
        <time>2019-04-17T19:07:49Z</time>
      </trkpt>
      <trkpt lat="45.90615" lon="4.16802">
        <ele>513</ele>
        <time>2019-04-17T19:08:49Z</time>
      </trkpt>
      <trkpt lat="45.90618" lon="4.16836">
        <ele>514</ele>
        <time>2019-04-17T19:09:49Z</time>
      </trkpt>
      <trkpt lat="45.90615" lon="4.16955">
        <ele>520</ele>
        <time>2019-04-17T19:10:49Z</time>
      </trkpt>
      <trkpt lat="45.90611" lon="4.16982">
        <ele>522</ele>
        <time>2019-04-17T19:11:49Z</time>
      </trkpt>
      <trkpt lat="45.906" lon="4.17011">
        <ele>524</ele>
        <time>2019-04-17T19:12:49Z</time>
      </trkpt>
      <trkpt lat="45.90588" lon="4.17034">
        <ele>526</ele>
        <time>2019-04-17T19:13:49Z</time>
      </trkpt>
      <trkpt lat="45.90565" lon="4.17056">
        <ele>528</ele>
        <time>2019-04-17T19:14:49Z</time>
      </trkpt>
      <trkpt lat="45.90381" lon="4.17185">
        <ele>533</ele>
        <time>2019-04-17T19:15:49Z</time>
      </trkpt>
      <trkpt lat="45.90345" lon="4.17212">
        <ele>533</ele>
        <time>2019-04-17T19:16:49Z</time>
      </trkpt>
      <trkpt lat="45.90329" lon="4.1723">
        <ele>533</ele>
        <time>2019-04-17T19:17:49Z</time>
      </trkpt>
      <trkpt lat="45.90323" lon="4.17258">
        <ele>534</ele>
        <time>2019-04-17T19:18:49Z</time>
      </trkpt>
      <trkpt lat="45.90324" lon="4.17283">
        <ele>533</ele>
        <time>2019-04-17T19:19:49Z</time>
      </trkpt>
      <trkpt lat="45.90334" lon="4.17305">
        <ele>533</ele>
        <time>2019-04-17T19:20:49Z</time>
      </trkpt>
      <trkpt lat="45.90353" lon="4.17331">
        <ele>535</ele>
        <time>2019-04-17T19:21:49Z</time>
      </trkpt>
      <trkpt lat="45.90383" lon="4.17364">
        <ele>536</ele>
        <time>2019-04-17T19:22:49Z</time>
      </trkpt>
      <trkpt lat="45.90397" lon="4.17383">
        <ele>537</ele>
        <time>2019-04-17T19:23:49Z</time>
      </trkpt>
      <trkpt lat="45.9041" lon="4.17427">
        <ele>537</ele>
        <time>2019-04-17T19:24:49Z</time>
      </trkpt>
      <trkpt lat="45.90413" lon="4.1746">
        <ele>536</ele>
        <time>2019-04-17T19:25:49Z</time>
      </trkpt>
      <trkpt lat="45.90422" lon="4.17481">
        <ele>536</ele>
        <time>2019-04-17T19:26:49Z</time>
      </trkpt>
      <trkpt lat="45.9044" lon="4.17506">
        <ele>536</ele>
        <time>2019-04-17T19:27:49Z</time>
      </trkpt>
      <trkpt lat="45.90464" lon="4.17533">
        <ele>537</ele>
        <time>2019-04-17T19:28:49Z</time>
      </trkpt>
      <trkpt lat="45.90475" lon="4.17551">
        <ele>537</ele>
        <time>2019-04-17T19:29:49Z</time>
      </trkpt>
      <trkpt lat="45.90477" lon="4.17572">
        <ele>537</ele>
        <time>2019-04-17T19:30:49Z</time>
      </trkpt>
      <trkpt lat="45.90474" lon="4.1759">
        <ele>537</ele>
        <time>2019-04-17T19:31:49Z</time>
      </trkpt>
      <trkpt lat="45.90429" lon="4.17687">
        <ele>538</ele>
        <time>2019-04-17T19:32:49Z</time>
      </trkpt>
      <trkpt lat="45.90386" lon="4.17768">
        <ele>541</ele>
        <time>2019-04-17T19:33:49Z</time>
      </trkpt>
      <trkpt lat="45.9034" lon="4.17861">
        <ele>546</ele>
        <time>2019-04-17T19:34:49Z</time>
      </trkpt>
      <trkpt lat="45.90267" lon="4.17985">
        <ele>552</ele>
        <time>2019-04-17T19:35:49Z</time>
      </trkpt>
      <trkpt lat="45.90262" lon="4.18">
        <ele>553</ele>
        <time>2019-04-17T19:36:49Z</time>
      </trkpt>
      <trkpt lat="45.90268" lon="4.18015">
        <ele>553</ele>
        <time>2019-04-17T19:37:49Z</time>
      </trkpt>
      <trkpt lat="45.9022" lon="4.18068">
        <ele>554</ele>
        <time>2019-04-17T19:38:49Z</time>
      </trkpt>
      <trkpt lat="45.90221" lon="4.18087">
        <ele>554</ele>
        <time>2019-04-17T19:39:49Z</time>
      </trkpt>
      <trkpt lat="45.90219" lon="4.18168">
        <ele>553</ele>
        <time>2019-04-17T19:40:49Z</time>
      </trkpt>
      <trkpt lat="45.90211" lon="4.18266">
        <ele>552</ele>
        <time>2019-04-17T19:41:49Z</time>
      </trkpt>
      <trkpt lat="45.90201" lon="4.18352">
        <ele>553</ele>
        <time>2019-04-17T19:42:49Z</time>
      </trkpt>
      <trkpt lat="45.90179" lon="4.18441">
        <ele>553</ele>
        <time>2019-04-17T19:43:49Z</time>
      </trkpt>
      <trkpt lat="45.90167" lon="4.18504">
        <ele>552</ele>
        <time>2019-04-17T19:44:49Z</time>
      </trkpt>
      <trkpt lat="45.90166" lon="4.1856">
        <ele>551</ele>
        <time>2019-04-17T19:45:49Z</time>
      </trkpt>
      <trkpt lat="45.90174" lon="4.18621">
        <ele>552</ele>
        <time>2019-04-17T19:46:49Z</time>
      </trkpt>
      <trkpt lat="45.90188" lon="4.18677">
        <ele>552</ele>
        <time>2019-04-17T19:47:49Z</time>
      </trkpt>
      <trkpt lat="45.90204" lon="4.18774">
        <ele>551</ele>
        <time>2019-04-17T19:48:49Z</time>
      </trkpt>
      <trkpt lat="45.90207" lon="4.18885">
        <ele>544</ele>
        <time>2019-04-17T19:49:49Z</time>
      </trkpt>
      <trkpt lat="45.90193" lon="4.18996">
        <ele>541</ele>
        <time>2019-04-17T19:50:49Z</time>
      </trkpt>
      <trkpt lat="45.90156" lon="4.19147">
        <ele>531</ele>
        <time>2019-04-17T19:51:49Z</time>
      </trkpt>
      <trkpt lat="45.90142" lon="4.19214">
        <ele>526</ele>
        <time>2019-04-17T19:52:49Z</time>
      </trkpt>
      <trkpt lat="45.90132" lon="4.19283">
        <ele>521</ele>
        <time>2019-04-17T19:53:49Z</time>
      </trkpt>
      <trkpt lat="45.90131" lon="4.19331">
        <ele>519</ele>
        <time>2019-04-17T19:54:49Z</time>
      </trkpt>
      <trkpt lat="45.90135" lon="4.19397">
        <ele>517</ele>
        <time>2019-04-17T19:55:49Z</time>
      </trkpt>
      <trkpt lat="45.90153" lon="4.19526">
        <ele>515</ele>
        <time>2019-04-17T19:56:49Z</time>
      </trkpt>
      <trkpt lat="45.90177" lon="4.19663">
        <ele>514</ele>
        <time>2019-04-17T19:57:49Z</time>
      </trkpt>
      <trkpt lat="45.90183" lon="4.19762">
        <ele>515</ele>
        <time>2019-04-17T19:58:49Z</time>
      </trkpt>
      <trkpt lat="45.90191" lon="4.20202">
        <ele>532</ele>
        <time>2019-04-17T19:59:49Z</time>
      </trkpt>
      <trkpt lat="45.90195" lon="4.20381">
        <ele>531</ele>
        <time>2019-04-17T20:00:49Z</time>
      </trkpt>
      <trkpt lat="45.90207" lon="4.20454">
        <ele>534</ele>
        <time>2019-04-17T20:01:49Z</time>
      </trkpt>
      <trkpt lat="45.90228" lon="4.20514">
        <ele>534</ele>
        <time>2019-04-17T20:02:49Z</time>
      </trkpt>
      <trkpt lat="45.90376" lon="4.20762">
        <ele>527</ele>
        <time>2019-04-17T20:03:49Z</time>
      </trkpt>
      <trkpt lat="45.90428" lon="4.20854">
        <ele>534</ele>
        <time>2019-04-17T20:04:49Z</time>
      </trkpt>
      <trkpt lat="45.90453" lon="4.20918">
        <ele>536</ele>
        <time>2019-04-17T20:05:49Z</time>
      </trkpt>
      <trkpt lat="45.90462" lon="4.21001">
        <ele>531</ele>
        <time>2019-04-17T20:06:49Z</time>
      </trkpt>
      <trkpt lat="45.90464" lon="4.21039">
        <ele>531</ele>
        <time>2019-04-17T20:07:49Z</time>
      </trkpt>
      <trkpt lat="45.90453" lon="4.21309">
        <ele>533</ele>
        <time>2019-04-17T20:08:49Z</time>
      </trkpt>
      <trkpt lat="45.9046" lon="4.21377">
        <ele>535</ele>
        <time>2019-04-17T20:09:49Z</time>
      </trkpt>
      <trkpt lat="45.90477" lon="4.21417">
        <ele>535</ele>
        <time>2019-04-17T20:10:49Z</time>
      </trkpt>
      <trkpt lat="45.90507" lon="4.21451">
        <ele>532</ele>
        <time>2019-04-17T20:11:49Z</time>
      </trkpt>
      <trkpt lat="45.90557" lon="4.21484">
        <ele>530</ele>
        <time>2019-04-17T20:12:49Z</time>
      </trkpt>
      <trkpt lat="45.90629" lon="4.21517">
        <ele>530</ele>
        <time>2019-04-17T20:13:49Z</time>
      </trkpt>
      <trkpt lat="45.90669" lon="4.21553">
        <ele>531</ele>
        <time>2019-04-17T20:14:49Z</time>
      </trkpt>
      <trkpt lat="45.90711" lon="4.2162">
        <ele>530</ele>
        <time>2019-04-17T20:15:49Z</time>
      </trkpt>
      <trkpt lat="45.90782" lon="4.21739">
        <ele>526</ele>
        <time>2019-04-17T20:16:49Z</time>
      </trkpt>
      <trkpt lat="45.90798" lon="4.21799">
        <ele>524</ele>
        <time>2019-04-17T20:17:49Z</time>
      </trkpt>
      <trkpt lat="45.90806" lon="4.21853">
        <ele>522</ele>
        <time>2019-04-17T20:18:49Z</time>
      </trkpt>
      <trkpt lat="45.90807" lon="4.21879">
        <ele>522</ele>
        <time>2019-04-17T20:19:49Z</time>
      </trkpt>
      <trkpt lat="45.90806" lon="4.2192">
        <ele>521</ele>
        <time>2019-04-17T20:20:49Z</time>
      </trkpt>
      <trkpt lat="45.90799" lon="4.21976">
        <ele>518</ele>
        <time>2019-04-17T20:21:49Z</time>
      </trkpt>
      <trkpt lat="45.90791" lon="4.22005">
        <ele>518</ele>
        <time>2019-04-17T20:22:49Z</time>
      </trkpt>
      <trkpt lat="45.9078" lon="4.22041">
        <ele>518</ele>
        <time>2019-04-17T20:23:49Z</time>
      </trkpt>
      <trkpt lat="45.90766" lon="4.22072">
        <ele>519</ele>
        <time>2019-04-17T20:24:49Z</time>
      </trkpt>
      <trkpt lat="45.90645" lon="4.2222">
        <ele>525</ele>
        <time>2019-04-17T20:25:49Z</time>
      </trkpt>
      <trkpt lat="45.906" lon="4.22266">
        <ele>527</ele>
        <time>2019-04-17T20:26:49Z</time>
      </trkpt>
      <trkpt lat="45.90582" lon="4.22275">
        <ele>528</ele>
        <time>2019-04-17T20:27:49Z</time>
      </trkpt>
      <trkpt lat="45.90565" lon="4.22281">
        <ele>529</ele>
        <time>2019-04-17T20:28:49Z</time>
      </trkpt>
      <trkpt lat="45.90418" lon="4.22292">
        <ele>535</ele>
        <time>2019-04-17T20:29:49Z</time>
      </trkpt>
      <trkpt lat="45.90392" lon="4.22298">
        <ele>535</ele>
        <time>2019-04-17T20:30:49Z</time>
      </trkpt>
      <trkpt lat="45.90358" lon="4.22314">
        <ele>536</ele>
        <time>2019-04-17T20:31:49Z</time>
      </trkpt>
      <trkpt lat="45.90333" lon="4.22333">
        <ele>538</ele>
        <time>2019-04-17T20:32:49Z</time>
      </trkpt>
      <trkpt lat="45.90298" lon="4.22367">
        <ele>540</ele>
        <time>2019-04-17T20:33:49Z</time>
      </trkpt>
      <trkpt lat="45.90219" lon="4.22483">
        <ele>542</ele>
        <time>2019-04-17T20:34:49Z</time>
      </trkpt>
      <trkpt lat="45.90198" lon="4.22504">
        <ele>542</ele>
        <time>2019-04-17T20:35:49Z</time>
      </trkpt>
      <trkpt lat="45.90173" lon="4.22523">
        <ele>541</ele>
        <time>2019-04-17T20:36:49Z</time>
      </trkpt>
      <trkpt lat="45.90143" lon="4.22539">
        <ele>540</ele>
        <time>2019-04-17T20:37:49Z</time>
      </trkpt>
      <trkpt lat="45.89941" lon="4.22621">
        <ele>545</ele>
        <time>2019-04-17T20:38:49Z</time>
      </trkpt>
      <trkpt lat="45.89882" lon="4.22678">
        <ele>547</ele>
        <time>2019-04-17T20:39:49Z</time>
      </trkpt>
      <trkpt lat="45.8984" lon="4.2283">
        <ele>553</ele>
        <time>2019-04-17T20:40:49Z</time>
      </trkpt>
      <trkpt lat="45.89817" lon="4.22882">
        <ele>554</ele>
        <time>2019-04-17T20:41:49Z</time>
      </trkpt>
      <trkpt lat="45.89634" lon="4.23047">
        <ele>558</ele>
        <time>2019-04-17T20:42:49Z</time>
      </trkpt>
      <trkpt lat="45.89539" lon="4.23118">
        <ele>559</ele>
        <time>2019-04-17T20:43:49Z</time>
      </trkpt>
      <trkpt lat="45.89384" lon="4.23242">
        <ele>562</ele>
        <time>2019-04-17T20:44:49Z</time>
      </trkpt>
      <trkpt lat="45.89363" lon="4.23256">
        <ele>563</ele>
        <time>2019-04-17T20:45:49Z</time>
      </trkpt>
      <trkpt lat="45.89341" lon="4.23266">
        <ele>564</ele>
        <time>2019-04-17T20:46:49Z</time>
      </trkpt>
      <trkpt lat="45.89238" lon="4.23286">
        <ele>563</ele>
        <time>2019-04-17T20:47:49Z</time>
      </trkpt>
      <trkpt lat="45.89218" lon="4.23294">
        <ele>562</ele>
        <time>2019-04-17T20:48:49Z</time>
      </trkpt>
      <trkpt lat="45.89206" lon="4.23309">
        <ele>562</ele>
        <time>2019-04-17T20:49:49Z</time>
      </trkpt>
      <trkpt lat="45.89198" lon="4.23329">
        <ele>563</ele>
        <time>2019-04-17T20:50:49Z</time>
      </trkpt>
      <trkpt lat="45.89194" lon="4.23347">
        <ele>563</ele>
        <time>2019-04-17T20:51:49Z</time>
      </trkpt>
      <trkpt lat="45.89205" lon="4.23548">
        <ele>566</ele>
        <time>2019-04-17T20:52:49Z</time>
      </trkpt>
      <trkpt lat="45.89213" lon="4.23619">
        <ele>566</ele>
        <time>2019-04-17T20:53:49Z</time>
      </trkpt>
      <trkpt lat="45.89208" lon="4.23622">
        <ele>566</ele>
        <time>2019-04-17T20:54:49Z</time>
      </trkpt>
      <trkpt lat="45.89206" lon="4.23629">
        <ele>566</ele>
        <time>2019-04-17T20:55:49Z</time>
      </trkpt>
      <trkpt lat="45.89209" lon="4.23637">
        <ele>566</ele>
        <time>2019-04-17T20:56:49Z</time>
      </trkpt>
      <trkpt lat="45.89213" lon="4.23639">
        <ele>566</ele>
        <time>2019-04-17T20:57:49Z</time>
      </trkpt>
      <trkpt lat="45.89218" lon="4.23636">
        <ele>566</ele>
        <time>2019-04-17T20:58:49Z</time>
      </trkpt>
      <trkpt lat="45.89239" lon="4.23739">
        <ele>565</ele>
        <time>2019-04-17T20:59:49Z</time>
      </trkpt>
      <trkpt lat="45.89258" lon="4.23839">
        <ele>566</ele>
        <time>2019-04-17T21:00:49Z</time>
      </trkpt>
      <trkpt lat="45.893" lon="4.23985">
        <ele>567</ele>
        <time>2019-04-17T21:01:49Z</time>
      </trkpt>
      <trkpt lat="45.8932" lon="4.24047">
        <ele>569</ele>
        <time>2019-04-17T21:02:49Z</time>
      </trkpt>
      <trkpt lat="45.89322" lon="4.24075">
        <ele>570</ele>
        <time>2019-04-17T21:03:49Z</time>
      </trkpt>
      <trkpt lat="45.89319" lon="4.24116">
        <ele>570</ele>
        <time>2019-04-17T21:04:49Z</time>
      </trkpt>
      <trkpt lat="45.89295" lon="4.24162">
        <ele>569</ele>
        <time>2019-04-17T21:05:49Z</time>
      </trkpt>
      <trkpt lat="45.89286" lon="4.24171">
        <ele>569</ele>
        <time>2019-04-17T21:06:49Z</time>
      </trkpt>
      <trkpt lat="45.89117" lon="4.24275">
        <ele>556</ele>
        <time>2019-04-17T21:07:49Z</time>
      </trkpt>
      <trkpt lat="45.89086" lon="4.24297">
        <ele>554</ele>
        <time>2019-04-17T21:08:49Z</time>
      </trkpt>
      <trkpt lat="45.89037" lon="4.24344">
        <ele>550</ele>
        <time>2019-04-17T21:09:49Z</time>
      </trkpt>
      <trkpt lat="45.88983" lon="4.24404">
        <ele>546</ele>
        <time>2019-04-17T21:10:49Z</time>
      </trkpt>
      <trkpt lat="45.88956" lon="4.2444">
        <ele>543</ele>
        <time>2019-04-17T21:11:49Z</time>
      </trkpt>
      <trkpt lat="45.88935" lon="4.24486">
        <ele>540</ele>
        <time>2019-04-17T21:12:49Z</time>
      </trkpt>
      <trkpt lat="45.88923" lon="4.24501">
        <ele>540</ele>
        <time>2019-04-17T21:13:49Z</time>
      </trkpt>
      <trkpt lat="45.88898" lon="4.24512">
        <ele>540</ele>
        <time>2019-04-17T21:14:49Z</time>
      </trkpt>
      <trkpt lat="45.88879" lon="4.24515">
        <ele>539</ele>
        <time>2019-04-17T21:15:49Z</time>
      </trkpt>
      <trkpt lat="45.88857" lon="4.24531">
        <ele>538</ele>
        <time>2019-04-17T21:16:49Z</time>
      </trkpt>
      <trkpt lat="45.88849" lon="4.24561">
        <ele>536</ele>
        <time>2019-04-17T21:17:49Z</time>
      </trkpt>
      <trkpt lat="45.88853" lon="4.24589">
        <ele>535</ele>
        <time>2019-04-17T21:18:49Z</time>
      </trkpt>
      <trkpt lat="45.88869" lon="4.24607">
        <ele>534</ele>
        <time>2019-04-17T21:19:49Z</time>
      </trkpt>
      <trkpt lat="45.88889" lon="4.24605">
        <ele>533</ele>
        <time>2019-04-17T21:20:49Z</time>
      </trkpt>
      <trkpt lat="45.8901" lon="4.24502">
        <ele>532</ele>
        <time>2019-04-17T21:21:49Z</time>
      </trkpt>
      <trkpt lat="45.89024" lon="4.24501">
        <ele>533</ele>
        <time>2019-04-17T21:22:49Z</time>
      </trkpt>
      <trkpt lat="45.89032" lon="4.24506">
        <ele>533</ele>
        <time>2019-04-17T21:23:49Z</time>
      </trkpt>
      <trkpt lat="45.89036" lon="4.24516">
        <ele>533</ele>
        <time>2019-04-17T21:24:49Z</time>
      </trkpt>
      <trkpt lat="45.89036" lon="4.24533">
        <ele>532</ele>
        <time>2019-04-17T21:25:49Z</time>
      </trkpt>
      <trkpt lat="45.8903" lon="4.24549">
        <ele>531</ele>
        <time>2019-04-17T21:26:49Z</time>
      </trkpt>
      <trkpt lat="45.88981" lon="4.24624">
        <ele>528</ele>
        <time>2019-04-17T21:27:49Z</time>
      </trkpt>
      <trkpt lat="45.88962" lon="4.24679">
        <ele>527</ele>
        <time>2019-04-17T21:28:49Z</time>
      </trkpt>
      <trkpt lat="45.8895" lon="4.24705">
        <ele>526</ele>
        <time>2019-04-17T21:29:49Z</time>
      </trkpt>
      <trkpt lat="45.88951" lon="4.24735">
        <ele>524</ele>
        <time>2019-04-17T21:30:49Z</time>
      </trkpt>
      <trkpt lat="45.88956" lon="4.24782">
        <ele>523</ele>
        <time>2019-04-17T21:31:49Z</time>
      </trkpt>
      <trkpt lat="45.8897" lon="4.24842">
        <ele>521</ele>
        <time>2019-04-17T21:32:49Z</time>
      </trkpt>
      <trkpt lat="45.88961" lon="4.24918">
        <ele>517</ele>
        <time>2019-04-17T21:33:49Z</time>
      </trkpt>
      <trkpt lat="45.88927" lon="4.25049">
        <ele>510</ele>
        <time>2019-04-17T21:34:49Z</time>
      </trkpt>
      <trkpt lat="45.88923" lon="4.25108">
        <ele>509</ele>
        <time>2019-04-17T21:35:49Z</time>
      </trkpt>
      <trkpt lat="45.88941" lon="4.25298">
        <ele>500</ele>
        <time>2019-04-17T21:36:49Z</time>
      </trkpt>
      <trkpt lat="45.88946" lon="4.25328">
        <ele>498</ele>
        <time>2019-04-17T21:37:49Z</time>
      </trkpt>
      <trkpt lat="45.88957" lon="4.25357">
        <ele>496</ele>
        <time>2019-04-17T21:38:49Z</time>
      </trkpt>
      <trkpt lat="45.88986" lon="4.25393">
        <ele>493</ele>
        <time>2019-04-17T21:39:49Z</time>
      </trkpt>
      <trkpt lat="45.89048" lon="4.25424">
        <ele>491</ele>
        <time>2019-04-17T21:40:49Z</time>
      </trkpt>
      <trkpt lat="45.89148" lon="4.25434">
        <ele>489</ele>
        <time>2019-04-17T21:41:49Z</time>
      </trkpt>
      <trkpt lat="45.89272" lon="4.25431">
        <ele>485</ele>
        <time>2019-04-17T21:42:49Z</time>
      </trkpt>
      <trkpt lat="45.89401" lon="4.25411">
        <ele>479</ele>
        <time>2019-04-17T21:43:49Z</time>
      </trkpt>
      <trkpt lat="45.89491" lon="4.25375">
        <ele>476</ele>
        <time>2019-04-17T21:44:49Z</time>
      </trkpt>
      <trkpt lat="45.89507" lon="4.2538">
        <ele>475</ele>
        <time>2019-04-17T21:45:49Z</time>
      </trkpt>
      <trkpt lat="45.8952" lon="4.25396">
        <ele>474</ele>
        <time>2019-04-17T21:46:49Z</time>
      </trkpt>
      <trkpt lat="45.89529" lon="4.25413">
        <ele>473</ele>
        <time>2019-04-17T21:47:49Z</time>
      </trkpt>
      <trkpt lat="45.89543" lon="4.25564">
        <ele>473</ele>
        <time>2019-04-17T21:48:49Z</time>
      </trkpt>
      <trkpt lat="45.89564" lon="4.25692">
        <ele>482</ele>
        <time>2019-04-17T21:49:49Z</time>
      </trkpt>
      <trkpt lat="45.89573" lon="4.25722">
        <ele>483</ele>
        <time>2019-04-17T21:50:49Z</time>
      </trkpt>
      <trkpt lat="45.8959" lon="4.25767">
        <ele>484</ele>
        <time>2019-04-17T21:51:49Z</time>
      </trkpt>
      <trkpt lat="45.89612" lon="4.25874">
        <ele>487</ele>
        <time>2019-04-17T21:52:49Z</time>
      </trkpt>
      <trkpt lat="45.89628" lon="4.2593">
        <ele>490</ele>
        <time>2019-04-17T21:53:49Z</time>
      </trkpt>
      <trkpt lat="45.89637" lon="4.25956">
        <ele>491</ele>
        <time>2019-04-17T21:54:49Z</time>
      </trkpt>
      <trkpt lat="45.89649" lon="4.25979">
        <ele>490</ele>
        <time>2019-04-17T21:55:49Z</time>
      </trkpt>
      <trkpt lat="45.89683" lon="4.26025">
        <ele>488</ele>
        <time>2019-04-17T21:56:49Z</time>
      </trkpt>
      <trkpt lat="45.89712" lon="4.26059">
        <ele>490</ele>
        <time>2019-04-17T21:57:49Z</time>
      </trkpt>
      <trkpt lat="45.89752" lon="4.26115">
        <ele>489</ele>
        <time>2019-04-17T21:58:49Z</time>
      </trkpt>
      <trkpt lat="45.89815" lon="4.26183">
        <ele>490</ele>
        <time>2019-04-17T21:59:49Z</time>
      </trkpt>
      <trkpt lat="45.89832" lon="4.26204">
        <ele>491</ele>
        <time>2019-04-17T22:00:49Z</time>
      </trkpt>
      <trkpt lat="45.89842" lon="4.26222">
        <ele>492</ele>
        <time>2019-04-17T22:01:49Z</time>
      </trkpt>
      <trkpt lat="45.89874" lon="4.26267">
        <ele>496</ele>
        <time>2019-04-17T22:02:49Z</time>
      </trkpt>
      <trkpt lat="45.89907" lon="4.26328">
        <ele>498</ele>
        <time>2019-04-17T22:03:49Z</time>
      </trkpt>
      <trkpt lat="45.89957" lon="4.26428">
        <ele>502</ele>
        <time>2019-04-17T22:04:49Z</time>
      </trkpt>
      <trkpt lat="45.89971" lon="4.26449">
        <ele>503</ele>
        <time>2019-04-17T22:05:49Z</time>
      </trkpt>
      <trkpt lat="45.89991" lon="4.26469">
        <ele>504</ele>
        <time>2019-04-17T22:06:49Z</time>
      </trkpt>
      <trkpt lat="45.90023" lon="4.26486">
        <ele>506</ele>
        <time>2019-04-17T22:07:49Z</time>
      </trkpt>
      <trkpt lat="45.90058" lon="4.26497">
        <ele>506</ele>
        <time>2019-04-17T22:08:49Z</time>
      </trkpt>
      <trkpt lat="45.90125" lon="4.26505">
        <ele>507</ele>
        <time>2019-04-17T22:09:49Z</time>
      </trkpt>
      <trkpt lat="45.90161" lon="4.26513">
        <ele>507</ele>
        <time>2019-04-17T22:10:49Z</time>
      </trkpt>
      <trkpt lat="45.90181" lon="4.26524">
        <ele>508</ele>
        <time>2019-04-17T22:11:49Z</time>
      </trkpt>
      <trkpt lat="45.90199" lon="4.26541">
        <ele>510</ele>
        <time>2019-04-17T22:12:49Z</time>
      </trkpt>
      <trkpt lat="45.90214" lon="4.26565">
        <ele>512</ele>
        <time>2019-04-17T22:13:49Z</time>
      </trkpt>
      <trkpt lat="45.90225" lon="4.26592">
        <ele>513</ele>
        <time>2019-04-17T22:14:49Z</time>
      </trkpt>
      <trkpt lat="45.90242" lon="4.2665">
        <ele>515</ele>
        <time>2019-04-17T22:15:49Z</time>
      </trkpt>
      <trkpt lat="45.90254" lon="4.26679">
        <ele>515</ele>
        <time>2019-04-17T22:16:49Z</time>
      </trkpt>
      <trkpt lat="45.90271" lon="4.26703">
        <ele>517</ele>
        <time>2019-04-17T22:17:49Z</time>
      </trkpt>
      <trkpt lat="45.90324" lon="4.26765">
        <ele>522</ele>
        <time>2019-04-17T22:18:49Z</time>
      </trkpt>
      <trkpt lat="45.90389" lon="4.26835">
        <ele>526</ele>
        <time>2019-04-17T22:19:49Z</time>
      </trkpt>
      <trkpt lat="45.9044" lon="4.26886">
        <ele>529</ele>
        <time>2019-04-17T22:20:49Z</time>
      </trkpt>
      <trkpt lat="45.9048" lon="4.26922">
        <ele>531</ele>
        <time>2019-04-17T22:21:49Z</time>
      </trkpt>
      <trkpt lat="45.90543" lon="4.26964">
        <ele>534</ele>
        <time>2019-04-17T22:22:49Z</time>
      </trkpt>
      <trkpt lat="45.90648" lon="4.27016">
        <ele>538</ele>
        <time>2019-04-17T22:23:49Z</time>
      </trkpt>
      <trkpt lat="45.9074" lon="4.27111">
        <ele>544</ele>
        <time>2019-04-17T22:24:49Z</time>
      </trkpt>
      <trkpt lat="45.90827" lon="4.27167">
        <ele>550</ele>
        <time>2019-04-17T22:25:49Z</time>
      </trkpt>
      <trkpt lat="45.90841" lon="4.27181">
        <ele>552</ele>
        <time>2019-04-17T22:26:49Z</time>
      </trkpt>
      <trkpt lat="45.90878" lon="4.27257">
        <ele>556</ele>
        <time>2019-04-17T22:27:49Z</time>
      </trkpt>
      <trkpt lat="45.90896" lon="4.27316">
        <ele>557</ele>
        <time>2019-04-17T22:28:49Z</time>
      </trkpt>
      <trkpt lat="45.90907" lon="4.2734">
        <ele>557</ele>
        <time>2019-04-17T22:29:49Z</time>
      </trkpt>
      <trkpt lat="45.90931" lon="4.27382">
        <ele>558</ele>
        <time>2019-04-17T22:30:49Z</time>
      </trkpt>
      <trkpt lat="45.90944" lon="4.27411">
        <ele>556</ele>
        <time>2019-04-17T22:31:49Z</time>
      </trkpt>
      <trkpt lat="45.90958" lon="4.27446">
        <ele>553</ele>
        <time>2019-04-17T22:32:49Z</time>
      </trkpt>
      <trkpt lat="45.9097" lon="4.27494">
        <ele>549</ele>
        <time>2019-04-17T22:33:49Z</time>
      </trkpt>
      <trkpt lat="45.90991" lon="4.27664">
        <ele>545</ele>
        <time>2019-04-17T22:34:49Z</time>
      </trkpt>
      <trkpt lat="45.90986" lon="4.2772">
        <ele>541</ele>
        <time>2019-04-17T22:35:49Z</time>
      </trkpt>
      <trkpt lat="45.90976" lon="4.27757">
        <ele>539</ele>
        <time>2019-04-17T22:36:49Z</time>
      </trkpt>
      <trkpt lat="45.90962" lon="4.27787">
        <ele>538</ele>
        <time>2019-04-17T22:37:49Z</time>
      </trkpt>
      <trkpt lat="45.90895" lon="4.27898">
        <ele>534</ele>
        <time>2019-04-17T22:38:49Z</time>
      </trkpt>
      <trkpt lat="45.90871" lon="4.27943">
        <ele>532</ele>
        <time>2019-04-17T22:39:49Z</time>
      </trkpt>
      <trkpt lat="45.90864" lon="4.27967">
        <ele>531</ele>
        <time>2019-04-17T22:40:49Z</time>
      </trkpt>
      <trkpt lat="45.90862" lon="4.27983">
        <ele>531</ele>
        <time>2019-04-17T22:41:49Z</time>
      </trkpt>
      <trkpt lat="45.90863" lon="4.28001">
        <ele>530</ele>
        <time>2019-04-17T22:42:49Z</time>
      </trkpt>
      <trkpt lat="45.9087" lon="4.28015">
        <ele>531</ele>
        <time>2019-04-17T22:43:49Z</time>
      </trkpt>
      <trkpt lat="45.90889" lon="4.28029">
        <ele>531</ele>
        <time>2019-04-17T22:44:49Z</time>
      </trkpt>
      <trkpt lat="45.90913" lon="4.28027">
        <ele>529</ele>
        <time>2019-04-17T22:45:49Z</time>
      </trkpt>
      <trkpt lat="45.90961" lon="4.28">
        <ele>530</ele>
        <time>2019-04-17T22:46:49Z</time>
      </trkpt>
      <trkpt lat="45.90984" lon="4.27994">
        <ele>530</ele>
        <time>2019-04-17T22:47:49Z</time>
      </trkpt>
      <trkpt lat="45.91009" lon="4.27992">
        <ele>531</ele>
        <time>2019-04-17T22:48:49Z</time>
      </trkpt>
      <trkpt lat="45.91036" lon="4.27993">
        <ele>532</ele>
        <time>2019-04-17T22:49:49Z</time>
      </trkpt>
      <trkpt lat="45.91066" lon="4.27999">
        <ele>533</ele>
        <time>2019-04-17T22:50:49Z</time>
      </trkpt>
      <trkpt lat="45.91151" lon="4.28025">
        <ele>534</ele>
        <time>2019-04-17T22:51:49Z</time>
      </trkpt>
      <trkpt lat="45.91186" lon="4.28045">
        <ele>534</ele>
        <time>2019-04-17T22:52:49Z</time>
      </trkpt>
      <trkpt lat="45.9123" lon="4.28116">
        <ele>535</ele>
        <time>2019-04-17T22:53:49Z</time>
      </trkpt>
      <trkpt lat="45.91276" lon="4.28193">
        <ele>537</ele>
        <time>2019-04-17T22:54:49Z</time>
      </trkpt>
      <trkpt lat="45.91288" lon="4.28208">
        <ele>536</ele>
        <time>2019-04-17T22:55:49Z</time>
      </trkpt>
      <trkpt lat="45.91304" lon="4.28222">
        <ele>535</ele>
        <time>2019-04-17T22:56:49Z</time>
      </trkpt>
      <trkpt lat="45.91336" lon="4.28229">
        <ele>532</ele>
        <time>2019-04-17T22:57:49Z</time>
      </trkpt>
      <trkpt lat="45.9135" lon="4.28235">
        <ele>533</ele>
        <time>2019-04-17T22:58:49Z</time>
      </trkpt>
      <trkpt lat="45.91361" lon="4.28244">
        <ele>533</ele>
        <time>2019-04-17T22:59:49Z</time>
      </trkpt>
      <trkpt lat="45.91386" lon="4.28278">
        <ele>535</ele>
        <time>2019-04-17T23:00:49Z</time>
      </trkpt>
      <trkpt lat="45.91405" lon="4.28321">
        <ele>537</ele>
        <time>2019-04-17T23:01:49Z</time>
      </trkpt>
      <trkpt lat="45.9142" lon="4.28407">
        <ele>538</ele>
        <time>2019-04-17T23:02:49Z</time>
      </trkpt>
      <trkpt lat="45.91428" lon="4.28479">
        <ele>538</ele>
        <time>2019-04-17T23:03:49Z</time>
      </trkpt>
      <trkpt lat="45.91438" lon="4.28489">
        <ele>537</ele>
        <time>2019-04-17T23:04:49Z</time>
      </trkpt>
      <trkpt lat="45.91446" lon="4.28523">
        <ele>535</ele>
        <time>2019-04-17T23:05:49Z</time>
      </trkpt>
      <trkpt lat="45.9145" lon="4.28681">
        <ele>533</ele>
        <time>2019-04-17T23:06:49Z</time>
      </trkpt>
      <trkpt lat="45.91456" lon="4.28713">
        <ele>532</ele>
        <time>2019-04-17T23:07:49Z</time>
      </trkpt>
      <trkpt lat="45.91464" lon="4.2873">
        <ele>531</ele>
        <time>2019-04-17T23:08:49Z</time>
      </trkpt>
      <trkpt lat="45.91531" lon="4.2879">
        <ele>528</ele>
        <time>2019-04-17T23:09:49Z</time>
      </trkpt>
      <trkpt lat="45.91557" lon="4.28816">
        <ele>530</ele>
        <time>2019-04-17T23:10:49Z</time>
      </trkpt>
      <trkpt lat="45.91578" lon="4.28847">
        <ele>531</ele>
        <time>2019-04-17T23:11:49Z</time>
      </trkpt>
      <trkpt lat="45.91627" lon="4.28938">
        <ele>538</ele>
        <time>2019-04-17T23:12:49Z</time>
      </trkpt>
      <trkpt lat="45.91651" lon="4.28997">
        <ele>541</ele>
        <time>2019-04-17T23:13:49Z</time>
      </trkpt>
      <trkpt lat="45.91719" lon="4.29131">
        <ele>551</ele>
        <time>2019-04-17T23:14:49Z</time>
      </trkpt>
      <trkpt lat="45.91735" lon="4.29179">
        <ele>552</ele>
        <time>2019-04-17T23:15:49Z</time>
      </trkpt>
      <trkpt lat="45.91761" lon="4.29278">
        <ele>553</ele>
        <time>2019-04-17T23:16:49Z</time>
      </trkpt>
      <trkpt lat="45.91787" lon="4.29331">
        <ele>556</ele>
        <time>2019-04-17T23:17:49Z</time>
      </trkpt>
      <trkpt lat="45.91823" lon="4.2942">
        <ele>562</ele>
        <time>2019-04-17T23:18:49Z</time>
      </trkpt>
      <trkpt lat="45.91847" lon="4.29469">
        <ele>565</ele>
        <time>2019-04-17T23:19:49Z</time>
      </trkpt>
      <trkpt lat="45.91852" lon="4.29482">
        <ele>566</ele>
        <time>2019-04-17T23:20:49Z</time>
      </trkpt>
      <trkpt lat="45.91864" lon="4.29554">
        <ele>568</ele>
        <time>2019-04-17T23:21:49Z</time>
      </trkpt>
      <trkpt lat="45.91872" lon="4.29579">
        <ele>569</ele>
        <time>2019-04-17T23:22:49Z</time>
      </trkpt>
      <trkpt lat="45.91887" lon="4.29608">
        <ele>571</ele>
        <time>2019-04-17T23:23:49Z</time>
      </trkpt>
      <trkpt lat="45.91896" lon="4.29617">
        <ele>572</ele>
        <time>2019-04-17T23:24:49Z</time>
      </trkpt>
      <trkpt lat="45.91906" lon="4.29622">
        <ele>573</ele>
        <time>2019-04-17T23:25:49Z</time>
      </trkpt>
      <trkpt lat="45.91924" lon="4.29624">
        <ele>575</ele>
        <time>2019-04-17T23:26:49Z</time>
      </trkpt>
      <trkpt lat="45.91971" lon="4.2962">
        <ele>578</ele>
        <time>2019-04-17T23:27:49Z</time>
      </trkpt>
      <trkpt lat="45.91981" lon="4.29623">
        <ele>579</ele>
        <time>2019-04-17T23:28:49Z</time>
      </trkpt>
      <trkpt lat="45.9199" lon="4.2963">
        <ele>580</ele>
        <time>2019-04-17T23:29:49Z</time>
      </trkpt>
      <trkpt lat="45.92005" lon="4.29647">
        <ele>581</ele>
        <time>2019-04-17T23:30:49Z</time>
      </trkpt>
      <trkpt lat="45.92015" lon="4.2966">
        <ele>581</ele>
        <time>2019-04-17T23:31:49Z</time>
      </trkpt>
      <trkpt lat="45.92034" lon="4.29694">
        <ele>583</ele>
        <time>2019-04-17T23:32:49Z</time>
      </trkpt>
      <trkpt lat="45.92067" lon="4.29772">
        <ele>588</ele>
        <time>2019-04-17T23:33:49Z</time>
      </trkpt>
      <trkpt lat="45.92073" lon="4.29795">
        <ele>589</ele>
        <time>2019-04-17T23:34:49Z</time>
      </trkpt>
      <trkpt lat="45.92077" lon="4.29833">
        <ele>590</ele>
        <time>2019-04-17T23:35:49Z</time>
      </trkpt>
      <trkpt lat="45.92077" lon="4.29864">
        <ele>592</ele>
        <time>2019-04-17T23:36:49Z</time>
      </trkpt>
      <trkpt lat="45.92071" lon="4.29895">
        <ele>594</ele>
        <time>2019-04-17T23:37:49Z</time>
      </trkpt>
      <trkpt lat="45.92055" lon="4.29966">
        <ele>596</ele>
        <time>2019-04-17T23:38:49Z</time>
      </trkpt>
      <trkpt lat="45.9205" lon="4.29995">
        <ele>597</ele>
        <time>2019-04-17T23:39:49Z</time>
      </trkpt>
      <trkpt lat="45.92051" lon="4.30016">
        <ele>598</ele>
        <time>2019-04-17T23:40:49Z</time>
      </trkpt>
      <trkpt lat="45.92058" lon="4.30044">
        <ele>600</ele>
        <time>2019-04-17T23:41:49Z</time>
      </trkpt>
      <trkpt lat="45.92063" lon="4.3006">
        <ele>601</ele>
        <time>2019-04-17T23:42:49Z</time>
      </trkpt>
      <trkpt lat="45.9207" lon="4.30074">
        <ele>602</ele>
        <time>2019-04-17T23:43:49Z</time>
      </trkpt>
      <trkpt lat="45.92077" lon="4.30086">
        <ele>603</ele>
        <time>2019-04-17T23:44:49Z</time>
      </trkpt>
      <trkpt lat="45.92087" lon="4.30098">
        <ele>604</ele>
        <time>2019-04-17T23:45:49Z</time>
      </trkpt>
      <trkpt lat="45.92219" lon="4.302">
        <ele>616</ele>
        <time>2019-04-17T23:46:49Z</time>
      </trkpt>
      <trkpt lat="45.92215" lon="4.30214">
        <ele>616</ele>
        <time>2019-04-17T23:47:49Z</time>
      </trkpt>
      <trkpt lat="45.92208" lon="4.30228">
        <ele>616</ele>
        <time>2019-04-17T23:48:49Z</time>
      </trkpt>
      <trkpt lat="45.92138" lon="4.30297">
        <ele>614</ele>
        <time>2019-04-17T23:49:49Z</time>
      </trkpt>
      <trkpt lat="45.9213" lon="4.30314">
        <ele>615</ele>
        <time>2019-04-17T23:50:49Z</time>
      </trkpt>
      <trkpt lat="45.92127" lon="4.30335">
        <ele>616</ele>
        <time>2019-04-17T23:51:49Z</time>
      </trkpt>
      <trkpt lat="45.92115" lon="4.30455">
        <ele>621</ele>
        <time>2019-04-17T23:52:49Z</time>
      </trkpt>
      <trkpt lat="45.92115" lon="4.30532">
        <ele>624</ele>
        <time>2019-04-17T23:53:49Z</time>
      </trkpt>
      <trkpt lat="45.92124" lon="4.30641">
        <ele>630</ele>
        <time>2019-04-17T23:54:49Z</time>
      </trkpt>
      <trkpt lat="45.9214" lon="4.30718">
        <ele>638</ele>
        <time>2019-04-17T23:55:49Z</time>
      </trkpt>
      <trkpt lat="45.92132" lon="4.30768">
        <ele>639</ele>
        <time>2019-04-17T23:56:49Z</time>
      </trkpt>
      <trkpt lat="45.9213" lon="4.30863">
        <ele>644</ele>
        <time>2019-04-17T23:57:49Z</time>
      </trkpt>
      <trkpt lat="45.92144" lon="4.30961">
        <ele>650</ele>
        <time>2019-04-17T23:58:49Z</time>
      </trkpt>
      <trkpt lat="45.92177" lon="4.30991">
        <ele>659</ele>
        <time>2019-04-17T23:59:49Z</time>
      </trkpt>
      <trkpt lat="45.92197" lon="4.31026">
        <ele>663</ele>
        <time>2019-04-18T00:00:49Z</time>
      </trkpt>
      <trkpt lat="45.92222" lon="4.31114">
        <ele>669</ele>
        <time>2019-04-18T00:01:49Z</time>
      </trkpt>
      <trkpt lat="45.92235" lon="4.3118">
        <ele>673</ele>
        <time>2019-04-18T00:02:49Z</time>
      </trkpt>
      <trkpt lat="45.92239" lon="4.31239">
        <ele>676</ele>
        <time>2019-04-18T00:03:49Z</time>
      </trkpt>
      <trkpt lat="45.92239" lon="4.31291">
        <ele>677</ele>
        <time>2019-04-18T00:04:49Z</time>
      </trkpt>
      <trkpt lat="45.92231" lon="4.31338">
        <ele>677</ele>
        <time>2019-04-18T00:05:49Z</time>
      </trkpt>
      <trkpt lat="45.92209" lon="4.31412">
        <ele>678</ele>
        <time>2019-04-18T00:06:49Z</time>
      </trkpt>
      <trkpt lat="45.92185" lon="4.31517">
        <ele>687</ele>
        <time>2019-04-18T00:07:49Z</time>
      </trkpt>
      <trkpt lat="45.92169" lon="4.31613">
        <ele>694</ele>
        <time>2019-04-18T00:08:49Z</time>
      </trkpt>
      <trkpt lat="45.92156" lon="4.31722">
        <ele>700</ele>
        <time>2019-04-18T00:09:49Z</time>
      </trkpt>
      <trkpt lat="45.9214" lon="4.3182">
        <ele>704</ele>
        <time>2019-04-18T00:10:49Z</time>
      </trkpt>
      <trkpt lat="45.92127" lon="4.31875">
        <ele>706</ele>
        <time>2019-04-18T00:11:49Z</time>
      </trkpt>
      <trkpt lat="45.9211" lon="4.31926">
        <ele>709</ele>
        <time>2019-04-18T00:12:49Z</time>
      </trkpt>
      <trkpt lat="45.921" lon="4.31949">
        <ele>711</ele>
        <time>2019-04-18T00:13:49Z</time>
      </trkpt>
      <trkpt lat="45.92079" lon="4.31985">
        <ele>713</ele>
        <time>2019-04-18T00:14:49Z</time>
      </trkpt>
      <trkpt lat="45.9207" lon="4.31997">
        <ele>714</ele>
        <time>2019-04-18T00:15:49Z</time>
      </trkpt>
      <trkpt lat="45.9192" lon="4.32165">
        <ele>727</ele>
        <time>2019-04-18T00:16:49Z</time>
      </trkpt>
      <trkpt lat="45.91892" lon="4.322">
        <ele>732</ele>
        <time>2019-04-18T00:17:49Z</time>
      </trkpt>
      <trkpt lat="45.91864" lon="4.32243">
        <ele>737</ele>
        <time>2019-04-18T00:18:49Z</time>
      </trkpt>
      <trkpt lat="45.91845" lon="4.32284">
        <ele>739</ele>
        <time>2019-04-18T00:19:49Z</time>
      </trkpt>
      <trkpt lat="45.91829" lon="4.32333">
        <ele>740</ele>
        <time>2019-04-18T00:20:49Z</time>
      </trkpt>
      <trkpt lat="45.91822" lon="4.32362">
        <ele>739</ele>
        <time>2019-04-18T00:21:49Z</time>
      </trkpt>
      <trkpt lat="45.91818" lon="4.32395">
        <ele>738</ele>
        <time>2019-04-18T00:22:49Z</time>
      </trkpt>
      <trkpt lat="45.91815" lon="4.32432">
        <ele>737</ele>
        <time>2019-04-18T00:23:49Z</time>
      </trkpt>
      <trkpt lat="45.91814" lon="4.32461">
        <ele>735</ele>
        <time>2019-04-18T00:24:49Z</time>
      </trkpt>
      <trkpt lat="45.91819" lon="4.33061">
        <ele>749</ele>
        <time>2019-04-18T00:25:49Z</time>
      </trkpt>
      <trkpt lat="45.91817" lon="4.3311">
        <ele>751</ele>
        <time>2019-04-18T00:26:49Z</time>
      </trkpt>
      <trkpt lat="45.91812" lon="4.33145">
        <ele>752</ele>
        <time>2019-04-18T00:27:49Z</time>
      </trkpt>
      <trkpt lat="45.91805" lon="4.33175">
        <ele>752</ele>
        <time>2019-04-18T00:28:49Z</time>
      </trkpt>
      <trkpt lat="45.91797" lon="4.33202">
        <ele>753</ele>
        <time>2019-04-18T00:29:49Z</time>
      </trkpt>
      <trkpt lat="45.91788" lon="4.33224">
        <ele>754</ele>
        <time>2019-04-18T00:30:49Z</time>
      </trkpt>
      <trkpt lat="45.91773" lon="4.33252">
        <ele>756</ele>
        <time>2019-04-18T00:31:49Z</time>
      </trkpt>
      <trkpt lat="45.91758" lon="4.33276">
        <ele>755</ele>
        <time>2019-04-18T00:32:49Z</time>
      </trkpt>
      <trkpt lat="45.91682" lon="4.33382">
        <ele>755</ele>
        <time>2019-04-18T00:33:49Z</time>
      </trkpt>
      <trkpt lat="45.91667" lon="4.33408">
        <ele>753</ele>
        <time>2019-04-18T00:34:49Z</time>
      </trkpt>
      <trkpt lat="45.91653" lon="4.33437">
        <ele>752</ele>
        <time>2019-04-18T00:35:49Z</time>
      </trkpt>
      <trkpt lat="45.9163" lon="4.33509">
        <ele>745</ele>
        <time>2019-04-18T00:36:49Z</time>
      </trkpt>
      <trkpt lat="45.91597" lon="4.3365">
        <ele>749</ele>
        <time>2019-04-18T00:37:49Z</time>
      </trkpt>
      <trkpt lat="45.91597" lon="4.33669">
        <ele>749</ele>
        <time>2019-04-18T00:38:49Z</time>
      </trkpt>
      <trkpt lat="45.916" lon="4.33695">
        <ele>749</ele>
        <time>2019-04-18T00:39:49Z</time>
      </trkpt>
      <trkpt lat="45.91603" lon="4.33718">
        <ele>749</ele>
        <time>2019-04-18T00:40:49Z</time>
      </trkpt>
      <trkpt lat="45.91608" lon="4.33742">
        <ele>749</ele>
        <time>2019-04-18T00:41:49Z</time>
      </trkpt>
      <trkpt lat="45.91624" lon="4.33784">
        <ele>751</ele>
        <time>2019-04-18T00:42:49Z</time>
      </trkpt>
      <trkpt lat="45.91659" lon="4.3386">
        <ele>757</ele>
        <time>2019-04-18T00:43:49Z</time>
      </trkpt>
      <trkpt lat="45.91669" lon="4.33887">
        <ele>758</ele>
        <time>2019-04-18T00:44:49Z</time>
      </trkpt>
      <trkpt lat="45.91675" lon="4.33911">
        <ele>759</ele>
        <time>2019-04-18T00:45:49Z</time>
      </trkpt>
      <trkpt lat="45.91678" lon="4.33937">
        <ele>759</ele>
        <time>2019-04-18T00:46:49Z</time>
      </trkpt>
      <trkpt lat="45.91678" lon="4.33962">
        <ele>759</ele>
        <time>2019-04-18T00:47:49Z</time>
      </trkpt>
      <trkpt lat="45.91676" lon="4.33985">
        <ele>759</ele>
        <time>2019-04-18T00:48:49Z</time>
      </trkpt>
      <trkpt lat="45.9167" lon="4.34012">
        <ele>759</ele>
        <time>2019-04-18T00:49:49Z</time>
      </trkpt>
      <trkpt lat="45.91662" lon="4.34035">
        <ele>758</ele>
        <time>2019-04-18T00:50:49Z</time>
      </trkpt>
      <trkpt lat="45.91637" lon="4.34083">
        <ele>757</ele>
        <time>2019-04-18T00:51:49Z</time>
      </trkpt>
      <trkpt lat="45.91595" lon="4.34144">
        <ele>758</ele>
        <time>2019-04-18T00:52:49Z</time>
      </trkpt>
      <trkpt lat="45.91579" lon="4.34183">
        <ele>758</ele>
        <time>2019-04-18T00:53:49Z</time>
      </trkpt>
      <trkpt lat="45.91574" lon="4.34201">
        <ele>758</ele>
        <time>2019-04-18T00:54:49Z</time>
      </trkpt>
      <trkpt lat="45.91571" lon="4.34222">
        <ele>757</ele>
        <time>2019-04-18T00:55:49Z</time>
      </trkpt>
      <trkpt lat="45.91568" lon="4.34338">
        <ele>756</ele>
        <time>2019-04-18T00:56:49Z</time>
      </trkpt>
      <trkpt lat="45.91566" lon="4.34366">
        <ele>757</ele>
        <time>2019-04-18T00:57:49Z</time>
      </trkpt>
      <trkpt lat="45.91531" lon="4.34568">
        <ele>755</ele>
        <time>2019-04-18T00:58:49Z</time>
      </trkpt>
      <trkpt lat="45.91524" lon="4.34683">
        <ele>750</ele>
        <time>2019-04-18T00:59:49Z</time>
      </trkpt>
      <trkpt lat="45.91521" lon="4.34708">
        <ele>751</ele>
        <time>2019-04-18T01:00:49Z</time>
      </trkpt>
      <trkpt lat="45.91488" lon="4.3486">
        <ele>746</ele>
        <time>2019-04-18T01:01:49Z</time>
      </trkpt>
      <trkpt lat="45.91485" lon="4.34901">
        <ele>745</ele>
        <time>2019-04-18T01:02:49Z</time>
      </trkpt>
      <trkpt lat="45.91492" lon="4.34985">
        <ele>744</ele>
        <time>2019-04-18T01:03:49Z</time>
      </trkpt>
      <trkpt lat="45.91493" lon="4.35019">
        <ele>744</ele>
        <time>2019-04-18T01:04:49Z</time>
      </trkpt>
      <trkpt lat="45.91492" lon="4.35041">
        <ele>744</ele>
        <time>2019-04-18T01:05:49Z</time>
      </trkpt>
      <trkpt lat="45.91488" lon="4.3506">
        <ele>743</ele>
        <time>2019-04-18T01:06:49Z</time>
      </trkpt>
      <trkpt lat="45.91495" lon="4.35066">
        <ele>745</ele>
        <time>2019-04-18T01:07:49Z</time>
      </trkpt>
      <trkpt lat="45.91499" lon="4.35076">
        <ele>746</ele>
        <time>2019-04-18T01:08:49Z</time>
      </trkpt>
      <trkpt lat="45.91499" lon="4.35084">
        <ele>746</ele>
        <time>2019-04-18T01:09:49Z</time>
      </trkpt>
      <trkpt lat="45.91457" lon="4.35201">
        <ele>743</ele>
        <time>2019-04-18T01:10:49Z</time>
      </trkpt>
      <trkpt lat="45.91449" lon="4.35267">
        <ele>745</ele>
        <time>2019-04-18T01:11:49Z</time>
      </trkpt>
      <trkpt lat="45.91451" lon="4.35349">
        <ele>745</ele>
        <time>2019-04-18T01:12:49Z</time>
      </trkpt>
      <trkpt lat="45.91462" lon="4.35391">
        <ele>746</ele>
        <time>2019-04-18T01:13:49Z</time>
      </trkpt>
      <trkpt lat="45.91498" lon="4.35446">
        <ele>750</ele>
        <time>2019-04-18T01:14:49Z</time>
      </trkpt>
      <trkpt lat="45.91522" lon="4.35495">
        <ele>754</ele>
        <time>2019-04-18T01:15:49Z</time>
      </trkpt>
      <trkpt lat="45.91535" lon="4.35561">
        <ele>755</ele>
        <time>2019-04-18T01:16:49Z</time>
      </trkpt>
      <trkpt lat="45.91537" lon="4.35815">
        <ele>760</ele>
        <time>2019-04-18T01:17:49Z</time>
      </trkpt>
      <trkpt lat="45.9153" lon="4.35842">
        <ele>760</ele>
        <time>2019-04-18T01:18:49Z</time>
      </trkpt>
      <trkpt lat="45.91501" lon="4.35914">
        <ele>757</ele>
        <time>2019-04-18T01:19:49Z</time>
      </trkpt>
      <trkpt lat="45.91498" lon="4.35953">
        <ele>755</ele>
        <time>2019-04-18T01:20:49Z</time>
      </trkpt>
      <trkpt lat="45.91492" lon="4.35996">
        <ele>754</ele>
        <time>2019-04-18T01:21:49Z</time>
      </trkpt>
      <trkpt lat="45.9146" lon="4.36092">
        <ele>756</ele>
        <time>2019-04-18T01:22:49Z</time>
      </trkpt>
      <trkpt lat="45.91442" lon="4.36172">
        <ele>758</ele>
        <time>2019-04-18T01:23:49Z</time>
      </trkpt>
      <trkpt lat="45.91442" lon="4.36314">
        <ele>755</ele>
        <time>2019-04-18T01:24:49Z</time>
      </trkpt>
      <trkpt lat="45.91428" lon="4.36353">
        <ele>755</ele>
        <time>2019-04-18T01:25:49Z</time>
      </trkpt>
      <trkpt lat="45.91262" lon="4.36594">
        <ele>757</ele>
        <time>2019-04-18T01:26:49Z</time>
      </trkpt>
      <trkpt lat="45.91243" lon="4.36664">
        <ele>753</ele>
        <time>2019-04-18T01:27:49Z</time>
      </trkpt>
      <trkpt lat="45.91234" lon="4.36754">
        <ele>756</ele>
        <time>2019-04-18T01:28:49Z</time>
      </trkpt>
      <trkpt lat="45.91241" lon="4.36778">
        <ele>756</ele>
        <time>2019-04-18T01:29:49Z</time>
      </trkpt>
      <trkpt lat="45.91338" lon="4.36875">
        <ele>752</ele>
        <time>2019-04-18T01:30:49Z</time>
      </trkpt>
      <trkpt lat="45.91363" lon="4.36885">
        <ele>752</ele>
        <time>2019-04-18T01:31:49Z</time>
      </trkpt>
      <trkpt lat="45.91451" lon="4.36889">
        <ele>747</ele>
        <time>2019-04-18T01:32:49Z</time>
      </trkpt>
      <trkpt lat="45.91465" lon="4.36893">
        <ele>746</ele>
        <time>2019-04-18T01:33:49Z</time>
      </trkpt>
      <trkpt lat="45.91477" lon="4.36914">
        <ele>746</ele>
        <time>2019-04-18T01:34:49Z</time>
      </trkpt>
      <trkpt lat="45.91479" lon="4.3694">
        <ele>745</ele>
        <time>2019-04-18T01:35:49Z</time>
      </trkpt>
      <trkpt lat="45.91463" lon="4.37054">
        <ele>747</ele>
        <time>2019-04-18T01:36:49Z</time>
      </trkpt>
      <trkpt lat="45.91465" lon="4.37082">
        <ele>746</ele>
        <time>2019-04-18T01:37:49Z</time>
      </trkpt>
      <trkpt lat="45.91475" lon="4.37114">
        <ele>749</ele>
        <time>2019-04-18T01:38:49Z</time>
      </trkpt>
      <trkpt lat="45.91495" lon="4.37138">
        <ele>750</ele>
        <time>2019-04-18T01:39:49Z</time>
      </trkpt>
      <trkpt lat="45.91545" lon="4.37157">
        <ele>745</ele>
        <time>2019-04-18T01:40:49Z</time>
      </trkpt>
      <trkpt lat="45.9158" lon="4.37181">
        <ele>742</ele>
        <time>2019-04-18T01:41:49Z</time>
      </trkpt>
      <trkpt lat="45.91671" lon="4.37262">
        <ele>739</ele>
        <time>2019-04-18T01:42:49Z</time>
      </trkpt>
      <trkpt lat="45.91693" lon="4.37279">
        <ele>739</ele>
        <time>2019-04-18T01:43:49Z</time>
      </trkpt>
      <trkpt lat="45.9178" lon="4.37319">
        <ele>736</ele>
        <time>2019-04-18T01:44:49Z</time>
      </trkpt>
      <trkpt lat="45.91827" lon="4.37358">
        <ele>737</ele>
        <time>2019-04-18T01:45:49Z</time>
      </trkpt>
      <trkpt lat="45.91843" lon="4.37363">
        <ele>736</ele>
        <time>2019-04-18T01:46:49Z</time>
      </trkpt>
      <trkpt lat="45.91884" lon="4.37357">
        <ele>733</ele>
        <time>2019-04-18T01:47:49Z</time>
      </trkpt>
      <trkpt lat="45.91907" lon="4.37361">
        <ele>732</ele>
        <time>2019-04-18T01:48:49Z</time>
      </trkpt>
      <trkpt lat="45.91926" lon="4.37373">
        <ele>731</ele>
        <time>2019-04-18T01:49:49Z</time>
      </trkpt>
      <trkpt lat="45.91944" lon="4.37402">
        <ele>730</ele>
        <time>2019-04-18T01:50:49Z</time>
      </trkpt>
      <trkpt lat="45.91966" lon="4.37492">
        <ele>729</ele>
        <time>2019-04-18T01:51:49Z</time>
      </trkpt>
      <trkpt lat="45.91967" lon="4.37522">
        <ele>729</ele>
        <time>2019-04-18T01:52:49Z</time>
      </trkpt>
      <trkpt lat="45.91955" lon="4.37615">
        <ele>731</ele>
        <time>2019-04-18T01:53:49Z</time>
      </trkpt>
      <trkpt lat="45.9196" lon="4.37652">
        <ele>731</ele>
        <time>2019-04-18T01:54:49Z</time>
      </trkpt>
      <trkpt lat="45.92014" lon="4.3779">
        <ele>729</ele>
        <time>2019-04-18T01:55:49Z</time>
      </trkpt>
      <trkpt lat="45.92028" lon="4.378">
        <ele>729</ele>
        <time>2019-04-18T01:56:49Z</time>
      </trkpt>
      <trkpt lat="45.92044" lon="4.37809">
        <ele>728</ele>
        <time>2019-04-18T01:57:49Z</time>
      </trkpt>
      <trkpt lat="45.92066" lon="4.37806">
        <ele>728</ele>
        <time>2019-04-18T01:58:49Z</time>
      </trkpt>
      <trkpt lat="45.92084" lon="4.37797">
        <ele>726</ele>
        <time>2019-04-18T01:59:49Z</time>
      </trkpt>
      <trkpt lat="45.92132" lon="4.37751">
        <ele>723</ele>
        <time>2019-04-18T02:00:49Z</time>
      </trkpt>
      <trkpt lat="45.92157" lon="4.37744">
        <ele>722</ele>
        <time>2019-04-18T02:01:49Z</time>
      </trkpt>
      <trkpt lat="45.9224" lon="4.37737">
        <ele>722</ele>
        <time>2019-04-18T02:02:49Z</time>
      </trkpt>
      <trkpt lat="45.9227" lon="4.37733">
        <ele>721</ele>
        <time>2019-04-18T02:03:49Z</time>
      </trkpt>
      <trkpt lat="45.92352" lon="4.37727">
        <ele>723</ele>
        <time>2019-04-18T02:04:49Z</time>
      </trkpt>
      <trkpt lat="45.92613" lon="4.37723">
        <ele>723</ele>
        <time>2019-04-18T02:05:49Z</time>
      </trkpt>
      <trkpt lat="45.9263" lon="4.3773">
        <ele>722</ele>
        <time>2019-04-18T02:06:49Z</time>
      </trkpt>
      <trkpt lat="45.92648" lon="4.37745">
        <ele>721</ele>
        <time>2019-04-18T02:07:49Z</time>
      </trkpt>
      <trkpt lat="45.92661" lon="4.37765">
        <ele>720</ele>
        <time>2019-04-18T02:08:49Z</time>
      </trkpt>
      <trkpt lat="45.92684" lon="4.37831">
        <ele>722</ele>
        <time>2019-04-18T02:09:49Z</time>
      </trkpt>
      <trkpt lat="45.92698" lon="4.37842">
        <ele>723</ele>
        <time>2019-04-18T02:10:49Z</time>
      </trkpt>
      <trkpt lat="45.92695" lon="4.37884">
        <ele>723</ele>
        <time>2019-04-18T02:11:49Z</time>
      </trkpt>
      <trkpt lat="45.92692" lon="4.38078">
        <ele>720</ele>
        <time>2019-04-18T02:12:49Z</time>
      </trkpt>
      <trkpt lat="45.92696" lon="4.38125">
        <ele>719</ele>
        <time>2019-04-18T02:13:49Z</time>
      </trkpt>
      <trkpt lat="45.92752" lon="4.3831">
        <ele>718</ele>
        <time>2019-04-18T02:14:49Z</time>
      </trkpt>
      <trkpt lat="45.9277" lon="4.38348">
        <ele>717</ele>
        <time>2019-04-18T02:15:49Z</time>
      </trkpt>
      <trkpt lat="45.92829" lon="4.38388">
        <ele>719</ele>
        <time>2019-04-18T02:16:49Z</time>
      </trkpt>
      <trkpt lat="45.92843" lon="4.38399">
        <ele>720</ele>
        <time>2019-04-18T02:17:49Z</time>
      </trkpt>
      <trkpt lat="45.92847" lon="4.38422">
        <ele>719</ele>
        <time>2019-04-18T02:18:49Z</time>
      </trkpt>
      <trkpt lat="45.9285" lon="4.38447">
        <ele>720</ele>
        <time>2019-04-18T02:19:49Z</time>
      </trkpt>
      <trkpt lat="45.92824" lon="4.38544">
        <ele>715</ele>
        <time>2019-04-18T02:20:49Z</time>
      </trkpt>
      <trkpt lat="45.92814" lon="4.38586">
        <ele>713</ele>
        <time>2019-04-18T02:21:49Z</time>
      </trkpt>
      <trkpt lat="45.92813" lon="4.38626">
        <ele>713</ele>
        <time>2019-04-18T02:22:49Z</time>
      </trkpt>
      <trkpt lat="45.92821" lon="4.38666">
        <ele>714</ele>
        <time>2019-04-18T02:23:49Z</time>
      </trkpt>
      <trkpt lat="45.92848" lon="4.38716">
        <ele>712</ele>
        <time>2019-04-18T02:24:49Z</time>
      </trkpt>
      <trkpt lat="45.9286" lon="4.38747">
        <ele>709</ele>
        <time>2019-04-18T02:25:49Z</time>
      </trkpt>
      <trkpt lat="45.92862" lon="4.38781">
        <ele>711</ele>
        <time>2019-04-18T02:26:49Z</time>
      </trkpt>
      <trkpt lat="45.92851" lon="4.38814">
        <ele>712</ele>
        <time>2019-04-18T02:27:49Z</time>
      </trkpt>
      <trkpt lat="45.92873" lon="4.38863">
        <ele>717</ele>
        <time>2019-04-18T02:28:49Z</time>
      </trkpt>
      <trkpt lat="45.92911" lon="4.38933">
        <ele>725</ele>
        <time>2019-04-18T02:29:49Z</time>
      </trkpt>
      <trkpt lat="45.92943" lon="4.38984">
        <ele>730</ele>
        <time>2019-04-18T02:30:49Z</time>
      </trkpt>
      <trkpt lat="45.92965" lon="4.39005">
        <ele>732</ele>
        <time>2019-04-18T02:31:49Z</time>
      </trkpt>
      <trkpt lat="45.92985" lon="4.39015">
        <ele>733</ele>
        <time>2019-04-18T02:32:49Z</time>
      </trkpt>
      <trkpt lat="45.93023" lon="4.39012">
        <ele>737</ele>
        <time>2019-04-18T02:33:49Z</time>
      </trkpt>
      <trkpt lat="45.93034" lon="4.39014">
        <ele>738</ele>
        <time>2019-04-18T02:34:49Z</time>
      </trkpt>
      <trkpt lat="45.93046" lon="4.39024">
        <ele>738</ele>
        <time>2019-04-18T02:35:49Z</time>
      </trkpt>
      <trkpt lat="45.93074" lon="4.39072">
        <ele>735</ele>
        <time>2019-04-18T02:36:49Z</time>
      </trkpt>
      <trkpt lat="45.93093" lon="4.39109">
        <ele>732</ele>
        <time>2019-04-18T02:37:49Z</time>
      </trkpt>
      <trkpt lat="45.93112" lon="4.39133">
        <ele>729</ele>
        <time>2019-04-18T02:38:49Z</time>
      </trkpt>
      <trkpt lat="45.9313" lon="4.39145">
        <ele>728</ele>
        <time>2019-04-18T02:39:49Z</time>
      </trkpt>
      <trkpt lat="45.93175" lon="4.39163">
        <ele>729</ele>
        <time>2019-04-18T02:40:49Z</time>
      </trkpt>
      <trkpt lat="45.93192" lon="4.39173">
        <ele>729</ele>
        <time>2019-04-18T02:41:49Z</time>
      </trkpt>
      <trkpt lat="45.932" lon="4.39191">
        <ele>729</ele>
        <time>2019-04-18T02:42:49Z</time>
      </trkpt>
      <trkpt lat="45.93201" lon="4.39215">
        <ele>726</ele>
        <time>2019-04-18T02:43:49Z</time>
      </trkpt>
      <trkpt lat="45.93186" lon="4.39314">
        <ele>714</ele>
        <time>2019-04-18T02:44:49Z</time>
      </trkpt>
      <trkpt lat="45.93183" lon="4.39403">
        <ele>715</ele>
        <time>2019-04-18T02:45:49Z</time>
      </trkpt>
      <trkpt lat="45.93173" lon="4.39466">
        <ele>715</ele>
        <time>2019-04-18T02:46:49Z</time>
      </trkpt>
      <trkpt lat="45.93155" lon="4.39526">
        <ele>715</ele>
        <time>2019-04-18T02:47:49Z</time>
      </trkpt>
      <trkpt lat="45.93113" lon="4.39616">
        <ele>713</ele>
        <time>2019-04-18T02:48:49Z</time>
      </trkpt>
      <trkpt lat="45.93103" lon="4.39642">
        <ele>713</ele>
        <time>2019-04-18T02:49:49Z</time>
      </trkpt>
      <trkpt lat="45.93094" lon="4.39679">
        <ele>714</ele>
        <time>2019-04-18T02:50:49Z</time>
      </trkpt>
      <trkpt lat="45.9309" lon="4.39705">
        <ele>713</ele>
        <time>2019-04-18T02:51:49Z</time>
      </trkpt>
      <trkpt lat="45.93091" lon="4.39733">
        <ele>713</ele>
        <time>2019-04-18T02:52:49Z</time>
      </trkpt>
      <trkpt lat="45.93096" lon="4.39758">
        <ele>714</ele>
        <time>2019-04-18T02:53:49Z</time>
      </trkpt>
      <trkpt lat="45.93104" lon="4.39777">
        <ele>714</ele>
        <time>2019-04-18T02:54:49Z</time>
      </trkpt>
      <trkpt lat="45.93119" lon="4.39804">
        <ele>717</ele>
        <time>2019-04-18T02:55:49Z</time>
      </trkpt>
      <trkpt lat="45.93125" lon="4.39837">
        <ele>716</ele>
        <time>2019-04-18T02:56:49Z</time>
      </trkpt>
      <trkpt lat="45.93125" lon="4.39872">
        <ele>716</ele>
        <time>2019-04-18T02:57:49Z</time>
      </trkpt>
      <trkpt lat="45.93117" lon="4.39919">
        <ele>714</ele>
        <time>2019-04-18T02:58:49Z</time>
      </trkpt>
      <trkpt lat="45.93096" lon="4.39992">
        <ele>714</ele>
        <time>2019-04-18T02:59:49Z</time>
      </trkpt>
      <trkpt lat="45.93096" lon="4.40014">
        <ele>715</ele>
        <time>2019-04-18T03:00:49Z</time>
      </trkpt>
      <trkpt lat="45.93098" lon="4.40027">
        <ele>715</ele>
        <time>2019-04-18T03:01:49Z</time>
      </trkpt>
      <trkpt lat="45.93103" lon="4.40037">
        <ele>716</ele>
        <time>2019-04-18T03:02:49Z</time>
      </trkpt>
      <trkpt lat="45.93111" lon="4.40042">
        <ele>716</ele>
        <time>2019-04-18T03:03:49Z</time>
      </trkpt>
      <trkpt lat="45.9319" lon="4.40062">
        <ele>715</ele>
        <time>2019-04-18T03:04:49Z</time>
      </trkpt>
      <trkpt lat="45.93243" lon="4.40055">
        <ele>716</ele>
        <time>2019-04-18T03:05:49Z</time>
      </trkpt>
      <trkpt lat="45.93264" lon="4.40039">
        <ele>718</ele>
        <time>2019-04-18T03:06:49Z</time>
      </trkpt>
      <trkpt lat="45.93278" lon="4.40021">
        <ele>720</ele>
        <time>2019-04-18T03:07:49Z</time>
      </trkpt>
      <trkpt lat="45.93305" lon="4.39964">
        <ele>728</ele>
        <time>2019-04-18T03:08:49Z</time>
      </trkpt>
      <trkpt lat="45.93326" lon="4.39917">
        <ele>734</ele>
        <time>2019-04-18T03:09:49Z</time>
      </trkpt>
      <trkpt lat="45.93336" lon="4.39871">
        <ele>741</ele>
        <time>2019-04-18T03:10:49Z</time>
      </trkpt>
      <trkpt lat="45.93343" lon="4.39851">
        <ele>742</ele>
        <time>2019-04-18T03:11:49Z</time>
      </trkpt>
      <trkpt lat="45.93355" lon="4.39837">
        <ele>741</ele>
        <time>2019-04-18T03:12:49Z</time>
      </trkpt>
      <trkpt lat="45.93373" lon="4.39825">
        <ele>738</ele>
        <time>2019-04-18T03:13:49Z</time>
      </trkpt>
      <trkpt lat="45.93425" lon="4.39811">
        <ele>724</ele>
        <time>2019-04-18T03:14:49Z</time>
      </trkpt>
      <trkpt lat="45.93469" lon="4.39782">
        <ele>715</ele>
        <time>2019-04-18T03:15:49Z</time>
      </trkpt>
      <trkpt lat="45.93506" lon="4.39744">
        <ele>709</ele>
        <time>2019-04-18T03:16:49Z</time>
      </trkpt>
      <trkpt lat="45.93521" lon="4.39715">
        <ele>709</ele>
        <time>2019-04-18T03:17:49Z</time>
      </trkpt>
      <trkpt lat="45.93546" lon="4.39632">
        <ele>716</ele>
        <time>2019-04-18T03:18:49Z</time>
      </trkpt>
      <trkpt lat="45.93597" lon="4.39489">
        <ele>720</ele>
        <time>2019-04-18T03:19:49Z</time>
      </trkpt>
      <trkpt lat="45.93612" lon="4.39437">
        <ele>720</ele>
        <time>2019-04-18T03:20:49Z</time>
      </trkpt>
      <trkpt lat="45.93627" lon="4.39393">
        <ele>718</ele>
        <time>2019-04-18T03:21:49Z</time>
      </trkpt>
      <trkpt lat="45.9365" lon="4.3936">
        <ele>714</ele>
        <time>2019-04-18T03:22:49Z</time>
      </trkpt>
      <trkpt lat="45.9368" lon="4.39337">
        <ele>713</ele>
        <time>2019-04-18T03:23:49Z</time>
      </trkpt>
      <trkpt lat="45.93711" lon="4.39324">
        <ele>717</ele>
        <time>2019-04-18T03:24:49Z</time>
      </trkpt>
      <trkpt lat="45.93732" lon="4.39333">
        <ele>715</ele>
        <time>2019-04-18T03:25:49Z</time>
      </trkpt>
      <trkpt lat="45.93751" lon="4.39356">
        <ele>713</ele>
        <time>2019-04-18T03:26:49Z</time>
      </trkpt>
      <trkpt lat="45.93766" lon="4.39383">
        <ele>713</ele>
        <time>2019-04-18T03:27:49Z</time>
      </trkpt>
      <trkpt lat="45.93773" lon="4.39408">
        <ele>711</ele>
        <time>2019-04-18T03:28:49Z</time>
      </trkpt>
      <trkpt lat="45.93785" lon="4.39493">
        <ele>706</ele>
        <time>2019-04-18T03:29:49Z</time>
      </trkpt>
      <trkpt lat="45.93794" lon="4.39535">
        <ele>704</ele>
        <time>2019-04-18T03:30:49Z</time>
      </trkpt>
      <trkpt lat="45.9381" lon="4.39569">
        <ele>703</ele>
        <time>2019-04-18T03:31:49Z</time>
      </trkpt>
      <trkpt lat="45.93826" lon="4.39591">
        <ele>703</ele>
        <time>2019-04-18T03:32:49Z</time>
      </trkpt>
      <trkpt lat="45.93836" lon="4.39596">
        <ele>704</ele>
        <time>2019-04-18T03:33:49Z</time>
      </trkpt>
      <trkpt lat="45.9385" lon="4.39595">
        <ele>707</ele>
        <time>2019-04-18T03:34:49Z</time>
      </trkpt>
      <trkpt lat="45.9387" lon="4.39587">
        <ele>711</ele>
        <time>2019-04-18T03:35:49Z</time>
      </trkpt>
      <trkpt lat="45.93884" lon="4.39588">
        <ele>713</ele>
        <time>2019-04-18T03:36:49Z</time>
      </trkpt>
      <trkpt lat="45.93903" lon="4.39597">
        <ele>714</ele>
        <time>2019-04-18T03:37:49Z</time>
      </trkpt>
      <trkpt lat="45.93918" lon="4.39619">
        <ele>712</ele>
        <time>2019-04-18T03:38:49Z</time>
      </trkpt>
      <trkpt lat="45.93948" lon="4.39701">
        <ele>710</ele>
        <time>2019-04-18T03:39:49Z</time>
      </trkpt>
      <trkpt lat="45.93959" lon="4.39728">
        <ele>710</ele>
        <time>2019-04-18T03:40:49Z</time>
      </trkpt>
      <trkpt lat="45.93991" lon="4.39782">
        <ele>712</ele>
        <time>2019-04-18T03:41:49Z</time>
      </trkpt>
      <trkpt lat="45.93998" lon="4.39807">
        <ele>710</ele>
        <time>2019-04-18T03:42:49Z</time>
      </trkpt>
      <trkpt lat="45.94013" lon="4.39889">
        <ele>711</ele>
        <time>2019-04-18T03:43:49Z</time>
      </trkpt>
      <trkpt lat="45.94011" lon="4.39906">
        <ele>710</ele>
        <time>2019-04-18T03:44:49Z</time>
      </trkpt>
      <trkpt lat="45.94005" lon="4.39923">
        <ele>708</ele>
        <time>2019-04-18T03:45:49Z</time>
      </trkpt>
      <trkpt lat="45.93955" lon="4.39988">
        <ele>705</ele>
        <time>2019-04-18T03:46:49Z</time>
      </trkpt>
      <trkpt lat="45.93941" lon="4.40014">
        <ele>702</ele>
        <time>2019-04-18T03:47:49Z</time>
      </trkpt>
      <trkpt lat="45.93937" lon="4.40038">
        <ele>700</ele>
        <time>2019-04-18T03:48:49Z</time>
      </trkpt>
      <trkpt lat="45.93941" lon="4.40059">
        <ele>701</ele>
        <time>2019-04-18T03:49:49Z</time>
      </trkpt>
      <trkpt lat="45.93948" lon="4.40077">
        <ele>703</ele>
        <time>2019-04-18T03:50:49Z</time>
      </trkpt>
      <trkpt lat="45.94024" lon="4.40176">
        <ele>712</ele>
        <time>2019-04-18T03:51:49Z</time>
      </trkpt>
      <trkpt lat="45.94041" lon="4.40201">
        <ele>716</ele>
        <time>2019-04-18T03:52:49Z</time>
      </trkpt>
      <trkpt lat="45.94051" lon="4.40229">
        <ele>716</ele>
        <time>2019-04-18T03:53:49Z</time>
      </trkpt>
      <trkpt lat="45.94055" lon="4.4025">
        <ele>714</ele>
        <time>2019-04-18T03:54:49Z</time>
      </trkpt>
      <trkpt lat="45.94052" lon="4.40268">
        <ele>716</ele>
        <time>2019-04-18T03:55:49Z</time>
      </trkpt>
      <trkpt lat="45.94045" lon="4.40282">
        <ele>716</ele>
        <time>2019-04-18T03:56:49Z</time>
      </trkpt>
      <trkpt lat="45.94033" lon="4.40295">
        <ele>716</ele>
        <time>2019-04-18T03:57:49Z</time>
      </trkpt>
      <trkpt lat="45.94009" lon="4.40309">
        <ele>714</ele>
        <time>2019-04-18T03:58:49Z</time>
      </trkpt>
      <trkpt lat="45.93926" lon="4.40318">
        <ele>704</ele>
        <time>2019-04-18T03:59:49Z</time>
      </trkpt>
      <trkpt lat="45.93865" lon="4.40314">
        <ele>696</ele>
        <time>2019-04-18T04:00:49Z</time>
      </trkpt>
      <trkpt lat="45.938" lon="4.40336">
        <ele>693</ele>
        <time>2019-04-18T04:01:49Z</time>
      </trkpt>
      <trkpt lat="45.93768" lon="4.40361">
        <ele>691</ele>
        <time>2019-04-18T04:02:49Z</time>
      </trkpt>
      <trkpt lat="45.93727" lon="4.40409">
        <ele>689</ele>
        <time>2019-04-18T04:03:49Z</time>
      </trkpt>
      <trkpt lat="45.93702" lon="4.4045">
        <ele>687</ele>
        <time>2019-04-18T04:04:49Z</time>
      </trkpt>
      <trkpt lat="45.93687" lon="4.40495">
        <ele>687</ele>
        <time>2019-04-18T04:05:49Z</time>
      </trkpt>
      <trkpt lat="45.93681" lon="4.40524">
        <ele>685</ele>
        <time>2019-04-18T04:06:49Z</time>
      </trkpt>
      <trkpt lat="45.9368" lon="4.40548">
        <ele>683</ele>
        <time>2019-04-18T04:07:49Z</time>
      </trkpt>
      <trkpt lat="45.93683" lon="4.40566">
        <ele>684</ele>
        <time>2019-04-18T04:08:49Z</time>
      </trkpt>
      <trkpt lat="45.9369" lon="4.40582">
        <ele>685</ele>
        <time>2019-04-18T04:09:49Z</time>
      </trkpt>
      <trkpt lat="45.9371" lon="4.40594">
        <ele>691</ele>
        <time>2019-04-18T04:10:49Z</time>
      </trkpt>
      <trkpt lat="45.93729" lon="4.40615">
        <ele>696</ele>
        <time>2019-04-18T04:11:49Z</time>
      </trkpt>
      <trkpt lat="45.93738" lon="4.40633">
        <ele>698</ele>
        <time>2019-04-18T04:12:49Z</time>
      </trkpt>
      <trkpt lat="45.93741" lon="4.40653">
        <ele>698</ele>
        <time>2019-04-18T04:13:49Z</time>
      </trkpt>
      <trkpt lat="45.93741" lon="4.40671">
        <ele>697</ele>
        <time>2019-04-18T04:14:49Z</time>
      </trkpt>
      <trkpt lat="45.93731" lon="4.40704">
        <ele>695</ele>
        <time>2019-04-18T04:15:49Z</time>
      </trkpt>
      <trkpt lat="45.93722" lon="4.40726">
        <ele>692</ele>
        <time>2019-04-18T04:16:49Z</time>
      </trkpt>
      <trkpt lat="45.93644" lon="4.40837">
        <ele>679</ele>
        <time>2019-04-18T04:17:49Z</time>
      </trkpt>
      <trkpt lat="45.93622" lon="4.40875">
        <ele>675</ele>
        <time>2019-04-18T04:18:49Z</time>
      </trkpt>
      <trkpt lat="45.93614" lon="4.40898">
        <ele>674</ele>
        <time>2019-04-18T04:19:49Z</time>
      </trkpt>
      <trkpt lat="45.93614" lon="4.40913">
        <ele>675</ele>
        <time>2019-04-18T04:20:49Z</time>
      </trkpt>
      <trkpt lat="45.9362" lon="4.40927">
        <ele>675</ele>
        <time>2019-04-18T04:21:49Z</time>
      </trkpt>
      <trkpt lat="45.93707" lon="4.4105">
        <ele>674</ele>
        <time>2019-04-18T04:22:49Z</time>
      </trkpt>
      <trkpt lat="45.93722" lon="4.4106">
        <ele>675</ele>
        <time>2019-04-18T04:23:49Z</time>
      </trkpt>
      <trkpt lat="45.93774" lon="4.4108">
        <ele>683</ele>
        <time>2019-04-18T04:24:49Z</time>
      </trkpt>
      <trkpt lat="45.93782" lon="4.41087">
        <ele>684</ele>
        <time>2019-04-18T04:25:49Z</time>
      </trkpt>
      <trkpt lat="45.93795" lon="4.4111">
        <ele>686</ele>
        <time>2019-04-18T04:26:49Z</time>
      </trkpt>
      <trkpt lat="45.93797" lon="4.41128">
        <ele>686</ele>
        <time>2019-04-18T04:27:49Z</time>
      </trkpt>
      <trkpt lat="45.93778" lon="4.41331">
        <ele>679</ele>
        <time>2019-04-18T04:28:49Z</time>
      </trkpt>
      <trkpt lat="45.93772" lon="4.41351">
        <ele>678</ele>
        <time>2019-04-18T04:29:49Z</time>
      </trkpt>
      <trkpt lat="45.9376" lon="4.4137">
        <ele>675</ele>
        <time>2019-04-18T04:30:49Z</time>
      </trkpt>
      <trkpt lat="45.93716" lon="4.41425">
        <ele>672</ele>
        <time>2019-04-18T04:31:49Z</time>
      </trkpt>
      <trkpt lat="45.937" lon="4.41438">
        <ele>672</ele>
        <time>2019-04-18T04:32:49Z</time>
      </trkpt>
      <trkpt lat="45.93688" lon="4.4144">
        <ele>671</ele>
        <time>2019-04-18T04:33:49Z</time>
      </trkpt>
      <trkpt lat="45.93675" lon="4.41436">
        <ele>668</ele>
        <time>2019-04-18T04:34:49Z</time>
      </trkpt>
      <trkpt lat="45.93641" lon="4.41412">
        <ele>663</ele>
        <time>2019-04-18T04:35:49Z</time>
      </trkpt>
      <trkpt lat="45.93627" lon="4.41409">
        <ele>663</ele>
        <time>2019-04-18T04:36:49Z</time>
      </trkpt>
      <trkpt lat="45.93598" lon="4.41409">
        <ele>663</ele>
        <time>2019-04-18T04:37:49Z</time>
      </trkpt>
      <trkpt lat="45.93547" lon="4.41404">
        <ele>659</ele>
        <time>2019-04-18T04:38:49Z</time>
      </trkpt>
      <trkpt lat="45.93532" lon="4.41408">
        <ele>658</ele>
        <time>2019-04-18T04:39:49Z</time>
      </trkpt>
      <trkpt lat="45.93521" lon="4.41418">
        <ele>659</ele>
        <time>2019-04-18T04:40:49Z</time>
      </trkpt>
      <trkpt lat="45.93517" lon="4.41434">
        <ele>658</ele>
        <time>2019-04-18T04:41:49Z</time>
      </trkpt>
      <trkpt lat="45.93516" lon="4.41456">
        <ele>657</ele>
        <time>2019-04-18T04:42:49Z</time>
      </trkpt>
      <trkpt lat="45.93527" lon="4.41535">
        <ele>658</ele>
        <time>2019-04-18T04:43:49Z</time>
      </trkpt>
      <trkpt lat="45.93528" lon="4.41559">
        <ele>659</ele>
        <time>2019-04-18T04:44:49Z</time>
      </trkpt>
      <trkpt lat="45.9352" lon="4.41707">
        <ele>657</ele>
        <time>2019-04-18T04:45:49Z</time>
      </trkpt>
      <trkpt lat="45.93518" lon="4.41796">
        <ele>659</ele>
        <time>2019-04-18T04:46:49Z</time>
      </trkpt>
      <trkpt lat="45.9351" lon="4.41839">
        <ele>659</ele>
        <time>2019-04-18T04:47:49Z</time>
      </trkpt>
      <trkpt lat="45.93475" lon="4.41999">
        <ele>653</ele>
        <time>2019-04-18T04:48:49Z</time>
      </trkpt>
      <trkpt lat="45.93469" lon="4.42017">
        <ele>652</ele>
        <time>2019-04-18T04:49:49Z</time>
      </trkpt>
      <trkpt lat="45.9343" lon="4.42007">
        <ele>648</ele>
        <time>2019-04-18T04:50:49Z</time>
      </trkpt>
      <trkpt lat="45.93418" lon="4.42009">
        <ele>646</ele>
        <time>2019-04-18T04:51:49Z</time>
      </trkpt>
      <trkpt lat="45.93368" lon="4.42056">
        <ele>647</ele>
        <time>2019-04-18T04:52:49Z</time>
      </trkpt>
      <trkpt lat="45.93344" lon="4.42076">
        <ele>648</ele>
        <time>2019-04-18T04:53:49Z</time>
      </trkpt>
      <trkpt lat="45.93322" lon="4.42085">
        <ele>648</ele>
        <time>2019-04-18T04:54:49Z</time>
      </trkpt>
      <trkpt lat="45.93276" lon="4.42094">
        <ele>649</ele>
        <time>2019-04-18T04:55:49Z</time>
      </trkpt>
      <trkpt lat="45.9327" lon="4.421">
        <ele>650</ele>
        <time>2019-04-18T04:56:49Z</time>
      </trkpt>
      <trkpt lat="45.93266" lon="4.42109">
        <ele>649</ele>
        <time>2019-04-18T04:57:49Z</time>
      </trkpt>
      <trkpt lat="45.93265" lon="4.42123">
        <ele>649</ele>
        <time>2019-04-18T04:58:49Z</time>
      </trkpt>
      <trkpt lat="45.93266" lon="4.42196">
        <ele>644</ele>
        <time>2019-04-18T04:59:49Z</time>
      </trkpt>
      <trkpt lat="45.93259" lon="4.42224">
        <ele>644</ele>
        <time>2019-04-18T05:00:49Z</time>
      </trkpt>
      <trkpt lat="45.93231" lon="4.42312">
        <ele>639</ele>
        <time>2019-04-18T05:01:49Z</time>
      </trkpt>
      <trkpt lat="45.93208" lon="4.42372">
        <ele>635</ele>
        <time>2019-04-18T05:02:49Z</time>
      </trkpt>
      <trkpt lat="45.93172" lon="4.42429">
        <ele>635</ele>
        <time>2019-04-18T05:03:49Z</time>
      </trkpt>
      <trkpt lat="45.93149" lon="4.42452">
        <ele>632</ele>
        <time>2019-04-18T05:04:49Z</time>
      </trkpt>
      <trkpt lat="45.93115" lon="4.42458">
        <ele>632</ele>
        <time>2019-04-18T05:05:49Z</time>
      </trkpt>
      <trkpt lat="45.93106" lon="4.42469">
        <ele>632</ele>
        <time>2019-04-18T05:06:49Z</time>
      </trkpt>
      <trkpt lat="45.93047" lon="4.42617">
        <ele>625</ele>
        <time>2019-04-18T05:07:49Z</time>
      </trkpt>
      <trkpt lat="45.93045" lon="4.42631">
        <ele>625</ele>
        <time>2019-04-18T05:08:49Z</time>
      </trkpt>
      <trkpt lat="45.93042" lon="4.42633">
        <ele>625</ele>
        <time>2019-04-18T05:09:49Z</time>
      </trkpt>
      <trkpt lat="45.93034" lon="4.42663">
        <ele>625</ele>
        <time>2019-04-18T05:10:49Z</time>
      </trkpt>
      <trkpt lat="45.93021" lon="4.42689">
        <ele>628</ele>
        <time>2019-04-18T05:11:49Z</time>
      </trkpt>
      <trkpt lat="45.92845" lon="4.42888">
        <ele>636</ele>
        <time>2019-04-18T05:12:49Z</time>
      </trkpt>
      <trkpt lat="45.92766" lon="4.42973">
        <ele>636</ele>
        <time>2019-04-18T05:13:49Z</time>
      </trkpt>
      <trkpt lat="45.92755" lon="4.42988">
        <ele>637</ele>
        <time>2019-04-18T05:14:49Z</time>
      </trkpt>
      <trkpt lat="45.92746" lon="4.43004">
        <ele>638</ele>
        <time>2019-04-18T05:15:49Z</time>
      </trkpt>
      <trkpt lat="45.92737" lon="4.43017">
        <ele>637</ele>
        <time>2019-04-18T05:16:49Z</time>
      </trkpt>
      <trkpt lat="45.92717" lon="4.43035">
        <ele>637</ele>
        <time>2019-04-18T05:17:49Z</time>
      </trkpt>
      <trkpt lat="45.9271" lon="4.43044">
        <ele>637</ele>
        <time>2019-04-18T05:18:49Z</time>
      </trkpt>
      <trkpt lat="45.92707" lon="4.43054">
        <ele>637</ele>
        <time>2019-04-18T05:19:49Z</time>
      </trkpt>
      <trkpt lat="45.92706" lon="4.43067">
        <ele>638</ele>
        <time>2019-04-18T05:20:49Z</time>
      </trkpt>
      <trkpt lat="45.92706" lon="4.43112">
        <ele>637</ele>
        <time>2019-04-18T05:21:49Z</time>
      </trkpt>
      <trkpt lat="45.92702" lon="4.4314">
        <ele>635</ele>
        <time>2019-04-18T05:22:49Z</time>
      </trkpt>
      <trkpt lat="45.92695" lon="4.43164">
        <ele>634</ele>
        <time>2019-04-18T05:23:49Z</time>
      </trkpt>
      <trkpt lat="45.92683" lon="4.43191">
        <ele>633</ele>
        <time>2019-04-18T05:24:49Z</time>
      </trkpt>
      <trkpt lat="45.92629" lon="4.4329">
        <ele>632</ele>
        <time>2019-04-18T05:25:49Z</time>
      </trkpt>
      <trkpt lat="45.92574" lon="4.43382">
        <ele>630</ele>
        <time>2019-04-18T05:26:49Z</time>
      </trkpt>
      <trkpt lat="45.92529" lon="4.43437">
        <ele>625</ele>
        <time>2019-04-18T05:27:49Z</time>
      </trkpt>
      <trkpt lat="45.92512" lon="4.43451">
        <ele>622</ele>
        <time>2019-04-18T05:28:49Z</time>
      </trkpt>
      <trkpt lat="45.92495" lon="4.43456">
        <ele>621</ele>
        <time>2019-04-18T05:29:49Z</time>
      </trkpt>
      <trkpt lat="45.92437" lon="4.43452">
        <ele>617</ele>
        <time>2019-04-18T05:30:49Z</time>
      </trkpt>
      <trkpt lat="45.92402" lon="4.43445">
        <ele>617</ele>
        <time>2019-04-18T05:31:49Z</time>
      </trkpt>
      <trkpt lat="45.92379" lon="4.43447">
        <ele>617</ele>
        <time>2019-04-18T05:32:49Z</time>
      </trkpt>
      <trkpt lat="45.92363" lon="4.43453">
        <ele>615</ele>
        <time>2019-04-18T05:33:49Z</time>
      </trkpt>
      <trkpt lat="45.92346" lon="4.43465">
        <ele>612</ele>
        <time>2019-04-18T05:34:49Z</time>
      </trkpt>
      <trkpt lat="45.92328" lon="4.43484">
        <ele>608</ele>
        <time>2019-04-18T05:35:49Z</time>
      </trkpt>
      <trkpt lat="45.92308" lon="4.43509">
        <ele>602</ele>
        <time>2019-04-18T05:36:49Z</time>
      </trkpt>
      <trkpt lat="45.92284" lon="4.43534">
        <ele>596</ele>
        <time>2019-04-18T05:37:49Z</time>
      </trkpt>
      <trkpt lat="45.92281" lon="4.43542">
        <ele>595</ele>
        <time>2019-04-18T05:38:49Z</time>
      </trkpt>
      <trkpt lat="45.92282" lon="4.43567">
        <ele>590</ele>
        <time>2019-04-18T05:39:49Z</time>
      </trkpt>
      <trkpt lat="45.92282" lon="4.43577">
        <ele>588</ele>
        <time>2019-04-18T05:40:49Z</time>
      </trkpt>
      <trkpt lat="45.92279" lon="4.43581">
        <ele>587</ele>
        <time>2019-04-18T05:41:49Z</time>
      </trkpt>
      <trkpt lat="45.92272" lon="4.43581">
        <ele>587</ele>
        <time>2019-04-18T05:42:49Z</time>
      </trkpt>
      <trkpt lat="45.92263" lon="4.43577">
        <ele>589</ele>
        <time>2019-04-18T05:43:49Z</time>
      </trkpt>
      <trkpt lat="45.92242" lon="4.43565">
        <ele>590</ele>
        <time>2019-04-18T05:44:49Z</time>
      </trkpt>
      <trkpt lat="45.92222" lon="4.43549">
        <ele>589</ele>
        <time>2019-04-18T05:45:49Z</time>
      </trkpt>
      <trkpt lat="45.92208" lon="4.43525">
        <ele>591</ele>
        <time>2019-04-18T05:46:49Z</time>
      </trkpt>
      <trkpt lat="45.92186" lon="4.43502">
        <ele>592</ele>
        <time>2019-04-18T05:47:49Z</time>
      </trkpt>
      <trkpt lat="45.92162" lon="4.43491">
        <ele>592</ele>
        <time>2019-04-18T05:48:49Z</time>
      </trkpt>
      <trkpt lat="45.92061" lon="4.43512">
        <ele>593</ele>
        <time>2019-04-18T05:49:49Z</time>
      </trkpt>
      <trkpt lat="45.92025" lon="4.43529">
        <ele>595</ele>
        <time>2019-04-18T05:50:49Z</time>
      </trkpt>
      <trkpt lat="45.91997" lon="4.43555">
        <ele>594</ele>
        <time>2019-04-18T05:51:49Z</time>
      </trkpt>
      <trkpt lat="45.91934" lon="4.43634">
        <ele>596</ele>
        <time>2019-04-18T05:52:49Z</time>
      </trkpt>
      <trkpt lat="45.91907" lon="4.43673">
        <ele>598</ele>
        <time>2019-04-18T05:53:49Z</time>
      </trkpt>
      <trkpt lat="45.91872" lon="4.43742">
        <ele>591</ele>
        <time>2019-04-18T05:54:49Z</time>
      </trkpt>
      <trkpt lat="45.91846" lon="4.43776">
        <ele>588</ele>
        <time>2019-04-18T05:55:49Z</time>
      </trkpt>
      <trkpt lat="45.91827" lon="4.43792">
        <ele>588</ele>
        <time>2019-04-18T05:56:49Z</time>
      </trkpt>
      <trkpt lat="45.91809" lon="4.43794">
        <ele>589</ele>
        <time>2019-04-18T05:57:49Z</time>
      </trkpt>
      <trkpt lat="45.91775" lon="4.43784">
        <ele>595</ele>
        <time>2019-04-18T05:58:49Z</time>
      </trkpt>
      <trkpt lat="45.91757" lon="4.43782">
        <ele>597</ele>
        <time>2019-04-18T05:59:49Z</time>
      </trkpt>
      <trkpt lat="45.91736" lon="4.43788">
        <ele>598</ele>
        <time>2019-04-18T06:00:49Z</time>
      </trkpt>
      <trkpt lat="45.91723" lon="4.43798">
        <ele>597</ele>
        <time>2019-04-18T06:01:49Z</time>
      </trkpt>
      <trkpt lat="45.91646" lon="4.43885">
        <ele>593</ele>
        <time>2019-04-18T06:02:49Z</time>
      </trkpt>
      <trkpt lat="45.91618" lon="4.43913">
        <ele>592</ele>
        <time>2019-04-18T06:03:49Z</time>
      </trkpt>
      <trkpt lat="45.91616" lon="4.43919">
        <ele>592</ele>
        <time>2019-04-18T06:04:49Z</time>
      </trkpt>
      <trkpt lat="45.91628" lon="4.43937">
        <ele>592</ele>
        <time>2019-04-18T06:05:49Z</time>
      </trkpt>
      <trkpt lat="45.91635" lon="4.43958">
        <ele>592</ele>
        <time>2019-04-18T06:06:49Z</time>
      </trkpt>
      <trkpt lat="45.91652" lon="4.44036">
        <ele>591</ele>
        <time>2019-04-18T06:07:49Z</time>
      </trkpt>
      <trkpt lat="45.91664" lon="4.44104">
        <ele>591</ele>
        <time>2019-04-18T06:08:49Z</time>
      </trkpt>
      <trkpt lat="45.91668" lon="4.44147">
        <ele>590</ele>
        <time>2019-04-18T06:09:49Z</time>
      </trkpt>
      <trkpt lat="45.91663" lon="4.44193">
        <ele>588</ele>
        <time>2019-04-18T06:10:49Z</time>
      </trkpt>
      <trkpt lat="45.91658" lon="4.44218">
        <ele>586</ele>
        <time>2019-04-18T06:11:49Z</time>
      </trkpt>
      <trkpt lat="45.91648" lon="4.44242">
        <ele>585</ele>
        <time>2019-04-18T06:12:49Z</time>
      </trkpt>
      <trkpt lat="45.91602" lon="4.44333">
        <ele>581</ele>
        <time>2019-04-18T06:13:49Z</time>
      </trkpt>
      <trkpt lat="45.91598" lon="4.44363">
        <ele>578</ele>
        <time>2019-04-18T06:14:49Z</time>
      </trkpt>
      <trkpt lat="45.916" lon="4.44379">
        <ele>576</ele>
        <time>2019-04-18T06:15:49Z</time>
      </trkpt>
      <trkpt lat="45.91601" lon="4.44461">
        <ele>566</ele>
        <time>2019-04-18T06:16:49Z</time>
      </trkpt>
      <trkpt lat="45.91594" lon="4.44482">
        <ele>566</ele>
        <time>2019-04-18T06:17:49Z</time>
      </trkpt>
      <trkpt lat="45.91588" lon="4.44497">
        <ele>566</ele>
        <time>2019-04-18T06:18:49Z</time>
      </trkpt>
      <trkpt lat="45.91567" lon="4.44513">
        <ele>569</ele>
        <time>2019-04-18T06:19:49Z</time>
      </trkpt>
      <trkpt lat="45.91544" lon="4.44525">
        <ele>574</ele>
        <time>2019-04-18T06:20:49Z</time>
      </trkpt>
      <trkpt lat="45.91536" lon="4.44533">
        <ele>575</ele>
        <time>2019-04-18T06:21:49Z</time>
      </trkpt>
      <trkpt lat="45.91531" lon="4.44563">
        <ele>573</ele>
        <time>2019-04-18T06:22:49Z</time>
      </trkpt>
      <trkpt lat="45.91539" lon="4.44607">
        <ele>564</ele>
        <time>2019-04-18T06:23:49Z</time>
      </trkpt>
      <trkpt lat="45.91541" lon="4.44627">
        <ele>560</ele>
        <time>2019-04-18T06:24:49Z</time>
      </trkpt>
      <trkpt lat="45.9154" lon="4.44671">
        <ele>555</ele>
        <time>2019-04-18T06:25:49Z</time>
      </trkpt>
      <trkpt lat="45.91544" lon="4.44687">
        <ele>552</ele>
        <time>2019-04-18T06:26:49Z</time>
      </trkpt>
      <trkpt lat="45.91553" lon="4.44703">
        <ele>548</ele>
        <time>2019-04-18T06:27:49Z</time>
      </trkpt>
      <trkpt lat="45.91572" lon="4.44715">
        <ele>541</ele>
        <time>2019-04-18T06:28:49Z</time>
      </trkpt>
      <trkpt lat="45.91598" lon="4.44725">
        <ele>533</ele>
        <time>2019-04-18T06:29:49Z</time>
      </trkpt>
      <trkpt lat="45.9162" lon="4.44744">
        <ele>528</ele>
        <time>2019-04-18T06:30:49Z</time>
      </trkpt>
      <trkpt lat="45.91702" lon="4.4483">
        <ele>518</ele>
        <time>2019-04-18T06:31:49Z</time>
      </trkpt>
      <trkpt lat="45.9173" lon="4.44846">
        <ele>514</ele>
        <time>2019-04-18T06:32:49Z</time>
      </trkpt>
      <trkpt lat="45.91744" lon="4.4485">
        <ele>512</ele>
        <time>2019-04-18T06:33:49Z</time>
      </trkpt>
      <trkpt lat="45.9176" lon="4.44846">
        <ele>510</ele>
        <time>2019-04-18T06:34:49Z</time>
      </trkpt>
      <trkpt lat="45.91808" lon="4.44818">
        <ele>504</ele>
        <time>2019-04-18T06:35:49Z</time>
      </trkpt>
      <trkpt lat="45.91845" lon="4.44791">
        <ele>499</ele>
        <time>2019-04-18T06:36:49Z</time>
      </trkpt>
      <trkpt lat="45.91875" lon="4.44762">
        <ele>496</ele>
        <time>2019-04-18T06:37:49Z</time>
      </trkpt>
      <trkpt lat="45.91934" lon="4.44691">
        <ele>486</ele>
        <time>2019-04-18T06:38:49Z</time>
      </trkpt>
      <trkpt lat="45.91976" lon="4.44654">
        <ele>480</ele>
        <time>2019-04-18T06:39:49Z</time>
      </trkpt>
      <trkpt lat="45.92011" lon="4.44629">
        <ele>474</ele>
        <time>2019-04-18T06:40:49Z</time>
      </trkpt>
      <trkpt lat="45.92046" lon="4.4462">
        <ele>469</ele>
        <time>2019-04-18T06:41:49Z</time>
      </trkpt>
      <trkpt lat="45.92071" lon="4.4461">
        <ele>464</ele>
        <time>2019-04-18T06:42:49Z</time>
      </trkpt>
      <trkpt lat="45.9209" lon="4.44619">
        <ele>464</ele>
        <time>2019-04-18T06:43:49Z</time>
      </trkpt>
      <trkpt lat="45.92111" lon="4.44632">
        <ele>462</ele>
        <time>2019-04-18T06:44:49Z</time>
      </trkpt>
      <trkpt lat="45.92128" lon="4.44646">
        <ele>461</ele>
        <time>2019-04-18T06:45:49Z</time>
      </trkpt>
      <trkpt lat="45.92166" lon="4.44657">
        <ele>453</ele>
        <time>2019-04-18T06:46:49Z</time>
      </trkpt>
      <trkpt lat="45.9219" lon="4.44667">
        <ele>448</ele>
        <time>2019-04-18T06:47:49Z</time>
      </trkpt>
      <trkpt lat="45.92217" lon="4.44687">
        <ele>445</ele>
        <time>2019-04-18T06:48:49Z</time>
      </trkpt>
      <trkpt lat="45.92254" lon="4.44726">
        <ele>438</ele>
        <time>2019-04-18T06:49:49Z</time>
      </trkpt>
      <trkpt lat="45.92298" lon="4.44748">
        <ele>427</ele>
        <time>2019-04-18T06:50:49Z</time>
      </trkpt>
      <trkpt lat="45.92315" lon="4.44761">
        <ele>423</ele>
        <time>2019-04-18T06:51:49Z</time>
      </trkpt>
      <trkpt lat="45.92363" lon="4.44858">
        <ele>415</ele>
        <time>2019-04-18T06:52:49Z</time>
      </trkpt>
      <trkpt lat="45.92385" lon="4.44891">
        <ele>408</ele>
        <time>2019-04-18T06:53:49Z</time>
      </trkpt>
      <trkpt lat="45.92385" lon="4.44912">
        <ele>408</ele>
        <time>2019-04-18T06:54:49Z</time>
      </trkpt>
      <trkpt lat="45.92363" lon="4.45001">
        <ele>409</ele>
        <time>2019-04-18T06:55:49Z</time>
      </trkpt>
      <trkpt lat="45.92347" lon="4.45093">
        <ele>404</ele>
        <time>2019-04-18T06:56:49Z</time>
      </trkpt>
      <trkpt lat="45.92345" lon="4.45117">
        <ele>402</ele>
        <time>2019-04-18T06:57:49Z</time>
      </trkpt>
      <trkpt lat="45.92347" lon="4.45124">
        <ele>401</ele>
        <time>2019-04-18T06:58:49Z</time>
      </trkpt>
      <trkpt lat="45.9235" lon="4.45128">
        <ele>400</ele>
        <time>2019-04-18T06:59:49Z</time>
      </trkpt>
      <trkpt lat="45.92356" lon="4.45098">
        <ele>401</ele>
        <time>2019-04-18T07:00:49Z</time>
      </trkpt>
      <trkpt lat="45.92372" lon="4.45042">
        <ele>401</ele>
        <time>2019-04-18T07:01:49Z</time>
      </trkpt>
      <trkpt lat="45.92381" lon="4.45027">
        <ele>398</ele>
        <time>2019-04-18T07:02:49Z</time>
      </trkpt>
      <trkpt lat="45.92414" lon="4.44979">
        <ele>389</ele>
        <time>2019-04-18T07:03:49Z</time>
      </trkpt>
      <trkpt lat="45.92429" lon="4.44965">
        <ele>389</ele>
        <time>2019-04-18T07:04:49Z</time>
      </trkpt>
      <trkpt lat="45.92436" lon="4.44968">
        <ele>388</ele>
        <time>2019-04-18T07:05:49Z</time>
      </trkpt>
      <trkpt lat="45.92446" lon="4.44976">
        <ele>387</ele>
        <time>2019-04-18T07:06:49Z</time>
      </trkpt>
      <trkpt lat="45.92418" lon="4.45028">
        <ele>384</ele>
        <time>2019-04-18T07:07:49Z</time>
      </trkpt>
      <trkpt lat="45.9239" lon="4.45091">
        <ele>390</ele>
        <time>2019-04-18T07:08:49Z</time>
      </trkpt>
      <trkpt lat="45.92367" lon="4.45159">
        <ele>392</ele>
        <time>2019-04-18T07:09:49Z</time>
      </trkpt>
      <trkpt lat="45.92343" lon="4.45262">
        <ele>389</ele>
        <time>2019-04-18T07:10:49Z</time>
      </trkpt>
      <trkpt lat="45.92315" lon="4.45424">
        <ele>388</ele>
        <time>2019-04-18T07:11:49Z</time>
      </trkpt>
      <trkpt lat="45.92303" lon="4.45993">
        <ele>370</ele>
        <time>2019-04-18T07:12:49Z</time>
      </trkpt>
      <trkpt lat="45.92305" lon="4.46146">
        <ele>367</ele>
        <time>2019-04-18T07:13:49Z</time>
      </trkpt>
      <trkpt lat="45.92321" lon="4.46294">
        <ele>367</ele>
        <time>2019-04-18T07:14:49Z</time>
      </trkpt>
      <trkpt lat="45.92322" lon="4.46325">
        <ele>368</ele>
        <time>2019-04-18T07:15:49Z</time>
      </trkpt>
      <trkpt lat="45.92319" lon="4.46362">
        <ele>368</ele>
        <time>2019-04-18T07:16:49Z</time>
      </trkpt>
      <trkpt lat="45.92314" lon="4.46408">
        <ele>369</ele>
        <time>2019-04-18T07:17:49Z</time>
      </trkpt>
      <trkpt lat="45.92306" lon="4.46445">
        <ele>370</ele>
        <time>2019-04-18T07:18:49Z</time>
      </trkpt>
      <trkpt lat="45.92297" lon="4.46478">
        <ele>371</ele>
        <time>2019-04-18T07:19:49Z</time>
      </trkpt>
      <trkpt lat="45.92264" lon="4.46551">
        <ele>365</ele>
        <time>2019-04-18T07:20:49Z</time>
      </trkpt>
      <trkpt lat="45.92255" lon="4.46581">
        <ele>363</ele>
        <time>2019-04-18T07:21:49Z</time>
      </trkpt>
      <trkpt lat="45.92248" lon="4.46616">
        <ele>362</ele>
        <time>2019-04-18T07:22:49Z</time>
      </trkpt>
      <trkpt lat="45.92236" lon="4.46746">
        <ele>367</ele>
        <time>2019-04-18T07:23:49Z</time>
      </trkpt>
      <trkpt lat="45.92177" lon="4.47137">
        <ele>357</ele>
        <time>2019-04-18T07:24:49Z</time>
      </trkpt>
      <trkpt lat="45.92168" lon="4.47203">
        <ele>354</ele>
        <time>2019-04-18T07:25:49Z</time>
      </trkpt>
      <trkpt lat="45.92166" lon="4.47241">
        <ele>353</ele>
        <time>2019-04-18T07:26:49Z</time>
      </trkpt>
      <trkpt lat="45.92167" lon="4.47312">
        <ele>351</ele>
        <time>2019-04-18T07:27:49Z</time>
      </trkpt>
      <trkpt lat="45.92173" lon="4.47364">
        <ele>351</ele>
        <time>2019-04-18T07:28:49Z</time>
      </trkpt>
      <trkpt lat="45.9218" lon="4.4741">
        <ele>352</ele>
        <time>2019-04-18T07:29:49Z</time>
      </trkpt>
      <trkpt lat="45.92192" lon="4.47453">
        <ele>354</ele>
        <time>2019-04-18T07:30:49Z</time>
      </trkpt>
      <trkpt lat="45.92206" lon="4.475">
        <ele>355</ele>
        <time>2019-04-18T07:31:49Z</time>
      </trkpt>
      <trkpt lat="45.92266" lon="4.47658">
        <ele>350</ele>
        <time>2019-04-18T07:32:49Z</time>
      </trkpt>
      <trkpt lat="45.92274" lon="4.47693">
        <ele>350</ele>
        <time>2019-04-18T07:33:49Z</time>
      </trkpt>
      <trkpt lat="45.9228" lon="4.47729">
        <ele>351</ele>
        <time>2019-04-18T07:34:49Z</time>
      </trkpt>
      <trkpt lat="45.92282" lon="4.47762">
        <ele>350</ele>
        <time>2019-04-18T07:35:49Z</time>
      </trkpt>
      <trkpt lat="45.92281" lon="4.47811">
        <ele>349</ele>
        <time>2019-04-18T07:36:49Z</time>
      </trkpt>
      <trkpt lat="45.92279" lon="4.47839">
        <ele>349</ele>
        <time>2019-04-18T07:37:49Z</time>
      </trkpt>
      <trkpt lat="45.92274" lon="4.47868">
        <ele>348</ele>
        <time>2019-04-18T07:38:49Z</time>
      </trkpt>
      <trkpt lat="45.92267" lon="4.47896">
        <ele>347</ele>
        <time>2019-04-18T07:39:49Z</time>
      </trkpt>
      <trkpt lat="45.92254" lon="4.47937">
        <ele>346</ele>
        <time>2019-04-18T07:40:49Z</time>
      </trkpt>
      <trkpt lat="45.92236" lon="4.47978">
        <ele>348</ele>
        <time>2019-04-18T07:41:49Z</time>
      </trkpt>
      <trkpt lat="45.91951" lon="4.48512">
        <ele>343</ele>
        <time>2019-04-18T07:42:49Z</time>
      </trkpt>
      <trkpt lat="45.9193" lon="4.48548">
        <ele>342</ele>
        <time>2019-04-18T07:43:49Z</time>
      </trkpt>
      <trkpt lat="45.91886" lon="4.48617">
        <ele>340</ele>
        <time>2019-04-18T07:44:49Z</time>
      </trkpt>
      <trkpt lat="45.91866" lon="4.48654">
        <ele>338</ele>
        <time>2019-04-18T07:45:49Z</time>
      </trkpt>
      <trkpt lat="45.91853" lon="4.48688">
        <ele>336</ele>
        <time>2019-04-18T07:46:49Z</time>
      </trkpt>
      <trkpt lat="45.91841" lon="4.48728">
        <ele>335</ele>
        <time>2019-04-18T07:47:49Z</time>
      </trkpt>
      <trkpt lat="45.91804" lon="4.48871">
        <ele>333</ele>
        <time>2019-04-18T07:48:49Z</time>
      </trkpt>
      <trkpt lat="45.91791" lon="4.48909">
        <ele>329</ele>
        <time>2019-04-18T07:49:49Z</time>
      </trkpt>
      <trkpt lat="45.91777" lon="4.48941">
        <ele>329</ele>
        <time>2019-04-18T07:50:49Z</time>
      </trkpt>
      <trkpt lat="45.91758" lon="4.48975">
        <ele>329</ele>
        <time>2019-04-18T07:51:49Z</time>
      </trkpt>
      <trkpt lat="45.91742" lon="4.48998">
        <ele>331</ele>
        <time>2019-04-18T07:52:49Z</time>
      </trkpt>
      <trkpt lat="45.91724" lon="4.49019">
        <ele>334</ele>
        <time>2019-04-18T07:53:49Z</time>
      </trkpt>
      <trkpt lat="45.91662" lon="4.49076">
        <ele>336</ele>
        <time>2019-04-18T07:54:49Z</time>
      </trkpt>
      <trkpt lat="45.91629" lon="4.49115">
        <ele>335</ele>
        <time>2019-04-18T07:55:49Z</time>
      </trkpt>
      <trkpt lat="45.91603" lon="4.49155">
        <ele>333</ele>
        <time>2019-04-18T07:56:49Z</time>
      </trkpt>
      <trkpt lat="45.91536" lon="4.49291">
        <ele>336</ele>
        <time>2019-04-18T07:57:49Z</time>
      </trkpt>
      <trkpt lat="45.91521" lon="4.49334">
        <ele>336</ele>
        <time>2019-04-18T07:58:49Z</time>
      </trkpt>
      <trkpt lat="45.91504" lon="4.49386">
        <ele>339</ele>
        <time>2019-04-18T07:59:49Z</time>
      </trkpt>
      <trkpt lat="45.91481" lon="4.49443">
        <ele>343</ele>
        <time>2019-04-18T08:00:49Z</time>
      </trkpt>
      <trkpt lat="45.91453" lon="4.49492">
        <ele>341</ele>
        <time>2019-04-18T08:01:49Z</time>
      </trkpt>
      <trkpt lat="45.9136" lon="4.4959">
        <ele>331</ele>
        <time>2019-04-18T08:02:49Z</time>
      </trkpt>
      <trkpt lat="45.91322" lon="4.49644">
        <ele>329</ele>
        <time>2019-04-18T08:03:49Z</time>
      </trkpt>
      <trkpt lat="45.91296" lon="4.49705">
        <ele>330</ele>
        <time>2019-04-18T08:04:49Z</time>
      </trkpt>
      <trkpt lat="45.9127" lon="4.49816">
        <ele>329</ele>
        <time>2019-04-18T08:05:49Z</time>
      </trkpt>
      <trkpt lat="45.91252" lon="4.49863">
        <ele>327</ele>
        <time>2019-04-18T08:06:49Z</time>
      </trkpt>
      <trkpt lat="45.91227" lon="4.49911">
        <ele>326</ele>
        <time>2019-04-18T08:07:49Z</time>
      </trkpt>
      <trkpt lat="45.91189" lon="4.49957">
        <ele>324</ele>
        <time>2019-04-18T08:08:49Z</time>
      </trkpt>
      <trkpt lat="45.91161" lon="4.49998">
        <ele>325</ele>
        <time>2019-04-18T08:09:49Z</time>
      </trkpt>
      <trkpt lat="45.91134" lon="4.50057">
        <ele>326</ele>
        <time>2019-04-18T08:10:49Z</time>
      </trkpt>
      <trkpt lat="45.91105" lon="4.50184">
        <ele>325</ele>
        <time>2019-04-18T08:11:49Z</time>
      </trkpt>
      <trkpt lat="45.91074" lon="4.50304">
        <ele>325</ele>
        <time>2019-04-18T08:12:49Z</time>
      </trkpt>
      <trkpt lat="45.91052" lon="4.50348">
        <ele>323</ele>
        <time>2019-04-18T08:13:49Z</time>
      </trkpt>
      <trkpt lat="45.9103" lon="4.50385">
        <ele>320</ele>
        <time>2019-04-18T08:14:49Z</time>
      </trkpt>
      <trkpt lat="45.91013" lon="4.50422">
        <ele>317</ele>
        <time>2019-04-18T08:15:49Z</time>
      </trkpt>
      <trkpt lat="45.91002" lon="4.50455">
        <ele>315</ele>
        <time>2019-04-18T08:16:49Z</time>
      </trkpt>
      <trkpt lat="45.90995" lon="4.5049">
        <ele>315</ele>
        <time>2019-04-18T08:17:49Z</time>
      </trkpt>
      <trkpt lat="45.90992" lon="4.50526">
        <ele>315</ele>
        <time>2019-04-18T08:18:49Z</time>
      </trkpt>
      <trkpt lat="45.9099" lon="4.50574">
        <ele>316</ele>
        <time>2019-04-18T08:19:49Z</time>
      </trkpt>
      <trkpt lat="45.90991" lon="4.50609">
        <ele>315</ele>
        <time>2019-04-18T08:20:49Z</time>
      </trkpt>
      <trkpt lat="45.91012" lon="4.50715">
        <ele>314</ele>
        <time>2019-04-18T08:21:49Z</time>
      </trkpt>
      <trkpt lat="45.91015" lon="4.5074">
        <ele>314</ele>
        <time>2019-04-18T08:22:49Z</time>
      </trkpt>
      <trkpt lat="45.91016" lon="4.50763">
        <ele>314</ele>
        <time>2019-04-18T08:23:49Z</time>
      </trkpt>
      <trkpt lat="45.91014" lon="4.50785">
        <ele>314</ele>
        <time>2019-04-18T08:24:49Z</time>
      </trkpt>
      <trkpt lat="45.9101" lon="4.50806">
        <ele>313</ele>
        <time>2019-04-18T08:25:49Z</time>
      </trkpt>
      <trkpt lat="45.91002" lon="4.50834">
        <ele>312</ele>
        <time>2019-04-18T08:26:49Z</time>
      </trkpt>
      <trkpt lat="45.90989" lon="4.5087">
        <ele>312</ele>
        <time>2019-04-18T08:27:49Z</time>
      </trkpt>
      <trkpt lat="45.90981" lon="4.50902">
        <ele>313</ele>
        <time>2019-04-18T08:28:49Z</time>
      </trkpt>
      <trkpt lat="45.90976" lon="4.50935">
        <ele>312</ele>
        <time>2019-04-18T08:29:49Z</time>
      </trkpt>
      <trkpt lat="45.9097" lon="4.51018">
        <ele>309</ele>
        <time>2019-04-18T08:30:49Z</time>
      </trkpt>
      <trkpt lat="45.90969" lon="4.51115">
        <ele>308</ele>
        <time>2019-04-18T08:31:49Z</time>
      </trkpt>
      <trkpt lat="45.9097" lon="4.51204">
        <ele>310</ele>
        <time>2019-04-18T08:32:49Z</time>
      </trkpt>
      <trkpt lat="45.90951" lon="4.5135">
        <ele>311</ele>
        <time>2019-04-18T08:33:49Z</time>
      </trkpt>
      <trkpt lat="45.90932" lon="4.51441">
        <ele>308</ele>
        <time>2019-04-18T08:34:49Z</time>
      </trkpt>
      <trkpt lat="45.9085" lon="4.51675">
        <ele>305</ele>
        <time>2019-04-18T08:35:49Z</time>
      </trkpt>
      <trkpt lat="45.90783" lon="4.51919">
        <ele>308</ele>
        <time>2019-04-18T08:36:49Z</time>
      </trkpt>
      <trkpt lat="45.90772" lon="4.52019">
        <ele>311</ele>
        <time>2019-04-18T08:37:49Z</time>
      </trkpt>
      <trkpt lat="45.90753" lon="4.52061">
        <ele>309</ele>
        <time>2019-04-18T08:38:49Z</time>
      </trkpt>
      <trkpt lat="45.90698" lon="4.52163">
        <ele>311</ele>
        <time>2019-04-18T08:39:49Z</time>
      </trkpt>
      <trkpt lat="45.90606" lon="4.52318">
        <ele>306</ele>
        <time>2019-04-18T08:40:49Z</time>
      </trkpt>
      <trkpt lat="45.90545" lon="4.52496">
        <ele>308</ele>
        <time>2019-04-18T08:41:49Z</time>
      </trkpt>
      <trkpt lat="45.90535" lon="4.52571">
        <ele>307</ele>
        <time>2019-04-18T08:42:49Z</time>
      </trkpt>
      <trkpt lat="45.90521" lon="4.52615">
        <ele>304</ele>
        <time>2019-04-18T08:43:49Z</time>
      </trkpt>
      <trkpt lat="45.90479" lon="4.52713">
        <ele>303</ele>
        <time>2019-04-18T08:44:49Z</time>
      </trkpt>
      <trkpt lat="45.90452" lon="4.52806">
        <ele>300</ele>
        <time>2019-04-18T08:45:49Z</time>
      </trkpt>
      <trkpt lat="45.90403" lon="4.53103">
        <ele>295</ele>
        <time>2019-04-18T08:46:49Z</time>
      </trkpt>
      <trkpt lat="45.90379" lon="4.53212">
        <ele>293</ele>
        <time>2019-04-18T08:47:49Z</time>
      </trkpt>
      <trkpt lat="45.90305" lon="4.53489">
        <ele>286</ele>
        <time>2019-04-18T08:48:49Z</time>
      </trkpt>
      <trkpt lat="45.90288" lon="4.53597">
        <ele>286</ele>
        <time>2019-04-18T08:49:49Z</time>
      </trkpt>
      <trkpt lat="45.90285" lon="4.53676">
        <ele>286</ele>
        <time>2019-04-18T08:50:49Z</time>
      </trkpt>
      <trkpt lat="45.9031" lon="4.54297">
        <ele>282</ele>
        <time>2019-04-18T08:51:49Z</time>
      </trkpt>
      <trkpt lat="45.90343" lon="4.54475">
        <ele>277</ele>
        <time>2019-04-18T08:52:49Z</time>
      </trkpt>
      <trkpt lat="45.90349" lon="4.54541">
        <ele>276</ele>
        <time>2019-04-18T08:53:49Z</time>
      </trkpt>
      <trkpt lat="45.9034" lon="4.54606">
        <ele>277</ele>
        <time>2019-04-18T08:54:49Z</time>
      </trkpt>
      <trkpt lat="45.90323" lon="4.54658">
        <ele>277</ele>
        <time>2019-04-18T08:55:49Z</time>
      </trkpt>
      <trkpt lat="45.90263" lon="4.54768">
        <ele>275</ele>
        <time>2019-04-18T08:56:49Z</time>
      </trkpt>
      <trkpt lat="45.90243" lon="4.54814">
        <ele>275</ele>
        <time>2019-04-18T08:57:49Z</time>
      </trkpt>
      <trkpt lat="45.90184" lon="4.55096">
        <ele>279</ele>
        <time>2019-04-18T08:58:49Z</time>
      </trkpt>
      <trkpt lat="45.90176" lon="4.55177">
        <ele>276</ele>
        <time>2019-04-18T08:59:49Z</time>
      </trkpt>
      <trkpt lat="45.90177" lon="4.55221">
        <ele>273</ele>
        <time>2019-04-18T09:00:49Z</time>
      </trkpt>
      <trkpt lat="45.90182" lon="4.55268">
        <ele>272</ele>
        <time>2019-04-18T09:01:49Z</time>
      </trkpt>
      <trkpt lat="45.90201" lon="4.55378">
        <ele>276</ele>
        <time>2019-04-18T09:02:49Z</time>
      </trkpt>
      <trkpt lat="45.90205" lon="4.55436">
        <ele>279</ele>
        <time>2019-04-18T09:03:49Z</time>
      </trkpt>
      <trkpt lat="45.90196" lon="4.55574">
        <ele>282</ele>
        <time>2019-04-18T09:04:49Z</time>
      </trkpt>
      <trkpt lat="45.90171" lon="4.55669">
        <ele>280</ele>
        <time>2019-04-18T09:05:49Z</time>
      </trkpt>
      <trkpt lat="45.90146" lon="4.55744">
        <ele>281</ele>
        <time>2019-04-18T09:06:49Z</time>
      </trkpt>
      <trkpt lat="45.90113" lon="4.55837">
        <ele>280</ele>
        <time>2019-04-18T09:07:49Z</time>
      </trkpt>
      <trkpt lat="45.90107" lon="4.55862">
        <ele>280</ele>
        <time>2019-04-18T09:08:49Z</time>
      </trkpt>
      <trkpt lat="45.90105" lon="4.55888">
        <ele>280</ele>
        <time>2019-04-18T09:09:49Z</time>
      </trkpt>
      <trkpt lat="45.90122" lon="4.56108">
        <ele>279</ele>
        <time>2019-04-18T09:10:49Z</time>
      </trkpt>
      <trkpt lat="45.9014" lon="4.5621">
        <ele>280</ele>
        <time>2019-04-18T09:11:49Z</time>
      </trkpt>
      <trkpt lat="45.90157" lon="4.56278">
        <ele>279</ele>
        <time>2019-04-18T09:12:49Z</time>
      </trkpt>
      <trkpt lat="45.90289" lon="4.56607">
        <ele>275</ele>
        <time>2019-04-18T09:13:49Z</time>
      </trkpt>
      <trkpt lat="45.90326" lon="4.5667">
        <ele>272</ele>
        <time>2019-04-18T09:14:49Z</time>
      </trkpt>
      <trkpt lat="45.90428" lon="4.5681">
        <ele>267</ele>
        <time>2019-04-18T09:15:49Z</time>
      </trkpt>
      <trkpt lat="45.90444" lon="4.56845">
        <ele>266</ele>
        <time>2019-04-18T09:16:49Z</time>
      </trkpt>
      <trkpt lat="45.90472" lon="4.56945">
        <ele>266</ele>
        <time>2019-04-18T09:17:49Z</time>
      </trkpt>
      <trkpt lat="45.90508" lon="4.57103">
        <ele>257</ele>
        <time>2019-04-18T09:18:49Z</time>
      </trkpt>
      <trkpt lat="45.90525" lon="4.57149">
        <ele>256</ele>
        <time>2019-04-18T09:19:49Z</time>
      </trkpt>
      <trkpt lat="45.90551" lon="4.57196">
        <ele>256</ele>
        <time>2019-04-18T09:20:49Z</time>
      </trkpt>
      <trkpt lat="45.90564" lon="4.57236">
        <ele>252</ele>
        <time>2019-04-18T09:21:49Z</time>
      </trkpt>
      <trkpt lat="45.90566" lon="4.57245">
        <ele>251</ele>
        <time>2019-04-18T09:22:49Z</time>
      </trkpt>
      <trkpt lat="45.90558" lon="4.57295">
        <ele>249</ele>
        <time>2019-04-18T09:23:49Z</time>
      </trkpt>
      <trkpt lat="45.90551" lon="4.57297">
        <ele>249</ele>
        <time>2019-04-18T09:24:49Z</time>
      </trkpt>
      <trkpt lat="45.90545" lon="4.57304">
        <ele>249</ele>
        <time>2019-04-18T09:25:49Z</time>
      </trkpt>
      <trkpt lat="45.90544" lon="4.57316">
        <ele>249</ele>
        <time>2019-04-18T09:26:49Z</time>
      </trkpt>
      <trkpt lat="45.90545" lon="4.57322">
        <ele>249</ele>
        <time>2019-04-18T09:27:49Z</time>
      </trkpt>
      <trkpt lat="45.90552" lon="4.5733">
        <ele>248</ele>
        <time>2019-04-18T09:28:49Z</time>
      </trkpt>
      <trkpt lat="45.90556" lon="4.57332">
        <ele>248</ele>
        <time>2019-04-18T09:29:49Z</time>
      </trkpt>
      <trkpt lat="45.90564" lon="4.57328">
        <ele>247</ele>
        <time>2019-04-18T09:30:49Z</time>
      </trkpt>
      <trkpt lat="45.90567" lon="4.57323">
        <ele>247</ele>
        <time>2019-04-18T09:31:49Z</time>
      </trkpt>
      <trkpt lat="45.9058" lon="4.57335">
        <ele>245</ele>
        <time>2019-04-18T09:32:49Z</time>
      </trkpt>
      <trkpt lat="45.90595" lon="4.57338">
        <ele>245</ele>
        <time>2019-04-18T09:33:49Z</time>
      </trkpt>
      <trkpt lat="45.90623" lon="4.5734">
        <ele>245</ele>
        <time>2019-04-18T09:34:49Z</time>
      </trkpt>
      <trkpt lat="45.90696" lon="4.57395">
        <ele>247</ele>
        <time>2019-04-18T09:35:49Z</time>
      </trkpt>
      <trkpt lat="45.907" lon="4.57406">
        <ele>247</ele>
        <time>2019-04-18T09:36:49Z</time>
      </trkpt>
      <trkpt lat="45.90702" lon="4.57428">
        <ele>248</ele>
        <time>2019-04-18T09:37:49Z</time>
      </trkpt>
      <trkpt lat="45.90698" lon="4.57452">
        <ele>248</ele>
        <time>2019-04-18T09:38:49Z</time>
      </trkpt>
      <trkpt lat="45.90692" lon="4.57472">
        <ele>248</ele>
        <time>2019-04-18T09:39:49Z</time>
      </trkpt>
      <trkpt lat="45.90681" lon="4.57524">
        <ele>247</ele>
        <time>2019-04-18T09:40:49Z</time>
      </trkpt>
      <trkpt lat="45.90658" lon="4.57689">
        <ele>243</ele>
        <time>2019-04-18T09:41:49Z</time>
      </trkpt>
      <trkpt lat="45.90643" lon="4.57747">
        <ele>243</ele>
        <time>2019-04-18T09:42:49Z</time>
      </trkpt>
      <trkpt lat="45.9064" lon="4.57747">
        <ele>243</ele>
        <time>2019-04-18T09:43:49Z</time>
      </trkpt>
      <trkpt lat="45.90634" lon="4.57753">
        <ele>244</ele>
        <time>2019-04-18T09:44:49Z</time>
      </trkpt>
      <trkpt lat="45.90632" lon="4.57758">
        <ele>244</ele>
        <time>2019-04-18T09:45:49Z</time>
      </trkpt>
      <trkpt lat="45.90631" lon="4.57763">
        <ele>244</ele>
        <time>2019-04-18T09:46:49Z</time>
      </trkpt>
      <trkpt lat="45.90633" lon="4.57774">
        <ele>245</ele>
        <time>2019-04-18T09:47:49Z</time>
      </trkpt>
      <trkpt lat="45.90629" lon="4.57797">
        <ele>247</ele>
        <time>2019-04-18T09:48:49Z</time>
      </trkpt>
      <trkpt lat="45.90608" lon="4.57838">
        <ele>248</ele>
        <time>2019-04-18T09:49:49Z</time>
      </trkpt>
      <trkpt lat="45.90575" lon="4.57886">
        <ele>249</ele>
        <time>2019-04-18T09:50:49Z</time>
      </trkpt>
      <trkpt lat="45.90357" lon="4.58131">
        <ele>250</ele>
        <time>2019-04-18T09:51:49Z</time>
      </trkpt>
      <trkpt lat="45.90295" lon="4.58228">
        <ele>247</ele>
        <time>2019-04-18T09:52:49Z</time>
      </trkpt>
      <trkpt lat="45.90192" lon="4.58403">
        <ele>241</ele>
        <time>2019-04-18T09:53:49Z</time>
      </trkpt>
      <trkpt lat="45.90199" lon="4.58431">
        <ele>242</ele>
        <time>2019-04-18T09:54:49Z</time>
      </trkpt>
      <trkpt lat="45.90211" lon="4.58453">
        <ele>244</ele>
        <time>2019-04-18T09:55:49Z</time>
      </trkpt>
      <trkpt lat="45.90249" lon="4.58511">
        <ele>252</ele>
        <time>2019-04-18T09:56:49Z</time>
      </trkpt>
      <trkpt lat="45.90319" lon="4.58553">
        <ele>253</ele>
        <time>2019-04-18T09:57:49Z</time>
      </trkpt>
      <trkpt lat="45.90361" lon="4.58597">
        <ele>255</ele>
        <time>2019-04-18T09:58:49Z</time>
      </trkpt>
      <trkpt lat="45.90398" lon="4.58648">
        <ele>259</ele>
        <time>2019-04-18T09:59:49Z</time>
      </trkpt>
      <trkpt lat="45.90484" lon="4.58724">
        <ele>261</ele>
        <time>2019-04-18T10:00:49Z</time>
      </trkpt>
      <trkpt lat="45.90609" lon="4.58822">
        <ele>267</ele>
        <time>2019-04-18T10:01:49Z</time>
      </trkpt>
      <trkpt lat="45.90878" lon="4.59064">
        <ele>286</ele>
        <time>2019-04-18T10:02:49Z</time>
      </trkpt>
      <trkpt lat="45.91057" lon="4.59198">
        <ele>300</ele>
        <time>2019-04-18T10:03:49Z</time>
      </trkpt>
      <trkpt lat="45.91131" lon="4.59245">
        <ele>305</ele>
        <time>2019-04-18T10:04:49Z</time>
      </trkpt>
      <trkpt lat="45.91165" lon="4.59237">
        <ele>300</ele>
        <time>2019-04-18T10:05:49Z</time>
      </trkpt>
      <trkpt lat="45.91189" lon="4.59237">
        <ele>298</ele>
        <time>2019-04-18T10:06:49Z</time>
      </trkpt>
      <trkpt lat="45.91225" lon="4.59252">
        <ele>297</ele>
        <time>2019-04-18T10:07:49Z</time>
      </trkpt>
      <trkpt lat="45.91303" lon="4.59324">
        <ele>301</ele>
        <time>2019-04-18T10:08:49Z</time>
      </trkpt>
      <trkpt lat="45.9137" lon="4.59373">
        <ele>300</ele>
        <time>2019-04-18T10:09:49Z</time>
      </trkpt>
      <trkpt lat="45.91381" lon="4.59391">
        <ele>301</ele>
        <time>2019-04-18T10:10:49Z</time>
      </trkpt>
      <trkpt lat="45.91389" lon="4.59414">
        <ele>302</ele>
        <time>2019-04-18T10:11:49Z</time>
      </trkpt>
      <trkpt lat="45.9139" lon="4.59442">
        <ele>303</ele>
        <time>2019-04-18T10:12:49Z</time>
      </trkpt>
      <trkpt lat="45.91383" lon="4.59472">
        <ele>304</ele>
        <time>2019-04-18T10:13:49Z</time>
      </trkpt>
      <trkpt lat="45.91367" lon="4.59501">
        <ele>306</ele>
        <time>2019-04-18T10:14:49Z</time>
      </trkpt>
      <trkpt lat="45.91309" lon="4.59569">
        <ele>311</ele>
        <time>2019-04-18T10:15:49Z</time>
      </trkpt>
      <trkpt lat="45.91292" lon="4.59602">
        <ele>313</ele>
        <time>2019-04-18T10:16:49Z</time>
      </trkpt>
      <trkpt lat="45.91285" lon="4.59617">
        <ele>313</ele>
        <time>2019-04-18T10:17:49Z</time>
      </trkpt>
      <trkpt lat="45.91285" lon="4.59662">
        <ele>315</ele>
        <time>2019-04-18T10:18:49Z</time>
      </trkpt>
      <trkpt lat="45.91291" lon="4.597">
        <ele>316</ele>
        <time>2019-04-18T10:19:49Z</time>
      </trkpt>
      <trkpt lat="45.91333" lon="4.59853">
        <ele>324</ele>
        <time>2019-04-18T10:20:49Z</time>
      </trkpt>
      <trkpt lat="45.91336" lon="4.59886">
        <ele>325</ele>
        <time>2019-04-18T10:21:49Z</time>
      </trkpt>
      <trkpt lat="45.91332" lon="4.59925">
        <ele>326</ele>
        <time>2019-04-18T10:22:49Z</time>
      </trkpt>
      <trkpt lat="45.91322" lon="4.59953">
        <ele>328</ele>
        <time>2019-04-18T10:23:49Z</time>
      </trkpt>
      <trkpt lat="45.91193" lon="4.60151">
        <ele>340</ele>
        <time>2019-04-18T10:24:49Z</time>
      </trkpt>
      <trkpt lat="45.91166" lon="4.60202">
        <ele>342</ele>
        <time>2019-04-18T10:25:49Z</time>
      </trkpt>
      <trkpt lat="45.91159" lon="4.60254">
        <ele>344</ele>
        <time>2019-04-18T10:26:49Z</time>
      </trkpt>
      <trkpt lat="45.91157" lon="4.60458">
        <ele>349</ele>
        <time>2019-04-18T10:27:49Z</time>
      </trkpt>
      <trkpt lat="45.91173" lon="4.60537">
        <ele>353</ele>
        <time>2019-04-18T10:28:49Z</time>
      </trkpt>
      <trkpt lat="45.91206" lon="4.60617">
        <ele>357</ele>
        <time>2019-04-18T10:29:49Z</time>
      </trkpt>
      <trkpt lat="45.91233" lon="4.60661">
        <ele>359</ele>
        <time>2019-04-18T10:30:49Z</time>
      </trkpt>
      <trkpt lat="45.91274" lon="4.60731">
        <ele>361</ele>
        <time>2019-04-18T10:31:49Z</time>
      </trkpt>
      <trkpt lat="45.91299" lon="4.60778">
        <ele>363</ele>
        <time>2019-04-18T10:32:49Z</time>
      </trkpt>
      <trkpt lat="45.91337" lon="4.60838">
        <ele>365</ele>
        <time>2019-04-18T10:33:49Z</time>
      </trkpt>
      <trkpt lat="45.91447" lon="4.61028">
        <ele>370</ele>
        <time>2019-04-18T10:34:49Z</time>
      </trkpt>
      <trkpt lat="45.91527" lon="4.61173">
        <ele>369</ele>
        <time>2019-04-18T10:35:49Z</time>
      </trkpt>
      <trkpt lat="45.91637" lon="4.61318">
        <ele>370</ele>
        <time>2019-04-18T10:36:49Z</time>
      </trkpt>
      <trkpt lat="45.91655" lon="4.61346">
        <ele>370</ele>
        <time>2019-04-18T10:37:49Z</time>
      </trkpt>
      <trkpt lat="45.91667" lon="4.61369">
        <ele>370</ele>
        <time>2019-04-18T10:38:49Z</time>
      </trkpt>
      <trkpt lat="45.91679" lon="4.61417">
        <ele>367</ele>
        <time>2019-04-18T10:39:49Z</time>
      </trkpt>
      <trkpt lat="45.91679" lon="4.61451">
        <ele>367</ele>
        <time>2019-04-18T10:40:49Z</time>
      </trkpt>
      <trkpt lat="45.91669" lon="4.61492">
        <ele>365</ele>
        <time>2019-04-18T10:41:49Z</time>
      </trkpt>
      <trkpt lat="45.91652" lon="4.61533">
        <ele>365</ele>
        <time>2019-04-18T10:42:49Z</time>
      </trkpt>
      <trkpt lat="45.91591" lon="4.61651">
        <ele>365</ele>
        <time>2019-04-18T10:43:49Z</time>
      </trkpt>
      <trkpt lat="45.91583" lon="4.61685">
        <ele>365</ele>
        <time>2019-04-18T10:44:49Z</time>
      </trkpt>
      <trkpt lat="45.91582" lon="4.61707">
        <ele>365</ele>
        <time>2019-04-18T10:45:49Z</time>
      </trkpt>
      <trkpt lat="45.91585" lon="4.61731">
        <ele>365</ele>
        <time>2019-04-18T10:46:49Z</time>
      </trkpt>
      <trkpt lat="45.91601" lon="4.61765">
        <ele>365</ele>
        <time>2019-04-18T10:47:49Z</time>
      </trkpt>
      <trkpt lat="45.91665" lon="4.61873">
        <ele>360</ele>
        <time>2019-04-18T10:48:49Z</time>
      </trkpt>
      <trkpt lat="45.91726" lon="4.61932">
        <ele>355</ele>
        <time>2019-04-18T10:49:49Z</time>
      </trkpt>
      <trkpt lat="45.91777" lon="4.61986">
        <ele>351</ele>
        <time>2019-04-18T10:50:49Z</time>
      </trkpt>
      <trkpt lat="45.91826" lon="4.62028">
        <ele>350</ele>
        <time>2019-04-18T10:51:49Z</time>
      </trkpt>
      <trkpt lat="45.91867" lon="4.62075">
        <ele>348</ele>
        <time>2019-04-18T10:52:49Z</time>
      </trkpt>
      <trkpt lat="45.92108" lon="4.62415">
        <ele>341</ele>
        <time>2019-04-18T10:53:49Z</time>
      </trkpt>
      <trkpt lat="45.92148" lon="4.62481">
        <ele>337</ele>
        <time>2019-04-18T10:54:49Z</time>
      </trkpt>
      <trkpt lat="45.92396" lon="4.62952">
        <ele>340</ele>
        <time>2019-04-18T10:55:49Z</time>
      </trkpt>
      <trkpt lat="45.9242" lon="4.62995">
        <ele>337</ele>
        <time>2019-04-18T10:56:49Z</time>
      </trkpt>
      <trkpt lat="45.9245" lon="4.63071">
        <ele>336</ele>
        <time>2019-04-18T10:57:49Z</time>
      </trkpt>
      <trkpt lat="45.92467" lon="4.63138">
        <ele>335</ele>
        <time>2019-04-18T10:58:49Z</time>
      </trkpt>
      <trkpt lat="45.92483" lon="4.63184">
        <ele>334</ele>
        <time>2019-04-18T10:59:49Z</time>
      </trkpt>
      <trkpt lat="45.92704" lon="4.64066">
        <ele>330</ele>
        <time>2019-04-18T11:00:49Z</time>
      </trkpt>
      <trkpt lat="45.92747" lon="4.64249">
        <ele>328</ele>
        <time>2019-04-18T11:01:49Z</time>
      </trkpt>
      <trkpt lat="45.92793" lon="4.64421">
        <ele>325</ele>
        <time>2019-04-18T11:02:49Z</time>
      </trkpt>
      <trkpt lat="45.9282" lon="4.64495">
        <ele>322</ele>
        <time>2019-04-18T11:03:49Z</time>
      </trkpt>
      <trkpt lat="45.92808" lon="4.64522">
        <ele>322</ele>
        <time>2019-04-18T11:04:49Z</time>
      </trkpt>
      <trkpt lat="45.92813" lon="4.64805">
        <ele>318</ele>
        <time>2019-04-18T11:05:49Z</time>
      </trkpt>
      <trkpt lat="45.92817" lon="4.64857">
        <ele>317</ele>
        <time>2019-04-18T11:06:49Z</time>
      </trkpt>
      <trkpt lat="45.92812" lon="4.65036">
        <ele>315</ele>
        <time>2019-04-18T11:07:49Z</time>
      </trkpt>
      <trkpt lat="45.92792" lon="4.65116">
        <ele>311</ele>
        <time>2019-04-18T11:08:49Z</time>
      </trkpt>
      <trkpt lat="45.92745" lon="4.65251">
        <ele>307</ele>
        <time>2019-04-18T11:09:49Z</time>
      </trkpt>
      <trkpt lat="45.92685" lon="4.65511">
        <ele>302</ele>
        <time>2019-04-18T11:10:49Z</time>
      </trkpt>
      <trkpt lat="45.92683" lon="4.65529">
        <ele>302</ele>
        <time>2019-04-18T11:11:49Z</time>
      </trkpt>
      <trkpt lat="45.92683" lon="4.65566">
        <ele>301</ele>
        <time>2019-04-18T11:12:49Z</time>
      </trkpt>
      <trkpt lat="45.92697" lon="4.65648">
        <ele>305</ele>
        <time>2019-04-18T11:13:49Z</time>
      </trkpt>
      <trkpt lat="45.9272" lon="4.65802">
        <ele>315</ele>
        <time>2019-04-18T11:14:49Z</time>
      </trkpt>
      <trkpt lat="45.92732" lon="4.66018">
        <ele>323</ele>
        <time>2019-04-18T11:15:49Z</time>
      </trkpt>
      <trkpt lat="45.92726" lon="4.66081">
        <ele>322</ele>
        <time>2019-04-18T11:16:49Z</time>
      </trkpt>
      <trkpt lat="45.92719" lon="4.66106">
        <ele>322</ele>
        <time>2019-04-18T11:17:49Z</time>
      </trkpt>
      <trkpt lat="45.92698" lon="4.66156">
        <ele>320</ele>
        <time>2019-04-18T11:18:49Z</time>
      </trkpt>
      <trkpt lat="45.92677" lon="4.66241">
        <ele>324</ele>
        <time>2019-04-18T11:19:49Z</time>
      </trkpt>
      <trkpt lat="45.92668" lon="4.66292">
        <ele>328</ele>
        <time>2019-04-18T11:20:49Z</time>
      </trkpt>
      <trkpt lat="45.92654" lon="4.66405">
        <ele>332</ele>
        <time>2019-04-18T11:21:49Z</time>
      </trkpt>
      <trkpt lat="45.92641" lon="4.66558">
        <ele>343</ele>
        <time>2019-04-18T11:22:49Z</time>
      </trkpt>
      <trkpt lat="45.9264" lon="4.66632">
        <ele>344</ele>
        <time>2019-04-18T11:23:49Z</time>
      </trkpt>
      <trkpt lat="45.92643" lon="4.66737">
        <ele>339</ele>
        <time>2019-04-18T11:24:49Z</time>
      </trkpt>
      <trkpt lat="45.92639" lon="4.66778">
        <ele>338</ele>
        <time>2019-04-18T11:25:49Z</time>
      </trkpt>
      <trkpt lat="45.92628" lon="4.66864">
        <ele>339</ele>
        <time>2019-04-18T11:26:49Z</time>
      </trkpt>
      <trkpt lat="45.92604" lon="4.66986">
        <ele>337</ele>
        <time>2019-04-18T11:27:49Z</time>
      </trkpt>
      <trkpt lat="45.92589" lon="4.67095">
        <ele>328</ele>
        <time>2019-04-18T11:28:49Z</time>
      </trkpt>
      <trkpt lat="45.92554" lon="4.67191">
        <ele>315</ele>
        <time>2019-04-18T11:29:49Z</time>
      </trkpt>
      <trkpt lat="45.92538" lon="4.6728">
        <ele>308</ele>
        <time>2019-04-18T11:30:49Z</time>
      </trkpt>
      <trkpt lat="45.92541" lon="4.67315">
        <ele>306</ele>
        <time>2019-04-18T11:31:49Z</time>
      </trkpt>
      <trkpt lat="45.92584" lon="4.67448">
        <ele>299</ele>
        <time>2019-04-18T11:32:49Z</time>
      </trkpt>
      <trkpt lat="45.92593" lon="4.67493">
        <ele>297</ele>
        <time>2019-04-18T11:33:49Z</time>
      </trkpt>
      <trkpt lat="45.92612" lon="4.67601">
        <ele>297</ele>
        <time>2019-04-18T11:34:49Z</time>
      </trkpt>
      <trkpt lat="45.92617" lon="4.67664">
        <ele>301</ele>
        <time>2019-04-18T11:35:49Z</time>
      </trkpt>
      <trkpt lat="45.92615" lon="4.67685">
        <ele>303</ele>
        <time>2019-04-18T11:36:49Z</time>
      </trkpt>
      <trkpt lat="45.92612" lon="4.67701">
        <ele>305</ele>
        <time>2019-04-18T11:37:49Z</time>
      </trkpt>
      <trkpt lat="45.92606" lon="4.6772">
        <ele>307</ele>
        <time>2019-04-18T11:38:49Z</time>
      </trkpt>
      <trkpt lat="45.92582" lon="4.67765">
        <ele>313</ele>
        <time>2019-04-18T11:39:49Z</time>
      </trkpt>
      <trkpt lat="45.92571" lon="4.678">
        <ele>317</ele>
        <time>2019-04-18T11:40:49Z</time>
      </trkpt>
      <trkpt lat="45.92568" lon="4.6783">
        <ele>320</ele>
        <time>2019-04-18T11:41:49Z</time>
      </trkpt>
      <trkpt lat="45.92565" lon="4.67915">
        <ele>327</ele>
        <time>2019-04-18T11:42:49Z</time>
      </trkpt>
      <trkpt lat="45.92571" lon="4.67966">
        <ele>330</ele>
        <time>2019-04-18T11:43:49Z</time>
      </trkpt>
      <trkpt lat="45.92582" lon="4.68046">
        <ele>333</ele>
        <time>2019-04-18T11:44:49Z</time>
      </trkpt>
      <trkpt lat="45.92585" lon="4.68087">
        <ele>334</ele>
        <time>2019-04-18T11:45:49Z</time>
      </trkpt>
      <trkpt lat="45.92587" lon="4.68295">
        <ele>350</ele>
        <time>2019-04-18T11:46:49Z</time>
      </trkpt>
      <trkpt lat="45.92586" lon="4.68477">
        <ele>363</ele>
        <time>2019-04-18T11:47:49Z</time>
      </trkpt>
      <trkpt lat="45.92594" lon="4.68549">
        <ele>368</ele>
        <time>2019-04-18T11:48:49Z</time>
      </trkpt>
      <trkpt lat="45.92606" lon="4.68623">
        <ele>370</ele>
        <time>2019-04-18T11:49:49Z</time>
      </trkpt>
      <trkpt lat="45.92568" lon="4.68816">
        <ele>359</ele>
        <time>2019-04-18T11:50:49Z</time>
      </trkpt>
      <trkpt lat="45.92531" lon="4.68967">
        <ele>351</ele>
        <time>2019-04-18T11:51:49Z</time>
      </trkpt>
      <trkpt lat="45.92534" lon="4.68983">
        <ele>350</ele>
        <time>2019-04-18T11:52:49Z</time>
      </trkpt>
      <trkpt lat="45.92602" lon="4.69109">
        <ele>340</ele>
        <time>2019-04-18T11:53:49Z</time>
      </trkpt>
      <trkpt lat="45.92651" lon="4.69193">
        <ele>335</ele>
        <time>2019-04-18T11:54:49Z</time>
      </trkpt>
      <trkpt lat="45.92665" lon="4.69195">
        <ele>334</ele>
        <time>2019-04-18T11:55:49Z</time>
      </trkpt>
      <trkpt lat="45.92671" lon="4.69186">
        <ele>333</ele>
        <time>2019-04-18T11:56:49Z</time>
      </trkpt>
      <trkpt lat="45.92674" lon="4.69054">
        <ele>332</ele>
        <time>2019-04-18T11:57:49Z</time>
      </trkpt>
      <trkpt lat="45.92683" lon="4.69024">
        <ele>332</ele>
        <time>2019-04-18T11:58:49Z</time>
      </trkpt>
      <trkpt lat="45.92702" lon="4.69009">
        <ele>331</ele>
        <time>2019-04-18T11:59:49Z</time>
      </trkpt>
      <trkpt lat="45.92757" lon="4.69026">
        <ele>327</ele>
        <time>2019-04-18T12:00:49Z</time>
      </trkpt>
      <trkpt lat="45.92795" lon="4.69041">
        <ele>325</ele>
        <time>2019-04-18T12:01:49Z</time>
      </trkpt>
      <trkpt lat="45.92809" lon="4.69065">
        <ele>324</ele>
        <time>2019-04-18T12:02:49Z</time>
      </trkpt>
      <trkpt lat="45.92815" lon="4.69091">
        <ele>323</ele>
        <time>2019-04-18T12:03:49Z</time>
      </trkpt>
      <trkpt lat="45.9281" lon="4.6915">
        <ele>321</ele>
        <time>2019-04-18T12:04:49Z</time>
      </trkpt>
      <trkpt lat="45.92804" lon="4.69186">
        <ele>320</ele>
        <time>2019-04-18T12:05:49Z</time>
      </trkpt>
      <trkpt lat="45.92804" lon="4.69252">
        <ele>317</ele>
        <time>2019-04-18T12:06:49Z</time>
      </trkpt>
      <trkpt lat="45.92817" lon="4.69286">
        <ele>312</ele>
        <time>2019-04-18T12:07:49Z</time>
      </trkpt>
      <trkpt lat="45.92854" lon="4.69332">
        <ele>308</ele>
        <time>2019-04-18T12:08:49Z</time>
      </trkpt>
      <trkpt lat="45.92875" lon="4.69382">
        <ele>306</ele>
        <time>2019-04-18T12:09:49Z</time>
      </trkpt>
      <trkpt lat="45.929" lon="4.69463">
        <ele>299</ele>
        <time>2019-04-18T12:10:49Z</time>
      </trkpt>
      <trkpt lat="45.92926" lon="4.69514">
        <ele>296</ele>
        <time>2019-04-18T12:11:49Z</time>
      </trkpt>
      <trkpt lat="45.92979" lon="4.69599">
        <ele>294</ele>
        <time>2019-04-18T12:12:49Z</time>
      </trkpt>
      <trkpt lat="45.93016" lon="4.69639">
        <ele>290</ele>
        <time>2019-04-18T12:13:49Z</time>
      </trkpt>
      <trkpt lat="45.93074" lon="4.6967">
        <ele>289</ele>
        <time>2019-04-18T12:14:49Z</time>
      </trkpt>
      <trkpt lat="45.93132" lon="4.69692">
        <ele>286</ele>
        <time>2019-04-18T12:15:49Z</time>
      </trkpt>
      <trkpt lat="45.9323" lon="4.69699">
        <ele>281</ele>
        <time>2019-04-18T12:16:49Z</time>
      </trkpt>
      <trkpt lat="45.9327" lon="4.69694">
        <ele>279</ele>
        <time>2019-04-18T12:17:49Z</time>
      </trkpt>
      <trkpt lat="45.93281" lon="4.69698">
        <ele>278</ele>
        <time>2019-04-18T12:18:49Z</time>
      </trkpt>
      <trkpt lat="45.93288" lon="4.69709">
        <ele>275</ele>
        <time>2019-04-18T12:19:49Z</time>
      </trkpt>
      <trkpt lat="45.9329" lon="4.69723">
        <ele>273</ele>
        <time>2019-04-18T12:20:49Z</time>
      </trkpt>
      <trkpt lat="45.93286" lon="4.69737">
        <ele>271</ele>
        <time>2019-04-18T12:21:49Z</time>
      </trkpt>
      <trkpt lat="45.93277" lon="4.69747">
        <ele>270</ele>
        <time>2019-04-18T12:22:49Z</time>
      </trkpt>
      <trkpt lat="45.93243" lon="4.69754">
        <ele>270</ele>
        <time>2019-04-18T12:23:49Z</time>
      </trkpt>
      <trkpt lat="45.93212" lon="4.69763">
        <ele>270</ele>
        <time>2019-04-18T12:24:49Z</time>
      </trkpt>
      <trkpt lat="45.93153" lon="4.69791">
        <ele>265</ele>
        <time>2019-04-18T12:25:49Z</time>
      </trkpt>
      <trkpt lat="45.93119" lon="4.69818">
        <ele>261</ele>
        <time>2019-04-18T12:26:49Z</time>
      </trkpt>
      <trkpt lat="45.93016" lon="4.69937">
        <ele>254</ele>
        <time>2019-04-18T12:27:49Z</time>
      </trkpt>
      <trkpt lat="45.92996" lon="4.69967">
        <ele>251</ele>
        <time>2019-04-18T12:28:49Z</time>
      </trkpt>
      <trkpt lat="45.92985" lon="4.69999">
        <ele>246</ele>
        <time>2019-04-18T12:29:49Z</time>
      </trkpt>
      <trkpt lat="45.92971" lon="4.70048">
        <ele>243</ele>
        <time>2019-04-18T12:30:49Z</time>
      </trkpt>
      <trkpt lat="45.92962" lon="4.7006">
        <ele>242</ele>
        <time>2019-04-18T12:31:49Z</time>
      </trkpt>
      <trkpt lat="45.92944" lon="4.70059">
        <ele>242</ele>
        <time>2019-04-18T12:32:49Z</time>
      </trkpt>
      <trkpt lat="45.92937" lon="4.70051">
        <ele>242</ele>
        <time>2019-04-18T12:33:49Z</time>
      </trkpt>
      <trkpt lat="45.92924" lon="4.7001">
        <ele>245</ele>
        <time>2019-04-18T12:34:49Z</time>
      </trkpt>
      <trkpt lat="45.92911" lon="4.7">
        <ele>246</ele>
        <time>2019-04-18T12:35:49Z</time>
      </trkpt>
      <trkpt lat="45.92899" lon="4.70004">
        <ele>247</ele>
        <time>2019-04-18T12:36:49Z</time>
      </trkpt>
      <trkpt lat="45.92891" lon="4.70014">
        <ele>247</ele>
        <time>2019-04-18T12:37:49Z</time>
      </trkpt>
      <trkpt lat="45.92886" lon="4.70034">
        <ele>246</ele>
        <time>2019-04-18T12:38:49Z</time>
      </trkpt>
      <trkpt lat="45.92879" lon="4.70221">
        <ele>235</ele>
        <time>2019-04-18T12:39:49Z</time>
      </trkpt>
      <trkpt lat="45.92876" lon="4.70255">
        <ele>234</ele>
        <time>2019-04-18T12:40:49Z</time>
      </trkpt>
      <trkpt lat="45.92844" lon="4.7042">
        <ele>226</ele>
        <time>2019-04-18T12:41:49Z</time>
      </trkpt>
      <trkpt lat="45.9284" lon="4.70452">
        <ele>223</ele>
        <time>2019-04-18T12:42:49Z</time>
      </trkpt>
      <trkpt lat="45.92842" lon="4.70471">
        <ele>222</ele>
        <time>2019-04-18T12:43:49Z</time>
      </trkpt>
      <trkpt lat="45.93055" lon="4.70953">
        <ele>199</ele>
        <time>2019-04-18T12:44:49Z</time>
      </trkpt>
      <trkpt lat="45.93058" lon="4.70973">
        <ele>198</ele>
        <time>2019-04-18T12:45:49Z</time>
      </trkpt>
      <trkpt lat="45.93054" lon="4.70991">
        <ele>198</ele>
        <time>2019-04-18T12:46:49Z</time>
      </trkpt>
      <trkpt lat="45.93048" lon="4.71002">
        <ele>198</ele>
        <time>2019-04-18T12:47:49Z</time>
      </trkpt>
      <trkpt lat="45.93051" lon="4.7101">
        <ele>197</ele>
        <time>2019-04-18T12:48:49Z</time>
      </trkpt>
      <trkpt lat="45.93076" lon="4.71038">
        <ele>197</ele>
        <time>2019-04-18T12:49:49Z</time>
      </trkpt>
      <trkpt lat="45.93095" lon="4.71063">
        <ele>195</ele>
        <time>2019-04-18T12:50:49Z</time>
      </trkpt>
      <trkpt lat="45.93121" lon="4.71108">
        <ele>193</ele>
        <time>2019-04-18T12:51:49Z</time>
      </trkpt>
      <trkpt lat="45.93229" lon="4.71344">
        <ele>186</ele>
        <time>2019-04-18T12:52:49Z</time>
      </trkpt>
      <trkpt lat="45.93277" lon="4.71455">
        <ele>185</ele>
        <time>2019-04-18T12:53:49Z</time>
      </trkpt>
      <trkpt lat="45.93306" lon="4.71511">
        <ele>184</ele>
        <time>2019-04-18T12:54:49Z</time>
      </trkpt>
      <trkpt lat="45.93347" lon="4.71602">
        <ele>185</ele>
        <time>2019-04-18T12:55:49Z</time>
      </trkpt>
      <trkpt lat="45.93363" lon="4.71635">
        <ele>185</ele>
        <time>2019-04-18T12:56:49Z</time>
      </trkpt>
      <trkpt lat="45.93441" lon="4.71817">
        <ele>182</ele>
        <time>2019-04-18T12:57:49Z</time>
      </trkpt>
      <trkpt lat="45.93458" lon="4.71849">
        <ele>181</ele>
        <time>2019-04-18T12:58:49Z</time>
      </trkpt>
      <trkpt lat="45.93467" lon="4.71852">
        <ele>180</ele>
        <time>2019-04-18T12:59:49Z</time>
      </trkpt>
      <trkpt lat="45.93508" lon="4.71845">
        <ele>179</ele>
        <time>2019-04-18T13:00:49Z</time>
      </trkpt>
      <trkpt lat="45.93582" lon="4.7183">
        <ele>180</ele>
        <time>2019-04-18T13:01:49Z</time>
      </trkpt>
      <trkpt lat="45.93587" lon="4.71828">
        <ele>180</ele>
        <time>2019-04-18T13:02:49Z</time>
      </trkpt>
      <trkpt lat="45.93608" lon="4.71814">
        <ele>179</ele>
        <time>2019-04-18T13:03:49Z</time>
      </trkpt>
      <trkpt lat="45.93616" lon="4.71801">
        <ele>179</ele>
        <time>2019-04-18T13:04:49Z</time>
      </trkpt>
      <trkpt lat="45.9362" lon="4.71798">
        <ele>179</ele>
        <time>2019-04-18T13:05:49Z</time>
      </trkpt>
      <trkpt lat="45.93674" lon="4.71781">
        <ele>178</ele>
        <time>2019-04-18T13:06:49Z</time>
      </trkpt>
      <trkpt lat="45.93716" lon="4.71777">
        <ele>176</ele>
        <time>2019-04-18T13:07:49Z</time>
      </trkpt>
      <trkpt lat="45.93745" lon="4.71756">
        <ele>175</ele>
        <time>2019-04-18T13:08:49Z</time>
      </trkpt>
      <trkpt lat="45.93899" lon="4.717">
        <ele>174</ele>
        <time>2019-04-18T13:09:49Z</time>
      </trkpt>
      <trkpt lat="45.93908" lon="4.71699">
        <ele>174</ele>
        <time>2019-04-18T13:10:49Z</time>
      </trkpt>
      <trkpt lat="45.93984" lon="4.71668">
        <ele>177</ele>
        <time>2019-04-18T13:11:49Z</time>
      </trkpt>
      <trkpt lat="45.93989" lon="4.71669">
        <ele>177</ele>
        <time>2019-04-18T13:12:49Z</time>
      </trkpt>
      <trkpt lat="45.93995" lon="4.71674">
        <ele>177</ele>
        <time>2019-04-18T13:13:49Z</time>
      </trkpt>
      <trkpt lat="45.93997" lon="4.71682">
        <ele>176</ele>
        <time>2019-04-18T13:14:49Z</time>
      </trkpt>
      <trkpt lat="45.94002" lon="4.71687">
        <ele>176</ele>
        <time>2019-04-18T13:15:49Z</time>
      </trkpt>
      <trkpt lat="45.94007" lon="4.71687">
        <ele>176</ele>
        <time>2019-04-18T13:16:49Z</time>
      </trkpt>
      <trkpt lat="45.94013" lon="4.71712">
        <ele>175</ele>
        <time>2019-04-18T13:17:49Z</time>
      </trkpt>
      <trkpt lat="45.94024" lon="4.71712">
        <ele>175</ele>
        <time>2019-04-18T13:18:49Z</time>
      </trkpt>
      <trkpt lat="45.94032" lon="4.71718">
        <ele>174</ele>
        <time>2019-04-18T13:19:49Z</time>
      </trkpt>
      <trkpt lat="45.94073" lon="4.71819">
        <ele>173</ele>
        <time>2019-04-18T13:20:49Z</time>
      </trkpt>
      <trkpt lat="45.94122" lon="4.71924">
        <ele>174</ele>
        <time>2019-04-18T13:21:49Z</time>
      </trkpt>
      <trkpt lat="45.94116" lon="4.71934">
        <ele>174</ele>
        <time>2019-04-18T13:22:49Z</time>
      </trkpt>
      <trkpt lat="45.94116" lon="4.71947">
        <ele>174</ele>
        <time>2019-04-18T13:23:49Z</time>
      </trkpt>
      <trkpt lat="45.94118" lon="4.71952">
        <ele>174</ele>
        <time>2019-04-18T13:24:49Z</time>
      </trkpt>
      <trkpt lat="45.94125" lon="4.71959">
        <ele>174</ele>
        <time>2019-04-18T13:25:49Z</time>
      </trkpt>
      <trkpt lat="45.94132" lon="4.71959">
        <ele>174</ele>
        <time>2019-04-18T13:26:49Z</time>
      </trkpt>
      <trkpt lat="45.94136" lon="4.71957">
        <ele>173</ele>
        <time>2019-04-18T13:27:49Z</time>
      </trkpt>
      <trkpt lat="45.94211" lon="4.72132">
        <ele>172</ele>
        <time>2019-04-18T13:28:49Z</time>
      </trkpt>
      <trkpt lat="45.94247" lon="4.72209">
        <ele>172</ele>
        <time>2019-04-18T13:29:49Z</time>
      </trkpt>
      <trkpt lat="45.94271" lon="4.72266">
        <ele>171</ele>
        <time>2019-04-18T13:30:49Z</time>
      </trkpt>
      <trkpt lat="45.94283" lon="4.72288">
        <ele>171</ele>
        <time>2019-04-18T13:31:49Z</time>
      </trkpt>
      <trkpt lat="45.94332" lon="4.72397">
        <ele>173</ele>
        <time>2019-04-18T13:32:49Z</time>
      </trkpt>
      <trkpt lat="45.94372" lon="4.72493">
        <ele>173</ele>
        <time>2019-04-18T13:33:49Z</time>
      </trkpt>
      <trkpt lat="45.94386" lon="4.72544">
        <ele>173</ele>
        <time>2019-04-18T13:34:49Z</time>
      </trkpt>
      <trkpt lat="45.94397" lon="4.72611">
        <ele>173</ele>
        <time>2019-04-18T13:35:49Z</time>
      </trkpt>
      <trkpt lat="45.9449" lon="4.73314">
        <ele>177</ele>
        <time>2019-04-18T13:36:49Z</time>
      </trkpt>
      <trkpt lat="45.94497" lon="4.7338">
        <ele>179</ele>
        <time>2019-04-18T13:37:49Z</time>
      </trkpt>
      <trkpt lat="45.94499" lon="4.73435">
        <ele>181</ele>
        <time>2019-04-18T13:38:49Z</time>
      </trkpt>
      <trkpt lat="45.94501" lon="4.73496">
        <ele>183</ele>
        <time>2019-04-18T13:39:49Z</time>
      </trkpt>
      <trkpt lat="45.94499" lon="4.73583">
        <ele>185</ele>
        <time>2019-04-18T13:40:49Z</time>
      </trkpt>
      <trkpt lat="45.9448" lon="4.73753">
        <ele>186</ele>
        <time>2019-04-18T13:41:49Z</time>
      </trkpt>
      <trkpt lat="45.94477" lon="4.73753">
        <ele>186</ele>
        <time>2019-04-18T13:42:49Z</time>
      </trkpt>
      <trkpt lat="45.94473" lon="4.73758">
        <ele>186</ele>
        <time>2019-04-18T13:43:49Z</time>
      </trkpt>
      <trkpt lat="45.94472" lon="4.73767">
        <ele>186</ele>
        <time>2019-04-18T13:44:49Z</time>
      </trkpt>
      <trkpt lat="45.94477" lon="4.7378">
        <ele>186</ele>
        <time>2019-04-18T13:45:49Z</time>
      </trkpt>
      <trkpt lat="45.94418" lon="4.74077">
        <ele>177</ele>
        <time>2019-04-18T13:46:49Z</time>
      </trkpt>
      <trkpt lat="45.9441" lon="4.74126">
        <ele>175</ele>
        <time>2019-04-18T13:47:49Z</time>
      </trkpt>
      <trkpt lat="45.94402" lon="4.74203">
        <ele>172</ele>
        <time>2019-04-18T13:48:49Z</time>
      </trkpt>
      <trkpt lat="45.94397" lon="4.74231">
        <ele>171</ele>
        <time>2019-04-18T13:49:49Z</time>
      </trkpt>
      <trkpt lat="45.94389" lon="4.74261">
        <ele>170</ele>
        <time>2019-04-18T13:50:49Z</time>
      </trkpt>
      <trkpt lat="45.9438" lon="4.74284">
        <ele>170</ele>
        <time>2019-04-18T13:51:49Z</time>
      </trkpt>
      <trkpt lat="45.94368" lon="4.7437">
        <ele>170</ele>
        <time>2019-04-18T13:52:49Z</time>
      </trkpt>
      <trkpt lat="45.94358" lon="4.74469">
        <ele>170</ele>
        <time>2019-04-18T13:53:49Z</time>
      </trkpt>
      <trkpt lat="45.94347" lon="4.7462">
        <ele>171</ele>
        <time>2019-04-18T13:54:49Z</time>
      </trkpt>
      <trkpt lat="45.94358" lon="4.74622">
        <ele>171</ele>
        <time>2019-04-18T13:55:49Z</time>
      </trkpt>
      <trkpt lat="45.94387" lon="4.74619">
        <ele>171</ele>
        <time>2019-04-18T13:56:49Z</time>
      </trkpt>
      <trkpt lat="45.94408" lon="4.74614">
        <ele>171</ele>
        <time>2019-04-18T13:57:49Z</time>
      </trkpt>
      <trkpt lat="45.94387" lon="4.74619">
        <ele>171</ele>
        <time>2019-04-18T13:58:49Z</time>
      </trkpt>
      <trkpt lat="45.94358" lon="4.74622">
        <ele>171</ele>
        <time>2019-04-18T13:59:49Z</time>
      </trkpt>
      <trkpt lat="45.94347" lon="4.7462">
        <ele>171</ele>
        <time>2019-04-18T14:00:49Z</time>
      </trkpt>
      <trkpt lat="45.94338" lon="4.74701">
        <ele>172</ele>
        <time>2019-04-18T14:01:49Z</time>
      </trkpt>
      <trkpt lat="45.94332" lon="4.74745">
        <ele>171</ele>
        <time>2019-04-18T14:02:49Z</time>
      </trkpt>
      <trkpt lat="45.943" lon="4.74875">
        <ele>174</ele>
        <time>2019-04-18T14:03:49Z</time>
      </trkpt>
      <trkpt lat="45.9425" lon="4.75059">
        <ele>173</ele>
        <time>2019-04-18T14:04:49Z</time>
      </trkpt>
      <trkpt lat="45.94203" lon="4.75252">
        <ele>171</ele>
        <time>2019-04-18T14:05:49Z</time>
      </trkpt>
      <trkpt lat="45.94179" lon="4.75425">
        <ele>170</ele>
        <time>2019-04-18T14:06:49Z</time>
      </trkpt>
      <trkpt lat="45.94172" lon="4.75426">
        <ele>170</ele>
        <time>2019-04-18T14:07:49Z</time>
      </trkpt>
      <trkpt lat="45.94168" lon="4.75433">
        <ele>171</ele>
        <time>2019-04-18T14:08:49Z</time>
      </trkpt>
      <trkpt lat="45.94168" lon="4.75443">
        <ele>171</ele>
        <time>2019-04-18T14:09:49Z</time>
      </trkpt>
      <trkpt lat="45.94169" lon="4.75447">
        <ele>171</ele>
        <time>2019-04-18T14:10:49Z</time>
      </trkpt>
      <trkpt lat="45.94175" lon="4.75452">
        <ele>171</ele>
        <time>2019-04-18T14:11:49Z</time>
      </trkpt>
      <trkpt lat="45.94162" lon="4.75633">
        <ele>173</ele>
        <time>2019-04-18T14:12:49Z</time>
      </trkpt>
      <trkpt lat="45.94163" lon="4.75796">
        <ele>174</ele>
        <time>2019-04-18T14:13:49Z</time>
      </trkpt>
      <trkpt lat="45.94166" lon="4.75895">
        <ele>175</ele>
        <time>2019-04-18T14:14:49Z</time>
      </trkpt>
      <trkpt lat="45.94172" lon="4.75966">
        <ele>177</ele>
        <time>2019-04-18T14:15:49Z</time>
      </trkpt>
      <trkpt lat="45.9418" lon="4.76139">
        <ele>180</ele>
        <time>2019-04-18T14:16:49Z</time>
      </trkpt>
      <trkpt lat="45.94173" lon="4.76199">
        <ele>181</ele>
        <time>2019-04-18T14:17:49Z</time>
      </trkpt>
      <trkpt lat="45.94157" lon="4.76301">
        <ele>180</ele>
        <time>2019-04-18T14:18:49Z</time>
      </trkpt>
      <trkpt lat="45.94157" lon="4.76441">
        <ele>183</ele>
        <time>2019-04-18T14:19:49Z</time>
      </trkpt>
      <trkpt lat="45.94159" lon="4.76442">
        <ele>183</ele>
        <time>2019-04-18T14:20:49Z</time>
      </trkpt>
      <trkpt lat="45.94158" lon="4.76481">
        <ele>184</ele>
        <time>2019-04-18T14:21:49Z</time>
      </trkpt>
      <trkpt lat="45.94169" lon="4.76652">
        <ele>185</ele>
        <time>2019-04-18T14:22:49Z</time>
      </trkpt>
      <trkpt lat="45.9417" lon="4.76687">
        <ele>185</ele>
        <time>2019-04-18T14:23:49Z</time>
      </trkpt>
      <trkpt lat="45.94169" lon="4.76718">
        <ele>183</ele>
        <time>2019-04-18T14:24:49Z</time>
      </trkpt>
      <trkpt lat="45.94167" lon="4.76737">
        <ele>182</ele>
        <time>2019-04-18T14:25:49Z</time>
      </trkpt>
      <trkpt lat="45.94165" lon="4.76745">
        <ele>182</ele>
        <time>2019-04-18T14:26:49Z</time>
      </trkpt>
      <trkpt lat="45.94101" lon="4.76879">
        <ele>176</ele>
        <time>2019-04-18T14:27:49Z</time>
      </trkpt>
      <trkpt lat="45.94067" lon="4.76946">
        <ele>175</ele>
        <time>2019-04-18T14:28:49Z</time>
      </trkpt>
      <trkpt lat="45.94059" lon="4.76958">
        <ele>175</ele>
        <time>2019-04-18T14:29:49Z</time>
      </trkpt>
      <trkpt lat="45.94056" lon="4.76955">
        <ele>174</ele>
        <time>2019-04-18T14:30:49Z</time>
      </trkpt>
      <trkpt lat="45.94048" lon="4.76955">
        <ele>174</ele>
        <time>2019-04-18T14:31:49Z</time>
      </trkpt>
      <trkpt lat="45.94043" lon="4.7696">
        <ele>174</ele>
        <time>2019-04-18T14:32:49Z</time>
      </trkpt>
      <trkpt lat="45.94041" lon="4.76971">
        <ele>174</ele>
        <time>2019-04-18T14:33:49Z</time>
      </trkpt>
      <trkpt lat="45.94042" lon="4.76976">
        <ele>174</ele>
        <time>2019-04-18T14:34:49Z</time>
      </trkpt>
      <trkpt lat="45.94045" lon="4.76981">
        <ele>174</ele>
        <time>2019-04-18T14:35:49Z</time>
      </trkpt>
      <trkpt lat="45.94051" lon="4.76985">
        <ele>175</ele>
        <time>2019-04-18T14:36:49Z</time>
      </trkpt>
      <trkpt lat="45.94015" lon="4.77279">
        <ele>172</ele>
        <time>2019-04-18T14:37:49Z</time>
      </trkpt>
      <trkpt lat="45.9401" lon="4.77369">
        <ele>173</ele>
        <time>2019-04-18T14:38:49Z</time>
      </trkpt>
      <trkpt lat="45.93999" lon="4.77462">
        <ele>175</ele>
        <time>2019-04-18T14:39:49Z</time>
      </trkpt>
      <trkpt lat="45.93989" lon="4.77532">
        <ele>177</ele>
        <time>2019-04-18T14:40:49Z</time>
      </trkpt>
      <trkpt lat="45.93976" lon="4.77604">
        <ele>178</ele>
        <time>2019-04-18T14:41:49Z</time>
      </trkpt>
      <trkpt lat="45.93967" lon="4.77644">
        <ele>178</ele>
        <time>2019-04-18T14:42:49Z</time>
      </trkpt>
      <trkpt lat="45.93958" lon="4.77678">
        <ele>177</ele>
        <time>2019-04-18T14:43:49Z</time>
      </trkpt>
      <trkpt lat="45.93944" lon="4.77717">
        <ele>174</ele>
        <time>2019-04-18T14:44:49Z</time>
      </trkpt>
      <trkpt lat="45.93902" lon="4.77818">
        <ele>172</ele>
        <time>2019-04-18T14:45:49Z</time>
      </trkpt>
      <trkpt lat="45.9389" lon="4.77859">
        <ele>174</ele>
        <time>2019-04-18T14:46:49Z</time>
      </trkpt>
      <trkpt lat="45.93859" lon="4.77984">
        <ele>179</ele>
        <time>2019-04-18T14:47:49Z</time>
      </trkpt>
      <trkpt lat="45.93855" lon="4.77993">
        <ele>180</ele>
        <time>2019-04-18T14:48:49Z</time>
      </trkpt>
      <trkpt lat="45.93846" lon="4.77994">
        <ele>179</ele>
        <time>2019-04-18T14:49:49Z</time>
      </trkpt>
      <trkpt lat="45.93839" lon="4.78003">
        <ele>180</ele>
        <time>2019-04-18T14:50:49Z</time>
      </trkpt>
      <trkpt lat="45.93836" lon="4.78017">
        <ele>179</ele>
        <time>2019-04-18T14:51:49Z</time>
      </trkpt>
      <trkpt lat="45.93838" lon="4.78024">
        <ele>180</ele>
        <time>2019-04-18T14:52:49Z</time>
      </trkpt>
      <trkpt lat="45.93842" lon="4.78033">
        <ele>180</ele>
        <time>2019-04-18T14:53:49Z</time>
      </trkpt>
      <trkpt lat="45.93845" lon="4.78036">
        <ele>181</ele>
        <time>2019-04-18T14:54:49Z</time>
      </trkpt>
      <trkpt lat="45.93847" lon="4.78046">
        <ele>181</ele>
        <time>2019-04-18T14:55:49Z</time>
      </trkpt>
      <trkpt lat="45.9384" lon="4.7809">
        <ele>181</ele>
        <time>2019-04-18T14:56:49Z</time>
      </trkpt>
      <trkpt lat="45.93806" lon="4.78224">
        <ele>183</ele>
        <time>2019-04-18T14:57:49Z</time>
      </trkpt>
      <trkpt lat="45.93793" lon="4.78246">
        <ele>183</ele>
        <time>2019-04-18T14:58:49Z</time>
      </trkpt>
      <trkpt lat="45.93791" lon="4.78257">
        <ele>183</ele>
        <time>2019-04-18T14:59:49Z</time>
      </trkpt>
      <trkpt lat="45.93793" lon="4.78265">
        <ele>183</ele>
        <time>2019-04-18T15:00:49Z</time>
      </trkpt>
      <trkpt lat="45.93797" lon="4.78267">
        <ele>183</ele>
        <time>2019-04-18T15:01:49Z</time>
      </trkpt>
      <trkpt lat="45.93786" lon="4.7829">
        <ele>183</ele>
        <time>2019-04-18T15:02:49Z</time>
      </trkpt>
      <trkpt lat="45.93755" lon="4.78405">
        <ele>182</ele>
        <time>2019-04-18T15:03:49Z</time>
      </trkpt>
      <trkpt lat="45.93705" lon="4.78609">
        <ele>176</ele>
        <time>2019-04-18T15:04:49Z</time>
      </trkpt>
      <trkpt lat="45.93699" lon="4.78614">
        <ele>176</ele>
        <time>2019-04-18T15:05:49Z</time>
      </trkpt>
      <trkpt lat="45.93698" lon="4.7862">
        <ele>176</ele>
        <time>2019-04-18T15:06:49Z</time>
      </trkpt>
      <trkpt lat="45.93699" lon="4.78626">
        <ele>176</ele>
        <time>2019-04-18T15:07:49Z</time>
      </trkpt>
      <trkpt lat="45.93704" lon="4.7863">
        <ele>176</ele>
        <time>2019-04-18T15:08:49Z</time>
      </trkpt>
      <trkpt lat="45.9371" lon="4.78626">
        <ele>176</ele>
        <time>2019-04-18T15:09:49Z</time>
      </trkpt>
      <trkpt lat="45.93712" lon="4.78623">
        <ele>176</ele>
        <time>2019-04-18T15:10:49Z</time>
      </trkpt>
      <trkpt lat="45.93724" lon="4.78625">
        <ele>177</ele>
        <time>2019-04-18T15:11:49Z</time>
      </trkpt>
      <trkpt lat="45.93748" lon="4.78621">
        <ele>178</ele>
        <time>2019-04-18T15:12:49Z</time>
      </trkpt>
      <trkpt lat="45.93896" lon="4.78579">
        <ele>192</ele>
        <time>2019-04-18T15:13:49Z</time>
      </trkpt>
      <trkpt lat="45.93915" lon="4.7857">
        <ele>193</ele>
        <time>2019-04-18T15:14:49Z</time>
      </trkpt>
      <trkpt lat="45.93927" lon="4.78556">
        <ele>195</ele>
        <time>2019-04-18T15:15:49Z</time>
      </trkpt>
      <trkpt lat="45.93931" lon="4.7857">
        <ele>195</ele>
        <time>2019-04-18T15:16:49Z</time>
      </trkpt>
      <trkpt lat="45.93935" lon="4.78661">
        <ele>193</ele>
        <time>2019-04-18T15:17:49Z</time>
      </trkpt>
      <trkpt lat="45.93934" lon="4.78756">
        <ele>192</ele>
        <time>2019-04-18T15:18:49Z</time>
      </trkpt>
      <trkpt lat="45.93937" lon="4.78845">
        <ele>193</ele>
        <time>2019-04-18T15:19:49Z</time>
      </trkpt>
      <trkpt lat="45.93949" lon="4.79218">
        <ele>196</ele>
        <time>2019-04-18T15:20:49Z</time>
      </trkpt>
      <trkpt lat="45.9395" lon="4.79513">
        <ele>203</ele>
        <time>2019-04-18T15:21:49Z</time>
      </trkpt>
      <trkpt lat="45.9397" lon="4.79777">
        <ele>207</ele>
        <time>2019-04-18T15:22:49Z</time>
      </trkpt>
      <trkpt lat="45.93937" lon="4.80027">
        <ele>205</ele>
        <time>2019-04-18T15:23:49Z</time>
      </trkpt>
      <trkpt lat="45.93934" lon="4.8009">
        <ele>207</ele>
        <time>2019-04-18T15:24:49Z</time>
      </trkpt>
      <trkpt lat="45.93937" lon="4.80121">
        <ele>207</ele>
        <time>2019-04-18T15:25:49Z</time>
      </trkpt>
      <trkpt lat="45.93949" lon="4.80193">
        <ele>206</ele>
        <time>2019-04-18T15:26:49Z</time>
      </trkpt>
      <trkpt lat="45.94012" lon="4.8042">
        <ele>218</ele>
        <time>2019-04-18T15:27:49Z</time>
      </trkpt>
      <trkpt lat="45.94016" lon="4.80477">
        <ele>221</ele>
        <time>2019-04-18T15:28:49Z</time>
      </trkpt>
      <trkpt lat="45.94014" lon="4.80508">
        <ele>221</ele>
        <time>2019-04-18T15:29:49Z</time>
      </trkpt>
      <trkpt lat="45.94018" lon="4.80574">
        <ele>222</ele>
        <time>2019-04-18T15:30:49Z</time>
      </trkpt>
      <trkpt lat="45.94035" lon="4.80722">
        <ele>225</ele>
        <time>2019-04-18T15:31:49Z</time>
      </trkpt>
      <trkpt lat="45.94071" lon="4.81007">
        <ele>237</ele>
        <time>2019-04-18T15:32:49Z</time>
      </trkpt>
      <trkpt lat="45.94084" lon="4.8105">
        <ele>238</ele>
        <time>2019-04-18T15:33:49Z</time>
      </trkpt>
      <trkpt lat="45.941" lon="4.81085">
        <ele>240</ele>
        <time>2019-04-18T15:34:49Z</time>
      </trkpt>
      <trkpt lat="45.94139" lon="4.8116">
        <ele>244</ele>
        <time>2019-04-18T15:35:49Z</time>
      </trkpt>
      <trkpt lat="45.9415" lon="4.8119">
        <ele>246</ele>
        <time>2019-04-18T15:36:49Z</time>
      </trkpt>
      <trkpt lat="45.9416" lon="4.81238">
        <ele>249</ele>
        <time>2019-04-18T15:37:49Z</time>
      </trkpt>
      <trkpt lat="45.94167" lon="4.81301">
        <ele>251</ele>
        <time>2019-04-18T15:38:49Z</time>
      </trkpt>
      <trkpt lat="45.94165" lon="4.81376">
        <ele>254</ele>
        <time>2019-04-18T15:39:49Z</time>
      </trkpt>
      <trkpt lat="45.94153" lon="4.8146">
        <ele>259</ele>
        <time>2019-04-18T15:40:49Z</time>
      </trkpt>
      <trkpt lat="45.9415" lon="4.81529">
        <ele>264</ele>
        <time>2019-04-18T15:41:49Z</time>
      </trkpt>
      <trkpt lat="45.94152" lon="4.81553">
        <ele>265</ele>
        <time>2019-04-18T15:42:49Z</time>
      </trkpt>
      <trkpt lat="45.94173" lon="4.81661">
        <ele>269</ele>
        <time>2019-04-18T15:43:49Z</time>
      </trkpt>
      <trkpt lat="45.94176" lon="4.81683">
        <ele>268</ele>
        <time>2019-04-18T15:44:49Z</time>
      </trkpt>
      <trkpt lat="45.94184" lon="4.81709">
        <ele>268</ele>
        <time>2019-04-18T15:45:49Z</time>
      </trkpt>
      <trkpt lat="45.94186" lon="4.81718">
        <ele>267</ele>
        <time>2019-04-18T15:46:49Z</time>
      </trkpt>
      <trkpt lat="45.94184" lon="4.81725">
        <ele>267</ele>
        <time>2019-04-18T15:47:49Z</time>
      </trkpt>
      <trkpt lat="45.94185" lon="4.81742">
        <ele>267</ele>
        <time>2019-04-18T15:48:49Z</time>
      </trkpt>
      <trkpt lat="45.94193" lon="4.81754">
        <ele>266</ele>
        <time>2019-04-18T15:49:49Z</time>
      </trkpt>
      <trkpt lat="45.94198" lon="4.81772">
        <ele>266</ele>
        <time>2019-04-18T15:50:49Z</time>
      </trkpt>
      <trkpt lat="45.942" lon="4.81796">
        <ele>266</ele>
        <time>2019-04-18T15:51:49Z</time>
      </trkpt>
      <trkpt lat="45.94201" lon="4.81827">
        <ele>266</ele>
        <time>2019-04-18T15:52:49Z</time>
      </trkpt>
      <trkpt lat="45.9426" lon="4.82106">
        <ele>262</ele>
        <time>2019-04-18T15:53:49Z</time>
      </trkpt>
      <trkpt lat="45.94276" lon="4.82199">
        <ele>264</ele>
        <time>2019-04-18T15:54:49Z</time>
      </trkpt>
      <trkpt lat="45.94284" lon="4.82291">
        <ele>265</ele>
        <time>2019-04-18T15:55:49Z</time>
      </trkpt>
      <trkpt lat="45.9429" lon="4.8242">
        <ele>264</ele>
        <time>2019-04-18T15:56:49Z</time>
      </trkpt>
      <trkpt lat="45.94292" lon="4.82545">
        <ele>264</ele>
        <time>2019-04-18T15:57:49Z</time>
      </trkpt>
      <trkpt lat="45.94289" lon="4.82813">
        <ele>265</ele>
        <time>2019-04-18T15:58:49Z</time>
      </trkpt>
      <trkpt lat="45.94287" lon="4.82889">
        <ele>265</ele>
        <time>2019-04-18T15:59:49Z</time>
      </trkpt>
      <trkpt lat="45.94281" lon="4.8293">
        <ele>265</ele>
        <time>2019-04-18T16:00:49Z</time>
      </trkpt>
      <trkpt lat="45.94273" lon="4.82954">
        <ele>265</ele>
        <time>2019-04-18T16:01:49Z</time>
      </trkpt>
      <trkpt lat="45.94283" lon="4.82974">
        <ele>265</ele>
        <time>2019-04-18T16:02:49Z</time>
      </trkpt>
      <trkpt lat="45.94289" lon="4.82991">
        <ele>265</ele>
        <time>2019-04-18T16:03:49Z</time>
      </trkpt>
      <trkpt lat="45.94304" lon="4.83069">
        <ele>266</ele>
        <time>2019-04-18T16:04:49Z</time>
      </trkpt>
      <trkpt lat="45.94317" lon="4.8311">
        <ele>266</ele>
        <time>2019-04-18T16:05:49Z</time>
      </trkpt>
      <trkpt lat="45.94402" lon="4.83352">
        <ele>263</ele>
        <time>2019-04-18T16:06:49Z</time>
      </trkpt>
      <trkpt lat="45.94456" lon="4.83462">
        <ele>263</ele>
        <time>2019-04-18T16:07:49Z</time>
      </trkpt>
      <trkpt lat="45.94515" lon="4.83561">
        <ele>261</ele>
        <time>2019-04-18T16:08:49Z</time>
      </trkpt>
      <trkpt lat="45.94531" lon="4.83621">
        <ele>261</ele>
        <time>2019-04-18T16:09:49Z</time>
      </trkpt>
      <trkpt lat="45.94622" lon="4.84212">
        <ele>269</ele>
        <time>2019-04-18T16:10:49Z</time>
      </trkpt>
      <trkpt lat="45.94639" lon="4.84337">
        <ele>268</ele>
        <time>2019-04-18T16:11:49Z</time>
      </trkpt>
      <trkpt lat="45.94656" lon="4.84504">
        <ele>268</ele>
        <time>2019-04-18T16:12:49Z</time>
      </trkpt>
      <trkpt lat="45.94675" lon="4.84811">
        <ele>268</ele>
        <time>2019-04-18T16:13:49Z</time>
      </trkpt>
      <trkpt lat="45.94712" lon="4.8518">
        <ele>269</ele>
        <time>2019-04-18T16:14:49Z</time>
      </trkpt>
      <trkpt lat="45.94747" lon="4.85488">
        <ele>276</ele>
        <time>2019-04-18T16:15:49Z</time>
      </trkpt>
      <trkpt lat="45.94766" lon="4.85605">
        <ele>280</ele>
        <time>2019-04-18T16:16:49Z</time>
      </trkpt>
      <trkpt lat="45.94835" lon="4.85874">
        <ele>276</ele>
        <time>2019-04-18T16:17:49Z</time>
      </trkpt>
      <trkpt lat="45.9489" lon="4.86078">
        <ele>274</ele>
        <time>2019-04-18T16:18:49Z</time>
      </trkpt>
      <trkpt lat="45.94901" lon="4.86107">
        <ele>273</ele>
        <time>2019-04-18T16:19:49Z</time>
      </trkpt>
      <trkpt lat="45.94913" lon="4.86133">
        <ele>273</ele>
        <time>2019-04-18T16:20:49Z</time>
      </trkpt>
      <trkpt lat="45.94935" lon="4.86162">
        <ele>273</ele>
        <time>2019-04-18T16:21:49Z</time>
      </trkpt>
      <trkpt lat="45.95082" lon="4.86343">
        <ele>269</ele>
        <time>2019-04-18T16:22:49Z</time>
      </trkpt>
      <trkpt lat="45.9523" lon="4.86521">
        <ele>268</ele>
        <time>2019-04-18T16:23:49Z</time>
      </trkpt>
      <trkpt lat="45.95266" lon="4.86571">
        <ele>267</ele>
        <time>2019-04-18T16:24:49Z</time>
      </trkpt>
      <trkpt lat="45.95291" lon="4.86613">
        <ele>268</ele>
        <time>2019-04-18T16:25:49Z</time>
      </trkpt>
      <trkpt lat="45.95796" lon="4.87647">
        <ele>283</ele>
        <time>2019-04-18T16:26:49Z</time>
      </trkpt>
      <trkpt lat="45.9581" lon="4.87691">
        <ele>284</ele>
        <time>2019-04-18T16:27:49Z</time>
      </trkpt>
      <trkpt lat="45.9582" lon="4.87749">
        <ele>284</ele>
        <time>2019-04-18T16:28:49Z</time>
      </trkpt>
      <trkpt lat="45.95833" lon="4.87846">
        <ele>288</ele>
        <time>2019-04-18T16:29:49Z</time>
      </trkpt>
      <trkpt lat="45.95841" lon="4.87964">
        <ele>289</ele>
        <time>2019-04-18T16:30:49Z</time>
      </trkpt>
      <trkpt lat="45.95872" lon="4.88703">
        <ele>288</ele>
        <time>2019-04-18T16:31:49Z</time>
      </trkpt>
      <trkpt lat="45.95876" lon="4.88857">
        <ele>289</ele>
        <time>2019-04-18T16:32:49Z</time>
      </trkpt>
      <trkpt lat="45.95878" lon="4.88949">
        <ele>289</ele>
        <time>2019-04-18T16:33:49Z</time>
      </trkpt>
      <trkpt lat="45.9588" lon="4.88985">
        <ele>289</ele>
        <time>2019-04-18T16:34:49Z</time>
      </trkpt>
      <trkpt lat="45.95891" lon="4.89022">
        <ele>289</ele>
        <time>2019-04-18T16:35:49Z</time>
      </trkpt>
      <trkpt lat="45.95896" lon="4.89057">
        <ele>289</ele>
        <time>2019-04-18T16:36:49Z</time>
      </trkpt>
      <trkpt lat="45.95889" lon="4.89079">
        <ele>289</ele>
        <time>2019-04-18T16:37:49Z</time>
      </trkpt>
      <trkpt lat="45.95878" lon="4.89091">
        <ele>288</ele>
        <time>2019-04-18T16:38:49Z</time>
      </trkpt>
      <trkpt lat="45.95869" lon="4.89114">
        <ele>288</ele>
        <time>2019-04-18T16:39:49Z</time>
      </trkpt>
      <trkpt lat="45.95868" lon="4.89137">
        <ele>288</ele>
        <time>2019-04-18T16:40:49Z</time>
      </trkpt>
      <trkpt lat="45.95876" lon="4.89176">
        <ele>288</ele>
        <time>2019-04-18T16:41:49Z</time>
      </trkpt>
      <trkpt lat="45.95878" lon="4.89201">
        <ele>288</ele>
        <time>2019-04-18T16:42:49Z</time>
      </trkpt>
      <trkpt lat="45.95885" lon="4.89563">
        <ele>289</ele>
        <time>2019-04-18T16:43:49Z</time>
      </trkpt>
      <trkpt lat="45.95886" lon="4.8977">
        <ele>289</ele>
        <time>2019-04-18T16:44:49Z</time>
      </trkpt>
      <trkpt lat="45.95893" lon="4.90093">
        <ele>290</ele>
        <time>2019-04-18T16:45:49Z</time>
      </trkpt>
      <trkpt lat="45.95883" lon="4.90389">
        <ele>292</ele>
        <time>2019-04-18T16:46:49Z</time>
      </trkpt>
      <trkpt lat="45.95852" lon="4.91182">
        <ele>296</ele>
        <time>2019-04-18T16:47:49Z</time>
      </trkpt>
      <trkpt lat="45.95835" lon="4.91696">
        <ele>302</ele>
        <time>2019-04-18T16:48:49Z</time>
      </trkpt>
      <trkpt lat="45.95838" lon="4.91734">
        <ele>303</ele>
        <time>2019-04-18T16:49:49Z</time>
      </trkpt>
      <trkpt lat="45.95847" lon="4.91789">
        <ele>303</ele>
        <time>2019-04-18T16:50:49Z</time>
      </trkpt>
      <trkpt lat="45.95952" lon="4.92392">
        <ele>294</ele>
        <time>2019-04-18T16:51:49Z</time>
      </trkpt>
      <trkpt lat="45.95973" lon="4.92495">
        <ele>293</ele>
        <time>2019-04-18T16:52:49Z</time>
      </trkpt>
      <trkpt lat="45.96003" lon="4.92623">
        <ele>291</ele>
        <time>2019-04-18T16:53:49Z</time>
      </trkpt>
      <trkpt lat="45.96166" lon="4.93173">
        <ele>294</ele>
        <time>2019-04-18T16:54:49Z</time>
      </trkpt>
      <trkpt lat="45.96193" lon="4.93262">
        <ele>296</ele>
        <time>2019-04-18T16:55:49Z</time>
      </trkpt>
      <trkpt lat="45.96208" lon="4.93298">
        <ele>296</ele>
        <time>2019-04-18T16:56:49Z</time>
      </trkpt>
      <trkpt lat="45.96229" lon="4.93329">
        <ele>296</ele>
        <time>2019-04-18T16:57:49Z</time>
      </trkpt>
      <trkpt lat="45.96266" lon="4.9336">
        <ele>295</ele>
        <time>2019-04-18T16:58:49Z</time>
      </trkpt>
      <trkpt lat="45.96392" lon="4.93438">
        <ele>296</ele>
        <time>2019-04-18T16:59:49Z</time>
      </trkpt>
      <trkpt lat="45.96425" lon="4.93468">
        <ele>297</ele>
        <time>2019-04-18T17:00:49Z</time>
      </trkpt>
      <trkpt lat="45.96535" lon="4.93628">
        <ele>296</ele>
        <time>2019-04-18T17:01:49Z</time>
      </trkpt>
      <trkpt lat="45.9659" lon="4.93702">
        <ele>296</ele>
        <time>2019-04-18T17:02:49Z</time>
      </trkpt>
      <trkpt lat="45.96627" lon="4.9374">
        <ele>297</ele>
        <time>2019-04-18T17:03:49Z</time>
      </trkpt>
      <trkpt lat="45.96649" lon="4.93765">
        <ele>298</ele>
        <time>2019-04-18T17:04:49Z</time>
      </trkpt>
      <trkpt lat="45.9666" lon="4.93812">
        <ele>298</ele>
        <time>2019-04-18T17:05:49Z</time>
      </trkpt>
      <trkpt lat="45.96669" lon="4.93821">
        <ele>298</ele>
        <time>2019-04-18T17:06:49Z</time>
      </trkpt>
      <trkpt lat="45.96677" lon="4.93838">
        <ele>298</ele>
        <time>2019-04-18T17:07:49Z</time>
      </trkpt>
      <trkpt lat="45.96711" lon="4.93876">
        <ele>296</ele>
        <time>2019-04-18T17:08:49Z</time>
      </trkpt>
      <trkpt lat="45.96759" lon="4.93936">
        <ele>296</ele>
        <time>2019-04-18T17:09:49Z</time>
      </trkpt>
      <trkpt lat="45.96809" lon="4.94008">
        <ele>296</ele>
        <time>2019-04-18T17:10:49Z</time>
      </trkpt>
      <trkpt lat="45.96819" lon="4.94029">
        <ele>296</ele>
        <time>2019-04-18T17:11:49Z</time>
      </trkpt>
      <trkpt lat="45.96917" lon="4.94295">
        <ele>297</ele>
        <time>2019-04-18T17:12:49Z</time>
      </trkpt>
      <trkpt lat="45.97051" lon="4.94654">
        <ele>295</ele>
        <time>2019-04-18T17:13:49Z</time>
      </trkpt>
      <trkpt lat="45.97243" lon="4.95174">
        <ele>299</ele>
        <time>2019-04-18T17:14:49Z</time>
      </trkpt>
      <trkpt lat="45.97419" lon="4.95542">
        <ele>294</ele>
        <time>2019-04-18T17:15:49Z</time>
      </trkpt>
      <trkpt lat="45.97955" lon="4.96653">
        <ele>288</ele>
        <time>2019-04-18T17:16:49Z</time>
      </trkpt>
      <trkpt lat="45.98014" lon="4.9678">
        <ele>290</ele>
        <time>2019-04-18T17:17:49Z</time>
      </trkpt>
      <trkpt lat="45.98028" lon="4.96818">
        <ele>290</ele>
        <time>2019-04-18T17:18:49Z</time>
      </trkpt>
      <trkpt lat="45.98133" lon="4.97169">
        <ele>289</ele>
        <time>2019-04-18T17:19:49Z</time>
      </trkpt>
      <trkpt lat="45.98199" lon="4.97418">
        <ele>292</ele>
        <time>2019-04-18T17:20:49Z</time>
      </trkpt>
      <trkpt lat="45.98208" lon="4.97442">
        <ele>292</ele>
        <time>2019-04-18T17:21:49Z</time>
      </trkpt>
      <trkpt lat="45.98218" lon="4.97465">
        <ele>292</ele>
        <time>2019-04-18T17:22:49Z</time>
      </trkpt>
      <trkpt lat="45.9824" lon="4.97498">
        <ele>293</ele>
        <time>2019-04-18T17:23:49Z</time>
      </trkpt>
      <trkpt lat="45.98262" lon="4.9754">
        <ele>294</ele>
        <time>2019-04-18T17:24:49Z</time>
      </trkpt>
      <trkpt lat="45.98274" lon="4.97601">
        <ele>293</ele>
        <time>2019-04-18T17:25:49Z</time>
      </trkpt>
      <trkpt lat="45.98288" lon="4.9764">
        <ele>292</ele>
        <time>2019-04-18T17:26:49Z</time>
      </trkpt>
      <trkpt lat="45.98279" lon="4.9765">
        <ele>292</ele>
        <time>2019-04-18T17:27:49Z</time>
      </trkpt>
      <trkpt lat="45.98263" lon="4.97754">
        <ele>289</ele>
        <time>2019-04-18T17:28:49Z</time>
      </trkpt>
      <trkpt lat="45.98253" lon="4.97799">
        <ele>288</ele>
        <time>2019-04-18T17:29:49Z</time>
      </trkpt>
      <trkpt lat="45.98236" lon="4.97855">
        <ele>286</ele>
        <time>2019-04-18T17:30:49Z</time>
      </trkpt>
      <trkpt lat="45.98224" lon="4.97879">
        <ele>285</ele>
        <time>2019-04-18T17:31:49Z</time>
      </trkpt>
      <trkpt lat="45.98091" lon="4.98121">
        <ele>284</ele>
        <time>2019-04-18T17:32:49Z</time>
      </trkpt>
      <trkpt lat="45.97962" lon="4.98328">
        <ele>284</ele>
        <time>2019-04-18T17:33:49Z</time>
      </trkpt>
      <trkpt lat="45.97935" lon="4.98356">
        <ele>285</ele>
        <time>2019-04-18T17:34:49Z</time>
      </trkpt>
      <trkpt lat="45.9776" lon="4.98465">
        <ele>283</ele>
        <time>2019-04-18T17:35:49Z</time>
      </trkpt>
      <trkpt lat="45.97543" lon="4.98616">
        <ele>282</ele>
        <time>2019-04-18T17:36:49Z</time>
      </trkpt>
      <trkpt lat="45.97388" lon="4.98716">
        <ele>280</ele>
        <time>2019-04-18T17:37:49Z</time>
      </trkpt>
      <trkpt lat="45.97372" lon="4.98742">
        <ele>280</ele>
        <time>2019-04-18T17:38:49Z</time>
      </trkpt>
      <trkpt lat="45.97326" lon="4.98825">
        <ele>282</ele>
        <time>2019-04-18T17:39:49Z</time>
      </trkpt>
      <trkpt lat="45.97304" lon="4.98885">
        <ele>282</ele>
        <time>2019-04-18T17:40:49Z</time>
      </trkpt>
      <trkpt lat="45.97187" lon="4.99406">
        <ele>283</ele>
        <time>2019-04-18T17:41:49Z</time>
      </trkpt>
      <trkpt lat="45.97096" lon="4.99798">
        <ele>283</ele>
        <time>2019-04-18T17:42:49Z</time>
      </trkpt>
      <trkpt lat="45.97089" lon="4.99819">
        <ele>283</ele>
        <time>2019-04-18T17:43:49Z</time>
      </trkpt>
      <trkpt lat="45.9708" lon="4.99834">
        <ele>283</ele>
        <time>2019-04-18T17:44:49Z</time>
      </trkpt>
      <trkpt lat="45.97064" lon="4.99849">
        <ele>283</ele>
        <time>2019-04-18T17:45:49Z</time>
      </trkpt>
      <trkpt lat="45.96986" lon="4.99902">
        <ele>283</ele>
        <time>2019-04-18T17:46:49Z</time>
      </trkpt>
      <trkpt lat="45.96975" lon="4.99909">
        <ele>283</ele>
        <time>2019-04-18T17:47:49Z</time>
      </trkpt>
      <trkpt lat="45.96961" lon="4.99915">
        <ele>283</ele>
        <time>2019-04-18T17:48:49Z</time>
      </trkpt>
      <trkpt lat="45.96948" lon="4.99917">
        <ele>282</ele>
        <time>2019-04-18T17:49:49Z</time>
      </trkpt>
      <trkpt lat="45.96632" lon="4.99907">
        <ele>283</ele>
        <time>2019-04-18T17:50:49Z</time>
      </trkpt>
      <trkpt lat="45.96611" lon="4.99911">
        <ele>284</ele>
        <time>2019-04-18T17:51:49Z</time>
      </trkpt>
      <trkpt lat="45.96564" lon="4.99931">
        <ele>284</ele>
        <time>2019-04-18T17:52:49Z</time>
      </trkpt>
      <trkpt lat="45.96243" lon="5.00101">
        <ele>284</ele>
        <time>2019-04-18T17:53:49Z</time>
      </trkpt>
      <trkpt lat="45.96227" lon="5.00112">
        <ele>284</ele>
        <time>2019-04-18T17:54:49Z</time>
      </trkpt>
      <trkpt lat="45.96214" lon="5.00127">
        <ele>284</ele>
        <time>2019-04-18T17:55:49Z</time>
      </trkpt>
      <trkpt lat="45.96207" lon="5.00144">
        <ele>284</ele>
        <time>2019-04-18T17:56:49Z</time>
      </trkpt>
      <trkpt lat="45.96205" lon="5.00161">
        <ele>284</ele>
        <time>2019-04-18T17:57:49Z</time>
      </trkpt>
      <trkpt lat="45.96204" lon="5.00308">
        <ele>282</ele>
        <time>2019-04-18T17:58:49Z</time>
      </trkpt>
      <trkpt lat="45.96201" lon="5.00331">
        <ele>282</ele>
        <time>2019-04-18T17:59:49Z</time>
      </trkpt>
      <trkpt lat="45.9649" lon="5.00536">
        <ele>285</ele>
        <time>2019-04-18T18:00:49Z</time>
      </trkpt>
      <trkpt lat="45.96561" lon="5.00579">
        <ele>284</ele>
        <time>2019-04-18T18:01:49Z</time>
      </trkpt>
      <trkpt lat="45.96718" lon="5.00662">
        <ele>280</ele>
        <time>2019-04-18T18:02:49Z</time>
      </trkpt>
      <trkpt lat="45.96702" lon="5.00702">
        <ele>280</ele>
        <time>2019-04-18T18:03:49Z</time>
      </trkpt>
      <trkpt lat="45.96654" lon="5.00747">
        <ele>281</ele>
        <time>2019-04-18T18:04:49Z</time>
      </trkpt>
      <trkpt lat="45.9663" lon="5.00789">
        <ele>283</ele>
        <time>2019-04-18T18:05:49Z</time>
      </trkpt>
      <trkpt lat="45.96617" lon="5.00828">
        <ele>285</ele>
        <time>2019-04-18T18:06:49Z</time>
      </trkpt>
      <trkpt lat="45.96608" lon="5.00867">
        <ele>287</ele>
        <time>2019-04-18T18:07:49Z</time>
      </trkpt>
      <trkpt lat="45.96558" lon="5.01429">
        <ele>283</ele>
        <time>2019-04-18T18:08:49Z</time>
      </trkpt>
      <trkpt lat="45.96439" lon="5.02728">
        <ele>280</ele>
        <time>2019-04-18T18:09:49Z</time>
      </trkpt>
      <trkpt lat="45.96336" lon="5.03968">
        <ele>278</ele>
        <time>2019-04-18T18:10:49Z</time>
      </trkpt>
      <trkpt lat="45.96275" lon="5.04735">
        <ele>279</ele>
        <time>2019-04-18T18:11:49Z</time>
      </trkpt>
      <trkpt lat="45.96276" lon="5.0478">
        <ele>279</ele>
        <time>2019-04-18T18:12:49Z</time>
      </trkpt>
      <trkpt lat="45.9628" lon="5.04839">
        <ele>279</ele>
        <time>2019-04-18T18:13:49Z</time>
      </trkpt>
      <trkpt lat="45.96424" lon="5.05643">
        <ele>283</ele>
        <time>2019-04-18T18:14:49Z</time>
      </trkpt>
      <trkpt lat="45.96506" lon="5.06083">
        <ele>281</ele>
        <time>2019-04-18T18:15:49Z</time>
      </trkpt>
      <trkpt lat="45.96719" lon="5.07271">
        <ele>279</ele>
        <time>2019-04-18T18:16:49Z</time>
      </trkpt>
      <trkpt lat="45.96886" lon="5.08188">
        <ele>284</ele>
        <time>2019-04-18T18:17:49Z</time>
      </trkpt>
      <trkpt lat="45.96923" lon="5.08378">
        <ele>282</ele>
        <time>2019-04-18T18:18:49Z</time>
      </trkpt>
      <trkpt lat="45.96941" lon="5.08433">
        <ele>280</ele>
        <time>2019-04-18T18:19:49Z</time>
      </trkpt>
      <trkpt lat="45.96956" lon="5.08467">
        <ele>279</ele>
        <time>2019-04-18T18:20:49Z</time>
      </trkpt>
      <trkpt lat="45.96976" lon="5.08498">
        <ele>278</ele>
        <time>2019-04-18T18:21:49Z</time>
      </trkpt>
      <trkpt lat="45.97609" lon="5.09121">
        <ele>281</ele>
        <time>2019-04-18T18:22:49Z</time>
      </trkpt>
      <trkpt lat="45.97645" lon="5.0916">
        <ele>282</ele>
        <time>2019-04-18T18:23:49Z</time>
      </trkpt>
      <trkpt lat="45.97654" lon="5.09165">
        <ele>282</ele>
        <time>2019-04-18T18:24:49Z</time>
      </trkpt>
      <trkpt lat="45.97663" lon="5.09167">
        <ele>282</ele>
        <time>2019-04-18T18:25:49Z</time>
      </trkpt>
      <trkpt lat="45.97666" lon="5.0919">
        <ele>281</ele>
        <time>2019-04-18T18:26:49Z</time>
      </trkpt>
      <trkpt lat="45.97672" lon="5.09213">
        <ele>281</ele>
        <time>2019-04-18T18:27:49Z</time>
      </trkpt>
      <trkpt lat="45.97793" lon="5.09566">
        <ele>282</ele>
        <time>2019-04-18T18:28:49Z</time>
      </trkpt>
      <trkpt lat="45.97885" lon="5.09829">
        <ele>280</ele>
        <time>2019-04-18T18:29:49Z</time>
      </trkpt>
      <trkpt lat="45.98016" lon="5.10189">
        <ele>283</ele>
        <time>2019-04-18T18:30:49Z</time>
      </trkpt>
      <trkpt lat="45.98033" lon="5.10247">
        <ele>285</ele>
        <time>2019-04-18T18:31:49Z</time>
      </trkpt>
      <trkpt lat="45.98035" lon="5.10277">
        <ele>285</ele>
        <time>2019-04-18T18:32:49Z</time>
      </trkpt>
      <trkpt lat="45.98026" lon="5.10337">
        <ele>286</ele>
        <time>2019-04-18T18:33:49Z</time>
      </trkpt>
      <trkpt lat="45.98019" lon="5.10411">
        <ele>288</ele>
        <time>2019-04-18T18:34:49Z</time>
      </trkpt>
      <trkpt lat="45.98019" lon="5.10444">
        <ele>288</ele>
        <time>2019-04-18T18:35:49Z</time>
      </trkpt>
      <trkpt lat="45.98022" lon="5.10484">
        <ele>288</ele>
        <time>2019-04-18T18:36:49Z</time>
      </trkpt>
      <trkpt lat="45.98029" lon="5.10512">
        <ele>288</ele>
        <time>2019-04-18T18:37:49Z</time>
      </trkpt>
      <trkpt lat="45.98036" lon="5.10525">
        <ele>289</ele>
        <time>2019-04-18T18:38:49Z</time>
      </trkpt>
      <trkpt lat="45.98064" lon="5.10558">
        <ele>292</ele>
        <time>2019-04-18T18:39:49Z</time>
      </trkpt>
      <trkpt lat="45.98096" lon="5.10585">
        <ele>295</ele>
        <time>2019-04-18T18:40:49Z</time>
      </trkpt>
      <trkpt lat="45.98172" lon="5.10638">
        <ele>296</ele>
        <time>2019-04-18T18:41:49Z</time>
      </trkpt>
      <trkpt lat="45.9847" lon="5.10873">
        <ele>282</ele>
        <time>2019-04-18T18:42:49Z</time>
      </trkpt>
      <trkpt lat="45.98493" lon="5.10897">
        <ele>282</ele>
        <time>2019-04-18T18:43:49Z</time>
      </trkpt>
      <trkpt lat="45.98513" lon="5.1093">
        <ele>282</ele>
        <time>2019-04-18T18:44:49Z</time>
      </trkpt>
      <trkpt lat="45.98556" lon="5.11033">
        <ele>283</ele>
        <time>2019-04-18T18:45:49Z</time>
      </trkpt>
      <trkpt lat="45.98578" lon="5.111">
        <ele>284</ele>
        <time>2019-04-18T18:46:49Z</time>
      </trkpt>
      <trkpt lat="45.98583" lon="5.11144">
        <ele>283</ele>
        <time>2019-04-18T18:47:49Z</time>
      </trkpt>
      <trkpt lat="45.98586" lon="5.11292">
        <ele>283</ele>
        <time>2019-04-18T18:48:49Z</time>
      </trkpt>
      <trkpt lat="45.9859" lon="5.11333">
        <ele>283</ele>
        <time>2019-04-18T18:49:49Z</time>
      </trkpt>
      <trkpt lat="45.98599" lon="5.11372">
        <ele>284</ele>
        <time>2019-04-18T18:50:49Z</time>
      </trkpt>
      <trkpt lat="45.98632" lon="5.11485">
        <ele>285</ele>
        <time>2019-04-18T18:51:49Z</time>
      </trkpt>
      <trkpt lat="45.98878" lon="5.12272">
        <ele>289</ele>
        <time>2019-04-18T18:52:49Z</time>
      </trkpt>
      <trkpt lat="45.98907" lon="5.12348">
        <ele>290</ele>
        <time>2019-04-18T18:53:49Z</time>
      </trkpt>
      <trkpt lat="45.9894" lon="5.12411">
        <ele>289</ele>
        <time>2019-04-18T18:54:49Z</time>
      </trkpt>
      <trkpt lat="45.98987" lon="5.12481">
        <ele>288</ele>
        <time>2019-04-18T18:55:49Z</time>
      </trkpt>
      <trkpt lat="45.9922" lon="5.12807">
        <ele>286</ele>
        <time>2019-04-18T18:56:49Z</time>
      </trkpt>
      <trkpt lat="45.99471" lon="5.13164">
        <ele>284</ele>
        <time>2019-04-18T18:57:49Z</time>
      </trkpt>
      <trkpt lat="45.99487" lon="5.13196">
        <ele>284</ele>
        <time>2019-04-18T18:58:49Z</time>
      </trkpt>
      <trkpt lat="45.995" lon="5.1323">
        <ele>284</ele>
        <time>2019-04-18T18:59:49Z</time>
      </trkpt>
      <trkpt lat="45.99527" lon="5.133">
        <ele>283</ele>
        <time>2019-04-18T19:00:49Z</time>
      </trkpt>
      <trkpt lat="45.9956" lon="5.13389">
        <ele>282</ele>
        <time>2019-04-18T19:01:49Z</time>
      </trkpt>
      <trkpt lat="45.99608" lon="5.13513">
        <ele>284</ele>
        <time>2019-04-18T19:02:49Z</time>
      </trkpt>
      <trkpt lat="45.9963" lon="5.13587">
        <ele>285</ele>
        <time>2019-04-18T19:03:49Z</time>
      </trkpt>
      <trkpt lat="45.99661" lon="5.13704">
        <ele>286</ele>
        <time>2019-04-18T19:04:49Z</time>
      </trkpt>
      <trkpt lat="45.99669" lon="5.13756">
        <ele>286</ele>
        <time>2019-04-18T19:05:49Z</time>
      </trkpt>
      <trkpt lat="45.99752" lon="5.14444">
        <ele>289</ele>
        <time>2019-04-18T19:06:49Z</time>
      </trkpt>
      <trkpt lat="45.99761" lon="5.14554">
        <ele>289</ele>
        <time>2019-04-18T19:07:49Z</time>
      </trkpt>
      <trkpt lat="45.99762" lon="5.1465">
        <ele>288</ele>
        <time>2019-04-18T19:08:49Z</time>
      </trkpt>
      <trkpt lat="45.99776" lon="5.15044">
        <ele>288</ele>
        <time>2019-04-18T19:09:49Z</time>
      </trkpt>
      <trkpt lat="45.99781" lon="5.15085">
        <ele>289</ele>
        <time>2019-04-18T19:10:49Z</time>
      </trkpt>
      <trkpt lat="45.99862" lon="5.15321">
        <ele>289</ele>
        <time>2019-04-18T19:11:49Z</time>
      </trkpt>
      <trkpt lat="45.99874" lon="5.1537">
        <ele>289</ele>
        <time>2019-04-18T19:12:49Z</time>
      </trkpt>
      <trkpt lat="45.99905" lon="5.156">
        <ele>289</ele>
        <time>2019-04-18T19:13:49Z</time>
      </trkpt>
      <trkpt lat="45.99906" lon="5.15636">
        <ele>289</ele>
        <time>2019-04-18T19:14:49Z</time>
      </trkpt>
      <trkpt lat="45.99902" lon="5.15665">
        <ele>289</ele>
        <time>2019-04-18T19:15:49Z</time>
      </trkpt>
      <trkpt lat="45.99832" lon="5.16123">
        <ele>294</ele>
        <time>2019-04-18T19:16:49Z</time>
      </trkpt>
      <trkpt lat="45.99827" lon="5.16174">
        <ele>295</ele>
        <time>2019-04-18T19:17:49Z</time>
      </trkpt>
      <trkpt lat="45.99826" lon="5.16216">
        <ele>297</ele>
        <time>2019-04-18T19:18:49Z</time>
      </trkpt>
      <trkpt lat="45.9983" lon="5.16252">
        <ele>298</ele>
        <time>2019-04-18T19:19:49Z</time>
      </trkpt>
      <trkpt lat="45.99866" lon="5.16405">
        <ele>300</ele>
        <time>2019-04-18T19:20:49Z</time>
      </trkpt>
      <trkpt lat="45.99872" lon="5.16437">
        <ele>300</ele>
        <time>2019-04-18T19:21:49Z</time>
      </trkpt>
      <trkpt lat="45.99872" lon="5.16463">
        <ele>301</ele>
        <time>2019-04-18T19:22:49Z</time>
      </trkpt>
      <trkpt lat="45.9987" lon="5.16476">
        <ele>301</ele>
        <time>2019-04-18T19:23:49Z</time>
      </trkpt>
      <trkpt lat="45.99864" lon="5.16495">
        <ele>302</ele>
        <time>2019-04-18T19:24:49Z</time>
      </trkpt>
      <trkpt lat="45.9983" lon="5.1656">
        <ele>305</ele>
        <time>2019-04-18T19:25:49Z</time>
      </trkpt>
      <trkpt lat="45.99817" lon="5.16588">
        <ele>306</ele>
        <time>2019-04-18T19:26:49Z</time>
      </trkpt>
      <trkpt lat="45.99798" lon="5.16642">
        <ele>305</ele>
        <time>2019-04-18T19:27:49Z</time>
      </trkpt>
      <trkpt lat="45.99785" lon="5.16693">
        <ele>302</ele>
        <time>2019-04-18T19:28:49Z</time>
      </trkpt>
      <trkpt lat="45.99742" lon="5.16901">
        <ele>296</ele>
        <time>2019-04-18T19:29:49Z</time>
      </trkpt>
      <trkpt lat="45.99702" lon="5.17068">
        <ele>296</ele>
        <time>2019-04-18T19:30:49Z</time>
      </trkpt>
      <trkpt lat="45.99689" lon="5.17109">
        <ele>296</ele>
        <time>2019-04-18T19:31:49Z</time>
      </trkpt>
      <trkpt lat="45.99675" lon="5.17145">
        <ele>295</ele>
        <time>2019-04-18T19:32:49Z</time>
      </trkpt>
      <trkpt lat="45.99689" lon="5.17168">
        <ele>295</ele>
        <time>2019-04-18T19:33:49Z</time>
      </trkpt>
      <trkpt lat="45.99706" lon="5.17215">
        <ele>295</ele>
        <time>2019-04-18T19:34:49Z</time>
      </trkpt>
      <trkpt lat="45.99731" lon="5.17267">
        <ele>296</ele>
        <time>2019-04-18T19:35:49Z</time>
      </trkpt>
      <trkpt lat="45.99823" lon="5.17356">
        <ele>297</ele>
        <time>2019-04-18T19:36:49Z</time>
      </trkpt>
      <trkpt lat="45.99842" lon="5.17378">
        <ele>295</ele>
        <time>2019-04-18T19:37:49Z</time>
      </trkpt>
      <trkpt lat="45.99857" lon="5.174">
        <ele>293</ele>
        <time>2019-04-18T19:38:49Z</time>
      </trkpt>
      <trkpt lat="45.9987" lon="5.17431">
        <ele>291</ele>
        <time>2019-04-18T19:39:49Z</time>
      </trkpt>
      <trkpt lat="45.99875" lon="5.17438">
        <ele>291</ele>
        <time>2019-04-18T19:40:49Z</time>
      </trkpt>
      <trkpt lat="45.99882" lon="5.17459">
        <ele>290</ele>
        <time>2019-04-18T19:41:49Z</time>
      </trkpt>
      <trkpt lat="45.99883" lon="5.17468">
        <ele>289</ele>
        <time>2019-04-18T19:42:49Z</time>
      </trkpt>
      <trkpt lat="45.9988" lon="5.17473">
        <ele>289</ele>
        <time>2019-04-18T19:43:49Z</time>
      </trkpt>
      <trkpt lat="45.99879" lon="5.1748">
        <ele>289</ele>
        <time>2019-04-18T19:44:49Z</time>
      </trkpt>
      <trkpt lat="45.99881" lon="5.17487">
        <ele>288</ele>
        <time>2019-04-18T19:45:49Z</time>
      </trkpt>
      <trkpt lat="45.99885" lon="5.17491">
        <ele>288</ele>
        <time>2019-04-18T19:46:49Z</time>
      </trkpt>
      <trkpt lat="45.99892" lon="5.1749">
        <ele>288</ele>
        <time>2019-04-18T19:47:49Z</time>
      </trkpt>
      <trkpt lat="45.99897" lon="5.17495">
        <ele>288</ele>
        <time>2019-04-18T19:48:49Z</time>
      </trkpt>
      <trkpt lat="45.99921" lon="5.17563">
        <ele>287</ele>
        <time>2019-04-18T19:49:49Z</time>
      </trkpt>
      <trkpt lat="45.99962" lon="5.17667">
        <ele>290</ele>
        <time>2019-04-18T19:50:49Z</time>
      </trkpt>
      <trkpt lat="46.00014" lon="5.17817">
        <ele>288</ele>
        <time>2019-04-18T19:51:49Z</time>
      </trkpt>
      <trkpt lat="46.00153" lon="5.18199">
        <ele>288</ele>
        <time>2019-04-18T19:52:49Z</time>
      </trkpt>
      <trkpt lat="46.00272" lon="5.18492">
        <ele>289</ele>
        <time>2019-04-18T19:53:49Z</time>
      </trkpt>
      <trkpt lat="46.00288" lon="5.18539">
        <ele>290</ele>
        <time>2019-04-18T19:54:49Z</time>
      </trkpt>
      <trkpt lat="46.00334" lon="5.18655">
        <ele>291</ele>
        <time>2019-04-18T19:55:49Z</time>
      </trkpt>
      <trkpt lat="46.00365" lon="5.18715">
        <ele>293</ele>
        <time>2019-04-18T19:56:49Z</time>
      </trkpt>
      <trkpt lat="46.00572" lon="5.19067">
        <ele>300</ele>
        <time>2019-04-18T19:57:49Z</time>
      </trkpt>
      <trkpt lat="46.00832" lon="5.19505">
        <ele>308</ele>
        <time>2019-04-18T19:58:49Z</time>
      </trkpt>
      <trkpt lat="46.00958" lon="5.19723">
        <ele>305</ele>
        <time>2019-04-18T19:59:49Z</time>
      </trkpt>
      <trkpt lat="46.01261" lon="5.20232">
        <ele>305</ele>
        <time>2019-04-18T20:00:49Z</time>
      </trkpt>
      <trkpt lat="46.01346" lon="5.20381">
        <ele>304</ele>
        <time>2019-04-18T20:01:49Z</time>
      </trkpt>
      <trkpt lat="46.0137" lon="5.2041">
        <ele>303</ele>
        <time>2019-04-18T20:02:49Z</time>
      </trkpt>
      <trkpt lat="46.01395" lon="5.20433">
        <ele>301</ele>
        <time>2019-04-18T20:03:49Z</time>
      </trkpt>
      <trkpt lat="46.01413" lon="5.20441">
        <ele>300</ele>
        <time>2019-04-18T20:04:49Z</time>
      </trkpt>
      <trkpt lat="46.01434" lon="5.20448">
        <ele>298</ele>
        <time>2019-04-18T20:05:49Z</time>
      </trkpt>
      <trkpt lat="46.01457" lon="5.20448">
        <ele>297</ele>
        <time>2019-04-18T20:06:49Z</time>
      </trkpt>
      <trkpt lat="46.01487" lon="5.20446">
        <ele>296</ele>
        <time>2019-04-18T20:07:49Z</time>
      </trkpt>
      <trkpt lat="46.0154" lon="5.20454">
        <ele>293</ele>
        <time>2019-04-18T20:08:49Z</time>
      </trkpt>
      <trkpt lat="46.01558" lon="5.20461">
        <ele>291</ele>
        <time>2019-04-18T20:09:49Z</time>
      </trkpt>
      <trkpt lat="46.0158" lon="5.20474">
        <ele>289</ele>
        <time>2019-04-18T20:10:49Z</time>
      </trkpt>
      <trkpt lat="46.01601" lon="5.20496">
        <ele>288</ele>
        <time>2019-04-18T20:11:49Z</time>
      </trkpt>
      <trkpt lat="46.01619" lon="5.20521">
        <ele>287</ele>
        <time>2019-04-18T20:12:49Z</time>
      </trkpt>
      <trkpt lat="46.01629" lon="5.2054">
        <ele>286</ele>
        <time>2019-04-18T20:13:49Z</time>
      </trkpt>
      <trkpt lat="46.01643" lon="5.20577">
        <ele>284</ele>
        <time>2019-04-18T20:14:49Z</time>
      </trkpt>
      <trkpt lat="46.0168" lon="5.20698">
        <ele>283</ele>
        <time>2019-04-18T20:15:49Z</time>
      </trkpt>
      <trkpt lat="46.01722" lon="5.20829">
        <ele>282</ele>
        <time>2019-04-18T20:16:49Z</time>
      </trkpt>
      <trkpt lat="46.01747" lon="5.20901">
        <ele>282</ele>
        <time>2019-04-18T20:17:49Z</time>
      </trkpt>
      <trkpt lat="46.0181" lon="5.211">
        <ele>289</ele>
        <time>2019-04-18T20:18:49Z</time>
      </trkpt>
      <trkpt lat="46.01864" lon="5.21356">
        <ele>293</ele>
        <time>2019-04-18T20:19:49Z</time>
      </trkpt>
      <trkpt lat="46.01908" lon="5.21581">
        <ele>295</ele>
        <time>2019-04-18T20:20:49Z</time>
      </trkpt>
      <trkpt lat="46.01942" lon="5.2172">
        <ele>293</ele>
        <time>2019-04-18T20:21:49Z</time>
      </trkpt>
      <trkpt lat="46.02042" lon="5.22076">
        <ele>297</ele>
        <time>2019-04-18T20:22:49Z</time>
      </trkpt>
      <trkpt lat="46.02426" lon="5.23119">
        <ele>296</ele>
        <time>2019-04-18T20:23:49Z</time>
      </trkpt>
      <trkpt lat="46.02447" lon="5.23195">
        <ele>297</ele>
        <time>2019-04-18T20:24:49Z</time>
      </trkpt>
      <trkpt lat="46.0246" lon="5.23256">
        <ele>297</ele>
        <time>2019-04-18T20:25:49Z</time>
      </trkpt>
      <trkpt lat="46.02572" lon="5.24198">
        <ele>294</ele>
        <time>2019-04-18T20:26:49Z</time>
      </trkpt>
      <trkpt lat="46.0271" lon="5.25333">
        <ele>321</ele>
        <time>2019-04-18T20:27:49Z</time>
      </trkpt>
      <trkpt lat="46.02767" lon="5.25834">
        <ele>322</ele>
        <time>2019-04-18T20:28:49Z</time>
      </trkpt>
      <trkpt lat="46.02766" lon="5.2587">
        <ele>323</ele>
        <time>2019-04-18T20:29:49Z</time>
      </trkpt>
      <trkpt lat="46.0276" lon="5.25911">
        <ele>324</ele>
        <time>2019-04-18T20:30:49Z</time>
      </trkpt>
      <trkpt lat="46.02748" lon="5.25964">
        <ele>325</ele>
        <time>2019-04-18T20:31:49Z</time>
      </trkpt>
      <trkpt lat="46.02614" lon="5.26469">
        <ele>322</ele>
        <time>2019-04-18T20:32:49Z</time>
      </trkpt>
      <trkpt lat="46.02601" lon="5.26525">
        <ele>322</ele>
        <time>2019-04-18T20:33:49Z</time>
      </trkpt>
      <trkpt lat="46.02594" lon="5.26574">
        <ele>321</ele>
        <time>2019-04-18T20:34:49Z</time>
      </trkpt>
      <trkpt lat="46.02592" lon="5.26663">
        <ele>323</ele>
        <time>2019-04-18T20:35:49Z</time>
      </trkpt>
      <trkpt lat="46.02585" lon="5.26862">
        <ele>335</ele>
        <time>2019-04-18T20:36:49Z</time>
      </trkpt>
      <trkpt lat="46.02453" lon="5.2774">
        <ele>341</ele>
        <time>2019-04-18T20:37:49Z</time>
      </trkpt>
      <trkpt lat="46.02409" lon="5.28">
        <ele>340</ele>
        <time>2019-04-18T20:38:49Z</time>
      </trkpt>
      <trkpt lat="46.02401" lon="5.28073">
        <ele>338</ele>
        <time>2019-04-18T20:39:49Z</time>
      </trkpt>
      <trkpt lat="46.02401" lon="5.28263">
        <ele>335</ele>
        <time>2019-04-18T20:40:49Z</time>
      </trkpt>
      <trkpt lat="46.02404" lon="5.28512">
        <ele>327</ele>
        <time>2019-04-18T20:41:49Z</time>
      </trkpt>
      <trkpt lat="46.02415" lon="5.28723">
        <ele>315</ele>
        <time>2019-04-18T20:42:49Z</time>
      </trkpt>
      <trkpt lat="46.02432" lon="5.28774">
        <ele>311</ele>
        <time>2019-04-18T20:43:49Z</time>
      </trkpt>
      <trkpt lat="46.02449" lon="5.28807">
        <ele>308</ele>
        <time>2019-04-18T20:44:49Z</time>
      </trkpt>
      <trkpt lat="46.02498" lon="5.2885">
        <ele>301</ele>
        <time>2019-04-18T20:45:49Z</time>
      </trkpt>
      <trkpt lat="46.02545" lon="5.28883">
        <ele>296</ele>
        <time>2019-04-18T20:46:49Z</time>
      </trkpt>
      <trkpt lat="46.02601" lon="5.2894">
        <ele>292</ele>
        <time>2019-04-18T20:47:49Z</time>
      </trkpt>
      <trkpt lat="46.0283" lon="5.29202">
        <ele>294</ele>
        <time>2019-04-18T20:48:49Z</time>
      </trkpt>
      <trkpt lat="46.02953" lon="5.29365">
        <ele>298</ele>
        <time>2019-04-18T20:49:49Z</time>
      </trkpt>
      <trkpt lat="46.02962" lon="5.29387">
        <ele>298</ele>
        <time>2019-04-18T20:50:49Z</time>
      </trkpt>
      <trkpt lat="46.02967" lon="5.29406">
        <ele>299</ele>
        <time>2019-04-18T20:51:49Z</time>
      </trkpt>
      <trkpt lat="46.02972" lon="5.29588">
        <ele>296</ele>
        <time>2019-04-18T20:52:49Z</time>
      </trkpt>
      <trkpt lat="46.02974" lon="5.29844">
        <ele>294</ele>
        <time>2019-04-18T20:53:49Z</time>
      </trkpt>
      <trkpt lat="46.02971" lon="5.29905">
        <ele>293</ele>
        <time>2019-04-18T20:54:49Z</time>
      </trkpt>
      <trkpt lat="46.0297" lon="5.29982">
        <ele>293</ele>
        <time>2019-04-18T20:55:49Z</time>
      </trkpt>
      <trkpt lat="46.02965" lon="5.30204">
        <ele>289</ele>
        <time>2019-04-18T20:56:49Z</time>
      </trkpt>
      <trkpt lat="46.0296" lon="5.30219">
        <ele>288</ele>
        <time>2019-04-18T20:57:49Z</time>
      </trkpt>
      <trkpt lat="46.02954" lon="5.3023">
        <ele>286</ele>
        <time>2019-04-18T20:58:49Z</time>
      </trkpt>
      <trkpt lat="46.02922" lon="5.30262">
        <ele>280</ele>
        <time>2019-04-18T20:59:49Z</time>
      </trkpt>
      <trkpt lat="46.0291" lon="5.30279">
        <ele>278</ele>
        <time>2019-04-18T21:00:49Z</time>
      </trkpt>
      <trkpt lat="46.02901" lon="5.30295">
        <ele>277</ele>
        <time>2019-04-18T21:01:49Z</time>
      </trkpt>
      <trkpt lat="46.02898" lon="5.30315">
        <ele>275</ele>
        <time>2019-04-18T21:02:49Z</time>
      </trkpt>
      <trkpt lat="46.02899" lon="5.3034">
        <ele>274</ele>
        <time>2019-04-18T21:03:49Z</time>
      </trkpt>
      <trkpt lat="46.02957" lon="5.30642">
        <ele>260</ele>
        <time>2019-04-18T21:04:49Z</time>
      </trkpt>
      <trkpt lat="46.02961" lon="5.30654">
        <ele>259</ele>
        <time>2019-04-18T21:05:49Z</time>
      </trkpt>
      <trkpt lat="46.02968" lon="5.30667">
        <ele>259</ele>
        <time>2019-04-18T21:06:49Z</time>
      </trkpt>
      <trkpt lat="46.02979" lon="5.30684">
        <ele>259</ele>
        <time>2019-04-18T21:07:49Z</time>
      </trkpt>
      <trkpt lat="46.03028" lon="5.30757">
        <ele>260</ele>
        <time>2019-04-18T21:08:49Z</time>
      </trkpt>
      <trkpt lat="46.03061" lon="5.30791">
        <ele>258</ele>
        <time>2019-04-18T21:09:49Z</time>
      </trkpt>
      <trkpt lat="46.03077" lon="5.30805">
        <ele>257</ele>
        <time>2019-04-18T21:10:49Z</time>
      </trkpt>
      <trkpt lat="46.031" lon="5.30819">
        <ele>257</ele>
        <time>2019-04-18T21:11:49Z</time>
      </trkpt>
      <trkpt lat="46.03146" lon="5.30842">
        <ele>259</ele>
        <time>2019-04-18T21:12:49Z</time>
      </trkpt>
      <trkpt lat="46.03208" lon="5.30895">
        <ele>256</ele>
        <time>2019-04-18T21:13:49Z</time>
      </trkpt>
      <trkpt lat="46.03265" lon="5.30932">
        <ele>255</ele>
        <time>2019-04-18T21:14:49Z</time>
      </trkpt>
      <trkpt lat="46.03281" lon="5.30939">
        <ele>255</ele>
        <time>2019-04-18T21:15:49Z</time>
      </trkpt>
      <trkpt lat="46.03333" lon="5.30953">
        <ele>256</ele>
        <time>2019-04-18T21:16:49Z</time>
      </trkpt>
      <trkpt lat="46.03346" lon="5.3096">
        <ele>256</ele>
        <time>2019-04-18T21:17:49Z</time>
      </trkpt>
      <trkpt lat="46.03357" lon="5.30967">
        <ele>255</ele>
        <time>2019-04-18T21:18:49Z</time>
      </trkpt>
      <trkpt lat="46.03387" lon="5.30996">
        <ele>252</ele>
        <time>2019-04-18T21:19:49Z</time>
      </trkpt>
      <trkpt lat="46.0344" lon="5.31032">
        <ele>250</ele>
        <time>2019-04-18T21:20:49Z</time>
      </trkpt>
      <trkpt lat="46.03453" lon="5.31046">
        <ele>249</ele>
        <time>2019-04-18T21:21:49Z</time>
      </trkpt>
      <trkpt lat="46.03457" lon="5.31055">
        <ele>248</ele>
        <time>2019-04-18T21:22:49Z</time>
      </trkpt>
      <trkpt lat="46.03456" lon="5.3106">
        <ele>248</ele>
        <time>2019-04-18T21:23:49Z</time>
      </trkpt>
      <trkpt lat="46.03467" lon="5.3107">
        <ele>247</ele>
        <time>2019-04-18T21:24:49Z</time>
      </trkpt>
      <trkpt lat="46.03512" lon="5.3112">
        <ele>247</ele>
        <time>2019-04-18T21:25:49Z</time>
      </trkpt>
      <trkpt lat="46.03736" lon="5.3139">
        <ele>245</ele>
        <time>2019-04-18T21:26:49Z</time>
      </trkpt>
      <trkpt lat="46.03973" lon="5.31679">
        <ele>241</ele>
        <time>2019-04-18T21:27:49Z</time>
      </trkpt>
      <trkpt lat="46.03983" lon="5.31685">
        <ele>241</ele>
        <time>2019-04-18T21:28:49Z</time>
      </trkpt>
      <trkpt lat="46.04037" lon="5.31701">
        <ele>242</ele>
        <time>2019-04-18T21:29:49Z</time>
      </trkpt>
      <trkpt lat="46.04377" lon="5.31813">
        <ele>245</ele>
        <time>2019-04-18T21:30:49Z</time>
      </trkpt>
      <trkpt lat="46.04556" lon="5.31869">
        <ele>248</ele>
        <time>2019-04-18T21:31:49Z</time>
      </trkpt>
      <trkpt lat="46.04602" lon="5.31885">
        <ele>249</ele>
        <time>2019-04-18T21:32:49Z</time>
      </trkpt>
      <trkpt lat="46.04619" lon="5.31899">
        <ele>249</ele>
        <time>2019-04-18T21:33:49Z</time>
      </trkpt>
      <trkpt lat="46.04632" lon="5.31917">
        <ele>249</ele>
        <time>2019-04-18T21:34:49Z</time>
      </trkpt>
      <trkpt lat="46.04705" lon="5.32061">
        <ele>249</ele>
        <time>2019-04-18T21:35:49Z</time>
      </trkpt>
      <trkpt lat="46.04728" lon="5.32091">
        <ele>248</ele>
        <time>2019-04-18T21:36:49Z</time>
      </trkpt>
      <trkpt lat="46.04754" lon="5.32113">
        <ele>248</ele>
        <time>2019-04-18T21:37:49Z</time>
      </trkpt>
      <trkpt lat="46.04777" lon="5.32119">
        <ele>247</ele>
        <time>2019-04-18T21:38:49Z</time>
      </trkpt>
      <trkpt lat="46.04797" lon="5.3212">
        <ele>247</ele>
        <time>2019-04-18T21:39:49Z</time>
      </trkpt>
      <trkpt lat="46.0481" lon="5.32123">
        <ele>247</ele>
        <time>2019-04-18T21:40:49Z</time>
      </trkpt>
      <trkpt lat="46.04849" lon="5.32148">
        <ele>246</ele>
        <time>2019-04-18T21:41:49Z</time>
      </trkpt>
      <trkpt lat="46.04864" lon="5.3216">
        <ele>246</ele>
        <time>2019-04-18T21:42:49Z</time>
      </trkpt>
      <trkpt lat="46.04877" lon="5.32173">
        <ele>245</ele>
        <time>2019-04-18T21:43:49Z</time>
      </trkpt>
      <trkpt lat="46.04887" lon="5.32185">
        <ele>245</ele>
        <time>2019-04-18T21:44:49Z</time>
      </trkpt>
      <trkpt lat="46.04901" lon="5.32217">
        <ele>243</ele>
        <time>2019-04-18T21:45:49Z</time>
      </trkpt>
      <trkpt lat="46.04907" lon="5.32241">
        <ele>242</ele>
        <time>2019-04-18T21:46:49Z</time>
      </trkpt>
      <trkpt lat="46.04911" lon="5.3228">
        <ele>239</ele>
        <time>2019-04-18T21:47:49Z</time>
      </trkpt>
      <trkpt lat="46.04918" lon="5.32641">
        <ele>239</ele>
        <time>2019-04-18T21:48:49Z</time>
      </trkpt>
      <trkpt lat="46.04921" lon="5.32704">
        <ele>239</ele>
        <time>2019-04-18T21:49:49Z</time>
      </trkpt>
      <trkpt lat="46.04926" lon="5.32734">
        <ele>239</ele>
        <time>2019-04-18T21:50:49Z</time>
      </trkpt>
      <trkpt lat="46.04932" lon="5.3276">
        <ele>239</ele>
        <time>2019-04-18T21:51:49Z</time>
      </trkpt>
      <trkpt lat="46.04948" lon="5.32808">
        <ele>239</ele>
        <time>2019-04-18T21:52:49Z</time>
      </trkpt>
      <trkpt lat="46.04953" lon="5.32831">
        <ele>238</ele>
        <time>2019-04-18T21:53:49Z</time>
      </trkpt>
      <trkpt lat="46.04953" lon="5.32851">
        <ele>238</ele>
        <time>2019-04-18T21:54:49Z</time>
      </trkpt>
      <trkpt lat="46.04948" lon="5.32855">
        <ele>238</ele>
        <time>2019-04-18T21:55:49Z</time>
      </trkpt>
      <trkpt lat="46.04945" lon="5.32861">
        <ele>238</ele>
        <time>2019-04-18T21:56:49Z</time>
      </trkpt>
      <trkpt lat="46.04943" lon="5.32868">
        <ele>238</ele>
        <time>2019-04-18T21:57:49Z</time>
      </trkpt>
      <trkpt lat="46.04943" lon="5.32876">
        <ele>238</ele>
        <time>2019-04-18T21:58:49Z</time>
      </trkpt>
      <trkpt lat="46.04948" lon="5.3289">
        <ele>238</ele>
        <time>2019-04-18T21:59:49Z</time>
      </trkpt>
      <trkpt lat="46.04952" lon="5.32895">
        <ele>238</ele>
        <time>2019-04-18T22:00:49Z</time>
      </trkpt>
      <trkpt lat="46.04958" lon="5.32897">
        <ele>238</ele>
        <time>2019-04-18T22:01:49Z</time>
      </trkpt>
      <trkpt lat="46.04964" lon="5.32905">
        <ele>238</ele>
        <time>2019-04-18T22:02:49Z</time>
      </trkpt>
      <trkpt lat="46.04976" lon="5.32939">
        <ele>238</ele>
        <time>2019-04-18T22:03:49Z</time>
      </trkpt>
      <trkpt lat="46.04979" lon="5.32967">
        <ele>238</ele>
        <time>2019-04-18T22:04:49Z</time>
      </trkpt>
      <trkpt lat="46.04977" lon="5.32995">
        <ele>239</ele>
        <time>2019-04-18T22:05:49Z</time>
      </trkpt>
      <trkpt lat="46.04935" lon="5.33364">
        <ele>240</ele>
        <time>2019-04-18T22:06:49Z</time>
      </trkpt>
      <trkpt lat="46.04908" lon="5.33579">
        <ele>244</ele>
        <time>2019-04-18T22:07:49Z</time>
      </trkpt>
      <trkpt lat="46.04903" lon="5.33664">
        <ele>248</ele>
        <time>2019-04-18T22:08:49Z</time>
      </trkpt>
      <trkpt lat="46.04904" lon="5.33688">
        <ele>249</ele>
        <time>2019-04-18T22:09:49Z</time>
      </trkpt>
      <trkpt lat="46.04912" lon="5.33745">
        <ele>250</ele>
        <time>2019-04-18T22:10:49Z</time>
      </trkpt>
      <trkpt lat="46.04927" lon="5.33815">
        <ele>250</ele>
        <time>2019-04-18T22:11:49Z</time>
      </trkpt>
      <trkpt lat="46.04936" lon="5.33881">
        <ele>252</ele>
        <time>2019-04-18T22:12:49Z</time>
      </trkpt>
      <trkpt lat="46.0494" lon="5.33989">
        <ele>250</ele>
        <time>2019-04-18T22:13:49Z</time>
      </trkpt>
      <trkpt lat="46.04958" lon="5.34089">
        <ele>247</ele>
        <time>2019-04-18T22:14:49Z</time>
      </trkpt>
      <trkpt lat="46.0497" lon="5.34142">
        <ele>248</ele>
        <time>2019-04-18T22:15:49Z</time>
      </trkpt>
      <trkpt lat="46.04995" lon="5.34217">
        <ele>249</ele>
        <time>2019-04-18T22:16:49Z</time>
      </trkpt>
      <trkpt lat="46.05071" lon="5.34376">
        <ele>250</ele>
        <time>2019-04-18T22:17:49Z</time>
      </trkpt>
      <trkpt lat="46.05083" lon="5.34396">
        <ele>250</ele>
        <time>2019-04-18T22:18:49Z</time>
      </trkpt>
      <trkpt lat="46.05099" lon="5.34458">
        <ele>248</ele>
        <time>2019-04-18T22:19:49Z</time>
      </trkpt>
      <trkpt lat="46.05109" lon="5.34482">
        <ele>248</ele>
        <time>2019-04-18T22:20:49Z</time>
      </trkpt>
      <trkpt lat="46.05127" lon="5.34513">
        <ele>249</ele>
        <time>2019-04-18T22:21:49Z</time>
      </trkpt>
      <trkpt lat="46.05141" lon="5.34532">
        <ele>249</ele>
        <time>2019-04-18T22:22:49Z</time>
      </trkpt>
      <trkpt lat="46.05236" lon="5.34624">
        <ele>248</ele>
        <time>2019-04-18T22:23:49Z</time>
      </trkpt>
      <trkpt lat="46.05292" lon="5.34686">
        <ele>247</ele>
        <time>2019-04-18T22:24:49Z</time>
      </trkpt>
      <trkpt lat="46.05297" lon="5.3469">
        <ele>247</ele>
        <time>2019-04-18T22:25:49Z</time>
      </trkpt>
      <trkpt lat="46.0531" lon="5.34695">
        <ele>248</ele>
        <time>2019-04-18T22:26:49Z</time>
      </trkpt>
      <trkpt lat="46.0534" lon="5.34705">
        <ele>251</ele>
        <time>2019-04-18T22:27:49Z</time>
      </trkpt>
      <trkpt lat="46.05349" lon="5.34717">
        <ele>252</ele>
        <time>2019-04-18T22:28:49Z</time>
      </trkpt>
      <trkpt lat="46.05362" lon="5.3474">
        <ele>255</ele>
        <time>2019-04-18T22:29:49Z</time>
      </trkpt>
      <trkpt lat="46.05408" lon="5.34882">
        <ele>255</ele>
        <time>2019-04-18T22:30:49Z</time>
      </trkpt>
      <trkpt lat="46.05462" lon="5.35021">
        <ele>259</ele>
        <time>2019-04-18T22:31:49Z</time>
      </trkpt>
      <trkpt lat="46.0548" lon="5.35092">
        <ele>257</ele>
        <time>2019-04-18T22:32:49Z</time>
      </trkpt>
      <trkpt lat="46.05492" lon="5.35152">
        <ele>256</ele>
        <time>2019-04-18T22:33:49Z</time>
      </trkpt>
      <trkpt lat="46.0551" lon="5.35268">
        <ele>252</ele>
        <time>2019-04-18T22:34:49Z</time>
      </trkpt>
      <trkpt lat="46.05512" lon="5.35308">
        <ele>252</ele>
        <time>2019-04-18T22:35:49Z</time>
      </trkpt>
      <trkpt lat="46.05533" lon="5.36109">
        <ele>254</ele>
        <time>2019-04-18T22:36:49Z</time>
      </trkpt>
      <trkpt lat="46.05535" lon="5.36153">
        <ele>253</ele>
        <time>2019-04-18T22:37:49Z</time>
      </trkpt>
      <trkpt lat="46.05544" lon="5.36203">
        <ele>253</ele>
        <time>2019-04-18T22:38:49Z</time>
      </trkpt>
      <trkpt lat="46.05563" lon="5.3626">
        <ele>254</ele>
        <time>2019-04-18T22:39:49Z</time>
      </trkpt>
      <trkpt lat="46.0569" lon="5.36595">
        <ele>255</ele>
        <time>2019-04-18T22:40:49Z</time>
      </trkpt>
      <trkpt lat="46.05702" lon="5.36633">
        <ele>255</ele>
        <time>2019-04-18T22:41:49Z</time>
      </trkpt>
      <trkpt lat="46.05747" lon="5.36737">
        <ele>253</ele>
        <time>2019-04-18T22:42:49Z</time>
      </trkpt>
      <trkpt lat="46.05762" lon="5.36756">
        <ele>252</ele>
        <time>2019-04-18T22:43:49Z</time>
      </trkpt>
      <trkpt lat="46.05788" lon="5.3678">
        <ele>251</ele>
        <time>2019-04-18T22:44:49Z</time>
      </trkpt>
      <trkpt lat="46.06109" lon="5.36952">
        <ele>248</ele>
        <time>2019-04-18T22:45:49Z</time>
      </trkpt>
      <trkpt lat="46.06539" lon="5.37178">
        <ele>249</ele>
        <time>2019-04-18T22:46:49Z</time>
      </trkpt>
      <trkpt lat="46.06958" lon="5.37403">
        <ele>250</ele>
        <time>2019-04-18T22:47:49Z</time>
      </trkpt>
      <trkpt lat="46.0716" lon="5.37506">
        <ele>252</ele>
        <time>2019-04-18T22:48:49Z</time>
      </trkpt>
      <trkpt lat="46.07368" lon="5.37617">
        <ele>256</ele>
        <time>2019-04-18T22:49:49Z</time>
      </trkpt>
      <trkpt lat="46.07412" lon="5.37628">
        <ele>258</ele>
        <time>2019-04-18T22:50:49Z</time>
      </trkpt>
      <trkpt lat="46.07456" lon="5.37634">
        <ele>259</ele>
        <time>2019-04-18T22:51:49Z</time>
      </trkpt>
      <trkpt lat="46.07771" lon="5.37664">
        <ele>257</ele>
        <time>2019-04-18T22:52:49Z</time>
      </trkpt>
      <trkpt lat="46.07812" lon="5.37666">
        <ele>256</ele>
        <time>2019-04-18T22:53:49Z</time>
      </trkpt>
      <trkpt lat="46.07912" lon="5.37647">
        <ele>252</ele>
        <time>2019-04-18T22:54:49Z</time>
      </trkpt>
      <trkpt lat="46.07935" lon="5.37867">
        <ele>253</ele>
        <time>2019-04-18T22:55:49Z</time>
      </trkpt>
      <trkpt lat="46.0797" lon="5.38254">
        <ele>254</ele>
        <time>2019-04-18T22:56:49Z</time>
      </trkpt>
      <trkpt lat="46.07966" lon="5.38289">
        <ele>255</ele>
        <time>2019-04-18T22:57:49Z</time>
      </trkpt>
      <trkpt lat="46.07946" lon="5.38341">
        <ele>258</ele>
        <time>2019-04-18T22:58:49Z</time>
      </trkpt>
      <trkpt lat="46.07971" lon="5.38358">
        <ele>260</ele>
        <time>2019-04-18T22:59:49Z</time>
      </trkpt>
      <trkpt lat="46.08037" lon="5.38409">
        <ele>262</ele>
        <time>2019-04-18T23:00:49Z</time>
      </trkpt>
      <trkpt lat="46.08058" lon="5.38431">
        <ele>266</ele>
        <time>2019-04-18T23:01:49Z</time>
      </trkpt>
      <trkpt lat="46.08082" lon="5.38444">
        <ele>267</ele>
        <time>2019-04-18T23:02:49Z</time>
      </trkpt>
      <trkpt lat="46.08128" lon="5.3849">
        <ele>269</ele>
        <time>2019-04-18T23:03:49Z</time>
      </trkpt>
      <trkpt lat="46.0817" lon="5.38547">
        <ele>271</ele>
        <time>2019-04-18T23:04:49Z</time>
      </trkpt>
      <trkpt lat="46.08218" lon="5.38631">
        <ele>274</ele>
        <time>2019-04-18T23:05:49Z</time>
      </trkpt>
      <trkpt lat="46.08263" lon="5.38781">
        <ele>276</ele>
        <time>2019-04-18T23:06:49Z</time>
      </trkpt>
      <trkpt lat="46.08327" lon="5.3904">
        <ele>274</ele>
        <time>2019-04-18T23:07:49Z</time>
      </trkpt>
      <trkpt lat="46.08354" lon="5.39199">
        <ele>289</ele>
        <time>2019-04-18T23:08:49Z</time>
      </trkpt>
      <trkpt lat="46.08384" lon="5.39298">
        <ele>278</ele>
        <time>2019-04-18T23:09:49Z</time>
      </trkpt>
      <trkpt lat="46.08411" lon="5.39402">
        <ele>270</ele>
        <time>2019-04-18T23:10:49Z</time>
      </trkpt>
      <trkpt lat="46.08422" lon="5.39474">
        <ele>269</ele>
        <time>2019-04-18T23:11:49Z</time>
      </trkpt>
      <trkpt lat="46.08436" lon="5.39638">
        <ele>265</ele>
        <time>2019-04-18T23:12:49Z</time>
      </trkpt>
      <trkpt lat="46.08435" lon="5.39762">
        <ele>271</ele>
        <time>2019-04-18T23:13:49Z</time>
      </trkpt>
      <trkpt lat="46.08432" lon="5.39829">
        <ele>273</ele>
        <time>2019-04-18T23:14:49Z</time>
      </trkpt>
      <trkpt lat="46.08426" lon="5.39906">
        <ele>272</ele>
        <time>2019-04-18T23:15:49Z</time>
      </trkpt>
      <trkpt lat="46.08413" lon="5.40014">
        <ele>269</ele>
        <time>2019-04-18T23:16:49Z</time>
      </trkpt>
      <trkpt lat="46.08406" lon="5.40059">
        <ele>266</ele>
        <time>2019-04-18T23:17:49Z</time>
      </trkpt>
      <trkpt lat="46.0827" lon="5.40677">
        <ele>267</ele>
        <time>2019-04-18T23:18:49Z</time>
      </trkpt>
      <trkpt lat="46.08444" lon="5.40703">
        <ele>258</ele>
        <time>2019-04-18T23:19:49Z</time>
      </trkpt>
      <trkpt lat="46.08471" lon="5.40704">
        <ele>259</ele>
        <time>2019-04-18T23:20:49Z</time>
      </trkpt>
      <trkpt lat="46.0848" lon="5.407">
        <ele>259</ele>
        <time>2019-04-18T23:21:49Z</time>
      </trkpt>
      <trkpt lat="46.08484" lon="5.40659">
        <ele>258</ele>
        <time>2019-04-18T23:22:49Z</time>
      </trkpt>
      <trkpt lat="46.08487" lon="5.40648">
        <ele>258</ele>
        <time>2019-04-18T23:23:49Z</time>
      </trkpt>
      <trkpt lat="46.08496" lon="5.40639">
        <ele>258</ele>
        <time>2019-04-18T23:24:49Z</time>
      </trkpt>
      <trkpt lat="46.08542" lon="5.40633">
        <ele>260</ele>
        <time>2019-04-18T23:25:49Z</time>
      </trkpt>
      <trkpt lat="46.08645" lon="5.40641">
        <ele>263</ele>
        <time>2019-04-18T23:26:49Z</time>
      </trkpt>
      <trkpt lat="46.08651" lon="5.40644">
        <ele>263</ele>
        <time>2019-04-18T23:27:49Z</time>
      </trkpt>
      <trkpt lat="46.08656" lon="5.40662">
        <ele>264</ele>
        <time>2019-04-18T23:28:49Z</time>
      </trkpt>
      <trkpt lat="46.08662" lon="5.40673">
        <ele>264</ele>
        <time>2019-04-18T23:29:49Z</time>
      </trkpt>
      <trkpt lat="46.08725" lon="5.40695">
        <ele>263</ele>
        <time>2019-04-18T23:30:49Z</time>
      </trkpt>
      <trkpt lat="46.08754" lon="5.40705">
        <ele>263</ele>
        <time>2019-04-18T23:31:49Z</time>
      </trkpt>
      <trkpt lat="46.08853" lon="5.40719">
        <ele>263</ele>
        <time>2019-04-18T23:32:49Z</time>
      </trkpt>
      <trkpt lat="46.08882" lon="5.40721">
        <ele>264</ele>
        <time>2019-04-18T23:33:49Z</time>
      </trkpt>
      <trkpt lat="46.08902" lon="5.40709">
        <ele>263</ele>
        <time>2019-04-18T23:34:49Z</time>
      </trkpt>
      <trkpt lat="46.08959" lon="5.40468">
        <ele>257</ele>
        <time>2019-04-18T23:35:49Z</time>
      </trkpt>
    </trkseg>
  </trk>
  <trk>
    <name><![CDATA[J6]]></name>
    <trkseg>
      <trkpt lat="46.08963" lon="5.40578">
        <ele>256</ele>
        <time>2019-04-17T10:08:24Z</time>
      </trkpt>
      <trkpt lat="46.08934" lon="5.40571">
        <ele>257</ele>
        <time>2019-04-17T10:09:24Z</time>
      </trkpt>
      <trkpt lat="46.08902" lon="5.40709">
        <ele>263</ele>
        <time>2019-04-17T10:10:24Z</time>
      </trkpt>
      <trkpt lat="46.08909" lon="5.4072">
        <ele>264</ele>
        <time>2019-04-17T10:11:24Z</time>
      </trkpt>
      <trkpt lat="46.08918" lon="5.40725">
        <ele>264</ele>
        <time>2019-04-17T10:12:24Z</time>
      </trkpt>
      <trkpt lat="46.08927" lon="5.40727">
        <ele>264</ele>
        <time>2019-04-17T10:13:24Z</time>
      </trkpt>
      <trkpt lat="46.09038" lon="5.4072">
        <ele>265</ele>
        <time>2019-04-17T10:14:24Z</time>
      </trkpt>
      <trkpt lat="46.09165" lon="5.40721">
        <ele>271</ele>
        <time>2019-04-17T10:15:24Z</time>
      </trkpt>
      <trkpt lat="46.09208" lon="5.40717">
        <ele>271</ele>
        <time>2019-04-17T10:16:24Z</time>
      </trkpt>
      <trkpt lat="46.09277" lon="5.407">
        <ele>268</ele>
        <time>2019-04-17T10:17:24Z</time>
      </trkpt>
      <trkpt lat="46.09296" lon="5.40703">
        <ele>269</ele>
        <time>2019-04-17T10:18:24Z</time>
      </trkpt>
      <trkpt lat="46.09347" lon="5.40725">
        <ele>274</ele>
        <time>2019-04-17T10:19:24Z</time>
      </trkpt>
      <trkpt lat="46.09379" lon="5.40746">
        <ele>274</ele>
        <time>2019-04-17T10:20:24Z</time>
      </trkpt>
      <trkpt lat="46.09472" lon="5.4083">
        <ele>277</ele>
        <time>2019-04-17T10:21:24Z</time>
      </trkpt>
      <trkpt lat="46.09557" lon="5.40876">
        <ele>273</ele>
        <time>2019-04-17T10:22:24Z</time>
      </trkpt>
      <trkpt lat="46.09647" lon="5.40893">
        <ele>268</ele>
        <time>2019-04-17T10:23:24Z</time>
      </trkpt>
      <trkpt lat="46.09756" lon="5.40892">
        <ele>263</ele>
        <time>2019-04-17T10:24:24Z</time>
      </trkpt>
      <trkpt lat="46.09835" lon="5.4088">
        <ele>260</ele>
        <time>2019-04-17T10:25:24Z</time>
      </trkpt>
      <trkpt lat="46.09853" lon="5.40882">
        <ele>260</ele>
        <time>2019-04-17T10:26:24Z</time>
      </trkpt>
      <trkpt lat="46.09919" lon="5.40924">
        <ele>262</ele>
        <time>2019-04-17T10:27:24Z</time>
      </trkpt>
      <trkpt lat="46.10006" lon="5.40989">
        <ele>265</ele>
        <time>2019-04-17T10:28:24Z</time>
      </trkpt>
      <trkpt lat="46.10039" lon="5.41026">
        <ele>264</ele>
        <time>2019-04-17T10:29:24Z</time>
      </trkpt>
      <trkpt lat="46.10069" lon="5.41074">
        <ele>264</ele>
        <time>2019-04-17T10:30:24Z</time>
      </trkpt>
      <trkpt lat="46.10133" lon="5.41204">
        <ele>267</ele>
        <time>2019-04-17T10:31:24Z</time>
      </trkpt>
      <trkpt lat="46.10174" lon="5.41259">
        <ele>268</ele>
        <time>2019-04-17T10:32:24Z</time>
      </trkpt>
      <trkpt lat="46.10243" lon="5.41343">
        <ele>269</ele>
        <time>2019-04-17T10:33:24Z</time>
      </trkpt>
      <trkpt lat="46.10294" lon="5.41399">
        <ele>269</ele>
        <time>2019-04-17T10:34:24Z</time>
      </trkpt>
      <trkpt lat="46.10425" lon="5.41534">
        <ele>271</ele>
        <time>2019-04-17T10:35:24Z</time>
      </trkpt>
      <trkpt lat="46.10466" lon="5.41581">
        <ele>272</ele>
        <time>2019-04-17T10:36:24Z</time>
      </trkpt>
      <trkpt lat="46.10553" lon="5.41702">
        <ele>272</ele>
        <time>2019-04-17T10:37:24Z</time>
      </trkpt>
      <trkpt lat="46.10592" lon="5.41763">
        <ele>269</ele>
        <time>2019-04-17T10:38:24Z</time>
      </trkpt>
      <trkpt lat="46.10596" lon="5.41798">
        <ele>273</ele>
        <time>2019-04-17T10:39:24Z</time>
      </trkpt>
      <trkpt lat="46.10599" lon="5.41847">
        <ele>278</ele>
        <time>2019-04-17T10:40:24Z</time>
      </trkpt>
      <trkpt lat="46.10604" lon="5.41887">
        <ele>282</ele>
        <time>2019-04-17T10:41:24Z</time>
      </trkpt>
      <trkpt lat="46.1066" lon="5.42016">
        <ele>287</ele>
        <time>2019-04-17T10:42:24Z</time>
      </trkpt>
      <trkpt lat="46.10725" lon="5.42081">
        <ele>283</ele>
        <time>2019-04-17T10:43:24Z</time>
      </trkpt>
      <trkpt lat="46.10757" lon="5.4212">
        <ele>282</ele>
        <time>2019-04-17T10:44:24Z</time>
      </trkpt>
      <trkpt lat="46.10802" lon="5.42147">
        <ele>282</ele>
        <time>2019-04-17T10:45:24Z</time>
      </trkpt>
      <trkpt lat="46.10983" lon="5.42269">
        <ele>284</ele>
        <time>2019-04-17T10:46:24Z</time>
      </trkpt>
      <trkpt lat="46.11141" lon="5.42369">
        <ele>287</ele>
        <time>2019-04-17T10:47:24Z</time>
      </trkpt>
      <trkpt lat="46.11173" lon="5.42379">
        <ele>287</ele>
        <time>2019-04-17T10:48:24Z</time>
      </trkpt>
      <trkpt lat="46.11253" lon="5.42383">
        <ele>289</ele>
        <time>2019-04-17T10:49:24Z</time>
      </trkpt>
      <trkpt lat="46.11315" lon="5.4239">
        <ele>288</ele>
        <time>2019-04-17T10:50:24Z</time>
      </trkpt>
      <trkpt lat="46.11346" lon="5.42392">
        <ele>287</ele>
        <time>2019-04-17T10:51:24Z</time>
      </trkpt>
      <trkpt lat="46.11422" lon="5.42386">
        <ele>283</ele>
        <time>2019-04-17T10:52:24Z</time>
      </trkpt>
      <trkpt lat="46.11448" lon="5.42389">
        <ele>279</ele>
        <time>2019-04-17T10:53:24Z</time>
      </trkpt>
      <trkpt lat="46.11555" lon="5.42442">
        <ele>278</ele>
        <time>2019-04-17T10:54:24Z</time>
      </trkpt>
      <trkpt lat="46.1159" lon="5.4245">
        <ele>278</ele>
        <time>2019-04-17T10:55:24Z</time>
      </trkpt>
      <trkpt lat="46.11635" lon="5.42455">
        <ele>278</ele>
        <time>2019-04-17T10:56:24Z</time>
      </trkpt>
      <trkpt lat="46.11766" lon="5.42445">
        <ele>283</ele>
        <time>2019-04-17T10:57:24Z</time>
      </trkpt>
      <trkpt lat="46.11798" lon="5.42434">
        <ele>283</ele>
        <time>2019-04-17T10:58:24Z</time>
      </trkpt>
      <trkpt lat="46.11828" lon="5.42417">
        <ele>280</ele>
        <time>2019-04-17T10:59:24Z</time>
      </trkpt>
      <trkpt lat="46.11877" lon="5.42376">
        <ele>279</ele>
        <time>2019-04-17T11:00:24Z</time>
      </trkpt>
      <trkpt lat="46.11969" lon="5.42321">
        <ele>275</ele>
        <time>2019-04-17T11:01:24Z</time>
      </trkpt>
      <trkpt lat="46.11997" lon="5.42315">
        <ele>275</ele>
        <time>2019-04-17T11:02:24Z</time>
      </trkpt>
      <trkpt lat="46.12029" lon="5.42318">
        <ele>275</ele>
        <time>2019-04-17T11:03:24Z</time>
      </trkpt>
      <trkpt lat="46.12053" lon="5.42326">
        <ele>275</ele>
        <time>2019-04-17T11:04:24Z</time>
      </trkpt>
      <trkpt lat="46.12085" lon="5.42346">
        <ele>275</ele>
        <time>2019-04-17T11:05:24Z</time>
      </trkpt>
      <trkpt lat="46.12111" lon="5.4238">
        <ele>276</ele>
        <time>2019-04-17T11:06:24Z</time>
      </trkpt>
      <trkpt lat="46.12126" lon="5.42408">
        <ele>276</ele>
        <time>2019-04-17T11:07:24Z</time>
      </trkpt>
      <trkpt lat="46.12137" lon="5.42437">
        <ele>276</ele>
        <time>2019-04-17T11:08:24Z</time>
      </trkpt>
      <trkpt lat="46.12144" lon="5.42466">
        <ele>277</ele>
        <time>2019-04-17T11:09:24Z</time>
      </trkpt>
      <trkpt lat="46.12153" lon="5.42522">
        <ele>280</ele>
        <time>2019-04-17T11:10:24Z</time>
      </trkpt>
      <trkpt lat="46.12157" lon="5.42599">
        <ele>284</ele>
        <time>2019-04-17T11:11:24Z</time>
      </trkpt>
      <trkpt lat="46.12151" lon="5.42682">
        <ele>288</ele>
        <time>2019-04-17T11:12:24Z</time>
      </trkpt>
      <trkpt lat="46.12134" lon="5.42764">
        <ele>289</ele>
        <time>2019-04-17T11:13:24Z</time>
      </trkpt>
      <trkpt lat="46.12067" lon="5.42886">
        <ele>290</ele>
        <time>2019-04-17T11:14:24Z</time>
      </trkpt>
      <trkpt lat="46.12056" lon="5.42933">
        <ele>288</ele>
        <time>2019-04-17T11:15:24Z</time>
      </trkpt>
      <trkpt lat="46.12056" lon="5.42964">
        <ele>287</ele>
        <time>2019-04-17T11:16:24Z</time>
      </trkpt>
      <trkpt lat="46.12083" lon="5.43063">
        <ele>277</ele>
        <time>2019-04-17T11:17:24Z</time>
      </trkpt>
      <trkpt lat="46.12122" lon="5.43177">
        <ele>281</ele>
        <time>2019-04-17T11:18:24Z</time>
      </trkpt>
      <trkpt lat="46.12149" lon="5.43294">
        <ele>284</ele>
        <time>2019-04-17T11:19:24Z</time>
      </trkpt>
      <trkpt lat="46.12164" lon="5.43349">
        <ele>284</ele>
        <time>2019-04-17T11:20:24Z</time>
      </trkpt>
      <trkpt lat="46.12177" lon="5.43376">
        <ele>286</ele>
        <time>2019-04-17T11:21:24Z</time>
      </trkpt>
      <trkpt lat="46.12189" lon="5.43385">
        <ele>286</ele>
        <time>2019-04-17T11:22:24Z</time>
      </trkpt>
      <trkpt lat="46.12228" lon="5.43407">
        <ele>280</ele>
        <time>2019-04-17T11:23:24Z</time>
      </trkpt>
      <trkpt lat="46.12276" lon="5.43455">
        <ele>277</ele>
        <time>2019-04-17T11:24:24Z</time>
      </trkpt>
      <trkpt lat="46.12304" lon="5.43512">
        <ele>277</ele>
        <time>2019-04-17T11:25:24Z</time>
      </trkpt>
      <trkpt lat="46.12332" lon="5.43602">
        <ele>280</ele>
        <time>2019-04-17T11:26:24Z</time>
      </trkpt>
      <trkpt lat="46.12347" lon="5.43623">
        <ele>282</ele>
        <time>2019-04-17T11:27:24Z</time>
      </trkpt>
      <trkpt lat="46.12441" lon="5.43699">
        <ele>284</ele>
        <time>2019-04-17T11:28:24Z</time>
      </trkpt>
      <trkpt lat="46.12476" lon="5.43706">
        <ele>281</ele>
        <time>2019-04-17T11:29:24Z</time>
      </trkpt>
      <trkpt lat="46.12667" lon="5.43811">
        <ele>290</ele>
        <time>2019-04-17T11:30:24Z</time>
      </trkpt>
      <trkpt lat="46.12706" lon="5.43822">
        <ele>291</ele>
        <time>2019-04-17T11:31:24Z</time>
      </trkpt>
      <trkpt lat="46.1278" lon="5.43834">
        <ele>291</ele>
        <time>2019-04-17T11:32:24Z</time>
      </trkpt>
      <trkpt lat="46.1283" lon="5.43835">
        <ele>290</ele>
        <time>2019-04-17T11:33:24Z</time>
      </trkpt>
      <trkpt lat="46.12843" lon="5.43837">
        <ele>290</ele>
        <time>2019-04-17T11:34:24Z</time>
      </trkpt>
      <trkpt lat="46.12851" lon="5.43843">
        <ele>291</ele>
        <time>2019-04-17T11:35:24Z</time>
      </trkpt>
      <trkpt lat="46.12871" lon="5.43863">
        <ele>295</ele>
        <time>2019-04-17T11:36:24Z</time>
      </trkpt>
      <trkpt lat="46.12883" lon="5.43871">
        <ele>295</ele>
        <time>2019-04-17T11:37:24Z</time>
      </trkpt>
      <trkpt lat="46.12901" lon="5.43879">
        <ele>293</ele>
        <time>2019-04-17T11:38:24Z</time>
      </trkpt>
      <trkpt lat="46.12924" lon="5.43883">
        <ele>292</ele>
        <time>2019-04-17T11:39:24Z</time>
      </trkpt>
      <trkpt lat="46.12937" lon="5.4388">
        <ele>293</ele>
        <time>2019-04-17T11:40:24Z</time>
      </trkpt>
      <trkpt lat="46.12948" lon="5.43873">
        <ele>294</ele>
        <time>2019-04-17T11:41:24Z</time>
      </trkpt>
      <trkpt lat="46.12955" lon="5.43862">
        <ele>294</ele>
        <time>2019-04-17T11:42:24Z</time>
      </trkpt>
      <trkpt lat="46.12966" lon="5.43819">
        <ele>291</ele>
        <time>2019-04-17T11:43:24Z</time>
      </trkpt>
      <trkpt lat="46.12973" lon="5.43808">
        <ele>291</ele>
        <time>2019-04-17T11:44:24Z</time>
      </trkpt>
      <trkpt lat="46.13018" lon="5.43776">
        <ele>295</ele>
        <time>2019-04-17T11:45:24Z</time>
      </trkpt>
      <trkpt lat="46.13044" lon="5.43763">
        <ele>297</ele>
        <time>2019-04-17T11:46:24Z</time>
      </trkpt>
      <trkpt lat="46.13076" lon="5.43754">
        <ele>299</ele>
        <time>2019-04-17T11:47:24Z</time>
      </trkpt>
      <trkpt lat="46.13178" lon="5.43746">
        <ele>306</ele>
        <time>2019-04-17T11:48:24Z</time>
      </trkpt>
      <trkpt lat="46.13223" lon="5.43748">
        <ele>312</ele>
        <time>2019-04-17T11:49:24Z</time>
      </trkpt>
      <trkpt lat="46.13243" lon="5.4375">
        <ele>315</ele>
        <time>2019-04-17T11:50:24Z</time>
      </trkpt>
      <trkpt lat="46.13251" lon="5.43749">
        <ele>316</ele>
        <time>2019-04-17T11:51:24Z</time>
      </trkpt>
      <trkpt lat="46.13258" lon="5.43745">
        <ele>317</ele>
        <time>2019-04-17T11:52:24Z</time>
      </trkpt>
      <trkpt lat="46.13262" lon="5.43739">
        <ele>318</ele>
        <time>2019-04-17T11:53:24Z</time>
      </trkpt>
      <trkpt lat="46.13263" lon="5.4373">
        <ele>318</ele>
        <time>2019-04-17T11:54:24Z</time>
      </trkpt>
      <trkpt lat="46.13261" lon="5.43718">
        <ele>318</ele>
        <time>2019-04-17T11:55:24Z</time>
      </trkpt>
      <trkpt lat="46.13236" lon="5.43661">
        <ele>313</ele>
        <time>2019-04-17T11:56:24Z</time>
      </trkpt>
      <trkpt lat="46.13231" lon="5.43645">
        <ele>312</ele>
        <time>2019-04-17T11:57:24Z</time>
      </trkpt>
      <trkpt lat="46.13229" lon="5.4363">
        <ele>312</ele>
        <time>2019-04-17T11:58:24Z</time>
      </trkpt>
      <trkpt lat="46.13233" lon="5.43609">
        <ele>313</ele>
        <time>2019-04-17T11:59:24Z</time>
      </trkpt>
      <trkpt lat="46.13239" lon="5.43584">
        <ele>314</ele>
        <time>2019-04-17T12:00:24Z</time>
      </trkpt>
      <trkpt lat="46.13245" lon="5.43573">
        <ele>315</ele>
        <time>2019-04-17T12:01:24Z</time>
      </trkpt>
      <trkpt lat="46.13304" lon="5.43504">
        <ele>317</ele>
        <time>2019-04-17T12:02:24Z</time>
      </trkpt>
      <trkpt lat="46.13317" lon="5.43492">
        <ele>317</ele>
        <time>2019-04-17T12:03:24Z</time>
      </trkpt>
      <trkpt lat="46.13349" lon="5.43477">
        <ele>317</ele>
        <time>2019-04-17T12:04:24Z</time>
      </trkpt>
      <trkpt lat="46.13427" lon="5.4345">
        <ele>317</ele>
        <time>2019-04-17T12:05:24Z</time>
      </trkpt>
      <trkpt lat="46.13441" lon="5.43447">
        <ele>317</ele>
        <time>2019-04-17T12:06:24Z</time>
      </trkpt>
      <trkpt lat="46.13464" lon="5.43446">
        <ele>317</ele>
        <time>2019-04-17T12:07:24Z</time>
      </trkpt>
      <trkpt lat="46.13586" lon="5.43452">
        <ele>317</ele>
        <time>2019-04-17T12:08:24Z</time>
      </trkpt>
      <trkpt lat="46.13595" lon="5.43453">
        <ele>316</ele>
        <time>2019-04-17T12:09:24Z</time>
      </trkpt>
      <trkpt lat="46.13608" lon="5.43459">
        <ele>316</ele>
        <time>2019-04-17T12:10:24Z</time>
      </trkpt>
      <trkpt lat="46.13687" lon="5.43511">
        <ele>317</ele>
        <time>2019-04-17T12:11:24Z</time>
      </trkpt>
      <trkpt lat="46.13932" lon="5.43699">
        <ele>316</ele>
        <time>2019-04-17T12:12:24Z</time>
      </trkpt>
      <trkpt lat="46.14018" lon="5.43738">
        <ele>312</ele>
        <time>2019-04-17T12:13:24Z</time>
      </trkpt>
      <trkpt lat="46.14135" lon="5.43785">
        <ele>307</ele>
        <time>2019-04-17T12:14:24Z</time>
      </trkpt>
      <trkpt lat="46.14258" lon="5.43876">
        <ele>305</ele>
        <time>2019-04-17T12:15:24Z</time>
      </trkpt>
      <trkpt lat="46.14303" lon="5.43929">
        <ele>305</ele>
        <time>2019-04-17T12:16:24Z</time>
      </trkpt>
      <trkpt lat="46.14442" lon="5.44039">
        <ele>304</ele>
        <time>2019-04-17T12:17:24Z</time>
      </trkpt>
      <trkpt lat="46.14551" lon="5.44139">
        <ele>302</ele>
        <time>2019-04-17T12:18:24Z</time>
      </trkpt>
      <trkpt lat="46.14601" lon="5.44173">
        <ele>300</ele>
        <time>2019-04-17T12:19:24Z</time>
      </trkpt>
      <trkpt lat="46.14683" lon="5.44247">
        <ele>296</ele>
        <time>2019-04-17T12:20:24Z</time>
      </trkpt>
      <trkpt lat="46.14699" lon="5.44256">
        <ele>295</ele>
        <time>2019-04-17T12:21:24Z</time>
      </trkpt>
      <trkpt lat="46.14786" lon="5.44282">
        <ele>289</ele>
        <time>2019-04-17T12:22:24Z</time>
      </trkpt>
      <trkpt lat="46.14806" lon="5.44291">
        <ele>286</ele>
        <time>2019-04-17T12:23:24Z</time>
      </trkpt>
      <trkpt lat="46.1482" lon="5.44305">
        <ele>285</ele>
        <time>2019-04-17T12:24:24Z</time>
      </trkpt>
      <trkpt lat="46.1486" lon="5.4445">
        <ele>285</ele>
        <time>2019-04-17T12:25:24Z</time>
      </trkpt>
      <trkpt lat="46.14895" lon="5.44527">
        <ele>286</ele>
        <time>2019-04-17T12:26:24Z</time>
      </trkpt>
      <trkpt lat="46.14932" lon="5.44563">
        <ele>284</ele>
        <time>2019-04-17T12:27:24Z</time>
      </trkpt>
      <trkpt lat="46.14974" lon="5.44594">
        <ele>279</ele>
        <time>2019-04-17T12:28:24Z</time>
      </trkpt>
      <trkpt lat="46.15002" lon="5.44618">
        <ele>276</ele>
        <time>2019-04-17T12:29:24Z</time>
      </trkpt>
      <trkpt lat="46.15048" lon="5.44673">
        <ele>276</ele>
        <time>2019-04-17T12:30:24Z</time>
      </trkpt>
      <trkpt lat="46.15098" lon="5.44723">
        <ele>277</ele>
        <time>2019-04-17T12:31:24Z</time>
      </trkpt>
      <trkpt lat="46.15103" lon="5.44731">
        <ele>278</ele>
        <time>2019-04-17T12:32:24Z</time>
      </trkpt>
      <trkpt lat="46.15105" lon="5.44741">
        <ele>279</ele>
        <time>2019-04-17T12:33:24Z</time>
      </trkpt>
      <trkpt lat="46.15105" lon="5.44763">
        <ele>281</ele>
        <time>2019-04-17T12:34:24Z</time>
      </trkpt>
      <trkpt lat="46.15106" lon="5.44774">
        <ele>283</ele>
        <time>2019-04-17T12:35:24Z</time>
      </trkpt>
      <trkpt lat="46.15108" lon="5.4478">
        <ele>283</ele>
        <time>2019-04-17T12:36:24Z</time>
      </trkpt>
      <trkpt lat="46.15114" lon="5.44786">
        <ele>284</ele>
        <time>2019-04-17T12:37:24Z</time>
      </trkpt>
      <trkpt lat="46.1512" lon="5.44787">
        <ele>283</ele>
        <time>2019-04-17T12:38:24Z</time>
      </trkpt>
      <trkpt lat="46.15141" lon="5.44772">
        <ele>279</ele>
        <time>2019-04-17T12:39:24Z</time>
      </trkpt>
      <trkpt lat="46.1515" lon="5.44771">
        <ele>278</ele>
        <time>2019-04-17T12:40:24Z</time>
      </trkpt>
      <trkpt lat="46.15158" lon="5.44774">
        <ele>277</ele>
        <time>2019-04-17T12:41:24Z</time>
      </trkpt>
      <trkpt lat="46.15207" lon="5.44811">
        <ele>280</ele>
        <time>2019-04-17T12:42:24Z</time>
      </trkpt>
      <trkpt lat="46.15244" lon="5.44844">
        <ele>282</ele>
        <time>2019-04-17T12:43:24Z</time>
      </trkpt>
      <trkpt lat="46.1528" lon="5.4487">
        <ele>285</ele>
        <time>2019-04-17T12:44:24Z</time>
      </trkpt>
      <trkpt lat="46.15319" lon="5.4489">
        <ele>285</ele>
        <time>2019-04-17T12:45:24Z</time>
      </trkpt>
      <trkpt lat="46.15354" lon="5.44902">
        <ele>285</ele>
        <time>2019-04-17T12:46:24Z</time>
      </trkpt>
      <trkpt lat="46.15455" lon="5.4493">
        <ele>281</ele>
        <time>2019-04-17T12:47:24Z</time>
      </trkpt>
      <trkpt lat="46.15484" lon="5.44942">
        <ele>280</ele>
        <time>2019-04-17T12:48:24Z</time>
      </trkpt>
      <trkpt lat="46.15566" lon="5.44984">
        <ele>284</ele>
        <time>2019-04-17T12:49:24Z</time>
      </trkpt>
      <trkpt lat="46.15691" lon="5.45054">
        <ele>287</ele>
        <time>2019-04-17T12:50:24Z</time>
      </trkpt>
      <trkpt lat="46.15815" lon="5.45115">
        <ele>283</ele>
        <time>2019-04-17T12:51:24Z</time>
      </trkpt>
      <trkpt lat="46.15886" lon="5.4516">
        <ele>281</ele>
        <time>2019-04-17T12:52:24Z</time>
      </trkpt>
      <trkpt lat="46.1612" lon="5.45358">
        <ele>293</ele>
        <time>2019-04-17T12:53:24Z</time>
      </trkpt>
      <trkpt lat="46.16217" lon="5.4543">
        <ele>290</ele>
        <time>2019-04-17T12:54:24Z</time>
      </trkpt>
      <trkpt lat="46.16353" lon="5.45559">
        <ele>288</ele>
        <time>2019-04-17T12:55:24Z</time>
      </trkpt>
      <trkpt lat="46.16398" lon="5.45616">
        <ele>291</ele>
        <time>2019-04-17T12:56:24Z</time>
      </trkpt>
      <trkpt lat="46.1645" lon="5.45691">
        <ele>299</ele>
        <time>2019-04-17T12:57:24Z</time>
      </trkpt>
      <trkpt lat="46.16523" lon="5.45765">
        <ele>292</ele>
        <time>2019-04-17T12:58:24Z</time>
      </trkpt>
      <trkpt lat="46.16584" lon="5.45814">
        <ele>287</ele>
        <time>2019-04-17T12:59:24Z</time>
      </trkpt>
      <trkpt lat="46.1661" lon="5.45831">
        <ele>287</ele>
        <time>2019-04-17T13:00:24Z</time>
      </trkpt>
      <trkpt lat="46.16625" lon="5.4584">
        <ele>288</ele>
        <time>2019-04-17T13:01:24Z</time>
      </trkpt>
      <trkpt lat="46.16636" lon="5.45844">
        <ele>287</ele>
        <time>2019-04-17T13:02:24Z</time>
      </trkpt>
      <trkpt lat="46.16686" lon="5.45857">
        <ele>283</ele>
        <time>2019-04-17T13:03:24Z</time>
      </trkpt>
      <trkpt lat="46.16727" lon="5.4586">
        <ele>281</ele>
        <time>2019-04-17T13:04:24Z</time>
      </trkpt>
      <trkpt lat="46.16783" lon="5.45868">
        <ele>279</ele>
        <time>2019-04-17T13:05:24Z</time>
      </trkpt>
      <trkpt lat="46.16872" lon="5.45867">
        <ele>277</ele>
        <time>2019-04-17T13:06:24Z</time>
      </trkpt>
      <trkpt lat="46.1689" lon="5.4587">
        <ele>277</ele>
        <time>2019-04-17T13:07:24Z</time>
      </trkpt>
      <trkpt lat="46.16913" lon="5.45876">
        <ele>277</ele>
        <time>2019-04-17T13:08:24Z</time>
      </trkpt>
      <trkpt lat="46.16926" lon="5.45887">
        <ele>278</ele>
        <time>2019-04-17T13:09:24Z</time>
      </trkpt>
      <trkpt lat="46.17058" lon="5.46013">
        <ele>286</ele>
        <time>2019-04-17T13:10:24Z</time>
      </trkpt>
      <trkpt lat="46.17151" lon="5.46097">
        <ele>286</ele>
        <time>2019-04-17T13:11:24Z</time>
      </trkpt>
      <trkpt lat="46.17193" lon="5.46139">
        <ele>286</ele>
        <time>2019-04-17T13:12:24Z</time>
      </trkpt>
      <trkpt lat="46.17255" lon="5.46192">
        <ele>278</ele>
        <time>2019-04-17T13:13:24Z</time>
      </trkpt>
      <trkpt lat="46.1727" lon="5.46207">
        <ele>279</ele>
        <time>2019-04-17T13:14:24Z</time>
      </trkpt>
      <trkpt lat="46.17291" lon="5.46239">
        <ele>279</ele>
        <time>2019-04-17T13:15:24Z</time>
      </trkpt>
      <trkpt lat="46.17321" lon="5.46318">
        <ele>279</ele>
        <time>2019-04-17T13:16:24Z</time>
      </trkpt>
      <trkpt lat="46.17339" lon="5.46362">
        <ele>283</ele>
        <time>2019-04-17T13:17:24Z</time>
      </trkpt>
      <trkpt lat="46.17346" lon="5.46373">
        <ele>285</ele>
        <time>2019-04-17T13:18:24Z</time>
      </trkpt>
      <trkpt lat="46.17355" lon="5.4638">
        <ele>287</ele>
        <time>2019-04-17T13:19:24Z</time>
      </trkpt>
      <trkpt lat="46.17372" lon="5.46385">
        <ele>287</ele>
        <time>2019-04-17T13:20:24Z</time>
      </trkpt>
      <trkpt lat="46.17409" lon="5.46385">
        <ele>287</ele>
        <time>2019-04-17T13:21:24Z</time>
      </trkpt>
      <trkpt lat="46.17442" lon="5.4639">
        <ele>287</ele>
        <time>2019-04-17T13:22:24Z</time>
      </trkpt>
      <trkpt lat="46.17463" lon="5.46391">
        <ele>287</ele>
        <time>2019-04-17T13:23:24Z</time>
      </trkpt>
      <trkpt lat="46.17534" lon="5.46386">
        <ele>285</ele>
        <time>2019-04-17T13:24:24Z</time>
      </trkpt>
      <trkpt lat="46.176" lon="5.46391">
        <ele>289</ele>
        <time>2019-04-17T13:25:24Z</time>
      </trkpt>
      <trkpt lat="46.17647" lon="5.46383">
        <ele>291</ele>
        <time>2019-04-17T13:26:24Z</time>
      </trkpt>
      <trkpt lat="46.17694" lon="5.4637">
        <ele>295</ele>
        <time>2019-04-17T13:27:24Z</time>
      </trkpt>
      <trkpt lat="46.1771" lon="5.46361">
        <ele>296</ele>
        <time>2019-04-17T13:28:24Z</time>
      </trkpt>
      <trkpt lat="46.17722" lon="5.46349">
        <ele>294</ele>
        <time>2019-04-17T13:29:24Z</time>
      </trkpt>
      <trkpt lat="46.17733" lon="5.46335">
        <ele>292</ele>
        <time>2019-04-17T13:30:24Z</time>
      </trkpt>
      <trkpt lat="46.17758" lon="5.46289">
        <ele>289</ele>
        <time>2019-04-17T13:31:24Z</time>
      </trkpt>
      <trkpt lat="46.17802" lon="5.46223">
        <ele>292</ele>
        <time>2019-04-17T13:32:24Z</time>
      </trkpt>
      <trkpt lat="46.1786" lon="5.46126">
        <ele>292</ele>
        <time>2019-04-17T13:33:24Z</time>
      </trkpt>
      <trkpt lat="46.17877" lon="5.46065">
        <ele>291</ele>
        <time>2019-04-17T13:34:24Z</time>
      </trkpt>
      <trkpt lat="46.17878" lon="5.4597">
        <ele>289</ele>
        <time>2019-04-17T13:35:24Z</time>
      </trkpt>
      <trkpt lat="46.17867" lon="5.45901">
        <ele>286</ele>
        <time>2019-04-17T13:36:24Z</time>
      </trkpt>
      <trkpt lat="46.1787" lon="5.45868">
        <ele>285</ele>
        <time>2019-04-17T13:37:24Z</time>
      </trkpt>
      <trkpt lat="46.1788" lon="5.45839">
        <ele>286</ele>
        <time>2019-04-17T13:38:24Z</time>
      </trkpt>
      <trkpt lat="46.17909" lon="5.45783">
        <ele>287</ele>
        <time>2019-04-17T13:39:24Z</time>
      </trkpt>
      <trkpt lat="46.17929" lon="5.45761">
        <ele>288</ele>
        <time>2019-04-17T13:40:24Z</time>
      </trkpt>
      <trkpt lat="46.17946" lon="5.45752">
        <ele>289</ele>
        <time>2019-04-17T13:41:24Z</time>
      </trkpt>
      <trkpt lat="46.1807" lon="5.45735">
        <ele>294</ele>
        <time>2019-04-17T13:42:24Z</time>
      </trkpt>
      <trkpt lat="46.18136" lon="5.45739">
        <ele>294</ele>
        <time>2019-04-17T13:43:24Z</time>
      </trkpt>
      <trkpt lat="46.18162" lon="5.45742">
        <ele>294</ele>
        <time>2019-04-17T13:44:24Z</time>
      </trkpt>
      <trkpt lat="46.18184" lon="5.45752">
        <ele>293</ele>
        <time>2019-04-17T13:45:24Z</time>
      </trkpt>
      <trkpt lat="46.18208" lon="5.45768">
        <ele>293</ele>
        <time>2019-04-17T13:46:24Z</time>
      </trkpt>
      <trkpt lat="46.18296" lon="5.45855">
        <ele>295</ele>
        <time>2019-04-17T13:47:24Z</time>
      </trkpt>
      <trkpt lat="46.1838" lon="5.45932">
        <ele>294</ele>
        <time>2019-04-17T13:48:24Z</time>
      </trkpt>
      <trkpt lat="46.18419" lon="5.45988">
        <ele>292</ele>
        <time>2019-04-17T13:49:24Z</time>
      </trkpt>
      <trkpt lat="46.18436" lon="5.46026">
        <ele>294</ele>
        <time>2019-04-17T13:50:24Z</time>
      </trkpt>
      <trkpt lat="46.18473" lon="5.46084">
        <ele>291</ele>
        <time>2019-04-17T13:51:24Z</time>
      </trkpt>
      <trkpt lat="46.18531" lon="5.46208">
        <ele>293</ele>
        <time>2019-04-17T13:52:24Z</time>
      </trkpt>
      <trkpt lat="46.18589" lon="5.46312">
        <ele>287</ele>
        <time>2019-04-17T13:53:24Z</time>
      </trkpt>
      <trkpt lat="46.18602" lon="5.46348">
        <ele>291</ele>
        <time>2019-04-17T13:54:24Z</time>
      </trkpt>
      <trkpt lat="46.18644" lon="5.4644">
        <ele>297</ele>
        <time>2019-04-17T13:55:24Z</time>
      </trkpt>
      <trkpt lat="46.18719" lon="5.46574">
        <ele>297</ele>
        <time>2019-04-17T13:56:24Z</time>
      </trkpt>
      <trkpt lat="46.1877" lon="5.46641">
        <ele>290</ele>
        <time>2019-04-17T13:57:24Z</time>
      </trkpt>
      <trkpt lat="46.18823" lon="5.46716">
        <ele>289</ele>
        <time>2019-04-17T13:58:24Z</time>
      </trkpt>
      <trkpt lat="46.18843" lon="5.46738">
        <ele>286</ele>
        <time>2019-04-17T13:59:24Z</time>
      </trkpt>
      <trkpt lat="46.18911" lon="5.46746">
        <ele>276</ele>
        <time>2019-04-17T14:00:24Z</time>
      </trkpt>
      <trkpt lat="46.18979" lon="5.46764">
        <ele>278</ele>
        <time>2019-04-17T14:01:24Z</time>
      </trkpt>
      <trkpt lat="46.18992" lon="5.46761">
        <ele>278</ele>
        <time>2019-04-17T14:02:24Z</time>
      </trkpt>
      <trkpt lat="46.19003" lon="5.46752">
        <ele>277</ele>
        <time>2019-04-17T14:03:24Z</time>
      </trkpt>
      <trkpt lat="46.19015" lon="5.46736">
        <ele>277</ele>
        <time>2019-04-17T14:04:24Z</time>
      </trkpt>
      <trkpt lat="46.1903" lon="5.46725">
        <ele>277</ele>
        <time>2019-04-17T14:05:24Z</time>
      </trkpt>
      <trkpt lat="46.1905" lon="5.46717">
        <ele>278</ele>
        <time>2019-04-17T14:06:24Z</time>
      </trkpt>
      <trkpt lat="46.19112" lon="5.46713">
        <ele>281</ele>
        <time>2019-04-17T14:07:24Z</time>
      </trkpt>
      <trkpt lat="46.19153" lon="5.46702">
        <ele>281</ele>
        <time>2019-04-17T14:08:24Z</time>
      </trkpt>
      <trkpt lat="46.19203" lon="5.46685">
        <ele>281</ele>
        <time>2019-04-17T14:09:24Z</time>
      </trkpt>
      <trkpt lat="46.19486" lon="5.46535">
        <ele>281</ele>
        <time>2019-04-17T14:10:24Z</time>
      </trkpt>
      <trkpt lat="46.19634" lon="5.46479">
        <ele>280</ele>
        <time>2019-04-17T14:11:24Z</time>
      </trkpt>
      <trkpt lat="46.1968" lon="5.46471">
        <ele>280</ele>
        <time>2019-04-17T14:12:24Z</time>
      </trkpt>
      <trkpt lat="46.19773" lon="5.46471">
        <ele>280</ele>
        <time>2019-04-17T14:13:24Z</time>
      </trkpt>
      <trkpt lat="46.19806" lon="5.46477">
        <ele>281</ele>
        <time>2019-04-17T14:14:24Z</time>
      </trkpt>
      <trkpt lat="46.19856" lon="5.46496">
        <ele>284</ele>
        <time>2019-04-17T14:15:24Z</time>
      </trkpt>
      <trkpt lat="46.19954" lon="5.46525">
        <ele>290</ele>
        <time>2019-04-17T14:16:24Z</time>
      </trkpt>
      <trkpt lat="46.20131" lon="5.46547">
        <ele>294</ele>
        <time>2019-04-17T14:17:24Z</time>
      </trkpt>
      <trkpt lat="46.20265" lon="5.46579">
        <ele>293</ele>
        <time>2019-04-17T14:18:24Z</time>
      </trkpt>
      <trkpt lat="46.20307" lon="5.46596">
        <ele>298</ele>
        <time>2019-04-17T14:19:24Z</time>
      </trkpt>
      <trkpt lat="46.20339" lon="5.46602">
        <ele>300</ele>
        <time>2019-04-17T14:20:24Z</time>
      </trkpt>
      <trkpt lat="46.20389" lon="5.46598">
        <ele>297</ele>
        <time>2019-04-17T14:21:24Z</time>
      </trkpt>
      <trkpt lat="46.20454" lon="5.46584">
        <ele>297</ele>
        <time>2019-04-17T14:22:24Z</time>
      </trkpt>
      <trkpt lat="46.20466" lon="5.46577">
        <ele>297</ele>
        <time>2019-04-17T14:23:24Z</time>
      </trkpt>
      <trkpt lat="46.20497" lon="5.46554">
        <ele>295</ele>
        <time>2019-04-17T14:24:24Z</time>
      </trkpt>
      <trkpt lat="46.20511" lon="5.46547">
        <ele>297</ele>
        <time>2019-04-17T14:25:24Z</time>
      </trkpt>
      <trkpt lat="46.20541" lon="5.46538">
        <ele>303</ele>
        <time>2019-04-17T14:26:24Z</time>
      </trkpt>
      <trkpt lat="46.20553" lon="5.46532">
        <ele>304</ele>
        <time>2019-04-17T14:27:24Z</time>
      </trkpt>
      <trkpt lat="46.20566" lon="5.4652">
        <ele>303</ele>
        <time>2019-04-17T14:28:24Z</time>
      </trkpt>
      <trkpt lat="46.20581" lon="5.46501">
        <ele>300</ele>
        <time>2019-04-17T14:29:24Z</time>
      </trkpt>
      <trkpt lat="46.20621" lon="5.46441">
        <ele>305</ele>
        <time>2019-04-17T14:30:24Z</time>
      </trkpt>
      <trkpt lat="46.20651" lon="5.46384">
        <ele>303</ele>
        <time>2019-04-17T14:31:24Z</time>
      </trkpt>
      <trkpt lat="46.20667" lon="5.46348">
        <ele>301</ele>
        <time>2019-04-17T14:32:24Z</time>
      </trkpt>
      <trkpt lat="46.20678" lon="5.46317">
        <ele>303</ele>
        <time>2019-04-17T14:33:24Z</time>
      </trkpt>
      <trkpt lat="46.20691" lon="5.46266">
        <ele>303</ele>
        <time>2019-04-17T14:34:24Z</time>
      </trkpt>
      <trkpt lat="46.20706" lon="5.46193">
        <ele>304</ele>
        <time>2019-04-17T14:35:24Z</time>
      </trkpt>
      <trkpt lat="46.20714" lon="5.46115">
        <ele>304</ele>
        <time>2019-04-17T14:36:24Z</time>
      </trkpt>
      <trkpt lat="46.20716" lon="5.46076">
        <ele>303</ele>
        <time>2019-04-17T14:37:24Z</time>
      </trkpt>
      <trkpt lat="46.20717" lon="5.46016">
        <ele>301</ele>
        <time>2019-04-17T14:38:24Z</time>
      </trkpt>
      <trkpt lat="46.20722" lon="5.45981">
        <ele>301</ele>
        <time>2019-04-17T14:39:24Z</time>
      </trkpt>
      <trkpt lat="46.20777" lon="5.45788">
        <ele>304</ele>
        <time>2019-04-17T14:40:24Z</time>
      </trkpt>
      <trkpt lat="46.20786" lon="5.4574">
        <ele>303</ele>
        <time>2019-04-17T14:41:24Z</time>
      </trkpt>
      <trkpt lat="46.20793" lon="5.45715">
        <ele>303</ele>
        <time>2019-04-17T14:42:24Z</time>
      </trkpt>
      <trkpt lat="46.20835" lon="5.45592">
        <ele>304</ele>
        <time>2019-04-17T14:43:24Z</time>
      </trkpt>
      <trkpt lat="46.20837" lon="5.45579">
        <ele>304</ele>
        <time>2019-04-17T14:44:24Z</time>
      </trkpt>
      <trkpt lat="46.20836" lon="5.45563">
        <ele>303</ele>
        <time>2019-04-17T14:45:24Z</time>
      </trkpt>
      <trkpt lat="46.2083" lon="5.45528">
        <ele>300</ele>
        <time>2019-04-17T14:46:24Z</time>
      </trkpt>
      <trkpt lat="46.20829" lon="5.45511">
        <ele>299</ele>
        <time>2019-04-17T14:47:24Z</time>
      </trkpt>
      <trkpt lat="46.2083" lon="5.4549">
        <ele>298</ele>
        <time>2019-04-17T14:48:24Z</time>
      </trkpt>
      <trkpt lat="46.20839" lon="5.45445">
        <ele>298</ele>
        <time>2019-04-17T14:49:24Z</time>
      </trkpt>
      <trkpt lat="46.20855" lon="5.45402">
        <ele>299</ele>
        <time>2019-04-17T14:50:24Z</time>
      </trkpt>
      <trkpt lat="46.20908" lon="5.453">
        <ele>300</ele>
        <time>2019-04-17T14:51:24Z</time>
      </trkpt>
      <trkpt lat="46.2093" lon="5.45266">
        <ele>298</ele>
        <time>2019-04-17T14:52:24Z</time>
      </trkpt>
      <trkpt lat="46.20956" lon="5.45233">
        <ele>299</ele>
        <time>2019-04-17T14:53:24Z</time>
      </trkpt>
      <trkpt lat="46.20977" lon="5.45211">
        <ele>300</ele>
        <time>2019-04-17T14:54:24Z</time>
      </trkpt>
      <trkpt lat="46.20999" lon="5.45195">
        <ele>301</ele>
        <time>2019-04-17T14:55:24Z</time>
      </trkpt>
      <trkpt lat="46.21026" lon="5.45179">
        <ele>302</ele>
        <time>2019-04-17T14:56:24Z</time>
      </trkpt>
      <trkpt lat="46.2105" lon="5.45168">
        <ele>304</ele>
        <time>2019-04-17T14:57:24Z</time>
      </trkpt>
      <trkpt lat="46.21128" lon="5.45148">
        <ele>305</ele>
        <time>2019-04-17T14:58:24Z</time>
      </trkpt>
      <trkpt lat="46.21175" lon="5.45149">
        <ele>305</ele>
        <time>2019-04-17T14:59:24Z</time>
      </trkpt>
      <trkpt lat="46.21343" lon="5.45167">
        <ele>304</ele>
        <time>2019-04-17T15:00:24Z</time>
      </trkpt>
      <trkpt lat="46.21381" lon="5.45175">
        <ele>303</ele>
        <time>2019-04-17T15:01:24Z</time>
      </trkpt>
      <trkpt lat="46.2141" lon="5.45185">
        <ele>303</ele>
        <time>2019-04-17T15:02:24Z</time>
      </trkpt>
      <trkpt lat="46.21437" lon="5.45198">
        <ele>303</ele>
        <time>2019-04-17T15:03:24Z</time>
      </trkpt>
      <trkpt lat="46.21467" lon="5.4522">
        <ele>303</ele>
        <time>2019-04-17T15:04:24Z</time>
      </trkpt>
      <trkpt lat="46.21488" lon="5.45226">
        <ele>301</ele>
        <time>2019-04-17T15:05:24Z</time>
      </trkpt>
      <trkpt lat="46.21484" lon="5.45219">
        <ele>301</ele>
        <time>2019-04-17T15:06:24Z</time>
      </trkpt>
      <trkpt lat="46.21478" lon="5.45212">
        <ele>300</ele>
        <time>2019-04-17T15:07:24Z</time>
      </trkpt>
      <trkpt lat="46.21415" lon="5.4517">
        <ele>301</ele>
        <time>2019-04-17T15:08:24Z</time>
      </trkpt>
      <trkpt lat="46.21388" lon="5.45156">
        <ele>299</ele>
        <time>2019-04-17T15:09:24Z</time>
      </trkpt>
      <trkpt lat="46.21335" lon="5.45145">
        <ele>299</ele>
        <time>2019-04-17T15:10:24Z</time>
      </trkpt>
      <trkpt lat="46.21325" lon="5.4514">
        <ele>298</ele>
        <time>2019-04-17T15:11:24Z</time>
      </trkpt>
      <trkpt lat="46.21322" lon="5.45136">
        <ele>298</ele>
        <time>2019-04-17T15:12:24Z</time>
      </trkpt>
      <trkpt lat="46.21322" lon="5.45129">
        <ele>296</ele>
        <time>2019-04-17T15:13:24Z</time>
      </trkpt>
      <trkpt lat="46.21325" lon="5.45121">
        <ele>294</ele>
        <time>2019-04-17T15:14:24Z</time>
      </trkpt>
      <trkpt lat="46.21331" lon="5.45118">
        <ele>293</ele>
        <time>2019-04-17T15:15:24Z</time>
      </trkpt>
      <trkpt lat="46.21358" lon="5.4512">
        <ele>292</ele>
        <time>2019-04-17T15:16:24Z</time>
      </trkpt>
      <trkpt lat="46.2141" lon="5.4513">
        <ele>292</ele>
        <time>2019-04-17T15:17:24Z</time>
      </trkpt>
      <trkpt lat="46.21446" lon="5.45142">
        <ele>292</ele>
        <time>2019-04-17T15:18:24Z</time>
      </trkpt>
      <trkpt lat="46.21479" lon="5.45162">
        <ele>292</ele>
        <time>2019-04-17T15:19:24Z</time>
      </trkpt>
      <trkpt lat="46.21505" lon="5.45181">
        <ele>291</ele>
        <time>2019-04-17T15:20:24Z</time>
      </trkpt>
      <trkpt lat="46.21514" lon="5.45184">
        <ele>289</ele>
        <time>2019-04-17T15:21:24Z</time>
      </trkpt>
      <trkpt lat="46.21523" lon="5.45179">
        <ele>286</ele>
        <time>2019-04-17T15:22:24Z</time>
      </trkpt>
      <trkpt lat="46.21551" lon="5.45129">
        <ele>278</ele>
        <time>2019-04-17T15:23:24Z</time>
      </trkpt>
      <trkpt lat="46.21523" lon="5.45179">
        <ele>286</ele>
        <time>2019-04-17T15:24:24Z</time>
      </trkpt>
      <trkpt lat="46.21514" lon="5.45184">
        <ele>289</ele>
        <time>2019-04-17T15:25:24Z</time>
      </trkpt>
      <trkpt lat="46.21505" lon="5.45181">
        <ele>291</ele>
        <time>2019-04-17T15:26:24Z</time>
      </trkpt>
      <trkpt lat="46.21479" lon="5.45162">
        <ele>292</ele>
        <time>2019-04-17T15:27:24Z</time>
      </trkpt>
      <trkpt lat="46.21446" lon="5.45142">
        <ele>292</ele>
        <time>2019-04-17T15:28:24Z</time>
      </trkpt>
      <trkpt lat="46.2141" lon="5.4513">
        <ele>292</ele>
        <time>2019-04-17T15:29:24Z</time>
      </trkpt>
      <trkpt lat="46.21358" lon="5.4512">
        <ele>292</ele>
        <time>2019-04-17T15:30:24Z</time>
      </trkpt>
      <trkpt lat="46.21331" lon="5.45118">
        <ele>293</ele>
        <time>2019-04-17T15:31:24Z</time>
      </trkpt>
      <trkpt lat="46.21325" lon="5.45121">
        <ele>294</ele>
        <time>2019-04-17T15:32:24Z</time>
      </trkpt>
      <trkpt lat="46.21322" lon="5.45129">
        <ele>296</ele>
        <time>2019-04-17T15:33:24Z</time>
      </trkpt>
      <trkpt lat="46.21322" lon="5.45136">
        <ele>298</ele>
        <time>2019-04-17T15:34:24Z</time>
      </trkpt>
      <trkpt lat="46.21325" lon="5.4514">
        <ele>298</ele>
        <time>2019-04-17T15:35:24Z</time>
      </trkpt>
      <trkpt lat="46.21335" lon="5.45145">
        <ele>299</ele>
        <time>2019-04-17T15:36:24Z</time>
      </trkpt>
      <trkpt lat="46.21388" lon="5.45156">
        <ele>299</ele>
        <time>2019-04-17T15:37:24Z</time>
      </trkpt>
      <trkpt lat="46.21415" lon="5.4517">
        <ele>301</ele>
        <time>2019-04-17T15:38:24Z</time>
      </trkpt>
      <trkpt lat="46.21478" lon="5.45212">
        <ele>300</ele>
        <time>2019-04-17T15:39:24Z</time>
      </trkpt>
      <trkpt lat="46.21494" lon="5.45233">
        <ele>302</ele>
        <time>2019-04-17T15:40:24Z</time>
      </trkpt>
      <trkpt lat="46.21499" lon="5.45249">
        <ele>304</ele>
        <time>2019-04-17T15:41:24Z</time>
      </trkpt>
      <trkpt lat="46.21512" lon="5.45338">
        <ele>305</ele>
        <time>2019-04-17T15:42:24Z</time>
      </trkpt>
      <trkpt lat="46.21513" lon="5.45403">
        <ele>307</ele>
        <time>2019-04-17T15:43:24Z</time>
      </trkpt>
      <trkpt lat="46.21509" lon="5.45534">
        <ele>306</ele>
        <time>2019-04-17T15:44:24Z</time>
      </trkpt>
      <trkpt lat="46.2149" lon="5.45627">
        <ele>303</ele>
        <time>2019-04-17T15:45:24Z</time>
      </trkpt>
      <trkpt lat="46.21465" lon="5.45786">
        <ele>296</ele>
        <time>2019-04-17T15:46:24Z</time>
      </trkpt>
      <trkpt lat="46.21421" lon="5.45879">
        <ele>291</ele>
        <time>2019-04-17T15:47:24Z</time>
      </trkpt>
      <trkpt lat="46.21411" lon="5.45898">
        <ele>290</ele>
        <time>2019-04-17T15:48:24Z</time>
      </trkpt>
      <trkpt lat="46.21396" lon="5.45914">
        <ele>290</ele>
        <time>2019-04-17T15:49:24Z</time>
      </trkpt>
      <trkpt lat="46.2131" lon="5.45992">
        <ele>290</ele>
        <time>2019-04-17T15:50:24Z</time>
      </trkpt>
      <trkpt lat="46.21264" lon="5.4602">
        <ele>295</ele>
        <time>2019-04-17T15:51:24Z</time>
      </trkpt>
      <trkpt lat="46.21221" lon="5.46031">
        <ele>305</ele>
        <time>2019-04-17T15:52:24Z</time>
      </trkpt>
      <trkpt lat="46.21194" lon="5.46044">
        <ele>310</ele>
        <time>2019-04-17T15:53:24Z</time>
      </trkpt>
      <trkpt lat="46.21159" lon="5.46073">
        <ele>312</ele>
        <time>2019-04-17T15:54:24Z</time>
      </trkpt>
      <trkpt lat="46.21125" lon="5.46109">
        <ele>317</ele>
        <time>2019-04-17T15:55:24Z</time>
      </trkpt>
      <trkpt lat="46.21084" lon="5.46175">
        <ele>305</ele>
        <time>2019-04-17T15:56:24Z</time>
      </trkpt>
      <trkpt lat="46.21043" lon="5.46257">
        <ele>308</ele>
        <time>2019-04-17T15:57:24Z</time>
      </trkpt>
      <trkpt lat="46.21029" lon="5.46293">
        <ele>311</ele>
        <time>2019-04-17T15:58:24Z</time>
      </trkpt>
      <trkpt lat="46.21012" lon="5.46328">
        <ele>312</ele>
        <time>2019-04-17T15:59:24Z</time>
      </trkpt>
      <trkpt lat="46.21001" lon="5.46381">
        <ele>308</ele>
        <time>2019-04-17T16:00:24Z</time>
      </trkpt>
      <trkpt lat="46.20988" lon="5.46473">
        <ele>312</ele>
        <time>2019-04-17T16:01:24Z</time>
      </trkpt>
      <trkpt lat="46.20981" lon="5.46603">
        <ele>312</ele>
        <time>2019-04-17T16:02:24Z</time>
      </trkpt>
      <trkpt lat="46.20982" lon="5.46643">
        <ele>311</ele>
        <time>2019-04-17T16:03:24Z</time>
      </trkpt>
      <trkpt lat="46.20987" lon="5.46707">
        <ele>309</ele>
        <time>2019-04-17T16:04:24Z</time>
      </trkpt>
      <trkpt lat="46.21001" lon="5.46823">
        <ele>309</ele>
        <time>2019-04-17T16:05:24Z</time>
      </trkpt>
      <trkpt lat="46.21024" lon="5.46932">
        <ele>310</ele>
        <time>2019-04-17T16:06:24Z</time>
      </trkpt>
      <trkpt lat="46.21042" lon="5.46983">
        <ele>309</ele>
        <time>2019-04-17T16:07:24Z</time>
      </trkpt>
      <trkpt lat="46.21066" lon="5.47072">
        <ele>309</ele>
        <time>2019-04-17T16:08:24Z</time>
      </trkpt>
      <trkpt lat="46.21076" lon="5.47099">
        <ele>309</ele>
        <time>2019-04-17T16:09:24Z</time>
      </trkpt>
      <trkpt lat="46.21102" lon="5.47159">
        <ele>313</ele>
        <time>2019-04-17T16:10:24Z</time>
      </trkpt>
      <trkpt lat="46.21123" lon="5.47198">
        <ele>312</ele>
        <time>2019-04-17T16:11:24Z</time>
      </trkpt>
      <trkpt lat="46.21158" lon="5.47242">
        <ele>307</ele>
        <time>2019-04-17T16:12:24Z</time>
      </trkpt>
      <trkpt lat="46.21198" lon="5.47304">
        <ele>308</ele>
        <time>2019-04-17T16:13:24Z</time>
      </trkpt>
      <trkpt lat="46.21211" lon="5.47319">
        <ele>308</ele>
        <time>2019-04-17T16:14:24Z</time>
      </trkpt>
      <trkpt lat="46.21251" lon="5.47353">
        <ele>303</ele>
        <time>2019-04-17T16:15:24Z</time>
      </trkpt>
      <trkpt lat="46.21268" lon="5.47371">
        <ele>303</ele>
        <time>2019-04-17T16:16:24Z</time>
      </trkpt>
      <trkpt lat="46.21285" lon="5.47395">
        <ele>305</ele>
        <time>2019-04-17T16:17:24Z</time>
      </trkpt>
      <trkpt lat="46.21311" lon="5.47445">
        <ele>309</ele>
        <time>2019-04-17T16:18:24Z</time>
      </trkpt>
      <trkpt lat="46.21319" lon="5.47455">
        <ele>309</ele>
        <time>2019-04-17T16:19:24Z</time>
      </trkpt>
      <trkpt lat="46.21332" lon="5.47465">
        <ele>308</ele>
        <time>2019-04-17T16:20:24Z</time>
      </trkpt>
      <trkpt lat="46.21383" lon="5.4749">
        <ele>305</ele>
        <time>2019-04-17T16:21:24Z</time>
      </trkpt>
      <trkpt lat="46.2142" lon="5.47515">
        <ele>305</ele>
        <time>2019-04-17T16:22:24Z</time>
      </trkpt>
      <trkpt lat="46.21437" lon="5.47523">
        <ele>306</ele>
        <time>2019-04-17T16:23:24Z</time>
      </trkpt>
      <trkpt lat="46.21456" lon="5.47528">
        <ele>305</ele>
        <time>2019-04-17T16:24:24Z</time>
      </trkpt>
      <trkpt lat="46.21503" lon="5.47534">
        <ele>301</ele>
        <time>2019-04-17T16:25:24Z</time>
      </trkpt>
      <trkpt lat="46.21523" lon="5.47541">
        <ele>301</ele>
        <time>2019-04-17T16:26:24Z</time>
      </trkpt>
      <trkpt lat="46.21548" lon="5.47553">
        <ele>302</ele>
        <time>2019-04-17T16:27:24Z</time>
      </trkpt>
      <trkpt lat="46.21595" lon="5.47585">
        <ele>303</ele>
        <time>2019-04-17T16:28:24Z</time>
      </trkpt>
      <trkpt lat="46.21658" lon="5.4764">
        <ele>305</ele>
        <time>2019-04-17T16:29:24Z</time>
      </trkpt>
      <trkpt lat="46.21743" lon="5.47716">
        <ele>309</ele>
        <time>2019-04-17T16:30:24Z</time>
      </trkpt>
      <trkpt lat="46.21921" lon="5.47881">
        <ele>314</ele>
        <time>2019-04-17T16:31:24Z</time>
      </trkpt>
      <trkpt lat="46.2202" lon="5.47995">
        <ele>315</ele>
        <time>2019-04-17T16:32:24Z</time>
      </trkpt>
      <trkpt lat="46.22069" lon="5.48065">
        <ele>317</ele>
        <time>2019-04-17T16:33:24Z</time>
      </trkpt>
      <trkpt lat="46.22162" lon="5.48216">
        <ele>314</ele>
        <time>2019-04-17T16:34:24Z</time>
      </trkpt>
      <trkpt lat="46.22184" lon="5.48246">
        <ele>313</ele>
        <time>2019-04-17T16:35:24Z</time>
      </trkpt>
      <trkpt lat="46.22218" lon="5.48285">
        <ele>311</ele>
        <time>2019-04-17T16:36:24Z</time>
      </trkpt>
      <trkpt lat="46.2226" lon="5.48331">
        <ele>310</ele>
        <time>2019-04-17T16:37:24Z</time>
      </trkpt>
      <trkpt lat="46.22306" lon="5.48366">
        <ele>313</ele>
        <time>2019-04-17T16:38:24Z</time>
      </trkpt>
      <trkpt lat="46.22472" lon="5.48484">
        <ele>320</ele>
        <time>2019-04-17T16:39:24Z</time>
      </trkpt>
      <trkpt lat="46.22502" lon="5.48499">
        <ele>321</ele>
        <time>2019-04-17T16:40:24Z</time>
      </trkpt>
      <trkpt lat="46.2262" lon="5.48551">
        <ele>324</ele>
        <time>2019-04-17T16:41:24Z</time>
      </trkpt>
      <trkpt lat="46.22732" lon="5.48581">
        <ele>321</ele>
        <time>2019-04-17T16:42:24Z</time>
      </trkpt>
      <trkpt lat="46.22755" lon="5.48591">
        <ele>323</ele>
        <time>2019-04-17T16:43:24Z</time>
      </trkpt>
      <trkpt lat="46.22872" lon="5.48655">
        <ele>323</ele>
        <time>2019-04-17T16:44:24Z</time>
      </trkpt>
      <trkpt lat="46.22902" lon="5.48676">
        <ele>323</ele>
        <time>2019-04-17T16:45:24Z</time>
      </trkpt>
      <trkpt lat="46.23049" lon="5.48817">
        <ele>331</ele>
        <time>2019-04-17T16:46:24Z</time>
      </trkpt>
      <trkpt lat="46.23085" lon="5.48845">
        <ele>328</ele>
        <time>2019-04-17T16:47:24Z</time>
      </trkpt>
      <trkpt lat="46.23142" lon="5.489">
        <ele>330</ele>
        <time>2019-04-17T16:48:24Z</time>
      </trkpt>
      <trkpt lat="46.23196" lon="5.48963">
        <ele>336</ele>
        <time>2019-04-17T16:49:24Z</time>
      </trkpt>
      <trkpt lat="46.23234" lon="5.49012">
        <ele>340</ele>
        <time>2019-04-17T16:50:24Z</time>
      </trkpt>
      <trkpt lat="46.23245" lon="5.49023">
        <ele>339</ele>
        <time>2019-04-17T16:51:24Z</time>
      </trkpt>
      <trkpt lat="46.23263" lon="5.49035">
        <ele>338</ele>
        <time>2019-04-17T16:52:24Z</time>
      </trkpt>
      <trkpt lat="46.23303" lon="5.49058">
        <ele>335</ele>
        <time>2019-04-17T16:53:24Z</time>
      </trkpt>
      <trkpt lat="46.23325" lon="5.49075">
        <ele>334</ele>
        <time>2019-04-17T16:54:24Z</time>
      </trkpt>
      <trkpt lat="46.23411" lon="5.4916">
        <ele>336</ele>
        <time>2019-04-17T16:55:24Z</time>
      </trkpt>
      <trkpt lat="46.23449" lon="5.4919">
        <ele>337</ele>
        <time>2019-04-17T16:56:24Z</time>
      </trkpt>
      <trkpt lat="46.23482" lon="5.49213">
        <ele>336</ele>
        <time>2019-04-17T16:57:24Z</time>
      </trkpt>
      <trkpt lat="46.23507" lon="5.49236">
        <ele>337</ele>
        <time>2019-04-17T16:58:24Z</time>
      </trkpt>
      <trkpt lat="46.23575" lon="5.4929">
        <ele>336</ele>
        <time>2019-04-17T16:59:24Z</time>
      </trkpt>
      <trkpt lat="46.23584" lon="5.49299">
        <ele>336</ele>
        <time>2019-04-17T17:00:24Z</time>
      </trkpt>
      <trkpt lat="46.23594" lon="5.49318">
        <ele>339</ele>
        <time>2019-04-17T17:01:24Z</time>
      </trkpt>
      <trkpt lat="46.23607" lon="5.49345">
        <ele>343</ele>
        <time>2019-04-17T17:02:24Z</time>
      </trkpt>
      <trkpt lat="46.23668" lon="5.49443">
        <ele>338</ele>
        <time>2019-04-17T17:03:24Z</time>
      </trkpt>
      <trkpt lat="46.23713" lon="5.4951">
        <ele>340</ele>
        <time>2019-04-17T17:04:24Z</time>
      </trkpt>
      <trkpt lat="46.23764" lon="5.49599">
        <ele>341</ele>
        <time>2019-04-17T17:05:24Z</time>
      </trkpt>
      <trkpt lat="46.23867" lon="5.49799">
        <ele>344</ele>
        <time>2019-04-17T17:06:24Z</time>
      </trkpt>
      <trkpt lat="46.23906" lon="5.49882">
        <ele>342</ele>
        <time>2019-04-17T17:07:24Z</time>
      </trkpt>
      <trkpt lat="46.2395" lon="5.49954">
        <ele>337</ele>
        <time>2019-04-17T17:08:24Z</time>
      </trkpt>
      <trkpt lat="46.23962" lon="5.49981">
        <ele>335</ele>
        <time>2019-04-17T17:09:24Z</time>
      </trkpt>
      <trkpt lat="46.23971" lon="5.50009">
        <ele>334</ele>
        <time>2019-04-17T17:10:24Z</time>
      </trkpt>
      <trkpt lat="46.23975" lon="5.50034">
        <ele>334</ele>
        <time>2019-04-17T17:11:24Z</time>
      </trkpt>
      <trkpt lat="46.24024" lon="5.50613">
        <ele>358</ele>
        <time>2019-04-17T17:12:24Z</time>
      </trkpt>
      <trkpt lat="46.24026" lon="5.50621">
        <ele>358</ele>
        <time>2019-04-17T17:13:24Z</time>
      </trkpt>
      <trkpt lat="46.24031" lon="5.50629">
        <ele>358</ele>
        <time>2019-04-17T17:14:24Z</time>
      </trkpt>
      <trkpt lat="46.24036" lon="5.50632">
        <ele>358</ele>
        <time>2019-04-17T17:15:24Z</time>
      </trkpt>
      <trkpt lat="46.24041" lon="5.50634">
        <ele>358</ele>
        <time>2019-04-17T17:16:24Z</time>
      </trkpt>
      <trkpt lat="46.24048" lon="5.50631">
        <ele>357</ele>
        <time>2019-04-17T17:17:24Z</time>
      </trkpt>
      <trkpt lat="46.24052" lon="5.50627">
        <ele>357</ele>
        <time>2019-04-17T17:18:24Z</time>
      </trkpt>
      <trkpt lat="46.24082" lon="5.50572">
        <ele>344</ele>
        <time>2019-04-17T17:19:24Z</time>
      </trkpt>
      <trkpt lat="46.24093" lon="5.50557">
        <ele>342</ele>
        <time>2019-04-17T17:20:24Z</time>
      </trkpt>
      <trkpt lat="46.24106" lon="5.50547">
        <ele>341</ele>
        <time>2019-04-17T17:21:24Z</time>
      </trkpt>
      <trkpt lat="46.24119" lon="5.50545">
        <ele>342</ele>
        <time>2019-04-17T17:22:24Z</time>
      </trkpt>
      <trkpt lat="46.24133" lon="5.50545">
        <ele>342</ele>
        <time>2019-04-17T17:23:24Z</time>
      </trkpt>
      <trkpt lat="46.2416" lon="5.50549">
        <ele>345</ele>
        <time>2019-04-17T17:24:24Z</time>
      </trkpt>
      <trkpt lat="46.2417" lon="5.50544">
        <ele>345</ele>
        <time>2019-04-17T17:25:24Z</time>
      </trkpt>
      <trkpt lat="46.24176" lon="5.50536">
        <ele>345</ele>
        <time>2019-04-17T17:26:24Z</time>
      </trkpt>
      <trkpt lat="46.24199" lon="5.50486">
        <ele>339</ele>
        <time>2019-04-17T17:27:24Z</time>
      </trkpt>
      <trkpt lat="46.24212" lon="5.50467">
        <ele>338</ele>
        <time>2019-04-17T17:28:24Z</time>
      </trkpt>
      <trkpt lat="46.24237" lon="5.50438">
        <ele>335</ele>
        <time>2019-04-17T17:29:24Z</time>
      </trkpt>
      <trkpt lat="46.24257" lon="5.50423">
        <ele>334</ele>
        <time>2019-04-17T17:30:24Z</time>
      </trkpt>
      <trkpt lat="46.24271" lon="5.50416">
        <ele>333</ele>
        <time>2019-04-17T17:31:24Z</time>
      </trkpt>
      <trkpt lat="46.24302" lon="5.50409">
        <ele>334</ele>
        <time>2019-04-17T17:32:24Z</time>
      </trkpt>
      <trkpt lat="46.24316" lon="5.50411">
        <ele>336</ele>
        <time>2019-04-17T17:33:24Z</time>
      </trkpt>
      <trkpt lat="46.24387" lon="5.50437">
        <ele>339</ele>
        <time>2019-04-17T17:34:24Z</time>
      </trkpt>
      <trkpt lat="46.24426" lon="5.50456">
        <ele>340</ele>
        <time>2019-04-17T17:35:24Z</time>
      </trkpt>
      <trkpt lat="46.24438" lon="5.50465">
        <ele>340</ele>
        <time>2019-04-17T17:36:24Z</time>
      </trkpt>
      <trkpt lat="46.24474" lon="5.50507">
        <ele>345</ele>
        <time>2019-04-17T17:37:24Z</time>
      </trkpt>
      <trkpt lat="46.24487" lon="5.50518">
        <ele>346</ele>
        <time>2019-04-17T17:38:24Z</time>
      </trkpt>
      <trkpt lat="46.24557" lon="5.50553">
        <ele>340</ele>
        <time>2019-04-17T17:39:24Z</time>
      </trkpt>
      <trkpt lat="46.2472" lon="5.50678">
        <ele>343</ele>
        <time>2019-04-17T17:40:24Z</time>
      </trkpt>
      <trkpt lat="46.24758" lon="5.50703">
        <ele>342</ele>
        <time>2019-04-17T17:41:24Z</time>
      </trkpt>
      <trkpt lat="46.24819" lon="5.50748">
        <ele>346</ele>
        <time>2019-04-17T17:42:24Z</time>
      </trkpt>
      <trkpt lat="46.24845" lon="5.50765">
        <ele>346</ele>
        <time>2019-04-17T17:43:24Z</time>
      </trkpt>
      <trkpt lat="46.24874" lon="5.5078">
        <ele>344</ele>
        <time>2019-04-17T17:44:24Z</time>
      </trkpt>
      <trkpt lat="46.24893" lon="5.50794">
        <ele>343</ele>
        <time>2019-04-17T17:45:24Z</time>
      </trkpt>
      <trkpt lat="46.24943" lon="5.50843">
        <ele>341</ele>
        <time>2019-04-17T17:46:24Z</time>
      </trkpt>
      <trkpt lat="46.24977" lon="5.5089">
        <ele>344</ele>
        <time>2019-04-17T17:47:24Z</time>
      </trkpt>
      <trkpt lat="46.25049" lon="5.50944">
        <ele>338</ele>
        <time>2019-04-17T17:48:24Z</time>
      </trkpt>
      <trkpt lat="46.2511" lon="5.50997">
        <ele>337</ele>
        <time>2019-04-17T17:49:24Z</time>
      </trkpt>
      <trkpt lat="46.25161" lon="5.51064">
        <ele>337</ele>
        <time>2019-04-17T17:50:24Z</time>
      </trkpt>
      <trkpt lat="46.25247" lon="5.51143">
        <ele>336</ele>
        <time>2019-04-17T17:51:24Z</time>
      </trkpt>
      <trkpt lat="46.25306" lon="5.51183">
        <ele>332</ele>
        <time>2019-04-17T17:52:24Z</time>
      </trkpt>
      <trkpt lat="46.2535" lon="5.51221">
        <ele>333</ele>
        <time>2019-04-17T17:53:24Z</time>
      </trkpt>
      <trkpt lat="46.25379" lon="5.51251">
        <ele>332</ele>
        <time>2019-04-17T17:54:24Z</time>
      </trkpt>
      <trkpt lat="46.25438" lon="5.51317">
        <ele>341</ele>
        <time>2019-04-17T17:55:24Z</time>
      </trkpt>
      <trkpt lat="46.25447" lon="5.51324">
        <ele>342</ele>
        <time>2019-04-17T17:56:24Z</time>
      </trkpt>
      <trkpt lat="46.25459" lon="5.51329">
        <ele>341</ele>
        <time>2019-04-17T17:57:24Z</time>
      </trkpt>
      <trkpt lat="46.25471" lon="5.51331">
        <ele>338</ele>
        <time>2019-04-17T17:58:24Z</time>
      </trkpt>
      <trkpt lat="46.25499" lon="5.5133">
        <ele>329</ele>
        <time>2019-04-17T17:59:24Z</time>
      </trkpt>
      <trkpt lat="46.25524" lon="5.51339">
        <ele>328</ele>
        <time>2019-04-17T18:00:24Z</time>
      </trkpt>
      <trkpt lat="46.25598" lon="5.51394">
        <ele>339</ele>
        <time>2019-04-17T18:01:24Z</time>
      </trkpt>
      <trkpt lat="46.25612" lon="5.51402">
        <ele>340</ele>
        <time>2019-04-17T18:02:24Z</time>
      </trkpt>
      <trkpt lat="46.25662" lon="5.51416">
        <ele>332</ele>
        <time>2019-04-17T18:03:24Z</time>
      </trkpt>
      <trkpt lat="46.2573" lon="5.51445">
        <ele>335</ele>
        <time>2019-04-17T18:04:24Z</time>
      </trkpt>
      <trkpt lat="46.25745" lon="5.51448">
        <ele>333</ele>
        <time>2019-04-17T18:05:24Z</time>
      </trkpt>
      <trkpt lat="46.25804" lon="5.51445">
        <ele>328</ele>
        <time>2019-04-17T18:06:24Z</time>
      </trkpt>
      <trkpt lat="46.25913" lon="5.51444">
        <ele>324</ele>
        <time>2019-04-17T18:07:24Z</time>
      </trkpt>
      <trkpt lat="46.25933" lon="5.51446">
        <ele>323</ele>
        <time>2019-04-17T18:08:24Z</time>
      </trkpt>
      <trkpt lat="46.25967" lon="5.51454">
        <ele>322</ele>
        <time>2019-04-17T18:09:24Z</time>
      </trkpt>
      <trkpt lat="46.26151" lon="5.51509">
        <ele>315</ele>
        <time>2019-04-17T18:10:24Z</time>
      </trkpt>
      <trkpt lat="46.26189" lon="5.51523">
        <ele>316</ele>
        <time>2019-04-17T18:11:24Z</time>
      </trkpt>
      <trkpt lat="46.2621" lon="5.51532">
        <ele>316</ele>
        <time>2019-04-17T18:12:24Z</time>
      </trkpt>
      <trkpt lat="46.26224" lon="5.51543">
        <ele>317</ele>
        <time>2019-04-17T18:13:24Z</time>
      </trkpt>
      <trkpt lat="46.26266" lon="5.51589">
        <ele>317</ele>
        <time>2019-04-17T18:14:24Z</time>
      </trkpt>
      <trkpt lat="46.26304" lon="5.51623">
        <ele>317</ele>
        <time>2019-04-17T18:15:24Z</time>
      </trkpt>
      <trkpt lat="46.26318" lon="5.51641">
        <ele>315</ele>
        <time>2019-04-17T18:16:24Z</time>
      </trkpt>
      <trkpt lat="46.26346" lon="5.51713">
        <ele>316</ele>
        <time>2019-04-17T18:17:24Z</time>
      </trkpt>
      <trkpt lat="46.26352" lon="5.51734">
        <ele>317</ele>
        <time>2019-04-17T18:18:24Z</time>
      </trkpt>
      <trkpt lat="46.26364" lon="5.51858">
        <ele>324</ele>
        <time>2019-04-17T18:19:24Z</time>
      </trkpt>
      <trkpt lat="46.2636" lon="5.52001">
        <ele>321</ele>
        <time>2019-04-17T18:20:24Z</time>
      </trkpt>
      <trkpt lat="46.26361" lon="5.52053">
        <ele>320</ele>
        <time>2019-04-17T18:21:24Z</time>
      </trkpt>
      <trkpt lat="46.26364" lon="5.52134">
        <ele>317</ele>
        <time>2019-04-17T18:22:24Z</time>
      </trkpt>
      <trkpt lat="46.26369" lon="5.52169">
        <ele>314</ele>
        <time>2019-04-17T18:23:24Z</time>
      </trkpt>
      <trkpt lat="46.26385" lon="5.52253">
        <ele>306</ele>
        <time>2019-04-17T18:24:24Z</time>
      </trkpt>
      <trkpt lat="46.26396" lon="5.52284">
        <ele>306</ele>
        <time>2019-04-17T18:25:24Z</time>
      </trkpt>
      <trkpt lat="46.26408" lon="5.523">
        <ele>305</ele>
        <time>2019-04-17T18:26:24Z</time>
      </trkpt>
      <trkpt lat="46.26439" lon="5.52352">
        <ele>304</ele>
        <time>2019-04-17T18:27:24Z</time>
      </trkpt>
      <trkpt lat="46.26469" lon="5.52405">
        <ele>302</ele>
        <time>2019-04-17T18:28:24Z</time>
      </trkpt>
      <trkpt lat="46.26476" lon="5.52426">
        <ele>302</ele>
        <time>2019-04-17T18:29:24Z</time>
      </trkpt>
      <trkpt lat="46.2648" lon="5.52442">
        <ele>302</ele>
        <time>2019-04-17T18:30:24Z</time>
      </trkpt>
      <trkpt lat="46.26481" lon="5.52457">
        <ele>302</ele>
        <time>2019-04-17T18:31:24Z</time>
      </trkpt>
      <trkpt lat="46.2648" lon="5.52475">
        <ele>303</ele>
        <time>2019-04-17T18:32:24Z</time>
      </trkpt>
      <trkpt lat="46.26476" lon="5.52496">
        <ele>304</ele>
        <time>2019-04-17T18:33:24Z</time>
      </trkpt>
      <trkpt lat="46.26454" lon="5.52574">
        <ele>308</ele>
        <time>2019-04-17T18:34:24Z</time>
      </trkpt>
      <trkpt lat="46.26447" lon="5.52604">
        <ele>309</ele>
        <time>2019-04-17T18:35:24Z</time>
      </trkpt>
      <trkpt lat="46.26446" lon="5.52617">
        <ele>309</ele>
        <time>2019-04-17T18:36:24Z</time>
      </trkpt>
      <trkpt lat="46.26451" lon="5.52654">
        <ele>309</ele>
        <time>2019-04-17T18:37:24Z</time>
      </trkpt>
      <trkpt lat="46.26488" lon="5.52839">
        <ele>310</ele>
        <time>2019-04-17T18:38:24Z</time>
      </trkpt>
      <trkpt lat="46.26496" lon="5.5287">
        <ele>310</ele>
        <time>2019-04-17T18:39:24Z</time>
      </trkpt>
      <trkpt lat="46.26518" lon="5.52927">
        <ele>310</ele>
        <time>2019-04-17T18:40:24Z</time>
      </trkpt>
      <trkpt lat="46.26601" lon="5.53122">
        <ele>304</ele>
        <time>2019-04-17T18:41:24Z</time>
      </trkpt>
      <trkpt lat="46.26654" lon="5.5324">
        <ele>297</ele>
        <time>2019-04-17T18:42:24Z</time>
      </trkpt>
      <trkpt lat="46.26657" lon="5.53256">
        <ele>296</ele>
        <time>2019-04-17T18:43:24Z</time>
      </trkpt>
      <trkpt lat="46.26665" lon="5.53329">
        <ele>297</ele>
        <time>2019-04-17T18:44:24Z</time>
      </trkpt>
      <trkpt lat="46.2667" lon="5.53358">
        <ele>298</ele>
        <time>2019-04-17T18:45:24Z</time>
      </trkpt>
      <trkpt lat="46.2669" lon="5.53444">
        <ele>301</ele>
        <time>2019-04-17T18:46:24Z</time>
      </trkpt>
      <trkpt lat="46.26704" lon="5.53491">
        <ele>302</ele>
        <time>2019-04-17T18:47:24Z</time>
      </trkpt>
      <trkpt lat="46.26713" lon="5.53516">
        <ele>302</ele>
        <time>2019-04-17T18:48:24Z</time>
      </trkpt>
      <trkpt lat="46.26728" lon="5.53541">
        <ele>300</ele>
        <time>2019-04-17T18:49:24Z</time>
      </trkpt>
      <trkpt lat="46.26754" lon="5.53575">
        <ele>296</ele>
        <time>2019-04-17T18:50:24Z</time>
      </trkpt>
      <trkpt lat="46.26784" lon="5.53621">
        <ele>293</ele>
        <time>2019-04-17T18:51:24Z</time>
      </trkpt>
      <trkpt lat="46.26777" lon="5.53634">
        <ele>294</ele>
        <time>2019-04-17T18:52:24Z</time>
      </trkpt>
      <trkpt lat="46.26772" lon="5.5365">
        <ele>295</ele>
        <time>2019-04-17T18:53:24Z</time>
      </trkpt>
      <trkpt lat="46.26769" lon="5.53672">
        <ele>296</ele>
        <time>2019-04-17T18:54:24Z</time>
      </trkpt>
      <trkpt lat="46.26771" lon="5.53708">
        <ele>296</ele>
        <time>2019-04-17T18:55:24Z</time>
      </trkpt>
      <trkpt lat="46.26784" lon="5.53808">
        <ele>291</ele>
        <time>2019-04-17T18:56:24Z</time>
      </trkpt>
      <trkpt lat="46.268" lon="5.53871">
        <ele>288</ele>
        <time>2019-04-17T18:57:24Z</time>
      </trkpt>
      <trkpt lat="46.26809" lon="5.539">
        <ele>289</ele>
        <time>2019-04-17T18:58:24Z</time>
      </trkpt>
      <trkpt lat="46.26818" lon="5.53918">
        <ele>289</ele>
        <time>2019-04-17T18:59:24Z</time>
      </trkpt>
      <trkpt lat="46.26857" lon="5.53982">
        <ele>291</ele>
        <time>2019-04-17T19:00:24Z</time>
      </trkpt>
      <trkpt lat="46.26864" lon="5.53997">
        <ele>292</ele>
        <time>2019-04-17T19:01:24Z</time>
      </trkpt>
      <trkpt lat="46.2687" lon="5.54025">
        <ele>291</ele>
        <time>2019-04-17T19:02:24Z</time>
      </trkpt>
      <trkpt lat="46.26872" lon="5.54047">
        <ele>291</ele>
        <time>2019-04-17T19:03:24Z</time>
      </trkpt>
      <trkpt lat="46.26872" lon="5.54067">
        <ele>290</ele>
        <time>2019-04-17T19:04:24Z</time>
      </trkpt>
      <trkpt lat="46.26856" lon="5.54269">
        <ele>300</ele>
        <time>2019-04-17T19:05:24Z</time>
      </trkpt>
      <trkpt lat="46.26856" lon="5.54301">
        <ele>303</ele>
        <time>2019-04-17T19:06:24Z</time>
      </trkpt>
      <trkpt lat="46.26865" lon="5.54374">
        <ele>307</ele>
        <time>2019-04-17T19:07:24Z</time>
      </trkpt>
      <trkpt lat="46.26874" lon="5.54416">
        <ele>307</ele>
        <time>2019-04-17T19:08:24Z</time>
      </trkpt>
      <trkpt lat="46.26885" lon="5.54453">
        <ele>308</ele>
        <time>2019-04-17T19:09:24Z</time>
      </trkpt>
      <trkpt lat="46.26907" lon="5.54502">
        <ele>306</ele>
        <time>2019-04-17T19:10:24Z</time>
      </trkpt>
      <trkpt lat="46.26916" lon="5.54531">
        <ele>305</ele>
        <time>2019-04-17T19:11:24Z</time>
      </trkpt>
      <trkpt lat="46.2692" lon="5.5455">
        <ele>306</ele>
        <time>2019-04-17T19:12:24Z</time>
      </trkpt>
      <trkpt lat="46.26921" lon="5.54571">
        <ele>308</ele>
        <time>2019-04-17T19:13:24Z</time>
      </trkpt>
      <trkpt lat="46.26921" lon="5.5465">
        <ele>315</ele>
        <time>2019-04-17T19:14:24Z</time>
      </trkpt>
      <trkpt lat="46.26924" lon="5.54674">
        <ele>318</ele>
        <time>2019-04-17T19:15:24Z</time>
      </trkpt>
      <trkpt lat="46.2693" lon="5.54702">
        <ele>323</ele>
        <time>2019-04-17T19:16:24Z</time>
      </trkpt>
      <trkpt lat="46.26936" lon="5.54713">
        <ele>325</ele>
        <time>2019-04-17T19:17:24Z</time>
      </trkpt>
      <trkpt lat="46.26952" lon="5.54729">
        <ele>326</ele>
        <time>2019-04-17T19:18:24Z</time>
      </trkpt>
      <trkpt lat="46.26963" lon="5.54736">
        <ele>326</ele>
        <time>2019-04-17T19:19:24Z</time>
      </trkpt>
      <trkpt lat="46.26997" lon="5.54748">
        <ele>324</ele>
        <time>2019-04-17T19:20:24Z</time>
      </trkpt>
      <trkpt lat="46.27027" lon="5.54764">
        <ele>326</ele>
        <time>2019-04-17T19:21:24Z</time>
      </trkpt>
      <trkpt lat="46.27054" lon="5.5479">
        <ele>330</ele>
        <time>2019-04-17T19:22:24Z</time>
      </trkpt>
      <trkpt lat="46.2716" lon="5.54915">
        <ele>336</ele>
        <time>2019-04-17T19:23:24Z</time>
      </trkpt>
      <trkpt lat="46.2718" lon="5.54936">
        <ele>339</ele>
        <time>2019-04-17T19:24:24Z</time>
      </trkpt>
      <trkpt lat="46.27239" lon="5.54989">
        <ele>339</ele>
        <time>2019-04-17T19:25:24Z</time>
      </trkpt>
      <trkpt lat="46.27259" lon="5.55015">
        <ele>341</ele>
        <time>2019-04-17T19:26:24Z</time>
      </trkpt>
      <trkpt lat="46.27337" lon="5.55122">
        <ele>347</ele>
        <time>2019-04-17T19:27:24Z</time>
      </trkpt>
      <trkpt lat="46.27352" lon="5.55151">
        <ele>347</ele>
        <time>2019-04-17T19:28:24Z</time>
      </trkpt>
      <trkpt lat="46.27359" lon="5.55169">
        <ele>347</ele>
        <time>2019-04-17T19:29:24Z</time>
      </trkpt>
      <trkpt lat="46.27365" lon="5.55196">
        <ele>343</ele>
        <time>2019-04-17T19:30:24Z</time>
      </trkpt>
      <trkpt lat="46.27366" lon="5.55216">
        <ele>342</ele>
        <time>2019-04-17T19:31:24Z</time>
      </trkpt>
      <trkpt lat="46.27363" lon="5.55241">
        <ele>344</ele>
        <time>2019-04-17T19:32:24Z</time>
      </trkpt>
      <trkpt lat="46.27355" lon="5.55259">
        <ele>345</ele>
        <time>2019-04-17T19:33:24Z</time>
      </trkpt>
      <trkpt lat="46.27344" lon="5.55267">
        <ele>348</ele>
        <time>2019-04-17T19:34:24Z</time>
      </trkpt>
      <trkpt lat="46.27322" lon="5.5527">
        <ele>352</ele>
        <time>2019-04-17T19:35:24Z</time>
      </trkpt>
      <trkpt lat="46.27288" lon="5.55265">
        <ele>355</ele>
        <time>2019-04-17T19:36:24Z</time>
      </trkpt>
      <trkpt lat="46.27276" lon="5.5526">
        <ele>358</ele>
        <time>2019-04-17T19:37:24Z</time>
      </trkpt>
      <trkpt lat="46.27216" lon="5.55226">
        <ele>369</ele>
        <time>2019-04-17T19:38:24Z</time>
      </trkpt>
      <trkpt lat="46.27168" lon="5.55207">
        <ele>374</ele>
        <time>2019-04-17T19:39:24Z</time>
      </trkpt>
      <trkpt lat="46.2713" lon="5.5519">
        <ele>376</ele>
        <time>2019-04-17T19:40:24Z</time>
      </trkpt>
      <trkpt lat="46.27109" lon="5.55176">
        <ele>378</ele>
        <time>2019-04-17T19:41:24Z</time>
      </trkpt>
      <trkpt lat="46.27075" lon="5.55148">
        <ele>383</ele>
        <time>2019-04-17T19:42:24Z</time>
      </trkpt>
      <trkpt lat="46.2705" lon="5.55132">
        <ele>385</ele>
        <time>2019-04-17T19:43:24Z</time>
      </trkpt>
      <trkpt lat="46.26985" lon="5.55107">
        <ele>384</ele>
        <time>2019-04-17T19:44:24Z</time>
      </trkpt>
      <trkpt lat="46.26965" lon="5.5509">
        <ele>385</ele>
        <time>2019-04-17T19:45:24Z</time>
      </trkpt>
      <trkpt lat="46.26954" lon="5.55077">
        <ele>386</ele>
        <time>2019-04-17T19:46:24Z</time>
      </trkpt>
      <trkpt lat="46.26865" lon="5.54953">
        <ele>392</ele>
        <time>2019-04-17T19:47:24Z</time>
      </trkpt>
      <trkpt lat="46.26855" lon="5.54942">
        <ele>393</ele>
        <time>2019-04-17T19:48:24Z</time>
      </trkpt>
      <trkpt lat="46.26837" lon="5.54929">
        <ele>395</ele>
        <time>2019-04-17T19:49:24Z</time>
      </trkpt>
      <trkpt lat="46.26823" lon="5.54923">
        <ele>397</ele>
        <time>2019-04-17T19:50:24Z</time>
      </trkpt>
      <trkpt lat="46.2681" lon="5.54919">
        <ele>398</ele>
        <time>2019-04-17T19:51:24Z</time>
      </trkpt>
      <trkpt lat="46.26763" lon="5.54917">
        <ele>401</ele>
        <time>2019-04-17T19:52:24Z</time>
      </trkpt>
      <trkpt lat="46.26748" lon="5.54912">
        <ele>404</ele>
        <time>2019-04-17T19:53:24Z</time>
      </trkpt>
      <trkpt lat="46.26696" lon="5.54884">
        <ele>413</ele>
        <time>2019-04-17T19:54:24Z</time>
      </trkpt>
      <trkpt lat="46.26665" lon="5.5487">
        <ele>417</ele>
        <time>2019-04-17T19:55:24Z</time>
      </trkpt>
      <trkpt lat="46.26584" lon="5.54848">
        <ele>418</ele>
        <time>2019-04-17T19:56:24Z</time>
      </trkpt>
      <trkpt lat="46.26554" lon="5.54831">
        <ele>422</ele>
        <time>2019-04-17T19:57:24Z</time>
      </trkpt>
      <trkpt lat="46.26527" lon="5.54809">
        <ele>428</ele>
        <time>2019-04-17T19:58:24Z</time>
      </trkpt>
      <trkpt lat="46.26498" lon="5.54792">
        <ele>429</ele>
        <time>2019-04-17T19:59:24Z</time>
      </trkpt>
      <trkpt lat="46.26417" lon="5.54767">
        <ele>432</ele>
        <time>2019-04-17T20:00:24Z</time>
      </trkpt>
      <trkpt lat="46.26401" lon="5.54765">
        <ele>435</ele>
        <time>2019-04-17T20:01:24Z</time>
      </trkpt>
      <trkpt lat="46.26377" lon="5.54769">
        <ele>439</ele>
        <time>2019-04-17T20:02:24Z</time>
      </trkpt>
      <trkpt lat="46.26326" lon="5.54791">
        <ele>444</ele>
        <time>2019-04-17T20:03:24Z</time>
      </trkpt>
      <trkpt lat="46.26312" lon="5.548">
        <ele>448</ele>
        <time>2019-04-17T20:04:24Z</time>
      </trkpt>
      <trkpt lat="46.26297" lon="5.54816">
        <ele>450</ele>
        <time>2019-04-17T20:05:24Z</time>
      </trkpt>
      <trkpt lat="46.26286" lon="5.54835">
        <ele>450</ele>
        <time>2019-04-17T20:06:24Z</time>
      </trkpt>
      <trkpt lat="46.26276" lon="5.54859">
        <ele>449</ele>
        <time>2019-04-17T20:07:24Z</time>
      </trkpt>
      <trkpt lat="46.26262" lon="5.54903">
        <ele>445</ele>
        <time>2019-04-17T20:08:24Z</time>
      </trkpt>
      <trkpt lat="46.26233" lon="5.55018">
        <ele>451</ele>
        <time>2019-04-17T20:09:24Z</time>
      </trkpt>
      <trkpt lat="46.26211" lon="5.55146">
        <ele>454</ele>
        <time>2019-04-17T20:10:24Z</time>
      </trkpt>
      <trkpt lat="46.26211" lon="5.55163">
        <ele>453</ele>
        <time>2019-04-17T20:11:24Z</time>
      </trkpt>
      <trkpt lat="46.26223" lon="5.5521">
        <ele>452</ele>
        <time>2019-04-17T20:12:24Z</time>
      </trkpt>
      <trkpt lat="46.26226" lon="5.55226">
        <ele>452</ele>
        <time>2019-04-17T20:13:24Z</time>
      </trkpt>
      <trkpt lat="46.26225" lon="5.55244">
        <ele>455</ele>
        <time>2019-04-17T20:14:24Z</time>
      </trkpt>
      <trkpt lat="46.26218" lon="5.55271">
        <ele>461</ele>
        <time>2019-04-17T20:15:24Z</time>
      </trkpt>
      <trkpt lat="46.26197" lon="5.55331">
        <ele>466</ele>
        <time>2019-04-17T20:16:24Z</time>
      </trkpt>
      <trkpt lat="46.26181" lon="5.55358">
        <ele>464</ele>
        <time>2019-04-17T20:17:24Z</time>
      </trkpt>
      <trkpt lat="46.26155" lon="5.55394">
        <ele>460</ele>
        <time>2019-04-17T20:18:24Z</time>
      </trkpt>
      <trkpt lat="46.26149" lon="5.55405">
        <ele>458</ele>
        <time>2019-04-17T20:19:24Z</time>
      </trkpt>
      <trkpt lat="46.26146" lon="5.55417">
        <ele>457</ele>
        <time>2019-04-17T20:20:24Z</time>
      </trkpt>
      <trkpt lat="46.26139" lon="5.55464">
        <ele>454</ele>
        <time>2019-04-17T20:21:24Z</time>
      </trkpt>
      <trkpt lat="46.26104" lon="5.55443">
        <ele>455</ele>
        <time>2019-04-17T20:22:24Z</time>
      </trkpt>
      <trkpt lat="46.26088" lon="5.55437">
        <ele>456</ele>
        <time>2019-04-17T20:23:24Z</time>
      </trkpt>
      <trkpt lat="46.26034" lon="5.55421">
        <ele>456</ele>
        <time>2019-04-17T20:24:24Z</time>
      </trkpt>
      <trkpt lat="46.25963" lon="5.55392">
        <ele>456</ele>
        <time>2019-04-17T20:25:24Z</time>
      </trkpt>
      <trkpt lat="46.2594" lon="5.5538">
        <ele>456</ele>
        <time>2019-04-17T20:26:24Z</time>
      </trkpt>
      <trkpt lat="46.25868" lon="5.55328">
        <ele>461</ele>
        <time>2019-04-17T20:27:24Z</time>
      </trkpt>
      <trkpt lat="46.25841" lon="5.55297">
        <ele>462</ele>
        <time>2019-04-17T20:28:24Z</time>
      </trkpt>
      <trkpt lat="46.25819" lon="5.55269">
        <ele>462</ele>
        <time>2019-04-17T20:29:24Z</time>
      </trkpt>
      <trkpt lat="46.25799" lon="5.55246">
        <ele>463</ele>
        <time>2019-04-17T20:30:24Z</time>
      </trkpt>
      <trkpt lat="46.25776" lon="5.55225">
        <ele>465</ele>
        <time>2019-04-17T20:31:24Z</time>
      </trkpt>
      <trkpt lat="46.25738" lon="5.55196">
        <ele>465</ele>
        <time>2019-04-17T20:32:24Z</time>
      </trkpt>
      <trkpt lat="46.25686" lon="5.5516">
        <ele>465</ele>
        <time>2019-04-17T20:33:24Z</time>
      </trkpt>
      <trkpt lat="46.25393" lon="5.54971">
        <ele>467</ele>
        <time>2019-04-17T20:34:24Z</time>
      </trkpt>
      <trkpt lat="46.25261" lon="5.54894">
        <ele>466</ele>
        <time>2019-04-17T20:35:24Z</time>
      </trkpt>
      <trkpt lat="46.25056" lon="5.5478">
        <ele>470</ele>
        <time>2019-04-17T20:36:24Z</time>
      </trkpt>
      <trkpt lat="46.25034" lon="5.54771">
        <ele>470</ele>
        <time>2019-04-17T20:37:24Z</time>
      </trkpt>
      <trkpt lat="46.25011" lon="5.54764">
        <ele>469</ele>
        <time>2019-04-17T20:38:24Z</time>
      </trkpt>
      <trkpt lat="46.24996" lon="5.54764">
        <ele>468</ele>
        <time>2019-04-17T20:39:24Z</time>
      </trkpt>
      <trkpt lat="46.24968" lon="5.5477">
        <ele>467</ele>
        <time>2019-04-17T20:40:24Z</time>
      </trkpt>
      <trkpt lat="46.24939" lon="5.54773">
        <ele>466</ele>
        <time>2019-04-17T20:41:24Z</time>
      </trkpt>
      <trkpt lat="46.24928" lon="5.5477">
        <ele>466</ele>
        <time>2019-04-17T20:42:24Z</time>
      </trkpt>
      <trkpt lat="46.24844" lon="5.54735">
        <ele>468</ele>
        <time>2019-04-17T20:43:24Z</time>
      </trkpt>
      <trkpt lat="46.24775" lon="5.54692">
        <ele>471</ele>
        <time>2019-04-17T20:44:24Z</time>
      </trkpt>
      <trkpt lat="46.24758" lon="5.54685">
        <ele>471</ele>
        <time>2019-04-17T20:45:24Z</time>
      </trkpt>
      <trkpt lat="46.24738" lon="5.54682">
        <ele>471</ele>
        <time>2019-04-17T20:46:24Z</time>
      </trkpt>
      <trkpt lat="46.24665" lon="5.54683">
        <ele>466</ele>
        <time>2019-04-17T20:47:24Z</time>
      </trkpt>
      <trkpt lat="46.24631" lon="5.54677">
        <ele>466</ele>
        <time>2019-04-17T20:48:24Z</time>
      </trkpt>
      <trkpt lat="46.24612" lon="5.5467">
        <ele>466</ele>
        <time>2019-04-17T20:49:24Z</time>
      </trkpt>
      <trkpt lat="46.24473" lon="5.54595">
        <ele>467</ele>
        <time>2019-04-17T20:50:24Z</time>
      </trkpt>
      <trkpt lat="46.24311" lon="5.54499">
        <ele>469</ele>
        <time>2019-04-17T20:51:24Z</time>
      </trkpt>
      <trkpt lat="46.24302" lon="5.54497">
        <ele>469</ele>
        <time>2019-04-17T20:52:24Z</time>
      </trkpt>
      <trkpt lat="46.24258" lon="5.54502">
        <ele>469</ele>
        <time>2019-04-17T20:53:24Z</time>
      </trkpt>
      <trkpt lat="46.24246" lon="5.54502">
        <ele>469</ele>
        <time>2019-04-17T20:54:24Z</time>
      </trkpt>
      <trkpt lat="46.24216" lon="5.54494">
        <ele>469</ele>
        <time>2019-04-17T20:55:24Z</time>
      </trkpt>
      <trkpt lat="46.24201" lon="5.54487">
        <ele>470</ele>
        <time>2019-04-17T20:56:24Z</time>
      </trkpt>
      <trkpt lat="46.24189" lon="5.54476">
        <ele>470</ele>
        <time>2019-04-17T20:57:24Z</time>
      </trkpt>
      <trkpt lat="46.24139" lon="5.54424">
        <ele>474</ele>
        <time>2019-04-17T20:58:24Z</time>
      </trkpt>
      <trkpt lat="46.24103" lon="5.54379">
        <ele>483</ele>
        <time>2019-04-17T20:59:24Z</time>
      </trkpt>
      <trkpt lat="46.24091" lon="5.54366">
        <ele>486</ele>
        <time>2019-04-17T21:00:24Z</time>
      </trkpt>
      <trkpt lat="46.24076" lon="5.54356">
        <ele>488</ele>
        <time>2019-04-17T21:01:24Z</time>
      </trkpt>
      <trkpt lat="46.24058" lon="5.54346">
        <ele>490</ele>
        <time>2019-04-17T21:02:24Z</time>
      </trkpt>
      <trkpt lat="46.24038" lon="5.54339">
        <ele>492</ele>
        <time>2019-04-17T21:03:24Z</time>
      </trkpt>
      <trkpt lat="46.23985" lon="5.54325">
        <ele>494</ele>
        <time>2019-04-17T21:04:24Z</time>
      </trkpt>
      <trkpt lat="46.23778" lon="5.54252">
        <ele>495</ele>
        <time>2019-04-17T21:05:24Z</time>
      </trkpt>
      <trkpt lat="46.23651" lon="5.54201">
        <ele>500</ele>
        <time>2019-04-17T21:06:24Z</time>
      </trkpt>
      <trkpt lat="46.23584" lon="5.54181">
        <ele>503</ele>
        <time>2019-04-17T21:07:24Z</time>
      </trkpt>
      <trkpt lat="46.23514" lon="5.54164">
        <ele>507</ele>
        <time>2019-04-17T21:08:24Z</time>
      </trkpt>
      <trkpt lat="46.23463" lon="5.54162">
        <ele>505</ele>
        <time>2019-04-17T21:09:24Z</time>
      </trkpt>
      <trkpt lat="46.23441" lon="5.54153">
        <ele>505</ele>
        <time>2019-04-17T21:10:24Z</time>
      </trkpt>
      <trkpt lat="46.23429" lon="5.54143">
        <ele>506</ele>
        <time>2019-04-17T21:11:24Z</time>
      </trkpt>
      <trkpt lat="46.23401" lon="5.54107">
        <ele>510</ele>
        <time>2019-04-17T21:12:24Z</time>
      </trkpt>
      <trkpt lat="46.23386" lon="5.54083">
        <ele>513</ele>
        <time>2019-04-17T21:13:24Z</time>
      </trkpt>
      <trkpt lat="46.2335" lon="5.54012">
        <ele>519</ele>
        <time>2019-04-17T21:14:24Z</time>
      </trkpt>
      <trkpt lat="46.23309" lon="5.53957">
        <ele>521</ele>
        <time>2019-04-17T21:15:24Z</time>
      </trkpt>
      <trkpt lat="46.23288" lon="5.53935">
        <ele>521</ele>
        <time>2019-04-17T21:16:24Z</time>
      </trkpt>
      <trkpt lat="46.23206" lon="5.53866">
        <ele>526</ele>
        <time>2019-04-17T21:17:24Z</time>
      </trkpt>
      <trkpt lat="46.23189" lon="5.53854">
        <ele>527</ele>
        <time>2019-04-17T21:18:24Z</time>
      </trkpt>
      <trkpt lat="46.23137" lon="5.53842">
        <ele>529</ele>
        <time>2019-04-17T21:19:24Z</time>
      </trkpt>
      <trkpt lat="46.2308" lon="5.53819">
        <ele>533</ele>
        <time>2019-04-17T21:20:24Z</time>
      </trkpt>
      <trkpt lat="46.23001" lon="5.53822">
        <ele>531</ele>
        <time>2019-04-17T21:21:24Z</time>
      </trkpt>
      <trkpt lat="46.22969" lon="5.53811">
        <ele>529</ele>
        <time>2019-04-17T21:22:24Z</time>
      </trkpt>
      <trkpt lat="46.22932" lon="5.53793">
        <ele>527</ele>
        <time>2019-04-17T21:23:24Z</time>
      </trkpt>
      <trkpt lat="46.22909" lon="5.53777">
        <ele>526</ele>
        <time>2019-04-17T21:24:24Z</time>
      </trkpt>
      <trkpt lat="46.22814" lon="5.53695">
        <ele>525</ele>
        <time>2019-04-17T21:25:24Z</time>
      </trkpt>
      <trkpt lat="46.22797" lon="5.53685">
        <ele>525</ele>
        <time>2019-04-17T21:26:24Z</time>
      </trkpt>
      <trkpt lat="46.22772" lon="5.53679">
        <ele>524</ele>
        <time>2019-04-17T21:27:24Z</time>
      </trkpt>
      <trkpt lat="46.2261" lon="5.53703">
        <ele>519</ele>
        <time>2019-04-17T21:28:24Z</time>
      </trkpt>
      <trkpt lat="46.22571" lon="5.53704">
        <ele>520</ele>
        <time>2019-04-17T21:29:24Z</time>
      </trkpt>
      <trkpt lat="46.22556" lon="5.53706">
        <ele>520</ele>
        <time>2019-04-17T21:30:24Z</time>
      </trkpt>
      <trkpt lat="46.22536" lon="5.53713">
        <ele>520</ele>
        <time>2019-04-17T21:31:24Z</time>
      </trkpt>
      <trkpt lat="46.22495" lon="5.53757">
        <ele>517</ele>
        <time>2019-04-17T21:32:24Z</time>
      </trkpt>
      <trkpt lat="46.22463" lon="5.53775">
        <ele>513</ele>
        <time>2019-04-17T21:33:24Z</time>
      </trkpt>
      <trkpt lat="46.22442" lon="5.53775">
        <ele>513</ele>
        <time>2019-04-17T21:34:24Z</time>
      </trkpt>
      <trkpt lat="46.2237" lon="5.5376">
        <ele>516</ele>
        <time>2019-04-17T21:35:24Z</time>
      </trkpt>
      <trkpt lat="46.22344" lon="5.53762">
        <ele>514</ele>
        <time>2019-04-17T21:36:24Z</time>
      </trkpt>
      <trkpt lat="46.22312" lon="5.53753">
        <ele>513</ele>
        <time>2019-04-17T21:37:24Z</time>
      </trkpt>
      <trkpt lat="46.22241" lon="5.53722">
        <ele>510</ele>
        <time>2019-04-17T21:38:24Z</time>
      </trkpt>
      <trkpt lat="46.22226" lon="5.5371">
        <ele>510</ele>
        <time>2019-04-17T21:39:24Z</time>
      </trkpt>
      <trkpt lat="46.22201" lon="5.53675">
        <ele>510</ele>
        <time>2019-04-17T21:40:24Z</time>
      </trkpt>
      <trkpt lat="46.22168" lon="5.53643">
        <ele>507</ele>
        <time>2019-04-17T21:41:24Z</time>
      </trkpt>
      <trkpt lat="46.22136" lon="5.53629">
        <ele>507</ele>
        <time>2019-04-17T21:42:24Z</time>
      </trkpt>
      <trkpt lat="46.22107" lon="5.53627">
        <ele>505</ele>
        <time>2019-04-17T21:43:24Z</time>
      </trkpt>
      <trkpt lat="46.22071" lon="5.53631">
        <ele>503</ele>
        <time>2019-04-17T21:44:24Z</time>
      </trkpt>
      <trkpt lat="46.22001" lon="5.53657">
        <ele>500</ele>
        <time>2019-04-17T21:45:24Z</time>
      </trkpt>
      <trkpt lat="46.21944" lon="5.53683">
        <ele>492</ele>
        <time>2019-04-17T21:46:24Z</time>
      </trkpt>
      <trkpt lat="46.21906" lon="5.53698">
        <ele>487</ele>
        <time>2019-04-17T21:47:24Z</time>
      </trkpt>
      <trkpt lat="46.21875" lon="5.53707">
        <ele>484</ele>
        <time>2019-04-17T21:48:24Z</time>
      </trkpt>
      <trkpt lat="46.21834" lon="5.53701">
        <ele>483</ele>
        <time>2019-04-17T21:49:24Z</time>
      </trkpt>
      <trkpt lat="46.2171" lon="5.53669">
        <ele>479</ele>
        <time>2019-04-17T21:50:24Z</time>
      </trkpt>
      <trkpt lat="46.21675" lon="5.53663">
        <ele>477</ele>
        <time>2019-04-17T21:51:24Z</time>
      </trkpt>
      <trkpt lat="46.21641" lon="5.53664">
        <ele>474</ele>
        <time>2019-04-17T21:52:24Z</time>
      </trkpt>
      <trkpt lat="46.21578" lon="5.53682">
        <ele>468</ele>
        <time>2019-04-17T21:53:24Z</time>
      </trkpt>
      <trkpt lat="46.21469" lon="5.53696">
        <ele>468</ele>
        <time>2019-04-17T21:54:24Z</time>
      </trkpt>
      <trkpt lat="46.21442" lon="5.53688">
        <ele>467</ele>
        <time>2019-04-17T21:55:24Z</time>
      </trkpt>
      <trkpt lat="46.2133" lon="5.53619">
        <ele>469</ele>
        <time>2019-04-17T21:56:24Z</time>
      </trkpt>
      <trkpt lat="46.21293" lon="5.536">
        <ele>470</ele>
        <time>2019-04-17T21:57:24Z</time>
      </trkpt>
      <trkpt lat="46.21275" lon="5.53597">
        <ele>470</ele>
        <time>2019-04-17T21:58:24Z</time>
      </trkpt>
      <trkpt lat="46.21249" lon="5.53598">
        <ele>469</ele>
        <time>2019-04-17T21:59:24Z</time>
      </trkpt>
      <trkpt lat="46.21209" lon="5.53587">
        <ele>470</ele>
        <time>2019-04-17T22:00:24Z</time>
      </trkpt>
      <trkpt lat="46.21164" lon="5.53571">
        <ele>470</ele>
        <time>2019-04-17T22:01:24Z</time>
      </trkpt>
      <trkpt lat="46.2112" lon="5.53551">
        <ele>468</ele>
        <time>2019-04-17T22:02:24Z</time>
      </trkpt>
      <trkpt lat="46.21079" lon="5.53521">
        <ele>468</ele>
        <time>2019-04-17T22:03:24Z</time>
      </trkpt>
      <trkpt lat="46.21004" lon="5.53477">
        <ele>467</ele>
        <time>2019-04-17T22:04:24Z</time>
      </trkpt>
      <trkpt lat="46.2096" lon="5.53453">
        <ele>466</ele>
        <time>2019-04-17T22:05:24Z</time>
      </trkpt>
      <trkpt lat="46.20915" lon="5.53431">
        <ele>464</ele>
        <time>2019-04-17T22:06:24Z</time>
      </trkpt>
      <trkpt lat="46.20866" lon="5.53412">
        <ele>466</ele>
        <time>2019-04-17T22:07:24Z</time>
      </trkpt>
      <trkpt lat="46.20754" lon="5.53412">
        <ele>466</ele>
        <time>2019-04-17T22:08:24Z</time>
      </trkpt>
      <trkpt lat="46.20742" lon="5.53601">
        <ele>456</ele>
        <time>2019-04-17T22:09:24Z</time>
      </trkpt>
      <trkpt lat="46.20734" lon="5.53623">
        <ele>455</ele>
        <time>2019-04-17T22:10:24Z</time>
      </trkpt>
      <trkpt lat="46.20711" lon="5.53637">
        <ele>453</ele>
        <time>2019-04-17T22:11:24Z</time>
      </trkpt>
      <trkpt lat="46.20657" lon="5.5364">
        <ele>453</ele>
        <time>2019-04-17T22:12:24Z</time>
      </trkpt>
      <trkpt lat="46.20647" lon="5.53644">
        <ele>453</ele>
        <time>2019-04-17T22:13:24Z</time>
      </trkpt>
      <trkpt lat="46.20631" lon="5.53663">
        <ele>452</ele>
        <time>2019-04-17T22:14:24Z</time>
      </trkpt>
      <trkpt lat="46.20603" lon="5.53734">
        <ele>454</ele>
        <time>2019-04-17T22:15:24Z</time>
      </trkpt>
      <trkpt lat="46.20575" lon="5.53729">
        <ele>455</ele>
        <time>2019-04-17T22:16:24Z</time>
      </trkpt>
      <trkpt lat="46.2054" lon="5.53727">
        <ele>457</ele>
        <time>2019-04-17T22:17:24Z</time>
      </trkpt>
      <trkpt lat="46.20518" lon="5.5374">
        <ele>459</ele>
        <time>2019-04-17T22:18:24Z</time>
      </trkpt>
      <trkpt lat="46.20497" lon="5.53771">
        <ele>462</ele>
        <time>2019-04-17T22:19:24Z</time>
      </trkpt>
      <trkpt lat="46.20494" lon="5.53796">
        <ele>464</ele>
        <time>2019-04-17T22:20:24Z</time>
      </trkpt>
      <trkpt lat="46.20496" lon="5.5383">
        <ele>466</ele>
        <time>2019-04-17T22:21:24Z</time>
      </trkpt>
      <trkpt lat="46.2051" lon="5.53954">
        <ele>467</ele>
        <time>2019-04-17T22:22:24Z</time>
      </trkpt>
      <trkpt lat="46.20502" lon="5.53974">
        <ele>466</ele>
        <time>2019-04-17T22:23:24Z</time>
      </trkpt>
      <trkpt lat="46.20482" lon="5.53988">
        <ele>465</ele>
        <time>2019-04-17T22:24:24Z</time>
      </trkpt>
      <trkpt lat="46.20421" lon="5.53983">
        <ele>464</ele>
        <time>2019-04-17T22:25:24Z</time>
      </trkpt>
      <trkpt lat="46.2036" lon="5.53967">
        <ele>463</ele>
        <time>2019-04-17T22:26:24Z</time>
      </trkpt>
      <trkpt lat="46.20349" lon="5.53975">
        <ele>464</ele>
        <time>2019-04-17T22:27:24Z</time>
      </trkpt>
      <trkpt lat="46.20311" lon="5.54025">
        <ele>465</ele>
        <time>2019-04-17T22:28:24Z</time>
      </trkpt>
      <trkpt lat="46.2022" lon="5.54055">
        <ele>469</ele>
        <time>2019-04-17T22:29:24Z</time>
      </trkpt>
      <trkpt lat="46.20145" lon="5.54095">
        <ele>472</ele>
        <time>2019-04-17T22:30:24Z</time>
      </trkpt>
      <trkpt lat="46.20115" lon="5.54097">
        <ele>472</ele>
        <time>2019-04-17T22:31:24Z</time>
      </trkpt>
      <trkpt lat="46.20062" lon="5.54091">
        <ele>473</ele>
        <time>2019-04-17T22:32:24Z</time>
      </trkpt>
      <trkpt lat="46.20007" lon="5.54065">
        <ele>475</ele>
        <time>2019-04-17T22:33:24Z</time>
      </trkpt>
      <trkpt lat="46.19983" lon="5.54045">
        <ele>475</ele>
        <time>2019-04-17T22:34:24Z</time>
      </trkpt>
      <trkpt lat="46.19951" lon="5.54024">
        <ele>475</ele>
        <time>2019-04-17T22:35:24Z</time>
      </trkpt>
      <trkpt lat="46.1993" lon="5.54017">
        <ele>475</ele>
        <time>2019-04-17T22:36:24Z</time>
      </trkpt>
      <trkpt lat="46.19884" lon="5.54023">
        <ele>477</ele>
        <time>2019-04-17T22:37:24Z</time>
      </trkpt>
      <trkpt lat="46.19837" lon="5.54039">
        <ele>478</ele>
        <time>2019-04-17T22:38:24Z</time>
      </trkpt>
      <trkpt lat="46.19695" lon="5.54112">
        <ele>478</ele>
        <time>2019-04-17T22:39:24Z</time>
      </trkpt>
      <trkpt lat="46.1964" lon="5.54134">
        <ele>479</ele>
        <time>2019-04-17T22:40:24Z</time>
      </trkpt>
      <trkpt lat="46.1962" lon="5.54145">
        <ele>479</ele>
        <time>2019-04-17T22:41:24Z</time>
      </trkpt>
      <trkpt lat="46.19592" lon="5.54175">
        <ele>480</ele>
        <time>2019-04-17T22:42:24Z</time>
      </trkpt>
      <trkpt lat="46.1954" lon="5.54215">
        <ele>481</ele>
        <time>2019-04-17T22:43:24Z</time>
      </trkpt>
      <trkpt lat="46.19469" lon="5.54244">
        <ele>482</ele>
        <time>2019-04-17T22:44:24Z</time>
      </trkpt>
      <trkpt lat="46.19456" lon="5.54256">
        <ele>482</ele>
        <time>2019-04-17T22:45:24Z</time>
      </trkpt>
      <trkpt lat="46.19414" lon="5.54344">
        <ele>482</ele>
        <time>2019-04-17T22:46:24Z</time>
      </trkpt>
      <trkpt lat="46.19279" lon="5.54291">
        <ele>480</ele>
        <time>2019-04-17T22:47:24Z</time>
      </trkpt>
      <trkpt lat="46.19263" lon="5.54289">
        <ele>479</ele>
        <time>2019-04-17T22:48:24Z</time>
      </trkpt>
      <trkpt lat="46.19234" lon="5.54292">
        <ele>477</ele>
        <time>2019-04-17T22:49:24Z</time>
      </trkpt>
      <trkpt lat="46.19156" lon="5.54332">
        <ele>481</ele>
        <time>2019-04-17T22:50:24Z</time>
      </trkpt>
      <trkpt lat="46.191" lon="5.54344">
        <ele>482</ele>
        <time>2019-04-17T22:51:24Z</time>
      </trkpt>
      <trkpt lat="46.18868" lon="5.54345">
        <ele>482</ele>
        <time>2019-04-17T22:52:24Z</time>
      </trkpt>
      <trkpt lat="46.18849" lon="5.54351">
        <ele>481</ele>
        <time>2019-04-17T22:53:24Z</time>
      </trkpt>
      <trkpt lat="46.18699" lon="5.54479">
        <ele>487</ele>
        <time>2019-04-17T22:54:24Z</time>
      </trkpt>
      <trkpt lat="46.18627" lon="5.54546">
        <ele>489</ele>
        <time>2019-04-17T22:55:24Z</time>
      </trkpt>
      <trkpt lat="46.18513" lon="5.54643">
        <ele>488</ele>
        <time>2019-04-17T22:56:24Z</time>
      </trkpt>
      <trkpt lat="46.18329" lon="5.54777">
        <ele>485</ele>
        <time>2019-04-17T22:57:24Z</time>
      </trkpt>
      <trkpt lat="46.18287" lon="5.54805">
        <ele>484</ele>
        <time>2019-04-17T22:58:24Z</time>
      </trkpt>
      <trkpt lat="46.18247" lon="5.54824">
        <ele>481</ele>
        <time>2019-04-17T22:59:24Z</time>
      </trkpt>
      <trkpt lat="46.18211" lon="5.54845">
        <ele>481</ele>
        <time>2019-04-17T23:00:24Z</time>
      </trkpt>
      <trkpt lat="46.18037" lon="5.54966">
        <ele>479</ele>
        <time>2019-04-17T23:01:24Z</time>
      </trkpt>
      <trkpt lat="46.17994" lon="5.5498">
        <ele>478</ele>
        <time>2019-04-17T23:02:24Z</time>
      </trkpt>
      <trkpt lat="46.17957" lon="5.54985">
        <ele>478</ele>
        <time>2019-04-17T23:03:24Z</time>
      </trkpt>
      <trkpt lat="46.17956" lon="5.54979">
        <ele>478</ele>
        <time>2019-04-17T23:04:24Z</time>
      </trkpt>
      <trkpt lat="46.17952" lon="5.54968">
        <ele>478</ele>
        <time>2019-04-17T23:05:24Z</time>
      </trkpt>
      <trkpt lat="46.17948" lon="5.54964">
        <ele>478</ele>
        <time>2019-04-17T23:06:24Z</time>
      </trkpt>
      <trkpt lat="46.17939" lon="5.54961">
        <ele>478</ele>
        <time>2019-04-17T23:07:24Z</time>
      </trkpt>
      <trkpt lat="46.17929" lon="5.54965">
        <ele>478</ele>
        <time>2019-04-17T23:08:24Z</time>
      </trkpt>
      <trkpt lat="46.17923" lon="5.54979">
        <ele>478</ele>
        <time>2019-04-17T23:09:24Z</time>
      </trkpt>
      <trkpt lat="46.17914" lon="5.54983">
        <ele>478</ele>
        <time>2019-04-17T23:10:24Z</time>
      </trkpt>
      <trkpt lat="46.17904" lon="5.55019">
        <ele>478</ele>
        <time>2019-04-17T23:11:24Z</time>
      </trkpt>
      <trkpt lat="46.17887" lon="5.55063">
        <ele>478</ele>
        <time>2019-04-17T23:12:24Z</time>
      </trkpt>
      <trkpt lat="46.17817" lon="5.55284">
        <ele>481</ele>
        <time>2019-04-17T23:13:24Z</time>
      </trkpt>
      <trkpt lat="46.17805" lon="5.55312">
        <ele>481</ele>
        <time>2019-04-17T23:14:24Z</time>
      </trkpt>
      <trkpt lat="46.17737" lon="5.555">
        <ele>481</ele>
        <time>2019-04-17T23:15:24Z</time>
      </trkpt>
      <trkpt lat="46.17727" lon="5.55555">
        <ele>481</ele>
        <time>2019-04-17T23:16:24Z</time>
      </trkpt>
      <trkpt lat="46.17707" lon="5.55618">
        <ele>480</ele>
        <time>2019-04-17T23:17:24Z</time>
      </trkpt>
      <trkpt lat="46.17672" lon="5.55742">
        <ele>480</ele>
        <time>2019-04-17T23:18:24Z</time>
      </trkpt>
      <trkpt lat="46.17643" lon="5.55819">
        <ele>478</ele>
        <time>2019-04-17T23:19:24Z</time>
      </trkpt>
      <trkpt lat="46.17635" lon="5.55828">
        <ele>478</ele>
        <time>2019-04-17T23:20:24Z</time>
      </trkpt>
      <trkpt lat="46.17611" lon="5.55846">
        <ele>478</ele>
        <time>2019-04-17T23:21:24Z</time>
      </trkpt>
      <trkpt lat="46.17608" lon="5.55857">
        <ele>478</ele>
        <time>2019-04-17T23:22:24Z</time>
      </trkpt>
      <trkpt lat="46.17605" lon="5.55879">
        <ele>478</ele>
        <time>2019-04-17T23:23:24Z</time>
      </trkpt>
      <trkpt lat="46.17608" lon="5.55905">
        <ele>478</ele>
        <time>2019-04-17T23:24:24Z</time>
      </trkpt>
      <trkpt lat="46.17595" lon="5.55973">
        <ele>479</ele>
        <time>2019-04-17T23:25:24Z</time>
      </trkpt>
      <trkpt lat="46.17497" lon="5.56293">
        <ele>478</ele>
        <time>2019-04-17T23:26:24Z</time>
      </trkpt>
      <trkpt lat="46.17471" lon="5.56351">
        <ele>478</ele>
        <time>2019-04-17T23:27:24Z</time>
      </trkpt>
      <trkpt lat="46.17468" lon="5.56371">
        <ele>478</ele>
        <time>2019-04-17T23:28:24Z</time>
      </trkpt>
      <trkpt lat="46.17454" lon="5.56422">
        <ele>479</ele>
        <time>2019-04-17T23:29:24Z</time>
      </trkpt>
      <trkpt lat="46.17426" lon="5.56505">
        <ele>480</ele>
        <time>2019-04-17T23:30:24Z</time>
      </trkpt>
      <trkpt lat="46.17369" lon="5.56697">
        <ele>480</ele>
        <time>2019-04-17T23:31:24Z</time>
      </trkpt>
      <trkpt lat="46.17375" lon="5.56704">
        <ele>480</ele>
        <time>2019-04-17T23:32:24Z</time>
      </trkpt>
      <trkpt lat="46.17354" lon="5.56769">
        <ele>479</ele>
        <time>2019-04-17T23:33:24Z</time>
      </trkpt>
      <trkpt lat="46.1733" lon="5.5686">
        <ele>479</ele>
        <time>2019-04-17T23:34:24Z</time>
      </trkpt>
      <trkpt lat="46.17309" lon="5.5693">
        <ele>478</ele>
        <time>2019-04-17T23:35:24Z</time>
      </trkpt>
      <trkpt lat="46.17275" lon="5.57014">
        <ele>479</ele>
        <time>2019-04-17T23:36:24Z</time>
      </trkpt>
      <trkpt lat="46.1726" lon="5.5706">
        <ele>480</ele>
        <time>2019-04-17T23:37:24Z</time>
      </trkpt>
      <trkpt lat="46.17194" lon="5.57274">
        <ele>481</ele>
        <time>2019-04-17T23:38:24Z</time>
      </trkpt>
      <trkpt lat="46.17182" lon="5.5731">
        <ele>482</ele>
        <time>2019-04-17T23:39:24Z</time>
      </trkpt>
      <trkpt lat="46.17174" lon="5.57325">
        <ele>482</ele>
        <time>2019-04-17T23:40:24Z</time>
      </trkpt>
      <trkpt lat="46.17167" lon="5.57323">
        <ele>482</ele>
        <time>2019-04-17T23:41:24Z</time>
      </trkpt>
      <trkpt lat="46.17163" lon="5.57327">
        <ele>482</ele>
        <time>2019-04-17T23:42:24Z</time>
      </trkpt>
      <trkpt lat="46.17162" lon="5.57333">
        <ele>482</ele>
        <time>2019-04-17T23:43:24Z</time>
      </trkpt>
      <trkpt lat="46.17162" lon="5.57349">
        <ele>482</ele>
        <time>2019-04-17T23:44:24Z</time>
      </trkpt>
      <trkpt lat="46.1716" lon="5.57372">
        <ele>482</ele>
        <time>2019-04-17T23:45:24Z</time>
      </trkpt>
      <trkpt lat="46.17155" lon="5.5739">
        <ele>482</ele>
        <time>2019-04-17T23:46:24Z</time>
      </trkpt>
      <trkpt lat="46.17157" lon="5.57399">
        <ele>482</ele>
        <time>2019-04-17T23:47:24Z</time>
      </trkpt>
      <trkpt lat="46.17142" lon="5.57435">
        <ele>481</ele>
        <time>2019-04-17T23:48:24Z</time>
      </trkpt>
      <trkpt lat="46.17081" lon="5.57621">
        <ele>482</ele>
        <time>2019-04-17T23:49:24Z</time>
      </trkpt>
      <trkpt lat="46.17074" lon="5.5762">
        <ele>482</ele>
        <time>2019-04-17T23:50:24Z</time>
      </trkpt>
      <trkpt lat="46.17068" lon="5.57624">
        <ele>482</ele>
        <time>2019-04-17T23:51:24Z</time>
      </trkpt>
      <trkpt lat="46.17066" lon="5.57628">
        <ele>482</ele>
        <time>2019-04-17T23:52:24Z</time>
      </trkpt>
      <trkpt lat="46.17065" lon="5.57637">
        <ele>482</ele>
        <time>2019-04-17T23:53:24Z</time>
      </trkpt>
      <trkpt lat="46.17067" lon="5.57646">
        <ele>482</ele>
        <time>2019-04-17T23:54:24Z</time>
      </trkpt>
      <trkpt lat="46.16982" lon="5.5773">
        <ele>485</ele>
        <time>2019-04-17T23:55:24Z</time>
      </trkpt>
      <trkpt lat="46.1695" lon="5.57747">
        <ele>486</ele>
        <time>2019-04-17T23:56:24Z</time>
      </trkpt>
      <trkpt lat="46.16861" lon="5.57781">
        <ele>489</ele>
        <time>2019-04-17T23:57:24Z</time>
      </trkpt>
      <trkpt lat="46.16818" lon="5.57799">
        <ele>487</ele>
        <time>2019-04-17T23:58:24Z</time>
      </trkpt>
      <trkpt lat="46.16773" lon="5.57832">
        <ele>485</ele>
        <time>2019-04-17T23:59:24Z</time>
      </trkpt>
      <trkpt lat="46.16761" lon="5.57847">
        <ele>485</ele>
        <time>2019-04-18T00:00:24Z</time>
      </trkpt>
      <trkpt lat="46.16741" lon="5.57881">
        <ele>487</ele>
        <time>2019-04-18T00:01:24Z</time>
      </trkpt>
      <trkpt lat="46.16726" lon="5.57959">
        <ele>499</ele>
        <time>2019-04-18T00:02:24Z</time>
      </trkpt>
      <trkpt lat="46.16717" lon="5.57991">
        <ele>501</ele>
        <time>2019-04-18T00:03:24Z</time>
      </trkpt>
      <trkpt lat="46.16698" lon="5.58051">
        <ele>506</ele>
        <time>2019-04-18T00:04:24Z</time>
      </trkpt>
      <trkpt lat="46.1666" lon="5.5815">
        <ele>500</ele>
        <time>2019-04-18T00:05:24Z</time>
      </trkpt>
      <trkpt lat="46.16603" lon="5.58283">
        <ele>497</ele>
        <time>2019-04-18T00:06:24Z</time>
      </trkpt>
      <trkpt lat="46.16576" lon="5.58352">
        <ele>498</ele>
        <time>2019-04-18T00:07:24Z</time>
      </trkpt>
      <trkpt lat="46.16546" lon="5.5839">
        <ele>498</ele>
        <time>2019-04-18T00:08:24Z</time>
      </trkpt>
      <trkpt lat="46.16521" lon="5.5844">
        <ele>495</ele>
        <time>2019-04-18T00:09:24Z</time>
      </trkpt>
      <trkpt lat="46.16505" lon="5.58493">
        <ele>494</ele>
        <time>2019-04-18T00:10:24Z</time>
      </trkpt>
      <trkpt lat="46.16475" lon="5.58603">
        <ele>500</ele>
        <time>2019-04-18T00:11:24Z</time>
      </trkpt>
      <trkpt lat="46.16448" lon="5.5868">
        <ele>498</ele>
        <time>2019-04-18T00:12:24Z</time>
      </trkpt>
      <trkpt lat="46.16419" lon="5.58773">
        <ele>494</ele>
        <time>2019-04-18T00:13:24Z</time>
      </trkpt>
      <trkpt lat="46.1639" lon="5.58853">
        <ele>499</ele>
        <time>2019-04-18T00:14:24Z</time>
      </trkpt>
      <trkpt lat="46.16377" lon="5.58922">
        <ele>501</ele>
        <time>2019-04-18T00:15:24Z</time>
      </trkpt>
      <trkpt lat="46.16353" lon="5.59082">
        <ele>500</ele>
        <time>2019-04-18T00:16:24Z</time>
      </trkpt>
      <trkpt lat="46.16313" lon="5.59315">
        <ele>488</ele>
        <time>2019-04-18T00:17:24Z</time>
      </trkpt>
      <trkpt lat="46.16266" lon="5.59618">
        <ele>491</ele>
        <time>2019-04-18T00:18:24Z</time>
      </trkpt>
      <trkpt lat="46.16218" lon="5.59751">
        <ele>490</ele>
        <time>2019-04-18T00:19:24Z</time>
      </trkpt>
      <trkpt lat="46.1618" lon="5.59835">
        <ele>489</ele>
        <time>2019-04-18T00:20:24Z</time>
      </trkpt>
      <trkpt lat="46.16133" lon="5.59919">
        <ele>490</ele>
        <time>2019-04-18T00:21:24Z</time>
      </trkpt>
      <trkpt lat="46.16101" lon="5.59971">
        <ele>490</ele>
        <time>2019-04-18T00:22:24Z</time>
      </trkpt>
      <trkpt lat="46.16057" lon="5.60061">
        <ele>493</ele>
        <time>2019-04-18T00:23:24Z</time>
      </trkpt>
      <trkpt lat="46.1603" lon="5.60097">
        <ele>491</ele>
        <time>2019-04-18T00:24:24Z</time>
      </trkpt>
      <trkpt lat="46.15905" lon="5.60202">
        <ele>484</ele>
        <time>2019-04-18T00:25:24Z</time>
      </trkpt>
      <trkpt lat="46.15701" lon="5.60417">
        <ele>487</ele>
        <time>2019-04-18T00:26:24Z</time>
      </trkpt>
      <trkpt lat="46.15653" lon="5.60448">
        <ele>487</ele>
        <time>2019-04-18T00:27:24Z</time>
      </trkpt>
      <trkpt lat="46.15639" lon="5.60455">
        <ele>487</ele>
        <time>2019-04-18T00:28:24Z</time>
      </trkpt>
      <trkpt lat="46.15628" lon="5.60457">
        <ele>486</ele>
        <time>2019-04-18T00:29:24Z</time>
      </trkpt>
      <trkpt lat="46.15466" lon="5.60445">
        <ele>483</ele>
        <time>2019-04-18T00:30:24Z</time>
      </trkpt>
      <trkpt lat="46.15453" lon="5.60447">
        <ele>483</ele>
        <time>2019-04-18T00:31:24Z</time>
      </trkpt>
      <trkpt lat="46.15386" lon="5.6047">
        <ele>483</ele>
        <time>2019-04-18T00:32:24Z</time>
      </trkpt>
      <trkpt lat="46.15362" lon="5.60484">
        <ele>483</ele>
        <time>2019-04-18T00:33:24Z</time>
      </trkpt>
      <trkpt lat="46.15226" lon="5.60669">
        <ele>483</ele>
        <time>2019-04-18T00:34:24Z</time>
      </trkpt>
      <trkpt lat="46.1519" lon="5.60713">
        <ele>484</ele>
        <time>2019-04-18T00:35:24Z</time>
      </trkpt>
      <trkpt lat="46.15145" lon="5.60727">
        <ele>484</ele>
        <time>2019-04-18T00:36:24Z</time>
      </trkpt>
      <trkpt lat="46.15029" lon="5.60781">
        <ele>487</ele>
        <time>2019-04-18T00:37:24Z</time>
      </trkpt>
      <trkpt lat="46.14895" lon="5.60851">
        <ele>488</ele>
        <time>2019-04-18T00:38:24Z</time>
      </trkpt>
      <trkpt lat="46.14878" lon="5.6087">
        <ele>488</ele>
        <time>2019-04-18T00:39:24Z</time>
      </trkpt>
      <trkpt lat="46.14449" lon="5.61486">
        <ele>490</ele>
        <time>2019-04-18T00:40:24Z</time>
      </trkpt>
      <trkpt lat="46.144" lon="5.61554">
        <ele>494</ele>
        <time>2019-04-18T00:41:24Z</time>
      </trkpt>
      <trkpt lat="46.14272" lon="5.61744">
        <ele>501</ele>
        <time>2019-04-18T00:42:24Z</time>
      </trkpt>
      <trkpt lat="46.14248" lon="5.61787">
        <ele>502</ele>
        <time>2019-04-18T00:43:24Z</time>
      </trkpt>
      <trkpt lat="46.14238" lon="5.61813">
        <ele>503</ele>
        <time>2019-04-18T00:44:24Z</time>
      </trkpt>
      <trkpt lat="46.14219" lon="5.61883">
        <ele>507</ele>
        <time>2019-04-18T00:45:24Z</time>
      </trkpt>
      <trkpt lat="46.14198" lon="5.61938">
        <ele>508</ele>
        <time>2019-04-18T00:46:24Z</time>
      </trkpt>
      <trkpt lat="46.14122" lon="5.6216">
        <ele>507</ele>
        <time>2019-04-18T00:47:24Z</time>
      </trkpt>
      <trkpt lat="46.1399" lon="5.62524">
        <ele>521</ele>
        <time>2019-04-18T00:48:24Z</time>
      </trkpt>
      <trkpt lat="46.1398" lon="5.62539">
        <ele>522</ele>
        <time>2019-04-18T00:49:24Z</time>
      </trkpt>
      <trkpt lat="46.13933" lon="5.62594">
        <ele>520</ele>
        <time>2019-04-18T00:50:24Z</time>
      </trkpt>
      <trkpt lat="46.13922" lon="5.6261">
        <ele>518</ele>
        <time>2019-04-18T00:51:24Z</time>
      </trkpt>
      <trkpt lat="46.13915" lon="5.62626">
        <ele>518</ele>
        <time>2019-04-18T00:52:24Z</time>
      </trkpt>
      <trkpt lat="46.13911" lon="5.62642">
        <ele>518</ele>
        <time>2019-04-18T00:53:24Z</time>
      </trkpt>
      <trkpt lat="46.13909" lon="5.62685">
        <ele>519</ele>
        <time>2019-04-18T00:54:24Z</time>
      </trkpt>
      <trkpt lat="46.13911" lon="5.62733">
        <ele>518</ele>
        <time>2019-04-18T00:55:24Z</time>
      </trkpt>
      <trkpt lat="46.13915" lon="5.62747">
        <ele>518</ele>
        <time>2019-04-18T00:56:24Z</time>
      </trkpt>
      <trkpt lat="46.14064" lon="5.63059">
        <ele>529</ele>
        <time>2019-04-18T00:57:24Z</time>
      </trkpt>
      <trkpt lat="46.14081" lon="5.63089">
        <ele>530</ele>
        <time>2019-04-18T00:58:24Z</time>
      </trkpt>
      <trkpt lat="46.1409" lon="5.63113">
        <ele>532</ele>
        <time>2019-04-18T00:59:24Z</time>
      </trkpt>
      <trkpt lat="46.14122" lon="5.63182">
        <ele>534</ele>
        <time>2019-04-18T01:00:24Z</time>
      </trkpt>
      <trkpt lat="46.14194" lon="5.6333">
        <ele>537</ele>
        <time>2019-04-18T01:01:24Z</time>
      </trkpt>
      <trkpt lat="46.14432" lon="5.63838">
        <ele>532</ele>
        <time>2019-04-18T01:02:24Z</time>
      </trkpt>
      <trkpt lat="46.1448" lon="5.63952">
        <ele>537</ele>
        <time>2019-04-18T01:03:24Z</time>
      </trkpt>
      <trkpt lat="46.14507" lon="5.64024">
        <ele>542</ele>
        <time>2019-04-18T01:04:24Z</time>
      </trkpt>
      <trkpt lat="46.14558" lon="5.64135">
        <ele>550</ele>
        <time>2019-04-18T01:05:24Z</time>
      </trkpt>
      <trkpt lat="46.14588" lon="5.64183">
        <ele>555</ele>
        <time>2019-04-18T01:06:24Z</time>
      </trkpt>
      <trkpt lat="46.14619" lon="5.64218">
        <ele>558</ele>
        <time>2019-04-18T01:07:24Z</time>
      </trkpt>
      <trkpt lat="46.14673" lon="5.64269">
        <ele>557</ele>
        <time>2019-04-18T01:08:24Z</time>
      </trkpt>
      <trkpt lat="46.14865" lon="5.6442">
        <ele>564</ele>
        <time>2019-04-18T01:09:24Z</time>
      </trkpt>
      <trkpt lat="46.14904" lon="5.64459">
        <ele>568</ele>
        <time>2019-04-18T01:10:24Z</time>
      </trkpt>
      <trkpt lat="46.14934" lon="5.64494">
        <ele>570</ele>
        <time>2019-04-18T01:11:24Z</time>
      </trkpt>
      <trkpt lat="46.14967" lon="5.64537">
        <ele>573</ele>
        <time>2019-04-18T01:12:24Z</time>
      </trkpt>
      <trkpt lat="46.15061" lon="5.64678">
        <ele>581</ele>
        <time>2019-04-18T01:13:24Z</time>
      </trkpt>
      <trkpt lat="46.15091" lon="5.64711">
        <ele>579</ele>
        <time>2019-04-18T01:14:24Z</time>
      </trkpt>
      <trkpt lat="46.1512" lon="5.64734">
        <ele>579</ele>
        <time>2019-04-18T01:15:24Z</time>
      </trkpt>
      <trkpt lat="46.15227" lon="5.64805">
        <ele>584</ele>
        <time>2019-04-18T01:16:24Z</time>
      </trkpt>
      <trkpt lat="46.15289" lon="5.64853">
        <ele>592</ele>
        <time>2019-04-18T01:17:24Z</time>
      </trkpt>
      <trkpt lat="46.15304" lon="5.64868">
        <ele>594</ele>
        <time>2019-04-18T01:18:24Z</time>
      </trkpt>
      <trkpt lat="46.15342" lon="5.64907">
        <ele>598</ele>
        <time>2019-04-18T01:19:24Z</time>
      </trkpt>
      <trkpt lat="46.15472" lon="5.65061">
        <ele>612</ele>
        <time>2019-04-18T01:20:24Z</time>
      </trkpt>
      <trkpt lat="46.15515" lon="5.6511">
        <ele>612</ele>
        <time>2019-04-18T01:21:24Z</time>
      </trkpt>
      <trkpt lat="46.15562" lon="5.65169">
        <ele>613</ele>
        <time>2019-04-18T01:22:24Z</time>
      </trkpt>
      <trkpt lat="46.15592" lon="5.65196">
        <ele>613</ele>
        <time>2019-04-18T01:23:24Z</time>
      </trkpt>
      <trkpt lat="46.15627" lon="5.65222">
        <ele>613</ele>
        <time>2019-04-18T01:24:24Z</time>
      </trkpt>
      <trkpt lat="46.15664" lon="5.65241">
        <ele>614</ele>
        <time>2019-04-18T01:25:24Z</time>
      </trkpt>
      <trkpt lat="46.15704" lon="5.65255">
        <ele>615</ele>
        <time>2019-04-18T01:26:24Z</time>
      </trkpt>
      <trkpt lat="46.1573" lon="5.65259">
        <ele>616</ele>
        <time>2019-04-18T01:27:24Z</time>
      </trkpt>
      <trkpt lat="46.1576" lon="5.65261">
        <ele>616</ele>
        <time>2019-04-18T01:28:24Z</time>
      </trkpt>
      <trkpt lat="46.15787" lon="5.65259">
        <ele>614</ele>
        <time>2019-04-18T01:29:24Z</time>
      </trkpt>
      <trkpt lat="46.15821" lon="5.65251">
        <ele>613</ele>
        <time>2019-04-18T01:30:24Z</time>
      </trkpt>
      <trkpt lat="46.15879" lon="5.6523">
        <ele>609</ele>
        <time>2019-04-18T01:31:24Z</time>
      </trkpt>
      <trkpt lat="46.15927" lon="5.65219">
        <ele>606</ele>
        <time>2019-04-18T01:32:24Z</time>
      </trkpt>
      <trkpt lat="46.15957" lon="5.65215">
        <ele>607</ele>
        <time>2019-04-18T01:33:24Z</time>
      </trkpt>
      <trkpt lat="46.16019" lon="5.65227">
        <ele>609</ele>
        <time>2019-04-18T01:34:24Z</time>
      </trkpt>
      <trkpt lat="46.16051" lon="5.65246">
        <ele>613</ele>
        <time>2019-04-18T01:35:24Z</time>
      </trkpt>
      <trkpt lat="46.1608" lon="5.65276">
        <ele>615</ele>
        <time>2019-04-18T01:36:24Z</time>
      </trkpt>
      <trkpt lat="46.16105" lon="5.65326">
        <ele>615</ele>
        <time>2019-04-18T01:37:24Z</time>
      </trkpt>
      <trkpt lat="46.16123" lon="5.65375">
        <ele>617</ele>
        <time>2019-04-18T01:38:24Z</time>
      </trkpt>
      <trkpt lat="46.16133" lon="5.65421">
        <ele>616</ele>
        <time>2019-04-18T01:39:24Z</time>
      </trkpt>
      <trkpt lat="46.16137" lon="5.65469">
        <ele>615</ele>
        <time>2019-04-18T01:40:24Z</time>
      </trkpt>
      <trkpt lat="46.16137" lon="5.65525">
        <ele>612</ele>
        <time>2019-04-18T01:41:24Z</time>
      </trkpt>
      <trkpt lat="46.1613" lon="5.6565">
        <ele>608</ele>
        <time>2019-04-18T01:42:24Z</time>
      </trkpt>
      <trkpt lat="46.16129" lon="5.65707">
        <ele>607</ele>
        <time>2019-04-18T01:43:24Z</time>
      </trkpt>
      <trkpt lat="46.16131" lon="5.65783">
        <ele>608</ele>
        <time>2019-04-18T01:44:24Z</time>
      </trkpt>
      <trkpt lat="46.16134" lon="5.6585">
        <ele>609</ele>
        <time>2019-04-18T01:45:24Z</time>
      </trkpt>
      <trkpt lat="46.1614" lon="5.65893">
        <ele>610</ele>
        <time>2019-04-18T01:46:24Z</time>
      </trkpt>
      <trkpt lat="46.16154" lon="5.65945">
        <ele>609</ele>
        <time>2019-04-18T01:47:24Z</time>
      </trkpt>
      <trkpt lat="46.16213" lon="5.66094">
        <ele>612</ele>
        <time>2019-04-18T01:48:24Z</time>
      </trkpt>
      <trkpt lat="46.16226" lon="5.66135">
        <ele>612</ele>
        <time>2019-04-18T01:49:24Z</time>
      </trkpt>
      <trkpt lat="46.16394" lon="5.66942">
        <ele>611</ele>
        <time>2019-04-18T01:50:24Z</time>
      </trkpt>
      <trkpt lat="46.1644" lon="5.67105">
        <ele>617</ele>
        <time>2019-04-18T01:51:24Z</time>
      </trkpt>
      <trkpt lat="46.16485" lon="5.67255">
        <ele>618</ele>
        <time>2019-04-18T01:52:24Z</time>
      </trkpt>
      <trkpt lat="46.16502" lon="5.67293">
        <ele>614</ele>
        <time>2019-04-18T01:53:24Z</time>
      </trkpt>
      <trkpt lat="46.16591" lon="5.67464">
        <ele>612</ele>
        <time>2019-04-18T01:54:24Z</time>
      </trkpt>
      <trkpt lat="46.16649" lon="5.67541">
        <ele>612</ele>
        <time>2019-04-18T01:55:24Z</time>
      </trkpt>
      <trkpt lat="46.16729" lon="5.67629">
        <ele>610</ele>
        <time>2019-04-18T01:56:24Z</time>
      </trkpt>
      <trkpt lat="46.16769" lon="5.67681">
        <ele>607</ele>
        <time>2019-04-18T01:57:24Z</time>
      </trkpt>
      <trkpt lat="46.1681" lon="5.67751">
        <ele>605</ele>
        <time>2019-04-18T01:58:24Z</time>
      </trkpt>
      <trkpt lat="46.16871" lon="5.67894">
        <ele>602</ele>
        <time>2019-04-18T01:59:24Z</time>
      </trkpt>
      <trkpt lat="46.16884" lon="5.67931">
        <ele>601</ele>
        <time>2019-04-18T02:00:24Z</time>
      </trkpt>
      <trkpt lat="46.16895" lon="5.67975">
        <ele>598</ele>
        <time>2019-04-18T02:01:24Z</time>
      </trkpt>
      <trkpt lat="46.16901" lon="5.68027">
        <ele>596</ele>
        <time>2019-04-18T02:02:24Z</time>
      </trkpt>
      <trkpt lat="46.16901" lon="5.68061">
        <ele>596</ele>
        <time>2019-04-18T02:03:24Z</time>
      </trkpt>
      <trkpt lat="46.16896" lon="5.68133">
        <ele>596</ele>
        <time>2019-04-18T02:04:24Z</time>
      </trkpt>
      <trkpt lat="46.16838" lon="5.68518">
        <ele>594</ele>
        <time>2019-04-18T02:05:24Z</time>
      </trkpt>
      <trkpt lat="46.1683" lon="5.68563">
        <ele>595</ele>
        <time>2019-04-18T02:06:24Z</time>
      </trkpt>
      <trkpt lat="46.16824" lon="5.6859">
        <ele>597</ele>
        <time>2019-04-18T02:07:24Z</time>
      </trkpt>
      <trkpt lat="46.16813" lon="5.68622">
        <ele>600</ele>
        <time>2019-04-18T02:08:24Z</time>
      </trkpt>
      <trkpt lat="46.1679" lon="5.68675">
        <ele>600</ele>
        <time>2019-04-18T02:09:24Z</time>
      </trkpt>
      <trkpt lat="46.16753" lon="5.68753">
        <ele>594</ele>
        <time>2019-04-18T02:10:24Z</time>
      </trkpt>
      <trkpt lat="46.16731" lon="5.68815">
        <ele>597</ele>
        <time>2019-04-18T02:11:24Z</time>
      </trkpt>
      <trkpt lat="46.16719" lon="5.68873">
        <ele>599</ele>
        <time>2019-04-18T02:12:24Z</time>
      </trkpt>
      <trkpt lat="46.16708" lon="5.68965">
        <ele>600</ele>
        <time>2019-04-18T02:13:24Z</time>
      </trkpt>
      <trkpt lat="46.16694" lon="5.69027">
        <ele>598</ele>
        <time>2019-04-18T02:14:24Z</time>
      </trkpt>
      <trkpt lat="46.16673" lon="5.69092">
        <ele>594</ele>
        <time>2019-04-18T02:15:24Z</time>
      </trkpt>
      <trkpt lat="46.16634" lon="5.69195">
        <ele>594</ele>
        <time>2019-04-18T02:16:24Z</time>
      </trkpt>
      <trkpt lat="46.16599" lon="5.69295">
        <ele>596</ele>
        <time>2019-04-18T02:17:24Z</time>
      </trkpt>
      <trkpt lat="46.16586" lon="5.69326">
        <ele>596</ele>
        <time>2019-04-18T02:18:24Z</time>
      </trkpt>
      <trkpt lat="46.16569" lon="5.69357">
        <ele>596</ele>
        <time>2019-04-18T02:19:24Z</time>
      </trkpt>
      <trkpt lat="46.16553" lon="5.69375">
        <ele>595</ele>
        <time>2019-04-18T02:20:24Z</time>
      </trkpt>
      <trkpt lat="46.16528" lon="5.69393">
        <ele>593</ele>
        <time>2019-04-18T02:21:24Z</time>
      </trkpt>
      <trkpt lat="46.16492" lon="5.69408">
        <ele>590</ele>
        <time>2019-04-18T02:22:24Z</time>
      </trkpt>
      <trkpt lat="46.16423" lon="5.69428">
        <ele>590</ele>
        <time>2019-04-18T02:23:24Z</time>
      </trkpt>
      <trkpt lat="46.16411" lon="5.69438">
        <ele>591</ele>
        <time>2019-04-18T02:24:24Z</time>
      </trkpt>
      <trkpt lat="46.16397" lon="5.6946">
        <ele>592</ele>
        <time>2019-04-18T02:25:24Z</time>
      </trkpt>
      <trkpt lat="46.16372" lon="5.69532">
        <ele>594</ele>
        <time>2019-04-18T02:26:24Z</time>
      </trkpt>
      <trkpt lat="46.16343" lon="5.69635">
        <ele>588</ele>
        <time>2019-04-18T02:27:24Z</time>
      </trkpt>
      <trkpt lat="46.16337" lon="5.69673">
        <ele>586</ele>
        <time>2019-04-18T02:28:24Z</time>
      </trkpt>
      <trkpt lat="46.16333" lon="5.69756">
        <ele>586</ele>
        <time>2019-04-18T02:29:24Z</time>
      </trkpt>
      <trkpt lat="46.16335" lon="5.69791">
        <ele>587</ele>
        <time>2019-04-18T02:30:24Z</time>
      </trkpt>
      <trkpt lat="46.16357" lon="5.69925">
        <ele>590</ele>
        <time>2019-04-18T02:31:24Z</time>
      </trkpt>
      <trkpt lat="46.16356" lon="5.69952">
        <ele>589</ele>
        <time>2019-04-18T02:32:24Z</time>
      </trkpt>
      <trkpt lat="46.1635" lon="5.69982">
        <ele>586</ele>
        <time>2019-04-18T02:33:24Z</time>
      </trkpt>
      <trkpt lat="46.1635" lon="5.69993">
        <ele>585</ele>
        <time>2019-04-18T02:34:24Z</time>
      </trkpt>
      <trkpt lat="46.16365" lon="5.7012">
        <ele>585</ele>
        <time>2019-04-18T02:35:24Z</time>
      </trkpt>
      <trkpt lat="46.16379" lon="5.70182">
        <ele>585</ele>
        <time>2019-04-18T02:36:24Z</time>
      </trkpt>
      <trkpt lat="46.16407" lon="5.7029">
        <ele>575</ele>
        <time>2019-04-18T02:37:24Z</time>
      </trkpt>
      <trkpt lat="46.16472" lon="5.70533">
        <ele>563</ele>
        <time>2019-04-18T02:38:24Z</time>
      </trkpt>
      <trkpt lat="46.16531" lon="5.70744">
        <ele>555</ele>
        <time>2019-04-18T02:39:24Z</time>
      </trkpt>
      <trkpt lat="46.16593" lon="5.70977">
        <ele>551</ele>
        <time>2019-04-18T02:40:24Z</time>
      </trkpt>
      <trkpt lat="46.16643" lon="5.71151">
        <ele>552</ele>
        <time>2019-04-18T02:41:24Z</time>
      </trkpt>
      <trkpt lat="46.1665" lon="5.7118">
        <ele>551</ele>
        <time>2019-04-18T02:42:24Z</time>
      </trkpt>
      <trkpt lat="46.16687" lon="5.71375">
        <ele>549</ele>
        <time>2019-04-18T02:43:24Z</time>
      </trkpt>
      <trkpt lat="46.16706" lon="5.71487">
        <ele>548</ele>
        <time>2019-04-18T02:44:24Z</time>
      </trkpt>
      <trkpt lat="46.16716" lon="5.71516">
        <ele>546</ele>
        <time>2019-04-18T02:45:24Z</time>
      </trkpt>
      <trkpt lat="46.16743" lon="5.71572">
        <ele>541</ele>
        <time>2019-04-18T02:46:24Z</time>
      </trkpt>
      <trkpt lat="46.16753" lon="5.71603">
        <ele>540</ele>
        <time>2019-04-18T02:47:24Z</time>
      </trkpt>
      <trkpt lat="46.16756" lon="5.71625">
        <ele>540</ele>
        <time>2019-04-18T02:48:24Z</time>
      </trkpt>
      <trkpt lat="46.16764" lon="5.71707">
        <ele>540</ele>
        <time>2019-04-18T02:49:24Z</time>
      </trkpt>
      <trkpt lat="46.16776" lon="5.71747">
        <ele>541</ele>
        <time>2019-04-18T02:50:24Z</time>
      </trkpt>
      <trkpt lat="46.16788" lon="5.71773">
        <ele>541</ele>
        <time>2019-04-18T02:51:24Z</time>
      </trkpt>
      <trkpt lat="46.16867" lon="5.71879">
        <ele>541</ele>
        <time>2019-04-18T02:52:24Z</time>
      </trkpt>
      <trkpt lat="46.16879" lon="5.719">
        <ele>540</ele>
        <time>2019-04-18T02:53:24Z</time>
      </trkpt>
      <trkpt lat="46.16888" lon="5.71921">
        <ele>538</ele>
        <time>2019-04-18T02:54:24Z</time>
      </trkpt>
      <trkpt lat="46.16894" lon="5.71946">
        <ele>536</ele>
        <time>2019-04-18T02:55:24Z</time>
      </trkpt>
      <trkpt lat="46.1691" lon="5.72073">
        <ele>527</ele>
        <time>2019-04-18T02:56:24Z</time>
      </trkpt>
      <trkpt lat="46.16918" lon="5.72111">
        <ele>525</ele>
        <time>2019-04-18T02:57:24Z</time>
      </trkpt>
      <trkpt lat="46.16986" lon="5.72314">
        <ele>523</ele>
        <time>2019-04-18T02:58:24Z</time>
      </trkpt>
      <trkpt lat="46.16993" lon="5.7233">
        <ele>522</ele>
        <time>2019-04-18T02:59:24Z</time>
      </trkpt>
      <trkpt lat="46.17009" lon="5.72357">
        <ele>522</ele>
        <time>2019-04-18T03:00:24Z</time>
      </trkpt>
      <trkpt lat="46.17025" lon="5.72377">
        <ele>523</ele>
        <time>2019-04-18T03:01:24Z</time>
      </trkpt>
      <trkpt lat="46.17043" lon="5.72394">
        <ele>523</ele>
        <time>2019-04-18T03:02:24Z</time>
      </trkpt>
      <trkpt lat="46.1709" lon="5.72426">
        <ele>523</ele>
        <time>2019-04-18T03:03:24Z</time>
      </trkpt>
      <trkpt lat="46.17121" lon="5.72463">
        <ele>526</ele>
        <time>2019-04-18T03:04:24Z</time>
      </trkpt>
      <trkpt lat="46.17142" lon="5.725">
        <ele>527</ele>
        <time>2019-04-18T03:05:24Z</time>
      </trkpt>
      <trkpt lat="46.17162" lon="5.72568">
        <ele>524</ele>
        <time>2019-04-18T03:06:24Z</time>
      </trkpt>
      <trkpt lat="46.17177" lon="5.72633">
        <ele>525</ele>
        <time>2019-04-18T03:07:24Z</time>
      </trkpt>
      <trkpt lat="46.17186" lon="5.72687">
        <ele>525</ele>
        <time>2019-04-18T03:08:24Z</time>
      </trkpt>
      <trkpt lat="46.17198" lon="5.72732">
        <ele>525</ele>
        <time>2019-04-18T03:09:24Z</time>
      </trkpt>
      <trkpt lat="46.17226" lon="5.72795">
        <ele>522</ele>
        <time>2019-04-18T03:10:24Z</time>
      </trkpt>
      <trkpt lat="46.17275" lon="5.72884">
        <ele>514</ele>
        <time>2019-04-18T03:11:24Z</time>
      </trkpt>
      <trkpt lat="46.17281" lon="5.72907">
        <ele>513</ele>
        <time>2019-04-18T03:12:24Z</time>
      </trkpt>
      <trkpt lat="46.17288" lon="5.72906">
        <ele>513</ele>
        <time>2019-04-18T03:13:24Z</time>
      </trkpt>
      <trkpt lat="46.17296" lon="5.72912">
        <ele>512</ele>
        <time>2019-04-18T03:14:24Z</time>
      </trkpt>
      <trkpt lat="46.17385" lon="5.7304">
        <ele>515</ele>
        <time>2019-04-18T03:15:24Z</time>
      </trkpt>
      <trkpt lat="46.17445" lon="5.73121">
        <ele>514</ele>
        <time>2019-04-18T03:16:24Z</time>
      </trkpt>
      <trkpt lat="46.17518" lon="5.73225">
        <ele>510</ele>
        <time>2019-04-18T03:17:24Z</time>
      </trkpt>
      <trkpt lat="46.17575" lon="5.73281">
        <ele>510</ele>
        <time>2019-04-18T03:18:24Z</time>
      </trkpt>
      <trkpt lat="46.17586" lon="5.73294">
        <ele>510</ele>
        <time>2019-04-18T03:19:24Z</time>
      </trkpt>
      <trkpt lat="46.176" lon="5.73316">
        <ele>510</ele>
        <time>2019-04-18T03:20:24Z</time>
      </trkpt>
      <trkpt lat="46.17622" lon="5.73361">
        <ele>510</ele>
        <time>2019-04-18T03:21:24Z</time>
      </trkpt>
      <trkpt lat="46.17629" lon="5.7337">
        <ele>510</ele>
        <time>2019-04-18T03:22:24Z</time>
      </trkpt>
      <trkpt lat="46.17647" lon="5.73383">
        <ele>510</ele>
        <time>2019-04-18T03:23:24Z</time>
      </trkpt>
      <trkpt lat="46.17662" lon="5.73397">
        <ele>509</ele>
        <time>2019-04-18T03:24:24Z</time>
      </trkpt>
      <trkpt lat="46.17687" lon="5.73431">
        <ele>510</ele>
        <time>2019-04-18T03:25:24Z</time>
      </trkpt>
      <trkpt lat="46.17765" lon="5.73551">
        <ele>512</ele>
        <time>2019-04-18T03:26:24Z</time>
      </trkpt>
      <trkpt lat="46.17779" lon="5.73576">
        <ele>512</ele>
        <time>2019-04-18T03:27:24Z</time>
      </trkpt>
      <trkpt lat="46.17796" lon="5.73623">
        <ele>513</ele>
        <time>2019-04-18T03:28:24Z</time>
      </trkpt>
      <trkpt lat="46.178" lon="5.7365">
        <ele>514</ele>
        <time>2019-04-18T03:29:24Z</time>
      </trkpt>
      <trkpt lat="46.17799" lon="5.73712">
        <ele>513</ele>
        <time>2019-04-18T03:30:24Z</time>
      </trkpt>
      <trkpt lat="46.17806" lon="5.73783">
        <ele>512</ele>
        <time>2019-04-18T03:31:24Z</time>
      </trkpt>
      <trkpt lat="46.17801" lon="5.73834">
        <ele>508</ele>
        <time>2019-04-18T03:32:24Z</time>
      </trkpt>
      <trkpt lat="46.17804" lon="5.73842">
        <ele>507</ele>
        <time>2019-04-18T03:33:24Z</time>
      </trkpt>
      <trkpt lat="46.17744" lon="5.73922">
        <ele>502</ele>
        <time>2019-04-18T03:34:24Z</time>
      </trkpt>
      <trkpt lat="46.17726" lon="5.7396">
        <ele>503</ele>
        <time>2019-04-18T03:35:24Z</time>
      </trkpt>
      <trkpt lat="46.17695" lon="5.74073">
        <ele>497</ele>
        <time>2019-04-18T03:36:24Z</time>
      </trkpt>
      <trkpt lat="46.17688" lon="5.74092">
        <ele>497</ele>
        <time>2019-04-18T03:37:24Z</time>
      </trkpt>
      <trkpt lat="46.1768" lon="5.74094">
        <ele>498</ele>
        <time>2019-04-18T03:38:24Z</time>
      </trkpt>
      <trkpt lat="46.17681" lon="5.74112">
        <ele>496</ele>
        <time>2019-04-18T03:39:24Z</time>
      </trkpt>
      <trkpt lat="46.1768" lon="5.7414">
        <ele>494</ele>
        <time>2019-04-18T03:40:24Z</time>
      </trkpt>
      <trkpt lat="46.17679" lon="5.74152">
        <ele>493</ele>
        <time>2019-04-18T03:41:24Z</time>
      </trkpt>
      <trkpt lat="46.17672" lon="5.74178">
        <ele>492</ele>
        <time>2019-04-18T03:42:24Z</time>
      </trkpt>
      <trkpt lat="46.17655" lon="5.74216">
        <ele>492</ele>
        <time>2019-04-18T03:43:24Z</time>
      </trkpt>
      <trkpt lat="46.17548" lon="5.74384">
        <ele>502</ele>
        <time>2019-04-18T03:44:24Z</time>
      </trkpt>
      <trkpt lat="46.17536" lon="5.74409">
        <ele>501</ele>
        <time>2019-04-18T03:45:24Z</time>
      </trkpt>
      <trkpt lat="46.17522" lon="5.74442">
        <ele>500</ele>
        <time>2019-04-18T03:46:24Z</time>
      </trkpt>
      <trkpt lat="46.175" lon="5.74514">
        <ele>489</ele>
        <time>2019-04-18T03:47:24Z</time>
      </trkpt>
      <trkpt lat="46.17494" lon="5.74526">
        <ele>489</ele>
        <time>2019-04-18T03:48:24Z</time>
      </trkpt>
      <trkpt lat="46.17481" lon="5.74546">
        <ele>488</ele>
        <time>2019-04-18T03:49:24Z</time>
      </trkpt>
      <trkpt lat="46.17472" lon="5.74555">
        <ele>488</ele>
        <time>2019-04-18T03:50:24Z</time>
      </trkpt>
      <trkpt lat="46.17451" lon="5.7457">
        <ele>489</ele>
        <time>2019-04-18T03:51:24Z</time>
      </trkpt>
      <trkpt lat="46.17386" lon="5.74611">
        <ele>493</ele>
        <time>2019-04-18T03:52:24Z</time>
      </trkpt>
      <trkpt lat="46.17348" lon="5.7463">
        <ele>493</ele>
        <time>2019-04-18T03:53:24Z</time>
      </trkpt>
      <trkpt lat="46.17308" lon="5.74647">
        <ele>492</ele>
        <time>2019-04-18T03:54:24Z</time>
      </trkpt>
      <trkpt lat="46.17292" lon="5.74656">
        <ele>490</ele>
        <time>2019-04-18T03:55:24Z</time>
      </trkpt>
      <trkpt lat="46.17265" lon="5.74683">
        <ele>487</ele>
        <time>2019-04-18T03:56:24Z</time>
      </trkpt>
      <trkpt lat="46.17181" lon="5.74758">
        <ele>484</ele>
        <time>2019-04-18T03:57:24Z</time>
      </trkpt>
      <trkpt lat="46.17169" lon="5.74777">
        <ele>484</ele>
        <time>2019-04-18T03:58:24Z</time>
      </trkpt>
      <trkpt lat="46.17156" lon="5.7481">
        <ele>483</ele>
        <time>2019-04-18T03:59:24Z</time>
      </trkpt>
      <trkpt lat="46.17133" lon="5.74884">
        <ele>481</ele>
        <time>2019-04-18T04:00:24Z</time>
      </trkpt>
      <trkpt lat="46.17117" lon="5.74918">
        <ele>482</ele>
        <time>2019-04-18T04:01:24Z</time>
      </trkpt>
      <trkpt lat="46.17091" lon="5.74956">
        <ele>480</ele>
        <time>2019-04-18T04:02:24Z</time>
      </trkpt>
      <trkpt lat="46.17054" lon="5.75002">
        <ele>480</ele>
        <time>2019-04-18T04:03:24Z</time>
      </trkpt>
      <trkpt lat="46.17043" lon="5.75018">
        <ele>481</ele>
        <time>2019-04-18T04:04:24Z</time>
      </trkpt>
      <trkpt lat="46.17027" lon="5.75046">
        <ele>481</ele>
        <time>2019-04-18T04:05:24Z</time>
      </trkpt>
      <trkpt lat="46.17006" lon="5.75099">
        <ele>478</ele>
        <time>2019-04-18T04:06:24Z</time>
      </trkpt>
      <trkpt lat="46.16995" lon="5.7513">
        <ele>475</ele>
        <time>2019-04-18T04:07:24Z</time>
      </trkpt>
      <trkpt lat="46.16983" lon="5.75173">
        <ele>471</ele>
        <time>2019-04-18T04:08:24Z</time>
      </trkpt>
      <trkpt lat="46.16959" lon="5.75275">
        <ele>465</ele>
        <time>2019-04-18T04:09:24Z</time>
      </trkpt>
      <trkpt lat="46.16951" lon="5.75301">
        <ele>465</ele>
        <time>2019-04-18T04:10:24Z</time>
      </trkpt>
      <trkpt lat="46.16932" lon="5.75346">
        <ele>464</ele>
        <time>2019-04-18T04:11:24Z</time>
      </trkpt>
      <trkpt lat="46.16899" lon="5.75408">
        <ele>461</ele>
        <time>2019-04-18T04:12:24Z</time>
      </trkpt>
      <trkpt lat="46.16885" lon="5.75443">
        <ele>461</ele>
        <time>2019-04-18T04:13:24Z</time>
      </trkpt>
      <trkpt lat="46.16868" lon="5.75496">
        <ele>460</ele>
        <time>2019-04-18T04:14:24Z</time>
      </trkpt>
      <trkpt lat="46.1683" lon="5.75646">
        <ele>450</ele>
        <time>2019-04-18T04:15:24Z</time>
      </trkpt>
      <trkpt lat="46.16799" lon="5.75753">
        <ele>442</ele>
        <time>2019-04-18T04:16:24Z</time>
      </trkpt>
      <trkpt lat="46.16778" lon="5.75806">
        <ele>439</ele>
        <time>2019-04-18T04:17:24Z</time>
      </trkpt>
      <trkpt lat="46.16733" lon="5.75904">
        <ele>436</ele>
        <time>2019-04-18T04:18:24Z</time>
      </trkpt>
      <trkpt lat="46.16707" lon="5.75962">
        <ele>436</ele>
        <time>2019-04-18T04:19:24Z</time>
      </trkpt>
      <trkpt lat="46.16688" lon="5.76001">
        <ele>435</ele>
        <time>2019-04-18T04:20:24Z</time>
      </trkpt>
      <trkpt lat="46.16656" lon="5.76057">
        <ele>435</ele>
        <time>2019-04-18T04:21:24Z</time>
      </trkpt>
      <trkpt lat="46.16605" lon="5.76123">
        <ele>435</ele>
        <time>2019-04-18T04:22:24Z</time>
      </trkpt>
      <trkpt lat="46.16531" lon="5.76204">
        <ele>439</ele>
        <time>2019-04-18T04:23:24Z</time>
      </trkpt>
      <trkpt lat="46.16494" lon="5.76248">
        <ele>438</ele>
        <time>2019-04-18T04:24:24Z</time>
      </trkpt>
      <trkpt lat="46.16471" lon="5.7628">
        <ele>448</ele>
        <time>2019-04-18T04:25:24Z</time>
      </trkpt>
      <trkpt lat="46.16457" lon="5.76304">
        <ele>453</ele>
        <time>2019-04-18T04:26:24Z</time>
      </trkpt>
      <trkpt lat="46.16435" lon="5.76348">
        <ele>456</ele>
        <time>2019-04-18T04:27:24Z</time>
      </trkpt>
      <trkpt lat="46.16427" lon="5.76368">
        <ele>455</ele>
        <time>2019-04-18T04:28:24Z</time>
      </trkpt>
      <trkpt lat="46.16406" lon="5.76432">
        <ele>453</ele>
        <time>2019-04-18T04:29:24Z</time>
      </trkpt>
      <trkpt lat="46.16393" lon="5.76495">
        <ele>453</ele>
        <time>2019-04-18T04:30:24Z</time>
      </trkpt>
      <trkpt lat="46.16388" lon="5.76528">
        <ele>453</ele>
        <time>2019-04-18T04:31:24Z</time>
      </trkpt>
      <trkpt lat="46.16381" lon="5.76601">
        <ele>453</ele>
        <time>2019-04-18T04:32:24Z</time>
      </trkpt>
      <trkpt lat="46.16374" lon="5.76651">
        <ele>453</ele>
        <time>2019-04-18T04:33:24Z</time>
      </trkpt>
      <trkpt lat="46.16365" lon="5.76688">
        <ele>454</ele>
        <time>2019-04-18T04:34:24Z</time>
      </trkpt>
      <trkpt lat="46.16349" lon="5.76745">
        <ele>452</ele>
        <time>2019-04-18T04:35:24Z</time>
      </trkpt>
      <trkpt lat="46.1632" lon="5.76812">
        <ele>454</ele>
        <time>2019-04-18T04:36:24Z</time>
      </trkpt>
      <trkpt lat="46.16302" lon="5.76863">
        <ele>456</ele>
        <time>2019-04-18T04:37:24Z</time>
      </trkpt>
      <trkpt lat="46.16292" lon="5.76904">
        <ele>454</ele>
        <time>2019-04-18T04:38:24Z</time>
      </trkpt>
      <trkpt lat="46.1628" lon="5.76982">
        <ele>450</ele>
        <time>2019-04-18T04:39:24Z</time>
      </trkpt>
      <trkpt lat="46.16271" lon="5.77024">
        <ele>450</ele>
        <time>2019-04-18T04:40:24Z</time>
      </trkpt>
      <trkpt lat="46.16258" lon="5.77062">
        <ele>450</ele>
        <time>2019-04-18T04:41:24Z</time>
      </trkpt>
      <trkpt lat="46.16229" lon="5.77128">
        <ele>453</ele>
        <time>2019-04-18T04:42:24Z</time>
      </trkpt>
      <trkpt lat="46.16222" lon="5.77149">
        <ele>455</ele>
        <time>2019-04-18T04:43:24Z</time>
      </trkpt>
      <trkpt lat="46.16218" lon="5.77162">
        <ele>455</ele>
        <time>2019-04-18T04:44:24Z</time>
      </trkpt>
      <trkpt lat="46.16213" lon="5.77192">
        <ele>459</ele>
        <time>2019-04-18T04:45:24Z</time>
      </trkpt>
      <trkpt lat="46.16213" lon="5.77225">
        <ele>461</ele>
        <time>2019-04-18T04:46:24Z</time>
      </trkpt>
      <trkpt lat="46.16215" lon="5.77256">
        <ele>462</ele>
        <time>2019-04-18T04:47:24Z</time>
      </trkpt>
      <trkpt lat="46.1624" lon="5.77499">
        <ele>459</ele>
        <time>2019-04-18T04:48:24Z</time>
      </trkpt>
      <trkpt lat="46.16241" lon="5.77521">
        <ele>458</ele>
        <time>2019-04-18T04:49:24Z</time>
      </trkpt>
      <trkpt lat="46.16227" lon="5.77631">
        <ele>473</ele>
        <time>2019-04-18T04:50:24Z</time>
      </trkpt>
      <trkpt lat="46.16228" lon="5.77663">
        <ele>474</ele>
        <time>2019-04-18T04:51:24Z</time>
      </trkpt>
      <trkpt lat="46.16234" lon="5.77696">
        <ele>469</ele>
        <time>2019-04-18T04:52:24Z</time>
      </trkpt>
      <trkpt lat="46.16236" lon="5.77725">
        <ele>467</ele>
        <time>2019-04-18T04:53:24Z</time>
      </trkpt>
      <trkpt lat="46.16234" lon="5.77744">
        <ele>468</ele>
        <time>2019-04-18T04:54:24Z</time>
      </trkpt>
      <trkpt lat="46.16226" lon="5.77773">
        <ele>467</ele>
        <time>2019-04-18T04:55:24Z</time>
      </trkpt>
      <trkpt lat="46.16209" lon="5.77815">
        <ele>466</ele>
        <time>2019-04-18T04:56:24Z</time>
      </trkpt>
      <trkpt lat="46.16196" lon="5.77838">
        <ele>467</ele>
        <time>2019-04-18T04:57:24Z</time>
      </trkpt>
      <trkpt lat="46.16172" lon="5.77861">
        <ele>472</ele>
        <time>2019-04-18T04:58:24Z</time>
      </trkpt>
      <trkpt lat="46.16157" lon="5.77869">
        <ele>475</ele>
        <time>2019-04-18T04:59:24Z</time>
      </trkpt>
      <trkpt lat="46.1613" lon="5.7788">
        <ele>482</ele>
        <time>2019-04-18T05:00:24Z</time>
      </trkpt>
      <trkpt lat="46.16112" lon="5.77892">
        <ele>485</ele>
        <time>2019-04-18T05:01:24Z</time>
      </trkpt>
      <trkpt lat="46.16095" lon="5.77911">
        <ele>485</ele>
        <time>2019-04-18T05:02:24Z</time>
      </trkpt>
      <trkpt lat="46.16077" lon="5.77939">
        <ele>485</ele>
        <time>2019-04-18T05:03:24Z</time>
      </trkpt>
      <trkpt lat="46.16042" lon="5.78017">
        <ele>487</ele>
        <time>2019-04-18T05:04:24Z</time>
      </trkpt>
      <trkpt lat="46.15992" lon="5.78138">
        <ele>486</ele>
        <time>2019-04-18T05:05:24Z</time>
      </trkpt>
      <trkpt lat="46.15978" lon="5.78169">
        <ele>485</ele>
        <time>2019-04-18T05:06:24Z</time>
      </trkpt>
      <trkpt lat="46.15894" lon="5.78313">
        <ele>490</ele>
        <time>2019-04-18T05:07:24Z</time>
      </trkpt>
      <trkpt lat="46.15843" lon="5.78419">
        <ele>487</ele>
        <time>2019-04-18T05:08:24Z</time>
      </trkpt>
      <trkpt lat="46.15832" lon="5.78439">
        <ele>488</ele>
        <time>2019-04-18T05:09:24Z</time>
      </trkpt>
      <trkpt lat="46.15812" lon="5.78468">
        <ele>488</ele>
        <time>2019-04-18T05:10:24Z</time>
      </trkpt>
      <trkpt lat="46.15802" lon="5.78481">
        <ele>488</ele>
        <time>2019-04-18T05:11:24Z</time>
      </trkpt>
      <trkpt lat="46.1576" lon="5.78519">
        <ele>492</ele>
        <time>2019-04-18T05:12:24Z</time>
      </trkpt>
      <trkpt lat="46.1571" lon="5.7856">
        <ele>495</ele>
        <time>2019-04-18T05:13:24Z</time>
      </trkpt>
      <trkpt lat="46.15688" lon="5.78583">
        <ele>495</ele>
        <time>2019-04-18T05:14:24Z</time>
      </trkpt>
      <trkpt lat="46.15668" lon="5.78611">
        <ele>495</ele>
        <time>2019-04-18T05:15:24Z</time>
      </trkpt>
      <trkpt lat="46.15641" lon="5.7866">
        <ele>494</ele>
        <time>2019-04-18T05:16:24Z</time>
      </trkpt>
      <trkpt lat="46.15534" lon="5.7888">
        <ele>490</ele>
        <time>2019-04-18T05:17:24Z</time>
      </trkpt>
      <trkpt lat="46.15521" lon="5.78901">
        <ele>491</ele>
        <time>2019-04-18T05:18:24Z</time>
      </trkpt>
      <trkpt lat="46.15506" lon="5.78921">
        <ele>494</ele>
        <time>2019-04-18T05:19:24Z</time>
      </trkpt>
      <trkpt lat="46.15488" lon="5.78939">
        <ele>495</ele>
        <time>2019-04-18T05:20:24Z</time>
      </trkpt>
      <trkpt lat="46.15478" lon="5.78947">
        <ele>495</ele>
        <time>2019-04-18T05:21:24Z</time>
      </trkpt>
      <trkpt lat="46.15451" lon="5.78963">
        <ele>496</ele>
        <time>2019-04-18T05:22:24Z</time>
      </trkpt>
      <trkpt lat="46.15419" lon="5.78974">
        <ele>499</ele>
        <time>2019-04-18T05:23:24Z</time>
      </trkpt>
      <trkpt lat="46.15333" lon="5.78993">
        <ele>504</ele>
        <time>2019-04-18T05:24:24Z</time>
      </trkpt>
      <trkpt lat="46.15263" lon="5.79025">
        <ele>508</ele>
        <time>2019-04-18T05:25:24Z</time>
      </trkpt>
      <trkpt lat="46.1523" lon="5.79047">
        <ele>509</ele>
        <time>2019-04-18T05:26:24Z</time>
      </trkpt>
      <trkpt lat="46.1506" lon="5.7918">
        <ele>512</ele>
        <time>2019-04-18T05:27:24Z</time>
      </trkpt>
      <trkpt lat="46.14844" lon="5.7937">
        <ele>515</ele>
        <time>2019-04-18T05:28:24Z</time>
      </trkpt>
      <trkpt lat="46.14824" lon="5.79385">
        <ele>517</ele>
        <time>2019-04-18T05:29:24Z</time>
      </trkpt>
      <trkpt lat="46.14786" lon="5.79403">
        <ele>518</ele>
        <time>2019-04-18T05:30:24Z</time>
      </trkpt>
      <trkpt lat="46.14787" lon="5.79409">
        <ele>517</ele>
        <time>2019-04-18T05:31:24Z</time>
      </trkpt>
      <trkpt lat="46.14785" lon="5.7942">
        <ele>516</ele>
        <time>2019-04-18T05:32:24Z</time>
      </trkpt>
      <trkpt lat="46.14782" lon="5.79425">
        <ele>515</ele>
        <time>2019-04-18T05:33:24Z</time>
      </trkpt>
      <trkpt lat="46.14525" lon="5.79644">
        <ele>524</ele>
        <time>2019-04-18T05:34:24Z</time>
      </trkpt>
      <trkpt lat="46.14436" lon="5.79723">
        <ele>531</ele>
        <time>2019-04-18T05:35:24Z</time>
      </trkpt>
      <trkpt lat="46.14478" lon="5.79741">
        <ele>536</ele>
        <time>2019-04-18T05:36:24Z</time>
      </trkpt>
      <trkpt lat="46.1449" lon="5.79753">
        <ele>538</ele>
        <time>2019-04-18T05:37:24Z</time>
      </trkpt>
      <trkpt lat="46.14497" lon="5.79773">
        <ele>541</ele>
        <time>2019-04-18T05:38:24Z</time>
      </trkpt>
      <trkpt lat="46.14498" lon="5.79782">
        <ele>542</ele>
        <time>2019-04-18T05:39:24Z</time>
      </trkpt>
      <trkpt lat="46.14497" lon="5.79789">
        <ele>542</ele>
        <time>2019-04-18T05:40:24Z</time>
      </trkpt>
      <trkpt lat="46.14476" lon="5.79818">
        <ele>543</ele>
        <time>2019-04-18T05:41:24Z</time>
      </trkpt>
      <trkpt lat="46.14476" lon="5.79835">
        <ele>544</ele>
        <time>2019-04-18T05:42:24Z</time>
      </trkpt>
      <trkpt lat="46.14479" lon="5.79845">
        <ele>544</ele>
        <time>2019-04-18T05:43:24Z</time>
      </trkpt>
      <trkpt lat="46.14486" lon="5.79854">
        <ele>545</ele>
        <time>2019-04-18T05:44:24Z</time>
      </trkpt>
      <trkpt lat="46.14499" lon="5.79863">
        <ele>546</ele>
        <time>2019-04-18T05:45:24Z</time>
      </trkpt>
      <trkpt lat="46.14516" lon="5.79884">
        <ele>548</ele>
        <time>2019-04-18T05:46:24Z</time>
      </trkpt>
      <trkpt lat="46.14512" lon="5.79922">
        <ele>546</ele>
        <time>2019-04-18T05:47:24Z</time>
      </trkpt>
      <trkpt lat="46.14512" lon="5.79946">
        <ele>545</ele>
        <time>2019-04-18T05:48:24Z</time>
      </trkpt>
      <trkpt lat="46.14509" lon="5.79956">
        <ele>544</ele>
        <time>2019-04-18T05:49:24Z</time>
      </trkpt>
      <trkpt lat="46.14501" lon="5.79973">
        <ele>542</ele>
        <time>2019-04-18T05:50:24Z</time>
      </trkpt>
      <trkpt lat="46.14494" lon="5.80006">
        <ele>541</ele>
        <time>2019-04-18T05:51:24Z</time>
      </trkpt>
      <trkpt lat="46.14486" lon="5.80014">
        <ele>540</ele>
        <time>2019-04-18T05:52:24Z</time>
      </trkpt>
      <trkpt lat="46.14484" lon="5.80042">
        <ele>538</ele>
        <time>2019-04-18T05:53:24Z</time>
      </trkpt>
      <trkpt lat="46.14472" lon="5.8009">
        <ele>536</ele>
        <time>2019-04-18T05:54:24Z</time>
      </trkpt>
      <trkpt lat="46.14467" lon="5.80102">
        <ele>535</ele>
        <time>2019-04-18T05:55:24Z</time>
      </trkpt>
      <trkpt lat="46.14451" lon="5.80135">
        <ele>534</ele>
        <time>2019-04-18T05:56:24Z</time>
      </trkpt>
      <trkpt lat="46.14429" lon="5.80167">
        <ele>533</ele>
        <time>2019-04-18T05:57:24Z</time>
      </trkpt>
      <trkpt lat="46.14399" lon="5.80205">
        <ele>531</ele>
        <time>2019-04-18T05:58:24Z</time>
      </trkpt>
      <trkpt lat="46.14373" lon="5.80229">
        <ele>531</ele>
        <time>2019-04-18T05:59:24Z</time>
      </trkpt>
      <trkpt lat="46.14338" lon="5.80251">
        <ele>531</ele>
        <time>2019-04-18T06:00:24Z</time>
      </trkpt>
      <trkpt lat="46.14106" lon="5.80356">
        <ele>517</ele>
        <time>2019-04-18T06:01:24Z</time>
      </trkpt>
      <trkpt lat="46.13761" lon="5.80416">
        <ele>508</ele>
        <time>2019-04-18T06:02:24Z</time>
      </trkpt>
      <trkpt lat="46.13675" lon="5.80452">
        <ele>500</ele>
        <time>2019-04-18T06:03:24Z</time>
      </trkpt>
      <trkpt lat="46.13653" lon="5.80458">
        <ele>498</ele>
        <time>2019-04-18T06:04:24Z</time>
      </trkpt>
      <trkpt lat="46.1364" lon="5.80459">
        <ele>497</ele>
        <time>2019-04-18T06:05:24Z</time>
      </trkpt>
      <trkpt lat="46.13625" lon="5.80456">
        <ele>496</ele>
        <time>2019-04-18T06:06:24Z</time>
      </trkpt>
      <trkpt lat="46.13609" lon="5.80446">
        <ele>496</ele>
        <time>2019-04-18T06:07:24Z</time>
      </trkpt>
      <trkpt lat="46.13596" lon="5.80433">
        <ele>496</ele>
        <time>2019-04-18T06:08:24Z</time>
      </trkpt>
      <trkpt lat="46.13585" lon="5.80415">
        <ele>497</ele>
        <time>2019-04-18T06:09:24Z</time>
      </trkpt>
      <trkpt lat="46.13579" lon="5.80401">
        <ele>498</ele>
        <time>2019-04-18T06:10:24Z</time>
      </trkpt>
      <trkpt lat="46.13573" lon="5.80375">
        <ele>498</ele>
        <time>2019-04-18T06:11:24Z</time>
      </trkpt>
      <trkpt lat="46.13568" lon="5.80315">
        <ele>501</ele>
        <time>2019-04-18T06:12:24Z</time>
      </trkpt>
      <trkpt lat="46.13561" lon="5.80268">
        <ele>505</ele>
        <time>2019-04-18T06:13:24Z</time>
      </trkpt>
      <trkpt lat="46.13554" lon="5.80252">
        <ele>506</ele>
        <time>2019-04-18T06:14:24Z</time>
      </trkpt>
      <trkpt lat="46.13545" lon="5.80241">
        <ele>507</ele>
        <time>2019-04-18T06:15:24Z</time>
      </trkpt>
      <trkpt lat="46.13538" lon="5.80238">
        <ele>507</ele>
        <time>2019-04-18T06:16:24Z</time>
      </trkpt>
      <trkpt lat="46.13526" lon="5.8024">
        <ele>507</ele>
        <time>2019-04-18T06:17:24Z</time>
      </trkpt>
      <trkpt lat="46.1352" lon="5.80243">
        <ele>508</ele>
        <time>2019-04-18T06:18:24Z</time>
      </trkpt>
      <trkpt lat="46.13512" lon="5.80254">
        <ele>507</ele>
        <time>2019-04-18T06:19:24Z</time>
      </trkpt>
      <trkpt lat="46.13507" lon="5.80267">
        <ele>506</ele>
        <time>2019-04-18T06:20:24Z</time>
      </trkpt>
      <trkpt lat="46.13504" lon="5.80289">
        <ele>504</ele>
        <time>2019-04-18T06:21:24Z</time>
      </trkpt>
      <trkpt lat="46.13506" lon="5.8035">
        <ele>499</ele>
        <time>2019-04-18T06:22:24Z</time>
      </trkpt>
      <trkpt lat="46.13503" lon="5.80378">
        <ele>498</ele>
        <time>2019-04-18T06:23:24Z</time>
      </trkpt>
      <trkpt lat="46.13474" lon="5.80519">
        <ele>489</ele>
        <time>2019-04-18T06:24:24Z</time>
      </trkpt>
      <trkpt lat="46.13465" lon="5.80546">
        <ele>486</ele>
        <time>2019-04-18T06:25:24Z</time>
      </trkpt>
      <trkpt lat="46.13457" lon="5.8056">
        <ele>484</ele>
        <time>2019-04-18T06:26:24Z</time>
      </trkpt>
      <trkpt lat="46.13439" lon="5.80578">
        <ele>481</ele>
        <time>2019-04-18T06:27:24Z</time>
      </trkpt>
      <trkpt lat="46.13417" lon="5.80591">
        <ele>479</ele>
        <time>2019-04-18T06:28:24Z</time>
      </trkpt>
      <trkpt lat="46.13338" lon="5.80625">
        <ele>476</ele>
        <time>2019-04-18T06:29:24Z</time>
      </trkpt>
      <trkpt lat="46.13296" lon="5.80646">
        <ele>476</ele>
        <time>2019-04-18T06:30:24Z</time>
      </trkpt>
      <trkpt lat="46.1326" lon="5.80665">
        <ele>477</ele>
        <time>2019-04-18T06:31:24Z</time>
      </trkpt>
      <trkpt lat="46.13234" lon="5.80683">
        <ele>477</ele>
        <time>2019-04-18T06:32:24Z</time>
      </trkpt>
      <trkpt lat="46.13197" lon="5.80722">
        <ele>477</ele>
        <time>2019-04-18T06:33:24Z</time>
      </trkpt>
      <trkpt lat="46.13183" lon="5.80742">
        <ele>476</ele>
        <time>2019-04-18T06:34:24Z</time>
      </trkpt>
      <trkpt lat="46.13112" lon="5.80861">
        <ele>467</ele>
        <time>2019-04-18T06:35:24Z</time>
      </trkpt>
      <trkpt lat="46.13089" lon="5.80904">
        <ele>466</ele>
        <time>2019-04-18T06:36:24Z</time>
      </trkpt>
      <trkpt lat="46.13066" lon="5.8094">
        <ele>463</ele>
        <time>2019-04-18T06:37:24Z</time>
      </trkpt>
      <trkpt lat="46.1304" lon="5.80976">
        <ele>459</ele>
        <time>2019-04-18T06:38:24Z</time>
      </trkpt>
      <trkpt lat="46.1302" lon="5.80999">
        <ele>457</ele>
        <time>2019-04-18T06:39:24Z</time>
      </trkpt>
      <trkpt lat="46.12979" lon="5.81038">
        <ele>456</ele>
        <time>2019-04-18T06:40:24Z</time>
      </trkpt>
      <trkpt lat="46.1294" lon="5.81064">
        <ele>455</ele>
        <time>2019-04-18T06:41:24Z</time>
      </trkpt>
      <trkpt lat="46.12896" lon="5.81089">
        <ele>454</ele>
        <time>2019-04-18T06:42:24Z</time>
      </trkpt>
      <trkpt lat="46.12875" lon="5.81105">
        <ele>453</ele>
        <time>2019-04-18T06:43:24Z</time>
      </trkpt>
      <trkpt lat="46.12854" lon="5.81127">
        <ele>452</ele>
        <time>2019-04-18T06:44:24Z</time>
      </trkpt>
      <trkpt lat="46.12829" lon="5.81159">
        <ele>450</ele>
        <time>2019-04-18T06:45:24Z</time>
      </trkpt>
      <trkpt lat="46.12826" lon="5.81156">
        <ele>450</ele>
        <time>2019-04-18T06:46:24Z</time>
      </trkpt>
      <trkpt lat="46.12818" lon="5.81154">
        <ele>450</ele>
        <time>2019-04-18T06:47:24Z</time>
      </trkpt>
      <trkpt lat="46.12811" lon="5.81157">
        <ele>450</ele>
        <time>2019-04-18T06:48:24Z</time>
      </trkpt>
      <trkpt lat="46.12808" lon="5.81161">
        <ele>450</ele>
        <time>2019-04-18T06:49:24Z</time>
      </trkpt>
      <trkpt lat="46.12805" lon="5.81171">
        <ele>450</ele>
        <time>2019-04-18T06:50:24Z</time>
      </trkpt>
      <trkpt lat="46.12806" lon="5.81181">
        <ele>449</ele>
        <time>2019-04-18T06:51:24Z</time>
      </trkpt>
      <trkpt lat="46.12812" lon="5.81192">
        <ele>449</ele>
        <time>2019-04-18T06:52:24Z</time>
      </trkpt>
      <trkpt lat="46.12766" lon="5.81276">
        <ele>446</ele>
        <time>2019-04-18T06:53:24Z</time>
      </trkpt>
      <trkpt lat="46.12675" lon="5.81431">
        <ele>443</ele>
        <time>2019-04-18T06:54:24Z</time>
      </trkpt>
      <trkpt lat="46.12631" lon="5.81512">
        <ele>442</ele>
        <time>2019-04-18T06:55:24Z</time>
      </trkpt>
      <trkpt lat="46.12615" lon="5.81555">
        <ele>440</ele>
        <time>2019-04-18T06:56:24Z</time>
      </trkpt>
      <trkpt lat="46.12581" lon="5.8168">
        <ele>434</ele>
        <time>2019-04-18T06:57:24Z</time>
      </trkpt>
      <trkpt lat="46.12574" lon="5.81698">
        <ele>434</ele>
        <time>2019-04-18T06:58:24Z</time>
      </trkpt>
      <trkpt lat="46.12563" lon="5.81723">
        <ele>433</ele>
        <time>2019-04-18T06:59:24Z</time>
      </trkpt>
      <trkpt lat="46.12547" lon="5.81749">
        <ele>432</ele>
        <time>2019-04-18T07:00:24Z</time>
      </trkpt>
      <trkpt lat="46.12521" lon="5.81781">
        <ele>431</ele>
        <time>2019-04-18T07:01:24Z</time>
      </trkpt>
      <trkpt lat="46.12492" lon="5.81804">
        <ele>430</ele>
        <time>2019-04-18T07:02:24Z</time>
      </trkpt>
      <trkpt lat="46.1245" lon="5.81824">
        <ele>430</ele>
        <time>2019-04-18T07:03:24Z</time>
      </trkpt>
      <trkpt lat="46.1239" lon="5.81849">
        <ele>429</ele>
        <time>2019-04-18T07:04:24Z</time>
      </trkpt>
      <trkpt lat="46.12325" lon="5.81871">
        <ele>427</ele>
        <time>2019-04-18T07:05:24Z</time>
      </trkpt>
      <trkpt lat="46.12245" lon="5.81892">
        <ele>423</ele>
        <time>2019-04-18T07:06:24Z</time>
      </trkpt>
      <trkpt lat="46.12228" lon="5.81894">
        <ele>423</ele>
        <time>2019-04-18T07:07:24Z</time>
      </trkpt>
      <trkpt lat="46.12188" lon="5.81889">
        <ele>423</ele>
        <time>2019-04-18T07:08:24Z</time>
      </trkpt>
      <trkpt lat="46.12166" lon="5.8189">
        <ele>423</ele>
        <time>2019-04-18T07:09:24Z</time>
      </trkpt>
      <trkpt lat="46.12149" lon="5.81896">
        <ele>424</ele>
        <time>2019-04-18T07:10:24Z</time>
      </trkpt>
      <trkpt lat="46.12116" lon="5.81921">
        <ele>423</ele>
        <time>2019-04-18T07:11:24Z</time>
      </trkpt>
      <trkpt lat="46.12097" lon="5.8194">
        <ele>421</ele>
        <time>2019-04-18T07:12:24Z</time>
      </trkpt>
      <trkpt lat="46.12079" lon="5.81965">
        <ele>417</ele>
        <time>2019-04-18T07:13:24Z</time>
      </trkpt>
      <trkpt lat="46.12062" lon="5.81995">
        <ele>414</ele>
        <time>2019-04-18T07:14:24Z</time>
      </trkpt>
      <trkpt lat="46.12043" lon="5.82041">
        <ele>409</ele>
        <time>2019-04-18T07:15:24Z</time>
      </trkpt>
      <trkpt lat="46.12036" lon="5.82063">
        <ele>407</ele>
        <time>2019-04-18T07:16:24Z</time>
      </trkpt>
      <trkpt lat="46.12023" lon="5.82111">
        <ele>406</ele>
        <time>2019-04-18T07:17:24Z</time>
      </trkpt>
      <trkpt lat="46.12017" lon="5.82141">
        <ele>406</ele>
        <time>2019-04-18T07:18:24Z</time>
      </trkpt>
      <trkpt lat="46.12004" lon="5.82253">
        <ele>406</ele>
        <time>2019-04-18T07:19:24Z</time>
      </trkpt>
      <trkpt lat="46.11999" lon="5.82274">
        <ele>405</ele>
        <time>2019-04-18T07:20:24Z</time>
      </trkpt>
      <trkpt lat="46.11988" lon="5.82291">
        <ele>403</ele>
        <time>2019-04-18T07:21:24Z</time>
      </trkpt>
      <trkpt lat="46.11972" lon="5.82302">
        <ele>401</ele>
        <time>2019-04-18T07:22:24Z</time>
      </trkpt>
      <trkpt lat="46.11952" lon="5.82308">
        <ele>400</ele>
        <time>2019-04-18T07:23:24Z</time>
      </trkpt>
      <trkpt lat="46.11864" lon="5.82324">
        <ele>396</ele>
        <time>2019-04-18T07:24:24Z</time>
      </trkpt>
      <trkpt lat="46.11844" lon="5.82325">
        <ele>396</ele>
        <time>2019-04-18T07:25:24Z</time>
      </trkpt>
      <trkpt lat="46.11833" lon="5.82321">
        <ele>396</ele>
        <time>2019-04-18T07:26:24Z</time>
      </trkpt>
      <trkpt lat="46.11824" lon="5.82312">
        <ele>396</ele>
        <time>2019-04-18T07:27:24Z</time>
      </trkpt>
      <trkpt lat="46.11803" lon="5.82283">
        <ele>399</ele>
        <time>2019-04-18T07:28:24Z</time>
      </trkpt>
      <trkpt lat="46.11788" lon="5.82275">
        <ele>399</ele>
        <time>2019-04-18T07:29:24Z</time>
      </trkpt>
      <trkpt lat="46.1175" lon="5.82269">
        <ele>397</ele>
        <time>2019-04-18T07:30:24Z</time>
      </trkpt>
      <trkpt lat="46.11728" lon="5.82264">
        <ele>397</ele>
        <time>2019-04-18T07:31:24Z</time>
      </trkpt>
      <trkpt lat="46.11638" lon="5.82235">
        <ele>397</ele>
        <time>2019-04-18T07:32:24Z</time>
      </trkpt>
      <trkpt lat="46.11611" lon="5.82234">
        <ele>396</ele>
        <time>2019-04-18T07:33:24Z</time>
      </trkpt>
      <trkpt lat="46.11588" lon="5.82238">
        <ele>394</ele>
        <time>2019-04-18T07:34:24Z</time>
      </trkpt>
      <trkpt lat="46.11559" lon="5.82247">
        <ele>395</ele>
        <time>2019-04-18T07:35:24Z</time>
      </trkpt>
      <trkpt lat="46.11534" lon="5.82262">
        <ele>394</ele>
        <time>2019-04-18T07:36:24Z</time>
      </trkpt>
      <trkpt lat="46.11508" lon="5.82283">
        <ele>392</ele>
        <time>2019-04-18T07:37:24Z</time>
      </trkpt>
      <trkpt lat="46.11476" lon="5.82315">
        <ele>390</ele>
        <time>2019-04-18T07:38:24Z</time>
      </trkpt>
      <trkpt lat="46.11461" lon="5.82334">
        <ele>388</ele>
        <time>2019-04-18T07:39:24Z</time>
      </trkpt>
      <trkpt lat="46.11432" lon="5.82378">
        <ele>386</ele>
        <time>2019-04-18T07:40:24Z</time>
      </trkpt>
      <trkpt lat="46.11386" lon="5.8246">
        <ele>382</ele>
        <time>2019-04-18T07:41:24Z</time>
      </trkpt>
      <trkpt lat="46.11358" lon="5.82499">
        <ele>381</ele>
        <time>2019-04-18T07:42:24Z</time>
      </trkpt>
      <trkpt lat="46.11313" lon="5.82537">
        <ele>380</ele>
        <time>2019-04-18T07:43:24Z</time>
      </trkpt>
      <trkpt lat="46.11291" lon="5.82561">
        <ele>379</ele>
        <time>2019-04-18T07:44:24Z</time>
      </trkpt>
      <trkpt lat="46.1127" lon="5.82591">
        <ele>377</ele>
        <time>2019-04-18T07:45:24Z</time>
      </trkpt>
      <trkpt lat="46.1125" lon="5.82635">
        <ele>374</ele>
        <time>2019-04-18T07:46:24Z</time>
      </trkpt>
      <trkpt lat="46.11241" lon="5.82651">
        <ele>373</ele>
        <time>2019-04-18T07:47:24Z</time>
      </trkpt>
      <trkpt lat="46.11178" lon="5.82723">
        <ele>370</ele>
        <time>2019-04-18T07:48:24Z</time>
      </trkpt>
      <trkpt lat="46.11172" lon="5.82719">
        <ele>370</ele>
        <time>2019-04-18T07:49:24Z</time>
      </trkpt>
      <trkpt lat="46.11169" lon="5.82721">
        <ele>370</ele>
        <time>2019-04-18T07:50:24Z</time>
      </trkpt>
      <trkpt lat="46.11167" lon="5.82726">
        <ele>369</ele>
        <time>2019-04-18T07:51:24Z</time>
      </trkpt>
      <trkpt lat="46.11169" lon="5.82733">
        <ele>369</ele>
        <time>2019-04-18T07:52:24Z</time>
      </trkpt>
      <trkpt lat="46.11162" lon="5.82744">
        <ele>368</ele>
        <time>2019-04-18T07:53:24Z</time>
      </trkpt>
      <trkpt lat="46.11151" lon="5.82761">
        <ele>368</ele>
        <time>2019-04-18T07:54:24Z</time>
      </trkpt>
      <trkpt lat="46.11135" lon="5.82776">
        <ele>368</ele>
        <time>2019-04-18T07:55:24Z</time>
      </trkpt>
      <trkpt lat="46.11079" lon="5.82821">
        <ele>364</ele>
        <time>2019-04-18T07:56:24Z</time>
      </trkpt>
      <trkpt lat="46.11067" lon="5.82827">
        <ele>363</ele>
        <time>2019-04-18T07:57:24Z</time>
      </trkpt>
      <trkpt lat="46.11052" lon="5.82832">
        <ele>362</ele>
        <time>2019-04-18T07:58:24Z</time>
      </trkpt>
      <trkpt lat="46.11031" lon="5.82829">
        <ele>361</ele>
        <time>2019-04-18T07:59:24Z</time>
      </trkpt>
      <trkpt lat="46.11003" lon="5.82814">
        <ele>360</ele>
        <time>2019-04-18T08:00:24Z</time>
      </trkpt>
      <trkpt lat="46.11001" lon="5.8282">
        <ele>360</ele>
        <time>2019-04-18T08:01:24Z</time>
      </trkpt>
      <trkpt lat="46.10978" lon="5.8281">
        <ele>359</ele>
        <time>2019-04-18T08:02:24Z</time>
      </trkpt>
      <trkpt lat="46.10963" lon="5.8281">
        <ele>357</ele>
        <time>2019-04-18T08:03:24Z</time>
      </trkpt>
      <trkpt lat="46.10959" lon="5.82813">
        <ele>357</ele>
        <time>2019-04-18T08:04:24Z</time>
      </trkpt>
      <trkpt lat="46.10956" lon="5.82807">
        <ele>357</ele>
        <time>2019-04-18T08:05:24Z</time>
      </trkpt>
      <trkpt lat="46.1086" lon="5.82904">
        <ele>347</ele>
        <time>2019-04-18T08:06:24Z</time>
      </trkpt>
      <trkpt lat="46.10849" lon="5.8292">
        <ele>346</ele>
        <time>2019-04-18T08:07:24Z</time>
      </trkpt>
      <trkpt lat="46.10845" lon="5.82931">
        <ele>345</ele>
        <time>2019-04-18T08:08:24Z</time>
      </trkpt>
      <trkpt lat="46.10841" lon="5.82951">
        <ele>344</ele>
        <time>2019-04-18T08:09:24Z</time>
      </trkpt>
      <trkpt lat="46.10826" lon="5.83057">
        <ele>345</ele>
        <time>2019-04-18T08:10:24Z</time>
      </trkpt>
      <trkpt lat="46.10818" lon="5.83101">
        <ele>349</ele>
        <time>2019-04-18T08:11:24Z</time>
      </trkpt>
      <trkpt lat="46.10812" lon="5.83119">
        <ele>352</ele>
        <time>2019-04-18T08:12:24Z</time>
      </trkpt>
      <trkpt lat="46.10806" lon="5.83131">
        <ele>353</ele>
        <time>2019-04-18T08:13:24Z</time>
      </trkpt>
      <trkpt lat="46.10807" lon="5.83142">
        <ele>355</ele>
        <time>2019-04-18T08:14:24Z</time>
      </trkpt>
      <trkpt lat="46.10794" lon="5.83183">
        <ele>359</ele>
        <time>2019-04-18T08:15:24Z</time>
      </trkpt>
      <trkpt lat="46.1079" lon="5.83193">
        <ele>360</ele>
        <time>2019-04-18T08:16:24Z</time>
      </trkpt>
      <trkpt lat="46.1076" lon="5.83239">
        <ele>359</ele>
        <time>2019-04-18T08:17:24Z</time>
      </trkpt>
      <trkpt lat="46.10752" lon="5.83255">
        <ele>359</ele>
        <time>2019-04-18T08:18:24Z</time>
      </trkpt>
      <trkpt lat="46.10731" lon="5.83312">
        <ele>365</ele>
        <time>2019-04-18T08:19:24Z</time>
      </trkpt>
      <trkpt lat="46.10705" lon="5.8339">
        <ele>372</ele>
        <time>2019-04-18T08:20:24Z</time>
      </trkpt>
      <trkpt lat="46.10659" lon="5.83491">
        <ele>376</ele>
        <time>2019-04-18T08:21:24Z</time>
      </trkpt>
      <trkpt lat="46.10637" lon="5.83512">
        <ele>377</ele>
        <time>2019-04-18T08:22:24Z</time>
      </trkpt>
      <trkpt lat="46.10621" lon="5.83533">
        <ele>379</ele>
        <time>2019-04-18T08:23:24Z</time>
      </trkpt>
      <trkpt lat="46.10581" lon="5.83594">
        <ele>387</ele>
        <time>2019-04-18T08:24:24Z</time>
      </trkpt>
      <trkpt lat="46.1057" lon="5.83615">
        <ele>388</ele>
        <time>2019-04-18T08:25:24Z</time>
      </trkpt>
      <trkpt lat="46.10542" lon="5.83656">
        <ele>387</ele>
        <time>2019-04-18T08:26:24Z</time>
      </trkpt>
      <trkpt lat="46.10535" lon="5.83673">
        <ele>387</ele>
        <time>2019-04-18T08:27:24Z</time>
      </trkpt>
      <trkpt lat="46.1052" lon="5.83747">
        <ele>392</ele>
        <time>2019-04-18T08:28:24Z</time>
      </trkpt>
      <trkpt lat="46.10522" lon="5.8381">
        <ele>400</ele>
        <time>2019-04-18T08:29:24Z</time>
      </trkpt>
      <trkpt lat="46.10521" lon="5.83834">
        <ele>402</ele>
        <time>2019-04-18T08:30:24Z</time>
      </trkpt>
      <trkpt lat="46.10518" lon="5.83859">
        <ele>405</ele>
        <time>2019-04-18T08:31:24Z</time>
      </trkpt>
      <trkpt lat="46.10512" lon="5.83882">
        <ele>406</ele>
        <time>2019-04-18T08:32:24Z</time>
      </trkpt>
      <trkpt lat="46.10502" lon="5.83904">
        <ele>407</ele>
        <time>2019-04-18T08:33:24Z</time>
      </trkpt>
      <trkpt lat="46.10482" lon="5.83938">
        <ele>403</ele>
        <time>2019-04-18T08:34:24Z</time>
      </trkpt>
      <trkpt lat="46.10477" lon="5.83952">
        <ele>403</ele>
        <time>2019-04-18T08:35:24Z</time>
      </trkpt>
      <trkpt lat="46.10473" lon="5.83972">
        <ele>403</ele>
        <time>2019-04-18T08:36:24Z</time>
      </trkpt>
      <trkpt lat="46.10472" lon="5.84005">
        <ele>405</ele>
        <time>2019-04-18T08:37:24Z</time>
      </trkpt>
      <trkpt lat="46.10474" lon="5.84036">
        <ele>409</ele>
        <time>2019-04-18T08:38:24Z</time>
      </trkpt>
      <trkpt lat="46.10488" lon="5.84172">
        <ele>425</ele>
        <time>2019-04-18T08:39:24Z</time>
      </trkpt>
      <trkpt lat="46.10491" lon="5.84186">
        <ele>427</ele>
        <time>2019-04-18T08:40:24Z</time>
      </trkpt>
      <trkpt lat="46.10499" lon="5.84202">
        <ele>429</ele>
        <time>2019-04-18T08:41:24Z</time>
      </trkpt>
      <trkpt lat="46.10495" lon="5.84221">
        <ele>430</ele>
        <time>2019-04-18T08:42:24Z</time>
      </trkpt>
      <trkpt lat="46.10491" lon="5.84233">
        <ele>430</ele>
        <time>2019-04-18T08:43:24Z</time>
      </trkpt>
      <trkpt lat="46.10455" lon="5.84301">
        <ele>434</ele>
        <time>2019-04-18T08:44:24Z</time>
      </trkpt>
      <trkpt lat="46.10431" lon="5.84355">
        <ele>437</ele>
        <time>2019-04-18T08:45:24Z</time>
      </trkpt>
      <trkpt lat="46.10413" lon="5.84424">
        <ele>445</ele>
        <time>2019-04-18T08:46:24Z</time>
      </trkpt>
      <trkpt lat="46.10407" lon="5.84433">
        <ele>446</ele>
        <time>2019-04-18T08:47:24Z</time>
      </trkpt>
      <trkpt lat="46.10393" lon="5.84442">
        <ele>447</ele>
        <time>2019-04-18T08:48:24Z</time>
      </trkpt>
      <trkpt lat="46.10383" lon="5.84445">
        <ele>447</ele>
        <time>2019-04-18T08:49:24Z</time>
      </trkpt>
      <trkpt lat="46.10364" lon="5.84446">
        <ele>447</ele>
        <time>2019-04-18T08:50:24Z</time>
      </trkpt>
      <trkpt lat="46.10345" lon="5.84451">
        <ele>448</ele>
        <time>2019-04-18T08:51:24Z</time>
      </trkpt>
      <trkpt lat="46.10307" lon="5.84468">
        <ele>448</ele>
        <time>2019-04-18T08:52:24Z</time>
      </trkpt>
      <trkpt lat="46.10285" lon="5.84482">
        <ele>448</ele>
        <time>2019-04-18T08:53:24Z</time>
      </trkpt>
      <trkpt lat="46.10263" lon="5.84499">
        <ele>449</ele>
        <time>2019-04-18T08:54:24Z</time>
      </trkpt>
      <trkpt lat="46.10231" lon="5.8453">
        <ele>449</ele>
        <time>2019-04-18T08:55:24Z</time>
      </trkpt>
      <trkpt lat="46.10197" lon="5.84566">
        <ele>450</ele>
        <time>2019-04-18T08:56:24Z</time>
      </trkpt>
      <trkpt lat="46.1019" lon="5.84579">
        <ele>451</ele>
        <time>2019-04-18T08:57:24Z</time>
      </trkpt>
      <trkpt lat="46.10187" lon="5.84597">
        <ele>452</ele>
        <time>2019-04-18T08:58:24Z</time>
      </trkpt>
      <trkpt lat="46.10184" lon="5.84622">
        <ele>454</ele>
        <time>2019-04-18T08:59:24Z</time>
      </trkpt>
      <trkpt lat="46.10183" lon="5.8464">
        <ele>456</ele>
        <time>2019-04-18T09:00:24Z</time>
      </trkpt>
      <trkpt lat="46.10189" lon="5.84677">
        <ele>461</ele>
        <time>2019-04-18T09:01:24Z</time>
      </trkpt>
      <trkpt lat="46.10189" lon="5.84691">
        <ele>464</ele>
        <time>2019-04-18T09:02:24Z</time>
      </trkpt>
      <trkpt lat="46.10188" lon="5.847">
        <ele>466</ele>
        <time>2019-04-18T09:03:24Z</time>
      </trkpt>
      <trkpt lat="46.10183" lon="5.84711">
        <ele>468</ele>
        <time>2019-04-18T09:04:24Z</time>
      </trkpt>
      <trkpt lat="46.10173" lon="5.84723">
        <ele>469</ele>
        <time>2019-04-18T09:05:24Z</time>
      </trkpt>
      <trkpt lat="46.10137" lon="5.84743">
        <ele>471</ele>
        <time>2019-04-18T09:06:24Z</time>
      </trkpt>
      <trkpt lat="46.1008" lon="5.84784">
        <ele>473</ele>
        <time>2019-04-18T09:07:24Z</time>
      </trkpt>
      <trkpt lat="46.10074" lon="5.84791">
        <ele>474</ele>
        <time>2019-04-18T09:08:24Z</time>
      </trkpt>
      <trkpt lat="46.10059" lon="5.84816">
        <ele>477</ele>
        <time>2019-04-18T09:09:24Z</time>
      </trkpt>
      <trkpt lat="46.10044" lon="5.84829">
        <ele>478</ele>
        <time>2019-04-18T09:10:24Z</time>
      </trkpt>
      <trkpt lat="46.10036" lon="5.84833">
        <ele>478</ele>
        <time>2019-04-18T09:11:24Z</time>
      </trkpt>
      <trkpt lat="46.10024" lon="5.84834">
        <ele>478</ele>
        <time>2019-04-18T09:12:24Z</time>
      </trkpt>
      <trkpt lat="46.10009" lon="5.84832">
        <ele>477</ele>
        <time>2019-04-18T09:13:24Z</time>
      </trkpt>
      <trkpt lat="46.09971" lon="5.84821">
        <ele>474</ele>
        <time>2019-04-18T09:14:24Z</time>
      </trkpt>
      <trkpt lat="46.09954" lon="5.84824">
        <ele>473</ele>
        <time>2019-04-18T09:15:24Z</time>
      </trkpt>
      <trkpt lat="46.0994" lon="5.84831">
        <ele>474</ele>
        <time>2019-04-18T09:16:24Z</time>
      </trkpt>
      <trkpt lat="46.09907" lon="5.84867">
        <ele>476</ele>
        <time>2019-04-18T09:17:24Z</time>
      </trkpt>
      <trkpt lat="46.09878" lon="5.84902">
        <ele>477</ele>
        <time>2019-04-18T09:18:24Z</time>
      </trkpt>
      <trkpt lat="46.09854" lon="5.84947">
        <ele>477</ele>
        <time>2019-04-18T09:19:24Z</time>
      </trkpt>
      <trkpt lat="46.09815" lon="5.85011">
        <ele>475</ele>
        <time>2019-04-18T09:20:24Z</time>
      </trkpt>
      <trkpt lat="46.0981" lon="5.85027">
        <ele>475</ele>
        <time>2019-04-18T09:21:24Z</time>
      </trkpt>
      <trkpt lat="46.09809" lon="5.85035">
        <ele>475</ele>
        <time>2019-04-18T09:22:24Z</time>
      </trkpt>
      <trkpt lat="46.0981" lon="5.85044">
        <ele>476</ele>
        <time>2019-04-18T09:23:24Z</time>
      </trkpt>
      <trkpt lat="46.09825" lon="5.85073">
        <ele>479</ele>
        <time>2019-04-18T09:24:24Z</time>
      </trkpt>
      <trkpt lat="46.09828" lon="5.85097">
        <ele>482</ele>
        <time>2019-04-18T09:25:24Z</time>
      </trkpt>
      <trkpt lat="46.09825" lon="5.85107">
        <ele>483</ele>
        <time>2019-04-18T09:26:24Z</time>
      </trkpt>
      <trkpt lat="46.09818" lon="5.85116">
        <ele>483</ele>
        <time>2019-04-18T09:27:24Z</time>
      </trkpt>
      <trkpt lat="46.09753" lon="5.8518">
        <ele>480</ele>
        <time>2019-04-18T09:28:24Z</time>
      </trkpt>
      <trkpt lat="46.09699" lon="5.85266">
        <ele>482</ele>
        <time>2019-04-18T09:29:24Z</time>
      </trkpt>
      <trkpt lat="46.09661" lon="5.8532">
        <ele>483</ele>
        <time>2019-04-18T09:30:24Z</time>
      </trkpt>
      <trkpt lat="46.09615" lon="5.85394">
        <ele>482</ele>
        <time>2019-04-18T09:31:24Z</time>
      </trkpt>
      <trkpt lat="46.09602" lon="5.85419">
        <ele>481</ele>
        <time>2019-04-18T09:32:24Z</time>
      </trkpt>
      <trkpt lat="46.09592" lon="5.85472">
        <ele>481</ele>
        <time>2019-04-18T09:33:24Z</time>
      </trkpt>
      <trkpt lat="46.0959" lon="5.85519">
        <ele>482</ele>
        <time>2019-04-18T09:34:24Z</time>
      </trkpt>
      <trkpt lat="46.09593" lon="5.85557">
        <ele>482</ele>
        <time>2019-04-18T09:35:24Z</time>
      </trkpt>
      <trkpt lat="46.09596" lon="5.85572">
        <ele>482</ele>
        <time>2019-04-18T09:36:24Z</time>
      </trkpt>
      <trkpt lat="46.09603" lon="5.85587">
        <ele>484</ele>
        <time>2019-04-18T09:37:24Z</time>
      </trkpt>
      <trkpt lat="46.0963" lon="5.85631">
        <ele>489</ele>
        <time>2019-04-18T09:38:24Z</time>
      </trkpt>
      <trkpt lat="46.09632" lon="5.85637">
        <ele>489</ele>
        <time>2019-04-18T09:39:24Z</time>
      </trkpt>
      <trkpt lat="46.09633" lon="5.85648">
        <ele>488</ele>
        <time>2019-04-18T09:40:24Z</time>
      </trkpt>
      <trkpt lat="46.09625" lon="5.85666">
        <ele>485</ele>
        <time>2019-04-18T09:41:24Z</time>
      </trkpt>
      <trkpt lat="46.09605" lon="5.85697">
        <ele>485</ele>
        <time>2019-04-18T09:42:24Z</time>
      </trkpt>
      <trkpt lat="46.09593" lon="5.85709">
        <ele>486</ele>
        <time>2019-04-18T09:43:24Z</time>
      </trkpt>
      <trkpt lat="46.09554" lon="5.85729">
        <ele>489</ele>
        <time>2019-04-18T09:44:24Z</time>
      </trkpt>
      <trkpt lat="46.09527" lon="5.85732">
        <ele>490</ele>
        <time>2019-04-18T09:45:24Z</time>
      </trkpt>
      <trkpt lat="46.09505" lon="5.85731">
        <ele>490</ele>
        <time>2019-04-18T09:46:24Z</time>
      </trkpt>
      <trkpt lat="46.09465" lon="5.85736">
        <ele>494</ele>
        <time>2019-04-18T09:47:24Z</time>
      </trkpt>
      <trkpt lat="46.09447" lon="5.85729">
        <ele>495</ele>
        <time>2019-04-18T09:48:24Z</time>
      </trkpt>
      <trkpt lat="46.09413" lon="5.85704">
        <ele>494</ele>
        <time>2019-04-18T09:49:24Z</time>
      </trkpt>
      <trkpt lat="46.09403" lon="5.85702">
        <ele>494</ele>
        <time>2019-04-18T09:50:24Z</time>
      </trkpt>
      <trkpt lat="46.09396" lon="5.85703">
        <ele>494</ele>
        <time>2019-04-18T09:51:24Z</time>
      </trkpt>
      <trkpt lat="46.09379" lon="5.85713">
        <ele>496</ele>
        <time>2019-04-18T09:52:24Z</time>
      </trkpt>
      <trkpt lat="46.09361" lon="5.85735">
        <ele>498</ele>
        <time>2019-04-18T09:53:24Z</time>
      </trkpt>
      <trkpt lat="46.0935" lon="5.85752">
        <ele>500</ele>
        <time>2019-04-18T09:54:24Z</time>
      </trkpt>
      <trkpt lat="46.09338" lon="5.85776">
        <ele>501</ele>
        <time>2019-04-18T09:55:24Z</time>
      </trkpt>
      <trkpt lat="46.09321" lon="5.85835">
        <ele>500</ele>
        <time>2019-04-18T09:56:24Z</time>
      </trkpt>
      <trkpt lat="46.0928" lon="5.86024">
        <ele>501</ele>
        <time>2019-04-18T09:57:24Z</time>
      </trkpt>
      <trkpt lat="46.09217" lon="5.86002">
        <ele>493</ele>
        <time>2019-04-18T09:58:24Z</time>
      </trkpt>
      <trkpt lat="46.09195" lon="5.86001">
        <ele>490</ele>
        <time>2019-04-18T09:59:24Z</time>
      </trkpt>
      <trkpt lat="46.09185" lon="5.86003">
        <ele>488</ele>
        <time>2019-04-18T10:00:24Z</time>
      </trkpt>
      <trkpt lat="46.0918" lon="5.86006">
        <ele>488</ele>
        <time>2019-04-18T10:01:24Z</time>
      </trkpt>
      <trkpt lat="46.09175" lon="5.86016">
        <ele>487</ele>
        <time>2019-04-18T10:02:24Z</time>
      </trkpt>
      <trkpt lat="46.09173" lon="5.86054">
        <ele>488</ele>
        <time>2019-04-18T10:03:24Z</time>
      </trkpt>
      <trkpt lat="46.09177" lon="5.86143">
        <ele>489</ele>
        <time>2019-04-18T10:04:24Z</time>
      </trkpt>
      <trkpt lat="46.09175" lon="5.86159">
        <ele>489</ele>
        <time>2019-04-18T10:05:24Z</time>
      </trkpt>
      <trkpt lat="46.09172" lon="5.86165">
        <ele>488</ele>
        <time>2019-04-18T10:06:24Z</time>
      </trkpt>
      <trkpt lat="46.09166" lon="5.8617">
        <ele>487</ele>
        <time>2019-04-18T10:07:24Z</time>
      </trkpt>
      <trkpt lat="46.09176" lon="5.86211">
        <ele>488</ele>
        <time>2019-04-18T10:08:24Z</time>
      </trkpt>
      <trkpt lat="46.09181" lon="5.86237">
        <ele>489</ele>
        <time>2019-04-18T10:09:24Z</time>
      </trkpt>
      <trkpt lat="46.09207" lon="5.86394">
        <ele>501</ele>
        <time>2019-04-18T10:10:24Z</time>
      </trkpt>
      <trkpt lat="46.09209" lon="5.86418">
        <ele>502</ele>
        <time>2019-04-18T10:11:24Z</time>
      </trkpt>
      <trkpt lat="46.09206" lon="5.86466">
        <ele>501</ele>
        <time>2019-04-18T10:12:24Z</time>
      </trkpt>
      <trkpt lat="46.09208" lon="5.86495">
        <ele>501</ele>
        <time>2019-04-18T10:13:24Z</time>
      </trkpt>
      <trkpt lat="46.09215" lon="5.86523">
        <ele>502</ele>
        <time>2019-04-18T10:14:24Z</time>
      </trkpt>
      <trkpt lat="46.09234" lon="5.86581">
        <ele>506</ele>
        <time>2019-04-18T10:15:24Z</time>
      </trkpt>
      <trkpt lat="46.09236" lon="5.86595">
        <ele>507</ele>
        <time>2019-04-18T10:16:24Z</time>
      </trkpt>
      <trkpt lat="46.09237" lon="5.86622">
        <ele>507</ele>
        <time>2019-04-18T10:17:24Z</time>
      </trkpt>
      <trkpt lat="46.09234" lon="5.86644">
        <ele>506</ele>
        <time>2019-04-18T10:18:24Z</time>
      </trkpt>
      <trkpt lat="46.09224" lon="5.86691">
        <ele>505</ele>
        <time>2019-04-18T10:19:24Z</time>
      </trkpt>
      <trkpt lat="46.09216" lon="5.86714">
        <ele>505</ele>
        <time>2019-04-18T10:20:24Z</time>
      </trkpt>
      <trkpt lat="46.09176" lon="5.86806">
        <ele>500</ele>
        <time>2019-04-18T10:21:24Z</time>
      </trkpt>
      <trkpt lat="46.09171" lon="5.86822">
        <ele>500</ele>
        <time>2019-04-18T10:22:24Z</time>
      </trkpt>
      <trkpt lat="46.09165" lon="5.86867">
        <ele>500</ele>
        <time>2019-04-18T10:23:24Z</time>
      </trkpt>
      <trkpt lat="46.09165" lon="5.86897">
        <ele>501</ele>
        <time>2019-04-18T10:24:24Z</time>
      </trkpt>
      <trkpt lat="46.09178" lon="5.86988">
        <ele>507</ele>
        <time>2019-04-18T10:25:24Z</time>
      </trkpt>
      <trkpt lat="46.09185" lon="5.87089">
        <ele>509</ele>
        <time>2019-04-18T10:26:24Z</time>
      </trkpt>
      <trkpt lat="46.09186" lon="5.87103">
        <ele>509</ele>
        <time>2019-04-18T10:27:24Z</time>
      </trkpt>
      <trkpt lat="46.09191" lon="5.87126">
        <ele>510</ele>
        <time>2019-04-18T10:28:24Z</time>
      </trkpt>
      <trkpt lat="46.09204" lon="5.87158">
        <ele>511</ele>
        <time>2019-04-18T10:29:24Z</time>
      </trkpt>
      <trkpt lat="46.09216" lon="5.87179">
        <ele>513</ele>
        <time>2019-04-18T10:30:24Z</time>
      </trkpt>
      <trkpt lat="46.09233" lon="5.87202">
        <ele>514</ele>
        <time>2019-04-18T10:31:24Z</time>
      </trkpt>
      <trkpt lat="46.09259" lon="5.87231">
        <ele>515</ele>
        <time>2019-04-18T10:32:24Z</time>
      </trkpt>
      <trkpt lat="46.09323" lon="5.87286">
        <ele>512</ele>
        <time>2019-04-18T10:33:24Z</time>
      </trkpt>
      <trkpt lat="46.09347" lon="5.87311">
        <ele>512</ele>
        <time>2019-04-18T10:34:24Z</time>
      </trkpt>
      <trkpt lat="46.0936" lon="5.87328">
        <ele>513</ele>
        <time>2019-04-18T10:35:24Z</time>
      </trkpt>
      <trkpt lat="46.09384" lon="5.87365">
        <ele>512</ele>
        <time>2019-04-18T10:36:24Z</time>
      </trkpt>
      <trkpt lat="46.0941" lon="5.87413">
        <ele>511</ele>
        <time>2019-04-18T10:37:24Z</time>
      </trkpt>
      <trkpt lat="46.09624" lon="5.87845">
        <ele>512</ele>
        <time>2019-04-18T10:38:24Z</time>
      </trkpt>
      <trkpt lat="46.09658" lon="5.87927">
        <ele>511</ele>
        <time>2019-04-18T10:39:24Z</time>
      </trkpt>
      <trkpt lat="46.0967" lon="5.87949">
        <ele>512</ele>
        <time>2019-04-18T10:40:24Z</time>
      </trkpt>
      <trkpt lat="46.09691" lon="5.87976">
        <ele>513</ele>
        <time>2019-04-18T10:41:24Z</time>
      </trkpt>
      <trkpt lat="46.09706" lon="5.87988">
        <ele>514</ele>
        <time>2019-04-18T10:42:24Z</time>
      </trkpt>
      <trkpt lat="46.09745" lon="5.88014">
        <ele>515</ele>
        <time>2019-04-18T10:43:24Z</time>
      </trkpt>
      <trkpt lat="46.09818" lon="5.88057">
        <ele>516</ele>
        <time>2019-04-18T10:44:24Z</time>
      </trkpt>
      <trkpt lat="46.09853" lon="5.88072">
        <ele>516</ele>
        <time>2019-04-18T10:45:24Z</time>
      </trkpt>
      <trkpt lat="46.09879" lon="5.88077">
        <ele>517</ele>
        <time>2019-04-18T10:46:24Z</time>
      </trkpt>
      <trkpt lat="46.099" lon="5.88078">
        <ele>518</ele>
        <time>2019-04-18T10:47:24Z</time>
      </trkpt>
      <trkpt lat="46.09924" lon="5.88073">
        <ele>518</ele>
        <time>2019-04-18T10:48:24Z</time>
      </trkpt>
      <trkpt lat="46.09941" lon="5.88068">
        <ele>518</ele>
        <time>2019-04-18T10:49:24Z</time>
      </trkpt>
      <trkpt lat="46.09975" lon="5.88049">
        <ele>518</ele>
        <time>2019-04-18T10:50:24Z</time>
      </trkpt>
      <trkpt lat="46.10107" lon="5.87942">
        <ele>522</ele>
        <time>2019-04-18T10:51:24Z</time>
      </trkpt>
      <trkpt lat="46.10133" lon="5.87918">
        <ele>523</ele>
        <time>2019-04-18T10:52:24Z</time>
      </trkpt>
      <trkpt lat="46.10157" lon="5.87889">
        <ele>523</ele>
        <time>2019-04-18T10:53:24Z</time>
      </trkpt>
      <trkpt lat="46.10169" lon="5.87869">
        <ele>524</ele>
        <time>2019-04-18T10:54:24Z</time>
      </trkpt>
      <trkpt lat="46.10183" lon="5.87832">
        <ele>524</ele>
        <time>2019-04-18T10:55:24Z</time>
      </trkpt>
      <trkpt lat="46.10191" lon="5.87795">
        <ele>524</ele>
        <time>2019-04-18T10:56:24Z</time>
      </trkpt>
      <trkpt lat="46.10194" lon="5.87772">
        <ele>524</ele>
        <time>2019-04-18T10:57:24Z</time>
      </trkpt>
      <trkpt lat="46.10203" lon="5.87657">
        <ele>522</ele>
        <time>2019-04-18T10:58:24Z</time>
      </trkpt>
      <trkpt lat="46.1021" lon="5.87595">
        <ele>521</ele>
        <time>2019-04-18T10:59:24Z</time>
      </trkpt>
      <trkpt lat="46.10215" lon="5.87571">
        <ele>521</ele>
        <time>2019-04-18T11:00:24Z</time>
      </trkpt>
      <trkpt lat="46.10228" lon="5.87528">
        <ele>521</ele>
        <time>2019-04-18T11:01:24Z</time>
      </trkpt>
      <trkpt lat="46.10257" lon="5.87456">
        <ele>521</ele>
        <time>2019-04-18T11:02:24Z</time>
      </trkpt>
      <trkpt lat="46.10268" lon="5.87438">
        <ele>521</ele>
        <time>2019-04-18T11:03:24Z</time>
      </trkpt>
      <trkpt lat="46.10282" lon="5.87423">
        <ele>521</ele>
        <time>2019-04-18T11:04:24Z</time>
      </trkpt>
      <trkpt lat="46.10295" lon="5.87416">
        <ele>520</ele>
        <time>2019-04-18T11:05:24Z</time>
      </trkpt>
      <trkpt lat="46.10308" lon="5.87414">
        <ele>518</ele>
        <time>2019-04-18T11:06:24Z</time>
      </trkpt>
      <trkpt lat="46.1032" lon="5.87416">
        <ele>516</ele>
        <time>2019-04-18T11:07:24Z</time>
      </trkpt>
      <trkpt lat="46.10332" lon="5.87425">
        <ele>513</ele>
        <time>2019-04-18T11:08:24Z</time>
      </trkpt>
      <trkpt lat="46.10344" lon="5.87438">
        <ele>513</ele>
        <time>2019-04-18T11:09:24Z</time>
      </trkpt>
      <trkpt lat="46.10357" lon="5.87462">
        <ele>512</ele>
        <time>2019-04-18T11:10:24Z</time>
      </trkpt>
      <trkpt lat="46.10438" lon="5.87678">
        <ele>509</ele>
        <time>2019-04-18T11:11:24Z</time>
      </trkpt>
      <trkpt lat="46.10452" lon="5.87708">
        <ele>509</ele>
        <time>2019-04-18T11:12:24Z</time>
      </trkpt>
      <trkpt lat="46.10467" lon="5.87727">
        <ele>510</ele>
        <time>2019-04-18T11:13:24Z</time>
      </trkpt>
      <trkpt lat="46.1048" lon="5.8774">
        <ele>511</ele>
        <time>2019-04-18T11:14:24Z</time>
      </trkpt>
      <trkpt lat="46.10495" lon="5.87751">
        <ele>512</ele>
        <time>2019-04-18T11:15:24Z</time>
      </trkpt>
      <trkpt lat="46.10519" lon="5.87759">
        <ele>512</ele>
        <time>2019-04-18T11:16:24Z</time>
      </trkpt>
      <trkpt lat="46.10537" lon="5.87761">
        <ele>511</ele>
        <time>2019-04-18T11:17:24Z</time>
      </trkpt>
      <trkpt lat="46.10562" lon="5.87756">
        <ele>511</ele>
        <time>2019-04-18T11:18:24Z</time>
      </trkpt>
      <trkpt lat="46.10576" lon="5.87749">
        <ele>512</ele>
        <time>2019-04-18T11:19:24Z</time>
      </trkpt>
      <trkpt lat="46.10599" lon="5.87733">
        <ele>512</ele>
        <time>2019-04-18T11:20:24Z</time>
      </trkpt>
      <trkpt lat="46.1072" lon="5.87615">
        <ele>513</ele>
        <time>2019-04-18T11:21:24Z</time>
      </trkpt>
      <trkpt lat="46.10812" lon="5.87508">
        <ele>515</ele>
        <time>2019-04-18T11:22:24Z</time>
      </trkpt>
      <trkpt lat="46.10835" lon="5.87485">
        <ele>515</ele>
        <time>2019-04-18T11:23:24Z</time>
      </trkpt>
      <trkpt lat="46.10852" lon="5.87474">
        <ele>516</ele>
        <time>2019-04-18T11:24:24Z</time>
      </trkpt>
      <trkpt lat="46.10867" lon="5.8747">
        <ele>516</ele>
        <time>2019-04-18T11:25:24Z</time>
      </trkpt>
      <trkpt lat="46.10883" lon="5.87471">
        <ele>515</ele>
        <time>2019-04-18T11:26:24Z</time>
      </trkpt>
      <trkpt lat="46.10902" lon="5.87475">
        <ele>513</ele>
        <time>2019-04-18T11:27:24Z</time>
      </trkpt>
      <trkpt lat="46.10911" lon="5.87479">
        <ele>512</ele>
        <time>2019-04-18T11:28:24Z</time>
      </trkpt>
      <trkpt lat="46.10926" lon="5.8749">
        <ele>512</ele>
        <time>2019-04-18T11:29:24Z</time>
      </trkpt>
      <trkpt lat="46.1094" lon="5.87506">
        <ele>513</ele>
        <time>2019-04-18T11:30:24Z</time>
      </trkpt>
      <trkpt lat="46.10951" lon="5.87527">
        <ele>512</ele>
        <time>2019-04-18T11:31:24Z</time>
      </trkpt>
      <trkpt lat="46.10967" lon="5.87567">
        <ele>509</ele>
        <time>2019-04-18T11:32:24Z</time>
      </trkpt>
      <trkpt lat="46.10992" lon="5.87636">
        <ele>505</ele>
        <time>2019-04-18T11:33:24Z</time>
      </trkpt>
      <trkpt lat="46.11" lon="5.87663">
        <ele>503</ele>
        <time>2019-04-18T11:34:24Z</time>
      </trkpt>
      <trkpt lat="46.11004" lon="5.87697">
        <ele>501</ele>
        <time>2019-04-18T11:35:24Z</time>
      </trkpt>
      <trkpt lat="46.11008" lon="5.87765">
        <ele>494</ele>
        <time>2019-04-18T11:36:24Z</time>
      </trkpt>
      <trkpt lat="46.11012" lon="5.87785">
        <ele>492</ele>
        <time>2019-04-18T11:37:24Z</time>
      </trkpt>
      <trkpt lat="46.11026" lon="5.87817">
        <ele>492</ele>
        <time>2019-04-18T11:38:24Z</time>
      </trkpt>
      <trkpt lat="46.11042" lon="5.87841">
        <ele>490</ele>
        <time>2019-04-18T11:39:24Z</time>
      </trkpt>
      <trkpt lat="46.11058" lon="5.87854">
        <ele>490</ele>
        <time>2019-04-18T11:40:24Z</time>
      </trkpt>
      <trkpt lat="46.11074" lon="5.87862">
        <ele>491</ele>
        <time>2019-04-18T11:41:24Z</time>
      </trkpt>
      <trkpt lat="46.11133" lon="5.87881">
        <ele>494</ele>
        <time>2019-04-18T11:42:24Z</time>
      </trkpt>
      <trkpt lat="46.11145" lon="5.87888">
        <ele>494</ele>
        <time>2019-04-18T11:43:24Z</time>
      </trkpt>
      <trkpt lat="46.11211" lon="5.87942">
        <ele>489</ele>
        <time>2019-04-18T11:44:24Z</time>
      </trkpt>
      <trkpt lat="46.11232" lon="5.87953">
        <ele>490</ele>
        <time>2019-04-18T11:45:24Z</time>
      </trkpt>
      <trkpt lat="46.11276" lon="5.8797">
        <ele>492</ele>
        <time>2019-04-18T11:46:24Z</time>
      </trkpt>
      <trkpt lat="46.1129" lon="5.8798">
        <ele>491</ele>
        <time>2019-04-18T11:47:24Z</time>
      </trkpt>
      <trkpt lat="46.11305" lon="5.87995">
        <ele>489</ele>
        <time>2019-04-18T11:48:24Z</time>
      </trkpt>
      <trkpt lat="46.11316" lon="5.88013">
        <ele>487</ele>
        <time>2019-04-18T11:49:24Z</time>
      </trkpt>
      <trkpt lat="46.11324" lon="5.88031">
        <ele>485</ele>
        <time>2019-04-18T11:50:24Z</time>
      </trkpt>
      <trkpt lat="46.1133" lon="5.88051">
        <ele>483</ele>
        <time>2019-04-18T11:51:24Z</time>
      </trkpt>
      <trkpt lat="46.11341" lon="5.881">
        <ele>478</ele>
        <time>2019-04-18T11:52:24Z</time>
      </trkpt>
      <trkpt lat="46.11349" lon="5.88126">
        <ele>476</ele>
        <time>2019-04-18T11:53:24Z</time>
      </trkpt>
      <trkpt lat="46.11358" lon="5.88145">
        <ele>475</ele>
        <time>2019-04-18T11:54:24Z</time>
      </trkpt>
      <trkpt lat="46.11375" lon="5.88172">
        <ele>473</ele>
        <time>2019-04-18T11:55:24Z</time>
      </trkpt>
      <trkpt lat="46.11423" lon="5.88221">
        <ele>474</ele>
        <time>2019-04-18T11:56:24Z</time>
      </trkpt>
      <trkpt lat="46.11444" lon="5.88237">
        <ele>473</ele>
        <time>2019-04-18T11:57:24Z</time>
      </trkpt>
      <trkpt lat="46.11482" lon="5.88259">
        <ele>473</ele>
        <time>2019-04-18T11:58:24Z</time>
      </trkpt>
      <trkpt lat="46.11623" lon="5.88393">
        <ele>467</ele>
        <time>2019-04-18T11:59:24Z</time>
      </trkpt>
      <trkpt lat="46.11734" lon="5.88505">
        <ele>458</ele>
        <time>2019-04-18T12:00:24Z</time>
      </trkpt>
      <trkpt lat="46.11756" lon="5.88524">
        <ele>457</ele>
        <time>2019-04-18T12:01:24Z</time>
      </trkpt>
      <trkpt lat="46.11773" lon="5.88533">
        <ele>456</ele>
        <time>2019-04-18T12:02:24Z</time>
      </trkpt>
      <trkpt lat="46.11792" lon="5.88539">
        <ele>457</ele>
        <time>2019-04-18T12:03:24Z</time>
      </trkpt>
      <trkpt lat="46.11851" lon="5.88541">
        <ele>459</ele>
        <time>2019-04-18T12:04:24Z</time>
      </trkpt>
      <trkpt lat="46.11863" lon="5.88545">
        <ele>459</ele>
        <time>2019-04-18T12:05:24Z</time>
      </trkpt>
      <trkpt lat="46.1188" lon="5.88557">
        <ele>459</ele>
        <time>2019-04-18T12:06:24Z</time>
      </trkpt>
      <trkpt lat="46.11887" lon="5.88564">
        <ele>459</ele>
        <time>2019-04-18T12:07:24Z</time>
      </trkpt>
      <trkpt lat="46.119" lon="5.88583">
        <ele>458</ele>
        <time>2019-04-18T12:08:24Z</time>
      </trkpt>
      <trkpt lat="46.11906" lon="5.88597">
        <ele>457</ele>
        <time>2019-04-18T12:09:24Z</time>
      </trkpt>
      <trkpt lat="46.1191" lon="5.88612">
        <ele>456</ele>
        <time>2019-04-18T12:10:24Z</time>
      </trkpt>
      <trkpt lat="46.11915" lon="5.8864">
        <ele>454</ele>
        <time>2019-04-18T12:11:24Z</time>
      </trkpt>
      <trkpt lat="46.11917" lon="5.88673">
        <ele>452</ele>
        <time>2019-04-18T12:12:24Z</time>
      </trkpt>
      <trkpt lat="46.11914" lon="5.88716">
        <ele>451</ele>
        <time>2019-04-18T12:13:24Z</time>
      </trkpt>
      <trkpt lat="46.11905" lon="5.88803">
        <ele>445</ele>
        <time>2019-04-18T12:14:24Z</time>
      </trkpt>
      <trkpt lat="46.11903" lon="5.8883">
        <ele>443</ele>
        <time>2019-04-18T12:15:24Z</time>
      </trkpt>
      <trkpt lat="46.11904" lon="5.88861">
        <ele>441</ele>
        <time>2019-04-18T12:16:24Z</time>
      </trkpt>
      <trkpt lat="46.11908" lon="5.88884">
        <ele>440</ele>
        <time>2019-04-18T12:17:24Z</time>
      </trkpt>
      <trkpt lat="46.11919" lon="5.88914">
        <ele>441</ele>
        <time>2019-04-18T12:18:24Z</time>
      </trkpt>
      <trkpt lat="46.11933" lon="5.88938">
        <ele>439</ele>
        <time>2019-04-18T12:19:24Z</time>
      </trkpt>
      <trkpt lat="46.1195" lon="5.88955">
        <ele>439</ele>
        <time>2019-04-18T12:20:24Z</time>
      </trkpt>
      <trkpt lat="46.11995" lon="5.88982">
        <ele>442</ele>
        <time>2019-04-18T12:21:24Z</time>
      </trkpt>
      <trkpt lat="46.12015" lon="5.89005">
        <ele>447</ele>
        <time>2019-04-18T12:22:24Z</time>
      </trkpt>
      <trkpt lat="46.12021" lon="5.89014">
        <ele>451</ele>
        <time>2019-04-18T12:23:24Z</time>
      </trkpt>
      <trkpt lat="46.12029" lon="5.89033">
        <ele>456</ele>
        <time>2019-04-18T12:24:24Z</time>
      </trkpt>
      <trkpt lat="46.12158" lon="5.89443">
        <ele>444</ele>
        <time>2019-04-18T12:25:24Z</time>
      </trkpt>
      <trkpt lat="46.12178" lon="5.8952">
        <ele>440</ele>
        <time>2019-04-18T12:26:24Z</time>
      </trkpt>
      <trkpt lat="46.12184" lon="5.89538">
        <ele>440</ele>
        <time>2019-04-18T12:27:24Z</time>
      </trkpt>
      <trkpt lat="46.12193" lon="5.89557">
        <ele>442</ele>
        <time>2019-04-18T12:28:24Z</time>
      </trkpt>
      <trkpt lat="46.12209" lon="5.89585">
        <ele>446</ele>
        <time>2019-04-18T12:29:24Z</time>
      </trkpt>
      <trkpt lat="46.1225" lon="5.89672">
        <ele>450</ele>
        <time>2019-04-18T12:30:24Z</time>
      </trkpt>
      <trkpt lat="46.1226" lon="5.897">
        <ele>451</ele>
        <time>2019-04-18T12:31:24Z</time>
      </trkpt>
      <trkpt lat="46.12265" lon="5.89747">
        <ele>448</ele>
        <time>2019-04-18T12:32:24Z</time>
      </trkpt>
      <trkpt lat="46.12272" lon="5.8986">
        <ele>446</ele>
        <time>2019-04-18T12:33:24Z</time>
      </trkpt>
      <trkpt lat="46.12276" lon="5.89892">
        <ele>446</ele>
        <time>2019-04-18T12:34:24Z</time>
      </trkpt>
      <trkpt lat="46.12281" lon="5.89909">
        <ele>447</ele>
        <time>2019-04-18T12:35:24Z</time>
      </trkpt>
      <trkpt lat="46.12289" lon="5.89934">
        <ele>448</ele>
        <time>2019-04-18T12:36:24Z</time>
      </trkpt>
      <trkpt lat="46.12302" lon="5.89957">
        <ele>449</ele>
        <time>2019-04-18T12:37:24Z</time>
      </trkpt>
      <trkpt lat="46.12316" lon="5.89974">
        <ele>451</ele>
        <time>2019-04-18T12:38:24Z</time>
      </trkpt>
      <trkpt lat="46.12338" lon="5.89991">
        <ele>454</ele>
        <time>2019-04-18T12:39:24Z</time>
      </trkpt>
      <trkpt lat="46.12355" lon="5.9">
        <ele>455</ele>
        <time>2019-04-18T12:40:24Z</time>
      </trkpt>
      <trkpt lat="46.12371" lon="5.90004">
        <ele>456</ele>
        <time>2019-04-18T12:41:24Z</time>
      </trkpt>
      <trkpt lat="46.12416" lon="5.9001">
        <ele>460</ele>
        <time>2019-04-18T12:42:24Z</time>
      </trkpt>
      <trkpt lat="46.12492" lon="5.90025">
        <ele>464</ele>
        <time>2019-04-18T12:43:24Z</time>
      </trkpt>
      <trkpt lat="46.12519" lon="5.90027">
        <ele>465</ele>
        <time>2019-04-18T12:44:24Z</time>
      </trkpt>
      <trkpt lat="46.12552" lon="5.90026">
        <ele>467</ele>
        <time>2019-04-18T12:45:24Z</time>
      </trkpt>
      <trkpt lat="46.12623" lon="5.90013">
        <ele>473</ele>
        <time>2019-04-18T12:46:24Z</time>
      </trkpt>
      <trkpt lat="46.12655" lon="5.90013">
        <ele>474</ele>
        <time>2019-04-18T12:47:24Z</time>
      </trkpt>
      <trkpt lat="46.12675" lon="5.90016">
        <ele>476</ele>
        <time>2019-04-18T12:48:24Z</time>
      </trkpt>
      <trkpt lat="46.12712" lon="5.90028">
        <ele>478</ele>
        <time>2019-04-18T12:49:24Z</time>
      </trkpt>
      <trkpt lat="46.12806" lon="5.90074">
        <ele>479</ele>
        <time>2019-04-18T12:50:24Z</time>
      </trkpt>
      <trkpt lat="46.12849" lon="5.90092">
        <ele>481</ele>
        <time>2019-04-18T12:51:24Z</time>
      </trkpt>
      <trkpt lat="46.12916" lon="5.90117">
        <ele>486</ele>
        <time>2019-04-18T12:52:24Z</time>
      </trkpt>
      <trkpt lat="46.12989" lon="5.9015">
        <ele>485</ele>
        <time>2019-04-18T12:53:24Z</time>
      </trkpt>
      <trkpt lat="46.13034" lon="5.90181">
        <ele>482</ele>
        <time>2019-04-18T12:54:24Z</time>
      </trkpt>
      <trkpt lat="46.13039" lon="5.9017">
        <ele>484</ele>
        <time>2019-04-18T12:55:24Z</time>
      </trkpt>
      <trkpt lat="46.13046" lon="5.90164">
        <ele>485</ele>
        <time>2019-04-18T12:56:24Z</time>
      </trkpt>
      <trkpt lat="46.13053" lon="5.90162">
        <ele>486</ele>
        <time>2019-04-18T12:57:24Z</time>
      </trkpt>
      <trkpt lat="46.13067" lon="5.90163">
        <ele>486</ele>
        <time>2019-04-18T12:58:24Z</time>
      </trkpt>
      <trkpt lat="46.13349" lon="5.90229">
        <ele>491</ele>
        <time>2019-04-18T12:59:24Z</time>
      </trkpt>
      <trkpt lat="46.13589" lon="5.90288">
        <ele>495</ele>
        <time>2019-04-18T13:00:24Z</time>
      </trkpt>
      <trkpt lat="46.13695" lon="5.90311">
        <ele>500</ele>
        <time>2019-04-18T13:01:24Z</time>
      </trkpt>
      <trkpt lat="46.13764" lon="5.90339">
        <ele>500</ele>
        <time>2019-04-18T13:02:24Z</time>
      </trkpt>
      <trkpt lat="46.1382" lon="5.90373">
        <ele>500</ele>
        <time>2019-04-18T13:03:24Z</time>
      </trkpt>
      <trkpt lat="46.13839" lon="5.90379">
        <ele>500</ele>
        <time>2019-04-18T13:04:24Z</time>
      </trkpt>
      <trkpt lat="46.13858" lon="5.90382">
        <ele>500</ele>
        <time>2019-04-18T13:05:24Z</time>
      </trkpt>
      <trkpt lat="46.13979" lon="5.90383">
        <ele>500</ele>
        <time>2019-04-18T13:06:24Z</time>
      </trkpt>
      <trkpt lat="46.14068" lon="5.90379">
        <ele>502</ele>
        <time>2019-04-18T13:07:24Z</time>
      </trkpt>
      <trkpt lat="46.14223" lon="5.90393">
        <ele>508</ele>
        <time>2019-04-18T13:08:24Z</time>
      </trkpt>
      <trkpt lat="46.14241" lon="5.90399">
        <ele>508</ele>
        <time>2019-04-18T13:09:24Z</time>
      </trkpt>
      <trkpt lat="46.14248" lon="5.90394">
        <ele>509</ele>
        <time>2019-04-18T13:10:24Z</time>
      </trkpt>
      <trkpt lat="46.14888" lon="5.90438">
        <ele>526</ele>
        <time>2019-04-18T13:11:24Z</time>
      </trkpt>
      <trkpt lat="46.16556" lon="5.90544">
        <ele>503</ele>
        <time>2019-04-18T13:12:24Z</time>
      </trkpt>
      <trkpt lat="46.16732" lon="5.90559">
        <ele>513</ele>
        <time>2019-04-18T13:13:24Z</time>
      </trkpt>
      <trkpt lat="46.16744" lon="5.90564">
        <ele>513</ele>
        <time>2019-04-18T13:14:24Z</time>
      </trkpt>
      <trkpt lat="46.16776" lon="5.90583">
        <ele>514</ele>
        <time>2019-04-18T13:15:24Z</time>
      </trkpt>
      <trkpt lat="46.16844" lon="5.90608">
        <ele>517</ele>
        <time>2019-04-18T13:16:24Z</time>
      </trkpt>
      <trkpt lat="46.16881" lon="5.90629">
        <ele>518</ele>
        <time>2019-04-18T13:17:24Z</time>
      </trkpt>
      <trkpt lat="46.16893" lon="5.90639">
        <ele>517</ele>
        <time>2019-04-18T13:18:24Z</time>
      </trkpt>
      <trkpt lat="46.16908" lon="5.90648">
        <ele>517</ele>
        <time>2019-04-18T13:19:24Z</time>
      </trkpt>
      <trkpt lat="46.17023" lon="5.90709">
        <ele>520</ele>
        <time>2019-04-18T13:20:24Z</time>
      </trkpt>
      <trkpt lat="46.1705" lon="5.90733">
        <ele>520</ele>
        <time>2019-04-18T13:21:24Z</time>
      </trkpt>
      <trkpt lat="46.17068" lon="5.90745">
        <ele>520</ele>
        <time>2019-04-18T13:22:24Z</time>
      </trkpt>
      <trkpt lat="46.17079" lon="5.90748">
        <ele>521</ele>
        <time>2019-04-18T13:23:24Z</time>
      </trkpt>
      <trkpt lat="46.17109" lon="5.90753">
        <ele>522</ele>
        <time>2019-04-18T13:24:24Z</time>
      </trkpt>
      <trkpt lat="46.17125" lon="5.9076">
        <ele>522</ele>
        <time>2019-04-18T13:25:24Z</time>
      </trkpt>
      <trkpt lat="46.17259" lon="5.90849">
        <ele>520</ele>
        <time>2019-04-18T13:26:24Z</time>
      </trkpt>
      <trkpt lat="46.17316" lon="5.90894">
        <ele>523</ele>
        <time>2019-04-18T13:27:24Z</time>
      </trkpt>
      <trkpt lat="46.17457" lon="5.91027">
        <ele>524</ele>
        <time>2019-04-18T13:28:24Z</time>
      </trkpt>
      <trkpt lat="46.17507" lon="5.91078">
        <ele>524</ele>
        <time>2019-04-18T13:29:24Z</time>
      </trkpt>
      <trkpt lat="46.17612" lon="5.91192">
        <ele>521</ele>
        <time>2019-04-18T13:30:24Z</time>
      </trkpt>
      <trkpt lat="46.17681" lon="5.91278">
        <ele>519</ele>
        <time>2019-04-18T13:31:24Z</time>
      </trkpt>
      <trkpt lat="46.17754" lon="5.91374">
        <ele>516</ele>
        <time>2019-04-18T13:32:24Z</time>
      </trkpt>
      <trkpt lat="46.17773" lon="5.91406">
        <ele>515</ele>
        <time>2019-04-18T13:33:24Z</time>
      </trkpt>
      <trkpt lat="46.17793" lon="5.91459">
        <ele>512</ele>
        <time>2019-04-18T13:34:24Z</time>
      </trkpt>
      <trkpt lat="46.17805" lon="5.91483">
        <ele>511</ele>
        <time>2019-04-18T13:35:24Z</time>
      </trkpt>
      <trkpt lat="46.17812" lon="5.91493">
        <ele>511</ele>
        <time>2019-04-18T13:36:24Z</time>
      </trkpt>
      <trkpt lat="46.17827" lon="5.91507">
        <ele>510</ele>
        <time>2019-04-18T13:37:24Z</time>
      </trkpt>
      <trkpt lat="46.17861" lon="5.91531">
        <ele>511</ele>
        <time>2019-04-18T13:38:24Z</time>
      </trkpt>
      <trkpt lat="46.17886" lon="5.91557">
        <ele>510</ele>
        <time>2019-04-18T13:39:24Z</time>
      </trkpt>
      <trkpt lat="46.17979" lon="5.91689">
        <ele>506</ele>
        <time>2019-04-18T13:40:24Z</time>
      </trkpt>
      <trkpt lat="46.18421" lon="5.92409">
        <ele>501</ele>
        <time>2019-04-18T13:41:24Z</time>
      </trkpt>
      <trkpt lat="46.1845" lon="5.92453">
        <ele>502</ele>
        <time>2019-04-18T13:42:24Z</time>
      </trkpt>
      <trkpt lat="46.18446" lon="5.92459">
        <ele>502</ele>
        <time>2019-04-18T13:43:24Z</time>
      </trkpt>
      <trkpt lat="46.18444" lon="5.92466">
        <ele>502</ele>
        <time>2019-04-18T13:44:24Z</time>
      </trkpt>
      <trkpt lat="46.18443" lon="5.92473">
        <ele>502</ele>
        <time>2019-04-18T13:45:24Z</time>
      </trkpt>
      <trkpt lat="46.18447" lon="5.92485">
        <ele>502</ele>
        <time>2019-04-18T13:46:24Z</time>
      </trkpt>
      <trkpt lat="46.18454" lon="5.92492">
        <ele>503</ele>
        <time>2019-04-18T13:47:24Z</time>
      </trkpt>
      <trkpt lat="46.18462" lon="5.92492">
        <ele>503</ele>
        <time>2019-04-18T13:48:24Z</time>
      </trkpt>
      <trkpt lat="46.18469" lon="5.92485">
        <ele>504</ele>
        <time>2019-04-18T13:49:24Z</time>
      </trkpt>
      <trkpt lat="46.18489" lon="5.92512">
        <ele>505</ele>
        <time>2019-04-18T13:50:24Z</time>
      </trkpt>
      <trkpt lat="46.18508" lon="5.92548">
        <ele>506</ele>
        <time>2019-04-18T13:51:24Z</time>
      </trkpt>
      <trkpt lat="46.18657" lon="5.92798">
        <ele>514</ele>
        <time>2019-04-18T13:52:24Z</time>
      </trkpt>
      <trkpt lat="46.18764" lon="5.92971">
        <ele>518</ele>
        <time>2019-04-18T13:53:24Z</time>
      </trkpt>
      <trkpt lat="46.18802" lon="5.92906">
        <ele>519</ele>
        <time>2019-04-18T13:54:24Z</time>
      </trkpt>
      <trkpt lat="46.18906" lon="5.92762">
        <ele>526</ele>
        <time>2019-04-18T13:55:24Z</time>
      </trkpt>
      <trkpt lat="46.18924" lon="5.9273">
        <ele>527</ele>
        <time>2019-04-18T13:56:24Z</time>
      </trkpt>
      <trkpt lat="46.18932" lon="5.92709">
        <ele>528</ele>
        <time>2019-04-18T13:57:24Z</time>
      </trkpt>
      <trkpt lat="46.18935" lon="5.92689">
        <ele>528</ele>
        <time>2019-04-18T13:58:24Z</time>
      </trkpt>
      <trkpt lat="46.19017" lon="5.92776">
        <ele>533</ele>
        <time>2019-04-18T13:59:24Z</time>
      </trkpt>
      <trkpt lat="46.19145" lon="5.92805">
        <ele>541</ele>
        <time>2019-04-18T14:00:24Z</time>
      </trkpt>
      <trkpt lat="46.1917" lon="5.92814">
        <ele>542</ele>
        <time>2019-04-18T14:01:24Z</time>
      </trkpt>
      <trkpt lat="46.19193" lon="5.92826">
        <ele>544</ele>
        <time>2019-04-18T14:02:24Z</time>
      </trkpt>
      <trkpt lat="46.19206" lon="5.92825">
        <ele>545</ele>
        <time>2019-04-18T14:03:24Z</time>
      </trkpt>
      <trkpt lat="46.19218" lon="5.92819">
        <ele>546</ele>
        <time>2019-04-18T14:04:24Z</time>
      </trkpt>
      <trkpt lat="46.19247" lon="5.92792">
        <ele>550</ele>
        <time>2019-04-18T14:05:24Z</time>
      </trkpt>
      <trkpt lat="46.19259" lon="5.92789">
        <ele>551</ele>
        <time>2019-04-18T14:06:24Z</time>
      </trkpt>
      <trkpt lat="46.19275" lon="5.92795">
        <ele>552</ele>
        <time>2019-04-18T14:07:24Z</time>
      </trkpt>
      <trkpt lat="46.1929" lon="5.92811">
        <ele>554</ele>
        <time>2019-04-18T14:08:24Z</time>
      </trkpt>
      <trkpt lat="46.19379" lon="5.92959">
        <ele>557</ele>
        <time>2019-04-18T14:09:24Z</time>
      </trkpt>
      <trkpt lat="46.19519" lon="5.932">
        <ele>564</ele>
        <time>2019-04-18T14:10:24Z</time>
      </trkpt>
      <trkpt lat="46.19645" lon="5.93364">
        <ele>567</ele>
        <time>2019-04-18T14:11:24Z</time>
      </trkpt>
      <trkpt lat="46.19677" lon="5.93401">
        <ele>567</ele>
        <time>2019-04-18T14:12:24Z</time>
      </trkpt>
      <trkpt lat="46.19706" lon="5.93432">
        <ele>568</ele>
        <time>2019-04-18T14:13:24Z</time>
      </trkpt>
      <trkpt lat="46.19771" lon="5.93469">
        <ele>569</ele>
        <time>2019-04-18T14:14:24Z</time>
      </trkpt>
      <trkpt lat="46.19896" lon="5.9352">
        <ele>569</ele>
        <time>2019-04-18T14:15:24Z</time>
      </trkpt>
      <trkpt lat="46.19978" lon="5.93539">
        <ele>570</ele>
        <time>2019-04-18T14:16:24Z</time>
      </trkpt>
      <trkpt lat="46.1999" lon="5.93584">
        <ele>565</ele>
        <time>2019-04-18T14:17:24Z</time>
      </trkpt>
      <trkpt lat="46.19966" lon="5.93641">
        <ele>562</ele>
        <time>2019-04-18T14:18:24Z</time>
      </trkpt>
      <trkpt lat="46.19962" lon="5.93674">
        <ele>560</ele>
        <time>2019-04-18T14:19:24Z</time>
      </trkpt>
      <trkpt lat="46.19975" lon="5.93751">
        <ele>560</ele>
        <time>2019-04-18T14:20:24Z</time>
      </trkpt>
      <trkpt lat="46.19993" lon="5.93794">
        <ele>560</ele>
        <time>2019-04-18T14:21:24Z</time>
      </trkpt>
      <trkpt lat="46.20023" lon="5.93823">
        <ele>561</ele>
        <time>2019-04-18T14:22:24Z</time>
      </trkpt>
      <trkpt lat="46.20094" lon="5.93847">
        <ele>564</ele>
        <time>2019-04-18T14:23:24Z</time>
      </trkpt>
      <trkpt lat="46.20198" lon="5.93893">
        <ele>564</ele>
        <time>2019-04-18T14:24:24Z</time>
      </trkpt>
      <trkpt lat="46.20255" lon="5.93923">
        <ele>565</ele>
        <time>2019-04-18T14:25:24Z</time>
      </trkpt>
      <trkpt lat="46.20322" lon="5.93968">
        <ele>564</ele>
        <time>2019-04-18T14:26:24Z</time>
      </trkpt>
      <trkpt lat="46.20336" lon="5.93974">
        <ele>564</ele>
        <time>2019-04-18T14:27:24Z</time>
      </trkpt>
      <trkpt lat="46.20353" lon="5.93978">
        <ele>564</ele>
        <time>2019-04-18T14:28:24Z</time>
      </trkpt>
      <trkpt lat="46.20377" lon="5.9399">
        <ele>563</ele>
        <time>2019-04-18T14:29:24Z</time>
      </trkpt>
      <trkpt lat="46.20459" lon="5.94073">
        <ele>557</ele>
        <time>2019-04-18T14:30:24Z</time>
      </trkpt>
      <trkpt lat="46.20539" lon="5.94141">
        <ele>555</ele>
        <time>2019-04-18T14:31:24Z</time>
      </trkpt>
      <trkpt lat="46.20596" lon="5.94184">
        <ele>554</ele>
        <time>2019-04-18T14:32:24Z</time>
      </trkpt>
      <trkpt lat="46.20729" lon="5.94323">
        <ele>545</ele>
        <time>2019-04-18T14:33:24Z</time>
      </trkpt>
      <trkpt lat="46.20812" lon="5.9434">
        <ele>543</ele>
        <time>2019-04-18T14:34:24Z</time>
      </trkpt>
      <trkpt lat="46.21057" lon="5.94586">
        <ele>533</ele>
        <time>2019-04-18T14:35:24Z</time>
      </trkpt>
      <trkpt lat="46.21126" lon="5.94673">
        <ele>530</ele>
        <time>2019-04-18T14:36:24Z</time>
      </trkpt>
      <trkpt lat="46.21152" lon="5.94763">
        <ele>526</ele>
        <time>2019-04-18T14:37:24Z</time>
      </trkpt>
      <trkpt lat="46.21165" lon="5.94793">
        <ele>525</ele>
        <time>2019-04-18T14:38:24Z</time>
      </trkpt>
      <trkpt lat="46.21207" lon="5.94857">
        <ele>522</ele>
        <time>2019-04-18T14:39:24Z</time>
      </trkpt>
      <trkpt lat="46.21221" lon="5.94907">
        <ele>520</ele>
        <time>2019-04-18T14:40:24Z</time>
      </trkpt>
      <trkpt lat="46.2122" lon="5.94964">
        <ele>519</ele>
        <time>2019-04-18T14:41:24Z</time>
      </trkpt>
      <trkpt lat="46.21224" lon="5.94979">
        <ele>519</ele>
        <time>2019-04-18T14:42:24Z</time>
      </trkpt>
      <trkpt lat="46.21199" lon="5.95059">
        <ele>516</ele>
        <time>2019-04-18T14:43:24Z</time>
      </trkpt>
      <trkpt lat="46.21184" lon="5.95092">
        <ele>515</ele>
        <time>2019-04-18T14:44:24Z</time>
      </trkpt>
      <trkpt lat="46.21181" lon="5.95107">
        <ele>515</ele>
        <time>2019-04-18T14:45:24Z</time>
      </trkpt>
      <trkpt lat="46.21191" lon="5.95151">
        <ele>514</ele>
        <time>2019-04-18T14:46:24Z</time>
      </trkpt>
      <trkpt lat="46.21213" lon="5.95164">
        <ele>514</ele>
        <time>2019-04-18T14:47:24Z</time>
      </trkpt>
      <trkpt lat="46.21289" lon="5.95179">
        <ele>516</ele>
        <time>2019-04-18T14:48:24Z</time>
      </trkpt>
      <trkpt lat="46.21397" lon="5.95279">
        <ele>515</ele>
        <time>2019-04-18T14:49:24Z</time>
      </trkpt>
      <trkpt lat="46.21404" lon="5.95289">
        <ele>515</ele>
        <time>2019-04-18T14:50:24Z</time>
      </trkpt>
      <trkpt lat="46.21465" lon="5.95302">
        <ele>516</ele>
        <time>2019-04-18T14:51:24Z</time>
      </trkpt>
      <trkpt lat="46.21509" lon="5.95343">
        <ele>515</ele>
        <time>2019-04-18T14:52:24Z</time>
      </trkpt>
      <trkpt lat="46.21544" lon="5.95367">
        <ele>517</ele>
        <time>2019-04-18T14:53:24Z</time>
      </trkpt>
      <trkpt lat="46.21587" lon="5.95405">
        <ele>519</ele>
        <time>2019-04-18T14:54:24Z</time>
      </trkpt>
      <trkpt lat="46.21614" lon="5.95456">
        <ele>519</ele>
        <time>2019-04-18T14:55:24Z</time>
      </trkpt>
      <trkpt lat="46.21637" lon="5.95529">
        <ele>517</ele>
        <time>2019-04-18T14:56:24Z</time>
      </trkpt>
      <trkpt lat="46.21671" lon="5.95612">
        <ele>515</ele>
        <time>2019-04-18T14:57:24Z</time>
      </trkpt>
      <trkpt lat="46.21702" lon="5.95712">
        <ele>513</ele>
        <time>2019-04-18T14:58:24Z</time>
      </trkpt>
      <trkpt lat="46.21726" lon="5.95768">
        <ele>513</ele>
        <time>2019-04-18T14:59:24Z</time>
      </trkpt>
      <trkpt lat="46.21777" lon="5.9586">
        <ele>512</ele>
        <time>2019-04-18T15:00:24Z</time>
      </trkpt>
      <trkpt lat="46.21844" lon="5.95948">
        <ele>513</ele>
        <time>2019-04-18T15:01:24Z</time>
      </trkpt>
      <trkpt lat="46.21887" lon="5.96016">
        <ele>514</ele>
        <time>2019-04-18T15:02:24Z</time>
      </trkpt>
      <trkpt lat="46.21909" lon="5.96074">
        <ele>511</ele>
        <time>2019-04-18T15:03:24Z</time>
      </trkpt>
      <trkpt lat="46.21926" lon="5.96111">
        <ele>511</ele>
        <time>2019-04-18T15:04:24Z</time>
      </trkpt>
      <trkpt lat="46.21939" lon="5.96143">
        <ele>510</ele>
        <time>2019-04-18T15:05:24Z</time>
      </trkpt>
      <trkpt lat="46.2195" lon="5.96179">
        <ele>509</ele>
        <time>2019-04-18T15:06:24Z</time>
      </trkpt>
      <trkpt lat="46.21962" lon="5.96228">
        <ele>508</ele>
        <time>2019-04-18T15:07:24Z</time>
      </trkpt>
      <trkpt lat="46.21969" lon="5.96299">
        <ele>504</ele>
        <time>2019-04-18T15:08:24Z</time>
      </trkpt>
      <trkpt lat="46.21986" lon="5.96354">
        <ele>502</ele>
        <time>2019-04-18T15:09:24Z</time>
      </trkpt>
      <trkpt lat="46.21993" lon="5.96369">
        <ele>502</ele>
        <time>2019-04-18T15:10:24Z</time>
      </trkpt>
      <trkpt lat="46.22011" lon="5.96396">
        <ele>502</ele>
        <time>2019-04-18T15:11:24Z</time>
      </trkpt>
      <trkpt lat="46.22045" lon="5.96435">
        <ele>502</ele>
        <time>2019-04-18T15:12:24Z</time>
      </trkpt>
      <trkpt lat="46.22071" lon="5.96463">
        <ele>502</ele>
        <time>2019-04-18T15:13:24Z</time>
      </trkpt>
      <trkpt lat="46.22158" lon="5.96549">
        <ele>503</ele>
        <time>2019-04-18T15:14:24Z</time>
      </trkpt>
      <trkpt lat="46.22232" lon="5.96597">
        <ele>505</ele>
        <time>2019-04-18T15:15:24Z</time>
      </trkpt>
      <trkpt lat="46.22292" lon="5.96653">
        <ele>505</ele>
        <time>2019-04-18T15:16:24Z</time>
      </trkpt>
      <trkpt lat="46.22355" lon="5.96734">
        <ele>504</ele>
        <time>2019-04-18T15:17:24Z</time>
      </trkpt>
      <trkpt lat="46.22408" lon="5.96795">
        <ele>502</ele>
        <time>2019-04-18T15:18:24Z</time>
      </trkpt>
      <trkpt lat="46.22433" lon="5.96827">
        <ele>501</ele>
        <time>2019-04-18T15:19:24Z</time>
      </trkpt>
      <trkpt lat="46.22552" lon="5.9692">
        <ele>499</ele>
        <time>2019-04-18T15:20:24Z</time>
      </trkpt>
      <trkpt lat="46.22561" lon="5.96935">
        <ele>499</ele>
        <time>2019-04-18T15:21:24Z</time>
      </trkpt>
      <trkpt lat="46.22575" lon="5.96943">
        <ele>498</ele>
        <time>2019-04-18T15:22:24Z</time>
      </trkpt>
      <trkpt lat="46.2264" lon="5.97007">
        <ele>496</ele>
        <time>2019-04-18T15:23:24Z</time>
      </trkpt>
      <trkpt lat="46.2268" lon="5.97052">
        <ele>495</ele>
        <time>2019-04-18T15:24:24Z</time>
      </trkpt>
      <trkpt lat="46.22708" lon="5.97077">
        <ele>494</ele>
        <time>2019-04-18T15:25:24Z</time>
      </trkpt>
      <trkpt lat="46.22865" lon="5.97253">
        <ele>488</ele>
        <time>2019-04-18T15:26:24Z</time>
      </trkpt>
      <trkpt lat="46.22961" lon="5.97305">
        <ele>488</ele>
        <time>2019-04-18T15:27:24Z</time>
      </trkpt>
      <trkpt lat="46.23032" lon="5.97399">
        <ele>487</ele>
        <time>2019-04-18T15:28:24Z</time>
      </trkpt>
      <trkpt lat="46.23048" lon="5.97427">
        <ele>487</ele>
        <time>2019-04-18T15:29:24Z</time>
      </trkpt>
      <trkpt lat="46.23138" lon="5.97525">
        <ele>487</ele>
        <time>2019-04-18T15:30:24Z</time>
      </trkpt>
      <trkpt lat="46.23159" lon="5.9755">
        <ele>487</ele>
        <time>2019-04-18T15:31:24Z</time>
      </trkpt>
      <trkpt lat="46.23245" lon="5.97645">
        <ele>485</ele>
        <time>2019-04-18T15:32:24Z</time>
      </trkpt>
      <trkpt lat="46.23266" lon="5.97672">
        <ele>485</ele>
        <time>2019-04-18T15:33:24Z</time>
      </trkpt>
      <trkpt lat="46.2328" lon="5.977">
        <ele>484</ele>
        <time>2019-04-18T15:34:24Z</time>
      </trkpt>
      <trkpt lat="46.23284" lon="5.97715">
        <ele>484</ele>
        <time>2019-04-18T15:35:24Z</time>
      </trkpt>
      <trkpt lat="46.23286" lon="5.97731">
        <ele>483</ele>
        <time>2019-04-18T15:36:24Z</time>
      </trkpt>
      <trkpt lat="46.23288" lon="5.97815">
        <ele>480</ele>
        <time>2019-04-18T15:37:24Z</time>
      </trkpt>
      <trkpt lat="46.2329" lon="5.97833">
        <ele>480</ele>
        <time>2019-04-18T15:38:24Z</time>
      </trkpt>
      <trkpt lat="46.23303" lon="5.97845">
        <ele>480</ele>
        <time>2019-04-18T15:39:24Z</time>
      </trkpt>
      <trkpt lat="46.23388" lon="5.97908">
        <ele>480</ele>
        <time>2019-04-18T15:40:24Z</time>
      </trkpt>
      <trkpt lat="46.23431" lon="5.97933">
        <ele>481</ele>
        <time>2019-04-18T15:41:24Z</time>
      </trkpt>
      <trkpt lat="46.23463" lon="5.97941">
        <ele>481</ele>
        <time>2019-04-18T15:42:24Z</time>
      </trkpt>
      <trkpt lat="46.23522" lon="5.97967">
        <ele>482</ele>
        <time>2019-04-18T15:43:24Z</time>
      </trkpt>
      <trkpt lat="46.23573" lon="5.97997">
        <ele>483</ele>
        <time>2019-04-18T15:44:24Z</time>
      </trkpt>
      <trkpt lat="46.23612" lon="5.98025">
        <ele>483</ele>
        <time>2019-04-18T15:45:24Z</time>
      </trkpt>
      <trkpt lat="46.23685" lon="5.98072">
        <ele>485</ele>
        <time>2019-04-18T15:46:24Z</time>
      </trkpt>
      <trkpt lat="46.23739" lon="5.98112">
        <ele>487</ele>
        <time>2019-04-18T15:47:24Z</time>
      </trkpt>
      <trkpt lat="46.23757" lon="5.98118">
        <ele>488</ele>
        <time>2019-04-18T15:48:24Z</time>
      </trkpt>
      <trkpt lat="46.2377" lon="5.98118">
        <ele>488</ele>
        <time>2019-04-18T15:49:24Z</time>
      </trkpt>
      <trkpt lat="46.23785" lon="5.98124">
        <ele>488</ele>
        <time>2019-04-18T15:50:24Z</time>
      </trkpt>
      <trkpt lat="46.23806" lon="5.98121">
        <ele>489</ele>
        <time>2019-04-18T15:51:24Z</time>
      </trkpt>
      <trkpt lat="46.23899" lon="5.98026">
        <ele>492</ele>
        <time>2019-04-18T15:52:24Z</time>
      </trkpt>
      <trkpt lat="46.23919" lon="5.98019">
        <ele>493</ele>
        <time>2019-04-18T15:53:24Z</time>
      </trkpt>
      <trkpt lat="46.23933" lon="5.9802">
        <ele>494</ele>
        <time>2019-04-18T15:54:24Z</time>
      </trkpt>
      <trkpt lat="46.23951" lon="5.98028">
        <ele>494</ele>
        <time>2019-04-18T15:55:24Z</time>
      </trkpt>
      <trkpt lat="46.24026" lon="5.9815">
        <ele>494</ele>
        <time>2019-04-18T15:56:24Z</time>
      </trkpt>
      <trkpt lat="46.24081" lon="5.98193">
        <ele>496</ele>
        <time>2019-04-18T15:57:24Z</time>
      </trkpt>
      <trkpt lat="46.24223" lon="5.98269">
        <ele>496</ele>
        <time>2019-04-18T15:58:24Z</time>
      </trkpt>
      <trkpt lat="46.24298" lon="5.983">
        <ele>495</ele>
        <time>2019-04-18T15:59:24Z</time>
      </trkpt>
      <trkpt lat="46.24383" lon="5.98323">
        <ele>496</ele>
        <time>2019-04-18T16:00:24Z</time>
      </trkpt>
      <trkpt lat="46.24407" lon="5.98331">
        <ele>497</ele>
        <time>2019-04-18T16:01:24Z</time>
      </trkpt>
      <trkpt lat="46.24426" lon="5.98346">
        <ele>497</ele>
        <time>2019-04-18T16:02:24Z</time>
      </trkpt>
      <trkpt lat="46.24442" lon="5.98373">
        <ele>497</ele>
        <time>2019-04-18T16:03:24Z</time>
      </trkpt>
      <trkpt lat="46.24447" lon="5.98385">
        <ele>497</ele>
        <time>2019-04-18T16:04:24Z</time>
      </trkpt>
      <trkpt lat="46.24451" lon="5.98414">
        <ele>496</ele>
        <time>2019-04-18T16:05:24Z</time>
      </trkpt>
      <trkpt lat="46.24459" lon="5.98443">
        <ele>496</ele>
        <time>2019-04-18T16:06:24Z</time>
      </trkpt>
      <trkpt lat="46.24467" lon="5.9846">
        <ele>496</ele>
        <time>2019-04-18T16:07:24Z</time>
      </trkpt>
      <trkpt lat="46.24478" lon="5.98474">
        <ele>497</ele>
        <time>2019-04-18T16:08:24Z</time>
      </trkpt>
      <trkpt lat="46.24484" lon="5.98489">
        <ele>497</ele>
        <time>2019-04-18T16:09:24Z</time>
      </trkpt>
      <trkpt lat="46.24489" lon="5.98519">
        <ele>496</ele>
        <time>2019-04-18T16:10:24Z</time>
      </trkpt>
      <trkpt lat="46.24491" lon="5.9859">
        <ele>490</ele>
        <time>2019-04-18T16:11:24Z</time>
      </trkpt>
      <trkpt lat="46.24494" lon="5.98617">
        <ele>489</ele>
        <time>2019-04-18T16:12:24Z</time>
      </trkpt>
      <trkpt lat="46.24505" lon="5.98653">
        <ele>488</ele>
        <time>2019-04-18T16:13:24Z</time>
      </trkpt>
      <trkpt lat="46.24513" lon="5.98671">
        <ele>487</ele>
        <time>2019-04-18T16:14:24Z</time>
      </trkpt>
      <trkpt lat="46.24528" lon="5.987">
        <ele>485</ele>
        <time>2019-04-18T16:15:24Z</time>
      </trkpt>
      <trkpt lat="46.24537" lon="5.98712">
        <ele>485</ele>
        <time>2019-04-18T16:16:24Z</time>
      </trkpt>
      <trkpt lat="46.24615" lon="5.98801">
        <ele>484</ele>
        <time>2019-04-18T16:17:24Z</time>
      </trkpt>
      <trkpt lat="46.24682" lon="5.9889">
        <ele>484</ele>
        <time>2019-04-18T16:18:24Z</time>
      </trkpt>
      <trkpt lat="46.24733" lon="5.98943">
        <ele>485</ele>
        <time>2019-04-18T16:19:24Z</time>
      </trkpt>
      <trkpt lat="46.24754" lon="5.98972">
        <ele>485</ele>
        <time>2019-04-18T16:20:24Z</time>
      </trkpt>
      <trkpt lat="46.24768" lon="5.98962">
        <ele>486</ele>
        <time>2019-04-18T16:21:24Z</time>
      </trkpt>
      <trkpt lat="46.24785" lon="5.98957">
        <ele>487</ele>
        <time>2019-04-18T16:22:24Z</time>
      </trkpt>
      <trkpt lat="46.24809" lon="5.98961">
        <ele>487</ele>
        <time>2019-04-18T16:23:24Z</time>
      </trkpt>
      <trkpt lat="46.24878" lon="5.98995">
        <ele>487</ele>
        <time>2019-04-18T16:24:24Z</time>
      </trkpt>
      <trkpt lat="46.25004" lon="5.99026">
        <ele>488</ele>
        <time>2019-04-18T16:25:24Z</time>
      </trkpt>
      <trkpt lat="46.25071" lon="5.99052">
        <ele>489</ele>
        <time>2019-04-18T16:26:24Z</time>
      </trkpt>
      <trkpt lat="46.25091" lon="5.99061">
        <ele>490</ele>
        <time>2019-04-18T16:27:24Z</time>
      </trkpt>
      <trkpt lat="46.25182" lon="5.99136">
        <ele>491</ele>
        <time>2019-04-18T16:28:24Z</time>
      </trkpt>
      <trkpt lat="46.25207" lon="5.99153">
        <ele>491</ele>
        <time>2019-04-18T16:29:24Z</time>
      </trkpt>
      <trkpt lat="46.25271" lon="5.99186">
        <ele>492</ele>
        <time>2019-04-18T16:30:24Z</time>
      </trkpt>
      <trkpt lat="46.25358" lon="5.99224">
        <ele>493</ele>
        <time>2019-04-18T16:31:24Z</time>
      </trkpt>
      <trkpt lat="46.25391" lon="5.99242">
        <ele>493</ele>
        <time>2019-04-18T16:32:24Z</time>
      </trkpt>
      <trkpt lat="46.25401" lon="5.99251">
        <ele>493</ele>
        <time>2019-04-18T16:33:24Z</time>
      </trkpt>
      <trkpt lat="46.25462" lon="5.99322">
        <ele>495</ele>
        <time>2019-04-18T16:34:24Z</time>
      </trkpt>
      <trkpt lat="46.25485" lon="5.99342">
        <ele>495</ele>
        <time>2019-04-18T16:35:24Z</time>
      </trkpt>
      <trkpt lat="46.25517" lon="5.99358">
        <ele>496</ele>
        <time>2019-04-18T16:36:24Z</time>
      </trkpt>
      <trkpt lat="46.25575" lon="5.9938">
        <ele>499</ele>
        <time>2019-04-18T16:37:24Z</time>
      </trkpt>
      <trkpt lat="46.25587" lon="5.99388">
        <ele>499</ele>
        <time>2019-04-18T16:38:24Z</time>
      </trkpt>
      <trkpt lat="46.25594" lon="5.99399">
        <ele>499</ele>
        <time>2019-04-18T16:39:24Z</time>
      </trkpt>
      <trkpt lat="46.25598" lon="5.99413">
        <ele>498</ele>
        <time>2019-04-18T16:40:24Z</time>
      </trkpt>
      <trkpt lat="46.25599" lon="5.99423">
        <ele>498</ele>
        <time>2019-04-18T16:41:24Z</time>
      </trkpt>
      <trkpt lat="46.25602" lon="5.9943">
        <ele>497</ele>
        <time>2019-04-18T16:42:24Z</time>
      </trkpt>
      <trkpt lat="46.25609" lon="5.99433">
        <ele>498</ele>
        <time>2019-04-18T16:43:24Z</time>
      </trkpt>
      <trkpt lat="46.25622" lon="5.99447">
        <ele>498</ele>
        <time>2019-04-18T16:44:24Z</time>
      </trkpt>
      <trkpt lat="46.25636" lon="5.99452">
        <ele>498</ele>
        <time>2019-04-18T16:45:24Z</time>
      </trkpt>
      <trkpt lat="46.25646" lon="5.99452">
        <ele>499</ele>
        <time>2019-04-18T16:46:24Z</time>
      </trkpt>
      <trkpt lat="46.25683" lon="5.99473">
        <ele>499</ele>
        <time>2019-04-18T16:47:24Z</time>
      </trkpt>
      <trkpt lat="46.25753" lon="5.99548">
        <ele>500</ele>
        <time>2019-04-18T16:48:24Z</time>
      </trkpt>
      <trkpt lat="46.25775" lon="5.99567">
        <ele>500</ele>
        <time>2019-04-18T16:49:24Z</time>
      </trkpt>
      <trkpt lat="46.25795" lon="5.99581">
        <ele>500</ele>
        <time>2019-04-18T16:50:24Z</time>
      </trkpt>
      <trkpt lat="46.25861" lon="5.99614">
        <ele>503</ele>
        <time>2019-04-18T16:51:24Z</time>
      </trkpt>
      <trkpt lat="46.25877" lon="5.99625">
        <ele>503</ele>
        <time>2019-04-18T16:52:24Z</time>
      </trkpt>
      <trkpt lat="46.25925" lon="5.99671">
        <ele>504</ele>
        <time>2019-04-18T16:53:24Z</time>
      </trkpt>
      <trkpt lat="46.25947" lon="5.9969">
        <ele>505</ele>
        <time>2019-04-18T16:54:24Z</time>
      </trkpt>
      <trkpt lat="46.25966" lon="5.99703">
        <ele>505</ele>
        <time>2019-04-18T16:55:24Z</time>
      </trkpt>
      <trkpt lat="46.26001" lon="5.99723">
        <ele>505</ele>
        <time>2019-04-18T16:56:24Z</time>
      </trkpt>
      <trkpt lat="46.26056" lon="5.99768">
        <ele>505</ele>
        <time>2019-04-18T16:57:24Z</time>
      </trkpt>
      <trkpt lat="46.26157" lon="5.99814">
        <ele>505</ele>
        <time>2019-04-18T16:58:24Z</time>
      </trkpt>
      <trkpt lat="46.26261" lon="5.99903">
        <ele>506</ele>
        <time>2019-04-18T16:59:24Z</time>
      </trkpt>
      <trkpt lat="46.26359" lon="6.00003">
        <ele>510</ele>
        <time>2019-04-18T17:00:24Z</time>
      </trkpt>
      <trkpt lat="46.26434" lon="6.00084">
        <ele>512</ele>
        <time>2019-04-18T17:01:24Z</time>
      </trkpt>
      <trkpt lat="46.26514" lon="6.00163">
        <ele>513</ele>
        <time>2019-04-18T17:02:24Z</time>
      </trkpt>
      <trkpt lat="46.26627" lon="6.0024">
        <ele>514</ele>
        <time>2019-04-18T17:03:24Z</time>
      </trkpt>
      <trkpt lat="46.26676" lon="6.00264">
        <ele>516</ele>
        <time>2019-04-18T17:04:24Z</time>
      </trkpt>
      <trkpt lat="46.26861" lon="6.00426">
        <ele>519</ele>
        <time>2019-04-18T17:05:24Z</time>
      </trkpt>
      <trkpt lat="46.26945" lon="6.00475">
        <ele>522</ele>
        <time>2019-04-18T17:06:24Z</time>
      </trkpt>
      <trkpt lat="46.2698" lon="6.00499">
        <ele>524</ele>
        <time>2019-04-18T17:07:24Z</time>
      </trkpt>
      <trkpt lat="46.27011" lon="6.00529">
        <ele>526</ele>
        <time>2019-04-18T17:08:24Z</time>
      </trkpt>
      <trkpt lat="46.27025" lon="6.0055">
        <ele>527</ele>
        <time>2019-04-18T17:09:24Z</time>
      </trkpt>
      <trkpt lat="46.27036" lon="6.00573">
        <ele>528</ele>
        <time>2019-04-18T17:10:24Z</time>
      </trkpt>
      <trkpt lat="46.27058" lon="6.00636">
        <ele>528</ele>
        <time>2019-04-18T17:11:24Z</time>
      </trkpt>
      <trkpt lat="46.27066" lon="6.00672">
        <ele>527</ele>
        <time>2019-04-18T17:12:24Z</time>
      </trkpt>
      <trkpt lat="46.27077" lon="6.00704">
        <ele>527</ele>
        <time>2019-04-18T17:13:24Z</time>
      </trkpt>
      <trkpt lat="46.27109" lon="6.00772">
        <ele>528</ele>
        <time>2019-04-18T17:14:24Z</time>
      </trkpt>
      <trkpt lat="46.27153" lon="6.00872">
        <ele>527</ele>
        <time>2019-04-18T17:15:24Z</time>
      </trkpt>
      <trkpt lat="46.27171" lon="6.00908">
        <ele>527</ele>
        <time>2019-04-18T17:16:24Z</time>
      </trkpt>
      <trkpt lat="46.27185" lon="6.00928">
        <ele>527</ele>
        <time>2019-04-18T17:17:24Z</time>
      </trkpt>
      <trkpt lat="46.27196" lon="6.00931">
        <ele>528</ele>
        <time>2019-04-18T17:18:24Z</time>
      </trkpt>
      <trkpt lat="46.27271" lon="6.01005">
        <ele>526</ele>
        <time>2019-04-18T17:19:24Z</time>
      </trkpt>
      <trkpt lat="46.27346" lon="6.01085">
        <ele>525</ele>
        <time>2019-04-18T17:20:24Z</time>
      </trkpt>
      <trkpt lat="46.2742" lon="6.01134">
        <ele>526</ele>
        <time>2019-04-18T17:21:24Z</time>
      </trkpt>
      <trkpt lat="46.27477" lon="6.01167">
        <ele>526</ele>
        <time>2019-04-18T17:22:24Z</time>
      </trkpt>
      <trkpt lat="46.2749" lon="6.01173">
        <ele>526</ele>
        <time>2019-04-18T17:23:24Z</time>
      </trkpt>
      <trkpt lat="46.27507" lon="6.01175">
        <ele>527</ele>
        <time>2019-04-18T17:24:24Z</time>
      </trkpt>
      <trkpt lat="46.27518" lon="6.01178">
        <ele>527</ele>
        <time>2019-04-18T17:25:24Z</time>
      </trkpt>
      <trkpt lat="46.27536" lon="6.01187">
        <ele>528</ele>
        <time>2019-04-18T17:26:24Z</time>
      </trkpt>
      <trkpt lat="46.27537" lon="6.01189">
        <ele>528</ele>
        <time>2019-04-18T17:27:24Z</time>
      </trkpt>
      <trkpt lat="46.27534" lon="6.01199">
        <ele>527</ele>
        <time>2019-04-18T17:28:24Z</time>
      </trkpt>
      <trkpt lat="46.27713" lon="6.01299">
        <ele>532</ele>
        <time>2019-04-18T17:29:24Z</time>
      </trkpt>
      <trkpt lat="46.27744" lon="6.01319">
        <ele>532</ele>
        <time>2019-04-18T17:30:24Z</time>
      </trkpt>
      <trkpt lat="46.27768" lon="6.01338">
        <ele>532</ele>
        <time>2019-04-18T17:31:24Z</time>
      </trkpt>
      <trkpt lat="46.27807" lon="6.01374">
        <ele>534</ele>
        <time>2019-04-18T17:32:24Z</time>
      </trkpt>
      <trkpt lat="46.2784" lon="6.01398">
        <ele>535</ele>
        <time>2019-04-18T17:33:24Z</time>
      </trkpt>
      <trkpt lat="46.27878" lon="6.01422">
        <ele>537</ele>
        <time>2019-04-18T17:34:24Z</time>
      </trkpt>
      <trkpt lat="46.27925" lon="6.01448">
        <ele>539</ele>
        <time>2019-04-18T17:35:24Z</time>
      </trkpt>
      <trkpt lat="46.27965" lon="6.01475">
        <ele>539</ele>
        <time>2019-04-18T17:36:24Z</time>
      </trkpt>
      <trkpt lat="46.2801" lon="6.01509">
        <ele>539</ele>
        <time>2019-04-18T17:37:24Z</time>
      </trkpt>
      <trkpt lat="46.28079" lon="6.01565">
        <ele>538</ele>
        <time>2019-04-18T17:38:24Z</time>
      </trkpt>
      <trkpt lat="46.2809" lon="6.01578">
        <ele>537</ele>
        <time>2019-04-18T17:39:24Z</time>
      </trkpt>
      <trkpt lat="46.28116" lon="6.01601">
        <ele>538</ele>
        <time>2019-04-18T17:40:24Z</time>
      </trkpt>
      <trkpt lat="46.28134" lon="6.01624">
        <ele>537</ele>
        <time>2019-04-18T17:41:24Z</time>
      </trkpt>
      <trkpt lat="46.28155" lon="6.01653">
        <ele>537</ele>
        <time>2019-04-18T17:42:24Z</time>
      </trkpt>
      <trkpt lat="46.28176" lon="6.01694">
        <ele>537</ele>
        <time>2019-04-18T17:43:24Z</time>
      </trkpt>
      <trkpt lat="46.28207" lon="6.01743">
        <ele>538</ele>
        <time>2019-04-18T17:44:24Z</time>
      </trkpt>
      <trkpt lat="46.28237" lon="6.01808">
        <ele>538</ele>
        <time>2019-04-18T17:45:24Z</time>
      </trkpt>
      <trkpt lat="46.28241" lon="6.01821">
        <ele>538</ele>
        <time>2019-04-18T17:46:24Z</time>
      </trkpt>
      <trkpt lat="46.28247" lon="6.0182">
        <ele>538</ele>
        <time>2019-04-18T17:47:24Z</time>
      </trkpt>
      <trkpt lat="46.28256" lon="6.01823">
        <ele>539</ele>
        <time>2019-04-18T17:48:24Z</time>
      </trkpt>
      <trkpt lat="46.28263" lon="6.01822">
        <ele>539</ele>
        <time>2019-04-18T17:49:24Z</time>
      </trkpt>
      <trkpt lat="46.28268" lon="6.01818">
        <ele>539</ele>
        <time>2019-04-18T17:50:24Z</time>
      </trkpt>
      <trkpt lat="46.28419" lon="6.01931">
        <ele>543</ele>
        <time>2019-04-18T17:51:24Z</time>
      </trkpt>
      <trkpt lat="46.28423" lon="6.01928">
        <ele>543</ele>
        <time>2019-04-18T17:52:24Z</time>
      </trkpt>
      <trkpt lat="46.28476" lon="6.01958">
        <ele>545</ele>
        <time>2019-04-18T17:53:24Z</time>
      </trkpt>
      <trkpt lat="46.28612" lon="6.02053">
        <ele>547</ele>
        <time>2019-04-18T17:54:24Z</time>
      </trkpt>
      <trkpt lat="46.28639" lon="6.02079">
        <ele>546</ele>
        <time>2019-04-18T17:55:24Z</time>
      </trkpt>
      <trkpt lat="46.28734" lon="6.02177">
        <ele>549</ele>
        <time>2019-04-18T17:56:24Z</time>
      </trkpt>
      <trkpt lat="46.288" lon="6.0227">
        <ele>550</ele>
        <time>2019-04-18T17:57:24Z</time>
      </trkpt>
      <trkpt lat="46.28822" lon="6.02285">
        <ele>550</ele>
        <time>2019-04-18T17:58:24Z</time>
      </trkpt>
      <trkpt lat="46.28874" lon="6.02314">
        <ele>551</ele>
        <time>2019-04-18T17:59:24Z</time>
      </trkpt>
      <trkpt lat="46.28895" lon="6.02329">
        <ele>551</ele>
        <time>2019-04-18T18:00:24Z</time>
      </trkpt>
      <trkpt lat="46.28933" lon="6.02372">
        <ele>552</ele>
        <time>2019-04-18T18:01:24Z</time>
      </trkpt>
      <trkpt lat="46.28964" lon="6.02405">
        <ele>553</ele>
        <time>2019-04-18T18:02:24Z</time>
      </trkpt>
      <trkpt lat="46.29204" lon="6.02601">
        <ele>559</ele>
        <time>2019-04-18T18:03:24Z</time>
      </trkpt>
      <trkpt lat="46.29233" lon="6.02636">
        <ele>559</ele>
        <time>2019-04-18T18:04:24Z</time>
      </trkpt>
      <trkpt lat="46.29242" lon="6.02653">
        <ele>558</ele>
        <time>2019-04-18T18:05:24Z</time>
      </trkpt>
      <trkpt lat="46.2926" lon="6.027">
        <ele>557</ele>
        <time>2019-04-18T18:06:24Z</time>
      </trkpt>
      <trkpt lat="46.29271" lon="6.02723">
        <ele>556</ele>
        <time>2019-04-18T18:07:24Z</time>
      </trkpt>
      <trkpt lat="46.29287" lon="6.02736">
        <ele>556</ele>
        <time>2019-04-18T18:08:24Z</time>
      </trkpt>
      <trkpt lat="46.29325" lon="6.02742">
        <ele>555</ele>
        <time>2019-04-18T18:09:24Z</time>
      </trkpt>
      <trkpt lat="46.29336" lon="6.02747">
        <ele>555</ele>
        <time>2019-04-18T18:10:24Z</time>
      </trkpt>
      <trkpt lat="46.29353" lon="6.02766">
        <ele>556</ele>
        <time>2019-04-18T18:11:24Z</time>
      </trkpt>
      <trkpt lat="46.29382" lon="6.0282">
        <ele>558</ele>
        <time>2019-04-18T18:12:24Z</time>
      </trkpt>
      <trkpt lat="46.294" lon="6.02844">
        <ele>559</ele>
        <time>2019-04-18T18:13:24Z</time>
      </trkpt>
      <trkpt lat="46.29416" lon="6.02854">
        <ele>559</ele>
        <time>2019-04-18T18:14:24Z</time>
      </trkpt>
      <trkpt lat="46.29466" lon="6.02868">
        <ele>560</ele>
        <time>2019-04-18T18:15:24Z</time>
      </trkpt>
      <trkpt lat="46.29487" lon="6.0287">
        <ele>561</ele>
        <time>2019-04-18T18:16:24Z</time>
      </trkpt>
      <trkpt lat="46.29508" lon="6.02866">
        <ele>562</ele>
        <time>2019-04-18T18:17:24Z</time>
      </trkpt>
      <trkpt lat="46.29621" lon="6.02828">
        <ele>565</ele>
        <time>2019-04-18T18:18:24Z</time>
      </trkpt>
      <trkpt lat="46.29639" lon="6.02828">
        <ele>565</ele>
        <time>2019-04-18T18:19:24Z</time>
      </trkpt>
      <trkpt lat="46.29647" lon="6.02831">
        <ele>564</ele>
        <time>2019-04-18T18:20:24Z</time>
      </trkpt>
      <trkpt lat="46.29654" lon="6.02837">
        <ele>564</ele>
        <time>2019-04-18T18:21:24Z</time>
      </trkpt>
      <trkpt lat="46.2966" lon="6.02848">
        <ele>564</ele>
        <time>2019-04-18T18:22:24Z</time>
      </trkpt>
      <trkpt lat="46.29663" lon="6.02863">
        <ele>564</ele>
        <time>2019-04-18T18:23:24Z</time>
      </trkpt>
      <trkpt lat="46.29663" lon="6.02881">
        <ele>565</ele>
        <time>2019-04-18T18:24:24Z</time>
      </trkpt>
      <trkpt lat="46.29658" lon="6.02897">
        <ele>566</ele>
        <time>2019-04-18T18:25:24Z</time>
      </trkpt>
      <trkpt lat="46.29649" lon="6.02907">
        <ele>565</ele>
        <time>2019-04-18T18:26:24Z</time>
      </trkpt>
      <trkpt lat="46.29542" lon="6.03005">
        <ele>561</ele>
        <time>2019-04-18T18:27:24Z</time>
      </trkpt>
      <trkpt lat="46.29536" lon="6.03023">
        <ele>560</ele>
        <time>2019-04-18T18:28:24Z</time>
      </trkpt>
      <trkpt lat="46.29541" lon="6.03042">
        <ele>560</ele>
        <time>2019-04-18T18:29:24Z</time>
      </trkpt>
      <trkpt lat="46.29588" lon="6.03068">
        <ele>562</ele>
        <time>2019-04-18T18:30:24Z</time>
      </trkpt>
      <trkpt lat="46.29603" lon="6.0308">
        <ele>563</ele>
        <time>2019-04-18T18:31:24Z</time>
      </trkpt>
      <trkpt lat="46.2964" lon="6.03144">
        <ele>563</ele>
        <time>2019-04-18T18:32:24Z</time>
      </trkpt>
      <trkpt lat="46.29661" lon="6.03186">
        <ele>563</ele>
        <time>2019-04-18T18:33:24Z</time>
      </trkpt>
      <trkpt lat="46.2967" lon="6.03207">
        <ele>564</ele>
        <time>2019-04-18T18:34:24Z</time>
      </trkpt>
      <trkpt lat="46.29672" lon="6.0323">
        <ele>563</ele>
        <time>2019-04-18T18:35:24Z</time>
      </trkpt>
      <trkpt lat="46.29662" lon="6.03253">
        <ele>563</ele>
        <time>2019-04-18T18:36:24Z</time>
      </trkpt>
      <trkpt lat="46.29654" lon="6.03281">
        <ele>562</ele>
        <time>2019-04-18T18:37:24Z</time>
      </trkpt>
      <trkpt lat="46.29655" lon="6.03321">
        <ele>561</ele>
        <time>2019-04-18T18:38:24Z</time>
      </trkpt>
      <trkpt lat="46.29665" lon="6.03409">
        <ele>561</ele>
        <time>2019-04-18T18:39:24Z</time>
      </trkpt>
      <trkpt lat="46.29676" lon="6.03488">
        <ele>556</ele>
        <time>2019-04-18T18:40:24Z</time>
      </trkpt>
      <trkpt lat="46.29688" lon="6.03522">
        <ele>554</ele>
        <time>2019-04-18T18:41:24Z</time>
      </trkpt>
      <trkpt lat="46.29735" lon="6.03604">
        <ele>550</ele>
        <time>2019-04-18T18:42:24Z</time>
      </trkpt>
      <trkpt lat="46.29744" lon="6.03651">
        <ele>550</ele>
        <time>2019-04-18T18:43:24Z</time>
      </trkpt>
      <trkpt lat="46.29746" lon="6.03679">
        <ele>550</ele>
        <time>2019-04-18T18:44:24Z</time>
      </trkpt>
      <trkpt lat="46.2976" lon="6.03733">
        <ele>552</ele>
        <time>2019-04-18T18:45:24Z</time>
      </trkpt>
      <trkpt lat="46.29778" lon="6.03774">
        <ele>552</ele>
        <time>2019-04-18T18:46:24Z</time>
      </trkpt>
      <trkpt lat="46.29833" lon="6.03885">
        <ele>549</ele>
        <time>2019-04-18T18:47:24Z</time>
      </trkpt>
      <trkpt lat="46.2984" lon="6.03922">
        <ele>550</ele>
        <time>2019-04-18T18:48:24Z</time>
      </trkpt>
      <trkpt lat="46.29848" lon="6.03981">
        <ele>554</ele>
        <time>2019-04-18T18:49:24Z</time>
      </trkpt>
      <trkpt lat="46.29862" lon="6.04042">
        <ele>557</ele>
        <time>2019-04-18T18:50:24Z</time>
      </trkpt>
      <trkpt lat="46.29878" lon="6.04076">
        <ele>558</ele>
        <time>2019-04-18T18:51:24Z</time>
      </trkpt>
      <trkpt lat="46.29899" lon="6.04099">
        <ele>557</ele>
        <time>2019-04-18T18:52:24Z</time>
      </trkpt>
      <trkpt lat="46.29932" lon="6.04127">
        <ele>555</ele>
        <time>2019-04-18T18:53:24Z</time>
      </trkpt>
      <trkpt lat="46.29961" lon="6.04127">
        <ele>557</ele>
        <time>2019-04-18T18:54:24Z</time>
      </trkpt>
      <trkpt lat="46.29995" lon="6.04107">
        <ele>560</ele>
        <time>2019-04-18T18:55:24Z</time>
      </trkpt>
      <trkpt lat="46.3003" lon="6.04072">
        <ele>561</ele>
        <time>2019-04-18T18:56:24Z</time>
      </trkpt>
      <trkpt lat="46.3006" lon="6.0405">
        <ele>562</ele>
        <time>2019-04-18T18:57:24Z</time>
      </trkpt>
      <trkpt lat="46.30081" lon="6.04051">
        <ele>561</ele>
        <time>2019-04-18T18:58:24Z</time>
      </trkpt>
      <trkpt lat="46.30094" lon="6.04055">
        <ele>560</ele>
        <time>2019-04-18T18:59:24Z</time>
      </trkpt>
      <trkpt lat="46.30163" lon="6.04157">
        <ele>556</ele>
        <time>2019-04-18T19:00:24Z</time>
      </trkpt>
      <trkpt lat="46.3021" lon="6.04213">
        <ele>557</ele>
        <time>2019-04-18T19:01:24Z</time>
      </trkpt>
      <trkpt lat="46.30241" lon="6.04243">
        <ele>556</ele>
        <time>2019-04-18T19:02:24Z</time>
      </trkpt>
      <trkpt lat="46.30263" lon="6.04269">
        <ele>555</ele>
        <time>2019-04-18T19:03:24Z</time>
      </trkpt>
      <trkpt lat="46.30291" lon="6.04284">
        <ele>554</ele>
        <time>2019-04-18T19:04:24Z</time>
      </trkpt>
      <trkpt lat="46.30352" lon="6.04303">
        <ele>552</ele>
        <time>2019-04-18T19:05:24Z</time>
      </trkpt>
      <trkpt lat="46.30497" lon="6.04361">
        <ele>553</ele>
        <time>2019-04-18T19:06:24Z</time>
      </trkpt>
      <trkpt lat="46.30671" lon="6.04442">
        <ele>550</ele>
        <time>2019-04-18T19:07:24Z</time>
      </trkpt>
      <trkpt lat="46.30727" lon="6.04454">
        <ele>550</ele>
        <time>2019-04-18T19:08:24Z</time>
      </trkpt>
      <trkpt lat="46.30792" lon="6.04449">
        <ele>551</ele>
        <time>2019-04-18T19:09:24Z</time>
      </trkpt>
      <trkpt lat="46.30815" lon="6.04456">
        <ele>551</ele>
        <time>2019-04-18T19:10:24Z</time>
      </trkpt>
      <trkpt lat="46.30837" lon="6.04478">
        <ele>551</ele>
        <time>2019-04-18T19:11:24Z</time>
      </trkpt>
      <trkpt lat="46.30907" lon="6.0459">
        <ele>554</ele>
        <time>2019-04-18T19:12:24Z</time>
      </trkpt>
      <trkpt lat="46.30905" lon="6.04592">
        <ele>553</ele>
        <time>2019-04-18T19:13:24Z</time>
      </trkpt>
      <trkpt lat="46.30905" lon="6.04602">
        <ele>553</ele>
        <time>2019-04-18T19:14:24Z</time>
      </trkpt>
      <trkpt lat="46.30907" lon="6.04604">
        <ele>553</ele>
        <time>2019-04-18T19:15:24Z</time>
      </trkpt>
      <trkpt lat="46.30912" lon="6.04607">
        <ele>553</ele>
        <time>2019-04-18T19:16:24Z</time>
      </trkpt>
      <trkpt lat="46.30916" lon="6.04605">
        <ele>553</ele>
        <time>2019-04-18T19:17:24Z</time>
      </trkpt>
      <trkpt lat="46.30956" lon="6.04669">
        <ele>554</ele>
        <time>2019-04-18T19:18:24Z</time>
      </trkpt>
      <trkpt lat="46.31014" lon="6.04776">
        <ele>554</ele>
        <time>2019-04-18T19:19:24Z</time>
      </trkpt>
      <trkpt lat="46.31049" lon="6.04835">
        <ele>555</ele>
        <time>2019-04-18T19:20:24Z</time>
      </trkpt>
      <trkpt lat="46.31065" lon="6.04857">
        <ele>555</ele>
        <time>2019-04-18T19:21:24Z</time>
      </trkpt>
      <trkpt lat="46.3108" lon="6.0487">
        <ele>556</ele>
        <time>2019-04-18T19:22:24Z</time>
      </trkpt>
      <trkpt lat="46.311" lon="6.04878">
        <ele>556</ele>
        <time>2019-04-18T19:23:24Z</time>
      </trkpt>
      <trkpt lat="46.31105" lon="6.04885">
        <ele>555</ele>
        <time>2019-04-18T19:24:24Z</time>
      </trkpt>
      <trkpt lat="46.31108" lon="6.04902">
        <ele>555</ele>
        <time>2019-04-18T19:25:24Z</time>
      </trkpt>
      <trkpt lat="46.311" lon="6.04908">
        <ele>555</ele>
        <time>2019-04-18T19:26:24Z</time>
      </trkpt>
      <trkpt lat="46.31097" lon="6.04914">
        <ele>554</ele>
        <time>2019-04-18T19:27:24Z</time>
      </trkpt>
      <trkpt lat="46.31095" lon="6.04927">
        <ele>554</ele>
        <time>2019-04-18T19:28:24Z</time>
      </trkpt>
      <trkpt lat="46.31097" lon="6.04942">
        <ele>554</ele>
        <time>2019-04-18T19:29:24Z</time>
      </trkpt>
      <trkpt lat="46.31104" lon="6.04953">
        <ele>554</ele>
        <time>2019-04-18T19:30:24Z</time>
      </trkpt>
      <trkpt lat="46.31109" lon="6.04956">
        <ele>554</ele>
        <time>2019-04-18T19:31:24Z</time>
      </trkpt>
      <trkpt lat="46.31116" lon="6.04957">
        <ele>554</ele>
        <time>2019-04-18T19:32:24Z</time>
      </trkpt>
      <trkpt lat="46.31123" lon="6.04953">
        <ele>555</ele>
        <time>2019-04-18T19:33:24Z</time>
      </trkpt>
      <trkpt lat="46.31131" lon="6.04941">
        <ele>555</ele>
        <time>2019-04-18T19:34:24Z</time>
      </trkpt>
      <trkpt lat="46.31138" lon="6.04939">
        <ele>555</ele>
        <time>2019-04-18T19:35:24Z</time>
      </trkpt>
      <trkpt lat="46.31147" lon="6.04942">
        <ele>555</ele>
        <time>2019-04-18T19:36:24Z</time>
      </trkpt>
      <trkpt lat="46.31584" lon="6.0511">
        <ele>562</ele>
        <time>2019-04-18T19:37:24Z</time>
      </trkpt>
      <trkpt lat="46.31599" lon="6.05127">
        <ele>562</ele>
        <time>2019-04-18T19:38:24Z</time>
      </trkpt>
      <trkpt lat="46.31607" lon="6.05149">
        <ele>561</ele>
        <time>2019-04-18T19:39:24Z</time>
      </trkpt>
      <trkpt lat="46.31616" lon="6.05143">
        <ele>562</ele>
        <time>2019-04-18T19:40:24Z</time>
      </trkpt>
      <trkpt lat="46.31626" lon="6.05139">
        <ele>563</ele>
        <time>2019-04-18T19:41:24Z</time>
      </trkpt>
      <trkpt lat="46.3164" lon="6.05139">
        <ele>563</ele>
        <time>2019-04-18T19:42:24Z</time>
      </trkpt>
      <trkpt lat="46.31653" lon="6.05145">
        <ele>563</ele>
        <time>2019-04-18T19:43:24Z</time>
      </trkpt>
      <trkpt lat="46.31664" lon="6.05155">
        <ele>563</ele>
        <time>2019-04-18T19:44:24Z</time>
      </trkpt>
      <trkpt lat="46.31676" lon="6.05179">
        <ele>563</ele>
        <time>2019-04-18T19:45:24Z</time>
      </trkpt>
      <trkpt lat="46.31695" lon="6.05151">
        <ele>564</ele>
        <time>2019-04-18T19:46:24Z</time>
      </trkpt>
      <trkpt lat="46.32264" lon="6.05375">
        <ele>572</ele>
        <time>2019-04-18T19:47:24Z</time>
      </trkpt>
      <trkpt lat="46.32266" lon="6.05381">
        <ele>572</ele>
        <time>2019-04-18T19:48:24Z</time>
      </trkpt>
      <trkpt lat="46.32517" lon="6.05482">
        <ele>582</ele>
        <time>2019-04-18T19:49:24Z</time>
      </trkpt>
      <trkpt lat="46.32521" lon="6.05478">
        <ele>582</ele>
        <time>2019-04-18T19:50:24Z</time>
      </trkpt>
      <trkpt lat="46.32522" lon="6.05487">
        <ele>582</ele>
        <time>2019-04-18T19:51:24Z</time>
      </trkpt>
      <trkpt lat="46.32526" lon="6.05494">
        <ele>582</ele>
        <time>2019-04-18T19:52:24Z</time>
      </trkpt>
      <trkpt lat="46.32529" lon="6.05496">
        <ele>582</ele>
        <time>2019-04-18T19:53:24Z</time>
      </trkpt>
      <trkpt lat="46.32535" lon="6.05496">
        <ele>582</ele>
        <time>2019-04-18T19:54:24Z</time>
      </trkpt>
      <trkpt lat="46.3254" lon="6.05491">
        <ele>582</ele>
        <time>2019-04-18T19:55:24Z</time>
      </trkpt>
      <trkpt lat="46.32542" lon="6.05487">
        <ele>582</ele>
        <time>2019-04-18T19:56:24Z</time>
      </trkpt>
      <trkpt lat="46.32544" lon="6.05495">
        <ele>582</ele>
        <time>2019-04-18T19:57:24Z</time>
      </trkpt>
      <trkpt lat="46.3266" lon="6.05538">
        <ele>585</ele>
        <time>2019-04-18T19:58:24Z</time>
      </trkpt>
      <trkpt lat="46.32662" lon="6.05534">
        <ele>586</ele>
        <time>2019-04-18T19:59:24Z</time>
      </trkpt>
      <trkpt lat="46.32661" lon="6.05539">
        <ele>585</ele>
        <time>2019-04-18T20:00:24Z</time>
      </trkpt>
      <trkpt lat="46.32772" lon="6.05582">
        <ele>591</ele>
        <time>2019-04-18T20:01:24Z</time>
      </trkpt>
      <trkpt lat="46.32776" lon="6.05579">
        <ele>591</ele>
        <time>2019-04-18T20:02:24Z</time>
      </trkpt>
      <trkpt lat="46.32925" lon="6.05637">
        <ele>590</ele>
        <time>2019-04-18T20:03:24Z</time>
      </trkpt>
      <trkpt lat="46.32929" lon="6.05637">
        <ele>590</ele>
        <time>2019-04-18T20:04:24Z</time>
      </trkpt>
      <trkpt lat="46.3293" lon="6.05641">
        <ele>590</ele>
        <time>2019-04-18T20:05:24Z</time>
      </trkpt>
      <trkpt lat="46.32935" lon="6.05648">
        <ele>590</ele>
        <time>2019-04-18T20:06:24Z</time>
      </trkpt>
      <trkpt lat="46.32941" lon="6.05648">
        <ele>590</ele>
        <time>2019-04-18T20:07:24Z</time>
      </trkpt>
      <trkpt lat="46.32945" lon="6.05643">
        <ele>590</ele>
        <time>2019-04-18T20:08:24Z</time>
      </trkpt>
      <trkpt lat="46.32948" lon="6.05651">
        <ele>590</ele>
        <time>2019-04-18T20:09:24Z</time>
      </trkpt>
      <trkpt lat="46.33033" lon="6.05685">
        <ele>588</ele>
        <time>2019-04-18T20:10:24Z</time>
      </trkpt>
      <trkpt lat="46.33036" lon="6.05682">
        <ele>588</ele>
        <time>2019-04-18T20:11:24Z</time>
      </trkpt>
      <trkpt lat="46.33037" lon="6.05687">
        <ele>588</ele>
        <time>2019-04-18T20:12:24Z</time>
      </trkpt>
      <trkpt lat="46.33179" lon="6.05742">
        <ele>599</ele>
        <time>2019-04-18T20:13:24Z</time>
      </trkpt>
      <trkpt lat="46.3319" lon="6.05744">
        <ele>600</ele>
        <time>2019-04-18T20:14:24Z</time>
      </trkpt>
      <trkpt lat="46.33219" lon="6.05787">
        <ele>602</ele>
        <time>2019-04-18T20:15:24Z</time>
      </trkpt>
      <trkpt lat="46.33217" lon="6.05795">
        <ele>602</ele>
        <time>2019-04-18T20:16:24Z</time>
      </trkpt>
      <trkpt lat="46.3322" lon="6.058">
        <ele>602</ele>
        <time>2019-04-18T20:17:24Z</time>
      </trkpt>
      <trkpt lat="46.33215" lon="6.05814">
        <ele>601</ele>
        <time>2019-04-18T20:18:24Z</time>
      </trkpt>
      <trkpt lat="46.33187" lon="6.05859">
        <ele>599</ele>
        <time>2019-04-18T20:19:24Z</time>
      </trkpt>
      <trkpt lat="46.3318" lon="6.05874">
        <ele>598</ele>
        <time>2019-04-18T20:20:24Z</time>
      </trkpt>
      <trkpt lat="46.33173" lon="6.05871">
        <ele>598</ele>
        <time>2019-04-18T20:21:24Z</time>
      </trkpt>
      <trkpt lat="46.33169" lon="6.05872">
        <ele>598</ele>
        <time>2019-04-18T20:22:24Z</time>
      </trkpt>
      <trkpt lat="46.33162" lon="6.05879">
        <ele>597</ele>
        <time>2019-04-18T20:23:24Z</time>
      </trkpt>
      <trkpt lat="46.33157" lon="6.05891">
        <ele>597</ele>
        <time>2019-04-18T20:24:24Z</time>
      </trkpt>
      <trkpt lat="46.33159" lon="6.05905">
        <ele>597</ele>
        <time>2019-04-18T20:25:24Z</time>
      </trkpt>
      <trkpt lat="46.33161" lon="6.05911">
        <ele>597</ele>
        <time>2019-04-18T20:26:24Z</time>
      </trkpt>
      <trkpt lat="46.3317" lon="6.05918">
        <ele>597</ele>
        <time>2019-04-18T20:27:24Z</time>
      </trkpt>
      <trkpt lat="46.33174" lon="6.05918">
        <ele>597</ele>
        <time>2019-04-18T20:28:24Z</time>
      </trkpt>
      <trkpt lat="46.33176" lon="6.05933">
        <ele>597</ele>
        <time>2019-04-18T20:29:24Z</time>
      </trkpt>
      <trkpt lat="46.33303" lon="6.062">
        <ele>591</ele>
        <time>2019-04-18T20:30:24Z</time>
      </trkpt>
      <trkpt lat="46.33311" lon="6.06198">
        <ele>592</ele>
        <time>2019-04-18T20:31:24Z</time>
      </trkpt>
      <trkpt lat="46.33322" lon="6.06206">
        <ele>592</ele>
        <time>2019-04-18T20:32:24Z</time>
      </trkpt>
      <trkpt lat="46.33329" lon="6.06221">
        <ele>592</ele>
        <time>2019-04-18T20:33:24Z</time>
      </trkpt>
      <trkpt lat="46.33338" lon="6.06236">
        <ele>592</ele>
        <time>2019-04-18T20:34:24Z</time>
      </trkpt>
      <trkpt lat="46.33367" lon="6.06275">
        <ele>592</ele>
        <time>2019-04-18T20:35:24Z</time>
      </trkpt>
      <trkpt lat="46.33406" lon="6.06351">
        <ele>592</ele>
        <time>2019-04-18T20:36:24Z</time>
      </trkpt>
      <trkpt lat="46.33448" lon="6.06445">
        <ele>590</ele>
        <time>2019-04-18T20:37:24Z</time>
      </trkpt>
      <trkpt lat="46.33453" lon="6.06449">
        <ele>590</ele>
        <time>2019-04-18T20:38:24Z</time>
      </trkpt>
      <trkpt lat="46.33459" lon="6.06461">
        <ele>590</ele>
        <time>2019-04-18T20:39:24Z</time>
      </trkpt>
      <trkpt lat="46.3346" lon="6.06468">
        <ele>590</ele>
        <time>2019-04-18T20:40:24Z</time>
      </trkpt>
      <trkpt lat="46.33567" lon="6.06727">
        <ele>589</ele>
        <time>2019-04-18T20:41:24Z</time>
      </trkpt>
      <trkpt lat="46.33566" lon="6.06733">
        <ele>589</ele>
        <time>2019-04-18T20:42:24Z</time>
      </trkpt>
      <trkpt lat="46.33572" lon="6.06736">
        <ele>589</ele>
        <time>2019-04-18T20:43:24Z</time>
      </trkpt>
      <trkpt lat="46.33682" lon="6.0699">
        <ele>592</ele>
        <time>2019-04-18T20:44:24Z</time>
      </trkpt>
      <trkpt lat="46.33681" lon="6.07001">
        <ele>591</ele>
        <time>2019-04-18T20:45:24Z</time>
      </trkpt>
      <trkpt lat="46.33689" lon="6.07003">
        <ele>592</ele>
        <time>2019-04-18T20:46:24Z</time>
      </trkpt>
      <trkpt lat="46.33749" lon="6.07162">
        <ele>593</ele>
        <time>2019-04-18T20:47:24Z</time>
      </trkpt>
      <trkpt lat="46.33748" lon="6.07171">
        <ele>593</ele>
        <time>2019-04-18T20:48:24Z</time>
      </trkpt>
      <trkpt lat="46.33752" lon="6.07171">
        <ele>593</ele>
        <time>2019-04-18T20:49:24Z</time>
      </trkpt>
      <trkpt lat="46.33774" lon="6.07233">
        <ele>593</ele>
        <time>2019-04-18T20:50:24Z</time>
      </trkpt>
      <trkpt lat="46.33773" lon="6.07237">
        <ele>593</ele>
        <time>2019-04-18T20:51:24Z</time>
      </trkpt>
      <trkpt lat="46.33808" lon="6.07346">
        <ele>593</ele>
        <time>2019-04-18T20:52:24Z</time>
      </trkpt>
      <trkpt lat="46.33805" lon="6.07351">
        <ele>593</ele>
        <time>2019-04-18T20:53:24Z</time>
      </trkpt>
      <trkpt lat="46.33801" lon="6.07363">
        <ele>592</ele>
        <time>2019-04-18T20:54:24Z</time>
      </trkpt>
      <trkpt lat="46.33803" lon="6.07377">
        <ele>592</ele>
        <time>2019-04-18T20:55:24Z</time>
      </trkpt>
      <trkpt lat="46.33805" lon="6.07382">
        <ele>592</ele>
        <time>2019-04-18T20:56:24Z</time>
      </trkpt>
      <trkpt lat="46.33813" lon="6.0739">
        <ele>592</ele>
        <time>2019-04-18T20:57:24Z</time>
      </trkpt>
      <trkpt lat="46.33822" lon="6.07391">
        <ele>592</ele>
        <time>2019-04-18T20:58:24Z</time>
      </trkpt>
      <trkpt lat="46.33865" lon="6.07771">
        <ele>589</ele>
        <time>2019-04-18T20:59:24Z</time>
      </trkpt>
      <trkpt lat="46.33888" lon="6.07989">
        <ele>590</ele>
        <time>2019-04-18T21:00:24Z</time>
      </trkpt>
      <trkpt lat="46.3391" lon="6.08112">
        <ele>589</ele>
        <time>2019-04-18T21:01:24Z</time>
      </trkpt>
      <trkpt lat="46.33926" lon="6.08175">
        <ele>587</ele>
        <time>2019-04-18T21:02:24Z</time>
      </trkpt>
      <trkpt lat="46.33949" lon="6.08256">
        <ele>586</ele>
        <time>2019-04-18T21:03:24Z</time>
      </trkpt>
      <trkpt lat="46.34239" lon="6.09134">
        <ele>608</ele>
        <time>2019-04-18T21:04:24Z</time>
      </trkpt>
      <trkpt lat="46.34281" lon="6.09251">
        <ele>608</ele>
        <time>2019-04-18T21:05:24Z</time>
      </trkpt>
      <trkpt lat="46.34389" lon="6.09505">
        <ele>613</ele>
        <time>2019-04-18T21:06:24Z</time>
      </trkpt>
      <trkpt lat="46.3462" lon="6.10029">
        <ele>611</ele>
        <time>2019-04-18T21:07:24Z</time>
      </trkpt>
      <trkpt lat="46.34688" lon="6.10154">
        <ele>617</ele>
        <time>2019-04-18T21:08:24Z</time>
      </trkpt>
      <trkpt lat="46.34736" lon="6.10222">
        <ele>620</ele>
        <time>2019-04-18T21:09:24Z</time>
      </trkpt>
      <trkpt lat="46.34834" lon="6.10349">
        <ele>624</ele>
        <time>2019-04-18T21:10:24Z</time>
      </trkpt>
      <trkpt lat="46.34964" lon="6.10536">
        <ele>627</ele>
        <time>2019-04-18T21:11:24Z</time>
      </trkpt>
      <trkpt lat="46.35006" lon="6.10607">
        <ele>626</ele>
        <time>2019-04-18T21:12:24Z</time>
      </trkpt>
      <trkpt lat="46.35038" lon="6.10671">
        <ele>625</ele>
        <time>2019-04-18T21:13:24Z</time>
      </trkpt>
      <trkpt lat="46.35231" lon="6.11073">
        <ele>619</ele>
        <time>2019-04-18T21:14:24Z</time>
      </trkpt>
      <trkpt lat="46.35252" lon="6.11108">
        <ele>621</ele>
        <time>2019-04-18T21:15:24Z</time>
      </trkpt>
      <trkpt lat="46.35282" lon="6.1115">
        <ele>622</ele>
        <time>2019-04-18T21:16:24Z</time>
      </trkpt>
      <trkpt lat="46.35402" lon="6.11291">
        <ele>624</ele>
        <time>2019-04-18T21:17:24Z</time>
      </trkpt>
      <trkpt lat="46.35517" lon="6.11399">
        <ele>614</ele>
        <time>2019-04-18T21:18:24Z</time>
      </trkpt>
      <trkpt lat="46.35579" lon="6.11448">
        <ele>610</ele>
        <time>2019-04-18T21:19:24Z</time>
      </trkpt>
      <trkpt lat="46.35634" lon="6.11486">
        <ele>607</ele>
        <time>2019-04-18T21:20:24Z</time>
      </trkpt>
      <trkpt lat="46.35699" lon="6.11528">
        <ele>601</ele>
        <time>2019-04-18T21:21:24Z</time>
      </trkpt>
      <trkpt lat="46.35812" lon="6.11591">
        <ele>587</ele>
        <time>2019-04-18T21:22:24Z</time>
      </trkpt>
      <trkpt lat="46.35852" lon="6.11624">
        <ele>584</ele>
        <time>2019-04-18T21:23:24Z</time>
      </trkpt>
      <trkpt lat="46.35891" lon="6.11668">
        <ele>581</ele>
        <time>2019-04-18T21:24:24Z</time>
      </trkpt>
      <trkpt lat="46.3591" lon="6.11693">
        <ele>580</ele>
        <time>2019-04-18T21:25:24Z</time>
      </trkpt>
      <trkpt lat="46.35926" lon="6.11721">
        <ele>580</ele>
        <time>2019-04-18T21:26:24Z</time>
      </trkpt>
      <trkpt lat="46.35945" lon="6.1176">
        <ele>578</ele>
        <time>2019-04-18T21:27:24Z</time>
      </trkpt>
      <trkpt lat="46.35963" lon="6.11805">
        <ele>577</ele>
        <time>2019-04-18T21:28:24Z</time>
      </trkpt>
      <trkpt lat="46.35974" lon="6.1184">
        <ele>575</ele>
        <time>2019-04-18T21:29:24Z</time>
      </trkpt>
      <trkpt lat="46.35986" lon="6.11894">
        <ele>570</ele>
        <time>2019-04-18T21:30:24Z</time>
      </trkpt>
      <trkpt lat="46.35995" lon="6.11954">
        <ele>566</ele>
        <time>2019-04-18T21:31:24Z</time>
      </trkpt>
      <trkpt lat="46.35998" lon="6.11993">
        <ele>566</ele>
        <time>2019-04-18T21:32:24Z</time>
      </trkpt>
      <trkpt lat="46.35999" lon="6.12059">
        <ele>563</ele>
        <time>2019-04-18T21:33:24Z</time>
      </trkpt>
      <trkpt lat="46.35999" lon="6.12118">
        <ele>558</ele>
        <time>2019-04-18T21:34:24Z</time>
      </trkpt>
      <trkpt lat="46.35995" lon="6.12166">
        <ele>555</ele>
        <time>2019-04-18T21:35:24Z</time>
      </trkpt>
      <trkpt lat="46.35988" lon="6.12229">
        <ele>553</ele>
        <time>2019-04-18T21:36:24Z</time>
      </trkpt>
      <trkpt lat="46.3593" lon="6.12524">
        <ele>544</ele>
        <time>2019-04-18T21:37:24Z</time>
      </trkpt>
      <trkpt lat="46.35897" lon="6.12678">
        <ele>542</ele>
        <time>2019-04-18T21:38:24Z</time>
      </trkpt>
      <trkpt lat="46.35861" lon="6.12893">
        <ele>544</ele>
        <time>2019-04-18T21:39:24Z</time>
      </trkpt>
      <trkpt lat="46.35859" lon="6.12912">
        <ele>543</ele>
        <time>2019-04-18T21:40:24Z</time>
      </trkpt>
      <trkpt lat="46.3586" lon="6.12935">
        <ele>541</ele>
        <time>2019-04-18T21:41:24Z</time>
      </trkpt>
      <trkpt lat="46.35863" lon="6.12988">
        <ele>536</ele>
        <time>2019-04-18T21:42:24Z</time>
      </trkpt>
      <trkpt lat="46.35867" lon="6.13018">
        <ele>532</ele>
        <time>2019-04-18T21:43:24Z</time>
      </trkpt>
      <trkpt lat="46.35863" lon="6.13067">
        <ele>525</ele>
        <time>2019-04-18T21:44:24Z</time>
      </trkpt>
      <trkpt lat="46.35852" lon="6.13118">
        <ele>521</ele>
        <time>2019-04-18T21:45:24Z</time>
      </trkpt>
      <trkpt lat="46.35839" lon="6.13153">
        <ele>519</ele>
        <time>2019-04-18T21:46:24Z</time>
      </trkpt>
      <trkpt lat="46.35788" lon="6.13451">
        <ele>506</ele>
        <time>2019-04-18T21:47:24Z</time>
      </trkpt>
      <trkpt lat="46.35776" lon="6.1349">
        <ele>505</ele>
        <time>2019-04-18T21:48:24Z</time>
      </trkpt>
      <trkpt lat="46.35739" lon="6.13577">
        <ele>503</ele>
        <time>2019-04-18T21:49:24Z</time>
      </trkpt>
      <trkpt lat="46.3573" lon="6.13593">
        <ele>502</ele>
        <time>2019-04-18T21:50:24Z</time>
      </trkpt>
      <trkpt lat="46.35712" lon="6.13617">
        <ele>501</ele>
        <time>2019-04-18T21:51:24Z</time>
      </trkpt>
      <trkpt lat="46.35657" lon="6.13654">
        <ele>499</ele>
        <time>2019-04-18T21:52:24Z</time>
      </trkpt>
      <trkpt lat="46.3563" lon="6.13681">
        <ele>494</ele>
        <time>2019-04-18T21:53:24Z</time>
      </trkpt>
      <trkpt lat="46.35618" lon="6.13701">
        <ele>492</ele>
        <time>2019-04-18T21:54:24Z</time>
      </trkpt>
      <trkpt lat="46.35605" lon="6.13726">
        <ele>489</ele>
        <time>2019-04-18T21:55:24Z</time>
      </trkpt>
      <trkpt lat="46.35603" lon="6.13736">
        <ele>488</ele>
        <time>2019-04-18T21:56:24Z</time>
      </trkpt>
      <trkpt lat="46.35604" lon="6.13753">
        <ele>487</ele>
        <time>2019-04-18T21:57:24Z</time>
      </trkpt>
      <trkpt lat="46.35599" lon="6.13756">
        <ele>487</ele>
        <time>2019-04-18T21:58:24Z</time>
      </trkpt>
      <trkpt lat="46.35597" lon="6.13763">
        <ele>487</ele>
        <time>2019-04-18T21:59:24Z</time>
      </trkpt>
      <trkpt lat="46.35599" lon="6.13773">
        <ele>487</ele>
        <time>2019-04-18T22:00:24Z</time>
      </trkpt>
      <trkpt lat="46.35589" lon="6.13789">
        <ele>487</ele>
        <time>2019-04-18T22:01:24Z</time>
      </trkpt>
      <trkpt lat="46.3558" lon="6.13813">
        <ele>487</ele>
        <time>2019-04-18T22:02:24Z</time>
      </trkpt>
      <trkpt lat="46.3557" lon="6.13826">
        <ele>486</ele>
        <time>2019-04-18T22:03:24Z</time>
      </trkpt>
      <trkpt lat="46.35561" lon="6.13835">
        <ele>486</ele>
        <time>2019-04-18T22:04:24Z</time>
      </trkpt>
    </trkseg>
  </trk>
  <trk>
    <name><![CDATA[J6bis]]></name>
    <trkseg>
      <trkpt lat="46.16375" lon="5.76644">
        <ele>453</ele>
        <time>2019-04-17T10:11:50Z</time>
      </trkpt>
      <trkpt lat="46.16374" lon="5.76651">
        <ele>453</ele>
        <time>2019-04-17T10:12:50Z</time>
      </trkpt>
      <trkpt lat="46.16393" lon="5.76672">
        <ele>445</ele>
        <time>2019-04-17T10:13:50Z</time>
      </trkpt>
      <trkpt lat="46.1641" lon="5.76702">
        <ele>437</ele>
        <time>2019-04-17T10:14:50Z</time>
      </trkpt>
      <trkpt lat="46.16421" lon="5.76725">
        <ele>435</ele>
        <time>2019-04-17T10:15:50Z</time>
      </trkpt>
      <trkpt lat="46.16431" lon="5.76753">
        <ele>436</ele>
        <time>2019-04-17T10:16:50Z</time>
      </trkpt>
      <trkpt lat="46.16438" lon="5.76779">
        <ele>436</ele>
        <time>2019-04-17T10:17:50Z</time>
      </trkpt>
      <trkpt lat="46.16456" lon="5.76863">
        <ele>444</ele>
        <time>2019-04-17T10:18:50Z</time>
      </trkpt>
      <trkpt lat="46.16455" lon="5.76884">
        <ele>446</ele>
        <time>2019-04-17T10:19:50Z</time>
      </trkpt>
      <trkpt lat="46.16435" lon="5.76942">
        <ele>439</ele>
        <time>2019-04-17T10:20:50Z</time>
      </trkpt>
      <trkpt lat="46.1643" lon="5.76981">
        <ele>437</ele>
        <time>2019-04-17T10:21:50Z</time>
      </trkpt>
      <trkpt lat="46.16427" lon="5.77083">
        <ele>438</ele>
        <time>2019-04-17T10:22:50Z</time>
      </trkpt>
      <trkpt lat="46.16428" lon="5.77097">
        <ele>439</ele>
        <time>2019-04-17T10:23:50Z</time>
      </trkpt>
      <trkpt lat="46.1643" lon="5.77115">
        <ele>439</ele>
        <time>2019-04-17T10:24:50Z</time>
      </trkpt>
      <trkpt lat="46.16445" lon="5.77201">
        <ele>444</ele>
        <time>2019-04-17T10:25:50Z</time>
      </trkpt>
      <trkpt lat="46.16448" lon="5.77226">
        <ele>446</ele>
        <time>2019-04-17T10:26:50Z</time>
      </trkpt>
      <trkpt lat="46.16443" lon="5.77328">
        <ele>448</ele>
        <time>2019-04-17T10:27:50Z</time>
      </trkpt>
      <trkpt lat="46.16444" lon="5.77343">
        <ele>449</ele>
        <time>2019-04-17T10:28:50Z</time>
      </trkpt>
      <trkpt lat="46.16451" lon="5.77384">
        <ele>453</ele>
        <time>2019-04-17T10:29:50Z</time>
      </trkpt>
      <trkpt lat="46.16468" lon="5.77461">
        <ele>461</ele>
        <time>2019-04-17T10:30:50Z</time>
      </trkpt>
      <trkpt lat="46.16473" lon="5.77497">
        <ele>465</ele>
        <time>2019-04-17T10:31:50Z</time>
      </trkpt>
      <trkpt lat="46.16473" lon="5.77561">
        <ele>467</ele>
        <time>2019-04-17T10:32:50Z</time>
      </trkpt>
      <trkpt lat="46.16476" lon="5.77625">
        <ele>467</ele>
        <time>2019-04-17T10:33:50Z</time>
      </trkpt>
      <trkpt lat="46.16482" lon="5.77646">
        <ele>469</ele>
        <time>2019-04-17T10:34:50Z</time>
      </trkpt>
      <trkpt lat="46.16501" lon="5.7768">
        <ele>474</ele>
        <time>2019-04-17T10:35:50Z</time>
      </trkpt>
      <trkpt lat="46.16511" lon="5.77703">
        <ele>479</ele>
        <time>2019-04-17T10:36:50Z</time>
      </trkpt>
      <trkpt lat="46.16515" lon="5.77724">
        <ele>480</ele>
        <time>2019-04-17T10:37:50Z</time>
      </trkpt>
      <trkpt lat="46.16517" lon="5.77751">
        <ele>480</ele>
        <time>2019-04-17T10:38:50Z</time>
      </trkpt>
      <trkpt lat="46.16523" lon="5.77773">
        <ele>481</ele>
        <time>2019-04-17T10:39:50Z</time>
      </trkpt>
      <trkpt lat="46.1654" lon="5.77807">
        <ele>486</ele>
        <time>2019-04-17T10:40:50Z</time>
      </trkpt>
      <trkpt lat="46.16557" lon="5.77849">
        <ele>489</ele>
        <time>2019-04-17T10:41:50Z</time>
      </trkpt>
      <trkpt lat="46.16567" lon="5.77861">
        <ele>491</ele>
        <time>2019-04-17T10:42:50Z</time>
      </trkpt>
      <trkpt lat="46.16584" lon="5.77877">
        <ele>493</ele>
        <time>2019-04-17T10:43:50Z</time>
      </trkpt>
      <trkpt lat="46.16589" lon="5.77889">
        <ele>493</ele>
        <time>2019-04-17T10:44:50Z</time>
      </trkpt>
      <trkpt lat="46.16592" lon="5.77912">
        <ele>492</ele>
        <time>2019-04-17T10:45:50Z</time>
      </trkpt>
      <trkpt lat="46.16588" lon="5.77927">
        <ele>490</ele>
        <time>2019-04-17T10:46:50Z</time>
      </trkpt>
      <trkpt lat="46.16573" lon="5.77958">
        <ele>490</ele>
        <time>2019-04-17T10:47:50Z</time>
      </trkpt>
      <trkpt lat="46.16571" lon="5.77976">
        <ele>492</ele>
        <time>2019-04-17T10:48:50Z</time>
      </trkpt>
      <trkpt lat="46.16572" lon="5.78002">
        <ele>495</ele>
        <time>2019-04-17T10:49:50Z</time>
      </trkpt>
      <trkpt lat="46.16571" lon="5.78005">
        <ele>496</ele>
        <time>2019-04-17T10:50:50Z</time>
      </trkpt>
      <trkpt lat="46.16563" lon="5.78015">
        <ele>501</ele>
        <time>2019-04-17T10:51:50Z</time>
      </trkpt>
      <trkpt lat="46.16553" lon="5.78015">
        <ele>503</ele>
        <time>2019-04-17T10:52:50Z</time>
      </trkpt>
      <trkpt lat="46.16548" lon="5.78012">
        <ele>503</ele>
        <time>2019-04-17T10:53:50Z</time>
      </trkpt>
      <trkpt lat="46.16531" lon="5.77983">
        <ele>499</ele>
        <time>2019-04-17T10:54:50Z</time>
      </trkpt>
      <trkpt lat="46.16523" lon="5.77961">
        <ele>496</ele>
        <time>2019-04-17T10:55:50Z</time>
      </trkpt>
      <trkpt lat="46.16515" lon="5.77949">
        <ele>493</ele>
        <time>2019-04-17T10:56:50Z</time>
      </trkpt>
      <trkpt lat="46.16488" lon="5.77927">
        <ele>489</ele>
        <time>2019-04-17T10:57:50Z</time>
      </trkpt>
      <trkpt lat="46.16469" lon="5.77905">
        <ele>484</ele>
        <time>2019-04-17T10:58:50Z</time>
      </trkpt>
      <trkpt lat="46.16458" lon="5.77901">
        <ele>484</ele>
        <time>2019-04-17T10:59:50Z</time>
      </trkpt>
      <trkpt lat="46.16448" lon="5.77903">
        <ele>484</ele>
        <time>2019-04-17T11:00:50Z</time>
      </trkpt>
      <trkpt lat="46.16441" lon="5.77911">
        <ele>487</ele>
        <time>2019-04-17T11:01:50Z</time>
      </trkpt>
      <trkpt lat="46.16434" lon="5.77929">
        <ele>492</ele>
        <time>2019-04-17T11:02:50Z</time>
      </trkpt>
      <trkpt lat="46.16424" lon="5.77967">
        <ele>504</ele>
        <time>2019-04-17T11:03:50Z</time>
      </trkpt>
      <trkpt lat="46.16421" lon="5.77973">
        <ele>506</ele>
        <time>2019-04-17T11:04:50Z</time>
      </trkpt>
      <trkpt lat="46.16414" lon="5.77982">
        <ele>508</ele>
        <time>2019-04-17T11:05:50Z</time>
      </trkpt>
      <trkpt lat="46.16405" lon="5.77988">
        <ele>507</ele>
        <time>2019-04-17T11:06:50Z</time>
      </trkpt>
      <trkpt lat="46.16361" lon="5.77992">
        <ele>496</ele>
        <time>2019-04-17T11:07:50Z</time>
      </trkpt>
      <trkpt lat="46.16351" lon="5.77999">
        <ele>495</ele>
        <time>2019-04-17T11:08:50Z</time>
      </trkpt>
      <trkpt lat="46.1634" lon="5.78015">
        <ele>497</ele>
        <time>2019-04-17T11:09:50Z</time>
      </trkpt>
      <trkpt lat="46.16331" lon="5.78035">
        <ele>499</ele>
        <time>2019-04-17T11:10:50Z</time>
      </trkpt>
      <trkpt lat="46.16307" lon="5.7813">
        <ele>513</ele>
        <time>2019-04-17T11:11:50Z</time>
      </trkpt>
      <trkpt lat="46.16299" lon="5.78167">
        <ele>518</ele>
        <time>2019-04-17T11:12:50Z</time>
      </trkpt>
      <trkpt lat="46.1629" lon="5.78197">
        <ele>523</ele>
        <time>2019-04-17T11:13:50Z</time>
      </trkpt>
      <trkpt lat="46.16274" lon="5.78227">
        <ele>525</ele>
        <time>2019-04-17T11:14:50Z</time>
      </trkpt>
      <trkpt lat="46.16243" lon="5.78272">
        <ele>524</ele>
        <time>2019-04-17T11:15:50Z</time>
      </trkpt>
      <trkpt lat="46.16228" lon="5.783">
        <ele>523</ele>
        <time>2019-04-17T11:16:50Z</time>
      </trkpt>
      <trkpt lat="46.16198" lon="5.78375">
        <ele>525</ele>
        <time>2019-04-17T11:17:50Z</time>
      </trkpt>
      <trkpt lat="46.16171" lon="5.78497">
        <ele>534</ele>
        <time>2019-04-17T11:18:50Z</time>
      </trkpt>
      <trkpt lat="46.16149" lon="5.78562">
        <ele>538</ele>
        <time>2019-04-17T11:19:50Z</time>
      </trkpt>
      <trkpt lat="46.16095" lon="5.7867">
        <ele>542</ele>
        <time>2019-04-17T11:20:50Z</time>
      </trkpt>
      <trkpt lat="46.16038" lon="5.78828">
        <ele>556</ele>
        <time>2019-04-17T11:21:50Z</time>
      </trkpt>
      <trkpt lat="46.15984" lon="5.78939">
        <ele>560</ele>
        <time>2019-04-17T11:22:50Z</time>
      </trkpt>
      <trkpt lat="46.15863" lon="5.79156">
        <ele>566</ele>
        <time>2019-04-17T11:23:50Z</time>
      </trkpt>
      <trkpt lat="46.15807" lon="5.79276">
        <ele>567</ele>
        <time>2019-04-17T11:24:50Z</time>
      </trkpt>
      <trkpt lat="46.1577" lon="5.79372">
        <ele>569</ele>
        <time>2019-04-17T11:25:50Z</time>
      </trkpt>
      <trkpt lat="46.1575" lon="5.79419">
        <ele>570</ele>
        <time>2019-04-17T11:26:50Z</time>
      </trkpt>
      <trkpt lat="46.15734" lon="5.79445">
        <ele>569</ele>
        <time>2019-04-17T11:27:50Z</time>
      </trkpt>
      <trkpt lat="46.15713" lon="5.79474">
        <ele>569</ele>
        <time>2019-04-17T11:28:50Z</time>
      </trkpt>
      <trkpt lat="46.15689" lon="5.79518">
        <ele>572</ele>
        <time>2019-04-17T11:29:50Z</time>
      </trkpt>
      <trkpt lat="46.15678" lon="5.79543">
        <ele>574</ele>
        <time>2019-04-17T11:30:50Z</time>
      </trkpt>
      <trkpt lat="46.15675" lon="5.79559">
        <ele>576</ele>
        <time>2019-04-17T11:31:50Z</time>
      </trkpt>
      <trkpt lat="46.15675" lon="5.79575">
        <ele>578</ele>
        <time>2019-04-17T11:32:50Z</time>
      </trkpt>
      <trkpt lat="46.15676" lon="5.7959">
        <ele>579</ele>
        <time>2019-04-17T11:33:50Z</time>
      </trkpt>
      <trkpt lat="46.15684" lon="5.79616">
        <ele>580</ele>
        <time>2019-04-17T11:34:50Z</time>
      </trkpt>
      <trkpt lat="46.15696" lon="5.79636">
        <ele>581</ele>
        <time>2019-04-17T11:35:50Z</time>
      </trkpt>
      <trkpt lat="46.15819" lon="5.79749">
        <ele>587</ele>
        <time>2019-04-17T11:36:50Z</time>
      </trkpt>
      <trkpt lat="46.15922" lon="5.79861">
        <ele>589</ele>
        <time>2019-04-17T11:37:50Z</time>
      </trkpt>
      <trkpt lat="46.15938" lon="5.79876">
        <ele>590</ele>
        <time>2019-04-17T11:38:50Z</time>
      </trkpt>
      <trkpt lat="46.15969" lon="5.79899">
        <ele>590</ele>
        <time>2019-04-17T11:39:50Z</time>
      </trkpt>
      <trkpt lat="46.16019" lon="5.79924">
        <ele>590</ele>
        <time>2019-04-17T11:40:50Z</time>
      </trkpt>
      <trkpt lat="46.16036" lon="5.79932">
        <ele>591</ele>
        <time>2019-04-17T11:41:50Z</time>
      </trkpt>
      <trkpt lat="46.16095" lon="5.79949">
        <ele>593</ele>
        <time>2019-04-17T11:42:50Z</time>
      </trkpt>
      <trkpt lat="46.16111" lon="5.79955">
        <ele>594</ele>
        <time>2019-04-17T11:43:50Z</time>
      </trkpt>
      <trkpt lat="46.1613" lon="5.79967">
        <ele>594</ele>
        <time>2019-04-17T11:44:50Z</time>
      </trkpt>
      <trkpt lat="46.16192" lon="5.80022">
        <ele>594</ele>
        <time>2019-04-17T11:45:50Z</time>
      </trkpt>
      <trkpt lat="46.16338" lon="5.80161">
        <ele>598</ele>
        <time>2019-04-17T11:46:50Z</time>
      </trkpt>
      <trkpt lat="46.16383" lon="5.80202">
        <ele>600</ele>
        <time>2019-04-17T11:47:50Z</time>
      </trkpt>
      <trkpt lat="46.16397" lon="5.8021">
        <ele>601</ele>
        <time>2019-04-17T11:48:50Z</time>
      </trkpt>
      <trkpt lat="46.16416" lon="5.80217">
        <ele>603</ele>
        <time>2019-04-17T11:49:50Z</time>
      </trkpt>
      <trkpt lat="46.16439" lon="5.8022">
        <ele>604</ele>
        <time>2019-04-17T11:50:50Z</time>
      </trkpt>
      <trkpt lat="46.16484" lon="5.8022">
        <ele>608</ele>
        <time>2019-04-17T11:51:50Z</time>
      </trkpt>
      <trkpt lat="46.16488" lon="5.80223">
        <ele>608</ele>
        <time>2019-04-17T11:52:50Z</time>
      </trkpt>
      <trkpt lat="46.16543" lon="5.80305">
        <ele>610</ele>
        <time>2019-04-17T11:53:50Z</time>
      </trkpt>
      <trkpt lat="46.16565" lon="5.80334">
        <ele>610</ele>
        <time>2019-04-17T11:54:50Z</time>
      </trkpt>
      <trkpt lat="46.1658" lon="5.80349">
        <ele>609</ele>
        <time>2019-04-17T11:55:50Z</time>
      </trkpt>
      <trkpt lat="46.16607" lon="5.80374">
        <ele>610</ele>
        <time>2019-04-17T11:56:50Z</time>
      </trkpt>
      <trkpt lat="46.16695" lon="5.80433">
        <ele>606</ele>
        <time>2019-04-17T11:57:50Z</time>
      </trkpt>
      <trkpt lat="46.16711" lon="5.80437">
        <ele>606</ele>
        <time>2019-04-17T11:58:50Z</time>
      </trkpt>
      <trkpt lat="46.16732" lon="5.80437">
        <ele>606</ele>
        <time>2019-04-17T11:59:50Z</time>
      </trkpt>
      <trkpt lat="46.16754" lon="5.8043">
        <ele>606</ele>
        <time>2019-04-17T12:00:50Z</time>
      </trkpt>
      <trkpt lat="46.16762" lon="5.80425">
        <ele>606</ele>
        <time>2019-04-17T12:01:50Z</time>
      </trkpt>
      <trkpt lat="46.16787" lon="5.80401">
        <ele>606</ele>
        <time>2019-04-17T12:02:50Z</time>
      </trkpt>
      <trkpt lat="46.16807" lon="5.80377">
        <ele>607</ele>
        <time>2019-04-17T12:03:50Z</time>
      </trkpt>
      <trkpt lat="46.16844" lon="5.80329">
        <ele>609</ele>
        <time>2019-04-17T12:04:50Z</time>
      </trkpt>
      <trkpt lat="46.1686" lon="5.80314">
        <ele>612</ele>
        <time>2019-04-17T12:05:50Z</time>
      </trkpt>
      <trkpt lat="46.16878" lon="5.80304">
        <ele>614</ele>
        <time>2019-04-17T12:06:50Z</time>
      </trkpt>
      <trkpt lat="46.16889" lon="5.80301">
        <ele>615</ele>
        <time>2019-04-17T12:07:50Z</time>
      </trkpt>
      <trkpt lat="46.16917" lon="5.80312">
        <ele>612</ele>
        <time>2019-04-17T12:08:50Z</time>
      </trkpt>
      <trkpt lat="46.16977" lon="5.80367">
        <ele>613</ele>
        <time>2019-04-17T12:09:50Z</time>
      </trkpt>
      <trkpt lat="46.17008" lon="5.804">
        <ele>610</ele>
        <time>2019-04-17T12:10:50Z</time>
      </trkpt>
      <trkpt lat="46.17028" lon="5.80428">
        <ele>608</ele>
        <time>2019-04-17T12:11:50Z</time>
      </trkpt>
      <trkpt lat="46.17061" lon="5.80496">
        <ele>602</ele>
        <time>2019-04-17T12:12:50Z</time>
      </trkpt>
      <trkpt lat="46.17071" lon="5.80513">
        <ele>601</ele>
        <time>2019-04-17T12:13:50Z</time>
      </trkpt>
      <trkpt lat="46.17083" lon="5.80526">
        <ele>602</ele>
        <time>2019-04-17T12:14:50Z</time>
      </trkpt>
      <trkpt lat="46.17112" lon="5.80539">
        <ele>606</ele>
        <time>2019-04-17T12:15:50Z</time>
      </trkpt>
      <trkpt lat="46.17186" lon="5.8058">
        <ele>606</ele>
        <time>2019-04-17T12:16:50Z</time>
      </trkpt>
      <trkpt lat="46.17273" lon="5.80615">
        <ele>607</ele>
        <time>2019-04-17T12:17:50Z</time>
      </trkpt>
      <trkpt lat="46.17531" lon="5.8071">
        <ele>605</ele>
        <time>2019-04-17T12:18:50Z</time>
      </trkpt>
      <trkpt lat="46.17659" lon="5.80732">
        <ele>604</ele>
        <time>2019-04-17T12:19:50Z</time>
      </trkpt>
      <trkpt lat="46.17672" lon="5.80727">
        <ele>606</ele>
        <time>2019-04-17T12:20:50Z</time>
      </trkpt>
      <trkpt lat="46.17699" lon="5.80715">
        <ele>610</ele>
        <time>2019-04-17T12:21:50Z</time>
      </trkpt>
      <trkpt lat="46.17725" lon="5.80697">
        <ele>616</ele>
        <time>2019-04-17T12:22:50Z</time>
      </trkpt>
      <trkpt lat="46.17781" lon="5.80676">
        <ele>621</ele>
        <time>2019-04-17T12:23:50Z</time>
      </trkpt>
      <trkpt lat="46.1782" lon="5.80665">
        <ele>623</ele>
        <time>2019-04-17T12:24:50Z</time>
      </trkpt>
      <trkpt lat="46.17844" lon="5.80663">
        <ele>624</ele>
        <time>2019-04-17T12:25:50Z</time>
      </trkpt>
      <trkpt lat="46.1787" lon="5.80664">
        <ele>624</ele>
        <time>2019-04-17T12:26:50Z</time>
      </trkpt>
      <trkpt lat="46.17894" lon="5.80673">
        <ele>621</ele>
        <time>2019-04-17T12:27:50Z</time>
      </trkpt>
      <trkpt lat="46.17925" lon="5.80697">
        <ele>615</ele>
        <time>2019-04-17T12:28:50Z</time>
      </trkpt>
      <trkpt lat="46.17938" lon="5.80702">
        <ele>613</ele>
        <time>2019-04-17T12:29:50Z</time>
      </trkpt>
      <trkpt lat="46.17959" lon="5.807">
        <ele>614</ele>
        <time>2019-04-17T12:30:50Z</time>
      </trkpt>
      <trkpt lat="46.18025" lon="5.80673">
        <ele>619</ele>
        <time>2019-04-17T12:31:50Z</time>
      </trkpt>
      <trkpt lat="46.18048" lon="5.8067">
        <ele>617</ele>
        <time>2019-04-17T12:32:50Z</time>
      </trkpt>
      <trkpt lat="46.18072" lon="5.80679">
        <ele>613</ele>
        <time>2019-04-17T12:33:50Z</time>
      </trkpt>
      <trkpt lat="46.18142" lon="5.80719">
        <ele>614</ele>
        <time>2019-04-17T12:34:50Z</time>
      </trkpt>
      <trkpt lat="46.18166" lon="5.80743">
        <ele>612</ele>
        <time>2019-04-17T12:35:50Z</time>
      </trkpt>
      <trkpt lat="46.18192" lon="5.8076">
        <ele>614</ele>
        <time>2019-04-17T12:36:50Z</time>
      </trkpt>
      <trkpt lat="46.18222" lon="5.80775">
        <ele>617</ele>
        <time>2019-04-17T12:37:50Z</time>
      </trkpt>
      <trkpt lat="46.18292" lon="5.80828">
        <ele>616</ele>
        <time>2019-04-17T12:38:50Z</time>
      </trkpt>
      <trkpt lat="46.18331" lon="5.80861">
        <ele>617</ele>
        <time>2019-04-17T12:39:50Z</time>
      </trkpt>
      <trkpt lat="46.18362" lon="5.80879">
        <ele>621</ele>
        <time>2019-04-17T12:40:50Z</time>
      </trkpt>
      <trkpt lat="46.18398" lon="5.80891">
        <ele>624</ele>
        <time>2019-04-17T12:41:50Z</time>
      </trkpt>
      <trkpt lat="46.1844" lon="5.80895">
        <ele>629</ele>
        <time>2019-04-17T12:42:50Z</time>
      </trkpt>
      <trkpt lat="46.18518" lon="5.80894">
        <ele>636</ele>
        <time>2019-04-17T12:43:50Z</time>
      </trkpt>
      <trkpt lat="46.18536" lon="5.80886">
        <ele>637</ele>
        <time>2019-04-17T12:44:50Z</time>
      </trkpt>
      <trkpt lat="46.18582" lon="5.80855">
        <ele>637</ele>
        <time>2019-04-17T12:45:50Z</time>
      </trkpt>
      <trkpt lat="46.18601" lon="5.80847">
        <ele>638</ele>
        <time>2019-04-17T12:46:50Z</time>
      </trkpt>
      <trkpt lat="46.18642" lon="5.80846">
        <ele>641</ele>
        <time>2019-04-17T12:47:50Z</time>
      </trkpt>
      <trkpt lat="46.18681" lon="5.8085">
        <ele>643</ele>
        <time>2019-04-17T12:48:50Z</time>
      </trkpt>
      <trkpt lat="46.18701" lon="5.80855">
        <ele>644</ele>
        <time>2019-04-17T12:49:50Z</time>
      </trkpt>
      <trkpt lat="46.1872" lon="5.80866">
        <ele>645</ele>
        <time>2019-04-17T12:50:50Z</time>
      </trkpt>
      <trkpt lat="46.18741" lon="5.80881">
        <ele>645</ele>
        <time>2019-04-17T12:51:50Z</time>
      </trkpt>
      <trkpt lat="46.18926" lon="5.81081">
        <ele>658</ele>
        <time>2019-04-17T12:52:50Z</time>
      </trkpt>
      <trkpt lat="46.18988" lon="5.8114">
        <ele>660</ele>
        <time>2019-04-17T12:53:50Z</time>
      </trkpt>
      <trkpt lat="46.18987" lon="5.81146">
        <ele>660</ele>
        <time>2019-04-17T12:54:50Z</time>
      </trkpt>
      <trkpt lat="46.18989" lon="5.81159">
        <ele>660</ele>
        <time>2019-04-17T12:55:50Z</time>
      </trkpt>
      <trkpt lat="46.18993" lon="5.81163">
        <ele>660</ele>
        <time>2019-04-17T12:56:50Z</time>
      </trkpt>
      <trkpt lat="46.19001" lon="5.81166">
        <ele>659</ele>
        <time>2019-04-17T12:57:50Z</time>
      </trkpt>
      <trkpt lat="46.1901" lon="5.81161">
        <ele>659</ele>
        <time>2019-04-17T12:58:50Z</time>
      </trkpt>
      <trkpt lat="46.19017" lon="5.81166">
        <ele>658</ele>
        <time>2019-04-17T12:59:50Z</time>
      </trkpt>
      <trkpt lat="46.19123" lon="5.81311">
        <ele>656</ele>
        <time>2019-04-17T13:00:50Z</time>
      </trkpt>
      <trkpt lat="46.19185" lon="5.81372">
        <ele>653</ele>
        <time>2019-04-17T13:01:50Z</time>
      </trkpt>
      <trkpt lat="46.19233" lon="5.81444">
        <ele>651</ele>
        <time>2019-04-17T13:02:50Z</time>
      </trkpt>
      <trkpt lat="46.19276" lon="5.81494">
        <ele>649</ele>
        <time>2019-04-17T13:03:50Z</time>
      </trkpt>
      <trkpt lat="46.19405" lon="5.81626">
        <ele>646</ele>
        <time>2019-04-17T13:04:50Z</time>
      </trkpt>
      <trkpt lat="46.19451" lon="5.81671">
        <ele>644</ele>
        <time>2019-04-17T13:05:50Z</time>
      </trkpt>
      <trkpt lat="46.19461" lon="5.81683">
        <ele>643</ele>
        <time>2019-04-17T13:06:50Z</time>
      </trkpt>
      <trkpt lat="46.19466" lon="5.81705">
        <ele>643</ele>
        <time>2019-04-17T13:07:50Z</time>
      </trkpt>
      <trkpt lat="46.19503" lon="5.81775">
        <ele>641</ele>
        <time>2019-04-17T13:08:50Z</time>
      </trkpt>
      <trkpt lat="46.19519" lon="5.81813">
        <ele>643</ele>
        <time>2019-04-17T13:09:50Z</time>
      </trkpt>
      <trkpt lat="46.19533" lon="5.8187">
        <ele>646</ele>
        <time>2019-04-17T13:10:50Z</time>
      </trkpt>
      <trkpt lat="46.19539" lon="5.81913">
        <ele>648</ele>
        <time>2019-04-17T13:11:50Z</time>
      </trkpt>
      <trkpt lat="46.19538" lon="5.81984">
        <ele>650</ele>
        <time>2019-04-17T13:12:50Z</time>
      </trkpt>
      <trkpt lat="46.19529" lon="5.82045">
        <ele>651</ele>
        <time>2019-04-17T13:13:50Z</time>
      </trkpt>
      <trkpt lat="46.19509" lon="5.82215">
        <ele>656</ele>
        <time>2019-04-17T13:14:50Z</time>
      </trkpt>
      <trkpt lat="46.19507" lon="5.82248">
        <ele>656</ele>
        <time>2019-04-17T13:15:50Z</time>
      </trkpt>
      <trkpt lat="46.19519" lon="5.82474">
        <ele>659</ele>
        <time>2019-04-17T13:16:50Z</time>
      </trkpt>
      <trkpt lat="46.19525" lon="5.82511">
        <ele>659</ele>
        <time>2019-04-17T13:17:50Z</time>
      </trkpt>
      <trkpt lat="46.19559" lon="5.82621">
        <ele>662</ele>
        <time>2019-04-17T13:18:50Z</time>
      </trkpt>
      <trkpt lat="46.19563" lon="5.82651">
        <ele>663</ele>
        <time>2019-04-17T13:19:50Z</time>
      </trkpt>
      <trkpt lat="46.19561" lon="5.82676">
        <ele>663</ele>
        <time>2019-04-17T13:20:50Z</time>
      </trkpt>
      <trkpt lat="46.19553" lon="5.8274">
        <ele>667</ele>
        <time>2019-04-17T13:21:50Z</time>
      </trkpt>
      <trkpt lat="46.19543" lon="5.82796">
        <ele>674</ele>
        <time>2019-04-17T13:22:50Z</time>
      </trkpt>
      <trkpt lat="46.19524" lon="5.8283">
        <ele>673</ele>
        <time>2019-04-17T13:23:50Z</time>
      </trkpt>
      <trkpt lat="46.19497" lon="5.82867">
        <ele>671</ele>
        <time>2019-04-17T13:24:50Z</time>
      </trkpt>
      <trkpt lat="46.19487" lon="5.82875">
        <ele>671</ele>
        <time>2019-04-17T13:25:50Z</time>
      </trkpt>
      <trkpt lat="46.19463" lon="5.82881">
        <ele>668</ele>
        <time>2019-04-17T13:26:50Z</time>
      </trkpt>
      <trkpt lat="46.19447" lon="5.82881">
        <ele>666</ele>
        <time>2019-04-17T13:27:50Z</time>
      </trkpt>
      <trkpt lat="46.19435" lon="5.82886">
        <ele>665</ele>
        <time>2019-04-17T13:28:50Z</time>
      </trkpt>
      <trkpt lat="46.19416" lon="5.82911">
        <ele>667</ele>
        <time>2019-04-17T13:29:50Z</time>
      </trkpt>
      <trkpt lat="46.19411" lon="5.82924">
        <ele>667</ele>
        <time>2019-04-17T13:30:50Z</time>
      </trkpt>
      <trkpt lat="46.19412" lon="5.82935">
        <ele>666</ele>
        <time>2019-04-17T13:31:50Z</time>
      </trkpt>
      <trkpt lat="46.19416" lon="5.82944">
        <ele>665</ele>
        <time>2019-04-17T13:32:50Z</time>
      </trkpt>
      <trkpt lat="46.19428" lon="5.82954">
        <ele>666</ele>
        <time>2019-04-17T13:33:50Z</time>
      </trkpt>
      <trkpt lat="46.19508" lon="5.82981">
        <ele>678</ele>
        <time>2019-04-17T13:34:50Z</time>
      </trkpt>
      <trkpt lat="46.1953" lon="5.82993">
        <ele>684</ele>
        <time>2019-04-17T13:35:50Z</time>
      </trkpt>
      <trkpt lat="46.19533" lon="5.82997">
        <ele>684</ele>
        <time>2019-04-17T13:36:50Z</time>
      </trkpt>
      <trkpt lat="46.19536" lon="5.8301">
        <ele>684</ele>
        <time>2019-04-17T13:37:50Z</time>
      </trkpt>
      <trkpt lat="46.19536" lon="5.83023">
        <ele>683</ele>
        <time>2019-04-17T13:38:50Z</time>
      </trkpt>
      <trkpt lat="46.19532" lon="5.83035">
        <ele>681</ele>
        <time>2019-04-17T13:39:50Z</time>
      </trkpt>
      <trkpt lat="46.19516" lon="5.83056">
        <ele>674</ele>
        <time>2019-04-17T13:40:50Z</time>
      </trkpt>
      <trkpt lat="46.1951" lon="5.83069">
        <ele>671</ele>
        <time>2019-04-17T13:41:50Z</time>
      </trkpt>
      <trkpt lat="46.19508" lon="5.83076">
        <ele>670</ele>
        <time>2019-04-17T13:42:50Z</time>
      </trkpt>
      <trkpt lat="46.19509" lon="5.83085">
        <ele>669</ele>
        <time>2019-04-17T13:43:50Z</time>
      </trkpt>
      <trkpt lat="46.19511" lon="5.83097">
        <ele>668</ele>
        <time>2019-04-17T13:44:50Z</time>
      </trkpt>
      <trkpt lat="46.19517" lon="5.8311">
        <ele>669</ele>
        <time>2019-04-17T13:45:50Z</time>
      </trkpt>
      <trkpt lat="46.19527" lon="5.83123">
        <ele>671</ele>
        <time>2019-04-17T13:46:50Z</time>
      </trkpt>
      <trkpt lat="46.19544" lon="5.83132">
        <ele>676</ele>
        <time>2019-04-17T13:47:50Z</time>
      </trkpt>
      <trkpt lat="46.19557" lon="5.83137">
        <ele>681</ele>
        <time>2019-04-17T13:48:50Z</time>
      </trkpt>
      <trkpt lat="46.19565" lon="5.83144">
        <ele>683</ele>
        <time>2019-04-17T13:49:50Z</time>
      </trkpt>
      <trkpt lat="46.19571" lon="5.83154">
        <ele>684</ele>
        <time>2019-04-17T13:50:50Z</time>
      </trkpt>
      <trkpt lat="46.19583" lon="5.83203">
        <ele>685</ele>
        <time>2019-04-17T13:51:50Z</time>
      </trkpt>
      <trkpt lat="46.19586" lon="5.83223">
        <ele>685</ele>
        <time>2019-04-17T13:52:50Z</time>
      </trkpt>
      <trkpt lat="46.19585" lon="5.83238">
        <ele>683</ele>
        <time>2019-04-17T13:53:50Z</time>
      </trkpt>
      <trkpt lat="46.1958" lon="5.83257">
        <ele>681</ele>
        <time>2019-04-17T13:54:50Z</time>
      </trkpt>
      <trkpt lat="46.19561" lon="5.83303">
        <ele>674</ele>
        <time>2019-04-17T13:55:50Z</time>
      </trkpt>
      <trkpt lat="46.19551" lon="5.83358">
        <ele>667</ele>
        <time>2019-04-17T13:56:50Z</time>
      </trkpt>
      <trkpt lat="46.19552" lon="5.83372">
        <ele>666</ele>
        <time>2019-04-17T13:57:50Z</time>
      </trkpt>
      <trkpt lat="46.19556" lon="5.83386">
        <ele>666</ele>
        <time>2019-04-17T13:58:50Z</time>
      </trkpt>
      <trkpt lat="46.19563" lon="5.834">
        <ele>668</ele>
        <time>2019-04-17T13:59:50Z</time>
      </trkpt>
      <trkpt lat="46.19579" lon="5.83419">
        <ele>673</ele>
        <time>2019-04-17T14:00:50Z</time>
      </trkpt>
      <trkpt lat="46.19586" lon="5.83433">
        <ele>673</ele>
        <time>2019-04-17T14:01:50Z</time>
      </trkpt>
      <trkpt lat="46.19601" lon="5.83474">
        <ele>669</ele>
        <time>2019-04-17T14:02:50Z</time>
      </trkpt>
      <trkpt lat="46.19606" lon="5.83486">
        <ele>668</ele>
        <time>2019-04-17T14:03:50Z</time>
      </trkpt>
      <trkpt lat="46.19644" lon="5.83514">
        <ele>676</ele>
        <time>2019-04-17T14:04:50Z</time>
      </trkpt>
      <trkpt lat="46.19704" lon="5.83577">
        <ele>675</ele>
        <time>2019-04-17T14:05:50Z</time>
      </trkpt>
      <trkpt lat="46.19736" lon="5.83606">
        <ele>676</ele>
        <time>2019-04-17T14:06:50Z</time>
      </trkpt>
      <trkpt lat="46.19745" lon="5.83617">
        <ele>675</ele>
        <time>2019-04-17T14:07:50Z</time>
      </trkpt>
      <trkpt lat="46.19755" lon="5.83636">
        <ele>672</ele>
        <time>2019-04-17T14:08:50Z</time>
      </trkpt>
      <trkpt lat="46.19777" lon="5.83666">
        <ele>669</ele>
        <time>2019-04-17T14:09:50Z</time>
      </trkpt>
      <trkpt lat="46.19829" lon="5.83699">
        <ele>675</ele>
        <time>2019-04-17T14:10:50Z</time>
      </trkpt>
      <trkpt lat="46.19875" lon="5.83715">
        <ele>678</ele>
        <time>2019-04-17T14:11:50Z</time>
      </trkpt>
      <trkpt lat="46.19885" lon="5.83722">
        <ele>677</ele>
        <time>2019-04-17T14:12:50Z</time>
      </trkpt>
      <trkpt lat="46.19899" lon="5.83747">
        <ele>671</ele>
        <time>2019-04-17T14:13:50Z</time>
      </trkpt>
      <trkpt lat="46.19906" lon="5.83757">
        <ele>668</ele>
        <time>2019-04-17T14:14:50Z</time>
      </trkpt>
      <trkpt lat="46.19913" lon="5.83762">
        <ele>668</ele>
        <time>2019-04-17T14:15:50Z</time>
      </trkpt>
      <trkpt lat="46.19994" lon="5.83798">
        <ele>673</ele>
        <time>2019-04-17T14:16:50Z</time>
      </trkpt>
      <trkpt lat="46.20018" lon="5.83831">
        <ele>669</ele>
        <time>2019-04-17T14:17:50Z</time>
      </trkpt>
      <trkpt lat="46.20067" lon="5.83863">
        <ele>681</ele>
        <time>2019-04-17T14:18:50Z</time>
      </trkpt>
      <trkpt lat="46.20073" lon="5.8387">
        <ele>682</ele>
        <time>2019-04-17T14:19:50Z</time>
      </trkpt>
      <trkpt lat="46.20076" lon="5.83878">
        <ele>681</ele>
        <time>2019-04-17T14:20:50Z</time>
      </trkpt>
      <trkpt lat="46.20075" lon="5.8389">
        <ele>679</ele>
        <time>2019-04-17T14:21:50Z</time>
      </trkpt>
      <trkpt lat="46.20071" lon="5.83898">
        <ele>676</ele>
        <time>2019-04-17T14:22:50Z</time>
      </trkpt>
      <trkpt lat="46.20065" lon="5.83903">
        <ele>673</ele>
        <time>2019-04-17T14:23:50Z</time>
      </trkpt>
      <trkpt lat="46.2002" lon="5.83924">
        <ele>661</ele>
        <time>2019-04-17T14:24:50Z</time>
      </trkpt>
      <trkpt lat="46.20007" lon="5.83927">
        <ele>658</ele>
        <time>2019-04-17T14:25:50Z</time>
      </trkpt>
      <trkpt lat="46.19976" lon="5.83919">
        <ele>647</ele>
        <time>2019-04-17T14:26:50Z</time>
      </trkpt>
      <trkpt lat="46.1997" lon="5.8392">
        <ele>646</ele>
        <time>2019-04-17T14:27:50Z</time>
      </trkpt>
      <trkpt lat="46.19963" lon="5.83926">
        <ele>645</ele>
        <time>2019-04-17T14:28:50Z</time>
      </trkpt>
      <trkpt lat="46.19949" lon="5.83947">
        <ele>645</ele>
        <time>2019-04-17T14:29:50Z</time>
      </trkpt>
      <trkpt lat="46.19947" lon="5.83958">
        <ele>646</ele>
        <time>2019-04-17T14:30:50Z</time>
      </trkpt>
      <trkpt lat="46.19946" lon="5.83978">
        <ele>648</ele>
        <time>2019-04-17T14:31:50Z</time>
      </trkpt>
      <trkpt lat="46.19944" lon="5.8399">
        <ele>649</ele>
        <time>2019-04-17T14:32:50Z</time>
      </trkpt>
      <trkpt lat="46.19937" lon="5.84">
        <ele>648</ele>
        <time>2019-04-17T14:33:50Z</time>
      </trkpt>
      <trkpt lat="46.19922" lon="5.84016">
        <ele>642</ele>
        <time>2019-04-17T14:34:50Z</time>
      </trkpt>
      <trkpt lat="46.19917" lon="5.8403">
        <ele>640</ele>
        <time>2019-04-17T14:35:50Z</time>
      </trkpt>
      <trkpt lat="46.19917" lon="5.84044">
        <ele>640</ele>
        <time>2019-04-17T14:36:50Z</time>
      </trkpt>
      <trkpt lat="46.19919" lon="5.84064">
        <ele>641</ele>
        <time>2019-04-17T14:37:50Z</time>
      </trkpt>
      <trkpt lat="46.19926" lon="5.84099">
        <ele>643</ele>
        <time>2019-04-17T14:38:50Z</time>
      </trkpt>
      <trkpt lat="46.19946" lon="5.84176">
        <ele>647</ele>
        <time>2019-04-17T14:39:50Z</time>
      </trkpt>
      <trkpt lat="46.19948" lon="5.84193">
        <ele>647</ele>
        <time>2019-04-17T14:40:50Z</time>
      </trkpt>
      <trkpt lat="46.1994" lon="5.84249">
        <ele>637</ele>
        <time>2019-04-17T14:41:50Z</time>
      </trkpt>
      <trkpt lat="46.19939" lon="5.84272">
        <ele>633</ele>
        <time>2019-04-17T14:42:50Z</time>
      </trkpt>
      <trkpt lat="46.19944" lon="5.84304">
        <ele>633</ele>
        <time>2019-04-17T14:43:50Z</time>
      </trkpt>
      <trkpt lat="46.19963" lon="5.84362">
        <ele>638</ele>
        <time>2019-04-17T14:44:50Z</time>
      </trkpt>
      <trkpt lat="46.20007" lon="5.84486">
        <ele>636</ele>
        <time>2019-04-17T14:45:50Z</time>
      </trkpt>
      <trkpt lat="46.20033" lon="5.8458">
        <ele>636</ele>
        <time>2019-04-17T14:46:50Z</time>
      </trkpt>
      <trkpt lat="46.20036" lon="5.84602">
        <ele>635</ele>
        <time>2019-04-17T14:47:50Z</time>
      </trkpt>
      <trkpt lat="46.20039" lon="5.84689">
        <ele>626</ele>
        <time>2019-04-17T14:48:50Z</time>
      </trkpt>
      <trkpt lat="46.20076" lon="5.84846">
        <ele>619</ele>
        <time>2019-04-17T14:49:50Z</time>
      </trkpt>
      <trkpt lat="46.20083" lon="5.84887">
        <ele>614</ele>
        <time>2019-04-17T14:50:50Z</time>
      </trkpt>
      <trkpt lat="46.20088" lon="5.84903">
        <ele>614</ele>
        <time>2019-04-17T14:51:50Z</time>
      </trkpt>
      <trkpt lat="46.2016" lon="5.85032">
        <ele>617</ele>
        <time>2019-04-17T14:52:50Z</time>
      </trkpt>
      <trkpt lat="46.20201" lon="5.8509">
        <ele>620</ele>
        <time>2019-04-17T14:53:50Z</time>
      </trkpt>
      <trkpt lat="46.20248" lon="5.85189">
        <ele>604</ele>
        <time>2019-04-17T14:54:50Z</time>
      </trkpt>
      <trkpt lat="46.20269" lon="5.85218">
        <ele>606</ele>
        <time>2019-04-17T14:55:50Z</time>
      </trkpt>
      <trkpt lat="46.20296" lon="5.85252">
        <ele>609</ele>
        <time>2019-04-17T14:56:50Z</time>
      </trkpt>
      <trkpt lat="46.20308" lon="5.85266">
        <ele>610</ele>
        <time>2019-04-17T14:57:50Z</time>
      </trkpt>
      <trkpt lat="46.2033" lon="5.85296">
        <ele>610</ele>
        <time>2019-04-17T14:58:50Z</time>
      </trkpt>
      <trkpt lat="46.20339" lon="5.85314">
        <ele>607</ele>
        <time>2019-04-17T14:59:50Z</time>
      </trkpt>
      <trkpt lat="46.20347" lon="5.85339">
        <ele>602</ele>
        <time>2019-04-17T15:00:50Z</time>
      </trkpt>
      <trkpt lat="46.20368" lon="5.85384">
        <ele>597</ele>
        <time>2019-04-17T15:01:50Z</time>
      </trkpt>
      <trkpt lat="46.20377" lon="5.85396">
        <ele>597</ele>
        <time>2019-04-17T15:02:50Z</time>
      </trkpt>
      <trkpt lat="46.2041" lon="5.85416">
        <ele>603</ele>
        <time>2019-04-17T15:03:50Z</time>
      </trkpt>
      <trkpt lat="46.20419" lon="5.85425">
        <ele>604</ele>
        <time>2019-04-17T15:04:50Z</time>
      </trkpt>
      <trkpt lat="46.20443" lon="5.85457">
        <ele>603</ele>
        <time>2019-04-17T15:05:50Z</time>
      </trkpt>
      <trkpt lat="46.2046" lon="5.85486">
        <ele>599</ele>
        <time>2019-04-17T15:06:50Z</time>
      </trkpt>
      <trkpt lat="46.20477" lon="5.8551">
        <ele>598</ele>
        <time>2019-04-17T15:07:50Z</time>
      </trkpt>
      <trkpt lat="46.20497" lon="5.85534">
        <ele>597</ele>
        <time>2019-04-17T15:08:50Z</time>
      </trkpt>
      <trkpt lat="46.20519" lon="5.85555">
        <ele>594</ele>
        <time>2019-04-17T15:09:50Z</time>
      </trkpt>
      <trkpt lat="46.20546" lon="5.85574">
        <ele>592</ele>
        <time>2019-04-17T15:10:50Z</time>
      </trkpt>
      <trkpt lat="46.20574" lon="5.85587">
        <ele>593</ele>
        <time>2019-04-17T15:11:50Z</time>
      </trkpt>
      <trkpt lat="46.20595" lon="5.85593">
        <ele>593</ele>
        <time>2019-04-17T15:12:50Z</time>
      </trkpt>
      <trkpt lat="46.20679" lon="5.85601">
        <ele>594</ele>
        <time>2019-04-17T15:13:50Z</time>
      </trkpt>
      <trkpt lat="46.20733" lon="5.8561">
        <ele>600</ele>
        <time>2019-04-17T15:14:50Z</time>
      </trkpt>
      <trkpt lat="46.20753" lon="5.85616">
        <ele>600</ele>
        <time>2019-04-17T15:15:50Z</time>
      </trkpt>
      <trkpt lat="46.20786" lon="5.85632">
        <ele>597</ele>
        <time>2019-04-17T15:16:50Z</time>
      </trkpt>
      <trkpt lat="46.20841" lon="5.85654">
        <ele>594</ele>
        <time>2019-04-17T15:17:50Z</time>
      </trkpt>
      <trkpt lat="46.2087" lon="5.85663">
        <ele>593</ele>
        <time>2019-04-17T15:18:50Z</time>
      </trkpt>
      <trkpt lat="46.20897" lon="5.85677">
        <ele>593</ele>
        <time>2019-04-17T15:19:50Z</time>
      </trkpt>
      <trkpt lat="46.20928" lon="5.85704">
        <ele>594</ele>
        <time>2019-04-17T15:20:50Z</time>
      </trkpt>
      <trkpt lat="46.20966" lon="5.85729">
        <ele>600</ele>
        <time>2019-04-17T15:21:50Z</time>
      </trkpt>
      <trkpt lat="46.20983" lon="5.85746">
        <ele>600</ele>
        <time>2019-04-17T15:22:50Z</time>
      </trkpt>
      <trkpt lat="46.21018" lon="5.85789">
        <ele>597</ele>
        <time>2019-04-17T15:23:50Z</time>
      </trkpt>
      <trkpt lat="46.21031" lon="5.85798">
        <ele>597</ele>
        <time>2019-04-17T15:24:50Z</time>
      </trkpt>
      <trkpt lat="46.21046" lon="5.85803">
        <ele>597</ele>
        <time>2019-04-17T15:25:50Z</time>
      </trkpt>
      <trkpt lat="46.21062" lon="5.85803">
        <ele>598</ele>
        <time>2019-04-17T15:26:50Z</time>
      </trkpt>
      <trkpt lat="46.21111" lon="5.85788">
        <ele>604</ele>
        <time>2019-04-17T15:27:50Z</time>
      </trkpt>
      <trkpt lat="46.2117" lon="5.85788">
        <ele>609</ele>
        <time>2019-04-17T15:28:50Z</time>
      </trkpt>
      <trkpt lat="46.21214" lon="5.85786">
        <ele>611</ele>
        <time>2019-04-17T15:29:50Z</time>
      </trkpt>
      <trkpt lat="46.21243" lon="5.85789">
        <ele>611</ele>
        <time>2019-04-17T15:30:50Z</time>
      </trkpt>
      <trkpt lat="46.21262" lon="5.85797">
        <ele>610</ele>
        <time>2019-04-17T15:31:50Z</time>
      </trkpt>
      <trkpt lat="46.21331" lon="5.85834">
        <ele>606</ele>
        <time>2019-04-17T15:32:50Z</time>
      </trkpt>
      <trkpt lat="46.21401" lon="5.85849">
        <ele>603</ele>
        <time>2019-04-17T15:33:50Z</time>
      </trkpt>
      <trkpt lat="46.2142" lon="5.85848">
        <ele>602</ele>
        <time>2019-04-17T15:34:50Z</time>
      </trkpt>
      <trkpt lat="46.21439" lon="5.85842">
        <ele>602</ele>
        <time>2019-04-17T15:35:50Z</time>
      </trkpt>
      <trkpt lat="46.21517" lon="5.85785">
        <ele>608</ele>
        <time>2019-04-17T15:36:50Z</time>
      </trkpt>
      <trkpt lat="46.21535" lon="5.85773">
        <ele>609</ele>
        <time>2019-04-17T15:37:50Z</time>
      </trkpt>
      <trkpt lat="46.21548" lon="5.8577">
        <ele>608</ele>
        <time>2019-04-17T15:38:50Z</time>
      </trkpt>
      <trkpt lat="46.2156" lon="5.85771">
        <ele>606</ele>
        <time>2019-04-17T15:39:50Z</time>
      </trkpt>
      <trkpt lat="46.21572" lon="5.85777">
        <ele>605</ele>
        <time>2019-04-17T15:40:50Z</time>
      </trkpt>
      <trkpt lat="46.2158" lon="5.85785">
        <ele>603</ele>
        <time>2019-04-17T15:41:50Z</time>
      </trkpt>
      <trkpt lat="46.21603" lon="5.85816">
        <ele>602</ele>
        <time>2019-04-17T15:42:50Z</time>
      </trkpt>
      <trkpt lat="46.2164" lon="5.85862">
        <ele>604</ele>
        <time>2019-04-17T15:43:50Z</time>
      </trkpt>
      <trkpt lat="46.21684" lon="5.85925">
        <ele>606</ele>
        <time>2019-04-17T15:44:50Z</time>
      </trkpt>
      <trkpt lat="46.21708" lon="5.85966">
        <ele>606</ele>
        <time>2019-04-17T15:45:50Z</time>
      </trkpt>
      <trkpt lat="46.21763" lon="5.86079">
        <ele>604</ele>
        <time>2019-04-17T15:46:50Z</time>
      </trkpt>
      <trkpt lat="46.21841" lon="5.86204">
        <ele>595</ele>
        <time>2019-04-17T15:47:50Z</time>
      </trkpt>
      <trkpt lat="46.21885" lon="5.86266">
        <ele>594</ele>
        <time>2019-04-17T15:48:50Z</time>
      </trkpt>
      <trkpt lat="46.21909" lon="5.86296">
        <ele>593</ele>
        <time>2019-04-17T15:49:50Z</time>
      </trkpt>
      <trkpt lat="46.21934" lon="5.86323">
        <ele>592</ele>
        <time>2019-04-17T15:50:50Z</time>
      </trkpt>
      <trkpt lat="46.22054" lon="5.86422">
        <ele>590</ele>
        <time>2019-04-17T15:51:50Z</time>
      </trkpt>
      <trkpt lat="46.22076" lon="5.86451">
        <ele>588</ele>
        <time>2019-04-17T15:52:50Z</time>
      </trkpt>
      <trkpt lat="46.22103" lon="5.86494">
        <ele>585</ele>
        <time>2019-04-17T15:53:50Z</time>
      </trkpt>
      <trkpt lat="46.22116" lon="5.86511">
        <ele>586</ele>
        <time>2019-04-17T15:54:50Z</time>
      </trkpt>
      <trkpt lat="46.22135" lon="5.86527">
        <ele>589</ele>
        <time>2019-04-17T15:55:50Z</time>
      </trkpt>
      <trkpt lat="46.22172" lon="5.86551">
        <ele>591</ele>
        <time>2019-04-17T15:56:50Z</time>
      </trkpt>
      <trkpt lat="46.22176" lon="5.86561">
        <ele>590</ele>
        <time>2019-04-17T15:57:50Z</time>
      </trkpt>
      <trkpt lat="46.22183" lon="5.866">
        <ele>588</ele>
        <time>2019-04-17T15:58:50Z</time>
      </trkpt>
      <trkpt lat="46.22186" lon="5.86603">
        <ele>588</ele>
        <time>2019-04-17T15:59:50Z</time>
      </trkpt>
      <trkpt lat="46.22228" lon="5.86677">
        <ele>587</ele>
        <time>2019-04-17T16:00:50Z</time>
      </trkpt>
      <trkpt lat="46.22256" lon="5.86732">
        <ele>587</ele>
        <time>2019-04-17T16:01:50Z</time>
      </trkpt>
      <trkpt lat="46.22355" lon="5.8688">
        <ele>592</ele>
        <time>2019-04-17T16:02:50Z</time>
      </trkpt>
      <trkpt lat="46.2237" lon="5.86917">
        <ele>590</ele>
        <time>2019-04-17T16:03:50Z</time>
      </trkpt>
      <trkpt lat="46.22375" lon="5.86935">
        <ele>591</ele>
        <time>2019-04-17T16:04:50Z</time>
      </trkpt>
      <trkpt lat="46.22375" lon="5.86947">
        <ele>592</ele>
        <time>2019-04-17T16:05:50Z</time>
      </trkpt>
      <trkpt lat="46.22378" lon="5.86965">
        <ele>592</ele>
        <time>2019-04-17T16:06:50Z</time>
      </trkpt>
      <trkpt lat="46.22377" lon="5.86975">
        <ele>593</ele>
        <time>2019-04-17T16:07:50Z</time>
      </trkpt>
      <trkpt lat="46.22382" lon="5.86985">
        <ele>593</ele>
        <time>2019-04-17T16:08:50Z</time>
      </trkpt>
      <trkpt lat="46.22391" lon="5.87013">
        <ele>594</ele>
        <time>2019-04-17T16:09:50Z</time>
      </trkpt>
      <trkpt lat="46.22412" lon="5.87114">
        <ele>601</ele>
        <time>2019-04-17T16:10:50Z</time>
      </trkpt>
      <trkpt lat="46.22414" lon="5.87129">
        <ele>603</ele>
        <time>2019-04-17T16:11:50Z</time>
      </trkpt>
      <trkpt lat="46.22432" lon="5.87163">
        <ele>605</ele>
        <time>2019-04-17T16:12:50Z</time>
      </trkpt>
      <trkpt lat="46.22463" lon="5.87197">
        <ele>603</ele>
        <time>2019-04-17T16:13:50Z</time>
      </trkpt>
      <trkpt lat="46.22467" lon="5.87205">
        <ele>604</ele>
        <time>2019-04-17T16:14:50Z</time>
      </trkpt>
      <trkpt lat="46.22471" lon="5.87222">
        <ele>605</ele>
        <time>2019-04-17T16:15:50Z</time>
      </trkpt>
      <trkpt lat="46.22488" lon="5.87369">
        <ele>616</ele>
        <time>2019-04-17T16:16:50Z</time>
      </trkpt>
      <trkpt lat="46.22496" lon="5.87425">
        <ele>619</ele>
        <time>2019-04-17T16:17:50Z</time>
      </trkpt>
      <trkpt lat="46.22503" lon="5.87447">
        <ele>620</ele>
        <time>2019-04-17T16:18:50Z</time>
      </trkpt>
      <trkpt lat="46.2251" lon="5.8746">
        <ele>620</ele>
        <time>2019-04-17T16:19:50Z</time>
      </trkpt>
      <trkpt lat="46.22518" lon="5.87467">
        <ele>619</ele>
        <time>2019-04-17T16:20:50Z</time>
      </trkpt>
      <trkpt lat="46.22557" lon="5.87489">
        <ele>615</ele>
        <time>2019-04-17T16:21:50Z</time>
      </trkpt>
      <trkpt lat="46.22567" lon="5.87497">
        <ele>614</ele>
        <time>2019-04-17T16:22:50Z</time>
      </trkpt>
      <trkpt lat="46.22573" lon="5.87508">
        <ele>614</ele>
        <time>2019-04-17T16:23:50Z</time>
      </trkpt>
      <trkpt lat="46.22582" lon="5.8753">
        <ele>617</ele>
        <time>2019-04-17T16:24:50Z</time>
      </trkpt>
      <trkpt lat="46.22605" lon="5.87621">
        <ele>625</ele>
        <time>2019-04-17T16:25:50Z</time>
      </trkpt>
      <trkpt lat="46.2262" lon="5.87722">
        <ele>631</ele>
        <time>2019-04-17T16:26:50Z</time>
      </trkpt>
      <trkpt lat="46.22653" lon="5.87818">
        <ele>634</ele>
        <time>2019-04-17T16:27:50Z</time>
      </trkpt>
      <trkpt lat="46.22666" lon="5.87846">
        <ele>634</ele>
        <time>2019-04-17T16:28:50Z</time>
      </trkpt>
      <trkpt lat="46.22681" lon="5.87869">
        <ele>634</ele>
        <time>2019-04-17T16:29:50Z</time>
      </trkpt>
      <trkpt lat="46.227" lon="5.8789">
        <ele>634</ele>
        <time>2019-04-17T16:30:50Z</time>
      </trkpt>
      <trkpt lat="46.22721" lon="5.87919">
        <ele>634</ele>
        <time>2019-04-17T16:31:50Z</time>
      </trkpt>
      <trkpt lat="46.22737" lon="5.87951">
        <ele>637</ele>
        <time>2019-04-17T16:32:50Z</time>
      </trkpt>
      <trkpt lat="46.2276" lon="5.88009">
        <ele>644</ele>
        <time>2019-04-17T16:33:50Z</time>
      </trkpt>
      <trkpt lat="46.22779" lon="5.88051">
        <ele>647</ele>
        <time>2019-04-17T16:34:50Z</time>
      </trkpt>
      <trkpt lat="46.22797" lon="5.88074">
        <ele>648</ele>
        <time>2019-04-17T16:35:50Z</time>
      </trkpt>
      <trkpt lat="46.22822" lon="5.88094">
        <ele>648</ele>
        <time>2019-04-17T16:36:50Z</time>
      </trkpt>
      <trkpt lat="46.2291" lon="5.88122">
        <ele>652</ele>
        <time>2019-04-17T16:37:50Z</time>
      </trkpt>
      <trkpt lat="46.2293" lon="5.88133">
        <ele>652</ele>
        <time>2019-04-17T16:38:50Z</time>
      </trkpt>
      <trkpt lat="46.22945" lon="5.88151">
        <ele>654</ele>
        <time>2019-04-17T16:39:50Z</time>
      </trkpt>
      <trkpt lat="46.22979" lon="5.88212">
        <ele>660</ele>
        <time>2019-04-17T16:40:50Z</time>
      </trkpt>
      <trkpt lat="46.22999" lon="5.88253">
        <ele>665</ele>
        <time>2019-04-17T16:41:50Z</time>
      </trkpt>
      <trkpt lat="46.23008" lon="5.88267">
        <ele>666</ele>
        <time>2019-04-17T16:42:50Z</time>
      </trkpt>
      <trkpt lat="46.23021" lon="5.88283">
        <ele>667</ele>
        <time>2019-04-17T16:43:50Z</time>
      </trkpt>
      <trkpt lat="46.23081" lon="5.88336">
        <ele>676</ele>
        <time>2019-04-17T16:44:50Z</time>
      </trkpt>
      <trkpt lat="46.23106" lon="5.8837">
        <ele>676</ele>
        <time>2019-04-17T16:45:50Z</time>
      </trkpt>
      <trkpt lat="46.23115" lon="5.88384">
        <ele>676</ele>
        <time>2019-04-17T16:46:50Z</time>
      </trkpt>
      <trkpt lat="46.23122" lon="5.88401">
        <ele>677</ele>
        <time>2019-04-17T16:47:50Z</time>
      </trkpt>
      <trkpt lat="46.23128" lon="5.88422">
        <ele>678</ele>
        <time>2019-04-17T16:48:50Z</time>
      </trkpt>
      <trkpt lat="46.23138" lon="5.88534">
        <ele>687</ele>
        <time>2019-04-17T16:49:50Z</time>
      </trkpt>
      <trkpt lat="46.23144" lon="5.88567">
        <ele>690</ele>
        <time>2019-04-17T16:50:50Z</time>
      </trkpt>
      <trkpt lat="46.23149" lon="5.88584">
        <ele>690</ele>
        <time>2019-04-17T16:51:50Z</time>
      </trkpt>
      <trkpt lat="46.23164" lon="5.88615">
        <ele>692</ele>
        <time>2019-04-17T16:52:50Z</time>
      </trkpt>
      <trkpt lat="46.23187" lon="5.88651">
        <ele>695</ele>
        <time>2019-04-17T16:53:50Z</time>
      </trkpt>
      <trkpt lat="46.23231" lon="5.88701">
        <ele>699</ele>
        <time>2019-04-17T16:54:50Z</time>
      </trkpt>
      <trkpt lat="46.23276" lon="5.88737">
        <ele>699</ele>
        <time>2019-04-17T16:55:50Z</time>
      </trkpt>
      <trkpt lat="46.2329" lon="5.88757">
        <ele>701</ele>
        <time>2019-04-17T16:56:50Z</time>
      </trkpt>
      <trkpt lat="46.23302" lon="5.88785">
        <ele>706</ele>
        <time>2019-04-17T16:57:50Z</time>
      </trkpt>
      <trkpt lat="46.23328" lon="5.88838">
        <ele>710</ele>
        <time>2019-04-17T16:58:50Z</time>
      </trkpt>
      <trkpt lat="46.23336" lon="5.88852">
        <ele>713</ele>
        <time>2019-04-17T16:59:50Z</time>
      </trkpt>
      <trkpt lat="46.23368" lon="5.8889">
        <ele>720</ele>
        <time>2019-04-17T17:00:50Z</time>
      </trkpt>
      <trkpt lat="46.23497" lon="5.89">
        <ele>726</ele>
        <time>2019-04-17T17:01:50Z</time>
      </trkpt>
      <trkpt lat="46.23511" lon="5.89007">
        <ele>726</ele>
        <time>2019-04-17T17:02:50Z</time>
      </trkpt>
      <trkpt lat="46.23525" lon="5.89011">
        <ele>725</ele>
        <time>2019-04-17T17:03:50Z</time>
      </trkpt>
      <trkpt lat="46.23566" lon="5.89017">
        <ele>721</ele>
        <time>2019-04-17T17:04:50Z</time>
      </trkpt>
      <trkpt lat="46.23624" lon="5.89066">
        <ele>727</ele>
        <time>2019-04-17T17:05:50Z</time>
      </trkpt>
      <trkpt lat="46.23645" lon="5.89075">
        <ele>728</ele>
        <time>2019-04-17T17:06:50Z</time>
      </trkpt>
      <trkpt lat="46.23678" lon="5.89083">
        <ele>725</ele>
        <time>2019-04-17T17:07:50Z</time>
      </trkpt>
      <trkpt lat="46.23688" lon="5.89092">
        <ele>725</ele>
        <time>2019-04-17T17:08:50Z</time>
      </trkpt>
      <trkpt lat="46.23696" lon="5.89105">
        <ele>726</ele>
        <time>2019-04-17T17:09:50Z</time>
      </trkpt>
      <trkpt lat="46.23715" lon="5.89167">
        <ele>732</ele>
        <time>2019-04-17T17:10:50Z</time>
      </trkpt>
      <trkpt lat="46.2379" lon="5.89324">
        <ele>721</ele>
        <time>2019-04-17T17:11:50Z</time>
      </trkpt>
      <trkpt lat="46.23818" lon="5.89357">
        <ele>719</ele>
        <time>2019-04-17T17:12:50Z</time>
      </trkpt>
      <trkpt lat="46.23894" lon="5.89413">
        <ele>713</ele>
        <time>2019-04-17T17:13:50Z</time>
      </trkpt>
      <trkpt lat="46.23915" lon="5.89433">
        <ele>713</ele>
        <time>2019-04-17T17:14:50Z</time>
      </trkpt>
      <trkpt lat="46.23936" lon="5.89457">
        <ele>715</ele>
        <time>2019-04-17T17:15:50Z</time>
      </trkpt>
      <trkpt lat="46.24034" lon="5.8954">
        <ele>719</ele>
        <time>2019-04-17T17:16:50Z</time>
      </trkpt>
      <trkpt lat="46.2406" lon="5.89559">
        <ele>719</ele>
        <time>2019-04-17T17:17:50Z</time>
      </trkpt>
      <trkpt lat="46.24073" lon="5.89571">
        <ele>719</ele>
        <time>2019-04-17T17:18:50Z</time>
      </trkpt>
      <trkpt lat="46.24103" lon="5.89617">
        <ele>720</ele>
        <time>2019-04-17T17:19:50Z</time>
      </trkpt>
      <trkpt lat="46.24121" lon="5.89636">
        <ele>718</ele>
        <time>2019-04-17T17:20:50Z</time>
      </trkpt>
      <trkpt lat="46.24137" lon="5.89644">
        <ele>717</ele>
        <time>2019-04-17T17:21:50Z</time>
      </trkpt>
      <trkpt lat="46.24204" lon="5.89645">
        <ele>715</ele>
        <time>2019-04-17T17:22:50Z</time>
      </trkpt>
      <trkpt lat="46.24235" lon="5.89649">
        <ele>717</ele>
        <time>2019-04-17T17:23:50Z</time>
      </trkpt>
      <trkpt lat="46.24271" lon="5.89661">
        <ele>718</ele>
        <time>2019-04-17T17:24:50Z</time>
      </trkpt>
      <trkpt lat="46.24306" lon="5.89683">
        <ele>720</ele>
        <time>2019-04-17T17:25:50Z</time>
      </trkpt>
      <trkpt lat="46.24363" lon="5.89725">
        <ele>728</ele>
        <time>2019-04-17T17:26:50Z</time>
      </trkpt>
      <trkpt lat="46.24384" lon="5.89734">
        <ele>730</ele>
        <time>2019-04-17T17:27:50Z</time>
      </trkpt>
      <trkpt lat="46.24408" lon="5.89735">
        <ele>731</ele>
        <time>2019-04-17T17:28:50Z</time>
      </trkpt>
      <trkpt lat="46.2445" lon="5.89719">
        <ele>735</ele>
        <time>2019-04-17T17:29:50Z</time>
      </trkpt>
      <trkpt lat="46.24497" lon="5.89709">
        <ele>742</ele>
        <time>2019-04-17T17:30:50Z</time>
      </trkpt>
      <trkpt lat="46.24538" lon="5.89705">
        <ele>745</ele>
        <time>2019-04-17T17:31:50Z</time>
      </trkpt>
      <trkpt lat="46.2457" lon="5.89705">
        <ele>748</ele>
        <time>2019-04-17T17:32:50Z</time>
      </trkpt>
      <trkpt lat="46.24598" lon="5.89697">
        <ele>749</ele>
        <time>2019-04-17T17:33:50Z</time>
      </trkpt>
      <trkpt lat="46.24607" lon="5.89688">
        <ele>748</ele>
        <time>2019-04-17T17:34:50Z</time>
      </trkpt>
      <trkpt lat="46.24618" lon="5.89668">
        <ele>743</ele>
        <time>2019-04-17T17:35:50Z</time>
      </trkpt>
      <trkpt lat="46.24625" lon="5.89634">
        <ele>745</ele>
        <time>2019-04-17T17:36:50Z</time>
      </trkpt>
      <trkpt lat="46.24624" lon="5.89619">
        <ele>745</ele>
        <time>2019-04-17T17:37:50Z</time>
      </trkpt>
      <trkpt lat="46.24619" lon="5.89597">
        <ele>745</ele>
        <time>2019-04-17T17:38:50Z</time>
      </trkpt>
      <trkpt lat="46.24592" lon="5.89544">
        <ele>743</ele>
        <time>2019-04-17T17:39:50Z</time>
      </trkpt>
      <trkpt lat="46.24588" lon="5.89527">
        <ele>744</ele>
        <time>2019-04-17T17:40:50Z</time>
      </trkpt>
      <trkpt lat="46.24588" lon="5.89507">
        <ele>746</ele>
        <time>2019-04-17T17:41:50Z</time>
      </trkpt>
      <trkpt lat="46.24591" lon="5.8949">
        <ele>749</ele>
        <time>2019-04-17T17:42:50Z</time>
      </trkpt>
      <trkpt lat="46.24599" lon="5.89475">
        <ele>754</ele>
        <time>2019-04-17T17:43:50Z</time>
      </trkpt>
      <trkpt lat="46.24634" lon="5.89434">
        <ele>768</ele>
        <time>2019-04-17T17:44:50Z</time>
      </trkpt>
      <trkpt lat="46.2482" lon="5.89294">
        <ele>798</ele>
        <time>2019-04-17T17:45:50Z</time>
      </trkpt>
      <trkpt lat="46.24841" lon="5.8929">
        <ele>795</ele>
        <time>2019-04-17T17:46:50Z</time>
      </trkpt>
      <trkpt lat="46.24956" lon="5.89314">
        <ele>791</ele>
        <time>2019-04-17T17:47:50Z</time>
      </trkpt>
      <trkpt lat="46.24988" lon="5.89325">
        <ele>792</ele>
        <time>2019-04-17T17:48:50Z</time>
      </trkpt>
      <trkpt lat="46.25035" lon="5.89351">
        <ele>790</ele>
        <time>2019-04-17T17:49:50Z</time>
      </trkpt>
      <trkpt lat="46.25052" lon="5.89358">
        <ele>789</ele>
        <time>2019-04-17T17:50:50Z</time>
      </trkpt>
      <trkpt lat="46.25122" lon="5.89375">
        <ele>780</ele>
        <time>2019-04-17T17:51:50Z</time>
      </trkpt>
      <trkpt lat="46.25175" lon="5.89384">
        <ele>770</ele>
        <time>2019-04-17T17:52:50Z</time>
      </trkpt>
      <trkpt lat="46.25209" lon="5.89397">
        <ele>769</ele>
        <time>2019-04-17T17:53:50Z</time>
      </trkpt>
      <trkpt lat="46.25246" lon="5.89405">
        <ele>761</ele>
        <time>2019-04-17T17:54:50Z</time>
      </trkpt>
      <trkpt lat="46.25288" lon="5.8943">
        <ele>768</ele>
        <time>2019-04-17T17:55:50Z</time>
      </trkpt>
      <trkpt lat="46.25344" lon="5.89474">
        <ele>772</ele>
        <time>2019-04-17T17:56:50Z</time>
      </trkpt>
      <trkpt lat="46.25397" lon="5.89498">
        <ele>769</ele>
        <time>2019-04-17T17:57:50Z</time>
      </trkpt>
      <trkpt lat="46.25441" lon="5.89522">
        <ele>770</ele>
        <time>2019-04-17T17:58:50Z</time>
      </trkpt>
      <trkpt lat="46.25486" lon="5.8956">
        <ele>771</ele>
        <time>2019-04-17T17:59:50Z</time>
      </trkpt>
      <trkpt lat="46.25551" lon="5.8963">
        <ele>772</ele>
        <time>2019-04-17T18:00:50Z</time>
      </trkpt>
      <trkpt lat="46.25767" lon="5.89889">
        <ele>802</ele>
        <time>2019-04-17T18:01:50Z</time>
      </trkpt>
      <trkpt lat="46.25835" lon="5.89977">
        <ele>798</ele>
        <time>2019-04-17T18:02:50Z</time>
      </trkpt>
      <trkpt lat="46.25907" lon="5.90049">
        <ele>798</ele>
        <time>2019-04-17T18:03:50Z</time>
      </trkpt>
      <trkpt lat="46.25945" lon="5.9008">
        <ele>794</ele>
        <time>2019-04-17T18:04:50Z</time>
      </trkpt>
      <trkpt lat="46.25971" lon="5.9011">
        <ele>797</ele>
        <time>2019-04-17T18:05:50Z</time>
      </trkpt>
      <trkpt lat="46.25993" lon="5.9014">
        <ele>798</ele>
        <time>2019-04-17T18:06:50Z</time>
      </trkpt>
      <trkpt lat="46.26024" lon="5.90193">
        <ele>806</ele>
        <time>2019-04-17T18:07:50Z</time>
      </trkpt>
      <trkpt lat="46.2605" lon="5.90233">
        <ele>813</ele>
        <time>2019-04-17T18:08:50Z</time>
      </trkpt>
      <trkpt lat="46.26073" lon="5.90255">
        <ele>809</ele>
        <time>2019-04-17T18:09:50Z</time>
      </trkpt>
      <trkpt lat="46.26144" lon="5.90297">
        <ele>800</ele>
        <time>2019-04-17T18:10:50Z</time>
      </trkpt>
      <trkpt lat="46.26272" lon="5.90361">
        <ele>798</ele>
        <time>2019-04-17T18:11:50Z</time>
      </trkpt>
      <trkpt lat="46.26312" lon="5.90384">
        <ele>800</ele>
        <time>2019-04-17T18:12:50Z</time>
      </trkpt>
      <trkpt lat="46.26376" lon="5.90446">
        <ele>803</ele>
        <time>2019-04-17T18:13:50Z</time>
      </trkpt>
      <trkpt lat="46.26428" lon="5.9048">
        <ele>797</ele>
        <time>2019-04-17T18:14:50Z</time>
      </trkpt>
      <trkpt lat="46.26489" lon="5.90515">
        <ele>795</ele>
        <time>2019-04-17T18:15:50Z</time>
      </trkpt>
      <trkpt lat="46.2655" lon="5.90543">
        <ele>795</ele>
        <time>2019-04-17T18:16:50Z</time>
      </trkpt>
      <trkpt lat="46.26583" lon="5.90575">
        <ele>796</ele>
        <time>2019-04-17T18:17:50Z</time>
      </trkpt>
      <trkpt lat="46.26637" lon="5.90651">
        <ele>803</ele>
        <time>2019-04-17T18:18:50Z</time>
      </trkpt>
      <trkpt lat="46.2671" lon="5.90768">
        <ele>810</ele>
        <time>2019-04-17T18:19:50Z</time>
      </trkpt>
      <trkpt lat="46.2677" lon="5.90829">
        <ele>806</ele>
        <time>2019-04-17T18:20:50Z</time>
      </trkpt>
      <trkpt lat="46.26808" lon="5.90885">
        <ele>813</ele>
        <time>2019-04-17T18:21:50Z</time>
      </trkpt>
      <trkpt lat="46.26851" lon="5.90964">
        <ele>819</ele>
        <time>2019-04-17T18:22:50Z</time>
      </trkpt>
      <trkpt lat="46.26888" lon="5.91043">
        <ele>823</ele>
        <time>2019-04-17T18:23:50Z</time>
      </trkpt>
      <trkpt lat="46.26898" lon="5.91068">
        <ele>823</ele>
        <time>2019-04-17T18:24:50Z</time>
      </trkpt>
      <trkpt lat="46.26915" lon="5.9113">
        <ele>822</ele>
        <time>2019-04-17T18:25:50Z</time>
      </trkpt>
      <trkpt lat="46.26926" lon="5.91194">
        <ele>828</ele>
        <time>2019-04-17T18:26:50Z</time>
      </trkpt>
      <trkpt lat="46.26928" lon="5.91217">
        <ele>830</ele>
        <time>2019-04-17T18:27:50Z</time>
      </trkpt>
      <trkpt lat="46.26918" lon="5.91267">
        <ele>837</ele>
        <time>2019-04-17T18:28:50Z</time>
      </trkpt>
      <trkpt lat="46.26919" lon="5.91283">
        <ele>835</ele>
        <time>2019-04-17T18:29:50Z</time>
      </trkpt>
      <trkpt lat="46.26923" lon="5.91301">
        <ele>833</ele>
        <time>2019-04-17T18:30:50Z</time>
      </trkpt>
      <trkpt lat="46.2693" lon="5.9132">
        <ele>830</ele>
        <time>2019-04-17T18:31:50Z</time>
      </trkpt>
      <trkpt lat="46.26934" lon="5.91341">
        <ele>828</ele>
        <time>2019-04-17T18:32:50Z</time>
      </trkpt>
      <trkpt lat="46.26939" lon="5.91396">
        <ele>835</ele>
        <time>2019-04-17T18:33:50Z</time>
      </trkpt>
      <trkpt lat="46.26945" lon="5.91408">
        <ele>835</ele>
        <time>2019-04-17T18:34:50Z</time>
      </trkpt>
      <trkpt lat="46.26954" lon="5.91417">
        <ele>833</ele>
        <time>2019-04-17T18:35:50Z</time>
      </trkpt>
      <trkpt lat="46.26972" lon="5.91425">
        <ele>830</ele>
        <time>2019-04-17T18:36:50Z</time>
      </trkpt>
      <trkpt lat="46.26989" lon="5.91435">
        <ele>828</ele>
        <time>2019-04-17T18:37:50Z</time>
      </trkpt>
      <trkpt lat="46.27019" lon="5.91462">
        <ele>830</ele>
        <time>2019-04-17T18:38:50Z</time>
      </trkpt>
      <trkpt lat="46.27071" lon="5.91514">
        <ele>833</ele>
        <time>2019-04-17T18:39:50Z</time>
      </trkpt>
      <trkpt lat="46.27122" lon="5.91574">
        <ele>839</ele>
        <time>2019-04-17T18:40:50Z</time>
      </trkpt>
      <trkpt lat="46.27159" lon="5.91614">
        <ele>839</ele>
        <time>2019-04-17T18:41:50Z</time>
      </trkpt>
      <trkpt lat="46.27298" lon="5.91734">
        <ele>847</ele>
        <time>2019-04-17T18:42:50Z</time>
      </trkpt>
      <trkpt lat="46.27319" lon="5.91755">
        <ele>848</ele>
        <time>2019-04-17T18:43:50Z</time>
      </trkpt>
      <trkpt lat="46.27339" lon="5.91789">
        <ele>849</ele>
        <time>2019-04-17T18:44:50Z</time>
      </trkpt>
      <trkpt lat="46.27343" lon="5.91811">
        <ele>851</ele>
        <time>2019-04-17T18:45:50Z</time>
      </trkpt>
      <trkpt lat="46.27345" lon="5.91858">
        <ele>860</ele>
        <time>2019-04-17T18:46:50Z</time>
      </trkpt>
      <trkpt lat="46.27351" lon="5.91869">
        <ele>861</ele>
        <time>2019-04-17T18:47:50Z</time>
      </trkpt>
      <trkpt lat="46.27358" lon="5.91879">
        <ele>861</ele>
        <time>2019-04-17T18:48:50Z</time>
      </trkpt>
      <trkpt lat="46.274" lon="5.9191">
        <ele>857</ele>
        <time>2019-04-17T18:49:50Z</time>
      </trkpt>
      <trkpt lat="46.27417" lon="5.91933">
        <ele>859</ele>
        <time>2019-04-17T18:50:50Z</time>
      </trkpt>
      <trkpt lat="46.27424" lon="5.91945">
        <ele>860</ele>
        <time>2019-04-17T18:51:50Z</time>
      </trkpt>
      <trkpt lat="46.27442" lon="5.91989">
        <ele>867</ele>
        <time>2019-04-17T18:52:50Z</time>
      </trkpt>
      <trkpt lat="46.27465" lon="5.92018">
        <ele>866</ele>
        <time>2019-04-17T18:53:50Z</time>
      </trkpt>
      <trkpt lat="46.27555" lon="5.92118">
        <ele>861</ele>
        <time>2019-04-17T18:54:50Z</time>
      </trkpt>
      <trkpt lat="46.27573" lon="5.9215">
        <ele>862</ele>
        <time>2019-04-17T18:55:50Z</time>
      </trkpt>
      <trkpt lat="46.27585" lon="5.92185">
        <ele>863</ele>
        <time>2019-04-17T18:56:50Z</time>
      </trkpt>
      <trkpt lat="46.2759" lon="5.92203">
        <ele>865</ele>
        <time>2019-04-17T18:57:50Z</time>
      </trkpt>
      <trkpt lat="46.27607" lon="5.9232">
        <ele>876</ele>
        <time>2019-04-17T18:58:50Z</time>
      </trkpt>
      <trkpt lat="46.27616" lon="5.92353">
        <ele>879</ele>
        <time>2019-04-17T18:59:50Z</time>
      </trkpt>
      <trkpt lat="46.27627" lon="5.92373">
        <ele>880</ele>
        <time>2019-04-17T19:00:50Z</time>
      </trkpt>
      <trkpt lat="46.27637" lon="5.92389">
        <ele>880</ele>
        <time>2019-04-17T19:01:50Z</time>
      </trkpt>
      <trkpt lat="46.27668" lon="5.92409">
        <ele>878</ele>
        <time>2019-04-17T19:02:50Z</time>
      </trkpt>
      <trkpt lat="46.27711" lon="5.92443">
        <ele>873</ele>
        <time>2019-04-17T19:03:50Z</time>
      </trkpt>
      <trkpt lat="46.27754" lon="5.92482">
        <ele>872</ele>
        <time>2019-04-17T19:04:50Z</time>
      </trkpt>
      <trkpt lat="46.27798" lon="5.92532">
        <ele>878</ele>
        <time>2019-04-17T19:05:50Z</time>
      </trkpt>
      <trkpt lat="46.27813" lon="5.92546">
        <ele>880</ele>
        <time>2019-04-17T19:06:50Z</time>
      </trkpt>
      <trkpt lat="46.27843" lon="5.92561">
        <ele>883</ele>
        <time>2019-04-17T19:07:50Z</time>
      </trkpt>
      <trkpt lat="46.27875" lon="5.9257">
        <ele>886</ele>
        <time>2019-04-17T19:08:50Z</time>
      </trkpt>
      <trkpt lat="46.2796" lon="5.92573">
        <ele>891</ele>
        <time>2019-04-17T19:09:50Z</time>
      </trkpt>
      <trkpt lat="46.28" lon="5.92563">
        <ele>892</ele>
        <time>2019-04-17T19:10:50Z</time>
      </trkpt>
      <trkpt lat="46.2804" lon="5.92546">
        <ele>892</ele>
        <time>2019-04-17T19:11:50Z</time>
      </trkpt>
      <trkpt lat="46.28077" lon="5.92539">
        <ele>894</ele>
        <time>2019-04-17T19:12:50Z</time>
      </trkpt>
      <trkpt lat="46.28119" lon="5.92557">
        <ele>898</ele>
        <time>2019-04-17T19:13:50Z</time>
      </trkpt>
      <trkpt lat="46.28147" lon="5.92564">
        <ele>901</ele>
        <time>2019-04-17T19:14:50Z</time>
      </trkpt>
      <trkpt lat="46.28195" lon="5.92564">
        <ele>902</ele>
        <time>2019-04-17T19:15:50Z</time>
      </trkpt>
      <trkpt lat="46.28227" lon="5.92569">
        <ele>903</ele>
        <time>2019-04-17T19:16:50Z</time>
      </trkpt>
      <trkpt lat="46.28287" lon="5.92596">
        <ele>903</ele>
        <time>2019-04-17T19:17:50Z</time>
      </trkpt>
      <trkpt lat="46.28337" lon="5.92627">
        <ele>901</ele>
        <time>2019-04-17T19:18:50Z</time>
      </trkpt>
      <trkpt lat="46.28373" lon="5.92666">
        <ele>906</ele>
        <time>2019-04-17T19:19:50Z</time>
      </trkpt>
      <trkpt lat="46.28403" lon="5.92687">
        <ele>906</ele>
        <time>2019-04-17T19:20:50Z</time>
      </trkpt>
      <trkpt lat="46.28439" lon="5.92709">
        <ele>905</ele>
        <time>2019-04-17T19:21:50Z</time>
      </trkpt>
      <trkpt lat="46.28476" lon="5.92728">
        <ele>903</ele>
        <time>2019-04-17T19:22:50Z</time>
      </trkpt>
      <trkpt lat="46.28627" lon="5.92781">
        <ele>900</ele>
        <time>2019-04-17T19:23:50Z</time>
      </trkpt>
      <trkpt lat="46.28741" lon="5.92806">
        <ele>900</ele>
        <time>2019-04-17T19:24:50Z</time>
      </trkpt>
      <trkpt lat="46.28771" lon="5.92824">
        <ele>903</ele>
        <time>2019-04-17T19:25:50Z</time>
      </trkpt>
      <trkpt lat="46.28785" lon="5.92842">
        <ele>906</ele>
        <time>2019-04-17T19:26:50Z</time>
      </trkpt>
      <trkpt lat="46.28824" lon="5.92877">
        <ele>911</ele>
        <time>2019-04-17T19:27:50Z</time>
      </trkpt>
      <trkpt lat="46.28843" lon="5.92884">
        <ele>911</ele>
        <time>2019-04-17T19:28:50Z</time>
      </trkpt>
      <trkpt lat="46.28889" lon="5.92882">
        <ele>907</ele>
        <time>2019-04-17T19:29:50Z</time>
      </trkpt>
      <trkpt lat="46.2891" lon="5.92883">
        <ele>905</ele>
        <time>2019-04-17T19:30:50Z</time>
      </trkpt>
      <trkpt lat="46.28939" lon="5.92892">
        <ele>904</ele>
        <time>2019-04-17T19:31:50Z</time>
      </trkpt>
      <trkpt lat="46.2895" lon="5.92901">
        <ele>904</ele>
        <time>2019-04-17T19:32:50Z</time>
      </trkpt>
      <trkpt lat="46.29002" lon="5.92953">
        <ele>907</ele>
        <time>2019-04-17T19:33:50Z</time>
      </trkpt>
      <trkpt lat="46.29018" lon="5.92965">
        <ele>907</ele>
        <time>2019-04-17T19:34:50Z</time>
      </trkpt>
      <trkpt lat="46.29072" lon="5.92994">
        <ele>907</ele>
        <time>2019-04-17T19:35:50Z</time>
      </trkpt>
      <trkpt lat="46.29107" lon="5.93009">
        <ele>906</ele>
        <time>2019-04-17T19:36:50Z</time>
      </trkpt>
      <trkpt lat="46.29166" lon="5.93029">
        <ele>905</ele>
        <time>2019-04-17T19:37:50Z</time>
      </trkpt>
      <trkpt lat="46.29179" lon="5.93038">
        <ele>905</ele>
        <time>2019-04-17T19:38:50Z</time>
      </trkpt>
      <trkpt lat="46.29193" lon="5.93052">
        <ele>906</ele>
        <time>2019-04-17T19:39:50Z</time>
      </trkpt>
      <trkpt lat="46.29204" lon="5.9307">
        <ele>907</ele>
        <time>2019-04-17T19:40:50Z</time>
      </trkpt>
      <trkpt lat="46.29224" lon="5.93124">
        <ele>911</ele>
        <time>2019-04-17T19:41:50Z</time>
      </trkpt>
      <trkpt lat="46.29233" lon="5.93144">
        <ele>911</ele>
        <time>2019-04-17T19:42:50Z</time>
      </trkpt>
      <trkpt lat="46.29246" lon="5.93163">
        <ele>909</ele>
        <time>2019-04-17T19:43:50Z</time>
      </trkpt>
      <trkpt lat="46.29263" lon="5.93178">
        <ele>908</ele>
        <time>2019-04-17T19:44:50Z</time>
      </trkpt>
      <trkpt lat="46.29303" lon="5.93207">
        <ele>906</ele>
        <time>2019-04-17T19:45:50Z</time>
      </trkpt>
      <trkpt lat="46.29325" lon="5.93217">
        <ele>904</ele>
        <time>2019-04-17T19:46:50Z</time>
      </trkpt>
      <trkpt lat="46.29348" lon="5.93221">
        <ele>901</ele>
        <time>2019-04-17T19:47:50Z</time>
      </trkpt>
      <trkpt lat="46.29388" lon="5.93224">
        <ele>896</ele>
        <time>2019-04-17T19:48:50Z</time>
      </trkpt>
      <trkpt lat="46.29404" lon="5.93229">
        <ele>895</ele>
        <time>2019-04-17T19:49:50Z</time>
      </trkpt>
      <trkpt lat="46.2942" lon="5.93237">
        <ele>894</ele>
        <time>2019-04-17T19:50:50Z</time>
      </trkpt>
      <trkpt lat="46.29432" lon="5.93252">
        <ele>895</ele>
        <time>2019-04-17T19:51:50Z</time>
      </trkpt>
      <trkpt lat="46.29447" lon="5.93276">
        <ele>896</ele>
        <time>2019-04-17T19:52:50Z</time>
      </trkpt>
      <trkpt lat="46.29493" lon="5.93364">
        <ele>896</ele>
        <time>2019-04-17T19:53:50Z</time>
      </trkpt>
      <trkpt lat="46.29509" lon="5.93385">
        <ele>894</ele>
        <time>2019-04-17T19:54:50Z</time>
      </trkpt>
      <trkpt lat="46.2955" lon="5.93427">
        <ele>890</ele>
        <time>2019-04-17T19:55:50Z</time>
      </trkpt>
      <trkpt lat="46.2956" lon="5.93441">
        <ele>889</ele>
        <time>2019-04-17T19:56:50Z</time>
      </trkpt>
      <trkpt lat="46.29581" lon="5.93496">
        <ele>887</ele>
        <time>2019-04-17T19:57:50Z</time>
      </trkpt>
      <trkpt lat="46.29598" lon="5.93525">
        <ele>891</ele>
        <time>2019-04-17T19:58:50Z</time>
      </trkpt>
      <trkpt lat="46.29664" lon="5.93578">
        <ele>887</ele>
        <time>2019-04-17T19:59:50Z</time>
      </trkpt>
      <trkpt lat="46.29783" lon="5.9367">
        <ele>887</ele>
        <time>2019-04-17T20:00:50Z</time>
      </trkpt>
      <trkpt lat="46.29798" lon="5.93689">
        <ele>889</ele>
        <time>2019-04-17T20:01:50Z</time>
      </trkpt>
      <trkpt lat="46.29824" lon="5.93736">
        <ele>892</ele>
        <time>2019-04-17T20:02:50Z</time>
      </trkpt>
      <trkpt lat="46.29852" lon="5.9378">
        <ele>896</ele>
        <time>2019-04-17T20:03:50Z</time>
      </trkpt>
      <trkpt lat="46.2988" lon="5.93814">
        <ele>896</ele>
        <time>2019-04-17T20:04:50Z</time>
      </trkpt>
      <trkpt lat="46.29911" lon="5.93845">
        <ele>892</ele>
        <time>2019-04-17T20:05:50Z</time>
      </trkpt>
      <trkpt lat="46.29947" lon="5.93872">
        <ele>894</ele>
        <time>2019-04-17T20:06:50Z</time>
      </trkpt>
      <trkpt lat="46.29965" lon="5.9388">
        <ele>892</ele>
        <time>2019-04-17T20:07:50Z</time>
      </trkpt>
      <trkpt lat="46.30066" lon="5.93914">
        <ele>885</ele>
        <time>2019-04-17T20:08:50Z</time>
      </trkpt>
      <trkpt lat="46.30102" lon="5.93938">
        <ele>886</ele>
        <time>2019-04-17T20:09:50Z</time>
      </trkpt>
      <trkpt lat="46.30114" lon="5.93952">
        <ele>887</ele>
        <time>2019-04-17T20:10:50Z</time>
      </trkpt>
      <trkpt lat="46.30148" lon="5.93982">
        <ele>889</ele>
        <time>2019-04-17T20:11:50Z</time>
      </trkpt>
      <trkpt lat="46.30201" lon="5.94018">
        <ele>890</ele>
        <time>2019-04-17T20:12:50Z</time>
      </trkpt>
      <trkpt lat="46.30253" lon="5.94078">
        <ele>892</ele>
        <time>2019-04-17T20:13:50Z</time>
      </trkpt>
      <trkpt lat="46.30309" lon="5.94181">
        <ele>897</ele>
        <time>2019-04-17T20:14:50Z</time>
      </trkpt>
      <trkpt lat="46.30334" lon="5.9422">
        <ele>897</ele>
        <time>2019-04-17T20:15:50Z</time>
      </trkpt>
      <trkpt lat="46.30363" lon="5.94255">
        <ele>899</ele>
        <time>2019-04-17T20:16:50Z</time>
      </trkpt>
      <trkpt lat="46.30464" lon="5.94366">
        <ele>901</ele>
        <time>2019-04-17T20:17:50Z</time>
      </trkpt>
      <trkpt lat="46.30492" lon="5.94382">
        <ele>900</ele>
        <time>2019-04-17T20:18:50Z</time>
      </trkpt>
      <trkpt lat="46.30504" lon="5.94393">
        <ele>900</ele>
        <time>2019-04-17T20:19:50Z</time>
      </trkpt>
      <trkpt lat="46.30607" lon="5.9446">
        <ele>899</ele>
        <time>2019-04-17T20:20:50Z</time>
      </trkpt>
      <trkpt lat="46.30717" lon="5.94536">
        <ele>900</ele>
        <time>2019-04-17T20:21:50Z</time>
      </trkpt>
      <trkpt lat="46.30737" lon="5.94546">
        <ele>900</ele>
        <time>2019-04-17T20:22:50Z</time>
      </trkpt>
      <trkpt lat="46.30876" lon="5.94591">
        <ele>902</ele>
        <time>2019-04-17T20:23:50Z</time>
      </trkpt>
      <trkpt lat="46.30927" lon="5.94611">
        <ele>903</ele>
        <time>2019-04-17T20:24:50Z</time>
      </trkpt>
      <trkpt lat="46.30954" lon="5.94619">
        <ele>903</ele>
        <time>2019-04-17T20:25:50Z</time>
      </trkpt>
      <trkpt lat="46.31027" lon="5.94655">
        <ele>905</ele>
        <time>2019-04-17T20:26:50Z</time>
      </trkpt>
      <trkpt lat="46.31079" lon="5.94687">
        <ele>911</ele>
        <time>2019-04-17T20:27:50Z</time>
      </trkpt>
      <trkpt lat="46.31092" lon="5.94692">
        <ele>913</ele>
        <time>2019-04-17T20:28:50Z</time>
      </trkpt>
      <trkpt lat="46.3116" lon="5.94708">
        <ele>918</ele>
        <time>2019-04-17T20:29:50Z</time>
      </trkpt>
      <trkpt lat="46.31189" lon="5.94721">
        <ele>915</ele>
        <time>2019-04-17T20:30:50Z</time>
      </trkpt>
      <trkpt lat="46.31307" lon="5.94783">
        <ele>898</ele>
        <time>2019-04-17T20:31:50Z</time>
      </trkpt>
      <trkpt lat="46.31341" lon="5.94806">
        <ele>897</ele>
        <time>2019-04-17T20:32:50Z</time>
      </trkpt>
      <trkpt lat="46.31426" lon="5.94872">
        <ele>897</ele>
        <time>2019-04-17T20:33:50Z</time>
      </trkpt>
      <trkpt lat="46.31584" lon="5.94983">
        <ele>904</ele>
        <time>2019-04-17T20:34:50Z</time>
      </trkpt>
      <trkpt lat="46.31623" lon="5.95015">
        <ele>902</ele>
        <time>2019-04-17T20:35:50Z</time>
      </trkpt>
      <trkpt lat="46.31639" lon="5.95024">
        <ele>901</ele>
        <time>2019-04-17T20:36:50Z</time>
      </trkpt>
      <trkpt lat="46.31732" lon="5.95069">
        <ele>902</ele>
        <time>2019-04-17T20:37:50Z</time>
      </trkpt>
      <trkpt lat="46.31814" lon="5.95119">
        <ele>903</ele>
        <time>2019-04-17T20:38:50Z</time>
      </trkpt>
      <trkpt lat="46.31831" lon="5.95132">
        <ele>903</ele>
        <time>2019-04-17T20:39:50Z</time>
      </trkpt>
      <trkpt lat="46.31876" lon="5.9518">
        <ele>904</ele>
        <time>2019-04-17T20:40:50Z</time>
      </trkpt>
      <trkpt lat="46.3192" lon="5.9524">
        <ele>904</ele>
        <time>2019-04-17T20:41:50Z</time>
      </trkpt>
      <trkpt lat="46.32094" lon="5.954">
        <ele>903</ele>
        <time>2019-04-17T20:42:50Z</time>
      </trkpt>
      <trkpt lat="46.32121" lon="5.95432">
        <ele>903</ele>
        <time>2019-04-17T20:43:50Z</time>
      </trkpt>
      <trkpt lat="46.32147" lon="5.95466">
        <ele>904</ele>
        <time>2019-04-17T20:44:50Z</time>
      </trkpt>
      <trkpt lat="46.32163" lon="5.95482">
        <ele>905</ele>
        <time>2019-04-17T20:45:50Z</time>
      </trkpt>
      <trkpt lat="46.32234" lon="5.95523">
        <ele>909</ele>
        <time>2019-04-17T20:46:50Z</time>
      </trkpt>
      <trkpt lat="46.32253" lon="5.95536">
        <ele>909</ele>
        <time>2019-04-17T20:47:50Z</time>
      </trkpt>
      <trkpt lat="46.32274" lon="5.95554">
        <ele>910</ele>
        <time>2019-04-17T20:48:50Z</time>
      </trkpt>
      <trkpt lat="46.32329" lon="5.95611">
        <ele>914</ele>
        <time>2019-04-17T20:49:50Z</time>
      </trkpt>
      <trkpt lat="46.3234" lon="5.95619">
        <ele>915</ele>
        <time>2019-04-17T20:50:50Z</time>
      </trkpt>
      <trkpt lat="46.32349" lon="5.95623">
        <ele>915</ele>
        <time>2019-04-17T20:51:50Z</time>
      </trkpt>
      <trkpt lat="46.32362" lon="5.95624">
        <ele>915</ele>
        <time>2019-04-17T20:52:50Z</time>
      </trkpt>
      <trkpt lat="46.32376" lon="5.95623">
        <ele>916</ele>
        <time>2019-04-17T20:53:50Z</time>
      </trkpt>
      <trkpt lat="46.32434" lon="5.95609">
        <ele>915</ele>
        <time>2019-04-17T20:54:50Z</time>
      </trkpt>
      <trkpt lat="46.32449" lon="5.95609">
        <ele>916</ele>
        <time>2019-04-17T20:55:50Z</time>
      </trkpt>
      <trkpt lat="46.32463" lon="5.95614">
        <ele>916</ele>
        <time>2019-04-17T20:56:50Z</time>
      </trkpt>
      <trkpt lat="46.3259" lon="5.95703">
        <ele>927</ele>
        <time>2019-04-17T20:57:50Z</time>
      </trkpt>
      <trkpt lat="46.3262" lon="5.95718">
        <ele>930</ele>
        <time>2019-04-17T20:58:50Z</time>
      </trkpt>
      <trkpt lat="46.32641" lon="5.95725">
        <ele>931</ele>
        <time>2019-04-17T20:59:50Z</time>
      </trkpt>
      <trkpt lat="46.3269" lon="5.95731">
        <ele>931</ele>
        <time>2019-04-17T21:00:50Z</time>
      </trkpt>
      <trkpt lat="46.32706" lon="5.95738">
        <ele>932</ele>
        <time>2019-04-17T21:01:50Z</time>
      </trkpt>
      <trkpt lat="46.32722" lon="5.95751">
        <ele>932</ele>
        <time>2019-04-17T21:02:50Z</time>
      </trkpt>
      <trkpt lat="46.3277" lon="5.95825">
        <ele>936</ele>
        <time>2019-04-17T21:03:50Z</time>
      </trkpt>
      <trkpt lat="46.3278" lon="5.95834">
        <ele>937</ele>
        <time>2019-04-17T21:04:50Z</time>
      </trkpt>
      <trkpt lat="46.32791" lon="5.9584">
        <ele>938</ele>
        <time>2019-04-17T21:05:50Z</time>
      </trkpt>
      <trkpt lat="46.32861" lon="5.95843">
        <ele>939</ele>
        <time>2019-04-17T21:06:50Z</time>
      </trkpt>
      <trkpt lat="46.32881" lon="5.95857">
        <ele>941</ele>
        <time>2019-04-17T21:07:50Z</time>
      </trkpt>
      <trkpt lat="46.32908" lon="5.95887">
        <ele>946</ele>
        <time>2019-04-17T21:08:50Z</time>
      </trkpt>
      <trkpt lat="46.32917" lon="5.95894">
        <ele>947</ele>
        <time>2019-04-17T21:09:50Z</time>
      </trkpt>
      <trkpt lat="46.32927" lon="5.95895">
        <ele>947</ele>
        <time>2019-04-17T21:10:50Z</time>
      </trkpt>
      <trkpt lat="46.32943" lon="5.9589">
        <ele>946</ele>
        <time>2019-04-17T21:11:50Z</time>
      </trkpt>
      <trkpt lat="46.32959" lon="5.95881">
        <ele>945</ele>
        <time>2019-04-17T21:12:50Z</time>
      </trkpt>
      <trkpt lat="46.32986" lon="5.95856">
        <ele>941</ele>
        <time>2019-04-17T21:13:50Z</time>
      </trkpt>
      <trkpt lat="46.32994" lon="5.95854">
        <ele>941</ele>
        <time>2019-04-17T21:14:50Z</time>
      </trkpt>
      <trkpt lat="46.33016" lon="5.95858">
        <ele>941</ele>
        <time>2019-04-17T21:15:50Z</time>
      </trkpt>
      <trkpt lat="46.33025" lon="5.95864">
        <ele>941</ele>
        <time>2019-04-17T21:16:50Z</time>
      </trkpt>
      <trkpt lat="46.33034" lon="5.95873">
        <ele>942</ele>
        <time>2019-04-17T21:17:50Z</time>
      </trkpt>
      <trkpt lat="46.33044" lon="5.95887">
        <ele>943</ele>
        <time>2019-04-17T21:18:50Z</time>
      </trkpt>
      <trkpt lat="46.33059" lon="5.95914">
        <ele>946</ele>
        <time>2019-04-17T21:19:50Z</time>
      </trkpt>
      <trkpt lat="46.33074" lon="5.95949">
        <ele>950</ele>
        <time>2019-04-17T21:20:50Z</time>
      </trkpt>
      <trkpt lat="46.33095" lon="5.95983">
        <ele>953</ele>
        <time>2019-04-17T21:21:50Z</time>
      </trkpt>
      <trkpt lat="46.33123" lon="5.96007">
        <ele>956</ele>
        <time>2019-04-17T21:22:50Z</time>
      </trkpt>
      <trkpt lat="46.33142" lon="5.96018">
        <ele>958</ele>
        <time>2019-04-17T21:23:50Z</time>
      </trkpt>
      <trkpt lat="46.33175" lon="5.96034">
        <ele>960</ele>
        <time>2019-04-17T21:24:50Z</time>
      </trkpt>
      <trkpt lat="46.33218" lon="5.9606">
        <ele>958</ele>
        <time>2019-04-17T21:25:50Z</time>
      </trkpt>
      <trkpt lat="46.33314" lon="5.96104">
        <ele>950</ele>
        <time>2019-04-17T21:26:50Z</time>
      </trkpt>
      <trkpt lat="46.33329" lon="5.96114">
        <ele>950</ele>
        <time>2019-04-17T21:27:50Z</time>
      </trkpt>
      <trkpt lat="46.33373" lon="5.96152">
        <ele>951</ele>
        <time>2019-04-17T21:28:50Z</time>
      </trkpt>
      <trkpt lat="46.3348" lon="5.96249">
        <ele>945</ele>
        <time>2019-04-17T21:29:50Z</time>
      </trkpt>
      <trkpt lat="46.33553" lon="5.96322">
        <ele>943</ele>
        <time>2019-04-17T21:30:50Z</time>
      </trkpt>
      <trkpt lat="46.33598" lon="5.96382">
        <ele>945</ele>
        <time>2019-04-17T21:31:50Z</time>
      </trkpt>
      <trkpt lat="46.33628" lon="5.96405">
        <ele>943</ele>
        <time>2019-04-17T21:32:50Z</time>
      </trkpt>
      <trkpt lat="46.3364" lon="5.96417">
        <ele>942</ele>
        <time>2019-04-17T21:33:50Z</time>
      </trkpt>
      <trkpt lat="46.33693" lon="5.965">
        <ele>944</ele>
        <time>2019-04-17T21:34:50Z</time>
      </trkpt>
      <trkpt lat="46.33704" lon="5.9651">
        <ele>944</ele>
        <time>2019-04-17T21:35:50Z</time>
      </trkpt>
      <trkpt lat="46.33773" lon="5.96559">
        <ele>944</ele>
        <time>2019-04-17T21:36:50Z</time>
      </trkpt>
      <trkpt lat="46.33786" lon="5.96572">
        <ele>943</ele>
        <time>2019-04-17T21:37:50Z</time>
      </trkpt>
      <trkpt lat="46.33818" lon="5.96617">
        <ele>943</ele>
        <time>2019-04-17T21:38:50Z</time>
      </trkpt>
      <trkpt lat="46.33831" lon="5.96633">
        <ele>942</ele>
        <time>2019-04-17T21:39:50Z</time>
      </trkpt>
      <trkpt lat="46.33846" lon="5.96647">
        <ele>942</ele>
        <time>2019-04-17T21:40:50Z</time>
      </trkpt>
      <trkpt lat="46.33901" lon="5.96688">
        <ele>944</ele>
        <time>2019-04-17T21:41:50Z</time>
      </trkpt>
      <trkpt lat="46.33991" lon="5.96744">
        <ele>943</ele>
        <time>2019-04-17T21:42:50Z</time>
      </trkpt>
      <trkpt lat="46.34026" lon="5.96761">
        <ele>944</ele>
        <time>2019-04-17T21:43:50Z</time>
      </trkpt>
      <trkpt lat="46.34071" lon="5.96779">
        <ele>943</ele>
        <time>2019-04-17T21:44:50Z</time>
      </trkpt>
      <trkpt lat="46.34147" lon="5.96802">
        <ele>948</ele>
        <time>2019-04-17T21:45:50Z</time>
      </trkpt>
      <trkpt lat="46.34171" lon="5.96813">
        <ele>950</ele>
        <time>2019-04-17T21:46:50Z</time>
      </trkpt>
      <trkpt lat="46.34197" lon="5.96832">
        <ele>951</ele>
        <time>2019-04-17T21:47:50Z</time>
      </trkpt>
      <trkpt lat="46.34216" lon="5.96851">
        <ele>952</ele>
        <time>2019-04-17T21:48:50Z</time>
      </trkpt>
      <trkpt lat="46.34229" lon="5.96871">
        <ele>952</ele>
        <time>2019-04-17T21:49:50Z</time>
      </trkpt>
      <trkpt lat="46.34327" lon="5.97029">
        <ele>955</ele>
        <time>2019-04-17T21:50:50Z</time>
      </trkpt>
      <trkpt lat="46.34441" lon="5.97146">
        <ele>958</ele>
        <time>2019-04-17T21:51:50Z</time>
      </trkpt>
      <trkpt lat="46.34471" lon="5.97173">
        <ele>954</ele>
        <time>2019-04-17T21:52:50Z</time>
      </trkpt>
      <trkpt lat="46.34503" lon="5.97196">
        <ele>949</ele>
        <time>2019-04-17T21:53:50Z</time>
      </trkpt>
      <trkpt lat="46.34529" lon="5.9722">
        <ele>946</ele>
        <time>2019-04-17T21:54:50Z</time>
      </trkpt>
      <trkpt lat="46.34622" lon="5.97316">
        <ele>942</ele>
        <time>2019-04-17T21:55:50Z</time>
      </trkpt>
      <trkpt lat="46.34715" lon="5.97399">
        <ele>946</ele>
        <time>2019-04-17T21:56:50Z</time>
      </trkpt>
      <trkpt lat="46.34822" lon="5.97475">
        <ele>947</ele>
        <time>2019-04-17T21:57:50Z</time>
      </trkpt>
      <trkpt lat="46.34874" lon="5.97518">
        <ele>951</ele>
        <time>2019-04-17T21:58:50Z</time>
      </trkpt>
      <trkpt lat="46.34986" lon="5.97619">
        <ele>962</ele>
        <time>2019-04-17T21:59:50Z</time>
      </trkpt>
      <trkpt lat="46.3507" lon="5.9768">
        <ele>957</ele>
        <time>2019-04-17T22:00:50Z</time>
      </trkpt>
      <trkpt lat="46.35089" lon="5.97698">
        <ele>956</ele>
        <time>2019-04-17T22:01:50Z</time>
      </trkpt>
      <trkpt lat="46.35152" lon="5.97774">
        <ele>957</ele>
        <time>2019-04-17T22:02:50Z</time>
      </trkpt>
      <trkpt lat="46.35181" lon="5.97805">
        <ele>959</ele>
        <time>2019-04-17T22:03:50Z</time>
      </trkpt>
      <trkpt lat="46.35261" lon="5.97878">
        <ele>960</ele>
        <time>2019-04-17T22:04:50Z</time>
      </trkpt>
      <trkpt lat="46.35278" lon="5.97898">
        <ele>960</ele>
        <time>2019-04-17T22:05:50Z</time>
      </trkpt>
      <trkpt lat="46.35313" lon="5.97955">
        <ele>962</ele>
        <time>2019-04-17T22:06:50Z</time>
      </trkpt>
      <trkpt lat="46.35328" lon="5.97973">
        <ele>961</ele>
        <time>2019-04-17T22:07:50Z</time>
      </trkpt>
      <trkpt lat="46.35345" lon="5.97987">
        <ele>961</ele>
        <time>2019-04-17T22:08:50Z</time>
      </trkpt>
      <trkpt lat="46.35395" lon="5.9801">
        <ele>960</ele>
        <time>2019-04-17T22:09:50Z</time>
      </trkpt>
      <trkpt lat="46.35407" lon="5.98017">
        <ele>960</ele>
        <time>2019-04-17T22:10:50Z</time>
      </trkpt>
      <trkpt lat="46.3551" lon="5.98097">
        <ele>963</ele>
        <time>2019-04-17T22:11:50Z</time>
      </trkpt>
      <trkpt lat="46.35584" lon="5.98142">
        <ele>964</ele>
        <time>2019-04-17T22:12:50Z</time>
      </trkpt>
      <trkpt lat="46.35674" lon="5.98207">
        <ele>967</ele>
        <time>2019-04-17T22:13:50Z</time>
      </trkpt>
      <trkpt lat="46.35729" lon="5.9823">
        <ele>969</ele>
        <time>2019-04-17T22:14:50Z</time>
      </trkpt>
      <trkpt lat="46.35749" lon="5.98243">
        <ele>971</ele>
        <time>2019-04-17T22:15:50Z</time>
      </trkpt>
      <trkpt lat="46.35768" lon="5.98259">
        <ele>972</ele>
        <time>2019-04-17T22:16:50Z</time>
      </trkpt>
      <trkpt lat="46.35789" lon="5.9828">
        <ele>975</ele>
        <time>2019-04-17T22:17:50Z</time>
      </trkpt>
      <trkpt lat="46.35806" lon="5.98301">
        <ele>978</ele>
        <time>2019-04-17T22:18:50Z</time>
      </trkpt>
      <trkpt lat="46.35854" lon="5.98375">
        <ele>984</ele>
        <time>2019-04-17T22:19:50Z</time>
      </trkpt>
      <trkpt lat="46.35871" lon="5.98394">
        <ele>984</ele>
        <time>2019-04-17T22:20:50Z</time>
      </trkpt>
      <trkpt lat="46.35913" lon="5.98434">
        <ele>983</ele>
        <time>2019-04-17T22:21:50Z</time>
      </trkpt>
      <trkpt lat="46.35931" lon="5.98456">
        <ele>984</ele>
        <time>2019-04-17T22:22:50Z</time>
      </trkpt>
      <trkpt lat="46.3594" lon="5.9847">
        <ele>984</ele>
        <time>2019-04-17T22:23:50Z</time>
      </trkpt>
      <trkpt lat="46.35978" lon="5.98549">
        <ele>989</ele>
        <time>2019-04-17T22:24:50Z</time>
      </trkpt>
      <trkpt lat="46.35998" lon="5.98576">
        <ele>989</ele>
        <time>2019-04-17T22:25:50Z</time>
      </trkpt>
      <trkpt lat="46.36047" lon="5.98632">
        <ele>993</ele>
        <time>2019-04-17T22:26:50Z</time>
      </trkpt>
      <trkpt lat="46.36137" lon="5.98756">
        <ele>995</ele>
        <time>2019-04-17T22:27:50Z</time>
      </trkpt>
      <trkpt lat="46.3618" lon="5.98806">
        <ele>993</ele>
        <time>2019-04-17T22:28:50Z</time>
      </trkpt>
      <trkpt lat="46.36208" lon="5.98853">
        <ele>994</ele>
        <time>2019-04-17T22:29:50Z</time>
      </trkpt>
      <trkpt lat="46.36254" lon="5.98904">
        <ele>993</ele>
        <time>2019-04-17T22:30:50Z</time>
      </trkpt>
      <trkpt lat="46.36266" lon="5.9892">
        <ele>994</ele>
        <time>2019-04-17T22:31:50Z</time>
      </trkpt>
      <trkpt lat="46.36277" lon="5.9894">
        <ele>996</ele>
        <time>2019-04-17T22:32:50Z</time>
      </trkpt>
      <trkpt lat="46.36312" lon="5.99022">
        <ele>999</ele>
        <time>2019-04-17T22:33:50Z</time>
      </trkpt>
      <trkpt lat="46.36333" lon="5.99058">
        <ele>997</ele>
        <time>2019-04-17T22:34:50Z</time>
      </trkpt>
      <trkpt lat="46.3642" lon="5.99169">
        <ele>998</ele>
        <time>2019-04-17T22:35:50Z</time>
      </trkpt>
      <trkpt lat="46.36443" lon="5.99206">
        <ele>998</ele>
        <time>2019-04-17T22:36:50Z</time>
      </trkpt>
      <trkpt lat="46.3646" lon="5.99238">
        <ele>998</ele>
        <time>2019-04-17T22:37:50Z</time>
      </trkpt>
      <trkpt lat="46.36522" lon="5.99377">
        <ele>997</ele>
        <time>2019-04-17T22:38:50Z</time>
      </trkpt>
      <trkpt lat="46.36535" lon="5.99398">
        <ele>996</ele>
        <time>2019-04-17T22:39:50Z</time>
      </trkpt>
      <trkpt lat="46.36561" lon="5.99464">
        <ele>995</ele>
        <time>2019-04-17T22:40:50Z</time>
      </trkpt>
      <trkpt lat="46.36564" lon="5.9948">
        <ele>995</ele>
        <time>2019-04-17T22:41:50Z</time>
      </trkpt>
      <trkpt lat="46.36568" lon="5.99493">
        <ele>995</ele>
        <time>2019-04-17T22:42:50Z</time>
      </trkpt>
      <trkpt lat="46.36623" lon="5.99625">
        <ele>995</ele>
        <time>2019-04-17T22:43:50Z</time>
      </trkpt>
      <trkpt lat="46.36678" lon="5.99698">
        <ele>994</ele>
        <time>2019-04-17T22:44:50Z</time>
      </trkpt>
      <trkpt lat="46.36698" lon="5.99772">
        <ele>996</ele>
        <time>2019-04-17T22:45:50Z</time>
      </trkpt>
      <trkpt lat="46.36702" lon="5.99783">
        <ele>996</ele>
        <time>2019-04-17T22:46:50Z</time>
      </trkpt>
      <trkpt lat="46.36715" lon="5.99812">
        <ele>997</ele>
        <time>2019-04-17T22:47:50Z</time>
      </trkpt>
      <trkpt lat="46.36733" lon="5.9984">
        <ele>996</ele>
        <time>2019-04-17T22:48:50Z</time>
      </trkpt>
      <trkpt lat="46.36741" lon="5.99847">
        <ele>996</ele>
        <time>2019-04-17T22:49:50Z</time>
      </trkpt>
      <trkpt lat="46.36785" lon="5.9987">
        <ele>998</ele>
        <time>2019-04-17T22:50:50Z</time>
      </trkpt>
      <trkpt lat="46.36793" lon="5.99879">
        <ele>999</ele>
        <time>2019-04-17T22:51:50Z</time>
      </trkpt>
      <trkpt lat="46.368" lon="5.99892">
        <ele>1001</ele>
        <time>2019-04-17T22:52:50Z</time>
      </trkpt>
      <trkpt lat="46.36804" lon="5.99908">
        <ele>1004</ele>
        <time>2019-04-17T22:53:50Z</time>
      </trkpt>
      <trkpt lat="46.36808" lon="5.99956">
        <ele>1008</ele>
        <time>2019-04-17T22:54:50Z</time>
      </trkpt>
      <trkpt lat="46.36816" lon="5.9999">
        <ele>1010</ele>
        <time>2019-04-17T22:55:50Z</time>
      </trkpt>
      <trkpt lat="46.36823" lon="6.00041">
        <ele>1014</ele>
        <time>2019-04-17T22:56:50Z</time>
      </trkpt>
      <trkpt lat="46.36842" lon="6.0013">
        <ele>1018</ele>
        <time>2019-04-17T22:57:50Z</time>
      </trkpt>
      <trkpt lat="46.36848" lon="6.00198">
        <ele>1017</ele>
        <time>2019-04-17T22:58:50Z</time>
      </trkpt>
      <trkpt lat="46.36848" lon="6.00217">
        <ele>1016</ele>
        <time>2019-04-17T22:59:50Z</time>
      </trkpt>
      <trkpt lat="46.36845" lon="6.00227">
        <ele>1017</ele>
        <time>2019-04-17T23:00:50Z</time>
      </trkpt>
      <trkpt lat="46.36825" lon="6.00283">
        <ele>1022</ele>
        <time>2019-04-17T23:01:50Z</time>
      </trkpt>
      <trkpt lat="46.3682" lon="6.00309">
        <ele>1025</ele>
        <time>2019-04-17T23:02:50Z</time>
      </trkpt>
      <trkpt lat="46.3682" lon="6.0033">
        <ele>1026</ele>
        <time>2019-04-17T23:03:50Z</time>
      </trkpt>
      <trkpt lat="46.36822" lon="6.00354">
        <ele>1029</ele>
        <time>2019-04-17T23:04:50Z</time>
      </trkpt>
      <trkpt lat="46.36828" lon="6.00384">
        <ele>1032</ele>
        <time>2019-04-17T23:05:50Z</time>
      </trkpt>
      <trkpt lat="46.36844" lon="6.00448">
        <ele>1039</ele>
        <time>2019-04-17T23:06:50Z</time>
      </trkpt>
      <trkpt lat="46.36857" lon="6.00488">
        <ele>1044</ele>
        <time>2019-04-17T23:07:50Z</time>
      </trkpt>
      <trkpt lat="46.36883" lon="6.00601">
        <ele>1053</ele>
        <time>2019-04-17T23:08:50Z</time>
      </trkpt>
      <trkpt lat="46.36895" lon="6.00662">
        <ele>1058</ele>
        <time>2019-04-17T23:09:50Z</time>
      </trkpt>
      <trkpt lat="46.36922" lon="6.00732">
        <ele>1058</ele>
        <time>2019-04-17T23:10:50Z</time>
      </trkpt>
      <trkpt lat="46.36936" lon="6.00781">
        <ele>1060</ele>
        <time>2019-04-17T23:11:50Z</time>
      </trkpt>
      <trkpt lat="46.36942" lon="6.00796">
        <ele>1060</ele>
        <time>2019-04-17T23:12:50Z</time>
      </trkpt>
      <trkpt lat="46.36951" lon="6.00807">
        <ele>1060</ele>
        <time>2019-04-17T23:13:50Z</time>
      </trkpt>
      <trkpt lat="46.36978" lon="6.00821">
        <ele>1059</ele>
        <time>2019-04-17T23:14:50Z</time>
      </trkpt>
      <trkpt lat="46.36997" lon="6.00839">
        <ele>1060</ele>
        <time>2019-04-17T23:15:50Z</time>
      </trkpt>
      <trkpt lat="46.37006" lon="6.00854">
        <ele>1059</ele>
        <time>2019-04-17T23:16:50Z</time>
      </trkpt>
      <trkpt lat="46.37018" lon="6.00883">
        <ele>1059</ele>
        <time>2019-04-17T23:17:50Z</time>
      </trkpt>
      <trkpt lat="46.37027" lon="6.00923">
        <ele>1061</ele>
        <time>2019-04-17T23:18:50Z</time>
      </trkpt>
      <trkpt lat="46.3703" lon="6.00945">
        <ele>1062</ele>
        <time>2019-04-17T23:19:50Z</time>
      </trkpt>
      <trkpt lat="46.37032" lon="6.01">
        <ele>1064</ele>
        <time>2019-04-17T23:20:50Z</time>
      </trkpt>
      <trkpt lat="46.37034" lon="6.0102">
        <ele>1065</ele>
        <time>2019-04-17T23:21:50Z</time>
      </trkpt>
      <trkpt lat="46.37037" lon="6.01037">
        <ele>1065</ele>
        <time>2019-04-17T23:22:50Z</time>
      </trkpt>
      <trkpt lat="46.37049" lon="6.01071">
        <ele>1064</ele>
        <time>2019-04-17T23:23:50Z</time>
      </trkpt>
      <trkpt lat="46.37054" lon="6.01091">
        <ele>1064</ele>
        <time>2019-04-17T23:24:50Z</time>
      </trkpt>
      <trkpt lat="46.37057" lon="6.01149">
        <ele>1070</ele>
        <time>2019-04-17T23:25:50Z</time>
      </trkpt>
      <trkpt lat="46.37065" lon="6.01183">
        <ele>1072</ele>
        <time>2019-04-17T23:26:50Z</time>
      </trkpt>
      <trkpt lat="46.37069" lon="6.01194">
        <ele>1073</ele>
        <time>2019-04-17T23:27:50Z</time>
      </trkpt>
      <trkpt lat="46.37092" lon="6.0123">
        <ele>1072</ele>
        <time>2019-04-17T23:28:50Z</time>
      </trkpt>
      <trkpt lat="46.37108" lon="6.01264">
        <ele>1073</ele>
        <time>2019-04-17T23:29:50Z</time>
      </trkpt>
      <trkpt lat="46.37129" lon="6.01322">
        <ele>1076</ele>
        <time>2019-04-17T23:30:50Z</time>
      </trkpt>
      <trkpt lat="46.37148" lon="6.01389">
        <ele>1078</ele>
        <time>2019-04-17T23:31:50Z</time>
      </trkpt>
      <trkpt lat="46.37153" lon="6.014">
        <ele>1078</ele>
        <time>2019-04-17T23:32:50Z</time>
      </trkpt>
      <trkpt lat="46.37173" lon="6.01432">
        <ele>1078</ele>
        <time>2019-04-17T23:33:50Z</time>
      </trkpt>
      <trkpt lat="46.3721" lon="6.01486">
        <ele>1082</ele>
        <time>2019-04-17T23:34:50Z</time>
      </trkpt>
      <trkpt lat="46.37224" lon="6.0151">
        <ele>1083</ele>
        <time>2019-04-17T23:35:50Z</time>
      </trkpt>
      <trkpt lat="46.37294" lon="6.01748">
        <ele>1088</ele>
        <time>2019-04-17T23:36:50Z</time>
      </trkpt>
      <trkpt lat="46.37309" lon="6.01792">
        <ele>1089</ele>
        <time>2019-04-17T23:37:50Z</time>
      </trkpt>
      <trkpt lat="46.37337" lon="6.0187">
        <ele>1092</ele>
        <time>2019-04-17T23:38:50Z</time>
      </trkpt>
      <trkpt lat="46.37353" lon="6.01924">
        <ele>1095</ele>
        <time>2019-04-17T23:39:50Z</time>
      </trkpt>
      <trkpt lat="46.37385" lon="6.01991">
        <ele>1095</ele>
        <time>2019-04-17T23:40:50Z</time>
      </trkpt>
      <trkpt lat="46.37393" lon="6.02013">
        <ele>1096</ele>
        <time>2019-04-17T23:41:50Z</time>
      </trkpt>
      <trkpt lat="46.37399" lon="6.02043">
        <ele>1099</ele>
        <time>2019-04-17T23:42:50Z</time>
      </trkpt>
      <trkpt lat="46.374" lon="6.02086">
        <ele>1106</ele>
        <time>2019-04-17T23:43:50Z</time>
      </trkpt>
      <trkpt lat="46.37403" lon="6.02104">
        <ele>1107</ele>
        <time>2019-04-17T23:44:50Z</time>
      </trkpt>
      <trkpt lat="46.37418" lon="6.02144">
        <ele>1103</ele>
        <time>2019-04-17T23:45:50Z</time>
      </trkpt>
      <trkpt lat="46.37434" lon="6.02192">
        <ele>1108</ele>
        <time>2019-04-17T23:46:50Z</time>
      </trkpt>
      <trkpt lat="46.37453" lon="6.02228">
        <ele>1111</ele>
        <time>2019-04-17T23:47:50Z</time>
      </trkpt>
      <trkpt lat="46.37467" lon="6.02272">
        <ele>1113</ele>
        <time>2019-04-17T23:48:50Z</time>
      </trkpt>
      <trkpt lat="46.37504" lon="6.024">
        <ele>1112</ele>
        <time>2019-04-17T23:49:50Z</time>
      </trkpt>
      <trkpt lat="46.37513" lon="6.02452">
        <ele>1115</ele>
        <time>2019-04-17T23:50:50Z</time>
      </trkpt>
      <trkpt lat="46.37522" lon="6.02478">
        <ele>1116</ele>
        <time>2019-04-17T23:51:50Z</time>
      </trkpt>
      <trkpt lat="46.37539" lon="6.02514">
        <ele>1118</ele>
        <time>2019-04-17T23:52:50Z</time>
      </trkpt>
      <trkpt lat="46.37555" lon="6.02576">
        <ele>1124</ele>
        <time>2019-04-17T23:53:50Z</time>
      </trkpt>
      <trkpt lat="46.37568" lon="6.02616">
        <ele>1126</ele>
        <time>2019-04-17T23:54:50Z</time>
      </trkpt>
      <trkpt lat="46.37571" lon="6.02637">
        <ele>1128</ele>
        <time>2019-04-17T23:55:50Z</time>
      </trkpt>
      <trkpt lat="46.37572" lon="6.02671">
        <ele>1132</ele>
        <time>2019-04-17T23:56:50Z</time>
      </trkpt>
      <trkpt lat="46.37575" lon="6.02684">
        <ele>1133</ele>
        <time>2019-04-17T23:57:50Z</time>
      </trkpt>
      <trkpt lat="46.37584" lon="6.02702">
        <ele>1130</ele>
        <time>2019-04-17T23:58:50Z</time>
      </trkpt>
      <trkpt lat="46.37636" lon="6.0278">
        <ele>1130</ele>
        <time>2019-04-17T23:59:50Z</time>
      </trkpt>
      <trkpt lat="46.37658" lon="6.02824">
        <ele>1131</ele>
        <time>2019-04-18T00:00:50Z</time>
      </trkpt>
      <trkpt lat="46.37673" lon="6.02862">
        <ele>1133</ele>
        <time>2019-04-18T00:01:50Z</time>
      </trkpt>
      <trkpt lat="46.37702" lon="6.02948">
        <ele>1142</ele>
        <time>2019-04-18T00:02:50Z</time>
      </trkpt>
      <trkpt lat="46.37707" lon="6.0296">
        <ele>1143</ele>
        <time>2019-04-18T00:03:50Z</time>
      </trkpt>
      <trkpt lat="46.3772" lon="6.02976">
        <ele>1142</ele>
        <time>2019-04-18T00:04:50Z</time>
      </trkpt>
      <trkpt lat="46.37749" lon="6.02998">
        <ele>1138</ele>
        <time>2019-04-18T00:05:50Z</time>
      </trkpt>
      <trkpt lat="46.37757" lon="6.03008">
        <ele>1139</ele>
        <time>2019-04-18T00:06:50Z</time>
      </trkpt>
      <trkpt lat="46.37855" lon="6.0321">
        <ele>1151</ele>
        <time>2019-04-18T00:07:50Z</time>
      </trkpt>
      <trkpt lat="46.37858" lon="6.03357">
        <ele>1175</ele>
        <time>2019-04-18T00:08:50Z</time>
      </trkpt>
      <trkpt lat="46.37861" lon="6.03382">
        <ele>1179</ele>
        <time>2019-04-18T00:09:50Z</time>
      </trkpt>
      <trkpt lat="46.37869" lon="6.03402">
        <ele>1179</ele>
        <time>2019-04-18T00:10:50Z</time>
      </trkpt>
      <trkpt lat="46.37898" lon="6.03446">
        <ele>1177</ele>
        <time>2019-04-18T00:11:50Z</time>
      </trkpt>
      <trkpt lat="46.37912" lon="6.03479">
        <ele>1177</ele>
        <time>2019-04-18T00:12:50Z</time>
      </trkpt>
      <trkpt lat="46.37928" lon="6.03509">
        <ele>1179</ele>
        <time>2019-04-18T00:13:50Z</time>
      </trkpt>
      <trkpt lat="46.37948" lon="6.03536">
        <ele>1180</ele>
        <time>2019-04-18T00:14:50Z</time>
      </trkpt>
      <trkpt lat="46.37962" lon="6.03549">
        <ele>1179</ele>
        <time>2019-04-18T00:15:50Z</time>
      </trkpt>
      <trkpt lat="46.37982" lon="6.03561">
        <ele>1175</ele>
        <time>2019-04-18T00:16:50Z</time>
      </trkpt>
      <trkpt lat="46.3799" lon="6.03571">
        <ele>1174</ele>
        <time>2019-04-18T00:17:50Z</time>
      </trkpt>
      <trkpt lat="46.37993" lon="6.03577">
        <ele>1174</ele>
        <time>2019-04-18T00:18:50Z</time>
      </trkpt>
      <trkpt lat="46.38016" lon="6.03658">
        <ele>1177</ele>
        <time>2019-04-18T00:19:50Z</time>
      </trkpt>
      <trkpt lat="46.3802" lon="6.03678">
        <ele>1178</ele>
        <time>2019-04-18T00:20:50Z</time>
      </trkpt>
      <trkpt lat="46.38019" lon="6.03692">
        <ele>1179</ele>
        <time>2019-04-18T00:21:50Z</time>
      </trkpt>
      <trkpt lat="46.38004" lon="6.03736">
        <ele>1185</ele>
        <time>2019-04-18T00:22:50Z</time>
      </trkpt>
      <trkpt lat="46.38005" lon="6.03754">
        <ele>1187</ele>
        <time>2019-04-18T00:23:50Z</time>
      </trkpt>
      <trkpt lat="46.38015" lon="6.03784">
        <ele>1192</ele>
        <time>2019-04-18T00:24:50Z</time>
      </trkpt>
      <trkpt lat="46.38044" lon="6.03836">
        <ele>1194</ele>
        <time>2019-04-18T00:25:50Z</time>
      </trkpt>
      <trkpt lat="46.38049" lon="6.03848">
        <ele>1195</ele>
        <time>2019-04-18T00:26:50Z</time>
      </trkpt>
      <trkpt lat="46.3806" lon="6.03898">
        <ele>1203</ele>
        <time>2019-04-18T00:27:50Z</time>
      </trkpt>
      <trkpt lat="46.3807" lon="6.03926">
        <ele>1206</ele>
        <time>2019-04-18T00:28:50Z</time>
      </trkpt>
      <trkpt lat="46.38081" lon="6.03943">
        <ele>1208</ele>
        <time>2019-04-18T00:29:50Z</time>
      </trkpt>
      <trkpt lat="46.38096" lon="6.03956">
        <ele>1210</ele>
        <time>2019-04-18T00:30:50Z</time>
      </trkpt>
      <trkpt lat="46.38137" lon="6.03966">
        <ele>1207</ele>
        <time>2019-04-18T00:31:50Z</time>
      </trkpt>
      <trkpt lat="46.38193" lon="6.03999">
        <ele>1206</ele>
        <time>2019-04-18T00:32:50Z</time>
      </trkpt>
      <trkpt lat="46.38205" lon="6.04012">
        <ele>1208</ele>
        <time>2019-04-18T00:33:50Z</time>
      </trkpt>
      <trkpt lat="46.38218" lon="6.04036">
        <ele>1213</ele>
        <time>2019-04-18T00:34:50Z</time>
      </trkpt>
      <trkpt lat="46.38228" lon="6.04051">
        <ele>1216</ele>
        <time>2019-04-18T00:35:50Z</time>
      </trkpt>
      <trkpt lat="46.38244" lon="6.04068">
        <ele>1218</ele>
        <time>2019-04-18T00:36:50Z</time>
      </trkpt>
      <trkpt lat="46.38258" lon="6.0408">
        <ele>1219</ele>
        <time>2019-04-18T00:37:50Z</time>
      </trkpt>
      <trkpt lat="46.38317" lon="6.04119">
        <ele>1218</ele>
        <time>2019-04-18T00:38:50Z</time>
      </trkpt>
      <trkpt lat="46.38434" lon="6.04192">
        <ele>1219</ele>
        <time>2019-04-18T00:39:50Z</time>
      </trkpt>
      <trkpt lat="46.38449" lon="6.04204">
        <ele>1219</ele>
        <time>2019-04-18T00:40:50Z</time>
      </trkpt>
      <trkpt lat="46.38465" lon="6.04222">
        <ele>1221</ele>
        <time>2019-04-18T00:41:50Z</time>
      </trkpt>
      <trkpt lat="46.38488" lon="6.04269">
        <ele>1228</ele>
        <time>2019-04-18T00:42:50Z</time>
      </trkpt>
      <trkpt lat="46.38498" lon="6.04284">
        <ele>1230</ele>
        <time>2019-04-18T00:43:50Z</time>
      </trkpt>
      <trkpt lat="46.38513" lon="6.04297">
        <ele>1231</ele>
        <time>2019-04-18T00:44:50Z</time>
      </trkpt>
      <trkpt lat="46.38548" lon="6.04314">
        <ele>1231</ele>
        <time>2019-04-18T00:45:50Z</time>
      </trkpt>
      <trkpt lat="46.38556" lon="6.0432">
        <ele>1232</ele>
        <time>2019-04-18T00:46:50Z</time>
      </trkpt>
      <trkpt lat="46.38564" lon="6.04333">
        <ele>1234</ele>
        <time>2019-04-18T00:47:50Z</time>
      </trkpt>
      <trkpt lat="46.38575" lon="6.04357">
        <ele>1237</ele>
        <time>2019-04-18T00:48:50Z</time>
      </trkpt>
      <trkpt lat="46.38593" lon="6.04387">
        <ele>1239</ele>
        <time>2019-04-18T00:49:50Z</time>
      </trkpt>
      <trkpt lat="46.38616" lon="6.04411">
        <ele>1240</ele>
        <time>2019-04-18T00:50:50Z</time>
      </trkpt>
      <trkpt lat="46.38662" lon="6.04451">
        <ele>1239</ele>
        <time>2019-04-18T00:51:50Z</time>
      </trkpt>
      <trkpt lat="46.38671" lon="6.04464">
        <ele>1239</ele>
        <time>2019-04-18T00:52:50Z</time>
      </trkpt>
      <trkpt lat="46.38686" lon="6.0449">
        <ele>1241</ele>
        <time>2019-04-18T00:53:50Z</time>
      </trkpt>
      <trkpt lat="46.38703" lon="6.04512">
        <ele>1242</ele>
        <time>2019-04-18T00:54:50Z</time>
      </trkpt>
      <trkpt lat="46.38707" lon="6.04521">
        <ele>1243</ele>
        <time>2019-04-18T00:55:50Z</time>
      </trkpt>
      <trkpt lat="46.38708" lon="6.04531">
        <ele>1244</ele>
        <time>2019-04-18T00:56:50Z</time>
      </trkpt>
      <trkpt lat="46.38703" lon="6.04542">
        <ele>1245</ele>
        <time>2019-04-18T00:57:50Z</time>
      </trkpt>
      <trkpt lat="46.38699" lon="6.04546">
        <ele>1246</ele>
        <time>2019-04-18T00:58:50Z</time>
      </trkpt>
      <trkpt lat="46.3869" lon="6.04546">
        <ele>1248</ele>
        <time>2019-04-18T00:59:50Z</time>
      </trkpt>
      <trkpt lat="46.38676" lon="6.04534">
        <ele>1248</ele>
        <time>2019-04-18T01:00:50Z</time>
      </trkpt>
      <trkpt lat="46.38651" lon="6.045">
        <ele>1246</ele>
        <time>2019-04-18T01:01:50Z</time>
      </trkpt>
      <trkpt lat="46.38634" lon="6.04485">
        <ele>1247</ele>
        <time>2019-04-18T01:02:50Z</time>
      </trkpt>
      <trkpt lat="46.3861" lon="6.04476">
        <ele>1249</ele>
        <time>2019-04-18T01:03:50Z</time>
      </trkpt>
      <trkpt lat="46.38585" lon="6.0447">
        <ele>1252</ele>
        <time>2019-04-18T01:04:50Z</time>
      </trkpt>
      <trkpt lat="46.38546" lon="6.04448">
        <ele>1254</ele>
        <time>2019-04-18T01:05:50Z</time>
      </trkpt>
      <trkpt lat="46.38505" lon="6.04431">
        <ele>1257</ele>
        <time>2019-04-18T01:06:50Z</time>
      </trkpt>
      <trkpt lat="46.38489" lon="6.04432">
        <ele>1259</ele>
        <time>2019-04-18T01:07:50Z</time>
      </trkpt>
      <trkpt lat="46.3848" lon="6.04438">
        <ele>1261</ele>
        <time>2019-04-18T01:08:50Z</time>
      </trkpt>
      <trkpt lat="46.38458" lon="6.04466">
        <ele>1266</ele>
        <time>2019-04-18T01:09:50Z</time>
      </trkpt>
      <trkpt lat="46.38446" lon="6.04471">
        <ele>1268</ele>
        <time>2019-04-18T01:10:50Z</time>
      </trkpt>
      <trkpt lat="46.38436" lon="6.04471">
        <ele>1269</ele>
        <time>2019-04-18T01:11:50Z</time>
      </trkpt>
      <trkpt lat="46.38424" lon="6.04463">
        <ele>1270</ele>
        <time>2019-04-18T01:12:50Z</time>
      </trkpt>
      <trkpt lat="46.38394" lon="6.04427">
        <ele>1270</ele>
        <time>2019-04-18T01:13:50Z</time>
      </trkpt>
      <trkpt lat="46.38382" lon="6.04417">
        <ele>1271</ele>
        <time>2019-04-18T01:14:50Z</time>
      </trkpt>
      <trkpt lat="46.38371" lon="6.04412">
        <ele>1271</ele>
        <time>2019-04-18T01:15:50Z</time>
      </trkpt>
      <trkpt lat="46.38363" lon="6.04412">
        <ele>1272</ele>
        <time>2019-04-18T01:16:50Z</time>
      </trkpt>
      <trkpt lat="46.38354" lon="6.04415">
        <ele>1274</ele>
        <time>2019-04-18T01:17:50Z</time>
      </trkpt>
      <trkpt lat="46.38343" lon="6.04426">
        <ele>1276</ele>
        <time>2019-04-18T01:18:50Z</time>
      </trkpt>
      <trkpt lat="46.38293" lon="6.04514">
        <ele>1283</ele>
        <time>2019-04-18T01:19:50Z</time>
      </trkpt>
      <trkpt lat="46.38289" lon="6.04534">
        <ele>1284</ele>
        <time>2019-04-18T01:20:50Z</time>
      </trkpt>
      <trkpt lat="46.38289" lon="6.04569">
        <ele>1286</ele>
        <time>2019-04-18T01:21:50Z</time>
      </trkpt>
      <trkpt lat="46.38287" lon="6.04583">
        <ele>1287</ele>
        <time>2019-04-18T01:22:50Z</time>
      </trkpt>
      <trkpt lat="46.38285" lon="6.0459">
        <ele>1287</ele>
        <time>2019-04-18T01:23:50Z</time>
      </trkpt>
      <trkpt lat="46.38279" lon="6.04601">
        <ele>1288</ele>
        <time>2019-04-18T01:24:50Z</time>
      </trkpt>
      <trkpt lat="46.38276" lon="6.04606">
        <ele>1288</ele>
        <time>2019-04-18T01:25:50Z</time>
      </trkpt>
      <trkpt lat="46.3827" lon="6.04611">
        <ele>1289</ele>
        <time>2019-04-18T01:26:50Z</time>
      </trkpt>
      <trkpt lat="46.38264" lon="6.04613">
        <ele>1289</ele>
        <time>2019-04-18T01:27:50Z</time>
      </trkpt>
      <trkpt lat="46.38254" lon="6.04615">
        <ele>1289</ele>
        <time>2019-04-18T01:28:50Z</time>
      </trkpt>
      <trkpt lat="46.38171" lon="6.04578">
        <ele>1288</ele>
        <time>2019-04-18T01:29:50Z</time>
      </trkpt>
      <trkpt lat="46.38139" lon="6.04567">
        <ele>1294</ele>
        <time>2019-04-18T01:30:50Z</time>
      </trkpt>
      <trkpt lat="46.38123" lon="6.04559">
        <ele>1296</ele>
        <time>2019-04-18T01:31:50Z</time>
      </trkpt>
      <trkpt lat="46.38108" lon="6.04545">
        <ele>1297</ele>
        <time>2019-04-18T01:32:50Z</time>
      </trkpt>
      <trkpt lat="46.38083" lon="6.04511">
        <ele>1296</ele>
        <time>2019-04-18T01:33:50Z</time>
      </trkpt>
      <trkpt lat="46.38064" lon="6.04473">
        <ele>1296</ele>
        <time>2019-04-18T01:34:50Z</time>
      </trkpt>
      <trkpt lat="46.38035" lon="6.04408">
        <ele>1294</ele>
        <time>2019-04-18T01:35:50Z</time>
      </trkpt>
      <trkpt lat="46.38025" lon="6.0439">
        <ele>1293</ele>
        <time>2019-04-18T01:36:50Z</time>
      </trkpt>
      <trkpt lat="46.38018" lon="6.04383">
        <ele>1293</ele>
        <time>2019-04-18T01:37:50Z</time>
      </trkpt>
      <trkpt lat="46.38013" lon="6.0438">
        <ele>1294</ele>
        <time>2019-04-18T01:38:50Z</time>
      </trkpt>
      <trkpt lat="46.38002" lon="6.0438">
        <ele>1296</ele>
        <time>2019-04-18T01:39:50Z</time>
      </trkpt>
      <trkpt lat="46.37996" lon="6.04383">
        <ele>1299</ele>
        <time>2019-04-18T01:40:50Z</time>
      </trkpt>
      <trkpt lat="46.37964" lon="6.04367">
        <ele>1311</ele>
        <time>2019-04-18T01:41:50Z</time>
      </trkpt>
      <trkpt lat="46.37953" lon="6.04359">
        <ele>1313</ele>
        <time>2019-04-18T01:42:50Z</time>
      </trkpt>
      <trkpt lat="46.37939" lon="6.04345">
        <ele>1314</ele>
        <time>2019-04-18T01:43:50Z</time>
      </trkpt>
      <trkpt lat="46.3793" lon="6.04331">
        <ele>1312</ele>
        <time>2019-04-18T01:44:50Z</time>
      </trkpt>
      <trkpt lat="46.37912" lon="6.04292">
        <ele>1310</ele>
        <time>2019-04-18T01:45:50Z</time>
      </trkpt>
      <trkpt lat="46.37833" lon="6.04099">
        <ele>1315</ele>
        <time>2019-04-18T01:46:50Z</time>
      </trkpt>
      <trkpt lat="46.37825" lon="6.04078">
        <ele>1315</ele>
        <time>2019-04-18T01:47:50Z</time>
      </trkpt>
      <trkpt lat="46.37817" lon="6.04046">
        <ele>1316</ele>
        <time>2019-04-18T01:48:50Z</time>
      </trkpt>
      <trkpt lat="46.37797" lon="6.0393">
        <ele>1315</ele>
        <time>2019-04-18T01:49:50Z</time>
      </trkpt>
      <trkpt lat="46.37779" lon="6.03853">
        <ele>1316</ele>
        <time>2019-04-18T01:50:50Z</time>
      </trkpt>
      <trkpt lat="46.37759" lon="6.03788">
        <ele>1315</ele>
        <time>2019-04-18T01:51:50Z</time>
      </trkpt>
      <trkpt lat="46.37732" lon="6.03718">
        <ele>1315</ele>
        <time>2019-04-18T01:52:50Z</time>
      </trkpt>
      <trkpt lat="46.3771" lon="6.03647">
        <ele>1312</ele>
        <time>2019-04-18T01:53:50Z</time>
      </trkpt>
      <trkpt lat="46.37695" lon="6.03612">
        <ele>1314</ele>
        <time>2019-04-18T01:54:50Z</time>
      </trkpt>
      <trkpt lat="46.37646" lon="6.03528">
        <ele>1321</ele>
        <time>2019-04-18T01:55:50Z</time>
      </trkpt>
      <trkpt lat="46.376" lon="6.0344">
        <ele>1326</ele>
        <time>2019-04-18T01:56:50Z</time>
      </trkpt>
      <trkpt lat="46.3758" lon="6.03398">
        <ele>1327</ele>
        <time>2019-04-18T01:57:50Z</time>
      </trkpt>
      <trkpt lat="46.37558" lon="6.03335">
        <ele>1323</ele>
        <time>2019-04-18T01:58:50Z</time>
      </trkpt>
      <trkpt lat="46.37534" lon="6.03281">
        <ele>1323</ele>
        <time>2019-04-18T01:59:50Z</time>
      </trkpt>
      <trkpt lat="46.3751" lon="6.03234">
        <ele>1326</ele>
        <time>2019-04-18T02:00:50Z</time>
      </trkpt>
      <trkpt lat="46.37491" lon="6.03204">
        <ele>1330</ele>
        <time>2019-04-18T02:01:50Z</time>
      </trkpt>
      <trkpt lat="46.37479" lon="6.0318">
        <ele>1332</ele>
        <time>2019-04-18T02:02:50Z</time>
      </trkpt>
      <trkpt lat="46.3747" lon="6.03148">
        <ele>1332</ele>
        <time>2019-04-18T02:03:50Z</time>
      </trkpt>
      <trkpt lat="46.37466" lon="6.03105">
        <ele>1327</ele>
        <time>2019-04-18T02:04:50Z</time>
      </trkpt>
      <trkpt lat="46.37463" lon="6.03049">
        <ele>1320</ele>
        <time>2019-04-18T02:05:50Z</time>
      </trkpt>
      <trkpt lat="46.37458" lon="6.03013">
        <ele>1317</ele>
        <time>2019-04-18T02:06:50Z</time>
      </trkpt>
      <trkpt lat="46.37454" lon="6.02997">
        <ele>1317</ele>
        <time>2019-04-18T02:07:50Z</time>
      </trkpt>
      <trkpt lat="46.37418" lon="6.02909">
        <ele>1320</ele>
        <time>2019-04-18T02:08:50Z</time>
      </trkpt>
      <trkpt lat="46.37403" lon="6.02875">
        <ele>1318</ele>
        <time>2019-04-18T02:09:50Z</time>
      </trkpt>
      <trkpt lat="46.37368" lon="6.02818">
        <ele>1321</ele>
        <time>2019-04-18T02:10:50Z</time>
      </trkpt>
      <trkpt lat="46.37359" lon="6.02788">
        <ele>1321</ele>
        <time>2019-04-18T02:11:50Z</time>
      </trkpt>
      <trkpt lat="46.37343" lon="6.02707">
        <ele>1323</ele>
        <time>2019-04-18T02:12:50Z</time>
      </trkpt>
      <trkpt lat="46.37341" lon="6.02692">
        <ele>1323</ele>
        <time>2019-04-18T02:13:50Z</time>
      </trkpt>
      <trkpt lat="46.3734" lon="6.02585">
        <ele>1318</ele>
        <time>2019-04-18T02:14:50Z</time>
      </trkpt>
      <trkpt lat="46.37333" lon="6.02547">
        <ele>1320</ele>
        <time>2019-04-18T02:15:50Z</time>
      </trkpt>
      <trkpt lat="46.373" lon="6.02452">
        <ele>1322</ele>
        <time>2019-04-18T02:16:50Z</time>
      </trkpt>
      <trkpt lat="46.37255" lon="6.02306">
        <ele>1322</ele>
        <time>2019-04-18T02:17:50Z</time>
      </trkpt>
      <trkpt lat="46.37122" lon="6.01997">
        <ele>1321</ele>
        <time>2019-04-18T02:18:50Z</time>
      </trkpt>
      <trkpt lat="46.37104" lon="6.01969">
        <ele>1321</ele>
        <time>2019-04-18T02:19:50Z</time>
      </trkpt>
      <trkpt lat="46.37065" lon="6.01914">
        <ele>1321</ele>
        <time>2019-04-18T02:20:50Z</time>
      </trkpt>
      <trkpt lat="46.37039" lon="6.0188">
        <ele>1313</ele>
        <time>2019-04-18T02:21:50Z</time>
      </trkpt>
      <trkpt lat="46.37025" lon="6.01868">
        <ele>1313</ele>
        <time>2019-04-18T02:22:50Z</time>
      </trkpt>
      <trkpt lat="46.3701" lon="6.01858">
        <ele>1315</ele>
        <time>2019-04-18T02:23:50Z</time>
      </trkpt>
      <trkpt lat="46.36994" lon="6.01854">
        <ele>1318</ele>
        <time>2019-04-18T02:24:50Z</time>
      </trkpt>
      <trkpt lat="46.36979" lon="6.01857">
        <ele>1319</ele>
        <time>2019-04-18T02:25:50Z</time>
      </trkpt>
      <trkpt lat="46.36971" lon="6.01863">
        <ele>1321</ele>
        <time>2019-04-18T02:26:50Z</time>
      </trkpt>
      <trkpt lat="46.36949" lon="6.01897">
        <ele>1327</ele>
        <time>2019-04-18T02:27:50Z</time>
      </trkpt>
      <trkpt lat="46.36885" lon="6.02005">
        <ele>1332</ele>
        <time>2019-04-18T02:28:50Z</time>
      </trkpt>
      <trkpt lat="46.36818" lon="6.02176">
        <ele>1330</ele>
        <time>2019-04-18T02:29:50Z</time>
      </trkpt>
      <trkpt lat="46.36801" lon="6.02207">
        <ele>1333</ele>
        <time>2019-04-18T02:30:50Z</time>
      </trkpt>
      <trkpt lat="46.36785" lon="6.02227">
        <ele>1332</ele>
        <time>2019-04-18T02:31:50Z</time>
      </trkpt>
      <trkpt lat="46.36776" lon="6.02233">
        <ele>1330</ele>
        <time>2019-04-18T02:32:50Z</time>
      </trkpt>
      <trkpt lat="46.36659" lon="6.02273">
        <ele>1316</ele>
        <time>2019-04-18T02:33:50Z</time>
      </trkpt>
      <trkpt lat="46.36643" lon="6.02282">
        <ele>1316</ele>
        <time>2019-04-18T02:34:50Z</time>
      </trkpt>
      <trkpt lat="46.36637" lon="6.02288">
        <ele>1316</ele>
        <time>2019-04-18T02:35:50Z</time>
      </trkpt>
      <trkpt lat="46.36629" lon="6.02305">
        <ele>1315</ele>
        <time>2019-04-18T02:36:50Z</time>
      </trkpt>
      <trkpt lat="46.36608" lon="6.02385">
        <ele>1312</ele>
        <time>2019-04-18T02:37:50Z</time>
      </trkpt>
      <trkpt lat="46.36594" lon="6.02423">
        <ele>1309</ele>
        <time>2019-04-18T02:38:50Z</time>
      </trkpt>
      <trkpt lat="46.36576" lon="6.02453">
        <ele>1303</ele>
        <time>2019-04-18T02:39:50Z</time>
      </trkpt>
      <trkpt lat="46.36569" lon="6.02462">
        <ele>1302</ele>
        <time>2019-04-18T02:40:50Z</time>
      </trkpt>
      <trkpt lat="46.36554" lon="6.02474">
        <ele>1300</ele>
        <time>2019-04-18T02:41:50Z</time>
      </trkpt>
      <trkpt lat="46.36484" lon="6.02509">
        <ele>1288</ele>
        <time>2019-04-18T02:42:50Z</time>
      </trkpt>
      <trkpt lat="46.36466" lon="6.02506">
        <ele>1284</ele>
        <time>2019-04-18T02:43:50Z</time>
      </trkpt>
      <trkpt lat="46.36454" lon="6.025">
        <ele>1282</ele>
        <time>2019-04-18T02:44:50Z</time>
      </trkpt>
      <trkpt lat="46.36445" lon="6.02491">
        <ele>1282</ele>
        <time>2019-04-18T02:45:50Z</time>
      </trkpt>
      <trkpt lat="46.36434" lon="6.02475">
        <ele>1282</ele>
        <time>2019-04-18T02:46:50Z</time>
      </trkpt>
      <trkpt lat="46.36424" lon="6.02451">
        <ele>1283</ele>
        <time>2019-04-18T02:47:50Z</time>
      </trkpt>
      <trkpt lat="46.36395" lon="6.02356">
        <ele>1284</ele>
        <time>2019-04-18T02:48:50Z</time>
      </trkpt>
      <trkpt lat="46.36388" lon="6.02335">
        <ele>1284</ele>
        <time>2019-04-18T02:49:50Z</time>
      </trkpt>
      <trkpt lat="46.36379" lon="6.02322">
        <ele>1285</ele>
        <time>2019-04-18T02:50:50Z</time>
      </trkpt>
      <trkpt lat="46.36368" lon="6.02316">
        <ele>1286</ele>
        <time>2019-04-18T02:51:50Z</time>
      </trkpt>
      <trkpt lat="46.36358" lon="6.02318">
        <ele>1285</ele>
        <time>2019-04-18T02:52:50Z</time>
      </trkpt>
      <trkpt lat="46.36349" lon="6.02326">
        <ele>1283</ele>
        <time>2019-04-18T02:53:50Z</time>
      </trkpt>
      <trkpt lat="46.36343" lon="6.02339">
        <ele>1280</ele>
        <time>2019-04-18T02:54:50Z</time>
      </trkpt>
      <trkpt lat="46.36338" lon="6.02359">
        <ele>1277</ele>
        <time>2019-04-18T02:55:50Z</time>
      </trkpt>
      <trkpt lat="46.36337" lon="6.02409">
        <ele>1271</ele>
        <time>2019-04-18T02:56:50Z</time>
      </trkpt>
      <trkpt lat="46.36339" lon="6.02422">
        <ele>1270</ele>
        <time>2019-04-18T02:57:50Z</time>
      </trkpt>
      <trkpt lat="46.36348" lon="6.02452">
        <ele>1270</ele>
        <time>2019-04-18T02:58:50Z</time>
      </trkpt>
      <trkpt lat="46.36369" lon="6.02497">
        <ele>1269</ele>
        <time>2019-04-18T02:59:50Z</time>
      </trkpt>
      <trkpt lat="46.36373" lon="6.02511">
        <ele>1267</ele>
        <time>2019-04-18T03:00:50Z</time>
      </trkpt>
      <trkpt lat="46.36375" lon="6.0253">
        <ele>1265</ele>
        <time>2019-04-18T03:01:50Z</time>
      </trkpt>
      <trkpt lat="46.36371" lon="6.0255">
        <ele>1262</ele>
        <time>2019-04-18T03:02:50Z</time>
      </trkpt>
      <trkpt lat="46.36367" lon="6.0256">
        <ele>1261</ele>
        <time>2019-04-18T03:03:50Z</time>
      </trkpt>
      <trkpt lat="46.36346" lon="6.02594">
        <ele>1257</ele>
        <time>2019-04-18T03:04:50Z</time>
      </trkpt>
      <trkpt lat="46.3632" lon="6.02629">
        <ele>1251</ele>
        <time>2019-04-18T03:05:50Z</time>
      </trkpt>
      <trkpt lat="46.36298" lon="6.0265">
        <ele>1247</ele>
        <time>2019-04-18T03:06:50Z</time>
      </trkpt>
      <trkpt lat="46.36274" lon="6.02666">
        <ele>1244</ele>
        <time>2019-04-18T03:07:50Z</time>
      </trkpt>
      <trkpt lat="46.36248" lon="6.02674">
        <ele>1241</ele>
        <time>2019-04-18T03:08:50Z</time>
      </trkpt>
      <trkpt lat="46.362" lon="6.02682">
        <ele>1231</ele>
        <time>2019-04-18T03:09:50Z</time>
      </trkpt>
      <trkpt lat="46.36182" lon="6.02678">
        <ele>1230</ele>
        <time>2019-04-18T03:10:50Z</time>
      </trkpt>
      <trkpt lat="46.36161" lon="6.02664">
        <ele>1231</ele>
        <time>2019-04-18T03:11:50Z</time>
      </trkpt>
      <trkpt lat="46.3613" lon="6.02638">
        <ele>1235</ele>
        <time>2019-04-18T03:12:50Z</time>
      </trkpt>
      <trkpt lat="46.36081" lon="6.02594">
        <ele>1241</ele>
        <time>2019-04-18T03:13:50Z</time>
      </trkpt>
      <trkpt lat="46.36066" lon="6.02585">
        <ele>1242</ele>
        <time>2019-04-18T03:14:50Z</time>
      </trkpt>
      <trkpt lat="46.36039" lon="6.02579">
        <ele>1238</ele>
        <time>2019-04-18T03:15:50Z</time>
      </trkpt>
      <trkpt lat="46.35986" lon="6.02587">
        <ele>1225</ele>
        <time>2019-04-18T03:16:50Z</time>
      </trkpt>
      <trkpt lat="46.35967" lon="6.02583">
        <ele>1223</ele>
        <time>2019-04-18T03:17:50Z</time>
      </trkpt>
      <trkpt lat="46.3591" lon="6.02562">
        <ele>1224</ele>
        <time>2019-04-18T03:18:50Z</time>
      </trkpt>
      <trkpt lat="46.35902" lon="6.02565">
        <ele>1222</ele>
        <time>2019-04-18T03:19:50Z</time>
      </trkpt>
      <trkpt lat="46.35899" lon="6.02575">
        <ele>1218</ele>
        <time>2019-04-18T03:20:50Z</time>
      </trkpt>
      <trkpt lat="46.35899" lon="6.02579">
        <ele>1217</ele>
        <time>2019-04-18T03:21:50Z</time>
      </trkpt>
      <trkpt lat="46.35901" lon="6.02585">
        <ele>1214</ele>
        <time>2019-04-18T03:22:50Z</time>
      </trkpt>
      <trkpt lat="46.35905" lon="6.0259">
        <ele>1213</ele>
        <time>2019-04-18T03:23:50Z</time>
      </trkpt>
      <trkpt lat="46.35915" lon="6.02596">
        <ele>1212</ele>
        <time>2019-04-18T03:24:50Z</time>
      </trkpt>
      <trkpt lat="46.36042" lon="6.02656">
        <ele>1210</ele>
        <time>2019-04-18T03:25:50Z</time>
      </trkpt>
      <trkpt lat="46.3607" lon="6.02677">
        <ele>1206</ele>
        <time>2019-04-18T03:26:50Z</time>
      </trkpt>
      <trkpt lat="46.36103" lon="6.02709">
        <ele>1202</ele>
        <time>2019-04-18T03:27:50Z</time>
      </trkpt>
      <trkpt lat="46.36142" lon="6.02754">
        <ele>1197</ele>
        <time>2019-04-18T03:28:50Z</time>
      </trkpt>
      <trkpt lat="46.36209" lon="6.02854">
        <ele>1181</ele>
        <time>2019-04-18T03:29:50Z</time>
      </trkpt>
      <trkpt lat="46.36246" lon="6.02882">
        <ele>1184</ele>
        <time>2019-04-18T03:30:50Z</time>
      </trkpt>
      <trkpt lat="46.36256" lon="6.02895">
        <ele>1185</ele>
        <time>2019-04-18T03:31:50Z</time>
      </trkpt>
      <trkpt lat="46.36267" lon="6.02926">
        <ele>1183</ele>
        <time>2019-04-18T03:32:50Z</time>
      </trkpt>
      <trkpt lat="46.36281" lon="6.02984">
        <ele>1180</ele>
        <time>2019-04-18T03:33:50Z</time>
      </trkpt>
      <trkpt lat="46.36282" lon="6.02997">
        <ele>1179</ele>
        <time>2019-04-18T03:34:50Z</time>
      </trkpt>
      <trkpt lat="46.36284" lon="6.03024">
        <ele>1177</ele>
        <time>2019-04-18T03:35:50Z</time>
      </trkpt>
      <trkpt lat="46.3628" lon="6.03078">
        <ele>1170</ele>
        <time>2019-04-18T03:36:50Z</time>
      </trkpt>
      <trkpt lat="46.36279" lon="6.03103">
        <ele>1168</ele>
        <time>2019-04-18T03:37:50Z</time>
      </trkpt>
      <trkpt lat="46.36281" lon="6.03122">
        <ele>1169</ele>
        <time>2019-04-18T03:38:50Z</time>
      </trkpt>
      <trkpt lat="46.36289" lon="6.0316">
        <ele>1172</ele>
        <time>2019-04-18T03:39:50Z</time>
      </trkpt>
      <trkpt lat="46.3629" lon="6.03177">
        <ele>1172</ele>
        <time>2019-04-18T03:40:50Z</time>
      </trkpt>
      <trkpt lat="46.36285" lon="6.03207">
        <ele>1171</ele>
        <time>2019-04-18T03:41:50Z</time>
      </trkpt>
      <trkpt lat="46.36238" lon="6.03357">
        <ele>1156</ele>
        <time>2019-04-18T03:42:50Z</time>
      </trkpt>
      <trkpt lat="46.36207" lon="6.03428">
        <ele>1153</ele>
        <time>2019-04-18T03:43:50Z</time>
      </trkpt>
      <trkpt lat="46.36187" lon="6.03503">
        <ele>1153</ele>
        <time>2019-04-18T03:44:50Z</time>
      </trkpt>
      <trkpt lat="46.36179" lon="6.03523">
        <ele>1151</ele>
        <time>2019-04-18T03:45:50Z</time>
      </trkpt>
      <trkpt lat="46.36166" lon="6.03547">
        <ele>1147</ele>
        <time>2019-04-18T03:46:50Z</time>
      </trkpt>
      <trkpt lat="46.36135" lon="6.03587">
        <ele>1143</ele>
        <time>2019-04-18T03:47:50Z</time>
      </trkpt>
      <trkpt lat="46.36126" lon="6.03601">
        <ele>1142</ele>
        <time>2019-04-18T03:48:50Z</time>
      </trkpt>
      <trkpt lat="46.36113" lon="6.0363">
        <ele>1140</ele>
        <time>2019-04-18T03:49:50Z</time>
      </trkpt>
      <trkpt lat="46.36071" lon="6.03742">
        <ele>1133</ele>
        <time>2019-04-18T03:50:50Z</time>
      </trkpt>
      <trkpt lat="46.36063" lon="6.03757">
        <ele>1131</ele>
        <time>2019-04-18T03:51:50Z</time>
      </trkpt>
      <trkpt lat="46.36045" lon="6.03775">
        <ele>1125</ele>
        <time>2019-04-18T03:52:50Z</time>
      </trkpt>
      <trkpt lat="46.36001" lon="6.03798">
        <ele>1110</ele>
        <time>2019-04-18T03:53:50Z</time>
      </trkpt>
      <trkpt lat="46.35986" lon="6.03811">
        <ele>1104</ele>
        <time>2019-04-18T03:54:50Z</time>
      </trkpt>
      <trkpt lat="46.35968" lon="6.03839">
        <ele>1096</ele>
        <time>2019-04-18T03:55:50Z</time>
      </trkpt>
      <trkpt lat="46.35958" lon="6.03865">
        <ele>1091</ele>
        <time>2019-04-18T03:56:50Z</time>
      </trkpt>
      <trkpt lat="46.35926" lon="6.03984">
        <ele>1076</ele>
        <time>2019-04-18T03:57:50Z</time>
      </trkpt>
      <trkpt lat="46.35923" lon="6.04016">
        <ele>1073</ele>
        <time>2019-04-18T03:58:50Z</time>
      </trkpt>
      <trkpt lat="46.35925" lon="6.04033">
        <ele>1074</ele>
        <time>2019-04-18T03:59:50Z</time>
      </trkpt>
      <trkpt lat="46.35929" lon="6.04047">
        <ele>1076</ele>
        <time>2019-04-18T04:00:50Z</time>
      </trkpt>
      <trkpt lat="46.35969" lon="6.04151">
        <ele>1094</ele>
        <time>2019-04-18T04:01:50Z</time>
      </trkpt>
      <trkpt lat="46.35973" lon="6.04165">
        <ele>1096</ele>
        <time>2019-04-18T04:02:50Z</time>
      </trkpt>
      <trkpt lat="46.35977" lon="6.04192">
        <ele>1096</ele>
        <time>2019-04-18T04:03:50Z</time>
      </trkpt>
      <trkpt lat="46.35978" lon="6.04208">
        <ele>1096</ele>
        <time>2019-04-18T04:04:50Z</time>
      </trkpt>
      <trkpt lat="46.35976" lon="6.04231">
        <ele>1092</ele>
        <time>2019-04-18T04:05:50Z</time>
      </trkpt>
      <trkpt lat="46.35965" lon="6.04293">
        <ele>1089</ele>
        <time>2019-04-18T04:06:50Z</time>
      </trkpt>
      <trkpt lat="46.35949" lon="6.04323">
        <ele>1083</ele>
        <time>2019-04-18T04:07:50Z</time>
      </trkpt>
      <trkpt lat="46.35932" lon="6.04348">
        <ele>1073</ele>
        <time>2019-04-18T04:08:50Z</time>
      </trkpt>
      <trkpt lat="46.35925" lon="6.04364">
        <ele>1068</ele>
        <time>2019-04-18T04:09:50Z</time>
      </trkpt>
      <trkpt lat="46.35922" lon="6.04376">
        <ele>1066</ele>
        <time>2019-04-18T04:10:50Z</time>
      </trkpt>
      <trkpt lat="46.35923" lon="6.04424">
        <ele>1066</ele>
        <time>2019-04-18T04:11:50Z</time>
      </trkpt>
      <trkpt lat="46.35921" lon="6.04479">
        <ele>1059</ele>
        <time>2019-04-18T04:12:50Z</time>
      </trkpt>
      <trkpt lat="46.35926" lon="6.04501">
        <ele>1059</ele>
        <time>2019-04-18T04:13:50Z</time>
      </trkpt>
      <trkpt lat="46.35934" lon="6.04512">
        <ele>1061</ele>
        <time>2019-04-18T04:14:50Z</time>
      </trkpt>
      <trkpt lat="46.35957" lon="6.04526">
        <ele>1067</ele>
        <time>2019-04-18T04:15:50Z</time>
      </trkpt>
      <trkpt lat="46.35974" lon="6.04531">
        <ele>1072</ele>
        <time>2019-04-18T04:16:50Z</time>
      </trkpt>
      <trkpt lat="46.35985" lon="6.04536">
        <ele>1075</ele>
        <time>2019-04-18T04:17:50Z</time>
      </trkpt>
      <trkpt lat="46.35987" lon="6.04547">
        <ele>1071</ele>
        <time>2019-04-18T04:18:50Z</time>
      </trkpt>
      <trkpt lat="46.35986" lon="6.04555">
        <ele>1068</ele>
        <time>2019-04-18T04:19:50Z</time>
      </trkpt>
      <trkpt lat="46.35979" lon="6.04563">
        <ele>1063</ele>
        <time>2019-04-18T04:20:50Z</time>
      </trkpt>
      <trkpt lat="46.35974" lon="6.04565">
        <ele>1061</ele>
        <time>2019-04-18T04:21:50Z</time>
      </trkpt>
      <trkpt lat="46.3597" lon="6.04564">
        <ele>1060</ele>
        <time>2019-04-18T04:22:50Z</time>
      </trkpt>
      <trkpt lat="46.35956" lon="6.04555">
        <ele>1059</ele>
        <time>2019-04-18T04:23:50Z</time>
      </trkpt>
      <trkpt lat="46.35941" lon="6.04549">
        <ele>1055</ele>
        <time>2019-04-18T04:24:50Z</time>
      </trkpt>
      <trkpt lat="46.35897" lon="6.04556">
        <ele>1041</ele>
        <time>2019-04-18T04:25:50Z</time>
      </trkpt>
      <trkpt lat="46.35865" lon="6.04568">
        <ele>1034</ele>
        <time>2019-04-18T04:26:50Z</time>
      </trkpt>
      <trkpt lat="46.35849" lon="6.04579">
        <ele>1032</ele>
        <time>2019-04-18T04:27:50Z</time>
      </trkpt>
      <trkpt lat="46.35837" lon="6.04591">
        <ele>1031</ele>
        <time>2019-04-18T04:28:50Z</time>
      </trkpt>
      <trkpt lat="46.35833" lon="6.04599">
        <ele>1031</ele>
        <time>2019-04-18T04:29:50Z</time>
      </trkpt>
      <trkpt lat="46.35823" lon="6.04625">
        <ele>1031</ele>
        <time>2019-04-18T04:30:50Z</time>
      </trkpt>
      <trkpt lat="46.35804" lon="6.04731">
        <ele>1031</ele>
        <time>2019-04-18T04:31:50Z</time>
      </trkpt>
      <trkpt lat="46.35797" lon="6.04801">
        <ele>1026</ele>
        <time>2019-04-18T04:32:50Z</time>
      </trkpt>
      <trkpt lat="46.35782" lon="6.0485">
        <ele>1025</ele>
        <time>2019-04-18T04:33:50Z</time>
      </trkpt>
      <trkpt lat="46.35766" lon="6.04888">
        <ele>1024</ele>
        <time>2019-04-18T04:34:50Z</time>
      </trkpt>
      <trkpt lat="46.35743" lon="6.04936">
        <ele>1021</ele>
        <time>2019-04-18T04:35:50Z</time>
      </trkpt>
      <trkpt lat="46.35737" lon="6.04954">
        <ele>1018</ele>
        <time>2019-04-18T04:36:50Z</time>
      </trkpt>
      <trkpt lat="46.35727" lon="6.04991">
        <ele>1009</ele>
        <time>2019-04-18T04:37:50Z</time>
      </trkpt>
      <trkpt lat="46.3572" lon="6.05006">
        <ele>1006</ele>
        <time>2019-04-18T04:38:50Z</time>
      </trkpt>
      <trkpt lat="46.35713" lon="6.05015">
        <ele>1004</ele>
        <time>2019-04-18T04:39:50Z</time>
      </trkpt>
      <trkpt lat="46.35704" lon="6.0502">
        <ele>1003</ele>
        <time>2019-04-18T04:40:50Z</time>
      </trkpt>
      <trkpt lat="46.35694" lon="6.05022">
        <ele>1003</ele>
        <time>2019-04-18T04:41:50Z</time>
      </trkpt>
      <trkpt lat="46.35681" lon="6.05019">
        <ele>1004</ele>
        <time>2019-04-18T04:42:50Z</time>
      </trkpt>
      <trkpt lat="46.35669" lon="6.05013">
        <ele>1005</ele>
        <time>2019-04-18T04:43:50Z</time>
      </trkpt>
      <trkpt lat="46.3565" lon="6.05">
        <ele>1004</ele>
        <time>2019-04-18T04:44:50Z</time>
      </trkpt>
      <trkpt lat="46.35626" lon="6.04978">
        <ele>1003</ele>
        <time>2019-04-18T04:45:50Z</time>
      </trkpt>
      <trkpt lat="46.35601" lon="6.04945">
        <ele>1002</ele>
        <time>2019-04-18T04:46:50Z</time>
      </trkpt>
      <trkpt lat="46.35557" lon="6.04879">
        <ele>997</ele>
        <time>2019-04-18T04:47:50Z</time>
      </trkpt>
      <trkpt lat="46.35539" lon="6.04849">
        <ele>994</ele>
        <time>2019-04-18T04:48:50Z</time>
      </trkpt>
      <trkpt lat="46.35534" lon="6.04837">
        <ele>994</ele>
        <time>2019-04-18T04:49:50Z</time>
      </trkpt>
      <trkpt lat="46.35508" lon="6.0475">
        <ele>989</ele>
        <time>2019-04-18T04:50:50Z</time>
      </trkpt>
      <trkpt lat="46.35499" lon="6.04729">
        <ele>987</ele>
        <time>2019-04-18T04:51:50Z</time>
      </trkpt>
      <trkpt lat="46.35487" lon="6.04705">
        <ele>988</ele>
        <time>2019-04-18T04:52:50Z</time>
      </trkpt>
      <trkpt lat="46.35471" lon="6.04683">
        <ele>987</ele>
        <time>2019-04-18T04:53:50Z</time>
      </trkpt>
      <trkpt lat="46.35442" lon="6.04657">
        <ele>985</ele>
        <time>2019-04-18T04:54:50Z</time>
      </trkpt>
      <trkpt lat="46.35414" lon="6.04619">
        <ele>984</ele>
        <time>2019-04-18T04:55:50Z</time>
      </trkpt>
      <trkpt lat="46.354" lon="6.04607">
        <ele>984</ele>
        <time>2019-04-18T04:56:50Z</time>
      </trkpt>
      <trkpt lat="46.35385" lon="6.046">
        <ele>983</ele>
        <time>2019-04-18T04:57:50Z</time>
      </trkpt>
      <trkpt lat="46.35367" lon="6.04597">
        <ele>982</ele>
        <time>2019-04-18T04:58:50Z</time>
      </trkpt>
      <trkpt lat="46.35335" lon="6.04604">
        <ele>977</ele>
        <time>2019-04-18T04:59:50Z</time>
      </trkpt>
      <trkpt lat="46.35319" lon="6.04603">
        <ele>974</ele>
        <time>2019-04-18T05:00:50Z</time>
      </trkpt>
      <trkpt lat="46.35304" lon="6.04595">
        <ele>973</ele>
        <time>2019-04-18T05:01:50Z</time>
      </trkpt>
      <trkpt lat="46.35272" lon="6.04572">
        <ele>970</ele>
        <time>2019-04-18T05:02:50Z</time>
      </trkpt>
      <trkpt lat="46.35255" lon="6.04554">
        <ele>969</ele>
        <time>2019-04-18T05:03:50Z</time>
      </trkpt>
      <trkpt lat="46.35242" lon="6.04533">
        <ele>967</ele>
        <time>2019-04-18T05:04:50Z</time>
      </trkpt>
      <trkpt lat="46.35224" lon="6.04498">
        <ele>967</ele>
        <time>2019-04-18T05:05:50Z</time>
      </trkpt>
      <trkpt lat="46.35214" lon="6.04485">
        <ele>966</ele>
        <time>2019-04-18T05:06:50Z</time>
      </trkpt>
      <trkpt lat="46.35208" lon="6.04481">
        <ele>965</ele>
        <time>2019-04-18T05:07:50Z</time>
      </trkpt>
      <trkpt lat="46.35167" lon="6.04464">
        <ele>960</ele>
        <time>2019-04-18T05:08:50Z</time>
      </trkpt>
      <trkpt lat="46.35153" lon="6.04451">
        <ele>958</ele>
        <time>2019-04-18T05:09:50Z</time>
      </trkpt>
      <trkpt lat="46.35146" lon="6.04442">
        <ele>958</ele>
        <time>2019-04-18T05:10:50Z</time>
      </trkpt>
      <trkpt lat="46.35122" lon="6.04388">
        <ele>956</ele>
        <time>2019-04-18T05:11:50Z</time>
      </trkpt>
      <trkpt lat="46.35107" lon="6.04367">
        <ele>954</ele>
        <time>2019-04-18T05:12:50Z</time>
      </trkpt>
      <trkpt lat="46.35088" lon="6.04348">
        <ele>952</ele>
        <time>2019-04-18T05:13:50Z</time>
      </trkpt>
      <trkpt lat="46.35077" lon="6.04345">
        <ele>951</ele>
        <time>2019-04-18T05:14:50Z</time>
      </trkpt>
      <trkpt lat="46.35068" lon="6.04351">
        <ele>949</ele>
        <time>2019-04-18T05:15:50Z</time>
      </trkpt>
      <trkpt lat="46.35066" lon="6.04355">
        <ele>948</ele>
        <time>2019-04-18T05:16:50Z</time>
      </trkpt>
      <trkpt lat="46.35064" lon="6.04365">
        <ele>948</ele>
        <time>2019-04-18T05:17:50Z</time>
      </trkpt>
      <trkpt lat="46.35065" lon="6.04375">
        <ele>947</ele>
        <time>2019-04-18T05:18:50Z</time>
      </trkpt>
      <trkpt lat="46.35067" lon="6.04381">
        <ele>948</ele>
        <time>2019-04-18T05:19:50Z</time>
      </trkpt>
      <trkpt lat="46.35072" lon="6.0439">
        <ele>949</ele>
        <time>2019-04-18T05:20:50Z</time>
      </trkpt>
      <trkpt lat="46.35092" lon="6.04418">
        <ele>952</ele>
        <time>2019-04-18T05:21:50Z</time>
      </trkpt>
      <trkpt lat="46.35105" lon="6.04438">
        <ele>952</ele>
        <time>2019-04-18T05:22:50Z</time>
      </trkpt>
      <trkpt lat="46.3512" lon="6.04466">
        <ele>951</ele>
        <time>2019-04-18T05:23:50Z</time>
      </trkpt>
      <trkpt lat="46.35155" lon="6.04544">
        <ele>949</ele>
        <time>2019-04-18T05:24:50Z</time>
      </trkpt>
      <trkpt lat="46.35176" lon="6.04609">
        <ele>943</ele>
        <time>2019-04-18T05:25:50Z</time>
      </trkpt>
      <trkpt lat="46.35183" lon="6.04626">
        <ele>942</ele>
        <time>2019-04-18T05:26:50Z</time>
      </trkpt>
      <trkpt lat="46.35209" lon="6.0467">
        <ele>941</ele>
        <time>2019-04-18T05:27:50Z</time>
      </trkpt>
      <trkpt lat="46.35225" lon="6.04709">
        <ele>936</ele>
        <time>2019-04-18T05:28:50Z</time>
      </trkpt>
      <trkpt lat="46.35236" lon="6.04726">
        <ele>935</ele>
        <time>2019-04-18T05:29:50Z</time>
      </trkpt>
      <trkpt lat="46.35269" lon="6.04766">
        <ele>934</ele>
        <time>2019-04-18T05:30:50Z</time>
      </trkpt>
      <trkpt lat="46.35324" lon="6.04814">
        <ele>934</ele>
        <time>2019-04-18T05:31:50Z</time>
      </trkpt>
      <trkpt lat="46.35331" lon="6.04824">
        <ele>933</ele>
        <time>2019-04-18T05:32:50Z</time>
      </trkpt>
      <trkpt lat="46.35336" lon="6.04834">
        <ele>933</ele>
        <time>2019-04-18T05:33:50Z</time>
      </trkpt>
      <trkpt lat="46.3534" lon="6.04845">
        <ele>931</ele>
        <time>2019-04-18T05:34:50Z</time>
      </trkpt>
      <trkpt lat="46.35348" lon="6.04881">
        <ele>926</ele>
        <time>2019-04-18T05:35:50Z</time>
      </trkpt>
      <trkpt lat="46.35354" lon="6.04896">
        <ele>924</ele>
        <time>2019-04-18T05:36:50Z</time>
      </trkpt>
      <trkpt lat="46.35364" lon="6.0491">
        <ele>924</ele>
        <time>2019-04-18T05:37:50Z</time>
      </trkpt>
      <trkpt lat="46.35383" lon="6.04928">
        <ele>925</ele>
        <time>2019-04-18T05:38:50Z</time>
      </trkpt>
      <trkpt lat="46.35394" lon="6.04945">
        <ele>924</ele>
        <time>2019-04-18T05:39:50Z</time>
      </trkpt>
      <trkpt lat="46.35461" lon="6.05077">
        <ele>915</ele>
        <time>2019-04-18T05:40:50Z</time>
      </trkpt>
      <trkpt lat="46.35511" lon="6.05148">
        <ele>914</ele>
        <time>2019-04-18T05:41:50Z</time>
      </trkpt>
      <trkpt lat="46.35535" lon="6.05179">
        <ele>913</ele>
        <time>2019-04-18T05:42:50Z</time>
      </trkpt>
      <trkpt lat="46.35634" lon="6.05287">
        <ele>904</ele>
        <time>2019-04-18T05:43:50Z</time>
      </trkpt>
      <trkpt lat="46.35682" lon="6.05353">
        <ele>892</ele>
        <time>2019-04-18T05:44:50Z</time>
      </trkpt>
      <trkpt lat="46.3569" lon="6.05361">
        <ele>891</ele>
        <time>2019-04-18T05:45:50Z</time>
      </trkpt>
      <trkpt lat="46.35698" lon="6.05365">
        <ele>890</ele>
        <time>2019-04-18T05:46:50Z</time>
      </trkpt>
      <trkpt lat="46.35709" lon="6.05367">
        <ele>891</ele>
        <time>2019-04-18T05:47:50Z</time>
      </trkpt>
      <trkpt lat="46.35732" lon="6.0536">
        <ele>895</ele>
        <time>2019-04-18T05:48:50Z</time>
      </trkpt>
      <trkpt lat="46.35745" lon="6.05352">
        <ele>898</ele>
        <time>2019-04-18T05:49:50Z</time>
      </trkpt>
      <trkpt lat="46.35777" lon="6.05326">
        <ele>899</ele>
        <time>2019-04-18T05:50:50Z</time>
      </trkpt>
      <trkpt lat="46.35824" lon="6.05299">
        <ele>894</ele>
        <time>2019-04-18T05:51:50Z</time>
      </trkpt>
      <trkpt lat="46.35832" lon="6.0529">
        <ele>893</ele>
        <time>2019-04-18T05:52:50Z</time>
      </trkpt>
      <trkpt lat="46.35841" lon="6.05272">
        <ele>895</ele>
        <time>2019-04-18T05:53:50Z</time>
      </trkpt>
      <trkpt lat="46.35855" lon="6.05233">
        <ele>901</ele>
        <time>2019-04-18T05:54:50Z</time>
      </trkpt>
      <trkpt lat="46.3586" lon="6.05213">
        <ele>905</ele>
        <time>2019-04-18T05:55:50Z</time>
      </trkpt>
      <trkpt lat="46.35867" lon="6.052">
        <ele>907</ele>
        <time>2019-04-18T05:56:50Z</time>
      </trkpt>
      <trkpt lat="46.35877" lon="6.05198">
        <ele>905</ele>
        <time>2019-04-18T05:57:50Z</time>
      </trkpt>
      <trkpt lat="46.35886" lon="6.05205">
        <ele>902</ele>
        <time>2019-04-18T05:58:50Z</time>
      </trkpt>
      <trkpt lat="46.35891" lon="6.05213">
        <ele>899</ele>
        <time>2019-04-18T05:59:50Z</time>
      </trkpt>
      <trkpt lat="46.35893" lon="6.05225">
        <ele>897</ele>
        <time>2019-04-18T06:00:50Z</time>
      </trkpt>
      <trkpt lat="46.35893" lon="6.0524">
        <ele>893</ele>
        <time>2019-04-18T06:01:50Z</time>
      </trkpt>
      <trkpt lat="46.3589" lon="6.05248">
        <ele>892</ele>
        <time>2019-04-18T06:02:50Z</time>
      </trkpt>
      <trkpt lat="46.35858" lon="6.05292">
        <ele>889</ele>
        <time>2019-04-18T06:03:50Z</time>
      </trkpt>
      <trkpt lat="46.3583" lon="6.05351">
        <ele>882</ele>
        <time>2019-04-18T06:04:50Z</time>
      </trkpt>
      <trkpt lat="46.35812" lon="6.05377">
        <ele>880</ele>
        <time>2019-04-18T06:05:50Z</time>
      </trkpt>
      <trkpt lat="46.35799" lon="6.0539">
        <ele>880</ele>
        <time>2019-04-18T06:06:50Z</time>
      </trkpt>
      <trkpt lat="46.35736" lon="6.05436">
        <ele>878</ele>
        <time>2019-04-18T06:07:50Z</time>
      </trkpt>
      <trkpt lat="46.35688" lon="6.05456">
        <ele>869</ele>
        <time>2019-04-18T06:08:50Z</time>
      </trkpt>
      <trkpt lat="46.35677" lon="6.05459">
        <ele>867</ele>
        <time>2019-04-18T06:09:50Z</time>
      </trkpt>
      <trkpt lat="46.35668" lon="6.05458">
        <ele>866</ele>
        <time>2019-04-18T06:10:50Z</time>
      </trkpt>
      <trkpt lat="46.35655" lon="6.05451">
        <ele>864</ele>
        <time>2019-04-18T06:11:50Z</time>
      </trkpt>
      <trkpt lat="46.35636" lon="6.05419">
        <ele>863</ele>
        <time>2019-04-18T06:12:50Z</time>
      </trkpt>
      <trkpt lat="46.35625" lon="6.05405">
        <ele>863</ele>
        <time>2019-04-18T06:13:50Z</time>
      </trkpt>
      <trkpt lat="46.35617" lon="6.05399">
        <ele>863</ele>
        <time>2019-04-18T06:14:50Z</time>
      </trkpt>
      <trkpt lat="46.35578" lon="6.05375">
        <ele>859</ele>
        <time>2019-04-18T06:15:50Z</time>
      </trkpt>
      <trkpt lat="46.3555" lon="6.05365">
        <ele>857</ele>
        <time>2019-04-18T06:16:50Z</time>
      </trkpt>
      <trkpt lat="46.35526" lon="6.0536">
        <ele>854</ele>
        <time>2019-04-18T06:17:50Z</time>
      </trkpt>
      <trkpt lat="46.35507" lon="6.0536">
        <ele>851</ele>
        <time>2019-04-18T06:18:50Z</time>
      </trkpt>
      <trkpt lat="46.35478" lon="6.05369">
        <ele>847</ele>
        <time>2019-04-18T06:19:50Z</time>
      </trkpt>
      <trkpt lat="46.35402" lon="6.0542">
        <ele>840</ele>
        <time>2019-04-18T06:20:50Z</time>
      </trkpt>
      <trkpt lat="46.35392" lon="6.05422">
        <ele>839</ele>
        <time>2019-04-18T06:21:50Z</time>
      </trkpt>
      <trkpt lat="46.35382" lon="6.05421">
        <ele>838</ele>
        <time>2019-04-18T06:22:50Z</time>
      </trkpt>
      <trkpt lat="46.3537" lon="6.05411">
        <ele>837</ele>
        <time>2019-04-18T06:23:50Z</time>
      </trkpt>
      <trkpt lat="46.35358" lon="6.05397">
        <ele>837</ele>
        <time>2019-04-18T06:24:50Z</time>
      </trkpt>
      <trkpt lat="46.35349" lon="6.05379">
        <ele>836</ele>
        <time>2019-04-18T06:25:50Z</time>
      </trkpt>
      <trkpt lat="46.35345" lon="6.05367">
        <ele>836</ele>
        <time>2019-04-18T06:26:50Z</time>
      </trkpt>
      <trkpt lat="46.35332" lon="6.05313">
        <ele>835</ele>
        <time>2019-04-18T06:27:50Z</time>
      </trkpt>
      <trkpt lat="46.35319" lon="6.05273">
        <ele>832</ele>
        <time>2019-04-18T06:28:50Z</time>
      </trkpt>
      <trkpt lat="46.35293" lon="6.05243">
        <ele>829</ele>
        <time>2019-04-18T06:29:50Z</time>
      </trkpt>
      <trkpt lat="46.35255" lon="6.05211">
        <ele>826</ele>
        <time>2019-04-18T06:30:50Z</time>
      </trkpt>
      <trkpt lat="46.35195" lon="6.05125">
        <ele>821</ele>
        <time>2019-04-18T06:31:50Z</time>
      </trkpt>
      <trkpt lat="46.35169" lon="6.05097">
        <ele>816</ele>
        <time>2019-04-18T06:32:50Z</time>
      </trkpt>
      <trkpt lat="46.35121" lon="6.05052">
        <ele>816</ele>
        <time>2019-04-18T06:33:50Z</time>
      </trkpt>
      <trkpt lat="46.35104" lon="6.05044">
        <ele>815</ele>
        <time>2019-04-18T06:34:50Z</time>
      </trkpt>
      <trkpt lat="46.35091" lon="6.05041">
        <ele>813</ele>
        <time>2019-04-18T06:35:50Z</time>
      </trkpt>
      <trkpt lat="46.34983" lon="6.05024">
        <ele>802</ele>
        <time>2019-04-18T06:36:50Z</time>
      </trkpt>
      <trkpt lat="46.34928" lon="6.05011">
        <ele>798</ele>
        <time>2019-04-18T06:37:50Z</time>
      </trkpt>
      <trkpt lat="46.34876" lon="6.04982">
        <ele>796</ele>
        <time>2019-04-18T06:38:50Z</time>
      </trkpt>
      <trkpt lat="46.34865" lon="6.04978">
        <ele>795</ele>
        <time>2019-04-18T06:39:50Z</time>
      </trkpt>
      <trkpt lat="46.34856" lon="6.0498">
        <ele>794</ele>
        <time>2019-04-18T06:40:50Z</time>
      </trkpt>
      <trkpt lat="46.34852" lon="6.04987">
        <ele>792</ele>
        <time>2019-04-18T06:41:50Z</time>
      </trkpt>
      <trkpt lat="46.34851" lon="6.05">
        <ele>790</ele>
        <time>2019-04-18T06:42:50Z</time>
      </trkpt>
      <trkpt lat="46.34853" lon="6.05011">
        <ele>789</ele>
        <time>2019-04-18T06:43:50Z</time>
      </trkpt>
      <trkpt lat="46.34859" lon="6.05023">
        <ele>788</ele>
        <time>2019-04-18T06:44:50Z</time>
      </trkpt>
      <trkpt lat="46.34952" lon="6.0516">
        <ele>783</ele>
        <time>2019-04-18T06:45:50Z</time>
      </trkpt>
      <trkpt lat="46.34965" lon="6.05183">
        <ele>782</ele>
        <time>2019-04-18T06:46:50Z</time>
      </trkpt>
      <trkpt lat="46.34978" lon="6.05212">
        <ele>782</ele>
        <time>2019-04-18T06:47:50Z</time>
      </trkpt>
      <trkpt lat="46.34999" lon="6.05278">
        <ele>780</ele>
        <time>2019-04-18T06:48:50Z</time>
      </trkpt>
      <trkpt lat="46.35011" lon="6.05303">
        <ele>779</ele>
        <time>2019-04-18T06:49:50Z</time>
      </trkpt>
      <trkpt lat="46.35048" lon="6.05371">
        <ele>776</ele>
        <time>2019-04-18T06:50:50Z</time>
      </trkpt>
      <trkpt lat="46.35066" lon="6.05409">
        <ele>775</ele>
        <time>2019-04-18T06:51:50Z</time>
      </trkpt>
      <trkpt lat="46.35085" lon="6.05463">
        <ele>773</ele>
        <time>2019-04-18T06:52:50Z</time>
      </trkpt>
      <trkpt lat="46.35087" lon="6.0549">
        <ele>772</ele>
        <time>2019-04-18T06:53:50Z</time>
      </trkpt>
      <trkpt lat="46.3508" lon="6.05578">
        <ele>764</ele>
        <time>2019-04-18T06:54:50Z</time>
      </trkpt>
      <trkpt lat="46.35082" lon="6.05597">
        <ele>763</ele>
        <time>2019-04-18T06:55:50Z</time>
      </trkpt>
      <trkpt lat="46.35081" lon="6.05612">
        <ele>761</ele>
        <time>2019-04-18T06:56:50Z</time>
      </trkpt>
      <trkpt lat="46.35083" lon="6.05623">
        <ele>761</ele>
        <time>2019-04-18T06:57:50Z</time>
      </trkpt>
      <trkpt lat="46.35091" lon="6.05647">
        <ele>760</ele>
        <time>2019-04-18T06:58:50Z</time>
      </trkpt>
      <trkpt lat="46.3511" lon="6.05683">
        <ele>761</ele>
        <time>2019-04-18T06:59:50Z</time>
      </trkpt>
      <trkpt lat="46.35142" lon="6.05758">
        <ele>760</ele>
        <time>2019-04-18T07:00:50Z</time>
      </trkpt>
      <trkpt lat="46.35143" lon="6.0578">
        <ele>755</ele>
        <time>2019-04-18T07:01:50Z</time>
      </trkpt>
      <trkpt lat="46.35138" lon="6.05789">
        <ele>752</ele>
        <time>2019-04-18T07:02:50Z</time>
      </trkpt>
      <trkpt lat="46.35132" lon="6.05794">
        <ele>751</ele>
        <time>2019-04-18T07:03:50Z</time>
      </trkpt>
      <trkpt lat="46.35118" lon="6.05796">
        <ele>749</ele>
        <time>2019-04-18T07:04:50Z</time>
      </trkpt>
      <trkpt lat="46.35098" lon="6.0578">
        <ele>750</ele>
        <time>2019-04-18T07:05:50Z</time>
      </trkpt>
      <trkpt lat="46.35068" lon="6.05723">
        <ele>750</ele>
        <time>2019-04-18T07:06:50Z</time>
      </trkpt>
      <trkpt lat="46.35055" lon="6.05705">
        <ele>749</ele>
        <time>2019-04-18T07:07:50Z</time>
      </trkpt>
      <trkpt lat="46.35047" lon="6.05697">
        <ele>748</ele>
        <time>2019-04-18T07:08:50Z</time>
      </trkpt>
      <trkpt lat="46.35035" lon="6.05691">
        <ele>746</ele>
        <time>2019-04-18T07:09:50Z</time>
      </trkpt>
      <trkpt lat="46.34981" lon="6.05687">
        <ele>736</ele>
        <time>2019-04-18T07:10:50Z</time>
      </trkpt>
      <trkpt lat="46.34971" lon="6.05683">
        <ele>735</ele>
        <time>2019-04-18T07:11:50Z</time>
      </trkpt>
      <trkpt lat="46.34967" lon="6.05674">
        <ele>735</ele>
        <time>2019-04-18T07:12:50Z</time>
      </trkpt>
      <trkpt lat="46.34965" lon="6.05663">
        <ele>736</ele>
        <time>2019-04-18T07:13:50Z</time>
      </trkpt>
      <trkpt lat="46.34964" lon="6.0565">
        <ele>737</ele>
        <time>2019-04-18T07:14:50Z</time>
      </trkpt>
      <trkpt lat="46.3497" lon="6.05636">
        <ele>739</ele>
        <time>2019-04-18T07:15:50Z</time>
      </trkpt>
      <trkpt lat="46.34985" lon="6.05587">
        <ele>745</ele>
        <time>2019-04-18T07:16:50Z</time>
      </trkpt>
      <trkpt lat="46.34982" lon="6.05575">
        <ele>745</ele>
        <time>2019-04-18T07:17:50Z</time>
      </trkpt>
      <trkpt lat="46.34975" lon="6.05559">
        <ele>746</ele>
        <time>2019-04-18T07:18:50Z</time>
      </trkpt>
      <trkpt lat="46.34969" lon="6.05552">
        <ele>746</ele>
        <time>2019-04-18T07:19:50Z</time>
      </trkpt>
      <trkpt lat="46.3496" lon="6.05548">
        <ele>745</ele>
        <time>2019-04-18T07:20:50Z</time>
      </trkpt>
      <trkpt lat="46.34945" lon="6.05549">
        <ele>743</ele>
        <time>2019-04-18T07:21:50Z</time>
      </trkpt>
      <trkpt lat="46.34931" lon="6.05553">
        <ele>741</ele>
        <time>2019-04-18T07:22:50Z</time>
      </trkpt>
      <trkpt lat="46.34903" lon="6.05579">
        <ele>734</ele>
        <time>2019-04-18T07:23:50Z</time>
      </trkpt>
      <trkpt lat="46.34879" lon="6.05596">
        <ele>730</ele>
        <time>2019-04-18T07:24:50Z</time>
      </trkpt>
      <trkpt lat="46.34863" lon="6.05605">
        <ele>728</ele>
        <time>2019-04-18T07:25:50Z</time>
      </trkpt>
      <trkpt lat="46.34851" lon="6.05607">
        <ele>727</ele>
        <time>2019-04-18T07:26:50Z</time>
      </trkpt>
      <trkpt lat="46.3484" lon="6.05604">
        <ele>726</ele>
        <time>2019-04-18T07:27:50Z</time>
      </trkpt>
      <trkpt lat="46.34806" lon="6.05578">
        <ele>723</ele>
        <time>2019-04-18T07:28:50Z</time>
      </trkpt>
      <trkpt lat="46.34766" lon="6.05555">
        <ele>718</ele>
        <time>2019-04-18T07:29:50Z</time>
      </trkpt>
      <trkpt lat="46.34737" lon="6.05542">
        <ele>716</ele>
        <time>2019-04-18T07:30:50Z</time>
      </trkpt>
      <trkpt lat="46.34699" lon="6.05528">
        <ele>714</ele>
        <time>2019-04-18T07:31:50Z</time>
      </trkpt>
      <trkpt lat="46.34657" lon="6.05508">
        <ele>714</ele>
        <time>2019-04-18T07:32:50Z</time>
      </trkpt>
      <trkpt lat="46.34644" lon="6.05508">
        <ele>713</ele>
        <time>2019-04-18T07:33:50Z</time>
      </trkpt>
      <trkpt lat="46.34532" lon="6.05533">
        <ele>704</ele>
        <time>2019-04-18T07:34:50Z</time>
      </trkpt>
      <trkpt lat="46.34517" lon="6.05545">
        <ele>702</ele>
        <time>2019-04-18T07:35:50Z</time>
      </trkpt>
      <trkpt lat="46.3448" lon="6.05582">
        <ele>698</ele>
        <time>2019-04-18T07:36:50Z</time>
      </trkpt>
      <trkpt lat="46.34464" lon="6.05596">
        <ele>696</ele>
        <time>2019-04-18T07:37:50Z</time>
      </trkpt>
      <trkpt lat="46.34423" lon="6.05612">
        <ele>695</ele>
        <time>2019-04-18T07:38:50Z</time>
      </trkpt>
      <trkpt lat="46.34407" lon="6.05615">
        <ele>694</ele>
        <time>2019-04-18T07:39:50Z</time>
      </trkpt>
      <trkpt lat="46.3439" lon="6.05614">
        <ele>693</ele>
        <time>2019-04-18T07:40:50Z</time>
      </trkpt>
      <trkpt lat="46.34353" lon="6.05602">
        <ele>692</ele>
        <time>2019-04-18T07:41:50Z</time>
      </trkpt>
      <trkpt lat="46.34338" lon="6.056">
        <ele>692</ele>
        <time>2019-04-18T07:42:50Z</time>
      </trkpt>
      <trkpt lat="46.34324" lon="6.05605">
        <ele>691</ele>
        <time>2019-04-18T07:43:50Z</time>
      </trkpt>
      <trkpt lat="46.34309" lon="6.05614">
        <ele>690</ele>
        <time>2019-04-18T07:44:50Z</time>
      </trkpt>
      <trkpt lat="46.34296" lon="6.05633">
        <ele>688</ele>
        <time>2019-04-18T07:45:50Z</time>
      </trkpt>
      <trkpt lat="46.34276" lon="6.05683">
        <ele>682</ele>
        <time>2019-04-18T07:46:50Z</time>
      </trkpt>
      <trkpt lat="46.34264" lon="6.05704">
        <ele>680</ele>
        <time>2019-04-18T07:47:50Z</time>
      </trkpt>
      <trkpt lat="46.34251" lon="6.05714">
        <ele>678</ele>
        <time>2019-04-18T07:48:50Z</time>
      </trkpt>
      <trkpt lat="46.34239" lon="6.05718">
        <ele>677</ele>
        <time>2019-04-18T07:49:50Z</time>
      </trkpt>
      <trkpt lat="46.34227" lon="6.05718">
        <ele>676</ele>
        <time>2019-04-18T07:50:50Z</time>
      </trkpt>
      <trkpt lat="46.34214" lon="6.05715">
        <ele>675</ele>
        <time>2019-04-18T07:51:50Z</time>
      </trkpt>
      <trkpt lat="46.34176" lon="6.05694">
        <ele>675</ele>
        <time>2019-04-18T07:52:50Z</time>
      </trkpt>
      <trkpt lat="46.34149" lon="6.05674">
        <ele>677</ele>
        <time>2019-04-18T07:53:50Z</time>
      </trkpt>
      <trkpt lat="46.34134" lon="6.05667">
        <ele>677</ele>
        <time>2019-04-18T07:54:50Z</time>
      </trkpt>
      <trkpt lat="46.34111" lon="6.05659">
        <ele>676</ele>
        <time>2019-04-18T07:55:50Z</time>
      </trkpt>
      <trkpt lat="46.34102" lon="6.0566">
        <ele>675</ele>
        <time>2019-04-18T07:56:50Z</time>
      </trkpt>
      <trkpt lat="46.34101" lon="6.05654">
        <ele>675</ele>
        <time>2019-04-18T07:57:50Z</time>
      </trkpt>
      <trkpt lat="46.34096" lon="6.05645">
        <ele>675</ele>
        <time>2019-04-18T07:58:50Z</time>
      </trkpt>
      <trkpt lat="46.34088" lon="6.05642">
        <ele>675</ele>
        <time>2019-04-18T07:59:50Z</time>
      </trkpt>
      <trkpt lat="46.34084" lon="6.05643">
        <ele>674</ele>
        <time>2019-04-18T08:00:50Z</time>
      </trkpt>
      <trkpt lat="46.3408" lon="6.05646">
        <ele>674</ele>
        <time>2019-04-18T08:01:50Z</time>
      </trkpt>
      <trkpt lat="46.34075" lon="6.05658">
        <ele>673</ele>
        <time>2019-04-18T08:02:50Z</time>
      </trkpt>
      <trkpt lat="46.34077" lon="6.05671">
        <ele>672</ele>
        <time>2019-04-18T08:03:50Z</time>
      </trkpt>
      <trkpt lat="46.3403" lon="6.05705">
        <ele>668</ele>
        <time>2019-04-18T08:04:50Z</time>
      </trkpt>
      <trkpt lat="46.3394" lon="6.05781">
        <ele>662</ele>
        <time>2019-04-18T08:05:50Z</time>
      </trkpt>
      <trkpt lat="46.33923" lon="6.05793">
        <ele>661</ele>
        <time>2019-04-18T08:06:50Z</time>
      </trkpt>
      <trkpt lat="46.33909" lon="6.05797">
        <ele>660</ele>
        <time>2019-04-18T08:07:50Z</time>
      </trkpt>
      <trkpt lat="46.33892" lon="6.05797">
        <ele>659</ele>
        <time>2019-04-18T08:08:50Z</time>
      </trkpt>
      <trkpt lat="46.33864" lon="6.05788">
        <ele>657</ele>
        <time>2019-04-18T08:09:50Z</time>
      </trkpt>
      <trkpt lat="46.33837" lon="6.05769">
        <ele>655</ele>
        <time>2019-04-18T08:10:50Z</time>
      </trkpt>
      <trkpt lat="46.3382" lon="6.05753">
        <ele>654</ele>
        <time>2019-04-18T08:11:50Z</time>
      </trkpt>
      <trkpt lat="46.33791" lon="6.05715">
        <ele>653</ele>
        <time>2019-04-18T08:12:50Z</time>
      </trkpt>
      <trkpt lat="46.33751" lon="6.05659">
        <ele>649</ele>
        <time>2019-04-18T08:13:50Z</time>
      </trkpt>
      <trkpt lat="46.33739" lon="6.05651">
        <ele>648</ele>
        <time>2019-04-18T08:14:50Z</time>
      </trkpt>
      <trkpt lat="46.33715" lon="6.05641">
        <ele>647</ele>
        <time>2019-04-18T08:15:50Z</time>
      </trkpt>
      <trkpt lat="46.33707" lon="6.05642">
        <ele>647</ele>
        <time>2019-04-18T08:16:50Z</time>
      </trkpt>
      <trkpt lat="46.33696" lon="6.05647">
        <ele>648</ele>
        <time>2019-04-18T08:17:50Z</time>
      </trkpt>
      <trkpt lat="46.33601" lon="6.05706">
        <ele>645</ele>
        <time>2019-04-18T08:18:50Z</time>
      </trkpt>
      <trkpt lat="46.33563" lon="6.05724">
        <ele>643</ele>
        <time>2019-04-18T08:19:50Z</time>
      </trkpt>
      <trkpt lat="46.33524" lon="6.05789">
        <ele>638</ele>
        <time>2019-04-18T08:20:50Z</time>
      </trkpt>
      <trkpt lat="46.33515" lon="6.05808">
        <ele>637</ele>
        <time>2019-04-18T08:21:50Z</time>
      </trkpt>
      <trkpt lat="46.33511" lon="6.05829">
        <ele>636</ele>
        <time>2019-04-18T08:22:50Z</time>
      </trkpt>
      <trkpt lat="46.33512" lon="6.05837">
        <ele>636</ele>
        <time>2019-04-18T08:23:50Z</time>
      </trkpt>
      <trkpt lat="46.33522" lon="6.05872">
        <ele>635</ele>
        <time>2019-04-18T08:24:50Z</time>
      </trkpt>
      <trkpt lat="46.33599" lon="6.06118">
        <ele>622</ele>
        <time>2019-04-18T08:25:50Z</time>
      </trkpt>
      <trkpt lat="46.33599" lon="6.06132">
        <ele>621</ele>
        <time>2019-04-18T08:26:50Z</time>
      </trkpt>
      <trkpt lat="46.33597" lon="6.06142">
        <ele>620</ele>
        <time>2019-04-18T08:27:50Z</time>
      </trkpt>
      <trkpt lat="46.33589" lon="6.06152">
        <ele>619</ele>
        <time>2019-04-18T08:28:50Z</time>
      </trkpt>
      <trkpt lat="46.33575" lon="6.06152">
        <ele>617</ele>
        <time>2019-04-18T08:29:50Z</time>
      </trkpt>
      <trkpt lat="46.33569" lon="6.06148">
        <ele>616</ele>
        <time>2019-04-18T08:30:50Z</time>
      </trkpt>
      <trkpt lat="46.33561" lon="6.06139">
        <ele>616</ele>
        <time>2019-04-18T08:31:50Z</time>
      </trkpt>
      <trkpt lat="46.33533" lon="6.06064">
        <ele>619</ele>
        <time>2019-04-18T08:32:50Z</time>
      </trkpt>
      <trkpt lat="46.33524" lon="6.0605">
        <ele>619</ele>
        <time>2019-04-18T08:33:50Z</time>
      </trkpt>
      <trkpt lat="46.33512" lon="6.06037">
        <ele>618</ele>
        <time>2019-04-18T08:34:50Z</time>
      </trkpt>
      <trkpt lat="46.33501" lon="6.06029">
        <ele>617</ele>
        <time>2019-04-18T08:35:50Z</time>
      </trkpt>
      <trkpt lat="46.33401" lon="6.05975">
        <ele>612</ele>
        <time>2019-04-18T08:36:50Z</time>
      </trkpt>
      <trkpt lat="46.33304" lon="6.05975">
        <ele>603</ele>
        <time>2019-04-18T08:37:50Z</time>
      </trkpt>
      <trkpt lat="46.33262" lon="6.05964">
        <ele>601</ele>
        <time>2019-04-18T08:38:50Z</time>
      </trkpt>
      <trkpt lat="46.33228" lon="6.05946">
        <ele>599</ele>
        <time>2019-04-18T08:39:50Z</time>
      </trkpt>
      <trkpt lat="46.33213" lon="6.05933">
        <ele>599</ele>
        <time>2019-04-18T08:40:50Z</time>
      </trkpt>
      <trkpt lat="46.33193" lon="6.05906">
        <ele>598</ele>
        <time>2019-04-18T08:41:50Z</time>
      </trkpt>
      <trkpt lat="46.33189" lon="6.05903">
        <ele>598</ele>
        <time>2019-04-18T08:42:50Z</time>
      </trkpt>
      <trkpt lat="46.3319" lon="6.05896">
        <ele>598</ele>
        <time>2019-04-18T08:43:50Z</time>
      </trkpt>
      <trkpt lat="46.33187" lon="6.05883">
        <ele>598</ele>
        <time>2019-04-18T08:44:50Z</time>
      </trkpt>
      <trkpt lat="46.33184" lon="6.05877">
        <ele>598</ele>
        <time>2019-04-18T08:45:50Z</time>
      </trkpt>
      <trkpt lat="46.33177" lon="6.05872">
        <ele>598</ele>
        <time>2019-04-18T08:46:50Z</time>
      </trkpt>
      <trkpt lat="46.33169" lon="6.05872">
        <ele>598</ele>
        <time>2019-04-18T08:47:50Z</time>
      </trkpt>
      <trkpt lat="46.33162" lon="6.05879">
        <ele>597</ele>
        <time>2019-04-18T08:48:50Z</time>
      </trkpt>
      <trkpt lat="46.33157" lon="6.05891">
        <ele>597</ele>
        <time>2019-04-18T08:49:50Z</time>
      </trkpt>
      <trkpt lat="46.33157" lon="6.05898">
        <ele>597</ele>
        <time>2019-04-18T08:50:50Z</time>
      </trkpt>
      <trkpt lat="46.33161" lon="6.05911">
        <ele>597</ele>
        <time>2019-04-18T08:51:50Z</time>
      </trkpt>
      <trkpt lat="46.3317" lon="6.05918">
        <ele>597</ele>
        <time>2019-04-18T08:52:50Z</time>
      </trkpt>
      <trkpt lat="46.33179" lon="6.05917">
        <ele>598</ele>
        <time>2019-04-18T08:53:50Z</time>
      </trkpt>
      <trkpt lat="46.33186" lon="6.05909">
        <ele>598</ele>
        <time>2019-04-18T08:54:50Z</time>
      </trkpt>
      <trkpt lat="46.33189" lon="6.05903">
        <ele>598</ele>
        <time>2019-04-18T08:55:50Z</time>
      </trkpt>
      <trkpt lat="46.3319" lon="6.05896">
        <ele>598</ele>
        <time>2019-04-18T08:56:50Z</time>
      </trkpt>
      <trkpt lat="46.33187" lon="6.05883">
        <ele>598</ele>
        <time>2019-04-18T08:57:50Z</time>
      </trkpt>
      <trkpt lat="46.33184" lon="6.05877">
        <ele>598</ele>
        <time>2019-04-18T08:58:50Z</time>
      </trkpt>
      <trkpt lat="46.33177" lon="6.05872">
        <ele>598</ele>
        <time>2019-04-18T08:59:50Z</time>
      </trkpt>
      <trkpt lat="46.33173" lon="6.05871">
        <ele>598</ele>
        <time>2019-04-18T09:00:50Z</time>
      </trkpt>
      <trkpt lat="46.33165" lon="6.05874">
        <ele>597</ele>
        <time>2019-04-18T09:01:50Z</time>
      </trkpt>
      <trkpt lat="46.33162" lon="6.05879">
        <ele>597</ele>
        <time>2019-04-18T09:02:50Z</time>
      </trkpt>
      <trkpt lat="46.33157" lon="6.05891">
        <ele>597</ele>
        <time>2019-04-18T09:03:50Z</time>
      </trkpt>
      <trkpt lat="46.33159" lon="6.05905">
        <ele>597</ele>
        <time>2019-04-18T09:04:50Z</time>
      </trkpt>
      <trkpt lat="46.33161" lon="6.05911">
        <ele>597</ele>
        <time>2019-04-18T09:05:50Z</time>
      </trkpt>
      <trkpt lat="46.3317" lon="6.05918">
        <ele>597</ele>
        <time>2019-04-18T09:06:50Z</time>
      </trkpt>
      <trkpt lat="46.33174" lon="6.05918">
        <ele>597</ele>
        <time>2019-04-18T09:07:50Z</time>
      </trkpt>
      <trkpt lat="46.33176" lon="6.05933">
        <ele>597</ele>
        <time>2019-04-18T09:08:50Z</time>
      </trkpt>
      <trkpt lat="46.33303" lon="6.062">
        <ele>591</ele>
        <time>2019-04-18T09:09:50Z</time>
      </trkpt>
      <trkpt lat="46.33311" lon="6.06198">
        <ele>592</ele>
        <time>2019-04-18T09:10:50Z</time>
      </trkpt>
      <trkpt lat="46.33322" lon="6.06206">
        <ele>592</ele>
        <time>2019-04-18T09:11:50Z</time>
      </trkpt>
      <trkpt lat="46.33329" lon="6.06221">
        <ele>592</ele>
        <time>2019-04-18T09:12:50Z</time>
      </trkpt>
      <trkpt lat="46.33338" lon="6.06236">
        <ele>592</ele>
        <time>2019-04-18T09:13:50Z</time>
      </trkpt>
      <trkpt lat="46.33367" lon="6.06275">
        <ele>592</ele>
        <time>2019-04-18T09:14:50Z</time>
      </trkpt>
      <trkpt lat="46.33406" lon="6.06351">
        <ele>592</ele>
        <time>2019-04-18T09:15:50Z</time>
      </trkpt>
      <trkpt lat="46.33448" lon="6.06445">
        <ele>590</ele>
        <time>2019-04-18T09:16:50Z</time>
      </trkpt>
      <trkpt lat="46.33453" lon="6.06449">
        <ele>590</ele>
        <time>2019-04-18T09:17:50Z</time>
      </trkpt>
      <trkpt lat="46.33459" lon="6.06461">
        <ele>590</ele>
        <time>2019-04-18T09:18:50Z</time>
      </trkpt>
      <trkpt lat="46.3346" lon="6.06468">
        <ele>590</ele>
        <time>2019-04-18T09:19:50Z</time>
      </trkpt>
      <trkpt lat="46.33567" lon="6.06727">
        <ele>589</ele>
        <time>2019-04-18T09:20:50Z</time>
      </trkpt>
      <trkpt lat="46.33566" lon="6.06733">
        <ele>589</ele>
        <time>2019-04-18T09:21:50Z</time>
      </trkpt>
      <trkpt lat="46.33572" lon="6.06736">
        <ele>589</ele>
        <time>2019-04-18T09:22:50Z</time>
      </trkpt>
      <trkpt lat="46.33682" lon="6.0699">
        <ele>592</ele>
        <time>2019-04-18T09:23:50Z</time>
      </trkpt>
      <trkpt lat="46.33681" lon="6.07001">
        <ele>591</ele>
        <time>2019-04-18T09:24:50Z</time>
      </trkpt>
      <trkpt lat="46.33689" lon="6.07003">
        <ele>592</ele>
        <time>2019-04-18T09:25:50Z</time>
      </trkpt>
      <trkpt lat="46.33749" lon="6.07162">
        <ele>593</ele>
        <time>2019-04-18T09:26:50Z</time>
      </trkpt>
      <trkpt lat="46.33748" lon="6.07171">
        <ele>593</ele>
        <time>2019-04-18T09:27:50Z</time>
      </trkpt>
      <trkpt lat="46.33752" lon="6.07171">
        <ele>593</ele>
        <time>2019-04-18T09:28:50Z</time>
      </trkpt>
      <trkpt lat="46.33774" lon="6.07233">
        <ele>593</ele>
        <time>2019-04-18T09:29:50Z</time>
      </trkpt>
      <trkpt lat="46.33773" lon="6.07237">
        <ele>593</ele>
        <time>2019-04-18T09:30:50Z</time>
      </trkpt>
      <trkpt lat="46.33808" lon="6.07346">
        <ele>593</ele>
        <time>2019-04-18T09:31:50Z</time>
      </trkpt>
      <trkpt lat="46.33805" lon="6.07351">
        <ele>593</ele>
        <time>2019-04-18T09:32:50Z</time>
      </trkpt>
      <trkpt lat="46.33801" lon="6.07363">
        <ele>592</ele>
        <time>2019-04-18T09:33:50Z</time>
      </trkpt>
      <trkpt lat="46.33803" lon="6.07377">
        <ele>592</ele>
        <time>2019-04-18T09:34:50Z</time>
      </trkpt>
      <trkpt lat="46.33805" lon="6.07382">
        <ele>592</ele>
        <time>2019-04-18T09:35:50Z</time>
      </trkpt>
      <trkpt lat="46.33813" lon="6.0739">
        <ele>592</ele>
        <time>2019-04-18T09:36:50Z</time>
      </trkpt>
      <trkpt lat="46.33822" lon="6.07391">
        <ele>592</ele>
        <time>2019-04-18T09:37:50Z</time>
      </trkpt>
      <trkpt lat="46.33865" lon="6.07771">
        <ele>589</ele>
        <time>2019-04-18T09:38:50Z</time>
      </trkpt>
      <trkpt lat="46.33888" lon="6.07989">
        <ele>590</ele>
        <time>2019-04-18T09:39:50Z</time>
      </trkpt>
      <trkpt lat="46.3391" lon="6.08112">
        <ele>589</ele>
        <time>2019-04-18T09:40:50Z</time>
      </trkpt>
      <trkpt lat="46.33926" lon="6.08175">
        <ele>587</ele>
        <time>2019-04-18T09:41:50Z</time>
      </trkpt>
      <trkpt lat="46.33949" lon="6.08256">
        <ele>586</ele>
        <time>2019-04-18T09:42:50Z</time>
      </trkpt>
      <trkpt lat="46.34239" lon="6.09134">
        <ele>608</ele>
        <time>2019-04-18T09:43:50Z</time>
      </trkpt>
      <trkpt lat="46.34281" lon="6.09251">
        <ele>608</ele>
        <time>2019-04-18T09:44:50Z</time>
      </trkpt>
      <trkpt lat="46.34389" lon="6.09505">
        <ele>613</ele>
        <time>2019-04-18T09:45:50Z</time>
      </trkpt>
      <trkpt lat="46.3462" lon="6.10029">
        <ele>611</ele>
        <time>2019-04-18T09:46:50Z</time>
      </trkpt>
      <trkpt lat="46.34688" lon="6.10154">
        <ele>617</ele>
        <time>2019-04-18T09:47:50Z</time>
      </trkpt>
      <trkpt lat="46.34736" lon="6.10222">
        <ele>620</ele>
        <time>2019-04-18T09:48:50Z</time>
      </trkpt>
      <trkpt lat="46.34834" lon="6.10349">
        <ele>624</ele>
        <time>2019-04-18T09:49:50Z</time>
      </trkpt>
      <trkpt lat="46.34964" lon="6.10536">
        <ele>627</ele>
        <time>2019-04-18T09:50:50Z</time>
      </trkpt>
      <trkpt lat="46.35006" lon="6.10607">
        <ele>626</ele>
        <time>2019-04-18T09:51:50Z</time>
      </trkpt>
      <trkpt lat="46.35038" lon="6.10671">
        <ele>625</ele>
        <time>2019-04-18T09:52:50Z</time>
      </trkpt>
      <trkpt lat="46.35231" lon="6.11073">
        <ele>619</ele>
        <time>2019-04-18T09:53:50Z</time>
      </trkpt>
      <trkpt lat="46.35252" lon="6.11108">
        <ele>621</ele>
        <time>2019-04-18T09:54:50Z</time>
      </trkpt>
      <trkpt lat="46.35282" lon="6.1115">
        <ele>622</ele>
        <time>2019-04-18T09:55:50Z</time>
      </trkpt>
      <trkpt lat="46.35402" lon="6.11291">
        <ele>624</ele>
        <time>2019-04-18T09:56:50Z</time>
      </trkpt>
      <trkpt lat="46.35517" lon="6.11399">
        <ele>614</ele>
        <time>2019-04-18T09:57:50Z</time>
      </trkpt>
      <trkpt lat="46.35579" lon="6.11448">
        <ele>610</ele>
        <time>2019-04-18T09:58:50Z</time>
      </trkpt>
      <trkpt lat="46.35634" lon="6.11486">
        <ele>607</ele>
        <time>2019-04-18T09:59:50Z</time>
      </trkpt>
      <trkpt lat="46.35699" lon="6.11528">
        <ele>601</ele>
        <time>2019-04-18T10:00:50Z</time>
      </trkpt>
      <trkpt lat="46.35812" lon="6.11591">
        <ele>587</ele>
        <time>2019-04-18T10:01:50Z</time>
      </trkpt>
      <trkpt lat="46.35852" lon="6.11624">
        <ele>584</ele>
        <time>2019-04-18T10:02:50Z</time>
      </trkpt>
      <trkpt lat="46.35872" lon="6.11645">
        <ele>583</ele>
        <time>2019-04-18T10:03:50Z</time>
      </trkpt>
      <trkpt lat="46.3591" lon="6.11693">
        <ele>580</ele>
        <time>2019-04-18T10:04:50Z</time>
      </trkpt>
      <trkpt lat="46.35926" lon="6.11721">
        <ele>580</ele>
        <time>2019-04-18T10:05:50Z</time>
      </trkpt>
      <trkpt lat="46.35956" lon="6.11785">
        <ele>577</ele>
        <time>2019-04-18T10:06:50Z</time>
      </trkpt>
      <trkpt lat="46.35967" lon="6.11818">
        <ele>576</ele>
        <time>2019-04-18T10:07:50Z</time>
      </trkpt>
      <trkpt lat="46.3598" lon="6.11864">
        <ele>572</ele>
        <time>2019-04-18T10:08:50Z</time>
      </trkpt>
      <trkpt lat="46.35986" lon="6.11894">
        <ele>570</ele>
        <time>2019-04-18T10:09:50Z</time>
      </trkpt>
      <trkpt lat="46.35995" lon="6.11954">
        <ele>566</ele>
        <time>2019-04-18T10:10:50Z</time>
      </trkpt>
      <trkpt lat="46.35998" lon="6.11993">
        <ele>566</ele>
        <time>2019-04-18T10:11:50Z</time>
      </trkpt>
      <trkpt lat="46.35999" lon="6.12059">
        <ele>563</ele>
        <time>2019-04-18T10:12:50Z</time>
      </trkpt>
      <trkpt lat="46.35999" lon="6.12118">
        <ele>558</ele>
        <time>2019-04-18T10:13:50Z</time>
      </trkpt>
      <trkpt lat="46.35995" lon="6.12166">
        <ele>555</ele>
        <time>2019-04-18T10:14:50Z</time>
      </trkpt>
      <trkpt lat="46.35988" lon="6.12229">
        <ele>553</ele>
        <time>2019-04-18T10:15:50Z</time>
      </trkpt>
      <trkpt lat="46.3598" lon="6.12276">
        <ele>552</ele>
        <time>2019-04-18T10:16:50Z</time>
      </trkpt>
      <trkpt lat="46.3593" lon="6.12524">
        <ele>544</ele>
        <time>2019-04-18T10:17:50Z</time>
      </trkpt>
      <trkpt lat="46.35897" lon="6.12678">
        <ele>542</ele>
        <time>2019-04-18T10:18:50Z</time>
      </trkpt>
      <trkpt lat="46.35861" lon="6.12893">
        <ele>544</ele>
        <time>2019-04-18T10:19:50Z</time>
      </trkpt>
      <trkpt lat="46.35859" lon="6.12912">
        <ele>543</ele>
        <time>2019-04-18T10:20:50Z</time>
      </trkpt>
      <trkpt lat="46.3586" lon="6.12935">
        <ele>541</ele>
        <time>2019-04-18T10:21:50Z</time>
      </trkpt>
      <trkpt lat="46.35863" lon="6.12988">
        <ele>536</ele>
        <time>2019-04-18T10:22:50Z</time>
      </trkpt>
      <trkpt lat="46.35867" lon="6.13018">
        <ele>532</ele>
        <time>2019-04-18T10:23:50Z</time>
      </trkpt>
      <trkpt lat="46.35863" lon="6.13067">
        <ele>525</ele>
        <time>2019-04-18T10:24:50Z</time>
      </trkpt>
      <trkpt lat="46.35852" lon="6.13118">
        <ele>521</ele>
        <time>2019-04-18T10:25:50Z</time>
      </trkpt>
      <trkpt lat="46.35839" lon="6.13153">
        <ele>519</ele>
        <time>2019-04-18T10:26:50Z</time>
      </trkpt>
      <trkpt lat="46.35802" lon="6.13366">
        <ele>510</ele>
        <time>2019-04-18T10:27:50Z</time>
      </trkpt>
    </trkseg>
  </trk>
  <trk>
    <name><![CDATA[J8]]></name>
    <trkseg>
      <trkpt lat="45.9249" lon="6.87175">
        <ele>1036</ele>
        <time>2019-04-17T10:29:42Z</time>
      </trkpt>
      <trkpt lat="45.92525" lon="6.86995">
        <ele>1044</ele>
        <time>2019-04-17T10:30:42Z</time>
      </trkpt>
      <trkpt lat="45.9253" lon="6.86982">
        <ele>1044</ele>
        <time>2019-04-17T10:31:42Z</time>
      </trkpt>
      <trkpt lat="45.92553" lon="6.86854">
        <ele>1047</ele>
        <time>2019-04-17T10:32:42Z</time>
      </trkpt>
      <trkpt lat="45.92554" lon="6.86843">
        <ele>1047</ele>
        <time>2019-04-17T10:33:42Z</time>
      </trkpt>
      <trkpt lat="45.92551" lon="6.86832">
        <ele>1048</ele>
        <time>2019-04-17T10:34:42Z</time>
      </trkpt>
      <trkpt lat="45.92546" lon="6.86824">
        <ele>1049</ele>
        <time>2019-04-17T10:35:42Z</time>
      </trkpt>
      <trkpt lat="45.9254" lon="6.86817">
        <ele>1050</ele>
        <time>2019-04-17T10:36:42Z</time>
      </trkpt>
      <trkpt lat="45.92434" lon="6.86774">
        <ele>1050</ele>
        <time>2019-04-17T10:37:42Z</time>
      </trkpt>
      <trkpt lat="45.92396" lon="6.86761">
        <ele>1049</ele>
        <time>2019-04-17T10:38:42Z</time>
      </trkpt>
      <trkpt lat="45.92378" lon="6.86757">
        <ele>1048</ele>
        <time>2019-04-17T10:39:42Z</time>
      </trkpt>
      <trkpt lat="45.92367" lon="6.86756">
        <ele>1048</ele>
        <time>2019-04-17T10:40:42Z</time>
      </trkpt>
      <trkpt lat="45.92364" lon="6.8675">
        <ele>1048</ele>
        <time>2019-04-17T10:41:42Z</time>
      </trkpt>
      <trkpt lat="45.92357" lon="6.86745">
        <ele>1049</ele>
        <time>2019-04-17T10:42:42Z</time>
      </trkpt>
      <trkpt lat="45.92352" lon="6.86747">
        <ele>1048</ele>
        <time>2019-04-17T10:43:42Z</time>
      </trkpt>
      <trkpt lat="45.92347" lon="6.86757">
        <ele>1048</ele>
        <time>2019-04-17T10:44:42Z</time>
      </trkpt>
      <trkpt lat="45.92341" lon="6.86757">
        <ele>1048</ele>
        <time>2019-04-17T10:45:42Z</time>
      </trkpt>
      <trkpt lat="45.92332" lon="6.86755">
        <ele>1048</ele>
        <time>2019-04-17T10:46:42Z</time>
      </trkpt>
      <trkpt lat="45.92304" lon="6.86733">
        <ele>1049</ele>
        <time>2019-04-17T10:47:42Z</time>
      </trkpt>
      <trkpt lat="45.92295" lon="6.86728">
        <ele>1050</ele>
        <time>2019-04-17T10:48:42Z</time>
      </trkpt>
      <trkpt lat="45.9224" lon="6.86725">
        <ele>1049</ele>
        <time>2019-04-17T10:49:42Z</time>
      </trkpt>
      <trkpt lat="45.92227" lon="6.86722">
        <ele>1049</ele>
        <time>2019-04-17T10:50:42Z</time>
      </trkpt>
      <trkpt lat="45.92205" lon="6.86712">
        <ele>1050</ele>
        <time>2019-04-17T10:51:42Z</time>
      </trkpt>
      <trkpt lat="45.92119" lon="6.86666">
        <ele>1048</ele>
        <time>2019-04-17T10:52:42Z</time>
      </trkpt>
      <trkpt lat="45.92104" lon="6.86653">
        <ele>1046</ele>
        <time>2019-04-17T10:53:42Z</time>
      </trkpt>
      <trkpt lat="45.92094" lon="6.86642">
        <ele>1046</ele>
        <time>2019-04-17T10:54:42Z</time>
      </trkpt>
      <trkpt lat="45.9206" lon="6.86593">
        <ele>1045</ele>
        <time>2019-04-17T10:55:42Z</time>
      </trkpt>
      <trkpt lat="45.92032" lon="6.86566">
        <ele>1045</ele>
        <time>2019-04-17T10:56:42Z</time>
      </trkpt>
      <trkpt lat="45.92015" lon="6.86553">
        <ele>1045</ele>
        <time>2019-04-17T10:57:42Z</time>
      </trkpt>
      <trkpt lat="45.91994" lon="6.86548">
        <ele>1043</ele>
        <time>2019-04-17T10:58:42Z</time>
      </trkpt>
      <trkpt lat="45.91921" lon="6.86537">
        <ele>1037</ele>
        <time>2019-04-17T10:59:42Z</time>
      </trkpt>
      <trkpt lat="45.91918" lon="6.86527">
        <ele>1037</ele>
        <time>2019-04-17T11:00:42Z</time>
      </trkpt>
      <trkpt lat="45.91913" lon="6.86522">
        <ele>1037</ele>
        <time>2019-04-17T11:01:42Z</time>
      </trkpt>
      <trkpt lat="45.91906" lon="6.86523">
        <ele>1036</ele>
        <time>2019-04-17T11:02:42Z</time>
      </trkpt>
      <trkpt lat="45.91903" lon="6.86525">
        <ele>1036</ele>
        <time>2019-04-17T11:03:42Z</time>
      </trkpt>
      <trkpt lat="45.91894" lon="6.86502">
        <ele>1036</ele>
        <time>2019-04-17T11:04:42Z</time>
      </trkpt>
      <trkpt lat="45.91839" lon="6.86422">
        <ele>1035</ele>
        <time>2019-04-17T11:05:42Z</time>
      </trkpt>
      <trkpt lat="45.91807" lon="6.86356">
        <ele>1035</ele>
        <time>2019-04-17T11:06:42Z</time>
      </trkpt>
      <trkpt lat="45.91786" lon="6.86298">
        <ele>1035</ele>
        <time>2019-04-17T11:07:42Z</time>
      </trkpt>
      <trkpt lat="45.91758" lon="6.86204">
        <ele>1034</ele>
        <time>2019-04-17T11:08:42Z</time>
      </trkpt>
      <trkpt lat="45.91724" lon="6.86102">
        <ele>1037</ele>
        <time>2019-04-17T11:09:42Z</time>
      </trkpt>
      <trkpt lat="45.91651" lon="6.85808">
        <ele>1031</ele>
        <time>2019-04-17T11:10:42Z</time>
      </trkpt>
      <trkpt lat="45.91616" lon="6.85636">
        <ele>1031</ele>
        <time>2019-04-17T11:11:42Z</time>
      </trkpt>
      <trkpt lat="45.9161" lon="6.85583">
        <ele>1032</ele>
        <time>2019-04-17T11:12:42Z</time>
      </trkpt>
      <trkpt lat="45.91609" lon="6.85532">
        <ele>1030</ele>
        <time>2019-04-17T11:13:42Z</time>
      </trkpt>
      <trkpt lat="45.91615" lon="6.85489">
        <ele>1030</ele>
        <time>2019-04-17T11:14:42Z</time>
      </trkpt>
      <trkpt lat="45.91621" lon="6.8541">
        <ele>1029</ele>
        <time>2019-04-17T11:15:42Z</time>
      </trkpt>
      <trkpt lat="45.91618" lon="6.85346">
        <ele>1032</ele>
        <time>2019-04-17T11:16:42Z</time>
      </trkpt>
      <trkpt lat="45.91608" lon="6.85251">
        <ele>1030</ele>
        <time>2019-04-17T11:17:42Z</time>
      </trkpt>
      <trkpt lat="45.91607" lon="6.85195">
        <ele>1028</ele>
        <time>2019-04-17T11:18:42Z</time>
      </trkpt>
      <trkpt lat="45.91611" lon="6.85157">
        <ele>1027</ele>
        <time>2019-04-17T11:19:42Z</time>
      </trkpt>
      <trkpt lat="45.91608" lon="6.85111">
        <ele>1024</ele>
        <time>2019-04-17T11:20:42Z</time>
      </trkpt>
      <trkpt lat="45.91603" lon="6.85072">
        <ele>1024</ele>
        <time>2019-04-17T11:21:42Z</time>
      </trkpt>
      <trkpt lat="45.91589" lon="6.85005">
        <ele>1027</ele>
        <time>2019-04-17T11:22:42Z</time>
      </trkpt>
      <trkpt lat="45.91578" lon="6.84965">
        <ele>1031</ele>
        <time>2019-04-17T11:23:42Z</time>
      </trkpt>
      <trkpt lat="45.91568" lon="6.84935">
        <ele>1034</ele>
        <time>2019-04-17T11:24:42Z</time>
      </trkpt>
      <trkpt lat="45.91552" lon="6.84912">
        <ele>1034</ele>
        <time>2019-04-17T11:25:42Z</time>
      </trkpt>
      <trkpt lat="45.91533" lon="6.84891">
        <ele>1031</ele>
        <time>2019-04-17T11:26:42Z</time>
      </trkpt>
      <trkpt lat="45.91238" lon="6.84619">
        <ele>1020</ele>
        <time>2019-04-17T11:27:42Z</time>
      </trkpt>
      <trkpt lat="45.91201" lon="6.8459">
        <ele>1020</ele>
        <time>2019-04-17T11:28:42Z</time>
      </trkpt>
      <trkpt lat="45.91139" lon="6.84524">
        <ele>1028</ele>
        <time>2019-04-17T11:29:42Z</time>
      </trkpt>
      <trkpt lat="45.91097" lon="6.84458">
        <ele>1031</ele>
        <time>2019-04-17T11:30:42Z</time>
      </trkpt>
      <trkpt lat="45.91087" lon="6.84446">
        <ele>1031</ele>
        <time>2019-04-17T11:31:42Z</time>
      </trkpt>
      <trkpt lat="45.91076" lon="6.84438">
        <ele>1030</ele>
        <time>2019-04-17T11:32:42Z</time>
      </trkpt>
      <trkpt lat="45.91047" lon="6.84423">
        <ele>1027</ele>
        <time>2019-04-17T11:33:42Z</time>
      </trkpt>
      <trkpt lat="45.91034" lon="6.84412">
        <ele>1025</ele>
        <time>2019-04-17T11:34:42Z</time>
      </trkpt>
      <trkpt lat="45.9101" lon="6.84375">
        <ele>1025</ele>
        <time>2019-04-17T11:35:42Z</time>
      </trkpt>
      <trkpt lat="45.90994" lon="6.84355">
        <ele>1024</ele>
        <time>2019-04-17T11:36:42Z</time>
      </trkpt>
      <trkpt lat="45.90983" lon="6.84348">
        <ele>1024</ele>
        <time>2019-04-17T11:37:42Z</time>
      </trkpt>
      <trkpt lat="45.90975" lon="6.84347">
        <ele>1023</ele>
        <time>2019-04-17T11:38:42Z</time>
      </trkpt>
      <trkpt lat="45.90945" lon="6.84356">
        <ele>1020</ele>
        <time>2019-04-17T11:39:42Z</time>
      </trkpt>
      <trkpt lat="45.9093" lon="6.84358">
        <ele>1019</ele>
        <time>2019-04-17T11:40:42Z</time>
      </trkpt>
      <trkpt lat="45.90911" lon="6.84354">
        <ele>1019</ele>
        <time>2019-04-17T11:41:42Z</time>
      </trkpt>
      <trkpt lat="45.90902" lon="6.84349">
        <ele>1019</ele>
        <time>2019-04-17T11:42:42Z</time>
      </trkpt>
      <trkpt lat="45.90874" lon="6.84312">
        <ele>1021</ele>
        <time>2019-04-17T11:43:42Z</time>
      </trkpt>
      <trkpt lat="45.90788" lon="6.84174">
        <ele>1021</ele>
        <time>2019-04-17T11:44:42Z</time>
      </trkpt>
      <trkpt lat="45.90744" lon="6.84108">
        <ele>1022</ele>
        <time>2019-04-17T11:45:42Z</time>
      </trkpt>
      <trkpt lat="45.90611" lon="6.83886">
        <ele>1016</ele>
        <time>2019-04-17T11:46:42Z</time>
      </trkpt>
      <trkpt lat="45.90449" lon="6.83542">
        <ele>1011</ele>
        <time>2019-04-17T11:47:42Z</time>
      </trkpt>
      <trkpt lat="45.90415" lon="6.83477">
        <ele>1009</ele>
        <time>2019-04-17T11:48:42Z</time>
      </trkpt>
      <trkpt lat="45.90417" lon="6.83474">
        <ele>1009</ele>
        <time>2019-04-17T11:49:42Z</time>
      </trkpt>
      <trkpt lat="45.90417" lon="6.83464">
        <ele>1008</ele>
        <time>2019-04-17T11:50:42Z</time>
      </trkpt>
      <trkpt lat="45.90416" lon="6.8346">
        <ele>1008</ele>
        <time>2019-04-17T11:51:42Z</time>
      </trkpt>
      <trkpt lat="45.90411" lon="6.83457">
        <ele>1008</ele>
        <time>2019-04-17T11:52:42Z</time>
      </trkpt>
      <trkpt lat="45.90408" lon="6.83457">
        <ele>1008</ele>
        <time>2019-04-17T11:53:42Z</time>
      </trkpt>
      <trkpt lat="45.90399" lon="6.8343">
        <ele>1007</ele>
        <time>2019-04-17T11:54:42Z</time>
      </trkpt>
      <trkpt lat="45.90322" lon="6.83235">
        <ele>1005</ele>
        <time>2019-04-17T11:55:42Z</time>
      </trkpt>
      <trkpt lat="45.90216" lon="6.8299">
        <ele>1006</ele>
        <time>2019-04-17T11:56:42Z</time>
      </trkpt>
      <trkpt lat="45.90207" lon="6.82974">
        <ele>1006</ele>
        <time>2019-04-17T11:57:42Z</time>
      </trkpt>
      <trkpt lat="45.90191" lon="6.82953">
        <ele>1006</ele>
        <time>2019-04-17T11:58:42Z</time>
      </trkpt>
      <trkpt lat="45.90167" lon="6.82931">
        <ele>1006</ele>
        <time>2019-04-17T11:59:42Z</time>
      </trkpt>
      <trkpt lat="45.90089" lon="6.82884">
        <ele>1005</ele>
        <time>2019-04-17T12:00:42Z</time>
      </trkpt>
      <trkpt lat="45.90062" lon="6.82864">
        <ele>1005</ele>
        <time>2019-04-17T12:01:42Z</time>
      </trkpt>
      <trkpt lat="45.90033" lon="6.82835">
        <ele>1005</ele>
        <time>2019-04-17T12:02:42Z</time>
      </trkpt>
      <trkpt lat="45.90006" lon="6.82795">
        <ele>1006</ele>
        <time>2019-04-17T12:03:42Z</time>
      </trkpt>
      <trkpt lat="45.89979" lon="6.82742">
        <ele>1008</ele>
        <time>2019-04-17T12:04:42Z</time>
      </trkpt>
      <trkpt lat="45.89928" lon="6.82623">
        <ele>1006</ele>
        <time>2019-04-17T12:05:42Z</time>
      </trkpt>
      <trkpt lat="45.89856" lon="6.82497">
        <ele>1006</ele>
        <time>2019-04-17T12:06:42Z</time>
      </trkpt>
      <trkpt lat="45.89844" lon="6.82472">
        <ele>1006</ele>
        <time>2019-04-17T12:07:42Z</time>
      </trkpt>
      <trkpt lat="45.89835" lon="6.82451">
        <ele>1006</ele>
        <time>2019-04-17T12:08:42Z</time>
      </trkpt>
      <trkpt lat="45.89756" lon="6.8223">
        <ele>1006</ele>
        <time>2019-04-17T12:09:42Z</time>
      </trkpt>
      <trkpt lat="45.8973" lon="6.8217">
        <ele>1006</ele>
        <time>2019-04-17T12:10:42Z</time>
      </trkpt>
      <trkpt lat="45.89733" lon="6.82165">
        <ele>1005</ele>
        <time>2019-04-17T12:11:42Z</time>
      </trkpt>
      <trkpt lat="45.89734" lon="6.82151">
        <ele>1005</ele>
        <time>2019-04-17T12:12:42Z</time>
      </trkpt>
      <trkpt lat="45.89732" lon="6.82143">
        <ele>1005</ele>
        <time>2019-04-17T12:13:42Z</time>
      </trkpt>
      <trkpt lat="45.89728" lon="6.82139">
        <ele>1005</ele>
        <time>2019-04-17T12:14:42Z</time>
      </trkpt>
      <trkpt lat="45.89721" lon="6.82136">
        <ele>1005</ele>
        <time>2019-04-17T12:15:42Z</time>
      </trkpt>
      <trkpt lat="45.89714" lon="6.82092">
        <ele>1005</ele>
        <time>2019-04-17T12:16:42Z</time>
      </trkpt>
      <trkpt lat="45.89706" lon="6.82011">
        <ele>1006</ele>
        <time>2019-04-17T12:17:42Z</time>
      </trkpt>
      <trkpt lat="45.89708" lon="6.81968">
        <ele>1007</ele>
        <time>2019-04-17T12:18:42Z</time>
      </trkpt>
      <trkpt lat="45.89713" lon="6.81927">
        <ele>1007</ele>
        <time>2019-04-17T12:19:42Z</time>
      </trkpt>
      <trkpt lat="45.89749" lon="6.8175">
        <ele>1002</ele>
        <time>2019-04-17T12:20:42Z</time>
      </trkpt>
      <trkpt lat="45.89749" lon="6.81713">
        <ele>1003</ele>
        <time>2019-04-17T12:21:42Z</time>
      </trkpt>
      <trkpt lat="45.89748" lon="6.81699">
        <ele>1003</ele>
        <time>2019-04-17T12:22:42Z</time>
      </trkpt>
      <trkpt lat="45.89743" lon="6.81676">
        <ele>1004</ele>
        <time>2019-04-17T12:23:42Z</time>
      </trkpt>
      <trkpt lat="45.8973" lon="6.81636">
        <ele>1004</ele>
        <time>2019-04-17T12:24:42Z</time>
      </trkpt>
      <trkpt lat="45.89722" lon="6.81604">
        <ele>1004</ele>
        <time>2019-04-17T12:25:42Z</time>
      </trkpt>
      <trkpt lat="45.89712" lon="6.8154">
        <ele>1005</ele>
        <time>2019-04-17T12:26:42Z</time>
      </trkpt>
      <trkpt lat="45.89703" lon="6.81457">
        <ele>1005</ele>
        <time>2019-04-17T12:27:42Z</time>
      </trkpt>
      <trkpt lat="45.89698" lon="6.81403">
        <ele>1006</ele>
        <time>2019-04-17T12:28:42Z</time>
      </trkpt>
      <trkpt lat="45.89705" lon="6.81263">
        <ele>1003</ele>
        <time>2019-04-17T12:29:42Z</time>
      </trkpt>
      <trkpt lat="45.89703" lon="6.81216">
        <ele>1002</ele>
        <time>2019-04-17T12:30:42Z</time>
      </trkpt>
      <trkpt lat="45.89693" lon="6.81158">
        <ele>1000</ele>
        <time>2019-04-17T12:31:42Z</time>
      </trkpt>
      <trkpt lat="45.89681" lon="6.81117">
        <ele>999</ele>
        <time>2019-04-17T12:32:42Z</time>
      </trkpt>
      <trkpt lat="45.89667" lon="6.81089">
        <ele>999</ele>
        <time>2019-04-17T12:33:42Z</time>
      </trkpt>
      <trkpt lat="45.89643" lon="6.81052">
        <ele>1001</ele>
        <time>2019-04-17T12:34:42Z</time>
      </trkpt>
      <trkpt lat="45.89627" lon="6.81019">
        <ele>1002</ele>
        <time>2019-04-17T12:35:42Z</time>
      </trkpt>
      <trkpt lat="45.89612" lon="6.8098">
        <ele>1002</ele>
        <time>2019-04-17T12:36:42Z</time>
      </trkpt>
      <trkpt lat="45.89601" lon="6.80938">
        <ele>1001</ele>
        <time>2019-04-17T12:37:42Z</time>
      </trkpt>
      <trkpt lat="45.89597" lon="6.80916">
        <ele>1000</ele>
        <time>2019-04-17T12:38:42Z</time>
      </trkpt>
      <trkpt lat="45.89588" lon="6.80764">
        <ele>998</ele>
        <time>2019-04-17T12:39:42Z</time>
      </trkpt>
      <trkpt lat="45.89582" lon="6.80693">
        <ele>998</ele>
        <time>2019-04-17T12:40:42Z</time>
      </trkpt>
      <trkpt lat="45.89577" lon="6.80571">
        <ele>995</ele>
        <time>2019-04-17T12:41:42Z</time>
      </trkpt>
      <trkpt lat="45.89565" lon="6.80481">
        <ele>996</ele>
        <time>2019-04-17T12:42:42Z</time>
      </trkpt>
      <trkpt lat="45.89567" lon="6.80479">
        <ele>996</ele>
        <time>2019-04-17T12:43:42Z</time>
      </trkpt>
      <trkpt lat="45.89571" lon="6.80471">
        <ele>995</ele>
        <time>2019-04-17T12:44:42Z</time>
      </trkpt>
      <trkpt lat="45.89569" lon="6.80462">
        <ele>995</ele>
        <time>2019-04-17T12:45:42Z</time>
      </trkpt>
      <trkpt lat="45.89564" lon="6.80457">
        <ele>996</ele>
        <time>2019-04-17T12:46:42Z</time>
      </trkpt>
      <trkpt lat="45.8956" lon="6.80458">
        <ele>996</ele>
        <time>2019-04-17T12:47:42Z</time>
      </trkpt>
      <trkpt lat="45.89555" lon="6.80464">
        <ele>997</ele>
        <time>2019-04-17T12:48:42Z</time>
      </trkpt>
      <trkpt lat="45.89551" lon="6.80459">
        <ele>997</ele>
        <time>2019-04-17T12:49:42Z</time>
      </trkpt>
      <trkpt lat="45.89525" lon="6.80385">
        <ele>997</ele>
        <time>2019-04-17T12:50:42Z</time>
      </trkpt>
      <trkpt lat="45.89465" lon="6.80243">
        <ele>996</ele>
        <time>2019-04-17T12:51:42Z</time>
      </trkpt>
      <trkpt lat="45.89445" lon="6.80206">
        <ele>997</ele>
        <time>2019-04-17T12:52:42Z</time>
      </trkpt>
      <trkpt lat="45.89417" lon="6.80162">
        <ele>999</ele>
        <time>2019-04-17T12:53:42Z</time>
      </trkpt>
      <trkpt lat="45.89405" lon="6.80148">
        <ele>999</ele>
        <time>2019-04-17T12:54:42Z</time>
      </trkpt>
      <trkpt lat="45.89324" lon="6.80064">
        <ele>999</ele>
        <time>2019-04-17T12:55:42Z</time>
      </trkpt>
      <trkpt lat="45.89228" lon="6.7998">
        <ele>1004</ele>
        <time>2019-04-17T12:56:42Z</time>
      </trkpt>
      <trkpt lat="45.89195" lon="6.79926">
        <ele>1005</ele>
        <time>2019-04-17T12:57:42Z</time>
      </trkpt>
      <trkpt lat="45.8918" lon="6.79909">
        <ele>1006</ele>
        <time>2019-04-17T12:58:42Z</time>
      </trkpt>
      <trkpt lat="45.89071" lon="6.7987">
        <ele>1010</ele>
        <time>2019-04-17T12:59:42Z</time>
      </trkpt>
      <trkpt lat="45.89037" lon="6.79848">
        <ele>1011</ele>
        <time>2019-04-17T13:00:42Z</time>
      </trkpt>
      <trkpt lat="45.89003" lon="6.79817">
        <ele>1012</ele>
        <time>2019-04-17T13:01:42Z</time>
      </trkpt>
      <trkpt lat="45.88993" lon="6.79806">
        <ele>1012</ele>
        <time>2019-04-17T13:02:42Z</time>
      </trkpt>
      <trkpt lat="45.88957" lon="6.79752">
        <ele>1012</ele>
        <time>2019-04-17T13:03:42Z</time>
      </trkpt>
      <trkpt lat="45.8895" lon="6.79738">
        <ele>1012</ele>
        <time>2019-04-17T13:04:42Z</time>
      </trkpt>
      <trkpt lat="45.8894" lon="6.79702">
        <ele>1011</ele>
        <time>2019-04-17T13:05:42Z</time>
      </trkpt>
      <trkpt lat="45.88923" lon="6.79518">
        <ele>1021</ele>
        <time>2019-04-17T13:06:42Z</time>
      </trkpt>
      <trkpt lat="45.88935" lon="6.79413">
        <ele>1019</ele>
        <time>2019-04-17T13:07:42Z</time>
      </trkpt>
      <trkpt lat="45.88933" lon="6.79366">
        <ele>1015</ele>
        <time>2019-04-17T13:08:42Z</time>
      </trkpt>
      <trkpt lat="45.88923" lon="6.79229">
        <ele>1009</ele>
        <time>2019-04-17T13:09:42Z</time>
      </trkpt>
      <trkpt lat="45.88923" lon="6.79201">
        <ele>1008</ele>
        <time>2019-04-17T13:10:42Z</time>
      </trkpt>
      <trkpt lat="45.88926" lon="6.7914">
        <ele>1007</ele>
        <time>2019-04-17T13:11:42Z</time>
      </trkpt>
      <trkpt lat="45.88933" lon="6.79075">
        <ele>1007</ele>
        <time>2019-04-17T13:12:42Z</time>
      </trkpt>
      <trkpt lat="45.8894" lon="6.79042">
        <ele>1003</ele>
        <time>2019-04-17T13:13:42Z</time>
      </trkpt>
      <trkpt lat="45.88981" lon="6.78901">
        <ele>997</ele>
        <time>2019-04-17T13:14:42Z</time>
      </trkpt>
      <trkpt lat="45.88987" lon="6.78893">
        <ele>997</ele>
        <time>2019-04-17T13:15:42Z</time>
      </trkpt>
      <trkpt lat="45.88987" lon="6.78878">
        <ele>998</ele>
        <time>2019-04-17T13:16:42Z</time>
      </trkpt>
      <trkpt lat="45.89024" lon="6.78755">
        <ele>1001</ele>
        <time>2019-04-17T13:17:42Z</time>
      </trkpt>
      <trkpt lat="45.89045" lon="6.78694">
        <ele>1005</ele>
        <time>2019-04-17T13:18:42Z</time>
      </trkpt>
      <trkpt lat="45.89068" lon="6.78649">
        <ele>1008</ele>
        <time>2019-04-17T13:19:42Z</time>
      </trkpt>
      <trkpt lat="45.89088" lon="6.78618">
        <ele>1011</ele>
        <time>2019-04-17T13:20:42Z</time>
      </trkpt>
      <trkpt lat="45.89104" lon="6.78604">
        <ele>1012</ele>
        <time>2019-04-17T13:21:42Z</time>
      </trkpt>
      <trkpt lat="45.89116" lon="6.78598">
        <ele>1012</ele>
        <time>2019-04-17T13:22:42Z</time>
      </trkpt>
      <trkpt lat="45.89134" lon="6.78598">
        <ele>1010</ele>
        <time>2019-04-17T13:23:42Z</time>
      </trkpt>
      <trkpt lat="45.89173" lon="6.78604">
        <ele>1005</ele>
        <time>2019-04-17T13:24:42Z</time>
      </trkpt>
      <trkpt lat="45.89195" lon="6.78601">
        <ele>1004</ele>
        <time>2019-04-17T13:25:42Z</time>
      </trkpt>
      <trkpt lat="45.8921" lon="6.78596">
        <ele>1004</ele>
        <time>2019-04-17T13:26:42Z</time>
      </trkpt>
      <trkpt lat="45.89225" lon="6.78586">
        <ele>1005</ele>
        <time>2019-04-17T13:27:42Z</time>
      </trkpt>
      <trkpt lat="45.89274" lon="6.78525">
        <ele>1014</ele>
        <time>2019-04-17T13:28:42Z</time>
      </trkpt>
      <trkpt lat="45.89358" lon="6.78444">
        <ele>1015</ele>
        <time>2019-04-17T13:29:42Z</time>
      </trkpt>
      <trkpt lat="45.89374" lon="6.78415">
        <ele>1016</ele>
        <time>2019-04-17T13:30:42Z</time>
      </trkpt>
      <trkpt lat="45.89391" lon="6.78375">
        <ele>1016</ele>
        <time>2019-04-17T13:31:42Z</time>
      </trkpt>
      <trkpt lat="45.89402" lon="6.78358">
        <ele>1015</ele>
        <time>2019-04-17T13:32:42Z</time>
      </trkpt>
      <trkpt lat="45.89438" lon="6.78316">
        <ele>1013</ele>
        <time>2019-04-17T13:33:42Z</time>
      </trkpt>
      <trkpt lat="45.89448" lon="6.78298">
        <ele>1014</ele>
        <time>2019-04-17T13:34:42Z</time>
      </trkpt>
      <trkpt lat="45.89459" lon="6.78262">
        <ele>1015</ele>
        <time>2019-04-17T13:35:42Z</time>
      </trkpt>
      <trkpt lat="45.89479" lon="6.78184">
        <ele>1015</ele>
        <time>2019-04-17T13:36:42Z</time>
      </trkpt>
      <trkpt lat="45.89485" lon="6.78167">
        <ele>1015</ele>
        <time>2019-04-17T13:37:42Z</time>
      </trkpt>
      <trkpt lat="45.89499" lon="6.78154">
        <ele>1014</ele>
        <time>2019-04-17T13:38:42Z</time>
      </trkpt>
      <trkpt lat="45.89506" lon="6.78153">
        <ele>1014</ele>
        <time>2019-04-17T13:39:42Z</time>
      </trkpt>
      <trkpt lat="45.89508" lon="6.7815">
        <ele>1014</ele>
        <time>2019-04-17T13:40:42Z</time>
      </trkpt>
      <trkpt lat="45.89511" lon="6.78143">
        <ele>1014</ele>
        <time>2019-04-17T13:41:42Z</time>
      </trkpt>
      <trkpt lat="45.8951" lon="6.78134">
        <ele>1015</ele>
        <time>2019-04-17T13:42:42Z</time>
      </trkpt>
      <trkpt lat="45.89505" lon="6.78128">
        <ele>1016</ele>
        <time>2019-04-17T13:43:42Z</time>
      </trkpt>
      <trkpt lat="45.89501" lon="6.78107">
        <ele>1017</ele>
        <time>2019-04-17T13:44:42Z</time>
      </trkpt>
      <trkpt lat="45.89507" lon="6.7809">
        <ele>1018</ele>
        <time>2019-04-17T13:45:42Z</time>
      </trkpt>
      <trkpt lat="45.89655" lon="6.77823">
        <ele>1026</ele>
        <time>2019-04-17T13:46:42Z</time>
      </trkpt>
      <trkpt lat="45.89667" lon="6.77779">
        <ele>1028</ele>
        <time>2019-04-17T13:47:42Z</time>
      </trkpt>
      <trkpt lat="45.8971" lon="6.77333">
        <ele>1047</ele>
        <time>2019-04-17T13:48:42Z</time>
      </trkpt>
      <trkpt lat="45.89717" lon="6.77285">
        <ele>1053</ele>
        <time>2019-04-17T13:49:42Z</time>
      </trkpt>
      <trkpt lat="45.89729" lon="6.77245">
        <ele>1058</ele>
        <time>2019-04-17T13:50:42Z</time>
      </trkpt>
      <trkpt lat="45.89743" lon="6.77234">
        <ele>1059</ele>
        <time>2019-04-17T13:51:42Z</time>
      </trkpt>
      <trkpt lat="45.8976" lon="6.77229">
        <ele>1061</ele>
        <time>2019-04-17T13:52:42Z</time>
      </trkpt>
      <trkpt lat="45.89787" lon="6.7723">
        <ele>1065</ele>
        <time>2019-04-17T13:53:42Z</time>
      </trkpt>
      <trkpt lat="45.89822" lon="6.7724">
        <ele>1068</ele>
        <time>2019-04-17T13:54:42Z</time>
      </trkpt>
      <trkpt lat="45.89885" lon="6.77263">
        <ele>1076</ele>
        <time>2019-04-17T13:55:42Z</time>
      </trkpt>
      <trkpt lat="45.89925" lon="6.77292">
        <ele>1078</ele>
        <time>2019-04-17T13:56:42Z</time>
      </trkpt>
      <trkpt lat="45.9006" lon="6.77415">
        <ele>1081</ele>
        <time>2019-04-17T13:57:42Z</time>
      </trkpt>
      <trkpt lat="45.90091" lon="6.77429">
        <ele>1084</ele>
        <time>2019-04-17T13:58:42Z</time>
      </trkpt>
      <trkpt lat="45.90124" lon="6.77436">
        <ele>1085</ele>
        <time>2019-04-17T13:59:42Z</time>
      </trkpt>
      <trkpt lat="45.90145" lon="6.77428">
        <ele>1090</ele>
        <time>2019-04-17T14:00:42Z</time>
      </trkpt>
      <trkpt lat="45.90164" lon="6.77415">
        <ele>1095</ele>
        <time>2019-04-17T14:01:42Z</time>
      </trkpt>
      <trkpt lat="45.90185" lon="6.77383">
        <ele>1100</ele>
        <time>2019-04-17T14:02:42Z</time>
      </trkpt>
      <trkpt lat="45.90198" lon="6.77369">
        <ele>1101</ele>
        <time>2019-04-17T14:03:42Z</time>
      </trkpt>
      <trkpt lat="45.9022" lon="6.77337">
        <ele>1104</ele>
        <time>2019-04-17T14:04:42Z</time>
      </trkpt>
      <trkpt lat="45.90251" lon="6.77307">
        <ele>1106</ele>
        <time>2019-04-17T14:05:42Z</time>
      </trkpt>
      <trkpt lat="45.90331" lon="6.77264">
        <ele>1106</ele>
        <time>2019-04-17T14:06:42Z</time>
      </trkpt>
      <trkpt lat="45.90375" lon="6.77251">
        <ele>1103</ele>
        <time>2019-04-17T14:07:42Z</time>
      </trkpt>
      <trkpt lat="45.90393" lon="6.77237">
        <ele>1104</ele>
        <time>2019-04-17T14:08:42Z</time>
      </trkpt>
      <trkpt lat="45.90419" lon="6.77198">
        <ele>1109</ele>
        <time>2019-04-17T14:09:42Z</time>
      </trkpt>
      <trkpt lat="45.90441" lon="6.77155">
        <ele>1112</ele>
        <time>2019-04-17T14:10:42Z</time>
      </trkpt>
      <trkpt lat="45.90454" lon="6.77123">
        <ele>1115</ele>
        <time>2019-04-17T14:11:42Z</time>
      </trkpt>
      <trkpt lat="45.90461" lon="6.7709">
        <ele>1121</ele>
        <time>2019-04-17T14:12:42Z</time>
      </trkpt>
      <trkpt lat="45.90469" lon="6.7707">
        <ele>1122</ele>
        <time>2019-04-17T14:13:42Z</time>
      </trkpt>
      <trkpt lat="45.90511" lon="6.77035">
        <ele>1109</ele>
        <time>2019-04-17T14:14:42Z</time>
      </trkpt>
      <trkpt lat="45.90513" lon="6.7703">
        <ele>1108</ele>
        <time>2019-04-17T14:15:42Z</time>
      </trkpt>
      <trkpt lat="45.90515" lon="6.77018">
        <ele>1107</ele>
        <time>2019-04-17T14:16:42Z</time>
      </trkpt>
      <trkpt lat="45.90502" lon="6.76984">
        <ele>1119</ele>
        <time>2019-04-17T14:17:42Z</time>
      </trkpt>
      <trkpt lat="45.90472" lon="6.76927">
        <ele>1134</ele>
        <time>2019-04-17T14:18:42Z</time>
      </trkpt>
      <trkpt lat="45.90463" lon="6.7689">
        <ele>1138</ele>
        <time>2019-04-17T14:19:42Z</time>
      </trkpt>
      <trkpt lat="45.90461" lon="6.76863">
        <ele>1139</ele>
        <time>2019-04-17T14:20:42Z</time>
      </trkpt>
      <trkpt lat="45.90463" lon="6.76822">
        <ele>1138</ele>
        <time>2019-04-17T14:21:42Z</time>
      </trkpt>
      <trkpt lat="45.90469" lon="6.76786">
        <ele>1135</ele>
        <time>2019-04-17T14:22:42Z</time>
      </trkpt>
      <trkpt lat="45.90491" lon="6.76721">
        <ele>1124</ele>
        <time>2019-04-17T14:23:42Z</time>
      </trkpt>
      <trkpt lat="45.90569" lon="6.76586">
        <ele>1092</ele>
        <time>2019-04-17T14:24:42Z</time>
      </trkpt>
      <trkpt lat="45.9058" lon="6.76545">
        <ele>1087</ele>
        <time>2019-04-17T14:25:42Z</time>
      </trkpt>
      <trkpt lat="45.90581" lon="6.76529">
        <ele>1086</ele>
        <time>2019-04-17T14:26:42Z</time>
      </trkpt>
      <trkpt lat="45.90579" lon="6.76517">
        <ele>1087</ele>
        <time>2019-04-17T14:27:42Z</time>
      </trkpt>
      <trkpt lat="45.90576" lon="6.76508">
        <ele>1087</ele>
        <time>2019-04-17T14:28:42Z</time>
      </trkpt>
      <trkpt lat="45.90567" lon="6.76494">
        <ele>1089</ele>
        <time>2019-04-17T14:29:42Z</time>
      </trkpt>
      <trkpt lat="45.90555" lon="6.76485">
        <ele>1092</ele>
        <time>2019-04-17T14:30:42Z</time>
      </trkpt>
      <trkpt lat="45.90529" lon="6.76477">
        <ele>1099</ele>
        <time>2019-04-17T14:31:42Z</time>
      </trkpt>
      <trkpt lat="45.90525" lon="6.76472">
        <ele>1100</ele>
        <time>2019-04-17T14:32:42Z</time>
      </trkpt>
      <trkpt lat="45.90521" lon="6.76464">
        <ele>1101</ele>
        <time>2019-04-17T14:33:42Z</time>
      </trkpt>
      <trkpt lat="45.9052" lon="6.76453">
        <ele>1101</ele>
        <time>2019-04-17T14:34:42Z</time>
      </trkpt>
      <trkpt lat="45.90521" lon="6.76436">
        <ele>1099</ele>
        <time>2019-04-17T14:35:42Z</time>
      </trkpt>
      <trkpt lat="45.90548" lon="6.76332">
        <ele>1084</ele>
        <time>2019-04-17T14:36:42Z</time>
      </trkpt>
      <trkpt lat="45.90552" lon="6.76308">
        <ele>1083</ele>
        <time>2019-04-17T14:37:42Z</time>
      </trkpt>
      <trkpt lat="45.90557" lon="6.76237">
        <ele>1085</ele>
        <time>2019-04-17T14:38:42Z</time>
      </trkpt>
      <trkpt lat="45.90564" lon="6.76226">
        <ele>1086</ele>
        <time>2019-04-17T14:39:42Z</time>
      </trkpt>
      <trkpt lat="45.90577" lon="6.76216">
        <ele>1084</ele>
        <time>2019-04-17T14:40:42Z</time>
      </trkpt>
      <trkpt lat="45.90607" lon="6.76208">
        <ele>1079</ele>
        <time>2019-04-17T14:41:42Z</time>
      </trkpt>
      <trkpt lat="45.90665" lon="6.76186">
        <ele>1070</ele>
        <time>2019-04-17T14:42:42Z</time>
      </trkpt>
      <trkpt lat="45.90676" lon="6.76175">
        <ele>1070</ele>
        <time>2019-04-17T14:43:42Z</time>
      </trkpt>
      <trkpt lat="45.90682" lon="6.76176">
        <ele>1069</ele>
        <time>2019-04-17T14:44:42Z</time>
      </trkpt>
      <trkpt lat="45.90685" lon="6.7618">
        <ele>1068</ele>
        <time>2019-04-17T14:45:42Z</time>
      </trkpt>
      <trkpt lat="45.90684" lon="6.7619">
        <ele>1067</ele>
        <time>2019-04-17T14:46:42Z</time>
      </trkpt>
      <trkpt lat="45.9068" lon="6.76197">
        <ele>1066</ele>
        <time>2019-04-17T14:47:42Z</time>
      </trkpt>
      <trkpt lat="45.90671" lon="6.76202">
        <ele>1066</ele>
        <time>2019-04-17T14:48:42Z</time>
      </trkpt>
      <trkpt lat="45.9066" lon="6.76204">
        <ele>1068</ele>
        <time>2019-04-17T14:49:42Z</time>
      </trkpt>
      <trkpt lat="45.90646" lon="6.76214">
        <ele>1070</ele>
        <time>2019-04-17T14:50:42Z</time>
      </trkpt>
      <trkpt lat="45.90643" lon="6.76223">
        <ele>1069</ele>
        <time>2019-04-17T14:51:42Z</time>
      </trkpt>
      <trkpt lat="45.90643" lon="6.76233">
        <ele>1067</ele>
        <time>2019-04-17T14:52:42Z</time>
      </trkpt>
      <trkpt lat="45.90653" lon="6.76245">
        <ele>1064</ele>
        <time>2019-04-17T14:53:42Z</time>
      </trkpt>
      <trkpt lat="45.9068" lon="6.76249">
        <ele>1058</ele>
        <time>2019-04-17T14:54:42Z</time>
      </trkpt>
      <trkpt lat="45.90709" lon="6.76246">
        <ele>1054</ele>
        <time>2019-04-17T14:55:42Z</time>
      </trkpt>
      <trkpt lat="45.90727" lon="6.76235">
        <ele>1053</ele>
        <time>2019-04-17T14:56:42Z</time>
      </trkpt>
      <trkpt lat="45.90749" lon="6.76206">
        <ele>1056</ele>
        <time>2019-04-17T14:57:42Z</time>
      </trkpt>
      <trkpt lat="45.90755" lon="6.76202">
        <ele>1056</ele>
        <time>2019-04-17T14:58:42Z</time>
      </trkpt>
      <trkpt lat="45.90761" lon="6.76201">
        <ele>1055</ele>
        <time>2019-04-17T14:59:42Z</time>
      </trkpt>
      <trkpt lat="45.90789" lon="6.76205">
        <ele>1050</ele>
        <time>2019-04-17T15:00:42Z</time>
      </trkpt>
      <trkpt lat="45.90795" lon="6.76202">
        <ele>1050</ele>
        <time>2019-04-17T15:01:42Z</time>
      </trkpt>
      <trkpt lat="45.90817" lon="6.76181">
        <ele>1053</ele>
        <time>2019-04-17T15:02:42Z</time>
      </trkpt>
      <trkpt lat="45.90827" lon="6.76181">
        <ele>1052</ele>
        <time>2019-04-17T15:03:42Z</time>
      </trkpt>
      <trkpt lat="45.90831" lon="6.76185">
        <ele>1050</ele>
        <time>2019-04-17T15:04:42Z</time>
      </trkpt>
      <trkpt lat="45.90834" lon="6.76191">
        <ele>1048</ele>
        <time>2019-04-17T15:05:42Z</time>
      </trkpt>
      <trkpt lat="45.90834" lon="6.76203">
        <ele>1045</ele>
        <time>2019-04-17T15:06:42Z</time>
      </trkpt>
      <trkpt lat="45.90831" lon="6.76222">
        <ele>1040</ele>
        <time>2019-04-17T15:07:42Z</time>
      </trkpt>
      <trkpt lat="45.90823" lon="6.76252">
        <ele>1034</ele>
        <time>2019-04-17T15:08:42Z</time>
      </trkpt>
      <trkpt lat="45.90818" lon="6.76259">
        <ele>1033</ele>
        <time>2019-04-17T15:09:42Z</time>
      </trkpt>
      <trkpt lat="45.90788" lon="6.76279">
        <ele>1036</ele>
        <time>2019-04-17T15:10:42Z</time>
      </trkpt>
      <trkpt lat="45.90775" lon="6.76297">
        <ele>1036</ele>
        <time>2019-04-17T15:11:42Z</time>
      </trkpt>
      <trkpt lat="45.90749" lon="6.76313">
        <ele>1039</ele>
        <time>2019-04-17T15:12:42Z</time>
      </trkpt>
      <trkpt lat="45.90747" lon="6.76319">
        <ele>1038</ele>
        <time>2019-04-17T15:13:42Z</time>
      </trkpt>
      <trkpt lat="45.90748" lon="6.76325">
        <ele>1037</ele>
        <time>2019-04-17T15:14:42Z</time>
      </trkpt>
      <trkpt lat="45.90753" lon="6.76334">
        <ele>1035</ele>
        <time>2019-04-17T15:15:42Z</time>
      </trkpt>
      <trkpt lat="45.90762" lon="6.76335">
        <ele>1034</ele>
        <time>2019-04-17T15:16:42Z</time>
      </trkpt>
      <trkpt lat="45.90777" lon="6.76321">
        <ele>1032</ele>
        <time>2019-04-17T15:17:42Z</time>
      </trkpt>
      <trkpt lat="45.90801" lon="6.76305">
        <ele>1030</ele>
        <time>2019-04-17T15:18:42Z</time>
      </trkpt>
      <trkpt lat="45.90847" lon="6.76299">
        <ele>1023</ele>
        <time>2019-04-17T15:19:42Z</time>
      </trkpt>
      <trkpt lat="45.90901" lon="6.7626">
        <ele>1018</ele>
        <time>2019-04-17T15:20:42Z</time>
      </trkpt>
      <trkpt lat="45.90926" lon="6.76232">
        <ele>1020</ele>
        <time>2019-04-17T15:21:42Z</time>
      </trkpt>
      <trkpt lat="45.90932" lon="6.7622">
        <ele>1022</ele>
        <time>2019-04-17T15:22:42Z</time>
      </trkpt>
      <trkpt lat="45.90937" lon="6.76216">
        <ele>1023</ele>
        <time>2019-04-17T15:23:42Z</time>
      </trkpt>
      <trkpt lat="45.90942" lon="6.76215">
        <ele>1022</ele>
        <time>2019-04-17T15:24:42Z</time>
      </trkpt>
      <trkpt lat="45.90949" lon="6.76222">
        <ele>1020</ele>
        <time>2019-04-17T15:25:42Z</time>
      </trkpt>
      <trkpt lat="45.90952" lon="6.7623">
        <ele>1018</ele>
        <time>2019-04-17T15:26:42Z</time>
      </trkpt>
      <trkpt lat="45.9095" lon="6.76241">
        <ele>1016</ele>
        <time>2019-04-17T15:27:42Z</time>
      </trkpt>
      <trkpt lat="45.90938" lon="6.76247">
        <ele>1015</ele>
        <time>2019-04-17T15:28:42Z</time>
      </trkpt>
      <trkpt lat="45.90929" lon="6.76254">
        <ele>1015</ele>
        <time>2019-04-17T15:29:42Z</time>
      </trkpt>
      <trkpt lat="45.90886" lon="6.76324">
        <ele>1012</ele>
        <time>2019-04-17T15:30:42Z</time>
      </trkpt>
      <trkpt lat="45.90866" lon="6.76342">
        <ele>1015</ele>
        <time>2019-04-17T15:31:42Z</time>
      </trkpt>
      <trkpt lat="45.90864" lon="6.76348">
        <ele>1016</ele>
        <time>2019-04-17T15:32:42Z</time>
      </trkpt>
      <trkpt lat="45.90867" lon="6.76363">
        <ele>1017</ele>
        <time>2019-04-17T15:33:42Z</time>
      </trkpt>
      <trkpt lat="45.9087" lon="6.76369">
        <ele>1018</ele>
        <time>2019-04-17T15:34:42Z</time>
      </trkpt>
      <trkpt lat="45.90878" lon="6.76374">
        <ele>1017</ele>
        <time>2019-04-17T15:35:42Z</time>
      </trkpt>
      <trkpt lat="45.90927" lon="6.76391">
        <ele>1009</ele>
        <time>2019-04-17T15:36:42Z</time>
      </trkpt>
      <trkpt lat="45.90959" lon="6.76392">
        <ele>1004</ele>
        <time>2019-04-17T15:37:42Z</time>
      </trkpt>
      <trkpt lat="45.91" lon="6.76403">
        <ele>996</ele>
        <time>2019-04-17T15:38:42Z</time>
      </trkpt>
      <trkpt lat="45.91011" lon="6.76413">
        <ele>993</ele>
        <time>2019-04-17T15:39:42Z</time>
      </trkpt>
      <trkpt lat="45.91015" lon="6.76422">
        <ele>991</ele>
        <time>2019-04-17T15:40:42Z</time>
      </trkpt>
      <trkpt lat="45.91012" lon="6.76437">
        <ele>987</ele>
        <time>2019-04-17T15:41:42Z</time>
      </trkpt>
      <trkpt lat="45.91003" lon="6.76447">
        <ele>987</ele>
        <time>2019-04-17T15:42:42Z</time>
      </trkpt>
      <trkpt lat="45.90976" lon="6.76461">
        <ele>992</ele>
        <time>2019-04-17T15:43:42Z</time>
      </trkpt>
      <trkpt lat="45.90931" lon="6.76491">
        <ele>1001</ele>
        <time>2019-04-17T15:44:42Z</time>
      </trkpt>
      <trkpt lat="45.90882" lon="6.7653">
        <ele>1006</ele>
        <time>2019-04-17T15:45:42Z</time>
      </trkpt>
      <trkpt lat="45.90858" lon="6.76557">
        <ele>1007</ele>
        <time>2019-04-17T15:46:42Z</time>
      </trkpt>
      <trkpt lat="45.9084" lon="6.76589">
        <ele>1005</ele>
        <time>2019-04-17T15:47:42Z</time>
      </trkpt>
      <trkpt lat="45.90837" lon="6.76621">
        <ele>999</ele>
        <time>2019-04-17T15:48:42Z</time>
      </trkpt>
      <trkpt lat="45.90832" lon="6.76689">
        <ele>987</ele>
        <time>2019-04-17T15:49:42Z</time>
      </trkpt>
      <trkpt lat="45.90826" lon="6.76709">
        <ele>986</ele>
        <time>2019-04-17T15:50:42Z</time>
      </trkpt>
      <trkpt lat="45.90813" lon="6.76724">
        <ele>989</ele>
        <time>2019-04-17T15:51:42Z</time>
      </trkpt>
      <trkpt lat="45.90795" lon="6.76752">
        <ele>991</ele>
        <time>2019-04-17T15:52:42Z</time>
      </trkpt>
      <trkpt lat="45.90794" lon="6.76763">
        <ele>991</ele>
        <time>2019-04-17T15:53:42Z</time>
      </trkpt>
      <trkpt lat="45.90797" lon="6.76776">
        <ele>988</ele>
        <time>2019-04-17T15:54:42Z</time>
      </trkpt>
      <trkpt lat="45.90803" lon="6.76779">
        <ele>986</ele>
        <time>2019-04-17T15:55:42Z</time>
      </trkpt>
      <trkpt lat="45.90812" lon="6.76778">
        <ele>983</ele>
        <time>2019-04-17T15:56:42Z</time>
      </trkpt>
      <trkpt lat="45.9083" lon="6.76737">
        <ele>980</ele>
        <time>2019-04-17T15:57:42Z</time>
      </trkpt>
      <trkpt lat="45.90843" lon="6.76733">
        <ele>977</ele>
        <time>2019-04-17T15:58:42Z</time>
      </trkpt>
      <trkpt lat="45.90886" lon="6.76747">
        <ele>965</ele>
        <time>2019-04-17T15:59:42Z</time>
      </trkpt>
      <trkpt lat="45.90893" lon="6.76751">
        <ele>963</ele>
        <time>2019-04-17T16:00:42Z</time>
      </trkpt>
      <trkpt lat="45.90898" lon="6.7676">
        <ele>961</ele>
        <time>2019-04-17T16:01:42Z</time>
      </trkpt>
      <trkpt lat="45.909" lon="6.76771">
        <ele>960</ele>
        <time>2019-04-17T16:02:42Z</time>
      </trkpt>
      <trkpt lat="45.90897" lon="6.76782">
        <ele>960</ele>
        <time>2019-04-17T16:03:42Z</time>
      </trkpt>
      <trkpt lat="45.9089" lon="6.76791">
        <ele>961</ele>
        <time>2019-04-17T16:04:42Z</time>
      </trkpt>
      <trkpt lat="45.90864" lon="6.76795">
        <ele>967</ele>
        <time>2019-04-17T16:05:42Z</time>
      </trkpt>
      <trkpt lat="45.90859" lon="6.76799">
        <ele>967</ele>
        <time>2019-04-17T16:06:42Z</time>
      </trkpt>
      <trkpt lat="45.90857" lon="6.76807">
        <ele>967</ele>
        <time>2019-04-17T16:07:42Z</time>
      </trkpt>
      <trkpt lat="45.90858" lon="6.76814">
        <ele>967</ele>
        <time>2019-04-17T16:08:42Z</time>
      </trkpt>
      <trkpt lat="45.90865" lon="6.76819">
        <ele>965</ele>
        <time>2019-04-17T16:09:42Z</time>
      </trkpt>
      <trkpt lat="45.90875" lon="6.76819">
        <ele>963</ele>
        <time>2019-04-17T16:10:42Z</time>
      </trkpt>
      <trkpt lat="45.90888" lon="6.76814">
        <ele>961</ele>
        <time>2019-04-17T16:11:42Z</time>
      </trkpt>
      <trkpt lat="45.90911" lon="6.76795">
        <ele>957</ele>
        <time>2019-04-17T16:12:42Z</time>
      </trkpt>
      <trkpt lat="45.90921" lon="6.76782">
        <ele>954</ele>
        <time>2019-04-17T16:13:42Z</time>
      </trkpt>
      <trkpt lat="45.90941" lon="6.76728">
        <ele>949</ele>
        <time>2019-04-17T16:14:42Z</time>
      </trkpt>
      <trkpt lat="45.90939" lon="6.7672">
        <ele>950</ele>
        <time>2019-04-17T16:15:42Z</time>
      </trkpt>
      <trkpt lat="45.90923" lon="6.76701">
        <ele>957</ele>
        <time>2019-04-17T16:16:42Z</time>
      </trkpt>
      <trkpt lat="45.90914" lon="6.76682">
        <ele>961</ele>
        <time>2019-04-17T16:17:42Z</time>
      </trkpt>
      <trkpt lat="45.90915" lon="6.76674">
        <ele>961</ele>
        <time>2019-04-17T16:18:42Z</time>
      </trkpt>
      <trkpt lat="45.90918" lon="6.76666">
        <ele>961</ele>
        <time>2019-04-17T16:19:42Z</time>
      </trkpt>
      <trkpt lat="45.90927" lon="6.7665">
        <ele>960</ele>
        <time>2019-04-17T16:20:42Z</time>
      </trkpt>
      <trkpt lat="45.90948" lon="6.76626">
        <ele>956</ele>
        <time>2019-04-17T16:21:42Z</time>
      </trkpt>
      <trkpt lat="45.90985" lon="6.76596">
        <ele>947</ele>
        <time>2019-04-17T16:22:42Z</time>
      </trkpt>
      <trkpt lat="45.90996" lon="6.76584">
        <ele>945</ele>
        <time>2019-04-17T16:23:42Z</time>
      </trkpt>
      <trkpt lat="45.91021" lon="6.76546">
        <ele>949</ele>
        <time>2019-04-17T16:24:42Z</time>
      </trkpt>
      <trkpt lat="45.91028" lon="6.76546">
        <ele>946</ele>
        <time>2019-04-17T16:25:42Z</time>
      </trkpt>
      <trkpt lat="45.9103" lon="6.76549">
        <ele>944</ele>
        <time>2019-04-17T16:26:42Z</time>
      </trkpt>
      <trkpt lat="45.91031" lon="6.7656">
        <ele>940</ele>
        <time>2019-04-17T16:27:42Z</time>
      </trkpt>
      <trkpt lat="45.91029" lon="6.76565">
        <ele>939</ele>
        <time>2019-04-17T16:28:42Z</time>
      </trkpt>
      <trkpt lat="45.91015" lon="6.76576">
        <ele>941</ele>
        <time>2019-04-17T16:29:42Z</time>
      </trkpt>
      <trkpt lat="45.91002" lon="6.76591">
        <ele>942</ele>
        <time>2019-04-17T16:30:42Z</time>
      </trkpt>
      <trkpt lat="45.90986" lon="6.76619">
        <ele>942</ele>
        <time>2019-04-17T16:31:42Z</time>
      </trkpt>
      <trkpt lat="45.90969" lon="6.76643">
        <ele>943</ele>
        <time>2019-04-17T16:32:42Z</time>
      </trkpt>
      <trkpt lat="45.90955" lon="6.76673">
        <ele>944</ele>
        <time>2019-04-17T16:33:42Z</time>
      </trkpt>
      <trkpt lat="45.90955" lon="6.76682">
        <ele>944</ele>
        <time>2019-04-17T16:34:42Z</time>
      </trkpt>
      <trkpt lat="45.90958" lon="6.76694">
        <ele>943</ele>
        <time>2019-04-17T16:35:42Z</time>
      </trkpt>
      <trkpt lat="45.90967" lon="6.767">
        <ele>940</ele>
        <time>2019-04-17T16:36:42Z</time>
      </trkpt>
      <trkpt lat="45.91015" lon="6.76702">
        <ele>924</ele>
        <time>2019-04-17T16:37:42Z</time>
      </trkpt>
      <trkpt lat="45.9103" lon="6.76706">
        <ele>920</ele>
        <time>2019-04-17T16:38:42Z</time>
      </trkpt>
      <trkpt lat="45.91035" lon="6.76706">
        <ele>919</ele>
        <time>2019-04-17T16:39:42Z</time>
      </trkpt>
      <trkpt lat="45.91039" lon="6.76699">
        <ele>918</ele>
        <time>2019-04-17T16:40:42Z</time>
      </trkpt>
      <trkpt lat="45.91049" lon="6.76676">
        <ele>916</ele>
        <time>2019-04-17T16:41:42Z</time>
      </trkpt>
      <trkpt lat="45.91054" lon="6.76668">
        <ele>915</ele>
        <time>2019-04-17T16:42:42Z</time>
      </trkpt>
      <trkpt lat="45.91063" lon="6.76663">
        <ele>914</ele>
        <time>2019-04-17T16:43:42Z</time>
      </trkpt>
      <trkpt lat="45.91077" lon="6.76662">
        <ele>911</ele>
        <time>2019-04-17T16:44:42Z</time>
      </trkpt>
      <trkpt lat="45.91084" lon="6.76657">
        <ele>910</ele>
        <time>2019-04-17T16:45:42Z</time>
      </trkpt>
      <trkpt lat="45.91086" lon="6.76644">
        <ele>910</ele>
        <time>2019-04-17T16:46:42Z</time>
      </trkpt>
      <trkpt lat="45.91091" lon="6.76588">
        <ele>912</ele>
        <time>2019-04-17T16:47:42Z</time>
      </trkpt>
      <trkpt lat="45.91104" lon="6.76574">
        <ele>912</ele>
        <time>2019-04-17T16:48:42Z</time>
      </trkpt>
      <trkpt lat="45.91123" lon="6.76563">
        <ele>911</ele>
        <time>2019-04-17T16:49:42Z</time>
      </trkpt>
      <trkpt lat="45.91131" lon="6.76552">
        <ele>913</ele>
        <time>2019-04-17T16:50:42Z</time>
      </trkpt>
      <trkpt lat="45.91141" lon="6.76544">
        <ele>913</ele>
        <time>2019-04-17T16:51:42Z</time>
      </trkpt>
      <trkpt lat="45.91147" lon="6.76546">
        <ele>912</ele>
        <time>2019-04-17T16:52:42Z</time>
      </trkpt>
      <trkpt lat="45.91153" lon="6.76555">
        <ele>909</ele>
        <time>2019-04-17T16:53:42Z</time>
      </trkpt>
      <trkpt lat="45.91157" lon="6.76567">
        <ele>905</ele>
        <time>2019-04-17T16:54:42Z</time>
      </trkpt>
      <trkpt lat="45.91155" lon="6.7658">
        <ele>903</ele>
        <time>2019-04-17T16:55:42Z</time>
      </trkpt>
      <trkpt lat="45.91144" lon="6.76609">
        <ele>903</ele>
        <time>2019-04-17T16:56:42Z</time>
      </trkpt>
      <trkpt lat="45.91135" lon="6.76624">
        <ele>903</ele>
        <time>2019-04-17T16:57:42Z</time>
      </trkpt>
      <trkpt lat="45.91115" lon="6.76639">
        <ele>906</ele>
        <time>2019-04-17T16:58:42Z</time>
      </trkpt>
      <trkpt lat="45.9111" lon="6.76648">
        <ele>907</ele>
        <time>2019-04-17T16:59:42Z</time>
      </trkpt>
      <trkpt lat="45.9111" lon="6.76661">
        <ele>906</ele>
        <time>2019-04-17T17:00:42Z</time>
      </trkpt>
      <trkpt lat="45.91113" lon="6.7667">
        <ele>905</ele>
        <time>2019-04-17T17:01:42Z</time>
      </trkpt>
      <trkpt lat="45.91121" lon="6.76677">
        <ele>904</ele>
        <time>2019-04-17T17:02:42Z</time>
      </trkpt>
      <trkpt lat="45.91142" lon="6.76677">
        <ele>901</ele>
        <time>2019-04-17T17:03:42Z</time>
      </trkpt>
      <trkpt lat="45.91156" lon="6.76672">
        <ele>899</ele>
        <time>2019-04-17T17:04:42Z</time>
      </trkpt>
      <trkpt lat="45.91179" lon="6.76667">
        <ele>896</ele>
        <time>2019-04-17T17:05:42Z</time>
      </trkpt>
      <trkpt lat="45.91186" lon="6.76663">
        <ele>895</ele>
        <time>2019-04-17T17:06:42Z</time>
      </trkpt>
      <trkpt lat="45.9119" lon="6.76653">
        <ele>895</ele>
        <time>2019-04-17T17:07:42Z</time>
      </trkpt>
      <trkpt lat="45.91203" lon="6.76587">
        <ele>894</ele>
        <time>2019-04-17T17:08:42Z</time>
      </trkpt>
      <trkpt lat="45.91212" lon="6.76559">
        <ele>898</ele>
        <time>2019-04-17T17:09:42Z</time>
      </trkpt>
      <trkpt lat="45.91219" lon="6.76552">
        <ele>898</ele>
        <time>2019-04-17T17:10:42Z</time>
      </trkpt>
      <trkpt lat="45.91227" lon="6.76549">
        <ele>898</ele>
        <time>2019-04-17T17:11:42Z</time>
      </trkpt>
      <trkpt lat="45.91235" lon="6.76557">
        <ele>894</ele>
        <time>2019-04-17T17:12:42Z</time>
      </trkpt>
      <trkpt lat="45.91238" lon="6.76568">
        <ele>891</ele>
        <time>2019-04-17T17:13:42Z</time>
      </trkpt>
      <trkpt lat="45.91237" lon="6.76589">
        <ele>888</ele>
        <time>2019-04-17T17:14:42Z</time>
      </trkpt>
      <trkpt lat="45.91238" lon="6.76602">
        <ele>888</ele>
        <time>2019-04-17T17:15:42Z</time>
      </trkpt>
      <trkpt lat="45.91246" lon="6.7662">
        <ele>888</ele>
        <time>2019-04-17T17:16:42Z</time>
      </trkpt>
      <trkpt lat="45.91277" lon="6.76639">
        <ele>884</ele>
        <time>2019-04-17T17:17:42Z</time>
      </trkpt>
      <trkpt lat="45.91299" lon="6.76672">
        <ele>880</ele>
        <time>2019-04-17T17:18:42Z</time>
      </trkpt>
      <trkpt lat="45.9131" lon="6.76678">
        <ele>878</ele>
        <time>2019-04-17T17:19:42Z</time>
      </trkpt>
      <trkpt lat="45.9132" lon="6.76673">
        <ele>877</ele>
        <time>2019-04-17T17:20:42Z</time>
      </trkpt>
      <trkpt lat="45.91328" lon="6.76662">
        <ele>875</ele>
        <time>2019-04-17T17:21:42Z</time>
      </trkpt>
      <trkpt lat="45.91358" lon="6.76621">
        <ele>873</ele>
        <time>2019-04-17T17:22:42Z</time>
      </trkpt>
      <trkpt lat="45.91372" lon="6.76594">
        <ele>872</ele>
        <time>2019-04-17T17:23:42Z</time>
      </trkpt>
      <trkpt lat="45.91382" lon="6.76581">
        <ele>871</ele>
        <time>2019-04-17T17:24:42Z</time>
      </trkpt>
      <trkpt lat="45.914" lon="6.76568">
        <ele>871</ele>
        <time>2019-04-17T17:25:42Z</time>
      </trkpt>
      <trkpt lat="45.91411" lon="6.76562">
        <ele>869</ele>
        <time>2019-04-17T17:26:42Z</time>
      </trkpt>
      <trkpt lat="45.91417" lon="6.7656">
        <ele>869</ele>
        <time>2019-04-17T17:27:42Z</time>
      </trkpt>
      <trkpt lat="45.91423" lon="6.76563">
        <ele>867</ele>
        <time>2019-04-17T17:28:42Z</time>
      </trkpt>
      <trkpt lat="45.91439" lon="6.76579">
        <ele>864</ele>
        <time>2019-04-17T17:29:42Z</time>
      </trkpt>
      <trkpt lat="45.9145" lon="6.76585">
        <ele>862</ele>
        <time>2019-04-17T17:30:42Z</time>
      </trkpt>
      <trkpt lat="45.91457" lon="6.76584">
        <ele>861</ele>
        <time>2019-04-17T17:31:42Z</time>
      </trkpt>
      <trkpt lat="45.91471" lon="6.76568">
        <ele>859</ele>
        <time>2019-04-17T17:32:42Z</time>
      </trkpt>
      <trkpt lat="45.91482" lon="6.76552">
        <ele>858</ele>
        <time>2019-04-17T17:33:42Z</time>
      </trkpt>
      <trkpt lat="45.91487" lon="6.76547">
        <ele>858</ele>
        <time>2019-04-17T17:34:42Z</time>
      </trkpt>
      <trkpt lat="45.91495" lon="6.76546">
        <ele>856</ele>
        <time>2019-04-17T17:35:42Z</time>
      </trkpt>
      <trkpt lat="45.91498" lon="6.76552">
        <ele>855</ele>
        <time>2019-04-17T17:36:42Z</time>
      </trkpt>
      <trkpt lat="45.91499" lon="6.76561">
        <ele>855</ele>
        <time>2019-04-17T17:37:42Z</time>
      </trkpt>
      <trkpt lat="45.91498" lon="6.76568">
        <ele>855</ele>
        <time>2019-04-17T17:38:42Z</time>
      </trkpt>
      <trkpt lat="45.91493" lon="6.76576">
        <ele>855</ele>
        <time>2019-04-17T17:39:42Z</time>
      </trkpt>
      <trkpt lat="45.91488" lon="6.76582">
        <ele>856</ele>
        <time>2019-04-17T17:40:42Z</time>
      </trkpt>
      <trkpt lat="45.9146" lon="6.76597">
        <ele>860</ele>
        <time>2019-04-17T17:41:42Z</time>
      </trkpt>
      <trkpt lat="45.91446" lon="6.76601">
        <ele>862</ele>
        <time>2019-04-17T17:42:42Z</time>
      </trkpt>
      <trkpt lat="45.91439" lon="6.76607">
        <ele>863</ele>
        <time>2019-04-17T17:43:42Z</time>
      </trkpt>
      <trkpt lat="45.91434" lon="6.76615">
        <ele>864</ele>
        <time>2019-04-17T17:44:42Z</time>
      </trkpt>
      <trkpt lat="45.9143" lon="6.76642">
        <ele>864</ele>
        <time>2019-04-17T17:45:42Z</time>
      </trkpt>
      <trkpt lat="45.91435" lon="6.76656">
        <ele>863</ele>
        <time>2019-04-17T17:46:42Z</time>
      </trkpt>
      <trkpt lat="45.91444" lon="6.76666">
        <ele>861</ele>
        <time>2019-04-17T17:47:42Z</time>
      </trkpt>
      <trkpt lat="45.91453" lon="6.7667">
        <ele>860</ele>
        <time>2019-04-17T17:48:42Z</time>
      </trkpt>
      <trkpt lat="45.91528" lon="6.7667">
        <ele>853</ele>
        <time>2019-04-17T17:49:42Z</time>
      </trkpt>
      <trkpt lat="45.91541" lon="6.76674">
        <ele>853</ele>
        <time>2019-04-17T17:50:42Z</time>
      </trkpt>
      <trkpt lat="45.9155" lon="6.76686">
        <ele>852</ele>
        <time>2019-04-17T17:51:42Z</time>
      </trkpt>
      <trkpt lat="45.91553" lon="6.76694">
        <ele>852</ele>
        <time>2019-04-17T17:52:42Z</time>
      </trkpt>
      <trkpt lat="45.91555" lon="6.76707">
        <ele>853</ele>
        <time>2019-04-17T17:53:42Z</time>
      </trkpt>
      <trkpt lat="45.91554" lon="6.7672">
        <ele>853</ele>
        <time>2019-04-17T17:54:42Z</time>
      </trkpt>
      <trkpt lat="45.91546" lon="6.76738">
        <ele>853</ele>
        <time>2019-04-17T17:55:42Z</time>
      </trkpt>
      <trkpt lat="45.91522" lon="6.76785">
        <ele>856</ele>
        <time>2019-04-17T17:56:42Z</time>
      </trkpt>
      <trkpt lat="45.91507" lon="6.76827">
        <ele>857</ele>
        <time>2019-04-17T17:57:42Z</time>
      </trkpt>
      <trkpt lat="45.91504" lon="6.76852">
        <ele>858</ele>
        <time>2019-04-17T17:58:42Z</time>
      </trkpt>
      <trkpt lat="45.91505" lon="6.76867">
        <ele>859</ele>
        <time>2019-04-17T17:59:42Z</time>
      </trkpt>
      <trkpt lat="45.91517" lon="6.769">
        <ele>862</ele>
        <time>2019-04-17T18:00:42Z</time>
      </trkpt>
      <trkpt lat="45.91522" lon="6.76921">
        <ele>863</ele>
        <time>2019-04-17T18:01:42Z</time>
      </trkpt>
      <trkpt lat="45.91523" lon="6.76942">
        <ele>864</ele>
        <time>2019-04-17T18:02:42Z</time>
      </trkpt>
      <trkpt lat="45.91521" lon="6.76965">
        <ele>864</ele>
        <time>2019-04-17T18:03:42Z</time>
      </trkpt>
      <trkpt lat="45.91517" lon="6.76983">
        <ele>864</ele>
        <time>2019-04-17T18:04:42Z</time>
      </trkpt>
      <trkpt lat="45.91509" lon="6.77">
        <ele>863</ele>
        <time>2019-04-17T18:05:42Z</time>
      </trkpt>
      <trkpt lat="45.91489" lon="6.77033">
        <ele>865</ele>
        <time>2019-04-17T18:06:42Z</time>
      </trkpt>
      <trkpt lat="45.91483" lon="6.77049">
        <ele>865</ele>
        <time>2019-04-17T18:07:42Z</time>
      </trkpt>
      <trkpt lat="45.91478" lon="6.77073">
        <ele>866</ele>
        <time>2019-04-17T18:08:42Z</time>
      </trkpt>
      <trkpt lat="45.91471" lon="6.77089">
        <ele>867</ele>
        <time>2019-04-17T18:09:42Z</time>
      </trkpt>
      <trkpt lat="45.91423" lon="6.77172">
        <ele>864</ele>
        <time>2019-04-17T18:10:42Z</time>
      </trkpt>
      <trkpt lat="45.91412" lon="6.77186">
        <ele>863</ele>
        <time>2019-04-17T18:11:42Z</time>
      </trkpt>
      <trkpt lat="45.91378" lon="6.77211">
        <ele>863</ele>
        <time>2019-04-17T18:12:42Z</time>
      </trkpt>
      <trkpt lat="45.91375" lon="6.77222">
        <ele>863</ele>
        <time>2019-04-17T18:13:42Z</time>
      </trkpt>
      <trkpt lat="45.91376" lon="6.77235">
        <ele>861</ele>
        <time>2019-04-17T18:14:42Z</time>
      </trkpt>
      <trkpt lat="45.9138" lon="6.77245">
        <ele>860</ele>
        <time>2019-04-17T18:15:42Z</time>
      </trkpt>
      <trkpt lat="45.91385" lon="6.77248">
        <ele>859</ele>
        <time>2019-04-17T18:16:42Z</time>
      </trkpt>
      <trkpt lat="45.91393" lon="6.77249">
        <ele>858</ele>
        <time>2019-04-17T18:17:42Z</time>
      </trkpt>
      <trkpt lat="45.91398" lon="6.77247">
        <ele>858</ele>
        <time>2019-04-17T18:18:42Z</time>
      </trkpt>
      <trkpt lat="45.91402" lon="6.77242">
        <ele>858</ele>
        <time>2019-04-17T18:19:42Z</time>
      </trkpt>
      <trkpt lat="45.91428" lon="6.77186">
        <ele>862</ele>
        <time>2019-04-17T18:20:42Z</time>
      </trkpt>
      <trkpt lat="45.91478" lon="6.77101">
        <ele>865</ele>
        <time>2019-04-17T18:21:42Z</time>
      </trkpt>
      <trkpt lat="45.91485" lon="6.77085">
        <ele>865</ele>
        <time>2019-04-17T18:22:42Z</time>
      </trkpt>
      <trkpt lat="45.91495" lon="6.77052">
        <ele>864</ele>
        <time>2019-04-17T18:23:42Z</time>
      </trkpt>
      <trkpt lat="45.91502" lon="6.77042">
        <ele>863</ele>
        <time>2019-04-17T18:24:42Z</time>
      </trkpt>
      <trkpt lat="45.9151" lon="6.77037">
        <ele>863</ele>
        <time>2019-04-17T18:25:42Z</time>
      </trkpt>
      <trkpt lat="45.91529" lon="6.77031">
        <ele>863</ele>
        <time>2019-04-17T18:26:42Z</time>
      </trkpt>
      <trkpt lat="45.91544" lon="6.77033">
        <ele>863</ele>
        <time>2019-04-17T18:27:42Z</time>
      </trkpt>
      <trkpt lat="45.91553" lon="6.77038">
        <ele>862</ele>
        <time>2019-04-17T18:28:42Z</time>
      </trkpt>
      <trkpt lat="45.91568" lon="6.77053">
        <ele>860</ele>
        <time>2019-04-17T18:29:42Z</time>
      </trkpt>
      <trkpt lat="45.91575" lon="6.77064">
        <ele>858</ele>
        <time>2019-04-17T18:30:42Z</time>
      </trkpt>
      <trkpt lat="45.91579" lon="6.77081">
        <ele>855</ele>
        <time>2019-04-17T18:31:42Z</time>
      </trkpt>
      <trkpt lat="45.9158" lon="6.771">
        <ele>852</ele>
        <time>2019-04-17T18:32:42Z</time>
      </trkpt>
      <trkpt lat="45.91566" lon="6.77232">
        <ele>842</ele>
        <time>2019-04-17T18:33:42Z</time>
      </trkpt>
      <trkpt lat="45.91567" lon="6.77243">
        <ele>842</ele>
        <time>2019-04-17T18:34:42Z</time>
      </trkpt>
      <trkpt lat="45.91569" lon="6.77256">
        <ele>844</ele>
        <time>2019-04-17T18:35:42Z</time>
      </trkpt>
      <trkpt lat="45.91573" lon="6.77266">
        <ele>848</ele>
        <time>2019-04-17T18:36:42Z</time>
      </trkpt>
      <trkpt lat="45.91579" lon="6.77274">
        <ele>851</ele>
        <time>2019-04-17T18:37:42Z</time>
      </trkpt>
      <trkpt lat="45.91588" lon="6.77282">
        <ele>854</ele>
        <time>2019-04-17T18:38:42Z</time>
      </trkpt>
      <trkpt lat="45.91603" lon="6.77287">
        <ele>856</ele>
        <time>2019-04-17T18:39:42Z</time>
      </trkpt>
      <trkpt lat="45.9168" lon="6.77284">
        <ele>856</ele>
        <time>2019-04-17T18:40:42Z</time>
      </trkpt>
      <trkpt lat="45.91719" lon="6.77268">
        <ele>850</ele>
        <time>2019-04-17T18:41:42Z</time>
      </trkpt>
      <trkpt lat="45.91765" lon="6.77243">
        <ele>844</ele>
        <time>2019-04-17T18:42:42Z</time>
      </trkpt>
      <trkpt lat="45.91862" lon="6.77204">
        <ele>845</ele>
        <time>2019-04-17T18:43:42Z</time>
      </trkpt>
      <trkpt lat="45.91903" lon="6.77194">
        <ele>845</ele>
        <time>2019-04-17T18:44:42Z</time>
      </trkpt>
      <trkpt lat="45.91921" lon="6.77187">
        <ele>843</ele>
        <time>2019-04-17T18:45:42Z</time>
      </trkpt>
      <trkpt lat="45.91961" lon="6.77162">
        <ele>835</ele>
        <time>2019-04-17T18:46:42Z</time>
      </trkpt>
      <trkpt lat="45.91986" lon="6.77151">
        <ele>836</ele>
        <time>2019-04-17T18:47:42Z</time>
      </trkpt>
      <trkpt lat="45.92034" lon="6.77134">
        <ele>835</ele>
        <time>2019-04-17T18:48:42Z</time>
      </trkpt>
      <trkpt lat="45.92065" lon="6.7713">
        <ele>836</ele>
        <time>2019-04-17T18:49:42Z</time>
      </trkpt>
      <trkpt lat="45.92088" lon="6.77131">
        <ele>837</ele>
        <time>2019-04-17T18:50:42Z</time>
      </trkpt>
      <trkpt lat="45.92142" lon="6.77141">
        <ele>846</ele>
        <time>2019-04-17T18:51:42Z</time>
      </trkpt>
      <trkpt lat="45.92483" lon="6.77093">
        <ele>825</ele>
        <time>2019-04-17T18:52:42Z</time>
      </trkpt>
      <trkpt lat="45.92531" lon="6.77076">
        <ele>819</ele>
        <time>2019-04-17T18:53:42Z</time>
      </trkpt>
      <trkpt lat="45.92532" lon="6.77081">
        <ele>819</ele>
        <time>2019-04-17T18:54:42Z</time>
      </trkpt>
      <trkpt lat="45.92539" lon="6.77088">
        <ele>821</ele>
        <time>2019-04-17T18:55:42Z</time>
      </trkpt>
      <trkpt lat="45.92543" lon="6.77088">
        <ele>821</ele>
        <time>2019-04-17T18:56:42Z</time>
      </trkpt>
      <trkpt lat="45.92547" lon="6.77086">
        <ele>820</ele>
        <time>2019-04-17T18:57:42Z</time>
      </trkpt>
      <trkpt lat="45.92551" lon="6.77077">
        <ele>819</ele>
        <time>2019-04-17T18:58:42Z</time>
      </trkpt>
      <trkpt lat="45.92551" lon="6.77073">
        <ele>818</ele>
        <time>2019-04-17T18:59:42Z</time>
      </trkpt>
      <trkpt lat="45.92566" lon="6.77073">
        <ele>818</ele>
        <time>2019-04-17T19:00:42Z</time>
      </trkpt>
      <trkpt lat="45.92587" lon="6.77076">
        <ele>818</ele>
        <time>2019-04-17T19:01:42Z</time>
      </trkpt>
      <trkpt lat="45.92747" lon="6.77054">
        <ele>814</ele>
        <time>2019-04-17T19:02:42Z</time>
      </trkpt>
      <trkpt lat="45.92993" lon="6.77018">
        <ele>821</ele>
        <time>2019-04-17T19:03:42Z</time>
      </trkpt>
      <trkpt lat="45.93026" lon="6.77007">
        <ele>822</ele>
        <time>2019-04-17T19:04:42Z</time>
      </trkpt>
      <trkpt lat="45.93051" lon="6.76978">
        <ele>822</ele>
        <time>2019-04-17T19:05:42Z</time>
      </trkpt>
      <trkpt lat="45.93066" lon="6.76952">
        <ele>823</ele>
        <time>2019-04-17T19:06:42Z</time>
      </trkpt>
      <trkpt lat="45.93113" lon="6.7683">
        <ele>819</ele>
        <time>2019-04-17T19:07:42Z</time>
      </trkpt>
      <trkpt lat="45.93136" lon="6.76786">
        <ele>821</ele>
        <time>2019-04-17T19:08:42Z</time>
      </trkpt>
      <trkpt lat="45.93152" lon="6.76734">
        <ele>822</ele>
        <time>2019-04-17T19:09:42Z</time>
      </trkpt>
      <trkpt lat="45.93163" lon="6.7668">
        <ele>820</ele>
        <time>2019-04-17T19:10:42Z</time>
      </trkpt>
      <trkpt lat="45.93196" lon="6.76065">
        <ele>818</ele>
        <time>2019-04-17T19:11:42Z</time>
      </trkpt>
      <trkpt lat="45.93193" lon="6.75995">
        <ele>819</ele>
        <time>2019-04-17T19:12:42Z</time>
      </trkpt>
      <trkpt lat="45.9318" lon="6.75951">
        <ele>819</ele>
        <time>2019-04-17T19:13:42Z</time>
      </trkpt>
      <trkpt lat="45.93119" lon="6.75758">
        <ele>819</ele>
        <time>2019-04-17T19:14:42Z</time>
      </trkpt>
      <trkpt lat="45.93115" lon="6.75737">
        <ele>820</ele>
        <time>2019-04-17T19:15:42Z</time>
      </trkpt>
      <trkpt lat="45.93116" lon="6.75704">
        <ele>821</ele>
        <time>2019-04-17T19:16:42Z</time>
      </trkpt>
      <trkpt lat="45.93122" lon="6.75674">
        <ele>822</ele>
        <time>2019-04-17T19:17:42Z</time>
      </trkpt>
      <trkpt lat="45.93155" lon="6.7558">
        <ele>829</ele>
        <time>2019-04-17T19:18:42Z</time>
      </trkpt>
      <trkpt lat="45.93163" lon="6.75562">
        <ele>830</ele>
        <time>2019-04-17T19:19:42Z</time>
      </trkpt>
      <trkpt lat="45.93179" lon="6.75513">
        <ele>834</ele>
        <time>2019-04-17T19:20:42Z</time>
      </trkpt>
      <trkpt lat="45.93182" lon="6.75471">
        <ele>835</ele>
        <time>2019-04-17T19:21:42Z</time>
      </trkpt>
      <trkpt lat="45.93179" lon="6.75417">
        <ele>832</ele>
        <time>2019-04-17T19:22:42Z</time>
      </trkpt>
      <trkpt lat="45.93186" lon="6.75363">
        <ele>832</ele>
        <time>2019-04-17T19:23:42Z</time>
      </trkpt>
      <trkpt lat="45.93196" lon="6.75316">
        <ele>833</ele>
        <time>2019-04-17T19:24:42Z</time>
      </trkpt>
      <trkpt lat="45.932" lon="6.75282">
        <ele>835</ele>
        <time>2019-04-17T19:25:42Z</time>
      </trkpt>
      <trkpt lat="45.93199" lon="6.75224">
        <ele>834</ele>
        <time>2019-04-17T19:26:42Z</time>
      </trkpt>
      <trkpt lat="45.93203" lon="6.75204">
        <ele>835</ele>
        <time>2019-04-17T19:27:42Z</time>
      </trkpt>
      <trkpt lat="45.93209" lon="6.75186">
        <ele>836</ele>
        <time>2019-04-17T19:28:42Z</time>
      </trkpt>
      <trkpt lat="45.93221" lon="6.75165">
        <ele>839</ele>
        <time>2019-04-17T19:29:42Z</time>
      </trkpt>
      <trkpt lat="45.93231" lon="6.75145">
        <ele>842</ele>
        <time>2019-04-17T19:30:42Z</time>
      </trkpt>
      <trkpt lat="45.93238" lon="6.75125">
        <ele>843</ele>
        <time>2019-04-17T19:31:42Z</time>
      </trkpt>
      <trkpt lat="45.93245" lon="6.75085">
        <ele>845</ele>
        <time>2019-04-17T19:32:42Z</time>
      </trkpt>
      <trkpt lat="45.93249" lon="6.75074">
        <ele>845</ele>
        <time>2019-04-17T19:33:42Z</time>
      </trkpt>
      <trkpt lat="45.93259" lon="6.75057">
        <ele>845</ele>
        <time>2019-04-17T19:34:42Z</time>
      </trkpt>
      <trkpt lat="45.93285" lon="6.75026">
        <ele>846</ele>
        <time>2019-04-17T19:35:42Z</time>
      </trkpt>
      <trkpt lat="45.93311" lon="6.75004">
        <ele>846</ele>
        <time>2019-04-17T19:36:42Z</time>
      </trkpt>
      <trkpt lat="45.9333" lon="6.74985">
        <ele>846</ele>
        <time>2019-04-17T19:37:42Z</time>
      </trkpt>
      <trkpt lat="45.93352" lon="6.74948">
        <ele>845</ele>
        <time>2019-04-17T19:38:42Z</time>
      </trkpt>
      <trkpt lat="45.93373" lon="6.74934">
        <ele>848</ele>
        <time>2019-04-17T19:39:42Z</time>
      </trkpt>
      <trkpt lat="45.93404" lon="6.74928">
        <ele>853</ele>
        <time>2019-04-17T19:40:42Z</time>
      </trkpt>
      <trkpt lat="45.93421" lon="6.7492">
        <ele>856</ele>
        <time>2019-04-17T19:41:42Z</time>
      </trkpt>
      <trkpt lat="45.93432" lon="6.74907">
        <ele>857</ele>
        <time>2019-04-17T19:42:42Z</time>
      </trkpt>
      <trkpt lat="45.9344" lon="6.74892">
        <ele>856</ele>
        <time>2019-04-17T19:43:42Z</time>
      </trkpt>
      <trkpt lat="45.93455" lon="6.74847">
        <ele>854</ele>
        <time>2019-04-17T19:44:42Z</time>
      </trkpt>
      <trkpt lat="45.93467" lon="6.74834">
        <ele>855</ele>
        <time>2019-04-17T19:45:42Z</time>
      </trkpt>
      <trkpt lat="45.93497" lon="6.74816">
        <ele>861</ele>
        <time>2019-04-17T19:46:42Z</time>
      </trkpt>
      <trkpt lat="45.93505" lon="6.74805">
        <ele>862</ele>
        <time>2019-04-17T19:47:42Z</time>
      </trkpt>
      <trkpt lat="45.93509" lon="6.74794">
        <ele>862</ele>
        <time>2019-04-17T19:48:42Z</time>
      </trkpt>
      <trkpt lat="45.93511" lon="6.74746">
        <ele>857</ele>
        <time>2019-04-17T19:49:42Z</time>
      </trkpt>
      <trkpt lat="45.93516" lon="6.74731">
        <ele>858</ele>
        <time>2019-04-17T19:50:42Z</time>
      </trkpt>
      <trkpt lat="45.93541" lon="6.74663">
        <ele>860</ele>
        <time>2019-04-17T19:51:42Z</time>
      </trkpt>
      <trkpt lat="45.93555" lon="6.74648">
        <ele>861</ele>
        <time>2019-04-17T19:52:42Z</time>
      </trkpt>
      <trkpt lat="45.93584" lon="6.74631">
        <ele>866</ele>
        <time>2019-04-17T19:53:42Z</time>
      </trkpt>
      <trkpt lat="45.93622" lon="6.74625">
        <ele>875</ele>
        <time>2019-04-17T19:54:42Z</time>
      </trkpt>
      <trkpt lat="45.93631" lon="6.74612">
        <ele>876</ele>
        <time>2019-04-17T19:55:42Z</time>
      </trkpt>
      <trkpt lat="45.93635" lon="6.74595">
        <ele>874</ele>
        <time>2019-04-17T19:56:42Z</time>
      </trkpt>
      <trkpt lat="45.93635" lon="6.7452">
        <ele>867</ele>
        <time>2019-04-17T19:57:42Z</time>
      </trkpt>
      <trkpt lat="45.93639" lon="6.74496">
        <ele>865</ele>
        <time>2019-04-17T19:58:42Z</time>
      </trkpt>
      <trkpt lat="45.93662" lon="6.74402">
        <ele>863</ele>
        <time>2019-04-17T19:59:42Z</time>
      </trkpt>
      <trkpt lat="45.93674" lon="6.74375">
        <ele>860</ele>
        <time>2019-04-17T20:00:42Z</time>
      </trkpt>
      <trkpt lat="45.93688" lon="6.74351">
        <ele>859</ele>
        <time>2019-04-17T20:01:42Z</time>
      </trkpt>
      <trkpt lat="45.93714" lon="6.7433">
        <ele>860</ele>
        <time>2019-04-17T20:02:42Z</time>
      </trkpt>
      <trkpt lat="45.93795" lon="6.74276">
        <ele>867</ele>
        <time>2019-04-17T20:03:42Z</time>
      </trkpt>
      <trkpt lat="45.93845" lon="6.74216">
        <ele>865</ele>
        <time>2019-04-17T20:04:42Z</time>
      </trkpt>
      <trkpt lat="45.93889" lon="6.74172">
        <ele>865</ele>
        <time>2019-04-17T20:05:42Z</time>
      </trkpt>
      <trkpt lat="45.93903" lon="6.7415">
        <ele>865</ele>
        <time>2019-04-17T20:06:42Z</time>
      </trkpt>
      <trkpt lat="45.93907" lon="6.74137">
        <ele>865</ele>
        <time>2019-04-17T20:07:42Z</time>
      </trkpt>
      <trkpt lat="45.9391" lon="6.74102">
        <ele>863</ele>
        <time>2019-04-17T20:08:42Z</time>
      </trkpt>
      <trkpt lat="45.93908" lon="6.74088">
        <ele>862</ele>
        <time>2019-04-17T20:09:42Z</time>
      </trkpt>
      <trkpt lat="45.93885" lon="6.74004">
        <ele>860</ele>
        <time>2019-04-17T20:10:42Z</time>
      </trkpt>
      <trkpt lat="45.93876" lon="6.73985">
        <ele>858</ele>
        <time>2019-04-17T20:11:42Z</time>
      </trkpt>
      <trkpt lat="45.93837" lon="6.73928">
        <ele>847</ele>
        <time>2019-04-17T20:12:42Z</time>
      </trkpt>
      <trkpt lat="45.93821" lon="6.73903">
        <ele>843</ele>
        <time>2019-04-17T20:13:42Z</time>
      </trkpt>
      <trkpt lat="45.93802" lon="6.73836">
        <ele>843</ele>
        <time>2019-04-17T20:14:42Z</time>
      </trkpt>
      <trkpt lat="45.93795" lon="6.73801">
        <ele>844</ele>
        <time>2019-04-17T20:15:42Z</time>
      </trkpt>
      <trkpt lat="45.93784" lon="6.73765">
        <ele>843</ele>
        <time>2019-04-17T20:16:42Z</time>
      </trkpt>
      <trkpt lat="45.93771" lon="6.73707">
        <ele>843</ele>
        <time>2019-04-17T20:17:42Z</time>
      </trkpt>
      <trkpt lat="45.9375" lon="6.73633">
        <ele>840</ele>
        <time>2019-04-17T20:18:42Z</time>
      </trkpt>
      <trkpt lat="45.93746" lon="6.73566">
        <ele>834</ele>
        <time>2019-04-17T20:19:42Z</time>
      </trkpt>
      <trkpt lat="45.93754" lon="6.73534">
        <ele>831</ele>
        <time>2019-04-17T20:20:42Z</time>
      </trkpt>
      <trkpt lat="45.93788" lon="6.7349">
        <ele>833</ele>
        <time>2019-04-17T20:21:42Z</time>
      </trkpt>
      <trkpt lat="45.93803" lon="6.73467">
        <ele>833</ele>
        <time>2019-04-17T20:22:42Z</time>
      </trkpt>
      <trkpt lat="45.93806" lon="6.73449">
        <ele>831</ele>
        <time>2019-04-17T20:23:42Z</time>
      </trkpt>
      <trkpt lat="45.93805" lon="6.73423">
        <ele>826</ele>
        <time>2019-04-17T20:24:42Z</time>
      </trkpt>
      <trkpt lat="45.93808" lon="6.73405">
        <ele>823</ele>
        <time>2019-04-17T20:25:42Z</time>
      </trkpt>
      <trkpt lat="45.93823" lon="6.73375">
        <ele>820</ele>
        <time>2019-04-17T20:26:42Z</time>
      </trkpt>
      <trkpt lat="45.93828" lon="6.7336">
        <ele>817</ele>
        <time>2019-04-17T20:27:42Z</time>
      </trkpt>
      <trkpt lat="45.93829" lon="6.73345">
        <ele>814</ele>
        <time>2019-04-17T20:28:42Z</time>
      </trkpt>
      <trkpt lat="45.93825" lon="6.73321">
        <ele>810</ele>
        <time>2019-04-17T20:29:42Z</time>
      </trkpt>
      <trkpt lat="45.93816" lon="6.73305">
        <ele>807</ele>
        <time>2019-04-17T20:30:42Z</time>
      </trkpt>
      <trkpt lat="45.93765" lon="6.73224">
        <ele>801</ele>
        <time>2019-04-17T20:31:42Z</time>
      </trkpt>
      <trkpt lat="45.93732" lon="6.73168">
        <ele>801</ele>
        <time>2019-04-17T20:32:42Z</time>
      </trkpt>
      <trkpt lat="45.93709" lon="6.73125">
        <ele>803</ele>
        <time>2019-04-17T20:33:42Z</time>
      </trkpt>
      <trkpt lat="45.93697" lon="6.73099">
        <ele>804</ele>
        <time>2019-04-17T20:34:42Z</time>
      </trkpt>
      <trkpt lat="45.93685" lon="6.73049">
        <ele>813</ele>
        <time>2019-04-17T20:35:42Z</time>
      </trkpt>
      <trkpt lat="45.93678" lon="6.73037">
        <ele>814</ele>
        <time>2019-04-17T20:36:42Z</time>
      </trkpt>
      <trkpt lat="45.93669" lon="6.73028">
        <ele>815</ele>
        <time>2019-04-17T20:37:42Z</time>
      </trkpt>
      <trkpt lat="45.93652" lon="6.73023">
        <ele>812</ele>
        <time>2019-04-17T20:38:42Z</time>
      </trkpt>
      <trkpt lat="45.936" lon="6.73032">
        <ele>799</ele>
        <time>2019-04-17T20:39:42Z</time>
      </trkpt>
      <trkpt lat="45.93574" lon="6.73031">
        <ele>794</ele>
        <time>2019-04-17T20:40:42Z</time>
      </trkpt>
      <trkpt lat="45.93553" lon="6.73027">
        <ele>790</ele>
        <time>2019-04-17T20:41:42Z</time>
      </trkpt>
      <trkpt lat="45.93505" lon="6.72992">
        <ele>784</ele>
        <time>2019-04-17T20:42:42Z</time>
      </trkpt>
      <trkpt lat="45.93496" lon="6.72982">
        <ele>782</ele>
        <time>2019-04-17T20:43:42Z</time>
      </trkpt>
      <trkpt lat="45.93491" lon="6.72973">
        <ele>781</ele>
        <time>2019-04-17T20:44:42Z</time>
      </trkpt>
      <trkpt lat="45.93488" lon="6.72963">
        <ele>781</ele>
        <time>2019-04-17T20:45:42Z</time>
      </trkpt>
      <trkpt lat="45.93488" lon="6.72944">
        <ele>782</ele>
        <time>2019-04-17T20:46:42Z</time>
      </trkpt>
      <trkpt lat="45.93492" lon="6.72902">
        <ele>786</ele>
        <time>2019-04-17T20:47:42Z</time>
      </trkpt>
      <trkpt lat="45.93486" lon="6.72882">
        <ele>787</ele>
        <time>2019-04-17T20:48:42Z</time>
      </trkpt>
      <trkpt lat="45.93479" lon="6.72871">
        <ele>787</ele>
        <time>2019-04-17T20:49:42Z</time>
      </trkpt>
      <trkpt lat="45.93471" lon="6.72864">
        <ele>786</ele>
        <time>2019-04-17T20:50:42Z</time>
      </trkpt>
      <trkpt lat="45.93426" lon="6.72848">
        <ele>779</ele>
        <time>2019-04-17T20:51:42Z</time>
      </trkpt>
      <trkpt lat="45.93415" lon="6.7284">
        <ele>778</ele>
        <time>2019-04-17T20:52:42Z</time>
      </trkpt>
      <trkpt lat="45.93408" lon="6.72827">
        <ele>776</ele>
        <time>2019-04-17T20:53:42Z</time>
      </trkpt>
      <trkpt lat="45.93403" lon="6.72809">
        <ele>774</ele>
        <time>2019-04-17T20:54:42Z</time>
      </trkpt>
      <trkpt lat="45.93402" lon="6.72798">
        <ele>773</ele>
        <time>2019-04-17T20:55:42Z</time>
      </trkpt>
      <trkpt lat="45.93407" lon="6.72774">
        <ele>773</ele>
        <time>2019-04-17T20:56:42Z</time>
      </trkpt>
      <trkpt lat="45.93426" lon="6.72745">
        <ele>777</ele>
        <time>2019-04-17T20:57:42Z</time>
      </trkpt>
      <trkpt lat="45.93451" lon="6.72699">
        <ele>774</ele>
        <time>2019-04-17T20:58:42Z</time>
      </trkpt>
      <trkpt lat="45.93475" lon="6.72659">
        <ele>774</ele>
        <time>2019-04-17T20:59:42Z</time>
      </trkpt>
      <trkpt lat="45.93483" lon="6.72644">
        <ele>775</ele>
        <time>2019-04-17T21:00:42Z</time>
      </trkpt>
      <trkpt lat="45.93488" lon="6.72627">
        <ele>776</ele>
        <time>2019-04-17T21:01:42Z</time>
      </trkpt>
      <trkpt lat="45.9349" lon="6.72614">
        <ele>776</ele>
        <time>2019-04-17T21:02:42Z</time>
      </trkpt>
      <trkpt lat="45.9348" lon="6.72545">
        <ele>768</ele>
        <time>2019-04-17T21:03:42Z</time>
      </trkpt>
      <trkpt lat="45.9348" lon="6.72522">
        <ele>767</ele>
        <time>2019-04-17T21:04:42Z</time>
      </trkpt>
      <trkpt lat="45.93489" lon="6.72432">
        <ele>766</ele>
        <time>2019-04-17T21:05:42Z</time>
      </trkpt>
      <trkpt lat="45.93499" lon="6.72392">
        <ele>768</ele>
        <time>2019-04-17T21:06:42Z</time>
      </trkpt>
      <trkpt lat="45.935" lon="6.72377">
        <ele>768</ele>
        <time>2019-04-17T21:07:42Z</time>
      </trkpt>
      <trkpt lat="45.93493" lon="6.72332">
        <ele>764</ele>
        <time>2019-04-17T21:08:42Z</time>
      </trkpt>
      <trkpt lat="45.93488" lon="6.72282">
        <ele>766</ele>
        <time>2019-04-17T21:09:42Z</time>
      </trkpt>
      <trkpt lat="45.93485" lon="6.72267">
        <ele>767</ele>
        <time>2019-04-17T21:10:42Z</time>
      </trkpt>
      <trkpt lat="45.93453" lon="6.72214">
        <ele>757</ele>
        <time>2019-04-17T21:11:42Z</time>
      </trkpt>
      <trkpt lat="45.93445" lon="6.72197">
        <ele>755</ele>
        <time>2019-04-17T21:12:42Z</time>
      </trkpt>
      <trkpt lat="45.9344" lon="6.72182">
        <ele>753</ele>
        <time>2019-04-17T21:13:42Z</time>
      </trkpt>
      <trkpt lat="45.9344" lon="6.72151">
        <ele>755</ele>
        <time>2019-04-17T21:14:42Z</time>
      </trkpt>
      <trkpt lat="45.93443" lon="6.72088">
        <ele>763</ele>
        <time>2019-04-17T21:15:42Z</time>
      </trkpt>
      <trkpt lat="45.93441" lon="6.72071">
        <ele>765</ele>
        <time>2019-04-17T21:16:42Z</time>
      </trkpt>
      <trkpt lat="45.93436" lon="6.72055">
        <ele>766</ele>
        <time>2019-04-17T21:17:42Z</time>
      </trkpt>
      <trkpt lat="45.93431" lon="6.72045">
        <ele>766</ele>
        <time>2019-04-17T21:18:42Z</time>
      </trkpt>
      <trkpt lat="45.93411" lon="6.72034">
        <ele>760</ele>
        <time>2019-04-17T21:19:42Z</time>
      </trkpt>
      <trkpt lat="45.93391" lon="6.72015">
        <ele>753</ele>
        <time>2019-04-17T21:20:42Z</time>
      </trkpt>
      <trkpt lat="45.9337" lon="6.71974">
        <ele>752</ele>
        <time>2019-04-17T21:21:42Z</time>
      </trkpt>
      <trkpt lat="45.93357" lon="6.71941">
        <ele>756</ele>
        <time>2019-04-17T21:22:42Z</time>
      </trkpt>
      <trkpt lat="45.93351" lon="6.71932">
        <ele>756</ele>
        <time>2019-04-17T21:23:42Z</time>
      </trkpt>
      <trkpt lat="45.93351" lon="6.71947">
        <ele>751</ele>
        <time>2019-04-17T21:24:42Z</time>
      </trkpt>
      <trkpt lat="45.93359" lon="6.71964">
        <ele>750</ele>
        <time>2019-04-17T21:25:42Z</time>
      </trkpt>
      <trkpt lat="45.93367" lon="6.71992">
        <ele>746</ele>
        <time>2019-04-17T21:26:42Z</time>
      </trkpt>
      <trkpt lat="45.93381" lon="6.7205">
        <ele>743</ele>
        <time>2019-04-17T21:27:42Z</time>
      </trkpt>
      <trkpt lat="45.934" lon="6.72111">
        <ele>743</ele>
        <time>2019-04-17T21:28:42Z</time>
      </trkpt>
      <trkpt lat="45.93404" lon="6.72134">
        <ele>743</ele>
        <time>2019-04-17T21:29:42Z</time>
      </trkpt>
      <trkpt lat="45.93403" lon="6.72155">
        <ele>740</ele>
        <time>2019-04-17T21:30:42Z</time>
      </trkpt>
      <trkpt lat="45.93399" lon="6.72181">
        <ele>738</ele>
        <time>2019-04-17T21:31:42Z</time>
      </trkpt>
      <trkpt lat="45.93383" lon="6.72243">
        <ele>731</ele>
        <time>2019-04-17T21:32:42Z</time>
      </trkpt>
      <trkpt lat="45.9338" lon="6.72259">
        <ele>730</ele>
        <time>2019-04-17T21:33:42Z</time>
      </trkpt>
      <trkpt lat="45.93384" lon="6.7228">
        <ele>730</ele>
        <time>2019-04-17T21:34:42Z</time>
      </trkpt>
      <trkpt lat="45.93395" lon="6.72315">
        <ele>732</ele>
        <time>2019-04-17T21:35:42Z</time>
      </trkpt>
      <trkpt lat="45.93396" lon="6.72324">
        <ele>732</ele>
        <time>2019-04-17T21:36:42Z</time>
      </trkpt>
      <trkpt lat="45.93394" lon="6.72331">
        <ele>731</ele>
        <time>2019-04-17T21:37:42Z</time>
      </trkpt>
      <trkpt lat="45.93387" lon="6.72336">
        <ele>729</ele>
        <time>2019-04-17T21:38:42Z</time>
      </trkpt>
      <trkpt lat="45.93358" lon="6.72324">
        <ele>720</ele>
        <time>2019-04-17T21:39:42Z</time>
      </trkpt>
      <trkpt lat="45.93333" lon="6.7231">
        <ele>713</ele>
        <time>2019-04-17T21:40:42Z</time>
      </trkpt>
      <trkpt lat="45.93304" lon="6.7229">
        <ele>708</ele>
        <time>2019-04-17T21:41:42Z</time>
      </trkpt>
      <trkpt lat="45.93286" lon="6.72269">
        <ele>705</ele>
        <time>2019-04-17T21:42:42Z</time>
      </trkpt>
      <trkpt lat="45.93279" lon="6.72253">
        <ele>704</ele>
        <time>2019-04-17T21:43:42Z</time>
      </trkpt>
      <trkpt lat="45.93276" lon="6.72233">
        <ele>704</ele>
        <time>2019-04-17T21:44:42Z</time>
      </trkpt>
      <trkpt lat="45.93276" lon="6.722">
        <ele>703</ele>
        <time>2019-04-17T21:45:42Z</time>
      </trkpt>
      <trkpt lat="45.93282" lon="6.72111">
        <ele>702</ele>
        <time>2019-04-17T21:46:42Z</time>
      </trkpt>
      <trkpt lat="45.93282" lon="6.72097">
        <ele>702</ele>
        <time>2019-04-17T21:47:42Z</time>
      </trkpt>
      <trkpt lat="45.93276" lon="6.72083">
        <ele>700</ele>
        <time>2019-04-17T21:48:42Z</time>
      </trkpt>
      <trkpt lat="45.93267" lon="6.7208">
        <ele>697</ele>
        <time>2019-04-17T21:49:42Z</time>
      </trkpt>
      <trkpt lat="45.93258" lon="6.72081">
        <ele>694</ele>
        <time>2019-04-17T21:50:42Z</time>
      </trkpt>
      <trkpt lat="45.93251" lon="6.72088">
        <ele>693</ele>
        <time>2019-04-17T21:51:42Z</time>
      </trkpt>
      <trkpt lat="45.93241" lon="6.72113">
        <ele>691</ele>
        <time>2019-04-17T21:52:42Z</time>
      </trkpt>
      <trkpt lat="45.93214" lon="6.7219">
        <ele>685</ele>
        <time>2019-04-17T21:53:42Z</time>
      </trkpt>
      <trkpt lat="45.93205" lon="6.72198">
        <ele>681</ele>
        <time>2019-04-17T21:54:42Z</time>
      </trkpt>
      <trkpt lat="45.93195" lon="6.722">
        <ele>678</ele>
        <time>2019-04-17T21:55:42Z</time>
      </trkpt>
      <trkpt lat="45.93186" lon="6.72194">
        <ele>675</ele>
        <time>2019-04-17T21:56:42Z</time>
      </trkpt>
      <trkpt lat="45.93175" lon="6.72179">
        <ele>673</ele>
        <time>2019-04-17T21:57:42Z</time>
      </trkpt>
      <trkpt lat="45.93151" lon="6.72115">
        <ele>665</ele>
        <time>2019-04-17T21:58:42Z</time>
      </trkpt>
      <trkpt lat="45.93145" lon="6.72081">
        <ele>663</ele>
        <time>2019-04-17T21:59:42Z</time>
      </trkpt>
      <trkpt lat="45.93146" lon="6.72065">
        <ele>662</ele>
        <time>2019-04-17T22:00:42Z</time>
      </trkpt>
      <trkpt lat="45.93149" lon="6.72046">
        <ele>661</ele>
        <time>2019-04-17T22:01:42Z</time>
      </trkpt>
      <trkpt lat="45.93149" lon="6.7202">
        <ele>659</ele>
        <time>2019-04-17T22:02:42Z</time>
      </trkpt>
      <trkpt lat="45.93147" lon="6.72009">
        <ele>658</ele>
        <time>2019-04-17T22:03:42Z</time>
      </trkpt>
      <trkpt lat="45.93141" lon="6.72002">
        <ele>656</ele>
        <time>2019-04-17T22:04:42Z</time>
      </trkpt>
      <trkpt lat="45.93135" lon="6.72001">
        <ele>655</ele>
        <time>2019-04-17T22:05:42Z</time>
      </trkpt>
      <trkpt lat="45.93126" lon="6.72002">
        <ele>653</ele>
        <time>2019-04-17T22:06:42Z</time>
      </trkpt>
      <trkpt lat="45.93122" lon="6.72008">
        <ele>652</ele>
        <time>2019-04-17T22:07:42Z</time>
      </trkpt>
      <trkpt lat="45.93118" lon="6.7202">
        <ele>652</ele>
        <time>2019-04-17T22:08:42Z</time>
      </trkpt>
      <trkpt lat="45.93112" lon="6.72068">
        <ele>653</ele>
        <time>2019-04-17T22:09:42Z</time>
      </trkpt>
      <trkpt lat="45.93097" lon="6.72111">
        <ele>647</ele>
        <time>2019-04-17T22:10:42Z</time>
      </trkpt>
      <trkpt lat="45.93094" lon="6.72123">
        <ele>646</ele>
        <time>2019-04-17T22:11:42Z</time>
      </trkpt>
      <trkpt lat="45.93094" lon="6.72138">
        <ele>645</ele>
        <time>2019-04-17T22:12:42Z</time>
      </trkpt>
      <trkpt lat="45.931" lon="6.72184">
        <ele>645</ele>
        <time>2019-04-17T22:13:42Z</time>
      </trkpt>
      <trkpt lat="45.931" lon="6.72205">
        <ele>644</ele>
        <time>2019-04-17T22:14:42Z</time>
      </trkpt>
      <trkpt lat="45.93102" lon="6.72241">
        <ele>643</ele>
        <time>2019-04-17T22:15:42Z</time>
      </trkpt>
      <trkpt lat="45.93102" lon="6.72256">
        <ele>642</ele>
        <time>2019-04-17T22:16:42Z</time>
      </trkpt>
      <trkpt lat="45.93093" lon="6.72299">
        <ele>639</ele>
        <time>2019-04-17T22:17:42Z</time>
      </trkpt>
      <trkpt lat="45.93085" lon="6.72332">
        <ele>637</ele>
        <time>2019-04-17T22:18:42Z</time>
      </trkpt>
      <trkpt lat="45.9307" lon="6.7231">
        <ele>633</ele>
        <time>2019-04-17T22:19:42Z</time>
      </trkpt>
      <trkpt lat="45.93063" lon="6.72286">
        <ele>631</ele>
        <time>2019-04-17T22:20:42Z</time>
      </trkpt>
      <trkpt lat="45.93059" lon="6.72281">
        <ele>631</ele>
        <time>2019-04-17T22:21:42Z</time>
      </trkpt>
      <trkpt lat="45.93015" lon="6.72253">
        <ele>621</ele>
        <time>2019-04-17T22:22:42Z</time>
      </trkpt>
      <trkpt lat="45.93002" lon="6.7224">
        <ele>618</ele>
        <time>2019-04-17T22:23:42Z</time>
      </trkpt>
      <trkpt lat="45.92855" lon="6.72099">
        <ele>602</ele>
        <time>2019-04-17T22:24:42Z</time>
      </trkpt>
      <trkpt lat="45.92768" lon="6.72009">
        <ele>601</ele>
        <time>2019-04-17T22:25:42Z</time>
      </trkpt>
      <trkpt lat="45.92753" lon="6.72005">
        <ele>602</ele>
        <time>2019-04-17T22:26:42Z</time>
      </trkpt>
      <trkpt lat="45.92744" lon="6.72007">
        <ele>602</ele>
        <time>2019-04-17T22:27:42Z</time>
      </trkpt>
      <trkpt lat="45.9274" lon="6.7199">
        <ele>602</ele>
        <time>2019-04-17T22:28:42Z</time>
      </trkpt>
      <trkpt lat="45.9273" lon="6.71973">
        <ele>601</ele>
        <time>2019-04-17T22:29:42Z</time>
      </trkpt>
      <trkpt lat="45.92254" lon="6.71504">
        <ele>591</ele>
        <time>2019-04-17T22:30:42Z</time>
      </trkpt>
      <trkpt lat="45.92149" lon="6.71397">
        <ele>590</ele>
        <time>2019-04-17T22:31:42Z</time>
      </trkpt>
      <trkpt lat="45.92138" lon="6.71383">
        <ele>590</ele>
        <time>2019-04-17T22:32:42Z</time>
      </trkpt>
      <trkpt lat="45.92142" lon="6.7138">
        <ele>590</ele>
        <time>2019-04-17T22:33:42Z</time>
      </trkpt>
      <trkpt lat="45.92144" lon="6.71376">
        <ele>590</ele>
        <time>2019-04-17T22:34:42Z</time>
      </trkpt>
      <trkpt lat="45.92143" lon="6.7137">
        <ele>590</ele>
        <time>2019-04-17T22:35:42Z</time>
      </trkpt>
      <trkpt lat="45.9214" lon="6.71363">
        <ele>590</ele>
        <time>2019-04-17T22:36:42Z</time>
      </trkpt>
      <trkpt lat="45.92134" lon="6.7136">
        <ele>590</ele>
        <time>2019-04-17T22:37:42Z</time>
      </trkpt>
      <trkpt lat="45.92126" lon="6.7136">
        <ele>590</ele>
        <time>2019-04-17T22:38:42Z</time>
      </trkpt>
      <trkpt lat="45.92122" lon="6.71364">
        <ele>590</ele>
        <time>2019-04-17T22:39:42Z</time>
      </trkpt>
      <trkpt lat="45.92121" lon="6.71369">
        <ele>590</ele>
        <time>2019-04-17T22:40:42Z</time>
      </trkpt>
      <trkpt lat="45.9185" lon="6.71192">
        <ele>585</ele>
        <time>2019-04-17T22:41:42Z</time>
      </trkpt>
      <trkpt lat="45.91367" lon="6.7087">
        <ele>581</ele>
        <time>2019-04-17T22:42:42Z</time>
      </trkpt>
      <trkpt lat="45.91349" lon="6.70866">
        <ele>581</ele>
        <time>2019-04-17T22:43:42Z</time>
      </trkpt>
      <trkpt lat="45.91341" lon="6.7086">
        <ele>581</ele>
        <time>2019-04-17T22:44:42Z</time>
      </trkpt>
      <trkpt lat="45.91338" lon="6.70852">
        <ele>580</ele>
        <time>2019-04-17T22:45:42Z</time>
      </trkpt>
      <trkpt lat="45.91331" lon="6.70841">
        <ele>580</ele>
        <time>2019-04-17T22:46:42Z</time>
      </trkpt>
      <trkpt lat="45.91321" lon="6.70839">
        <ele>580</ele>
        <time>2019-04-17T22:47:42Z</time>
      </trkpt>
      <trkpt lat="45.91311" lon="6.70844">
        <ele>580</ele>
        <time>2019-04-17T22:48:42Z</time>
      </trkpt>
      <trkpt lat="45.91297" lon="6.70837">
        <ele>580</ele>
        <time>2019-04-17T22:49:42Z</time>
      </trkpt>
      <trkpt lat="45.91287" lon="6.7083">
        <ele>580</ele>
        <time>2019-04-17T22:50:42Z</time>
      </trkpt>
      <trkpt lat="45.91251" lon="6.70796">
        <ele>580</ele>
        <time>2019-04-17T22:51:42Z</time>
      </trkpt>
      <trkpt lat="45.91212" lon="6.70766">
        <ele>580</ele>
        <time>2019-04-17T22:52:42Z</time>
      </trkpt>
      <trkpt lat="45.91138" lon="6.70715">
        <ele>580</ele>
        <time>2019-04-17T22:53:42Z</time>
      </trkpt>
      <trkpt lat="45.91091" lon="6.70685">
        <ele>581</ele>
        <time>2019-04-17T22:54:42Z</time>
      </trkpt>
      <trkpt lat="45.91049" lon="6.70655">
        <ele>582</ele>
        <time>2019-04-17T22:55:42Z</time>
      </trkpt>
      <trkpt lat="45.90984" lon="6.70613">
        <ele>583</ele>
        <time>2019-04-17T22:56:42Z</time>
      </trkpt>
      <trkpt lat="45.90755" lon="6.70464">
        <ele>589</ele>
        <time>2019-04-17T22:57:42Z</time>
      </trkpt>
      <trkpt lat="45.90566" lon="6.70344">
        <ele>594</ele>
        <time>2019-04-17T22:58:42Z</time>
      </trkpt>
      <trkpt lat="45.90542" lon="6.70336">
        <ele>594</ele>
        <time>2019-04-17T22:59:42Z</time>
      </trkpt>
      <trkpt lat="45.90526" lon="6.70336">
        <ele>595</ele>
        <time>2019-04-17T23:00:42Z</time>
      </trkpt>
      <trkpt lat="45.90491" lon="6.70348">
        <ele>596</ele>
        <time>2019-04-17T23:01:42Z</time>
      </trkpt>
      <trkpt lat="45.90477" lon="6.7035">
        <ele>597</ele>
        <time>2019-04-17T23:02:42Z</time>
      </trkpt>
      <trkpt lat="45.90451" lon="6.70349">
        <ele>597</ele>
        <time>2019-04-17T23:03:42Z</time>
      </trkpt>
      <trkpt lat="45.90444" lon="6.70345">
        <ele>597</ele>
        <time>2019-04-17T23:04:42Z</time>
      </trkpt>
      <trkpt lat="45.90441" lon="6.70337">
        <ele>596</ele>
        <time>2019-04-17T23:05:42Z</time>
      </trkpt>
      <trkpt lat="45.90435" lon="6.70289">
        <ele>597</ele>
        <time>2019-04-17T23:06:42Z</time>
      </trkpt>
      <trkpt lat="45.90438" lon="6.70272">
        <ele>597</ele>
        <time>2019-04-17T23:07:42Z</time>
      </trkpt>
      <trkpt lat="45.90465" lon="6.70199">
        <ele>598</ele>
        <time>2019-04-17T23:08:42Z</time>
      </trkpt>
      <trkpt lat="45.90501" lon="6.70044">
        <ele>586</ele>
        <time>2019-04-17T23:09:42Z</time>
      </trkpt>
      <trkpt lat="45.90511" lon="6.7003">
        <ele>585</ele>
        <time>2019-04-17T23:10:42Z</time>
      </trkpt>
      <trkpt lat="45.90516" lon="6.7003">
        <ele>585</ele>
        <time>2019-04-17T23:11:42Z</time>
      </trkpt>
      <trkpt lat="45.90519" lon="6.70024">
        <ele>585</ele>
        <time>2019-04-17T23:12:42Z</time>
      </trkpt>
      <trkpt lat="45.9052" lon="6.70015">
        <ele>585</ele>
        <time>2019-04-17T23:13:42Z</time>
      </trkpt>
      <trkpt lat="45.90518" lon="6.7">
        <ele>584</ele>
        <time>2019-04-17T23:14:42Z</time>
      </trkpt>
      <trkpt lat="45.90514" lon="6.69987">
        <ele>584</ele>
        <time>2019-04-17T23:15:42Z</time>
      </trkpt>
      <trkpt lat="45.90512" lon="6.69986">
        <ele>584</ele>
        <time>2019-04-17T23:16:42Z</time>
      </trkpt>
      <trkpt lat="45.90498" lon="6.69993">
        <ele>585</ele>
        <time>2019-04-17T23:17:42Z</time>
      </trkpt>
      <trkpt lat="45.90479" lon="6.6999">
        <ele>590</ele>
        <time>2019-04-17T23:18:42Z</time>
      </trkpt>
      <trkpt lat="45.90472" lon="6.69981">
        <ele>591</ele>
        <time>2019-04-17T23:19:42Z</time>
      </trkpt>
      <trkpt lat="45.90462" lon="6.69943">
        <ele>591</ele>
        <time>2019-04-17T23:20:42Z</time>
      </trkpt>
      <trkpt lat="45.9045" lon="6.69921">
        <ele>591</ele>
        <time>2019-04-17T23:21:42Z</time>
      </trkpt>
      <trkpt lat="45.90436" lon="6.69904">
        <ele>592</ele>
        <time>2019-04-17T23:22:42Z</time>
      </trkpt>
      <trkpt lat="45.90409" lon="6.69862">
        <ele>594</ele>
        <time>2019-04-17T23:23:42Z</time>
      </trkpt>
      <trkpt lat="45.90394" lon="6.69848">
        <ele>598</ele>
        <time>2019-04-17T23:24:42Z</time>
      </trkpt>
      <trkpt lat="45.90388" lon="6.69849">
        <ele>600</ele>
        <time>2019-04-17T23:25:42Z</time>
      </trkpt>
      <trkpt lat="45.90385" lon="6.69851">
        <ele>601</ele>
        <time>2019-04-17T23:26:42Z</time>
      </trkpt>
      <trkpt lat="45.90381" lon="6.69858">
        <ele>603</ele>
        <time>2019-04-17T23:27:42Z</time>
      </trkpt>
      <trkpt lat="45.90383" lon="6.6987">
        <ele>603</ele>
        <time>2019-04-17T23:28:42Z</time>
      </trkpt>
      <trkpt lat="45.90384" lon="6.69877">
        <ele>604</ele>
        <time>2019-04-17T23:29:42Z</time>
      </trkpt>
      <trkpt lat="45.90408" lon="6.69923">
        <ele>600</ele>
        <time>2019-04-17T23:30:42Z</time>
      </trkpt>
      <trkpt lat="45.9041" lon="6.69935">
        <ele>601</ele>
        <time>2019-04-17T23:31:42Z</time>
      </trkpt>
      <trkpt lat="45.9041" lon="6.69943">
        <ele>602</ele>
        <time>2019-04-17T23:32:42Z</time>
      </trkpt>
      <trkpt lat="45.90404" lon="6.69954">
        <ele>605</ele>
        <time>2019-04-17T23:33:42Z</time>
      </trkpt>
      <trkpt lat="45.904" lon="6.69957">
        <ele>607</ele>
        <time>2019-04-17T23:34:42Z</time>
      </trkpt>
      <trkpt lat="45.90392" lon="6.69956">
        <ele>610</ele>
        <time>2019-04-17T23:35:42Z</time>
      </trkpt>
      <trkpt lat="45.90385" lon="6.69951">
        <ele>611</ele>
        <time>2019-04-17T23:36:42Z</time>
      </trkpt>
      <trkpt lat="45.90372" lon="6.69937">
        <ele>614</ele>
        <time>2019-04-17T23:37:42Z</time>
      </trkpt>
      <trkpt lat="45.90361" lon="6.69915">
        <ele>616</ele>
        <time>2019-04-17T23:38:42Z</time>
      </trkpt>
      <trkpt lat="45.90333" lon="6.69836">
        <ele>614</ele>
        <time>2019-04-17T23:39:42Z</time>
      </trkpt>
      <trkpt lat="45.90318" lon="6.69787">
        <ele>613</ele>
        <time>2019-04-17T23:40:42Z</time>
      </trkpt>
      <trkpt lat="45.90314" lon="6.69779">
        <ele>613</ele>
        <time>2019-04-17T23:41:42Z</time>
      </trkpt>
      <trkpt lat="45.9031" lon="6.69775">
        <ele>614</ele>
        <time>2019-04-17T23:42:42Z</time>
      </trkpt>
      <trkpt lat="45.90292" lon="6.69771">
        <ele>621</ele>
        <time>2019-04-17T23:43:42Z</time>
      </trkpt>
      <trkpt lat="45.90281" lon="6.69773">
        <ele>625</ele>
        <time>2019-04-17T23:44:42Z</time>
      </trkpt>
      <trkpt lat="45.9027" lon="6.69783">
        <ele>631</ele>
        <time>2019-04-17T23:45:42Z</time>
      </trkpt>
      <trkpt lat="45.90266" lon="6.69788">
        <ele>633</ele>
        <time>2019-04-17T23:46:42Z</time>
      </trkpt>
      <trkpt lat="45.90263" lon="6.6981">
        <ele>636</ele>
        <time>2019-04-17T23:47:42Z</time>
      </trkpt>
      <trkpt lat="45.90263" lon="6.69819">
        <ele>636</ele>
        <time>2019-04-17T23:48:42Z</time>
      </trkpt>
      <trkpt lat="45.90271" lon="6.69842">
        <ele>636</ele>
        <time>2019-04-17T23:49:42Z</time>
      </trkpt>
      <trkpt lat="45.90283" lon="6.69852">
        <ele>633</ele>
        <time>2019-04-17T23:50:42Z</time>
      </trkpt>
      <trkpt lat="45.90296" lon="6.69857">
        <ele>629</ele>
        <time>2019-04-17T23:51:42Z</time>
      </trkpt>
      <trkpt lat="45.90307" lon="6.69866">
        <ele>627</ele>
        <time>2019-04-17T23:52:42Z</time>
      </trkpt>
      <trkpt lat="45.9032" lon="6.69888">
        <ele>626</ele>
        <time>2019-04-17T23:53:42Z</time>
      </trkpt>
      <trkpt lat="45.90323" lon="6.69902">
        <ele>627</ele>
        <time>2019-04-17T23:54:42Z</time>
      </trkpt>
      <trkpt lat="45.90324" lon="6.69933">
        <ele>630</ele>
        <time>2019-04-17T23:55:42Z</time>
      </trkpt>
      <trkpt lat="45.9032" lon="6.69982">
        <ele>635</ele>
        <time>2019-04-17T23:56:42Z</time>
      </trkpt>
      <trkpt lat="45.9032" lon="6.70031">
        <ele>639</ele>
        <time>2019-04-17T23:57:42Z</time>
      </trkpt>
      <trkpt lat="45.90324" lon="6.70089">
        <ele>641</ele>
        <time>2019-04-17T23:58:42Z</time>
      </trkpt>
      <trkpt lat="45.90322" lon="6.701">
        <ele>642</ele>
        <time>2019-04-17T23:59:42Z</time>
      </trkpt>
      <trkpt lat="45.90315" lon="6.70106">
        <ele>644</ele>
        <time>2019-04-18T00:00:42Z</time>
      </trkpt>
      <trkpt lat="45.90304" lon="6.701">
        <ele>648</ele>
        <time>2019-04-18T00:01:42Z</time>
      </trkpt>
      <trkpt lat="45.90299" lon="6.70081">
        <ele>650</ele>
        <time>2019-04-18T00:02:42Z</time>
      </trkpt>
      <trkpt lat="45.90289" lon="6.70002">
        <ele>646</ele>
        <time>2019-04-18T00:03:42Z</time>
      </trkpt>
      <trkpt lat="45.90279" lon="6.69954">
        <ele>644</ele>
        <time>2019-04-18T00:04:42Z</time>
      </trkpt>
      <trkpt lat="45.90273" lon="6.6993">
        <ele>644</ele>
        <time>2019-04-18T00:05:42Z</time>
      </trkpt>
      <trkpt lat="45.90267" lon="6.6992">
        <ele>645</ele>
        <time>2019-04-18T00:06:42Z</time>
      </trkpt>
      <trkpt lat="45.90258" lon="6.69912">
        <ele>646</ele>
        <time>2019-04-18T00:07:42Z</time>
      </trkpt>
      <trkpt lat="45.90253" lon="6.6991">
        <ele>648</ele>
        <time>2019-04-18T00:08:42Z</time>
      </trkpt>
      <trkpt lat="45.90246" lon="6.69916">
        <ele>650</ele>
        <time>2019-04-18T00:09:42Z</time>
      </trkpt>
      <trkpt lat="45.9024" lon="6.69928">
        <ele>652</ele>
        <time>2019-04-18T00:10:42Z</time>
      </trkpt>
      <trkpt lat="45.90233" lon="6.69951">
        <ele>656</ele>
        <time>2019-04-18T00:11:42Z</time>
      </trkpt>
      <trkpt lat="45.90224" lon="6.69974">
        <ele>659</ele>
        <time>2019-04-18T00:12:42Z</time>
      </trkpt>
      <trkpt lat="45.90215" lon="6.69985">
        <ele>661</ele>
        <time>2019-04-18T00:13:42Z</time>
      </trkpt>
      <trkpt lat="45.9018" lon="6.7001">
        <ele>667</ele>
        <time>2019-04-18T00:14:42Z</time>
      </trkpt>
      <trkpt lat="45.9017" lon="6.70025">
        <ele>669</ele>
        <time>2019-04-18T00:15:42Z</time>
      </trkpt>
      <trkpt lat="45.90167" lon="6.70036">
        <ele>670</ele>
        <time>2019-04-18T00:16:42Z</time>
      </trkpt>
      <trkpt lat="45.90168" lon="6.70053">
        <ele>671</ele>
        <time>2019-04-18T00:17:42Z</time>
      </trkpt>
      <trkpt lat="45.90178" lon="6.70078">
        <ele>672</ele>
        <time>2019-04-18T00:18:42Z</time>
      </trkpt>
      <trkpt lat="45.90178" lon="6.70083">
        <ele>672</ele>
        <time>2019-04-18T00:19:42Z</time>
      </trkpt>
      <trkpt lat="45.90177" lon="6.70088">
        <ele>673</ele>
        <time>2019-04-18T00:20:42Z</time>
      </trkpt>
      <trkpt lat="45.90173" lon="6.70095">
        <ele>673</ele>
        <time>2019-04-18T00:21:42Z</time>
      </trkpt>
      <trkpt lat="45.90166" lon="6.70099">
        <ele>674</ele>
        <time>2019-04-18T00:22:42Z</time>
      </trkpt>
      <trkpt lat="45.9016" lon="6.70098">
        <ele>675</ele>
        <time>2019-04-18T00:23:42Z</time>
      </trkpt>
      <trkpt lat="45.90141" lon="6.7008">
        <ele>678</ele>
        <time>2019-04-18T00:24:42Z</time>
      </trkpt>
      <trkpt lat="45.90127" lon="6.70063">
        <ele>681</ele>
        <time>2019-04-18T00:25:42Z</time>
      </trkpt>
      <trkpt lat="45.90102" lon="6.70008">
        <ele>685</ele>
        <time>2019-04-18T00:26:42Z</time>
      </trkpt>
      <trkpt lat="45.90099" lon="6.69997">
        <ele>685</ele>
        <time>2019-04-18T00:27:42Z</time>
      </trkpt>
      <trkpt lat="45.90098" lon="6.6998">
        <ele>687</ele>
        <time>2019-04-18T00:28:42Z</time>
      </trkpt>
      <trkpt lat="45.90111" lon="6.69928">
        <ele>686</ele>
        <time>2019-04-18T00:29:42Z</time>
      </trkpt>
      <trkpt lat="45.90109" lon="6.69914">
        <ele>687</ele>
        <time>2019-04-18T00:30:42Z</time>
      </trkpt>
      <trkpt lat="45.90106" lon="6.69908">
        <ele>688</ele>
        <time>2019-04-18T00:31:42Z</time>
      </trkpt>
      <trkpt lat="45.90101" lon="6.69906">
        <ele>689</ele>
        <time>2019-04-18T00:32:42Z</time>
      </trkpt>
      <trkpt lat="45.90096" lon="6.69906">
        <ele>691</ele>
        <time>2019-04-18T00:33:42Z</time>
      </trkpt>
      <trkpt lat="45.90091" lon="6.69912">
        <ele>692</ele>
        <time>2019-04-18T00:34:42Z</time>
      </trkpt>
      <trkpt lat="45.90078" lon="6.69957">
        <ele>693</ele>
        <time>2019-04-18T00:35:42Z</time>
      </trkpt>
      <trkpt lat="45.90074" lon="6.69965">
        <ele>694</ele>
        <time>2019-04-18T00:36:42Z</time>
      </trkpt>
      <trkpt lat="45.90023" lon="6.70022">
        <ele>705</ele>
        <time>2019-04-18T00:37:42Z</time>
      </trkpt>
      <trkpt lat="45.90018" lon="6.70029">
        <ele>706</ele>
        <time>2019-04-18T00:38:42Z</time>
      </trkpt>
      <trkpt lat="45.89991" lon="6.70097">
        <ele>709</ele>
        <time>2019-04-18T00:39:42Z</time>
      </trkpt>
      <trkpt lat="45.8997" lon="6.70137">
        <ele>714</ele>
        <time>2019-04-18T00:40:42Z</time>
      </trkpt>
      <trkpt lat="45.89964" lon="6.70151">
        <ele>715</ele>
        <time>2019-04-18T00:41:42Z</time>
      </trkpt>
      <trkpt lat="45.89962" lon="6.70161">
        <ele>715</ele>
        <time>2019-04-18T00:42:42Z</time>
      </trkpt>
      <trkpt lat="45.89961" lon="6.7018">
        <ele>715</ele>
        <time>2019-04-18T00:43:42Z</time>
      </trkpt>
      <trkpt lat="45.89967" lon="6.70224">
        <ele>714</ele>
        <time>2019-04-18T00:44:42Z</time>
      </trkpt>
      <trkpt lat="45.89967" lon="6.70235">
        <ele>714</ele>
        <time>2019-04-18T00:45:42Z</time>
      </trkpt>
      <trkpt lat="45.89958" lon="6.7029">
        <ele>718</ele>
        <time>2019-04-18T00:46:42Z</time>
      </trkpt>
      <trkpt lat="45.89953" lon="6.70327">
        <ele>721</ele>
        <time>2019-04-18T00:47:42Z</time>
      </trkpt>
      <trkpt lat="45.89948" lon="6.70348">
        <ele>720</ele>
        <time>2019-04-18T00:48:42Z</time>
      </trkpt>
      <trkpt lat="45.89945" lon="6.70352">
        <ele>720</ele>
        <time>2019-04-18T00:49:42Z</time>
      </trkpt>
      <trkpt lat="45.89942" lon="6.70354">
        <ele>720</ele>
        <time>2019-04-18T00:50:42Z</time>
      </trkpt>
      <trkpt lat="45.89934" lon="6.70353">
        <ele>721</ele>
        <time>2019-04-18T00:51:42Z</time>
      </trkpt>
      <trkpt lat="45.89931" lon="6.70351">
        <ele>721</ele>
        <time>2019-04-18T00:52:42Z</time>
      </trkpt>
      <trkpt lat="45.89929" lon="6.70347">
        <ele>722</ele>
        <time>2019-04-18T00:53:42Z</time>
      </trkpt>
      <trkpt lat="45.89923" lon="6.70324">
        <ele>725</ele>
        <time>2019-04-18T00:54:42Z</time>
      </trkpt>
      <trkpt lat="45.89905" lon="6.70295">
        <ele>727</ele>
        <time>2019-04-18T00:55:42Z</time>
      </trkpt>
      <trkpt lat="45.89897" lon="6.70278">
        <ele>729</ele>
        <time>2019-04-18T00:56:42Z</time>
      </trkpt>
      <trkpt lat="45.89889" lon="6.70232">
        <ele>731</ele>
        <time>2019-04-18T00:57:42Z</time>
      </trkpt>
      <trkpt lat="45.89862" lon="6.7016">
        <ele>742</ele>
        <time>2019-04-18T00:58:42Z</time>
      </trkpt>
      <trkpt lat="45.8986" lon="6.70138">
        <ele>743</ele>
        <time>2019-04-18T00:59:42Z</time>
      </trkpt>
      <trkpt lat="45.89863" lon="6.7011">
        <ele>743</ele>
        <time>2019-04-18T01:00:42Z</time>
      </trkpt>
      <trkpt lat="45.89878" lon="6.70044">
        <ele>740</ele>
        <time>2019-04-18T01:01:42Z</time>
      </trkpt>
      <trkpt lat="45.89879" lon="6.70023">
        <ele>741</ele>
        <time>2019-04-18T01:02:42Z</time>
      </trkpt>
      <trkpt lat="45.89879" lon="6.70017">
        <ele>741</ele>
        <time>2019-04-18T01:03:42Z</time>
      </trkpt>
      <trkpt lat="45.89875" lon="6.7001">
        <ele>742</ele>
        <time>2019-04-18T01:04:42Z</time>
      </trkpt>
      <trkpt lat="45.89858" lon="6.69988">
        <ele>747</ele>
        <time>2019-04-18T01:05:42Z</time>
      </trkpt>
      <trkpt lat="45.8985" lon="6.69974">
        <ele>748</ele>
        <time>2019-04-18T01:06:42Z</time>
      </trkpt>
      <trkpt lat="45.89846" lon="6.6996">
        <ele>748</ele>
        <time>2019-04-18T01:07:42Z</time>
      </trkpt>
      <trkpt lat="45.89833" lon="6.69865">
        <ele>749</ele>
        <time>2019-04-18T01:08:42Z</time>
      </trkpt>
      <trkpt lat="45.8983" lon="6.69803">
        <ele>751</ele>
        <time>2019-04-18T01:09:42Z</time>
      </trkpt>
      <trkpt lat="45.89812" lon="6.69711">
        <ele>757</ele>
        <time>2019-04-18T01:10:42Z</time>
      </trkpt>
      <trkpt lat="45.89807" lon="6.6969">
        <ele>758</ele>
        <time>2019-04-18T01:11:42Z</time>
      </trkpt>
      <trkpt lat="45.89766" lon="6.6957">
        <ele>769</ele>
        <time>2019-04-18T01:12:42Z</time>
      </trkpt>
      <trkpt lat="45.89755" lon="6.69517">
        <ele>774</ele>
        <time>2019-04-18T01:13:42Z</time>
      </trkpt>
      <trkpt lat="45.89744" lon="6.69447">
        <ele>779</ele>
        <time>2019-04-18T01:14:42Z</time>
      </trkpt>
      <trkpt lat="45.89742" lon="6.694">
        <ele>780</ele>
        <time>2019-04-18T01:15:42Z</time>
      </trkpt>
      <trkpt lat="45.89745" lon="6.69348">
        <ele>779</ele>
        <time>2019-04-18T01:16:42Z</time>
      </trkpt>
      <trkpt lat="45.89744" lon="6.69325">
        <ele>779</ele>
        <time>2019-04-18T01:17:42Z</time>
      </trkpt>
      <trkpt lat="45.8974" lon="6.69299">
        <ele>782</ele>
        <time>2019-04-18T01:18:42Z</time>
      </trkpt>
      <trkpt lat="45.89727" lon="6.69241">
        <ele>786</ele>
        <time>2019-04-18T01:19:42Z</time>
      </trkpt>
      <trkpt lat="45.89716" lon="6.69221">
        <ele>788</ele>
        <time>2019-04-18T01:20:42Z</time>
      </trkpt>
      <trkpt lat="45.89667" lon="6.69163">
        <ele>792</ele>
        <time>2019-04-18T01:21:42Z</time>
      </trkpt>
      <trkpt lat="45.89574" lon="6.69046">
        <ele>809</ele>
        <time>2019-04-18T01:22:42Z</time>
      </trkpt>
      <trkpt lat="45.89561" lon="6.6902">
        <ele>814</ele>
        <time>2019-04-18T01:23:42Z</time>
      </trkpt>
      <trkpt lat="45.89555" lon="6.69006">
        <ele>816</ele>
        <time>2019-04-18T01:24:42Z</time>
      </trkpt>
      <trkpt lat="45.89549" lon="6.68997">
        <ele>818</ele>
        <time>2019-04-18T01:25:42Z</time>
      </trkpt>
      <trkpt lat="45.8954" lon="6.68995">
        <ele>823</ele>
        <time>2019-04-18T01:26:42Z</time>
      </trkpt>
      <trkpt lat="45.89536" lon="6.68998">
        <ele>825</ele>
        <time>2019-04-18T01:27:42Z</time>
      </trkpt>
      <trkpt lat="45.89533" lon="6.69003">
        <ele>827</ele>
        <time>2019-04-18T01:28:42Z</time>
      </trkpt>
      <trkpt lat="45.89532" lon="6.69018">
        <ele>829</ele>
        <time>2019-04-18T01:29:42Z</time>
      </trkpt>
      <trkpt lat="45.89548" lon="6.69044">
        <ele>823</ele>
        <time>2019-04-18T01:30:42Z</time>
      </trkpt>
      <trkpt lat="45.89556" lon="6.69063">
        <ele>820</ele>
        <time>2019-04-18T01:31:42Z</time>
      </trkpt>
      <trkpt lat="45.89558" lon="6.69079">
        <ele>821</ele>
        <time>2019-04-18T01:32:42Z</time>
      </trkpt>
      <trkpt lat="45.89558" lon="6.69094">
        <ele>822</ele>
        <time>2019-04-18T01:33:42Z</time>
      </trkpt>
      <trkpt lat="45.89554" lon="6.69119">
        <ele>828</ele>
        <time>2019-04-18T01:34:42Z</time>
      </trkpt>
      <trkpt lat="45.89552" lon="6.69165">
        <ele>834</ele>
        <time>2019-04-18T01:35:42Z</time>
      </trkpt>
      <trkpt lat="45.89554" lon="6.69283">
        <ele>840</ele>
        <time>2019-04-18T01:36:42Z</time>
      </trkpt>
      <trkpt lat="45.89539" lon="6.69368">
        <ele>848</ele>
        <time>2019-04-18T01:37:42Z</time>
      </trkpt>
      <trkpt lat="45.89544" lon="6.69414">
        <ele>847</ele>
        <time>2019-04-18T01:38:42Z</time>
      </trkpt>
      <trkpt lat="45.89535" lon="6.69488">
        <ele>850</ele>
        <time>2019-04-18T01:39:42Z</time>
      </trkpt>
      <trkpt lat="45.89528" lon="6.69614">
        <ele>852</ele>
        <time>2019-04-18T01:40:42Z</time>
      </trkpt>
      <trkpt lat="45.89507" lon="6.69717">
        <ele>856</ele>
        <time>2019-04-18T01:41:42Z</time>
      </trkpt>
      <trkpt lat="45.89491" lon="6.69778">
        <ele>860</ele>
        <time>2019-04-18T01:42:42Z</time>
      </trkpt>
      <trkpt lat="45.89486" lon="6.69802">
        <ele>861</ele>
        <time>2019-04-18T01:43:42Z</time>
      </trkpt>
      <trkpt lat="45.89473" lon="6.69856">
        <ele>864</ele>
        <time>2019-04-18T01:44:42Z</time>
      </trkpt>
      <trkpt lat="45.8947" lon="6.69878">
        <ele>863</ele>
        <time>2019-04-18T01:45:42Z</time>
      </trkpt>
      <trkpt lat="45.89464" lon="6.69887">
        <ele>865</ele>
        <time>2019-04-18T01:46:42Z</time>
      </trkpt>
      <trkpt lat="45.89461" lon="6.69889">
        <ele>866</ele>
        <time>2019-04-18T01:47:42Z</time>
      </trkpt>
      <trkpt lat="45.89453" lon="6.69886">
        <ele>869</ele>
        <time>2019-04-18T01:48:42Z</time>
      </trkpt>
      <trkpt lat="45.89463" lon="6.69823">
        <ele>870</ele>
        <time>2019-04-18T01:49:42Z</time>
      </trkpt>
      <trkpt lat="45.89465" lon="6.69792">
        <ele>869</ele>
        <time>2019-04-18T01:50:42Z</time>
      </trkpt>
      <trkpt lat="45.89461" lon="6.6976">
        <ele>870</ele>
        <time>2019-04-18T01:51:42Z</time>
      </trkpt>
      <trkpt lat="45.89444" lon="6.69713">
        <ele>874</ele>
        <time>2019-04-18T01:52:42Z</time>
      </trkpt>
      <trkpt lat="45.89442" lon="6.69696">
        <ele>875</ele>
        <time>2019-04-18T01:53:42Z</time>
      </trkpt>
      <trkpt lat="45.89441" lon="6.69666">
        <ele>874</ele>
        <time>2019-04-18T01:54:42Z</time>
      </trkpt>
      <trkpt lat="45.89418" lon="6.69573">
        <ele>881</ele>
        <time>2019-04-18T01:55:42Z</time>
      </trkpt>
      <trkpt lat="45.89409" lon="6.69503">
        <ele>888</ele>
        <time>2019-04-18T01:56:42Z</time>
      </trkpt>
      <trkpt lat="45.89406" lon="6.69458">
        <ele>893</ele>
        <time>2019-04-18T01:57:42Z</time>
      </trkpt>
      <trkpt lat="45.89406" lon="6.69425">
        <ele>896</ele>
        <time>2019-04-18T01:58:42Z</time>
      </trkpt>
      <trkpt lat="45.89415" lon="6.69326">
        <ele>898</ele>
        <time>2019-04-18T01:59:42Z</time>
      </trkpt>
      <trkpt lat="45.89408" lon="6.69304">
        <ele>897</ele>
        <time>2019-04-18T02:00:42Z</time>
      </trkpt>
      <trkpt lat="45.89399" lon="6.6929">
        <ele>897</ele>
        <time>2019-04-18T02:01:42Z</time>
      </trkpt>
      <trkpt lat="45.89384" lon="6.69283">
        <ele>898</ele>
        <time>2019-04-18T02:02:42Z</time>
      </trkpt>
      <trkpt lat="45.89361" lon="6.69286">
        <ele>901</ele>
        <time>2019-04-18T02:03:42Z</time>
      </trkpt>
      <trkpt lat="45.89346" lon="6.69282">
        <ele>902</ele>
        <time>2019-04-18T02:04:42Z</time>
      </trkpt>
      <trkpt lat="45.89338" lon="6.69275">
        <ele>903</ele>
        <time>2019-04-18T02:05:42Z</time>
      </trkpt>
      <trkpt lat="45.89332" lon="6.69266">
        <ele>903</ele>
        <time>2019-04-18T02:06:42Z</time>
      </trkpt>
      <trkpt lat="45.8933" lon="6.69247">
        <ele>903</ele>
        <time>2019-04-18T02:07:42Z</time>
      </trkpt>
      <trkpt lat="45.8933" lon="6.69226">
        <ele>903</ele>
        <time>2019-04-18T02:08:42Z</time>
      </trkpt>
      <trkpt lat="45.89336" lon="6.69185">
        <ele>902</ele>
        <time>2019-04-18T02:09:42Z</time>
      </trkpt>
      <trkpt lat="45.89337" lon="6.69135">
        <ele>903</ele>
        <time>2019-04-18T02:10:42Z</time>
      </trkpt>
      <trkpt lat="45.89334" lon="6.69079">
        <ele>906</ele>
        <time>2019-04-18T02:11:42Z</time>
      </trkpt>
      <trkpt lat="45.89329" lon="6.69033">
        <ele>905</ele>
        <time>2019-04-18T02:12:42Z</time>
      </trkpt>
      <trkpt lat="45.89321" lon="6.69001">
        <ele>905</ele>
        <time>2019-04-18T02:13:42Z</time>
      </trkpt>
      <trkpt lat="45.89284" lon="6.68937">
        <ele>910</ele>
        <time>2019-04-18T02:14:42Z</time>
      </trkpt>
      <trkpt lat="45.89263" lon="6.68877">
        <ele>912</ele>
        <time>2019-04-18T02:15:42Z</time>
      </trkpt>
      <trkpt lat="45.89253" lon="6.68859">
        <ele>913</ele>
        <time>2019-04-18T02:16:42Z</time>
      </trkpt>
      <trkpt lat="45.89233" lon="6.6883">
        <ele>917</ele>
        <time>2019-04-18T02:17:42Z</time>
      </trkpt>
      <trkpt lat="45.89222" lon="6.68806">
        <ele>918</ele>
        <time>2019-04-18T02:18:42Z</time>
      </trkpt>
      <trkpt lat="45.89204" lon="6.6876">
        <ele>921</ele>
        <time>2019-04-18T02:19:42Z</time>
      </trkpt>
      <trkpt lat="45.89185" lon="6.6872">
        <ele>922</ele>
        <time>2019-04-18T02:20:42Z</time>
      </trkpt>
      <trkpt lat="45.89164" lon="6.68667">
        <ele>922</ele>
        <time>2019-04-18T02:21:42Z</time>
      </trkpt>
      <trkpt lat="45.89145" lon="6.68607">
        <ele>924</ele>
        <time>2019-04-18T02:22:42Z</time>
      </trkpt>
      <trkpt lat="45.89108" lon="6.68542">
        <ele>930</ele>
        <time>2019-04-18T02:23:42Z</time>
      </trkpt>
      <trkpt lat="45.89103" lon="6.68468">
        <ele>925</ele>
        <time>2019-04-18T02:24:42Z</time>
      </trkpt>
      <trkpt lat="45.89094" lon="6.68441">
        <ele>926</ele>
        <time>2019-04-18T02:25:42Z</time>
      </trkpt>
      <trkpt lat="45.89077" lon="6.68426">
        <ele>930</ele>
        <time>2019-04-18T02:26:42Z</time>
      </trkpt>
      <trkpt lat="45.89051" lon="6.68409">
        <ele>938</ele>
        <time>2019-04-18T02:27:42Z</time>
      </trkpt>
      <trkpt lat="45.89045" lon="6.68401">
        <ele>939</ele>
        <time>2019-04-18T02:28:42Z</time>
      </trkpt>
      <trkpt lat="45.89038" lon="6.68383">
        <ele>940</ele>
        <time>2019-04-18T02:29:42Z</time>
      </trkpt>
      <trkpt lat="45.89035" lon="6.68363">
        <ele>940</ele>
        <time>2019-04-18T02:30:42Z</time>
      </trkpt>
      <trkpt lat="45.89042" lon="6.68232">
        <ele>940</ele>
        <time>2019-04-18T02:31:42Z</time>
      </trkpt>
      <trkpt lat="45.89039" lon="6.68206">
        <ele>941</ele>
        <time>2019-04-18T02:32:42Z</time>
      </trkpt>
      <trkpt lat="45.89024" lon="6.68153">
        <ele>950</ele>
        <time>2019-04-18T02:33:42Z</time>
      </trkpt>
      <trkpt lat="45.89025" lon="6.6812">
        <ele>953</ele>
        <time>2019-04-18T02:34:42Z</time>
      </trkpt>
      <trkpt lat="45.89049" lon="6.68064">
        <ele>947</ele>
        <time>2019-04-18T02:35:42Z</time>
      </trkpt>
      <trkpt lat="45.89056" lon="6.6803">
        <ele>948</ele>
        <time>2019-04-18T02:36:42Z</time>
      </trkpt>
      <trkpt lat="45.89064" lon="6.67981">
        <ele>950</ele>
        <time>2019-04-18T02:37:42Z</time>
      </trkpt>
      <trkpt lat="45.89077" lon="6.67845">
        <ele>954</ele>
        <time>2019-04-18T02:38:42Z</time>
      </trkpt>
      <trkpt lat="45.89088" lon="6.67803">
        <ele>951</ele>
        <time>2019-04-18T02:39:42Z</time>
      </trkpt>
      <trkpt lat="45.89088" lon="6.6778">
        <ele>951</ele>
        <time>2019-04-18T02:40:42Z</time>
      </trkpt>
      <trkpt lat="45.89084" lon="6.67759">
        <ele>952</ele>
        <time>2019-04-18T02:41:42Z</time>
      </trkpt>
      <trkpt lat="45.89074" lon="6.67717">
        <ele>953</ele>
        <time>2019-04-18T02:42:42Z</time>
      </trkpt>
      <trkpt lat="45.89064" lon="6.67682">
        <ele>955</ele>
        <time>2019-04-18T02:43:42Z</time>
      </trkpt>
      <trkpt lat="45.89059" lon="6.67658">
        <ele>957</ele>
        <time>2019-04-18T02:44:42Z</time>
      </trkpt>
      <trkpt lat="45.89046" lon="6.67514">
        <ele>970</ele>
        <time>2019-04-18T02:45:42Z</time>
      </trkpt>
      <trkpt lat="45.89048" lon="6.67474">
        <ele>971</ele>
        <time>2019-04-18T02:46:42Z</time>
      </trkpt>
      <trkpt lat="45.89059" lon="6.67411">
        <ele>970</ele>
        <time>2019-04-18T02:47:42Z</time>
      </trkpt>
      <trkpt lat="45.89058" lon="6.674">
        <ele>970</ele>
        <time>2019-04-18T02:48:42Z</time>
      </trkpt>
      <trkpt lat="45.89051" lon="6.67379">
        <ele>973</ele>
        <time>2019-04-18T02:49:42Z</time>
      </trkpt>
      <trkpt lat="45.89049" lon="6.67355">
        <ele>974</ele>
        <time>2019-04-18T02:50:42Z</time>
      </trkpt>
      <trkpt lat="45.89059" lon="6.67314">
        <ele>973</ele>
        <time>2019-04-18T02:51:42Z</time>
      </trkpt>
      <trkpt lat="45.89059" lon="6.67302">
        <ele>974</ele>
        <time>2019-04-18T02:52:42Z</time>
      </trkpt>
      <trkpt lat="45.89058" lon="6.67292">
        <ele>975</ele>
        <time>2019-04-18T02:53:42Z</time>
      </trkpt>
      <trkpt lat="45.8905" lon="6.67261">
        <ele>979</ele>
        <time>2019-04-18T02:54:42Z</time>
      </trkpt>
      <trkpt lat="45.89049" lon="6.67246">
        <ele>980</ele>
        <time>2019-04-18T02:55:42Z</time>
      </trkpt>
      <trkpt lat="45.8905" lon="6.67236">
        <ele>980</ele>
        <time>2019-04-18T02:56:42Z</time>
      </trkpt>
      <trkpt lat="45.89064" lon="6.6717">
        <ele>980</ele>
        <time>2019-04-18T02:57:42Z</time>
      </trkpt>
      <trkpt lat="45.89064" lon="6.67158">
        <ele>980</ele>
        <time>2019-04-18T02:58:42Z</time>
      </trkpt>
      <trkpt lat="45.89063" lon="6.6713">
        <ele>982</ele>
        <time>2019-04-18T02:59:42Z</time>
      </trkpt>
      <trkpt lat="45.89064" lon="6.67115">
        <ele>983</ele>
        <time>2019-04-18T03:00:42Z</time>
      </trkpt>
      <trkpt lat="45.89066" lon="6.67105">
        <ele>983</ele>
        <time>2019-04-18T03:01:42Z</time>
      </trkpt>
      <trkpt lat="45.89087" lon="6.67059">
        <ele>980</ele>
        <time>2019-04-18T03:02:42Z</time>
      </trkpt>
      <trkpt lat="45.8909" lon="6.67043">
        <ele>981</ele>
        <time>2019-04-18T03:03:42Z</time>
      </trkpt>
      <trkpt lat="45.8909" lon="6.67018">
        <ele>982</ele>
        <time>2019-04-18T03:04:42Z</time>
      </trkpt>
      <trkpt lat="45.89082" lon="6.66983">
        <ele>986</ele>
        <time>2019-04-18T03:05:42Z</time>
      </trkpt>
      <trkpt lat="45.89082" lon="6.66972">
        <ele>987</ele>
        <time>2019-04-18T03:06:42Z</time>
      </trkpt>
      <trkpt lat="45.89085" lon="6.66957">
        <ele>987</ele>
        <time>2019-04-18T03:07:42Z</time>
      </trkpt>
      <trkpt lat="45.89094" lon="6.6694">
        <ele>986</ele>
        <time>2019-04-18T03:08:42Z</time>
      </trkpt>
      <trkpt lat="45.89134" lon="6.66886">
        <ele>984</ele>
        <time>2019-04-18T03:09:42Z</time>
      </trkpt>
      <trkpt lat="45.89151" lon="6.66857">
        <ele>984</ele>
        <time>2019-04-18T03:10:42Z</time>
      </trkpt>
      <trkpt lat="45.89167" lon="6.66818">
        <ele>984</ele>
        <time>2019-04-18T03:11:42Z</time>
      </trkpt>
      <trkpt lat="45.89215" lon="6.66643">
        <ele>987</ele>
        <time>2019-04-18T03:12:42Z</time>
      </trkpt>
      <trkpt lat="45.89242" lon="6.66522">
        <ele>987</ele>
        <time>2019-04-18T03:13:42Z</time>
      </trkpt>
      <trkpt lat="45.89249" lon="6.66432">
        <ele>990</ele>
        <time>2019-04-18T03:14:42Z</time>
      </trkpt>
      <trkpt lat="45.8927" lon="6.66304">
        <ele>993</ele>
        <time>2019-04-18T03:15:42Z</time>
      </trkpt>
      <trkpt lat="45.89278" lon="6.66229">
        <ele>995</ele>
        <time>2019-04-18T03:16:42Z</time>
      </trkpt>
      <trkpt lat="45.89288" lon="6.66116">
        <ele>993</ele>
        <time>2019-04-18T03:17:42Z</time>
      </trkpt>
      <trkpt lat="45.89294" lon="6.66015">
        <ele>992</ele>
        <time>2019-04-18T03:18:42Z</time>
      </trkpt>
      <trkpt lat="45.89294" lon="6.65838">
        <ele>998</ele>
        <time>2019-04-18T03:19:42Z</time>
      </trkpt>
      <trkpt lat="45.89291" lon="6.65772">
        <ele>999</ele>
        <time>2019-04-18T03:20:42Z</time>
      </trkpt>
      <trkpt lat="45.89289" lon="6.65751">
        <ele>1000</ele>
        <time>2019-04-18T03:21:42Z</time>
      </trkpt>
      <trkpt lat="45.89284" lon="6.6573">
        <ele>999</ele>
        <time>2019-04-18T03:22:42Z</time>
      </trkpt>
      <trkpt lat="45.89271" lon="6.65692">
        <ele>999</ele>
        <time>2019-04-18T03:23:42Z</time>
      </trkpt>
      <trkpt lat="45.89255" lon="6.65666">
        <ele>1000</ele>
        <time>2019-04-18T03:24:42Z</time>
      </trkpt>
      <trkpt lat="45.89204" lon="6.65609">
        <ele>1004</ele>
        <time>2019-04-18T03:25:42Z</time>
      </trkpt>
      <trkpt lat="45.89194" lon="6.65591">
        <ele>1004</ele>
        <time>2019-04-18T03:26:42Z</time>
      </trkpt>
      <trkpt lat="45.89174" lon="6.65545">
        <ele>1003</ele>
        <time>2019-04-18T03:27:42Z</time>
      </trkpt>
      <trkpt lat="45.89158" lon="6.65512">
        <ele>1002</ele>
        <time>2019-04-18T03:28:42Z</time>
      </trkpt>
      <trkpt lat="45.89135" lon="6.6548">
        <ele>1002</ele>
        <time>2019-04-18T03:29:42Z</time>
      </trkpt>
      <trkpt lat="45.89105" lon="6.65449">
        <ele>1004</ele>
        <time>2019-04-18T03:30:42Z</time>
      </trkpt>
      <trkpt lat="45.89089" lon="6.65437">
        <ele>1006</ele>
        <time>2019-04-18T03:31:42Z</time>
      </trkpt>
      <trkpt lat="45.89056" lon="6.65372">
        <ele>1005</ele>
        <time>2019-04-18T03:32:42Z</time>
      </trkpt>
      <trkpt lat="45.89029" lon="6.65341">
        <ele>1007</ele>
        <time>2019-04-18T03:33:42Z</time>
      </trkpt>
      <trkpt lat="45.8901" lon="6.65323">
        <ele>1009</ele>
        <time>2019-04-18T03:34:42Z</time>
      </trkpt>
      <trkpt lat="45.88997" lon="6.653">
        <ele>1010</ele>
        <time>2019-04-18T03:35:42Z</time>
      </trkpt>
      <trkpt lat="45.88967" lon="6.65215">
        <ele>1010</ele>
        <time>2019-04-18T03:36:42Z</time>
      </trkpt>
      <trkpt lat="45.88946" lon="6.65158">
        <ele>1011</ele>
        <time>2019-04-18T03:37:42Z</time>
      </trkpt>
      <trkpt lat="45.8892" lon="6.65105">
        <ele>1014</ele>
        <time>2019-04-18T03:38:42Z</time>
      </trkpt>
      <trkpt lat="45.88904" lon="6.6508">
        <ele>1014</ele>
        <time>2019-04-18T03:39:42Z</time>
      </trkpt>
      <trkpt lat="45.8889" lon="6.65051">
        <ele>1014</ele>
        <time>2019-04-18T03:40:42Z</time>
      </trkpt>
      <trkpt lat="45.88881" lon="6.65028">
        <ele>1014</ele>
        <time>2019-04-18T03:41:42Z</time>
      </trkpt>
      <trkpt lat="45.88875" lon="6.65004">
        <ele>1014</ele>
        <time>2019-04-18T03:42:42Z</time>
      </trkpt>
      <trkpt lat="45.88869" lon="6.64946">
        <ele>1010</ele>
        <time>2019-04-18T03:43:42Z</time>
      </trkpt>
      <trkpt lat="45.88863" lon="6.64924">
        <ele>1009</ele>
        <time>2019-04-18T03:44:42Z</time>
      </trkpt>
      <trkpt lat="45.88859" lon="6.64913">
        <ele>1009</ele>
        <time>2019-04-18T03:45:42Z</time>
      </trkpt>
      <trkpt lat="45.88851" lon="6.64902">
        <ele>1011</ele>
        <time>2019-04-18T03:46:42Z</time>
      </trkpt>
      <trkpt lat="45.88838" lon="6.64895">
        <ele>1013</ele>
        <time>2019-04-18T03:47:42Z</time>
      </trkpt>
      <trkpt lat="45.88829" lon="6.64894">
        <ele>1014</ele>
        <time>2019-04-18T03:48:42Z</time>
      </trkpt>
      <trkpt lat="45.88818" lon="6.64896">
        <ele>1014</ele>
        <time>2019-04-18T03:49:42Z</time>
      </trkpt>
      <trkpt lat="45.88801" lon="6.64912">
        <ele>1014</ele>
        <time>2019-04-18T03:50:42Z</time>
      </trkpt>
      <trkpt lat="45.88792" lon="6.6493">
        <ele>1016</ele>
        <time>2019-04-18T03:51:42Z</time>
      </trkpt>
      <trkpt lat="45.88766" lon="6.65">
        <ele>1021</ele>
        <time>2019-04-18T03:52:42Z</time>
      </trkpt>
      <trkpt lat="45.88754" lon="6.65019">
        <ele>1022</ele>
        <time>2019-04-18T03:53:42Z</time>
      </trkpt>
      <trkpt lat="45.88737" lon="6.65036">
        <ele>1024</ele>
        <time>2019-04-18T03:54:42Z</time>
      </trkpt>
      <trkpt lat="45.88724" lon="6.65041">
        <ele>1024</ele>
        <time>2019-04-18T03:55:42Z</time>
      </trkpt>
      <trkpt lat="45.88696" lon="6.6504">
        <ele>1024</ele>
        <time>2019-04-18T03:56:42Z</time>
      </trkpt>
      <trkpt lat="45.88677" lon="6.6503">
        <ele>1023</ele>
        <time>2019-04-18T03:57:42Z</time>
      </trkpt>
      <trkpt lat="45.88655" lon="6.65011">
        <ele>1022</ele>
        <time>2019-04-18T03:58:42Z</time>
      </trkpt>
      <trkpt lat="45.88567" lon="6.64929">
        <ele>1027</ele>
        <time>2019-04-18T03:59:42Z</time>
      </trkpt>
      <trkpt lat="45.88557" lon="6.64914">
        <ele>1028</ele>
        <time>2019-04-18T04:00:42Z</time>
      </trkpt>
      <trkpt lat="45.88549" lon="6.64898">
        <ele>1028</ele>
        <time>2019-04-18T04:01:42Z</time>
      </trkpt>
      <trkpt lat="45.88525" lon="6.64819">
        <ele>1027</ele>
        <time>2019-04-18T04:02:42Z</time>
      </trkpt>
      <trkpt lat="45.88517" lon="6.648">
        <ele>1027</ele>
        <time>2019-04-18T04:03:42Z</time>
      </trkpt>
      <trkpt lat="45.88502" lon="6.64779">
        <ele>1028</ele>
        <time>2019-04-18T04:04:42Z</time>
      </trkpt>
      <trkpt lat="45.88469" lon="6.64741">
        <ele>1031</ele>
        <time>2019-04-18T04:05:42Z</time>
      </trkpt>
      <trkpt lat="45.88442" lon="6.64707">
        <ele>1033</ele>
        <time>2019-04-18T04:06:42Z</time>
      </trkpt>
      <trkpt lat="45.88431" lon="6.64688">
        <ele>1032</ele>
        <time>2019-04-18T04:07:42Z</time>
      </trkpt>
      <trkpt lat="45.884" lon="6.64606">
        <ele>1033</ele>
        <time>2019-04-18T04:08:42Z</time>
      </trkpt>
      <trkpt lat="45.88381" lon="6.64583">
        <ele>1035</ele>
        <time>2019-04-18T04:09:42Z</time>
      </trkpt>
      <trkpt lat="45.88338" lon="6.64542">
        <ele>1039</ele>
        <time>2019-04-18T04:10:42Z</time>
      </trkpt>
      <trkpt lat="45.88312" lon="6.64512">
        <ele>1041</ele>
        <time>2019-04-18T04:11:42Z</time>
      </trkpt>
      <trkpt lat="45.88306" lon="6.64504">
        <ele>1042</ele>
        <time>2019-04-18T04:12:42Z</time>
      </trkpt>
      <trkpt lat="45.88298" lon="6.64487">
        <ele>1042</ele>
        <time>2019-04-18T04:13:42Z</time>
      </trkpt>
      <trkpt lat="45.88292" lon="6.64465">
        <ele>1043</ele>
        <time>2019-04-18T04:14:42Z</time>
      </trkpt>
      <trkpt lat="45.88285" lon="6.64398">
        <ele>1042</ele>
        <time>2019-04-18T04:15:42Z</time>
      </trkpt>
      <trkpt lat="45.8828" lon="6.64359">
        <ele>1042</ele>
        <time>2019-04-18T04:16:42Z</time>
      </trkpt>
      <trkpt lat="45.88273" lon="6.64332">
        <ele>1042</ele>
        <time>2019-04-18T04:17:42Z</time>
      </trkpt>
      <trkpt lat="45.8825" lon="6.64279">
        <ele>1044</ele>
        <time>2019-04-18T04:18:42Z</time>
      </trkpt>
      <trkpt lat="45.88244" lon="6.64263">
        <ele>1044</ele>
        <time>2019-04-18T04:19:42Z</time>
      </trkpt>
      <trkpt lat="45.88242" lon="6.64251">
        <ele>1045</ele>
        <time>2019-04-18T04:20:42Z</time>
      </trkpt>
      <trkpt lat="45.88244" lon="6.64236">
        <ele>1045</ele>
        <time>2019-04-18T04:21:42Z</time>
      </trkpt>
      <trkpt lat="45.88254" lon="6.64205">
        <ele>1045</ele>
        <time>2019-04-18T04:22:42Z</time>
      </trkpt>
      <trkpt lat="45.88261" lon="6.64204">
        <ele>1044</ele>
        <time>2019-04-18T04:23:42Z</time>
      </trkpt>
      <trkpt lat="45.88267" lon="6.64201">
        <ele>1044</ele>
        <time>2019-04-18T04:24:42Z</time>
      </trkpt>
      <trkpt lat="45.88271" lon="6.64194">
        <ele>1045</ele>
        <time>2019-04-18T04:25:42Z</time>
      </trkpt>
      <trkpt lat="45.88275" lon="6.64186">
        <ele>1045</ele>
        <time>2019-04-18T04:26:42Z</time>
      </trkpt>
      <trkpt lat="45.88276" lon="6.64177">
        <ele>1045</ele>
        <time>2019-04-18T04:27:42Z</time>
      </trkpt>
      <trkpt lat="45.88274" lon="6.64167">
        <ele>1046</ele>
        <time>2019-04-18T04:28:42Z</time>
      </trkpt>
      <trkpt lat="45.8827" lon="6.64158">
        <ele>1046</ele>
        <time>2019-04-18T04:29:42Z</time>
      </trkpt>
      <trkpt lat="45.88265" lon="6.64152">
        <ele>1046</ele>
        <time>2019-04-18T04:30:42Z</time>
      </trkpt>
      <trkpt lat="45.88258" lon="6.64149">
        <ele>1046</ele>
        <time>2019-04-18T04:31:42Z</time>
      </trkpt>
      <trkpt lat="45.88247" lon="6.64132">
        <ele>1047</ele>
        <time>2019-04-18T04:32:42Z</time>
      </trkpt>
      <trkpt lat="45.88229" lon="6.64109">
        <ele>1048</ele>
        <time>2019-04-18T04:33:42Z</time>
      </trkpt>
      <trkpt lat="45.8812" lon="6.64038">
        <ele>1053</ele>
        <time>2019-04-18T04:34:42Z</time>
      </trkpt>
      <trkpt lat="45.88092" lon="6.64017">
        <ele>1054</ele>
        <time>2019-04-18T04:35:42Z</time>
      </trkpt>
      <trkpt lat="45.88062" lon="6.63981">
        <ele>1055</ele>
        <time>2019-04-18T04:36:42Z</time>
      </trkpt>
      <trkpt lat="45.8804" lon="6.63946">
        <ele>1057</ele>
        <time>2019-04-18T04:37:42Z</time>
      </trkpt>
      <trkpt lat="45.8802" lon="6.63908">
        <ele>1058</ele>
        <time>2019-04-18T04:38:42Z</time>
      </trkpt>
      <trkpt lat="45.87998" lon="6.63873">
        <ele>1060</ele>
        <time>2019-04-18T04:39:42Z</time>
      </trkpt>
      <trkpt lat="45.87969" lon="6.63841">
        <ele>1061</ele>
        <time>2019-04-18T04:40:42Z</time>
      </trkpt>
      <trkpt lat="45.87932" lon="6.63807">
        <ele>1061</ele>
        <time>2019-04-18T04:41:42Z</time>
      </trkpt>
      <trkpt lat="45.87822" lon="6.63729">
        <ele>1065</ele>
        <time>2019-04-18T04:42:42Z</time>
      </trkpt>
      <trkpt lat="45.87802" lon="6.63707">
        <ele>1066</ele>
        <time>2019-04-18T04:43:42Z</time>
      </trkpt>
      <trkpt lat="45.8772" lon="6.6358">
        <ele>1070</ele>
        <time>2019-04-18T04:44:42Z</time>
      </trkpt>
      <trkpt lat="45.87698" lon="6.63564">
        <ele>1071</ele>
        <time>2019-04-18T04:45:42Z</time>
      </trkpt>
      <trkpt lat="45.87675" lon="6.63561">
        <ele>1072</ele>
        <time>2019-04-18T04:46:42Z</time>
      </trkpt>
      <trkpt lat="45.87649" lon="6.63567">
        <ele>1073</ele>
        <time>2019-04-18T04:47:42Z</time>
      </trkpt>
      <trkpt lat="45.87627" lon="6.63569">
        <ele>1074</ele>
        <time>2019-04-18T04:48:42Z</time>
      </trkpt>
      <trkpt lat="45.87611" lon="6.63567">
        <ele>1076</ele>
        <time>2019-04-18T04:49:42Z</time>
      </trkpt>
      <trkpt lat="45.87598" lon="6.63559">
        <ele>1077</ele>
        <time>2019-04-18T04:50:42Z</time>
      </trkpt>
      <trkpt lat="45.87576" lon="6.63541">
        <ele>1079</ele>
        <time>2019-04-18T04:51:42Z</time>
      </trkpt>
      <trkpt lat="45.87555" lon="6.63516">
        <ele>1080</ele>
        <time>2019-04-18T04:52:42Z</time>
      </trkpt>
      <trkpt lat="45.87542" lon="6.63492">
        <ele>1081</ele>
        <time>2019-04-18T04:53:42Z</time>
      </trkpt>
      <trkpt lat="45.87532" lon="6.63462">
        <ele>1081</ele>
        <time>2019-04-18T04:54:42Z</time>
      </trkpt>
      <trkpt lat="45.87513" lon="6.63379">
        <ele>1083</ele>
        <time>2019-04-18T04:55:42Z</time>
      </trkpt>
      <trkpt lat="45.87503" lon="6.63347">
        <ele>1084</ele>
        <time>2019-04-18T04:56:42Z</time>
      </trkpt>
      <trkpt lat="45.87491" lon="6.63329">
        <ele>1085</ele>
        <time>2019-04-18T04:57:42Z</time>
      </trkpt>
      <trkpt lat="45.87477" lon="6.63317">
        <ele>1087</ele>
        <time>2019-04-18T04:58:42Z</time>
      </trkpt>
      <trkpt lat="45.87459" lon="6.63306">
        <ele>1088</ele>
        <time>2019-04-18T04:59:42Z</time>
      </trkpt>
      <trkpt lat="45.87326" lon="6.63241">
        <ele>1092</ele>
        <time>2019-04-18T05:00:42Z</time>
      </trkpt>
      <trkpt lat="45.87301" lon="6.63221">
        <ele>1093</ele>
        <time>2019-04-18T05:01:42Z</time>
      </trkpt>
      <trkpt lat="45.87282" lon="6.63198">
        <ele>1094</ele>
        <time>2019-04-18T05:02:42Z</time>
      </trkpt>
      <trkpt lat="45.87237" lon="6.631">
        <ele>1098</ele>
        <time>2019-04-18T05:03:42Z</time>
      </trkpt>
      <trkpt lat="45.87219" lon="6.63071">
        <ele>1101</ele>
        <time>2019-04-18T05:04:42Z</time>
      </trkpt>
      <trkpt lat="45.87202" lon="6.63052">
        <ele>1104</ele>
        <time>2019-04-18T05:05:42Z</time>
      </trkpt>
      <trkpt lat="45.87158" lon="6.63015">
        <ele>1105</ele>
        <time>2019-04-18T05:06:42Z</time>
      </trkpt>
      <trkpt lat="45.87158" lon="6.6301">
        <ele>1106</ele>
        <time>2019-04-18T05:07:42Z</time>
      </trkpt>
      <trkpt lat="45.87153" lon="6.63003">
        <ele>1106</ele>
        <time>2019-04-18T05:08:42Z</time>
      </trkpt>
      <trkpt lat="45.8715" lon="6.63001">
        <ele>1106</ele>
        <time>2019-04-18T05:09:42Z</time>
      </trkpt>
      <trkpt lat="45.87132" lon="6.62999">
        <ele>1105</ele>
        <time>2019-04-18T05:10:42Z</time>
      </trkpt>
      <trkpt lat="45.87118" lon="6.62992">
        <ele>1105</ele>
        <time>2019-04-18T05:11:42Z</time>
      </trkpt>
      <trkpt lat="45.8683" lon="6.62805">
        <ele>1110</ele>
        <time>2019-04-18T05:12:42Z</time>
      </trkpt>
      <trkpt lat="45.86352" lon="6.6249">
        <ele>1105</ele>
        <time>2019-04-18T05:13:42Z</time>
      </trkpt>
      <trkpt lat="45.86178" lon="6.62382">
        <ele>1105</ele>
        <time>2019-04-18T05:14:42Z</time>
      </trkpt>
      <trkpt lat="45.86125" lon="6.62335">
        <ele>1103</ele>
        <time>2019-04-18T05:15:42Z</time>
      </trkpt>
      <trkpt lat="45.86109" lon="6.62317">
        <ele>1102</ele>
        <time>2019-04-18T05:16:42Z</time>
      </trkpt>
      <trkpt lat="45.86074" lon="6.62262">
        <ele>1102</ele>
        <time>2019-04-18T05:17:42Z</time>
      </trkpt>
      <trkpt lat="45.85983" lon="6.62097">
        <ele>1100</ele>
        <time>2019-04-18T05:18:42Z</time>
      </trkpt>
      <trkpt lat="45.85968" lon="6.6205">
        <ele>1099</ele>
        <time>2019-04-18T05:19:42Z</time>
      </trkpt>
      <trkpt lat="45.85967" lon="6.62032">
        <ele>1098</ele>
        <time>2019-04-18T05:20:42Z</time>
      </trkpt>
      <trkpt lat="45.85968" lon="6.62019">
        <ele>1098</ele>
        <time>2019-04-18T05:21:42Z</time>
      </trkpt>
      <trkpt lat="45.85971" lon="6.62006">
        <ele>1097</ele>
        <time>2019-04-18T05:22:42Z</time>
      </trkpt>
      <trkpt lat="45.85976" lon="6.61993">
        <ele>1097</ele>
        <time>2019-04-18T05:23:42Z</time>
      </trkpt>
      <trkpt lat="45.85975" lon="6.61983">
        <ele>1097</ele>
        <time>2019-04-18T05:24:42Z</time>
      </trkpt>
      <trkpt lat="45.85971" lon="6.61974">
        <ele>1097</ele>
        <time>2019-04-18T05:25:42Z</time>
      </trkpt>
      <trkpt lat="45.85956" lon="6.61959">
        <ele>1097</ele>
        <time>2019-04-18T05:26:42Z</time>
      </trkpt>
      <trkpt lat="45.85945" lon="6.61954">
        <ele>1097</ele>
        <time>2019-04-18T05:27:42Z</time>
      </trkpt>
      <trkpt lat="45.85935" lon="6.6194">
        <ele>1097</ele>
        <time>2019-04-18T05:28:42Z</time>
      </trkpt>
      <trkpt lat="45.85922" lon="6.61914">
        <ele>1098</ele>
        <time>2019-04-18T05:29:42Z</time>
      </trkpt>
      <trkpt lat="45.85904" lon="6.61889">
        <ele>1098</ele>
        <time>2019-04-18T05:30:42Z</time>
      </trkpt>
      <trkpt lat="45.8587" lon="6.61808">
        <ele>1100</ele>
        <time>2019-04-18T05:31:42Z</time>
      </trkpt>
      <trkpt lat="45.85836" lon="6.61673">
        <ele>1099</ele>
        <time>2019-04-18T05:32:42Z</time>
      </trkpt>
      <trkpt lat="45.85829" lon="6.61657">
        <ele>1099</ele>
        <time>2019-04-18T05:33:42Z</time>
      </trkpt>
      <trkpt lat="45.85829" lon="6.61615">
        <ele>1097</ele>
        <time>2019-04-18T05:34:42Z</time>
      </trkpt>
      <trkpt lat="45.85827" lon="6.6161">
        <ele>1097</ele>
        <time>2019-04-18T05:35:42Z</time>
      </trkpt>
      <trkpt lat="45.85823" lon="6.61608">
        <ele>1097</ele>
        <time>2019-04-18T05:36:42Z</time>
      </trkpt>
      <trkpt lat="45.85811" lon="6.61587">
        <ele>1096</ele>
        <time>2019-04-18T05:37:42Z</time>
      </trkpt>
      <trkpt lat="45.85748" lon="6.6134">
        <ele>1090</ele>
        <time>2019-04-18T05:38:42Z</time>
      </trkpt>
      <trkpt lat="45.85744" lon="6.61317">
        <ele>1091</ele>
        <time>2019-04-18T05:39:42Z</time>
      </trkpt>
      <trkpt lat="45.8574" lon="6.61285">
        <ele>1091</ele>
        <time>2019-04-18T05:40:42Z</time>
      </trkpt>
      <trkpt lat="45.85738" lon="6.61253">
        <ele>1091</ele>
        <time>2019-04-18T05:41:42Z</time>
      </trkpt>
      <trkpt lat="45.85738" lon="6.61217">
        <ele>1090</ele>
        <time>2019-04-18T05:42:42Z</time>
      </trkpt>
      <trkpt lat="45.85741" lon="6.61192">
        <ele>1090</ele>
        <time>2019-04-18T05:43:42Z</time>
      </trkpt>
      <trkpt lat="45.85761" lon="6.61064">
        <ele>1087</ele>
        <time>2019-04-18T05:44:42Z</time>
      </trkpt>
      <trkpt lat="45.85769" lon="6.61039">
        <ele>1087</ele>
        <time>2019-04-18T05:45:42Z</time>
      </trkpt>
      <trkpt lat="45.85774" lon="6.61036">
        <ele>1087</ele>
        <time>2019-04-18T05:46:42Z</time>
      </trkpt>
      <trkpt lat="45.85779" lon="6.61027">
        <ele>1087</ele>
        <time>2019-04-18T05:47:42Z</time>
      </trkpt>
      <trkpt lat="45.85779" lon="6.6102">
        <ele>1087</ele>
        <time>2019-04-18T05:48:42Z</time>
      </trkpt>
      <trkpt lat="45.85777" lon="6.61009">
        <ele>1087</ele>
        <time>2019-04-18T05:49:42Z</time>
      </trkpt>
      <trkpt lat="45.85773" lon="6.61003">
        <ele>1087</ele>
        <time>2019-04-18T05:50:42Z</time>
      </trkpt>
      <trkpt lat="45.85763" lon="6.60966">
        <ele>1084</ele>
        <time>2019-04-18T05:51:42Z</time>
      </trkpt>
      <trkpt lat="45.85747" lon="6.60897">
        <ele>1083</ele>
        <time>2019-04-18T05:52:42Z</time>
      </trkpt>
      <trkpt lat="45.85732" lon="6.60859">
        <ele>1085</ele>
        <time>2019-04-18T05:53:42Z</time>
      </trkpt>
      <trkpt lat="45.85669" lon="6.60768">
        <ele>1084</ele>
        <time>2019-04-18T05:54:42Z</time>
      </trkpt>
      <trkpt lat="45.85645" lon="6.60744">
        <ele>1083</ele>
        <time>2019-04-18T05:55:42Z</time>
      </trkpt>
      <trkpt lat="45.85623" lon="6.60734">
        <ele>1083</ele>
        <time>2019-04-18T05:56:42Z</time>
      </trkpt>
      <trkpt lat="45.85526" lon="6.60726">
        <ele>1077</ele>
        <time>2019-04-18T05:57:42Z</time>
      </trkpt>
      <trkpt lat="45.85483" lon="6.6072">
        <ele>1074</ele>
        <time>2019-04-18T05:58:42Z</time>
      </trkpt>
      <trkpt lat="45.85466" lon="6.60712">
        <ele>1073</ele>
        <time>2019-04-18T05:59:42Z</time>
      </trkpt>
      <trkpt lat="45.8545" lon="6.60693">
        <ele>1072</ele>
        <time>2019-04-18T06:00:42Z</time>
      </trkpt>
      <trkpt lat="45.85438" lon="6.60671">
        <ele>1072</ele>
        <time>2019-04-18T06:01:42Z</time>
      </trkpt>
      <trkpt lat="45.85432" lon="6.6065">
        <ele>1072</ele>
        <time>2019-04-18T06:02:42Z</time>
      </trkpt>
      <trkpt lat="45.85428" lon="6.60628">
        <ele>1072</ele>
        <time>2019-04-18T06:03:42Z</time>
      </trkpt>
      <trkpt lat="45.85427" lon="6.6056">
        <ele>1074</ele>
        <time>2019-04-18T06:04:42Z</time>
      </trkpt>
      <trkpt lat="45.85425" lon="6.60543">
        <ele>1075</ele>
        <time>2019-04-18T06:05:42Z</time>
      </trkpt>
      <trkpt lat="45.8542" lon="6.60526">
        <ele>1074</ele>
        <time>2019-04-18T06:06:42Z</time>
      </trkpt>
      <trkpt lat="45.85411" lon="6.60508">
        <ele>1075</ele>
        <time>2019-04-18T06:07:42Z</time>
      </trkpt>
      <trkpt lat="45.854" lon="6.60497">
        <ele>1075</ele>
        <time>2019-04-18T06:08:42Z</time>
      </trkpt>
      <trkpt lat="45.8537" lon="6.60477">
        <ele>1075</ele>
        <time>2019-04-18T06:09:42Z</time>
      </trkpt>
      <trkpt lat="45.85346" lon="6.60465">
        <ele>1075</ele>
        <time>2019-04-18T06:10:42Z</time>
      </trkpt>
      <trkpt lat="45.85329" lon="6.60461">
        <ele>1075</ele>
        <time>2019-04-18T06:11:42Z</time>
      </trkpt>
      <trkpt lat="45.85315" lon="6.60464">
        <ele>1075</ele>
        <time>2019-04-18T06:12:42Z</time>
      </trkpt>
      <trkpt lat="45.85297" lon="6.60474">
        <ele>1074</ele>
        <time>2019-04-18T06:13:42Z</time>
      </trkpt>
      <trkpt lat="45.8527" lon="6.60496">
        <ele>1074</ele>
        <time>2019-04-18T06:14:42Z</time>
      </trkpt>
      <trkpt lat="45.85245" lon="6.6051">
        <ele>1073</ele>
        <time>2019-04-18T06:15:42Z</time>
      </trkpt>
      <trkpt lat="45.85214" lon="6.60514">
        <ele>1073</ele>
        <time>2019-04-18T06:16:42Z</time>
      </trkpt>
      <trkpt lat="45.85186" lon="6.60507">
        <ele>1073</ele>
        <time>2019-04-18T06:17:42Z</time>
      </trkpt>
      <trkpt lat="45.85112" lon="6.60479">
        <ele>1069</ele>
        <time>2019-04-18T06:18:42Z</time>
      </trkpt>
      <trkpt lat="45.85097" lon="6.60459">
        <ele>1067</ele>
        <time>2019-04-18T06:19:42Z</time>
      </trkpt>
      <trkpt lat="45.8509" lon="6.60431">
        <ele>1067</ele>
        <time>2019-04-18T06:20:42Z</time>
      </trkpt>
      <trkpt lat="45.85092" lon="6.60407">
        <ele>1068</ele>
        <time>2019-04-18T06:21:42Z</time>
      </trkpt>
      <trkpt lat="45.85105" lon="6.60359">
        <ele>1069</ele>
        <time>2019-04-18T06:22:42Z</time>
      </trkpt>
      <trkpt lat="45.85106" lon="6.60335">
        <ele>1068</ele>
        <time>2019-04-18T06:23:42Z</time>
      </trkpt>
      <trkpt lat="45.851" lon="6.60313">
        <ele>1068</ele>
        <time>2019-04-18T06:24:42Z</time>
      </trkpt>
      <trkpt lat="45.85085" lon="6.60287">
        <ele>1066</ele>
        <time>2019-04-18T06:25:42Z</time>
      </trkpt>
      <trkpt lat="45.85044" lon="6.60262">
        <ele>1064</ele>
        <time>2019-04-18T06:26:42Z</time>
      </trkpt>
      <trkpt lat="45.8503" lon="6.60244">
        <ele>1064</ele>
        <time>2019-04-18T06:27:42Z</time>
      </trkpt>
      <trkpt lat="45.84996" lon="6.60179">
        <ele>1064</ele>
        <time>2019-04-18T06:28:42Z</time>
      </trkpt>
      <trkpt lat="45.84968" lon="6.60142">
        <ele>1061</ele>
        <time>2019-04-18T06:29:42Z</time>
      </trkpt>
      <trkpt lat="45.8496" lon="6.60127">
        <ele>1060</ele>
        <time>2019-04-18T06:30:42Z</time>
      </trkpt>
      <trkpt lat="45.84952" lon="6.601">
        <ele>1058</ele>
        <time>2019-04-18T06:31:42Z</time>
      </trkpt>
      <trkpt lat="45.84942" lon="6.59934">
        <ele>1055</ele>
        <time>2019-04-18T06:32:42Z</time>
      </trkpt>
      <trkpt lat="45.84938" lon="6.59911">
        <ele>1056</ele>
        <time>2019-04-18T06:33:42Z</time>
      </trkpt>
      <trkpt lat="45.84932" lon="6.59892">
        <ele>1057</ele>
        <time>2019-04-18T06:34:42Z</time>
      </trkpt>
      <trkpt lat="45.84919" lon="6.5987">
        <ele>1058</ele>
        <time>2019-04-18T06:35:42Z</time>
      </trkpt>
      <trkpt lat="45.84881" lon="6.59831">
        <ele>1058</ele>
        <time>2019-04-18T06:36:42Z</time>
      </trkpt>
      <trkpt lat="45.84855" lon="6.59785">
        <ele>1059</ele>
        <time>2019-04-18T06:37:42Z</time>
      </trkpt>
      <trkpt lat="45.84768" lon="6.59518">
        <ele>1057</ele>
        <time>2019-04-18T06:38:42Z</time>
      </trkpt>
      <trkpt lat="45.84754" lon="6.5948">
        <ele>1056</ele>
        <time>2019-04-18T06:39:42Z</time>
      </trkpt>
      <trkpt lat="45.8474" lon="6.59449">
        <ele>1056</ele>
        <time>2019-04-18T06:40:42Z</time>
      </trkpt>
      <trkpt lat="45.84722" lon="6.59423">
        <ele>1055</ele>
        <time>2019-04-18T06:41:42Z</time>
      </trkpt>
      <trkpt lat="45.84691" lon="6.59398">
        <ele>1055</ele>
        <time>2019-04-18T06:42:42Z</time>
      </trkpt>
      <trkpt lat="45.84536" lon="6.59291">
        <ele>1049</ele>
        <time>2019-04-18T06:43:42Z</time>
      </trkpt>
      <trkpt lat="45.84512" lon="6.5927">
        <ele>1048</ele>
        <time>2019-04-18T06:44:42Z</time>
      </trkpt>
      <trkpt lat="45.84489" lon="6.59236">
        <ele>1048</ele>
        <time>2019-04-18T06:45:42Z</time>
      </trkpt>
      <trkpt lat="45.84426" lon="6.59133">
        <ele>1045</ele>
        <time>2019-04-18T06:46:42Z</time>
      </trkpt>
      <trkpt lat="45.84374" lon="6.59066">
        <ele>1044</ele>
        <time>2019-04-18T06:47:42Z</time>
      </trkpt>
      <trkpt lat="45.84293" lon="6.58994">
        <ele>1041</ele>
        <time>2019-04-18T06:48:42Z</time>
      </trkpt>
      <trkpt lat="45.84278" lon="6.58969">
        <ele>1041</ele>
        <time>2019-04-18T06:49:42Z</time>
      </trkpt>
      <trkpt lat="45.8427" lon="6.58943">
        <ele>1041</ele>
        <time>2019-04-18T06:50:42Z</time>
      </trkpt>
      <trkpt lat="45.84265" lon="6.58862">
        <ele>1042</ele>
        <time>2019-04-18T06:51:42Z</time>
      </trkpt>
      <trkpt lat="45.84262" lon="6.58827">
        <ele>1042</ele>
        <time>2019-04-18T06:52:42Z</time>
      </trkpt>
      <trkpt lat="45.84251" lon="6.58763">
        <ele>1040</ele>
        <time>2019-04-18T06:53:42Z</time>
      </trkpt>
      <trkpt lat="45.84241" lon="6.58724">
        <ele>1039</ele>
        <time>2019-04-18T06:54:42Z</time>
      </trkpt>
      <trkpt lat="45.842" lon="6.58621">
        <ele>1035</ele>
        <time>2019-04-18T06:55:42Z</time>
      </trkpt>
      <trkpt lat="45.84084" lon="6.5826">
        <ele>1028</ele>
        <time>2019-04-18T06:56:42Z</time>
      </trkpt>
      <trkpt lat="45.84081" lon="6.58232">
        <ele>1030</ele>
        <time>2019-04-18T06:57:42Z</time>
      </trkpt>
      <trkpt lat="45.84082" lon="6.58226">
        <ele>1031</ele>
        <time>2019-04-18T06:58:42Z</time>
      </trkpt>
      <trkpt lat="45.84079" lon="6.58215">
        <ele>1033</ele>
        <time>2019-04-18T06:59:42Z</time>
      </trkpt>
      <trkpt lat="45.84062" lon="6.58193">
        <ele>1033</ele>
        <time>2019-04-18T07:00:42Z</time>
      </trkpt>
      <trkpt lat="45.84036" lon="6.5811">
        <ele>1034</ele>
        <time>2019-04-18T07:01:42Z</time>
      </trkpt>
      <trkpt lat="45.83995" lon="6.57954">
        <ele>1028</ele>
        <time>2019-04-18T07:02:42Z</time>
      </trkpt>
      <trkpt lat="45.83946" lon="6.57755">
        <ele>1024</ele>
        <time>2019-04-18T07:03:42Z</time>
      </trkpt>
      <trkpt lat="45.83942" lon="6.57731">
        <ele>1024</ele>
        <time>2019-04-18T07:04:42Z</time>
      </trkpt>
      <trkpt lat="45.83944" lon="6.57707">
        <ele>1025</ele>
        <time>2019-04-18T07:05:42Z</time>
      </trkpt>
      <trkpt lat="45.83942" lon="6.57702">
        <ele>1025</ele>
        <time>2019-04-18T07:06:42Z</time>
      </trkpt>
      <trkpt lat="45.83935" lon="6.57696">
        <ele>1024</ele>
        <time>2019-04-18T07:07:42Z</time>
      </trkpt>
      <trkpt lat="45.8393" lon="6.57688">
        <ele>1023</ele>
        <time>2019-04-18T07:08:42Z</time>
      </trkpt>
      <trkpt lat="45.83922" lon="6.57664">
        <ele>1022</ele>
        <time>2019-04-18T07:09:42Z</time>
      </trkpt>
      <trkpt lat="45.83882" lon="6.57499">
        <ele>1025</ele>
        <time>2019-04-18T07:10:42Z</time>
      </trkpt>
      <trkpt lat="45.83828" lon="6.57288">
        <ele>1031</ele>
        <time>2019-04-18T07:11:42Z</time>
      </trkpt>
      <trkpt lat="45.838" lon="6.57147">
        <ele>1031</ele>
        <time>2019-04-18T07:12:42Z</time>
      </trkpt>
      <trkpt lat="45.83782" lon="6.57098">
        <ele>1031</ele>
        <time>2019-04-18T07:13:42Z</time>
      </trkpt>
      <trkpt lat="45.83763" lon="6.57055">
        <ele>1030</ele>
        <time>2019-04-18T07:14:42Z</time>
      </trkpt>
      <trkpt lat="45.83705" lon="6.56928">
        <ele>1024</ele>
        <time>2019-04-18T07:15:42Z</time>
      </trkpt>
      <trkpt lat="45.83661" lon="6.56838">
        <ele>1021</ele>
        <time>2019-04-18T07:16:42Z</time>
      </trkpt>
      <trkpt lat="45.83455" lon="6.56384">
        <ele>1012</ele>
        <time>2019-04-18T07:17:42Z</time>
      </trkpt>
      <trkpt lat="45.83445" lon="6.56358">
        <ele>1011</ele>
        <time>2019-04-18T07:18:42Z</time>
      </trkpt>
      <trkpt lat="45.83435" lon="6.56314">
        <ele>1012</ele>
        <time>2019-04-18T07:19:42Z</time>
      </trkpt>
      <trkpt lat="45.83403" lon="6.56192">
        <ele>1013</ele>
        <time>2019-04-18T07:20:42Z</time>
      </trkpt>
      <trkpt lat="45.83383" lon="6.56143">
        <ele>1012</ele>
        <time>2019-04-18T07:21:42Z</time>
      </trkpt>
      <trkpt lat="45.83352" lon="6.56087">
        <ele>1010</ele>
        <time>2019-04-18T07:22:42Z</time>
      </trkpt>
      <trkpt lat="45.83289" lon="6.55995">
        <ele>1004</ele>
        <time>2019-04-18T07:23:42Z</time>
      </trkpt>
      <trkpt lat="45.83274" lon="6.5597">
        <ele>1002</ele>
        <time>2019-04-18T07:24:42Z</time>
      </trkpt>
      <trkpt lat="45.83267" lon="6.55942">
        <ele>1002</ele>
        <time>2019-04-18T07:25:42Z</time>
      </trkpt>
      <trkpt lat="45.83266" lon="6.55912">
        <ele>1003</ele>
        <time>2019-04-18T07:26:42Z</time>
      </trkpt>
      <trkpt lat="45.83272" lon="6.55761">
        <ele>1004</ele>
        <time>2019-04-18T07:27:42Z</time>
      </trkpt>
      <trkpt lat="45.83272" lon="6.55725">
        <ele>1003</ele>
        <time>2019-04-18T07:28:42Z</time>
      </trkpt>
      <trkpt lat="45.83269" lon="6.557">
        <ele>1002</ele>
        <time>2019-04-18T07:29:42Z</time>
      </trkpt>
      <trkpt lat="45.83239" lon="6.55561">
        <ele>1004</ele>
        <time>2019-04-18T07:30:42Z</time>
      </trkpt>
      <trkpt lat="45.83212" lon="6.55412">
        <ele>1007</ele>
        <time>2019-04-18T07:31:42Z</time>
      </trkpt>
      <trkpt lat="45.83201" lon="6.55365">
        <ele>1005</ele>
        <time>2019-04-18T07:32:42Z</time>
      </trkpt>
      <trkpt lat="45.83186" lon="6.55334">
        <ele>1003</ele>
        <time>2019-04-18T07:33:42Z</time>
      </trkpt>
      <trkpt lat="45.83167" lon="6.55307">
        <ele>1003</ele>
        <time>2019-04-18T07:34:42Z</time>
      </trkpt>
      <trkpt lat="45.83131" lon="6.55273">
        <ele>1003</ele>
        <time>2019-04-18T07:35:42Z</time>
      </trkpt>
      <trkpt lat="45.83084" lon="6.55242">
        <ele>1000</ele>
        <time>2019-04-18T07:36:42Z</time>
      </trkpt>
      <trkpt lat="45.83073" lon="6.55228">
        <ele>1002</ele>
        <time>2019-04-18T07:37:42Z</time>
      </trkpt>
      <trkpt lat="45.83043" lon="6.55169">
        <ele>1006</ele>
        <time>2019-04-18T07:38:42Z</time>
      </trkpt>
      <trkpt lat="45.83029" lon="6.55151">
        <ele>1009</ele>
        <time>2019-04-18T07:39:42Z</time>
      </trkpt>
      <trkpt lat="45.83018" lon="6.5514">
        <ele>1010</ele>
        <time>2019-04-18T07:40:42Z</time>
      </trkpt>
      <trkpt lat="45.82969" lon="6.55102">
        <ele>1010</ele>
        <time>2019-04-18T07:41:42Z</time>
      </trkpt>
      <trkpt lat="45.82944" lon="6.55067">
        <ele>1009</ele>
        <time>2019-04-18T07:42:42Z</time>
      </trkpt>
      <trkpt lat="45.82903" lon="6.54986">
        <ele>1008</ele>
        <time>2019-04-18T07:43:42Z</time>
      </trkpt>
      <trkpt lat="45.82892" lon="6.54954">
        <ele>1007</ele>
        <time>2019-04-18T07:44:42Z</time>
      </trkpt>
      <trkpt lat="45.82886" lon="6.54923">
        <ele>1008</ele>
        <time>2019-04-18T07:45:42Z</time>
      </trkpt>
      <trkpt lat="45.82885" lon="6.54905">
        <ele>1009</ele>
        <time>2019-04-18T07:46:42Z</time>
      </trkpt>
      <trkpt lat="45.82886" lon="6.54886">
        <ele>1011</ele>
        <time>2019-04-18T07:47:42Z</time>
      </trkpt>
      <trkpt lat="45.82889" lon="6.5483">
        <ele>1019</ele>
        <time>2019-04-18T07:48:42Z</time>
      </trkpt>
      <trkpt lat="45.82885" lon="6.54799">
        <ele>1022</ele>
        <time>2019-04-18T07:49:42Z</time>
      </trkpt>
      <trkpt lat="45.8287" lon="6.54762">
        <ele>1021</ele>
        <time>2019-04-18T07:50:42Z</time>
      </trkpt>
      <trkpt lat="45.82834" lon="6.54682">
        <ele>1021</ele>
        <time>2019-04-18T07:51:42Z</time>
      </trkpt>
      <trkpt lat="45.82821" lon="6.54659">
        <ele>1020</ele>
        <time>2019-04-18T07:52:42Z</time>
      </trkpt>
      <trkpt lat="45.82786" lon="6.54613">
        <ele>1016</ele>
        <time>2019-04-18T07:53:42Z</time>
      </trkpt>
      <trkpt lat="45.82774" lon="6.54592">
        <ele>1017</ele>
        <time>2019-04-18T07:54:42Z</time>
      </trkpt>
      <trkpt lat="45.82737" lon="6.54477">
        <ele>1017</ele>
        <time>2019-04-18T07:55:42Z</time>
      </trkpt>
      <trkpt lat="45.82732" lon="6.54455">
        <ele>1015</ele>
        <time>2019-04-18T07:56:42Z</time>
      </trkpt>
      <trkpt lat="45.82728" lon="6.54431">
        <ele>1014</ele>
        <time>2019-04-18T07:57:42Z</time>
      </trkpt>
      <trkpt lat="45.82727" lon="6.54409">
        <ele>1014</ele>
        <time>2019-04-18T07:58:42Z</time>
      </trkpt>
      <trkpt lat="45.8273" lon="6.54359">
        <ele>1016</ele>
        <time>2019-04-18T07:59:42Z</time>
      </trkpt>
      <trkpt lat="45.82729" lon="6.5434">
        <ele>1015</ele>
        <time>2019-04-18T08:00:42Z</time>
      </trkpt>
      <trkpt lat="45.82722" lon="6.54299">
        <ele>1016</ele>
        <time>2019-04-18T08:01:42Z</time>
      </trkpt>
      <trkpt lat="45.82698" lon="6.5422">
        <ele>1016</ele>
        <time>2019-04-18T08:02:42Z</time>
      </trkpt>
      <trkpt lat="45.82648" lon="6.5409">
        <ele>1012</ele>
        <time>2019-04-18T08:03:42Z</time>
      </trkpt>
      <trkpt lat="45.82638" lon="6.5407">
        <ele>1011</ele>
        <time>2019-04-18T08:04:42Z</time>
      </trkpt>
      <trkpt lat="45.82627" lon="6.54052">
        <ele>1011</ele>
        <time>2019-04-18T08:05:42Z</time>
      </trkpt>
      <trkpt lat="45.82607" lon="6.54031">
        <ele>1008</ele>
        <time>2019-04-18T08:06:42Z</time>
      </trkpt>
      <trkpt lat="45.82586" lon="6.54013">
        <ele>1005</ele>
        <time>2019-04-18T08:07:42Z</time>
      </trkpt>
      <trkpt lat="45.82561" lon="6.53986">
        <ele>1002</ele>
        <time>2019-04-18T08:08:42Z</time>
      </trkpt>
      <trkpt lat="45.82514" lon="6.53918">
        <ele>998</ele>
        <time>2019-04-18T08:09:42Z</time>
      </trkpt>
      <trkpt lat="45.82485" lon="6.53867">
        <ele>994</ele>
        <time>2019-04-18T08:10:42Z</time>
      </trkpt>
      <trkpt lat="45.82473" lon="6.53836">
        <ele>992</ele>
        <time>2019-04-18T08:11:42Z</time>
      </trkpt>
      <trkpt lat="45.82464" lon="6.53791">
        <ele>990</ele>
        <time>2019-04-18T08:12:42Z</time>
      </trkpt>
      <trkpt lat="45.8246" lon="6.5376">
        <ele>989</ele>
        <time>2019-04-18T08:13:42Z</time>
      </trkpt>
      <trkpt lat="45.8246" lon="6.53742">
        <ele>988</ele>
        <time>2019-04-18T08:14:42Z</time>
      </trkpt>
      <trkpt lat="45.82461" lon="6.53726">
        <ele>989</ele>
        <time>2019-04-18T08:15:42Z</time>
      </trkpt>
      <trkpt lat="45.82472" lon="6.53677">
        <ele>991</ele>
        <time>2019-04-18T08:16:42Z</time>
      </trkpt>
      <trkpt lat="45.82472" lon="6.53656">
        <ele>992</ele>
        <time>2019-04-18T08:17:42Z</time>
      </trkpt>
      <trkpt lat="45.82468" lon="6.53635">
        <ele>991</ele>
        <time>2019-04-18T08:18:42Z</time>
      </trkpt>
      <trkpt lat="45.82448" lon="6.53593">
        <ele>987</ele>
        <time>2019-04-18T08:19:42Z</time>
      </trkpt>
      <trkpt lat="45.82435" lon="6.53571">
        <ele>986</ele>
        <time>2019-04-18T08:20:42Z</time>
      </trkpt>
      <trkpt lat="45.82397" lon="6.53519">
        <ele>983</ele>
        <time>2019-04-18T08:21:42Z</time>
      </trkpt>
      <trkpt lat="45.82372" lon="6.53496">
        <ele>979</ele>
        <time>2019-04-18T08:22:42Z</time>
      </trkpt>
      <trkpt lat="45.82361" lon="6.53482">
        <ele>977</ele>
        <time>2019-04-18T08:23:42Z</time>
      </trkpt>
      <trkpt lat="45.8235" lon="6.53464">
        <ele>976</ele>
        <time>2019-04-18T08:24:42Z</time>
      </trkpt>
      <trkpt lat="45.82327" lon="6.53395">
        <ele>975</ele>
        <time>2019-04-18T08:25:42Z</time>
      </trkpt>
      <trkpt lat="45.82305" lon="6.53356">
        <ele>973</ele>
        <time>2019-04-18T08:26:42Z</time>
      </trkpt>
      <trkpt lat="45.82276" lon="6.53321">
        <ele>970</ele>
        <time>2019-04-18T08:27:42Z</time>
      </trkpt>
      <trkpt lat="45.82234" lon="6.53287">
        <ele>965</ele>
        <time>2019-04-18T08:28:42Z</time>
      </trkpt>
      <trkpt lat="45.82209" lon="6.5326">
        <ele>963</ele>
        <time>2019-04-18T08:29:42Z</time>
      </trkpt>
      <trkpt lat="45.82173" lon="6.53177">
        <ele>960</ele>
        <time>2019-04-18T08:30:42Z</time>
      </trkpt>
      <trkpt lat="45.82148" lon="6.53136">
        <ele>962</ele>
        <time>2019-04-18T08:31:42Z</time>
      </trkpt>
      <trkpt lat="45.82142" lon="6.53117">
        <ele>964</ele>
        <time>2019-04-18T08:32:42Z</time>
      </trkpt>
      <trkpt lat="45.8214" lon="6.53096">
        <ele>965</ele>
        <time>2019-04-18T08:33:42Z</time>
      </trkpt>
      <trkpt lat="45.82128" lon="6.53096">
        <ele>966</ele>
        <time>2019-04-18T08:34:42Z</time>
      </trkpt>
      <trkpt lat="45.82122" lon="6.53061">
        <ele>966</ele>
        <time>2019-04-18T08:35:42Z</time>
      </trkpt>
      <trkpt lat="45.82112" lon="6.53031">
        <ele>967</ele>
        <time>2019-04-18T08:36:42Z</time>
      </trkpt>
      <trkpt lat="45.82082" lon="6.5294">
        <ele>969</ele>
        <time>2019-04-18T08:37:42Z</time>
      </trkpt>
      <trkpt lat="45.82064" lon="6.52899">
        <ele>972</ele>
        <time>2019-04-18T08:38:42Z</time>
      </trkpt>
      <trkpt lat="45.82046" lon="6.52872">
        <ele>975</ele>
        <time>2019-04-18T08:39:42Z</time>
      </trkpt>
      <trkpt lat="45.81977" lon="6.52783">
        <ele>981</ele>
        <time>2019-04-18T08:40:42Z</time>
      </trkpt>
      <trkpt lat="45.81968" lon="6.52776">
        <ele>982</ele>
        <time>2019-04-18T08:41:42Z</time>
      </trkpt>
      <trkpt lat="45.81961" lon="6.52774">
        <ele>982</ele>
        <time>2019-04-18T08:42:42Z</time>
      </trkpt>
      <trkpt lat="45.81952" lon="6.52776">
        <ele>983</ele>
        <time>2019-04-18T08:43:42Z</time>
      </trkpt>
      <trkpt lat="45.81945" lon="6.52782">
        <ele>984</ele>
        <time>2019-04-18T08:44:42Z</time>
      </trkpt>
      <trkpt lat="45.81939" lon="6.52799">
        <ele>985</ele>
        <time>2019-04-18T08:45:42Z</time>
      </trkpt>
      <trkpt lat="45.81933" lon="6.52866">
        <ele>988</ele>
        <time>2019-04-18T08:46:42Z</time>
      </trkpt>
      <trkpt lat="45.81933" lon="6.52909">
        <ele>990</ele>
        <time>2019-04-18T08:47:42Z</time>
      </trkpt>
      <trkpt lat="45.81938" lon="6.52959">
        <ele>993</ele>
        <time>2019-04-18T08:48:42Z</time>
      </trkpt>
      <trkpt lat="45.81937" lon="6.52982">
        <ele>994</ele>
        <time>2019-04-18T08:49:42Z</time>
      </trkpt>
      <trkpt lat="45.81932" lon="6.52997">
        <ele>996</ele>
        <time>2019-04-18T08:50:42Z</time>
      </trkpt>
      <trkpt lat="45.81924" lon="6.53005">
        <ele>998</ele>
        <time>2019-04-18T08:51:42Z</time>
      </trkpt>
      <trkpt lat="45.81919" lon="6.53008">
        <ele>999</ele>
        <time>2019-04-18T08:52:42Z</time>
      </trkpt>
      <trkpt lat="45.81907" lon="6.53006">
        <ele>1002</ele>
        <time>2019-04-18T08:53:42Z</time>
      </trkpt>
      <trkpt lat="45.81899" lon="6.52998">
        <ele>1004</ele>
        <time>2019-04-18T08:54:42Z</time>
      </trkpt>
      <trkpt lat="45.81853" lon="6.52885">
        <ele>1007</ele>
        <time>2019-04-18T08:55:42Z</time>
      </trkpt>
      <trkpt lat="45.81841" lon="6.52861">
        <ele>1009</ele>
        <time>2019-04-18T08:56:42Z</time>
      </trkpt>
      <trkpt lat="45.81824" lon="6.52838">
        <ele>1014</ele>
        <time>2019-04-18T08:57:42Z</time>
      </trkpt>
      <trkpt lat="45.81786" lon="6.528">
        <ele>1024</ele>
        <time>2019-04-18T08:58:42Z</time>
      </trkpt>
      <trkpt lat="45.81775" lon="6.52784">
        <ele>1027</ele>
        <time>2019-04-18T08:59:42Z</time>
      </trkpt>
      <trkpt lat="45.81767" lon="6.52766">
        <ele>1028</ele>
        <time>2019-04-18T09:00:42Z</time>
      </trkpt>
      <trkpt lat="45.81724" lon="6.52621">
        <ele>1040</ele>
        <time>2019-04-18T09:01:42Z</time>
      </trkpt>
      <trkpt lat="45.81705" lon="6.52582">
        <ele>1047</ele>
        <time>2019-04-18T09:02:42Z</time>
      </trkpt>
      <trkpt lat="45.81694" lon="6.52553">
        <ele>1050</ele>
        <time>2019-04-18T09:03:42Z</time>
      </trkpt>
      <trkpt lat="45.81634" lon="6.52274">
        <ele>1064</ele>
        <time>2019-04-18T09:04:42Z</time>
      </trkpt>
      <trkpt lat="45.81616" lon="6.52206">
        <ele>1065</ele>
        <time>2019-04-18T09:05:42Z</time>
      </trkpt>
      <trkpt lat="45.81589" lon="6.52142">
        <ele>1069</ele>
        <time>2019-04-18T09:06:42Z</time>
      </trkpt>
      <trkpt lat="45.81513" lon="6.52011">
        <ele>1085</ele>
        <time>2019-04-18T09:07:42Z</time>
      </trkpt>
      <trkpt lat="45.81439" lon="6.51892">
        <ele>1088</ele>
        <time>2019-04-18T09:08:42Z</time>
      </trkpt>
      <trkpt lat="45.81398" lon="6.51816">
        <ele>1087</ele>
        <time>2019-04-18T09:09:42Z</time>
      </trkpt>
      <trkpt lat="45.81349" lon="6.51755">
        <ele>1092</ele>
        <time>2019-04-18T09:10:42Z</time>
      </trkpt>
      <trkpt lat="45.81326" lon="6.51732">
        <ele>1094</ele>
        <time>2019-04-18T09:11:42Z</time>
      </trkpt>
      <trkpt lat="45.81304" lon="6.51702">
        <ele>1093</ele>
        <time>2019-04-18T09:12:42Z</time>
      </trkpt>
      <trkpt lat="45.81255" lon="6.51651">
        <ele>1098</ele>
        <time>2019-04-18T09:13:42Z</time>
      </trkpt>
      <trkpt lat="45.81138" lon="6.51566">
        <ele>1100</ele>
        <time>2019-04-18T09:14:42Z</time>
      </trkpt>
      <trkpt lat="45.81086" lon="6.51544">
        <ele>1103</ele>
        <time>2019-04-18T09:15:42Z</time>
      </trkpt>
      <trkpt lat="45.81066" lon="6.51541">
        <ele>1104</ele>
        <time>2019-04-18T09:16:42Z</time>
      </trkpt>
      <trkpt lat="45.81057" lon="6.51542">
        <ele>1104</ele>
        <time>2019-04-18T09:17:42Z</time>
      </trkpt>
      <trkpt lat="45.81041" lon="6.5155">
        <ele>1105</ele>
        <time>2019-04-18T09:18:42Z</time>
      </trkpt>
      <trkpt lat="45.81014" lon="6.51582">
        <ele>1109</ele>
        <time>2019-04-18T09:19:42Z</time>
      </trkpt>
      <trkpt lat="45.81004" lon="6.51592">
        <ele>1111</ele>
        <time>2019-04-18T09:20:42Z</time>
      </trkpt>
      <trkpt lat="45.80996" lon="6.51596">
        <ele>1112</ele>
        <time>2019-04-18T09:21:42Z</time>
      </trkpt>
      <trkpt lat="45.8098" lon="6.516">
        <ele>1114</ele>
        <time>2019-04-18T09:22:42Z</time>
      </trkpt>
      <trkpt lat="45.80971" lon="6.51599">
        <ele>1114</ele>
        <time>2019-04-18T09:23:42Z</time>
      </trkpt>
      <trkpt lat="45.8094" lon="6.51586">
        <ele>1115</ele>
        <time>2019-04-18T09:24:42Z</time>
      </trkpt>
      <trkpt lat="45.80927" lon="6.51584">
        <ele>1115</ele>
        <time>2019-04-18T09:25:42Z</time>
      </trkpt>
      <trkpt lat="45.80921" lon="6.51585">
        <ele>1116</ele>
        <time>2019-04-18T09:26:42Z</time>
      </trkpt>
      <trkpt lat="45.80837" lon="6.51648">
        <ele>1122</ele>
        <time>2019-04-18T09:27:42Z</time>
      </trkpt>
      <trkpt lat="45.80822" lon="6.51662">
        <ele>1122</ele>
        <time>2019-04-18T09:28:42Z</time>
      </trkpt>
      <trkpt lat="45.80808" lon="6.51649">
        <ele>1121</ele>
        <time>2019-04-18T09:29:42Z</time>
      </trkpt>
      <trkpt lat="45.80803" lon="6.51646">
        <ele>1121</ele>
        <time>2019-04-18T09:30:42Z</time>
      </trkpt>
      <trkpt lat="45.80784" lon="6.51641">
        <ele>1120</ele>
        <time>2019-04-18T09:31:42Z</time>
      </trkpt>
      <trkpt lat="45.8077" lon="6.51643">
        <ele>1119</ele>
        <time>2019-04-18T09:32:42Z</time>
      </trkpt>
      <trkpt lat="45.80753" lon="6.51659">
        <ele>1120</ele>
        <time>2019-04-18T09:33:42Z</time>
      </trkpt>
      <trkpt lat="45.8072" lon="6.517">
        <ele>1116</ele>
        <time>2019-04-18T09:34:42Z</time>
      </trkpt>
      <trkpt lat="45.80712" lon="6.51707">
        <ele>1115</ele>
        <time>2019-04-18T09:35:42Z</time>
      </trkpt>
      <trkpt lat="45.807" lon="6.51711">
        <ele>1114</ele>
        <time>2019-04-18T09:36:42Z</time>
      </trkpt>
      <trkpt lat="45.80655" lon="6.5171">
        <ele>1107</ele>
        <time>2019-04-18T09:37:42Z</time>
      </trkpt>
      <trkpt lat="45.8064" lon="6.51711">
        <ele>1103</ele>
        <time>2019-04-18T09:38:42Z</time>
      </trkpt>
      <trkpt lat="45.8063" lon="6.51714">
        <ele>1100</ele>
        <time>2019-04-18T09:39:42Z</time>
      </trkpt>
      <trkpt lat="45.80617" lon="6.51727">
        <ele>1097</ele>
        <time>2019-04-18T09:40:42Z</time>
      </trkpt>
      <trkpt lat="45.80612" lon="6.5174">
        <ele>1096</ele>
        <time>2019-04-18T09:41:42Z</time>
      </trkpt>
      <trkpt lat="45.80611" lon="6.51778">
        <ele>1096</ele>
        <time>2019-04-18T09:42:42Z</time>
      </trkpt>
      <trkpt lat="45.80647" lon="6.51972">
        <ele>1095</ele>
        <time>2019-04-18T09:43:42Z</time>
      </trkpt>
      <trkpt lat="45.80649" lon="6.52015">
        <ele>1094</ele>
        <time>2019-04-18T09:44:42Z</time>
      </trkpt>
      <trkpt lat="45.80629" lon="6.52064">
        <ele>1092</ele>
        <time>2019-04-18T09:45:42Z</time>
      </trkpt>
      <trkpt lat="45.80598" lon="6.52077">
        <ele>1084</ele>
        <time>2019-04-18T09:46:42Z</time>
      </trkpt>
      <trkpt lat="45.80564" lon="6.52079">
        <ele>1069</ele>
        <time>2019-04-18T09:47:42Z</time>
      </trkpt>
      <trkpt lat="45.8055" lon="6.52113">
        <ele>1066</ele>
        <time>2019-04-18T09:48:42Z</time>
      </trkpt>
      <trkpt lat="45.80546" lon="6.52158">
        <ele>1069</ele>
        <time>2019-04-18T09:49:42Z</time>
      </trkpt>
      <trkpt lat="45.80548" lon="6.52292">
        <ele>1080</ele>
        <time>2019-04-18T09:50:42Z</time>
      </trkpt>
      <trkpt lat="45.80538" lon="6.52321">
        <ele>1078</ele>
        <time>2019-04-18T09:51:42Z</time>
      </trkpt>
      <trkpt lat="45.80532" lon="6.52352">
        <ele>1080</ele>
        <time>2019-04-18T09:52:42Z</time>
      </trkpt>
      <trkpt lat="45.80523" lon="6.52422">
        <ele>1093</ele>
        <time>2019-04-18T09:53:42Z</time>
      </trkpt>
      <trkpt lat="45.8051" lon="6.52433">
        <ele>1091</ele>
        <time>2019-04-18T09:54:42Z</time>
      </trkpt>
      <trkpt lat="45.80495" lon="6.5243">
        <ele>1084</ele>
        <time>2019-04-18T09:55:42Z</time>
      </trkpt>
      <trkpt lat="45.80465" lon="6.52396">
        <ele>1066</ele>
        <time>2019-04-18T09:56:42Z</time>
      </trkpt>
      <trkpt lat="45.80453" lon="6.52378">
        <ele>1064</ele>
        <time>2019-04-18T09:57:42Z</time>
      </trkpt>
      <trkpt lat="45.80435" lon="6.52342">
        <ele>1065</ele>
        <time>2019-04-18T09:58:42Z</time>
      </trkpt>
      <trkpt lat="45.80414" lon="6.52279">
        <ele>1073</ele>
        <time>2019-04-18T09:59:42Z</time>
      </trkpt>
      <trkpt lat="45.80397" lon="6.52204">
        <ele>1086</ele>
        <time>2019-04-18T10:00:42Z</time>
      </trkpt>
      <trkpt lat="45.80381" lon="6.51976">
        <ele>1071</ele>
        <time>2019-04-18T10:01:42Z</time>
      </trkpt>
      <trkpt lat="45.80369" lon="6.5195">
        <ele>1073</ele>
        <time>2019-04-18T10:02:42Z</time>
      </trkpt>
      <trkpt lat="45.80349" lon="6.51936">
        <ele>1084</ele>
        <time>2019-04-18T10:03:42Z</time>
      </trkpt>
      <trkpt lat="45.80293" lon="6.51854">
        <ele>1106</ele>
        <time>2019-04-18T10:04:42Z</time>
      </trkpt>
      <trkpt lat="45.80276" lon="6.51822">
        <ele>1116</ele>
        <time>2019-04-18T10:05:42Z</time>
      </trkpt>
      <trkpt lat="45.80267" lon="6.51741">
        <ele>1121</ele>
        <time>2019-04-18T10:06:42Z</time>
      </trkpt>
      <trkpt lat="45.80258" lon="6.51612">
        <ele>1116</ele>
        <time>2019-04-18T10:07:42Z</time>
      </trkpt>
      <trkpt lat="45.80236" lon="6.51453">
        <ele>1122</ele>
        <time>2019-04-18T10:08:42Z</time>
      </trkpt>
      <trkpt lat="45.80194" lon="6.51315">
        <ele>1138</ele>
        <time>2019-04-18T10:09:42Z</time>
      </trkpt>
      <trkpt lat="45.80139" lon="6.51196">
        <ele>1144</ele>
        <time>2019-04-18T10:10:42Z</time>
      </trkpt>
      <trkpt lat="45.8012" lon="6.51146">
        <ele>1145</ele>
        <time>2019-04-18T10:11:42Z</time>
      </trkpt>
      <trkpt lat="45.80097" lon="6.51118">
        <ele>1146</ele>
        <time>2019-04-18T10:12:42Z</time>
      </trkpt>
      <trkpt lat="45.80083" lon="6.51115">
        <ele>1148</ele>
        <time>2019-04-18T10:13:42Z</time>
      </trkpt>
      <trkpt lat="45.80079" lon="6.51132">
        <ele>1151</ele>
        <time>2019-04-18T10:14:42Z</time>
      </trkpt>
      <trkpt lat="45.80105" lon="6.51177">
        <ele>1151</ele>
        <time>2019-04-18T10:15:42Z</time>
      </trkpt>
      <trkpt lat="45.80112" lon="6.51211">
        <ele>1153</ele>
        <time>2019-04-18T10:16:42Z</time>
      </trkpt>
      <trkpt lat="45.8011" lon="6.51219">
        <ele>1155</ele>
        <time>2019-04-18T10:17:42Z</time>
      </trkpt>
      <trkpt lat="45.80101" lon="6.51227">
        <ele>1158</ele>
        <time>2019-04-18T10:18:42Z</time>
      </trkpt>
      <trkpt lat="45.80083" lon="6.51183">
        <ele>1157</ele>
        <time>2019-04-18T10:19:42Z</time>
      </trkpt>
      <trkpt lat="45.80067" lon="6.51169">
        <ele>1159</ele>
        <time>2019-04-18T10:20:42Z</time>
      </trkpt>
      <trkpt lat="45.80044" lon="6.51159">
        <ele>1165</ele>
        <time>2019-04-18T10:21:42Z</time>
      </trkpt>
      <trkpt lat="45.8002" lon="6.51144">
        <ele>1171</ele>
        <time>2019-04-18T10:22:42Z</time>
      </trkpt>
      <trkpt lat="45.80004" lon="6.51095">
        <ele>1171</ele>
        <time>2019-04-18T10:23:42Z</time>
      </trkpt>
      <trkpt lat="45.79982" lon="6.51035">
        <ele>1173</ele>
        <time>2019-04-18T10:24:42Z</time>
      </trkpt>
      <trkpt lat="45.79964" lon="6.51004">
        <ele>1175</ele>
        <time>2019-04-18T10:25:42Z</time>
      </trkpt>
      <trkpt lat="45.79948" lon="6.50983">
        <ele>1178</ele>
        <time>2019-04-18T10:26:42Z</time>
      </trkpt>
      <trkpt lat="45.79929" lon="6.50972">
        <ele>1183</ele>
        <time>2019-04-18T10:27:42Z</time>
      </trkpt>
      <trkpt lat="45.79904" lon="6.50966">
        <ele>1187</ele>
        <time>2019-04-18T10:28:42Z</time>
      </trkpt>
      <trkpt lat="45.79888" lon="6.50946">
        <ele>1189</ele>
        <time>2019-04-18T10:29:42Z</time>
      </trkpt>
      <trkpt lat="45.79873" lon="6.5091">
        <ele>1189</ele>
        <time>2019-04-18T10:30:42Z</time>
      </trkpt>
      <trkpt lat="45.79855" lon="6.50895">
        <ele>1190</ele>
        <time>2019-04-18T10:31:42Z</time>
      </trkpt>
      <trkpt lat="45.7977" lon="6.50866">
        <ele>1206</ele>
        <time>2019-04-18T10:32:42Z</time>
      </trkpt>
      <trkpt lat="45.79753" lon="6.50853">
        <ele>1209</ele>
        <time>2019-04-18T10:33:42Z</time>
      </trkpt>
      <trkpt lat="45.79744" lon="6.50833">
        <ele>1210</ele>
        <time>2019-04-18T10:34:42Z</time>
      </trkpt>
      <trkpt lat="45.79741" lon="6.50812">
        <ele>1208</ele>
        <time>2019-04-18T10:35:42Z</time>
      </trkpt>
      <trkpt lat="45.797" lon="6.50714">
        <ele>1211</ele>
        <time>2019-04-18T10:36:42Z</time>
      </trkpt>
      <trkpt lat="45.79688" lon="6.50697">
        <ele>1213</ele>
        <time>2019-04-18T10:37:42Z</time>
      </trkpt>
      <trkpt lat="45.7967" lon="6.50677">
        <ele>1216</ele>
        <time>2019-04-18T10:38:42Z</time>
      </trkpt>
      <trkpt lat="45.7964" lon="6.50656">
        <ele>1218</ele>
        <time>2019-04-18T10:39:42Z</time>
      </trkpt>
      <trkpt lat="45.79601" lon="6.50633">
        <ele>1219</ele>
        <time>2019-04-18T10:40:42Z</time>
      </trkpt>
      <trkpt lat="45.79577" lon="6.5061">
        <ele>1219</ele>
        <time>2019-04-18T10:41:42Z</time>
      </trkpt>
      <trkpt lat="45.79525" lon="6.50552">
        <ele>1219</ele>
        <time>2019-04-18T10:42:42Z</time>
      </trkpt>
      <trkpt lat="45.79519" lon="6.50562">
        <ele>1220</ele>
        <time>2019-04-18T10:43:42Z</time>
      </trkpt>
      <trkpt lat="45.7956" lon="6.50798">
        <ele>1233</ele>
        <time>2019-04-18T10:44:42Z</time>
      </trkpt>
      <trkpt lat="45.7957" lon="6.50836">
        <ele>1235</ele>
        <time>2019-04-18T10:45:42Z</time>
      </trkpt>
      <trkpt lat="45.79596" lon="6.50901">
        <ele>1236</ele>
        <time>2019-04-18T10:46:42Z</time>
      </trkpt>
      <trkpt lat="45.79617" lon="6.50965">
        <ele>1239</ele>
        <time>2019-04-18T10:47:42Z</time>
      </trkpt>
      <trkpt lat="45.79618" lon="6.50975">
        <ele>1239</ele>
        <time>2019-04-18T10:48:42Z</time>
      </trkpt>
      <trkpt lat="45.79603" lon="6.51019">
        <ele>1247</ele>
        <time>2019-04-18T10:49:42Z</time>
      </trkpt>
      <trkpt lat="45.796" lon="6.5104">
        <ele>1250</ele>
        <time>2019-04-18T10:50:42Z</time>
      </trkpt>
      <trkpt lat="45.79597" lon="6.51079">
        <ele>1254</ele>
        <time>2019-04-18T10:51:42Z</time>
      </trkpt>
      <trkpt lat="45.79598" lon="6.51134">
        <ele>1259</ele>
        <time>2019-04-18T10:52:42Z</time>
      </trkpt>
      <trkpt lat="45.79633" lon="6.51169">
        <ele>1258</ele>
        <time>2019-04-18T10:53:42Z</time>
      </trkpt>
      <trkpt lat="45.7966" lon="6.51222">
        <ele>1261</ele>
        <time>2019-04-18T10:54:42Z</time>
      </trkpt>
      <trkpt lat="45.79715" lon="6.5135">
        <ele>1270</ele>
        <time>2019-04-18T10:55:42Z</time>
      </trkpt>
      <trkpt lat="45.7978" lon="6.51494">
        <ele>1282</ele>
        <time>2019-04-18T10:56:42Z</time>
      </trkpt>
      <trkpt lat="45.798" lon="6.51533">
        <ele>1283</ele>
        <time>2019-04-18T10:57:42Z</time>
      </trkpt>
      <trkpt lat="45.79807" lon="6.51569">
        <ele>1285</ele>
        <time>2019-04-18T10:58:42Z</time>
      </trkpt>
      <trkpt lat="45.79812" lon="6.51586">
        <ele>1286</ele>
        <time>2019-04-18T10:59:42Z</time>
      </trkpt>
      <trkpt lat="45.79819" lon="6.51599">
        <ele>1286</ele>
        <time>2019-04-18T11:00:42Z</time>
      </trkpt>
      <trkpt lat="45.79841" lon="6.51672">
        <ele>1290</ele>
        <time>2019-04-18T11:01:42Z</time>
      </trkpt>
      <trkpt lat="45.79847" lon="6.51697">
        <ele>1292</ele>
        <time>2019-04-18T11:02:42Z</time>
      </trkpt>
      <trkpt lat="45.79863" lon="6.5178">
        <ele>1299</ele>
        <time>2019-04-18T11:03:42Z</time>
      </trkpt>
      <trkpt lat="45.79868" lon="6.51859">
        <ele>1304</ele>
        <time>2019-04-18T11:04:42Z</time>
      </trkpt>
      <trkpt lat="45.79876" lon="6.51911">
        <ele>1307</ele>
        <time>2019-04-18T11:05:42Z</time>
      </trkpt>
      <trkpt lat="45.79891" lon="6.52031">
        <ele>1313</ele>
        <time>2019-04-18T11:06:42Z</time>
      </trkpt>
      <trkpt lat="45.79901" lon="6.52091">
        <ele>1317</ele>
        <time>2019-04-18T11:07:42Z</time>
      </trkpt>
      <trkpt lat="45.79913" lon="6.52193">
        <ele>1325</ele>
        <time>2019-04-18T11:08:42Z</time>
      </trkpt>
      <trkpt lat="45.79913" lon="6.52235">
        <ele>1326</ele>
        <time>2019-04-18T11:09:42Z</time>
      </trkpt>
      <trkpt lat="45.79909" lon="6.52281">
        <ele>1328</ele>
        <time>2019-04-18T11:10:42Z</time>
      </trkpt>
      <trkpt lat="45.79896" lon="6.52371">
        <ele>1334</ele>
        <time>2019-04-18T11:11:42Z</time>
      </trkpt>
      <trkpt lat="45.79886" lon="6.52423">
        <ele>1338</ele>
        <time>2019-04-18T11:12:42Z</time>
      </trkpt>
      <trkpt lat="45.7987" lon="6.52478">
        <ele>1341</ele>
        <time>2019-04-18T11:13:42Z</time>
      </trkpt>
      <trkpt lat="45.79859" lon="6.52507">
        <ele>1343</ele>
        <time>2019-04-18T11:14:42Z</time>
      </trkpt>
      <trkpt lat="45.79836" lon="6.52556">
        <ele>1347</ele>
        <time>2019-04-18T11:15:42Z</time>
      </trkpt>
      <trkpt lat="45.79826" lon="6.52574">
        <ele>1349</ele>
        <time>2019-04-18T11:16:42Z</time>
      </trkpt>
      <trkpt lat="45.79789" lon="6.52617">
        <ele>1354</ele>
        <time>2019-04-18T11:17:42Z</time>
      </trkpt>
      <trkpt lat="45.79757" lon="6.52648">
        <ele>1358</ele>
        <time>2019-04-18T11:18:42Z</time>
      </trkpt>
      <trkpt lat="45.7971" lon="6.5269">
        <ele>1364</ele>
        <time>2019-04-18T11:19:42Z</time>
      </trkpt>
      <trkpt lat="45.79683" lon="6.52707">
        <ele>1369</ele>
        <time>2019-04-18T11:20:42Z</time>
      </trkpt>
      <trkpt lat="45.79672" lon="6.52728">
        <ele>1369</ele>
        <time>2019-04-18T11:21:42Z</time>
      </trkpt>
      <trkpt lat="45.79667" lon="6.52745">
        <ele>1368</ele>
        <time>2019-04-18T11:22:42Z</time>
      </trkpt>
      <trkpt lat="45.79664" lon="6.5278">
        <ele>1366</ele>
        <time>2019-04-18T11:23:42Z</time>
      </trkpt>
      <trkpt lat="45.79662" lon="6.52789">
        <ele>1366</ele>
        <time>2019-04-18T11:24:42Z</time>
      </trkpt>
      <trkpt lat="45.79652" lon="6.52803">
        <ele>1369</ele>
        <time>2019-04-18T11:25:42Z</time>
      </trkpt>
      <trkpt lat="45.79638" lon="6.52818">
        <ele>1374</ele>
        <time>2019-04-18T11:26:42Z</time>
      </trkpt>
      <trkpt lat="45.79618" lon="6.52833">
        <ele>1381</ele>
        <time>2019-04-18T11:27:42Z</time>
      </trkpt>
      <trkpt lat="45.79616" lon="6.52838">
        <ele>1382</ele>
        <time>2019-04-18T11:28:42Z</time>
      </trkpt>
      <trkpt lat="45.79613" lon="6.52885">
        <ele>1382</ele>
        <time>2019-04-18T11:29:42Z</time>
      </trkpt>
      <trkpt lat="45.79598" lon="6.52936">
        <ele>1387</ele>
        <time>2019-04-18T11:30:42Z</time>
      </trkpt>
      <trkpt lat="45.79596" lon="6.52952">
        <ele>1388</ele>
        <time>2019-04-18T11:31:42Z</time>
      </trkpt>
      <trkpt lat="45.79598" lon="6.52988">
        <ele>1386</ele>
        <time>2019-04-18T11:32:42Z</time>
      </trkpt>
      <trkpt lat="45.79594" lon="6.53003">
        <ele>1387</ele>
        <time>2019-04-18T11:33:42Z</time>
      </trkpt>
      <trkpt lat="45.79579" lon="6.53031">
        <ele>1393</ele>
        <time>2019-04-18T11:34:42Z</time>
      </trkpt>
      <trkpt lat="45.79571" lon="6.53057">
        <ele>1394</ele>
        <time>2019-04-18T11:35:42Z</time>
      </trkpt>
      <trkpt lat="45.7956" lon="6.53068">
        <ele>1395</ele>
        <time>2019-04-18T11:36:42Z</time>
      </trkpt>
      <trkpt lat="45.7955" lon="6.53072">
        <ele>1397</ele>
        <time>2019-04-18T11:37:42Z</time>
      </trkpt>
      <trkpt lat="45.79521" lon="6.5307">
        <ele>1402</ele>
        <time>2019-04-18T11:38:42Z</time>
      </trkpt>
      <trkpt lat="45.79517" lon="6.53072">
        <ele>1403</ele>
        <time>2019-04-18T11:39:42Z</time>
      </trkpt>
      <trkpt lat="45.79512" lon="6.53079">
        <ele>1403</ele>
        <time>2019-04-18T11:40:42Z</time>
      </trkpt>
      <trkpt lat="45.79502" lon="6.53125">
        <ele>1403</ele>
        <time>2019-04-18T11:41:42Z</time>
      </trkpt>
      <trkpt lat="45.79498" lon="6.53156">
        <ele>1403</ele>
        <time>2019-04-18T11:42:42Z</time>
      </trkpt>
      <trkpt lat="45.79493" lon="6.53176">
        <ele>1402</ele>
        <time>2019-04-18T11:43:42Z</time>
      </trkpt>
      <trkpt lat="45.79482" lon="6.53197">
        <ele>1402</ele>
        <time>2019-04-18T11:44:42Z</time>
      </trkpt>
      <trkpt lat="45.79436" lon="6.53226">
        <ele>1409</ele>
        <time>2019-04-18T11:45:42Z</time>
      </trkpt>
      <trkpt lat="45.79403" lon="6.53261">
        <ele>1410</ele>
        <time>2019-04-18T11:46:42Z</time>
      </trkpt>
      <trkpt lat="45.79385" lon="6.53268">
        <ele>1412</ele>
        <time>2019-04-18T11:47:42Z</time>
      </trkpt>
      <trkpt lat="45.79377" lon="6.53265">
        <ele>1413</ele>
        <time>2019-04-18T11:48:42Z</time>
      </trkpt>
      <trkpt lat="45.79365" lon="6.53254">
        <ele>1416</ele>
        <time>2019-04-18T11:49:42Z</time>
      </trkpt>
      <trkpt lat="45.79348" lon="6.53231">
        <ele>1421</ele>
        <time>2019-04-18T11:50:42Z</time>
      </trkpt>
      <trkpt lat="45.79334" lon="6.53205">
        <ele>1426</ele>
        <time>2019-04-18T11:51:42Z</time>
      </trkpt>
      <trkpt lat="45.79327" lon="6.53197">
        <ele>1428</ele>
        <time>2019-04-18T11:52:42Z</time>
      </trkpt>
      <trkpt lat="45.79311" lon="6.53191">
        <ele>1430</ele>
        <time>2019-04-18T11:53:42Z</time>
      </trkpt>
      <trkpt lat="45.79278" lon="6.53202">
        <ele>1430</ele>
        <time>2019-04-18T11:54:42Z</time>
      </trkpt>
      <trkpt lat="45.79231" lon="6.53176">
        <ele>1435</ele>
        <time>2019-04-18T11:55:42Z</time>
      </trkpt>
      <trkpt lat="45.79212" lon="6.53171">
        <ele>1436</ele>
        <time>2019-04-18T11:56:42Z</time>
      </trkpt>
      <trkpt lat="45.7919" lon="6.53162">
        <ele>1438</ele>
        <time>2019-04-18T11:57:42Z</time>
      </trkpt>
      <trkpt lat="45.7917" lon="6.53151">
        <ele>1439</ele>
        <time>2019-04-18T11:58:42Z</time>
      </trkpt>
      <trkpt lat="45.79142" lon="6.53145">
        <ele>1442</ele>
        <time>2019-04-18T11:59:42Z</time>
      </trkpt>
      <trkpt lat="45.79099" lon="6.53144">
        <ele>1446</ele>
        <time>2019-04-18T12:00:42Z</time>
      </trkpt>
      <trkpt lat="45.79073" lon="6.53153">
        <ele>1449</ele>
        <time>2019-04-18T12:01:42Z</time>
      </trkpt>
      <trkpt lat="45.79023" lon="6.53213">
        <ele>1455</ele>
        <time>2019-04-18T12:02:42Z</time>
      </trkpt>
      <trkpt lat="45.78976" lon="6.53296">
        <ele>1458</ele>
        <time>2019-04-18T12:03:42Z</time>
      </trkpt>
      <trkpt lat="45.78952" lon="6.53333">
        <ele>1460</ele>
        <time>2019-04-18T12:04:42Z</time>
      </trkpt>
      <trkpt lat="45.78942" lon="6.53344">
        <ele>1462</ele>
        <time>2019-04-18T12:05:42Z</time>
      </trkpt>
      <trkpt lat="45.78929" lon="6.53352">
        <ele>1465</ele>
        <time>2019-04-18T12:06:42Z</time>
      </trkpt>
      <trkpt lat="45.78898" lon="6.53361">
        <ele>1471</ele>
        <time>2019-04-18T12:07:42Z</time>
      </trkpt>
      <trkpt lat="45.78884" lon="6.53365">
        <ele>1472</ele>
        <time>2019-04-18T12:08:42Z</time>
      </trkpt>
      <trkpt lat="45.78848" lon="6.53365">
        <ele>1477</ele>
        <time>2019-04-18T12:09:42Z</time>
      </trkpt>
      <trkpt lat="45.7883" lon="6.53379">
        <ele>1479</ele>
        <time>2019-04-18T12:10:42Z</time>
      </trkpt>
      <trkpt lat="45.78823" lon="6.5338">
        <ele>1479</ele>
        <time>2019-04-18T12:11:42Z</time>
      </trkpt>
      <trkpt lat="45.78812" lon="6.53374">
        <ele>1481</ele>
        <time>2019-04-18T12:12:42Z</time>
      </trkpt>
      <trkpt lat="45.78809" lon="6.53362">
        <ele>1483</ele>
        <time>2019-04-18T12:13:42Z</time>
      </trkpt>
      <trkpt lat="45.7881" lon="6.53352">
        <ele>1484</ele>
        <time>2019-04-18T12:14:42Z</time>
      </trkpt>
      <trkpt lat="45.78815" lon="6.53345">
        <ele>1484</ele>
        <time>2019-04-18T12:15:42Z</time>
      </trkpt>
      <trkpt lat="45.78848" lon="6.53321">
        <ele>1481</ele>
        <time>2019-04-18T12:16:42Z</time>
      </trkpt>
      <trkpt lat="45.78854" lon="6.53308">
        <ele>1481</ele>
        <time>2019-04-18T12:17:42Z</time>
      </trkpt>
      <trkpt lat="45.7886" lon="6.53264">
        <ele>1485</ele>
        <time>2019-04-18T12:18:42Z</time>
      </trkpt>
      <trkpt lat="45.78888" lon="6.53244">
        <ele>1483</ele>
        <time>2019-04-18T12:19:42Z</time>
      </trkpt>
      <trkpt lat="45.78892" lon="6.53239">
        <ele>1483</ele>
        <time>2019-04-18T12:20:42Z</time>
      </trkpt>
      <trkpt lat="45.78895" lon="6.53234">
        <ele>1483</ele>
        <time>2019-04-18T12:21:42Z</time>
      </trkpt>
      <trkpt lat="45.78896" lon="6.53221">
        <ele>1484</ele>
        <time>2019-04-18T12:22:42Z</time>
      </trkpt>
      <trkpt lat="45.78891" lon="6.53189">
        <ele>1489</ele>
        <time>2019-04-18T12:23:42Z</time>
      </trkpt>
      <trkpt lat="45.78888" lon="6.53181">
        <ele>1490</ele>
        <time>2019-04-18T12:24:42Z</time>
      </trkpt>
      <trkpt lat="45.7888" lon="6.53174">
        <ele>1493</ele>
        <time>2019-04-18T12:25:42Z</time>
      </trkpt>
      <trkpt lat="45.78858" lon="6.53167">
        <ele>1499</ele>
        <time>2019-04-18T12:26:42Z</time>
      </trkpt>
      <trkpt lat="45.78852" lon="6.53168">
        <ele>1500</ele>
        <time>2019-04-18T12:27:42Z</time>
      </trkpt>
      <trkpt lat="45.78832" lon="6.5318">
        <ele>1502</ele>
        <time>2019-04-18T12:28:42Z</time>
      </trkpt>
      <trkpt lat="45.78827" lon="6.53181">
        <ele>1503</ele>
        <time>2019-04-18T12:29:42Z</time>
      </trkpt>
      <trkpt lat="45.78805" lon="6.53174">
        <ele>1507</ele>
        <time>2019-04-18T12:30:42Z</time>
      </trkpt>
      <trkpt lat="45.7878" lon="6.53174">
        <ele>1511</ele>
        <time>2019-04-18T12:31:42Z</time>
      </trkpt>
      <trkpt lat="45.78771" lon="6.53172">
        <ele>1512</ele>
        <time>2019-04-18T12:32:42Z</time>
      </trkpt>
      <trkpt lat="45.78745" lon="6.53174">
        <ele>1515</ele>
        <time>2019-04-18T12:33:42Z</time>
      </trkpt>
      <trkpt lat="45.78691" lon="6.53162">
        <ele>1518</ele>
        <time>2019-04-18T12:34:42Z</time>
      </trkpt>
      <trkpt lat="45.78673" lon="6.53148">
        <ele>1522</ele>
        <time>2019-04-18T12:35:42Z</time>
      </trkpt>
      <trkpt lat="45.78641" lon="6.5314">
        <ele>1528</ele>
        <time>2019-04-18T12:36:42Z</time>
      </trkpt>
      <trkpt lat="45.78612" lon="6.53135">
        <ele>1533</ele>
        <time>2019-04-18T12:37:42Z</time>
      </trkpt>
      <trkpt lat="45.78597" lon="6.53136">
        <ele>1535</ele>
        <time>2019-04-18T12:38:42Z</time>
      </trkpt>
      <trkpt lat="45.78584" lon="6.53142">
        <ele>1535</ele>
        <time>2019-04-18T12:39:42Z</time>
      </trkpt>
      <trkpt lat="45.78577" lon="6.53163">
        <ele>1533</ele>
        <time>2019-04-18T12:40:42Z</time>
      </trkpt>
      <trkpt lat="45.78569" lon="6.53171">
        <ele>1533</ele>
        <time>2019-04-18T12:41:42Z</time>
      </trkpt>
      <trkpt lat="45.78544" lon="6.53175">
        <ele>1536</ele>
        <time>2019-04-18T12:42:42Z</time>
      </trkpt>
      <trkpt lat="45.7853" lon="6.53175">
        <ele>1538</ele>
        <time>2019-04-18T12:43:42Z</time>
      </trkpt>
      <trkpt lat="45.78508" lon="6.53169">
        <ele>1542</ele>
        <time>2019-04-18T12:44:42Z</time>
      </trkpt>
      <trkpt lat="45.78493" lon="6.53159">
        <ele>1542</ele>
        <time>2019-04-18T12:45:42Z</time>
      </trkpt>
      <trkpt lat="45.78478" lon="6.53144">
        <ele>1541</ele>
        <time>2019-04-18T12:46:42Z</time>
      </trkpt>
      <trkpt lat="45.78421" lon="6.53055">
        <ele>1549</ele>
        <time>2019-04-18T12:47:42Z</time>
      </trkpt>
      <trkpt lat="45.78385" lon="6.53007">
        <ele>1553</ele>
        <time>2019-04-18T12:48:42Z</time>
      </trkpt>
      <trkpt lat="45.78349" lon="6.52948">
        <ele>1556</ele>
        <time>2019-04-18T12:49:42Z</time>
      </trkpt>
      <trkpt lat="45.78341" lon="6.52937">
        <ele>1557</ele>
        <time>2019-04-18T12:50:42Z</time>
      </trkpt>
      <trkpt lat="45.78286" lon="6.52886">
        <ele>1553</ele>
        <time>2019-04-18T12:51:42Z</time>
      </trkpt>
      <trkpt lat="45.78268" lon="6.52867">
        <ele>1551</ele>
        <time>2019-04-18T12:52:42Z</time>
      </trkpt>
      <trkpt lat="45.78187" lon="6.52761">
        <ele>1552</ele>
        <time>2019-04-18T12:53:42Z</time>
      </trkpt>
      <trkpt lat="45.78173" lon="6.52752">
        <ele>1551</ele>
        <time>2019-04-18T12:54:42Z</time>
      </trkpt>
      <trkpt lat="45.78141" lon="6.52752">
        <ele>1552</ele>
        <time>2019-04-18T12:55:42Z</time>
      </trkpt>
      <trkpt lat="45.7813" lon="6.52749">
        <ele>1552</ele>
        <time>2019-04-18T12:56:42Z</time>
      </trkpt>
      <trkpt lat="45.78118" lon="6.52743">
        <ele>1554</ele>
        <time>2019-04-18T12:57:42Z</time>
      </trkpt>
      <trkpt lat="45.78097" lon="6.52728">
        <ele>1556</ele>
        <time>2019-04-18T12:58:42Z</time>
      </trkpt>
      <trkpt lat="45.78075" lon="6.52698">
        <ele>1559</ele>
        <time>2019-04-18T12:59:42Z</time>
      </trkpt>
      <trkpt lat="45.78057" lon="6.52681">
        <ele>1559</ele>
        <time>2019-04-18T13:00:42Z</time>
      </trkpt>
      <trkpt lat="45.78033" lon="6.52669">
        <ele>1559</ele>
        <time>2019-04-18T13:01:42Z</time>
      </trkpt>
      <trkpt lat="45.78015" lon="6.52666">
        <ele>1557</ele>
        <time>2019-04-18T13:02:42Z</time>
      </trkpt>
      <trkpt lat="45.77972" lon="6.52672">
        <ele>1557</ele>
        <time>2019-04-18T13:03:42Z</time>
      </trkpt>
      <trkpt lat="45.77941" lon="6.5268">
        <ele>1557</ele>
        <time>2019-04-18T13:04:42Z</time>
      </trkpt>
      <trkpt lat="45.77894" lon="6.52684">
        <ele>1555</ele>
        <time>2019-04-18T13:05:42Z</time>
      </trkpt>
      <trkpt lat="45.7787" lon="6.52678">
        <ele>1554</ele>
        <time>2019-04-18T13:06:42Z</time>
      </trkpt>
      <trkpt lat="45.77774" lon="6.52662">
        <ele>1553</ele>
        <time>2019-04-18T13:07:42Z</time>
      </trkpt>
      <trkpt lat="45.77742" lon="6.52662">
        <ele>1553</ele>
        <time>2019-04-18T13:08:42Z</time>
      </trkpt>
      <trkpt lat="45.77701" lon="6.52668">
        <ele>1550</ele>
        <time>2019-04-18T13:09:42Z</time>
      </trkpt>
      <trkpt lat="45.77649" lon="6.52658">
        <ele>1550</ele>
        <time>2019-04-18T13:10:42Z</time>
      </trkpt>
      <trkpt lat="45.77609" lon="6.52677">
        <ele>1552</ele>
        <time>2019-04-18T13:11:42Z</time>
      </trkpt>
      <trkpt lat="45.77587" lon="6.527">
        <ele>1552</ele>
        <time>2019-04-18T13:12:42Z</time>
      </trkpt>
      <trkpt lat="45.77571" lon="6.52735">
        <ele>1551</ele>
        <time>2019-04-18T13:13:42Z</time>
      </trkpt>
      <trkpt lat="45.77553" lon="6.52747">
        <ele>1550</ele>
        <time>2019-04-18T13:14:42Z</time>
      </trkpt>
      <trkpt lat="45.77544" lon="6.52757">
        <ele>1549</ele>
        <time>2019-04-18T13:15:42Z</time>
      </trkpt>
      <trkpt lat="45.77527" lon="6.52762">
        <ele>1548</ele>
        <time>2019-04-18T13:16:42Z</time>
      </trkpt>
      <trkpt lat="45.7749" lon="6.52745">
        <ele>1550</ele>
        <time>2019-04-18T13:17:42Z</time>
      </trkpt>
      <trkpt lat="45.77425" lon="6.52707">
        <ele>1553</ele>
        <time>2019-04-18T13:18:42Z</time>
      </trkpt>
      <trkpt lat="45.77379" lon="6.52714">
        <ele>1548</ele>
        <time>2019-04-18T13:19:42Z</time>
      </trkpt>
      <trkpt lat="45.77307" lon="6.52689">
        <ele>1548</ele>
        <time>2019-04-18T13:20:42Z</time>
      </trkpt>
      <trkpt lat="45.77264" lon="6.52681">
        <ele>1549</ele>
        <time>2019-04-18T13:21:42Z</time>
      </trkpt>
      <trkpt lat="45.77258" lon="6.52681">
        <ele>1549</ele>
        <time>2019-04-18T13:22:42Z</time>
      </trkpt>
      <trkpt lat="45.77242" lon="6.52715">
        <ele>1544</ele>
        <time>2019-04-18T13:23:42Z</time>
      </trkpt>
      <trkpt lat="45.77238" lon="6.5272">
        <ele>1544</ele>
        <time>2019-04-18T13:24:42Z</time>
      </trkpt>
      <trkpt lat="45.77194" lon="6.52728">
        <ele>1544</ele>
        <time>2019-04-18T13:25:42Z</time>
      </trkpt>
      <trkpt lat="45.77179" lon="6.52741">
        <ele>1543</ele>
        <time>2019-04-18T13:26:42Z</time>
      </trkpt>
      <trkpt lat="45.77121" lon="6.52783">
        <ele>1540</ele>
        <time>2019-04-18T13:27:42Z</time>
      </trkpt>
      <trkpt lat="45.77044" lon="6.52817">
        <ele>1544</ele>
        <time>2019-04-18T13:28:42Z</time>
      </trkpt>
      <trkpt lat="45.77038" lon="6.52819">
        <ele>1545</ele>
        <time>2019-04-18T13:29:42Z</time>
      </trkpt>
      <trkpt lat="45.76988" lon="6.5281">
        <ele>1551</ele>
        <time>2019-04-18T13:30:42Z</time>
      </trkpt>
      <trkpt lat="45.76897" lon="6.52809">
        <ele>1560</ele>
        <time>2019-04-18T13:31:42Z</time>
      </trkpt>
      <trkpt lat="45.76862" lon="6.52798">
        <ele>1562</ele>
        <time>2019-04-18T13:32:42Z</time>
      </trkpt>
      <trkpt lat="45.76859" lon="6.52801">
        <ele>1563</ele>
        <time>2019-04-18T13:33:42Z</time>
      </trkpt>
      <trkpt lat="45.76859" lon="6.5281">
        <ele>1563</ele>
        <time>2019-04-18T13:34:42Z</time>
      </trkpt>
      <trkpt lat="45.76885" lon="6.5283">
        <ele>1561</ele>
        <time>2019-04-18T13:35:42Z</time>
      </trkpt>
      <trkpt lat="45.76919" lon="6.52879">
        <ele>1566</ele>
        <time>2019-04-18T13:36:42Z</time>
      </trkpt>
      <trkpt lat="45.76919" lon="6.52887">
        <ele>1567</ele>
        <time>2019-04-18T13:37:42Z</time>
      </trkpt>
      <trkpt lat="45.76915" lon="6.52892">
        <ele>1568</ele>
        <time>2019-04-18T13:38:42Z</time>
      </trkpt>
      <trkpt lat="45.76909" lon="6.5289">
        <ele>1569</ele>
        <time>2019-04-18T13:39:42Z</time>
      </trkpt>
      <trkpt lat="45.76875" lon="6.52866">
        <ele>1568</ele>
        <time>2019-04-18T13:40:42Z</time>
      </trkpt>
      <trkpt lat="45.7685" lon="6.52856">
        <ele>1568</ele>
        <time>2019-04-18T13:41:42Z</time>
      </trkpt>
      <trkpt lat="45.76842" lon="6.52857">
        <ele>1569</ele>
        <time>2019-04-18T13:42:42Z</time>
      </trkpt>
      <trkpt lat="45.76824" lon="6.52864">
        <ele>1572</ele>
        <time>2019-04-18T13:43:42Z</time>
      </trkpt>
      <trkpt lat="45.76787" lon="6.52863">
        <ele>1576</ele>
        <time>2019-04-18T13:44:42Z</time>
      </trkpt>
      <trkpt lat="45.76777" lon="6.52867">
        <ele>1578</ele>
        <time>2019-04-18T13:45:42Z</time>
      </trkpt>
      <trkpt lat="45.76775" lon="6.52871">
        <ele>1579</ele>
        <time>2019-04-18T13:46:42Z</time>
      </trkpt>
      <trkpt lat="45.76777" lon="6.52875">
        <ele>1579</ele>
        <time>2019-04-18T13:47:42Z</time>
      </trkpt>
      <trkpt lat="45.76794" lon="6.52882">
        <ele>1579</ele>
        <time>2019-04-18T13:48:42Z</time>
      </trkpt>
      <trkpt lat="45.76801" lon="6.52888">
        <ele>1579</ele>
        <time>2019-04-18T13:49:42Z</time>
      </trkpt>
      <trkpt lat="45.76843" lon="6.52926">
        <ele>1583</ele>
        <time>2019-04-18T13:50:42Z</time>
      </trkpt>
      <trkpt lat="45.7685" lon="6.52939">
        <ele>1585</ele>
        <time>2019-04-18T13:51:42Z</time>
      </trkpt>
      <trkpt lat="45.76857" lon="6.52979">
        <ele>1593</ele>
        <time>2019-04-18T13:52:42Z</time>
      </trkpt>
      <trkpt lat="45.76867" lon="6.53016">
        <ele>1597</ele>
        <time>2019-04-18T13:53:42Z</time>
      </trkpt>
      <trkpt lat="45.76876" lon="6.53038">
        <ele>1598</ele>
        <time>2019-04-18T13:54:42Z</time>
      </trkpt>
      <trkpt lat="45.76915" lon="6.53086">
        <ele>1597</ele>
        <time>2019-04-18T13:55:42Z</time>
      </trkpt>
      <trkpt lat="45.7695" lon="6.53133">
        <ele>1600</ele>
        <time>2019-04-18T13:56:42Z</time>
      </trkpt>
      <trkpt lat="45.76965" lon="6.53165">
        <ele>1604</ele>
        <time>2019-04-18T13:57:42Z</time>
      </trkpt>
      <trkpt lat="45.76976" lon="6.53197">
        <ele>1609</ele>
        <time>2019-04-18T13:58:42Z</time>
      </trkpt>
      <trkpt lat="45.76986" lon="6.53241">
        <ele>1615</ele>
        <time>2019-04-18T13:59:42Z</time>
      </trkpt>
      <trkpt lat="45.76998" lon="6.53262">
        <ele>1616</ele>
        <time>2019-04-18T14:00:42Z</time>
      </trkpt>
      <trkpt lat="45.77026" lon="6.53289">
        <ele>1612</ele>
        <time>2019-04-18T14:01:42Z</time>
      </trkpt>
      <trkpt lat="45.77028" lon="6.53293">
        <ele>1612</ele>
        <time>2019-04-18T14:02:42Z</time>
      </trkpt>
      <trkpt lat="45.77029" lon="6.53302">
        <ele>1613</ele>
        <time>2019-04-18T14:03:42Z</time>
      </trkpt>
      <trkpt lat="45.77029" lon="6.5331">
        <ele>1614</ele>
        <time>2019-04-18T14:04:42Z</time>
      </trkpt>
      <trkpt lat="45.76971" lon="6.53264">
        <ele>1625</ele>
        <time>2019-04-18T14:05:42Z</time>
      </trkpt>
      <trkpt lat="45.76925" lon="6.53215">
        <ele>1625</ele>
        <time>2019-04-18T14:06:42Z</time>
      </trkpt>
      <trkpt lat="45.76873" lon="6.53189">
        <ele>1624</ele>
        <time>2019-04-18T14:07:42Z</time>
      </trkpt>
      <trkpt lat="45.76856" lon="6.53183">
        <ele>1624</ele>
        <time>2019-04-18T14:08:42Z</time>
      </trkpt>
      <trkpt lat="45.76844" lon="6.53181">
        <ele>1625</ele>
        <time>2019-04-18T14:09:42Z</time>
      </trkpt>
      <trkpt lat="45.76824" lon="6.53182">
        <ele>1628</ele>
        <time>2019-04-18T14:10:42Z</time>
      </trkpt>
      <trkpt lat="45.76664" lon="6.53241">
        <ele>1640</ele>
        <time>2019-04-18T14:11:42Z</time>
      </trkpt>
      <trkpt lat="45.76607" lon="6.53267">
        <ele>1644</ele>
        <time>2019-04-18T14:12:42Z</time>
      </trkpt>
      <trkpt lat="45.76505" lon="6.53346">
        <ele>1651</ele>
        <time>2019-04-18T14:13:42Z</time>
      </trkpt>
      <trkpt lat="45.76395" lon="6.53385">
        <ele>1658</ele>
        <time>2019-04-18T14:14:42Z</time>
      </trkpt>
      <trkpt lat="45.76346" lon="6.53387">
        <ele>1658</ele>
        <time>2019-04-18T14:15:42Z</time>
      </trkpt>
      <trkpt lat="45.76336" lon="6.53377">
        <ele>1658</ele>
        <time>2019-04-18T14:16:42Z</time>
      </trkpt>
      <trkpt lat="45.76334" lon="6.53366">
        <ele>1657</ele>
        <time>2019-04-18T14:17:42Z</time>
      </trkpt>
      <trkpt lat="45.76327" lon="6.5336">
        <ele>1656</ele>
        <time>2019-04-18T14:18:42Z</time>
      </trkpt>
      <trkpt lat="45.76324" lon="6.5336">
        <ele>1656</ele>
        <time>2019-04-18T14:19:42Z</time>
      </trkpt>
      <trkpt lat="45.76317" lon="6.53365">
        <ele>1657</ele>
        <time>2019-04-18T14:20:42Z</time>
      </trkpt>
      <trkpt lat="45.76315" lon="6.53372">
        <ele>1658</ele>
        <time>2019-04-18T14:21:42Z</time>
      </trkpt>
      <trkpt lat="45.76283" lon="6.53347">
        <ele>1656</ele>
        <time>2019-04-18T14:22:42Z</time>
      </trkpt>
      <trkpt lat="45.76237" lon="6.53335">
        <ele>1656</ele>
        <time>2019-04-18T14:23:42Z</time>
      </trkpt>
      <trkpt lat="45.76177" lon="6.53333">
        <ele>1657</ele>
        <time>2019-04-18T14:24:42Z</time>
      </trkpt>
      <trkpt lat="45.76123" lon="6.53336">
        <ele>1658</ele>
        <time>2019-04-18T14:25:42Z</time>
      </trkpt>
      <trkpt lat="45.76031" lon="6.53357">
        <ele>1659</ele>
        <time>2019-04-18T14:26:42Z</time>
      </trkpt>
      <trkpt lat="45.75995" lon="6.53377">
        <ele>1659</ele>
        <time>2019-04-18T14:27:42Z</time>
      </trkpt>
      <trkpt lat="45.75956" lon="6.53414">
        <ele>1658</ele>
        <time>2019-04-18T14:28:42Z</time>
      </trkpt>
      <trkpt lat="45.75952" lon="6.53411">
        <ele>1658</ele>
        <time>2019-04-18T14:29:42Z</time>
      </trkpt>
      <trkpt lat="45.75945" lon="6.53409">
        <ele>1658</ele>
        <time>2019-04-18T14:30:42Z</time>
      </trkpt>
      <trkpt lat="45.75941" lon="6.53412">
        <ele>1657</ele>
        <time>2019-04-18T14:31:42Z</time>
      </trkpt>
      <trkpt lat="45.75936" lon="6.5342">
        <ele>1657</ele>
        <time>2019-04-18T14:32:42Z</time>
      </trkpt>
      <trkpt lat="45.75936" lon="6.53426">
        <ele>1657</ele>
        <time>2019-04-18T14:33:42Z</time>
      </trkpt>
      <trkpt lat="45.75939" lon="6.53438">
        <ele>1658</ele>
        <time>2019-04-18T14:34:42Z</time>
      </trkpt>
      <trkpt lat="45.75887" lon="6.53545">
        <ele>1656</ele>
        <time>2019-04-18T14:35:42Z</time>
      </trkpt>
      <trkpt lat="45.75878" lon="6.53551">
        <ele>1655</ele>
        <time>2019-04-18T14:36:42Z</time>
      </trkpt>
      <trkpt lat="45.75844" lon="6.53592">
        <ele>1653</ele>
        <time>2019-04-18T14:37:42Z</time>
      </trkpt>
      <trkpt lat="45.7583" lon="6.5362">
        <ele>1652</ele>
        <time>2019-04-18T14:38:42Z</time>
      </trkpt>
      <trkpt lat="45.75819" lon="6.53653">
        <ele>1651</ele>
        <time>2019-04-18T14:39:42Z</time>
      </trkpt>
      <trkpt lat="45.75805" lon="6.53683">
        <ele>1650</ele>
        <time>2019-04-18T14:40:42Z</time>
      </trkpt>
      <trkpt lat="45.75797" lon="6.53708">
        <ele>1649</ele>
        <time>2019-04-18T14:41:42Z</time>
      </trkpt>
      <trkpt lat="45.75788" lon="6.53749">
        <ele>1648</ele>
        <time>2019-04-18T14:42:42Z</time>
      </trkpt>
      <trkpt lat="45.75751" lon="6.53841">
        <ele>1641</ele>
        <time>2019-04-18T14:43:42Z</time>
      </trkpt>
      <trkpt lat="45.75732" lon="6.5391">
        <ele>1638</ele>
        <time>2019-04-18T14:44:42Z</time>
      </trkpt>
      <trkpt lat="45.75723" lon="6.53928">
        <ele>1636</ele>
        <time>2019-04-18T14:45:42Z</time>
      </trkpt>
      <trkpt lat="45.75719" lon="6.53925">
        <ele>1635</ele>
        <time>2019-04-18T14:46:42Z</time>
      </trkpt>
      <trkpt lat="45.75714" lon="6.53928">
        <ele>1635</ele>
        <time>2019-04-18T14:47:42Z</time>
      </trkpt>
      <trkpt lat="45.75713" lon="6.53935">
        <ele>1635</ele>
        <time>2019-04-18T14:48:42Z</time>
      </trkpt>
      <trkpt lat="45.75715" lon="6.53942">
        <ele>1635</ele>
        <time>2019-04-18T14:49:42Z</time>
      </trkpt>
      <trkpt lat="45.75692" lon="6.53992">
        <ele>1632</ele>
        <time>2019-04-18T14:50:42Z</time>
      </trkpt>
      <trkpt lat="45.7565" lon="6.54075">
        <ele>1626</ele>
        <time>2019-04-18T14:51:42Z</time>
      </trkpt>
      <trkpt lat="45.75647" lon="6.54074">
        <ele>1625</ele>
        <time>2019-04-18T14:52:42Z</time>
      </trkpt>
      <trkpt lat="45.75642" lon="6.54077">
        <ele>1625</ele>
        <time>2019-04-18T14:53:42Z</time>
      </trkpt>
      <trkpt lat="45.75641" lon="6.54083">
        <ele>1625</ele>
        <time>2019-04-18T14:54:42Z</time>
      </trkpt>
      <trkpt lat="45.75644" lon="6.54092">
        <ele>1625</ele>
        <time>2019-04-18T14:55:42Z</time>
      </trkpt>
      <trkpt lat="45.75629" lon="6.54143">
        <ele>1623</ele>
        <time>2019-04-18T14:56:42Z</time>
      </trkpt>
      <trkpt lat="45.75613" lon="6.54229">
        <ele>1619</ele>
        <time>2019-04-18T14:57:42Z</time>
      </trkpt>
      <trkpt lat="45.75599" lon="6.54271">
        <ele>1616</ele>
        <time>2019-04-18T14:58:42Z</time>
      </trkpt>
      <trkpt lat="45.75553" lon="6.54396">
        <ele>1608</ele>
        <time>2019-04-18T14:59:42Z</time>
      </trkpt>
      <trkpt lat="45.75518" lon="6.54498">
        <ele>1605</ele>
        <time>2019-04-18T15:00:42Z</time>
      </trkpt>
      <trkpt lat="45.75497" lon="6.54538">
        <ele>1604</ele>
        <time>2019-04-18T15:01:42Z</time>
      </trkpt>
      <trkpt lat="45.75477" lon="6.54559">
        <ele>1602</ele>
        <time>2019-04-18T15:02:42Z</time>
      </trkpt>
      <trkpt lat="45.75444" lon="6.54588">
        <ele>1598</ele>
        <time>2019-04-18T15:03:42Z</time>
      </trkpt>
      <trkpt lat="45.7542" lon="6.54593">
        <ele>1593</ele>
        <time>2019-04-18T15:04:42Z</time>
      </trkpt>
      <trkpt lat="45.75391" lon="6.54586">
        <ele>1588</ele>
        <time>2019-04-18T15:05:42Z</time>
      </trkpt>
      <trkpt lat="45.75363" lon="6.54597">
        <ele>1587</ele>
        <time>2019-04-18T15:06:42Z</time>
      </trkpt>
      <trkpt lat="45.75305" lon="6.54636">
        <ele>1585</ele>
        <time>2019-04-18T15:07:42Z</time>
      </trkpt>
      <trkpt lat="45.75277" lon="6.54638">
        <ele>1582</ele>
        <time>2019-04-18T15:08:42Z</time>
      </trkpt>
      <trkpt lat="45.75106" lon="6.54708">
        <ele>1569</ele>
        <time>2019-04-18T15:09:42Z</time>
      </trkpt>
      <trkpt lat="45.75033" lon="6.54731">
        <ele>1565</ele>
        <time>2019-04-18T15:10:42Z</time>
      </trkpt>
      <trkpt lat="45.74956" lon="6.54744">
        <ele>1558</ele>
        <time>2019-04-18T15:11:42Z</time>
      </trkpt>
      <trkpt lat="45.74867" lon="6.5477">
        <ele>1552</ele>
        <time>2019-04-18T15:12:42Z</time>
      </trkpt>
      <trkpt lat="45.74845" lon="6.54764">
        <ele>1550</ele>
        <time>2019-04-18T15:13:42Z</time>
      </trkpt>
      <trkpt lat="45.74811" lon="6.54745">
        <ele>1546</ele>
        <time>2019-04-18T15:14:42Z</time>
      </trkpt>
      <trkpt lat="45.74788" lon="6.54749">
        <ele>1543</ele>
        <time>2019-04-18T15:15:42Z</time>
      </trkpt>
      <trkpt lat="45.74767" lon="6.5476">
        <ele>1541</ele>
        <time>2019-04-18T15:16:42Z</time>
      </trkpt>
      <trkpt lat="45.74751" lon="6.54778">
        <ele>1539</ele>
        <time>2019-04-18T15:17:42Z</time>
      </trkpt>
      <trkpt lat="45.74742" lon="6.54803">
        <ele>1538</ele>
        <time>2019-04-18T15:18:42Z</time>
      </trkpt>
      <trkpt lat="45.74738" lon="6.54839">
        <ele>1538</ele>
        <time>2019-04-18T15:19:42Z</time>
      </trkpt>
      <trkpt lat="45.74724" lon="6.5487">
        <ele>1536</ele>
        <time>2019-04-18T15:20:42Z</time>
      </trkpt>
      <trkpt lat="45.74696" lon="6.54899">
        <ele>1532</ele>
        <time>2019-04-18T15:21:42Z</time>
      </trkpt>
      <trkpt lat="45.74658" lon="6.54904">
        <ele>1527</ele>
        <time>2019-04-18T15:22:42Z</time>
      </trkpt>
      <trkpt lat="45.74613" lon="6.54915">
        <ele>1525</ele>
        <time>2019-04-18T15:23:42Z</time>
      </trkpt>
      <trkpt lat="45.74564" lon="6.54936">
        <ele>1522</ele>
        <time>2019-04-18T15:24:42Z</time>
      </trkpt>
      <trkpt lat="45.74532" lon="6.54954">
        <ele>1520</ele>
        <time>2019-04-18T15:25:42Z</time>
      </trkpt>
      <trkpt lat="45.7452" lon="6.54956">
        <ele>1519</ele>
        <time>2019-04-18T15:26:42Z</time>
      </trkpt>
      <trkpt lat="45.74486" lon="6.54925">
        <ele>1516</ele>
        <time>2019-04-18T15:27:42Z</time>
      </trkpt>
      <trkpt lat="45.74459" lon="6.5492">
        <ele>1516</ele>
        <time>2019-04-18T15:28:42Z</time>
      </trkpt>
      <trkpt lat="45.74445" lon="6.54924">
        <ele>1515</ele>
        <time>2019-04-18T15:29:42Z</time>
      </trkpt>
      <trkpt lat="45.74424" lon="6.54944">
        <ele>1515</ele>
        <time>2019-04-18T15:30:42Z</time>
      </trkpt>
      <trkpt lat="45.74315" lon="6.5508">
        <ele>1494</ele>
        <time>2019-04-18T15:31:42Z</time>
      </trkpt>
      <trkpt lat="45.74304" lon="6.55106">
        <ele>1492</ele>
        <time>2019-04-18T15:32:42Z</time>
      </trkpt>
      <trkpt lat="45.74291" lon="6.55179">
        <ele>1488</ele>
        <time>2019-04-18T15:33:42Z</time>
      </trkpt>
      <trkpt lat="45.74297" lon="6.55216">
        <ele>1487</ele>
        <time>2019-04-18T15:34:42Z</time>
      </trkpt>
      <trkpt lat="45.74315" lon="6.55297">
        <ele>1485</ele>
        <time>2019-04-18T15:35:42Z</time>
      </trkpt>
      <trkpt lat="45.74314" lon="6.55332">
        <ele>1482</ele>
        <time>2019-04-18T15:36:42Z</time>
      </trkpt>
      <trkpt lat="45.74294" lon="6.55448">
        <ele>1472</ele>
        <time>2019-04-18T15:37:42Z</time>
      </trkpt>
      <trkpt lat="45.74297" lon="6.55484">
        <ele>1471</ele>
        <time>2019-04-18T15:38:42Z</time>
      </trkpt>
      <trkpt lat="45.7431" lon="6.55526">
        <ele>1471</ele>
        <time>2019-04-18T15:39:42Z</time>
      </trkpt>
      <trkpt lat="45.74316" lon="6.5557">
        <ele>1469</ele>
        <time>2019-04-18T15:40:42Z</time>
      </trkpt>
      <trkpt lat="45.74322" lon="6.55639">
        <ele>1464</ele>
        <time>2019-04-18T15:41:42Z</time>
      </trkpt>
      <trkpt lat="45.74333" lon="6.55662">
        <ele>1463</ele>
        <time>2019-04-18T15:42:42Z</time>
      </trkpt>
      <trkpt lat="45.74349" lon="6.55684">
        <ele>1464</ele>
        <time>2019-04-18T15:43:42Z</time>
      </trkpt>
      <trkpt lat="45.7436" lon="6.55708">
        <ele>1462</ele>
        <time>2019-04-18T15:44:42Z</time>
      </trkpt>
      <trkpt lat="45.74369" lon="6.55748">
        <ele>1457</ele>
        <time>2019-04-18T15:45:42Z</time>
      </trkpt>
      <trkpt lat="45.74396" lon="6.55792">
        <ele>1457</ele>
        <time>2019-04-18T15:46:42Z</time>
      </trkpt>
      <trkpt lat="45.744" lon="6.55812">
        <ele>1454</ele>
        <time>2019-04-18T15:47:42Z</time>
      </trkpt>
      <trkpt lat="45.74398" lon="6.55865">
        <ele>1446</ele>
        <time>2019-04-18T15:48:42Z</time>
      </trkpt>
      <trkpt lat="45.74402" lon="6.55889">
        <ele>1444</ele>
        <time>2019-04-18T15:49:42Z</time>
      </trkpt>
      <trkpt lat="45.7441" lon="6.55903">
        <ele>1443</ele>
        <time>2019-04-18T15:50:42Z</time>
      </trkpt>
      <trkpt lat="45.7442" lon="6.55916">
        <ele>1444</ele>
        <time>2019-04-18T15:51:42Z</time>
      </trkpt>
      <trkpt lat="45.74423" lon="6.55923">
        <ele>1443</ele>
        <time>2019-04-18T15:52:42Z</time>
      </trkpt>
      <trkpt lat="45.7442" lon="6.55935">
        <ele>1441</ele>
        <time>2019-04-18T15:53:42Z</time>
      </trkpt>
      <trkpt lat="45.74415" lon="6.55937">
        <ele>1440</ele>
        <time>2019-04-18T15:54:42Z</time>
      </trkpt>
      <trkpt lat="45.74408" lon="6.55933">
        <ele>1439</ele>
        <time>2019-04-18T15:55:42Z</time>
      </trkpt>
      <trkpt lat="45.744" lon="6.55919">
        <ele>1439</ele>
        <time>2019-04-18T15:56:42Z</time>
      </trkpt>
      <trkpt lat="45.74369" lon="6.55824">
        <ele>1445</ele>
        <time>2019-04-18T15:57:42Z</time>
      </trkpt>
      <trkpt lat="45.74362" lon="6.55818">
        <ele>1444</ele>
        <time>2019-04-18T15:58:42Z</time>
      </trkpt>
      <trkpt lat="45.74336" lon="6.55808">
        <ele>1440</ele>
        <time>2019-04-18T15:59:42Z</time>
      </trkpt>
      <trkpt lat="45.74299" lon="6.55802">
        <ele>1432</ele>
        <time>2019-04-18T16:00:42Z</time>
      </trkpt>
      <trkpt lat="45.74279" lon="6.55796">
        <ele>1429</ele>
        <time>2019-04-18T16:01:42Z</time>
      </trkpt>
      <trkpt lat="45.74258" lon="6.5577">
        <ele>1427</ele>
        <time>2019-04-18T16:02:42Z</time>
      </trkpt>
      <trkpt lat="45.74213" lon="6.5574">
        <ele>1421</ele>
        <time>2019-04-18T16:03:42Z</time>
      </trkpt>
      <trkpt lat="45.74195" lon="6.5571">
        <ele>1421</ele>
        <time>2019-04-18T16:04:42Z</time>
      </trkpt>
      <trkpt lat="45.74171" lon="6.55639">
        <ele>1422</ele>
        <time>2019-04-18T16:05:42Z</time>
      </trkpt>
      <trkpt lat="45.74167" lon="6.55633">
        <ele>1421</ele>
        <time>2019-04-18T16:06:42Z</time>
      </trkpt>
      <trkpt lat="45.74161" lon="6.55632">
        <ele>1420</ele>
        <time>2019-04-18T16:07:42Z</time>
      </trkpt>
      <trkpt lat="45.74156" lon="6.55637">
        <ele>1419</ele>
        <time>2019-04-18T16:08:42Z</time>
      </trkpt>
      <trkpt lat="45.74156" lon="6.55647">
        <ele>1418</ele>
        <time>2019-04-18T16:09:42Z</time>
      </trkpt>
      <trkpt lat="45.74164" lon="6.55673">
        <ele>1417</ele>
        <time>2019-04-18T16:10:42Z</time>
      </trkpt>
      <trkpt lat="45.74172" lon="6.55762">
        <ele>1408</ele>
        <time>2019-04-18T16:11:42Z</time>
      </trkpt>
      <trkpt lat="45.74178" lon="6.55787">
        <ele>1408</ele>
        <time>2019-04-18T16:12:42Z</time>
      </trkpt>
      <trkpt lat="45.742" lon="6.55839">
        <ele>1407</ele>
        <time>2019-04-18T16:13:42Z</time>
      </trkpt>
      <trkpt lat="45.74203" lon="6.55875">
        <ele>1404</ele>
        <time>2019-04-18T16:14:42Z</time>
      </trkpt>
      <trkpt lat="45.74208" lon="6.55902">
        <ele>1402</ele>
        <time>2019-04-18T16:15:42Z</time>
      </trkpt>
      <trkpt lat="45.74208" lon="6.55933">
        <ele>1399</ele>
        <time>2019-04-18T16:16:42Z</time>
      </trkpt>
      <trkpt lat="45.74225" lon="6.55977">
        <ele>1395</ele>
        <time>2019-04-18T16:17:42Z</time>
      </trkpt>
      <trkpt lat="45.7425" lon="6.56015">
        <ele>1392</ele>
        <time>2019-04-18T16:18:42Z</time>
      </trkpt>
      <trkpt lat="45.7427" lon="6.56038">
        <ele>1393</ele>
        <time>2019-04-18T16:19:42Z</time>
      </trkpt>
      <trkpt lat="45.7429" lon="6.56073">
        <ele>1392</ele>
        <time>2019-04-18T16:20:42Z</time>
      </trkpt>
      <trkpt lat="45.74297" lon="6.56105">
        <ele>1390</ele>
        <time>2019-04-18T16:21:42Z</time>
      </trkpt>
      <trkpt lat="45.74301" lon="6.56157">
        <ele>1384</ele>
        <time>2019-04-18T16:22:42Z</time>
      </trkpt>
      <trkpt lat="45.74329" lon="6.5625">
        <ele>1384</ele>
        <time>2019-04-18T16:23:42Z</time>
      </trkpt>
      <trkpt lat="45.74335" lon="6.56281">
        <ele>1382</ele>
        <time>2019-04-18T16:24:42Z</time>
      </trkpt>
      <trkpt lat="45.74336" lon="6.56293">
        <ele>1381</ele>
        <time>2019-04-18T16:25:42Z</time>
      </trkpt>
      <trkpt lat="45.74333" lon="6.56308">
        <ele>1378</ele>
        <time>2019-04-18T16:26:42Z</time>
      </trkpt>
      <trkpt lat="45.74323" lon="6.56321">
        <ele>1376</ele>
        <time>2019-04-18T16:27:42Z</time>
      </trkpt>
      <trkpt lat="45.74311" lon="6.56333">
        <ele>1373</ele>
        <time>2019-04-18T16:28:42Z</time>
      </trkpt>
      <trkpt lat="45.74274" lon="6.56361">
        <ele>1370</ele>
        <time>2019-04-18T16:29:42Z</time>
      </trkpt>
      <trkpt lat="45.74267" lon="6.56371">
        <ele>1369</ele>
        <time>2019-04-18T16:30:42Z</time>
      </trkpt>
      <trkpt lat="45.74262" lon="6.5639">
        <ele>1368</ele>
        <time>2019-04-18T16:31:42Z</time>
      </trkpt>
      <trkpt lat="45.74264" lon="6.56417">
        <ele>1368</ele>
        <time>2019-04-18T16:32:42Z</time>
      </trkpt>
      <trkpt lat="45.74278" lon="6.56451">
        <ele>1365</ele>
        <time>2019-04-18T16:33:42Z</time>
      </trkpt>
      <trkpt lat="45.74308" lon="6.56515">
        <ele>1360</ele>
        <time>2019-04-18T16:34:42Z</time>
      </trkpt>
      <trkpt lat="45.74341" lon="6.56579">
        <ele>1354</ele>
        <time>2019-04-18T16:35:42Z</time>
      </trkpt>
      <trkpt lat="45.74371" lon="6.56654">
        <ele>1348</ele>
        <time>2019-04-18T16:36:42Z</time>
      </trkpt>
      <trkpt lat="45.744" lon="6.56698">
        <ele>1348</ele>
        <time>2019-04-18T16:37:42Z</time>
      </trkpt>
      <trkpt lat="45.74421" lon="6.56722">
        <ele>1349</ele>
        <time>2019-04-18T16:38:42Z</time>
      </trkpt>
      <trkpt lat="45.74441" lon="6.56755">
        <ele>1347</ele>
        <time>2019-04-18T16:39:42Z</time>
      </trkpt>
      <trkpt lat="45.74457" lon="6.5679">
        <ele>1345</ele>
        <time>2019-04-18T16:40:42Z</time>
      </trkpt>
      <trkpt lat="45.74462" lon="6.56812">
        <ele>1345</ele>
        <time>2019-04-18T16:41:42Z</time>
      </trkpt>
      <trkpt lat="45.74464" lon="6.56833">
        <ele>1343</ele>
        <time>2019-04-18T16:42:42Z</time>
      </trkpt>
      <trkpt lat="45.74451" lon="6.56901">
        <ele>1332</ele>
        <time>2019-04-18T16:43:42Z</time>
      </trkpt>
      <trkpt lat="45.74455" lon="6.5693">
        <ele>1328</ele>
        <time>2019-04-18T16:44:42Z</time>
      </trkpt>
      <trkpt lat="45.74481" lon="6.56977">
        <ele>1326</ele>
        <time>2019-04-18T16:45:42Z</time>
      </trkpt>
      <trkpt lat="45.74495" lon="6.56999">
        <ele>1326</ele>
        <time>2019-04-18T16:46:42Z</time>
      </trkpt>
      <trkpt lat="45.74522" lon="6.57029">
        <ele>1324</ele>
        <time>2019-04-18T16:47:42Z</time>
      </trkpt>
      <trkpt lat="45.7461" lon="6.57089">
        <ele>1327</ele>
        <time>2019-04-18T16:48:42Z</time>
      </trkpt>
      <trkpt lat="45.74665" lon="6.5713">
        <ele>1325</ele>
        <time>2019-04-18T16:49:42Z</time>
      </trkpt>
      <trkpt lat="45.74714" lon="6.57172">
        <ele>1324</ele>
        <time>2019-04-18T16:50:42Z</time>
      </trkpt>
      <trkpt lat="45.7474" lon="6.57187">
        <ele>1324</ele>
        <time>2019-04-18T16:51:42Z</time>
      </trkpt>
      <trkpt lat="45.74752" lon="6.57199">
        <ele>1322</ele>
        <time>2019-04-18T16:52:42Z</time>
      </trkpt>
      <trkpt lat="45.74758" lon="6.57209">
        <ele>1321</ele>
        <time>2019-04-18T16:53:42Z</time>
      </trkpt>
      <trkpt lat="45.74776" lon="6.57252">
        <ele>1310</ele>
        <time>2019-04-18T16:54:42Z</time>
      </trkpt>
      <trkpt lat="45.74793" lon="6.57279">
        <ele>1307</ele>
        <time>2019-04-18T16:55:42Z</time>
      </trkpt>
      <trkpt lat="45.74818" lon="6.5731">
        <ele>1304</ele>
        <time>2019-04-18T16:56:42Z</time>
      </trkpt>
      <trkpt lat="45.74877" lon="6.57376">
        <ele>1301</ele>
        <time>2019-04-18T16:57:42Z</time>
      </trkpt>
      <trkpt lat="45.74944" lon="6.57447">
        <ele>1290</ele>
        <time>2019-04-18T16:58:42Z</time>
      </trkpt>
      <trkpt lat="45.74965" lon="6.57483">
        <ele>1277</ele>
        <time>2019-04-18T16:59:42Z</time>
      </trkpt>
      <trkpt lat="45.75008" lon="6.57509">
        <ele>1276</ele>
        <time>2019-04-18T17:00:42Z</time>
      </trkpt>
      <trkpt lat="45.75035" lon="6.57562">
        <ele>1264</ele>
        <time>2019-04-18T17:01:42Z</time>
      </trkpt>
      <trkpt lat="45.75065" lon="6.57593">
        <ele>1261</ele>
        <time>2019-04-18T17:02:42Z</time>
      </trkpt>
      <trkpt lat="45.75091" lon="6.57599">
        <ele>1266</ele>
        <time>2019-04-18T17:03:42Z</time>
      </trkpt>
      <trkpt lat="45.75101" lon="6.57605">
        <ele>1266</ele>
        <time>2019-04-18T17:04:42Z</time>
      </trkpt>
      <trkpt lat="45.7515" lon="6.57673">
        <ele>1259</ele>
        <time>2019-04-18T17:05:42Z</time>
      </trkpt>
      <trkpt lat="45.75156" lon="6.57687">
        <ele>1258</ele>
        <time>2019-04-18T17:06:42Z</time>
      </trkpt>
      <trkpt lat="45.75157" lon="6.57709">
        <ele>1253</ele>
        <time>2019-04-18T17:07:42Z</time>
      </trkpt>
      <trkpt lat="45.75162" lon="6.57744">
        <ele>1248</ele>
        <time>2019-04-18T17:08:42Z</time>
      </trkpt>
      <trkpt lat="45.75167" lon="6.57753">
        <ele>1248</ele>
        <time>2019-04-18T17:09:42Z</time>
      </trkpt>
      <trkpt lat="45.75173" lon="6.57758">
        <ele>1249</ele>
        <time>2019-04-18T17:10:42Z</time>
      </trkpt>
      <trkpt lat="45.75179" lon="6.57759">
        <ele>1251</ele>
        <time>2019-04-18T17:11:42Z</time>
      </trkpt>
      <trkpt lat="45.75189" lon="6.57765">
        <ele>1253</ele>
        <time>2019-04-18T17:12:42Z</time>
      </trkpt>
      <trkpt lat="45.75192" lon="6.57773">
        <ele>1253</ele>
        <time>2019-04-18T17:13:42Z</time>
      </trkpt>
      <trkpt lat="45.75192" lon="6.57779">
        <ele>1252</ele>
        <time>2019-04-18T17:14:42Z</time>
      </trkpt>
      <trkpt lat="45.75189" lon="6.57786">
        <ele>1249</ele>
        <time>2019-04-18T17:15:42Z</time>
      </trkpt>
      <trkpt lat="45.75184" lon="6.57789">
        <ele>1247</ele>
        <time>2019-04-18T17:16:42Z</time>
      </trkpt>
      <trkpt lat="45.75161" lon="6.57779">
        <ele>1241</ele>
        <time>2019-04-18T17:17:42Z</time>
      </trkpt>
      <trkpt lat="45.75147" lon="6.57766">
        <ele>1239</ele>
        <time>2019-04-18T17:18:42Z</time>
      </trkpt>
      <trkpt lat="45.75136" lon="6.57745">
        <ele>1239</ele>
        <time>2019-04-18T17:19:42Z</time>
      </trkpt>
      <trkpt lat="45.75126" lon="6.5771">
        <ele>1244</ele>
        <time>2019-04-18T17:20:42Z</time>
      </trkpt>
      <trkpt lat="45.75114" lon="6.57691">
        <ele>1245</ele>
        <time>2019-04-18T17:21:42Z</time>
      </trkpt>
      <trkpt lat="45.75098" lon="6.57678">
        <ele>1243</ele>
        <time>2019-04-18T17:22:42Z</time>
      </trkpt>
      <trkpt lat="45.75052" lon="6.57675">
        <ele>1233</ele>
        <time>2019-04-18T17:23:42Z</time>
      </trkpt>
      <trkpt lat="45.75003" lon="6.5766">
        <ele>1227</ele>
        <time>2019-04-18T17:24:42Z</time>
      </trkpt>
      <trkpt lat="45.74977" lon="6.57646">
        <ele>1226</ele>
        <time>2019-04-18T17:25:42Z</time>
      </trkpt>
      <trkpt lat="45.7492" lon="6.57627">
        <ele>1221</ele>
        <time>2019-04-18T17:26:42Z</time>
      </trkpt>
      <trkpt lat="45.74895" lon="6.57615">
        <ele>1218</ele>
        <time>2019-04-18T17:27:42Z</time>
      </trkpt>
      <trkpt lat="45.74872" lon="6.57598">
        <ele>1218</ele>
        <time>2019-04-18T17:28:42Z</time>
      </trkpt>
      <trkpt lat="45.7485" lon="6.57572">
        <ele>1220</ele>
        <time>2019-04-18T17:29:42Z</time>
      </trkpt>
      <trkpt lat="45.74829" lon="6.5756">
        <ele>1218</ele>
        <time>2019-04-18T17:30:42Z</time>
      </trkpt>
      <trkpt lat="45.74784" lon="6.57548">
        <ele>1211</ele>
        <time>2019-04-18T17:31:42Z</time>
      </trkpt>
      <trkpt lat="45.74748" lon="6.57532">
        <ele>1205</ele>
        <time>2019-04-18T17:32:42Z</time>
      </trkpt>
      <trkpt lat="45.74703" lon="6.57505">
        <ele>1198</ele>
        <time>2019-04-18T17:33:42Z</time>
      </trkpt>
      <trkpt lat="45.7467" lon="6.57482">
        <ele>1194</ele>
        <time>2019-04-18T17:34:42Z</time>
      </trkpt>
      <trkpt lat="45.74648" lon="6.57452">
        <ele>1195</ele>
        <time>2019-04-18T17:35:42Z</time>
      </trkpt>
      <trkpt lat="45.74636" lon="6.57425">
        <ele>1198</ele>
        <time>2019-04-18T17:36:42Z</time>
      </trkpt>
      <trkpt lat="45.74632" lon="6.57422">
        <ele>1198</ele>
        <time>2019-04-18T17:37:42Z</time>
      </trkpt>
      <trkpt lat="45.74619" lon="6.57425">
        <ele>1194</ele>
        <time>2019-04-18T17:38:42Z</time>
      </trkpt>
      <trkpt lat="45.74626" lon="6.57445">
        <ele>1192</ele>
        <time>2019-04-18T17:39:42Z</time>
      </trkpt>
      <trkpt lat="45.74654" lon="6.57503">
        <ele>1186</ele>
        <time>2019-04-18T17:40:42Z</time>
      </trkpt>
      <trkpt lat="45.74683" lon="6.57568">
        <ele>1181</ele>
        <time>2019-04-18T17:41:42Z</time>
      </trkpt>
      <trkpt lat="45.74712" lon="6.57622">
        <ele>1176</ele>
        <time>2019-04-18T17:42:42Z</time>
      </trkpt>
      <trkpt lat="45.74761" lon="6.57722">
        <ele>1169</ele>
        <time>2019-04-18T17:43:42Z</time>
      </trkpt>
      <trkpt lat="45.74771" lon="6.57794">
        <ele>1162</ele>
        <time>2019-04-18T17:44:42Z</time>
      </trkpt>
      <trkpt lat="45.74781" lon="6.57832">
        <ele>1159</ele>
        <time>2019-04-18T17:45:42Z</time>
      </trkpt>
      <trkpt lat="45.74802" lon="6.57862">
        <ele>1158</ele>
        <time>2019-04-18T17:46:42Z</time>
      </trkpt>
      <trkpt lat="45.74842" lon="6.57868">
        <ele>1161</ele>
        <time>2019-04-18T17:47:42Z</time>
      </trkpt>
      <trkpt lat="45.74887" lon="6.57887">
        <ele>1164</ele>
        <time>2019-04-18T17:48:42Z</time>
      </trkpt>
      <trkpt lat="45.74898" lon="6.57896">
        <ele>1165</ele>
        <time>2019-04-18T17:49:42Z</time>
      </trkpt>
      <trkpt lat="45.74903" lon="6.57904">
        <ele>1164</ele>
        <time>2019-04-18T17:50:42Z</time>
      </trkpt>
      <trkpt lat="45.74904" lon="6.57913">
        <ele>1163</ele>
        <time>2019-04-18T17:51:42Z</time>
      </trkpt>
      <trkpt lat="45.74901" lon="6.57924">
        <ele>1163</ele>
        <time>2019-04-18T17:52:42Z</time>
      </trkpt>
      <trkpt lat="45.7489" lon="6.57931">
        <ele>1161</ele>
        <time>2019-04-18T17:53:42Z</time>
      </trkpt>
      <trkpt lat="45.74867" lon="6.57942">
        <ele>1157</ele>
        <time>2019-04-18T17:54:42Z</time>
      </trkpt>
      <trkpt lat="45.74861" lon="6.57948">
        <ele>1156</ele>
        <time>2019-04-18T17:55:42Z</time>
      </trkpt>
      <trkpt lat="45.74857" lon="6.57958">
        <ele>1155</ele>
        <time>2019-04-18T17:56:42Z</time>
      </trkpt>
      <trkpt lat="45.74853" lon="6.57987">
        <ele>1153</ele>
        <time>2019-04-18T17:57:42Z</time>
      </trkpt>
      <trkpt lat="45.74854" lon="6.58009">
        <ele>1152</ele>
        <time>2019-04-18T17:58:42Z</time>
      </trkpt>
      <trkpt lat="45.74859" lon="6.58032">
        <ele>1152</ele>
        <time>2019-04-18T17:59:42Z</time>
      </trkpt>
      <trkpt lat="45.74872" lon="6.5808">
        <ele>1152</ele>
        <time>2019-04-18T18:00:42Z</time>
      </trkpt>
      <trkpt lat="45.74881" lon="6.58129">
        <ele>1149</ele>
        <time>2019-04-18T18:01:42Z</time>
      </trkpt>
      <trkpt lat="45.74892" lon="6.58232">
        <ele>1144</ele>
        <time>2019-04-18T18:02:42Z</time>
      </trkpt>
      <trkpt lat="45.74917" lon="6.58323">
        <ele>1139</ele>
        <time>2019-04-18T18:03:42Z</time>
      </trkpt>
      <trkpt lat="45.74929" lon="6.58346">
        <ele>1139</ele>
        <time>2019-04-18T18:04:42Z</time>
      </trkpt>
      <trkpt lat="45.74942" lon="6.58367">
        <ele>1139</ele>
        <time>2019-04-18T18:05:42Z</time>
      </trkpt>
      <trkpt lat="45.74952" lon="6.5838">
        <ele>1140</ele>
        <time>2019-04-18T18:06:42Z</time>
      </trkpt>
      <trkpt lat="45.74971" lon="6.58391">
        <ele>1143</ele>
        <time>2019-04-18T18:07:42Z</time>
      </trkpt>
      <trkpt lat="45.74975" lon="6.58398">
        <ele>1143</ele>
        <time>2019-04-18T18:08:42Z</time>
      </trkpt>
      <trkpt lat="45.74975" lon="6.58409">
        <ele>1141</ele>
        <time>2019-04-18T18:09:42Z</time>
      </trkpt>
      <trkpt lat="45.74983" lon="6.58424">
        <ele>1141</ele>
        <time>2019-04-18T18:10:42Z</time>
      </trkpt>
      <trkpt lat="45.75027" lon="6.58484">
        <ele>1145</ele>
        <time>2019-04-18T18:11:42Z</time>
      </trkpt>
      <trkpt lat="45.75043" lon="6.58531">
        <ele>1142</ele>
        <time>2019-04-18T18:12:42Z</time>
      </trkpt>
      <trkpt lat="45.75069" lon="6.58557">
        <ele>1145</ele>
        <time>2019-04-18T18:13:42Z</time>
      </trkpt>
      <trkpt lat="45.75093" lon="6.58615">
        <ele>1142</ele>
        <time>2019-04-18T18:14:42Z</time>
      </trkpt>
      <trkpt lat="45.75105" lon="6.58638">
        <ele>1140</ele>
        <time>2019-04-18T18:15:42Z</time>
      </trkpt>
      <trkpt lat="45.75275" lon="6.58927">
        <ele>1133</ele>
        <time>2019-04-18T18:16:42Z</time>
      </trkpt>
      <trkpt lat="45.75333" lon="6.5904">
        <ele>1118</ele>
        <time>2019-04-18T18:17:42Z</time>
      </trkpt>
      <trkpt lat="45.75345" lon="6.59056">
        <ele>1117</ele>
        <time>2019-04-18T18:18:42Z</time>
      </trkpt>
      <trkpt lat="45.75379" lon="6.59089">
        <ele>1115</ele>
        <time>2019-04-18T18:19:42Z</time>
      </trkpt>
      <trkpt lat="45.75387" lon="6.59101">
        <ele>1115</ele>
        <time>2019-04-18T18:20:42Z</time>
      </trkpt>
      <trkpt lat="45.75392" lon="6.59116">
        <ele>1113</ele>
        <time>2019-04-18T18:21:42Z</time>
      </trkpt>
      <trkpt lat="45.754" lon="6.5915">
        <ele>1108</ele>
        <time>2019-04-18T18:22:42Z</time>
      </trkpt>
      <trkpt lat="45.75425" lon="6.592">
        <ele>1106</ele>
        <time>2019-04-18T18:23:42Z</time>
      </trkpt>
      <trkpt lat="45.75438" lon="6.59219">
        <ele>1106</ele>
        <time>2019-04-18T18:24:42Z</time>
      </trkpt>
      <trkpt lat="45.7545" lon="6.59234">
        <ele>1106</ele>
        <time>2019-04-18T18:25:42Z</time>
      </trkpt>
      <trkpt lat="45.75441" lon="6.59239">
        <ele>1104</ele>
        <time>2019-04-18T18:26:42Z</time>
      </trkpt>
      <trkpt lat="45.75431" lon="6.59238">
        <ele>1101</ele>
        <time>2019-04-18T18:27:42Z</time>
      </trkpt>
      <trkpt lat="45.75384" lon="6.59178">
        <ele>1100</ele>
        <time>2019-04-18T18:28:42Z</time>
      </trkpt>
      <trkpt lat="45.75365" lon="6.59164">
        <ele>1098</ele>
        <time>2019-04-18T18:29:42Z</time>
      </trkpt>
      <trkpt lat="45.75307" lon="6.59136">
        <ele>1090</ele>
        <time>2019-04-18T18:30:42Z</time>
      </trkpt>
      <trkpt lat="45.75282" lon="6.59121">
        <ele>1086</ele>
        <time>2019-04-18T18:31:42Z</time>
      </trkpt>
      <trkpt lat="45.75248" lon="6.59093">
        <ele>1083</ele>
        <time>2019-04-18T18:32:42Z</time>
      </trkpt>
      <trkpt lat="45.75194" lon="6.59037">
        <ele>1081</ele>
        <time>2019-04-18T18:33:42Z</time>
      </trkpt>
      <trkpt lat="45.75155" lon="6.59006">
        <ele>1077</ele>
        <time>2019-04-18T18:34:42Z</time>
      </trkpt>
      <trkpt lat="45.75134" lon="6.58982">
        <ele>1077</ele>
        <time>2019-04-18T18:35:42Z</time>
      </trkpt>
      <trkpt lat="45.75128" lon="6.58979">
        <ele>1075</ele>
        <time>2019-04-18T18:36:42Z</time>
      </trkpt>
      <trkpt lat="45.7512" lon="6.58984">
        <ele>1072</ele>
        <time>2019-04-18T18:37:42Z</time>
      </trkpt>
      <trkpt lat="45.7512" lon="6.5899">
        <ele>1070</ele>
        <time>2019-04-18T18:38:42Z</time>
      </trkpt>
      <trkpt lat="45.75123" lon="6.58997">
        <ele>1070</ele>
        <time>2019-04-18T18:39:42Z</time>
      </trkpt>
      <trkpt lat="45.75139" lon="6.59013">
        <ele>1071</ele>
        <time>2019-04-18T18:40:42Z</time>
      </trkpt>
      <trkpt lat="45.75147" lon="6.59025">
        <ele>1070</ele>
        <time>2019-04-18T18:41:42Z</time>
      </trkpt>
      <trkpt lat="45.7517" lon="6.59083">
        <ele>1060</ele>
        <time>2019-04-18T18:42:42Z</time>
      </trkpt>
      <trkpt lat="45.75176" lon="6.59104">
        <ele>1059</ele>
        <time>2019-04-18T18:43:42Z</time>
      </trkpt>
      <trkpt lat="45.7518" lon="6.59151">
        <ele>1054</ele>
        <time>2019-04-18T18:44:42Z</time>
      </trkpt>
      <trkpt lat="45.75185" lon="6.59179">
        <ele>1053</ele>
        <time>2019-04-18T18:45:42Z</time>
      </trkpt>
      <trkpt lat="45.75193" lon="6.59205">
        <ele>1052</ele>
        <time>2019-04-18T18:46:42Z</time>
      </trkpt>
      <trkpt lat="45.75205" lon="6.59226">
        <ele>1053</ele>
        <time>2019-04-18T18:47:42Z</time>
      </trkpt>
      <trkpt lat="45.75206" lon="6.59234">
        <ele>1053</ele>
        <time>2019-04-18T18:48:42Z</time>
      </trkpt>
      <trkpt lat="45.75204" lon="6.59243">
        <ele>1051</ele>
        <time>2019-04-18T18:49:42Z</time>
      </trkpt>
      <trkpt lat="45.75201" lon="6.59249">
        <ele>1050</ele>
        <time>2019-04-18T18:50:42Z</time>
      </trkpt>
      <trkpt lat="45.75194" lon="6.59251">
        <ele>1049</ele>
        <time>2019-04-18T18:51:42Z</time>
      </trkpt>
      <trkpt lat="45.75189" lon="6.59249">
        <ele>1049</ele>
        <time>2019-04-18T18:52:42Z</time>
      </trkpt>
      <trkpt lat="45.75184" lon="6.59244">
        <ele>1048</ele>
        <time>2019-04-18T18:53:42Z</time>
      </trkpt>
      <trkpt lat="45.75175" lon="6.59218">
        <ele>1048</ele>
        <time>2019-04-18T18:54:42Z</time>
      </trkpt>
      <trkpt lat="45.75166" lon="6.59203">
        <ele>1047</ele>
        <time>2019-04-18T18:55:42Z</time>
      </trkpt>
      <trkpt lat="45.7515" lon="6.59184">
        <ele>1045</ele>
        <time>2019-04-18T18:56:42Z</time>
      </trkpt>
      <trkpt lat="45.75123" lon="6.59157">
        <ele>1042</ele>
        <time>2019-04-18T18:57:42Z</time>
      </trkpt>
      <trkpt lat="45.75112" lon="6.59151">
        <ele>1040</ele>
        <time>2019-04-18T18:58:42Z</time>
      </trkpt>
      <trkpt lat="45.75074" lon="6.59136">
        <ele>1037</ele>
        <time>2019-04-18T18:59:42Z</time>
      </trkpt>
      <trkpt lat="45.75058" lon="6.59136">
        <ele>1038</ele>
        <time>2019-04-18T19:00:42Z</time>
      </trkpt>
      <trkpt lat="45.75021" lon="6.59147">
        <ele>1040</ele>
        <time>2019-04-18T19:01:42Z</time>
      </trkpt>
      <trkpt lat="45.75014" lon="6.59146">
        <ele>1040</ele>
        <time>2019-04-18T19:02:42Z</time>
      </trkpt>
      <trkpt lat="45.75007" lon="6.59142">
        <ele>1040</ele>
        <time>2019-04-18T19:03:42Z</time>
      </trkpt>
      <trkpt lat="45.74991" lon="6.59125">
        <ele>1040</ele>
        <time>2019-04-18T19:04:42Z</time>
      </trkpt>
      <trkpt lat="45.74979" lon="6.59116">
        <ele>1040</ele>
        <time>2019-04-18T19:05:42Z</time>
      </trkpt>
      <trkpt lat="45.74959" lon="6.59113">
        <ele>1041</ele>
        <time>2019-04-18T19:06:42Z</time>
      </trkpt>
      <trkpt lat="45.74873" lon="6.59129">
        <ele>1044</ele>
        <time>2019-04-18T19:07:42Z</time>
      </trkpt>
      <trkpt lat="45.7486" lon="6.59134">
        <ele>1044</ele>
        <time>2019-04-18T19:08:42Z</time>
      </trkpt>
      <trkpt lat="45.74848" lon="6.59145">
        <ele>1046</ele>
        <time>2019-04-18T19:09:42Z</time>
      </trkpt>
      <trkpt lat="45.74838" lon="6.59175">
        <ele>1051</ele>
        <time>2019-04-18T19:10:42Z</time>
      </trkpt>
      <trkpt lat="45.74828" lon="6.59195">
        <ele>1056</ele>
        <time>2019-04-18T19:11:42Z</time>
      </trkpt>
      <trkpt lat="45.74817" lon="6.59207">
        <ele>1060</ele>
        <time>2019-04-18T19:12:42Z</time>
      </trkpt>
      <trkpt lat="45.74807" lon="6.5921">
        <ele>1062</ele>
        <time>2019-04-18T19:13:42Z</time>
      </trkpt>
      <trkpt lat="45.74798" lon="6.59206">
        <ele>1062</ele>
        <time>2019-04-18T19:14:42Z</time>
      </trkpt>
      <trkpt lat="45.74793" lon="6.59193">
        <ele>1060</ele>
        <time>2019-04-18T19:15:42Z</time>
      </trkpt>
      <trkpt lat="45.74788" lon="6.59144">
        <ele>1052</ele>
        <time>2019-04-18T19:16:42Z</time>
      </trkpt>
      <trkpt lat="45.74782" lon="6.59125">
        <ele>1050</ele>
        <time>2019-04-18T19:17:42Z</time>
      </trkpt>
      <trkpt lat="45.74772" lon="6.5911">
        <ele>1049</ele>
        <time>2019-04-18T19:18:42Z</time>
      </trkpt>
      <trkpt lat="45.7475" lon="6.59091">
        <ele>1049</ele>
        <time>2019-04-18T19:19:42Z</time>
      </trkpt>
      <trkpt lat="45.7472" lon="6.59016">
        <ele>1045</ele>
        <time>2019-04-18T19:20:42Z</time>
      </trkpt>
      <trkpt lat="45.74713" lon="6.59006">
        <ele>1046</ele>
        <time>2019-04-18T19:21:42Z</time>
      </trkpt>
      <trkpt lat="45.74696" lon="6.59005">
        <ele>1052</ele>
        <time>2019-04-18T19:22:42Z</time>
      </trkpt>
      <trkpt lat="45.74686" lon="6.58996">
        <ele>1054</ele>
        <time>2019-04-18T19:23:42Z</time>
      </trkpt>
      <trkpt lat="45.74683" lon="6.58966">
        <ele>1049</ele>
        <time>2019-04-18T19:24:42Z</time>
      </trkpt>
      <trkpt lat="45.74687" lon="6.58912">
        <ele>1038</ele>
        <time>2019-04-18T19:25:42Z</time>
      </trkpt>
      <trkpt lat="45.74682" lon="6.58896">
        <ele>1037</ele>
        <time>2019-04-18T19:26:42Z</time>
      </trkpt>
      <trkpt lat="45.7467" lon="6.58877">
        <ele>1037</ele>
        <time>2019-04-18T19:27:42Z</time>
      </trkpt>
      <trkpt lat="45.74578" lon="6.58811">
        <ele>1034</ele>
        <time>2019-04-18T19:28:42Z</time>
      </trkpt>
      <trkpt lat="45.74564" lon="6.58795">
        <ele>1035</ele>
        <time>2019-04-18T19:29:42Z</time>
      </trkpt>
      <trkpt lat="45.74553" lon="6.58789">
        <ele>1036</ele>
        <time>2019-04-18T19:30:42Z</time>
      </trkpt>
      <trkpt lat="45.74538" lon="6.58793">
        <ele>1040</ele>
        <time>2019-04-18T19:31:42Z</time>
      </trkpt>
      <trkpt lat="45.74511" lon="6.58845">
        <ele>1058</ele>
        <time>2019-04-18T19:32:42Z</time>
      </trkpt>
      <trkpt lat="45.74494" lon="6.58846">
        <ele>1063</ele>
        <time>2019-04-18T19:33:42Z</time>
      </trkpt>
      <trkpt lat="45.74479" lon="6.58842">
        <ele>1066</ele>
        <time>2019-04-18T19:34:42Z</time>
      </trkpt>
      <trkpt lat="45.74473" lon="6.5883">
        <ele>1066</ele>
        <time>2019-04-18T19:35:42Z</time>
      </trkpt>
      <trkpt lat="45.74472" lon="6.58797">
        <ele>1061</ele>
        <time>2019-04-18T19:36:42Z</time>
      </trkpt>
      <trkpt lat="45.74488" lon="6.58694">
        <ele>1038</ele>
        <time>2019-04-18T19:37:42Z</time>
      </trkpt>
      <trkpt lat="45.74488" lon="6.58652">
        <ele>1032</ele>
        <time>2019-04-18T19:38:42Z</time>
      </trkpt>
      <trkpt lat="45.74484" lon="6.58612">
        <ele>1027</ele>
        <time>2019-04-18T19:39:42Z</time>
      </trkpt>
      <trkpt lat="45.7448" lon="6.58599">
        <ele>1027</ele>
        <time>2019-04-18T19:40:42Z</time>
      </trkpt>
      <trkpt lat="45.74467" lon="6.58588">
        <ele>1028</ele>
        <time>2019-04-18T19:41:42Z</time>
      </trkpt>
      <trkpt lat="45.74444" lon="6.58592">
        <ele>1035</ele>
        <time>2019-04-18T19:42:42Z</time>
      </trkpt>
      <trkpt lat="45.74431" lon="6.58587">
        <ele>1037</ele>
        <time>2019-04-18T19:43:42Z</time>
      </trkpt>
      <trkpt lat="45.74423" lon="6.58571">
        <ele>1036</ele>
        <time>2019-04-18T19:44:42Z</time>
      </trkpt>
      <trkpt lat="45.74417" lon="6.58523">
        <ele>1028</ele>
        <time>2019-04-18T19:45:42Z</time>
      </trkpt>
      <trkpt lat="45.74409" lon="6.58503">
        <ele>1026</ele>
        <time>2019-04-18T19:46:42Z</time>
      </trkpt>
      <trkpt lat="45.74395" lon="6.58494">
        <ele>1025</ele>
        <time>2019-04-18T19:47:42Z</time>
      </trkpt>
      <trkpt lat="45.74333" lon="6.58484">
        <ele>1031</ele>
        <time>2019-04-18T19:48:42Z</time>
      </trkpt>
      <trkpt lat="45.74315" lon="6.58486">
        <ele>1036</ele>
        <time>2019-04-18T19:49:42Z</time>
      </trkpt>
      <trkpt lat="45.74297" lon="6.585">
        <ele>1043</ele>
        <time>2019-04-18T19:50:42Z</time>
      </trkpt>
      <trkpt lat="45.74286" lon="6.58521">
        <ele>1052</ele>
        <time>2019-04-18T19:51:42Z</time>
      </trkpt>
      <trkpt lat="45.74273" lon="6.58534">
        <ele>1058</ele>
        <time>2019-04-18T19:52:42Z</time>
      </trkpt>
      <trkpt lat="45.74267" lon="6.58533">
        <ele>1059</ele>
        <time>2019-04-18T19:53:42Z</time>
      </trkpt>
      <trkpt lat="45.74262" lon="6.58527">
        <ele>1058</ele>
        <time>2019-04-18T19:54:42Z</time>
      </trkpt>
      <trkpt lat="45.74259" lon="6.58517">
        <ele>1056</ele>
        <time>2019-04-18T19:55:42Z</time>
      </trkpt>
      <trkpt lat="45.74261" lon="6.58494">
        <ele>1050</ele>
        <time>2019-04-18T19:56:42Z</time>
      </trkpt>
      <trkpt lat="45.74272" lon="6.58421">
        <ele>1030</ele>
        <time>2019-04-18T19:57:42Z</time>
      </trkpt>
      <trkpt lat="45.74268" lon="6.58367">
        <ele>1017</ele>
        <time>2019-04-18T19:58:42Z</time>
      </trkpt>
      <trkpt lat="45.74259" lon="6.58352">
        <ele>1015</ele>
        <time>2019-04-18T19:59:42Z</time>
      </trkpt>
      <trkpt lat="45.74216" lon="6.58333">
        <ele>1017</ele>
        <time>2019-04-18T20:00:42Z</time>
      </trkpt>
      <trkpt lat="45.74176" lon="6.58303">
        <ele>1009</ele>
        <time>2019-04-18T20:01:42Z</time>
      </trkpt>
      <trkpt lat="45.74135" lon="6.58305">
        <ele>1017</ele>
        <time>2019-04-18T20:02:42Z</time>
      </trkpt>
      <trkpt lat="45.74079" lon="6.58284">
        <ele>1021</ele>
        <time>2019-04-18T20:03:42Z</time>
      </trkpt>
      <trkpt lat="45.74056" lon="6.58288">
        <ele>1028</ele>
        <time>2019-04-18T20:04:42Z</time>
      </trkpt>
      <trkpt lat="45.74042" lon="6.58282">
        <ele>1030</ele>
        <time>2019-04-18T20:05:42Z</time>
      </trkpt>
      <trkpt lat="45.73992" lon="6.58201">
        <ele>1024</ele>
        <time>2019-04-18T20:06:42Z</time>
      </trkpt>
      <trkpt lat="45.73982" lon="6.58177">
        <ele>1022</ele>
        <time>2019-04-18T20:07:42Z</time>
      </trkpt>
      <trkpt lat="45.73978" lon="6.58108">
        <ele>1009</ele>
        <time>2019-04-18T20:08:42Z</time>
      </trkpt>
      <trkpt lat="45.73974" lon="6.58088">
        <ele>1007</ele>
        <time>2019-04-18T20:09:42Z</time>
      </trkpt>
      <trkpt lat="45.73963" lon="6.58072">
        <ele>1006</ele>
        <time>2019-04-18T20:10:42Z</time>
      </trkpt>
      <trkpt lat="45.73919" lon="6.58046">
        <ele>1015</ele>
        <time>2019-04-18T20:11:42Z</time>
      </trkpt>
      <trkpt lat="45.73908" lon="6.58034">
        <ele>1016</ele>
        <time>2019-04-18T20:12:42Z</time>
      </trkpt>
      <trkpt lat="45.739" lon="6.58016">
        <ele>1016</ele>
        <time>2019-04-18T20:13:42Z</time>
      </trkpt>
      <trkpt lat="45.73897" lon="6.57963">
        <ele>1004</ele>
        <time>2019-04-18T20:14:42Z</time>
      </trkpt>
      <trkpt lat="45.7387" lon="6.57905">
        <ele>998</ele>
        <time>2019-04-18T20:15:42Z</time>
      </trkpt>
      <trkpt lat="45.73844" lon="6.57878">
        <ele>1000</ele>
        <time>2019-04-18T20:16:42Z</time>
      </trkpt>
      <trkpt lat="45.73824" lon="6.57844">
        <ele>998</ele>
        <time>2019-04-18T20:17:42Z</time>
      </trkpt>
      <trkpt lat="45.73797" lon="6.57815">
        <ele>998</ele>
        <time>2019-04-18T20:18:42Z</time>
      </trkpt>
      <trkpt lat="45.73769" lon="6.57781">
        <ele>994</ele>
        <time>2019-04-18T20:19:42Z</time>
      </trkpt>
      <trkpt lat="45.73727" lon="6.57755">
        <ele>994</ele>
        <time>2019-04-18T20:20:42Z</time>
      </trkpt>
      <trkpt lat="45.73636" lon="6.57716">
        <ele>989</ele>
        <time>2019-04-18T20:21:42Z</time>
      </trkpt>
      <trkpt lat="45.73604" lon="6.57711">
        <ele>989</ele>
        <time>2019-04-18T20:22:42Z</time>
      </trkpt>
      <trkpt lat="45.73574" lon="6.57697">
        <ele>988</ele>
        <time>2019-04-18T20:23:42Z</time>
      </trkpt>
      <trkpt lat="45.73492" lon="6.57595">
        <ele>976</ele>
        <time>2019-04-18T20:24:42Z</time>
      </trkpt>
      <trkpt lat="45.73481" lon="6.57577">
        <ele>975</ele>
        <time>2019-04-18T20:25:42Z</time>
      </trkpt>
      <trkpt lat="45.73465" lon="6.57543">
        <ele>971</ele>
        <time>2019-04-18T20:26:42Z</time>
      </trkpt>
      <trkpt lat="45.73444" lon="6.57511">
        <ele>969</ele>
        <time>2019-04-18T20:27:42Z</time>
      </trkpt>
      <trkpt lat="45.73394" lon="6.57454">
        <ele>976</ele>
        <time>2019-04-18T20:28:42Z</time>
      </trkpt>
      <trkpt lat="45.73332" lon="6.57362">
        <ele>973</ele>
        <time>2019-04-18T20:29:42Z</time>
      </trkpt>
      <trkpt lat="45.73305" lon="6.57338">
        <ele>971</ele>
        <time>2019-04-18T20:30:42Z</time>
      </trkpt>
      <trkpt lat="45.73255" lon="6.57305">
        <ele>972</ele>
        <time>2019-04-18T20:31:42Z</time>
      </trkpt>
      <trkpt lat="45.73197" lon="6.57295">
        <ele>967</ele>
        <time>2019-04-18T20:32:42Z</time>
      </trkpt>
      <trkpt lat="45.7317" lon="6.57295">
        <ele>966</ele>
        <time>2019-04-18T20:33:42Z</time>
      </trkpt>
      <trkpt lat="45.73067" lon="6.57331">
        <ele>962</ele>
        <time>2019-04-18T20:34:42Z</time>
      </trkpt>
      <trkpt lat="45.73028" lon="6.57356">
        <ele>963</ele>
        <time>2019-04-18T20:35:42Z</time>
      </trkpt>
      <trkpt lat="45.72962" lon="6.57384">
        <ele>959</ele>
        <time>2019-04-18T20:36:42Z</time>
      </trkpt>
      <trkpt lat="45.72938" lon="6.57387">
        <ele>956</ele>
        <time>2019-04-18T20:37:42Z</time>
      </trkpt>
      <trkpt lat="45.72924" lon="6.57385">
        <ele>952</ele>
        <time>2019-04-18T20:38:42Z</time>
      </trkpt>
      <trkpt lat="45.72897" lon="6.57373">
        <ele>947</ele>
        <time>2019-04-18T20:39:42Z</time>
      </trkpt>
      <trkpt lat="45.72857" lon="6.57363">
        <ele>944</ele>
        <time>2019-04-18T20:40:42Z</time>
      </trkpt>
      <trkpt lat="45.72842" lon="6.57363">
        <ele>945</ele>
        <time>2019-04-18T20:41:42Z</time>
      </trkpt>
      <trkpt lat="45.72827" lon="6.57368">
        <ele>946</ele>
        <time>2019-04-18T20:42:42Z</time>
      </trkpt>
      <trkpt lat="45.7279" lon="6.57389">
        <ele>949</ele>
        <time>2019-04-18T20:43:42Z</time>
      </trkpt>
      <trkpt lat="45.72771" lon="6.5739">
        <ele>948</ele>
        <time>2019-04-18T20:44:42Z</time>
      </trkpt>
      <trkpt lat="45.727" lon="6.57383">
        <ele>939</ele>
        <time>2019-04-18T20:45:42Z</time>
      </trkpt>
      <trkpt lat="45.72621" lon="6.57419">
        <ele>941</ele>
        <time>2019-04-18T20:46:42Z</time>
      </trkpt>
      <trkpt lat="45.72618" lon="6.57423">
        <ele>941</ele>
        <time>2019-04-18T20:47:42Z</time>
      </trkpt>
      <trkpt lat="45.72615" lon="6.57431">
        <ele>941</ele>
        <time>2019-04-18T20:48:42Z</time>
      </trkpt>
      <trkpt lat="45.72607" lon="6.57498">
        <ele>944</ele>
        <time>2019-04-18T20:49:42Z</time>
      </trkpt>
      <trkpt lat="45.72608" lon="6.57515">
        <ele>944</ele>
        <time>2019-04-18T20:50:42Z</time>
      </trkpt>
      <trkpt lat="45.72616" lon="6.57555">
        <ele>945</ele>
        <time>2019-04-18T20:51:42Z</time>
      </trkpt>
      <trkpt lat="45.72621" lon="6.57627">
        <ele>945</ele>
        <time>2019-04-18T20:52:42Z</time>
      </trkpt>
      <trkpt lat="45.7262" lon="6.57643">
        <ele>945</ele>
        <time>2019-04-18T20:53:42Z</time>
      </trkpt>
      <trkpt lat="45.7261" lon="6.57696">
        <ele>942</ele>
        <time>2019-04-18T20:54:42Z</time>
      </trkpt>
      <trkpt lat="45.72579" lon="6.57814">
        <ele>932</ele>
        <time>2019-04-18T20:55:42Z</time>
      </trkpt>
      <trkpt lat="45.72577" lon="6.57887">
        <ele>935</ele>
        <time>2019-04-18T20:56:42Z</time>
      </trkpt>
      <trkpt lat="45.72569" lon="6.57905">
        <ele>934</ele>
        <time>2019-04-18T20:57:42Z</time>
      </trkpt>
      <trkpt lat="45.7256" lon="6.57913">
        <ele>933</ele>
        <time>2019-04-18T20:58:42Z</time>
      </trkpt>
      <trkpt lat="45.72511" lon="6.57942">
        <ele>930</ele>
        <time>2019-04-18T20:59:42Z</time>
      </trkpt>
      <trkpt lat="45.72495" lon="6.57942">
        <ele>927</ele>
        <time>2019-04-18T21:00:42Z</time>
      </trkpt>
      <trkpt lat="45.72482" lon="6.57936">
        <ele>925</ele>
        <time>2019-04-18T21:01:42Z</time>
      </trkpt>
      <trkpt lat="45.72463" lon="6.57891">
        <ele>915</ele>
        <time>2019-04-18T21:02:42Z</time>
      </trkpt>
      <trkpt lat="45.72451" lon="6.57878">
        <ele>912</ele>
        <time>2019-04-18T21:03:42Z</time>
      </trkpt>
      <trkpt lat="45.72414" lon="6.57858">
        <ele>903</ele>
        <time>2019-04-18T21:04:42Z</time>
      </trkpt>
      <trkpt lat="45.72397" lon="6.57852">
        <ele>900</ele>
        <time>2019-04-18T21:05:42Z</time>
      </trkpt>
      <trkpt lat="45.7239" lon="6.57854">
        <ele>900</ele>
        <time>2019-04-18T21:06:42Z</time>
      </trkpt>
      <trkpt lat="45.72368" lon="6.57868">
        <ele>901</ele>
        <time>2019-04-18T21:07:42Z</time>
      </trkpt>
      <trkpt lat="45.72326" lon="6.57882">
        <ele>899</ele>
        <time>2019-04-18T21:08:42Z</time>
      </trkpt>
      <trkpt lat="45.72276" lon="6.57903">
        <ele>896</ele>
        <time>2019-04-18T21:09:42Z</time>
      </trkpt>
      <trkpt lat="45.72242" lon="6.57902">
        <ele>890</ele>
        <time>2019-04-18T21:10:42Z</time>
      </trkpt>
      <trkpt lat="45.7223" lon="6.57906">
        <ele>889</ele>
        <time>2019-04-18T21:11:42Z</time>
      </trkpt>
      <trkpt lat="45.72204" lon="6.57921">
        <ele>887</ele>
        <time>2019-04-18T21:12:42Z</time>
      </trkpt>
      <trkpt lat="45.72188" lon="6.57934">
        <ele>885</ele>
        <time>2019-04-18T21:13:42Z</time>
      </trkpt>
      <trkpt lat="45.72166" lon="6.57946">
        <ele>883</ele>
        <time>2019-04-18T21:14:42Z</time>
      </trkpt>
      <trkpt lat="45.72156" lon="6.57957">
        <ele>882</ele>
        <time>2019-04-18T21:15:42Z</time>
      </trkpt>
      <trkpt lat="45.7214" lon="6.57988">
        <ele>884</ele>
        <time>2019-04-18T21:16:42Z</time>
      </trkpt>
      <trkpt lat="45.72132" lon="6.57994">
        <ele>883</ele>
        <time>2019-04-18T21:17:42Z</time>
      </trkpt>
      <trkpt lat="45.72098" lon="6.57987">
        <ele>876</ele>
        <time>2019-04-18T21:18:42Z</time>
      </trkpt>
      <trkpt lat="45.72076" lon="6.5799">
        <ele>873</ele>
        <time>2019-04-18T21:19:42Z</time>
      </trkpt>
      <trkpt lat="45.72046" lon="6.57995">
        <ele>870</ele>
        <time>2019-04-18T21:20:42Z</time>
      </trkpt>
      <trkpt lat="45.72018" lon="6.58013">
        <ele>867</ele>
        <time>2019-04-18T21:21:42Z</time>
      </trkpt>
      <trkpt lat="45.71997" lon="6.5802">
        <ele>865</ele>
        <time>2019-04-18T21:22:42Z</time>
      </trkpt>
      <trkpt lat="45.71857" lon="6.58004">
        <ele>853</ele>
        <time>2019-04-18T21:23:42Z</time>
      </trkpt>
      <trkpt lat="45.71784" lon="6.58022">
        <ele>850</ele>
        <time>2019-04-18T21:24:42Z</time>
      </trkpt>
      <trkpt lat="45.71765" lon="6.58019">
        <ele>849</ele>
        <time>2019-04-18T21:25:42Z</time>
      </trkpt>
      <trkpt lat="45.71754" lon="6.5801">
        <ele>846</ele>
        <time>2019-04-18T21:26:42Z</time>
      </trkpt>
      <trkpt lat="45.71743" lon="6.57992">
        <ele>843</ele>
        <time>2019-04-18T21:27:42Z</time>
      </trkpt>
      <trkpt lat="45.71703" lon="6.57907">
        <ele>835</ele>
        <time>2019-04-18T21:28:42Z</time>
      </trkpt>
      <trkpt lat="45.71692" lon="6.5789">
        <ele>832</ele>
        <time>2019-04-18T21:29:42Z</time>
      </trkpt>
      <trkpt lat="45.71658" lon="6.5785">
        <ele>825</ele>
        <time>2019-04-18T21:30:42Z</time>
      </trkpt>
      <trkpt lat="45.71649" lon="6.57843">
        <ele>823</ele>
        <time>2019-04-18T21:31:42Z</time>
      </trkpt>
      <trkpt lat="45.71643" lon="6.57844">
        <ele>823</ele>
        <time>2019-04-18T21:32:42Z</time>
      </trkpt>
      <trkpt lat="45.71634" lon="6.57849">
        <ele>823</ele>
        <time>2019-04-18T21:33:42Z</time>
      </trkpt>
      <trkpt lat="45.71608" lon="6.57886">
        <ele>826</ele>
        <time>2019-04-18T21:34:42Z</time>
      </trkpt>
      <trkpt lat="45.71581" lon="6.57906">
        <ele>826</ele>
        <time>2019-04-18T21:35:42Z</time>
      </trkpt>
      <trkpt lat="45.7156" lon="6.57913">
        <ele>827</ele>
        <time>2019-04-18T21:36:42Z</time>
      </trkpt>
      <trkpt lat="45.7155" lon="6.57912">
        <ele>826</ele>
        <time>2019-04-18T21:37:42Z</time>
      </trkpt>
      <trkpt lat="45.71497" lon="6.57897">
        <ele>821</ele>
        <time>2019-04-18T21:38:42Z</time>
      </trkpt>
      <trkpt lat="45.71489" lon="6.57889">
        <ele>817</ele>
        <time>2019-04-18T21:39:42Z</time>
      </trkpt>
      <trkpt lat="45.71486" lon="6.57881">
        <ele>815</ele>
        <time>2019-04-18T21:40:42Z</time>
      </trkpt>
      <trkpt lat="45.71489" lon="6.57873">
        <ele>814</ele>
        <time>2019-04-18T21:41:42Z</time>
      </trkpt>
      <trkpt lat="45.71494" lon="6.5787">
        <ele>816</ele>
        <time>2019-04-18T21:42:42Z</time>
      </trkpt>
      <trkpt lat="45.71566" lon="6.57854">
        <ele>817</ele>
        <time>2019-04-18T21:43:42Z</time>
      </trkpt>
      <trkpt lat="45.71584" lon="6.57837">
        <ele>816</ele>
        <time>2019-04-18T21:44:42Z</time>
      </trkpt>
      <trkpt lat="45.71603" lon="6.57802">
        <ele>806</ele>
        <time>2019-04-18T21:45:42Z</time>
      </trkpt>
      <trkpt lat="45.7162" lon="6.57781">
        <ele>800</ele>
        <time>2019-04-18T21:46:42Z</time>
      </trkpt>
      <trkpt lat="45.7164" lon="6.57772">
        <ele>798</ele>
        <time>2019-04-18T21:47:42Z</time>
      </trkpt>
      <trkpt lat="45.71651" lon="6.57771">
        <ele>798</ele>
        <time>2019-04-18T21:48:42Z</time>
      </trkpt>
      <trkpt lat="45.71681" lon="6.57791">
        <ele>806</ele>
        <time>2019-04-18T21:49:42Z</time>
      </trkpt>
      <trkpt lat="45.71695" lon="6.57791">
        <ele>805</ele>
        <time>2019-04-18T21:50:42Z</time>
      </trkpt>
      <trkpt lat="45.71698" lon="6.57783">
        <ele>803</ele>
        <time>2019-04-18T21:51:42Z</time>
      </trkpt>
      <trkpt lat="45.71699" lon="6.57774">
        <ele>799</ele>
        <time>2019-04-18T21:52:42Z</time>
      </trkpt>
      <trkpt lat="45.71694" lon="6.57764">
        <ele>796</ele>
        <time>2019-04-18T21:53:42Z</time>
      </trkpt>
      <trkpt lat="45.71656" lon="6.57722">
        <ele>781</ele>
        <time>2019-04-18T21:54:42Z</time>
      </trkpt>
      <trkpt lat="45.71635" lon="6.57705">
        <ele>776</ele>
        <time>2019-04-18T21:55:42Z</time>
      </trkpt>
      <trkpt lat="45.71605" lon="6.57696">
        <ele>774</ele>
        <time>2019-04-18T21:56:42Z</time>
      </trkpt>
      <trkpt lat="45.71579" lon="6.57701">
        <ele>776</ele>
        <time>2019-04-18T21:57:42Z</time>
      </trkpt>
      <trkpt lat="45.7155" lon="6.57719">
        <ele>781</ele>
        <time>2019-04-18T21:58:42Z</time>
      </trkpt>
      <trkpt lat="45.71537" lon="6.57724">
        <ele>782</ele>
        <time>2019-04-18T21:59:42Z</time>
      </trkpt>
      <trkpt lat="45.71516" lon="6.57715">
        <ele>780</ele>
        <time>2019-04-18T22:00:42Z</time>
      </trkpt>
      <trkpt lat="45.71492" lon="6.57711">
        <ele>778</ele>
        <time>2019-04-18T22:01:42Z</time>
      </trkpt>
      <trkpt lat="45.71467" lon="6.57696">
        <ele>773</ele>
        <time>2019-04-18T22:02:42Z</time>
      </trkpt>
      <trkpt lat="45.71458" lon="6.57697">
        <ele>773</ele>
        <time>2019-04-18T22:03:42Z</time>
      </trkpt>
      <trkpt lat="45.71452" lon="6.57702">
        <ele>774</ele>
        <time>2019-04-18T22:04:42Z</time>
      </trkpt>
      <trkpt lat="45.7145" lon="6.57709">
        <ele>775</ele>
        <time>2019-04-18T22:05:42Z</time>
      </trkpt>
      <trkpt lat="45.71447" lon="6.57736">
        <ele>778</ele>
        <time>2019-04-18T22:06:42Z</time>
      </trkpt>
      <trkpt lat="45.71434" lon="6.57784">
        <ele>783</ele>
        <time>2019-04-18T22:07:42Z</time>
      </trkpt>
      <trkpt lat="45.71432" lon="6.5779">
        <ele>783</ele>
        <time>2019-04-18T22:08:42Z</time>
      </trkpt>
      <trkpt lat="45.71425" lon="6.57793">
        <ele>782</ele>
        <time>2019-04-18T22:09:42Z</time>
      </trkpt>
      <trkpt lat="45.71421" lon="6.57811">
        <ele>783</ele>
        <time>2019-04-18T22:10:42Z</time>
      </trkpt>
      <trkpt lat="45.71413" lon="6.57839">
        <ele>786</ele>
        <time>2019-04-18T22:11:42Z</time>
      </trkpt>
      <trkpt lat="45.71396" lon="6.57869">
        <ele>794</ele>
        <time>2019-04-18T22:12:42Z</time>
      </trkpt>
      <trkpt lat="45.71356" lon="6.57914">
        <ele>799</ele>
        <time>2019-04-18T22:13:42Z</time>
      </trkpt>
      <trkpt lat="45.71334" lon="6.57951">
        <ele>799</ele>
        <time>2019-04-18T22:14:42Z</time>
      </trkpt>
      <trkpt lat="45.71324" lon="6.57971">
        <ele>809</ele>
        <time>2019-04-18T22:15:42Z</time>
      </trkpt>
      <trkpt lat="45.71321" lon="6.5799">
        <ele>811</ele>
        <time>2019-04-18T22:16:42Z</time>
      </trkpt>
      <trkpt lat="45.71322" lon="6.58045">
        <ele>816</ele>
        <time>2019-04-18T22:17:42Z</time>
      </trkpt>
      <trkpt lat="45.71314" lon="6.58084">
        <ele>827</ele>
        <time>2019-04-18T22:18:42Z</time>
      </trkpt>
      <trkpt lat="45.71303" lon="6.58126">
        <ele>830</ele>
        <time>2019-04-18T22:19:42Z</time>
      </trkpt>
      <trkpt lat="45.71299" lon="6.58153">
        <ele>828</ele>
        <time>2019-04-18T22:20:42Z</time>
      </trkpt>
      <trkpt lat="45.71302" lon="6.5818">
        <ele>828</ele>
        <time>2019-04-18T22:21:42Z</time>
      </trkpt>
      <trkpt lat="45.713" lon="6.58206">
        <ele>834</ele>
        <time>2019-04-18T22:22:42Z</time>
      </trkpt>
      <trkpt lat="45.71252" lon="6.58329">
        <ele>869</ele>
        <time>2019-04-18T22:23:42Z</time>
      </trkpt>
      <trkpt lat="45.71249" lon="6.58336">
        <ele>873</ele>
        <time>2019-04-18T22:24:42Z</time>
      </trkpt>
      <trkpt lat="45.71235" lon="6.58353">
        <ele>895</ele>
        <time>2019-04-18T22:25:42Z</time>
      </trkpt>
      <trkpt lat="45.71211" lon="6.58393">
        <ele>937</ele>
        <time>2019-04-18T22:26:42Z</time>
      </trkpt>
      <trkpt lat="45.712" lon="6.58415">
        <ele>956</ele>
        <time>2019-04-18T22:27:42Z</time>
      </trkpt>
      <trkpt lat="45.71194" lon="6.58431">
        <ele>961</ele>
        <time>2019-04-18T22:28:42Z</time>
      </trkpt>
      <trkpt lat="45.71192" lon="6.58442">
        <ele>964</ele>
        <time>2019-04-18T22:29:42Z</time>
      </trkpt>
      <trkpt lat="45.71181" lon="6.58608">
        <ele>932</ele>
        <time>2019-04-18T22:30:42Z</time>
      </trkpt>
      <trkpt lat="45.7118" lon="6.58647">
        <ele>905</ele>
        <time>2019-04-18T22:31:42Z</time>
      </trkpt>
      <trkpt lat="45.71173" lon="6.58678">
        <ele>884</ele>
        <time>2019-04-18T22:32:42Z</time>
      </trkpt>
      <trkpt lat="45.71155" lon="6.58715">
        <ele>872</ele>
        <time>2019-04-18T22:33:42Z</time>
      </trkpt>
      <trkpt lat="45.71158" lon="6.58718">
        <ele>872</ele>
        <time>2019-04-18T22:34:42Z</time>
      </trkpt>
      <trkpt lat="45.71115" lon="6.5891">
        <ele>866</ele>
        <time>2019-04-18T22:35:42Z</time>
      </trkpt>
      <trkpt lat="45.71114" lon="6.58909">
        <ele>866</ele>
        <time>2019-04-18T22:36:42Z</time>
      </trkpt>
      <trkpt lat="45.71109" lon="6.58928">
        <ele>866</ele>
        <time>2019-04-18T22:37:42Z</time>
      </trkpt>
      <trkpt lat="45.711" lon="6.58943">
        <ele>864</ele>
        <time>2019-04-18T22:38:42Z</time>
      </trkpt>
      <trkpt lat="45.71081" lon="6.58959">
        <ele>857</ele>
        <time>2019-04-18T22:39:42Z</time>
      </trkpt>
      <trkpt lat="45.71065" lon="6.58977">
        <ele>859</ele>
        <time>2019-04-18T22:40:42Z</time>
      </trkpt>
      <trkpt lat="45.71044" lon="6.5899">
        <ele>859</ele>
        <time>2019-04-18T22:41:42Z</time>
      </trkpt>
      <trkpt lat="45.71023" lon="6.59006">
        <ele>858</ele>
        <time>2019-04-18T22:42:42Z</time>
      </trkpt>
      <trkpt lat="45.71003" lon="6.59019">
        <ele>857</ele>
        <time>2019-04-18T22:43:42Z</time>
      </trkpt>
      <trkpt lat="45.70994" lon="6.59019">
        <ele>860</ele>
        <time>2019-04-18T22:44:42Z</time>
      </trkpt>
      <trkpt lat="45.70988" lon="6.59013">
        <ele>863</ele>
        <time>2019-04-18T22:45:42Z</time>
      </trkpt>
      <trkpt lat="45.70987" lon="6.59007">
        <ele>864</ele>
        <time>2019-04-18T22:46:42Z</time>
      </trkpt>
      <trkpt lat="45.7099" lon="6.58998">
        <ele>864</ele>
        <time>2019-04-18T22:47:42Z</time>
      </trkpt>
      <trkpt lat="45.71014" lon="6.5898">
        <ele>861</ele>
        <time>2019-04-18T22:48:42Z</time>
      </trkpt>
      <trkpt lat="45.71026" lon="6.58958">
        <ele>863</ele>
        <time>2019-04-18T22:49:42Z</time>
      </trkpt>
      <trkpt lat="45.71028" lon="6.58948">
        <ele>864</ele>
        <time>2019-04-18T22:50:42Z</time>
      </trkpt>
      <trkpt lat="45.71028" lon="6.58937">
        <ele>866</ele>
        <time>2019-04-18T22:51:42Z</time>
      </trkpt>
      <trkpt lat="45.71023" lon="6.5893">
        <ele>867</ele>
        <time>2019-04-18T22:52:42Z</time>
      </trkpt>
      <trkpt lat="45.71019" lon="6.58929">
        <ele>868</ele>
        <time>2019-04-18T22:53:42Z</time>
      </trkpt>
      <trkpt lat="45.71013" lon="6.58932">
        <ele>869</ele>
        <time>2019-04-18T22:54:42Z</time>
      </trkpt>
      <trkpt lat="45.70991" lon="6.58964">
        <ele>871</ele>
        <time>2019-04-18T22:55:42Z</time>
      </trkpt>
      <trkpt lat="45.70973" lon="6.58982">
        <ele>879</ele>
        <time>2019-04-18T22:56:42Z</time>
      </trkpt>
      <trkpt lat="45.70958" lon="6.59001">
        <ele>883</ele>
        <time>2019-04-18T22:57:42Z</time>
      </trkpt>
      <trkpt lat="45.7086" lon="6.59154">
        <ele>867</ele>
        <time>2019-04-18T22:58:42Z</time>
      </trkpt>
      <trkpt lat="45.70851" lon="6.59162">
        <ele>867</ele>
        <time>2019-04-18T22:59:42Z</time>
      </trkpt>
      <trkpt lat="45.70821" lon="6.59169">
        <ele>872</ele>
        <time>2019-04-18T23:00:42Z</time>
      </trkpt>
      <trkpt lat="45.70802" lon="6.59178">
        <ele>877</ele>
        <time>2019-04-18T23:01:42Z</time>
      </trkpt>
      <trkpt lat="45.70788" lon="6.59194">
        <ele>880</ele>
        <time>2019-04-18T23:02:42Z</time>
      </trkpt>
      <trkpt lat="45.70779" lon="6.59216">
        <ele>880</ele>
        <time>2019-04-18T23:03:42Z</time>
      </trkpt>
      <trkpt lat="45.70764" lon="6.59275">
        <ele>880</ele>
        <time>2019-04-18T23:04:42Z</time>
      </trkpt>
      <trkpt lat="45.70752" lon="6.59304">
        <ele>881</ele>
        <time>2019-04-18T23:05:42Z</time>
      </trkpt>
      <trkpt lat="45.70734" lon="6.59333">
        <ele>886</ele>
        <time>2019-04-18T23:06:42Z</time>
      </trkpt>
      <trkpt lat="45.70717" lon="6.59362">
        <ele>892</ele>
        <time>2019-04-18T23:07:42Z</time>
      </trkpt>
      <trkpt lat="45.70711" lon="6.59382">
        <ele>895</ele>
        <time>2019-04-18T23:08:42Z</time>
      </trkpt>
      <trkpt lat="45.70709" lon="6.59443">
        <ele>896</ele>
        <time>2019-04-18T23:09:42Z</time>
      </trkpt>
      <trkpt lat="45.70701" lon="6.59537">
        <ele>904</ele>
        <time>2019-04-18T23:10:42Z</time>
      </trkpt>
      <trkpt lat="45.70701" lon="6.59642">
        <ele>910</ele>
        <time>2019-04-18T23:11:42Z</time>
      </trkpt>
      <trkpt lat="45.70705" lon="6.59724">
        <ele>911</ele>
        <time>2019-04-18T23:12:42Z</time>
      </trkpt>
      <trkpt lat="45.70698" lon="6.59797">
        <ele>917</ele>
        <time>2019-04-18T23:13:42Z</time>
      </trkpt>
      <trkpt lat="45.70678" lon="6.59905">
        <ele>929</ele>
        <time>2019-04-18T23:14:42Z</time>
      </trkpt>
      <trkpt lat="45.70664" lon="6.59994">
        <ele>937</ele>
        <time>2019-04-18T23:15:42Z</time>
      </trkpt>
      <trkpt lat="45.70656" lon="6.60097">
        <ele>949</ele>
        <time>2019-04-18T23:16:42Z</time>
      </trkpt>
      <trkpt lat="45.7066" lon="6.60132">
        <ele>952</ele>
        <time>2019-04-18T23:17:42Z</time>
      </trkpt>
      <trkpt lat="45.70696" lon="6.60265">
        <ele>963</ele>
        <time>2019-04-18T23:18:42Z</time>
      </trkpt>
      <trkpt lat="45.70724" lon="6.60326">
        <ele>965</ele>
        <time>2019-04-18T23:19:42Z</time>
      </trkpt>
      <trkpt lat="45.70739" lon="6.60396">
        <ele>967</ele>
        <time>2019-04-18T23:20:42Z</time>
      </trkpt>
      <trkpt lat="45.70751" lon="6.60486">
        <ele>967</ele>
        <time>2019-04-18T23:21:42Z</time>
      </trkpt>
      <trkpt lat="45.70747" lon="6.6051">
        <ele>972</ele>
        <time>2019-04-18T23:22:42Z</time>
      </trkpt>
      <trkpt lat="45.70737" lon="6.60527">
        <ele>986</ele>
        <time>2019-04-18T23:23:42Z</time>
      </trkpt>
      <trkpt lat="45.70733" lon="6.60542">
        <ele>992</ele>
        <time>2019-04-18T23:24:42Z</time>
      </trkpt>
      <trkpt lat="45.70735" lon="6.60586">
        <ele>989</ele>
        <time>2019-04-18T23:25:42Z</time>
      </trkpt>
      <trkpt lat="45.70731" lon="6.60607">
        <ele>997</ele>
        <time>2019-04-18T23:26:42Z</time>
      </trkpt>
      <trkpt lat="45.70711" lon="6.60653">
        <ele>1028</ele>
        <time>2019-04-18T23:27:42Z</time>
      </trkpt>
      <trkpt lat="45.707" lon="6.60725">
        <ele>1039</ele>
        <time>2019-04-18T23:28:42Z</time>
      </trkpt>
      <trkpt lat="45.70698" lon="6.60765">
        <ele>1037</ele>
        <time>2019-04-18T23:29:42Z</time>
      </trkpt>
      <trkpt lat="45.70705" lon="6.60792">
        <ele>1028</ele>
        <time>2019-04-18T23:30:42Z</time>
      </trkpt>
      <trkpt lat="45.70722" lon="6.60838">
        <ele>1016</ele>
        <time>2019-04-18T23:31:42Z</time>
      </trkpt>
      <trkpt lat="45.70728" lon="6.60871">
        <ele>1013</ele>
        <time>2019-04-18T23:32:42Z</time>
      </trkpt>
      <trkpt lat="45.70729" lon="6.60888">
        <ele>1013</ele>
        <time>2019-04-18T23:33:42Z</time>
      </trkpt>
      <trkpt lat="45.70724" lon="6.60906">
        <ele>1015</ele>
        <time>2019-04-18T23:34:42Z</time>
      </trkpt>
      <trkpt lat="45.7071" lon="6.60937">
        <ele>1018</ele>
        <time>2019-04-18T23:35:42Z</time>
      </trkpt>
      <trkpt lat="45.70694" lon="6.6099">
        <ele>1019</ele>
        <time>2019-04-18T23:36:42Z</time>
      </trkpt>
      <trkpt lat="45.70678" lon="6.61086">
        <ele>1026</ele>
        <time>2019-04-18T23:37:42Z</time>
      </trkpt>
      <trkpt lat="45.70676" lon="6.61116">
        <ele>1028</ele>
        <time>2019-04-18T23:38:42Z</time>
      </trkpt>
      <trkpt lat="45.70682" lon="6.61143">
        <ele>1028</ele>
        <time>2019-04-18T23:39:42Z</time>
      </trkpt>
      <trkpt lat="45.70704" lon="6.61173">
        <ele>1026</ele>
        <time>2019-04-18T23:40:42Z</time>
      </trkpt>
      <trkpt lat="45.7071" lon="6.61194">
        <ele>1025</ele>
        <time>2019-04-18T23:41:42Z</time>
      </trkpt>
      <trkpt lat="45.70712" lon="6.61212">
        <ele>1025</ele>
        <time>2019-04-18T23:42:42Z</time>
      </trkpt>
      <trkpt lat="45.70707" lon="6.6123">
        <ele>1027</ele>
        <time>2019-04-18T23:43:42Z</time>
      </trkpt>
      <trkpt lat="45.70704" lon="6.61251">
        <ele>1027</ele>
        <time>2019-04-18T23:44:42Z</time>
      </trkpt>
      <trkpt lat="45.70704" lon="6.61271">
        <ele>1028</ele>
        <time>2019-04-18T23:45:42Z</time>
      </trkpt>
      <trkpt lat="45.70708" lon="6.61288">
        <ele>1029</ele>
        <time>2019-04-18T23:46:42Z</time>
      </trkpt>
      <trkpt lat="45.70709" lon="6.61305">
        <ele>1029</ele>
        <time>2019-04-18T23:47:42Z</time>
      </trkpt>
      <trkpt lat="45.70703" lon="6.61321">
        <ele>1030</ele>
        <time>2019-04-18T23:48:42Z</time>
      </trkpt>
      <trkpt lat="45.70691" lon="6.61337">
        <ele>1031</ele>
        <time>2019-04-18T23:49:42Z</time>
      </trkpt>
      <trkpt lat="45.70673" lon="6.61373">
        <ele>1029</ele>
        <time>2019-04-18T23:50:42Z</time>
      </trkpt>
      <trkpt lat="45.70655" lon="6.6142">
        <ele>1033</ele>
        <time>2019-04-18T23:51:42Z</time>
      </trkpt>
      <trkpt lat="45.70643" lon="6.61477">
        <ele>1043</ele>
        <time>2019-04-18T23:52:42Z</time>
      </trkpt>
      <trkpt lat="45.70638" lon="6.61521">
        <ele>1047</ele>
        <time>2019-04-18T23:53:42Z</time>
      </trkpt>
      <trkpt lat="45.70635" lon="6.61697">
        <ele>1052</ele>
        <time>2019-04-18T23:54:42Z</time>
      </trkpt>
      <trkpt lat="45.70627" lon="6.61773">
        <ele>1059</ele>
        <time>2019-04-18T23:55:42Z</time>
      </trkpt>
      <trkpt lat="45.70621" lon="6.6183">
        <ele>1056</ele>
        <time>2019-04-18T23:56:42Z</time>
      </trkpt>
      <trkpt lat="45.70612" lon="6.6188">
        <ele>1051</ele>
        <time>2019-04-18T23:57:42Z</time>
      </trkpt>
      <trkpt lat="45.70595" lon="6.61922">
        <ele>1046</ele>
        <time>2019-04-18T23:58:42Z</time>
      </trkpt>
      <trkpt lat="45.70589" lon="6.61932">
        <ele>1046</ele>
        <time>2019-04-18T23:59:42Z</time>
      </trkpt>
      <trkpt lat="45.70548" lon="6.61969">
        <ele>1054</ele>
        <time>2019-04-19T00:00:42Z</time>
      </trkpt>
      <trkpt lat="45.70498" lon="6.61998">
        <ele>1057</ele>
        <time>2019-04-19T00:01:42Z</time>
      </trkpt>
      <trkpt lat="45.70361" lon="6.62057">
        <ele>1051</ele>
        <time>2019-04-19T00:02:42Z</time>
      </trkpt>
      <trkpt lat="45.70354" lon="6.62065">
        <ele>1049</ele>
        <time>2019-04-19T00:03:42Z</time>
      </trkpt>
      <trkpt lat="45.7035" lon="6.62074">
        <ele>1047</ele>
        <time>2019-04-19T00:04:42Z</time>
      </trkpt>
      <trkpt lat="45.70348" lon="6.62087">
        <ele>1045</ele>
        <time>2019-04-19T00:05:42Z</time>
      </trkpt>
      <trkpt lat="45.70348" lon="6.62101">
        <ele>1047</ele>
        <time>2019-04-19T00:06:42Z</time>
      </trkpt>
      <trkpt lat="45.70351" lon="6.62115">
        <ele>1048</ele>
        <time>2019-04-19T00:07:42Z</time>
      </trkpt>
      <trkpt lat="45.70366" lon="6.62137">
        <ele>1047</ele>
        <time>2019-04-19T00:08:42Z</time>
      </trkpt>
      <trkpt lat="45.70373" lon="6.6216">
        <ele>1048</ele>
        <time>2019-04-19T00:09:42Z</time>
      </trkpt>
      <trkpt lat="45.70375" lon="6.62189">
        <ele>1051</ele>
        <time>2019-04-19T00:10:42Z</time>
      </trkpt>
      <trkpt lat="45.70367" lon="6.62227">
        <ele>1056</ele>
        <time>2019-04-19T00:11:42Z</time>
      </trkpt>
      <trkpt lat="45.70362" lon="6.62267">
        <ele>1061</ele>
        <time>2019-04-19T00:12:42Z</time>
      </trkpt>
      <trkpt lat="45.70363" lon="6.62298">
        <ele>1065</ele>
        <time>2019-04-19T00:13:42Z</time>
      </trkpt>
      <trkpt lat="45.70375" lon="6.62335">
        <ele>1066</ele>
        <time>2019-04-19T00:14:42Z</time>
      </trkpt>
      <trkpt lat="45.70392" lon="6.62364">
        <ele>1069</ele>
        <time>2019-04-19T00:15:42Z</time>
      </trkpt>
      <trkpt lat="45.70424" lon="6.624">
        <ele>1071</ele>
        <time>2019-04-19T00:16:42Z</time>
      </trkpt>
      <trkpt lat="45.70459" lon="6.62417">
        <ele>1070</ele>
        <time>2019-04-19T00:17:42Z</time>
      </trkpt>
      <trkpt lat="45.70489" lon="6.62427">
        <ele>1069</ele>
        <time>2019-04-19T00:18:42Z</time>
      </trkpt>
      <trkpt lat="45.70512" lon="6.62432">
        <ele>1070</ele>
        <time>2019-04-19T00:19:42Z</time>
      </trkpt>
      <trkpt lat="45.70526" lon="6.62437">
        <ele>1073</ele>
        <time>2019-04-19T00:20:42Z</time>
      </trkpt>
      <trkpt lat="45.70531" lon="6.62447">
        <ele>1078</ele>
        <time>2019-04-19T00:21:42Z</time>
      </trkpt>
      <trkpt lat="45.7053" lon="6.62459">
        <ele>1083</ele>
        <time>2019-04-19T00:22:42Z</time>
      </trkpt>
      <trkpt lat="45.70521" lon="6.62465">
        <ele>1085</ele>
        <time>2019-04-19T00:23:42Z</time>
      </trkpt>
      <trkpt lat="45.70504" lon="6.62464">
        <ele>1084</ele>
        <time>2019-04-19T00:24:42Z</time>
      </trkpt>
      <trkpt lat="45.70414" lon="6.62445">
        <ele>1088</ele>
        <time>2019-04-19T00:25:42Z</time>
      </trkpt>
      <trkpt lat="45.70376" lon="6.62432">
        <ele>1093</ele>
        <time>2019-04-19T00:26:42Z</time>
      </trkpt>
      <trkpt lat="45.70343" lon="6.62416">
        <ele>1095</ele>
        <time>2019-04-19T00:27:42Z</time>
      </trkpt>
      <trkpt lat="45.70311" lon="6.62391">
        <ele>1098</ele>
        <time>2019-04-19T00:28:42Z</time>
      </trkpt>
      <trkpt lat="45.70263" lon="6.6236">
        <ele>1103</ele>
        <time>2019-04-19T00:29:42Z</time>
      </trkpt>
      <trkpt lat="45.70222" lon="6.62325">
        <ele>1108</ele>
        <time>2019-04-19T00:30:42Z</time>
      </trkpt>
      <trkpt lat="45.70143" lon="6.62186">
        <ele>1124</ele>
        <time>2019-04-19T00:31:42Z</time>
      </trkpt>
      <trkpt lat="45.70122" lon="6.62127">
        <ele>1130</ele>
        <time>2019-04-19T00:32:42Z</time>
      </trkpt>
      <trkpt lat="45.701" lon="6.62059">
        <ele>1135</ele>
        <time>2019-04-19T00:33:42Z</time>
      </trkpt>
      <trkpt lat="45.70091" lon="6.62012">
        <ele>1139</ele>
        <time>2019-04-19T00:34:42Z</time>
      </trkpt>
      <trkpt lat="45.70086" lon="6.61963">
        <ele>1137</ele>
        <time>2019-04-19T00:35:42Z</time>
      </trkpt>
      <trkpt lat="45.70085" lon="6.61941">
        <ele>1136</ele>
        <time>2019-04-19T00:36:42Z</time>
      </trkpt>
      <trkpt lat="45.7008" lon="6.61916">
        <ele>1135</ele>
        <time>2019-04-19T00:37:42Z</time>
      </trkpt>
      <trkpt lat="45.70068" lon="6.61897">
        <ele>1135</ele>
        <time>2019-04-19T00:38:42Z</time>
      </trkpt>
      <trkpt lat="45.70046" lon="6.61882">
        <ele>1139</ele>
        <time>2019-04-19T00:39:42Z</time>
      </trkpt>
      <trkpt lat="45.69988" lon="6.61856">
        <ele>1152</ele>
        <time>2019-04-19T00:40:42Z</time>
      </trkpt>
      <trkpt lat="45.69974" lon="6.61844">
        <ele>1154</ele>
        <time>2019-04-19T00:41:42Z</time>
      </trkpt>
      <trkpt lat="45.6996" lon="6.61829">
        <ele>1156</ele>
        <time>2019-04-19T00:42:42Z</time>
      </trkpt>
      <trkpt lat="45.69945" lon="6.61809">
        <ele>1158</ele>
        <time>2019-04-19T00:43:42Z</time>
      </trkpt>
      <trkpt lat="45.69933" lon="6.61788">
        <ele>1160</ele>
        <time>2019-04-19T00:44:42Z</time>
      </trkpt>
      <trkpt lat="45.6992" lon="6.61763">
        <ele>1160</ele>
        <time>2019-04-19T00:45:42Z</time>
      </trkpt>
      <trkpt lat="45.69911" lon="6.61739">
        <ele>1162</ele>
        <time>2019-04-19T00:46:42Z</time>
      </trkpt>
      <trkpt lat="45.69841" lon="6.61493">
        <ele>1167</ele>
        <time>2019-04-19T00:47:42Z</time>
      </trkpt>
      <trkpt lat="45.69832" lon="6.61478">
        <ele>1168</ele>
        <time>2019-04-19T00:48:42Z</time>
      </trkpt>
      <trkpt lat="45.69817" lon="6.61467">
        <ele>1170</ele>
        <time>2019-04-19T00:49:42Z</time>
      </trkpt>
      <trkpt lat="45.69775" lon="6.6146">
        <ele>1177</ele>
        <time>2019-04-19T00:50:42Z</time>
      </trkpt>
      <trkpt lat="45.6975" lon="6.61453">
        <ele>1180</ele>
        <time>2019-04-19T00:51:42Z</time>
      </trkpt>
      <trkpt lat="45.69731" lon="6.61446">
        <ele>1184</ele>
        <time>2019-04-19T00:52:42Z</time>
      </trkpt>
      <trkpt lat="45.69707" lon="6.6142">
        <ele>1183</ele>
        <time>2019-04-19T00:53:42Z</time>
      </trkpt>
      <trkpt lat="45.69701" lon="6.61418">
        <ele>1184</ele>
        <time>2019-04-19T00:54:42Z</time>
      </trkpt>
      <trkpt lat="45.69695" lon="6.61423">
        <ele>1187</ele>
        <time>2019-04-19T00:55:42Z</time>
      </trkpt>
      <trkpt lat="45.69691" lon="6.61434">
        <ele>1191</ele>
        <time>2019-04-19T00:56:42Z</time>
      </trkpt>
      <trkpt lat="45.69692" lon="6.61443">
        <ele>1193</ele>
        <time>2019-04-19T00:57:42Z</time>
      </trkpt>
      <trkpt lat="45.69695" lon="6.61451">
        <ele>1195</ele>
        <time>2019-04-19T00:58:42Z</time>
      </trkpt>
      <trkpt lat="45.69757" lon="6.61518">
        <ele>1194</ele>
        <time>2019-04-19T00:59:42Z</time>
      </trkpt>
      <trkpt lat="45.69795" lon="6.61577">
        <ele>1197</ele>
        <time>2019-04-19T01:00:42Z</time>
      </trkpt>
      <trkpt lat="45.69806" lon="6.61602">
        <ele>1196</ele>
        <time>2019-04-19T01:01:42Z</time>
      </trkpt>
      <trkpt lat="45.6981" lon="6.61623">
        <ele>1197</ele>
        <time>2019-04-19T01:02:42Z</time>
      </trkpt>
      <trkpt lat="45.6981" lon="6.61644">
        <ele>1200</ele>
        <time>2019-04-19T01:03:42Z</time>
      </trkpt>
      <trkpt lat="45.698" lon="6.61725">
        <ele>1211</ele>
        <time>2019-04-19T01:04:42Z</time>
      </trkpt>
      <trkpt lat="45.69799" lon="6.61758">
        <ele>1213</ele>
        <time>2019-04-19T01:05:42Z</time>
      </trkpt>
      <trkpt lat="45.69802" lon="6.61812">
        <ele>1217</ele>
        <time>2019-04-19T01:06:42Z</time>
      </trkpt>
      <trkpt lat="45.69817" lon="6.619">
        <ele>1221</ele>
        <time>2019-04-19T01:07:42Z</time>
      </trkpt>
      <trkpt lat="45.69829" lon="6.6194">
        <ele>1222</ele>
        <time>2019-04-19T01:08:42Z</time>
      </trkpt>
      <trkpt lat="45.69866" lon="6.62003">
        <ele>1219</ele>
        <time>2019-04-19T01:09:42Z</time>
      </trkpt>
      <trkpt lat="45.69864" lon="6.62012">
        <ele>1223</ele>
        <time>2019-04-19T01:10:42Z</time>
      </trkpt>
      <trkpt lat="45.6986" lon="6.62015">
        <ele>1226</ele>
        <time>2019-04-19T01:11:42Z</time>
      </trkpt>
      <trkpt lat="45.69852" lon="6.62013">
        <ele>1230</ele>
        <time>2019-04-19T01:12:42Z</time>
      </trkpt>
      <trkpt lat="45.6983" lon="6.61971">
        <ele>1230</ele>
        <time>2019-04-19T01:13:42Z</time>
      </trkpt>
      <trkpt lat="45.69781" lon="6.619">
        <ele>1239</ele>
        <time>2019-04-19T01:14:42Z</time>
      </trkpt>
      <trkpt lat="45.69747" lon="6.61791">
        <ele>1241</ele>
        <time>2019-04-19T01:15:42Z</time>
      </trkpt>
      <trkpt lat="45.697" lon="6.61681">
        <ele>1260</ele>
        <time>2019-04-19T01:16:42Z</time>
      </trkpt>
      <trkpt lat="45.69688" lon="6.61675">
        <ele>1266</ele>
        <time>2019-04-19T01:17:42Z</time>
      </trkpt>
      <trkpt lat="45.69682" lon="6.6168">
        <ele>1269</ele>
        <time>2019-04-19T01:18:42Z</time>
      </trkpt>
      <trkpt lat="45.69681" lon="6.61698">
        <ele>1272</ele>
        <time>2019-04-19T01:19:42Z</time>
      </trkpt>
      <trkpt lat="45.69724" lon="6.61861">
        <ele>1265</ele>
        <time>2019-04-19T01:20:42Z</time>
      </trkpt>
      <trkpt lat="45.69748" lon="6.61934">
        <ele>1265</ele>
        <time>2019-04-19T01:21:42Z</time>
      </trkpt>
      <trkpt lat="45.69783" lon="6.62002">
        <ele>1266</ele>
        <time>2019-04-19T01:22:42Z</time>
      </trkpt>
      <trkpt lat="45.69798" lon="6.62038">
        <ele>1270</ele>
        <time>2019-04-19T01:23:42Z</time>
      </trkpt>
      <trkpt lat="45.69828" lon="6.62085">
        <ele>1268</ele>
        <time>2019-04-19T01:24:42Z</time>
      </trkpt>
      <trkpt lat="45.69844" lon="6.621">
        <ele>1262</ele>
        <time>2019-04-19T01:25:42Z</time>
      </trkpt>
      <trkpt lat="45.69851" lon="6.62118">
        <ele>1263</ele>
        <time>2019-04-19T01:26:42Z</time>
      </trkpt>
      <trkpt lat="45.6985" lon="6.62201">
        <ele>1290</ele>
        <time>2019-04-19T01:27:42Z</time>
      </trkpt>
      <trkpt lat="45.69873" lon="6.62282">
        <ele>1295</ele>
        <time>2019-04-19T01:28:42Z</time>
      </trkpt>
      <trkpt lat="45.69898" lon="6.62343">
        <ele>1286</ele>
        <time>2019-04-19T01:29:42Z</time>
      </trkpt>
      <trkpt lat="45.69937" lon="6.62582">
        <ele>1327</ele>
        <time>2019-04-19T01:30:42Z</time>
      </trkpt>
      <trkpt lat="45.69971" lon="6.6265">
        <ele>1321</ele>
        <time>2019-04-19T01:31:42Z</time>
      </trkpt>
      <trkpt lat="45.70061" lon="6.62751">
        <ele>1323</ele>
        <time>2019-04-19T01:32:42Z</time>
      </trkpt>
      <trkpt lat="45.70109" lon="6.62821">
        <ele>1332</ele>
        <time>2019-04-19T01:33:42Z</time>
      </trkpt>
      <trkpt lat="45.70118" lon="6.6283">
        <ele>1332</ele>
        <time>2019-04-19T01:34:42Z</time>
      </trkpt>
      <trkpt lat="45.70156" lon="6.62841">
        <ele>1326</ele>
        <time>2019-04-19T01:35:42Z</time>
      </trkpt>
      <trkpt lat="45.70191" lon="6.62873">
        <ele>1335</ele>
        <time>2019-04-19T01:36:42Z</time>
      </trkpt>
      <trkpt lat="45.70269" lon="6.62936">
        <ele>1348</ele>
        <time>2019-04-19T01:37:42Z</time>
      </trkpt>
      <trkpt lat="45.703" lon="6.6295">
        <ele>1348</ele>
        <time>2019-04-19T01:38:42Z</time>
      </trkpt>
      <trkpt lat="45.70326" lon="6.62952">
        <ele>1344</ele>
        <time>2019-04-19T01:39:42Z</time>
      </trkpt>
      <trkpt lat="45.70365" lon="6.62949">
        <ele>1345</ele>
        <time>2019-04-19T01:40:42Z</time>
      </trkpt>
      <trkpt lat="45.70425" lon="6.6294">
        <ele>1346</ele>
        <time>2019-04-19T01:41:42Z</time>
      </trkpt>
      <trkpt lat="45.70482" lon="6.62944">
        <ele>1347</ele>
        <time>2019-04-19T01:42:42Z</time>
      </trkpt>
      <trkpt lat="45.70507" lon="6.62952">
        <ele>1348</ele>
        <time>2019-04-19T01:43:42Z</time>
      </trkpt>
      <trkpt lat="45.70519" lon="6.6296">
        <ele>1350</ele>
        <time>2019-04-19T01:44:42Z</time>
      </trkpt>
      <trkpt lat="45.70539" lon="6.62985">
        <ele>1356</ele>
        <time>2019-04-19T01:45:42Z</time>
      </trkpt>
      <trkpt lat="45.70558" lon="6.63001">
        <ele>1360</ele>
        <time>2019-04-19T01:46:42Z</time>
      </trkpt>
      <trkpt lat="45.70693" lon="6.63076">
        <ele>1376</ele>
        <time>2019-04-19T01:47:42Z</time>
      </trkpt>
      <trkpt lat="45.70734" lon="6.63078">
        <ele>1371</ele>
        <time>2019-04-19T01:48:42Z</time>
      </trkpt>
      <trkpt lat="45.70749" lon="6.63084">
        <ele>1370</ele>
        <time>2019-04-19T01:49:42Z</time>
      </trkpt>
      <trkpt lat="45.70753" lon="6.63096">
        <ele>1373</ele>
        <time>2019-04-19T01:50:42Z</time>
      </trkpt>
      <trkpt lat="45.70751" lon="6.63109">
        <ele>1378</ele>
        <time>2019-04-19T01:51:42Z</time>
      </trkpt>
      <trkpt lat="45.70741" lon="6.63119">
        <ele>1384</ele>
        <time>2019-04-19T01:52:42Z</time>
      </trkpt>
      <trkpt lat="45.70645" lon="6.63097">
        <ele>1393</ele>
        <time>2019-04-19T01:53:42Z</time>
      </trkpt>
      <trkpt lat="45.70615" lon="6.63086">
        <ele>1390</ele>
        <time>2019-04-19T01:54:42Z</time>
      </trkpt>
      <trkpt lat="45.70589" lon="6.63086">
        <ele>1393</ele>
        <time>2019-04-19T01:55:42Z</time>
      </trkpt>
      <trkpt lat="45.70565" lon="6.63096">
        <ele>1399</ele>
        <time>2019-04-19T01:56:42Z</time>
      </trkpt>
      <trkpt lat="45.70546" lon="6.63097">
        <ele>1401</ele>
        <time>2019-04-19T01:57:42Z</time>
      </trkpt>
      <trkpt lat="45.70517" lon="6.63073">
        <ele>1392</ele>
        <time>2019-04-19T01:58:42Z</time>
      </trkpt>
      <trkpt lat="45.705" lon="6.63067">
        <ele>1391</ele>
        <time>2019-04-19T01:59:42Z</time>
      </trkpt>
      <trkpt lat="45.70484" lon="6.63073">
        <ele>1394</ele>
        <time>2019-04-19T02:00:42Z</time>
      </trkpt>
      <trkpt lat="45.70462" lon="6.63086">
        <ele>1403</ele>
        <time>2019-04-19T02:01:42Z</time>
      </trkpt>
      <trkpt lat="45.70437" lon="6.6309">
        <ele>1407</ele>
        <time>2019-04-19T02:02:42Z</time>
      </trkpt>
      <trkpt lat="45.7041" lon="6.6309">
        <ele>1409</ele>
        <time>2019-04-19T02:03:42Z</time>
      </trkpt>
      <trkpt lat="45.70384" lon="6.63095">
        <ele>1411</ele>
        <time>2019-04-19T02:04:42Z</time>
      </trkpt>
      <trkpt lat="45.70357" lon="6.63101">
        <ele>1413</ele>
        <time>2019-04-19T02:05:42Z</time>
      </trkpt>
      <trkpt lat="45.70299" lon="6.63121">
        <ele>1424</ele>
        <time>2019-04-19T02:06:42Z</time>
      </trkpt>
      <trkpt lat="45.70275" lon="6.63127">
        <ele>1427</ele>
        <time>2019-04-19T02:07:42Z</time>
      </trkpt>
      <trkpt lat="45.7023" lon="6.63129">
        <ele>1430</ele>
        <time>2019-04-19T02:08:42Z</time>
      </trkpt>
      <trkpt lat="45.70186" lon="6.63141">
        <ele>1439</ele>
        <time>2019-04-19T02:09:42Z</time>
      </trkpt>
      <trkpt lat="45.70165" lon="6.63136">
        <ele>1439</ele>
        <time>2019-04-19T02:10:42Z</time>
      </trkpt>
      <trkpt lat="45.70103" lon="6.63106">
        <ele>1441</ele>
        <time>2019-04-19T02:11:42Z</time>
      </trkpt>
      <trkpt lat="45.70056" lon="6.63094">
        <ele>1449</ele>
        <time>2019-04-19T02:12:42Z</time>
      </trkpt>
      <trkpt lat="45.70029" lon="6.6307">
        <ele>1449</ele>
        <time>2019-04-19T02:13:42Z</time>
      </trkpt>
      <trkpt lat="45.7002" lon="6.63068">
        <ele>1452</ele>
        <time>2019-04-19T02:14:42Z</time>
      </trkpt>
      <trkpt lat="45.70016" lon="6.63071">
        <ele>1454</ele>
        <time>2019-04-19T02:15:42Z</time>
      </trkpt>
      <trkpt lat="45.70014" lon="6.63075">
        <ele>1456</ele>
        <time>2019-04-19T02:16:42Z</time>
      </trkpt>
      <trkpt lat="45.70014" lon="6.63082">
        <ele>1458</ele>
        <time>2019-04-19T02:17:42Z</time>
      </trkpt>
      <trkpt lat="45.70017" lon="6.6309">
        <ele>1460</ele>
        <time>2019-04-19T02:18:42Z</time>
      </trkpt>
      <trkpt lat="45.70024" lon="6.63098">
        <ele>1461</ele>
        <time>2019-04-19T02:19:42Z</time>
      </trkpt>
      <trkpt lat="45.70059" lon="6.63125">
        <ele>1460</ele>
        <time>2019-04-19T02:20:42Z</time>
      </trkpt>
      <trkpt lat="45.7009" lon="6.63162">
        <ele>1466</ele>
        <time>2019-04-19T02:21:42Z</time>
      </trkpt>
      <trkpt lat="45.7014" lon="6.63191">
        <ele>1470</ele>
        <time>2019-04-19T02:22:42Z</time>
      </trkpt>
      <trkpt lat="45.70163" lon="6.63201">
        <ele>1472</ele>
        <time>2019-04-19T02:23:42Z</time>
      </trkpt>
      <trkpt lat="45.70219" lon="6.63208">
        <ele>1471</ele>
        <time>2019-04-19T02:24:42Z</time>
      </trkpt>
      <trkpt lat="45.70278" lon="6.6322">
        <ele>1476</ele>
        <time>2019-04-19T02:25:42Z</time>
      </trkpt>
      <trkpt lat="45.70292" lon="6.6322">
        <ele>1476</ele>
        <time>2019-04-19T02:26:42Z</time>
      </trkpt>
      <trkpt lat="45.70357" lon="6.63208">
        <ele>1471</ele>
        <time>2019-04-19T02:27:42Z</time>
      </trkpt>
      <trkpt lat="45.70376" lon="6.63212">
        <ele>1472</ele>
        <time>2019-04-19T02:28:42Z</time>
      </trkpt>
      <trkpt lat="45.70404" lon="6.63233">
        <ele>1482</ele>
        <time>2019-04-19T02:29:42Z</time>
      </trkpt>
      <trkpt lat="45.70423" lon="6.63242">
        <ele>1485</ele>
        <time>2019-04-19T02:30:42Z</time>
      </trkpt>
      <trkpt lat="45.70443" lon="6.63245">
        <ele>1484</ele>
        <time>2019-04-19T02:31:42Z</time>
      </trkpt>
      <trkpt lat="45.70459" lon="6.63252">
        <ele>1485</ele>
        <time>2019-04-19T02:32:42Z</time>
      </trkpt>
      <trkpt lat="45.70513" lon="6.63294">
        <ele>1498</ele>
        <time>2019-04-19T02:33:42Z</time>
      </trkpt>
      <trkpt lat="45.70538" lon="6.63302">
        <ele>1499</ele>
        <time>2019-04-19T02:34:42Z</time>
      </trkpt>
      <trkpt lat="45.70624" lon="6.63311">
        <ele>1501</ele>
        <time>2019-04-19T02:35:42Z</time>
      </trkpt>
      <trkpt lat="45.70661" lon="6.63299">
        <ele>1498</ele>
        <time>2019-04-19T02:36:42Z</time>
      </trkpt>
      <trkpt lat="45.70686" lon="6.63288">
        <ele>1488</ele>
        <time>2019-04-19T02:37:42Z</time>
      </trkpt>
      <trkpt lat="45.70693" lon="6.63288">
        <ele>1485</ele>
        <time>2019-04-19T02:38:42Z</time>
      </trkpt>
      <trkpt lat="45.70699" lon="6.63293">
        <ele>1486</ele>
        <time>2019-04-19T02:39:42Z</time>
      </trkpt>
      <trkpt lat="45.70701" lon="6.63302">
        <ele>1490</ele>
        <time>2019-04-19T02:40:42Z</time>
      </trkpt>
      <trkpt lat="45.70699" lon="6.6331">
        <ele>1495</ele>
        <time>2019-04-19T02:41:42Z</time>
      </trkpt>
      <trkpt lat="45.70693" lon="6.63315">
        <ele>1499</ele>
        <time>2019-04-19T02:42:42Z</time>
      </trkpt>
      <trkpt lat="45.70686" lon="6.63317">
        <ele>1502</ele>
        <time>2019-04-19T02:43:42Z</time>
      </trkpt>
      <trkpt lat="45.70662" lon="6.63317">
        <ele>1506</ele>
        <time>2019-04-19T02:44:42Z</time>
      </trkpt>
      <trkpt lat="45.70646" lon="6.63323">
        <ele>1508</ele>
        <time>2019-04-19T02:45:42Z</time>
      </trkpt>
      <trkpt lat="45.70621" lon="6.63336">
        <ele>1512</ele>
        <time>2019-04-19T02:46:42Z</time>
      </trkpt>
      <trkpt lat="45.70604" lon="6.63341">
        <ele>1514</ele>
        <time>2019-04-19T02:47:42Z</time>
      </trkpt>
      <trkpt lat="45.70589" lon="6.63341">
        <ele>1513</ele>
        <time>2019-04-19T02:48:42Z</time>
      </trkpt>
      <trkpt lat="45.70543" lon="6.63353">
        <ele>1522</ele>
        <time>2019-04-19T02:49:42Z</time>
      </trkpt>
      <trkpt lat="45.70503" lon="6.63358">
        <ele>1528</ele>
        <time>2019-04-19T02:50:42Z</time>
      </trkpt>
      <trkpt lat="45.70465" lon="6.63358">
        <ele>1531</ele>
        <time>2019-04-19T02:51:42Z</time>
      </trkpt>
      <trkpt lat="45.70447" lon="6.63356">
        <ele>1532</ele>
        <time>2019-04-19T02:52:42Z</time>
      </trkpt>
      <trkpt lat="45.70424" lon="6.63348">
        <ele>1532</ele>
        <time>2019-04-19T02:53:42Z</time>
      </trkpt>
      <trkpt lat="45.70408" lon="6.63346">
        <ele>1532</ele>
        <time>2019-04-19T02:54:42Z</time>
      </trkpt>
      <trkpt lat="45.70385" lon="6.63356">
        <ele>1538</ele>
        <time>2019-04-19T02:55:42Z</time>
      </trkpt>
      <trkpt lat="45.70373" lon="6.63359">
        <ele>1540</ele>
        <time>2019-04-19T02:56:42Z</time>
      </trkpt>
      <trkpt lat="45.70322" lon="6.63345">
        <ele>1538</ele>
        <time>2019-04-19T02:57:42Z</time>
      </trkpt>
      <trkpt lat="45.70308" lon="6.63343">
        <ele>1537</ele>
        <time>2019-04-19T02:58:42Z</time>
      </trkpt>
      <trkpt lat="45.70256" lon="6.63361">
        <ele>1545</ele>
        <time>2019-04-19T02:59:42Z</time>
      </trkpt>
      <trkpt lat="45.70223" lon="6.63368">
        <ele>1550</ele>
        <time>2019-04-19T03:00:42Z</time>
      </trkpt>
      <trkpt lat="45.7019" lon="6.63374">
        <ele>1555</ele>
        <time>2019-04-19T03:01:42Z</time>
      </trkpt>
      <trkpt lat="45.70119" lon="6.63382">
        <ele>1564</ele>
        <time>2019-04-19T03:02:42Z</time>
      </trkpt>
      <trkpt lat="45.69996" lon="6.63388">
        <ele>1578</ele>
        <time>2019-04-19T03:03:42Z</time>
      </trkpt>
      <trkpt lat="45.6996" lon="6.63383">
        <ele>1577</ele>
        <time>2019-04-19T03:04:42Z</time>
      </trkpt>
      <trkpt lat="45.69953" lon="6.63384">
        <ele>1578</ele>
        <time>2019-04-19T03:05:42Z</time>
      </trkpt>
      <trkpt lat="45.69943" lon="6.6339">
        <ele>1580</ele>
        <time>2019-04-19T03:06:42Z</time>
      </trkpt>
      <trkpt lat="45.69921" lon="6.63409">
        <ele>1586</ele>
        <time>2019-04-19T03:07:42Z</time>
      </trkpt>
      <trkpt lat="45.69905" lon="6.63416">
        <ele>1589</ele>
        <time>2019-04-19T03:08:42Z</time>
      </trkpt>
      <trkpt lat="45.69882" lon="6.6342">
        <ele>1592</ele>
        <time>2019-04-19T03:09:42Z</time>
      </trkpt>
      <trkpt lat="45.69864" lon="6.6342">
        <ele>1593</ele>
        <time>2019-04-19T03:10:42Z</time>
      </trkpt>
      <trkpt lat="45.6983" lon="6.63416">
        <ele>1594</ele>
        <time>2019-04-19T03:11:42Z</time>
      </trkpt>
      <trkpt lat="45.69804" lon="6.6339">
        <ele>1591</ele>
        <time>2019-04-19T03:12:42Z</time>
      </trkpt>
      <trkpt lat="45.69791" lon="6.63382">
        <ele>1592</ele>
        <time>2019-04-19T03:13:42Z</time>
      </trkpt>
      <trkpt lat="45.69777" lon="6.63381">
        <ele>1594</ele>
        <time>2019-04-19T03:14:42Z</time>
      </trkpt>
      <trkpt lat="45.69737" lon="6.6339">
        <ele>1604</ele>
        <time>2019-04-19T03:15:42Z</time>
      </trkpt>
      <trkpt lat="45.6973" lon="6.6339">
        <ele>1605</ele>
        <time>2019-04-19T03:16:42Z</time>
      </trkpt>
      <trkpt lat="45.69691" lon="6.63376">
        <ele>1608</ele>
        <time>2019-04-19T03:17:42Z</time>
      </trkpt>
      <trkpt lat="45.69671" lon="6.63367">
        <ele>1609</ele>
        <time>2019-04-19T03:18:42Z</time>
      </trkpt>
      <trkpt lat="45.69652" lon="6.63354">
        <ele>1609</ele>
        <time>2019-04-19T03:19:42Z</time>
      </trkpt>
      <trkpt lat="45.69598" lon="6.63337">
        <ele>1614</ele>
        <time>2019-04-19T03:20:42Z</time>
      </trkpt>
      <trkpt lat="45.69567" lon="6.63312">
        <ele>1616</ele>
        <time>2019-04-19T03:21:42Z</time>
      </trkpt>
      <trkpt lat="45.69552" lon="6.63303">
        <ele>1616</ele>
        <time>2019-04-19T03:22:42Z</time>
      </trkpt>
      <trkpt lat="45.69537" lon="6.63299">
        <ele>1616</ele>
        <time>2019-04-19T03:23:42Z</time>
      </trkpt>
      <trkpt lat="45.69524" lon="6.633">
        <ele>1616</ele>
        <time>2019-04-19T03:24:42Z</time>
      </trkpt>
      <trkpt lat="45.69514" lon="6.63305">
        <ele>1615</ele>
        <time>2019-04-19T03:25:42Z</time>
      </trkpt>
      <trkpt lat="45.69505" lon="6.63316">
        <ele>1615</ele>
        <time>2019-04-19T03:26:42Z</time>
      </trkpt>
      <trkpt lat="45.69498" lon="6.63327">
        <ele>1615</ele>
        <time>2019-04-19T03:27:42Z</time>
      </trkpt>
      <trkpt lat="45.69493" lon="6.63344">
        <ele>1614</ele>
        <time>2019-04-19T03:28:42Z</time>
      </trkpt>
      <trkpt lat="45.69489" lon="6.63364">
        <ele>1614</ele>
        <time>2019-04-19T03:29:42Z</time>
      </trkpt>
      <trkpt lat="45.69489" lon="6.63387">
        <ele>1614</ele>
        <time>2019-04-19T03:30:42Z</time>
      </trkpt>
      <trkpt lat="45.69491" lon="6.63411">
        <ele>1614</ele>
        <time>2019-04-19T03:31:42Z</time>
      </trkpt>
      <trkpt lat="45.69497" lon="6.63447">
        <ele>1614</ele>
        <time>2019-04-19T03:32:42Z</time>
      </trkpt>
      <trkpt lat="45.69512" lon="6.63495">
        <ele>1617</ele>
        <time>2019-04-19T03:33:42Z</time>
      </trkpt>
      <trkpt lat="45.6952" lon="6.63513">
        <ele>1616</ele>
        <time>2019-04-19T03:34:42Z</time>
      </trkpt>
      <trkpt lat="45.69537" lon="6.63545">
        <ele>1615</ele>
        <time>2019-04-19T03:35:42Z</time>
      </trkpt>
      <trkpt lat="45.69577" lon="6.63612">
        <ele>1610</ele>
        <time>2019-04-19T03:36:42Z</time>
      </trkpt>
      <trkpt lat="45.6959" lon="6.63629">
        <ele>1610</ele>
        <time>2019-04-19T03:37:42Z</time>
      </trkpt>
      <trkpt lat="45.69625" lon="6.63656">
        <ele>1619</ele>
        <time>2019-04-19T03:38:42Z</time>
      </trkpt>
      <trkpt lat="45.6964" lon="6.63671">
        <ele>1622</ele>
        <time>2019-04-19T03:39:42Z</time>
      </trkpt>
      <trkpt lat="45.69679" lon="6.63749">
        <ele>1611</ele>
        <time>2019-04-19T03:40:42Z</time>
      </trkpt>
      <trkpt lat="45.69703" lon="6.63781">
        <ele>1610</ele>
        <time>2019-04-19T03:41:42Z</time>
      </trkpt>
      <trkpt lat="45.69717" lon="6.63794">
        <ele>1610</ele>
        <time>2019-04-19T03:42:42Z</time>
      </trkpt>
      <trkpt lat="45.69769" lon="6.63829">
        <ele>1618</ele>
        <time>2019-04-19T03:43:42Z</time>
      </trkpt>
      <trkpt lat="45.69798" lon="6.63851">
        <ele>1623</ele>
        <time>2019-04-19T03:44:42Z</time>
      </trkpt>
      <trkpt lat="45.6994" lon="6.64035">
        <ele>1622</ele>
        <time>2019-04-19T03:45:42Z</time>
      </trkpt>
      <trkpt lat="45.69975" lon="6.64097">
        <ele>1621</ele>
        <time>2019-04-19T03:46:42Z</time>
      </trkpt>
      <trkpt lat="45.70004" lon="6.64166">
        <ele>1615</ele>
        <time>2019-04-19T03:47:42Z</time>
      </trkpt>
      <trkpt lat="45.7003" lon="6.64237">
        <ele>1612</ele>
        <time>2019-04-19T03:48:42Z</time>
      </trkpt>
      <trkpt lat="45.70044" lon="6.64317">
        <ele>1607</ele>
        <time>2019-04-19T03:49:42Z</time>
      </trkpt>
      <trkpt lat="45.70071" lon="6.64389">
        <ele>1611</ele>
        <time>2019-04-19T03:50:42Z</time>
      </trkpt>
      <trkpt lat="45.70075" lon="6.64414">
        <ele>1611</ele>
        <time>2019-04-19T03:51:42Z</time>
      </trkpt>
      <trkpt lat="45.70073" lon="6.64438">
        <ele>1611</ele>
        <time>2019-04-19T03:52:42Z</time>
      </trkpt>
      <trkpt lat="45.70067" lon="6.64466">
        <ele>1610</ele>
        <time>2019-04-19T03:53:42Z</time>
      </trkpt>
      <trkpt lat="45.70058" lon="6.64484">
        <ele>1609</ele>
        <time>2019-04-19T03:54:42Z</time>
      </trkpt>
      <trkpt lat="45.70047" lon="6.64498">
        <ele>1608</ele>
        <time>2019-04-19T03:55:42Z</time>
      </trkpt>
      <trkpt lat="45.69995" lon="6.64532">
        <ele>1601</ele>
        <time>2019-04-19T03:56:42Z</time>
      </trkpt>
      <trkpt lat="45.69982" lon="6.64549">
        <ele>1597</ele>
        <time>2019-04-19T03:57:42Z</time>
      </trkpt>
      <trkpt lat="45.69977" lon="6.64564">
        <ele>1596</ele>
        <time>2019-04-19T03:58:42Z</time>
      </trkpt>
      <trkpt lat="45.69975" lon="6.6458">
        <ele>1597</ele>
        <time>2019-04-19T03:59:42Z</time>
      </trkpt>
      <trkpt lat="45.69976" lon="6.64593">
        <ele>1598</ele>
        <time>2019-04-19T04:00:42Z</time>
      </trkpt>
      <trkpt lat="45.69982" lon="6.64613">
        <ele>1600</ele>
        <time>2019-04-19T04:01:42Z</time>
      </trkpt>
      <trkpt lat="45.70036" lon="6.64749">
        <ele>1610</ele>
        <time>2019-04-19T04:02:42Z</time>
      </trkpt>
      <trkpt lat="45.70043" lon="6.64762">
        <ele>1610</ele>
        <time>2019-04-19T04:03:42Z</time>
      </trkpt>
      <trkpt lat="45.70091" lon="6.64828">
        <ele>1618</ele>
        <time>2019-04-19T04:04:42Z</time>
      </trkpt>
      <trkpt lat="45.70102" lon="6.64853">
        <ele>1619</ele>
        <time>2019-04-19T04:05:42Z</time>
      </trkpt>
      <trkpt lat="45.70106" lon="6.64885">
        <ele>1617</ele>
        <time>2019-04-19T04:06:42Z</time>
      </trkpt>
      <trkpt lat="45.70106" lon="6.64911">
        <ele>1613</ele>
        <time>2019-04-19T04:07:42Z</time>
      </trkpt>
      <trkpt lat="45.70101" lon="6.64935">
        <ele>1613</ele>
        <time>2019-04-19T04:08:42Z</time>
      </trkpt>
      <trkpt lat="45.70096" lon="6.64949">
        <ele>1612</ele>
        <time>2019-04-19T04:09:42Z</time>
      </trkpt>
      <trkpt lat="45.70082" lon="6.64968">
        <ele>1610</ele>
        <time>2019-04-19T04:10:42Z</time>
      </trkpt>
      <trkpt lat="45.70069" lon="6.64982">
        <ele>1609</ele>
        <time>2019-04-19T04:11:42Z</time>
      </trkpt>
      <trkpt lat="45.70043" lon="6.65002">
        <ele>1606</ele>
        <time>2019-04-19T04:12:42Z</time>
      </trkpt>
      <trkpt lat="45.7003" lon="6.65014">
        <ele>1604</ele>
        <time>2019-04-19T04:13:42Z</time>
      </trkpt>
      <trkpt lat="45.70021" lon="6.65036">
        <ele>1602</ele>
        <time>2019-04-19T04:14:42Z</time>
      </trkpt>
      <trkpt lat="45.70018" lon="6.65061">
        <ele>1601</ele>
        <time>2019-04-19T04:15:42Z</time>
      </trkpt>
      <trkpt lat="45.70024" lon="6.65099">
        <ele>1602</ele>
        <time>2019-04-19T04:16:42Z</time>
      </trkpt>
      <trkpt lat="45.70027" lon="6.65136">
        <ele>1601</ele>
        <time>2019-04-19T04:17:42Z</time>
      </trkpt>
      <trkpt lat="45.70027" lon="6.65209">
        <ele>1598</ele>
        <time>2019-04-19T04:18:42Z</time>
      </trkpt>
      <trkpt lat="45.70033" lon="6.65256">
        <ele>1600</ele>
        <time>2019-04-19T04:19:42Z</time>
      </trkpt>
      <trkpt lat="45.70036" lon="6.65299">
        <ele>1602</ele>
        <time>2019-04-19T04:20:42Z</time>
      </trkpt>
      <trkpt lat="45.70029" lon="6.65328">
        <ele>1600</ele>
        <time>2019-04-19T04:21:42Z</time>
      </trkpt>
      <trkpt lat="45.70018" lon="6.65352">
        <ele>1597</ele>
        <time>2019-04-19T04:22:42Z</time>
      </trkpt>
      <trkpt lat="45.69994" lon="6.65388">
        <ele>1591</ele>
        <time>2019-04-19T04:23:42Z</time>
      </trkpt>
      <trkpt lat="45.6998" lon="6.65419">
        <ele>1590</ele>
        <time>2019-04-19T04:24:42Z</time>
      </trkpt>
      <trkpt lat="45.69965" lon="6.65483">
        <ele>1595</ele>
        <time>2019-04-19T04:25:42Z</time>
      </trkpt>
      <trkpt lat="45.6996" lon="6.65497">
        <ele>1596</ele>
        <time>2019-04-19T04:26:42Z</time>
      </trkpt>
      <trkpt lat="45.69954" lon="6.65508">
        <ele>1596</ele>
        <time>2019-04-19T04:27:42Z</time>
      </trkpt>
      <trkpt lat="45.69944" lon="6.65517">
        <ele>1596</ele>
        <time>2019-04-19T04:28:42Z</time>
      </trkpt>
      <trkpt lat="45.69932" lon="6.65522">
        <ele>1593</ele>
        <time>2019-04-19T04:29:42Z</time>
      </trkpt>
      <trkpt lat="45.69888" lon="6.65533">
        <ele>1587</ele>
        <time>2019-04-19T04:30:42Z</time>
      </trkpt>
      <trkpt lat="45.69879" lon="6.65538">
        <ele>1587</ele>
        <time>2019-04-19T04:31:42Z</time>
      </trkpt>
      <trkpt lat="45.69872" lon="6.65545">
        <ele>1587</ele>
        <time>2019-04-19T04:32:42Z</time>
      </trkpt>
      <trkpt lat="45.69826" lon="6.65603">
        <ele>1589</ele>
        <time>2019-04-19T04:33:42Z</time>
      </trkpt>
      <trkpt lat="45.6981" lon="6.65619">
        <ele>1593</ele>
        <time>2019-04-19T04:34:42Z</time>
      </trkpt>
      <trkpt lat="45.69788" lon="6.65634">
        <ele>1597</ele>
        <time>2019-04-19T04:35:42Z</time>
      </trkpt>
      <trkpt lat="45.6976" lon="6.65639">
        <ele>1600</ele>
        <time>2019-04-19T04:36:42Z</time>
      </trkpt>
      <trkpt lat="45.6973" lon="6.65636">
        <ele>1604</ele>
        <time>2019-04-19T04:37:42Z</time>
      </trkpt>
      <trkpt lat="45.69697" lon="6.65624">
        <ele>1607</ele>
        <time>2019-04-19T04:38:42Z</time>
      </trkpt>
      <trkpt lat="45.69621" lon="6.65588">
        <ele>1611</ele>
        <time>2019-04-19T04:39:42Z</time>
      </trkpt>
      <trkpt lat="45.69555" lon="6.65563">
        <ele>1616</ele>
        <time>2019-04-19T04:40:42Z</time>
      </trkpt>
      <trkpt lat="45.69492" lon="6.65543">
        <ele>1618</ele>
        <time>2019-04-19T04:41:42Z</time>
      </trkpt>
      <trkpt lat="45.69469" lon="6.65545">
        <ele>1622</ele>
        <time>2019-04-19T04:42:42Z</time>
      </trkpt>
      <trkpt lat="45.69458" lon="6.65553">
        <ele>1625</ele>
        <time>2019-04-19T04:43:42Z</time>
      </trkpt>
      <trkpt lat="45.69451" lon="6.65563">
        <ele>1628</ele>
        <time>2019-04-19T04:44:42Z</time>
      </trkpt>
      <trkpt lat="45.69446" lon="6.65572">
        <ele>1630</ele>
        <time>2019-04-19T04:45:42Z</time>
      </trkpt>
      <trkpt lat="45.6944" lon="6.65598">
        <ele>1634</ele>
        <time>2019-04-19T04:46:42Z</time>
      </trkpt>
      <trkpt lat="45.69439" lon="6.65612">
        <ele>1635</ele>
        <time>2019-04-19T04:47:42Z</time>
      </trkpt>
      <trkpt lat="45.69444" lon="6.65639">
        <ele>1638</ele>
        <time>2019-04-19T04:48:42Z</time>
      </trkpt>
      <trkpt lat="45.69454" lon="6.65659">
        <ele>1639</ele>
        <time>2019-04-19T04:49:42Z</time>
      </trkpt>
      <trkpt lat="45.69465" lon="6.65674">
        <ele>1640</ele>
        <time>2019-04-19T04:50:42Z</time>
      </trkpt>
      <trkpt lat="45.69478" lon="6.65681">
        <ele>1640</ele>
        <time>2019-04-19T04:51:42Z</time>
      </trkpt>
      <trkpt lat="45.69492" lon="6.65681">
        <ele>1638</ele>
        <time>2019-04-19T04:52:42Z</time>
      </trkpt>
      <trkpt lat="45.69551" lon="6.65675">
        <ele>1637</ele>
        <time>2019-04-19T04:53:42Z</time>
      </trkpt>
      <trkpt lat="45.69574" lon="6.65677">
        <ele>1637</ele>
        <time>2019-04-19T04:54:42Z</time>
      </trkpt>
      <trkpt lat="45.69587" lon="6.65692">
        <ele>1638</ele>
        <time>2019-04-19T04:55:42Z</time>
      </trkpt>
      <trkpt lat="45.69598" lon="6.65714">
        <ele>1639</ele>
        <time>2019-04-19T04:56:42Z</time>
      </trkpt>
      <trkpt lat="45.696" lon="6.65741">
        <ele>1642</ele>
        <time>2019-04-19T04:57:42Z</time>
      </trkpt>
      <trkpt lat="45.69592" lon="6.65772">
        <ele>1647</ele>
        <time>2019-04-19T04:58:42Z</time>
      </trkpt>
      <trkpt lat="45.69582" lon="6.65787">
        <ele>1651</ele>
        <time>2019-04-19T04:59:42Z</time>
      </trkpt>
      <trkpt lat="45.69571" lon="6.65797">
        <ele>1655</ele>
        <time>2019-04-19T05:00:42Z</time>
      </trkpt>
      <trkpt lat="45.69553" lon="6.65799">
        <ele>1659</ele>
        <time>2019-04-19T05:01:42Z</time>
      </trkpt>
      <trkpt lat="45.69451" lon="6.65776">
        <ele>1679</ele>
        <time>2019-04-19T05:02:42Z</time>
      </trkpt>
      <trkpt lat="45.69422" lon="6.65762">
        <ele>1684</ele>
        <time>2019-04-19T05:03:42Z</time>
      </trkpt>
      <trkpt lat="45.69417" lon="6.65757">
        <ele>1684</ele>
        <time>2019-04-19T05:04:42Z</time>
      </trkpt>
      <trkpt lat="45.69412" lon="6.65746">
        <ele>1682</ele>
        <time>2019-04-19T05:05:42Z</time>
      </trkpt>
      <trkpt lat="45.69398" lon="6.65707">
        <ele>1671</ele>
        <time>2019-04-19T05:06:42Z</time>
      </trkpt>
      <trkpt lat="45.69382" lon="6.65683">
        <ele>1669</ele>
        <time>2019-04-19T05:07:42Z</time>
      </trkpt>
      <trkpt lat="45.69342" lon="6.65633">
        <ele>1673</ele>
        <time>2019-04-19T05:08:42Z</time>
      </trkpt>
      <trkpt lat="45.69252" lon="6.65544">
        <ele>1684</ele>
        <time>2019-04-19T05:09:42Z</time>
      </trkpt>
      <trkpt lat="45.69207" lon="6.6547">
        <ele>1685</ele>
        <time>2019-04-19T05:10:42Z</time>
      </trkpt>
      <trkpt lat="45.69166" lon="6.65424">
        <ele>1689</ele>
        <time>2019-04-19T05:11:42Z</time>
      </trkpt>
      <trkpt lat="45.69124" lon="6.65367">
        <ele>1683</ele>
        <time>2019-04-19T05:12:42Z</time>
      </trkpt>
      <trkpt lat="45.69118" lon="6.65362">
        <ele>1683</ele>
        <time>2019-04-19T05:13:42Z</time>
      </trkpt>
      <trkpt lat="45.69112" lon="6.6536">
        <ele>1685</ele>
        <time>2019-04-19T05:14:42Z</time>
      </trkpt>
      <trkpt lat="45.69108" lon="6.65361">
        <ele>1686</ele>
        <time>2019-04-19T05:15:42Z</time>
      </trkpt>
      <trkpt lat="45.69105" lon="6.65366">
        <ele>1689</ele>
        <time>2019-04-19T05:16:42Z</time>
      </trkpt>
      <trkpt lat="45.69104" lon="6.65372">
        <ele>1692</ele>
        <time>2019-04-19T05:17:42Z</time>
      </trkpt>
      <trkpt lat="45.69105" lon="6.65378">
        <ele>1693</ele>
        <time>2019-04-19T05:18:42Z</time>
      </trkpt>
      <trkpt lat="45.69126" lon="6.65403">
        <ele>1695</ele>
        <time>2019-04-19T05:19:42Z</time>
      </trkpt>
      <trkpt lat="45.69175" lon="6.65475">
        <ele>1700</ele>
        <time>2019-04-19T05:20:42Z</time>
      </trkpt>
      <trkpt lat="45.69232" lon="6.65617">
        <ele>1716</ele>
        <time>2019-04-19T05:21:42Z</time>
      </trkpt>
      <trkpt lat="45.69299" lon="6.65732">
        <ele>1726</ele>
        <time>2019-04-19T05:22:42Z</time>
      </trkpt>
      <trkpt lat="45.6932" lon="6.65776">
        <ele>1733</ele>
        <time>2019-04-19T05:23:42Z</time>
      </trkpt>
      <trkpt lat="45.6933" lon="6.65792">
        <ele>1733</ele>
        <time>2019-04-19T05:24:42Z</time>
      </trkpt>
      <trkpt lat="45.69344" lon="6.65809">
        <ele>1733</ele>
        <time>2019-04-19T05:25:42Z</time>
      </trkpt>
      <trkpt lat="45.69386" lon="6.65874">
        <ele>1740</ele>
        <time>2019-04-19T05:26:42Z</time>
      </trkpt>
      <trkpt lat="45.69441" lon="6.65949">
        <ele>1749</ele>
        <time>2019-04-19T05:27:42Z</time>
      </trkpt>
      <trkpt lat="45.69477" lon="6.65986">
        <ele>1752</ele>
        <time>2019-04-19T05:28:42Z</time>
      </trkpt>
      <trkpt lat="45.69528" lon="6.66033">
        <ele>1752</ele>
        <time>2019-04-19T05:29:42Z</time>
      </trkpt>
      <trkpt lat="45.69544" lon="6.66058">
        <ele>1755</ele>
        <time>2019-04-19T05:30:42Z</time>
      </trkpt>
      <trkpt lat="45.69562" lon="6.66098">
        <ele>1761</ele>
        <time>2019-04-19T05:31:42Z</time>
      </trkpt>
      <trkpt lat="45.69596" lon="6.66166">
        <ele>1768</ele>
        <time>2019-04-19T05:32:42Z</time>
      </trkpt>
      <trkpt lat="45.69614" lon="6.66225">
        <ele>1774</ele>
        <time>2019-04-19T05:33:42Z</time>
      </trkpt>
      <trkpt lat="45.69626" lon="6.66285">
        <ele>1773</ele>
        <time>2019-04-19T05:34:42Z</time>
      </trkpt>
      <trkpt lat="45.69632" lon="6.66367">
        <ele>1771</ele>
        <time>2019-04-19T05:35:42Z</time>
      </trkpt>
      <trkpt lat="45.69627" lon="6.66383">
        <ele>1776</ele>
        <time>2019-04-19T05:36:42Z</time>
      </trkpt>
      <trkpt lat="45.69581" lon="6.66474">
        <ele>1793</ele>
        <time>2019-04-19T05:37:42Z</time>
      </trkpt>
      <trkpt lat="45.6956" lon="6.66509">
        <ele>1792</ele>
        <time>2019-04-19T05:38:42Z</time>
      </trkpt>
      <trkpt lat="45.69551" lon="6.66515">
        <ele>1793</ele>
        <time>2019-04-19T05:39:42Z</time>
      </trkpt>
      <trkpt lat="45.69534" lon="6.66515">
        <ele>1794</ele>
        <time>2019-04-19T05:40:42Z</time>
      </trkpt>
      <trkpt lat="45.69504" lon="6.66497">
        <ele>1798</ele>
        <time>2019-04-19T05:41:42Z</time>
      </trkpt>
      <trkpt lat="45.69493" lon="6.66494">
        <ele>1801</ele>
        <time>2019-04-19T05:42:42Z</time>
      </trkpt>
      <trkpt lat="45.69449" lon="6.66501">
        <ele>1803</ele>
        <time>2019-04-19T05:43:42Z</time>
      </trkpt>
      <trkpt lat="45.69426" lon="6.66514">
        <ele>1803</ele>
        <time>2019-04-19T05:44:42Z</time>
      </trkpt>
      <trkpt lat="45.69399" lon="6.66537">
        <ele>1808</ele>
        <time>2019-04-19T05:45:42Z</time>
      </trkpt>
      <trkpt lat="45.69388" lon="6.66549">
        <ele>1810</ele>
        <time>2019-04-19T05:46:42Z</time>
      </trkpt>
      <trkpt lat="45.69379" lon="6.66573">
        <ele>1809</ele>
        <time>2019-04-19T05:47:42Z</time>
      </trkpt>
      <trkpt lat="45.69362" lon="6.66623">
        <ele>1812</ele>
        <time>2019-04-19T05:48:42Z</time>
      </trkpt>
      <trkpt lat="45.69356" lon="6.66654">
        <ele>1812</ele>
        <time>2019-04-19T05:49:42Z</time>
      </trkpt>
      <trkpt lat="45.69354" lon="6.66674">
        <ele>1811</ele>
        <time>2019-04-19T05:50:42Z</time>
      </trkpt>
      <trkpt lat="45.69354" lon="6.66748">
        <ele>1812</ele>
        <time>2019-04-19T05:51:42Z</time>
      </trkpt>
      <trkpt lat="45.69352" lon="6.66768">
        <ele>1813</ele>
        <time>2019-04-19T05:52:42Z</time>
      </trkpt>
      <trkpt lat="45.69297" lon="6.67014">
        <ele>1821</ele>
        <time>2019-04-19T05:53:42Z</time>
      </trkpt>
      <trkpt lat="45.6929" lon="6.67029">
        <ele>1822</ele>
        <time>2019-04-19T05:54:42Z</time>
      </trkpt>
      <trkpt lat="45.69263" lon="6.6708">
        <ele>1826</ele>
        <time>2019-04-19T05:55:42Z</time>
      </trkpt>
      <trkpt lat="45.69258" lon="6.67095">
        <ele>1827</ele>
        <time>2019-04-19T05:56:42Z</time>
      </trkpt>
      <trkpt lat="45.69251" lon="6.67131">
        <ele>1827</ele>
        <time>2019-04-19T05:57:42Z</time>
      </trkpt>
      <trkpt lat="45.69246" lon="6.67147">
        <ele>1828</ele>
        <time>2019-04-19T05:58:42Z</time>
      </trkpt>
      <trkpt lat="45.69206" lon="6.6721">
        <ele>1834</ele>
        <time>2019-04-19T05:59:42Z</time>
      </trkpt>
      <trkpt lat="45.69182" lon="6.67262">
        <ele>1836</ele>
        <time>2019-04-19T06:00:42Z</time>
      </trkpt>
      <trkpt lat="45.69173" lon="6.67273">
        <ele>1837</ele>
        <time>2019-04-19T06:01:42Z</time>
      </trkpt>
      <trkpt lat="45.69137" lon="6.67301">
        <ele>1843</ele>
        <time>2019-04-19T06:02:42Z</time>
      </trkpt>
      <trkpt lat="45.69127" lon="6.67314">
        <ele>1845</ele>
        <time>2019-04-19T06:03:42Z</time>
      </trkpt>
      <trkpt lat="45.69122" lon="6.67325">
        <ele>1846</ele>
        <time>2019-04-19T06:04:42Z</time>
      </trkpt>
      <trkpt lat="45.69114" lon="6.67353">
        <ele>1847</ele>
        <time>2019-04-19T06:05:42Z</time>
      </trkpt>
      <trkpt lat="45.69112" lon="6.67393">
        <ele>1847</ele>
        <time>2019-04-19T06:06:42Z</time>
      </trkpt>
      <trkpt lat="45.69109" lon="6.67405">
        <ele>1847</ele>
        <time>2019-04-19T06:07:42Z</time>
      </trkpt>
      <trkpt lat="45.69098" lon="6.67427">
        <ele>1850</ele>
        <time>2019-04-19T06:08:42Z</time>
      </trkpt>
      <trkpt lat="45.69095" lon="6.67438">
        <ele>1851</ele>
        <time>2019-04-19T06:09:42Z</time>
      </trkpt>
      <trkpt lat="45.69086" lon="6.67505">
        <ele>1855</ele>
        <time>2019-04-19T06:10:42Z</time>
      </trkpt>
      <trkpt lat="45.69088" lon="6.6755">
        <ele>1859</ele>
        <time>2019-04-19T06:11:42Z</time>
      </trkpt>
      <trkpt lat="45.69095" lon="6.676">
        <ele>1862</ele>
        <time>2019-04-19T06:12:42Z</time>
      </trkpt>
      <trkpt lat="45.69108" lon="6.67665">
        <ele>1865</ele>
        <time>2019-04-19T06:13:42Z</time>
      </trkpt>
      <trkpt lat="45.69114" lon="6.6771">
        <ele>1868</ele>
        <time>2019-04-19T06:14:42Z</time>
      </trkpt>
      <trkpt lat="45.69117" lon="6.67721">
        <ele>1869</ele>
        <time>2019-04-19T06:15:42Z</time>
      </trkpt>
      <trkpt lat="45.69121" lon="6.67731">
        <ele>1869</ele>
        <time>2019-04-19T06:16:42Z</time>
      </trkpt>
      <trkpt lat="45.69198" lon="6.67854">
        <ele>1874</ele>
        <time>2019-04-19T06:17:42Z</time>
      </trkpt>
      <trkpt lat="45.69222" lon="6.67904">
        <ele>1879</ele>
        <time>2019-04-19T06:18:42Z</time>
      </trkpt>
      <trkpt lat="45.69236" lon="6.67925">
        <ele>1880</ele>
        <time>2019-04-19T06:19:42Z</time>
      </trkpt>
      <trkpt lat="45.69275" lon="6.67946">
        <ele>1877</ele>
        <time>2019-04-19T06:20:42Z</time>
      </trkpt>
      <trkpt lat="45.69288" lon="6.67958">
        <ele>1877</ele>
        <time>2019-04-19T06:21:42Z</time>
      </trkpt>
      <trkpt lat="45.69301" lon="6.67979">
        <ele>1878</ele>
        <time>2019-04-19T06:22:42Z</time>
      </trkpt>
      <trkpt lat="45.69306" lon="6.67996">
        <ele>1881</ele>
        <time>2019-04-19T06:23:42Z</time>
      </trkpt>
      <trkpt lat="45.69325" lon="6.68078">
        <ele>1890</ele>
        <time>2019-04-19T06:24:42Z</time>
      </trkpt>
      <trkpt lat="45.69332" lon="6.68141">
        <ele>1898</ele>
        <time>2019-04-19T06:25:42Z</time>
      </trkpt>
      <trkpt lat="45.69339" lon="6.68157">
        <ele>1898</ele>
        <time>2019-04-19T06:26:42Z</time>
      </trkpt>
      <trkpt lat="45.69354" lon="6.68175">
        <ele>1898</ele>
        <time>2019-04-19T06:27:42Z</time>
      </trkpt>
      <trkpt lat="45.69421" lon="6.68245">
        <ele>1899</ele>
        <time>2019-04-19T06:28:42Z</time>
      </trkpt>
      <trkpt lat="45.69424" lon="6.68261">
        <ele>1902</ele>
        <time>2019-04-19T06:29:42Z</time>
      </trkpt>
      <trkpt lat="45.69423" lon="6.68266">
        <ele>1903</ele>
        <time>2019-04-19T06:30:42Z</time>
      </trkpt>
      <trkpt lat="45.69418" lon="6.68274">
        <ele>1906</ele>
        <time>2019-04-19T06:31:42Z</time>
      </trkpt>
      <trkpt lat="45.69408" lon="6.68277">
        <ele>1909</ele>
        <time>2019-04-19T06:32:42Z</time>
      </trkpt>
      <trkpt lat="45.69402" lon="6.68275">
        <ele>1909</ele>
        <time>2019-04-19T06:33:42Z</time>
      </trkpt>
      <trkpt lat="45.69366" lon="6.68246">
        <ele>1910</ele>
        <time>2019-04-19T06:34:42Z</time>
      </trkpt>
      <trkpt lat="45.69272" lon="6.68189">
        <ele>1916</ele>
        <time>2019-04-19T06:35:42Z</time>
      </trkpt>
      <trkpt lat="45.69255" lon="6.68176">
        <ele>1917</ele>
        <time>2019-04-19T06:36:42Z</time>
      </trkpt>
      <trkpt lat="45.69242" lon="6.68161">
        <ele>1917</ele>
        <time>2019-04-19T06:37:42Z</time>
      </trkpt>
      <trkpt lat="45.6917" lon="6.68065">
        <ele>1919</ele>
        <time>2019-04-19T06:38:42Z</time>
      </trkpt>
      <trkpt lat="45.6912" lon="6.68017">
        <ele>1920</ele>
        <time>2019-04-19T06:39:42Z</time>
      </trkpt>
      <trkpt lat="45.69093" lon="6.67999">
        <ele>1922</ele>
        <time>2019-04-19T06:40:42Z</time>
      </trkpt>
      <trkpt lat="45.69078" lon="6.67996">
        <ele>1924</ele>
        <time>2019-04-19T06:41:42Z</time>
      </trkpt>
      <trkpt lat="45.69061" lon="6.68">
        <ele>1926</ele>
        <time>2019-04-19T06:42:42Z</time>
      </trkpt>
      <trkpt lat="45.69047" lon="6.68009">
        <ele>1928</ele>
        <time>2019-04-19T06:43:42Z</time>
      </trkpt>
      <trkpt lat="45.69032" lon="6.68022">
        <ele>1930</ele>
        <time>2019-04-19T06:44:42Z</time>
      </trkpt>
      <trkpt lat="45.69017" lon="6.68047">
        <ele>1934</ele>
        <time>2019-04-19T06:45:42Z</time>
      </trkpt>
      <trkpt lat="45.69006" lon="6.68082">
        <ele>1937</ele>
        <time>2019-04-19T06:46:42Z</time>
      </trkpt>
      <trkpt lat="45.69001" lon="6.68132">
        <ele>1939</ele>
        <time>2019-04-19T06:47:42Z</time>
      </trkpt>
      <trkpt lat="45.69008" lon="6.6817">
        <ele>1940</ele>
        <time>2019-04-19T06:48:42Z</time>
      </trkpt>
      <trkpt lat="45.69025" lon="6.68198">
        <ele>1941</ele>
        <time>2019-04-19T06:49:42Z</time>
      </trkpt>
      <trkpt lat="45.69074" lon="6.68238">
        <ele>1942</ele>
        <time>2019-04-19T06:50:42Z</time>
      </trkpt>
      <trkpt lat="45.69093" lon="6.68265">
        <ele>1943</ele>
        <time>2019-04-19T06:51:42Z</time>
      </trkpt>
      <trkpt lat="45.69103" lon="6.68298">
        <ele>1944</ele>
        <time>2019-04-19T06:52:42Z</time>
      </trkpt>
      <trkpt lat="45.69122" lon="6.68345">
        <ele>1947</ele>
        <time>2019-04-19T06:53:42Z</time>
      </trkpt>
      <trkpt lat="45.69153" lon="6.68396">
        <ele>1951</ele>
        <time>2019-04-19T06:54:42Z</time>
      </trkpt>
      <trkpt lat="45.69157" lon="6.68416">
        <ele>1952</ele>
        <time>2019-04-19T06:55:42Z</time>
      </trkpt>
      <trkpt lat="45.69155" lon="6.68435">
        <ele>1953</ele>
        <time>2019-04-19T06:56:42Z</time>
      </trkpt>
      <trkpt lat="45.69134" lon="6.6847">
        <ele>1953</ele>
        <time>2019-04-19T06:57:42Z</time>
      </trkpt>
      <trkpt lat="45.69118" lon="6.68507">
        <ele>1953</ele>
        <time>2019-04-19T06:58:42Z</time>
      </trkpt>
      <trkpt lat="45.69105" lon="6.68682">
        <ele>1958</ele>
        <time>2019-04-19T06:59:42Z</time>
      </trkpt>
      <trkpt lat="45.69105" lon="6.68699">
        <ele>1958</ele>
        <time>2019-04-19T07:00:42Z</time>
      </trkpt>
      <trkpt lat="45.69115" lon="6.68717">
        <ele>1960</ele>
        <time>2019-04-19T07:01:42Z</time>
      </trkpt>
      <trkpt lat="45.69139" lon="6.68745">
        <ele>1963</ele>
        <time>2019-04-19T07:02:42Z</time>
      </trkpt>
      <trkpt lat="45.69144" lon="6.68762">
        <ele>1964</ele>
        <time>2019-04-19T07:03:42Z</time>
      </trkpt>
      <trkpt lat="45.69145" lon="6.68782">
        <ele>1966</ele>
        <time>2019-04-19T07:04:42Z</time>
      </trkpt>
      <trkpt lat="45.69136" lon="6.68813">
        <ele>1966</ele>
        <time>2019-04-19T07:05:42Z</time>
      </trkpt>
      <trkpt lat="45.69132" lon="6.6884">
        <ele>1966</ele>
        <time>2019-04-19T07:06:42Z</time>
      </trkpt>
      <trkpt lat="45.69134" lon="6.68885">
        <ele>1968</ele>
        <time>2019-04-19T07:07:42Z</time>
      </trkpt>
      <trkpt lat="45.69133" lon="6.68899">
        <ele>1968</ele>
        <time>2019-04-19T07:08:42Z</time>
      </trkpt>
      <trkpt lat="45.69123" lon="6.68945">
        <ele>1969</ele>
        <time>2019-04-19T07:09:42Z</time>
      </trkpt>
      <trkpt lat="45.6912" lon="6.68964">
        <ele>1970</ele>
        <time>2019-04-19T07:10:42Z</time>
      </trkpt>
      <trkpt lat="45.6912" lon="6.68985">
        <ele>1972</ele>
        <time>2019-04-19T07:11:42Z</time>
      </trkpt>
      <trkpt lat="45.69131" lon="6.69055">
        <ele>1974</ele>
        <time>2019-04-19T07:12:42Z</time>
      </trkpt>
      <trkpt lat="45.69144" lon="6.69122">
        <ele>1972</ele>
        <time>2019-04-19T07:13:42Z</time>
      </trkpt>
      <trkpt lat="45.69161" lon="6.69193">
        <ele>1967</ele>
        <time>2019-04-19T07:14:42Z</time>
      </trkpt>
      <trkpt lat="45.69172" lon="6.69217">
        <ele>1966</ele>
        <time>2019-04-19T07:15:42Z</time>
      </trkpt>
      <trkpt lat="45.69183" lon="6.6923">
        <ele>1965</ele>
        <time>2019-04-19T07:16:42Z</time>
      </trkpt>
      <trkpt lat="45.69195" lon="6.69239">
        <ele>1963</ele>
        <time>2019-04-19T07:17:42Z</time>
      </trkpt>
      <trkpt lat="45.69207" lon="6.69243">
        <ele>1962</ele>
        <time>2019-04-19T07:18:42Z</time>
      </trkpt>
      <trkpt lat="45.69264" lon="6.69249">
        <ele>1956</ele>
        <time>2019-04-19T07:19:42Z</time>
      </trkpt>
      <trkpt lat="45.69289" lon="6.69256">
        <ele>1956</ele>
        <time>2019-04-19T07:20:42Z</time>
      </trkpt>
      <trkpt lat="45.69313" lon="6.69276">
        <ele>1953</ele>
        <time>2019-04-19T07:21:42Z</time>
      </trkpt>
      <trkpt lat="45.69333" lon="6.69304">
        <ele>1949</ele>
        <time>2019-04-19T07:22:42Z</time>
      </trkpt>
      <trkpt lat="45.69348" lon="6.69332">
        <ele>1948</ele>
        <time>2019-04-19T07:23:42Z</time>
      </trkpt>
      <trkpt lat="45.69377" lon="6.694">
        <ele>1944</ele>
        <time>2019-04-19T07:24:42Z</time>
      </trkpt>
      <trkpt lat="45.69385" lon="6.69438">
        <ele>1941</ele>
        <time>2019-04-19T07:25:42Z</time>
      </trkpt>
      <trkpt lat="45.69389" lon="6.69473">
        <ele>1936</ele>
        <time>2019-04-19T07:26:42Z</time>
      </trkpt>
      <trkpt lat="45.6939" lon="6.69518">
        <ele>1931</ele>
        <time>2019-04-19T07:27:42Z</time>
      </trkpt>
      <trkpt lat="45.69387" lon="6.69552">
        <ele>1927</ele>
        <time>2019-04-19T07:28:42Z</time>
      </trkpt>
      <trkpt lat="45.69379" lon="6.69627">
        <ele>1921</ele>
        <time>2019-04-19T07:29:42Z</time>
      </trkpt>
      <trkpt lat="45.69364" lon="6.697">
        <ele>1917</ele>
        <time>2019-04-19T07:30:42Z</time>
      </trkpt>
      <trkpt lat="45.69341" lon="6.69772">
        <ele>1915</ele>
        <time>2019-04-19T07:31:42Z</time>
      </trkpt>
      <trkpt lat="45.69227" lon="6.70037">
        <ele>1901</ele>
        <time>2019-04-19T07:32:42Z</time>
      </trkpt>
      <trkpt lat="45.69217" lon="6.70075">
        <ele>1900</ele>
        <time>2019-04-19T07:33:42Z</time>
      </trkpt>
      <trkpt lat="45.69211" lon="6.70114">
        <ele>1898</ele>
        <time>2019-04-19T07:34:42Z</time>
      </trkpt>
      <trkpt lat="45.69212" lon="6.70151">
        <ele>1897</ele>
        <time>2019-04-19T07:35:42Z</time>
      </trkpt>
      <trkpt lat="45.69216" lon="6.70189">
        <ele>1894</ele>
        <time>2019-04-19T07:36:42Z</time>
      </trkpt>
      <trkpt lat="45.69261" lon="6.7033">
        <ele>1875</ele>
        <time>2019-04-19T07:37:42Z</time>
      </trkpt>
      <trkpt lat="45.69281" lon="6.70407">
        <ele>1875</ele>
        <time>2019-04-19T07:38:42Z</time>
      </trkpt>
      <trkpt lat="45.69298" lon="6.70479">
        <ele>1875</ele>
        <time>2019-04-19T07:39:42Z</time>
      </trkpt>
      <trkpt lat="45.69389" lon="6.71247">
        <ele>1828</ele>
        <time>2019-04-19T07:40:42Z</time>
      </trkpt>
      <trkpt lat="45.69404" lon="6.71321">
        <ele>1826</ele>
        <time>2019-04-19T07:41:42Z</time>
      </trkpt>
      <trkpt lat="45.69428" lon="6.71392">
        <ele>1824</ele>
        <time>2019-04-19T07:42:42Z</time>
      </trkpt>
      <trkpt lat="45.69447" lon="6.71467">
        <ele>1822</ele>
        <time>2019-04-19T07:43:42Z</time>
      </trkpt>
      <trkpt lat="45.69449" lon="6.71508">
        <ele>1818</ele>
        <time>2019-04-19T07:44:42Z</time>
      </trkpt>
      <trkpt lat="45.69432" lon="6.71583">
        <ele>1809</ele>
        <time>2019-04-19T07:45:42Z</time>
      </trkpt>
      <trkpt lat="45.6943" lon="6.71601">
        <ele>1806</ele>
        <time>2019-04-19T07:46:42Z</time>
      </trkpt>
      <trkpt lat="45.69433" lon="6.71619">
        <ele>1805</ele>
        <time>2019-04-19T07:47:42Z</time>
      </trkpt>
      <trkpt lat="45.69441" lon="6.71642">
        <ele>1803</ele>
        <time>2019-04-19T07:48:42Z</time>
      </trkpt>
      <trkpt lat="45.6945" lon="6.71653">
        <ele>1802</ele>
        <time>2019-04-19T07:49:42Z</time>
      </trkpt>
      <trkpt lat="45.69464" lon="6.71665">
        <ele>1801</ele>
        <time>2019-04-19T07:50:42Z</time>
      </trkpt>
      <trkpt lat="45.69479" lon="6.71664">
        <ele>1802</ele>
        <time>2019-04-19T07:51:42Z</time>
      </trkpt>
      <trkpt lat="45.69532" lon="6.71637">
        <ele>1808</ele>
        <time>2019-04-19T07:52:42Z</time>
      </trkpt>
      <trkpt lat="45.69557" lon="6.71634">
        <ele>1808</ele>
        <time>2019-04-19T07:53:42Z</time>
      </trkpt>
      <trkpt lat="45.69579" lon="6.71644">
        <ele>1806</ele>
        <time>2019-04-19T07:54:42Z</time>
      </trkpt>
      <trkpt lat="45.69587" lon="6.71664">
        <ele>1804</ele>
        <time>2019-04-19T07:55:42Z</time>
      </trkpt>
      <trkpt lat="45.69587" lon="6.71685">
        <ele>1803</ele>
        <time>2019-04-19T07:56:42Z</time>
      </trkpt>
      <trkpt lat="45.69569" lon="6.71728">
        <ele>1800</ele>
        <time>2019-04-19T07:57:42Z</time>
      </trkpt>
      <trkpt lat="45.69568" lon="6.71759">
        <ele>1797</ele>
        <time>2019-04-19T07:58:42Z</time>
      </trkpt>
      <trkpt lat="45.69573" lon="6.71806">
        <ele>1793</ele>
        <time>2019-04-19T07:59:42Z</time>
      </trkpt>
      <trkpt lat="45.69583" lon="6.71837">
        <ele>1791</ele>
        <time>2019-04-19T08:00:42Z</time>
      </trkpt>
      <trkpt lat="45.69603" lon="6.71865">
        <ele>1791</ele>
        <time>2019-04-19T08:01:42Z</time>
      </trkpt>
      <trkpt lat="45.69701" lon="6.71925">
        <ele>1792</ele>
        <time>2019-04-19T08:02:42Z</time>
      </trkpt>
      <trkpt lat="45.69727" lon="6.71942">
        <ele>1794</ele>
        <time>2019-04-19T08:03:42Z</time>
      </trkpt>
      <trkpt lat="45.69737" lon="6.71958">
        <ele>1792</ele>
        <time>2019-04-19T08:04:42Z</time>
      </trkpt>
      <trkpt lat="45.6974" lon="6.71973">
        <ele>1789</ele>
        <time>2019-04-19T08:05:42Z</time>
      </trkpt>
      <trkpt lat="45.69736" lon="6.72051">
        <ele>1780</ele>
        <time>2019-04-19T08:06:42Z</time>
      </trkpt>
      <trkpt lat="45.69728" lon="6.72147">
        <ele>1773</ele>
        <time>2019-04-19T08:07:42Z</time>
      </trkpt>
      <trkpt lat="45.69732" lon="6.72164">
        <ele>1773</ele>
        <time>2019-04-19T08:08:42Z</time>
      </trkpt>
      <trkpt lat="45.69755" lon="6.72195">
        <ele>1777</ele>
        <time>2019-04-19T08:09:42Z</time>
      </trkpt>
      <trkpt lat="45.69765" lon="6.72214">
        <ele>1779</ele>
        <time>2019-04-19T08:10:42Z</time>
      </trkpt>
      <trkpt lat="45.69768" lon="6.72226">
        <ele>1779</ele>
        <time>2019-04-19T08:11:42Z</time>
      </trkpt>
      <trkpt lat="45.69771" lon="6.72263">
        <ele>1779</ele>
        <time>2019-04-19T08:12:42Z</time>
      </trkpt>
      <trkpt lat="45.6976" lon="6.72299">
        <ele>1774</ele>
        <time>2019-04-19T08:13:42Z</time>
      </trkpt>
      <trkpt lat="45.69744" lon="6.72333">
        <ele>1769</ele>
        <time>2019-04-19T08:14:42Z</time>
      </trkpt>
      <trkpt lat="45.6974" lon="6.72354">
        <ele>1767</ele>
        <time>2019-04-19T08:15:42Z</time>
      </trkpt>
      <trkpt lat="45.69741" lon="6.72376">
        <ele>1766</ele>
        <time>2019-04-19T08:16:42Z</time>
      </trkpt>
      <trkpt lat="45.69746" lon="6.72399">
        <ele>1767</ele>
        <time>2019-04-19T08:17:42Z</time>
      </trkpt>
      <trkpt lat="45.69754" lon="6.72413">
        <ele>1768</ele>
        <time>2019-04-19T08:18:42Z</time>
      </trkpt>
      <trkpt lat="45.6978" lon="6.7244">
        <ele>1768</ele>
        <time>2019-04-19T08:19:42Z</time>
      </trkpt>
      <trkpt lat="45.69795" lon="6.7246">
        <ele>1768</ele>
        <time>2019-04-19T08:20:42Z</time>
      </trkpt>
      <trkpt lat="45.69806" lon="6.72479">
        <ele>1767</ele>
        <time>2019-04-19T08:21:42Z</time>
      </trkpt>
      <trkpt lat="45.69809" lon="6.72493">
        <ele>1766</ele>
        <time>2019-04-19T08:22:42Z</time>
      </trkpt>
      <trkpt lat="45.69809" lon="6.72501">
        <ele>1766</ele>
        <time>2019-04-19T08:23:42Z</time>
      </trkpt>
      <trkpt lat="45.69807" lon="6.72509">
        <ele>1764</ele>
        <time>2019-04-19T08:24:42Z</time>
      </trkpt>
      <trkpt lat="45.69803" lon="6.72522">
        <ele>1761</ele>
        <time>2019-04-19T08:25:42Z</time>
      </trkpt>
      <trkpt lat="45.69796" lon="6.72528">
        <ele>1758</ele>
        <time>2019-04-19T08:26:42Z</time>
      </trkpt>
      <trkpt lat="45.69787" lon="6.72533">
        <ele>1756</ele>
        <time>2019-04-19T08:27:42Z</time>
      </trkpt>
      <trkpt lat="45.69774" lon="6.72533">
        <ele>1754</ele>
        <time>2019-04-19T08:28:42Z</time>
      </trkpt>
      <trkpt lat="45.69728" lon="6.72514">
        <ele>1749</ele>
        <time>2019-04-19T08:29:42Z</time>
      </trkpt>
      <trkpt lat="45.69714" lon="6.72505">
        <ele>1746</ele>
        <time>2019-04-19T08:30:42Z</time>
      </trkpt>
      <trkpt lat="45.69707" lon="6.72492">
        <ele>1746</ele>
        <time>2019-04-19T08:31:42Z</time>
      </trkpt>
      <trkpt lat="45.69678" lon="6.72424">
        <ele>1745</ele>
        <time>2019-04-19T08:32:42Z</time>
      </trkpt>
      <trkpt lat="45.69607" lon="6.72269">
        <ele>1732</ele>
        <time>2019-04-19T08:33:42Z</time>
      </trkpt>
      <trkpt lat="45.69602" lon="6.7226">
        <ele>1730</ele>
        <time>2019-04-19T08:34:42Z</time>
      </trkpt>
      <trkpt lat="45.69597" lon="6.72254">
        <ele>1729</ele>
        <time>2019-04-19T08:35:42Z</time>
      </trkpt>
      <trkpt lat="45.6959" lon="6.72253">
        <ele>1727</ele>
        <time>2019-04-19T08:36:42Z</time>
      </trkpt>
      <trkpt lat="45.69585" lon="6.72256">
        <ele>1725</ele>
        <time>2019-04-19T08:37:42Z</time>
      </trkpt>
      <trkpt lat="45.69581" lon="6.72268">
        <ele>1723</ele>
        <time>2019-04-19T08:38:42Z</time>
      </trkpt>
      <trkpt lat="45.69583" lon="6.72278">
        <ele>1724</ele>
        <time>2019-04-19T08:39:42Z</time>
      </trkpt>
      <trkpt lat="45.69598" lon="6.72306">
        <ele>1727</ele>
        <time>2019-04-19T08:40:42Z</time>
      </trkpt>
      <trkpt lat="45.69603" lon="6.7232">
        <ele>1728</ele>
        <time>2019-04-19T08:41:42Z</time>
      </trkpt>
      <trkpt lat="45.69609" lon="6.72351">
        <ele>1728</ele>
        <time>2019-04-19T08:42:42Z</time>
      </trkpt>
      <trkpt lat="45.6961" lon="6.72375">
        <ele>1726</ele>
        <time>2019-04-19T08:43:42Z</time>
      </trkpt>
      <trkpt lat="45.69609" lon="6.72477">
        <ele>1717</ele>
        <time>2019-04-19T08:44:42Z</time>
      </trkpt>
      <trkpt lat="45.69612" lon="6.72532">
        <ele>1710</ele>
        <time>2019-04-19T08:45:42Z</time>
      </trkpt>
      <trkpt lat="45.69614" lon="6.7255">
        <ele>1708</ele>
        <time>2019-04-19T08:46:42Z</time>
      </trkpt>
      <trkpt lat="45.69629" lon="6.72603">
        <ele>1704</ele>
        <time>2019-04-19T08:47:42Z</time>
      </trkpt>
      <trkpt lat="45.69633" lon="6.72624">
        <ele>1702</ele>
        <time>2019-04-19T08:48:42Z</time>
      </trkpt>
      <trkpt lat="45.69635" lon="6.7265">
        <ele>1700</ele>
        <time>2019-04-19T08:49:42Z</time>
      </trkpt>
      <trkpt lat="45.69632" lon="6.72664">
        <ele>1697</ele>
        <time>2019-04-19T08:50:42Z</time>
      </trkpt>
      <trkpt lat="45.69627" lon="6.72673">
        <ele>1694</ele>
        <time>2019-04-19T08:51:42Z</time>
      </trkpt>
      <trkpt lat="45.6962" lon="6.72677">
        <ele>1692</ele>
        <time>2019-04-19T08:52:42Z</time>
      </trkpt>
      <trkpt lat="45.69613" lon="6.72676">
        <ele>1690</ele>
        <time>2019-04-19T08:53:42Z</time>
      </trkpt>
      <trkpt lat="45.69609" lon="6.72673">
        <ele>1689</ele>
        <time>2019-04-19T08:54:42Z</time>
      </trkpt>
      <trkpt lat="45.69605" lon="6.72667">
        <ele>1689</ele>
        <time>2019-04-19T08:55:42Z</time>
      </trkpt>
      <trkpt lat="45.69601" lon="6.7265">
        <ele>1690</ele>
        <time>2019-04-19T08:56:42Z</time>
      </trkpt>
      <trkpt lat="45.69597" lon="6.72616">
        <ele>1693</ele>
        <time>2019-04-19T08:57:42Z</time>
      </trkpt>
      <trkpt lat="45.69576" lon="6.72544">
        <ele>1697</ele>
        <time>2019-04-19T08:58:42Z</time>
      </trkpt>
      <trkpt lat="45.69562" lon="6.72505">
        <ele>1697</ele>
        <time>2019-04-19T08:59:42Z</time>
      </trkpt>
      <trkpt lat="45.69547" lon="6.72474">
        <ele>1695</ele>
        <time>2019-04-19T09:00:42Z</time>
      </trkpt>
      <trkpt lat="45.69525" lon="6.72438">
        <ele>1690</ele>
        <time>2019-04-19T09:01:42Z</time>
      </trkpt>
      <trkpt lat="45.69519" lon="6.72425">
        <ele>1690</ele>
        <time>2019-04-19T09:02:42Z</time>
      </trkpt>
      <trkpt lat="45.69516" lon="6.72413">
        <ele>1690</ele>
        <time>2019-04-19T09:03:42Z</time>
      </trkpt>
      <trkpt lat="45.69516" lon="6.72394">
        <ele>1691</ele>
        <time>2019-04-19T09:04:42Z</time>
      </trkpt>
      <trkpt lat="45.69529" lon="6.72341">
        <ele>1700</ele>
        <time>2019-04-19T09:05:42Z</time>
      </trkpt>
      <trkpt lat="45.6953" lon="6.72327">
        <ele>1702</ele>
        <time>2019-04-19T09:06:42Z</time>
      </trkpt>
      <trkpt lat="45.69529" lon="6.72313">
        <ele>1702</ele>
        <time>2019-04-19T09:07:42Z</time>
      </trkpt>
      <trkpt lat="45.69518" lon="6.72248">
        <ele>1702</ele>
        <time>2019-04-19T09:08:42Z</time>
      </trkpt>
      <trkpt lat="45.69507" lon="6.72224">
        <ele>1704</ele>
        <time>2019-04-19T09:09:42Z</time>
      </trkpt>
      <trkpt lat="45.69494" lon="6.72207">
        <ele>1705</ele>
        <time>2019-04-19T09:10:42Z</time>
      </trkpt>
      <trkpt lat="45.69485" lon="6.72203">
        <ele>1706</ele>
        <time>2019-04-19T09:11:42Z</time>
      </trkpt>
      <trkpt lat="45.69476" lon="6.72202">
        <ele>1705</ele>
        <time>2019-04-19T09:12:42Z</time>
      </trkpt>
      <trkpt lat="45.69465" lon="6.72208">
        <ele>1703</ele>
        <time>2019-04-19T09:13:42Z</time>
      </trkpt>
      <trkpt lat="45.69457" lon="6.72215">
        <ele>1701</ele>
        <time>2019-04-19T09:14:42Z</time>
      </trkpt>
      <trkpt lat="45.69444" lon="6.72228">
        <ele>1697</ele>
        <time>2019-04-19T09:15:42Z</time>
      </trkpt>
      <trkpt lat="45.69426" lon="6.72257">
        <ele>1689</ele>
        <time>2019-04-19T09:16:42Z</time>
      </trkpt>
      <trkpt lat="45.6941" lon="6.72301">
        <ele>1683</ele>
        <time>2019-04-19T09:17:42Z</time>
      </trkpt>
      <trkpt lat="45.69395" lon="6.7233">
        <ele>1682</ele>
        <time>2019-04-19T09:18:42Z</time>
      </trkpt>
      <trkpt lat="45.6939" lon="6.72352">
        <ele>1682</ele>
        <time>2019-04-19T09:19:42Z</time>
      </trkpt>
      <trkpt lat="45.69388" lon="6.72385">
        <ele>1681</ele>
        <time>2019-04-19T09:20:42Z</time>
      </trkpt>
      <trkpt lat="45.6939" lon="6.72418">
        <ele>1678</ele>
        <time>2019-04-19T09:21:42Z</time>
      </trkpt>
      <trkpt lat="45.69396" lon="6.72461">
        <ele>1671</ele>
        <time>2019-04-19T09:22:42Z</time>
      </trkpt>
      <trkpt lat="45.69405" lon="6.72591">
        <ele>1660</ele>
        <time>2019-04-19T09:23:42Z</time>
      </trkpt>
      <trkpt lat="45.69403" lon="6.72633">
        <ele>1657</ele>
        <time>2019-04-19T09:24:42Z</time>
      </trkpt>
      <trkpt lat="45.694" lon="6.72667">
        <ele>1655</ele>
        <time>2019-04-19T09:25:42Z</time>
      </trkpt>
      <trkpt lat="45.69361" lon="6.72892">
        <ele>1636</ele>
        <time>2019-04-19T09:26:42Z</time>
      </trkpt>
      <trkpt lat="45.69353" lon="6.72971">
        <ele>1634</ele>
        <time>2019-04-19T09:27:42Z</time>
      </trkpt>
      <trkpt lat="45.69333" lon="6.73096">
        <ele>1626</ele>
        <time>2019-04-19T09:28:42Z</time>
      </trkpt>
      <trkpt lat="45.69332" lon="6.73121">
        <ele>1623</ele>
        <time>2019-04-19T09:29:42Z</time>
      </trkpt>
      <trkpt lat="45.69335" lon="6.73162">
        <ele>1616</ele>
        <time>2019-04-19T09:30:42Z</time>
      </trkpt>
      <trkpt lat="45.69335" lon="6.73182">
        <ele>1611</ele>
        <time>2019-04-19T09:31:42Z</time>
      </trkpt>
      <trkpt lat="45.6933" lon="6.73198">
        <ele>1609</ele>
        <time>2019-04-19T09:32:42Z</time>
      </trkpt>
      <trkpt lat="45.69283" lon="6.73231">
        <ele>1611</ele>
        <time>2019-04-19T09:33:42Z</time>
      </trkpt>
      <trkpt lat="45.69174" lon="6.73256">
        <ele>1606</ele>
        <time>2019-04-19T09:34:42Z</time>
      </trkpt>
      <trkpt lat="45.69067" lon="6.73266">
        <ele>1599</ele>
        <time>2019-04-19T09:35:42Z</time>
      </trkpt>
      <trkpt lat="45.69009" lon="6.73287">
        <ele>1589</ele>
        <time>2019-04-19T09:36:42Z</time>
      </trkpt>
      <trkpt lat="45.68907" lon="6.73308">
        <ele>1584</ele>
        <time>2019-04-19T09:37:42Z</time>
      </trkpt>
      <trkpt lat="45.68887" lon="6.7331">
        <ele>1580</ele>
        <time>2019-04-19T09:38:42Z</time>
      </trkpt>
      <trkpt lat="45.68854" lon="6.73295">
        <ele>1580</ele>
        <time>2019-04-19T09:39:42Z</time>
      </trkpt>
      <trkpt lat="45.68797" lon="6.73277">
        <ele>1580</ele>
        <time>2019-04-19T09:40:42Z</time>
      </trkpt>
      <trkpt lat="45.68743" lon="6.73289">
        <ele>1572</ele>
        <time>2019-04-19T09:41:42Z</time>
      </trkpt>
      <trkpt lat="45.68651" lon="6.73315">
        <ele>1568</ele>
        <time>2019-04-19T09:42:42Z</time>
      </trkpt>
      <trkpt lat="45.68615" lon="6.7334">
        <ele>1565</ele>
        <time>2019-04-19T09:43:42Z</time>
      </trkpt>
      <trkpt lat="45.68596" lon="6.73367">
        <ele>1561</ele>
        <time>2019-04-19T09:44:42Z</time>
      </trkpt>
      <trkpt lat="45.68584" lon="6.73409">
        <ele>1554</ele>
        <time>2019-04-19T09:45:42Z</time>
      </trkpt>
      <trkpt lat="45.68585" lon="6.73489">
        <ele>1548</ele>
        <time>2019-04-19T09:46:42Z</time>
      </trkpt>
      <trkpt lat="45.68581" lon="6.73523">
        <ele>1548</ele>
        <time>2019-04-19T09:47:42Z</time>
      </trkpt>
      <trkpt lat="45.68558" lon="6.73594">
        <ele>1548</ele>
        <time>2019-04-19T09:48:42Z</time>
      </trkpt>
      <trkpt lat="45.68516" lon="6.73675">
        <ele>1542</ele>
        <time>2019-04-19T09:49:42Z</time>
      </trkpt>
      <trkpt lat="45.6849" lon="6.73699">
        <ele>1542</ele>
        <time>2019-04-19T09:50:42Z</time>
      </trkpt>
      <trkpt lat="45.68468" lon="6.73714">
        <ele>1541</ele>
        <time>2019-04-19T09:51:42Z</time>
      </trkpt>
      <trkpt lat="45.68447" lon="6.73724">
        <ele>1540</ele>
        <time>2019-04-19T09:52:42Z</time>
      </trkpt>
      <trkpt lat="45.68343" lon="6.73755">
        <ele>1539</ele>
        <time>2019-04-19T09:53:42Z</time>
      </trkpt>
      <trkpt lat="45.68325" lon="6.73765">
        <ele>1540</ele>
        <time>2019-04-19T09:54:42Z</time>
      </trkpt>
      <trkpt lat="45.68303" lon="6.73781">
        <ele>1542</ele>
        <time>2019-04-19T09:55:42Z</time>
      </trkpt>
      <trkpt lat="45.68274" lon="6.73822">
        <ele>1542</ele>
        <time>2019-04-19T09:56:42Z</time>
      </trkpt>
      <trkpt lat="45.68207" lon="6.73942">
        <ele>1535</ele>
        <time>2019-04-19T09:57:42Z</time>
      </trkpt>
      <trkpt lat="45.68192" lon="6.73954">
        <ele>1535</ele>
        <time>2019-04-19T09:58:42Z</time>
      </trkpt>
      <trkpt lat="45.68123" lon="6.73993">
        <ele>1535</ele>
        <time>2019-04-19T09:59:42Z</time>
      </trkpt>
      <trkpt lat="45.68037" lon="6.7408">
        <ele>1527</ele>
        <time>2019-04-19T10:00:42Z</time>
      </trkpt>
      <trkpt lat="45.67861" lon="6.74285">
        <ele>1517</ele>
        <time>2019-04-19T10:01:42Z</time>
      </trkpt>
      <trkpt lat="45.67811" lon="6.74372">
        <ele>1508</ele>
        <time>2019-04-19T10:02:42Z</time>
      </trkpt>
      <trkpt lat="45.67748" lon="6.74545">
        <ele>1496</ele>
        <time>2019-04-19T10:03:42Z</time>
      </trkpt>
      <trkpt lat="45.6772" lon="6.74612">
        <ele>1503</ele>
        <time>2019-04-19T10:04:42Z</time>
      </trkpt>
      <trkpt lat="45.67695" lon="6.74648">
        <ele>1503</ele>
        <time>2019-04-19T10:05:42Z</time>
      </trkpt>
      <trkpt lat="45.67676" lon="6.7467">
        <ele>1500</ele>
        <time>2019-04-19T10:06:42Z</time>
      </trkpt>
      <trkpt lat="45.67629" lon="6.74703">
        <ele>1498</ele>
        <time>2019-04-19T10:07:42Z</time>
      </trkpt>
      <trkpt lat="45.67616" lon="6.74725">
        <ele>1496</ele>
        <time>2019-04-19T10:08:42Z</time>
      </trkpt>
      <trkpt lat="45.67601" lon="6.74778">
        <ele>1495</ele>
        <time>2019-04-19T10:09:42Z</time>
      </trkpt>
      <trkpt lat="45.67583" lon="6.7481">
        <ele>1492</ele>
        <time>2019-04-19T10:10:42Z</time>
      </trkpt>
      <trkpt lat="45.67566" lon="6.74852">
        <ele>1494</ele>
        <time>2019-04-19T10:11:42Z</time>
      </trkpt>
      <trkpt lat="45.67561" lon="6.74928">
        <ele>1495</ele>
        <time>2019-04-19T10:12:42Z</time>
      </trkpt>
      <trkpt lat="45.67553" lon="6.74958">
        <ele>1495</ele>
        <time>2019-04-19T10:13:42Z</time>
      </trkpt>
      <trkpt lat="45.67545" lon="6.74983">
        <ele>1495</ele>
        <time>2019-04-19T10:14:42Z</time>
      </trkpt>
      <trkpt lat="45.67533" lon="6.75008">
        <ele>1493</ele>
        <time>2019-04-19T10:15:42Z</time>
      </trkpt>
      <trkpt lat="45.67479" lon="6.75074">
        <ele>1484</ele>
        <time>2019-04-19T10:16:42Z</time>
      </trkpt>
      <trkpt lat="45.67438" lon="6.75129">
        <ele>1482</ele>
        <time>2019-04-19T10:17:42Z</time>
      </trkpt>
      <trkpt lat="45.67423" lon="6.75155">
        <ele>1480</ele>
        <time>2019-04-19T10:18:42Z</time>
      </trkpt>
      <trkpt lat="45.67416" lon="6.75184">
        <ele>1479</ele>
        <time>2019-04-19T10:19:42Z</time>
      </trkpt>
      <trkpt lat="45.67412" lon="6.75213">
        <ele>1478</ele>
        <time>2019-04-19T10:20:42Z</time>
      </trkpt>
      <trkpt lat="45.6741" lon="6.75251">
        <ele>1477</ele>
        <time>2019-04-19T10:21:42Z</time>
      </trkpt>
      <trkpt lat="45.67415" lon="6.75323">
        <ele>1480</ele>
        <time>2019-04-19T10:22:42Z</time>
      </trkpt>
      <trkpt lat="45.67415" lon="6.75353">
        <ele>1483</ele>
        <time>2019-04-19T10:23:42Z</time>
      </trkpt>
      <trkpt lat="45.67413" lon="6.75371">
        <ele>1486</ele>
        <time>2019-04-19T10:24:42Z</time>
      </trkpt>
      <trkpt lat="45.674" lon="6.75415">
        <ele>1487</ele>
        <time>2019-04-19T10:25:42Z</time>
      </trkpt>
      <trkpt lat="45.67384" lon="6.75453">
        <ele>1486</ele>
        <time>2019-04-19T10:26:42Z</time>
      </trkpt>
      <trkpt lat="45.6737" lon="6.75476">
        <ele>1484</ele>
        <time>2019-04-19T10:27:42Z</time>
      </trkpt>
      <trkpt lat="45.67351" lon="6.75498">
        <ele>1479</ele>
        <time>2019-04-19T10:28:42Z</time>
      </trkpt>
      <trkpt lat="45.67332" lon="6.75524">
        <ele>1476</ele>
        <time>2019-04-19T10:29:42Z</time>
      </trkpt>
      <trkpt lat="45.67312" lon="6.75574">
        <ele>1480</ele>
        <time>2019-04-19T10:30:42Z</time>
      </trkpt>
      <trkpt lat="45.67294" lon="6.75629">
        <ele>1485</ele>
        <time>2019-04-19T10:31:42Z</time>
      </trkpt>
      <trkpt lat="45.67282" lon="6.75652">
        <ele>1486</ele>
        <time>2019-04-19T10:32:42Z</time>
      </trkpt>
      <trkpt lat="45.6724" lon="6.7571">
        <ele>1484</ele>
        <time>2019-04-19T10:33:42Z</time>
      </trkpt>
      <trkpt lat="45.67212" lon="6.75735">
        <ele>1482</ele>
        <time>2019-04-19T10:34:42Z</time>
      </trkpt>
      <trkpt lat="45.67176" lon="6.75752">
        <ele>1476</ele>
        <time>2019-04-19T10:35:42Z</time>
      </trkpt>
      <trkpt lat="45.67165" lon="6.75754">
        <ele>1474</ele>
        <time>2019-04-19T10:36:42Z</time>
      </trkpt>
      <trkpt lat="45.67146" lon="6.75748">
        <ele>1471</ele>
        <time>2019-04-19T10:37:42Z</time>
      </trkpt>
      <trkpt lat="45.67133" lon="6.75747">
        <ele>1469</ele>
        <time>2019-04-19T10:38:42Z</time>
      </trkpt>
      <trkpt lat="45.67125" lon="6.75748">
        <ele>1468</ele>
        <time>2019-04-19T10:39:42Z</time>
      </trkpt>
      <trkpt lat="45.67117" lon="6.75754">
        <ele>1467</ele>
        <time>2019-04-19T10:40:42Z</time>
      </trkpt>
      <trkpt lat="45.6711" lon="6.75762">
        <ele>1467</ele>
        <time>2019-04-19T10:41:42Z</time>
      </trkpt>
      <trkpt lat="45.67102" lon="6.75774">
        <ele>1467</ele>
        <time>2019-04-19T10:42:42Z</time>
      </trkpt>
      <trkpt lat="45.67067" lon="6.75848">
        <ele>1464</ele>
        <time>2019-04-19T10:43:42Z</time>
      </trkpt>
      <trkpt lat="45.67053" lon="6.75875">
        <ele>1458</ele>
        <time>2019-04-19T10:44:42Z</time>
      </trkpt>
      <trkpt lat="45.67046" lon="6.75894">
        <ele>1455</ele>
        <time>2019-04-19T10:45:42Z</time>
      </trkpt>
      <trkpt lat="45.67044" lon="6.75903">
        <ele>1453</ele>
        <time>2019-04-19T10:46:42Z</time>
      </trkpt>
      <trkpt lat="45.67045" lon="6.75912">
        <ele>1453</ele>
        <time>2019-04-19T10:47:42Z</time>
      </trkpt>
      <trkpt lat="45.67048" lon="6.7592">
        <ele>1454</ele>
        <time>2019-04-19T10:48:42Z</time>
      </trkpt>
      <trkpt lat="45.67085" lon="6.75961">
        <ele>1464</ele>
        <time>2019-04-19T10:49:42Z</time>
      </trkpt>
      <trkpt lat="45.67099" lon="6.7598">
        <ele>1465</ele>
        <time>2019-04-19T10:50:42Z</time>
      </trkpt>
      <trkpt lat="45.67104" lon="6.75991">
        <ele>1465</ele>
        <time>2019-04-19T10:51:42Z</time>
      </trkpt>
      <trkpt lat="45.67106" lon="6.76005">
        <ele>1464</ele>
        <time>2019-04-19T10:52:42Z</time>
      </trkpt>
      <trkpt lat="45.67106" lon="6.76021">
        <ele>1461</ele>
        <time>2019-04-19T10:53:42Z</time>
      </trkpt>
      <trkpt lat="45.67108" lon="6.76038">
        <ele>1459</ele>
        <time>2019-04-19T10:54:42Z</time>
      </trkpt>
      <trkpt lat="45.67124" lon="6.76099">
        <ele>1459</ele>
        <time>2019-04-19T10:55:42Z</time>
      </trkpt>
      <trkpt lat="45.67126" lon="6.76124">
        <ele>1456</ele>
        <time>2019-04-19T10:56:42Z</time>
      </trkpt>
      <trkpt lat="45.67122" lon="6.76263">
        <ele>1441</ele>
        <time>2019-04-19T10:57:42Z</time>
      </trkpt>
      <trkpt lat="45.67119" lon="6.76289">
        <ele>1439</ele>
        <time>2019-04-19T10:58:42Z</time>
      </trkpt>
      <trkpt lat="45.67107" lon="6.7635">
        <ele>1430</ele>
        <time>2019-04-19T10:59:42Z</time>
      </trkpt>
      <trkpt lat="45.67107" lon="6.76364">
        <ele>1430</ele>
        <time>2019-04-19T11:00:42Z</time>
      </trkpt>
      <trkpt lat="45.67111" lon="6.76426">
        <ele>1433</ele>
        <time>2019-04-19T11:01:42Z</time>
      </trkpt>
      <trkpt lat="45.6712" lon="6.76475">
        <ele>1437</ele>
        <time>2019-04-19T11:02:42Z</time>
      </trkpt>
      <trkpt lat="45.67119" lon="6.76496">
        <ele>1436</ele>
        <time>2019-04-19T11:03:42Z</time>
      </trkpt>
      <trkpt lat="45.67112" lon="6.76524">
        <ele>1431</ele>
        <time>2019-04-19T11:04:42Z</time>
      </trkpt>
      <trkpt lat="45.67109" lon="6.76565">
        <ele>1429</ele>
        <time>2019-04-19T11:05:42Z</time>
      </trkpt>
      <trkpt lat="45.67107" lon="6.76618">
        <ele>1428</ele>
        <time>2019-04-19T11:06:42Z</time>
      </trkpt>
      <trkpt lat="45.67101" lon="6.76681">
        <ele>1425</ele>
        <time>2019-04-19T11:07:42Z</time>
      </trkpt>
      <trkpt lat="45.671" lon="6.76795">
        <ele>1422</ele>
        <time>2019-04-19T11:08:42Z</time>
      </trkpt>
      <trkpt lat="45.67088" lon="6.76867">
        <ele>1416</ele>
        <time>2019-04-19T11:09:42Z</time>
      </trkpt>
      <trkpt lat="45.67078" lon="6.76912">
        <ele>1414</ele>
        <time>2019-04-19T11:10:42Z</time>
      </trkpt>
      <trkpt lat="45.67063" lon="6.76949">
        <ele>1410</ele>
        <time>2019-04-19T11:11:42Z</time>
      </trkpt>
      <trkpt lat="45.67036" lon="6.76987">
        <ele>1399</ele>
        <time>2019-04-19T11:12:42Z</time>
      </trkpt>
      <trkpt lat="45.6702" lon="6.77018">
        <ele>1391</ele>
        <time>2019-04-19T11:13:42Z</time>
      </trkpt>
      <trkpt lat="45.67016" lon="6.77031">
        <ele>1388</ele>
        <time>2019-04-19T11:14:42Z</time>
      </trkpt>
      <trkpt lat="45.67015" lon="6.77042">
        <ele>1387</ele>
        <time>2019-04-19T11:15:42Z</time>
      </trkpt>
      <trkpt lat="45.67018" lon="6.77055">
        <ele>1388</ele>
        <time>2019-04-19T11:16:42Z</time>
      </trkpt>
      <trkpt lat="45.67034" lon="6.77077">
        <ele>1398</ele>
        <time>2019-04-19T11:17:42Z</time>
      </trkpt>
      <trkpt lat="45.67035" lon="6.77082">
        <ele>1398</ele>
        <time>2019-04-19T11:18:42Z</time>
      </trkpt>
      <trkpt lat="45.67035" lon="6.77093">
        <ele>1397</ele>
        <time>2019-04-19T11:19:42Z</time>
      </trkpt>
      <trkpt lat="45.67034" lon="6.771">
        <ele>1396</ele>
        <time>2019-04-19T11:20:42Z</time>
      </trkpt>
      <trkpt lat="45.67023" lon="6.77114">
        <ele>1389</ele>
        <time>2019-04-19T11:21:42Z</time>
      </trkpt>
      <trkpt lat="45.67018" lon="6.77127">
        <ele>1385</ele>
        <time>2019-04-19T11:22:42Z</time>
      </trkpt>
      <trkpt lat="45.67009" lon="6.77183">
        <ele>1377</ele>
        <time>2019-04-19T11:23:42Z</time>
      </trkpt>
      <trkpt lat="45.67008" lon="6.77215">
        <ele>1375</ele>
        <time>2019-04-19T11:24:42Z</time>
      </trkpt>
      <trkpt lat="45.6701" lon="6.77266">
        <ele>1375</ele>
        <time>2019-04-19T11:25:42Z</time>
      </trkpt>
      <trkpt lat="45.67008" lon="6.77283">
        <ele>1375</ele>
        <time>2019-04-19T11:26:42Z</time>
      </trkpt>
      <trkpt lat="45.67007" lon="6.77325">
        <ele>1375</ele>
        <time>2019-04-19T11:27:42Z</time>
      </trkpt>
      <trkpt lat="45.66999" lon="6.77366">
        <ele>1372</ele>
        <time>2019-04-19T11:28:42Z</time>
      </trkpt>
      <trkpt lat="45.66991" lon="6.77392">
        <ele>1369</ele>
        <time>2019-04-19T11:29:42Z</time>
      </trkpt>
      <trkpt lat="45.66984" lon="6.77421">
        <ele>1366</ele>
        <time>2019-04-19T11:30:42Z</time>
      </trkpt>
      <trkpt lat="45.66982" lon="6.77437">
        <ele>1366</ele>
        <time>2019-04-19T11:31:42Z</time>
      </trkpt>
      <trkpt lat="45.6698" lon="6.77442">
        <ele>1365</ele>
        <time>2019-04-19T11:32:42Z</time>
      </trkpt>
      <trkpt lat="45.66976" lon="6.77442">
        <ele>1362</ele>
        <time>2019-04-19T11:33:42Z</time>
      </trkpt>
      <trkpt lat="45.66973" lon="6.77439">
        <ele>1361</ele>
        <time>2019-04-19T11:34:42Z</time>
      </trkpt>
      <trkpt lat="45.66973" lon="6.77434">
        <ele>1361</ele>
        <time>2019-04-19T11:35:42Z</time>
      </trkpt>
      <trkpt lat="45.66977" lon="6.77402">
        <ele>1362</ele>
        <time>2019-04-19T11:36:42Z</time>
      </trkpt>
      <trkpt lat="45.66976" lon="6.77373">
        <ele>1361</ele>
        <time>2019-04-19T11:37:42Z</time>
      </trkpt>
      <trkpt lat="45.66963" lon="6.77246">
        <ele>1354</ele>
        <time>2019-04-19T11:38:42Z</time>
      </trkpt>
      <trkpt lat="45.66963" lon="6.77201">
        <ele>1353</ele>
        <time>2019-04-19T11:39:42Z</time>
      </trkpt>
      <trkpt lat="45.66968" lon="6.77173">
        <ele>1355</ele>
        <time>2019-04-19T11:40:42Z</time>
      </trkpt>
      <trkpt lat="45.66965" lon="6.77164">
        <ele>1353</ele>
        <time>2019-04-19T11:41:42Z</time>
      </trkpt>
      <trkpt lat="45.66959" lon="6.77166">
        <ele>1350</ele>
        <time>2019-04-19T11:42:42Z</time>
      </trkpt>
      <trkpt lat="45.66956" lon="6.77171">
        <ele>1348</ele>
        <time>2019-04-19T11:43:42Z</time>
      </trkpt>
      <trkpt lat="45.66951" lon="6.77193">
        <ele>1347</ele>
        <time>2019-04-19T11:44:42Z</time>
      </trkpt>
      <trkpt lat="45.66931" lon="6.77237">
        <ele>1340</ele>
        <time>2019-04-19T11:45:42Z</time>
      </trkpt>
      <trkpt lat="45.66927" lon="6.77257">
        <ele>1339</ele>
        <time>2019-04-19T11:46:42Z</time>
      </trkpt>
      <trkpt lat="45.66925" lon="6.77337">
        <ele>1335</ele>
        <time>2019-04-19T11:47:42Z</time>
      </trkpt>
      <trkpt lat="45.6693" lon="6.77399">
        <ele>1337</ele>
        <time>2019-04-19T11:48:42Z</time>
      </trkpt>
      <trkpt lat="45.66929" lon="6.77406">
        <ele>1337</ele>
        <time>2019-04-19T11:49:42Z</time>
      </trkpt>
      <trkpt lat="45.66926" lon="6.77413">
        <ele>1335</ele>
        <time>2019-04-19T11:50:42Z</time>
      </trkpt>
      <trkpt lat="45.66923" lon="6.77413">
        <ele>1333</ele>
        <time>2019-04-19T11:51:42Z</time>
      </trkpt>
      <trkpt lat="45.6692" lon="6.77408">
        <ele>1332</ele>
        <time>2019-04-19T11:52:42Z</time>
      </trkpt>
      <trkpt lat="45.66918" lon="6.77383">
        <ele>1331</ele>
        <time>2019-04-19T11:53:42Z</time>
      </trkpt>
      <trkpt lat="45.66899" lon="6.77312">
        <ele>1323</ele>
        <time>2019-04-19T11:54:42Z</time>
      </trkpt>
      <trkpt lat="45.66893" lon="6.77267">
        <ele>1322</ele>
        <time>2019-04-19T11:55:42Z</time>
      </trkpt>
      <trkpt lat="45.66889" lon="6.77187">
        <ele>1313</ele>
        <time>2019-04-19T11:56:42Z</time>
      </trkpt>
      <trkpt lat="45.66886" lon="6.77181">
        <ele>1311</ele>
        <time>2019-04-19T11:57:42Z</time>
      </trkpt>
      <trkpt lat="45.66882" lon="6.77184">
        <ele>1309</ele>
        <time>2019-04-19T11:58:42Z</time>
      </trkpt>
      <trkpt lat="45.66878" lon="6.77202">
        <ele>1310</ele>
        <time>2019-04-19T11:59:42Z</time>
      </trkpt>
      <trkpt lat="45.66864" lon="6.77302">
        <ele>1305</ele>
        <time>2019-04-19T12:00:42Z</time>
      </trkpt>
      <trkpt lat="45.66864" lon="6.77386">
        <ele>1301</ele>
        <time>2019-04-19T12:01:42Z</time>
      </trkpt>
      <trkpt lat="45.66861" lon="6.77427">
        <ele>1298</ele>
        <time>2019-04-19T12:02:42Z</time>
      </trkpt>
      <trkpt lat="45.66869" lon="6.77452">
        <ele>1303</ele>
        <time>2019-04-19T12:03:42Z</time>
      </trkpt>
      <trkpt lat="45.66875" lon="6.77465">
        <ele>1306</ele>
        <time>2019-04-19T12:04:42Z</time>
      </trkpt>
      <trkpt lat="45.66877" lon="6.77482">
        <ele>1308</ele>
        <time>2019-04-19T12:05:42Z</time>
      </trkpt>
      <trkpt lat="45.66862" lon="6.77534">
        <ele>1305</ele>
        <time>2019-04-19T12:06:42Z</time>
      </trkpt>
      <trkpt lat="45.66856" lon="6.77542">
        <ele>1303</ele>
        <time>2019-04-19T12:07:42Z</time>
      </trkpt>
      <trkpt lat="45.66853" lon="6.77541">
        <ele>1301</ele>
        <time>2019-04-19T12:08:42Z</time>
      </trkpt>
      <trkpt lat="45.66851" lon="6.77536">
        <ele>1299</ele>
        <time>2019-04-19T12:09:42Z</time>
      </trkpt>
      <trkpt lat="45.66851" lon="6.77528">
        <ele>1297</ele>
        <time>2019-04-19T12:10:42Z</time>
      </trkpt>
      <trkpt lat="45.6686" lon="6.7749">
        <ele>1298</ele>
        <time>2019-04-19T12:11:42Z</time>
      </trkpt>
      <trkpt lat="45.66859" lon="6.77473">
        <ele>1297</ele>
        <time>2019-04-19T12:12:42Z</time>
      </trkpt>
      <trkpt lat="45.66853" lon="6.77459">
        <ele>1294</ele>
        <time>2019-04-19T12:13:42Z</time>
      </trkpt>
      <trkpt lat="45.66842" lon="6.77446">
        <ele>1287</ele>
        <time>2019-04-19T12:14:42Z</time>
      </trkpt>
      <trkpt lat="45.66828" lon="6.77421">
        <ele>1279</ele>
        <time>2019-04-19T12:15:42Z</time>
      </trkpt>
      <trkpt lat="45.66825" lon="6.77406">
        <ele>1278</ele>
        <time>2019-04-19T12:16:42Z</time>
      </trkpt>
      <trkpt lat="45.66821" lon="6.77359">
        <ele>1279</ele>
        <time>2019-04-19T12:17:42Z</time>
      </trkpt>
      <trkpt lat="45.66817" lon="6.77342">
        <ele>1277</ele>
        <time>2019-04-19T12:18:42Z</time>
      </trkpt>
      <trkpt lat="45.66802" lon="6.77298">
        <ele>1273</ele>
        <time>2019-04-19T12:19:42Z</time>
      </trkpt>
      <trkpt lat="45.66798" lon="6.77281">
        <ele>1272</ele>
        <time>2019-04-19T12:20:42Z</time>
      </trkpt>
      <trkpt lat="45.66798" lon="6.77256">
        <ele>1274</ele>
        <time>2019-04-19T12:21:42Z</time>
      </trkpt>
      <trkpt lat="45.66808" lon="6.77227">
        <ele>1277</ele>
        <time>2019-04-19T12:22:42Z</time>
      </trkpt>
      <trkpt lat="45.66812" lon="6.77212">
        <ele>1277</ele>
        <time>2019-04-19T12:23:42Z</time>
      </trkpt>
      <trkpt lat="45.66813" lon="6.7718">
        <ele>1273</ele>
        <time>2019-04-19T12:24:42Z</time>
      </trkpt>
      <trkpt lat="45.6681" lon="6.77168">
        <ele>1270</ele>
        <time>2019-04-19T12:25:42Z</time>
      </trkpt>
      <trkpt lat="45.66807" lon="6.77168">
        <ele>1269</ele>
        <time>2019-04-19T12:26:42Z</time>
      </trkpt>
      <trkpt lat="45.66804" lon="6.7717">
        <ele>1267</ele>
        <time>2019-04-19T12:27:42Z</time>
      </trkpt>
      <trkpt lat="45.66799" lon="6.7721">
        <ele>1270</ele>
        <time>2019-04-19T12:28:42Z</time>
      </trkpt>
      <trkpt lat="45.66796" lon="6.77218">
        <ele>1269</ele>
        <time>2019-04-19T12:29:42Z</time>
      </trkpt>
      <trkpt lat="45.66767" lon="6.77233">
        <ele>1256</ele>
        <time>2019-04-19T12:30:42Z</time>
      </trkpt>
      <trkpt lat="45.66761" lon="6.77239">
        <ele>1254</ele>
        <time>2019-04-19T12:31:42Z</time>
      </trkpt>
      <trkpt lat="45.6676" lon="6.77246">
        <ele>1254</ele>
        <time>2019-04-19T12:32:42Z</time>
      </trkpt>
      <trkpt lat="45.6676" lon="6.77259">
        <ele>1254</ele>
        <time>2019-04-19T12:33:42Z</time>
      </trkpt>
      <trkpt lat="45.66762" lon="6.77275">
        <ele>1254</ele>
        <time>2019-04-19T12:34:42Z</time>
      </trkpt>
      <trkpt lat="45.66761" lon="6.77325">
        <ele>1251</ele>
        <time>2019-04-19T12:35:42Z</time>
      </trkpt>
      <trkpt lat="45.66764" lon="6.77371">
        <ele>1249</ele>
        <time>2019-04-19T12:36:42Z</time>
      </trkpt>
      <trkpt lat="45.66775" lon="6.77436">
        <ele>1251</ele>
        <time>2019-04-19T12:37:42Z</time>
      </trkpt>
      <trkpt lat="45.66786" lon="6.77473">
        <ele>1258</ele>
        <time>2019-04-19T12:38:42Z</time>
      </trkpt>
      <trkpt lat="45.66786" lon="6.77484">
        <ele>1258</ele>
        <time>2019-04-19T12:39:42Z</time>
      </trkpt>
      <trkpt lat="45.66783" lon="6.77485">
        <ele>1256</ele>
        <time>2019-04-19T12:40:42Z</time>
      </trkpt>
      <trkpt lat="45.6678" lon="6.77486">
        <ele>1255</ele>
        <time>2019-04-19T12:41:42Z</time>
      </trkpt>
      <trkpt lat="45.66778" lon="6.77484">
        <ele>1254</ele>
        <time>2019-04-19T12:42:42Z</time>
      </trkpt>
      <trkpt lat="45.66768" lon="6.77439">
        <ele>1248</ele>
        <time>2019-04-19T12:43:42Z</time>
      </trkpt>
      <trkpt lat="45.66762" lon="6.77423">
        <ele>1244</ele>
        <time>2019-04-19T12:44:42Z</time>
      </trkpt>
      <trkpt lat="45.66756" lon="6.77412">
        <ele>1242</ele>
        <time>2019-04-19T12:45:42Z</time>
      </trkpt>
      <trkpt lat="45.6674" lon="6.77387">
        <ele>1237</ele>
        <time>2019-04-19T12:46:42Z</time>
      </trkpt>
      <trkpt lat="45.66735" lon="6.77376">
        <ele>1236</ele>
        <time>2019-04-19T12:47:42Z</time>
      </trkpt>
      <trkpt lat="45.66732" lon="6.77364">
        <ele>1235</ele>
        <time>2019-04-19T12:48:42Z</time>
      </trkpt>
      <trkpt lat="45.66733" lon="6.77318">
        <ele>1238</ele>
        <time>2019-04-19T12:49:42Z</time>
      </trkpt>
      <trkpt lat="45.66729" lon="6.77301">
        <ele>1237</ele>
        <time>2019-04-19T12:50:42Z</time>
      </trkpt>
      <trkpt lat="45.66715" lon="6.77277">
        <ele>1232</ele>
        <time>2019-04-19T12:51:42Z</time>
      </trkpt>
      <trkpt lat="45.66712" lon="6.77255">
        <ele>1232</ele>
        <time>2019-04-19T12:52:42Z</time>
      </trkpt>
      <trkpt lat="45.66714" lon="6.77219">
        <ele>1233</ele>
        <time>2019-04-19T12:53:42Z</time>
      </trkpt>
      <trkpt lat="45.66712" lon="6.77215">
        <ele>1232</ele>
        <time>2019-04-19T12:54:42Z</time>
      </trkpt>
      <trkpt lat="45.66707" lon="6.77214">
        <ele>1230</ele>
        <time>2019-04-19T12:55:42Z</time>
      </trkpt>
      <trkpt lat="45.66705" lon="6.77217">
        <ele>1229</ele>
        <time>2019-04-19T12:56:42Z</time>
      </trkpt>
      <trkpt lat="45.66702" lon="6.77244">
        <ele>1228</ele>
        <time>2019-04-19T12:57:42Z</time>
      </trkpt>
      <trkpt lat="45.66682" lon="6.77314">
        <ele>1216</ele>
        <time>2019-04-19T12:58:42Z</time>
      </trkpt>
      <trkpt lat="45.66681" lon="6.77334">
        <ele>1215</ele>
        <time>2019-04-19T12:59:42Z</time>
      </trkpt>
      <trkpt lat="45.66684" lon="6.77367">
        <ele>1216</ele>
        <time>2019-04-19T13:00:42Z</time>
      </trkpt>
      <trkpt lat="45.66696" lon="6.77391">
        <ele>1220</ele>
        <time>2019-04-19T13:01:42Z</time>
      </trkpt>
      <trkpt lat="45.66701" lon="6.77404">
        <ele>1221</ele>
        <time>2019-04-19T13:02:42Z</time>
      </trkpt>
      <trkpt lat="45.66705" lon="6.77422">
        <ele>1222</ele>
        <time>2019-04-19T13:03:42Z</time>
      </trkpt>
      <trkpt lat="45.66704" lon="6.77453">
        <ele>1223</ele>
        <time>2019-04-19T13:04:42Z</time>
      </trkpt>
      <trkpt lat="45.66694" lon="6.77486">
        <ele>1220</ele>
        <time>2019-04-19T13:05:42Z</time>
      </trkpt>
      <trkpt lat="45.66682" lon="6.77511">
        <ele>1217</ele>
        <time>2019-04-19T13:06:42Z</time>
      </trkpt>
      <trkpt lat="45.66671" lon="6.77542">
        <ele>1214</ele>
        <time>2019-04-19T13:07:42Z</time>
      </trkpt>
      <trkpt lat="45.66656" lon="6.77598">
        <ele>1212</ele>
        <time>2019-04-19T13:08:42Z</time>
      </trkpt>
      <trkpt lat="45.66653" lon="6.77603">
        <ele>1212</ele>
        <time>2019-04-19T13:09:42Z</time>
      </trkpt>
      <trkpt lat="45.66647" lon="6.77602">
        <ele>1210</ele>
        <time>2019-04-19T13:10:42Z</time>
      </trkpt>
      <trkpt lat="45.66645" lon="6.77597">
        <ele>1208</ele>
        <time>2019-04-19T13:11:42Z</time>
      </trkpt>
      <trkpt lat="45.66642" lon="6.77564">
        <ele>1205</ele>
        <time>2019-04-19T13:12:42Z</time>
      </trkpt>
      <trkpt lat="45.66633" lon="6.77547">
        <ele>1201</ele>
        <time>2019-04-19T13:13:42Z</time>
      </trkpt>
      <trkpt lat="45.66616" lon="6.77524">
        <ele>1194</ele>
        <time>2019-04-19T13:14:42Z</time>
      </trkpt>
      <trkpt lat="45.66612" lon="6.77514">
        <ele>1192</ele>
        <time>2019-04-19T13:15:42Z</time>
      </trkpt>
      <trkpt lat="45.66611" lon="6.77508">
        <ele>1191</ele>
        <time>2019-04-19T13:16:42Z</time>
      </trkpt>
      <trkpt lat="45.66611" lon="6.77496">
        <ele>1191</ele>
        <time>2019-04-19T13:17:42Z</time>
      </trkpt>
      <trkpt lat="45.66621" lon="6.77459">
        <ele>1195</ele>
        <time>2019-04-19T13:18:42Z</time>
      </trkpt>
      <trkpt lat="45.66621" lon="6.77449">
        <ele>1195</ele>
        <time>2019-04-19T13:19:42Z</time>
      </trkpt>
      <trkpt lat="45.66619" lon="6.77443">
        <ele>1194</ele>
        <time>2019-04-19T13:20:42Z</time>
      </trkpt>
      <trkpt lat="45.66613" lon="6.77439">
        <ele>1193</ele>
        <time>2019-04-19T13:21:42Z</time>
      </trkpt>
      <trkpt lat="45.66609" lon="6.77441">
        <ele>1191</ele>
        <time>2019-04-19T13:22:42Z</time>
      </trkpt>
      <trkpt lat="45.66601" lon="6.77447">
        <ele>1189</ele>
        <time>2019-04-19T13:23:42Z</time>
      </trkpt>
      <trkpt lat="45.6659" lon="6.77462">
        <ele>1185</ele>
        <time>2019-04-19T13:24:42Z</time>
      </trkpt>
      <trkpt lat="45.66543" lon="6.77553">
        <ele>1177</ele>
        <time>2019-04-19T13:25:42Z</time>
      </trkpt>
      <trkpt lat="45.66532" lon="6.77581">
        <ele>1174</ele>
        <time>2019-04-19T13:26:42Z</time>
      </trkpt>
      <trkpt lat="45.66504" lon="6.7768">
        <ele>1177</ele>
        <time>2019-04-19T13:27:42Z</time>
      </trkpt>
      <trkpt lat="45.66494" lon="6.77702">
        <ele>1177</ele>
        <time>2019-04-19T13:28:42Z</time>
      </trkpt>
      <trkpt lat="45.66476" lon="6.77729">
        <ele>1175</ele>
        <time>2019-04-19T13:29:42Z</time>
      </trkpt>
      <trkpt lat="45.66459" lon="6.77743">
        <ele>1171</ele>
        <time>2019-04-19T13:30:42Z</time>
      </trkpt>
      <trkpt lat="45.66433" lon="6.77768">
        <ele>1167</ele>
        <time>2019-04-19T13:31:42Z</time>
      </trkpt>
      <trkpt lat="45.66394" lon="6.77798">
        <ele>1167</ele>
        <time>2019-04-19T13:32:42Z</time>
      </trkpt>
      <trkpt lat="45.66372" lon="6.7782">
        <ele>1166</ele>
        <time>2019-04-19T13:33:42Z</time>
      </trkpt>
      <trkpt lat="45.66343" lon="6.77858">
        <ele>1166</ele>
        <time>2019-04-19T13:34:42Z</time>
      </trkpt>
      <trkpt lat="45.66321" lon="6.77904">
        <ele>1167</ele>
        <time>2019-04-19T13:35:42Z</time>
      </trkpt>
      <trkpt lat="45.66311" lon="6.77914">
        <ele>1166</ele>
        <time>2019-04-19T13:36:42Z</time>
      </trkpt>
      <trkpt lat="45.66298" lon="6.77922">
        <ele>1164</ele>
        <time>2019-04-19T13:37:42Z</time>
      </trkpt>
      <trkpt lat="45.66287" lon="6.77924">
        <ele>1162</ele>
        <time>2019-04-19T13:38:42Z</time>
      </trkpt>
      <trkpt lat="45.66259" lon="6.77921">
        <ele>1154</ele>
        <time>2019-04-19T13:39:42Z</time>
      </trkpt>
      <trkpt lat="45.66244" lon="6.77927">
        <ele>1153</ele>
        <time>2019-04-19T13:40:42Z</time>
      </trkpt>
      <trkpt lat="45.66235" lon="6.7794">
        <ele>1155</ele>
        <time>2019-04-19T13:41:42Z</time>
      </trkpt>
      <trkpt lat="45.66204" lon="6.77989">
        <ele>1153</ele>
        <time>2019-04-19T13:42:42Z</time>
      </trkpt>
      <trkpt lat="45.66191" lon="6.78002">
        <ele>1150</ele>
        <time>2019-04-19T13:43:42Z</time>
      </trkpt>
      <trkpt lat="45.66156" lon="6.7803">
        <ele>1149</ele>
        <time>2019-04-19T13:44:42Z</time>
      </trkpt>
      <trkpt lat="45.66119" lon="6.78054">
        <ele>1147</ele>
        <time>2019-04-19T13:45:42Z</time>
      </trkpt>
      <trkpt lat="45.66103" lon="6.78068">
        <ele>1144</ele>
        <time>2019-04-19T13:46:42Z</time>
      </trkpt>
      <trkpt lat="45.66069" lon="6.78116">
        <ele>1143</ele>
        <time>2019-04-19T13:47:42Z</time>
      </trkpt>
      <trkpt lat="45.6605" lon="6.78148">
        <ele>1144</ele>
        <time>2019-04-19T13:48:42Z</time>
      </trkpt>
      <trkpt lat="45.66038" lon="6.78163">
        <ele>1142</ele>
        <time>2019-04-19T13:49:42Z</time>
      </trkpt>
      <trkpt lat="45.66022" lon="6.78172">
        <ele>1139</ele>
        <time>2019-04-19T13:50:42Z</time>
      </trkpt>
      <trkpt lat="45.66007" lon="6.78171">
        <ele>1135</ele>
        <time>2019-04-19T13:51:42Z</time>
      </trkpt>
      <trkpt lat="45.65987" lon="6.78165">
        <ele>1130</ele>
        <time>2019-04-19T13:52:42Z</time>
      </trkpt>
      <trkpt lat="45.65969" lon="6.78167">
        <ele>1127</ele>
        <time>2019-04-19T13:53:42Z</time>
      </trkpt>
      <trkpt lat="45.65932" lon="6.7818">
        <ele>1124</ele>
        <time>2019-04-19T13:54:42Z</time>
      </trkpt>
      <trkpt lat="45.65879" lon="6.78254">
        <ele>1120</ele>
        <time>2019-04-19T13:55:42Z</time>
      </trkpt>
      <trkpt lat="45.65864" lon="6.78267">
        <ele>1120</ele>
        <time>2019-04-19T13:56:42Z</time>
      </trkpt>
      <trkpt lat="45.65843" lon="6.78279">
        <ele>1117</ele>
        <time>2019-04-19T13:57:42Z</time>
      </trkpt>
      <trkpt lat="45.65777" lon="6.78302">
        <ele>1109</ele>
        <time>2019-04-19T13:58:42Z</time>
      </trkpt>
      <trkpt lat="45.65752" lon="6.78314">
        <ele>1103</ele>
        <time>2019-04-19T13:59:42Z</time>
      </trkpt>
      <trkpt lat="45.65645" lon="6.7839">
        <ele>1099</ele>
        <time>2019-04-19T14:00:42Z</time>
      </trkpt>
      <trkpt lat="45.65566" lon="6.78484">
        <ele>1090</ele>
        <time>2019-04-19T14:01:42Z</time>
      </trkpt>
      <trkpt lat="45.65509" lon="6.78541">
        <ele>1083</ele>
        <time>2019-04-19T14:02:42Z</time>
      </trkpt>
      <trkpt lat="45.6545" lon="6.78605">
        <ele>1078</ele>
        <time>2019-04-19T14:03:42Z</time>
      </trkpt>
      <trkpt lat="45.65388" lon="6.7866">
        <ele>1070</ele>
        <time>2019-04-19T14:04:42Z</time>
      </trkpt>
      <trkpt lat="45.65357" lon="6.78683">
        <ele>1068</ele>
        <time>2019-04-19T14:05:42Z</time>
      </trkpt>
      <trkpt lat="45.65336" lon="6.78695">
        <ele>1066</ele>
        <time>2019-04-19T14:06:42Z</time>
      </trkpt>
      <trkpt lat="45.65277" lon="6.78693">
        <ele>1061</ele>
        <time>2019-04-19T14:07:42Z</time>
      </trkpt>
      <trkpt lat="45.65257" lon="6.78696">
        <ele>1059</ele>
        <time>2019-04-19T14:08:42Z</time>
      </trkpt>
      <trkpt lat="45.65176" lon="6.7874">
        <ele>1055</ele>
        <time>2019-04-19T14:09:42Z</time>
      </trkpt>
      <trkpt lat="45.65151" lon="6.78758">
        <ele>1050</ele>
        <time>2019-04-19T14:10:42Z</time>
      </trkpt>
      <trkpt lat="45.65132" lon="6.7877">
        <ele>1049</ele>
        <time>2019-04-19T14:11:42Z</time>
      </trkpt>
      <trkpt lat="45.65111" lon="6.78774">
        <ele>1045</ele>
        <time>2019-04-19T14:12:42Z</time>
      </trkpt>
      <trkpt lat="45.65027" lon="6.78781">
        <ele>1033</ele>
        <time>2019-04-19T14:13:42Z</time>
      </trkpt>
      <trkpt lat="45.64998" lon="6.78781">
        <ele>1030</ele>
        <time>2019-04-19T14:14:42Z</time>
      </trkpt>
      <trkpt lat="45.64982" lon="6.78776">
        <ele>1028</ele>
        <time>2019-04-19T14:15:42Z</time>
      </trkpt>
      <trkpt lat="45.6497" lon="6.7877">
        <ele>1025</ele>
        <time>2019-04-19T14:16:42Z</time>
      </trkpt>
      <trkpt lat="45.64939" lon="6.78748">
        <ele>1015</ele>
        <time>2019-04-19T14:17:42Z</time>
      </trkpt>
      <trkpt lat="45.64839" lon="6.78666">
        <ele>1012</ele>
        <time>2019-04-19T14:18:42Z</time>
      </trkpt>
      <trkpt lat="45.6478" lon="6.78632">
        <ele>1014</ele>
        <time>2019-04-19T14:19:42Z</time>
      </trkpt>
      <trkpt lat="45.64752" lon="6.78619">
        <ele>1015</ele>
        <time>2019-04-19T14:20:42Z</time>
      </trkpt>
      <trkpt lat="45.64722" lon="6.78608">
        <ele>1015</ele>
        <time>2019-04-19T14:21:42Z</time>
      </trkpt>
      <trkpt lat="45.64702" lon="6.78606">
        <ele>1014</ele>
        <time>2019-04-19T14:22:42Z</time>
      </trkpt>
      <trkpt lat="45.64656" lon="6.78612">
        <ele>1009</ele>
        <time>2019-04-19T14:23:42Z</time>
      </trkpt>
      <trkpt lat="45.64639" lon="6.7861">
        <ele>1008</ele>
        <time>2019-04-19T14:24:42Z</time>
      </trkpt>
      <trkpt lat="45.64609" lon="6.78603">
        <ele>1006</ele>
        <time>2019-04-19T14:25:42Z</time>
      </trkpt>
      <trkpt lat="45.64561" lon="6.78586">
        <ele>1009</ele>
        <time>2019-04-19T14:26:42Z</time>
      </trkpt>
      <trkpt lat="45.6454" lon="6.78585">
        <ele>1012</ele>
        <time>2019-04-19T14:27:42Z</time>
      </trkpt>
      <trkpt lat="45.6446" lon="6.78591">
        <ele>1012</ele>
        <time>2019-04-19T14:28:42Z</time>
      </trkpt>
      <trkpt lat="45.64366" lon="6.78612">
        <ele>1001</ele>
        <time>2019-04-19T14:29:42Z</time>
      </trkpt>
      <trkpt lat="45.64302" lon="6.7861">
        <ele>1005</ele>
        <time>2019-04-19T14:30:42Z</time>
      </trkpt>
      <trkpt lat="45.64251" lon="6.78618">
        <ele>1005</ele>
        <time>2019-04-19T14:31:42Z</time>
      </trkpt>
      <trkpt lat="45.64216" lon="6.78619">
        <ele>996</ele>
        <time>2019-04-19T14:32:42Z</time>
      </trkpt>
      <trkpt lat="45.64196" lon="6.78615">
        <ele>992</ele>
        <time>2019-04-19T14:33:42Z</time>
      </trkpt>
      <trkpt lat="45.64174" lon="6.78605">
        <ele>988</ele>
        <time>2019-04-19T14:34:42Z</time>
      </trkpt>
      <trkpt lat="45.64154" lon="6.7859">
        <ele>984</ele>
        <time>2019-04-19T14:35:42Z</time>
      </trkpt>
      <trkpt lat="45.64125" lon="6.78557">
        <ele>991</ele>
        <time>2019-04-19T14:36:42Z</time>
      </trkpt>
      <trkpt lat="45.64116" lon="6.7855">
        <ele>992</ele>
        <time>2019-04-19T14:37:42Z</time>
      </trkpt>
      <trkpt lat="45.64075" lon="6.78526">
        <ele>993</ele>
        <time>2019-04-19T14:38:42Z</time>
      </trkpt>
      <trkpt lat="45.64048" lon="6.78508">
        <ele>994</ele>
        <time>2019-04-19T14:39:42Z</time>
      </trkpt>
      <trkpt lat="45.64032" lon="6.78503">
        <ele>991</ele>
        <time>2019-04-19T14:40:42Z</time>
      </trkpt>
      <trkpt lat="45.64" lon="6.78508">
        <ele>979</ele>
        <time>2019-04-19T14:41:42Z</time>
      </trkpt>
      <trkpt lat="45.63989" lon="6.78507">
        <ele>977</ele>
        <time>2019-04-19T14:42:42Z</time>
      </trkpt>
      <trkpt lat="45.63983" lon="6.78504">
        <ele>977</ele>
        <time>2019-04-19T14:43:42Z</time>
      </trkpt>
      <trkpt lat="45.63961" lon="6.7849">
        <ele>979</ele>
        <time>2019-04-19T14:44:42Z</time>
      </trkpt>
      <trkpt lat="45.63946" lon="6.78479">
        <ele>982</ele>
        <time>2019-04-19T14:45:42Z</time>
      </trkpt>
      <trkpt lat="45.63912" lon="6.7844">
        <ele>994</ele>
        <time>2019-04-19T14:46:42Z</time>
      </trkpt>
      <trkpt lat="45.63901" lon="6.78436">
        <ele>995</ele>
        <time>2019-04-19T14:47:42Z</time>
      </trkpt>
      <trkpt lat="45.63889" lon="6.78439">
        <ele>993</ele>
        <time>2019-04-19T14:48:42Z</time>
      </trkpt>
      <trkpt lat="45.63862" lon="6.78452">
        <ele>984</ele>
        <time>2019-04-19T14:49:42Z</time>
      </trkpt>
      <trkpt lat="45.63846" lon="6.78455">
        <ele>980</ele>
        <time>2019-04-19T14:50:42Z</time>
      </trkpt>
      <trkpt lat="45.63829" lon="6.78457">
        <ele>979</ele>
        <time>2019-04-19T14:51:42Z</time>
      </trkpt>
      <trkpt lat="45.63802" lon="6.78446">
        <ele>988</ele>
        <time>2019-04-19T14:52:42Z</time>
      </trkpt>
      <trkpt lat="45.63794" lon="6.78446">
        <ele>989</ele>
        <time>2019-04-19T14:53:42Z</time>
      </trkpt>
      <trkpt lat="45.63729" lon="6.78466">
        <ele>988</ele>
        <time>2019-04-19T14:54:42Z</time>
      </trkpt>
      <trkpt lat="45.637" lon="6.78482">
        <ele>986</ele>
        <time>2019-04-19T14:55:42Z</time>
      </trkpt>
      <trkpt lat="45.63677" lon="6.78499">
        <ele>982</ele>
        <time>2019-04-19T14:56:42Z</time>
      </trkpt>
      <trkpt lat="45.63661" lon="6.78518">
        <ele>976</ele>
        <time>2019-04-19T14:57:42Z</time>
      </trkpt>
      <trkpt lat="45.63649" lon="6.78526">
        <ele>972</ele>
        <time>2019-04-19T14:58:42Z</time>
      </trkpt>
      <trkpt lat="45.63597" lon="6.78538">
        <ele>966</ele>
        <time>2019-04-19T14:59:42Z</time>
      </trkpt>
      <trkpt lat="45.63567" lon="6.78553">
        <ele>961</ele>
        <time>2019-04-19T15:00:42Z</time>
      </trkpt>
      <trkpt lat="45.63556" lon="6.78556">
        <ele>960</ele>
        <time>2019-04-19T15:01:42Z</time>
      </trkpt>
      <trkpt lat="45.63492" lon="6.78547">
        <ele>969</ele>
        <time>2019-04-19T15:02:42Z</time>
      </trkpt>
      <trkpt lat="45.63467" lon="6.78537">
        <ele>974</ele>
        <time>2019-04-19T15:03:42Z</time>
      </trkpt>
      <trkpt lat="45.63456" lon="6.78537">
        <ele>974</ele>
        <time>2019-04-19T15:04:42Z</time>
      </trkpt>
      <trkpt lat="45.6343" lon="6.78546">
        <ele>967</ele>
        <time>2019-04-19T15:05:42Z</time>
      </trkpt>
      <trkpt lat="45.63416" lon="6.78547">
        <ele>966</ele>
        <time>2019-04-19T15:06:42Z</time>
      </trkpt>
      <trkpt lat="45.63398" lon="6.78542">
        <ele>963</ele>
        <time>2019-04-19T15:07:42Z</time>
      </trkpt>
      <trkpt lat="45.6339" lon="6.78537">
        <ele>963</ele>
        <time>2019-04-19T15:08:42Z</time>
      </trkpt>
      <trkpt lat="45.63358" lon="6.78509">
        <ele>968</ele>
        <time>2019-04-19T15:09:42Z</time>
      </trkpt>
      <trkpt lat="45.63328" lon="6.78501">
        <ele>963</ele>
        <time>2019-04-19T15:10:42Z</time>
      </trkpt>
      <trkpt lat="45.63313" lon="6.78488">
        <ele>963</ele>
        <time>2019-04-19T15:11:42Z</time>
      </trkpt>
      <trkpt lat="45.63285" lon="6.78469">
        <ele>961</ele>
        <time>2019-04-19T15:12:42Z</time>
      </trkpt>
      <trkpt lat="45.63265" lon="6.7845">
        <ele>963</ele>
        <time>2019-04-19T15:13:42Z</time>
      </trkpt>
      <trkpt lat="45.63247" lon="6.78427">
        <ele>968</ele>
        <time>2019-04-19T15:14:42Z</time>
      </trkpt>
      <trkpt lat="45.63232" lon="6.78416">
        <ele>970</ele>
        <time>2019-04-19T15:15:42Z</time>
      </trkpt>
      <trkpt lat="45.63222" lon="6.78414">
        <ele>969</ele>
        <time>2019-04-19T15:16:42Z</time>
      </trkpt>
      <trkpt lat="45.6318" lon="6.78416">
        <ele>961</ele>
        <time>2019-04-19T15:17:42Z</time>
      </trkpt>
      <trkpt lat="45.63138" lon="6.78422">
        <ele>956</ele>
        <time>2019-04-19T15:18:42Z</time>
      </trkpt>
      <trkpt lat="45.63117" lon="6.78422">
        <ele>955</ele>
        <time>2019-04-19T15:19:42Z</time>
      </trkpt>
      <trkpt lat="45.63061" lon="6.78407">
        <ele>953</ele>
        <time>2019-04-19T15:20:42Z</time>
      </trkpt>
      <trkpt lat="45.63031" lon="6.78393">
        <ele>951</ele>
        <time>2019-04-19T15:21:42Z</time>
      </trkpt>
      <trkpt lat="45.63001" lon="6.78376">
        <ele>950</ele>
        <time>2019-04-19T15:22:42Z</time>
      </trkpt>
      <trkpt lat="45.62973" lon="6.78351">
        <ele>948</ele>
        <time>2019-04-19T15:23:42Z</time>
      </trkpt>
      <trkpt lat="45.62931" lon="6.78307">
        <ele>947</ele>
        <time>2019-04-19T15:24:42Z</time>
      </trkpt>
      <trkpt lat="45.62917" lon="6.78298">
        <ele>946</ele>
        <time>2019-04-19T15:25:42Z</time>
      </trkpt>
      <trkpt lat="45.62907" lon="6.78298">
        <ele>944</ele>
        <time>2019-04-19T15:26:42Z</time>
      </trkpt>
      <trkpt lat="45.62898" lon="6.78301">
        <ele>942</ele>
        <time>2019-04-19T15:27:42Z</time>
      </trkpt>
      <trkpt lat="45.62887" lon="6.78311">
        <ele>939</ele>
        <time>2019-04-19T15:28:42Z</time>
      </trkpt>
      <trkpt lat="45.6288" lon="6.78322">
        <ele>937</ele>
        <time>2019-04-19T15:29:42Z</time>
      </trkpt>
      <trkpt lat="45.62876" lon="6.78334">
        <ele>935</ele>
        <time>2019-04-19T15:30:42Z</time>
      </trkpt>
      <trkpt lat="45.62874" lon="6.78355">
        <ele>932</ele>
        <time>2019-04-19T15:31:42Z</time>
      </trkpt>
      <trkpt lat="45.62876" lon="6.78392">
        <ele>929</ele>
        <time>2019-04-19T15:32:42Z</time>
      </trkpt>
      <trkpt lat="45.6288" lon="6.78429">
        <ele>925</ele>
        <time>2019-04-19T15:33:42Z</time>
      </trkpt>
      <trkpt lat="45.62889" lon="6.7846">
        <ele>922</ele>
        <time>2019-04-19T15:34:42Z</time>
      </trkpt>
      <trkpt lat="45.62913" lon="6.78488">
        <ele>924</ele>
        <time>2019-04-19T15:35:42Z</time>
      </trkpt>
      <trkpt lat="45.62964" lon="6.78522">
        <ele>925</ele>
        <time>2019-04-19T15:36:42Z</time>
      </trkpt>
      <trkpt lat="45.6299" lon="6.78536">
        <ele>926</ele>
        <time>2019-04-19T15:37:42Z</time>
      </trkpt>
      <trkpt lat="45.62999" lon="6.78544">
        <ele>926</ele>
        <time>2019-04-19T15:38:42Z</time>
      </trkpt>
      <trkpt lat="45.63003" lon="6.78555">
        <ele>924</ele>
        <time>2019-04-19T15:39:42Z</time>
      </trkpt>
      <trkpt lat="45.62999" lon="6.78564">
        <ele>923</ele>
        <time>2019-04-19T15:40:42Z</time>
      </trkpt>
      <trkpt lat="45.62992" lon="6.78567">
        <ele>921</ele>
        <time>2019-04-19T15:41:42Z</time>
      </trkpt>
      <trkpt lat="45.62981" lon="6.78562">
        <ele>920</ele>
        <time>2019-04-19T15:42:42Z</time>
      </trkpt>
      <trkpt lat="45.62968" lon="6.78551">
        <ele>919</ele>
        <time>2019-04-19T15:43:42Z</time>
      </trkpt>
      <trkpt lat="45.62952" lon="6.78543">
        <ele>918</ele>
        <time>2019-04-19T15:44:42Z</time>
      </trkpt>
      <trkpt lat="45.62928" lon="6.78535">
        <ele>916</ele>
        <time>2019-04-19T15:45:42Z</time>
      </trkpt>
      <trkpt lat="45.62908" lon="6.7853">
        <ele>913</ele>
        <time>2019-04-19T15:46:42Z</time>
      </trkpt>
      <trkpt lat="45.62889" lon="6.78519">
        <ele>910</ele>
        <time>2019-04-19T15:47:42Z</time>
      </trkpt>
      <trkpt lat="45.62851" lon="6.78475">
        <ele>910</ele>
        <time>2019-04-19T15:48:42Z</time>
      </trkpt>
      <trkpt lat="45.62821" lon="6.78428">
        <ele>911</ele>
        <time>2019-04-19T15:49:42Z</time>
      </trkpt>
      <trkpt lat="45.62812" lon="6.78407">
        <ele>911</ele>
        <time>2019-04-19T15:50:42Z</time>
      </trkpt>
      <trkpt lat="45.62785" lon="6.78381">
        <ele>905</ele>
        <time>2019-04-19T15:51:42Z</time>
      </trkpt>
      <trkpt lat="45.62775" lon="6.78358">
        <ele>904</ele>
        <time>2019-04-19T15:52:42Z</time>
      </trkpt>
      <trkpt lat="45.6276" lon="6.7825">
        <ele>906</ele>
        <time>2019-04-19T15:53:42Z</time>
      </trkpt>
      <trkpt lat="45.62753" lon="6.78212">
        <ele>903</ele>
        <time>2019-04-19T15:54:42Z</time>
      </trkpt>
      <trkpt lat="45.62737" lon="6.78169">
        <ele>897</ele>
        <time>2019-04-19T15:55:42Z</time>
      </trkpt>
      <trkpt lat="45.62702" lon="6.78101">
        <ele>889</ele>
        <time>2019-04-19T15:56:42Z</time>
      </trkpt>
      <trkpt lat="45.6269" lon="6.78073">
        <ele>886</ele>
        <time>2019-04-19T15:57:42Z</time>
      </trkpt>
      <trkpt lat="45.62677" lon="6.78037">
        <ele>884</ele>
        <time>2019-04-19T15:58:42Z</time>
      </trkpt>
      <trkpt lat="45.62666" lon="6.77999">
        <ele>881</ele>
        <time>2019-04-19T15:59:42Z</time>
      </trkpt>
      <trkpt lat="45.62652" lon="6.77968">
        <ele>882</ele>
        <time>2019-04-19T16:00:42Z</time>
      </trkpt>
      <trkpt lat="45.62611" lon="6.77918">
        <ele>873</ele>
        <time>2019-04-19T16:01:42Z</time>
      </trkpt>
      <trkpt lat="45.62607" lon="6.77904">
        <ele>872</ele>
        <time>2019-04-19T16:02:42Z</time>
      </trkpt>
      <trkpt lat="45.62606" lon="6.77889">
        <ele>873</ele>
        <time>2019-04-19T16:03:42Z</time>
      </trkpt>
      <trkpt lat="45.62613" lon="6.77852">
        <ele>879</ele>
        <time>2019-04-19T16:04:42Z</time>
      </trkpt>
      <trkpt lat="45.62618" lon="6.77834">
        <ele>882</ele>
        <time>2019-04-19T16:05:42Z</time>
      </trkpt>
      <trkpt lat="45.62618" lon="6.7781">
        <ele>886</ele>
        <time>2019-04-19T16:06:42Z</time>
      </trkpt>
      <trkpt lat="45.62615" lon="6.77796">
        <ele>887</ele>
        <time>2019-04-19T16:07:42Z</time>
      </trkpt>
      <trkpt lat="45.62597" lon="6.77782">
        <ele>881</ele>
        <time>2019-04-19T16:08:42Z</time>
      </trkpt>
      <trkpt lat="45.62582" lon="6.7778">
        <ele>875</ele>
        <time>2019-04-19T16:09:42Z</time>
      </trkpt>
      <trkpt lat="45.62565" lon="6.77783">
        <ele>868</ele>
        <time>2019-04-19T16:10:42Z</time>
      </trkpt>
      <trkpt lat="45.62537" lon="6.77783">
        <ele>859</ele>
        <time>2019-04-19T16:11:42Z</time>
      </trkpt>
      <trkpt lat="45.62527" lon="6.77774">
        <ele>856</ele>
        <time>2019-04-19T16:12:42Z</time>
      </trkpt>
      <trkpt lat="45.62518" lon="6.77756">
        <ele>856</ele>
        <time>2019-04-19T16:13:42Z</time>
      </trkpt>
      <trkpt lat="45.62502" lon="6.77704">
        <ele>853</ele>
        <time>2019-04-19T16:14:42Z</time>
      </trkpt>
      <trkpt lat="45.62498" lon="6.77668">
        <ele>853</ele>
        <time>2019-04-19T16:15:42Z</time>
      </trkpt>
      <trkpt lat="45.62496" lon="6.77633">
        <ele>853</ele>
        <time>2019-04-19T16:16:42Z</time>
      </trkpt>
      <trkpt lat="45.62507" lon="6.77587">
        <ele>860</ele>
        <time>2019-04-19T16:17:42Z</time>
      </trkpt>
      <trkpt lat="45.6251" lon="6.7757">
        <ele>862</ele>
        <time>2019-04-19T16:18:42Z</time>
      </trkpt>
      <trkpt lat="45.62506" lon="6.77551">
        <ele>861</ele>
        <time>2019-04-19T16:19:42Z</time>
      </trkpt>
      <trkpt lat="45.62485" lon="6.77506">
        <ele>852</ele>
        <time>2019-04-19T16:20:42Z</time>
      </trkpt>
      <trkpt lat="45.6247" lon="6.77467">
        <ele>849</ele>
        <time>2019-04-19T16:21:42Z</time>
      </trkpt>
      <trkpt lat="45.62446" lon="6.77397">
        <ele>846</ele>
        <time>2019-04-19T16:22:42Z</time>
      </trkpt>
      <trkpt lat="45.62398" lon="6.77272">
        <ele>841</ele>
        <time>2019-04-19T16:23:42Z</time>
      </trkpt>
      <trkpt lat="45.62363" lon="6.772">
        <ele>838</ele>
        <time>2019-04-19T16:24:42Z</time>
      </trkpt>
      <trkpt lat="45.62334" lon="6.77152">
        <ele>830</ele>
        <time>2019-04-19T16:25:42Z</time>
      </trkpt>
      <trkpt lat="45.62317" lon="6.77132">
        <ele>828</ele>
        <time>2019-04-19T16:26:42Z</time>
      </trkpt>
      <trkpt lat="45.6228" lon="6.77108">
        <ele>824</ele>
        <time>2019-04-19T16:27:42Z</time>
      </trkpt>
      <trkpt lat="45.62249" lon="6.77094">
        <ele>821</ele>
        <time>2019-04-19T16:28:42Z</time>
      </trkpt>
      <trkpt lat="45.62219" lon="6.77087">
        <ele>819</ele>
        <time>2019-04-19T16:29:42Z</time>
      </trkpt>
      <trkpt lat="45.62173" lon="6.77085">
        <ele>817</ele>
        <time>2019-04-19T16:30:42Z</time>
      </trkpt>
      <trkpt lat="45.62129" lon="6.77088">
        <ele>816</ele>
        <time>2019-04-19T16:31:42Z</time>
      </trkpt>
      <trkpt lat="45.62081" lon="6.77086">
        <ele>816</ele>
        <time>2019-04-19T16:32:42Z</time>
      </trkpt>
      <trkpt lat="45.62068" lon="6.77088">
        <ele>816</ele>
        <time>2019-04-19T16:33:42Z</time>
      </trkpt>
      <trkpt lat="45.62058" lon="6.77094">
        <ele>815</ele>
        <time>2019-04-19T16:34:42Z</time>
      </trkpt>
      <trkpt lat="45.62042" lon="6.77096">
        <ele>815</ele>
        <time>2019-04-19T16:35:42Z</time>
      </trkpt>
      <trkpt lat="45.62039" lon="6.77094">
        <ele>815</ele>
        <time>2019-04-19T16:36:42Z</time>
      </trkpt>
      <trkpt lat="45.62033" lon="6.77093">
        <ele>815</ele>
        <time>2019-04-19T16:37:42Z</time>
      </trkpt>
      <trkpt lat="45.62027" lon="6.77097">
        <ele>815</ele>
        <time>2019-04-19T16:38:42Z</time>
      </trkpt>
      <trkpt lat="45.62024" lon="6.77102">
        <ele>815</ele>
        <time>2019-04-19T16:39:42Z</time>
      </trkpt>
      <trkpt lat="45.62023" lon="6.77109">
        <ele>815</ele>
        <time>2019-04-19T16:40:42Z</time>
      </trkpt>
      <trkpt lat="45.62023" lon="6.77116">
        <ele>814</ele>
        <time>2019-04-19T16:41:42Z</time>
      </trkpt>
      <trkpt lat="45.62029" lon="6.77127">
        <ele>814</ele>
        <time>2019-04-19T16:42:42Z</time>
      </trkpt>
      <trkpt lat="45.62038" lon="6.77128">
        <ele>814</ele>
        <time>2019-04-19T16:43:42Z</time>
      </trkpt>
      <trkpt lat="45.62049" lon="6.77143">
        <ele>814</ele>
        <time>2019-04-19T16:44:42Z</time>
      </trkpt>
      <trkpt lat="45.62069" lon="6.77189">
        <ele>814</ele>
        <time>2019-04-19T16:45:42Z</time>
      </trkpt>
      <trkpt lat="45.62131" lon="6.77339">
        <ele>811</ele>
        <time>2019-04-19T16:46:42Z</time>
      </trkpt>
      <trkpt lat="45.62193" lon="6.77515">
        <ele>808</ele>
        <time>2019-04-19T16:47:42Z</time>
      </trkpt>
      <trkpt lat="45.62269" lon="6.77683">
        <ele>808</ele>
        <time>2019-04-19T16:48:42Z</time>
      </trkpt>
      <trkpt lat="45.62321" lon="6.77801">
        <ele>810</ele>
        <time>2019-04-19T16:49:42Z</time>
      </trkpt>
      <trkpt lat="45.6233" lon="6.77827">
        <ele>811</ele>
        <time>2019-04-19T16:50:42Z</time>
      </trkpt>
      <trkpt lat="45.62328" lon="6.77833">
        <ele>811</ele>
        <time>2019-04-19T16:51:42Z</time>
      </trkpt>
      <trkpt lat="45.62329" lon="6.77846">
        <ele>811</ele>
        <time>2019-04-19T16:52:42Z</time>
      </trkpt>
      <trkpt lat="45.62331" lon="6.77851">
        <ele>811</ele>
        <time>2019-04-19T16:53:42Z</time>
      </trkpt>
      <trkpt lat="45.62318" lon="6.78131">
        <ele>814</ele>
        <time>2019-04-19T16:54:42Z</time>
      </trkpt>
      <trkpt lat="45.62319" lon="6.78159">
        <ele>814</ele>
        <time>2019-04-19T16:55:42Z</time>
      </trkpt>
      <trkpt lat="45.62316" lon="6.78217">
        <ele>815</ele>
        <time>2019-04-19T16:56:42Z</time>
      </trkpt>
      <trkpt lat="45.62307" lon="6.78298">
        <ele>816</ele>
        <time>2019-04-19T16:57:42Z</time>
      </trkpt>
      <trkpt lat="45.62287" lon="6.78396">
        <ele>817</ele>
        <time>2019-04-19T16:58:42Z</time>
      </trkpt>
      <trkpt lat="45.62265" lon="6.78487">
        <ele>819</ele>
        <time>2019-04-19T16:59:42Z</time>
      </trkpt>
    </trkseg>
  </trk>
  <trk>
    <name><![CDATA[J8bis]]></name>
    <trkseg>
      <trkpt lat="45.91817" lon="6.86911">
        <ele>1037</ele>
        <time>2019-04-17T10:42:16Z</time>
      </trkpt>
      <trkpt lat="45.91876" lon="6.86964">
        <ele>1036</ele>
        <time>2019-04-17T10:43:16Z</time>
      </trkpt>
      <trkpt lat="45.91885" lon="6.86974">
        <ele>1036</ele>
        <time>2019-04-17T10:44:16Z</time>
      </trkpt>
      <trkpt lat="45.91932" lon="6.87041">
        <ele>1037</ele>
        <time>2019-04-17T10:45:16Z</time>
      </trkpt>
      <trkpt lat="45.91946" lon="6.87054">
        <ele>1037</ele>
        <time>2019-04-17T10:46:16Z</time>
      </trkpt>
      <trkpt lat="45.91964" lon="6.87059">
        <ele>1037</ele>
        <time>2019-04-17T10:47:16Z</time>
      </trkpt>
      <trkpt lat="45.91984" lon="6.87047">
        <ele>1037</ele>
        <time>2019-04-17T10:48:16Z</time>
      </trkpt>
      <trkpt lat="45.92018" lon="6.87022">
        <ele>1037</ele>
        <time>2019-04-17T10:49:16Z</time>
      </trkpt>
      <trkpt lat="45.92044" lon="6.87006">
        <ele>1037</ele>
        <time>2019-04-17T10:50:16Z</time>
      </trkpt>
      <trkpt lat="45.9206" lon="6.87001">
        <ele>1038</ele>
        <time>2019-04-17T10:51:16Z</time>
      </trkpt>
      <trkpt lat="45.92072" lon="6.87003">
        <ele>1038</ele>
        <time>2019-04-17T10:52:16Z</time>
      </trkpt>
      <trkpt lat="45.92075" lon="6.87">
        <ele>1038</ele>
        <time>2019-04-17T10:53:16Z</time>
      </trkpt>
      <trkpt lat="45.92076" lon="6.86991">
        <ele>1038</ele>
        <time>2019-04-17T10:54:16Z</time>
      </trkpt>
      <trkpt lat="45.92178" lon="6.86959">
        <ele>1039</ele>
        <time>2019-04-17T10:55:16Z</time>
      </trkpt>
      <trkpt lat="45.92195" lon="6.86958">
        <ele>1039</ele>
        <time>2019-04-17T10:56:16Z</time>
      </trkpt>
      <trkpt lat="45.92221" lon="6.86967">
        <ele>1040</ele>
        <time>2019-04-17T10:57:16Z</time>
      </trkpt>
      <trkpt lat="45.92294" lon="6.87026">
        <ele>1041</ele>
        <time>2019-04-17T10:58:16Z</time>
      </trkpt>
      <trkpt lat="45.92301" lon="6.87034">
        <ele>1041</ele>
        <time>2019-04-17T10:59:16Z</time>
      </trkpt>
      <trkpt lat="45.92303" lon="6.87039">
        <ele>1041</ele>
        <time>2019-04-17T11:00:16Z</time>
      </trkpt>
      <trkpt lat="45.92303" lon="6.8705">
        <ele>1041</ele>
        <time>2019-04-17T11:01:16Z</time>
      </trkpt>
      <trkpt lat="45.92294" lon="6.87086">
        <ele>1042</ele>
        <time>2019-04-17T11:02:16Z</time>
      </trkpt>
      <trkpt lat="45.92295" lon="6.87102">
        <ele>1042</ele>
        <time>2019-04-17T11:03:16Z</time>
      </trkpt>
      <trkpt lat="45.92299" lon="6.87116">
        <ele>1041</ele>
        <time>2019-04-17T11:04:16Z</time>
      </trkpt>
      <trkpt lat="45.92303" lon="6.87123">
        <ele>1041</ele>
        <time>2019-04-17T11:05:16Z</time>
      </trkpt>
      <trkpt lat="45.92324" lon="6.87141">
        <ele>1040</ele>
        <time>2019-04-17T11:06:16Z</time>
      </trkpt>
      <trkpt lat="45.92329" lon="6.87157">
        <ele>1039</ele>
        <time>2019-04-17T11:07:16Z</time>
      </trkpt>
      <trkpt lat="45.9233" lon="6.87166">
        <ele>1039</ele>
        <time>2019-04-17T11:08:16Z</time>
      </trkpt>
      <trkpt lat="45.92342" lon="6.87164">
        <ele>1039</ele>
        <time>2019-04-17T11:09:16Z</time>
      </trkpt>
      <trkpt lat="45.92347" lon="6.87167">
        <ele>1039</ele>
        <time>2019-04-17T11:10:16Z</time>
      </trkpt>
      <trkpt lat="45.9239" lon="6.87214">
        <ele>1037</ele>
        <time>2019-04-17T11:11:16Z</time>
      </trkpt>
      <trkpt lat="45.9241" lon="6.87234">
        <ele>1036</ele>
        <time>2019-04-17T11:12:16Z</time>
      </trkpt>
      <trkpt lat="45.92442" lon="6.8725">
        <ele>1036</ele>
        <time>2019-04-17T11:13:16Z</time>
      </trkpt>
      <trkpt lat="45.92454" lon="6.87258">
        <ele>1037</ele>
        <time>2019-04-17T11:14:16Z</time>
      </trkpt>
      <trkpt lat="45.92459" lon="6.87265">
        <ele>1037</ele>
        <time>2019-04-17T11:15:16Z</time>
      </trkpt>
      <trkpt lat="45.92458" lon="6.87277">
        <ele>1037</ele>
        <time>2019-04-17T11:16:16Z</time>
      </trkpt>
      <trkpt lat="45.92461" lon="6.87284">
        <ele>1038</ele>
        <time>2019-04-17T11:17:16Z</time>
      </trkpt>
      <trkpt lat="45.9247" lon="6.87288">
        <ele>1038</ele>
        <time>2019-04-17T11:18:16Z</time>
      </trkpt>
      <trkpt lat="45.92473" lon="6.87287">
        <ele>1038</ele>
        <time>2019-04-17T11:19:16Z</time>
      </trkpt>
      <trkpt lat="45.92481" lon="6.87304">
        <ele>1039</ele>
        <time>2019-04-17T11:20:16Z</time>
      </trkpt>
      <trkpt lat="45.92499" lon="6.87329">
        <ele>1040</ele>
        <time>2019-04-17T11:21:16Z</time>
      </trkpt>
      <trkpt lat="45.9255" lon="6.87389">
        <ele>1039</ele>
        <time>2019-04-17T11:22:16Z</time>
      </trkpt>
      <trkpt lat="45.92603" lon="6.87448">
        <ele>1039</ele>
        <time>2019-04-17T11:23:16Z</time>
      </trkpt>
      <trkpt lat="45.92622" lon="6.87466">
        <ele>1040</ele>
        <time>2019-04-17T11:24:16Z</time>
      </trkpt>
      <trkpt lat="45.92724" lon="6.8754">
        <ele>1042</ele>
        <time>2019-04-17T11:25:16Z</time>
      </trkpt>
      <trkpt lat="45.92723" lon="6.87552">
        <ele>1042</ele>
        <time>2019-04-17T11:26:16Z</time>
      </trkpt>
      <trkpt lat="45.92728" lon="6.87558">
        <ele>1042</ele>
        <time>2019-04-17T11:27:16Z</time>
      </trkpt>
      <trkpt lat="45.92731" lon="6.87559">
        <ele>1042</ele>
        <time>2019-04-17T11:28:16Z</time>
      </trkpt>
      <trkpt lat="45.92736" lon="6.87555">
        <ele>1042</ele>
        <time>2019-04-17T11:29:16Z</time>
      </trkpt>
      <trkpt lat="45.92742" lon="6.87566">
        <ele>1042</ele>
        <time>2019-04-17T11:30:16Z</time>
      </trkpt>
      <trkpt lat="45.92778" lon="6.87603">
        <ele>1042</ele>
        <time>2019-04-17T11:31:16Z</time>
      </trkpt>
      <trkpt lat="45.92809" lon="6.87642">
        <ele>1042</ele>
        <time>2019-04-17T11:32:16Z</time>
      </trkpt>
      <trkpt lat="45.92828" lon="6.87674">
        <ele>1043</ele>
        <time>2019-04-17T11:33:16Z</time>
      </trkpt>
      <trkpt lat="45.92908" lon="6.87844">
        <ele>1046</ele>
        <time>2019-04-17T11:34:16Z</time>
      </trkpt>
      <trkpt lat="45.92926" lon="6.87876">
        <ele>1047</ele>
        <time>2019-04-17T11:35:16Z</time>
      </trkpt>
      <trkpt lat="45.92941" lon="6.87895">
        <ele>1048</ele>
        <time>2019-04-17T11:36:16Z</time>
      </trkpt>
      <trkpt lat="45.92979" lon="6.87939">
        <ele>1048</ele>
        <time>2019-04-17T11:37:16Z</time>
      </trkpt>
      <trkpt lat="45.92995" lon="6.87963">
        <ele>1048</ele>
        <time>2019-04-17T11:38:16Z</time>
      </trkpt>
      <trkpt lat="45.93012" lon="6.87997">
        <ele>1048</ele>
        <time>2019-04-17T11:39:16Z</time>
      </trkpt>
      <trkpt lat="45.93082" lon="6.88194">
        <ele>1053</ele>
        <time>2019-04-17T11:40:16Z</time>
      </trkpt>
      <trkpt lat="45.9312" lon="6.88296">
        <ele>1053</ele>
        <time>2019-04-17T11:41:16Z</time>
      </trkpt>
      <trkpt lat="45.9318" lon="6.88431">
        <ele>1055</ele>
        <time>2019-04-17T11:42:16Z</time>
      </trkpt>
      <trkpt lat="45.93202" lon="6.88469">
        <ele>1056</ele>
        <time>2019-04-17T11:43:16Z</time>
      </trkpt>
      <trkpt lat="45.93226" lon="6.88497">
        <ele>1057</ele>
        <time>2019-04-17T11:44:16Z</time>
      </trkpt>
      <trkpt lat="45.93255" lon="6.88524">
        <ele>1058</ele>
        <time>2019-04-17T11:45:16Z</time>
      </trkpt>
      <trkpt lat="45.93274" lon="6.88555">
        <ele>1060</ele>
        <time>2019-04-17T11:46:16Z</time>
      </trkpt>
      <trkpt lat="45.93289" lon="6.88587">
        <ele>1061</ele>
        <time>2019-04-17T11:47:16Z</time>
      </trkpt>
      <trkpt lat="45.93377" lon="6.88803">
        <ele>1068</ele>
        <time>2019-04-17T11:48:16Z</time>
      </trkpt>
      <trkpt lat="45.93396" lon="6.88843">
        <ele>1068</ele>
        <time>2019-04-17T11:49:16Z</time>
      </trkpt>
      <trkpt lat="45.93406" lon="6.88859">
        <ele>1068</ele>
        <time>2019-04-17T11:50:16Z</time>
      </trkpt>
      <trkpt lat="45.93421" lon="6.88876">
        <ele>1067</ele>
        <time>2019-04-17T11:51:16Z</time>
      </trkpt>
      <trkpt lat="45.93461" lon="6.88906">
        <ele>1066</ele>
        <time>2019-04-17T11:52:16Z</time>
      </trkpt>
      <trkpt lat="45.93481" lon="6.88914">
        <ele>1065</ele>
        <time>2019-04-17T11:53:16Z</time>
      </trkpt>
      <trkpt lat="45.93503" lon="6.88917">
        <ele>1065</ele>
        <time>2019-04-17T11:54:16Z</time>
      </trkpt>
      <trkpt lat="45.93665" lon="6.88898">
        <ele>1067</ele>
        <time>2019-04-17T11:55:16Z</time>
      </trkpt>
      <trkpt lat="45.93704" lon="6.88891">
        <ele>1068</ele>
        <time>2019-04-17T11:56:16Z</time>
      </trkpt>
      <trkpt lat="45.93732" lon="6.8888">
        <ele>1068</ele>
        <time>2019-04-17T11:57:16Z</time>
      </trkpt>
      <trkpt lat="45.93747" lon="6.8887">
        <ele>1067</ele>
        <time>2019-04-17T11:58:16Z</time>
      </trkpt>
      <trkpt lat="45.9382" lon="6.88801">
        <ele>1064</ele>
        <time>2019-04-17T11:59:16Z</time>
      </trkpt>
      <trkpt lat="45.93834" lon="6.88793">
        <ele>1064</ele>
        <time>2019-04-17T12:00:16Z</time>
      </trkpt>
      <trkpt lat="45.93851" lon="6.88788">
        <ele>1064</ele>
        <time>2019-04-17T12:01:16Z</time>
      </trkpt>
      <trkpt lat="45.93871" lon="6.88787">
        <ele>1064</ele>
        <time>2019-04-17T12:02:16Z</time>
      </trkpt>
      <trkpt lat="45.9397" lon="6.8879">
        <ele>1066</ele>
        <time>2019-04-17T12:03:16Z</time>
      </trkpt>
      <trkpt lat="45.94028" lon="6.88788">
        <ele>1067</ele>
        <time>2019-04-17T12:04:16Z</time>
      </trkpt>
      <trkpt lat="45.94029" lon="6.88792">
        <ele>1067</ele>
        <time>2019-04-17T12:05:16Z</time>
      </trkpt>
      <trkpt lat="45.94033" lon="6.88795">
        <ele>1067</ele>
        <time>2019-04-17T12:06:16Z</time>
      </trkpt>
      <trkpt lat="45.94038" lon="6.88795">
        <ele>1067</ele>
        <time>2019-04-17T12:07:16Z</time>
      </trkpt>
      <trkpt lat="45.94049" lon="6.88778">
        <ele>1066</ele>
        <time>2019-04-17T12:08:16Z</time>
      </trkpt>
      <trkpt lat="45.94052" lon="6.88768">
        <ele>1066</ele>
        <time>2019-04-17T12:09:16Z</time>
      </trkpt>
      <trkpt lat="45.94052" lon="6.88764">
        <ele>1066</ele>
        <time>2019-04-17T12:10:16Z</time>
      </trkpt>
      <trkpt lat="45.94065" lon="6.88751">
        <ele>1065</ele>
        <time>2019-04-17T12:11:16Z</time>
      </trkpt>
      <trkpt lat="45.94084" lon="6.88742">
        <ele>1065</ele>
        <time>2019-04-17T12:12:16Z</time>
      </trkpt>
      <trkpt lat="45.94105" lon="6.8874">
        <ele>1065</ele>
        <time>2019-04-17T12:13:16Z</time>
      </trkpt>
      <trkpt lat="45.94122" lon="6.88742">
        <ele>1065</ele>
        <time>2019-04-17T12:14:16Z</time>
      </trkpt>
      <trkpt lat="45.94132" lon="6.88747">
        <ele>1066</ele>
        <time>2019-04-17T12:15:16Z</time>
      </trkpt>
      <trkpt lat="45.94148" lon="6.88758">
        <ele>1066</ele>
        <time>2019-04-17T12:16:16Z</time>
      </trkpt>
      <trkpt lat="45.94183" lon="6.88801">
        <ele>1066</ele>
        <time>2019-04-17T12:17:16Z</time>
      </trkpt>
      <trkpt lat="45.94667" lon="6.8944">
        <ele>1075</ele>
        <time>2019-04-17T12:18:16Z</time>
      </trkpt>
      <trkpt lat="45.94926" lon="6.89777">
        <ele>1082</ele>
        <time>2019-04-17T12:19:16Z</time>
      </trkpt>
      <trkpt lat="45.94945" lon="6.898">
        <ele>1083</ele>
        <time>2019-04-17T12:20:16Z</time>
      </trkpt>
      <trkpt lat="45.94968" lon="6.89822">
        <ele>1084</ele>
        <time>2019-04-17T12:21:16Z</time>
      </trkpt>
      <trkpt lat="45.94982" lon="6.89828">
        <ele>1085</ele>
        <time>2019-04-17T12:22:16Z</time>
      </trkpt>
      <trkpt lat="45.94994" lon="6.8983">
        <ele>1085</ele>
        <time>2019-04-17T12:23:16Z</time>
      </trkpt>
      <trkpt lat="45.95012" lon="6.89837">
        <ele>1085</ele>
        <time>2019-04-17T12:24:16Z</time>
      </trkpt>
      <trkpt lat="45.95018" lon="6.89842">
        <ele>1086</ele>
        <time>2019-04-17T12:25:16Z</time>
      </trkpt>
      <trkpt lat="45.95024" lon="6.89853">
        <ele>1086</ele>
        <time>2019-04-17T12:26:16Z</time>
      </trkpt>
      <trkpt lat="45.95035" lon="6.89914">
        <ele>1089</ele>
        <time>2019-04-17T12:27:16Z</time>
      </trkpt>
      <trkpt lat="45.95038" lon="6.89923">
        <ele>1089</ele>
        <time>2019-04-17T12:28:16Z</time>
      </trkpt>
      <trkpt lat="45.95048" lon="6.89939">
        <ele>1090</ele>
        <time>2019-04-17T12:29:16Z</time>
      </trkpt>
      <trkpt lat="45.95095" lon="6.89995">
        <ele>1090</ele>
        <time>2019-04-17T12:30:16Z</time>
      </trkpt>
      <trkpt lat="45.95206" lon="6.90143">
        <ele>1097</ele>
        <time>2019-04-17T12:31:16Z</time>
      </trkpt>
      <trkpt lat="45.95264" lon="6.90214">
        <ele>1113</ele>
        <time>2019-04-17T12:32:16Z</time>
      </trkpt>
      <trkpt lat="45.95274" lon="6.90224">
        <ele>1117</ele>
        <time>2019-04-17T12:33:16Z</time>
      </trkpt>
      <trkpt lat="45.95285" lon="6.90232">
        <ele>1119</ele>
        <time>2019-04-17T12:34:16Z</time>
      </trkpt>
      <trkpt lat="45.95296" lon="6.90237">
        <ele>1121</ele>
        <time>2019-04-17T12:35:16Z</time>
      </trkpt>
      <trkpt lat="45.95338" lon="6.90248">
        <ele>1122</ele>
        <time>2019-04-17T12:36:16Z</time>
      </trkpt>
      <trkpt lat="45.95416" lon="6.90252">
        <ele>1121</ele>
        <time>2019-04-17T12:37:16Z</time>
      </trkpt>
      <trkpt lat="45.9543" lon="6.90255">
        <ele>1122</ele>
        <time>2019-04-17T12:38:16Z</time>
      </trkpt>
      <trkpt lat="45.95442" lon="6.9026">
        <ele>1124</ele>
        <time>2019-04-17T12:39:16Z</time>
      </trkpt>
      <trkpt lat="45.95486" lon="6.90286">
        <ele>1136</ele>
        <time>2019-04-17T12:40:16Z</time>
      </trkpt>
      <trkpt lat="45.95522" lon="6.903">
        <ele>1140</ele>
        <time>2019-04-17T12:41:16Z</time>
      </trkpt>
      <trkpt lat="45.95542" lon="6.90303">
        <ele>1141</ele>
        <time>2019-04-17T12:42:16Z</time>
      </trkpt>
      <trkpt lat="45.95579" lon="6.90299">
        <ele>1137</ele>
        <time>2019-04-17T12:43:16Z</time>
      </trkpt>
      <trkpt lat="45.95632" lon="6.90279">
        <ele>1136</ele>
        <time>2019-04-17T12:44:16Z</time>
      </trkpt>
      <trkpt lat="45.95645" lon="6.90278">
        <ele>1137</ele>
        <time>2019-04-17T12:45:16Z</time>
      </trkpt>
      <trkpt lat="45.95658" lon="6.90283">
        <ele>1141</ele>
        <time>2019-04-17T12:46:16Z</time>
      </trkpt>
      <trkpt lat="45.95683" lon="6.90297">
        <ele>1148</ele>
        <time>2019-04-17T12:47:16Z</time>
      </trkpt>
      <trkpt lat="45.95696" lon="6.90299">
        <ele>1149</ele>
        <time>2019-04-17T12:48:16Z</time>
      </trkpt>
      <trkpt lat="45.95737" lon="6.9029">
        <ele>1150</ele>
        <time>2019-04-17T12:49:16Z</time>
      </trkpt>
      <trkpt lat="45.9575" lon="6.90289">
        <ele>1150</ele>
        <time>2019-04-17T12:50:16Z</time>
      </trkpt>
      <trkpt lat="45.95763" lon="6.90293">
        <ele>1152</ele>
        <time>2019-04-17T12:51:16Z</time>
      </trkpt>
      <trkpt lat="45.95792" lon="6.90318">
        <ele>1156</ele>
        <time>2019-04-17T12:52:16Z</time>
      </trkpt>
      <trkpt lat="45.95805" lon="6.90324">
        <ele>1156</ele>
        <time>2019-04-17T12:53:16Z</time>
      </trkpt>
      <trkpt lat="45.95833" lon="6.90323">
        <ele>1153</ele>
        <time>2019-04-17T12:54:16Z</time>
      </trkpt>
      <trkpt lat="45.95848" lon="6.90328">
        <ele>1154</ele>
        <time>2019-04-17T12:55:16Z</time>
      </trkpt>
      <trkpt lat="45.95865" lon="6.90342">
        <ele>1156</ele>
        <time>2019-04-17T12:56:16Z</time>
      </trkpt>
      <trkpt lat="45.95877" lon="6.90357">
        <ele>1159</ele>
        <time>2019-04-17T12:57:16Z</time>
      </trkpt>
      <trkpt lat="45.95884" lon="6.9037">
        <ele>1160</ele>
        <time>2019-04-17T12:58:16Z</time>
      </trkpt>
      <trkpt lat="45.95897" lon="6.90401">
        <ele>1160</ele>
        <time>2019-04-17T12:59:16Z</time>
      </trkpt>
      <trkpt lat="45.9591" lon="6.90443">
        <ele>1159</ele>
        <time>2019-04-17T13:00:16Z</time>
      </trkpt>
      <trkpt lat="45.95925" lon="6.90531">
        <ele>1161</ele>
        <time>2019-04-17T13:01:16Z</time>
      </trkpt>
      <trkpt lat="45.95932" lon="6.9056">
        <ele>1162</ele>
        <time>2019-04-17T13:02:16Z</time>
      </trkpt>
      <trkpt lat="45.95939" lon="6.90582">
        <ele>1162</ele>
        <time>2019-04-17T13:03:16Z</time>
      </trkpt>
      <trkpt lat="45.95954" lon="6.90624">
        <ele>1166</ele>
        <time>2019-04-17T13:04:16Z</time>
      </trkpt>
      <trkpt lat="45.95979" lon="6.9068">
        <ele>1167</ele>
        <time>2019-04-17T13:05:16Z</time>
      </trkpt>
      <trkpt lat="45.96019" lon="6.90749">
        <ele>1173</ele>
        <time>2019-04-17T13:06:16Z</time>
      </trkpt>
      <trkpt lat="45.96048" lon="6.90787">
        <ele>1175</ele>
        <time>2019-04-17T13:07:16Z</time>
      </trkpt>
      <trkpt lat="45.9617" lon="6.90919">
        <ele>1180</ele>
        <time>2019-04-17T13:08:16Z</time>
      </trkpt>
      <trkpt lat="45.96183" lon="6.9093">
        <ele>1185</ele>
        <time>2019-04-17T13:09:16Z</time>
      </trkpt>
      <trkpt lat="45.96219" lon="6.90953">
        <ele>1190</ele>
        <time>2019-04-17T13:10:16Z</time>
      </trkpt>
      <trkpt lat="45.96236" lon="6.90966">
        <ele>1189</ele>
        <time>2019-04-17T13:11:16Z</time>
      </trkpt>
      <trkpt lat="45.96249" lon="6.90979">
        <ele>1187</ele>
        <time>2019-04-17T13:12:16Z</time>
      </trkpt>
      <trkpt lat="45.96271" lon="6.91009">
        <ele>1189</ele>
        <time>2019-04-17T13:13:16Z</time>
      </trkpt>
      <trkpt lat="45.96287" lon="6.91038">
        <ele>1191</ele>
        <time>2019-04-17T13:14:16Z</time>
      </trkpt>
      <trkpt lat="45.9631" lon="6.91093">
        <ele>1191</ele>
        <time>2019-04-17T13:15:16Z</time>
      </trkpt>
      <trkpt lat="45.96325" lon="6.91118">
        <ele>1191</ele>
        <time>2019-04-17T13:16:16Z</time>
      </trkpt>
      <trkpt lat="45.96351" lon="6.91149">
        <ele>1191</ele>
        <time>2019-04-17T13:17:16Z</time>
      </trkpt>
      <trkpt lat="45.96404" lon="6.91202">
        <ele>1189</ele>
        <time>2019-04-17T13:18:16Z</time>
      </trkpt>
      <trkpt lat="45.96453" lon="6.91241">
        <ele>1185</ele>
        <time>2019-04-17T13:19:16Z</time>
      </trkpt>
      <trkpt lat="45.96494" lon="6.91261">
        <ele>1181</ele>
        <time>2019-04-17T13:20:16Z</time>
      </trkpt>
      <trkpt lat="45.96742" lon="6.91344">
        <ele>1185</ele>
        <time>2019-04-17T13:21:16Z</time>
      </trkpt>
      <trkpt lat="45.96773" lon="6.9136">
        <ele>1188</ele>
        <time>2019-04-17T13:22:16Z</time>
      </trkpt>
      <trkpt lat="45.96794" lon="6.91378">
        <ele>1189</ele>
        <time>2019-04-17T13:23:16Z</time>
      </trkpt>
      <trkpt lat="45.96818" lon="6.91406">
        <ele>1190</ele>
        <time>2019-04-17T13:24:16Z</time>
      </trkpt>
      <trkpt lat="45.96961" lon="6.91583">
        <ele>1201</ele>
        <time>2019-04-17T13:25:16Z</time>
      </trkpt>
      <trkpt lat="45.97006" lon="6.91626">
        <ele>1200</ele>
        <time>2019-04-17T13:26:16Z</time>
      </trkpt>
      <trkpt lat="45.97054" lon="6.91666">
        <ele>1200</ele>
        <time>2019-04-17T13:27:16Z</time>
      </trkpt>
      <trkpt lat="45.97101" lon="6.91703">
        <ele>1203</ele>
        <time>2019-04-17T13:28:16Z</time>
      </trkpt>
      <trkpt lat="45.97125" lon="6.91719">
        <ele>1204</ele>
        <time>2019-04-17T13:29:16Z</time>
      </trkpt>
      <trkpt lat="45.97227" lon="6.91797">
        <ele>1205</ele>
        <time>2019-04-17T13:30:16Z</time>
      </trkpt>
      <trkpt lat="45.97246" lon="6.91817">
        <ele>1205</ele>
        <time>2019-04-17T13:31:16Z</time>
      </trkpt>
      <trkpt lat="45.97264" lon="6.91841">
        <ele>1207</ele>
        <time>2019-04-17T13:32:16Z</time>
      </trkpt>
      <trkpt lat="45.97325" lon="6.91935">
        <ele>1213</ele>
        <time>2019-04-17T13:33:16Z</time>
      </trkpt>
      <trkpt lat="45.97356" lon="6.9197">
        <ele>1214</ele>
        <time>2019-04-17T13:34:16Z</time>
      </trkpt>
      <trkpt lat="45.97398" lon="6.92007">
        <ele>1214</ele>
        <time>2019-04-17T13:35:16Z</time>
      </trkpt>
      <trkpt lat="45.97413" lon="6.92016">
        <ele>1214</ele>
        <time>2019-04-17T13:36:16Z</time>
      </trkpt>
      <trkpt lat="45.97542" lon="6.92116">
        <ele>1216</ele>
        <time>2019-04-17T13:37:16Z</time>
      </trkpt>
      <trkpt lat="45.97546" lon="6.9212">
        <ele>1216</ele>
        <time>2019-04-17T13:38:16Z</time>
      </trkpt>
      <trkpt lat="45.97544" lon="6.92128">
        <ele>1216</ele>
        <time>2019-04-17T13:39:16Z</time>
      </trkpt>
      <trkpt lat="45.97546" lon="6.92135">
        <ele>1216</ele>
        <time>2019-04-17T13:40:16Z</time>
      </trkpt>
      <trkpt lat="45.9755" lon="6.92139">
        <ele>1216</ele>
        <time>2019-04-17T13:41:16Z</time>
      </trkpt>
      <trkpt lat="45.97556" lon="6.92139">
        <ele>1215</ele>
        <time>2019-04-17T13:42:16Z</time>
      </trkpt>
      <trkpt lat="45.97571" lon="6.92128">
        <ele>1215</ele>
        <time>2019-04-17T13:43:16Z</time>
      </trkpt>
      <trkpt lat="45.97574" lon="6.92119">
        <ele>1215</ele>
        <time>2019-04-17T13:44:16Z</time>
      </trkpt>
      <trkpt lat="45.97572" lon="6.92113">
        <ele>1215</ele>
        <time>2019-04-17T13:45:16Z</time>
      </trkpt>
      <trkpt lat="45.97599" lon="6.92082">
        <ele>1215</ele>
        <time>2019-04-17T13:46:16Z</time>
      </trkpt>
      <trkpt lat="45.97613" lon="6.92074">
        <ele>1216</ele>
        <time>2019-04-17T13:47:16Z</time>
      </trkpt>
      <trkpt lat="45.97621" lon="6.92072">
        <ele>1217</ele>
        <time>2019-04-17T13:48:16Z</time>
      </trkpt>
      <trkpt lat="45.97632" lon="6.92072">
        <ele>1217</ele>
        <time>2019-04-17T13:49:16Z</time>
      </trkpt>
      <trkpt lat="45.97639" lon="6.92076">
        <ele>1218</ele>
        <time>2019-04-17T13:50:16Z</time>
      </trkpt>
      <trkpt lat="45.97657" lon="6.92092">
        <ele>1218</ele>
        <time>2019-04-17T13:51:16Z</time>
      </trkpt>
      <trkpt lat="45.97707" lon="6.92145">
        <ele>1221</ele>
        <time>2019-04-17T13:52:16Z</time>
      </trkpt>
      <trkpt lat="45.97773" lon="6.92203">
        <ele>1222</ele>
        <time>2019-04-17T13:53:16Z</time>
      </trkpt>
      <trkpt lat="45.97852" lon="6.92262">
        <ele>1224</ele>
        <time>2019-04-17T13:54:16Z</time>
      </trkpt>
      <trkpt lat="45.97913" lon="6.92299">
        <ele>1229</ele>
        <time>2019-04-17T13:55:16Z</time>
      </trkpt>
      <trkpt lat="45.97978" lon="6.92343">
        <ele>1238</ele>
        <time>2019-04-17T13:56:16Z</time>
      </trkpt>
      <trkpt lat="45.9812" lon="6.9251">
        <ele>1242</ele>
        <time>2019-04-17T13:57:16Z</time>
      </trkpt>
      <trkpt lat="45.98141" lon="6.92532">
        <ele>1244</ele>
        <time>2019-04-17T13:58:16Z</time>
      </trkpt>
      <trkpt lat="45.98172" lon="6.92559">
        <ele>1246</ele>
        <time>2019-04-17T13:59:16Z</time>
      </trkpt>
      <trkpt lat="45.98222" lon="6.92597">
        <ele>1248</ele>
        <time>2019-04-17T14:00:16Z</time>
      </trkpt>
      <trkpt lat="45.98352" lon="6.92659">
        <ele>1256</ele>
        <time>2019-04-17T14:01:16Z</time>
      </trkpt>
      <trkpt lat="45.985" lon="6.92725">
        <ele>1269</ele>
        <time>2019-04-17T14:02:16Z</time>
      </trkpt>
      <trkpt lat="45.98562" lon="6.92758">
        <ele>1271</ele>
        <time>2019-04-17T14:03:16Z</time>
      </trkpt>
      <trkpt lat="45.98609" lon="6.9278">
        <ele>1275</ele>
        <time>2019-04-17T14:04:16Z</time>
      </trkpt>
      <trkpt lat="45.98637" lon="6.92797">
        <ele>1276</ele>
        <time>2019-04-17T14:05:16Z</time>
      </trkpt>
      <trkpt lat="45.98707" lon="6.92818">
        <ele>1288</ele>
        <time>2019-04-17T14:06:16Z</time>
      </trkpt>
      <trkpt lat="45.98798" lon="6.92861">
        <ele>1303</ele>
        <time>2019-04-17T14:07:16Z</time>
      </trkpt>
      <trkpt lat="45.98834" lon="6.92868">
        <ele>1308</ele>
        <time>2019-04-17T14:08:16Z</time>
      </trkpt>
      <trkpt lat="45.989" lon="6.92874">
        <ele>1314</ele>
        <time>2019-04-17T14:09:16Z</time>
      </trkpt>
      <trkpt lat="45.98979" lon="6.92873">
        <ele>1313</ele>
        <time>2019-04-17T14:10:16Z</time>
      </trkpt>
      <trkpt lat="45.98994" lon="6.92876">
        <ele>1312</ele>
        <time>2019-04-17T14:11:16Z</time>
      </trkpt>
      <trkpt lat="45.9902" lon="6.92901">
        <ele>1311</ele>
        <time>2019-04-17T14:12:16Z</time>
      </trkpt>
      <trkpt lat="45.99031" lon="6.92905">
        <ele>1313</ele>
        <time>2019-04-17T14:13:16Z</time>
      </trkpt>
      <trkpt lat="45.9904" lon="6.92904">
        <ele>1314</ele>
        <time>2019-04-17T14:14:16Z</time>
      </trkpt>
      <trkpt lat="45.99047" lon="6.92897">
        <ele>1316</ele>
        <time>2019-04-17T14:15:16Z</time>
      </trkpt>
      <trkpt lat="45.99051" lon="6.92886">
        <ele>1318</ele>
        <time>2019-04-17T14:16:16Z</time>
      </trkpt>
      <trkpt lat="45.99052" lon="6.92869">
        <ele>1320</ele>
        <time>2019-04-17T14:17:16Z</time>
      </trkpt>
      <trkpt lat="45.99049" lon="6.92857">
        <ele>1321</ele>
        <time>2019-04-17T14:18:16Z</time>
      </trkpt>
      <trkpt lat="45.99044" lon="6.9285">
        <ele>1321</ele>
        <time>2019-04-17T14:19:16Z</time>
      </trkpt>
      <trkpt lat="45.99037" lon="6.92846">
        <ele>1321</ele>
        <time>2019-04-17T14:20:16Z</time>
      </trkpt>
      <trkpt lat="45.9899" lon="6.92835">
        <ele>1318</ele>
        <time>2019-04-17T14:21:16Z</time>
      </trkpt>
      <trkpt lat="45.98975" lon="6.92827">
        <ele>1321</ele>
        <time>2019-04-17T14:22:16Z</time>
      </trkpt>
      <trkpt lat="45.98967" lon="6.92818">
        <ele>1324</ele>
        <time>2019-04-17T14:23:16Z</time>
      </trkpt>
      <trkpt lat="45.98965" lon="6.92809">
        <ele>1327</ele>
        <time>2019-04-17T14:24:16Z</time>
      </trkpt>
      <trkpt lat="45.98965" lon="6.92797">
        <ele>1330</ele>
        <time>2019-04-17T14:25:16Z</time>
      </trkpt>
      <trkpt lat="45.98974" lon="6.92776">
        <ele>1335</ele>
        <time>2019-04-17T14:26:16Z</time>
      </trkpt>
      <trkpt lat="45.9898" lon="6.92771">
        <ele>1336</ele>
        <time>2019-04-17T14:27:16Z</time>
      </trkpt>
      <trkpt lat="45.98986" lon="6.92769">
        <ele>1335</ele>
        <time>2019-04-17T14:28:16Z</time>
      </trkpt>
      <trkpt lat="45.98994" lon="6.9277">
        <ele>1334</ele>
        <time>2019-04-17T14:29:16Z</time>
      </trkpt>
      <trkpt lat="45.99021" lon="6.9279">
        <ele>1330</ele>
        <time>2019-04-17T14:30:16Z</time>
      </trkpt>
      <trkpt lat="45.9904" lon="6.92799">
        <ele>1330</ele>
        <time>2019-04-17T14:31:16Z</time>
      </trkpt>
      <trkpt lat="45.9909" lon="6.92813">
        <ele>1333</ele>
        <time>2019-04-17T14:32:16Z</time>
      </trkpt>
      <trkpt lat="45.99099" lon="6.92813">
        <ele>1337</ele>
        <time>2019-04-17T14:33:16Z</time>
      </trkpt>
      <trkpt lat="45.99109" lon="6.92808">
        <ele>1341</ele>
        <time>2019-04-17T14:34:16Z</time>
      </trkpt>
      <trkpt lat="45.99115" lon="6.92793">
        <ele>1345</ele>
        <time>2019-04-17T14:35:16Z</time>
      </trkpt>
      <trkpt lat="45.99113" lon="6.92777">
        <ele>1346</ele>
        <time>2019-04-17T14:36:16Z</time>
      </trkpt>
      <trkpt lat="45.9911" lon="6.92769">
        <ele>1346</ele>
        <time>2019-04-17T14:37:16Z</time>
      </trkpt>
      <trkpt lat="45.99105" lon="6.92764">
        <ele>1345</ele>
        <time>2019-04-17T14:38:16Z</time>
      </trkpt>
      <trkpt lat="45.99069" lon="6.92761">
        <ele>1339</ele>
        <time>2019-04-17T14:39:16Z</time>
      </trkpt>
      <trkpt lat="45.99058" lon="6.92752">
        <ele>1340</ele>
        <time>2019-04-17T14:40:16Z</time>
      </trkpt>
      <trkpt lat="45.99042" lon="6.92731">
        <ele>1347</ele>
        <time>2019-04-17T14:41:16Z</time>
      </trkpt>
      <trkpt lat="45.99031" lon="6.92719">
        <ele>1351</ele>
        <time>2019-04-17T14:42:16Z</time>
      </trkpt>
      <trkpt lat="45.99023" lon="6.92716">
        <ele>1352</ele>
        <time>2019-04-17T14:43:16Z</time>
      </trkpt>
      <trkpt lat="45.98986" lon="6.92709">
        <ele>1355</ele>
        <time>2019-04-17T14:44:16Z</time>
      </trkpt>
      <trkpt lat="45.98967" lon="6.92712">
        <ele>1355</ele>
        <time>2019-04-17T14:45:16Z</time>
      </trkpt>
      <trkpt lat="45.98959" lon="6.92717">
        <ele>1355</ele>
        <time>2019-04-17T14:46:16Z</time>
      </trkpt>
      <trkpt lat="45.98949" lon="6.92724">
        <ele>1354</ele>
        <time>2019-04-17T14:47:16Z</time>
      </trkpt>
      <trkpt lat="45.98923" lon="6.92751">
        <ele>1350</ele>
        <time>2019-04-17T14:48:16Z</time>
      </trkpt>
      <trkpt lat="45.98915" lon="6.92756">
        <ele>1349</ele>
        <time>2019-04-17T14:49:16Z</time>
      </trkpt>
      <trkpt lat="45.98906" lon="6.92758">
        <ele>1348</ele>
        <time>2019-04-17T14:50:16Z</time>
      </trkpt>
      <trkpt lat="45.98885" lon="6.92753">
        <ele>1348</ele>
        <time>2019-04-17T14:51:16Z</time>
      </trkpt>
      <trkpt lat="45.98877" lon="6.92748">
        <ele>1349</ele>
        <time>2019-04-17T14:52:16Z</time>
      </trkpt>
      <trkpt lat="45.98871" lon="6.9274">
        <ele>1351</ele>
        <time>2019-04-17T14:53:16Z</time>
      </trkpt>
      <trkpt lat="45.98867" lon="6.92729">
        <ele>1354</ele>
        <time>2019-04-17T14:54:16Z</time>
      </trkpt>
      <trkpt lat="45.98867" lon="6.92707">
        <ele>1361</ele>
        <time>2019-04-17T14:55:16Z</time>
      </trkpt>
      <trkpt lat="45.9887" lon="6.92695">
        <ele>1365</ele>
        <time>2019-04-17T14:56:16Z</time>
      </trkpt>
      <trkpt lat="45.98875" lon="6.92686">
        <ele>1368</ele>
        <time>2019-04-17T14:57:16Z</time>
      </trkpt>
      <trkpt lat="45.98883" lon="6.92677">
        <ele>1370</ele>
        <time>2019-04-17T14:58:16Z</time>
      </trkpt>
      <trkpt lat="45.98893" lon="6.92671">
        <ele>1371</ele>
        <time>2019-04-17T14:59:16Z</time>
      </trkpt>
      <trkpt lat="45.98966" lon="6.92657">
        <ele>1373</ele>
        <time>2019-04-17T15:00:16Z</time>
      </trkpt>
      <trkpt lat="45.99032" lon="6.92657">
        <ele>1374</ele>
        <time>2019-04-17T15:01:16Z</time>
      </trkpt>
      <trkpt lat="45.99066" lon="6.92662">
        <ele>1375</ele>
        <time>2019-04-17T15:02:16Z</time>
      </trkpt>
      <trkpt lat="45.99083" lon="6.92661">
        <ele>1376</ele>
        <time>2019-04-17T15:03:16Z</time>
      </trkpt>
      <trkpt lat="45.99093" lon="6.92663">
        <ele>1377</ele>
        <time>2019-04-17T15:04:16Z</time>
      </trkpt>
      <trkpt lat="45.99123" lon="6.92684">
        <ele>1374</ele>
        <time>2019-04-17T15:05:16Z</time>
      </trkpt>
      <trkpt lat="45.99131" lon="6.92687">
        <ele>1374</ele>
        <time>2019-04-17T15:06:16Z</time>
      </trkpt>
      <trkpt lat="45.9915" lon="6.92687">
        <ele>1378</ele>
        <time>2019-04-17T15:07:16Z</time>
      </trkpt>
      <trkpt lat="45.99167" lon="6.92677">
        <ele>1384</ele>
        <time>2019-04-17T15:08:16Z</time>
      </trkpt>
      <trkpt lat="45.9918" lon="6.92674">
        <ele>1387</ele>
        <time>2019-04-17T15:09:16Z</time>
      </trkpt>
      <trkpt lat="45.99186" lon="6.92676">
        <ele>1387</ele>
        <time>2019-04-17T15:10:16Z</time>
      </trkpt>
      <trkpt lat="45.99203" lon="6.9269">
        <ele>1386</ele>
        <time>2019-04-17T15:11:16Z</time>
      </trkpt>
      <trkpt lat="45.99211" lon="6.92694">
        <ele>1386</ele>
        <time>2019-04-17T15:12:16Z</time>
      </trkpt>
      <trkpt lat="45.99226" lon="6.92694">
        <ele>1389</ele>
        <time>2019-04-17T15:13:16Z</time>
      </trkpt>
      <trkpt lat="45.99258" lon="6.92685">
        <ele>1397</ele>
        <time>2019-04-17T15:14:16Z</time>
      </trkpt>
      <trkpt lat="45.99275" lon="6.92682">
        <ele>1399</ele>
        <time>2019-04-17T15:15:16Z</time>
      </trkpt>
      <trkpt lat="45.99318" lon="6.92688">
        <ele>1403</ele>
        <time>2019-04-17T15:16:16Z</time>
      </trkpt>
      <trkpt lat="45.99391" lon="6.92685">
        <ele>1409</ele>
        <time>2019-04-17T15:17:16Z</time>
      </trkpt>
      <trkpt lat="45.99411" lon="6.92692">
        <ele>1409</ele>
        <time>2019-04-17T15:18:16Z</time>
      </trkpt>
      <trkpt lat="45.9944" lon="6.92708">
        <ele>1409</ele>
        <time>2019-04-17T15:19:16Z</time>
      </trkpt>
      <trkpt lat="45.99454" lon="6.92708">
        <ele>1410</ele>
        <time>2019-04-17T15:20:16Z</time>
      </trkpt>
      <trkpt lat="45.99498" lon="6.92687">
        <ele>1419</ele>
        <time>2019-04-17T15:21:16Z</time>
      </trkpt>
      <trkpt lat="45.99547" lon="6.9268">
        <ele>1419</ele>
        <time>2019-04-17T15:22:16Z</time>
      </trkpt>
      <trkpt lat="45.99566" lon="6.92681">
        <ele>1418</ele>
        <time>2019-04-17T15:23:16Z</time>
      </trkpt>
      <trkpt lat="45.99597" lon="6.92688">
        <ele>1416</ele>
        <time>2019-04-17T15:24:16Z</time>
      </trkpt>
      <trkpt lat="45.9961" lon="6.92687">
        <ele>1417</ele>
        <time>2019-04-17T15:25:16Z</time>
      </trkpt>
      <trkpt lat="45.99614" lon="6.92685">
        <ele>1417</ele>
        <time>2019-04-17T15:26:16Z</time>
      </trkpt>
      <trkpt lat="45.99636" lon="6.92661">
        <ele>1420</ele>
        <time>2019-04-17T15:27:16Z</time>
      </trkpt>
      <trkpt lat="45.99712" lon="6.92634">
        <ele>1426</ele>
        <time>2019-04-17T15:28:16Z</time>
      </trkpt>
      <trkpt lat="45.99744" lon="6.92608">
        <ele>1429</ele>
        <time>2019-04-17T15:29:16Z</time>
      </trkpt>
      <trkpt lat="45.9977" lon="6.92577">
        <ele>1436</ele>
        <time>2019-04-17T15:30:16Z</time>
      </trkpt>
      <trkpt lat="45.99793" lon="6.92543">
        <ele>1442</ele>
        <time>2019-04-17T15:31:16Z</time>
      </trkpt>
      <trkpt lat="45.99805" lon="6.9252">
        <ele>1443</ele>
        <time>2019-04-17T15:32:16Z</time>
      </trkpt>
      <trkpt lat="45.99827" lon="6.92469">
        <ele>1443</ele>
        <time>2019-04-17T15:33:16Z</time>
      </trkpt>
      <trkpt lat="45.99843" lon="6.92441">
        <ele>1443</ele>
        <time>2019-04-17T15:34:16Z</time>
      </trkpt>
      <trkpt lat="45.99911" lon="6.9237">
        <ele>1443</ele>
        <time>2019-04-17T15:35:16Z</time>
      </trkpt>
      <trkpt lat="45.99927" lon="6.92356">
        <ele>1443</ele>
        <time>2019-04-17T15:36:16Z</time>
      </trkpt>
      <trkpt lat="45.99937" lon="6.92348">
        <ele>1443</ele>
        <time>2019-04-17T15:37:16Z</time>
      </trkpt>
      <trkpt lat="45.99975" lon="6.92329">
        <ele>1443</ele>
        <time>2019-04-17T15:38:16Z</time>
      </trkpt>
      <trkpt lat="46.00028" lon="6.92311">
        <ele>1448</ele>
        <time>2019-04-17T15:39:16Z</time>
      </trkpt>
      <trkpt lat="46.00049" lon="6.92306">
        <ele>1450</ele>
        <time>2019-04-17T15:40:16Z</time>
      </trkpt>
      <trkpt lat="46.00138" lon="6.92298">
        <ele>1457</ele>
        <time>2019-04-17T15:41:16Z</time>
      </trkpt>
      <trkpt lat="46.00172" lon="6.92298">
        <ele>1458</ele>
        <time>2019-04-17T15:42:16Z</time>
      </trkpt>
      <trkpt lat="46.00202" lon="6.92302">
        <ele>1458</ele>
        <time>2019-04-17T15:43:16Z</time>
      </trkpt>
      <trkpt lat="46.00333" lon="6.9234">
        <ele>1462</ele>
        <time>2019-04-17T15:44:16Z</time>
      </trkpt>
      <trkpt lat="46.00378" lon="6.92356">
        <ele>1465</ele>
        <time>2019-04-17T15:45:16Z</time>
      </trkpt>
      <trkpt lat="46.00396" lon="6.92365">
        <ele>1467</ele>
        <time>2019-04-17T15:46:16Z</time>
      </trkpt>
      <trkpt lat="46.00404" lon="6.92366">
        <ele>1467</ele>
        <time>2019-04-17T15:47:16Z</time>
      </trkpt>
      <trkpt lat="46.00526" lon="6.92339">
        <ele>1455</ele>
        <time>2019-04-17T15:48:16Z</time>
      </trkpt>
      <trkpt lat="46.00622" lon="6.92322">
        <ele>1444</ele>
        <time>2019-04-17T15:49:16Z</time>
      </trkpt>
      <trkpt lat="46.00683" lon="6.92308">
        <ele>1440</ele>
        <time>2019-04-17T15:50:16Z</time>
      </trkpt>
      <trkpt lat="46.00772" lon="6.92288">
        <ele>1434</ele>
        <time>2019-04-17T15:51:16Z</time>
      </trkpt>
      <trkpt lat="46.0078" lon="6.92289">
        <ele>1434</ele>
        <time>2019-04-17T15:52:16Z</time>
      </trkpt>
      <trkpt lat="46.00798" lon="6.923">
        <ele>1433</ele>
        <time>2019-04-17T15:53:16Z</time>
      </trkpt>
      <trkpt lat="46.00833" lon="6.92331">
        <ele>1427</ele>
        <time>2019-04-17T15:54:16Z</time>
      </trkpt>
      <trkpt lat="46.00845" lon="6.92337">
        <ele>1427</ele>
        <time>2019-04-17T15:55:16Z</time>
      </trkpt>
      <trkpt lat="46.00898" lon="6.92344">
        <ele>1425</ele>
        <time>2019-04-17T15:56:16Z</time>
      </trkpt>
      <trkpt lat="46.00918" lon="6.92354">
        <ele>1423</ele>
        <time>2019-04-17T15:57:16Z</time>
      </trkpt>
      <trkpt lat="46.00949" lon="6.92376">
        <ele>1419</ele>
        <time>2019-04-17T15:58:16Z</time>
      </trkpt>
      <trkpt lat="46.00974" lon="6.92384">
        <ele>1416</ele>
        <time>2019-04-17T15:59:16Z</time>
      </trkpt>
      <trkpt lat="46.00998" lon="6.92389">
        <ele>1414</ele>
        <time>2019-04-17T16:00:16Z</time>
      </trkpt>
      <trkpt lat="46.01007" lon="6.92385">
        <ele>1414</ele>
        <time>2019-04-17T16:01:16Z</time>
      </trkpt>
      <trkpt lat="46.01016" lon="6.92378">
        <ele>1413</ele>
        <time>2019-04-17T16:02:16Z</time>
      </trkpt>
      <trkpt lat="46.01037" lon="6.92351">
        <ele>1411</ele>
        <time>2019-04-17T16:03:16Z</time>
      </trkpt>
      <trkpt lat="46.01055" lon="6.92337">
        <ele>1409</ele>
        <time>2019-04-17T16:04:16Z</time>
      </trkpt>
      <trkpt lat="46.01074" lon="6.92334">
        <ele>1408</ele>
        <time>2019-04-17T16:05:16Z</time>
      </trkpt>
      <trkpt lat="46.01117" lon="6.92332">
        <ele>1403</ele>
        <time>2019-04-17T16:06:16Z</time>
      </trkpt>
      <trkpt lat="46.01129" lon="6.92328">
        <ele>1402</ele>
        <time>2019-04-17T16:07:16Z</time>
      </trkpt>
      <trkpt lat="46.01138" lon="6.92317">
        <ele>1402</ele>
        <time>2019-04-17T16:08:16Z</time>
      </trkpt>
      <trkpt lat="46.01145" lon="6.92301">
        <ele>1401</ele>
        <time>2019-04-17T16:09:16Z</time>
      </trkpt>
      <trkpt lat="46.01156" lon="6.92257">
        <ele>1400</ele>
        <time>2019-04-17T16:10:16Z</time>
      </trkpt>
      <trkpt lat="46.01162" lon="6.92242">
        <ele>1401</ele>
        <time>2019-04-17T16:11:16Z</time>
      </trkpt>
      <trkpt lat="46.01178" lon="6.92216">
        <ele>1404</ele>
        <time>2019-04-17T16:12:16Z</time>
      </trkpt>
      <trkpt lat="46.01189" lon="6.92205">
        <ele>1405</ele>
        <time>2019-04-17T16:13:16Z</time>
      </trkpt>
      <trkpt lat="46.01202" lon="6.92197">
        <ele>1405</ele>
        <time>2019-04-17T16:14:16Z</time>
      </trkpt>
      <trkpt lat="46.01231" lon="6.92186">
        <ele>1402</ele>
        <time>2019-04-17T16:15:16Z</time>
      </trkpt>
      <trkpt lat="46.01246" lon="6.92178">
        <ele>1401</ele>
        <time>2019-04-17T16:16:16Z</time>
      </trkpt>
      <trkpt lat="46.01293" lon="6.92133">
        <ele>1398</ele>
        <time>2019-04-17T16:17:16Z</time>
      </trkpt>
      <trkpt lat="46.01332" lon="6.92105">
        <ele>1395</ele>
        <time>2019-04-17T16:18:16Z</time>
      </trkpt>
      <trkpt lat="46.01397" lon="6.92038">
        <ele>1386</ele>
        <time>2019-04-17T16:19:16Z</time>
      </trkpt>
      <trkpt lat="46.01474" lon="6.91945">
        <ele>1379</ele>
        <time>2019-04-17T16:20:16Z</time>
      </trkpt>
      <trkpt lat="46.01487" lon="6.91932">
        <ele>1377</ele>
        <time>2019-04-17T16:21:16Z</time>
      </trkpt>
      <trkpt lat="46.01499" lon="6.91924">
        <ele>1376</ele>
        <time>2019-04-17T16:22:16Z</time>
      </trkpt>
      <trkpt lat="46.0151" lon="6.91919">
        <ele>1375</ele>
        <time>2019-04-17T16:23:16Z</time>
      </trkpt>
      <trkpt lat="46.01595" lon="6.91895">
        <ele>1369</ele>
        <time>2019-04-17T16:24:16Z</time>
      </trkpt>
      <trkpt lat="46.01629" lon="6.91895">
        <ele>1368</ele>
        <time>2019-04-17T16:25:16Z</time>
      </trkpt>
      <trkpt lat="46.01676" lon="6.919">
        <ele>1367</ele>
        <time>2019-04-17T16:26:16Z</time>
      </trkpt>
      <trkpt lat="46.01688" lon="6.91904">
        <ele>1368</ele>
        <time>2019-04-17T16:27:16Z</time>
      </trkpt>
      <trkpt lat="46.01694" lon="6.9191">
        <ele>1368</ele>
        <time>2019-04-17T16:28:16Z</time>
      </trkpt>
      <trkpt lat="46.01698" lon="6.91919">
        <ele>1367</ele>
        <time>2019-04-17T16:29:16Z</time>
      </trkpt>
      <trkpt lat="46.01711" lon="6.91953">
        <ele>1364</ele>
        <time>2019-04-17T16:30:16Z</time>
      </trkpt>
      <trkpt lat="46.01718" lon="6.91965">
        <ele>1363</ele>
        <time>2019-04-17T16:31:16Z</time>
      </trkpt>
      <trkpt lat="46.01725" lon="6.91971">
        <ele>1362</ele>
        <time>2019-04-17T16:32:16Z</time>
      </trkpt>
      <trkpt lat="46.01866" lon="6.91969">
        <ele>1351</ele>
        <time>2019-04-17T16:33:16Z</time>
      </trkpt>
      <trkpt lat="46.01921" lon="6.91965">
        <ele>1344</ele>
        <time>2019-04-17T16:34:16Z</time>
      </trkpt>
      <trkpt lat="46.01985" lon="6.91934">
        <ele>1340</ele>
        <time>2019-04-17T16:35:16Z</time>
      </trkpt>
      <trkpt lat="46.01997" lon="6.91926">
        <ele>1339</ele>
        <time>2019-04-17T16:36:16Z</time>
      </trkpt>
      <trkpt lat="46.02004" lon="6.91918">
        <ele>1339</ele>
        <time>2019-04-17T16:37:16Z</time>
      </trkpt>
      <trkpt lat="46.02017" lon="6.91891">
        <ele>1338</ele>
        <time>2019-04-17T16:38:16Z</time>
      </trkpt>
      <trkpt lat="46.0204" lon="6.91831">
        <ele>1338</ele>
        <time>2019-04-17T16:39:16Z</time>
      </trkpt>
      <trkpt lat="46.02045" lon="6.91825">
        <ele>1339</ele>
        <time>2019-04-17T16:40:16Z</time>
      </trkpt>
      <trkpt lat="46.02058" lon="6.91821">
        <ele>1338</ele>
        <time>2019-04-17T16:41:16Z</time>
      </trkpt>
      <trkpt lat="46.02084" lon="6.91822">
        <ele>1337</ele>
        <time>2019-04-17T16:42:16Z</time>
      </trkpt>
      <trkpt lat="46.02094" lon="6.91826">
        <ele>1337</ele>
        <time>2019-04-17T16:43:16Z</time>
      </trkpt>
      <trkpt lat="46.02152" lon="6.91869">
        <ele>1332</ele>
        <time>2019-04-17T16:44:16Z</time>
      </trkpt>
      <trkpt lat="46.02169" lon="6.91879">
        <ele>1330</ele>
        <time>2019-04-17T16:45:16Z</time>
      </trkpt>
      <trkpt lat="46.02211" lon="6.91897">
        <ele>1328</ele>
        <time>2019-04-17T16:46:16Z</time>
      </trkpt>
      <trkpt lat="46.0226" lon="6.91921">
        <ele>1325</ele>
        <time>2019-04-17T16:47:16Z</time>
      </trkpt>
      <trkpt lat="46.02332" lon="6.91972">
        <ele>1320</ele>
        <time>2019-04-17T16:48:16Z</time>
      </trkpt>
      <trkpt lat="46.0235" lon="6.91988">
        <ele>1318</ele>
        <time>2019-04-17T16:49:16Z</time>
      </trkpt>
      <trkpt lat="46.02527" lon="6.92178">
        <ele>1309</ele>
        <time>2019-04-17T16:50:16Z</time>
      </trkpt>
      <trkpt lat="46.02551" lon="6.92223">
        <ele>1306</ele>
        <time>2019-04-17T16:51:16Z</time>
      </trkpt>
      <trkpt lat="46.02628" lon="6.92413">
        <ele>1303</ele>
        <time>2019-04-17T16:52:16Z</time>
      </trkpt>
      <trkpt lat="46.02636" lon="6.92429">
        <ele>1303</ele>
        <time>2019-04-17T16:53:16Z</time>
      </trkpt>
      <trkpt lat="46.02647" lon="6.92445">
        <ele>1303</ele>
        <time>2019-04-17T16:54:16Z</time>
      </trkpt>
      <trkpt lat="46.02684" lon="6.92494">
        <ele>1303</ele>
        <time>2019-04-17T16:55:16Z</time>
      </trkpt>
      <trkpt lat="46.02697" lon="6.92515">
        <ele>1303</ele>
        <time>2019-04-17T16:56:16Z</time>
      </trkpt>
      <trkpt lat="46.027" lon="6.92523">
        <ele>1303</ele>
        <time>2019-04-17T16:57:16Z</time>
      </trkpt>
      <trkpt lat="46.02717" lon="6.92534">
        <ele>1304</ele>
        <time>2019-04-17T16:58:16Z</time>
      </trkpt>
      <trkpt lat="46.02753" lon="6.92576">
        <ele>1304</ele>
        <time>2019-04-17T16:59:16Z</time>
      </trkpt>
      <trkpt lat="46.02778" lon="6.9261">
        <ele>1304</ele>
        <time>2019-04-17T17:00:16Z</time>
      </trkpt>
      <trkpt lat="46.02784" lon="6.92615">
        <ele>1304</ele>
        <time>2019-04-17T17:01:16Z</time>
      </trkpt>
      <trkpt lat="46.02805" lon="6.92619">
        <ele>1305</ele>
        <time>2019-04-17T17:02:16Z</time>
      </trkpt>
      <trkpt lat="46.0282" lon="6.92626">
        <ele>1305</ele>
        <time>2019-04-17T17:03:16Z</time>
      </trkpt>
      <trkpt lat="46.0284" lon="6.92624">
        <ele>1306</ele>
        <time>2019-04-17T17:04:16Z</time>
      </trkpt>
      <trkpt lat="46.02848" lon="6.92627">
        <ele>1306</ele>
        <time>2019-04-17T17:05:16Z</time>
      </trkpt>
      <trkpt lat="46.02857" lon="6.92634">
        <ele>1305</ele>
        <time>2019-04-17T17:06:16Z</time>
      </trkpt>
      <trkpt lat="46.02886" lon="6.92666">
        <ele>1300</ele>
        <time>2019-04-17T17:07:16Z</time>
      </trkpt>
      <trkpt lat="46.02901" lon="6.92679">
        <ele>1298</ele>
        <time>2019-04-17T17:08:16Z</time>
      </trkpt>
      <trkpt lat="46.02914" lon="6.92695">
        <ele>1296</ele>
        <time>2019-04-17T17:09:16Z</time>
      </trkpt>
      <trkpt lat="46.02941" lon="6.92738">
        <ele>1292</ele>
        <time>2019-04-17T17:10:16Z</time>
      </trkpt>
      <trkpt lat="46.02973" lon="6.9278">
        <ele>1289</ele>
        <time>2019-04-17T17:11:16Z</time>
      </trkpt>
      <trkpt lat="46.03035" lon="6.92821">
        <ele>1287</ele>
        <time>2019-04-17T17:12:16Z</time>
      </trkpt>
      <trkpt lat="46.03038" lon="6.92825">
        <ele>1287</ele>
        <time>2019-04-17T17:13:16Z</time>
      </trkpt>
      <trkpt lat="46.03055" lon="6.92829">
        <ele>1288</ele>
        <time>2019-04-17T17:14:16Z</time>
      </trkpt>
      <trkpt lat="46.03062" lon="6.92835">
        <ele>1288</ele>
        <time>2019-04-17T17:15:16Z</time>
      </trkpt>
      <trkpt lat="46.03069" lon="6.92843">
        <ele>1287</ele>
        <time>2019-04-17T17:16:16Z</time>
      </trkpt>
      <trkpt lat="46.0311" lon="6.92908">
        <ele>1283</ele>
        <time>2019-04-17T17:17:16Z</time>
      </trkpt>
      <trkpt lat="46.03147" lon="6.92946">
        <ele>1281</ele>
        <time>2019-04-17T17:18:16Z</time>
      </trkpt>
      <trkpt lat="46.03174" lon="6.9297">
        <ele>1279</ele>
        <time>2019-04-17T17:19:16Z</time>
      </trkpt>
      <trkpt lat="46.0319" lon="6.92977">
        <ele>1280</ele>
        <time>2019-04-17T17:20:16Z</time>
      </trkpt>
      <trkpt lat="46.03213" lon="6.9298">
        <ele>1283</ele>
        <time>2019-04-17T17:21:16Z</time>
      </trkpt>
      <trkpt lat="46.03223" lon="6.92984">
        <ele>1283</ele>
        <time>2019-04-17T17:22:16Z</time>
      </trkpt>
      <trkpt lat="46.03285" lon="6.93023">
        <ele>1283</ele>
        <time>2019-04-17T17:23:16Z</time>
      </trkpt>
      <trkpt lat="46.03299" lon="6.93034">
        <ele>1282</ele>
        <time>2019-04-17T17:24:16Z</time>
      </trkpt>
      <trkpt lat="46.03307" lon="6.93044">
        <ele>1281</ele>
        <time>2019-04-17T17:25:16Z</time>
      </trkpt>
      <trkpt lat="46.03312" lon="6.93056">
        <ele>1279</ele>
        <time>2019-04-17T17:26:16Z</time>
      </trkpt>
      <trkpt lat="46.03341" lon="6.93146">
        <ele>1268</ele>
        <time>2019-04-17T17:27:16Z</time>
      </trkpt>
      <trkpt lat="46.0335" lon="6.93167">
        <ele>1266</ele>
        <time>2019-04-17T17:28:16Z</time>
      </trkpt>
      <trkpt lat="46.03361" lon="6.93183">
        <ele>1266</ele>
        <time>2019-04-17T17:29:16Z</time>
      </trkpt>
      <trkpt lat="46.03466" lon="6.933">
        <ele>1261</ele>
        <time>2019-04-17T17:30:16Z</time>
      </trkpt>
      <trkpt lat="46.03472" lon="6.93308">
        <ele>1261</ele>
        <time>2019-04-17T17:31:16Z</time>
      </trkpt>
      <trkpt lat="46.03482" lon="6.93336">
        <ele>1259</ele>
        <time>2019-04-17T17:32:16Z</time>
      </trkpt>
      <trkpt lat="46.0351" lon="6.93429">
        <ele>1255</ele>
        <time>2019-04-17T17:33:16Z</time>
      </trkpt>
      <trkpt lat="46.03527" lon="6.93474">
        <ele>1256</ele>
        <time>2019-04-17T17:34:16Z</time>
      </trkpt>
      <trkpt lat="46.0358" lon="6.93589">
        <ele>1257</ele>
        <time>2019-04-17T17:35:16Z</time>
      </trkpt>
      <trkpt lat="46.03593" lon="6.93607">
        <ele>1259</ele>
        <time>2019-04-17T17:36:16Z</time>
      </trkpt>
      <trkpt lat="46.03669" lon="6.93648">
        <ele>1255</ele>
        <time>2019-04-17T17:37:16Z</time>
      </trkpt>
      <trkpt lat="46.03695" lon="6.93659">
        <ele>1254</ele>
        <time>2019-04-17T17:38:16Z</time>
      </trkpt>
      <trkpt lat="46.03724" lon="6.9367">
        <ele>1253</ele>
        <time>2019-04-17T17:39:16Z</time>
      </trkpt>
      <trkpt lat="46.03797" lon="6.93688">
        <ele>1251</ele>
        <time>2019-04-17T17:40:16Z</time>
      </trkpt>
      <trkpt lat="46.03816" lon="6.9369">
        <ele>1250</ele>
        <time>2019-04-17T17:41:16Z</time>
      </trkpt>
      <trkpt lat="46.03865" lon="6.93717">
        <ele>1248</ele>
        <time>2019-04-17T17:42:16Z</time>
      </trkpt>
      <trkpt lat="46.03917" lon="6.93735">
        <ele>1243</ele>
        <time>2019-04-17T17:43:16Z</time>
      </trkpt>
      <trkpt lat="46.03927" lon="6.93749">
        <ele>1242</ele>
        <time>2019-04-17T17:44:16Z</time>
      </trkpt>
      <trkpt lat="46.03939" lon="6.93778">
        <ele>1246</ele>
        <time>2019-04-17T17:45:16Z</time>
      </trkpt>
      <trkpt lat="46.03952" lon="6.93793">
        <ele>1247</ele>
        <time>2019-04-17T17:46:16Z</time>
      </trkpt>
      <trkpt lat="46.03987" lon="6.93804">
        <ele>1246</ele>
        <time>2019-04-17T17:47:16Z</time>
      </trkpt>
      <trkpt lat="46.04018" lon="6.93826">
        <ele>1245</ele>
        <time>2019-04-17T17:48:16Z</time>
      </trkpt>
      <trkpt lat="46.04055" lon="6.93839">
        <ele>1246</ele>
        <time>2019-04-17T17:49:16Z</time>
      </trkpt>
      <trkpt lat="46.04065" lon="6.93847">
        <ele>1247</ele>
        <time>2019-04-17T17:50:16Z</time>
      </trkpt>
      <trkpt lat="46.04095" lon="6.93888">
        <ele>1248</ele>
        <time>2019-04-17T17:51:16Z</time>
      </trkpt>
      <trkpt lat="46.04124" lon="6.93909">
        <ele>1245</ele>
        <time>2019-04-17T17:52:16Z</time>
      </trkpt>
      <trkpt lat="46.04169" lon="6.9393">
        <ele>1242</ele>
        <time>2019-04-17T17:53:16Z</time>
      </trkpt>
      <trkpt lat="46.04197" lon="6.93937">
        <ele>1240</ele>
        <time>2019-04-17T17:54:16Z</time>
      </trkpt>
      <trkpt lat="46.04218" lon="6.93938">
        <ele>1239</ele>
        <time>2019-04-17T17:55:16Z</time>
      </trkpt>
      <trkpt lat="46.04226" lon="6.93941">
        <ele>1238</ele>
        <time>2019-04-17T17:56:16Z</time>
      </trkpt>
      <trkpt lat="46.04235" lon="6.93953">
        <ele>1238</ele>
        <time>2019-04-17T17:57:16Z</time>
      </trkpt>
      <trkpt lat="46.0425" lon="6.93981">
        <ele>1235</ele>
        <time>2019-04-17T17:58:16Z</time>
      </trkpt>
      <trkpt lat="46.0426" lon="6.93988">
        <ele>1234</ele>
        <time>2019-04-17T17:59:16Z</time>
      </trkpt>
      <trkpt lat="46.04276" lon="6.93992">
        <ele>1233</ele>
        <time>2019-04-17T18:00:16Z</time>
      </trkpt>
      <trkpt lat="46.04318" lon="6.94005">
        <ele>1229</ele>
        <time>2019-04-17T18:01:16Z</time>
      </trkpt>
      <trkpt lat="46.04443" lon="6.94059">
        <ele>1214</ele>
        <time>2019-04-17T18:02:16Z</time>
      </trkpt>
      <trkpt lat="46.04522" lon="6.94118">
        <ele>1198</ele>
        <time>2019-04-17T18:03:16Z</time>
      </trkpt>
      <trkpt lat="46.04607" lon="6.94149">
        <ele>1194</ele>
        <time>2019-04-17T18:04:16Z</time>
      </trkpt>
      <trkpt lat="46.04664" lon="6.94182">
        <ele>1190</ele>
        <time>2019-04-17T18:05:16Z</time>
      </trkpt>
      <trkpt lat="46.04724" lon="6.94221">
        <ele>1185</ele>
        <time>2019-04-17T18:06:16Z</time>
      </trkpt>
      <trkpt lat="46.04742" lon="6.94237">
        <ele>1183</ele>
        <time>2019-04-17T18:07:16Z</time>
      </trkpt>
      <trkpt lat="46.04763" lon="6.94259">
        <ele>1183</ele>
        <time>2019-04-17T18:08:16Z</time>
      </trkpt>
      <trkpt lat="46.0478" lon="6.94271">
        <ele>1184</ele>
        <time>2019-04-17T18:09:16Z</time>
      </trkpt>
      <trkpt lat="46.04818" lon="6.94293">
        <ele>1181</ele>
        <time>2019-04-17T18:10:16Z</time>
      </trkpt>
      <trkpt lat="46.04837" lon="6.94312">
        <ele>1180</ele>
        <time>2019-04-17T18:11:16Z</time>
      </trkpt>
      <trkpt lat="46.04946" lon="6.94431">
        <ele>1164</ele>
        <time>2019-04-17T18:12:16Z</time>
      </trkpt>
      <trkpt lat="46.04957" lon="6.94445">
        <ele>1163</ele>
        <time>2019-04-17T18:13:16Z</time>
      </trkpt>
      <trkpt lat="46.05002" lon="6.94518">
        <ele>1159</ele>
        <time>2019-04-17T18:14:16Z</time>
      </trkpt>
      <trkpt lat="46.05013" lon="6.94532">
        <ele>1160</ele>
        <time>2019-04-17T18:15:16Z</time>
      </trkpt>
      <trkpt lat="46.05027" lon="6.94547">
        <ele>1159</ele>
        <time>2019-04-17T18:16:16Z</time>
      </trkpt>
      <trkpt lat="46.05069" lon="6.94581">
        <ele>1149</ele>
        <time>2019-04-17T18:17:16Z</time>
      </trkpt>
      <trkpt lat="46.05079" lon="6.94596">
        <ele>1145</ele>
        <time>2019-04-17T18:18:16Z</time>
      </trkpt>
      <trkpt lat="46.0509" lon="6.94645">
        <ele>1144</ele>
        <time>2019-04-17T18:19:16Z</time>
      </trkpt>
      <trkpt lat="46.05112" lon="6.94701">
        <ele>1143</ele>
        <time>2019-04-17T18:20:16Z</time>
      </trkpt>
      <trkpt lat="46.05115" lon="6.94712">
        <ele>1142</ele>
        <time>2019-04-17T18:21:16Z</time>
      </trkpt>
      <trkpt lat="46.05115" lon="6.94723">
        <ele>1141</ele>
        <time>2019-04-17T18:22:16Z</time>
      </trkpt>
      <trkpt lat="46.05105" lon="6.94765">
        <ele>1137</ele>
        <time>2019-04-17T18:23:16Z</time>
      </trkpt>
      <trkpt lat="46.05105" lon="6.94789">
        <ele>1137</ele>
        <time>2019-04-17T18:24:16Z</time>
      </trkpt>
      <trkpt lat="46.05109" lon="6.94802">
        <ele>1136</ele>
        <time>2019-04-17T18:25:16Z</time>
      </trkpt>
      <trkpt lat="46.05134" lon="6.94829">
        <ele>1132</ele>
        <time>2019-04-17T18:26:16Z</time>
      </trkpt>
      <trkpt lat="46.05153" lon="6.94863">
        <ele>1127</ele>
        <time>2019-04-17T18:27:16Z</time>
      </trkpt>
      <trkpt lat="46.05167" lon="6.94878">
        <ele>1124</ele>
        <time>2019-04-17T18:28:16Z</time>
      </trkpt>
      <trkpt lat="46.05203" lon="6.94904">
        <ele>1123</ele>
        <time>2019-04-17T18:29:16Z</time>
      </trkpt>
      <trkpt lat="46.05257" lon="6.94969">
        <ele>1120</ele>
        <time>2019-04-17T18:30:16Z</time>
      </trkpt>
      <trkpt lat="46.05307" lon="6.95045">
        <ele>1123</ele>
        <time>2019-04-17T18:31:16Z</time>
      </trkpt>
      <trkpt lat="46.05513" lon="6.95361">
        <ele>1128</ele>
        <time>2019-04-17T18:32:16Z</time>
      </trkpt>
      <trkpt lat="46.05541" lon="6.95408">
        <ele>1130</ele>
        <time>2019-04-17T18:33:16Z</time>
      </trkpt>
      <trkpt lat="46.0557" lon="6.95469">
        <ele>1132</ele>
        <time>2019-04-17T18:34:16Z</time>
      </trkpt>
      <trkpt lat="46.05619" lon="6.95581">
        <ele>1134</ele>
        <time>2019-04-17T18:35:16Z</time>
      </trkpt>
      <trkpt lat="46.05666" lon="6.95641">
        <ele>1124</ele>
        <time>2019-04-17T18:36:16Z</time>
      </trkpt>
      <trkpt lat="46.05724" lon="6.95693">
        <ele>1123</ele>
        <time>2019-04-17T18:37:16Z</time>
      </trkpt>
      <trkpt lat="46.05771" lon="6.95755">
        <ele>1119</ele>
        <time>2019-04-17T18:38:16Z</time>
      </trkpt>
      <trkpt lat="46.05829" lon="6.95856">
        <ele>1115</ele>
        <time>2019-04-17T18:39:16Z</time>
      </trkpt>
      <trkpt lat="46.05864" lon="6.95927">
        <ele>1112</ele>
        <time>2019-04-17T18:40:16Z</time>
      </trkpt>
      <trkpt lat="46.05936" lon="6.96126">
        <ele>1117</ele>
        <time>2019-04-17T18:41:16Z</time>
      </trkpt>
      <trkpt lat="46.05972" lon="6.96179">
        <ele>1112</ele>
        <time>2019-04-17T18:42:16Z</time>
      </trkpt>
      <trkpt lat="46.06036" lon="6.96262">
        <ele>1104</ele>
        <time>2019-04-17T18:43:16Z</time>
      </trkpt>
      <trkpt lat="46.0611" lon="6.96387">
        <ele>1108</ele>
        <time>2019-04-17T18:44:16Z</time>
      </trkpt>
      <trkpt lat="46.06161" lon="6.96449">
        <ele>1111</ele>
        <time>2019-04-17T18:45:16Z</time>
      </trkpt>
      <trkpt lat="46.06177" lon="6.96461">
        <ele>1114</ele>
        <time>2019-04-17T18:46:16Z</time>
      </trkpt>
      <trkpt lat="46.06241" lon="6.96518">
        <ele>1127</ele>
        <time>2019-04-17T18:47:16Z</time>
      </trkpt>
      <trkpt lat="46.06386" lon="6.96579">
        <ele>1130</ele>
        <time>2019-04-17T18:48:16Z</time>
      </trkpt>
      <trkpt lat="46.06463" lon="6.96633">
        <ele>1135</ele>
        <time>2019-04-17T18:49:16Z</time>
      </trkpt>
      <trkpt lat="46.06534" lon="6.96699">
        <ele>1148</ele>
        <time>2019-04-17T18:50:16Z</time>
      </trkpt>
      <trkpt lat="46.067" lon="6.96828">
        <ele>1160</ele>
        <time>2019-04-17T18:51:16Z</time>
      </trkpt>
      <trkpt lat="46.06738" lon="6.96861">
        <ele>1159</ele>
        <time>2019-04-17T18:52:16Z</time>
      </trkpt>
      <trkpt lat="46.06764" lon="6.96897">
        <ele>1163</ele>
        <time>2019-04-17T18:53:16Z</time>
      </trkpt>
      <trkpt lat="46.06771" lon="6.96911">
        <ele>1165</ele>
        <time>2019-04-17T18:54:16Z</time>
      </trkpt>
      <trkpt lat="46.06814" lon="6.97006">
        <ele>1191</ele>
        <time>2019-04-17T18:55:16Z</time>
      </trkpt>
      <trkpt lat="46.06922" lon="6.97261">
        <ele>1266</ele>
        <time>2019-04-17T18:56:16Z</time>
      </trkpt>
      <trkpt lat="46.0697" lon="6.97342">
        <ele>1229</ele>
        <time>2019-04-17T18:57:16Z</time>
      </trkpt>
      <trkpt lat="46.07009" lon="6.9738">
        <ele>1203</ele>
        <time>2019-04-17T18:58:16Z</time>
      </trkpt>
      <trkpt lat="46.07065" lon="6.97416">
        <ele>1185</ele>
        <time>2019-04-17T18:59:16Z</time>
      </trkpt>
      <trkpt lat="46.07086" lon="6.97434">
        <ele>1183</ele>
        <time>2019-04-17T19:00:16Z</time>
      </trkpt>
      <trkpt lat="46.07103" lon="6.97452">
        <ele>1184</ele>
        <time>2019-04-17T19:01:16Z</time>
      </trkpt>
      <trkpt lat="46.07117" lon="6.97471">
        <ele>1187</ele>
        <time>2019-04-17T19:02:16Z</time>
      </trkpt>
      <trkpt lat="46.07126" lon="6.97489">
        <ele>1192</ele>
        <time>2019-04-17T19:03:16Z</time>
      </trkpt>
      <trkpt lat="46.07143" lon="6.97543">
        <ele>1201</ele>
        <time>2019-04-17T19:04:16Z</time>
      </trkpt>
      <trkpt lat="46.07145" lon="6.97561">
        <ele>1204</ele>
        <time>2019-04-17T19:05:16Z</time>
      </trkpt>
      <trkpt lat="46.07145" lon="6.976">
        <ele>1204</ele>
        <time>2019-04-17T19:06:16Z</time>
      </trkpt>
      <trkpt lat="46.07138" lon="6.97644">
        <ele>1198</ele>
        <time>2019-04-17T19:07:16Z</time>
      </trkpt>
      <trkpt lat="46.07123" lon="6.97688">
        <ele>1199</ele>
        <time>2019-04-17T19:08:16Z</time>
      </trkpt>
      <trkpt lat="46.07104" lon="6.97718">
        <ele>1206</ele>
        <time>2019-04-17T19:09:16Z</time>
      </trkpt>
      <trkpt lat="46.0708" lon="6.97749">
        <ele>1218</ele>
        <time>2019-04-17T19:10:16Z</time>
      </trkpt>
      <trkpt lat="46.07023" lon="6.97814">
        <ele>1237</ele>
        <time>2019-04-17T19:11:16Z</time>
      </trkpt>
      <trkpt lat="46.06992" lon="6.97869">
        <ele>1229</ele>
        <time>2019-04-17T19:12:16Z</time>
      </trkpt>
      <trkpt lat="46.06959" lon="6.97951">
        <ele>1218</ele>
        <time>2019-04-17T19:13:16Z</time>
      </trkpt>
      <trkpt lat="46.06921" lon="6.98028">
        <ele>1220</ele>
        <time>2019-04-17T19:14:16Z</time>
      </trkpt>
      <trkpt lat="46.06825" lon="6.98201">
        <ele>1230</ele>
        <time>2019-04-17T19:15:16Z</time>
      </trkpt>
      <trkpt lat="46.06787" lon="6.98291">
        <ele>1237</ele>
        <time>2019-04-17T19:16:16Z</time>
      </trkpt>
      <trkpt lat="46.06747" lon="6.98399">
        <ele>1232</ele>
        <time>2019-04-17T19:17:16Z</time>
      </trkpt>
      <trkpt lat="46.06711" lon="6.98464">
        <ele>1249</ele>
        <time>2019-04-17T19:18:16Z</time>
      </trkpt>
      <trkpt lat="46.06671" lon="6.98515">
        <ele>1247</ele>
        <time>2019-04-17T19:19:16Z</time>
      </trkpt>
      <trkpt lat="46.06647" lon="6.9855">
        <ele>1258</ele>
        <time>2019-04-17T19:20:16Z</time>
      </trkpt>
      <trkpt lat="46.06629" lon="6.98582">
        <ele>1263</ele>
        <time>2019-04-17T19:21:16Z</time>
      </trkpt>
      <trkpt lat="46.06525" lon="6.98805">
        <ele>1266</ele>
        <time>2019-04-17T19:22:16Z</time>
      </trkpt>
      <trkpt lat="46.06501" lon="6.98841">
        <ele>1257</ele>
        <time>2019-04-17T19:23:16Z</time>
      </trkpt>
      <trkpt lat="46.06452" lon="6.98893">
        <ele>1268</ele>
        <time>2019-04-17T19:24:16Z</time>
      </trkpt>
      <trkpt lat="46.06311" lon="6.98986">
        <ele>1274</ele>
        <time>2019-04-17T19:25:16Z</time>
      </trkpt>
      <trkpt lat="46.06271" lon="6.99017">
        <ele>1276</ele>
        <time>2019-04-17T19:26:16Z</time>
      </trkpt>
      <trkpt lat="46.06215" lon="6.99066">
        <ele>1282</ele>
        <time>2019-04-17T19:27:16Z</time>
      </trkpt>
      <trkpt lat="46.06193" lon="6.99089">
        <ele>1285</ele>
        <time>2019-04-17T19:28:16Z</time>
      </trkpt>
      <trkpt lat="46.06044" lon="6.99277">
        <ele>1280</ele>
        <time>2019-04-17T19:29:16Z</time>
      </trkpt>
      <trkpt lat="46.0602" lon="6.99298">
        <ele>1281</ele>
        <time>2019-04-17T19:30:16Z</time>
      </trkpt>
      <trkpt lat="46.05926" lon="6.99338">
        <ele>1282</ele>
        <time>2019-04-17T19:31:16Z</time>
      </trkpt>
      <trkpt lat="46.05674" lon="6.99599">
        <ele>1298</ele>
        <time>2019-04-17T19:32:16Z</time>
      </trkpt>
      <trkpt lat="46.05662" lon="6.99605">
        <ele>1299</ele>
        <time>2019-04-17T19:33:16Z</time>
      </trkpt>
      <trkpt lat="46.05641" lon="6.99608">
        <ele>1302</ele>
        <time>2019-04-17T19:34:16Z</time>
      </trkpt>
      <trkpt lat="46.05606" lon="6.99603">
        <ele>1306</ele>
        <time>2019-04-17T19:35:16Z</time>
      </trkpt>
      <trkpt lat="46.05586" lon="6.99604">
        <ele>1309</ele>
        <time>2019-04-17T19:36:16Z</time>
      </trkpt>
      <trkpt lat="46.05501" lon="6.99629">
        <ele>1317</ele>
        <time>2019-04-17T19:37:16Z</time>
      </trkpt>
      <trkpt lat="46.05471" lon="6.99632">
        <ele>1320</ele>
        <time>2019-04-17T19:38:16Z</time>
      </trkpt>
      <trkpt lat="46.05313" lon="6.99602">
        <ele>1329</ele>
        <time>2019-04-17T19:39:16Z</time>
      </trkpt>
      <trkpt lat="46.05276" lon="6.99602">
        <ele>1329</ele>
        <time>2019-04-17T19:40:16Z</time>
      </trkpt>
      <trkpt lat="46.05259" lon="6.99606">
        <ele>1330</ele>
        <time>2019-04-17T19:41:16Z</time>
      </trkpt>
      <trkpt lat="46.05231" lon="6.9962">
        <ele>1334</ele>
        <time>2019-04-17T19:42:16Z</time>
      </trkpt>
      <trkpt lat="46.05143" lon="6.99679">
        <ele>1353</ele>
        <time>2019-04-17T19:43:16Z</time>
      </trkpt>
      <trkpt lat="46.05114" lon="6.99688">
        <ele>1358</ele>
        <time>2019-04-17T19:44:16Z</time>
      </trkpt>
      <trkpt lat="46.05062" lon="6.99685">
        <ele>1361</ele>
        <time>2019-04-17T19:45:16Z</time>
      </trkpt>
      <trkpt lat="46.05029" lon="6.99676">
        <ele>1361</ele>
        <time>2019-04-17T19:46:16Z</time>
      </trkpt>
      <trkpt lat="46.05006" lon="6.99679">
        <ele>1366</ele>
        <time>2019-04-17T19:47:16Z</time>
      </trkpt>
      <trkpt lat="46.04972" lon="6.99699">
        <ele>1378</ele>
        <time>2019-04-17T19:48:16Z</time>
      </trkpt>
      <trkpt lat="46.04951" lon="6.99708">
        <ele>1383</ele>
        <time>2019-04-17T19:49:16Z</time>
      </trkpt>
      <trkpt lat="46.04926" lon="6.99711">
        <ele>1385</ele>
        <time>2019-04-17T19:50:16Z</time>
      </trkpt>
      <trkpt lat="46.04861" lon="6.99707">
        <ele>1382</ele>
        <time>2019-04-17T19:51:16Z</time>
      </trkpt>
      <trkpt lat="46.0477" lon="6.99723">
        <ele>1394</ele>
        <time>2019-04-17T19:52:16Z</time>
      </trkpt>
      <trkpt lat="46.04709" lon="6.9972">
        <ele>1393</ele>
        <time>2019-04-17T19:53:16Z</time>
      </trkpt>
      <trkpt lat="46.0467" lon="6.99724">
        <ele>1395</ele>
        <time>2019-04-17T19:54:16Z</time>
      </trkpt>
      <trkpt lat="46.04558" lon="6.99752">
        <ele>1402</ele>
        <time>2019-04-17T19:55:16Z</time>
      </trkpt>
      <trkpt lat="46.04537" lon="6.99753">
        <ele>1402</ele>
        <time>2019-04-17T19:56:16Z</time>
      </trkpt>
      <trkpt lat="46.04513" lon="6.99749">
        <ele>1401</ele>
        <time>2019-04-17T19:57:16Z</time>
      </trkpt>
      <trkpt lat="46.04508" lon="6.9975">
        <ele>1401</ele>
        <time>2019-04-17T19:58:16Z</time>
      </trkpt>
      <trkpt lat="46.04503" lon="6.99755">
        <ele>1403</ele>
        <time>2019-04-17T19:59:16Z</time>
      </trkpt>
      <trkpt lat="46.045" lon="6.99762">
        <ele>1406</ele>
        <time>2019-04-17T20:00:16Z</time>
      </trkpt>
      <trkpt lat="46.045" lon="6.99767">
        <ele>1409</ele>
        <time>2019-04-17T20:01:16Z</time>
      </trkpt>
      <trkpt lat="46.04503" lon="6.99776">
        <ele>1413</ele>
        <time>2019-04-17T20:02:16Z</time>
      </trkpt>
      <trkpt lat="46.04511" lon="6.99781">
        <ele>1415</ele>
        <time>2019-04-17T20:03:16Z</time>
      </trkpt>
      <trkpt lat="46.04568" lon="6.99771">
        <ele>1411</ele>
        <time>2019-04-17T20:04:16Z</time>
      </trkpt>
      <trkpt lat="46.04626" lon="6.99772">
        <ele>1416</ele>
        <time>2019-04-17T20:05:16Z</time>
      </trkpt>
      <trkpt lat="46.04675" lon="6.9978">
        <ele>1425</ele>
        <time>2019-04-17T20:06:16Z</time>
      </trkpt>
      <trkpt lat="46.0471" lon="6.99789">
        <ele>1431</ele>
        <time>2019-04-17T20:07:16Z</time>
      </trkpt>
      <trkpt lat="46.04826" lon="6.99829">
        <ele>1448</ele>
        <time>2019-04-17T20:08:16Z</time>
      </trkpt>
      <trkpt lat="46.04901" lon="6.99861">
        <ele>1459</ele>
        <time>2019-04-17T20:09:16Z</time>
      </trkpt>
      <trkpt lat="46.04915" lon="6.99864">
        <ele>1459</ele>
        <time>2019-04-17T20:10:16Z</time>
      </trkpt>
      <trkpt lat="46.04955" lon="6.99851">
        <ele>1449</ele>
        <time>2019-04-17T20:11:16Z</time>
      </trkpt>
      <trkpt lat="46.0496" lon="6.99852">
        <ele>1449</ele>
        <time>2019-04-17T20:12:16Z</time>
      </trkpt>
      <trkpt lat="46.04973" lon="6.99857">
        <ele>1451</ele>
        <time>2019-04-17T20:13:16Z</time>
      </trkpt>
      <trkpt lat="46.0498" lon="6.99863">
        <ele>1453</ele>
        <time>2019-04-17T20:14:16Z</time>
      </trkpt>
      <trkpt lat="46.04995" lon="6.99881">
        <ele>1461</ele>
        <time>2019-04-17T20:15:16Z</time>
      </trkpt>
      <trkpt lat="46.05011" lon="6.99894">
        <ele>1466</ele>
        <time>2019-04-17T20:16:16Z</time>
      </trkpt>
      <trkpt lat="46.05025" lon="6.99897">
        <ele>1467</ele>
        <time>2019-04-17T20:17:16Z</time>
      </trkpt>
      <trkpt lat="46.05072" lon="6.99888">
        <ele>1463</ele>
        <time>2019-04-17T20:18:16Z</time>
      </trkpt>
      <trkpt lat="46.05089" lon="6.99891">
        <ele>1463</ele>
        <time>2019-04-17T20:19:16Z</time>
      </trkpt>
      <trkpt lat="46.05102" lon="6.99899">
        <ele>1465</ele>
        <time>2019-04-17T20:20:16Z</time>
      </trkpt>
      <trkpt lat="46.05157" lon="6.99942">
        <ele>1480</ele>
        <time>2019-04-17T20:21:16Z</time>
      </trkpt>
      <trkpt lat="46.05177" lon="6.99954">
        <ele>1484</ele>
        <time>2019-04-17T20:22:16Z</time>
      </trkpt>
      <trkpt lat="46.05202" lon="6.99964">
        <ele>1488</ele>
        <time>2019-04-17T20:23:16Z</time>
      </trkpt>
      <trkpt lat="46.05224" lon="6.9997">
        <ele>1488</ele>
        <time>2019-04-17T20:24:16Z</time>
      </trkpt>
      <trkpt lat="46.05328" lon="6.99969">
        <ele>1486</ele>
        <time>2019-04-17T20:25:16Z</time>
      </trkpt>
      <trkpt lat="46.05364" lon="6.99983">
        <ele>1488</ele>
        <time>2019-04-17T20:26:16Z</time>
      </trkpt>
      <trkpt lat="46.05397" lon="6.9999">
        <ele>1488</ele>
        <time>2019-04-17T20:27:16Z</time>
      </trkpt>
      <trkpt lat="46.0545" lon="6.99999">
        <ele>1492</ele>
        <time>2019-04-17T20:28:16Z</time>
      </trkpt>
      <trkpt lat="46.05472" lon="6.99998">
        <ele>1493</ele>
        <time>2019-04-17T20:29:16Z</time>
      </trkpt>
      <trkpt lat="46.05538" lon="6.99988">
        <ele>1494</ele>
        <time>2019-04-17T20:30:16Z</time>
      </trkpt>
      <trkpt lat="46.05641" lon="6.99988">
        <ele>1505</ele>
        <time>2019-04-17T20:31:16Z</time>
      </trkpt>
      <trkpt lat="46.05773" lon="6.99983">
        <ele>1516</ele>
        <time>2019-04-17T20:32:16Z</time>
      </trkpt>
      <trkpt lat="46.05789" lon="6.99975">
        <ele>1517</ele>
        <time>2019-04-17T20:33:16Z</time>
      </trkpt>
      <trkpt lat="46.05812" lon="6.99952">
        <ele>1513</ele>
        <time>2019-04-17T20:34:16Z</time>
      </trkpt>
      <trkpt lat="46.05818" lon="6.99951">
        <ele>1514</ele>
        <time>2019-04-17T20:35:16Z</time>
      </trkpt>
      <trkpt lat="46.05825" lon="6.99958">
        <ele>1518</ele>
        <time>2019-04-17T20:36:16Z</time>
      </trkpt>
      <trkpt lat="46.05827" lon="6.9997">
        <ele>1523</ele>
        <time>2019-04-17T20:37:16Z</time>
      </trkpt>
      <trkpt lat="46.05773" lon="7.00109">
        <ele>1533</ele>
        <time>2019-04-17T20:38:16Z</time>
      </trkpt>
      <trkpt lat="46.05772" lon="7.00121">
        <ele>1533</ele>
        <time>2019-04-17T20:39:16Z</time>
      </trkpt>
      <trkpt lat="46.05772" lon="7.00134">
        <ele>1534</ele>
        <time>2019-04-17T20:40:16Z</time>
      </trkpt>
      <trkpt lat="46.05776" lon="7.0015">
        <ele>1535</ele>
        <time>2019-04-17T20:41:16Z</time>
      </trkpt>
      <trkpt lat="46.05785" lon="7.00164">
        <ele>1535</ele>
        <time>2019-04-17T20:42:16Z</time>
      </trkpt>
      <trkpt lat="46.05846" lon="7.00209">
        <ele>1529</ele>
        <time>2019-04-17T20:43:16Z</time>
      </trkpt>
      <trkpt lat="46.05878" lon="7.00241">
        <ele>1537</ele>
        <time>2019-04-17T20:44:16Z</time>
      </trkpt>
      <trkpt lat="46.05903" lon="7.00281">
        <ele>1534</ele>
        <time>2019-04-17T20:45:16Z</time>
      </trkpt>
      <trkpt lat="46.05956" lon="7.00378">
        <ele>1524</ele>
        <time>2019-04-17T20:46:16Z</time>
      </trkpt>
      <trkpt lat="46.05981" lon="7.00426">
        <ele>1521</ele>
        <time>2019-04-17T20:47:16Z</time>
      </trkpt>
      <trkpt lat="46.0603" lon="7.00557">
        <ele>1507</ele>
        <time>2019-04-17T20:48:16Z</time>
      </trkpt>
      <trkpt lat="46.06047" lon="7.00618">
        <ele>1504</ele>
        <time>2019-04-17T20:49:16Z</time>
      </trkpt>
      <trkpt lat="46.06065" lon="7.00685">
        <ele>1500</ele>
        <time>2019-04-17T20:50:16Z</time>
      </trkpt>
      <trkpt lat="46.06079" lon="7.00733">
        <ele>1496</ele>
        <time>2019-04-17T20:51:16Z</time>
      </trkpt>
      <trkpt lat="46.06111" lon="7.00815">
        <ele>1490</ele>
        <time>2019-04-17T20:52:16Z</time>
      </trkpt>
      <trkpt lat="46.06159" lon="7.00918">
        <ele>1484</ele>
        <time>2019-04-17T20:53:16Z</time>
      </trkpt>
      <trkpt lat="46.0621" lon="7.01017">
        <ele>1478</ele>
        <time>2019-04-17T20:54:16Z</time>
      </trkpt>
      <trkpt lat="46.06267" lon="7.01107">
        <ele>1469</ele>
        <time>2019-04-17T20:55:16Z</time>
      </trkpt>
      <trkpt lat="46.06372" lon="7.01243">
        <ele>1458</ele>
        <time>2019-04-17T20:56:16Z</time>
      </trkpt>
      <trkpt lat="46.06449" lon="7.01358">
        <ele>1450</ele>
        <time>2019-04-17T20:57:16Z</time>
      </trkpt>
      <trkpt lat="46.06593" lon="7.01538">
        <ele>1430</ele>
        <time>2019-04-17T20:58:16Z</time>
      </trkpt>
      <trkpt lat="46.06648" lon="7.01595">
        <ele>1421</ele>
        <time>2019-04-17T20:59:16Z</time>
      </trkpt>
      <trkpt lat="46.06726" lon="7.01666">
        <ele>1413</ele>
        <time>2019-04-17T21:00:16Z</time>
      </trkpt>
      <trkpt lat="46.06767" lon="7.01689">
        <ele>1412</ele>
        <time>2019-04-17T21:01:16Z</time>
      </trkpt>
      <trkpt lat="46.06833" lon="7.01712">
        <ele>1409</ele>
        <time>2019-04-17T21:02:16Z</time>
      </trkpt>
      <trkpt lat="46.06859" lon="7.01727">
        <ele>1410</ele>
        <time>2019-04-17T21:03:16Z</time>
      </trkpt>
      <trkpt lat="46.06896" lon="7.01763">
        <ele>1406</ele>
        <time>2019-04-17T21:04:16Z</time>
      </trkpt>
      <trkpt lat="46.06938" lon="7.01811">
        <ele>1395</ele>
        <time>2019-04-17T21:05:16Z</time>
      </trkpt>
      <trkpt lat="46.06955" lon="7.01826">
        <ele>1391</ele>
        <time>2019-04-17T21:06:16Z</time>
      </trkpt>
      <trkpt lat="46.07028" lon="7.01868">
        <ele>1392</ele>
        <time>2019-04-17T21:07:16Z</time>
      </trkpt>
      <trkpt lat="46.07051" lon="7.01886">
        <ele>1391</ele>
        <time>2019-04-17T21:08:16Z</time>
      </trkpt>
      <trkpt lat="46.0707" lon="7.01906">
        <ele>1389</ele>
        <time>2019-04-17T21:09:16Z</time>
      </trkpt>
      <trkpt lat="46.07107" lon="7.01968">
        <ele>1378</ele>
        <time>2019-04-17T21:10:16Z</time>
      </trkpt>
      <trkpt lat="46.07121" lon="7.01984">
        <ele>1377</ele>
        <time>2019-04-17T21:11:16Z</time>
      </trkpt>
      <trkpt lat="46.07176" lon="7.02028">
        <ele>1374</ele>
        <time>2019-04-17T21:12:16Z</time>
      </trkpt>
      <trkpt lat="46.07234" lon="7.0208">
        <ele>1363</ele>
        <time>2019-04-17T21:13:16Z</time>
      </trkpt>
      <trkpt lat="46.07271" lon="7.02097">
        <ele>1360</ele>
        <time>2019-04-17T21:14:16Z</time>
      </trkpt>
      <trkpt lat="46.07312" lon="7.02109">
        <ele>1358</ele>
        <time>2019-04-17T21:15:16Z</time>
      </trkpt>
      <trkpt lat="46.07361" lon="7.02106">
        <ele>1362</ele>
        <time>2019-04-17T21:16:16Z</time>
      </trkpt>
      <trkpt lat="46.07378" lon="7.02109">
        <ele>1360</ele>
        <time>2019-04-17T21:17:16Z</time>
      </trkpt>
      <trkpt lat="46.07409" lon="7.02126">
        <ele>1348</ele>
        <time>2019-04-17T21:18:16Z</time>
      </trkpt>
      <trkpt lat="46.07424" lon="7.0213">
        <ele>1344</ele>
        <time>2019-04-17T21:19:16Z</time>
      </trkpt>
      <trkpt lat="46.07432" lon="7.0213">
        <ele>1342</ele>
        <time>2019-04-17T21:20:16Z</time>
      </trkpt>
      <trkpt lat="46.07447" lon="7.02124">
        <ele>1343</ele>
        <time>2019-04-17T21:21:16Z</time>
      </trkpt>
      <trkpt lat="46.07466" lon="7.02112">
        <ele>1345</ele>
        <time>2019-04-17T21:22:16Z</time>
      </trkpt>
      <trkpt lat="46.07507" lon="7.02082">
        <ele>1350</ele>
        <time>2019-04-17T21:23:16Z</time>
      </trkpt>
      <trkpt lat="46.07538" lon="7.0204">
        <ele>1358</ele>
        <time>2019-04-17T21:24:16Z</time>
      </trkpt>
      <trkpt lat="46.07546" lon="7.02036">
        <ele>1357</ele>
        <time>2019-04-17T21:25:16Z</time>
      </trkpt>
      <trkpt lat="46.07551" lon="7.02036">
        <ele>1355</ele>
        <time>2019-04-17T21:26:16Z</time>
      </trkpt>
      <trkpt lat="46.07557" lon="7.0204">
        <ele>1351</ele>
        <time>2019-04-17T21:27:16Z</time>
      </trkpt>
      <trkpt lat="46.0756" lon="7.02047">
        <ele>1347</ele>
        <time>2019-04-17T21:28:16Z</time>
      </trkpt>
      <trkpt lat="46.07561" lon="7.02057">
        <ele>1342</ele>
        <time>2019-04-17T21:29:16Z</time>
      </trkpt>
      <trkpt lat="46.07556" lon="7.02069">
        <ele>1339</ele>
        <time>2019-04-17T21:30:16Z</time>
      </trkpt>
      <trkpt lat="46.07548" lon="7.02077">
        <ele>1338</ele>
        <time>2019-04-17T21:31:16Z</time>
      </trkpt>
      <trkpt lat="46.07505" lon="7.02111">
        <ele>1336</ele>
        <time>2019-04-17T21:32:16Z</time>
      </trkpt>
      <trkpt lat="46.07472" lon="7.02147">
        <ele>1324</ele>
        <time>2019-04-17T21:33:16Z</time>
      </trkpt>
      <trkpt lat="46.07453" lon="7.02157">
        <ele>1322</ele>
        <time>2019-04-17T21:34:16Z</time>
      </trkpt>
      <trkpt lat="46.07397" lon="7.0216">
        <ele>1325</ele>
        <time>2019-04-17T21:35:16Z</time>
      </trkpt>
      <trkpt lat="46.07319" lon="7.0218">
        <ele>1313</ele>
        <time>2019-04-17T21:36:16Z</time>
      </trkpt>
      <trkpt lat="46.07299" lon="7.02181">
        <ele>1311</ele>
        <time>2019-04-17T21:37:16Z</time>
      </trkpt>
      <trkpt lat="46.07254" lon="7.02173">
        <ele>1313</ele>
        <time>2019-04-17T21:38:16Z</time>
      </trkpt>
      <trkpt lat="46.07213" lon="7.02176">
        <ele>1303</ele>
        <time>2019-04-17T21:39:16Z</time>
      </trkpt>
      <trkpt lat="46.07196" lon="7.02174">
        <ele>1300</ele>
        <time>2019-04-17T21:40:16Z</time>
      </trkpt>
      <trkpt lat="46.07078" lon="7.02124">
        <ele>1296</ele>
        <time>2019-04-17T21:41:16Z</time>
      </trkpt>
      <trkpt lat="46.06938" lon="7.02054">
        <ele>1287</ele>
        <time>2019-04-17T21:42:16Z</time>
      </trkpt>
      <trkpt lat="46.06875" lon="7.02026">
        <ele>1284</ele>
        <time>2019-04-17T21:43:16Z</time>
      </trkpt>
      <trkpt lat="46.06837" lon="7.02016">
        <ele>1278</ele>
        <time>2019-04-17T21:44:16Z</time>
      </trkpt>
      <trkpt lat="46.06795" lon="7.02015">
        <ele>1272</ele>
        <time>2019-04-17T21:45:16Z</time>
      </trkpt>
      <trkpt lat="46.06722" lon="7.02028">
        <ele>1256</ele>
        <time>2019-04-17T21:46:16Z</time>
      </trkpt>
      <trkpt lat="46.06698" lon="7.02031">
        <ele>1251</ele>
        <time>2019-04-17T21:47:16Z</time>
      </trkpt>
      <trkpt lat="46.0668" lon="7.02029">
        <ele>1248</ele>
        <time>2019-04-17T21:48:16Z</time>
      </trkpt>
      <trkpt lat="46.0666" lon="7.02021">
        <ele>1249</ele>
        <time>2019-04-17T21:49:16Z</time>
      </trkpt>
      <trkpt lat="46.06562" lon="7.01959">
        <ele>1258</ele>
        <time>2019-04-17T21:50:16Z</time>
      </trkpt>
      <trkpt lat="46.06548" lon="7.01962">
        <ele>1258</ele>
        <time>2019-04-17T21:51:16Z</time>
      </trkpt>
      <trkpt lat="46.06543" lon="7.01973">
        <ele>1257</ele>
        <time>2019-04-17T21:52:16Z</time>
      </trkpt>
      <trkpt lat="46.06544" lon="7.01983">
        <ele>1255</ele>
        <time>2019-04-17T21:53:16Z</time>
      </trkpt>
      <trkpt lat="46.06552" lon="7.01996">
        <ele>1251</ele>
        <time>2019-04-17T21:54:16Z</time>
      </trkpt>
      <trkpt lat="46.06575" lon="7.02002">
        <ele>1245</ele>
        <time>2019-04-17T21:55:16Z</time>
      </trkpt>
      <trkpt lat="46.06611" lon="7.02016">
        <ele>1245</ele>
        <time>2019-04-17T21:56:16Z</time>
      </trkpt>
      <trkpt lat="46.06623" lon="7.02026">
        <ele>1244</ele>
        <time>2019-04-17T21:57:16Z</time>
      </trkpt>
      <trkpt lat="46.06653" lon="7.02065">
        <ele>1232</ele>
        <time>2019-04-17T21:58:16Z</time>
      </trkpt>
      <trkpt lat="46.06665" lon="7.02077">
        <ele>1227</ele>
        <time>2019-04-17T21:59:16Z</time>
      </trkpt>
      <trkpt lat="46.06839" lon="7.02148">
        <ele>1225</ele>
        <time>2019-04-17T22:00:16Z</time>
      </trkpt>
      <trkpt lat="46.06868" lon="7.02169">
        <ele>1224</ele>
        <time>2019-04-17T22:01:16Z</time>
      </trkpt>
      <trkpt lat="46.06926" lon="7.02226">
        <ele>1215</ele>
        <time>2019-04-17T22:02:16Z</time>
      </trkpt>
      <trkpt lat="46.06948" lon="7.02246">
        <ele>1210</ele>
        <time>2019-04-17T22:03:16Z</time>
      </trkpt>
      <trkpt lat="46.07077" lon="7.02317">
        <ele>1202</ele>
        <time>2019-04-17T22:04:16Z</time>
      </trkpt>
      <trkpt lat="46.07099" lon="7.02334">
        <ele>1197</ele>
        <time>2019-04-17T22:05:16Z</time>
      </trkpt>
      <trkpt lat="46.07131" lon="7.02365">
        <ele>1190</ele>
        <time>2019-04-17T22:06:16Z</time>
      </trkpt>
      <trkpt lat="46.07143" lon="7.02373">
        <ele>1189</ele>
        <time>2019-04-17T22:07:16Z</time>
      </trkpt>
      <trkpt lat="46.0717" lon="7.02384">
        <ele>1187</ele>
        <time>2019-04-17T22:08:16Z</time>
      </trkpt>
      <trkpt lat="46.07234" lon="7.02395">
        <ele>1184</ele>
        <time>2019-04-17T22:09:16Z</time>
      </trkpt>
      <trkpt lat="46.07304" lon="7.02412">
        <ele>1186</ele>
        <time>2019-04-17T22:10:16Z</time>
      </trkpt>
      <trkpt lat="46.0733" lon="7.02443">
        <ele>1177</ele>
        <time>2019-04-17T22:11:16Z</time>
      </trkpt>
      <trkpt lat="46.07358" lon="7.02495">
        <ele>1161</ele>
        <time>2019-04-17T22:12:16Z</time>
      </trkpt>
      <trkpt lat="46.07375" lon="7.02514">
        <ele>1158</ele>
        <time>2019-04-17T22:13:16Z</time>
      </trkpt>
      <trkpt lat="46.07392" lon="7.02522">
        <ele>1160</ele>
        <time>2019-04-17T22:14:16Z</time>
      </trkpt>
      <trkpt lat="46.07408" lon="7.02524">
        <ele>1163</ele>
        <time>2019-04-17T22:15:16Z</time>
      </trkpt>
      <trkpt lat="46.07452" lon="7.02516">
        <ele>1157</ele>
        <time>2019-04-17T22:16:16Z</time>
      </trkpt>
      <trkpt lat="46.07457" lon="7.02519">
        <ele>1154</ele>
        <time>2019-04-17T22:17:16Z</time>
      </trkpt>
      <trkpt lat="46.07461" lon="7.02526">
        <ele>1150</ele>
        <time>2019-04-17T22:18:16Z</time>
      </trkpt>
      <trkpt lat="46.07464" lon="7.02534">
        <ele>1146</ele>
        <time>2019-04-17T22:19:16Z</time>
      </trkpt>
      <trkpt lat="46.07463" lon="7.02542">
        <ele>1144</ele>
        <time>2019-04-17T22:20:16Z</time>
      </trkpt>
      <trkpt lat="46.07461" lon="7.0255">
        <ele>1142</ele>
        <time>2019-04-17T22:21:16Z</time>
      </trkpt>
      <trkpt lat="46.07453" lon="7.02557">
        <ele>1142</ele>
        <time>2019-04-17T22:22:16Z</time>
      </trkpt>
      <trkpt lat="46.07384" lon="7.02569">
        <ele>1142</ele>
        <time>2019-04-17T22:23:16Z</time>
      </trkpt>
      <trkpt lat="46.07356" lon="7.02563">
        <ele>1138</ele>
        <time>2019-04-17T22:24:16Z</time>
      </trkpt>
      <trkpt lat="46.07344" lon="7.02549">
        <ele>1139</ele>
        <time>2019-04-17T22:25:16Z</time>
      </trkpt>
      <trkpt lat="46.07305" lon="7.02485">
        <ele>1152</ele>
        <time>2019-04-17T22:26:16Z</time>
      </trkpt>
      <trkpt lat="46.07288" lon="7.02476">
        <ele>1151</ele>
        <time>2019-04-17T22:27:16Z</time>
      </trkpt>
      <trkpt lat="46.07271" lon="7.02474">
        <ele>1148</ele>
        <time>2019-04-17T22:28:16Z</time>
      </trkpt>
      <trkpt lat="46.07213" lon="7.02489">
        <ele>1136</ele>
        <time>2019-04-17T22:29:16Z</time>
      </trkpt>
      <trkpt lat="46.07199" lon="7.02487">
        <ele>1137</ele>
        <time>2019-04-17T22:30:16Z</time>
      </trkpt>
      <trkpt lat="46.07173" lon="7.02477">
        <ele>1142</ele>
        <time>2019-04-17T22:31:16Z</time>
      </trkpt>
      <trkpt lat="46.07158" lon="7.02476">
        <ele>1141</ele>
        <time>2019-04-17T22:32:16Z</time>
      </trkpt>
      <trkpt lat="46.0714" lon="7.0248">
        <ele>1137</ele>
        <time>2019-04-17T22:33:16Z</time>
      </trkpt>
      <trkpt lat="46.0712" lon="7.02489">
        <ele>1130</ele>
        <time>2019-04-17T22:34:16Z</time>
      </trkpt>
      <trkpt lat="46.07094" lon="7.02494">
        <ele>1123</ele>
        <time>2019-04-17T22:35:16Z</time>
      </trkpt>
      <trkpt lat="46.07069" lon="7.02491">
        <ele>1121</ele>
        <time>2019-04-17T22:36:16Z</time>
      </trkpt>
      <trkpt lat="46.07025" lon="7.02472">
        <ele>1123</ele>
        <time>2019-04-17T22:37:16Z</time>
      </trkpt>
      <trkpt lat="46.07004" lon="7.02471">
        <ele>1120</ele>
        <time>2019-04-17T22:38:16Z</time>
      </trkpt>
      <trkpt lat="46.06987" lon="7.02474">
        <ele>1117</ele>
        <time>2019-04-17T22:39:16Z</time>
      </trkpt>
      <trkpt lat="46.06886" lon="7.02505">
        <ele>1110</ele>
        <time>2019-04-17T22:40:16Z</time>
      </trkpt>
      <trkpt lat="46.06879" lon="7.0251">
        <ele>1111</ele>
        <time>2019-04-17T22:41:16Z</time>
      </trkpt>
      <trkpt lat="46.06872" lon="7.02517">
        <ele>1112</ele>
        <time>2019-04-17T22:42:16Z</time>
      </trkpt>
      <trkpt lat="46.0687" lon="7.02526">
        <ele>1113</ele>
        <time>2019-04-17T22:43:16Z</time>
      </trkpt>
      <trkpt lat="46.06872" lon="7.02537">
        <ele>1112</ele>
        <time>2019-04-17T22:44:16Z</time>
      </trkpt>
      <trkpt lat="46.06877" lon="7.02544">
        <ele>1110</ele>
        <time>2019-04-17T22:45:16Z</time>
      </trkpt>
      <trkpt lat="46.06889" lon="7.02547">
        <ele>1106</ele>
        <time>2019-04-17T22:46:16Z</time>
      </trkpt>
      <trkpt lat="46.06906" lon="7.02537">
        <ele>1101</ele>
        <time>2019-04-17T22:47:16Z</time>
      </trkpt>
      <trkpt lat="46.06933" lon="7.02528">
        <ele>1099</ele>
        <time>2019-04-17T22:48:16Z</time>
      </trkpt>
      <trkpt lat="46.0698" lon="7.02527">
        <ele>1097</ele>
        <time>2019-04-17T22:49:16Z</time>
      </trkpt>
      <trkpt lat="46.06999" lon="7.02531">
        <ele>1094</ele>
        <time>2019-04-17T22:50:16Z</time>
      </trkpt>
      <trkpt lat="46.07016" lon="7.02544">
        <ele>1091</ele>
        <time>2019-04-17T22:51:16Z</time>
      </trkpt>
      <trkpt lat="46.07062" lon="7.02584">
        <ele>1080</ele>
        <time>2019-04-17T22:52:16Z</time>
      </trkpt>
      <trkpt lat="46.07087" lon="7.02597">
        <ele>1076</ele>
        <time>2019-04-17T22:53:16Z</time>
      </trkpt>
      <trkpt lat="46.07109" lon="7.02599">
        <ele>1076</ele>
        <time>2019-04-17T22:54:16Z</time>
      </trkpt>
      <trkpt lat="46.07175" lon="7.02595">
        <ele>1081</ele>
        <time>2019-04-17T22:55:16Z</time>
      </trkpt>
      <trkpt lat="46.07204" lon="7.02602">
        <ele>1082</ele>
        <time>2019-04-17T22:56:16Z</time>
      </trkpt>
      <trkpt lat="46.07225" lon="7.02616">
        <ele>1079</ele>
        <time>2019-04-17T22:57:16Z</time>
      </trkpt>
      <trkpt lat="46.07239" lon="7.02629">
        <ele>1075</ele>
        <time>2019-04-17T22:58:16Z</time>
      </trkpt>
      <trkpt lat="46.07262" lon="7.02655">
        <ele>1071</ele>
        <time>2019-04-17T22:59:16Z</time>
      </trkpt>
      <trkpt lat="46.07316" lon="7.02745">
        <ele>1059</ele>
        <time>2019-04-17T23:00:16Z</time>
      </trkpt>
      <trkpt lat="46.07346" lon="7.02783">
        <ele>1051</ele>
        <time>2019-04-17T23:01:16Z</time>
      </trkpt>
      <trkpt lat="46.07378" lon="7.02815">
        <ele>1045</ele>
        <time>2019-04-17T23:02:16Z</time>
      </trkpt>
      <trkpt lat="46.07441" lon="7.02862">
        <ele>1040</ele>
        <time>2019-04-17T23:03:16Z</time>
      </trkpt>
      <trkpt lat="46.07464" lon="7.02871">
        <ele>1039</ele>
        <time>2019-04-17T23:04:16Z</time>
      </trkpt>
      <trkpt lat="46.07494" lon="7.02871">
        <ele>1040</ele>
        <time>2019-04-17T23:05:16Z</time>
      </trkpt>
      <trkpt lat="46.07538" lon="7.02855">
        <ele>1036</ele>
        <time>2019-04-17T23:06:16Z</time>
      </trkpt>
      <trkpt lat="46.07553" lon="7.02851">
        <ele>1034</ele>
        <time>2019-04-17T23:07:16Z</time>
      </trkpt>
      <trkpt lat="46.07568" lon="7.02851">
        <ele>1030</ele>
        <time>2019-04-17T23:08:16Z</time>
      </trkpt>
      <trkpt lat="46.07589" lon="7.02855">
        <ele>1027</ele>
        <time>2019-04-17T23:09:16Z</time>
      </trkpt>
      <trkpt lat="46.07604" lon="7.02862">
        <ele>1027</ele>
        <time>2019-04-17T23:10:16Z</time>
      </trkpt>
      <trkpt lat="46.0766" lon="7.02899">
        <ele>1024</ele>
        <time>2019-04-17T23:11:16Z</time>
      </trkpt>
      <trkpt lat="46.07678" lon="7.0292">
        <ele>1024</ele>
        <time>2019-04-17T23:12:16Z</time>
      </trkpt>
      <trkpt lat="46.07694" lon="7.02943">
        <ele>1024</ele>
        <time>2019-04-17T23:13:16Z</time>
      </trkpt>
      <trkpt lat="46.07736" lon="7.03022">
        <ele>1022</ele>
        <time>2019-04-17T23:14:16Z</time>
      </trkpt>
      <trkpt lat="46.07766" lon="7.03102">
        <ele>1012</ele>
        <time>2019-04-17T23:15:16Z</time>
      </trkpt>
      <trkpt lat="46.07774" lon="7.03131">
        <ele>1006</ele>
        <time>2019-04-17T23:16:16Z</time>
      </trkpt>
      <trkpt lat="46.07784" lon="7.03197">
        <ele>987</ele>
        <time>2019-04-17T23:17:16Z</time>
      </trkpt>
      <trkpt lat="46.07795" lon="7.03221">
        <ele>983</ele>
        <time>2019-04-17T23:18:16Z</time>
      </trkpt>
      <trkpt lat="46.07822" lon="7.03247">
        <ele>982</ele>
        <time>2019-04-17T23:19:16Z</time>
      </trkpt>
      <trkpt lat="46.07869" lon="7.03286">
        <ele>975</ele>
        <time>2019-04-17T23:20:16Z</time>
      </trkpt>
      <trkpt lat="46.07879" lon="7.03292">
        <ele>974</ele>
        <time>2019-04-17T23:21:16Z</time>
      </trkpt>
      <trkpt lat="46.07893" lon="7.03291">
        <ele>977</ele>
        <time>2019-04-17T23:22:16Z</time>
      </trkpt>
      <trkpt lat="46.07906" lon="7.03285">
        <ele>980</ele>
        <time>2019-04-17T23:23:16Z</time>
      </trkpt>
      <trkpt lat="46.07962" lon="7.03231">
        <ele>988</ele>
        <time>2019-04-17T23:24:16Z</time>
      </trkpt>
      <trkpt lat="46.07978" lon="7.03221">
        <ele>988</ele>
        <time>2019-04-17T23:25:16Z</time>
      </trkpt>
      <trkpt lat="46.07987" lon="7.03219">
        <ele>987</ele>
        <time>2019-04-17T23:26:16Z</time>
      </trkpt>
      <trkpt lat="46.07998" lon="7.03222">
        <ele>983</ele>
        <time>2019-04-17T23:27:16Z</time>
      </trkpt>
      <trkpt lat="46.08013" lon="7.03232">
        <ele>982</ele>
        <time>2019-04-17T23:28:16Z</time>
      </trkpt>
      <trkpt lat="46.08031" lon="7.0326">
        <ele>978</ele>
        <time>2019-04-17T23:29:16Z</time>
      </trkpt>
      <trkpt lat="46.08072" lon="7.03345">
        <ele>967</ele>
        <time>2019-04-17T23:30:16Z</time>
      </trkpt>
      <trkpt lat="46.08107" lon="7.03442">
        <ele>962</ele>
        <time>2019-04-17T23:31:16Z</time>
      </trkpt>
      <trkpt lat="46.08111" lon="7.03458">
        <ele>962</ele>
        <time>2019-04-17T23:32:16Z</time>
      </trkpt>
      <trkpt lat="46.08113" lon="7.03481">
        <ele>960</ele>
        <time>2019-04-17T23:33:16Z</time>
      </trkpt>
      <trkpt lat="46.08108" lon="7.03502">
        <ele>954</ele>
        <time>2019-04-17T23:34:16Z</time>
      </trkpt>
      <trkpt lat="46.08101" lon="7.03522">
        <ele>948</ele>
        <time>2019-04-17T23:35:16Z</time>
      </trkpt>
      <trkpt lat="46.08091" lon="7.03544">
        <ele>941</ele>
        <time>2019-04-17T23:36:16Z</time>
      </trkpt>
      <trkpt lat="46.08084" lon="7.03567">
        <ele>936</ele>
        <time>2019-04-17T23:37:16Z</time>
      </trkpt>
      <trkpt lat="46.08083" lon="7.03585">
        <ele>934</ele>
        <time>2019-04-17T23:38:16Z</time>
      </trkpt>
      <trkpt lat="46.08085" lon="7.03608">
        <ele>930</ele>
        <time>2019-04-17T23:39:16Z</time>
      </trkpt>
      <trkpt lat="46.0809" lon="7.03623">
        <ele>929</ele>
        <time>2019-04-17T23:40:16Z</time>
      </trkpt>
      <trkpt lat="46.0813" lon="7.03682">
        <ele>932</ele>
        <time>2019-04-17T23:41:16Z</time>
      </trkpt>
      <trkpt lat="46.0815" lon="7.03704">
        <ele>931</ele>
        <time>2019-04-17T23:42:16Z</time>
      </trkpt>
      <trkpt lat="46.08171" lon="7.03715">
        <ele>935</ele>
        <time>2019-04-17T23:43:16Z</time>
      </trkpt>
      <trkpt lat="46.08187" lon="7.03735">
        <ele>933</ele>
        <time>2019-04-17T23:44:16Z</time>
      </trkpt>
      <trkpt lat="46.08204" lon="7.03763">
        <ele>929</ele>
        <time>2019-04-17T23:45:16Z</time>
      </trkpt>
      <trkpt lat="46.08216" lon="7.03789">
        <ele>923</ele>
        <time>2019-04-17T23:46:16Z</time>
      </trkpt>
      <trkpt lat="46.08287" lon="7.03876">
        <ele>917</ele>
        <time>2019-04-17T23:47:16Z</time>
      </trkpt>
      <trkpt lat="46.08351" lon="7.03961">
        <ele>901</ele>
        <time>2019-04-17T23:48:16Z</time>
      </trkpt>
      <trkpt lat="46.08391" lon="7.04">
        <ele>892</ele>
        <time>2019-04-17T23:49:16Z</time>
      </trkpt>
      <trkpt lat="46.084" lon="7.04005">
        <ele>892</ele>
        <time>2019-04-17T23:50:16Z</time>
      </trkpt>
      <trkpt lat="46.08422" lon="7.04008">
        <ele>896</ele>
        <time>2019-04-17T23:51:16Z</time>
      </trkpt>
      <trkpt lat="46.0846" lon="7.04006">
        <ele>907</ele>
        <time>2019-04-17T23:52:16Z</time>
      </trkpt>
      <trkpt lat="46.08468" lon="7.04008">
        <ele>908</ele>
        <time>2019-04-17T23:53:16Z</time>
      </trkpt>
      <trkpt lat="46.08477" lon="7.04013">
        <ele>908</ele>
        <time>2019-04-17T23:54:16Z</time>
      </trkpt>
      <trkpt lat="46.08484" lon="7.04021">
        <ele>907</ele>
        <time>2019-04-17T23:55:16Z</time>
      </trkpt>
      <trkpt lat="46.0849" lon="7.0403">
        <ele>905</ele>
        <time>2019-04-17T23:56:16Z</time>
      </trkpt>
      <trkpt lat="46.08535" lon="7.04115">
        <ele>892</ele>
        <time>2019-04-17T23:57:16Z</time>
      </trkpt>
      <trkpt lat="46.08575" lon="7.04182">
        <ele>885</ele>
        <time>2019-04-17T23:58:16Z</time>
      </trkpt>
      <trkpt lat="46.08608" lon="7.04228">
        <ele>881</ele>
        <time>2019-04-17T23:59:16Z</time>
      </trkpt>
      <trkpt lat="46.08634" lon="7.04256">
        <ele>880</ele>
        <time>2019-04-18T00:00:16Z</time>
      </trkpt>
      <trkpt lat="46.08709" lon="7.04352">
        <ele>868</ele>
        <time>2019-04-18T00:01:16Z</time>
      </trkpt>
      <trkpt lat="46.0873" lon="7.04374">
        <ele>866</ele>
        <time>2019-04-18T00:02:16Z</time>
      </trkpt>
      <trkpt lat="46.08877" lon="7.04514">
        <ele>848</ele>
        <time>2019-04-18T00:03:16Z</time>
      </trkpt>
      <trkpt lat="46.08897" lon="7.04531">
        <ele>846</ele>
        <time>2019-04-18T00:04:16Z</time>
      </trkpt>
      <trkpt lat="46.08907" lon="7.04537">
        <ele>845</ele>
        <time>2019-04-18T00:05:16Z</time>
      </trkpt>
      <trkpt lat="46.08937" lon="7.04547">
        <ele>848</ele>
        <time>2019-04-18T00:06:16Z</time>
      </trkpt>
      <trkpt lat="46.08959" lon="7.04558">
        <ele>847</ele>
        <time>2019-04-18T00:07:16Z</time>
      </trkpt>
      <trkpt lat="46.09017" lon="7.04604">
        <ele>839</ele>
        <time>2019-04-18T00:08:16Z</time>
      </trkpt>
      <trkpt lat="46.0905" lon="7.04639">
        <ele>834</ele>
        <time>2019-04-18T00:09:16Z</time>
      </trkpt>
      <trkpt lat="46.09091" lon="7.04692">
        <ele>825</ele>
        <time>2019-04-18T00:10:16Z</time>
      </trkpt>
      <trkpt lat="46.09128" lon="7.04752">
        <ele>821</ele>
        <time>2019-04-18T00:11:16Z</time>
      </trkpt>
      <trkpt lat="46.09141" lon="7.04783">
        <ele>818</ele>
        <time>2019-04-18T00:12:16Z</time>
      </trkpt>
      <trkpt lat="46.0917" lon="7.04872">
        <ele>805</ele>
        <time>2019-04-18T00:13:16Z</time>
      </trkpt>
      <trkpt lat="46.09181" lon="7.04896">
        <ele>803</ele>
        <time>2019-04-18T00:14:16Z</time>
      </trkpt>
      <trkpt lat="46.09188" lon="7.04907">
        <ele>804</ele>
        <time>2019-04-18T00:15:16Z</time>
      </trkpt>
      <trkpt lat="46.09216" lon="7.04944">
        <ele>805</ele>
        <time>2019-04-18T00:16:16Z</time>
      </trkpt>
      <trkpt lat="46.09248" lon="7.04989">
        <ele>805</ele>
        <time>2019-04-18T00:17:16Z</time>
      </trkpt>
      <trkpt lat="46.09312" lon="7.05095">
        <ele>790</ele>
        <time>2019-04-18T00:18:16Z</time>
      </trkpt>
      <trkpt lat="46.09336" lon="7.05129">
        <ele>785</ele>
        <time>2019-04-18T00:19:16Z</time>
      </trkpt>
      <trkpt lat="46.09366" lon="7.05167">
        <ele>780</ele>
        <time>2019-04-18T00:20:16Z</time>
      </trkpt>
      <trkpt lat="46.09396" lon="7.05201">
        <ele>775</ele>
        <time>2019-04-18T00:21:16Z</time>
      </trkpt>
      <trkpt lat="46.09423" lon="7.05223">
        <ele>774</ele>
        <time>2019-04-18T00:22:16Z</time>
      </trkpt>
      <trkpt lat="46.09483" lon="7.05262">
        <ele>777</ele>
        <time>2019-04-18T00:23:16Z</time>
      </trkpt>
      <trkpt lat="46.09514" lon="7.05287">
        <ele>776</ele>
        <time>2019-04-18T00:24:16Z</time>
      </trkpt>
      <trkpt lat="46.09668" lon="7.05426">
        <ele>744</ele>
        <time>2019-04-18T00:25:16Z</time>
      </trkpt>
      <trkpt lat="46.09724" lon="7.0546">
        <ele>743</ele>
        <time>2019-04-18T00:26:16Z</time>
      </trkpt>
      <trkpt lat="46.09737" lon="7.05471">
        <ele>742</ele>
        <time>2019-04-18T00:27:16Z</time>
      </trkpt>
      <trkpt lat="46.0975" lon="7.05486">
        <ele>740</ele>
        <time>2019-04-18T00:28:16Z</time>
      </trkpt>
      <trkpt lat="46.09901" lon="7.05683">
        <ele>720</ele>
        <time>2019-04-18T00:29:16Z</time>
      </trkpt>
      <trkpt lat="46.0993" lon="7.05726">
        <ele>715</ele>
        <time>2019-04-18T00:30:16Z</time>
      </trkpt>
      <trkpt lat="46.09954" lon="7.05769">
        <ele>712</ele>
        <time>2019-04-18T00:31:16Z</time>
      </trkpt>
      <trkpt lat="46.09977" lon="7.05831">
        <ele>708</ele>
        <time>2019-04-18T00:32:16Z</time>
      </trkpt>
      <trkpt lat="46.09988" lon="7.0588">
        <ele>703</ele>
        <time>2019-04-18T00:33:16Z</time>
      </trkpt>
      <trkpt lat="46.10004" lon="7.05937">
        <ele>698</ele>
        <time>2019-04-18T00:34:16Z</time>
      </trkpt>
      <trkpt lat="46.1004" lon="7.06031">
        <ele>693</ele>
        <time>2019-04-18T00:35:16Z</time>
      </trkpt>
      <trkpt lat="46.1006" lon="7.06065">
        <ele>689</ele>
        <time>2019-04-18T00:36:16Z</time>
      </trkpt>
      <trkpt lat="46.10184" lon="7.06208">
        <ele>677</ele>
        <time>2019-04-18T00:37:16Z</time>
      </trkpt>
      <trkpt lat="46.10326" lon="7.06399">
        <ele>664</ele>
        <time>2019-04-18T00:38:16Z</time>
      </trkpt>
      <trkpt lat="46.10338" lon="7.06408">
        <ele>665</ele>
        <time>2019-04-18T00:39:16Z</time>
      </trkpt>
      <trkpt lat="46.1036" lon="7.06419">
        <ele>669</ele>
        <time>2019-04-18T00:40:16Z</time>
      </trkpt>
      <trkpt lat="46.10366" lon="7.0643">
        <ele>667</ele>
        <time>2019-04-18T00:41:16Z</time>
      </trkpt>
      <trkpt lat="46.10365" lon="7.06441">
        <ele>661</ele>
        <time>2019-04-18T00:42:16Z</time>
      </trkpt>
      <trkpt lat="46.10359" lon="7.06449">
        <ele>654</ele>
        <time>2019-04-18T00:43:16Z</time>
      </trkpt>
      <trkpt lat="46.10352" lon="7.0645">
        <ele>651</ele>
        <time>2019-04-18T00:44:16Z</time>
      </trkpt>
      <trkpt lat="46.10347" lon="7.06446">
        <ele>651</ele>
        <time>2019-04-18T00:45:16Z</time>
      </trkpt>
      <trkpt lat="46.10318" lon="7.06411">
        <ele>653</ele>
        <time>2019-04-18T00:46:16Z</time>
      </trkpt>
      <trkpt lat="46.10289" lon="7.06387">
        <ele>650</ele>
        <time>2019-04-18T00:47:16Z</time>
      </trkpt>
      <trkpt lat="46.10199" lon="7.06309">
        <ele>643</ele>
        <time>2019-04-18T00:48:16Z</time>
      </trkpt>
      <trkpt lat="46.10107" lon="7.06237">
        <ele>630</ele>
        <time>2019-04-18T00:49:16Z</time>
      </trkpt>
      <trkpt lat="46.10076" lon="7.06218">
        <ele>624</ele>
        <time>2019-04-18T00:50:16Z</time>
      </trkpt>
      <trkpt lat="46.10005" lon="7.06194">
        <ele>608</ele>
        <time>2019-04-18T00:51:16Z</time>
      </trkpt>
      <trkpt lat="46.09993" lon="7.06184">
        <ele>609</ele>
        <time>2019-04-18T00:52:16Z</time>
      </trkpt>
      <trkpt lat="46.09982" lon="7.06166">
        <ele>614</ele>
        <time>2019-04-18T00:53:16Z</time>
      </trkpt>
      <trkpt lat="46.09968" lon="7.06136">
        <ele>619</ele>
        <time>2019-04-18T00:54:16Z</time>
      </trkpt>
      <trkpt lat="46.09955" lon="7.06116">
        <ele>621</ele>
        <time>2019-04-18T00:55:16Z</time>
      </trkpt>
      <trkpt lat="46.09876" lon="7.0604">
        <ele>609</ele>
        <time>2019-04-18T00:56:16Z</time>
      </trkpt>
      <trkpt lat="46.09797" lon="7.05956">
        <ele>602</ele>
        <time>2019-04-18T00:57:16Z</time>
      </trkpt>
      <trkpt lat="46.09778" lon="7.0594">
        <ele>603</ele>
        <time>2019-04-18T00:58:16Z</time>
      </trkpt>
      <trkpt lat="46.09762" lon="7.05936">
        <ele>600</ele>
        <time>2019-04-18T00:59:16Z</time>
      </trkpt>
      <trkpt lat="46.09754" lon="7.05938">
        <ele>597</ele>
        <time>2019-04-18T01:00:16Z</time>
      </trkpt>
      <trkpt lat="46.09721" lon="7.0595">
        <ele>586</ele>
        <time>2019-04-18T01:01:16Z</time>
      </trkpt>
      <trkpt lat="46.09706" lon="7.05951">
        <ele>583</ele>
        <time>2019-04-18T01:02:16Z</time>
      </trkpt>
      <trkpt lat="46.09698" lon="7.05949">
        <ele>582</ele>
        <time>2019-04-18T01:03:16Z</time>
      </trkpt>
      <trkpt lat="46.09604" lon="7.0589">
        <ele>574</ele>
        <time>2019-04-18T01:04:16Z</time>
      </trkpt>
      <trkpt lat="46.09579" lon="7.05873">
        <ele>569</ele>
        <time>2019-04-18T01:05:16Z</time>
      </trkpt>
      <trkpt lat="46.09566" lon="7.05858">
        <ele>569</ele>
        <time>2019-04-18T01:06:16Z</time>
      </trkpt>
      <trkpt lat="46.09548" lon="7.05833">
        <ele>572</ele>
        <time>2019-04-18T01:07:16Z</time>
      </trkpt>
      <trkpt lat="46.0953" lon="7.05816">
        <ele>570</ele>
        <time>2019-04-18T01:08:16Z</time>
      </trkpt>
      <trkpt lat="46.09477" lon="7.05776">
        <ele>564</ele>
        <time>2019-04-18T01:09:16Z</time>
      </trkpt>
      <trkpt lat="46.09388" lon="7.05721">
        <ele>549</ele>
        <time>2019-04-18T01:10:16Z</time>
      </trkpt>
      <trkpt lat="46.0937" lon="7.05705">
        <ele>547</ele>
        <time>2019-04-18T01:11:16Z</time>
      </trkpt>
      <trkpt lat="46.09284" lon="7.05605">
        <ele>545</ele>
        <time>2019-04-18T01:12:16Z</time>
      </trkpt>
      <trkpt lat="46.09272" lon="7.05593">
        <ele>543</ele>
        <time>2019-04-18T01:13:16Z</time>
      </trkpt>
      <trkpt lat="46.09255" lon="7.05582">
        <ele>540</ele>
        <time>2019-04-18T01:14:16Z</time>
      </trkpt>
      <trkpt lat="46.0924" lon="7.05576">
        <ele>536</ele>
        <time>2019-04-18T01:15:16Z</time>
      </trkpt>
      <trkpt lat="46.09215" lon="7.05555">
        <ele>535</ele>
        <time>2019-04-18T01:16:16Z</time>
      </trkpt>
      <trkpt lat="46.09174" lon="7.05512">
        <ele>533</ele>
        <time>2019-04-18T01:17:16Z</time>
      </trkpt>
      <trkpt lat="46.09145" lon="7.0549">
        <ele>530</ele>
        <time>2019-04-18T01:18:16Z</time>
      </trkpt>
      <trkpt lat="46.0905" lon="7.05448">
        <ele>521</ele>
        <time>2019-04-18T01:19:16Z</time>
      </trkpt>
      <trkpt lat="46.09016" lon="7.05435">
        <ele>523</ele>
        <time>2019-04-18T01:20:16Z</time>
      </trkpt>
      <trkpt lat="46.08991" lon="7.05432">
        <ele>522</ele>
        <time>2019-04-18T01:21:16Z</time>
      </trkpt>
      <trkpt lat="46.08962" lon="7.05445">
        <ele>516</ele>
        <time>2019-04-18T01:22:16Z</time>
      </trkpt>
      <trkpt lat="46.08938" lon="7.05468">
        <ele>507</ele>
        <time>2019-04-18T01:23:16Z</time>
      </trkpt>
      <trkpt lat="46.08914" lon="7.05485">
        <ele>501</ele>
        <time>2019-04-18T01:24:16Z</time>
      </trkpt>
      <trkpt lat="46.08852" lon="7.05491">
        <ele>505</ele>
        <time>2019-04-18T01:25:16Z</time>
      </trkpt>
      <trkpt lat="46.08825" lon="7.05497">
        <ele>505</ele>
        <time>2019-04-18T01:26:16Z</time>
      </trkpt>
      <trkpt lat="46.08815" lon="7.05506">
        <ele>504</ele>
        <time>2019-04-18T01:27:16Z</time>
      </trkpt>
      <trkpt lat="46.08807" lon="7.05516">
        <ele>504</ele>
        <time>2019-04-18T01:28:16Z</time>
      </trkpt>
      <trkpt lat="46.08798" lon="7.05516">
        <ele>504</ele>
        <time>2019-04-18T01:29:16Z</time>
      </trkpt>
      <trkpt lat="46.08794" lon="7.05519">
        <ele>504</ele>
        <time>2019-04-18T01:30:16Z</time>
      </trkpt>
      <trkpt lat="46.08741" lon="7.05496">
        <ele>505</ele>
        <time>2019-04-18T01:31:16Z</time>
      </trkpt>
      <trkpt lat="46.08719" lon="7.05484">
        <ele>507</ele>
        <time>2019-04-18T01:32:16Z</time>
      </trkpt>
      <trkpt lat="46.08639" lon="7.05447">
        <ele>512</ele>
        <time>2019-04-18T01:33:16Z</time>
      </trkpt>
      <trkpt lat="46.086" lon="7.05437">
        <ele>515</ele>
        <time>2019-04-18T01:34:16Z</time>
      </trkpt>
      <trkpt lat="46.08472" lon="7.05435">
        <ele>516</ele>
        <time>2019-04-18T01:35:16Z</time>
      </trkpt>
      <trkpt lat="46.0843" lon="7.05416">
        <ele>517</ele>
        <time>2019-04-18T01:36:16Z</time>
      </trkpt>
      <trkpt lat="46.08398" lon="7.05381">
        <ele>521</ele>
        <time>2019-04-18T01:37:16Z</time>
      </trkpt>
      <trkpt lat="46.08356" lon="7.05324">
        <ele>526</ele>
        <time>2019-04-18T01:38:16Z</time>
      </trkpt>
      <trkpt lat="46.08341" lon="7.0531">
        <ele>528</ele>
        <time>2019-04-18T01:39:16Z</time>
      </trkpt>
      <trkpt lat="46.0832" lon="7.05297">
        <ele>532</ele>
        <time>2019-04-18T01:40:16Z</time>
      </trkpt>
      <trkpt lat="46.08291" lon="7.05288">
        <ele>536</ele>
        <time>2019-04-18T01:41:16Z</time>
      </trkpt>
      <trkpt lat="46.08264" lon="7.05287">
        <ele>537</ele>
        <time>2019-04-18T01:42:16Z</time>
      </trkpt>
      <trkpt lat="46.08247" lon="7.05292">
        <ele>536</ele>
        <time>2019-04-18T01:43:16Z</time>
      </trkpt>
      <trkpt lat="46.08205" lon="7.05312">
        <ele>536</ele>
        <time>2019-04-18T01:44:16Z</time>
      </trkpt>
      <trkpt lat="46.0815" lon="7.05344">
        <ele>536</ele>
        <time>2019-04-18T01:45:16Z</time>
      </trkpt>
      <trkpt lat="46.08108" lon="7.05359">
        <ele>536</ele>
        <time>2019-04-18T01:46:16Z</time>
      </trkpt>
      <trkpt lat="46.08062" lon="7.05356">
        <ele>539</ele>
        <time>2019-04-18T01:47:16Z</time>
      </trkpt>
      <trkpt lat="46.08029" lon="7.05357">
        <ele>540</ele>
        <time>2019-04-18T01:48:16Z</time>
      </trkpt>
      <trkpt lat="46.07972" lon="7.05364">
        <ele>540</ele>
        <time>2019-04-18T01:49:16Z</time>
      </trkpt>
      <trkpt lat="46.07939" lon="7.0536">
        <ele>540</ele>
        <time>2019-04-18T01:50:16Z</time>
      </trkpt>
      <trkpt lat="46.079" lon="7.05342">
        <ele>541</ele>
        <time>2019-04-18T01:51:16Z</time>
      </trkpt>
      <trkpt lat="46.07885" lon="7.05331">
        <ele>541</ele>
        <time>2019-04-18T01:52:16Z</time>
      </trkpt>
      <trkpt lat="46.07748" lon="7.05225">
        <ele>548</ele>
        <time>2019-04-18T01:53:16Z</time>
      </trkpt>
      <trkpt lat="46.077" lon="7.05193">
        <ele>552</ele>
        <time>2019-04-18T01:54:16Z</time>
      </trkpt>
      <trkpt lat="46.0766" lon="7.05173">
        <ele>556</ele>
        <time>2019-04-18T01:55:16Z</time>
      </trkpt>
      <trkpt lat="46.0761" lon="7.05162">
        <ele>566</ele>
        <time>2019-04-18T01:56:16Z</time>
      </trkpt>
      <trkpt lat="46.07582" lon="7.05162">
        <ele>570</ele>
        <time>2019-04-18T01:57:16Z</time>
      </trkpt>
      <trkpt lat="46.0752" lon="7.05177">
        <ele>580</ele>
        <time>2019-04-18T01:58:16Z</time>
      </trkpt>
      <trkpt lat="46.07468" lon="7.05213">
        <ele>586</ele>
        <time>2019-04-18T01:59:16Z</time>
      </trkpt>
      <trkpt lat="46.07431" lon="7.05247">
        <ele>590</ele>
        <time>2019-04-18T02:00:16Z</time>
      </trkpt>
      <trkpt lat="46.07413" lon="7.0527">
        <ele>590</ele>
        <time>2019-04-18T02:01:16Z</time>
      </trkpt>
      <trkpt lat="46.07394" lon="7.05301">
        <ele>591</ele>
        <time>2019-04-18T02:02:16Z</time>
      </trkpt>
      <trkpt lat="46.07374" lon="7.05339">
        <ele>593</ele>
        <time>2019-04-18T02:03:16Z</time>
      </trkpt>
      <trkpt lat="46.07365" lon="7.05369">
        <ele>593</ele>
        <time>2019-04-18T02:04:16Z</time>
      </trkpt>
      <trkpt lat="46.07347" lon="7.05441">
        <ele>588</ele>
        <time>2019-04-18T02:05:16Z</time>
      </trkpt>
      <trkpt lat="46.07334" lon="7.05536">
        <ele>582</ele>
        <time>2019-04-18T02:06:16Z</time>
      </trkpt>
      <trkpt lat="46.07323" lon="7.05653">
        <ele>590</ele>
        <time>2019-04-18T02:07:16Z</time>
      </trkpt>
      <trkpt lat="46.07305" lon="7.05721">
        <ele>594</ele>
        <time>2019-04-18T02:08:16Z</time>
      </trkpt>
      <trkpt lat="46.07271" lon="7.05827">
        <ele>606</ele>
        <time>2019-04-18T02:09:16Z</time>
      </trkpt>
      <trkpt lat="46.0726" lon="7.05909">
        <ele>610</ele>
        <time>2019-04-18T02:10:16Z</time>
      </trkpt>
      <trkpt lat="46.07261" lon="7.05944">
        <ele>610</ele>
        <time>2019-04-18T02:11:16Z</time>
      </trkpt>
      <trkpt lat="46.07266" lon="7.06004">
        <ele>607</ele>
        <time>2019-04-18T02:12:16Z</time>
      </trkpt>
      <trkpt lat="46.07295" lon="7.0621">
        <ele>595</ele>
        <time>2019-04-18T02:13:16Z</time>
      </trkpt>
      <trkpt lat="46.07314" lon="7.0646">
        <ele>605</ele>
        <time>2019-04-18T02:14:16Z</time>
      </trkpt>
      <trkpt lat="46.07317" lon="7.06476">
        <ele>605</ele>
        <time>2019-04-18T02:15:16Z</time>
      </trkpt>
      <trkpt lat="46.07332" lon="7.06524">
        <ele>604</ele>
        <time>2019-04-18T02:16:16Z</time>
      </trkpt>
      <trkpt lat="46.07366" lon="7.0658">
        <ele>605</ele>
        <time>2019-04-18T02:17:16Z</time>
      </trkpt>
      <trkpt lat="46.07403" lon="7.06634">
        <ele>607</ele>
        <time>2019-04-18T02:18:16Z</time>
      </trkpt>
      <trkpt lat="46.07438" lon="7.06691">
        <ele>608</ele>
        <time>2019-04-18T02:19:16Z</time>
      </trkpt>
      <trkpt lat="46.07455" lon="7.06725">
        <ele>608</ele>
        <time>2019-04-18T02:20:16Z</time>
      </trkpt>
      <trkpt lat="46.07472" lon="7.06763">
        <ele>609</ele>
        <time>2019-04-18T02:21:16Z</time>
      </trkpt>
      <trkpt lat="46.07484" lon="7.06799">
        <ele>611</ele>
        <time>2019-04-18T02:22:16Z</time>
      </trkpt>
      <trkpt lat="46.07491" lon="7.06831">
        <ele>613</ele>
        <time>2019-04-18T02:23:16Z</time>
      </trkpt>
      <trkpt lat="46.07503" lon="7.0691">
        <ele>615</ele>
        <time>2019-04-18T02:24:16Z</time>
      </trkpt>
      <trkpt lat="46.07516" lon="7.07063">
        <ele>617</ele>
        <time>2019-04-18T02:25:16Z</time>
      </trkpt>
      <trkpt lat="46.0753" lon="7.07143">
        <ele>619</ele>
        <time>2019-04-18T02:26:16Z</time>
      </trkpt>
      <trkpt lat="46.07539" lon="7.07174">
        <ele>618</ele>
        <time>2019-04-18T02:27:16Z</time>
      </trkpt>
      <trkpt lat="46.0755" lon="7.07204">
        <ele>616</ele>
        <time>2019-04-18T02:28:16Z</time>
      </trkpt>
      <trkpt lat="46.07566" lon="7.07238">
        <ele>613</ele>
        <time>2019-04-18T02:29:16Z</time>
      </trkpt>
      <trkpt lat="46.07583" lon="7.07272">
        <ele>613</ele>
        <time>2019-04-18T02:30:16Z</time>
      </trkpt>
      <trkpt lat="46.07647" lon="7.07358">
        <ele>613</ele>
        <time>2019-04-18T02:31:16Z</time>
      </trkpt>
      <trkpt lat="46.07679" lon="7.07399">
        <ele>617</ele>
        <time>2019-04-18T02:32:16Z</time>
      </trkpt>
      <trkpt lat="46.07708" lon="7.07446">
        <ele>619</ele>
        <time>2019-04-18T02:33:16Z</time>
      </trkpt>
      <trkpt lat="46.07727" lon="7.07482">
        <ele>618</ele>
        <time>2019-04-18T02:34:16Z</time>
      </trkpt>
      <trkpt lat="46.07741" lon="7.0752">
        <ele>618</ele>
        <time>2019-04-18T02:35:16Z</time>
      </trkpt>
      <trkpt lat="46.07755" lon="7.07566">
        <ele>620</ele>
        <time>2019-04-18T02:36:16Z</time>
      </trkpt>
      <trkpt lat="46.07764" lon="7.07615">
        <ele>624</ele>
        <time>2019-04-18T02:37:16Z</time>
      </trkpt>
      <trkpt lat="46.07767" lon="7.07653">
        <ele>629</ele>
        <time>2019-04-18T02:38:16Z</time>
      </trkpt>
      <trkpt lat="46.07774" lon="7.07773">
        <ele>629</ele>
        <time>2019-04-18T02:39:16Z</time>
      </trkpt>
      <trkpt lat="46.0778" lon="7.07814">
        <ele>627</ele>
        <time>2019-04-18T02:40:16Z</time>
      </trkpt>
      <trkpt lat="46.07789" lon="7.07852">
        <ele>624</ele>
        <time>2019-04-18T02:41:16Z</time>
      </trkpt>
      <trkpt lat="46.07814" lon="7.07922">
        <ele>618</ele>
        <time>2019-04-18T02:42:16Z</time>
      </trkpt>
      <trkpt lat="46.07824" lon="7.07959">
        <ele>617</ele>
        <time>2019-04-18T02:43:16Z</time>
      </trkpt>
      <trkpt lat="46.07839" lon="7.08035">
        <ele>619</ele>
        <time>2019-04-18T02:44:16Z</time>
      </trkpt>
      <trkpt lat="46.07843" lon="7.08079">
        <ele>621</ele>
        <time>2019-04-18T02:45:16Z</time>
      </trkpt>
      <trkpt lat="46.07844" lon="7.08151">
        <ele>625</ele>
        <time>2019-04-18T02:46:16Z</time>
      </trkpt>
      <trkpt lat="46.07839" lon="7.08251">
        <ele>624</ele>
        <time>2019-04-18T02:47:16Z</time>
      </trkpt>
      <trkpt lat="46.07842" lon="7.08344">
        <ele>624</ele>
        <time>2019-04-18T02:48:16Z</time>
      </trkpt>
      <trkpt lat="46.0785" lon="7.08394">
        <ele>622</ele>
        <time>2019-04-18T02:49:16Z</time>
      </trkpt>
      <trkpt lat="46.07863" lon="7.0844">
        <ele>622</ele>
        <time>2019-04-18T02:50:16Z</time>
      </trkpt>
      <trkpt lat="46.07877" lon="7.08468">
        <ele>622</ele>
        <time>2019-04-18T02:51:16Z</time>
      </trkpt>
      <trkpt lat="46.07898" lon="7.085">
        <ele>619</ele>
        <time>2019-04-18T02:52:16Z</time>
      </trkpt>
      <trkpt lat="46.0792" lon="7.08525">
        <ele>616</ele>
        <time>2019-04-18T02:53:16Z</time>
      </trkpt>
      <trkpt lat="46.07945" lon="7.08546">
        <ele>617</ele>
        <time>2019-04-18T02:54:16Z</time>
      </trkpt>
      <trkpt lat="46.07998" lon="7.08584">
        <ele>614</ele>
        <time>2019-04-18T02:55:16Z</time>
      </trkpt>
      <trkpt lat="46.08023" lon="7.08609">
        <ele>615</ele>
        <time>2019-04-18T02:56:16Z</time>
      </trkpt>
      <trkpt lat="46.08035" lon="7.08624">
        <ele>615</ele>
        <time>2019-04-18T02:57:16Z</time>
      </trkpt>
      <trkpt lat="46.08055" lon="7.08657">
        <ele>617</ele>
        <time>2019-04-18T02:58:16Z</time>
      </trkpt>
      <trkpt lat="46.08065" lon="7.08678">
        <ele>617</ele>
        <time>2019-04-18T02:59:16Z</time>
      </trkpt>
      <trkpt lat="46.08074" lon="7.08701">
        <ele>618</ele>
        <time>2019-04-18T03:00:16Z</time>
      </trkpt>
      <trkpt lat="46.08086" lon="7.08759">
        <ele>620</ele>
        <time>2019-04-18T03:01:16Z</time>
      </trkpt>
      <trkpt lat="46.08089" lon="7.08794">
        <ele>619</ele>
        <time>2019-04-18T03:02:16Z</time>
      </trkpt>
      <trkpt lat="46.08079" lon="7.09012">
        <ele>624</ele>
        <time>2019-04-18T03:03:16Z</time>
      </trkpt>
      <trkpt lat="46.0808" lon="7.09061">
        <ele>626</ele>
        <time>2019-04-18T03:04:16Z</time>
      </trkpt>
      <trkpt lat="46.08084" lon="7.09099">
        <ele>624</ele>
        <time>2019-04-18T03:05:16Z</time>
      </trkpt>
      <trkpt lat="46.08091" lon="7.09136">
        <ele>622</ele>
        <time>2019-04-18T03:06:16Z</time>
      </trkpt>
      <trkpt lat="46.081" lon="7.09171">
        <ele>621</ele>
        <time>2019-04-18T03:07:16Z</time>
      </trkpt>
      <trkpt lat="46.0811" lon="7.09204">
        <ele>620</ele>
        <time>2019-04-18T03:08:16Z</time>
      </trkpt>
      <trkpt lat="46.0813" lon="7.09254">
        <ele>619</ele>
        <time>2019-04-18T03:09:16Z</time>
      </trkpt>
      <trkpt lat="46.08173" lon="7.09352">
        <ele>623</ele>
        <time>2019-04-18T03:10:16Z</time>
      </trkpt>
      <trkpt lat="46.08197" lon="7.09414">
        <ele>635</ele>
        <time>2019-04-18T03:11:16Z</time>
      </trkpt>
      <trkpt lat="46.0821" lon="7.09455">
        <ele>639</ele>
        <time>2019-04-18T03:12:16Z</time>
      </trkpt>
      <trkpt lat="46.0822" lon="7.095">
        <ele>639</ele>
        <time>2019-04-18T03:13:16Z</time>
      </trkpt>
      <trkpt lat="46.08227" lon="7.09552">
        <ele>641</ele>
        <time>2019-04-18T03:14:16Z</time>
      </trkpt>
      <trkpt lat="46.0823" lon="7.09605">
        <ele>641</ele>
        <time>2019-04-18T03:15:16Z</time>
      </trkpt>
      <trkpt lat="46.08202" lon="7.10119">
        <ele>654</ele>
        <time>2019-04-18T03:16:16Z</time>
      </trkpt>
      <trkpt lat="46.08196" lon="7.10309">
        <ele>668</ele>
        <time>2019-04-18T03:17:16Z</time>
      </trkpt>
      <trkpt lat="46.08187" lon="7.10478">
        <ele>655</ele>
        <time>2019-04-18T03:18:16Z</time>
      </trkpt>
      <trkpt lat="46.08182" lon="7.10535">
        <ele>653</ele>
        <time>2019-04-18T03:19:16Z</time>
      </trkpt>
      <trkpt lat="46.08175" lon="7.10579">
        <ele>650</ele>
        <time>2019-04-18T03:20:16Z</time>
      </trkpt>
      <trkpt lat="46.08134" lon="7.10765">
        <ele>667</ele>
        <time>2019-04-18T03:21:16Z</time>
      </trkpt>
      <trkpt lat="46.0813" lon="7.10804">
        <ele>670</ele>
        <time>2019-04-18T03:22:16Z</time>
      </trkpt>
      <trkpt lat="46.08128" lon="7.10848">
        <ele>672</ele>
        <time>2019-04-18T03:23:16Z</time>
      </trkpt>
      <trkpt lat="46.08125" lon="7.10982">
        <ele>675</ele>
        <time>2019-04-18T03:24:16Z</time>
      </trkpt>
      <trkpt lat="46.08119" lon="7.11051">
        <ele>674</ele>
        <time>2019-04-18T03:25:16Z</time>
      </trkpt>
      <trkpt lat="46.08107" lon="7.11122">
        <ele>672</ele>
        <time>2019-04-18T03:26:16Z</time>
      </trkpt>
      <trkpt lat="46.08091" lon="7.11194">
        <ele>669</ele>
        <time>2019-04-18T03:27:16Z</time>
      </trkpt>
      <trkpt lat="46.08067" lon="7.11274">
        <ele>677</ele>
        <time>2019-04-18T03:28:16Z</time>
      </trkpt>
      <trkpt lat="46.08053" lon="7.11366">
        <ele>686</ele>
        <time>2019-04-18T03:29:16Z</time>
      </trkpt>
      <trkpt lat="46.0804" lon="7.11542">
        <ele>683</ele>
        <time>2019-04-18T03:30:16Z</time>
      </trkpt>
      <trkpt lat="46.08026" lon="7.1161">
        <ele>682</ele>
        <time>2019-04-18T03:31:16Z</time>
      </trkpt>
      <trkpt lat="46.07993" lon="7.11725">
        <ele>679</ele>
        <time>2019-04-18T03:32:16Z</time>
      </trkpt>
      <trkpt lat="46.07957" lon="7.1195">
        <ele>684</ele>
        <time>2019-04-18T03:33:16Z</time>
      </trkpt>
      <trkpt lat="46.07944" lon="7.12007">
        <ele>683</ele>
        <time>2019-04-18T03:34:16Z</time>
      </trkpt>
      <trkpt lat="46.07935" lon="7.12028">
        <ele>683</ele>
        <time>2019-04-18T03:35:16Z</time>
      </trkpt>
      <trkpt lat="46.07916" lon="7.1209">
        <ele>684</ele>
        <time>2019-04-18T03:36:16Z</time>
      </trkpt>
      <trkpt lat="46.07836" lon="7.12362">
        <ele>698</ele>
        <time>2019-04-18T03:37:16Z</time>
      </trkpt>
      <trkpt lat="46.07827" lon="7.12399">
        <ele>699</ele>
        <time>2019-04-18T03:38:16Z</time>
      </trkpt>
      <trkpt lat="46.07821" lon="7.12433">
        <ele>701</ele>
        <time>2019-04-18T03:39:16Z</time>
      </trkpt>
      <trkpt lat="46.0782" lon="7.12473">
        <ele>701</ele>
        <time>2019-04-18T03:40:16Z</time>
      </trkpt>
      <trkpt lat="46.0782" lon="7.12512">
        <ele>700</ele>
        <time>2019-04-18T03:41:16Z</time>
      </trkpt>
      <trkpt lat="46.07825" lon="7.12552">
        <ele>697</ele>
        <time>2019-04-18T03:42:16Z</time>
      </trkpt>
      <trkpt lat="46.07832" lon="7.12587">
        <ele>693</ele>
        <time>2019-04-18T03:43:16Z</time>
      </trkpt>
      <trkpt lat="46.07844" lon="7.12623">
        <ele>696</ele>
        <time>2019-04-18T03:44:16Z</time>
      </trkpt>
      <trkpt lat="46.0786" lon="7.12657">
        <ele>697</ele>
        <time>2019-04-18T03:45:16Z</time>
      </trkpt>
      <trkpt lat="46.07879" lon="7.12688">
        <ele>699</ele>
        <time>2019-04-18T03:46:16Z</time>
      </trkpt>
      <trkpt lat="46.0789" lon="7.12708">
        <ele>699</ele>
        <time>2019-04-18T03:47:16Z</time>
      </trkpt>
      <trkpt lat="46.07902" lon="7.12726">
        <ele>699</ele>
        <time>2019-04-18T03:48:16Z</time>
      </trkpt>
      <trkpt lat="46.07911" lon="7.12745">
        <ele>697</ele>
        <time>2019-04-18T03:49:16Z</time>
      </trkpt>
      <trkpt lat="46.07924" lon="7.12787">
        <ele>696</ele>
        <time>2019-04-18T03:50:16Z</time>
      </trkpt>
      <trkpt lat="46.07933" lon="7.12838">
        <ele>695</ele>
        <time>2019-04-18T03:51:16Z</time>
      </trkpt>
      <trkpt lat="46.07941" lon="7.12895">
        <ele>695</ele>
        <time>2019-04-18T03:52:16Z</time>
      </trkpt>
      <trkpt lat="46.07941" lon="7.1292">
        <ele>695</ele>
        <time>2019-04-18T03:53:16Z</time>
      </trkpt>
      <trkpt lat="46.07937" lon="7.12983">
        <ele>698</ele>
        <time>2019-04-18T03:54:16Z</time>
      </trkpt>
      <trkpt lat="46.07928" lon="7.13035">
        <ele>699</ele>
        <time>2019-04-18T03:55:16Z</time>
      </trkpt>
      <trkpt lat="46.07915" lon="7.13082">
        <ele>699</ele>
        <time>2019-04-18T03:56:16Z</time>
      </trkpt>
      <trkpt lat="46.07908" lon="7.13118">
        <ele>698</ele>
        <time>2019-04-18T03:57:16Z</time>
      </trkpt>
      <trkpt lat="46.07893" lon="7.13165">
        <ele>696</ele>
        <time>2019-04-18T03:58:16Z</time>
      </trkpt>
      <trkpt lat="46.07842" lon="7.13304">
        <ele>695</ele>
        <time>2019-04-18T03:59:16Z</time>
      </trkpt>
      <trkpt lat="46.07831" lon="7.1334">
        <ele>695</ele>
        <time>2019-04-18T04:00:16Z</time>
      </trkpt>
      <trkpt lat="46.07821" lon="7.13383">
        <ele>697</ele>
        <time>2019-04-18T04:01:16Z</time>
      </trkpt>
      <trkpt lat="46.07807" lon="7.135">
        <ele>699</ele>
        <time>2019-04-18T04:02:16Z</time>
      </trkpt>
      <trkpt lat="46.07798" lon="7.13716">
        <ele>698</ele>
        <time>2019-04-18T04:03:16Z</time>
      </trkpt>
      <trkpt lat="46.07795" lon="7.13716">
        <ele>698</ele>
        <time>2019-04-18T04:04:16Z</time>
      </trkpt>
      <trkpt lat="46.07789" lon="7.1372">
        <ele>698</ele>
        <time>2019-04-18T04:05:16Z</time>
      </trkpt>
      <trkpt lat="46.07785" lon="7.13729">
        <ele>698</ele>
        <time>2019-04-18T04:06:16Z</time>
      </trkpt>
      <trkpt lat="46.07785" lon="7.13734">
        <ele>698</ele>
        <time>2019-04-18T04:07:16Z</time>
      </trkpt>
      <trkpt lat="46.07788" lon="7.13743">
        <ele>698</ele>
        <time>2019-04-18T04:08:16Z</time>
      </trkpt>
      <trkpt lat="46.07794" lon="7.13748">
        <ele>697</ele>
        <time>2019-04-18T04:09:16Z</time>
      </trkpt>
      <trkpt lat="46.07797" lon="7.13749">
        <ele>697</ele>
        <time>2019-04-18T04:10:16Z</time>
      </trkpt>
      <trkpt lat="46.07796" lon="7.13959">
        <ele>700</ele>
        <time>2019-04-18T04:11:16Z</time>
      </trkpt>
      <trkpt lat="46.07804" lon="7.14099">
        <ele>702</ele>
        <time>2019-04-18T04:12:16Z</time>
      </trkpt>
      <trkpt lat="46.0782" lon="7.14229">
        <ele>700</ele>
        <time>2019-04-18T04:13:16Z</time>
      </trkpt>
      <trkpt lat="46.07838" lon="7.14332">
        <ele>702</ele>
        <time>2019-04-18T04:14:16Z</time>
      </trkpt>
      <trkpt lat="46.0784" lon="7.14339">
        <ele>703</ele>
        <time>2019-04-18T04:15:16Z</time>
      </trkpt>
      <trkpt lat="46.07887" lon="7.14433">
        <ele>705</ele>
        <time>2019-04-18T04:16:16Z</time>
      </trkpt>
      <trkpt lat="46.07896" lon="7.14465">
        <ele>703</ele>
        <time>2019-04-18T04:17:16Z</time>
      </trkpt>
      <trkpt lat="46.07901" lon="7.14497">
        <ele>702</ele>
        <time>2019-04-18T04:18:16Z</time>
      </trkpt>
      <trkpt lat="46.07903" lon="7.14531">
        <ele>702</ele>
        <time>2019-04-18T04:19:16Z</time>
      </trkpt>
      <trkpt lat="46.079" lon="7.14534">
        <ele>703</ele>
        <time>2019-04-18T04:20:16Z</time>
      </trkpt>
      <trkpt lat="46.07896" lon="7.14542">
        <ele>704</ele>
        <time>2019-04-18T04:21:16Z</time>
      </trkpt>
      <trkpt lat="46.07896" lon="7.14552">
        <ele>704</ele>
        <time>2019-04-18T04:22:16Z</time>
      </trkpt>
      <trkpt lat="46.079" lon="7.14561">
        <ele>703</ele>
        <time>2019-04-18T04:23:16Z</time>
      </trkpt>
      <trkpt lat="46.07907" lon="7.14564">
        <ele>703</ele>
        <time>2019-04-18T04:24:16Z</time>
      </trkpt>
      <trkpt lat="46.07916" lon="7.1471">
        <ele>706</ele>
        <time>2019-04-18T04:25:16Z</time>
      </trkpt>
      <trkpt lat="46.07921" lon="7.14807">
        <ele>710</ele>
        <time>2019-04-18T04:26:16Z</time>
      </trkpt>
      <trkpt lat="46.07924" lon="7.14924">
        <ele>712</ele>
        <time>2019-04-18T04:27:16Z</time>
      </trkpt>
      <trkpt lat="46.0793" lon="7.15014">
        <ele>717</ele>
        <time>2019-04-18T04:28:16Z</time>
      </trkpt>
      <trkpt lat="46.0792" lon="7.15165">
        <ele>716</ele>
        <time>2019-04-18T04:29:16Z</time>
      </trkpt>
      <trkpt lat="46.07911" lon="7.15245">
        <ele>712</ele>
        <time>2019-04-18T04:30:16Z</time>
      </trkpt>
      <trkpt lat="46.07907" lon="7.15273">
        <ele>713</ele>
        <time>2019-04-18T04:31:16Z</time>
      </trkpt>
      <trkpt lat="46.07886" lon="7.1531">
        <ele>716</ele>
        <time>2019-04-18T04:32:16Z</time>
      </trkpt>
      <trkpt lat="46.07874" lon="7.15327">
        <ele>717</ele>
        <time>2019-04-18T04:33:16Z</time>
      </trkpt>
      <trkpt lat="46.07699" lon="7.15477">
        <ele>730</ele>
        <time>2019-04-18T04:34:16Z</time>
      </trkpt>
      <trkpt lat="46.07684" lon="7.15488">
        <ele>731</ele>
        <time>2019-04-18T04:35:16Z</time>
      </trkpt>
      <trkpt lat="46.07663" lon="7.155">
        <ele>733</ele>
        <time>2019-04-18T04:36:16Z</time>
      </trkpt>
      <trkpt lat="46.07637" lon="7.15504">
        <ele>736</ele>
        <time>2019-04-18T04:37:16Z</time>
      </trkpt>
      <trkpt lat="46.0761" lon="7.15502">
        <ele>739</ele>
        <time>2019-04-18T04:38:16Z</time>
      </trkpt>
      <trkpt lat="46.0759" lon="7.15496">
        <ele>742</ele>
        <time>2019-04-18T04:39:16Z</time>
      </trkpt>
      <trkpt lat="46.0757" lon="7.15484">
        <ele>745</ele>
        <time>2019-04-18T04:40:16Z</time>
      </trkpt>
      <trkpt lat="46.07502" lon="7.15405">
        <ele>751</ele>
        <time>2019-04-18T04:41:16Z</time>
      </trkpt>
      <trkpt lat="46.07492" lon="7.15399">
        <ele>752</ele>
        <time>2019-04-18T04:42:16Z</time>
      </trkpt>
      <trkpt lat="46.07481" lon="7.15395">
        <ele>753</ele>
        <time>2019-04-18T04:43:16Z</time>
      </trkpt>
      <trkpt lat="46.0734" lon="7.15398">
        <ele>757</ele>
        <time>2019-04-18T04:44:16Z</time>
      </trkpt>
      <trkpt lat="46.07331" lon="7.15401">
        <ele>757</ele>
        <time>2019-04-18T04:45:16Z</time>
      </trkpt>
      <trkpt lat="46.07321" lon="7.15406">
        <ele>756</ele>
        <time>2019-04-18T04:46:16Z</time>
      </trkpt>
      <trkpt lat="46.0724" lon="7.15476">
        <ele>763</ele>
        <time>2019-04-18T04:47:16Z</time>
      </trkpt>
      <trkpt lat="46.07217" lon="7.15487">
        <ele>764</ele>
        <time>2019-04-18T04:48:16Z</time>
      </trkpt>
      <trkpt lat="46.07196" lon="7.15484">
        <ele>763</ele>
        <time>2019-04-18T04:49:16Z</time>
      </trkpt>
      <trkpt lat="46.07169" lon="7.15469">
        <ele>761</ele>
        <time>2019-04-18T04:50:16Z</time>
      </trkpt>
      <trkpt lat="46.07115" lon="7.15433">
        <ele>763</ele>
        <time>2019-04-18T04:51:16Z</time>
      </trkpt>
      <trkpt lat="46.0706" lon="7.15407">
        <ele>764</ele>
        <time>2019-04-18T04:52:16Z</time>
      </trkpt>
      <trkpt lat="46.07002" lon="7.15388">
        <ele>762</ele>
        <time>2019-04-18T04:53:16Z</time>
      </trkpt>
      <trkpt lat="46.06965" lon="7.15384">
        <ele>760</ele>
        <time>2019-04-18T04:54:16Z</time>
      </trkpt>
      <trkpt lat="46.06928" lon="7.15392">
        <ele>757</ele>
        <time>2019-04-18T04:55:16Z</time>
      </trkpt>
      <trkpt lat="46.06872" lon="7.15418">
        <ele>759</ele>
        <time>2019-04-18T04:56:16Z</time>
      </trkpt>
      <trkpt lat="46.06853" lon="7.15417">
        <ele>759</ele>
        <time>2019-04-18T04:57:16Z</time>
      </trkpt>
      <trkpt lat="46.0684" lon="7.15412">
        <ele>759</ele>
        <time>2019-04-18T04:58:16Z</time>
      </trkpt>
      <trkpt lat="46.06821" lon="7.154">
        <ele>760</ele>
        <time>2019-04-18T04:59:16Z</time>
      </trkpt>
      <trkpt lat="46.06794" lon="7.15366">
        <ele>760</ele>
        <time>2019-04-18T05:00:16Z</time>
      </trkpt>
      <trkpt lat="46.06754" lon="7.15326">
        <ele>760</ele>
        <time>2019-04-18T05:01:16Z</time>
      </trkpt>
      <trkpt lat="46.06703" lon="7.15296">
        <ele>764</ele>
        <time>2019-04-18T05:02:16Z</time>
      </trkpt>
      <trkpt lat="46.06594" lon="7.15275">
        <ele>769</ele>
        <time>2019-04-18T05:03:16Z</time>
      </trkpt>
      <trkpt lat="46.06572" lon="7.15267">
        <ele>770</ele>
        <time>2019-04-18T05:04:16Z</time>
      </trkpt>
      <trkpt lat="46.06538" lon="7.15245">
        <ele>772</ele>
        <time>2019-04-18T05:05:16Z</time>
      </trkpt>
      <trkpt lat="46.06493" lon="7.152">
        <ele>775</ele>
        <time>2019-04-18T05:06:16Z</time>
      </trkpt>
      <trkpt lat="46.06452" lon="7.15145">
        <ele>779</ele>
        <time>2019-04-18T05:07:16Z</time>
      </trkpt>
      <trkpt lat="46.06377" lon="7.15014">
        <ele>788</ele>
        <time>2019-04-18T05:08:16Z</time>
      </trkpt>
      <trkpt lat="46.06346" lon="7.14966">
        <ele>784</ele>
        <time>2019-04-18T05:09:16Z</time>
      </trkpt>
      <trkpt lat="46.06303" lon="7.14918">
        <ele>776</ele>
        <time>2019-04-18T05:10:16Z</time>
      </trkpt>
      <trkpt lat="46.06254" lon="7.1488">
        <ele>779</ele>
        <time>2019-04-18T05:11:16Z</time>
      </trkpt>
      <trkpt lat="46.062" lon="7.14848">
        <ele>776</ele>
        <time>2019-04-18T05:12:16Z</time>
      </trkpt>
      <trkpt lat="46.06144" lon="7.1483">
        <ele>778</ele>
        <time>2019-04-18T05:13:16Z</time>
      </trkpt>
      <trkpt lat="46.06087" lon="7.14823">
        <ele>783</ele>
        <time>2019-04-18T05:14:16Z</time>
      </trkpt>
      <trkpt lat="46.06041" lon="7.14823">
        <ele>788</ele>
        <time>2019-04-18T05:15:16Z</time>
      </trkpt>
      <trkpt lat="46.05981" lon="7.1483">
        <ele>791</ele>
        <time>2019-04-18T05:16:16Z</time>
      </trkpt>
      <trkpt lat="46.05919" lon="7.14847">
        <ele>792</ele>
        <time>2019-04-18T05:17:16Z</time>
      </trkpt>
      <trkpt lat="46.05876" lon="7.14865">
        <ele>796</ele>
        <time>2019-04-18T05:18:16Z</time>
      </trkpt>
      <trkpt lat="46.05723" lon="7.14945">
        <ele>800</ele>
        <time>2019-04-18T05:19:16Z</time>
      </trkpt>
      <trkpt lat="46.05661" lon="7.14968">
        <ele>798</ele>
        <time>2019-04-18T05:20:16Z</time>
      </trkpt>
      <trkpt lat="46.05631" lon="7.14976">
        <ele>798</ele>
        <time>2019-04-18T05:21:16Z</time>
      </trkpt>
      <trkpt lat="46.05597" lon="7.1498">
        <ele>799</ele>
        <time>2019-04-18T05:22:16Z</time>
      </trkpt>
      <trkpt lat="46.05542" lon="7.14982">
        <ele>802</ele>
        <time>2019-04-18T05:23:16Z</time>
      </trkpt>
      <trkpt lat="46.05377" lon="7.1496">
        <ele>807</ele>
        <time>2019-04-18T05:24:16Z</time>
      </trkpt>
      <trkpt lat="46.05264" lon="7.14967">
        <ele>807</ele>
        <time>2019-04-18T05:25:16Z</time>
      </trkpt>
      <trkpt lat="46.05209" lon="7.14964">
        <ele>809</ele>
        <time>2019-04-18T05:26:16Z</time>
      </trkpt>
      <trkpt lat="46.05153" lon="7.14951">
        <ele>810</ele>
        <time>2019-04-18T05:27:16Z</time>
      </trkpt>
      <trkpt lat="46.05099" lon="7.14927">
        <ele>808</ele>
        <time>2019-04-18T05:28:16Z</time>
      </trkpt>
      <trkpt lat="46.05034" lon="7.14886">
        <ele>815</ele>
        <time>2019-04-18T05:29:16Z</time>
      </trkpt>
      <trkpt lat="46.04947" lon="7.14824">
        <ele>822</ele>
        <time>2019-04-18T05:30:16Z</time>
      </trkpt>
      <trkpt lat="46.04919" lon="7.14809">
        <ele>826</ele>
        <time>2019-04-18T05:31:16Z</time>
      </trkpt>
      <trkpt lat="46.04859" lon="7.14788">
        <ele>832</ele>
        <time>2019-04-18T05:32:16Z</time>
      </trkpt>
      <trkpt lat="46.04807" lon="7.14782">
        <ele>832</ele>
        <time>2019-04-18T05:33:16Z</time>
      </trkpt>
      <trkpt lat="46.04766" lon="7.14784">
        <ele>830</ele>
        <time>2019-04-18T05:34:16Z</time>
      </trkpt>
      <trkpt lat="46.04733" lon="7.14789">
        <ele>828</ele>
        <time>2019-04-18T05:35:16Z</time>
      </trkpt>
      <trkpt lat="46.04679" lon="7.14807">
        <ele>826</ele>
        <time>2019-04-18T05:36:16Z</time>
      </trkpt>
      <trkpt lat="46.04573" lon="7.14854">
        <ele>831</ele>
        <time>2019-04-18T05:37:16Z</time>
      </trkpt>
      <trkpt lat="46.04526" lon="7.1487">
        <ele>836</ele>
        <time>2019-04-18T05:38:16Z</time>
      </trkpt>
      <trkpt lat="46.04505" lon="7.14874">
        <ele>837</ele>
        <time>2019-04-18T05:39:16Z</time>
      </trkpt>
      <trkpt lat="46.04438" lon="7.14879">
        <ele>839</ele>
        <time>2019-04-18T05:40:16Z</time>
      </trkpt>
      <trkpt lat="46.04408" lon="7.14878">
        <ele>840</ele>
        <time>2019-04-18T05:41:16Z</time>
      </trkpt>
      <trkpt lat="46.04351" lon="7.14869">
        <ele>840</ele>
        <time>2019-04-18T05:42:16Z</time>
      </trkpt>
      <trkpt lat="46.04298" lon="7.14849">
        <ele>844</ele>
        <time>2019-04-18T05:43:16Z</time>
      </trkpt>
      <trkpt lat="46.04255" lon="7.14827">
        <ele>840</ele>
        <time>2019-04-18T05:44:16Z</time>
      </trkpt>
      <trkpt lat="46.04148" lon="7.14759">
        <ele>845</ele>
        <time>2019-04-18T05:45:16Z</time>
      </trkpt>
      <trkpt lat="46.04097" lon="7.14733">
        <ele>844</ele>
        <time>2019-04-18T05:46:16Z</time>
      </trkpt>
      <trkpt lat="46.04045" lon="7.14714">
        <ele>847</ele>
        <time>2019-04-18T05:47:16Z</time>
      </trkpt>
      <trkpt lat="46.03993" lon="7.14699">
        <ele>850</ele>
        <time>2019-04-18T05:48:16Z</time>
      </trkpt>
      <trkpt lat="46.03936" lon="7.14691">
        <ele>854</ele>
        <time>2019-04-18T05:49:16Z</time>
      </trkpt>
      <trkpt lat="46.0387" lon="7.1469">
        <ele>858</ele>
        <time>2019-04-18T05:50:16Z</time>
      </trkpt>
      <trkpt lat="46.03868" lon="7.14683">
        <ele>858</ele>
        <time>2019-04-18T05:51:16Z</time>
      </trkpt>
      <trkpt lat="46.03862" lon="7.1468">
        <ele>858</ele>
        <time>2019-04-18T05:52:16Z</time>
      </trkpt>
      <trkpt lat="46.03857" lon="7.14683">
        <ele>859</ele>
        <time>2019-04-18T05:53:16Z</time>
      </trkpt>
      <trkpt lat="46.03855" lon="7.1469">
        <ele>859</ele>
        <time>2019-04-18T05:54:16Z</time>
      </trkpt>
      <trkpt lat="46.03787" lon="7.14695">
        <ele>864</ele>
        <time>2019-04-18T05:55:16Z</time>
      </trkpt>
      <trkpt lat="46.03737" lon="7.1471">
        <ele>869</ele>
        <time>2019-04-18T05:56:16Z</time>
      </trkpt>
      <trkpt lat="46.03699" lon="7.14717">
        <ele>870</ele>
        <time>2019-04-18T05:57:16Z</time>
      </trkpt>
      <trkpt lat="46.03666" lon="7.14719">
        <ele>870</ele>
        <time>2019-04-18T05:58:16Z</time>
      </trkpt>
      <trkpt lat="46.03638" lon="7.14718">
        <ele>874</ele>
        <time>2019-04-18T05:59:16Z</time>
      </trkpt>
      <trkpt lat="46.03545" lon="7.14698">
        <ele>877</ele>
        <time>2019-04-18T06:00:16Z</time>
      </trkpt>
      <trkpt lat="46.03478" lon="7.14695">
        <ele>881</ele>
        <time>2019-04-18T06:01:16Z</time>
      </trkpt>
      <trkpt lat="46.03442" lon="7.147">
        <ele>884</ele>
        <time>2019-04-18T06:02:16Z</time>
      </trkpt>
      <trkpt lat="46.03402" lon="7.14711">
        <ele>888</ele>
        <time>2019-04-18T06:03:16Z</time>
      </trkpt>
      <trkpt lat="46.03334" lon="7.14734">
        <ele>890</ele>
        <time>2019-04-18T06:04:16Z</time>
      </trkpt>
      <trkpt lat="46.03299" lon="7.14743">
        <ele>892</ele>
        <time>2019-04-18T06:05:16Z</time>
      </trkpt>
      <trkpt lat="46.03263" lon="7.14747">
        <ele>892</ele>
        <time>2019-04-18T06:06:16Z</time>
      </trkpt>
      <trkpt lat="46.03227" lon="7.14748">
        <ele>895</ele>
        <time>2019-04-18T06:07:16Z</time>
      </trkpt>
      <trkpt lat="46.03114" lon="7.14735">
        <ele>903</ele>
        <time>2019-04-18T06:08:16Z</time>
      </trkpt>
      <trkpt lat="46.03037" lon="7.14735">
        <ele>908</ele>
        <time>2019-04-18T06:09:16Z</time>
      </trkpt>
      <trkpt lat="46.02946" lon="7.14747">
        <ele>917</ele>
        <time>2019-04-18T06:10:16Z</time>
      </trkpt>
      <trkpt lat="46.02851" lon="7.14752">
        <ele>924</ele>
        <time>2019-04-18T06:11:16Z</time>
      </trkpt>
      <trkpt lat="46.02714" lon="7.14737">
        <ele>929</ele>
        <time>2019-04-18T06:12:16Z</time>
      </trkpt>
      <trkpt lat="46.02657" lon="7.14738">
        <ele>930</ele>
        <time>2019-04-18T06:13:16Z</time>
      </trkpt>
      <trkpt lat="46.02602" lon="7.14747">
        <ele>935</ele>
        <time>2019-04-18T06:14:16Z</time>
      </trkpt>
      <trkpt lat="46.02566" lon="7.14748">
        <ele>937</ele>
        <time>2019-04-18T06:15:16Z</time>
      </trkpt>
      <trkpt lat="46.02542" lon="7.14744">
        <ele>937</ele>
        <time>2019-04-18T06:16:16Z</time>
      </trkpt>
      <trkpt lat="46.02495" lon="7.14726">
        <ele>936</ele>
        <time>2019-04-18T06:17:16Z</time>
      </trkpt>
      <trkpt lat="46.02458" lon="7.14699">
        <ele>936</ele>
        <time>2019-04-18T06:18:16Z</time>
      </trkpt>
      <trkpt lat="46.02423" lon="7.14669">
        <ele>938</ele>
        <time>2019-04-18T06:19:16Z</time>
      </trkpt>
      <trkpt lat="46.02408" lon="7.1466">
        <ele>938</ele>
        <time>2019-04-18T06:20:16Z</time>
      </trkpt>
      <trkpt lat="46.02377" lon="7.14649">
        <ele>937</ele>
        <time>2019-04-18T06:21:16Z</time>
      </trkpt>
      <trkpt lat="46.02357" lon="7.14649">
        <ele>938</ele>
        <time>2019-04-18T06:22:16Z</time>
      </trkpt>
      <trkpt lat="46.02327" lon="7.14667">
        <ele>941</ele>
        <time>2019-04-18T06:23:16Z</time>
      </trkpt>
      <trkpt lat="46.0232" lon="7.14676">
        <ele>942</ele>
        <time>2019-04-18T06:24:16Z</time>
      </trkpt>
      <trkpt lat="46.02303" lon="7.14704">
        <ele>945</ele>
        <time>2019-04-18T06:25:16Z</time>
      </trkpt>
      <trkpt lat="46.02297" lon="7.14723">
        <ele>946</ele>
        <time>2019-04-18T06:26:16Z</time>
      </trkpt>
      <trkpt lat="46.02292" lon="7.14758">
        <ele>948</ele>
        <time>2019-04-18T06:27:16Z</time>
      </trkpt>
      <trkpt lat="46.02296" lon="7.14785">
        <ele>950</ele>
        <time>2019-04-18T06:28:16Z</time>
      </trkpt>
      <trkpt lat="46.02305" lon="7.14819">
        <ele>952</ele>
        <time>2019-04-18T06:29:16Z</time>
      </trkpt>
      <trkpt lat="46.02319" lon="7.14841">
        <ele>953</ele>
        <time>2019-04-18T06:30:16Z</time>
      </trkpt>
      <trkpt lat="46.02341" lon="7.14862">
        <ele>955</ele>
        <time>2019-04-18T06:31:16Z</time>
      </trkpt>
      <trkpt lat="46.02356" lon="7.14872">
        <ele>957</ele>
        <time>2019-04-18T06:32:16Z</time>
      </trkpt>
      <trkpt lat="46.02389" lon="7.14884">
        <ele>960</ele>
        <time>2019-04-18T06:33:16Z</time>
      </trkpt>
      <trkpt lat="46.02455" lon="7.14892">
        <ele>968</ele>
        <time>2019-04-18T06:34:16Z</time>
      </trkpt>
      <trkpt lat="46.02497" lon="7.14892">
        <ele>974</ele>
        <time>2019-04-18T06:35:16Z</time>
      </trkpt>
      <trkpt lat="46.0255" lon="7.14883">
        <ele>972</ele>
        <time>2019-04-18T06:36:16Z</time>
      </trkpt>
      <trkpt lat="46.02618" lon="7.1486">
        <ele>968</ele>
        <time>2019-04-18T06:37:16Z</time>
      </trkpt>
      <trkpt lat="46.02673" lon="7.14852">
        <ele>968</ele>
        <time>2019-04-18T06:38:16Z</time>
      </trkpt>
      <trkpt lat="46.02718" lon="7.14854">
        <ele>972</ele>
        <time>2019-04-18T06:39:16Z</time>
      </trkpt>
      <trkpt lat="46.02738" lon="7.1486">
        <ele>975</ele>
        <time>2019-04-18T06:40:16Z</time>
      </trkpt>
      <trkpt lat="46.02759" lon="7.14878">
        <ele>978</ele>
        <time>2019-04-18T06:41:16Z</time>
      </trkpt>
      <trkpt lat="46.02772" lon="7.14897">
        <ele>979</ele>
        <time>2019-04-18T06:42:16Z</time>
      </trkpt>
      <trkpt lat="46.02778" lon="7.1491">
        <ele>981</ele>
        <time>2019-04-18T06:43:16Z</time>
      </trkpt>
      <trkpt lat="46.02784" lon="7.14939">
        <ele>982</ele>
        <time>2019-04-18T06:44:16Z</time>
      </trkpt>
      <trkpt lat="46.02785" lon="7.14957">
        <ele>983</ele>
        <time>2019-04-18T06:45:16Z</time>
      </trkpt>
      <trkpt lat="46.0278" lon="7.14984">
        <ele>986</ele>
        <time>2019-04-18T06:46:16Z</time>
      </trkpt>
      <trkpt lat="46.02769" lon="7.15009">
        <ele>989</ele>
        <time>2019-04-18T06:47:16Z</time>
      </trkpt>
      <trkpt lat="46.02753" lon="7.1503">
        <ele>993</ele>
        <time>2019-04-18T06:48:16Z</time>
      </trkpt>
      <trkpt lat="46.02743" lon="7.15036">
        <ele>995</ele>
        <time>2019-04-18T06:49:16Z</time>
      </trkpt>
      <trkpt lat="46.02733" lon="7.15039">
        <ele>995</ele>
        <time>2019-04-18T06:50:16Z</time>
      </trkpt>
      <trkpt lat="46.02692" lon="7.15037">
        <ele>997</ele>
        <time>2019-04-18T06:51:16Z</time>
      </trkpt>
      <trkpt lat="46.02629" lon="7.15028">
        <ele>999</ele>
        <time>2019-04-18T06:52:16Z</time>
      </trkpt>
      <trkpt lat="46.02594" lon="7.15034">
        <ele>1002</ele>
        <time>2019-04-18T06:53:16Z</time>
      </trkpt>
      <trkpt lat="46.02532" lon="7.15057">
        <ele>1006</ele>
        <time>2019-04-18T06:54:16Z</time>
      </trkpt>
      <trkpt lat="46.02492" lon="7.15066">
        <ele>1008</ele>
        <time>2019-04-18T06:55:16Z</time>
      </trkpt>
      <trkpt lat="46.02457" lon="7.15068">
        <ele>1010</ele>
        <time>2019-04-18T06:56:16Z</time>
      </trkpt>
      <trkpt lat="46.02401" lon="7.15068">
        <ele>1011</ele>
        <time>2019-04-18T06:57:16Z</time>
      </trkpt>
      <trkpt lat="46.02378" lon="7.15072">
        <ele>1012</ele>
        <time>2019-04-18T06:58:16Z</time>
      </trkpt>
      <trkpt lat="46.02339" lon="7.15087">
        <ele>1016</ele>
        <time>2019-04-18T06:59:16Z</time>
      </trkpt>
      <trkpt lat="46.0231" lon="7.15106">
        <ele>1018</ele>
        <time>2019-04-18T07:00:16Z</time>
      </trkpt>
      <trkpt lat="46.02247" lon="7.15168">
        <ele>1031</ele>
        <time>2019-04-18T07:01:16Z</time>
      </trkpt>
      <trkpt lat="46.02218" lon="7.1519">
        <ele>1035</ele>
        <time>2019-04-18T07:02:16Z</time>
      </trkpt>
      <trkpt lat="46.02164" lon="7.15221">
        <ele>1039</ele>
        <time>2019-04-18T07:03:16Z</time>
      </trkpt>
      <trkpt lat="46.02145" lon="7.15235">
        <ele>1039</ele>
        <time>2019-04-18T07:04:16Z</time>
      </trkpt>
      <trkpt lat="46.02118" lon="7.1526">
        <ele>1040</ele>
        <time>2019-04-18T07:05:16Z</time>
      </trkpt>
      <trkpt lat="46.02097" lon="7.15284">
        <ele>1042</ele>
        <time>2019-04-18T07:06:16Z</time>
      </trkpt>
      <trkpt lat="46.02064" lon="7.15334">
        <ele>1045</ele>
        <time>2019-04-18T07:07:16Z</time>
      </trkpt>
      <trkpt lat="46.02042" lon="7.15376">
        <ele>1048</ele>
        <time>2019-04-18T07:08:16Z</time>
      </trkpt>
      <trkpt lat="46.01978" lon="7.15519">
        <ele>1064</ele>
        <time>2019-04-18T07:09:16Z</time>
      </trkpt>
      <trkpt lat="46.01959" lon="7.15557">
        <ele>1070</ele>
        <time>2019-04-18T07:10:16Z</time>
      </trkpt>
      <trkpt lat="46.01945" lon="7.15579">
        <ele>1072</ele>
        <time>2019-04-18T07:11:16Z</time>
      </trkpt>
      <trkpt lat="46.01896" lon="7.15641">
        <ele>1074</ele>
        <time>2019-04-18T07:12:16Z</time>
      </trkpt>
      <trkpt lat="46.01874" lon="7.15684">
        <ele>1077</ele>
        <time>2019-04-18T07:13:16Z</time>
      </trkpt>
      <trkpt lat="46.0186" lon="7.15724">
        <ele>1077</ele>
        <time>2019-04-18T07:14:16Z</time>
      </trkpt>
      <trkpt lat="46.01823" lon="7.15871">
        <ele>1093</ele>
        <time>2019-04-18T07:15:16Z</time>
      </trkpt>
      <trkpt lat="46.01812" lon="7.15921">
        <ele>1103</ele>
        <time>2019-04-18T07:16:16Z</time>
      </trkpt>
      <trkpt lat="46.01805" lon="7.15934">
        <ele>1103</ele>
        <time>2019-04-18T07:17:16Z</time>
      </trkpt>
      <trkpt lat="46.01778" lon="7.15971">
        <ele>1101</ele>
        <time>2019-04-18T07:18:16Z</time>
      </trkpt>
      <trkpt lat="46.01771" lon="7.15989">
        <ele>1102</ele>
        <time>2019-04-18T07:19:16Z</time>
      </trkpt>
      <trkpt lat="46.01764" lon="7.16021">
        <ele>1106</ele>
        <time>2019-04-18T07:20:16Z</time>
      </trkpt>
      <trkpt lat="46.01758" lon="7.16042">
        <ele>1108</ele>
        <time>2019-04-18T07:21:16Z</time>
      </trkpt>
      <trkpt lat="46.01734" lon="7.16088">
        <ele>1114</ele>
        <time>2019-04-18T07:22:16Z</time>
      </trkpt>
      <trkpt lat="46.01732" lon="7.16098">
        <ele>1115</ele>
        <time>2019-04-18T07:23:16Z</time>
      </trkpt>
      <trkpt lat="46.01731" lon="7.16113">
        <ele>1117</ele>
        <time>2019-04-18T07:24:16Z</time>
      </trkpt>
      <trkpt lat="46.01733" lon="7.16153">
        <ele>1121</ele>
        <time>2019-04-18T07:25:16Z</time>
      </trkpt>
      <trkpt lat="46.01731" lon="7.16162">
        <ele>1122</ele>
        <time>2019-04-18T07:26:16Z</time>
      </trkpt>
      <trkpt lat="46.01721" lon="7.16174">
        <ele>1123</ele>
        <time>2019-04-18T07:27:16Z</time>
      </trkpt>
      <trkpt lat="46.01712" lon="7.16176">
        <ele>1123</ele>
        <time>2019-04-18T07:28:16Z</time>
      </trkpt>
      <trkpt lat="46.01702" lon="7.16169">
        <ele>1121</ele>
        <time>2019-04-18T07:29:16Z</time>
      </trkpt>
      <trkpt lat="46.01671" lon="7.16117">
        <ele>1113</ele>
        <time>2019-04-18T07:30:16Z</time>
      </trkpt>
      <trkpt lat="46.01661" lon="7.16105">
        <ele>1111</ele>
        <time>2019-04-18T07:31:16Z</time>
      </trkpt>
      <trkpt lat="46.01648" lon="7.16099">
        <ele>1108</ele>
        <time>2019-04-18T07:32:16Z</time>
      </trkpt>
      <trkpt lat="46.01635" lon="7.16102">
        <ele>1107</ele>
        <time>2019-04-18T07:33:16Z</time>
      </trkpt>
      <trkpt lat="46.01624" lon="7.16115">
        <ele>1107</ele>
        <time>2019-04-18T07:34:16Z</time>
      </trkpt>
      <trkpt lat="46.01618" lon="7.16142">
        <ele>1110</ele>
        <time>2019-04-18T07:35:16Z</time>
      </trkpt>
      <trkpt lat="46.01612" lon="7.16205">
        <ele>1116</ele>
        <time>2019-04-18T07:36:16Z</time>
      </trkpt>
      <trkpt lat="46.01608" lon="7.16234">
        <ele>1118</ele>
        <time>2019-04-18T07:37:16Z</time>
      </trkpt>
      <trkpt lat="46.01602" lon="7.16261">
        <ele>1121</ele>
        <time>2019-04-18T07:38:16Z</time>
      </trkpt>
      <trkpt lat="46.01592" lon="7.16287">
        <ele>1124</ele>
        <time>2019-04-18T07:39:16Z</time>
      </trkpt>
      <trkpt lat="46.01581" lon="7.1631">
        <ele>1125</ele>
        <time>2019-04-18T07:40:16Z</time>
      </trkpt>
      <trkpt lat="46.01559" lon="7.16349">
        <ele>1125</ele>
        <time>2019-04-18T07:41:16Z</time>
      </trkpt>
      <trkpt lat="46.01519" lon="7.16403">
        <ele>1122</ele>
        <time>2019-04-18T07:42:16Z</time>
      </trkpt>
      <trkpt lat="46.01496" lon="7.16444">
        <ele>1126</ele>
        <time>2019-04-18T07:43:16Z</time>
      </trkpt>
      <trkpt lat="46.01482" lon="7.16463">
        <ele>1129</ele>
        <time>2019-04-18T07:44:16Z</time>
      </trkpt>
      <trkpt lat="46.01437" lon="7.16504">
        <ele>1131</ele>
        <time>2019-04-18T07:45:16Z</time>
      </trkpt>
      <trkpt lat="46.01388" lon="7.16536">
        <ele>1133</ele>
        <time>2019-04-18T07:46:16Z</time>
      </trkpt>
      <trkpt lat="46.0131" lon="7.16575">
        <ele>1132</ele>
        <time>2019-04-18T07:47:16Z</time>
      </trkpt>
      <trkpt lat="46.01287" lon="7.16598">
        <ele>1132</ele>
        <time>2019-04-18T07:48:16Z</time>
      </trkpt>
      <trkpt lat="46.01274" lon="7.16633">
        <ele>1138</ele>
        <time>2019-04-18T07:49:16Z</time>
      </trkpt>
      <trkpt lat="46.01252" lon="7.16703">
        <ele>1149</ele>
        <time>2019-04-18T07:50:16Z</time>
      </trkpt>
      <trkpt lat="46.01213" lon="7.16763">
        <ele>1154</ele>
        <time>2019-04-18T07:51:16Z</time>
      </trkpt>
      <trkpt lat="46.01179" lon="7.16798">
        <ele>1157</ele>
        <time>2019-04-18T07:52:16Z</time>
      </trkpt>
      <trkpt lat="46.01073" lon="7.16851">
        <ele>1160</ele>
        <time>2019-04-18T07:53:16Z</time>
      </trkpt>
      <trkpt lat="46.01023" lon="7.1687">
        <ele>1163</ele>
        <time>2019-04-18T07:54:16Z</time>
      </trkpt>
      <trkpt lat="46.00994" lon="7.16878">
        <ele>1163</ele>
        <time>2019-04-18T07:55:16Z</time>
      </trkpt>
      <trkpt lat="46.00974" lon="7.16887">
        <ele>1164</ele>
        <time>2019-04-18T07:56:16Z</time>
      </trkpt>
      <trkpt lat="46.00956" lon="7.16899">
        <ele>1166</ele>
        <time>2019-04-18T07:57:16Z</time>
      </trkpt>
      <trkpt lat="46.00929" lon="7.16923">
        <ele>1168</ele>
        <time>2019-04-18T07:58:16Z</time>
      </trkpt>
      <trkpt lat="46.00907" lon="7.16936">
        <ele>1169</ele>
        <time>2019-04-18T07:59:16Z</time>
      </trkpt>
      <trkpt lat="46.00863" lon="7.16945">
        <ele>1171</ele>
        <time>2019-04-18T08:00:16Z</time>
      </trkpt>
      <trkpt lat="46.00834" lon="7.16942">
        <ele>1171</ele>
        <time>2019-04-18T08:01:16Z</time>
      </trkpt>
      <trkpt lat="46.00815" lon="7.16937">
        <ele>1176</ele>
        <time>2019-04-18T08:02:16Z</time>
      </trkpt>
      <trkpt lat="46.00803" lon="7.1694">
        <ele>1181</ele>
        <time>2019-04-18T08:03:16Z</time>
      </trkpt>
      <trkpt lat="46.00794" lon="7.16952">
        <ele>1185</ele>
        <time>2019-04-18T08:04:16Z</time>
      </trkpt>
      <trkpt lat="46.00793" lon="7.16963">
        <ele>1188</ele>
        <time>2019-04-18T08:05:16Z</time>
      </trkpt>
      <trkpt lat="46.00793" lon="7.16974">
        <ele>1189</ele>
        <time>2019-04-18T08:06:16Z</time>
      </trkpt>
      <trkpt lat="46.00797" lon="7.16985">
        <ele>1190</ele>
        <time>2019-04-18T08:07:16Z</time>
      </trkpt>
      <trkpt lat="46.00807" lon="7.16991">
        <ele>1187</ele>
        <time>2019-04-18T08:08:16Z</time>
      </trkpt>
      <trkpt lat="46.00836" lon="7.16991">
        <ele>1178</ele>
        <time>2019-04-18T08:09:16Z</time>
      </trkpt>
      <trkpt lat="46.0086" lon="7.16996">
        <ele>1178</ele>
        <time>2019-04-18T08:10:16Z</time>
      </trkpt>
      <trkpt lat="46.00919" lon="7.17024">
        <ele>1185</ele>
        <time>2019-04-18T08:11:16Z</time>
      </trkpt>
      <trkpt lat="46.00951" lon="7.17022">
        <ele>1189</ele>
        <time>2019-04-18T08:12:16Z</time>
      </trkpt>
      <trkpt lat="46.00973" lon="7.17012">
        <ele>1190</ele>
        <time>2019-04-18T08:13:16Z</time>
      </trkpt>
      <trkpt lat="46.00996" lon="7.16992">
        <ele>1189</ele>
        <time>2019-04-18T08:14:16Z</time>
      </trkpt>
      <trkpt lat="46.0103" lon="7.16934">
        <ele>1179</ele>
        <time>2019-04-18T08:15:16Z</time>
      </trkpt>
      <trkpt lat="46.01038" lon="7.16932">
        <ele>1179</ele>
        <time>2019-04-18T08:16:16Z</time>
      </trkpt>
      <trkpt lat="46.01046" lon="7.16937">
        <ele>1181</ele>
        <time>2019-04-18T08:17:16Z</time>
      </trkpt>
      <trkpt lat="46.01052" lon="7.16947">
        <ele>1185</ele>
        <time>2019-04-18T08:18:16Z</time>
      </trkpt>
      <trkpt lat="46.01054" lon="7.16956">
        <ele>1188</ele>
        <time>2019-04-18T08:19:16Z</time>
      </trkpt>
      <trkpt lat="46.01054" lon="7.16971">
        <ele>1192</ele>
        <time>2019-04-18T08:20:16Z</time>
      </trkpt>
      <trkpt lat="46.01047" lon="7.16985">
        <ele>1195</ele>
        <time>2019-04-18T08:21:16Z</time>
      </trkpt>
      <trkpt lat="46.01033" lon="7.17">
        <ele>1198</ele>
        <time>2019-04-18T08:22:16Z</time>
      </trkpt>
      <trkpt lat="46.00963" lon="7.17054">
        <ele>1198</ele>
        <time>2019-04-18T08:23:16Z</time>
      </trkpt>
      <trkpt lat="46.00872" lon="7.17143">
        <ele>1212</ele>
        <time>2019-04-18T08:24:16Z</time>
      </trkpt>
      <trkpt lat="46.00856" lon="7.17148">
        <ele>1212</ele>
        <time>2019-04-18T08:25:16Z</time>
      </trkpt>
      <trkpt lat="46.0084" lon="7.1715">
        <ele>1212</ele>
        <time>2019-04-18T08:26:16Z</time>
      </trkpt>
      <trkpt lat="46.00818" lon="7.17143">
        <ele>1212</ele>
        <time>2019-04-18T08:27:16Z</time>
      </trkpt>
      <trkpt lat="46.00793" lon="7.17122">
        <ele>1212</ele>
        <time>2019-04-18T08:28:16Z</time>
      </trkpt>
      <trkpt lat="46.00769" lon="7.17093">
        <ele>1215</ele>
        <time>2019-04-18T08:29:16Z</time>
      </trkpt>
      <trkpt lat="46.00743" lon="7.1703">
        <ele>1214</ele>
        <time>2019-04-18T08:30:16Z</time>
      </trkpt>
      <trkpt lat="46.00734" lon="7.17016">
        <ele>1214</ele>
        <time>2019-04-18T08:31:16Z</time>
      </trkpt>
      <trkpt lat="46.00717" lon="7.16996">
        <ele>1214</ele>
        <time>2019-04-18T08:32:16Z</time>
      </trkpt>
      <trkpt lat="46.00695" lon="7.16981">
        <ele>1215</ele>
        <time>2019-04-18T08:33:16Z</time>
      </trkpt>
      <trkpt lat="46.0068" lon="7.16976">
        <ele>1216</ele>
        <time>2019-04-18T08:34:16Z</time>
      </trkpt>
      <trkpt lat="46.00651" lon="7.16975">
        <ele>1217</ele>
        <time>2019-04-18T08:35:16Z</time>
      </trkpt>
      <trkpt lat="46.00636" lon="7.1698">
        <ele>1217</ele>
        <time>2019-04-18T08:36:16Z</time>
      </trkpt>
      <trkpt lat="46.00611" lon="7.16991">
        <ele>1219</ele>
        <time>2019-04-18T08:37:16Z</time>
      </trkpt>
      <trkpt lat="46.00598" lon="7.17">
        <ele>1221</ele>
        <time>2019-04-18T08:38:16Z</time>
      </trkpt>
      <trkpt lat="46.00574" lon="7.17027">
        <ele>1223</ele>
        <time>2019-04-18T08:39:16Z</time>
      </trkpt>
      <trkpt lat="46.00534" lon="7.17092">
        <ele>1229</ele>
        <time>2019-04-18T08:40:16Z</time>
      </trkpt>
      <trkpt lat="46.00519" lon="7.17113">
        <ele>1232</ele>
        <time>2019-04-18T08:41:16Z</time>
      </trkpt>
      <trkpt lat="46.00439" lon="7.17182">
        <ele>1236</ele>
        <time>2019-04-18T08:42:16Z</time>
      </trkpt>
      <trkpt lat="46.00418" lon="7.17207">
        <ele>1237</ele>
        <time>2019-04-18T08:43:16Z</time>
      </trkpt>
      <trkpt lat="46.00398" lon="7.17241">
        <ele>1240</ele>
        <time>2019-04-18T08:44:16Z</time>
      </trkpt>
      <trkpt lat="46.00377" lon="7.17281">
        <ele>1244</ele>
        <time>2019-04-18T08:45:16Z</time>
      </trkpt>
      <trkpt lat="46.00359" lon="7.17312">
        <ele>1247</ele>
        <time>2019-04-18T08:46:16Z</time>
      </trkpt>
      <trkpt lat="46.00335" lon="7.17345">
        <ele>1251</ele>
        <time>2019-04-18T08:47:16Z</time>
      </trkpt>
      <trkpt lat="46.00314" lon="7.17368">
        <ele>1252</ele>
        <time>2019-04-18T08:48:16Z</time>
      </trkpt>
      <trkpt lat="46.00212" lon="7.17445">
        <ele>1258</ele>
        <time>2019-04-18T08:49:16Z</time>
      </trkpt>
      <trkpt lat="46.0017" lon="7.17482">
        <ele>1264</ele>
        <time>2019-04-18T08:50:16Z</time>
      </trkpt>
      <trkpt lat="46.00119" lon="7.17519">
        <ele>1267</ele>
        <time>2019-04-18T08:51:16Z</time>
      </trkpt>
      <trkpt lat="45.99997" lon="7.17582">
        <ele>1273</ele>
        <time>2019-04-18T08:52:16Z</time>
      </trkpt>
      <trkpt lat="45.99971" lon="7.17599">
        <ele>1275</ele>
        <time>2019-04-18T08:53:16Z</time>
      </trkpt>
      <trkpt lat="45.99923" lon="7.17642">
        <ele>1282</ele>
        <time>2019-04-18T08:54:16Z</time>
      </trkpt>
      <trkpt lat="45.99864" lon="7.17669">
        <ele>1282</ele>
        <time>2019-04-18T08:55:16Z</time>
      </trkpt>
      <trkpt lat="45.99832" lon="7.17687">
        <ele>1283</ele>
        <time>2019-04-18T08:56:16Z</time>
      </trkpt>
      <trkpt lat="45.99817" lon="7.17705">
        <ele>1285</ele>
        <time>2019-04-18T08:57:16Z</time>
      </trkpt>
      <trkpt lat="45.99786" lon="7.17781">
        <ele>1297</ele>
        <time>2019-04-18T08:58:16Z</time>
      </trkpt>
      <trkpt lat="45.99773" lon="7.17806">
        <ele>1299</ele>
        <time>2019-04-18T08:59:16Z</time>
      </trkpt>
      <trkpt lat="45.99763" lon="7.17819">
        <ele>1301</ele>
        <time>2019-04-18T09:00:16Z</time>
      </trkpt>
      <trkpt lat="45.99731" lon="7.17846">
        <ele>1303</ele>
        <time>2019-04-18T09:01:16Z</time>
      </trkpt>
      <trkpt lat="45.99699" lon="7.1785">
        <ele>1304</ele>
        <time>2019-04-18T09:02:16Z</time>
      </trkpt>
      <trkpt lat="45.99665" lon="7.17829">
        <ele>1300</ele>
        <time>2019-04-18T09:03:16Z</time>
      </trkpt>
      <trkpt lat="45.99629" lon="7.17787">
        <ele>1294</ele>
        <time>2019-04-18T09:04:16Z</time>
      </trkpt>
      <trkpt lat="45.99621" lon="7.17775">
        <ele>1292</ele>
        <time>2019-04-18T09:05:16Z</time>
      </trkpt>
      <trkpt lat="45.99607" lon="7.17767">
        <ele>1291</ele>
        <time>2019-04-18T09:06:16Z</time>
      </trkpt>
      <trkpt lat="45.99594" lon="7.17779">
        <ele>1292</ele>
        <time>2019-04-18T09:07:16Z</time>
      </trkpt>
      <trkpt lat="45.99521" lon="7.17987">
        <ele>1307</ele>
        <time>2019-04-18T09:08:16Z</time>
      </trkpt>
      <trkpt lat="45.99371" lon="7.18313">
        <ele>1318</ele>
        <time>2019-04-18T09:09:16Z</time>
      </trkpt>
      <trkpt lat="45.99347" lon="7.18361">
        <ele>1320</ele>
        <time>2019-04-18T09:10:16Z</time>
      </trkpt>
      <trkpt lat="45.9934" lon="7.1837">
        <ele>1321</ele>
        <time>2019-04-18T09:11:16Z</time>
      </trkpt>
      <trkpt lat="45.99328" lon="7.1838">
        <ele>1321</ele>
        <time>2019-04-18T09:12:16Z</time>
      </trkpt>
      <trkpt lat="45.9925" lon="7.18422">
        <ele>1324</ele>
        <time>2019-04-18T09:13:16Z</time>
      </trkpt>
      <trkpt lat="45.9923" lon="7.18431">
        <ele>1326</ele>
        <time>2019-04-18T09:14:16Z</time>
      </trkpt>
      <trkpt lat="45.99217" lon="7.18431">
        <ele>1326</ele>
        <time>2019-04-18T09:15:16Z</time>
      </trkpt>
      <trkpt lat="45.99201" lon="7.18428">
        <ele>1327</ele>
        <time>2019-04-18T09:16:16Z</time>
      </trkpt>
      <trkpt lat="45.99133" lon="7.18399">
        <ele>1325</ele>
        <time>2019-04-18T09:17:16Z</time>
      </trkpt>
      <trkpt lat="45.9912" lon="7.18396">
        <ele>1324</ele>
        <time>2019-04-18T09:18:16Z</time>
      </trkpt>
      <trkpt lat="45.991" lon="7.18398">
        <ele>1323</ele>
        <time>2019-04-18T09:19:16Z</time>
      </trkpt>
      <trkpt lat="45.99092" lon="7.18402">
        <ele>1324</ele>
        <time>2019-04-18T09:20:16Z</time>
      </trkpt>
      <trkpt lat="45.99085" lon="7.18409">
        <ele>1326</ele>
        <time>2019-04-18T09:21:16Z</time>
      </trkpt>
      <trkpt lat="45.99074" lon="7.18426">
        <ele>1328</ele>
        <time>2019-04-18T09:22:16Z</time>
      </trkpt>
      <trkpt lat="45.9903" lon="7.18555">
        <ele>1340</ele>
        <time>2019-04-18T09:23:16Z</time>
      </trkpt>
      <trkpt lat="45.99022" lon="7.18569">
        <ele>1341</ele>
        <time>2019-04-18T09:24:16Z</time>
      </trkpt>
      <trkpt lat="45.99007" lon="7.1859">
        <ele>1342</ele>
        <time>2019-04-18T09:25:16Z</time>
      </trkpt>
      <trkpt lat="45.98871" lon="7.18706">
        <ele>1354</ele>
        <time>2019-04-18T09:26:16Z</time>
      </trkpt>
      <trkpt lat="45.98854" lon="7.1873">
        <ele>1357</ele>
        <time>2019-04-18T09:27:16Z</time>
      </trkpt>
      <trkpt lat="45.98824" lon="7.18783">
        <ele>1364</ele>
        <time>2019-04-18T09:28:16Z</time>
      </trkpt>
      <trkpt lat="45.98808" lon="7.18799">
        <ele>1366</ele>
        <time>2019-04-18T09:29:16Z</time>
      </trkpt>
      <trkpt lat="45.98733" lon="7.18862">
        <ele>1368</ele>
        <time>2019-04-18T09:30:16Z</time>
      </trkpt>
      <trkpt lat="45.98713" lon="7.18883">
        <ele>1368</ele>
        <time>2019-04-18T09:31:16Z</time>
      </trkpt>
      <trkpt lat="45.98654" lon="7.18971">
        <ele>1377</ele>
        <time>2019-04-18T09:32:16Z</time>
      </trkpt>
      <trkpt lat="45.98635" lon="7.18992">
        <ele>1380</ele>
        <time>2019-04-18T09:33:16Z</time>
      </trkpt>
      <trkpt lat="45.98489" lon="7.19092">
        <ele>1390</ele>
        <time>2019-04-18T09:34:16Z</time>
      </trkpt>
      <trkpt lat="45.98468" lon="7.1911">
        <ele>1392</ele>
        <time>2019-04-18T09:35:16Z</time>
      </trkpt>
      <trkpt lat="45.98457" lon="7.19124">
        <ele>1394</ele>
        <time>2019-04-18T09:36:16Z</time>
      </trkpt>
      <trkpt lat="45.98435" lon="7.19154">
        <ele>1397</ele>
        <time>2019-04-18T09:37:16Z</time>
      </trkpt>
      <trkpt lat="45.9841" lon="7.19202">
        <ele>1400</ele>
        <time>2019-04-18T09:38:16Z</time>
      </trkpt>
      <trkpt lat="45.98321" lon="7.194">
        <ele>1422</ele>
        <time>2019-04-18T09:39:16Z</time>
      </trkpt>
      <trkpt lat="45.98303" lon="7.19431">
        <ele>1424</ele>
        <time>2019-04-18T09:40:16Z</time>
      </trkpt>
      <trkpt lat="45.98244" lon="7.19513">
        <ele>1420</ele>
        <time>2019-04-18T09:41:16Z</time>
      </trkpt>
      <trkpt lat="45.98221" lon="7.19548">
        <ele>1422</ele>
        <time>2019-04-18T09:42:16Z</time>
      </trkpt>
      <trkpt lat="45.98193" lon="7.19613">
        <ele>1428</ele>
        <time>2019-04-18T09:43:16Z</time>
      </trkpt>
      <trkpt lat="45.98176" lon="7.19646">
        <ele>1430</ele>
        <time>2019-04-18T09:44:16Z</time>
      </trkpt>
      <trkpt lat="45.98155" lon="7.19673">
        <ele>1431</ele>
        <time>2019-04-18T09:45:16Z</time>
      </trkpt>
      <trkpt lat="45.98138" lon="7.19688">
        <ele>1434</ele>
        <time>2019-04-18T09:46:16Z</time>
      </trkpt>
      <trkpt lat="45.98117" lon="7.19702">
        <ele>1436</ele>
        <time>2019-04-18T09:47:16Z</time>
      </trkpt>
      <trkpt lat="45.98082" lon="7.19711">
        <ele>1435</ele>
        <time>2019-04-18T09:48:16Z</time>
      </trkpt>
      <trkpt lat="45.98051" lon="7.19713">
        <ele>1432</ele>
        <time>2019-04-18T09:49:16Z</time>
      </trkpt>
      <trkpt lat="45.98027" lon="7.19718">
        <ele>1432</ele>
        <time>2019-04-18T09:50:16Z</time>
      </trkpt>
      <trkpt lat="45.98" lon="7.19731">
        <ele>1435</ele>
        <time>2019-04-18T09:51:16Z</time>
      </trkpt>
      <trkpt lat="45.97979" lon="7.19748">
        <ele>1434</ele>
        <time>2019-04-18T09:52:16Z</time>
      </trkpt>
      <trkpt lat="45.97955" lon="7.19774">
        <ele>1433</ele>
        <time>2019-04-18T09:53:16Z</time>
      </trkpt>
      <trkpt lat="45.9789" lon="7.19905">
        <ele>1449</ele>
        <time>2019-04-18T09:54:16Z</time>
      </trkpt>
      <trkpt lat="45.97856" lon="7.1996">
        <ele>1457</ele>
        <time>2019-04-18T09:55:16Z</time>
      </trkpt>
      <trkpt lat="45.97814" lon="7.20017">
        <ele>1465</ele>
        <time>2019-04-18T09:56:16Z</time>
      </trkpt>
      <trkpt lat="45.97794" lon="7.20041">
        <ele>1470</ele>
        <time>2019-04-18T09:57:16Z</time>
      </trkpt>
      <trkpt lat="45.97772" lon="7.20063">
        <ele>1471</ele>
        <time>2019-04-18T09:58:16Z</time>
      </trkpt>
      <trkpt lat="45.97724" lon="7.20103">
        <ele>1467</ele>
        <time>2019-04-18T09:59:16Z</time>
      </trkpt>
      <trkpt lat="45.97699" lon="7.20127">
        <ele>1467</ele>
        <time>2019-04-18T10:00:16Z</time>
      </trkpt>
      <trkpt lat="45.97672" lon="7.20162">
        <ele>1472</ele>
        <time>2019-04-18T10:01:16Z</time>
      </trkpt>
      <trkpt lat="45.97649" lon="7.20187">
        <ele>1472</ele>
        <time>2019-04-18T10:02:16Z</time>
      </trkpt>
      <trkpt lat="45.9759" lon="7.20241">
        <ele>1470</ele>
        <time>2019-04-18T10:03:16Z</time>
      </trkpt>
      <trkpt lat="45.97563" lon="7.20276">
        <ele>1473</ele>
        <time>2019-04-18T10:04:16Z</time>
      </trkpt>
      <trkpt lat="45.97529" lon="7.20326">
        <ele>1478</ele>
        <time>2019-04-18T10:05:16Z</time>
      </trkpt>
      <trkpt lat="45.97506" lon="7.20355">
        <ele>1479</ele>
        <time>2019-04-18T10:06:16Z</time>
      </trkpt>
      <trkpt lat="45.97461" lon="7.20395">
        <ele>1482</ele>
        <time>2019-04-18T10:07:16Z</time>
      </trkpt>
      <trkpt lat="45.9744" lon="7.20418">
        <ele>1484</ele>
        <time>2019-04-18T10:08:16Z</time>
      </trkpt>
      <trkpt lat="45.9742" lon="7.20448">
        <ele>1485</ele>
        <time>2019-04-18T10:09:16Z</time>
      </trkpt>
      <trkpt lat="45.97405" lon="7.20478">
        <ele>1488</ele>
        <time>2019-04-18T10:10:16Z</time>
      </trkpt>
      <trkpt lat="45.97393" lon="7.20517">
        <ele>1492</ele>
        <time>2019-04-18T10:11:16Z</time>
      </trkpt>
      <trkpt lat="45.97377" lon="7.20588">
        <ele>1500</ele>
        <time>2019-04-18T10:12:16Z</time>
      </trkpt>
      <trkpt lat="45.97369" lon="7.20619">
        <ele>1503</ele>
        <time>2019-04-18T10:13:16Z</time>
      </trkpt>
      <trkpt lat="45.97358" lon="7.2065">
        <ele>1505</ele>
        <time>2019-04-18T10:14:16Z</time>
      </trkpt>
      <trkpt lat="45.97344" lon="7.20682">
        <ele>1506</ele>
        <time>2019-04-18T10:15:16Z</time>
      </trkpt>
      <trkpt lat="45.97328" lon="7.20706">
        <ele>1505</ele>
        <time>2019-04-18T10:16:16Z</time>
      </trkpt>
      <trkpt lat="45.9729" lon="7.20749">
        <ele>1507</ele>
        <time>2019-04-18T10:17:16Z</time>
      </trkpt>
      <trkpt lat="45.97266" lon="7.20765">
        <ele>1510</ele>
        <time>2019-04-18T10:18:16Z</time>
      </trkpt>
      <trkpt lat="45.97215" lon="7.20786">
        <ele>1511</ele>
        <time>2019-04-18T10:19:16Z</time>
      </trkpt>
      <trkpt lat="45.97189" lon="7.20799">
        <ele>1512</ele>
        <time>2019-04-18T10:20:16Z</time>
      </trkpt>
      <trkpt lat="45.97113" lon="7.20852">
        <ele>1520</ele>
        <time>2019-04-18T10:21:16Z</time>
      </trkpt>
      <trkpt lat="45.97087" lon="7.20865">
        <ele>1521</ele>
        <time>2019-04-18T10:22:16Z</time>
      </trkpt>
      <trkpt lat="45.97062" lon="7.20875">
        <ele>1526</ele>
        <time>2019-04-18T10:23:16Z</time>
      </trkpt>
      <trkpt lat="45.97029" lon="7.20882">
        <ele>1529</ele>
        <time>2019-04-18T10:24:16Z</time>
      </trkpt>
      <trkpt lat="45.96984" lon="7.20885">
        <ele>1531</ele>
        <time>2019-04-18T10:25:16Z</time>
      </trkpt>
      <trkpt lat="45.96889" lon="7.20853">
        <ele>1532</ele>
        <time>2019-04-18T10:26:16Z</time>
      </trkpt>
      <trkpt lat="45.96833" lon="7.20839">
        <ele>1536</ele>
        <time>2019-04-18T10:27:16Z</time>
      </trkpt>
      <trkpt lat="45.96815" lon="7.20837">
        <ele>1536</ele>
        <time>2019-04-18T10:28:16Z</time>
      </trkpt>
      <trkpt lat="45.96771" lon="7.20839">
        <ele>1538</ele>
        <time>2019-04-18T10:29:16Z</time>
      </trkpt>
      <trkpt lat="45.9675" lon="7.20845">
        <ele>1539</ele>
        <time>2019-04-18T10:30:16Z</time>
      </trkpt>
      <trkpt lat="45.96726" lon="7.20857">
        <ele>1540</ele>
        <time>2019-04-18T10:31:16Z</time>
      </trkpt>
      <trkpt lat="45.96613" lon="7.2093">
        <ele>1551</ele>
        <time>2019-04-18T10:32:16Z</time>
      </trkpt>
      <trkpt lat="45.96594" lon="7.2094">
        <ele>1553</ele>
        <time>2019-04-18T10:33:16Z</time>
      </trkpt>
      <trkpt lat="45.9656" lon="7.20946">
        <ele>1555</ele>
        <time>2019-04-18T10:34:16Z</time>
      </trkpt>
      <trkpt lat="45.96513" lon="7.20941">
        <ele>1557</ele>
        <time>2019-04-18T10:35:16Z</time>
      </trkpt>
      <trkpt lat="45.96486" lon="7.2094">
        <ele>1559</ele>
        <time>2019-04-18T10:36:16Z</time>
      </trkpt>
      <trkpt lat="45.96479" lon="7.20946">
        <ele>1562</ele>
        <time>2019-04-18T10:37:16Z</time>
      </trkpt>
      <trkpt lat="45.96476" lon="7.20952">
        <ele>1564</ele>
        <time>2019-04-18T10:38:16Z</time>
      </trkpt>
      <trkpt lat="45.96432" lon="7.20948">
        <ele>1567</ele>
        <time>2019-04-18T10:39:16Z</time>
      </trkpt>
      <trkpt lat="45.96363" lon="7.20945">
        <ele>1574</ele>
        <time>2019-04-18T10:40:16Z</time>
      </trkpt>
      <trkpt lat="45.96307" lon="7.20956">
        <ele>1581</ele>
        <time>2019-04-18T10:41:16Z</time>
      </trkpt>
      <trkpt lat="45.9625" lon="7.20959">
        <ele>1586</ele>
        <time>2019-04-18T10:42:16Z</time>
      </trkpt>
      <trkpt lat="45.96197" lon="7.20952">
        <ele>1589</ele>
        <time>2019-04-18T10:43:16Z</time>
      </trkpt>
      <trkpt lat="45.96037" lon="7.20885">
        <ele>1593</ele>
        <time>2019-04-18T10:44:16Z</time>
      </trkpt>
      <trkpt lat="45.95992" lon="7.20874">
        <ele>1595</ele>
        <time>2019-04-18T10:45:16Z</time>
      </trkpt>
      <trkpt lat="45.95929" lon="7.20866">
        <ele>1594</ele>
        <time>2019-04-18T10:46:16Z</time>
      </trkpt>
      <trkpt lat="45.95872" lon="7.20868">
        <ele>1596</ele>
        <time>2019-04-18T10:47:16Z</time>
      </trkpt>
      <trkpt lat="45.9582" lon="7.20876">
        <ele>1599</ele>
        <time>2019-04-18T10:48:16Z</time>
      </trkpt>
      <trkpt lat="45.95761" lon="7.20892">
        <ele>1603</ele>
        <time>2019-04-18T10:49:16Z</time>
      </trkpt>
      <trkpt lat="45.95673" lon="7.20934">
        <ele>1611</ele>
        <time>2019-04-18T10:50:16Z</time>
      </trkpt>
      <trkpt lat="45.95582" lon="7.20971">
        <ele>1615</ele>
        <time>2019-04-18T10:51:16Z</time>
      </trkpt>
      <trkpt lat="45.95533" lon="7.20978">
        <ele>1617</ele>
        <time>2019-04-18T10:52:16Z</time>
      </trkpt>
      <trkpt lat="45.95479" lon="7.20982">
        <ele>1621</ele>
        <time>2019-04-18T10:53:16Z</time>
      </trkpt>
      <trkpt lat="45.95424" lon="7.20977">
        <ele>1627</ele>
        <time>2019-04-18T10:54:16Z</time>
      </trkpt>
      <trkpt lat="45.95375" lon="7.20966">
        <ele>1632</ele>
        <time>2019-04-18T10:55:16Z</time>
      </trkpt>
      <trkpt lat="45.95263" lon="7.20933">
        <ele>1638</ele>
        <time>2019-04-18T10:56:16Z</time>
      </trkpt>
      <trkpt lat="45.95211" lon="7.20926">
        <ele>1639</ele>
        <time>2019-04-18T10:57:16Z</time>
      </trkpt>
      <trkpt lat="45.95152" lon="7.20924">
        <ele>1641</ele>
        <time>2019-04-18T10:58:16Z</time>
      </trkpt>
      <trkpt lat="45.95073" lon="7.20934">
        <ele>1650</ele>
        <time>2019-04-18T10:59:16Z</time>
      </trkpt>
      <trkpt lat="45.95045" lon="7.20939">
        <ele>1651</ele>
        <time>2019-04-18T11:00:16Z</time>
      </trkpt>
      <trkpt lat="45.94947" lon="7.20969">
        <ele>1655</ele>
        <time>2019-04-18T11:01:16Z</time>
      </trkpt>
      <trkpt lat="45.94913" lon="7.20974">
        <ele>1656</ele>
        <time>2019-04-18T11:02:16Z</time>
      </trkpt>
      <trkpt lat="45.94886" lon="7.20976">
        <ele>1661</ele>
        <time>2019-04-18T11:03:16Z</time>
      </trkpt>
      <trkpt lat="45.94821" lon="7.20964">
        <ele>1668</ele>
        <time>2019-04-18T11:04:16Z</time>
      </trkpt>
      <trkpt lat="45.94776" lon="7.20958">
        <ele>1670</ele>
        <time>2019-04-18T11:05:16Z</time>
      </trkpt>
      <trkpt lat="45.9465" lon="7.2096">
        <ele>1679</ele>
        <time>2019-04-18T11:06:16Z</time>
      </trkpt>
      <trkpt lat="45.94632" lon="7.20955">
        <ele>1683</ele>
        <time>2019-04-18T11:07:16Z</time>
      </trkpt>
      <trkpt lat="45.94605" lon="7.20944">
        <ele>1688</ele>
        <time>2019-04-18T11:08:16Z</time>
      </trkpt>
      <trkpt lat="45.94509" lon="7.209">
        <ele>1709</ele>
        <time>2019-04-18T11:09:16Z</time>
      </trkpt>
      <trkpt lat="45.9443" lon="7.20881">
        <ele>1708</ele>
        <time>2019-04-18T11:10:16Z</time>
      </trkpt>
      <trkpt lat="45.9435" lon="7.20881">
        <ele>1710</ele>
        <time>2019-04-18T11:11:16Z</time>
      </trkpt>
      <trkpt lat="45.94297" lon="7.20892">
        <ele>1719</ele>
        <time>2019-04-18T11:12:16Z</time>
      </trkpt>
      <trkpt lat="45.94189" lon="7.2092">
        <ele>1733</ele>
        <time>2019-04-18T11:13:16Z</time>
      </trkpt>
      <trkpt lat="45.94143" lon="7.20916">
        <ele>1733</ele>
        <time>2019-04-18T11:14:16Z</time>
      </trkpt>
      <trkpt lat="45.94108" lon="7.209">
        <ele>1734</ele>
        <time>2019-04-18T11:15:16Z</time>
      </trkpt>
      <trkpt lat="45.94039" lon="7.20861">
        <ele>1734</ele>
        <time>2019-04-18T11:16:16Z</time>
      </trkpt>
      <trkpt lat="45.93991" lon="7.20844">
        <ele>1735</ele>
        <time>2019-04-18T11:17:16Z</time>
      </trkpt>
      <trkpt lat="45.93938" lon="7.20844">
        <ele>1739</ele>
        <time>2019-04-18T11:18:16Z</time>
      </trkpt>
      <trkpt lat="45.93813" lon="7.20859">
        <ele>1765</ele>
        <time>2019-04-18T11:19:16Z</time>
      </trkpt>
      <trkpt lat="45.93752" lon="7.20859">
        <ele>1774</ele>
        <time>2019-04-18T11:20:16Z</time>
      </trkpt>
      <trkpt lat="45.93714" lon="7.20856">
        <ele>1772</ele>
        <time>2019-04-18T11:21:16Z</time>
      </trkpt>
      <trkpt lat="45.93666" lon="7.20844">
        <ele>1765</ele>
        <time>2019-04-18T11:22:16Z</time>
      </trkpt>
      <trkpt lat="45.93568" lon="7.20801">
        <ele>1771</ele>
        <time>2019-04-18T11:23:16Z</time>
      </trkpt>
      <trkpt lat="45.93521" lon="7.20784">
        <ele>1769</ele>
        <time>2019-04-18T11:24:16Z</time>
      </trkpt>
      <trkpt lat="45.93435" lon="7.20768">
        <ele>1782</ele>
        <time>2019-04-18T11:25:16Z</time>
      </trkpt>
      <trkpt lat="45.93395" lon="7.20755">
        <ele>1785</ele>
        <time>2019-04-18T11:26:16Z</time>
      </trkpt>
      <trkpt lat="45.93335" lon="7.20722">
        <ele>1782</ele>
        <time>2019-04-18T11:27:16Z</time>
      </trkpt>
      <trkpt lat="45.93199" lon="7.20657">
        <ele>1797</ele>
        <time>2019-04-18T11:28:16Z</time>
      </trkpt>
      <trkpt lat="45.93121" lon="7.20602">
        <ele>1797</ele>
        <time>2019-04-18T11:29:16Z</time>
      </trkpt>
      <trkpt lat="45.93084" lon="7.20585">
        <ele>1800</ele>
        <time>2019-04-18T11:30:16Z</time>
      </trkpt>
      <trkpt lat="45.93018" lon="7.20565">
        <ele>1807</ele>
        <time>2019-04-18T11:31:16Z</time>
      </trkpt>
      <trkpt lat="45.92984" lon="7.20551">
        <ele>1811</ele>
        <time>2019-04-18T11:32:16Z</time>
      </trkpt>
      <trkpt lat="45.92953" lon="7.20524">
        <ele>1812</ele>
        <time>2019-04-18T11:33:16Z</time>
      </trkpt>
      <trkpt lat="45.92906" lon="7.20472">
        <ele>1809</ele>
        <time>2019-04-18T11:34:16Z</time>
      </trkpt>
      <trkpt lat="45.92876" lon="7.20442">
        <ele>1807</ele>
        <time>2019-04-18T11:35:16Z</time>
      </trkpt>
      <trkpt lat="45.92844" lon="7.20423">
        <ele>1811</ele>
        <time>2019-04-18T11:36:16Z</time>
      </trkpt>
      <trkpt lat="45.92723" lon="7.20392">
        <ele>1829</ele>
        <time>2019-04-18T11:37:16Z</time>
      </trkpt>
      <trkpt lat="45.9267" lon="7.20374">
        <ele>1833</ele>
        <time>2019-04-18T11:38:16Z</time>
      </trkpt>
      <trkpt lat="45.92633" lon="7.20353">
        <ele>1837</ele>
        <time>2019-04-18T11:39:16Z</time>
      </trkpt>
      <trkpt lat="45.92588" lon="7.20315">
        <ele>1841</ele>
        <time>2019-04-18T11:40:16Z</time>
      </trkpt>
      <trkpt lat="45.92432" lon="7.20162">
        <ele>1866</ele>
        <time>2019-04-18T11:41:16Z</time>
      </trkpt>
      <trkpt lat="45.92406" lon="7.20145">
        <ele>1862</ele>
        <time>2019-04-18T11:42:16Z</time>
      </trkpt>
      <trkpt lat="45.92379" lon="7.20135">
        <ele>1858</ele>
        <time>2019-04-18T11:43:16Z</time>
      </trkpt>
      <trkpt lat="45.92349" lon="7.2013">
        <ele>1858</ele>
        <time>2019-04-18T11:44:16Z</time>
      </trkpt>
      <trkpt lat="45.92265" lon="7.20126">
        <ele>1857</ele>
        <time>2019-04-18T11:45:16Z</time>
      </trkpt>
      <trkpt lat="45.92195" lon="7.20117">
        <ele>1852</ele>
        <time>2019-04-18T11:46:16Z</time>
      </trkpt>
      <trkpt lat="45.92135" lon="7.2012">
        <ele>1855</ele>
        <time>2019-04-18T11:47:16Z</time>
      </trkpt>
      <trkpt lat="45.92064" lon="7.2014">
        <ele>1866</ele>
        <time>2019-04-18T11:48:16Z</time>
      </trkpt>
      <trkpt lat="45.92009" lon="7.20149">
        <ele>1866</ele>
        <time>2019-04-18T11:49:16Z</time>
      </trkpt>
      <trkpt lat="45.91927" lon="7.20145">
        <ele>1861</ele>
        <time>2019-04-18T11:50:16Z</time>
      </trkpt>
      <trkpt lat="45.91872" lon="7.20152">
        <ele>1858</ele>
        <time>2019-04-18T11:51:16Z</time>
      </trkpt>
      <trkpt lat="45.91766" lon="7.2019">
        <ele>1870</ele>
        <time>2019-04-18T11:52:16Z</time>
      </trkpt>
      <trkpt lat="45.91728" lon="7.20193">
        <ele>1873</ele>
        <time>2019-04-18T11:53:16Z</time>
      </trkpt>
      <trkpt lat="45.91691" lon="7.20187">
        <ele>1874</ele>
        <time>2019-04-18T11:54:16Z</time>
      </trkpt>
      <trkpt lat="45.91625" lon="7.2016">
        <ele>1865</ele>
        <time>2019-04-18T11:55:16Z</time>
      </trkpt>
      <trkpt lat="45.9159" lon="7.20154">
        <ele>1861</ele>
        <time>2019-04-18T11:56:16Z</time>
      </trkpt>
      <trkpt lat="45.91477" lon="7.20165">
        <ele>1872</ele>
        <time>2019-04-18T11:57:16Z</time>
      </trkpt>
      <trkpt lat="45.91409" lon="7.2016">
        <ele>1875</ele>
        <time>2019-04-18T11:58:16Z</time>
      </trkpt>
      <trkpt lat="45.91357" lon="7.20159">
        <ele>1879</ele>
        <time>2019-04-18T11:59:16Z</time>
      </trkpt>
      <trkpt lat="45.91295" lon="7.20169">
        <ele>1885</ele>
        <time>2019-04-18T12:00:16Z</time>
      </trkpt>
      <trkpt lat="45.91246" lon="7.20171">
        <ele>1887</ele>
        <time>2019-04-18T12:01:16Z</time>
      </trkpt>
      <trkpt lat="45.91199" lon="7.20165">
        <ele>1893</ele>
        <time>2019-04-18T12:02:16Z</time>
      </trkpt>
      <trkpt lat="45.91074" lon="7.2012">
        <ele>1892</ele>
        <time>2019-04-18T12:03:16Z</time>
      </trkpt>
      <trkpt lat="45.91018" lon="7.20108">
        <ele>1894</ele>
        <time>2019-04-18T12:04:16Z</time>
      </trkpt>
      <trkpt lat="45.90919" lon="7.20106">
        <ele>1897</ele>
        <time>2019-04-18T12:05:16Z</time>
      </trkpt>
      <trkpt lat="45.90856" lon="7.20093">
        <ele>1894</ele>
        <time>2019-04-18T12:06:16Z</time>
      </trkpt>
      <trkpt lat="45.9081" lon="7.20091">
        <ele>1896</ele>
        <time>2019-04-18T12:07:16Z</time>
      </trkpt>
      <trkpt lat="45.9067" lon="7.20104">
        <ele>1908</ele>
        <time>2019-04-18T12:08:16Z</time>
      </trkpt>
      <trkpt lat="45.90563" lon="7.20095">
        <ele>1920</ele>
        <time>2019-04-18T12:09:16Z</time>
      </trkpt>
      <trkpt lat="45.90468" lon="7.20072">
        <ele>1923</ele>
        <time>2019-04-18T12:10:16Z</time>
      </trkpt>
      <trkpt lat="45.90438" lon="7.20061">
        <ele>1924</ele>
        <time>2019-04-18T12:11:16Z</time>
      </trkpt>
      <trkpt lat="45.90404" lon="7.2004">
        <ele>1923</ele>
        <time>2019-04-18T12:12:16Z</time>
      </trkpt>
      <trkpt lat="45.90371" lon="7.20002">
        <ele>1916</ele>
        <time>2019-04-18T12:13:16Z</time>
      </trkpt>
      <trkpt lat="45.90342" lon="7.19957">
        <ele>1916</ele>
        <time>2019-04-18T12:14:16Z</time>
      </trkpt>
      <trkpt lat="45.90318" lon="7.19885">
        <ele>1915</ele>
        <time>2019-04-18T12:15:16Z</time>
      </trkpt>
      <trkpt lat="45.90301" lon="7.19824">
        <ele>1915</ele>
        <time>2019-04-18T12:16:16Z</time>
      </trkpt>
      <trkpt lat="45.9029" lon="7.19787">
        <ele>1916</ele>
        <time>2019-04-18T12:17:16Z</time>
      </trkpt>
      <trkpt lat="45.90281" lon="7.19753">
        <ele>1916</ele>
        <time>2019-04-18T12:18:16Z</time>
      </trkpt>
      <trkpt lat="45.90275" lon="7.19715">
        <ele>1916</ele>
        <time>2019-04-18T12:19:16Z</time>
      </trkpt>
      <trkpt lat="45.90259" lon="7.19662">
        <ele>1915</ele>
        <time>2019-04-18T12:20:16Z</time>
      </trkpt>
      <trkpt lat="45.90248" lon="7.19639">
        <ele>1915</ele>
        <time>2019-04-18T12:21:16Z</time>
      </trkpt>
      <trkpt lat="45.90236" lon="7.19619">
        <ele>1915</ele>
        <time>2019-04-18T12:22:16Z</time>
      </trkpt>
      <trkpt lat="45.90219" lon="7.196">
        <ele>1915</ele>
        <time>2019-04-18T12:23:16Z</time>
      </trkpt>
      <trkpt lat="45.90196" lon="7.19581">
        <ele>1916</ele>
        <time>2019-04-18T12:24:16Z</time>
      </trkpt>
      <trkpt lat="45.90177" lon="7.19571">
        <ele>1918</ele>
        <time>2019-04-18T12:25:16Z</time>
      </trkpt>
      <trkpt lat="45.90162" lon="7.19569">
        <ele>1919</ele>
        <time>2019-04-18T12:26:16Z</time>
      </trkpt>
      <trkpt lat="45.90124" lon="7.19567">
        <ele>1921</ele>
        <time>2019-04-18T12:27:16Z</time>
      </trkpt>
      <trkpt lat="45.89923" lon="7.1957">
        <ele>1932</ele>
        <time>2019-04-18T12:28:16Z</time>
      </trkpt>
      <trkpt lat="45.89899" lon="7.19563">
        <ele>1936</ele>
        <time>2019-04-18T12:29:16Z</time>
      </trkpt>
      <trkpt lat="45.89877" lon="7.19548">
        <ele>1939</ele>
        <time>2019-04-18T12:30:16Z</time>
      </trkpt>
      <trkpt lat="45.89854" lon="7.1952">
        <ele>1940</ele>
        <time>2019-04-18T12:31:16Z</time>
      </trkpt>
      <trkpt lat="45.89826" lon="7.19471">
        <ele>1942</ele>
        <time>2019-04-18T12:32:16Z</time>
      </trkpt>
      <trkpt lat="45.89814" lon="7.19438">
        <ele>1945</ele>
        <time>2019-04-18T12:33:16Z</time>
      </trkpt>
      <trkpt lat="45.89797" lon="7.19368">
        <ele>1952</ele>
        <time>2019-04-18T12:34:16Z</time>
      </trkpt>
      <trkpt lat="45.89798" lon="7.19344">
        <ele>1952</ele>
        <time>2019-04-18T12:35:16Z</time>
      </trkpt>
      <trkpt lat="45.89812" lon="7.19284">
        <ele>1950</ele>
        <time>2019-04-18T12:36:16Z</time>
      </trkpt>
      <trkpt lat="45.8982" lon="7.19241">
        <ele>1951</ele>
        <time>2019-04-18T12:37:16Z</time>
      </trkpt>
      <trkpt lat="45.89842" lon="7.19198">
        <ele>1949</ele>
        <time>2019-04-18T12:38:16Z</time>
      </trkpt>
      <trkpt lat="45.89848" lon="7.19156">
        <ele>1955</ele>
        <time>2019-04-18T12:39:16Z</time>
      </trkpt>
      <trkpt lat="45.89856" lon="7.19141">
        <ele>1955</ele>
        <time>2019-04-18T12:40:16Z</time>
      </trkpt>
      <trkpt lat="45.89878" lon="7.19118">
        <ele>1952</ele>
        <time>2019-04-18T12:41:16Z</time>
      </trkpt>
      <trkpt lat="45.89884" lon="7.19098">
        <ele>1953</ele>
        <time>2019-04-18T12:42:16Z</time>
      </trkpt>
      <trkpt lat="45.89889" lon="7.19055">
        <ele>1958</ele>
        <time>2019-04-18T12:43:16Z</time>
      </trkpt>
      <trkpt lat="45.89896" lon="7.19017">
        <ele>1961</ele>
        <time>2019-04-18T12:44:16Z</time>
      </trkpt>
      <trkpt lat="45.89897" lon="7.18988">
        <ele>1964</ele>
        <time>2019-04-18T12:45:16Z</time>
      </trkpt>
      <trkpt lat="45.89865" lon="7.18871">
        <ele>1986</ele>
        <time>2019-04-18T12:46:16Z</time>
      </trkpt>
      <trkpt lat="45.8984" lon="7.18817">
        <ele>1991</ele>
        <time>2019-04-18T12:47:16Z</time>
      </trkpt>
      <trkpt lat="45.89823" lon="7.18774">
        <ele>1990</ele>
        <time>2019-04-18T12:48:16Z</time>
      </trkpt>
      <trkpt lat="45.89811" lon="7.18758">
        <ele>1989</ele>
        <time>2019-04-18T12:49:16Z</time>
      </trkpt>
      <trkpt lat="45.89783" lon="7.18751">
        <ele>1991</ele>
        <time>2019-04-18T12:50:16Z</time>
      </trkpt>
      <trkpt lat="45.89752" lon="7.18732">
        <ele>1994</ele>
        <time>2019-04-18T12:51:16Z</time>
      </trkpt>
      <trkpt lat="45.89727" lon="7.18724">
        <ele>1998</ele>
        <time>2019-04-18T12:52:16Z</time>
      </trkpt>
      <trkpt lat="45.89699" lon="7.18722">
        <ele>2002</ele>
        <time>2019-04-18T12:53:16Z</time>
      </trkpt>
      <trkpt lat="45.89628" lon="7.18692">
        <ele>2004</ele>
        <time>2019-04-18T12:54:16Z</time>
      </trkpt>
      <trkpt lat="45.89538" lon="7.18677">
        <ele>2010</ele>
        <time>2019-04-18T12:55:16Z</time>
      </trkpt>
      <trkpt lat="45.89462" lon="7.18647">
        <ele>2014</ele>
        <time>2019-04-18T12:56:16Z</time>
      </trkpt>
      <trkpt lat="45.89331" lon="7.18648">
        <ele>2029</ele>
        <time>2019-04-18T12:57:16Z</time>
      </trkpt>
      <trkpt lat="45.89305" lon="7.18646">
        <ele>2031</ele>
        <time>2019-04-18T12:58:16Z</time>
      </trkpt>
      <trkpt lat="45.89218" lon="7.18669">
        <ele>2042</ele>
        <time>2019-04-18T12:59:16Z</time>
      </trkpt>
      <trkpt lat="45.89192" lon="7.18681">
        <ele>2047</ele>
        <time>2019-04-18T13:00:16Z</time>
      </trkpt>
      <trkpt lat="45.89164" lon="7.1869">
        <ele>2050</ele>
        <time>2019-04-18T13:01:16Z</time>
      </trkpt>
      <trkpt lat="45.89098" lon="7.18752">
        <ele>2061</ele>
        <time>2019-04-18T13:02:16Z</time>
      </trkpt>
      <trkpt lat="45.89015" lon="7.18802">
        <ele>2067</ele>
        <time>2019-04-18T13:03:16Z</time>
      </trkpt>
      <trkpt lat="45.88963" lon="7.18861">
        <ele>2081</ele>
        <time>2019-04-18T13:04:16Z</time>
      </trkpt>
      <trkpt lat="45.88944" lon="7.18871">
        <ele>2084</ele>
        <time>2019-04-18T13:05:16Z</time>
      </trkpt>
      <trkpt lat="45.8886" lon="7.18875">
        <ele>2089</ele>
        <time>2019-04-18T13:06:16Z</time>
      </trkpt>
      <trkpt lat="45.88807" lon="7.18884">
        <ele>2098</ele>
        <time>2019-04-18T13:07:16Z</time>
      </trkpt>
      <trkpt lat="45.8877" lon="7.18881">
        <ele>2103</ele>
        <time>2019-04-18T13:08:16Z</time>
      </trkpt>
      <trkpt lat="45.88743" lon="7.18873">
        <ele>2105</ele>
        <time>2019-04-18T13:09:16Z</time>
      </trkpt>
      <trkpt lat="45.88731" lon="7.18863">
        <ele>2105</ele>
        <time>2019-04-18T13:10:16Z</time>
      </trkpt>
      <trkpt lat="45.88695" lon="7.18808">
        <ele>2104</ele>
        <time>2019-04-18T13:11:16Z</time>
      </trkpt>
      <trkpt lat="45.88679" lon="7.18793">
        <ele>2106</ele>
        <time>2019-04-18T13:12:16Z</time>
      </trkpt>
      <trkpt lat="45.88661" lon="7.1878">
        <ele>2109</ele>
        <time>2019-04-18T13:13:16Z</time>
      </trkpt>
      <trkpt lat="45.88651" lon="7.18762">
        <ele>2109</ele>
        <time>2019-04-18T13:14:16Z</time>
      </trkpt>
      <trkpt lat="45.88639" lon="7.18729">
        <ele>2111</ele>
        <time>2019-04-18T13:15:16Z</time>
      </trkpt>
      <trkpt lat="45.88629" lon="7.18712">
        <ele>2114</ele>
        <time>2019-04-18T13:16:16Z</time>
      </trkpt>
      <trkpt lat="45.88622" lon="7.18709">
        <ele>2116</ele>
        <time>2019-04-18T13:17:16Z</time>
      </trkpt>
      <trkpt lat="45.88618" lon="7.18711">
        <ele>2116</ele>
        <time>2019-04-18T13:18:16Z</time>
      </trkpt>
      <trkpt lat="45.88618" lon="7.18719">
        <ele>2116</ele>
        <time>2019-04-18T13:19:16Z</time>
      </trkpt>
      <trkpt lat="45.88622" lon="7.18737">
        <ele>2114</ele>
        <time>2019-04-18T13:20:16Z</time>
      </trkpt>
      <trkpt lat="45.88623" lon="7.18774">
        <ele>2117</ele>
        <time>2019-04-18T13:21:16Z</time>
      </trkpt>
      <trkpt lat="45.88629" lon="7.18803">
        <ele>2120</ele>
        <time>2019-04-18T13:22:16Z</time>
      </trkpt>
      <trkpt lat="45.8863" lon="7.18814">
        <ele>2121</ele>
        <time>2019-04-18T13:23:16Z</time>
      </trkpt>
      <trkpt lat="45.88626" lon="7.1882">
        <ele>2123</ele>
        <time>2019-04-18T13:24:16Z</time>
      </trkpt>
      <trkpt lat="45.8862" lon="7.18819">
        <ele>2125</ele>
        <time>2019-04-18T13:25:16Z</time>
      </trkpt>
      <trkpt lat="45.88588" lon="7.18741">
        <ele>2120</ele>
        <time>2019-04-18T13:26:16Z</time>
      </trkpt>
      <trkpt lat="45.88568" lon="7.18709">
        <ele>2131</ele>
        <time>2019-04-18T13:27:16Z</time>
      </trkpt>
      <trkpt lat="45.88508" lon="7.18579">
        <ele>2146</ele>
        <time>2019-04-18T13:28:16Z</time>
      </trkpt>
      <trkpt lat="45.88493" lon="7.18555">
        <ele>2149</ele>
        <time>2019-04-18T13:29:16Z</time>
      </trkpt>
      <trkpt lat="45.88474" lon="7.18538">
        <ele>2152</ele>
        <time>2019-04-18T13:30:16Z</time>
      </trkpt>
      <trkpt lat="45.88433" lon="7.1853">
        <ele>2156</ele>
        <time>2019-04-18T13:31:16Z</time>
      </trkpt>
      <trkpt lat="45.8841" lon="7.1853">
        <ele>2159</ele>
        <time>2019-04-18T13:32:16Z</time>
      </trkpt>
      <trkpt lat="45.88378" lon="7.18536">
        <ele>2166</ele>
        <time>2019-04-18T13:33:16Z</time>
      </trkpt>
      <trkpt lat="45.88341" lon="7.18535">
        <ele>2172</ele>
        <time>2019-04-18T13:34:16Z</time>
      </trkpt>
      <trkpt lat="45.88304" lon="7.18546">
        <ele>2179</ele>
        <time>2019-04-18T13:35:16Z</time>
      </trkpt>
      <trkpt lat="45.88278" lon="7.18545">
        <ele>2181</ele>
        <time>2019-04-18T13:36:16Z</time>
      </trkpt>
      <trkpt lat="45.88248" lon="7.18527">
        <ele>2182</ele>
        <time>2019-04-18T13:37:16Z</time>
      </trkpt>
      <trkpt lat="45.88192" lon="7.18459">
        <ele>2185</ele>
        <time>2019-04-18T13:38:16Z</time>
      </trkpt>
      <trkpt lat="45.88162" lon="7.18436">
        <ele>2185</ele>
        <time>2019-04-18T13:39:16Z</time>
      </trkpt>
      <trkpt lat="45.88124" lon="7.18418">
        <ele>2189</ele>
        <time>2019-04-18T13:40:16Z</time>
      </trkpt>
      <trkpt lat="45.88074" lon="7.18404">
        <ele>2197</ele>
        <time>2019-04-18T13:41:16Z</time>
      </trkpt>
      <trkpt lat="45.8807" lon="7.18401">
        <ele>2197</ele>
        <time>2019-04-18T13:42:16Z</time>
      </trkpt>
      <trkpt lat="45.88066" lon="7.18387">
        <ele>2197</ele>
        <time>2019-04-18T13:43:16Z</time>
      </trkpt>
      <trkpt lat="45.88052" lon="7.18271">
        <ele>2201</ele>
        <time>2019-04-18T13:44:16Z</time>
      </trkpt>
      <trkpt lat="45.8805" lon="7.18263">
        <ele>2202</ele>
        <time>2019-04-18T13:45:16Z</time>
      </trkpt>
      <trkpt lat="45.88047" lon="7.18258">
        <ele>2203</ele>
        <time>2019-04-18T13:46:16Z</time>
      </trkpt>
      <trkpt lat="45.88041" lon="7.18259">
        <ele>2203</ele>
        <time>2019-04-18T13:47:16Z</time>
      </trkpt>
      <trkpt lat="45.88036" lon="7.18263">
        <ele>2203</ele>
        <time>2019-04-18T13:48:16Z</time>
      </trkpt>
      <trkpt lat="45.88007" lon="7.18314">
        <ele>2202</ele>
        <time>2019-04-18T13:49:16Z</time>
      </trkpt>
      <trkpt lat="45.87999" lon="7.18318">
        <ele>2202</ele>
        <time>2019-04-18T13:50:16Z</time>
      </trkpt>
      <trkpt lat="45.87991" lon="7.1831">
        <ele>2204</ele>
        <time>2019-04-18T13:51:16Z</time>
      </trkpt>
      <trkpt lat="45.87972" lon="7.18259">
        <ele>2210</ele>
        <time>2019-04-18T13:52:16Z</time>
      </trkpt>
      <trkpt lat="45.87963" lon="7.18246">
        <ele>2212</ele>
        <time>2019-04-18T13:53:16Z</time>
      </trkpt>
      <trkpt lat="45.87947" lon="7.18246">
        <ele>2214</ele>
        <time>2019-04-18T13:54:16Z</time>
      </trkpt>
      <trkpt lat="45.87885" lon="7.18275">
        <ele>2222</ele>
        <time>2019-04-18T13:55:16Z</time>
      </trkpt>
      <trkpt lat="45.87846" lon="7.18291">
        <ele>2226</ele>
        <time>2019-04-18T13:56:16Z</time>
      </trkpt>
      <trkpt lat="45.87818" lon="7.18295">
        <ele>2230</ele>
        <time>2019-04-18T13:57:16Z</time>
      </trkpt>
      <trkpt lat="45.87783" lon="7.18304">
        <ele>2234</ele>
        <time>2019-04-18T13:58:16Z</time>
      </trkpt>
      <trkpt lat="45.87762" lon="7.18304">
        <ele>2237</ele>
        <time>2019-04-18T13:59:16Z</time>
      </trkpt>
      <trkpt lat="45.87738" lon="7.18288">
        <ele>2241</ele>
        <time>2019-04-18T14:00:16Z</time>
      </trkpt>
      <trkpt lat="45.87708" lon="7.18259">
        <ele>2244</ele>
        <time>2019-04-18T14:01:16Z</time>
      </trkpt>
      <trkpt lat="45.87658" lon="7.18224">
        <ele>2248</ele>
        <time>2019-04-18T14:02:16Z</time>
      </trkpt>
      <trkpt lat="45.87623" lon="7.18193">
        <ele>2252</ele>
        <time>2019-04-18T14:03:16Z</time>
      </trkpt>
      <trkpt lat="45.8759" lon="7.18158">
        <ele>2256</ele>
        <time>2019-04-18T14:04:16Z</time>
      </trkpt>
      <trkpt lat="45.87517" lon="7.18124">
        <ele>2264</ele>
        <time>2019-04-18T14:05:16Z</time>
      </trkpt>
      <trkpt lat="45.87496" lon="7.18123">
        <ele>2265</ele>
        <time>2019-04-18T14:06:16Z</time>
      </trkpt>
      <trkpt lat="45.87478" lon="7.1812">
        <ele>2268</ele>
        <time>2019-04-18T14:07:16Z</time>
      </trkpt>
      <trkpt lat="45.8744" lon="7.18092">
        <ele>2275</ele>
        <time>2019-04-18T14:08:16Z</time>
      </trkpt>
      <trkpt lat="45.87401" lon="7.18089">
        <ele>2281</ele>
        <time>2019-04-18T14:09:16Z</time>
      </trkpt>
      <trkpt lat="45.87392" lon="7.18087">
        <ele>2282</ele>
        <time>2019-04-18T14:10:16Z</time>
      </trkpt>
      <trkpt lat="45.87388" lon="7.18079">
        <ele>2284</ele>
        <time>2019-04-18T14:11:16Z</time>
      </trkpt>
      <trkpt lat="45.87389" lon="7.18069">
        <ele>2287</ele>
        <time>2019-04-18T14:12:16Z</time>
      </trkpt>
      <trkpt lat="45.87396" lon="7.18057">
        <ele>2290</ele>
        <time>2019-04-18T14:13:16Z</time>
      </trkpt>
      <trkpt lat="45.87443" lon="7.18012">
        <ele>2296</ele>
        <time>2019-04-18T14:14:16Z</time>
      </trkpt>
      <trkpt lat="45.87457" lon="7.18005">
        <ele>2296</ele>
        <time>2019-04-18T14:15:16Z</time>
      </trkpt>
      <trkpt lat="45.87507" lon="7.18007">
        <ele>2291</ele>
        <time>2019-04-18T14:16:16Z</time>
      </trkpt>
      <trkpt lat="45.87521" lon="7.18005">
        <ele>2293</ele>
        <time>2019-04-18T14:17:16Z</time>
      </trkpt>
      <trkpt lat="45.87552" lon="7.17987">
        <ele>2304</ele>
        <time>2019-04-18T14:18:16Z</time>
      </trkpt>
      <trkpt lat="45.87564" lon="7.17987">
        <ele>2305</ele>
        <time>2019-04-18T14:19:16Z</time>
      </trkpt>
      <trkpt lat="45.87614" lon="7.18013">
        <ele>2300</ele>
        <time>2019-04-18T14:20:16Z</time>
      </trkpt>
      <trkpt lat="45.87634" lon="7.1802">
        <ele>2300</ele>
        <time>2019-04-18T14:21:16Z</time>
      </trkpt>
      <trkpt lat="45.87666" lon="7.18022">
        <ele>2303</ele>
        <time>2019-04-18T14:22:16Z</time>
      </trkpt>
      <trkpt lat="45.87674" lon="7.18021">
        <ele>2303</ele>
        <time>2019-04-18T14:23:16Z</time>
      </trkpt>
      <trkpt lat="45.87677" lon="7.18013">
        <ele>2307</ele>
        <time>2019-04-18T14:24:16Z</time>
      </trkpt>
      <trkpt lat="45.87675" lon="7.18007">
        <ele>2310</ele>
        <time>2019-04-18T14:25:16Z</time>
      </trkpt>
      <trkpt lat="45.87669" lon="7.18003">
        <ele>2312</ele>
        <time>2019-04-18T14:26:16Z</time>
      </trkpt>
      <trkpt lat="45.87646" lon="7.18006">
        <ele>2307</ele>
        <time>2019-04-18T14:27:16Z</time>
      </trkpt>
      <trkpt lat="45.87626" lon="7.18">
        <ele>2307</ele>
        <time>2019-04-18T14:28:16Z</time>
      </trkpt>
      <trkpt lat="45.87608" lon="7.17985">
        <ele>2313</ele>
        <time>2019-04-18T14:29:16Z</time>
      </trkpt>
      <trkpt lat="45.87575" lon="7.17944">
        <ele>2329</ele>
        <time>2019-04-18T14:30:16Z</time>
      </trkpt>
      <trkpt lat="45.8756" lon="7.1793">
        <ele>2333</ele>
        <time>2019-04-18T14:31:16Z</time>
      </trkpt>
      <trkpt lat="45.87544" lon="7.17924">
        <ele>2333</ele>
        <time>2019-04-18T14:32:16Z</time>
      </trkpt>
      <trkpt lat="45.87532" lon="7.17924">
        <ele>2331</ele>
        <time>2019-04-18T14:33:16Z</time>
      </trkpt>
      <trkpt lat="45.87515" lon="7.17931">
        <ele>2325</ele>
        <time>2019-04-18T14:34:16Z</time>
      </trkpt>
      <trkpt lat="45.87502" lon="7.17929">
        <ele>2324</ele>
        <time>2019-04-18T14:35:16Z</time>
      </trkpt>
      <trkpt lat="45.87474" lon="7.17912">
        <ele>2335</ele>
        <time>2019-04-18T14:36:16Z</time>
      </trkpt>
      <trkpt lat="45.87463" lon="7.1791">
        <ele>2338</ele>
        <time>2019-04-18T14:37:16Z</time>
      </trkpt>
      <trkpt lat="45.87453" lon="7.17914">
        <ele>2337</ele>
        <time>2019-04-18T14:38:16Z</time>
      </trkpt>
      <trkpt lat="45.87434" lon="7.17927">
        <ele>2333</ele>
        <time>2019-04-18T14:39:16Z</time>
      </trkpt>
      <trkpt lat="45.87423" lon="7.17929">
        <ele>2334</ele>
        <time>2019-04-18T14:40:16Z</time>
      </trkpt>
      <trkpt lat="45.87376" lon="7.17908">
        <ele>2350</ele>
        <time>2019-04-18T14:41:16Z</time>
      </trkpt>
      <trkpt lat="45.8736" lon="7.17907">
        <ele>2353</ele>
        <time>2019-04-18T14:42:16Z</time>
      </trkpt>
      <trkpt lat="45.87333" lon="7.17915">
        <ele>2353</ele>
        <time>2019-04-18T14:43:16Z</time>
      </trkpt>
      <trkpt lat="45.87307" lon="7.17917">
        <ele>2355</ele>
        <time>2019-04-18T14:44:16Z</time>
      </trkpt>
      <trkpt lat="45.87291" lon="7.17912">
        <ele>2358</ele>
        <time>2019-04-18T14:45:16Z</time>
      </trkpt>
      <trkpt lat="45.87277" lon="7.17904">
        <ele>2362</ele>
        <time>2019-04-18T14:46:16Z</time>
      </trkpt>
      <trkpt lat="45.87266" lon="7.17903">
        <ele>2363</ele>
        <time>2019-04-18T14:47:16Z</time>
      </trkpt>
      <trkpt lat="45.87252" lon="7.1791">
        <ele>2362</ele>
        <time>2019-04-18T14:48:16Z</time>
      </trkpt>
      <trkpt lat="45.87214" lon="7.17949">
        <ele>2350</ele>
        <time>2019-04-18T14:49:16Z</time>
      </trkpt>
      <trkpt lat="45.87205" lon="7.17953">
        <ele>2349</ele>
        <time>2019-04-18T14:50:16Z</time>
      </trkpt>
      <trkpt lat="45.87194" lon="7.1795">
        <ele>2350</ele>
        <time>2019-04-18T14:51:16Z</time>
      </trkpt>
      <trkpt lat="45.87171" lon="7.17927">
        <ele>2359</ele>
        <time>2019-04-18T14:52:16Z</time>
      </trkpt>
      <trkpt lat="45.87049" lon="7.17752">
        <ele>2386</ele>
        <time>2019-04-18T14:53:16Z</time>
      </trkpt>
      <trkpt lat="45.8703" lon="7.17713">
        <ele>2390</ele>
        <time>2019-04-18T14:54:16Z</time>
      </trkpt>
      <trkpt lat="45.87029" lon="7.17706">
        <ele>2391</ele>
        <time>2019-04-18T14:55:16Z</time>
      </trkpt>
      <trkpt lat="45.87031" lon="7.17701">
        <ele>2393</ele>
        <time>2019-04-18T14:56:16Z</time>
      </trkpt>
      <trkpt lat="45.87036" lon="7.17699">
        <ele>2396</ele>
        <time>2019-04-18T14:57:16Z</time>
      </trkpt>
      <trkpt lat="45.87042" lon="7.17706">
        <ele>2396</ele>
        <time>2019-04-18T14:58:16Z</time>
      </trkpt>
      <trkpt lat="45.87054" lon="7.17733">
        <ele>2393</ele>
        <time>2019-04-18T14:59:16Z</time>
      </trkpt>
      <trkpt lat="45.87087" lon="7.17767">
        <ele>2393</ele>
        <time>2019-04-18T15:00:16Z</time>
      </trkpt>
      <trkpt lat="45.87118" lon="7.17792">
        <ele>2392</ele>
        <time>2019-04-18T15:01:16Z</time>
      </trkpt>
      <trkpt lat="45.8716" lon="7.17839">
        <ele>2388</ele>
        <time>2019-04-18T15:02:16Z</time>
      </trkpt>
      <trkpt lat="45.87168" lon="7.1784">
        <ele>2389</ele>
        <time>2019-04-18T15:03:16Z</time>
      </trkpt>
      <trkpt lat="45.87175" lon="7.17834">
        <ele>2391</ele>
        <time>2019-04-18T15:04:16Z</time>
      </trkpt>
      <trkpt lat="45.87177" lon="7.17824">
        <ele>2393</ele>
        <time>2019-04-18T15:05:16Z</time>
      </trkpt>
      <trkpt lat="45.87175" lon="7.17813">
        <ele>2396</ele>
        <time>2019-04-18T15:06:16Z</time>
      </trkpt>
      <trkpt lat="45.87168" lon="7.17802">
        <ele>2399</ele>
        <time>2019-04-18T15:07:16Z</time>
      </trkpt>
      <trkpt lat="45.87107" lon="7.17748">
        <ele>2402</ele>
        <time>2019-04-18T15:08:16Z</time>
      </trkpt>
      <trkpt lat="45.87077" lon="7.177">
        <ele>2411</ele>
        <time>2019-04-18T15:09:16Z</time>
      </trkpt>
      <trkpt lat="45.87069" lon="7.17657">
        <ele>2421</ele>
        <time>2019-04-18T15:10:16Z</time>
      </trkpt>
      <trkpt lat="45.87058" lon="7.17627">
        <ele>2425</ele>
        <time>2019-04-18T15:11:16Z</time>
      </trkpt>
      <trkpt lat="45.87021" lon="7.17574">
        <ele>2423</ele>
        <time>2019-04-18T15:12:16Z</time>
      </trkpt>
      <trkpt lat="45.87012" lon="7.17553">
        <ele>2424</ele>
        <time>2019-04-18T15:13:16Z</time>
      </trkpt>
      <trkpt lat="45.8701" lon="7.17507">
        <ele>2434</ele>
        <time>2019-04-18T15:14:16Z</time>
      </trkpt>
      <trkpt lat="45.86996" lon="7.17463">
        <ele>2440</ele>
        <time>2019-04-18T15:15:16Z</time>
      </trkpt>
      <trkpt lat="45.86984" lon="7.17401">
        <ele>2454</ele>
        <time>2019-04-18T15:16:16Z</time>
      </trkpt>
      <trkpt lat="45.86937" lon="7.17312">
        <ele>2455</ele>
        <time>2019-04-18T15:17:16Z</time>
      </trkpt>
      <trkpt lat="45.86934" lon="7.17301">
        <ele>2456</ele>
        <time>2019-04-18T15:18:16Z</time>
      </trkpt>
      <trkpt lat="45.86939" lon="7.17241">
        <ele>2473</ele>
        <time>2019-04-18T15:19:16Z</time>
      </trkpt>
      <trkpt lat="45.86935" lon="7.17217">
        <ele>2474</ele>
        <time>2019-04-18T15:20:16Z</time>
      </trkpt>
      <trkpt lat="45.86908" lon="7.17166">
        <ele>2474</ele>
        <time>2019-04-18T15:21:16Z</time>
      </trkpt>
      <trkpt lat="45.86899" lon="7.17138">
        <ele>2476</ele>
        <time>2019-04-18T15:22:16Z</time>
      </trkpt>
      <trkpt lat="45.86891" lon="7.17103">
        <ele>2478</ele>
        <time>2019-04-18T15:23:16Z</time>
      </trkpt>
      <trkpt lat="45.8689" lon="7.17088">
        <ele>2479</ele>
        <time>2019-04-18T15:24:16Z</time>
      </trkpt>
      <trkpt lat="45.869" lon="7.17047">
        <ele>2475</ele>
        <time>2019-04-18T15:25:16Z</time>
      </trkpt>
      <trkpt lat="45.86904" lon="7.1704">
        <ele>2475</ele>
        <time>2019-04-18T15:26:16Z</time>
      </trkpt>
      <trkpt lat="45.8692" lon="7.17019">
        <ele>2474</ele>
        <time>2019-04-18T15:27:16Z</time>
      </trkpt>
      <trkpt lat="45.86933" lon="7.16998">
        <ele>2478</ele>
        <time>2019-04-18T15:28:16Z</time>
      </trkpt>
      <trkpt lat="45.8694" lon="7.16978">
        <ele>2478</ele>
        <time>2019-04-18T15:29:16Z</time>
      </trkpt>
      <trkpt lat="45.8696" lon="7.16864">
        <ele>2476</ele>
        <time>2019-04-18T15:30:16Z</time>
      </trkpt>
      <trkpt lat="45.8696" lon="7.1685">
        <ele>2475</ele>
        <time>2019-04-18T15:31:16Z</time>
      </trkpt>
      <trkpt lat="45.86956" lon="7.1682">
        <ele>2473</ele>
        <time>2019-04-18T15:32:16Z</time>
      </trkpt>
      <trkpt lat="45.86929" lon="7.16709">
        <ele>2463</ele>
        <time>2019-04-18T15:33:16Z</time>
      </trkpt>
      <trkpt lat="45.86926" lon="7.16642">
        <ele>2462</ele>
        <time>2019-04-18T15:34:16Z</time>
      </trkpt>
      <trkpt lat="45.86923" lon="7.16618">
        <ele>2461</ele>
        <time>2019-04-18T15:35:16Z</time>
      </trkpt>
      <trkpt lat="45.86919" lon="7.16599">
        <ele>2460</ele>
        <time>2019-04-18T15:36:16Z</time>
      </trkpt>
      <trkpt lat="45.86912" lon="7.1658">
        <ele>2459</ele>
        <time>2019-04-18T15:37:16Z</time>
      </trkpt>
      <trkpt lat="45.86905" lon="7.16568">
        <ele>2459</ele>
        <time>2019-04-18T15:38:16Z</time>
      </trkpt>
      <trkpt lat="45.86887" lon="7.16546">
        <ele>2459</ele>
        <time>2019-04-18T15:39:16Z</time>
      </trkpt>
      <trkpt lat="45.86871" lon="7.16531">
        <ele>2458</ele>
        <time>2019-04-18T15:40:16Z</time>
      </trkpt>
      <trkpt lat="45.86853" lon="7.16523">
        <ele>2456</ele>
        <time>2019-04-18T15:41:16Z</time>
      </trkpt>
      <trkpt lat="45.8682" lon="7.1653">
        <ele>2454</ele>
        <time>2019-04-18T15:42:16Z</time>
      </trkpt>
      <trkpt lat="45.86806" lon="7.16528">
        <ele>2454</ele>
        <time>2019-04-18T15:43:16Z</time>
      </trkpt>
      <trkpt lat="45.86769" lon="7.16513">
        <ele>2454</ele>
        <time>2019-04-18T15:44:16Z</time>
      </trkpt>
      <trkpt lat="45.86732" lon="7.16485">
        <ele>2451</ele>
        <time>2019-04-18T15:45:16Z</time>
      </trkpt>
      <trkpt lat="45.86722" lon="7.16469">
        <ele>2448</ele>
        <time>2019-04-18T15:46:16Z</time>
      </trkpt>
      <trkpt lat="45.86718" lon="7.16457">
        <ele>2447</ele>
        <time>2019-04-18T15:47:16Z</time>
      </trkpt>
      <trkpt lat="45.8671" lon="7.16425">
        <ele>2441</ele>
        <time>2019-04-18T15:48:16Z</time>
      </trkpt>
      <trkpt lat="45.86709" lon="7.16408">
        <ele>2439</ele>
        <time>2019-04-18T15:49:16Z</time>
      </trkpt>
      <trkpt lat="45.86709" lon="7.1639">
        <ele>2435</ele>
        <time>2019-04-18T15:50:16Z</time>
      </trkpt>
      <trkpt lat="45.86712" lon="7.16379">
        <ele>2434</ele>
        <time>2019-04-18T15:51:16Z</time>
      </trkpt>
      <trkpt lat="45.86736" lon="7.16329">
        <ele>2435</ele>
        <time>2019-04-18T15:52:16Z</time>
      </trkpt>
      <trkpt lat="45.8674" lon="7.1631">
        <ele>2433</ele>
        <time>2019-04-18T15:53:16Z</time>
      </trkpt>
      <trkpt lat="45.86746" lon="7.16271">
        <ele>2427</ele>
        <time>2019-04-18T15:54:16Z</time>
      </trkpt>
      <trkpt lat="45.8675" lon="7.16256">
        <ele>2426</ele>
        <time>2019-04-18T15:55:16Z</time>
      </trkpt>
      <trkpt lat="45.86772" lon="7.16203">
        <ele>2412</ele>
        <time>2019-04-18T15:56:16Z</time>
      </trkpt>
      <trkpt lat="45.86792" lon="7.16168">
        <ele>2403</ele>
        <time>2019-04-18T15:57:16Z</time>
      </trkpt>
      <trkpt lat="45.86802" lon="7.16158">
        <ele>2401</ele>
        <time>2019-04-18T15:58:16Z</time>
      </trkpt>
      <trkpt lat="45.86816" lon="7.16153">
        <ele>2404</ele>
        <time>2019-04-18T15:59:16Z</time>
      </trkpt>
      <trkpt lat="45.86872" lon="7.1615">
        <ele>2425</ele>
        <time>2019-04-18T16:00:16Z</time>
      </trkpt>
      <trkpt lat="45.86882" lon="7.16147">
        <ele>2428</ele>
        <time>2019-04-18T16:01:16Z</time>
      </trkpt>
      <trkpt lat="45.86894" lon="7.16135">
        <ele>2428</ele>
        <time>2019-04-18T16:02:16Z</time>
      </trkpt>
      <trkpt lat="45.87044" lon="7.15849">
        <ele>2401</ele>
        <time>2019-04-18T16:03:16Z</time>
      </trkpt>
      <trkpt lat="45.87053" lon="7.15827">
        <ele>2399</ele>
        <time>2019-04-18T16:04:16Z</time>
      </trkpt>
      <trkpt lat="45.87057" lon="7.15801">
        <ele>2397</ele>
        <time>2019-04-18T16:05:16Z</time>
      </trkpt>
      <trkpt lat="45.87056" lon="7.15776">
        <ele>2393</ele>
        <time>2019-04-18T16:06:16Z</time>
      </trkpt>
      <trkpt lat="45.87049" lon="7.15744">
        <ele>2388</ele>
        <time>2019-04-18T16:07:16Z</time>
      </trkpt>
      <trkpt lat="45.87035" lon="7.15704">
        <ele>2391</ele>
        <time>2019-04-18T16:08:16Z</time>
      </trkpt>
      <trkpt lat="45.8703" lon="7.15694">
        <ele>2392</ele>
        <time>2019-04-18T16:09:16Z</time>
      </trkpt>
      <trkpt lat="45.87023" lon="7.15687">
        <ele>2392</ele>
        <time>2019-04-18T16:10:16Z</time>
      </trkpt>
      <trkpt lat="45.87015" lon="7.15686">
        <ele>2392</ele>
        <time>2019-04-18T16:11:16Z</time>
      </trkpt>
      <trkpt lat="45.86944" lon="7.15702">
        <ele>2371</ele>
        <time>2019-04-18T16:12:16Z</time>
      </trkpt>
      <trkpt lat="45.8693" lon="7.157">
        <ele>2368</ele>
        <time>2019-04-18T16:13:16Z</time>
      </trkpt>
      <trkpt lat="45.86919" lon="7.15691">
        <ele>2366</ele>
        <time>2019-04-18T16:14:16Z</time>
      </trkpt>
      <trkpt lat="45.8691" lon="7.15678">
        <ele>2365</ele>
        <time>2019-04-18T16:15:16Z</time>
      </trkpt>
      <trkpt lat="45.86904" lon="7.15659">
        <ele>2365</ele>
        <time>2019-04-18T16:16:16Z</time>
      </trkpt>
      <trkpt lat="45.86904" lon="7.15636">
        <ele>2365</ele>
        <time>2019-04-18T16:17:16Z</time>
      </trkpt>
      <trkpt lat="45.86908" lon="7.15613">
        <ele>2367</ele>
        <time>2019-04-18T16:18:16Z</time>
      </trkpt>
      <trkpt lat="45.8692" lon="7.15575">
        <ele>2372</ele>
        <time>2019-04-18T16:19:16Z</time>
      </trkpt>
      <trkpt lat="45.86921" lon="7.15558">
        <ele>2371</ele>
        <time>2019-04-18T16:20:16Z</time>
      </trkpt>
      <trkpt lat="45.86915" lon="7.15526">
        <ele>2367</ele>
        <time>2019-04-18T16:21:16Z</time>
      </trkpt>
      <trkpt lat="45.86916" lon="7.15496">
        <ele>2365</ele>
        <time>2019-04-18T16:22:16Z</time>
      </trkpt>
      <trkpt lat="45.86927" lon="7.15392">
        <ele>2364</ele>
        <time>2019-04-18T16:23:16Z</time>
      </trkpt>
      <trkpt lat="45.86923" lon="7.15382">
        <ele>2364</ele>
        <time>2019-04-18T16:24:16Z</time>
      </trkpt>
      <trkpt lat="45.86916" lon="7.15375">
        <ele>2362</ele>
        <time>2019-04-18T16:25:16Z</time>
      </trkpt>
      <trkpt lat="45.8691" lon="7.15375">
        <ele>2362</ele>
        <time>2019-04-18T16:26:16Z</time>
      </trkpt>
      <trkpt lat="45.8683" lon="7.1541">
        <ele>2346</ele>
        <time>2019-04-18T16:27:16Z</time>
      </trkpt>
      <trkpt lat="45.86815" lon="7.1541">
        <ele>2343</ele>
        <time>2019-04-18T16:28:16Z</time>
      </trkpt>
      <trkpt lat="45.86798" lon="7.15401">
        <ele>2339</ele>
        <time>2019-04-18T16:29:16Z</time>
      </trkpt>
      <trkpt lat="45.86785" lon="7.15385">
        <ele>2337</ele>
        <time>2019-04-18T16:30:16Z</time>
      </trkpt>
      <trkpt lat="45.86769" lon="7.15303">
        <ele>2335</ele>
        <time>2019-04-18T16:31:16Z</time>
      </trkpt>
      <trkpt lat="45.86776" lon="7.1526">
        <ele>2335</ele>
        <time>2019-04-18T16:32:16Z</time>
      </trkpt>
      <trkpt lat="45.86784" lon="7.15219">
        <ele>2339</ele>
        <time>2019-04-18T16:33:16Z</time>
      </trkpt>
      <trkpt lat="45.86782" lon="7.15201">
        <ele>2340</ele>
        <time>2019-04-18T16:34:16Z</time>
      </trkpt>
      <trkpt lat="45.86756" lon="7.15173">
        <ele>2335</ele>
        <time>2019-04-18T16:35:16Z</time>
      </trkpt>
      <trkpt lat="45.86733" lon="7.15154">
        <ele>2334</ele>
        <time>2019-04-18T16:36:16Z</time>
      </trkpt>
      <trkpt lat="45.86715" lon="7.15154">
        <ele>2331</ele>
        <time>2019-04-18T16:37:16Z</time>
      </trkpt>
      <trkpt lat="45.86692" lon="7.15169">
        <ele>2324</ele>
        <time>2019-04-18T16:38:16Z</time>
      </trkpt>
      <trkpt lat="45.86678" lon="7.1516">
        <ele>2323</ele>
        <time>2019-04-18T16:39:16Z</time>
      </trkpt>
      <trkpt lat="45.8667" lon="7.15145">
        <ele>2324</ele>
        <time>2019-04-18T16:40:16Z</time>
      </trkpt>
      <trkpt lat="45.86661" lon="7.15143">
        <ele>2324</ele>
        <time>2019-04-18T16:41:16Z</time>
      </trkpt>
      <trkpt lat="45.8665" lon="7.15149">
        <ele>2325</ele>
        <time>2019-04-18T16:42:16Z</time>
      </trkpt>
      <trkpt lat="45.86539" lon="7.15363">
        <ele>2307</ele>
        <time>2019-04-18T16:43:16Z</time>
      </trkpt>
      <trkpt lat="45.86489" lon="7.15407">
        <ele>2303</ele>
        <time>2019-04-18T16:44:16Z</time>
      </trkpt>
      <trkpt lat="45.86426" lon="7.1543">
        <ele>2300</ele>
        <time>2019-04-18T16:45:16Z</time>
      </trkpt>
      <trkpt lat="45.86423" lon="7.15443">
        <ele>2298</ele>
        <time>2019-04-18T16:46:16Z</time>
      </trkpt>
      <trkpt lat="45.86424" lon="7.15458">
        <ele>2296</ele>
        <time>2019-04-18T16:47:16Z</time>
      </trkpt>
      <trkpt lat="45.86439" lon="7.1551">
        <ele>2288</ele>
        <time>2019-04-18T16:48:16Z</time>
      </trkpt>
      <trkpt lat="45.86441" lon="7.15529">
        <ele>2286</ele>
        <time>2019-04-18T16:49:16Z</time>
      </trkpt>
      <trkpt lat="45.86431" lon="7.15564">
        <ele>2281</ele>
        <time>2019-04-18T16:50:16Z</time>
      </trkpt>
      <trkpt lat="45.86425" lon="7.15574">
        <ele>2280</ele>
        <time>2019-04-18T16:51:16Z</time>
      </trkpt>
      <trkpt lat="45.86417" lon="7.15576">
        <ele>2279</ele>
        <time>2019-04-18T16:52:16Z</time>
      </trkpt>
      <trkpt lat="45.86399" lon="7.15557">
        <ele>2279</ele>
        <time>2019-04-18T16:53:16Z</time>
      </trkpt>
      <trkpt lat="45.8639" lon="7.15553">
        <ele>2278</ele>
        <time>2019-04-18T16:54:16Z</time>
      </trkpt>
      <trkpt lat="45.86357" lon="7.15544">
        <ele>2273</ele>
        <time>2019-04-18T16:55:16Z</time>
      </trkpt>
      <trkpt lat="45.86346" lon="7.15545">
        <ele>2270</ele>
        <time>2019-04-18T16:56:16Z</time>
      </trkpt>
      <trkpt lat="45.8634" lon="7.15555">
        <ele>2268</ele>
        <time>2019-04-18T16:57:16Z</time>
      </trkpt>
      <trkpt lat="45.8634" lon="7.15565">
        <ele>2267</ele>
        <time>2019-04-18T16:58:16Z</time>
      </trkpt>
      <trkpt lat="45.86344" lon="7.15577">
        <ele>2267</ele>
        <time>2019-04-18T16:59:16Z</time>
      </trkpt>
      <trkpt lat="45.86353" lon="7.15582">
        <ele>2267</ele>
        <time>2019-04-18T17:00:16Z</time>
      </trkpt>
      <trkpt lat="45.86361" lon="7.15583">
        <ele>2269</ele>
        <time>2019-04-18T17:01:16Z</time>
      </trkpt>
      <trkpt lat="45.86374" lon="7.15587">
        <ele>2270</ele>
        <time>2019-04-18T17:02:16Z</time>
      </trkpt>
      <trkpt lat="45.86386" lon="7.156">
        <ele>2271</ele>
        <time>2019-04-18T17:03:16Z</time>
      </trkpt>
      <trkpt lat="45.864" lon="7.15629">
        <ele>2271</ele>
        <time>2019-04-18T17:04:16Z</time>
      </trkpt>
      <trkpt lat="45.86408" lon="7.1565">
        <ele>2270</ele>
        <time>2019-04-18T17:05:16Z</time>
      </trkpt>
      <trkpt lat="45.86425" lon="7.15721">
        <ele>2265</ele>
        <time>2019-04-18T17:06:16Z</time>
      </trkpt>
      <trkpt lat="45.86434" lon="7.15737">
        <ele>2264</ele>
        <time>2019-04-18T17:07:16Z</time>
      </trkpt>
      <trkpt lat="45.86477" lon="7.15777">
        <ele>2263</ele>
        <time>2019-04-18T17:08:16Z</time>
      </trkpt>
      <trkpt lat="45.86505" lon="7.15798">
        <ele>2263</ele>
        <time>2019-04-18T17:09:16Z</time>
      </trkpt>
      <trkpt lat="45.86537" lon="7.15814">
        <ele>2264</ele>
        <time>2019-04-18T17:10:16Z</time>
      </trkpt>
      <trkpt lat="45.86546" lon="7.15822">
        <ele>2263</ele>
        <time>2019-04-18T17:11:16Z</time>
      </trkpt>
      <trkpt lat="45.8655" lon="7.1583">
        <ele>2263</ele>
        <time>2019-04-18T17:12:16Z</time>
      </trkpt>
      <trkpt lat="45.86552" lon="7.15843">
        <ele>2261</ele>
        <time>2019-04-18T17:13:16Z</time>
      </trkpt>
      <trkpt lat="45.86537" lon="7.15913">
        <ele>2253</ele>
        <time>2019-04-18T17:14:16Z</time>
      </trkpt>
      <trkpt lat="45.86526" lon="7.15923">
        <ele>2251</ele>
        <time>2019-04-18T17:15:16Z</time>
      </trkpt>
      <trkpt lat="45.86514" lon="7.15925">
        <ele>2249</ele>
        <time>2019-04-18T17:16:16Z</time>
      </trkpt>
      <trkpt lat="45.86477" lon="7.15925">
        <ele>2246</ele>
        <time>2019-04-18T17:17:16Z</time>
      </trkpt>
      <trkpt lat="45.86455" lon="7.15922">
        <ele>2245</ele>
        <time>2019-04-18T17:18:16Z</time>
      </trkpt>
      <trkpt lat="45.86422" lon="7.15914">
        <ele>2243</ele>
        <time>2019-04-18T17:19:16Z</time>
      </trkpt>
      <trkpt lat="45.86414" lon="7.15916">
        <ele>2242</ele>
        <time>2019-04-18T17:20:16Z</time>
      </trkpt>
      <trkpt lat="45.86398" lon="7.15933">
        <ele>2239</ele>
        <time>2019-04-18T17:21:16Z</time>
      </trkpt>
      <trkpt lat="45.86387" lon="7.15938">
        <ele>2238</ele>
        <time>2019-04-18T17:22:16Z</time>
      </trkpt>
      <trkpt lat="45.86342" lon="7.15942">
        <ele>2232</ele>
        <time>2019-04-18T17:23:16Z</time>
      </trkpt>
      <trkpt lat="45.86313" lon="7.15948">
        <ele>2228</ele>
        <time>2019-04-18T17:24:16Z</time>
      </trkpt>
      <trkpt lat="45.86309" lon="7.15952">
        <ele>2227</ele>
        <time>2019-04-18T17:25:16Z</time>
      </trkpt>
      <trkpt lat="45.86309" lon="7.1601">
        <ele>2229</ele>
        <time>2019-04-18T17:26:16Z</time>
      </trkpt>
      <trkpt lat="45.86307" lon="7.16022">
        <ele>2229</ele>
        <time>2019-04-18T17:27:16Z</time>
      </trkpt>
      <trkpt lat="45.86298" lon="7.16033">
        <ele>2229</ele>
        <time>2019-04-18T17:28:16Z</time>
      </trkpt>
      <trkpt lat="45.86285" lon="7.16045">
        <ele>2228</ele>
        <time>2019-04-18T17:29:16Z</time>
      </trkpt>
      <trkpt lat="45.86259" lon="7.16075">
        <ele>2227</ele>
        <time>2019-04-18T17:30:16Z</time>
      </trkpt>
      <trkpt lat="45.8625" lon="7.16082">
        <ele>2227</ele>
        <time>2019-04-18T17:31:16Z</time>
      </trkpt>
      <trkpt lat="45.86206" lon="7.16088">
        <ele>2222</ele>
        <time>2019-04-18T17:32:16Z</time>
      </trkpt>
      <trkpt lat="45.86194" lon="7.16085">
        <ele>2220</ele>
        <time>2019-04-18T17:33:16Z</time>
      </trkpt>
      <trkpt lat="45.86163" lon="7.16059">
        <ele>2214</ele>
        <time>2019-04-18T17:34:16Z</time>
      </trkpt>
      <trkpt lat="45.86146" lon="7.16051">
        <ele>2210</ele>
        <time>2019-04-18T17:35:16Z</time>
      </trkpt>
      <trkpt lat="45.86129" lon="7.16045">
        <ele>2206</ele>
        <time>2019-04-18T17:36:16Z</time>
      </trkpt>
      <trkpt lat="45.86121" lon="7.16036">
        <ele>2204</ele>
        <time>2019-04-18T17:37:16Z</time>
      </trkpt>
      <trkpt lat="45.86118" lon="7.16028">
        <ele>2203</ele>
        <time>2019-04-18T17:38:16Z</time>
      </trkpt>
      <trkpt lat="45.86119" lon="7.16009">
        <ele>2202</ele>
        <time>2019-04-18T17:39:16Z</time>
      </trkpt>
      <trkpt lat="45.86123" lon="7.15998">
        <ele>2202</ele>
        <time>2019-04-18T17:40:16Z</time>
      </trkpt>
      <trkpt lat="45.86172" lon="7.15932">
        <ele>2207</ele>
        <time>2019-04-18T17:41:16Z</time>
      </trkpt>
      <trkpt lat="45.86173" lon="7.15921">
        <ele>2206</ele>
        <time>2019-04-18T17:42:16Z</time>
      </trkpt>
      <trkpt lat="45.86165" lon="7.15895">
        <ele>2206</ele>
        <time>2019-04-18T17:43:16Z</time>
      </trkpt>
      <trkpt lat="45.86161" lon="7.15891">
        <ele>2205</ele>
        <time>2019-04-18T17:44:16Z</time>
      </trkpt>
      <trkpt lat="45.86135" lon="7.15889">
        <ele>2201</ele>
        <time>2019-04-18T17:45:16Z</time>
      </trkpt>
      <trkpt lat="45.86115" lon="7.15874">
        <ele>2199</ele>
        <time>2019-04-18T17:46:16Z</time>
      </trkpt>
      <trkpt lat="45.86083" lon="7.15874">
        <ele>2194</ele>
        <time>2019-04-18T17:47:16Z</time>
      </trkpt>
      <trkpt lat="45.86075" lon="7.15867">
        <ele>2192</ele>
        <time>2019-04-18T17:48:16Z</time>
      </trkpt>
      <trkpt lat="45.86051" lon="7.15835">
        <ele>2187</ele>
        <time>2019-04-18T17:49:16Z</time>
      </trkpt>
      <trkpt lat="45.86045" lon="7.15824">
        <ele>2183</ele>
        <time>2019-04-18T17:50:16Z</time>
      </trkpt>
      <trkpt lat="45.86043" lon="7.15811">
        <ele>2179</ele>
        <time>2019-04-18T17:51:16Z</time>
      </trkpt>
      <trkpt lat="45.86047" lon="7.15797">
        <ele>2177</ele>
        <time>2019-04-18T17:52:16Z</time>
      </trkpt>
      <trkpt lat="45.86055" lon="7.15784">
        <ele>2176</ele>
        <time>2019-04-18T17:53:16Z</time>
      </trkpt>
      <trkpt lat="45.86079" lon="7.15761">
        <ele>2180</ele>
        <time>2019-04-18T17:54:16Z</time>
      </trkpt>
      <trkpt lat="45.86116" lon="7.1573">
        <ele>2185</ele>
        <time>2019-04-18T17:55:16Z</time>
      </trkpt>
      <trkpt lat="45.86122" lon="7.15718">
        <ele>2184</ele>
        <time>2019-04-18T17:56:16Z</time>
      </trkpt>
      <trkpt lat="45.86137" lon="7.15653">
        <ele>2179</ele>
        <time>2019-04-18T17:57:16Z</time>
      </trkpt>
      <trkpt lat="45.86142" lon="7.15626">
        <ele>2182</ele>
        <time>2019-04-18T17:58:16Z</time>
      </trkpt>
      <trkpt lat="45.86141" lon="7.15607">
        <ele>2182</ele>
        <time>2019-04-18T17:59:16Z</time>
      </trkpt>
      <trkpt lat="45.86135" lon="7.15591">
        <ele>2180</ele>
        <time>2019-04-18T18:00:16Z</time>
      </trkpt>
      <trkpt lat="45.86129" lon="7.15581">
        <ele>2178</ele>
        <time>2019-04-18T18:01:16Z</time>
      </trkpt>
      <trkpt lat="45.86115" lon="7.15571">
        <ele>2175</ele>
        <time>2019-04-18T18:02:16Z</time>
      </trkpt>
      <trkpt lat="45.86106" lon="7.15562">
        <ele>2173</ele>
        <time>2019-04-18T18:03:16Z</time>
      </trkpt>
      <trkpt lat="45.86095" lon="7.15545">
        <ele>2174</ele>
        <time>2019-04-18T18:04:16Z</time>
      </trkpt>
      <trkpt lat="45.86062" lon="7.15521">
        <ele>2169</ele>
        <time>2019-04-18T18:05:16Z</time>
      </trkpt>
      <trkpt lat="45.86037" lon="7.15508">
        <ele>2164</ele>
        <time>2019-04-18T18:06:16Z</time>
      </trkpt>
      <trkpt lat="45.86012" lon="7.15499">
        <ele>2158</ele>
        <time>2019-04-18T18:07:16Z</time>
      </trkpt>
      <trkpt lat="45.85994" lon="7.15487">
        <ele>2156</ele>
        <time>2019-04-18T18:08:16Z</time>
      </trkpt>
      <trkpt lat="45.85971" lon="7.15456">
        <ele>2156</ele>
        <time>2019-04-18T18:09:16Z</time>
      </trkpt>
      <trkpt lat="45.85919" lon="7.15424">
        <ele>2138</ele>
        <time>2019-04-18T18:10:16Z</time>
      </trkpt>
      <trkpt lat="45.85906" lon="7.1541">
        <ele>2136</ele>
        <time>2019-04-18T18:11:16Z</time>
      </trkpt>
      <trkpt lat="45.85895" lon="7.15388">
        <ele>2140</ele>
        <time>2019-04-18T18:12:16Z</time>
      </trkpt>
      <trkpt lat="45.85885" lon="7.15359">
        <ele>2146</ele>
        <time>2019-04-18T18:13:16Z</time>
      </trkpt>
      <trkpt lat="45.85874" lon="7.15343">
        <ele>2143</ele>
        <time>2019-04-18T18:14:16Z</time>
      </trkpt>
      <trkpt lat="45.8586" lon="7.15328">
        <ele>2135</ele>
        <time>2019-04-18T18:15:16Z</time>
      </trkpt>
      <trkpt lat="45.85853" lon="7.15318">
        <ele>2130</ele>
        <time>2019-04-18T18:16:16Z</time>
      </trkpt>
      <trkpt lat="45.85849" lon="7.15304">
        <ele>2130</ele>
        <time>2019-04-18T18:17:16Z</time>
      </trkpt>
      <trkpt lat="45.85846" lon="7.15277">
        <ele>2133</ele>
        <time>2019-04-18T18:18:16Z</time>
      </trkpt>
      <trkpt lat="45.85852" lon="7.1521">
        <ele>2148</ele>
        <time>2019-04-18T18:19:16Z</time>
      </trkpt>
      <trkpt lat="45.85851" lon="7.15195">
        <ele>2148</ele>
        <time>2019-04-18T18:20:16Z</time>
      </trkpt>
      <trkpt lat="45.85837" lon="7.15145">
        <ele>2135</ele>
        <time>2019-04-18T18:21:16Z</time>
      </trkpt>
      <trkpt lat="45.85814" lon="7.14946">
        <ele>2115</ele>
        <time>2019-04-18T18:22:16Z</time>
      </trkpt>
      <trkpt lat="45.85813" lon="7.14904">
        <ele>2117</ele>
        <time>2019-04-18T18:23:16Z</time>
      </trkpt>
      <trkpt lat="45.85776" lon="7.14686">
        <ele>2108</ele>
        <time>2019-04-18T18:24:16Z</time>
      </trkpt>
      <trkpt lat="45.85771" lon="7.14667">
        <ele>2107</ele>
        <time>2019-04-18T18:25:16Z</time>
      </trkpt>
      <trkpt lat="45.85765" lon="7.14653">
        <ele>2106</ele>
        <time>2019-04-18T18:26:16Z</time>
      </trkpt>
      <trkpt lat="45.85756" lon="7.14639">
        <ele>2103</ele>
        <time>2019-04-18T18:27:16Z</time>
      </trkpt>
      <trkpt lat="45.85719" lon="7.14584">
        <ele>2094</ele>
        <time>2019-04-18T18:28:16Z</time>
      </trkpt>
      <trkpt lat="45.85701" lon="7.14534">
        <ele>2101</ele>
        <time>2019-04-18T18:29:16Z</time>
      </trkpt>
      <trkpt lat="45.85691" lon="7.1452">
        <ele>2101</ele>
        <time>2019-04-18T18:30:16Z</time>
      </trkpt>
      <trkpt lat="45.85613" lon="7.1449">
        <ele>2084</ele>
        <time>2019-04-18T18:31:16Z</time>
      </trkpt>
      <trkpt lat="45.85588" lon="7.1447">
        <ele>2083</ele>
        <time>2019-04-18T18:32:16Z</time>
      </trkpt>
      <trkpt lat="45.85581" lon="7.14466">
        <ele>2082</ele>
        <time>2019-04-18T18:33:16Z</time>
      </trkpt>
      <trkpt lat="45.85564" lon="7.14462">
        <ele>2081</ele>
        <time>2019-04-18T18:34:16Z</time>
      </trkpt>
      <trkpt lat="45.85555" lon="7.14455">
        <ele>2081</ele>
        <time>2019-04-18T18:35:16Z</time>
      </trkpt>
      <trkpt lat="45.85543" lon="7.1444">
        <ele>2084</ele>
        <time>2019-04-18T18:36:16Z</time>
      </trkpt>
      <trkpt lat="45.85537" lon="7.14438">
        <ele>2083</ele>
        <time>2019-04-18T18:37:16Z</time>
      </trkpt>
      <trkpt lat="45.85533" lon="7.1444">
        <ele>2082</ele>
        <time>2019-04-18T18:38:16Z</time>
      </trkpt>
      <trkpt lat="45.85528" lon="7.14446">
        <ele>2079</ele>
        <time>2019-04-18T18:39:16Z</time>
      </trkpt>
      <trkpt lat="45.85527" lon="7.14452">
        <ele>2078</ele>
        <time>2019-04-18T18:40:16Z</time>
      </trkpt>
      <trkpt lat="45.85529" lon="7.14459">
        <ele>2076</ele>
        <time>2019-04-18T18:41:16Z</time>
      </trkpt>
      <trkpt lat="45.85535" lon="7.14465">
        <ele>2075</ele>
        <time>2019-04-18T18:42:16Z</time>
      </trkpt>
      <trkpt lat="45.85554" lon="7.14474">
        <ele>2075</ele>
        <time>2019-04-18T18:43:16Z</time>
      </trkpt>
      <trkpt lat="45.85575" lon="7.14488">
        <ele>2074</ele>
        <time>2019-04-18T18:44:16Z</time>
      </trkpt>
      <trkpt lat="45.85596" lon="7.14512">
        <ele>2072</ele>
        <time>2019-04-18T18:45:16Z</time>
      </trkpt>
      <trkpt lat="45.85615" lon="7.1453">
        <ele>2072</ele>
        <time>2019-04-18T18:46:16Z</time>
      </trkpt>
      <trkpt lat="45.85637" lon="7.14545">
        <ele>2075</ele>
        <time>2019-04-18T18:47:16Z</time>
      </trkpt>
      <trkpt lat="45.85647" lon="7.14557">
        <ele>2074</ele>
        <time>2019-04-18T18:48:16Z</time>
      </trkpt>
      <trkpt lat="45.85654" lon="7.14569">
        <ele>2073</ele>
        <time>2019-04-18T18:49:16Z</time>
      </trkpt>
      <trkpt lat="45.85666" lon="7.14596">
        <ele>2069</ele>
        <time>2019-04-18T18:50:16Z</time>
      </trkpt>
      <trkpt lat="45.85669" lon="7.14609">
        <ele>2068</ele>
        <time>2019-04-18T18:51:16Z</time>
      </trkpt>
      <trkpt lat="45.85673" lon="7.14655">
        <ele>2060</ele>
        <time>2019-04-18T18:52:16Z</time>
      </trkpt>
      <trkpt lat="45.85701" lon="7.1478">
        <ele>2055</ele>
        <time>2019-04-18T18:53:16Z</time>
      </trkpt>
      <trkpt lat="45.85702" lon="7.14795">
        <ele>2053</ele>
        <time>2019-04-18T18:54:16Z</time>
      </trkpt>
      <trkpt lat="45.85698" lon="7.14864">
        <ele>2042</ele>
        <time>2019-04-18T18:55:16Z</time>
      </trkpt>
      <trkpt lat="45.85698" lon="7.14884">
        <ele>2040</ele>
        <time>2019-04-18T18:56:16Z</time>
      </trkpt>
      <trkpt lat="45.85713" lon="7.15009">
        <ele>2037</ele>
        <time>2019-04-18T18:57:16Z</time>
      </trkpt>
      <trkpt lat="45.85707" lon="7.15059">
        <ele>2031</ele>
        <time>2019-04-18T18:58:16Z</time>
      </trkpt>
      <trkpt lat="45.85706" lon="7.15079">
        <ele>2029</ele>
        <time>2019-04-18T18:59:16Z</time>
      </trkpt>
      <trkpt lat="45.8571" lon="7.15117">
        <ele>2031</ele>
        <time>2019-04-18T19:00:16Z</time>
      </trkpt>
      <trkpt lat="45.85707" lon="7.15166">
        <ele>2028</ele>
        <time>2019-04-18T19:01:16Z</time>
      </trkpt>
      <trkpt lat="45.85689" lon="7.15265">
        <ele>2015</ele>
        <time>2019-04-18T19:02:16Z</time>
      </trkpt>
      <trkpt lat="45.85688" lon="7.15292">
        <ele>2011</ele>
        <time>2019-04-18T19:03:16Z</time>
      </trkpt>
      <trkpt lat="45.85691" lon="7.15307">
        <ele>2011</ele>
        <time>2019-04-18T19:04:16Z</time>
      </trkpt>
      <trkpt lat="45.85696" lon="7.15321">
        <ele>2012</ele>
        <time>2019-04-18T19:05:16Z</time>
      </trkpt>
      <trkpt lat="45.85706" lon="7.15337">
        <ele>2015</ele>
        <time>2019-04-18T19:06:16Z</time>
      </trkpt>
      <trkpt lat="45.85717" lon="7.15366">
        <ele>2018</ele>
        <time>2019-04-18T19:07:16Z</time>
      </trkpt>
      <trkpt lat="45.8572" lon="7.15384">
        <ele>2018</ele>
        <time>2019-04-18T19:08:16Z</time>
      </trkpt>
      <trkpt lat="45.85722" lon="7.15432">
        <ele>2013</ele>
        <time>2019-04-18T19:09:16Z</time>
      </trkpt>
      <trkpt lat="45.8572" lon="7.15471">
        <ele>2004</ele>
        <time>2019-04-18T19:10:16Z</time>
      </trkpt>
      <trkpt lat="45.85719" lon="7.15478">
        <ele>2002</ele>
        <time>2019-04-18T19:11:16Z</time>
      </trkpt>
      <trkpt lat="45.85714" lon="7.15482">
        <ele>1998</ele>
        <time>2019-04-18T19:12:16Z</time>
      </trkpt>
      <trkpt lat="45.85709" lon="7.15482">
        <ele>1995</ele>
        <time>2019-04-18T19:13:16Z</time>
      </trkpt>
      <trkpt lat="45.85705" lon="7.15477">
        <ele>1993</ele>
        <time>2019-04-18T19:14:16Z</time>
      </trkpt>
      <trkpt lat="45.85704" lon="7.15466">
        <ele>1995</ele>
        <time>2019-04-18T19:15:16Z</time>
      </trkpt>
      <trkpt lat="45.85708" lon="7.15421">
        <ele>2006</ele>
        <time>2019-04-18T19:16:16Z</time>
      </trkpt>
      <trkpt lat="45.85703" lon="7.15402">
        <ele>2005</ele>
        <time>2019-04-18T19:17:16Z</time>
      </trkpt>
      <trkpt lat="45.85684" lon="7.15356">
        <ele>2000</ele>
        <time>2019-04-18T19:18:16Z</time>
      </trkpt>
      <trkpt lat="45.85668" lon="7.15333">
        <ele>1995</ele>
        <time>2019-04-18T19:19:16Z</time>
      </trkpt>
      <trkpt lat="45.85658" lon="7.15314">
        <ele>1991</ele>
        <time>2019-04-18T19:20:16Z</time>
      </trkpt>
      <trkpt lat="45.85654" lon="7.15298">
        <ele>1991</ele>
        <time>2019-04-18T19:21:16Z</time>
      </trkpt>
      <trkpt lat="45.85653" lon="7.15262">
        <ele>1994</ele>
        <time>2019-04-18T19:22:16Z</time>
      </trkpt>
      <trkpt lat="45.85655" lon="7.15147">
        <ele>1994</ele>
        <time>2019-04-18T19:23:16Z</time>
      </trkpt>
      <trkpt lat="45.8565" lon="7.15119">
        <ele>1994</ele>
        <time>2019-04-18T19:24:16Z</time>
      </trkpt>
      <trkpt lat="45.8563" lon="7.15051">
        <ele>1992</ele>
        <time>2019-04-18T19:25:16Z</time>
      </trkpt>
      <trkpt lat="45.85624" lon="7.15047">
        <ele>1991</ele>
        <time>2019-04-18T19:26:16Z</time>
      </trkpt>
      <trkpt lat="45.85613" lon="7.15051">
        <ele>1986</ele>
        <time>2019-04-18T19:27:16Z</time>
      </trkpt>
      <trkpt lat="45.85589" lon="7.15116">
        <ele>1971</ele>
        <time>2019-04-18T19:28:16Z</time>
      </trkpt>
      <trkpt lat="45.8558" lon="7.15131">
        <ele>1967</ele>
        <time>2019-04-18T19:29:16Z</time>
      </trkpt>
      <trkpt lat="45.85571" lon="7.15134">
        <ele>1965</ele>
        <time>2019-04-18T19:30:16Z</time>
      </trkpt>
      <trkpt lat="45.85561" lon="7.15128">
        <ele>1964</ele>
        <time>2019-04-18T19:31:16Z</time>
      </trkpt>
      <trkpt lat="45.85526" lon="7.15091">
        <ele>1962</ele>
        <time>2019-04-18T19:32:16Z</time>
      </trkpt>
      <trkpt lat="45.85504" lon="7.15071">
        <ele>1962</ele>
        <time>2019-04-18T19:33:16Z</time>
      </trkpt>
      <trkpt lat="45.85483" lon="7.15061">
        <ele>1965</ele>
        <time>2019-04-18T19:34:16Z</time>
      </trkpt>
      <trkpt lat="45.85459" lon="7.15045">
        <ele>1971</ele>
        <time>2019-04-18T19:35:16Z</time>
      </trkpt>
      <trkpt lat="45.85452" lon="7.15043">
        <ele>1972</ele>
        <time>2019-04-18T19:36:16Z</time>
      </trkpt>
      <trkpt lat="45.85447" lon="7.15044">
        <ele>1972</ele>
        <time>2019-04-18T19:37:16Z</time>
      </trkpt>
      <trkpt lat="45.85439" lon="7.15049">
        <ele>1972</ele>
        <time>2019-04-18T19:38:16Z</time>
      </trkpt>
      <trkpt lat="45.85434" lon="7.1506">
        <ele>1969</ele>
        <time>2019-04-18T19:39:16Z</time>
      </trkpt>
      <trkpt lat="45.85429" lon="7.15083">
        <ele>1964</ele>
        <time>2019-04-18T19:40:16Z</time>
      </trkpt>
      <trkpt lat="45.85404" lon="7.15137">
        <ele>1955</ele>
        <time>2019-04-18T19:41:16Z</time>
      </trkpt>
      <trkpt lat="45.85376" lon="7.15183">
        <ele>1951</ele>
        <time>2019-04-18T19:42:16Z</time>
      </trkpt>
      <trkpt lat="45.85354" lon="7.15216">
        <ele>1945</ele>
        <time>2019-04-18T19:43:16Z</time>
      </trkpt>
      <trkpt lat="45.85343" lon="7.15227">
        <ele>1944</ele>
        <time>2019-04-18T19:44:16Z</time>
      </trkpt>
      <trkpt lat="45.85331" lon="7.15236">
        <ele>1943</ele>
        <time>2019-04-18T19:45:16Z</time>
      </trkpt>
      <trkpt lat="45.8532" lon="7.1524">
        <ele>1943</ele>
        <time>2019-04-18T19:46:16Z</time>
      </trkpt>
      <trkpt lat="45.85272" lon="7.15237">
        <ele>1952</ele>
        <time>2019-04-18T19:47:16Z</time>
      </trkpt>
      <trkpt lat="45.85257" lon="7.15247">
        <ele>1951</ele>
        <time>2019-04-18T19:48:16Z</time>
      </trkpt>
      <trkpt lat="45.85248" lon="7.15262">
        <ele>1949</ele>
        <time>2019-04-18T19:49:16Z</time>
      </trkpt>
      <trkpt lat="45.85245" lon="7.1528">
        <ele>1947</ele>
        <time>2019-04-18T19:50:16Z</time>
      </trkpt>
      <trkpt lat="45.85256" lon="7.15315">
        <ele>1936</ele>
        <time>2019-04-18T19:51:16Z</time>
      </trkpt>
      <trkpt lat="45.85255" lon="7.15333">
        <ele>1932</ele>
        <time>2019-04-18T19:52:16Z</time>
      </trkpt>
      <trkpt lat="45.85252" lon="7.15344">
        <ele>1930</ele>
        <time>2019-04-18T19:53:16Z</time>
      </trkpt>
      <trkpt lat="45.85243" lon="7.15358">
        <ele>1931</ele>
        <time>2019-04-18T19:54:16Z</time>
      </trkpt>
      <trkpt lat="45.85222" lon="7.15372">
        <ele>1938</ele>
        <time>2019-04-18T19:55:16Z</time>
      </trkpt>
      <trkpt lat="45.85214" lon="7.15383">
        <ele>1939</ele>
        <time>2019-04-18T19:56:16Z</time>
      </trkpt>
      <trkpt lat="45.85208" lon="7.15399">
        <ele>1938</ele>
        <time>2019-04-18T19:57:16Z</time>
      </trkpt>
      <trkpt lat="45.85198" lon="7.15445">
        <ele>1932</ele>
        <time>2019-04-18T19:58:16Z</time>
      </trkpt>
      <trkpt lat="45.85192" lon="7.1546">
        <ele>1931</ele>
        <time>2019-04-18T19:59:16Z</time>
      </trkpt>
      <trkpt lat="45.85161" lon="7.15531">
        <ele>1927</ele>
        <time>2019-04-18T20:00:16Z</time>
      </trkpt>
      <trkpt lat="45.85139" lon="7.15564">
        <ele>1927</ele>
        <time>2019-04-18T20:01:16Z</time>
      </trkpt>
      <trkpt lat="45.85125" lon="7.15591">
        <ele>1926</ele>
        <time>2019-04-18T20:02:16Z</time>
      </trkpt>
      <trkpt lat="45.8511" lon="7.15623">
        <ele>1923</ele>
        <time>2019-04-18T20:03:16Z</time>
      </trkpt>
      <trkpt lat="45.85085" lon="7.15657">
        <ele>1924</ele>
        <time>2019-04-18T20:04:16Z</time>
      </trkpt>
      <trkpt lat="45.85073" lon="7.15676">
        <ele>1926</ele>
        <time>2019-04-18T20:05:16Z</time>
      </trkpt>
      <trkpt lat="45.85054" lon="7.15732">
        <ele>1923</ele>
        <time>2019-04-18T20:06:16Z</time>
      </trkpt>
      <trkpt lat="45.8505" lon="7.15746">
        <ele>1921</ele>
        <time>2019-04-18T20:07:16Z</time>
      </trkpt>
      <trkpt lat="45.85044" lon="7.15807">
        <ele>1911</ele>
        <time>2019-04-18T20:08:16Z</time>
      </trkpt>
      <trkpt lat="45.85035" lon="7.15846">
        <ele>1909</ele>
        <time>2019-04-18T20:09:16Z</time>
      </trkpt>
      <trkpt lat="45.85033" lon="7.1586">
        <ele>1907</ele>
        <time>2019-04-18T20:10:16Z</time>
      </trkpt>
      <trkpt lat="45.85032" lon="7.15879">
        <ele>1905</ele>
        <time>2019-04-18T20:11:16Z</time>
      </trkpt>
      <trkpt lat="45.85029" lon="7.15896">
        <ele>1904</ele>
        <time>2019-04-18T20:12:16Z</time>
      </trkpt>
      <trkpt lat="45.84999" lon="7.15966">
        <ele>1907</ele>
        <time>2019-04-18T20:13:16Z</time>
      </trkpt>
      <trkpt lat="45.84993" lon="7.15995">
        <ele>1904</ele>
        <time>2019-04-18T20:14:16Z</time>
      </trkpt>
      <trkpt lat="45.84989" lon="7.16021">
        <ele>1899</ele>
        <time>2019-04-18T20:15:16Z</time>
      </trkpt>
      <trkpt lat="45.84974" lon="7.16058">
        <ele>1895</ele>
        <time>2019-04-18T20:16:16Z</time>
      </trkpt>
      <trkpt lat="45.84965" lon="7.16071">
        <ele>1894</ele>
        <time>2019-04-18T20:17:16Z</time>
      </trkpt>
      <trkpt lat="45.84947" lon="7.16086">
        <ele>1897</ele>
        <time>2019-04-18T20:18:16Z</time>
      </trkpt>
      <trkpt lat="45.84922" lon="7.16115">
        <ele>1898</ele>
        <time>2019-04-18T20:19:16Z</time>
      </trkpt>
      <trkpt lat="45.84903" lon="7.16143">
        <ele>1900</ele>
        <time>2019-04-18T20:20:16Z</time>
      </trkpt>
      <trkpt lat="45.84889" lon="7.16197">
        <ele>1895</ele>
        <time>2019-04-18T20:21:16Z</time>
      </trkpt>
      <trkpt lat="45.8486" lon="7.16274">
        <ele>1890</ele>
        <time>2019-04-18T20:22:16Z</time>
      </trkpt>
      <trkpt lat="45.84852" lon="7.16288">
        <ele>1890</ele>
        <time>2019-04-18T20:23:16Z</time>
      </trkpt>
      <trkpt lat="45.84838" lon="7.16306">
        <ele>1892</ele>
        <time>2019-04-18T20:24:16Z</time>
      </trkpt>
      <trkpt lat="45.84834" lon="7.16315">
        <ele>1892</ele>
        <time>2019-04-18T20:25:16Z</time>
      </trkpt>
      <trkpt lat="45.84826" lon="7.16351">
        <ele>1887</ele>
        <time>2019-04-18T20:26:16Z</time>
      </trkpt>
      <trkpt lat="45.84819" lon="7.16373">
        <ele>1886</ele>
        <time>2019-04-18T20:27:16Z</time>
      </trkpt>
      <trkpt lat="45.84792" lon="7.16436">
        <ele>1884</ele>
        <time>2019-04-18T20:28:16Z</time>
      </trkpt>
      <trkpt lat="45.84786" lon="7.16459">
        <ele>1879</ele>
        <time>2019-04-18T20:29:16Z</time>
      </trkpt>
      <trkpt lat="45.84777" lon="7.1648">
        <ele>1877</ele>
        <time>2019-04-18T20:30:16Z</time>
      </trkpt>
      <trkpt lat="45.84742" lon="7.1653">
        <ele>1881</ele>
        <time>2019-04-18T20:31:16Z</time>
      </trkpt>
      <trkpt lat="45.84739" lon="7.16542">
        <ele>1880</ele>
        <time>2019-04-18T20:32:16Z</time>
      </trkpt>
      <trkpt lat="45.84739" lon="7.16556">
        <ele>1877</ele>
        <time>2019-04-18T20:33:16Z</time>
      </trkpt>
      <trkpt lat="45.84744" lon="7.16579">
        <ele>1870</ele>
        <time>2019-04-18T20:34:16Z</time>
      </trkpt>
      <trkpt lat="45.84742" lon="7.16601">
        <ele>1867</ele>
        <time>2019-04-18T20:35:16Z</time>
      </trkpt>
      <trkpt lat="45.84736" lon="7.16637">
        <ele>1866</ele>
        <time>2019-04-18T20:36:16Z</time>
      </trkpt>
      <trkpt lat="45.84734" lon="7.16698">
        <ele>1859</ele>
        <time>2019-04-18T20:37:16Z</time>
      </trkpt>
      <trkpt lat="45.8473" lon="7.1672">
        <ele>1858</ele>
        <time>2019-04-18T20:38:16Z</time>
      </trkpt>
      <trkpt lat="45.84723" lon="7.16743">
        <ele>1858</ele>
        <time>2019-04-18T20:39:16Z</time>
      </trkpt>
      <trkpt lat="45.84713" lon="7.16766">
        <ele>1857</ele>
        <time>2019-04-18T20:40:16Z</time>
      </trkpt>
      <trkpt lat="45.84685" lon="7.16806">
        <ele>1860</ele>
        <time>2019-04-18T20:41:16Z</time>
      </trkpt>
      <trkpt lat="45.84675" lon="7.16836">
        <ele>1857</ele>
        <time>2019-04-18T20:42:16Z</time>
      </trkpt>
      <trkpt lat="45.84654" lon="7.16877">
        <ele>1857</ele>
        <time>2019-04-18T20:43:16Z</time>
      </trkpt>
      <trkpt lat="45.8463" lon="7.16949">
        <ele>1853</ele>
        <time>2019-04-18T20:44:16Z</time>
      </trkpt>
      <trkpt lat="45.84624" lon="7.16974">
        <ele>1851</ele>
        <time>2019-04-18T20:45:16Z</time>
      </trkpt>
      <trkpt lat="45.8462" lon="7.16994">
        <ele>1848</ele>
        <time>2019-04-18T20:46:16Z</time>
      </trkpt>
      <trkpt lat="45.84619" lon="7.17018">
        <ele>1843</ele>
        <time>2019-04-18T20:47:16Z</time>
      </trkpt>
      <trkpt lat="45.84616" lon="7.17031">
        <ele>1841</ele>
        <time>2019-04-18T20:48:16Z</time>
      </trkpt>
      <trkpt lat="45.84612" lon="7.17043">
        <ele>1840</ele>
        <time>2019-04-18T20:49:16Z</time>
      </trkpt>
      <trkpt lat="45.8459" lon="7.17074">
        <ele>1844</ele>
        <time>2019-04-18T20:50:16Z</time>
      </trkpt>
      <trkpt lat="45.84577" lon="7.17112">
        <ele>1838</ele>
        <time>2019-04-18T20:51:16Z</time>
      </trkpt>
      <trkpt lat="45.84554" lon="7.17161">
        <ele>1832</ele>
        <time>2019-04-18T20:52:16Z</time>
      </trkpt>
      <trkpt lat="45.84544" lon="7.17179">
        <ele>1832</ele>
        <time>2019-04-18T20:53:16Z</time>
      </trkpt>
      <trkpt lat="45.84522" lon="7.17208">
        <ele>1833</ele>
        <time>2019-04-18T20:54:16Z</time>
      </trkpt>
      <trkpt lat="45.84508" lon="7.17231">
        <ele>1833</ele>
        <time>2019-04-18T20:55:16Z</time>
      </trkpt>
      <trkpt lat="45.84496" lon="7.17262">
        <ele>1830</ele>
        <time>2019-04-18T20:56:16Z</time>
      </trkpt>
      <trkpt lat="45.8446" lon="7.17337">
        <ele>1826</ele>
        <time>2019-04-18T20:57:16Z</time>
      </trkpt>
      <trkpt lat="45.84432" lon="7.17413">
        <ele>1818</ele>
        <time>2019-04-18T20:58:16Z</time>
      </trkpt>
      <trkpt lat="45.84421" lon="7.17431">
        <ele>1817</ele>
        <time>2019-04-18T20:59:16Z</time>
      </trkpt>
      <trkpt lat="45.84409" lon="7.17444">
        <ele>1818</ele>
        <time>2019-04-18T21:00:16Z</time>
      </trkpt>
      <trkpt lat="45.84387" lon="7.17476">
        <ele>1815</ele>
        <time>2019-04-18T21:01:16Z</time>
      </trkpt>
      <trkpt lat="45.84373" lon="7.17512">
        <ele>1810</ele>
        <time>2019-04-18T21:02:16Z</time>
      </trkpt>
      <trkpt lat="45.84346" lon="7.17545">
        <ele>1810</ele>
        <time>2019-04-18T21:03:16Z</time>
      </trkpt>
      <trkpt lat="45.84336" lon="7.17568">
        <ele>1808</ele>
        <time>2019-04-18T21:04:16Z</time>
      </trkpt>
      <trkpt lat="45.84317" lon="7.17594">
        <ele>1806</ele>
        <time>2019-04-18T21:05:16Z</time>
      </trkpt>
      <trkpt lat="45.84296" lon="7.17619">
        <ele>1803</ele>
        <time>2019-04-18T21:06:16Z</time>
      </trkpt>
      <trkpt lat="45.84258" lon="7.17655">
        <ele>1801</ele>
        <time>2019-04-18T21:07:16Z</time>
      </trkpt>
      <trkpt lat="45.84195" lon="7.17722">
        <ele>1792</ele>
        <time>2019-04-18T21:08:16Z</time>
      </trkpt>
      <trkpt lat="45.84178" lon="7.17737">
        <ele>1790</ele>
        <time>2019-04-18T21:09:16Z</time>
      </trkpt>
      <trkpt lat="45.84157" lon="7.17761">
        <ele>1786</ele>
        <time>2019-04-18T21:10:16Z</time>
      </trkpt>
      <trkpt lat="45.84133" lon="7.17782">
        <ele>1783</ele>
        <time>2019-04-18T21:11:16Z</time>
      </trkpt>
      <trkpt lat="45.84116" lon="7.17787">
        <ele>1784</ele>
        <time>2019-04-18T21:12:16Z</time>
      </trkpt>
      <trkpt lat="45.84092" lon="7.17783">
        <ele>1789</ele>
        <time>2019-04-18T21:13:16Z</time>
      </trkpt>
      <trkpt lat="45.84084" lon="7.17791">
        <ele>1788</ele>
        <time>2019-04-18T21:14:16Z</time>
      </trkpt>
      <trkpt lat="45.84082" lon="7.17804">
        <ele>1784</ele>
        <time>2019-04-18T21:15:16Z</time>
      </trkpt>
      <trkpt lat="45.84086" lon="7.17812">
        <ele>1780</ele>
        <time>2019-04-18T21:16:16Z</time>
      </trkpt>
      <trkpt lat="45.84092" lon="7.17816">
        <ele>1778</ele>
        <time>2019-04-18T21:17:16Z</time>
      </trkpt>
      <trkpt lat="45.84106" lon="7.17813">
        <ele>1777</ele>
        <time>2019-04-18T21:18:16Z</time>
      </trkpt>
      <trkpt lat="45.84119" lon="7.17802">
        <ele>1779</ele>
        <time>2019-04-18T21:19:16Z</time>
      </trkpt>
      <trkpt lat="45.84136" lon="7.17796">
        <ele>1778</ele>
        <time>2019-04-18T21:20:16Z</time>
      </trkpt>
      <trkpt lat="45.84191" lon="7.17765">
        <ele>1777</ele>
        <time>2019-04-18T21:21:16Z</time>
      </trkpt>
      <trkpt lat="45.84246" lon="7.17743">
        <ele>1773</ele>
        <time>2019-04-18T21:22:16Z</time>
      </trkpt>
      <trkpt lat="45.84279" lon="7.17717">
        <ele>1772</ele>
        <time>2019-04-18T21:23:16Z</time>
      </trkpt>
      <trkpt lat="45.843" lon="7.17703">
        <ele>1770</ele>
        <time>2019-04-18T21:24:16Z</time>
      </trkpt>
      <trkpt lat="45.8435" lon="7.17695">
        <ele>1759</ele>
        <time>2019-04-18T21:25:16Z</time>
      </trkpt>
      <trkpt lat="45.84369" lon="7.17688">
        <ele>1756</ele>
        <time>2019-04-18T21:26:16Z</time>
      </trkpt>
      <trkpt lat="45.84386" lon="7.17675">
        <ele>1755</ele>
        <time>2019-04-18T21:27:16Z</time>
      </trkpt>
      <trkpt lat="45.84399" lon="7.17658">
        <ele>1755</ele>
        <time>2019-04-18T21:28:16Z</time>
      </trkpt>
      <trkpt lat="45.84426" lon="7.17631">
        <ele>1756</ele>
        <time>2019-04-18T21:29:16Z</time>
      </trkpt>
      <trkpt lat="45.84434" lon="7.17622">
        <ele>1756</ele>
        <time>2019-04-18T21:30:16Z</time>
      </trkpt>
      <trkpt lat="45.84444" lon="7.176">
        <ele>1758</ele>
        <time>2019-04-18T21:31:16Z</time>
      </trkpt>
      <trkpt lat="45.84457" lon="7.17586">
        <ele>1756</ele>
        <time>2019-04-18T21:32:16Z</time>
      </trkpt>
      <trkpt lat="45.84521" lon="7.17528">
        <ele>1749</ele>
        <time>2019-04-18T21:33:16Z</time>
      </trkpt>
      <trkpt lat="45.84534" lon="7.17526">
        <ele>1747</ele>
        <time>2019-04-18T21:34:16Z</time>
      </trkpt>
      <trkpt lat="45.84539" lon="7.1753">
        <ele>1745</ele>
        <time>2019-04-18T21:35:16Z</time>
      </trkpt>
      <trkpt lat="45.84566" lon="7.17563">
        <ele>1740</ele>
        <time>2019-04-18T21:36:16Z</time>
      </trkpt>
      <trkpt lat="45.84569" lon="7.17576">
        <ele>1741</ele>
        <time>2019-04-18T21:37:16Z</time>
      </trkpt>
      <trkpt lat="45.84569" lon="7.17585">
        <ele>1741</ele>
        <time>2019-04-18T21:38:16Z</time>
      </trkpt>
      <trkpt lat="45.84565" lon="7.17592">
        <ele>1743</ele>
        <time>2019-04-18T21:39:16Z</time>
      </trkpt>
      <trkpt lat="45.84559" lon="7.17598">
        <ele>1744</ele>
        <time>2019-04-18T21:40:16Z</time>
      </trkpt>
      <trkpt lat="45.8451" lon="7.17631">
        <ele>1743</ele>
        <time>2019-04-18T21:41:16Z</time>
      </trkpt>
      <trkpt lat="45.84494" lon="7.1765">
        <ele>1742</ele>
        <time>2019-04-18T21:42:16Z</time>
      </trkpt>
      <trkpt lat="45.84421" lon="7.17712">
        <ele>1740</ele>
        <time>2019-04-18T21:43:16Z</time>
      </trkpt>
      <trkpt lat="45.84378" lon="7.17762">
        <ele>1737</ele>
        <time>2019-04-18T21:44:16Z</time>
      </trkpt>
      <trkpt lat="45.84371" lon="7.17772">
        <ele>1738</ele>
        <time>2019-04-18T21:45:16Z</time>
      </trkpt>
      <trkpt lat="45.84351" lon="7.17819">
        <ele>1734</ele>
        <time>2019-04-18T21:46:16Z</time>
      </trkpt>
      <trkpt lat="45.84316" lon="7.17861">
        <ele>1730</ele>
        <time>2019-04-18T21:47:16Z</time>
      </trkpt>
      <trkpt lat="45.84308" lon="7.17873">
        <ele>1730</ele>
        <time>2019-04-18T21:48:16Z</time>
      </trkpt>
      <trkpt lat="45.84302" lon="7.17893">
        <ele>1729</ele>
        <time>2019-04-18T21:49:16Z</time>
      </trkpt>
      <trkpt lat="45.8429" lon="7.17947">
        <ele>1728</ele>
        <time>2019-04-18T21:50:16Z</time>
      </trkpt>
      <trkpt lat="45.84286" lon="7.17959">
        <ele>1727</ele>
        <time>2019-04-18T21:51:16Z</time>
      </trkpt>
      <trkpt lat="45.84278" lon="7.17972">
        <ele>1725</ele>
        <time>2019-04-18T21:52:16Z</time>
      </trkpt>
      <trkpt lat="45.8427" lon="7.17981">
        <ele>1723</ele>
        <time>2019-04-18T21:53:16Z</time>
      </trkpt>
      <trkpt lat="45.84258" lon="7.1799">
        <ele>1718</ele>
        <time>2019-04-18T21:54:16Z</time>
      </trkpt>
      <trkpt lat="45.84244" lon="7.17998">
        <ele>1714</ele>
        <time>2019-04-18T21:55:16Z</time>
      </trkpt>
      <trkpt lat="45.84205" lon="7.18007">
        <ele>1713</ele>
        <time>2019-04-18T21:56:16Z</time>
      </trkpt>
      <trkpt lat="45.84156" lon="7.18014">
        <ele>1711</ele>
        <time>2019-04-18T21:57:16Z</time>
      </trkpt>
      <trkpt lat="45.84123" lon="7.18025">
        <ele>1712</ele>
        <time>2019-04-18T21:58:16Z</time>
      </trkpt>
      <trkpt lat="45.84087" lon="7.18041">
        <ele>1711</ele>
        <time>2019-04-18T21:59:16Z</time>
      </trkpt>
      <trkpt lat="45.84072" lon="7.18052">
        <ele>1711</ele>
        <time>2019-04-18T22:00:16Z</time>
      </trkpt>
      <trkpt lat="45.84035" lon="7.18089">
        <ele>1707</ele>
        <time>2019-04-18T22:01:16Z</time>
      </trkpt>
      <trkpt lat="45.83995" lon="7.18116">
        <ele>1706</ele>
        <time>2019-04-18T22:02:16Z</time>
      </trkpt>
      <trkpt lat="45.83967" lon="7.18147">
        <ele>1704</ele>
        <time>2019-04-18T22:03:16Z</time>
      </trkpt>
      <trkpt lat="45.83936" lon="7.18174">
        <ele>1696</ele>
        <time>2019-04-18T22:04:16Z</time>
      </trkpt>
      <trkpt lat="45.8392" lon="7.18192">
        <ele>1695</ele>
        <time>2019-04-18T22:05:16Z</time>
      </trkpt>
      <trkpt lat="45.83891" lon="7.18235">
        <ele>1698</ele>
        <time>2019-04-18T22:06:16Z</time>
      </trkpt>
      <trkpt lat="45.8388" lon="7.18246">
        <ele>1695</ele>
        <time>2019-04-18T22:07:16Z</time>
      </trkpt>
      <trkpt lat="45.83864" lon="7.18251">
        <ele>1690</ele>
        <time>2019-04-18T22:08:16Z</time>
      </trkpt>
      <trkpt lat="45.83839" lon="7.18264">
        <ele>1685</ele>
        <time>2019-04-18T22:09:16Z</time>
      </trkpt>
      <trkpt lat="45.83781" lon="7.1831">
        <ele>1682</ele>
        <time>2019-04-18T22:10:16Z</time>
      </trkpt>
      <trkpt lat="45.83766" lon="7.18327">
        <ele>1678</ele>
        <time>2019-04-18T22:11:16Z</time>
      </trkpt>
      <trkpt lat="45.83754" lon="7.18346">
        <ele>1678</ele>
        <time>2019-04-18T22:12:16Z</time>
      </trkpt>
      <trkpt lat="45.83738" lon="7.18362">
        <ele>1679</ele>
        <time>2019-04-18T22:13:16Z</time>
      </trkpt>
      <trkpt lat="45.83714" lon="7.18377">
        <ele>1676</ele>
        <time>2019-04-18T22:14:16Z</time>
      </trkpt>
      <trkpt lat="45.83686" lon="7.18403">
        <ele>1672</ele>
        <time>2019-04-18T22:15:16Z</time>
      </trkpt>
      <trkpt lat="45.83667" lon="7.18414">
        <ele>1667</ele>
        <time>2019-04-18T22:16:16Z</time>
      </trkpt>
      <trkpt lat="45.83631" lon="7.18428">
        <ele>1660</ele>
        <time>2019-04-18T22:17:16Z</time>
      </trkpt>
      <trkpt lat="45.83547" lon="7.18493">
        <ele>1650</ele>
        <time>2019-04-18T22:18:16Z</time>
      </trkpt>
      <trkpt lat="45.83493" lon="7.18532">
        <ele>1647</ele>
        <time>2019-04-18T22:19:16Z</time>
      </trkpt>
      <trkpt lat="45.83464" lon="7.18545">
        <ele>1641</ele>
        <time>2019-04-18T22:20:16Z</time>
      </trkpt>
      <trkpt lat="45.83382" lon="7.18602">
        <ele>1626</ele>
        <time>2019-04-18T22:21:16Z</time>
      </trkpt>
      <trkpt lat="45.83368" lon="7.18615">
        <ele>1624</ele>
        <time>2019-04-18T22:22:16Z</time>
      </trkpt>
      <trkpt lat="45.83358" lon="7.18629">
        <ele>1623</ele>
        <time>2019-04-18T22:23:16Z</time>
      </trkpt>
      <trkpt lat="45.83335" lon="7.18674">
        <ele>1624</ele>
        <time>2019-04-18T22:24:16Z</time>
      </trkpt>
      <trkpt lat="45.8333" lon="7.18693">
        <ele>1625</ele>
        <time>2019-04-18T22:25:16Z</time>
      </trkpt>
      <trkpt lat="45.83321" lon="7.18744">
        <ele>1633</ele>
        <time>2019-04-18T22:26:16Z</time>
      </trkpt>
      <trkpt lat="45.83318" lon="7.18748">
        <ele>1633</ele>
        <time>2019-04-18T22:27:16Z</time>
      </trkpt>
      <trkpt lat="45.8331" lon="7.18748">
        <ele>1630</ele>
        <time>2019-04-18T22:28:16Z</time>
      </trkpt>
      <trkpt lat="45.83307" lon="7.18742">
        <ele>1627</ele>
        <time>2019-04-18T22:29:16Z</time>
      </trkpt>
      <trkpt lat="45.83305" lon="7.18735">
        <ele>1625</ele>
        <time>2019-04-18T22:30:16Z</time>
      </trkpt>
      <trkpt lat="45.83307" lon="7.18728">
        <ele>1624</ele>
        <time>2019-04-18T22:31:16Z</time>
      </trkpt>
      <trkpt lat="45.83317" lon="7.1871">
        <ele>1624</ele>
        <time>2019-04-18T22:32:16Z</time>
      </trkpt>
      <trkpt lat="45.8332" lon="7.187">
        <ele>1623</ele>
        <time>2019-04-18T22:33:16Z</time>
      </trkpt>
      <trkpt lat="45.83328" lon="7.18655">
        <ele>1615</ele>
        <time>2019-04-18T22:34:16Z</time>
      </trkpt>
      <trkpt lat="45.8335" lon="7.18596">
        <ele>1608</ele>
        <time>2019-04-18T22:35:16Z</time>
      </trkpt>
      <trkpt lat="45.83362" lon="7.18578">
        <ele>1609</ele>
        <time>2019-04-18T22:36:16Z</time>
      </trkpt>
      <trkpt lat="45.83392" lon="7.1855">
        <ele>1614</ele>
        <time>2019-04-18T22:37:16Z</time>
      </trkpt>
      <trkpt lat="45.83453" lon="7.18497">
        <ele>1614</ele>
        <time>2019-04-18T22:38:16Z</time>
      </trkpt>
      <trkpt lat="45.83456" lon="7.18492">
        <ele>1615</ele>
        <time>2019-04-18T22:39:16Z</time>
      </trkpt>
      <trkpt lat="45.83455" lon="7.18482">
        <ele>1615</ele>
        <time>2019-04-18T22:40:16Z</time>
      </trkpt>
      <trkpt lat="45.83451" lon="7.18479">
        <ele>1614</ele>
        <time>2019-04-18T22:41:16Z</time>
      </trkpt>
      <trkpt lat="45.83444" lon="7.1848">
        <ele>1612</ele>
        <time>2019-04-18T22:42:16Z</time>
      </trkpt>
      <trkpt lat="45.83412" lon="7.18512">
        <ele>1605</ele>
        <time>2019-04-18T22:43:16Z</time>
      </trkpt>
      <trkpt lat="45.83364" lon="7.18553">
        <ele>1604</ele>
        <time>2019-04-18T22:44:16Z</time>
      </trkpt>
      <trkpt lat="45.83346" lon="7.18571">
        <ele>1600</ele>
        <time>2019-04-18T22:45:16Z</time>
      </trkpt>
      <trkpt lat="45.83332" lon="7.18591">
        <ele>1598</ele>
        <time>2019-04-18T22:46:16Z</time>
      </trkpt>
      <trkpt lat="45.83298" lon="7.18653">
        <ele>1604</ele>
        <time>2019-04-18T22:47:16Z</time>
      </trkpt>
      <trkpt lat="45.83235" lon="7.18718">
        <ele>1595</ele>
        <time>2019-04-18T22:48:16Z</time>
      </trkpt>
      <trkpt lat="45.83214" lon="7.18761">
        <ele>1601</ele>
        <time>2019-04-18T22:49:16Z</time>
      </trkpt>
      <trkpt lat="45.83204" lon="7.18772">
        <ele>1604</ele>
        <time>2019-04-18T22:50:16Z</time>
      </trkpt>
      <trkpt lat="45.83193" lon="7.18778">
        <ele>1604</ele>
        <time>2019-04-18T22:51:16Z</time>
      </trkpt>
      <trkpt lat="45.83144" lon="7.18783">
        <ele>1597</ele>
        <time>2019-04-18T22:52:16Z</time>
      </trkpt>
      <trkpt lat="45.83019" lon="7.18787">
        <ele>1583</ele>
        <time>2019-04-18T22:53:16Z</time>
      </trkpt>
      <trkpt lat="45.82988" lon="7.18789">
        <ele>1580</ele>
        <time>2019-04-18T22:54:16Z</time>
      </trkpt>
      <trkpt lat="45.82954" lon="7.18798">
        <ele>1579</ele>
        <time>2019-04-18T22:55:16Z</time>
      </trkpt>
      <trkpt lat="45.82811" lon="7.18818">
        <ele>1566</ele>
        <time>2019-04-18T22:56:16Z</time>
      </trkpt>
      <trkpt lat="45.82793" lon="7.18827">
        <ele>1568</ele>
        <time>2019-04-18T22:57:16Z</time>
      </trkpt>
      <trkpt lat="45.82774" lon="7.18831">
        <ele>1568</ele>
        <time>2019-04-18T22:58:16Z</time>
      </trkpt>
      <trkpt lat="45.82741" lon="7.1883">
        <ele>1564</ele>
        <time>2019-04-18T22:59:16Z</time>
      </trkpt>
      <trkpt lat="45.82626" lon="7.18818">
        <ele>1552</ele>
        <time>2019-04-18T23:00:16Z</time>
      </trkpt>
      <trkpt lat="45.82575" lon="7.18815">
        <ele>1549</ele>
        <time>2019-04-18T23:01:16Z</time>
      </trkpt>
      <trkpt lat="45.8254" lon="7.18818">
        <ele>1547</ele>
        <time>2019-04-18T23:02:16Z</time>
      </trkpt>
      <trkpt lat="45.82525" lon="7.18815">
        <ele>1544</ele>
        <time>2019-04-18T23:03:16Z</time>
      </trkpt>
      <trkpt lat="45.82509" lon="7.18809">
        <ele>1539</ele>
        <time>2019-04-18T23:04:16Z</time>
      </trkpt>
      <trkpt lat="45.82491" lon="7.18808">
        <ele>1534</ele>
        <time>2019-04-18T23:05:16Z</time>
      </trkpt>
      <trkpt lat="45.82477" lon="7.18817">
        <ele>1533</ele>
        <time>2019-04-18T23:06:16Z</time>
      </trkpt>
      <trkpt lat="45.82462" lon="7.18836">
        <ele>1535</ele>
        <time>2019-04-18T23:07:16Z</time>
      </trkpt>
      <trkpt lat="45.82456" lon="7.18837">
        <ele>1533</ele>
        <time>2019-04-18T23:08:16Z</time>
      </trkpt>
      <trkpt lat="45.82452" lon="7.18833">
        <ele>1530</ele>
        <time>2019-04-18T23:09:16Z</time>
      </trkpt>
      <trkpt lat="45.82451" lon="7.18822">
        <ele>1525</ele>
        <time>2019-04-18T23:10:16Z</time>
      </trkpt>
      <trkpt lat="45.82456" lon="7.18815">
        <ele>1525</ele>
        <time>2019-04-18T23:11:16Z</time>
      </trkpt>
      <trkpt lat="45.82472" lon="7.18805">
        <ele>1527</ele>
        <time>2019-04-18T23:12:16Z</time>
      </trkpt>
      <trkpt lat="45.82491" lon="7.18797">
        <ele>1529</ele>
        <time>2019-04-18T23:13:16Z</time>
      </trkpt>
      <trkpt lat="45.82534" lon="7.18797">
        <ele>1536</ele>
        <time>2019-04-18T23:14:16Z</time>
      </trkpt>
      <trkpt lat="45.82548" lon="7.18795">
        <ele>1536</ele>
        <time>2019-04-18T23:15:16Z</time>
      </trkpt>
      <trkpt lat="45.82588" lon="7.18777">
        <ele>1530</ele>
        <time>2019-04-18T23:16:16Z</time>
      </trkpt>
      <trkpt lat="45.82625" lon="7.18767">
        <ele>1527</ele>
        <time>2019-04-18T23:17:16Z</time>
      </trkpt>
      <trkpt lat="45.82695" lon="7.18777">
        <ele>1536</ele>
        <time>2019-04-18T23:18:16Z</time>
      </trkpt>
      <trkpt lat="45.82706" lon="7.18774">
        <ele>1536</ele>
        <time>2019-04-18T23:19:16Z</time>
      </trkpt>
      <trkpt lat="45.82709" lon="7.18764">
        <ele>1532</ele>
        <time>2019-04-18T23:20:16Z</time>
      </trkpt>
      <trkpt lat="45.82703" lon="7.18754">
        <ele>1527</ele>
        <time>2019-04-18T23:21:16Z</time>
      </trkpt>
      <trkpt lat="45.82693" lon="7.18752">
        <ele>1525</ele>
        <time>2019-04-18T23:22:16Z</time>
      </trkpt>
      <trkpt lat="45.82625" lon="7.1875">
        <ele>1519</ele>
        <time>2019-04-18T23:23:16Z</time>
      </trkpt>
      <trkpt lat="45.82556" lon="7.18759">
        <ele>1518</ele>
        <time>2019-04-18T23:24:16Z</time>
      </trkpt>
      <trkpt lat="45.82494" lon="7.1875">
        <ele>1508</ele>
        <time>2019-04-18T23:25:16Z</time>
      </trkpt>
      <trkpt lat="45.82471" lon="7.18751">
        <ele>1504</ele>
        <time>2019-04-18T23:26:16Z</time>
      </trkpt>
      <trkpt lat="45.82443" lon="7.18763">
        <ele>1503</ele>
        <time>2019-04-18T23:27:16Z</time>
      </trkpt>
      <trkpt lat="45.82421" lon="7.1878">
        <ele>1503</ele>
        <time>2019-04-18T23:28:16Z</time>
      </trkpt>
      <trkpt lat="45.82414" lon="7.18783">
        <ele>1501</ele>
        <time>2019-04-18T23:29:16Z</time>
      </trkpt>
      <trkpt lat="45.82403" lon="7.18781">
        <ele>1495</ele>
        <time>2019-04-18T23:30:16Z</time>
      </trkpt>
      <trkpt lat="45.82307" lon="7.18967">
        <ele>1490</ele>
        <time>2019-04-18T23:31:16Z</time>
      </trkpt>
      <trkpt lat="45.8228" lon="7.1903">
        <ele>1484</ele>
        <time>2019-04-18T23:32:16Z</time>
      </trkpt>
      <trkpt lat="45.82267" lon="7.19091">
        <ele>1481</ele>
        <time>2019-04-18T23:33:16Z</time>
      </trkpt>
      <trkpt lat="45.8224" lon="7.19315">
        <ele>1472</ele>
        <time>2019-04-18T23:34:16Z</time>
      </trkpt>
      <trkpt lat="45.82229" lon="7.19344">
        <ele>1466</ele>
        <time>2019-04-18T23:35:16Z</time>
      </trkpt>
      <trkpt lat="45.82221" lon="7.19377">
        <ele>1462</ele>
        <time>2019-04-18T23:36:16Z</time>
      </trkpt>
      <trkpt lat="45.82226" lon="7.19439">
        <ele>1468</ele>
        <time>2019-04-18T23:37:16Z</time>
      </trkpt>
      <trkpt lat="45.8221" lon="7.19734">
        <ele>1454</ele>
        <time>2019-04-18T23:38:16Z</time>
      </trkpt>
      <trkpt lat="45.82216" lon="7.19804">
        <ele>1449</ele>
        <time>2019-04-18T23:39:16Z</time>
      </trkpt>
      <trkpt lat="45.82242" lon="7.19929">
        <ele>1441</ele>
        <time>2019-04-18T23:40:16Z</time>
      </trkpt>
      <trkpt lat="45.8226" lon="7.19969">
        <ele>1443</ele>
        <time>2019-04-18T23:41:16Z</time>
      </trkpt>
      <trkpt lat="45.82267" lon="7.19995">
        <ele>1442</ele>
        <time>2019-04-18T23:42:16Z</time>
      </trkpt>
      <trkpt lat="45.82272" lon="7.20043">
        <ele>1437</ele>
        <time>2019-04-18T23:43:16Z</time>
      </trkpt>
      <trkpt lat="45.82276" lon="7.20127">
        <ele>1427</ele>
        <time>2019-04-18T23:44:16Z</time>
      </trkpt>
      <trkpt lat="45.82273" lon="7.20192">
        <ele>1416</ele>
        <time>2019-04-18T23:45:16Z</time>
      </trkpt>
      <trkpt lat="45.82275" lon="7.20218">
        <ele>1414</ele>
        <time>2019-04-18T23:46:16Z</time>
      </trkpt>
      <trkpt lat="45.82299" lon="7.20325">
        <ele>1410</ele>
        <time>2019-04-18T23:47:16Z</time>
      </trkpt>
      <trkpt lat="45.82303" lon="7.20354">
        <ele>1408</ele>
        <time>2019-04-18T23:48:16Z</time>
      </trkpt>
      <trkpt lat="45.823" lon="7.2043">
        <ele>1399</ele>
        <time>2019-04-18T23:49:16Z</time>
      </trkpt>
      <trkpt lat="45.82301" lon="7.20456">
        <ele>1398</ele>
        <time>2019-04-18T23:50:16Z</time>
      </trkpt>
      <trkpt lat="45.82305" lon="7.20474">
        <ele>1399</ele>
        <time>2019-04-18T23:51:16Z</time>
      </trkpt>
      <trkpt lat="45.82335" lon="7.20546">
        <ele>1407</ele>
        <time>2019-04-18T23:52:16Z</time>
      </trkpt>
      <trkpt lat="45.82356" lon="7.20638">
        <ele>1404</ele>
        <time>2019-04-18T23:53:16Z</time>
      </trkpt>
      <trkpt lat="45.8238" lon="7.20764">
        <ele>1398</ele>
        <time>2019-04-18T23:54:16Z</time>
      </trkpt>
      <trkpt lat="45.82395" lon="7.20809">
        <ele>1397</ele>
        <time>2019-04-18T23:55:16Z</time>
      </trkpt>
      <trkpt lat="45.82397" lon="7.20823">
        <ele>1395</ele>
        <time>2019-04-18T23:56:16Z</time>
      </trkpt>
      <trkpt lat="45.82395" lon="7.20856">
        <ele>1391</ele>
        <time>2019-04-18T23:57:16Z</time>
      </trkpt>
      <trkpt lat="45.82389" lon="7.20889">
        <ele>1387</ele>
        <time>2019-04-18T23:58:16Z</time>
      </trkpt>
      <trkpt lat="45.82388" lon="7.2092">
        <ele>1384</ele>
        <time>2019-04-18T23:59:16Z</time>
      </trkpt>
      <trkpt lat="45.82401" lon="7.20975">
        <ele>1384</ele>
        <time>2019-04-19T00:00:16Z</time>
      </trkpt>
      <trkpt lat="45.82422" lon="7.21072">
        <ele>1381</ele>
        <time>2019-04-19T00:01:16Z</time>
      </trkpt>
      <trkpt lat="45.82441" lon="7.21259">
        <ele>1377</ele>
        <time>2019-04-19T00:02:16Z</time>
      </trkpt>
      <trkpt lat="45.82447" lon="7.21304">
        <ele>1375</ele>
        <time>2019-04-19T00:03:16Z</time>
      </trkpt>
      <trkpt lat="45.82456" lon="7.21344">
        <ele>1373</ele>
        <time>2019-04-19T00:04:16Z</time>
      </trkpt>
      <trkpt lat="45.82473" lon="7.2139">
        <ele>1371</ele>
        <time>2019-04-19T00:05:16Z</time>
      </trkpt>
      <trkpt lat="45.82486" lon="7.21416">
        <ele>1370</ele>
        <time>2019-04-19T00:06:16Z</time>
      </trkpt>
      <trkpt lat="45.82499" lon="7.21463">
        <ele>1369</ele>
        <time>2019-04-19T00:07:16Z</time>
      </trkpt>
      <trkpt lat="45.82501" lon="7.21478">
        <ele>1369</ele>
        <time>2019-04-19T00:08:16Z</time>
      </trkpt>
      <trkpt lat="45.82502" lon="7.21492">
        <ele>1368</ele>
        <time>2019-04-19T00:09:16Z</time>
      </trkpt>
      <trkpt lat="45.82499" lon="7.21509">
        <ele>1367</ele>
        <time>2019-04-19T00:10:16Z</time>
      </trkpt>
      <trkpt lat="45.82485" lon="7.21544">
        <ele>1364</ele>
        <time>2019-04-19T00:11:16Z</time>
      </trkpt>
      <trkpt lat="45.82465" lon="7.21615">
        <ele>1357</ele>
        <time>2019-04-19T00:12:16Z</time>
      </trkpt>
      <trkpt lat="45.82463" lon="7.21636">
        <ele>1355</ele>
        <time>2019-04-19T00:13:16Z</time>
      </trkpt>
      <trkpt lat="45.82463" lon="7.21654">
        <ele>1355</ele>
        <time>2019-04-19T00:14:16Z</time>
      </trkpt>
      <trkpt lat="45.82483" lon="7.21851">
        <ele>1353</ele>
        <time>2019-04-19T00:15:16Z</time>
      </trkpt>
      <trkpt lat="45.82483" lon="7.21862">
        <ele>1353</ele>
        <time>2019-04-19T00:16:16Z</time>
      </trkpt>
      <trkpt lat="45.8248" lon="7.21885">
        <ele>1352</ele>
        <time>2019-04-19T00:17:16Z</time>
      </trkpt>
      <trkpt lat="45.82477" lon="7.21896">
        <ele>1351</ele>
        <time>2019-04-19T00:18:16Z</time>
      </trkpt>
      <trkpt lat="45.82469" lon="7.2192">
        <ele>1348</ele>
        <time>2019-04-19T00:19:16Z</time>
      </trkpt>
      <trkpt lat="45.82455" lon="7.21946">
        <ele>1345</ele>
        <time>2019-04-19T00:20:16Z</time>
      </trkpt>
      <trkpt lat="45.82363" lon="7.22104">
        <ele>1332</ele>
        <time>2019-04-19T00:21:16Z</time>
      </trkpt>
      <trkpt lat="45.82269" lon="7.22261">
        <ele>1323</ele>
        <time>2019-04-19T00:22:16Z</time>
      </trkpt>
      <trkpt lat="45.8225" lon="7.22298">
        <ele>1322</ele>
        <time>2019-04-19T00:23:16Z</time>
      </trkpt>
      <trkpt lat="45.82239" lon="7.22338">
        <ele>1322</ele>
        <time>2019-04-19T00:24:16Z</time>
      </trkpt>
      <trkpt lat="45.8217" lon="7.22783">
        <ele>1291</ele>
        <time>2019-04-19T00:25:16Z</time>
      </trkpt>
      <trkpt lat="45.8215" lon="7.22922">
        <ele>1282</ele>
        <time>2019-04-19T00:26:16Z</time>
      </trkpt>
      <trkpt lat="45.82143" lon="7.22962">
        <ele>1282</ele>
        <time>2019-04-19T00:27:16Z</time>
      </trkpt>
      <trkpt lat="45.82134" lon="7.22999">
        <ele>1281</ele>
        <time>2019-04-19T00:28:16Z</time>
      </trkpt>
      <trkpt lat="45.82122" lon="7.23032">
        <ele>1280</ele>
        <time>2019-04-19T00:29:16Z</time>
      </trkpt>
      <trkpt lat="45.82118" lon="7.2304">
        <ele>1279</ele>
        <time>2019-04-19T00:30:16Z</time>
      </trkpt>
      <trkpt lat="45.82112" lon="7.23046">
        <ele>1278</ele>
        <time>2019-04-19T00:31:16Z</time>
      </trkpt>
      <trkpt lat="45.82106" lon="7.23047">
        <ele>1277</ele>
        <time>2019-04-19T00:32:16Z</time>
      </trkpt>
      <trkpt lat="45.821" lon="7.23043">
        <ele>1275</ele>
        <time>2019-04-19T00:33:16Z</time>
      </trkpt>
      <trkpt lat="45.82095" lon="7.23033">
        <ele>1273</ele>
        <time>2019-04-19T00:34:16Z</time>
      </trkpt>
      <trkpt lat="45.82094" lon="7.23026">
        <ele>1273</ele>
        <time>2019-04-19T00:35:16Z</time>
      </trkpt>
      <trkpt lat="45.82096" lon="7.23013">
        <ele>1273</ele>
        <time>2019-04-19T00:36:16Z</time>
      </trkpt>
      <trkpt lat="45.82131" lon="7.2294">
        <ele>1278</ele>
        <time>2019-04-19T00:37:16Z</time>
      </trkpt>
      <trkpt lat="45.82132" lon="7.22934">
        <ele>1279</ele>
        <time>2019-04-19T00:38:16Z</time>
      </trkpt>
      <trkpt lat="45.82131" lon="7.22923">
        <ele>1278</ele>
        <time>2019-04-19T00:39:16Z</time>
      </trkpt>
      <trkpt lat="45.82128" lon="7.22918">
        <ele>1277</ele>
        <time>2019-04-19T00:40:16Z</time>
      </trkpt>
      <trkpt lat="45.82125" lon="7.22915">
        <ele>1277</ele>
        <time>2019-04-19T00:41:16Z</time>
      </trkpt>
      <trkpt lat="45.82117" lon="7.22914">
        <ele>1275</ele>
        <time>2019-04-19T00:42:16Z</time>
      </trkpt>
      <trkpt lat="45.82113" lon="7.22916">
        <ele>1274</ele>
        <time>2019-04-19T00:43:16Z</time>
      </trkpt>
      <trkpt lat="45.82106" lon="7.22925">
        <ele>1273</ele>
        <time>2019-04-19T00:44:16Z</time>
      </trkpt>
      <trkpt lat="45.82092" lon="7.22947">
        <ele>1270</ele>
        <time>2019-04-19T00:45:16Z</time>
      </trkpt>
      <trkpt lat="45.82071" lon="7.22974">
        <ele>1268</ele>
        <time>2019-04-19T00:46:16Z</time>
      </trkpt>
      <trkpt lat="45.82059" lon="7.22984">
        <ele>1267</ele>
        <time>2019-04-19T00:47:16Z</time>
      </trkpt>
      <trkpt lat="45.82037" lon="7.22993">
        <ele>1265</ele>
        <time>2019-04-19T00:48:16Z</time>
      </trkpt>
      <trkpt lat="45.81997" lon="7.22996">
        <ele>1262</ele>
        <time>2019-04-19T00:49:16Z</time>
      </trkpt>
      <trkpt lat="45.81965" lon="7.22995">
        <ele>1264</ele>
        <time>2019-04-19T00:50:16Z</time>
      </trkpt>
      <trkpt lat="45.8195" lon="7.22997">
        <ele>1265</ele>
        <time>2019-04-19T00:51:16Z</time>
      </trkpt>
      <trkpt lat="45.81938" lon="7.22999">
        <ele>1266</ele>
        <time>2019-04-19T00:52:16Z</time>
      </trkpt>
      <trkpt lat="45.81932" lon="7.23004">
        <ele>1266</ele>
        <time>2019-04-19T00:53:16Z</time>
      </trkpt>
      <trkpt lat="45.81926" lon="7.23012">
        <ele>1267</ele>
        <time>2019-04-19T00:54:16Z</time>
      </trkpt>
      <trkpt lat="45.81923" lon="7.23024">
        <ele>1267</ele>
        <time>2019-04-19T00:55:16Z</time>
      </trkpt>
      <trkpt lat="45.81921" lon="7.2308">
        <ele>1268</ele>
        <time>2019-04-19T00:56:16Z</time>
      </trkpt>
      <trkpt lat="45.81915" lon="7.23128">
        <ele>1268</ele>
        <time>2019-04-19T00:57:16Z</time>
      </trkpt>
      <trkpt lat="45.81906" lon="7.23166">
        <ele>1271</ele>
        <time>2019-04-19T00:58:16Z</time>
      </trkpt>
      <trkpt lat="45.81871" lon="7.23261">
        <ele>1276</ele>
        <time>2019-04-19T00:59:16Z</time>
      </trkpt>
      <trkpt lat="45.81813" lon="7.23399">
        <ele>1271</ele>
        <time>2019-04-19T01:00:16Z</time>
      </trkpt>
      <trkpt lat="45.81686" lon="7.23695">
        <ele>1263</ele>
        <time>2019-04-19T01:01:16Z</time>
      </trkpt>
      <trkpt lat="45.81655" lon="7.23744">
        <ele>1262</ele>
        <time>2019-04-19T01:02:16Z</time>
      </trkpt>
      <trkpt lat="45.81627" lon="7.23768">
        <ele>1257</ele>
        <time>2019-04-19T01:03:16Z</time>
      </trkpt>
      <trkpt lat="45.81603" lon="7.2378">
        <ele>1254</ele>
        <time>2019-04-19T01:04:16Z</time>
      </trkpt>
      <trkpt lat="45.81577" lon="7.23785">
        <ele>1254</ele>
        <time>2019-04-19T01:05:16Z</time>
      </trkpt>
      <trkpt lat="45.81322" lon="7.23775">
        <ele>1254</ele>
        <time>2019-04-19T01:06:16Z</time>
      </trkpt>
      <trkpt lat="45.81274" lon="7.2379">
        <ele>1252</ele>
        <time>2019-04-19T01:07:16Z</time>
      </trkpt>
      <trkpt lat="45.81116" lon="7.23881">
        <ele>1245</ele>
        <time>2019-04-19T01:08:16Z</time>
      </trkpt>
      <trkpt lat="45.81094" lon="7.23898">
        <ele>1243</ele>
        <time>2019-04-19T01:09:16Z</time>
      </trkpt>
      <trkpt lat="45.81068" lon="7.23927">
        <ele>1241</ele>
        <time>2019-04-19T01:10:16Z</time>
      </trkpt>
      <trkpt lat="45.81053" lon="7.23945">
        <ele>1241</ele>
        <time>2019-04-19T01:11:16Z</time>
      </trkpt>
      <trkpt lat="45.81029" lon="7.23986">
        <ele>1239</ele>
        <time>2019-04-19T01:12:16Z</time>
      </trkpt>
      <trkpt lat="45.80818" lon="7.24492">
        <ele>1222</ele>
        <time>2019-04-19T01:13:16Z</time>
      </trkpt>
      <trkpt lat="45.80793" lon="7.24565">
        <ele>1222</ele>
        <time>2019-04-19T01:14:16Z</time>
      </trkpt>
      <trkpt lat="45.80779" lon="7.24646">
        <ele>1224</ele>
        <time>2019-04-19T01:15:16Z</time>
      </trkpt>
      <trkpt lat="45.80787" lon="7.24815">
        <ele>1220</ele>
        <time>2019-04-19T01:16:16Z</time>
      </trkpt>
      <trkpt lat="45.80784" lon="7.24899">
        <ele>1218</ele>
        <time>2019-04-19T01:17:16Z</time>
      </trkpt>
      <trkpt lat="45.80767" lon="7.24967">
        <ele>1218</ele>
        <time>2019-04-19T01:18:16Z</time>
      </trkpt>
      <trkpt lat="45.80739" lon="7.25051">
        <ele>1216</ele>
        <time>2019-04-19T01:19:16Z</time>
      </trkpt>
      <trkpt lat="45.80711" lon="7.25123">
        <ele>1212</ele>
        <time>2019-04-19T01:20:16Z</time>
      </trkpt>
      <trkpt lat="45.80649" lon="7.2526">
        <ele>1215</ele>
        <time>2019-04-19T01:21:16Z</time>
      </trkpt>
      <trkpt lat="45.80485" lon="7.25569">
        <ele>1216</ele>
        <time>2019-04-19T01:22:16Z</time>
      </trkpt>
      <trkpt lat="45.8043" lon="7.25718">
        <ele>1218</ele>
        <time>2019-04-19T01:23:16Z</time>
      </trkpt>
      <trkpt lat="45.80334" lon="7.26111">
        <ele>1213</ele>
        <time>2019-04-19T01:24:16Z</time>
      </trkpt>
      <trkpt lat="45.80308" lon="7.26269">
        <ele>1208</ele>
        <time>2019-04-19T01:25:16Z</time>
      </trkpt>
      <trkpt lat="45.80256" lon="7.26505">
        <ele>1197</ele>
        <time>2019-04-19T01:26:16Z</time>
      </trkpt>
      <trkpt lat="45.80245" lon="7.26567">
        <ele>1187</ele>
        <time>2019-04-19T01:27:16Z</time>
      </trkpt>
      <trkpt lat="45.80231" lon="7.26675">
        <ele>1164</ele>
        <time>2019-04-19T01:28:16Z</time>
      </trkpt>
      <trkpt lat="45.80204" lon="7.26775">
        <ele>1177</ele>
        <time>2019-04-19T01:29:16Z</time>
      </trkpt>
      <trkpt lat="45.80179" lon="7.26904">
        <ele>1188</ele>
        <time>2019-04-19T01:30:16Z</time>
      </trkpt>
      <trkpt lat="45.8016" lon="7.26962">
        <ele>1190</ele>
        <time>2019-04-19T01:31:16Z</time>
      </trkpt>
      <trkpt lat="45.80123" lon="7.27042">
        <ele>1193</ele>
        <time>2019-04-19T01:32:16Z</time>
      </trkpt>
      <trkpt lat="45.80092" lon="7.27168">
        <ele>1184</ele>
        <time>2019-04-19T01:33:16Z</time>
      </trkpt>
      <trkpt lat="45.80068" lon="7.27259">
        <ele>1174</ele>
        <time>2019-04-19T01:34:16Z</time>
      </trkpt>
      <trkpt lat="45.80032" lon="7.27332">
        <ele>1175</ele>
        <time>2019-04-19T01:35:16Z</time>
      </trkpt>
      <trkpt lat="45.79992" lon="7.27393">
        <ele>1178</ele>
        <time>2019-04-19T01:36:16Z</time>
      </trkpt>
      <trkpt lat="45.79942" lon="7.27457">
        <ele>1185</ele>
        <time>2019-04-19T01:37:16Z</time>
      </trkpt>
      <trkpt lat="45.79912" lon="7.27501">
        <ele>1184</ele>
        <time>2019-04-19T01:38:16Z</time>
      </trkpt>
      <trkpt lat="45.79831" lon="7.27745">
        <ele>1181</ele>
        <time>2019-04-19T01:39:16Z</time>
      </trkpt>
      <trkpt lat="45.79783" lon="7.27885">
        <ele>1169</ele>
        <time>2019-04-19T01:40:16Z</time>
      </trkpt>
      <trkpt lat="45.79689" lon="7.28037">
        <ele>1164</ele>
        <time>2019-04-19T01:41:16Z</time>
      </trkpt>
      <trkpt lat="45.79666" lon="7.28088">
        <ele>1157</ele>
        <time>2019-04-19T01:42:16Z</time>
      </trkpt>
      <trkpt lat="45.79615" lon="7.28262">
        <ele>1133</ele>
        <time>2019-04-19T01:43:16Z</time>
      </trkpt>
      <trkpt lat="45.7959" lon="7.28329">
        <ele>1130</ele>
        <time>2019-04-19T01:44:16Z</time>
      </trkpt>
      <trkpt lat="45.79463" lon="7.2852">
        <ele>1115</ele>
        <time>2019-04-19T01:45:16Z</time>
      </trkpt>
      <trkpt lat="45.79359" lon="7.28699">
        <ele>1102</ele>
        <time>2019-04-19T01:46:16Z</time>
      </trkpt>
      <trkpt lat="45.79341" lon="7.28731">
        <ele>1098</ele>
        <time>2019-04-19T01:47:16Z</time>
      </trkpt>
      <trkpt lat="45.79316" lon="7.28755">
        <ele>1092</ele>
        <time>2019-04-19T01:48:16Z</time>
      </trkpt>
      <trkpt lat="45.79291" lon="7.28753">
        <ele>1089</ele>
        <time>2019-04-19T01:49:16Z</time>
      </trkpt>
      <trkpt lat="45.79272" lon="7.28736">
        <ele>1088</ele>
        <time>2019-04-19T01:50:16Z</time>
      </trkpt>
      <trkpt lat="45.79257" lon="7.28694">
        <ele>1091</ele>
        <time>2019-04-19T01:51:16Z</time>
      </trkpt>
      <trkpt lat="45.79241" lon="7.28609">
        <ele>1097</ele>
        <time>2019-04-19T01:52:16Z</time>
      </trkpt>
      <trkpt lat="45.79216" lon="7.28551">
        <ele>1099</ele>
        <time>2019-04-19T01:53:16Z</time>
      </trkpt>
      <trkpt lat="45.79174" lon="7.28489">
        <ele>1099</ele>
        <time>2019-04-19T01:54:16Z</time>
      </trkpt>
      <trkpt lat="45.7915" lon="7.28464">
        <ele>1107</ele>
        <time>2019-04-19T01:55:16Z</time>
      </trkpt>
      <trkpt lat="45.79132" lon="7.28465">
        <ele>1108</ele>
        <time>2019-04-19T01:56:16Z</time>
      </trkpt>
      <trkpt lat="45.79116" lon="7.28487">
        <ele>1105</ele>
        <time>2019-04-19T01:57:16Z</time>
      </trkpt>
      <trkpt lat="45.79114" lon="7.28511">
        <ele>1101</ele>
        <time>2019-04-19T01:58:16Z</time>
      </trkpt>
      <trkpt lat="45.79131" lon="7.28561">
        <ele>1092</ele>
        <time>2019-04-19T01:59:16Z</time>
      </trkpt>
      <trkpt lat="45.79136" lon="7.28602">
        <ele>1085</ele>
        <time>2019-04-19T02:00:16Z</time>
      </trkpt>
      <trkpt lat="45.7913" lon="7.28647">
        <ele>1080</ele>
        <time>2019-04-19T02:01:16Z</time>
      </trkpt>
      <trkpt lat="45.79112" lon="7.28703">
        <ele>1077</ele>
        <time>2019-04-19T02:02:16Z</time>
      </trkpt>
      <trkpt lat="45.79089" lon="7.2876">
        <ele>1077</ele>
        <time>2019-04-19T02:03:16Z</time>
      </trkpt>
      <trkpt lat="45.79077" lon="7.28827">
        <ele>1077</ele>
        <time>2019-04-19T02:04:16Z</time>
      </trkpt>
      <trkpt lat="45.79078" lon="7.28915">
        <ele>1072</ele>
        <time>2019-04-19T02:05:16Z</time>
      </trkpt>
      <trkpt lat="45.79111" lon="7.29099">
        <ele>1060</ele>
        <time>2019-04-19T02:06:16Z</time>
      </trkpt>
      <trkpt lat="45.79123" lon="7.29185">
        <ele>1053</ele>
        <time>2019-04-19T02:07:16Z</time>
      </trkpt>
      <trkpt lat="45.79119" lon="7.29241">
        <ele>1048</ele>
        <time>2019-04-19T02:08:16Z</time>
      </trkpt>
      <trkpt lat="45.79098" lon="7.29289">
        <ele>1043</ele>
        <time>2019-04-19T02:09:16Z</time>
      </trkpt>
      <trkpt lat="45.79055" lon="7.29321">
        <ele>1042</ele>
        <time>2019-04-19T02:10:16Z</time>
      </trkpt>
      <trkpt lat="45.7886" lon="7.29457">
        <ele>1028</ele>
        <time>2019-04-19T02:11:16Z</time>
      </trkpt>
      <trkpt lat="45.78793" lon="7.29487">
        <ele>1022</ele>
        <time>2019-04-19T02:12:16Z</time>
      </trkpt>
      <trkpt lat="45.78504" lon="7.29575">
        <ele>998</ele>
        <time>2019-04-19T02:13:16Z</time>
      </trkpt>
      <trkpt lat="45.78389" lon="7.29617">
        <ele>994</ele>
        <time>2019-04-19T02:14:16Z</time>
      </trkpt>
      <trkpt lat="45.78359" lon="7.29645">
        <ele>992</ele>
        <time>2019-04-19T02:15:16Z</time>
      </trkpt>
      <trkpt lat="45.78303" lon="7.29723">
        <ele>980</ele>
        <time>2019-04-19T02:16:16Z</time>
      </trkpt>
      <trkpt lat="45.78282" lon="7.29747">
        <ele>977</ele>
        <time>2019-04-19T02:17:16Z</time>
      </trkpt>
      <trkpt lat="45.78251" lon="7.29765">
        <ele>976</ele>
        <time>2019-04-19T02:18:16Z</time>
      </trkpt>
      <trkpt lat="45.78174" lon="7.29797">
        <ele>967</ele>
        <time>2019-04-19T02:19:16Z</time>
      </trkpt>
      <trkpt lat="45.78157" lon="7.29799">
        <ele>966</ele>
        <time>2019-04-19T02:20:16Z</time>
      </trkpt>
      <trkpt lat="45.78144" lon="7.29795">
        <ele>965</ele>
        <time>2019-04-19T02:21:16Z</time>
      </trkpt>
      <trkpt lat="45.78134" lon="7.29789">
        <ele>964</ele>
        <time>2019-04-19T02:22:16Z</time>
      </trkpt>
      <trkpt lat="45.78121" lon="7.29775">
        <ele>965</ele>
        <time>2019-04-19T02:23:16Z</time>
      </trkpt>
      <trkpt lat="45.78114" lon="7.29761">
        <ele>966</ele>
        <time>2019-04-19T02:24:16Z</time>
      </trkpt>
      <trkpt lat="45.78108" lon="7.2974">
        <ele>966</ele>
        <time>2019-04-19T02:25:16Z</time>
      </trkpt>
      <trkpt lat="45.78107" lon="7.29719">
        <ele>965</ele>
        <time>2019-04-19T02:26:16Z</time>
      </trkpt>
      <trkpt lat="45.78108" lon="7.29701">
        <ele>965</ele>
        <time>2019-04-19T02:27:16Z</time>
      </trkpt>
      <trkpt lat="45.78123" lon="7.2964">
        <ele>966</ele>
        <time>2019-04-19T02:28:16Z</time>
      </trkpt>
      <trkpt lat="45.78125" lon="7.29621">
        <ele>966</ele>
        <time>2019-04-19T02:29:16Z</time>
      </trkpt>
      <trkpt lat="45.78124" lon="7.296">
        <ele>965</ele>
        <time>2019-04-19T02:30:16Z</time>
      </trkpt>
      <trkpt lat="45.7812" lon="7.29582">
        <ele>963</ele>
        <time>2019-04-19T02:31:16Z</time>
      </trkpt>
      <trkpt lat="45.78112" lon="7.29564">
        <ele>964</ele>
        <time>2019-04-19T02:32:16Z</time>
      </trkpt>
      <trkpt lat="45.78097" lon="7.29547">
        <ele>962</ele>
        <time>2019-04-19T02:33:16Z</time>
      </trkpt>
      <trkpt lat="45.78009" lon="7.29504">
        <ele>957</ele>
        <time>2019-04-19T02:34:16Z</time>
      </trkpt>
      <trkpt lat="45.77998" lon="7.29501">
        <ele>957</ele>
        <time>2019-04-19T02:35:16Z</time>
      </trkpt>
      <trkpt lat="45.77988" lon="7.295">
        <ele>956</ele>
        <time>2019-04-19T02:36:16Z</time>
      </trkpt>
      <trkpt lat="45.77975" lon="7.29503">
        <ele>955</ele>
        <time>2019-04-19T02:37:16Z</time>
      </trkpt>
      <trkpt lat="45.77913" lon="7.29536">
        <ele>949</ele>
        <time>2019-04-19T02:38:16Z</time>
      </trkpt>
      <trkpt lat="45.77895" lon="7.29542">
        <ele>947</ele>
        <time>2019-04-19T02:39:16Z</time>
      </trkpt>
      <trkpt lat="45.7781" lon="7.29546">
        <ele>947</ele>
        <time>2019-04-19T02:40:16Z</time>
      </trkpt>
      <trkpt lat="45.77798" lon="7.29548">
        <ele>947</ele>
        <time>2019-04-19T02:41:16Z</time>
      </trkpt>
      <trkpt lat="45.77788" lon="7.29552">
        <ele>947</ele>
        <time>2019-04-19T02:42:16Z</time>
      </trkpt>
      <trkpt lat="45.77773" lon="7.29561">
        <ele>947</ele>
        <time>2019-04-19T02:43:16Z</time>
      </trkpt>
      <trkpt lat="45.77735" lon="7.29604">
        <ele>948</ele>
        <time>2019-04-19T02:44:16Z</time>
      </trkpt>
      <trkpt lat="45.77708" lon="7.29638">
        <ele>948</ele>
        <time>2019-04-19T02:45:16Z</time>
      </trkpt>
      <trkpt lat="45.77656" lon="7.29689">
        <ele>949</ele>
        <time>2019-04-19T02:46:16Z</time>
      </trkpt>
      <trkpt lat="45.77526" lon="7.29808">
        <ele>933</ele>
        <time>2019-04-19T02:47:16Z</time>
      </trkpt>
      <trkpt lat="45.77503" lon="7.29836">
        <ele>927</ele>
        <time>2019-04-19T02:48:16Z</time>
      </trkpt>
      <trkpt lat="45.77479" lon="7.29869">
        <ele>927</ele>
        <time>2019-04-19T02:49:16Z</time>
      </trkpt>
      <trkpt lat="45.77462" lon="7.299">
        <ele>925</ele>
        <time>2019-04-19T02:50:16Z</time>
      </trkpt>
      <trkpt lat="45.77442" lon="7.2994">
        <ele>924</ele>
        <time>2019-04-19T02:51:16Z</time>
      </trkpt>
      <trkpt lat="45.7742" lon="7.29981">
        <ele>923</ele>
        <time>2019-04-19T02:52:16Z</time>
      </trkpt>
      <trkpt lat="45.77396" lon="7.30012">
        <ele>920</ele>
        <time>2019-04-19T02:53:16Z</time>
      </trkpt>
      <trkpt lat="45.77371" lon="7.30037">
        <ele>918</ele>
        <time>2019-04-19T02:54:16Z</time>
      </trkpt>
      <trkpt lat="45.77211" lon="7.30178">
        <ele>914</ele>
        <time>2019-04-19T02:55:16Z</time>
      </trkpt>
      <trkpt lat="45.77128" lon="7.30255">
        <ele>908</ele>
        <time>2019-04-19T02:56:16Z</time>
      </trkpt>
      <trkpt lat="45.76983" lon="7.30401">
        <ele>902</ele>
        <time>2019-04-19T02:57:16Z</time>
      </trkpt>
      <trkpt lat="45.76942" lon="7.30439">
        <ele>901</ele>
        <time>2019-04-19T02:58:16Z</time>
      </trkpt>
      <trkpt lat="45.76899" lon="7.30471">
        <ele>898</ele>
        <time>2019-04-19T02:59:16Z</time>
      </trkpt>
      <trkpt lat="45.76837" lon="7.30505">
        <ele>892</ele>
        <time>2019-04-19T03:00:16Z</time>
      </trkpt>
      <trkpt lat="45.7675" lon="7.30533">
        <ele>898</ele>
        <time>2019-04-19T03:01:16Z</time>
      </trkpt>
      <trkpt lat="45.76737" lon="7.30543">
        <ele>899</ele>
        <time>2019-04-19T03:02:16Z</time>
      </trkpt>
      <trkpt lat="45.76727" lon="7.30559">
        <ele>898</ele>
        <time>2019-04-19T03:03:16Z</time>
      </trkpt>
      <trkpt lat="45.76721" lon="7.30579">
        <ele>895</ele>
        <time>2019-04-19T03:04:16Z</time>
      </trkpt>
      <trkpt lat="45.7672" lon="7.30601">
        <ele>890</ele>
        <time>2019-04-19T03:05:16Z</time>
      </trkpt>
      <trkpt lat="45.76724" lon="7.30622">
        <ele>885</ele>
        <time>2019-04-19T03:06:16Z</time>
      </trkpt>
      <trkpt lat="45.76728" lon="7.30631">
        <ele>883</ele>
        <time>2019-04-19T03:07:16Z</time>
      </trkpt>
      <trkpt lat="45.76733" lon="7.30639">
        <ele>880</ele>
        <time>2019-04-19T03:08:16Z</time>
      </trkpt>
      <trkpt lat="45.76745" lon="7.30651">
        <ele>876</ele>
        <time>2019-04-19T03:09:16Z</time>
      </trkpt>
      <trkpt lat="45.76756" lon="7.30657">
        <ele>874</ele>
        <time>2019-04-19T03:10:16Z</time>
      </trkpt>
      <trkpt lat="45.7677" lon="7.30657">
        <ele>873</ele>
        <time>2019-04-19T03:11:16Z</time>
      </trkpt>
      <trkpt lat="45.76784" lon="7.30652">
        <ele>873</ele>
        <time>2019-04-19T03:12:16Z</time>
      </trkpt>
      <trkpt lat="45.76794" lon="7.30646">
        <ele>873</ele>
        <time>2019-04-19T03:13:16Z</time>
      </trkpt>
      <trkpt lat="45.76984" lon="7.3053">
        <ele>881</ele>
        <time>2019-04-19T03:14:16Z</time>
      </trkpt>
      <trkpt lat="45.7701" lon="7.30517">
        <ele>882</ele>
        <time>2019-04-19T03:15:16Z</time>
      </trkpt>
      <trkpt lat="45.77137" lon="7.30439">
        <ele>878</ele>
        <time>2019-04-19T03:16:16Z</time>
      </trkpt>
      <trkpt lat="45.7716" lon="7.30435">
        <ele>876</ele>
        <time>2019-04-19T03:17:16Z</time>
      </trkpt>
      <trkpt lat="45.77181" lon="7.30449">
        <ele>874</ele>
        <time>2019-04-19T03:18:16Z</time>
      </trkpt>
      <trkpt lat="45.77192" lon="7.30465">
        <ele>873</ele>
        <time>2019-04-19T03:19:16Z</time>
      </trkpt>
      <trkpt lat="45.77196" lon="7.30496">
        <ele>872</ele>
        <time>2019-04-19T03:20:16Z</time>
      </trkpt>
      <trkpt lat="45.77196" lon="7.30561">
        <ele>870</ele>
        <time>2019-04-19T03:21:16Z</time>
      </trkpt>
      <trkpt lat="45.77193" lon="7.30601">
        <ele>867</ele>
        <time>2019-04-19T03:22:16Z</time>
      </trkpt>
      <trkpt lat="45.77185" lon="7.30631">
        <ele>864</ele>
        <time>2019-04-19T03:23:16Z</time>
      </trkpt>
      <trkpt lat="45.77174" lon="7.30657">
        <ele>862</ele>
        <time>2019-04-19T03:24:16Z</time>
      </trkpt>
      <trkpt lat="45.77161" lon="7.30676">
        <ele>860</ele>
        <time>2019-04-19T03:25:16Z</time>
      </trkpt>
      <trkpt lat="45.77148" lon="7.30687">
        <ele>859</ele>
        <time>2019-04-19T03:26:16Z</time>
      </trkpt>
      <trkpt lat="45.77126" lon="7.30698">
        <ele>858</ele>
        <time>2019-04-19T03:27:16Z</time>
      </trkpt>
      <trkpt lat="45.77115" lon="7.30701">
        <ele>859</ele>
        <time>2019-04-19T03:28:16Z</time>
      </trkpt>
      <trkpt lat="45.77103" lon="7.30701">
        <ele>860</ele>
        <time>2019-04-19T03:29:16Z</time>
      </trkpt>
      <trkpt lat="45.77051" lon="7.30687">
        <ele>863</ele>
        <time>2019-04-19T03:30:16Z</time>
      </trkpt>
      <trkpt lat="45.77037" lon="7.30687">
        <ele>863</ele>
        <time>2019-04-19T03:31:16Z</time>
      </trkpt>
      <trkpt lat="45.77025" lon="7.30694">
        <ele>862</ele>
        <time>2019-04-19T03:32:16Z</time>
      </trkpt>
      <trkpt lat="45.77018" lon="7.30703">
        <ele>860</ele>
        <time>2019-04-19T03:33:16Z</time>
      </trkpt>
      <trkpt lat="45.77015" lon="7.30714">
        <ele>859</ele>
        <time>2019-04-19T03:34:16Z</time>
      </trkpt>
      <trkpt lat="45.77014" lon="7.30724">
        <ele>857</ele>
        <time>2019-04-19T03:35:16Z</time>
      </trkpt>
      <trkpt lat="45.77015" lon="7.30734">
        <ele>856</ele>
        <time>2019-04-19T03:36:16Z</time>
      </trkpt>
      <trkpt lat="45.77017" lon="7.30746">
        <ele>854</ele>
        <time>2019-04-19T03:37:16Z</time>
      </trkpt>
      <trkpt lat="45.77022" lon="7.30756">
        <ele>852</ele>
        <time>2019-04-19T03:38:16Z</time>
      </trkpt>
      <trkpt lat="45.77029" lon="7.30762">
        <ele>850</ele>
        <time>2019-04-19T03:39:16Z</time>
      </trkpt>
      <trkpt lat="45.77048" lon="7.30767">
        <ele>848</ele>
        <time>2019-04-19T03:40:16Z</time>
      </trkpt>
      <trkpt lat="45.7713" lon="7.30748">
        <ele>847</ele>
        <time>2019-04-19T03:41:16Z</time>
      </trkpt>
      <trkpt lat="45.77193" lon="7.30727">
        <ele>844</ele>
        <time>2019-04-19T03:42:16Z</time>
      </trkpt>
      <trkpt lat="45.77216" lon="7.30718">
        <ele>843</ele>
        <time>2019-04-19T03:43:16Z</time>
      </trkpt>
      <trkpt lat="45.77301" lon="7.30676">
        <ele>843</ele>
        <time>2019-04-19T03:44:16Z</time>
      </trkpt>
      <trkpt lat="45.77312" lon="7.30673">
        <ele>843</ele>
        <time>2019-04-19T03:45:16Z</time>
      </trkpt>
      <trkpt lat="45.77323" lon="7.30673">
        <ele>842</ele>
        <time>2019-04-19T03:46:16Z</time>
      </trkpt>
      <trkpt lat="45.77333" lon="7.30676">
        <ele>840</ele>
        <time>2019-04-19T03:47:16Z</time>
      </trkpt>
      <trkpt lat="45.77345" lon="7.30684">
        <ele>837</ele>
        <time>2019-04-19T03:48:16Z</time>
      </trkpt>
      <trkpt lat="45.77351" lon="7.30693">
        <ele>834</ele>
        <time>2019-04-19T03:49:16Z</time>
      </trkpt>
      <trkpt lat="45.77355" lon="7.30713">
        <ele>830</ele>
        <time>2019-04-19T03:50:16Z</time>
      </trkpt>
      <trkpt lat="45.77352" lon="7.30734">
        <ele>828</ele>
        <time>2019-04-19T03:51:16Z</time>
      </trkpt>
      <trkpt lat="45.77345" lon="7.30748">
        <ele>827</ele>
        <time>2019-04-19T03:52:16Z</time>
      </trkpt>
      <trkpt lat="45.77339" lon="7.30757">
        <ele>826</ele>
        <time>2019-04-19T03:53:16Z</time>
      </trkpt>
      <trkpt lat="45.77328" lon="7.30766">
        <ele>825</ele>
        <time>2019-04-19T03:54:16Z</time>
      </trkpt>
      <trkpt lat="45.77316" lon="7.30771">
        <ele>824</ele>
        <time>2019-04-19T03:55:16Z</time>
      </trkpt>
      <trkpt lat="45.77255" lon="7.30784">
        <ele>823</ele>
        <time>2019-04-19T03:56:16Z</time>
      </trkpt>
      <trkpt lat="45.77125" lon="7.30834">
        <ele>822</ele>
        <time>2019-04-19T03:57:16Z</time>
      </trkpt>
      <trkpt lat="45.77069" lon="7.30862">
        <ele>818</ele>
        <time>2019-04-19T03:58:16Z</time>
      </trkpt>
      <trkpt lat="45.76795" lon="7.31042">
        <ele>798</ele>
        <time>2019-04-19T03:59:16Z</time>
      </trkpt>
      <trkpt lat="45.76697" lon="7.31109">
        <ele>792</ele>
        <time>2019-04-19T04:00:16Z</time>
      </trkpt>
      <trkpt lat="45.76617" lon="7.31159">
        <ele>788</ele>
        <time>2019-04-19T04:01:16Z</time>
      </trkpt>
      <trkpt lat="45.76583" lon="7.31172">
        <ele>786</ele>
        <time>2019-04-19T04:02:16Z</time>
      </trkpt>
      <trkpt lat="45.76493" lon="7.31191">
        <ele>785</ele>
        <time>2019-04-19T04:03:16Z</time>
      </trkpt>
      <trkpt lat="45.76489" lon="7.31189">
        <ele>786</ele>
        <time>2019-04-19T04:04:16Z</time>
      </trkpt>
      <trkpt lat="45.76484" lon="7.31189">
        <ele>787</ele>
        <time>2019-04-19T04:05:16Z</time>
      </trkpt>
      <trkpt lat="45.76468" lon="7.31194">
        <ele>787</ele>
        <time>2019-04-19T04:06:16Z</time>
      </trkpt>
      <trkpt lat="45.76438" lon="7.3121">
        <ele>786</ele>
        <time>2019-04-19T04:07:16Z</time>
      </trkpt>
      <trkpt lat="45.76364" lon="7.31281">
        <ele>780</ele>
        <time>2019-04-19T04:08:16Z</time>
      </trkpt>
      <trkpt lat="45.76274" lon="7.31356">
        <ele>779</ele>
        <time>2019-04-19T04:09:16Z</time>
      </trkpt>
      <trkpt lat="45.76263" lon="7.3137">
        <ele>777</ele>
        <time>2019-04-19T04:10:16Z</time>
      </trkpt>
      <trkpt lat="45.76243" lon="7.31406">
        <ele>770</ele>
        <time>2019-04-19T04:11:16Z</time>
      </trkpt>
      <trkpt lat="45.76236" lon="7.31416">
        <ele>768</ele>
        <time>2019-04-19T04:12:16Z</time>
      </trkpt>
      <trkpt lat="45.76201" lon="7.31442">
        <ele>765</ele>
        <time>2019-04-19T04:13:16Z</time>
      </trkpt>
      <trkpt lat="45.76172" lon="7.31459">
        <ele>763</ele>
        <time>2019-04-19T04:14:16Z</time>
      </trkpt>
      <trkpt lat="45.76134" lon="7.31475">
        <ele>760</ele>
        <time>2019-04-19T04:15:16Z</time>
      </trkpt>
      <trkpt lat="45.76007" lon="7.3151">
        <ele>749</ele>
        <time>2019-04-19T04:16:16Z</time>
      </trkpt>
      <trkpt lat="45.75975" lon="7.31526">
        <ele>746</ele>
        <time>2019-04-19T04:17:16Z</time>
      </trkpt>
      <trkpt lat="45.75941" lon="7.31534">
        <ele>745</ele>
        <time>2019-04-19T04:18:16Z</time>
      </trkpt>
      <trkpt lat="45.75885" lon="7.31553">
        <ele>743</ele>
        <time>2019-04-19T04:19:16Z</time>
      </trkpt>
      <trkpt lat="45.75862" lon="7.31563">
        <ele>741</ele>
        <time>2019-04-19T04:20:16Z</time>
      </trkpt>
      <trkpt lat="45.75829" lon="7.31581">
        <ele>738</ele>
        <time>2019-04-19T04:21:16Z</time>
      </trkpt>
      <trkpt lat="45.75671" lon="7.31682">
        <ele>727</ele>
        <time>2019-04-19T04:22:16Z</time>
      </trkpt>
      <trkpt lat="45.75643" lon="7.31693">
        <ele>725</ele>
        <time>2019-04-19T04:23:16Z</time>
      </trkpt>
      <trkpt lat="45.75532" lon="7.31717">
        <ele>719</ele>
        <time>2019-04-19T04:24:16Z</time>
      </trkpt>
      <trkpt lat="45.75455" lon="7.31728">
        <ele>719</ele>
        <time>2019-04-19T04:25:16Z</time>
      </trkpt>
      <trkpt lat="45.75437" lon="7.31732">
        <ele>718</ele>
        <time>2019-04-19T04:26:16Z</time>
      </trkpt>
      <trkpt lat="45.75426" lon="7.31738">
        <ele>718</ele>
        <time>2019-04-19T04:27:16Z</time>
      </trkpt>
      <trkpt lat="45.75408" lon="7.31757">
        <ele>715</ele>
        <time>2019-04-19T04:28:16Z</time>
      </trkpt>
      <trkpt lat="45.75389" lon="7.31769">
        <ele>713</ele>
        <time>2019-04-19T04:29:16Z</time>
      </trkpt>
      <trkpt lat="45.75373" lon="7.3177">
        <ele>713</ele>
        <time>2019-04-19T04:30:16Z</time>
      </trkpt>
      <trkpt lat="45.75347" lon="7.31754">
        <ele>717</ele>
        <time>2019-04-19T04:31:16Z</time>
      </trkpt>
      <trkpt lat="45.75333" lon="7.31753">
        <ele>717</ele>
        <time>2019-04-19T04:32:16Z</time>
      </trkpt>
      <trkpt lat="45.7527" lon="7.31778">
        <ele>711</ele>
        <time>2019-04-19T04:33:16Z</time>
      </trkpt>
      <trkpt lat="45.75211" lon="7.3177">
        <ele>711</ele>
        <time>2019-04-19T04:34:16Z</time>
      </trkpt>
      <trkpt lat="45.75191" lon="7.31774">
        <ele>710</ele>
        <time>2019-04-19T04:35:16Z</time>
      </trkpt>
      <trkpt lat="45.75171" lon="7.3178">
        <ele>709</ele>
        <time>2019-04-19T04:36:16Z</time>
      </trkpt>
      <trkpt lat="45.75104" lon="7.31841">
        <ele>696</ele>
        <time>2019-04-19T04:37:16Z</time>
      </trkpt>
      <trkpt lat="45.75095" lon="7.31845">
        <ele>696</ele>
        <time>2019-04-19T04:38:16Z</time>
      </trkpt>
      <trkpt lat="45.75073" lon="7.3185">
        <ele>695</ele>
        <time>2019-04-19T04:39:16Z</time>
      </trkpt>
      <trkpt lat="45.75069" lon="7.31849">
        <ele>695</ele>
        <time>2019-04-19T04:40:16Z</time>
      </trkpt>
      <trkpt lat="45.75068" lon="7.31844">
        <ele>695</ele>
        <time>2019-04-19T04:41:16Z</time>
      </trkpt>
      <trkpt lat="45.75062" lon="7.31837">
        <ele>696</ele>
        <time>2019-04-19T04:42:16Z</time>
      </trkpt>
      <trkpt lat="45.75054" lon="7.31835">
        <ele>696</ele>
        <time>2019-04-19T04:43:16Z</time>
      </trkpt>
      <trkpt lat="45.75047" lon="7.31838">
        <ele>696</ele>
        <time>2019-04-19T04:44:16Z</time>
      </trkpt>
      <trkpt lat="45.75041" lon="7.31847">
        <ele>695</ele>
        <time>2019-04-19T04:45:16Z</time>
      </trkpt>
      <trkpt lat="45.75016" lon="7.31854">
        <ele>695</ele>
        <time>2019-04-19T04:46:16Z</time>
      </trkpt>
      <trkpt lat="45.75012" lon="7.31857">
        <ele>695</ele>
        <time>2019-04-19T04:47:16Z</time>
      </trkpt>
      <trkpt lat="45.74989" lon="7.31892">
        <ele>693</ele>
        <time>2019-04-19T04:48:16Z</time>
      </trkpt>
      <trkpt lat="45.74981" lon="7.31898">
        <ele>692</ele>
        <time>2019-04-19T04:49:16Z</time>
      </trkpt>
      <trkpt lat="45.74972" lon="7.31903">
        <ele>692</ele>
        <time>2019-04-19T04:50:16Z</time>
      </trkpt>
      <trkpt lat="45.74932" lon="7.31917">
        <ele>692</ele>
        <time>2019-04-19T04:51:16Z</time>
      </trkpt>
      <trkpt lat="45.74911" lon="7.3193">
        <ele>690</ele>
        <time>2019-04-19T04:52:16Z</time>
      </trkpt>
      <trkpt lat="45.74892" lon="7.31935">
        <ele>687</ele>
        <time>2019-04-19T04:53:16Z</time>
      </trkpt>
      <trkpt lat="45.74879" lon="7.31933">
        <ele>685</ele>
        <time>2019-04-19T04:54:16Z</time>
      </trkpt>
      <trkpt lat="45.74862" lon="7.31924">
        <ele>683</ele>
        <time>2019-04-19T04:55:16Z</time>
      </trkpt>
      <trkpt lat="45.74854" lon="7.31916">
        <ele>683</ele>
        <time>2019-04-19T04:56:16Z</time>
      </trkpt>
      <trkpt lat="45.7484" lon="7.31895">
        <ele>682</ele>
        <time>2019-04-19T04:57:16Z</time>
      </trkpt>
      <trkpt lat="45.74784" lon="7.31794">
        <ele>679</ele>
        <time>2019-04-19T04:58:16Z</time>
      </trkpt>
      <trkpt lat="45.74736" lon="7.31699">
        <ele>674</ele>
        <time>2019-04-19T04:59:16Z</time>
      </trkpt>
      <trkpt lat="45.74723" lon="7.31681">
        <ele>673</ele>
        <time>2019-04-19T05:00:16Z</time>
      </trkpt>
      <trkpt lat="45.74713" lon="7.31678">
        <ele>671</ele>
        <time>2019-04-19T05:01:16Z</time>
      </trkpt>
      <trkpt lat="45.74704" lon="7.31682">
        <ele>669</ele>
        <time>2019-04-19T05:02:16Z</time>
      </trkpt>
      <trkpt lat="45.74699" lon="7.31688">
        <ele>668</ele>
        <time>2019-04-19T05:03:16Z</time>
      </trkpt>
      <trkpt lat="45.74695" lon="7.31702">
        <ele>667</ele>
        <time>2019-04-19T05:04:16Z</time>
      </trkpt>
      <trkpt lat="45.74696" lon="7.31713">
        <ele>667</ele>
        <time>2019-04-19T05:05:16Z</time>
      </trkpt>
      <trkpt lat="45.74714" lon="7.31788">
        <ele>668</ele>
        <time>2019-04-19T05:06:16Z</time>
      </trkpt>
      <trkpt lat="45.74716" lon="7.318">
        <ele>668</ele>
        <time>2019-04-19T05:07:16Z</time>
      </trkpt>
      <trkpt lat="45.74715" lon="7.31817">
        <ele>667</ele>
        <time>2019-04-19T05:08:16Z</time>
      </trkpt>
      <trkpt lat="45.74698" lon="7.31868">
        <ele>662</ele>
        <time>2019-04-19T05:09:16Z</time>
      </trkpt>
      <trkpt lat="45.74696" lon="7.31879">
        <ele>661</ele>
        <time>2019-04-19T05:10:16Z</time>
      </trkpt>
      <trkpt lat="45.74695" lon="7.31899">
        <ele>660</ele>
        <time>2019-04-19T05:11:16Z</time>
      </trkpt>
      <trkpt lat="45.74714" lon="7.3197">
        <ele>658</ele>
        <time>2019-04-19T05:12:16Z</time>
      </trkpt>
      <trkpt lat="45.74718" lon="7.32">
        <ele>657</ele>
        <time>2019-04-19T05:13:16Z</time>
      </trkpt>
      <trkpt lat="45.74708" lon="7.32111">
        <ele>652</ele>
        <time>2019-04-19T05:14:16Z</time>
      </trkpt>
      <trkpt lat="45.74701" lon="7.32128">
        <ele>648</ele>
        <time>2019-04-19T05:15:16Z</time>
      </trkpt>
      <trkpt lat="45.74687" lon="7.32137">
        <ele>646</ele>
        <time>2019-04-19T05:16:16Z</time>
      </trkpt>
      <trkpt lat="45.74634" lon="7.3216">
        <ele>642</ele>
        <time>2019-04-19T05:17:16Z</time>
      </trkpt>
      <trkpt lat="45.7461" lon="7.32185">
        <ele>637</ele>
        <time>2019-04-19T05:18:16Z</time>
      </trkpt>
      <trkpt lat="45.74582" lon="7.32205">
        <ele>632</ele>
        <time>2019-04-19T05:19:16Z</time>
      </trkpt>
      <trkpt lat="45.74534" lon="7.3223">
        <ele>625</ele>
        <time>2019-04-19T05:20:16Z</time>
      </trkpt>
      <trkpt lat="45.74504" lon="7.3223">
        <ele>625</ele>
        <time>2019-04-19T05:21:16Z</time>
      </trkpt>
      <trkpt lat="45.7448" lon="7.32218">
        <ele>621</ele>
        <time>2019-04-19T05:22:16Z</time>
      </trkpt>
      <trkpt lat="45.74474" lon="7.32197">
        <ele>623</ele>
        <time>2019-04-19T05:23:16Z</time>
      </trkpt>
      <trkpt lat="45.74473" lon="7.32181">
        <ele>625</ele>
        <time>2019-04-19T05:24:16Z</time>
      </trkpt>
      <trkpt lat="45.74471" lon="7.31982">
        <ele>627</ele>
        <time>2019-04-19T05:25:16Z</time>
      </trkpt>
      <trkpt lat="45.74469" lon="7.31946">
        <ele>626</ele>
        <time>2019-04-19T05:26:16Z</time>
      </trkpt>
      <trkpt lat="45.7444" lon="7.31811">
        <ele>620</ele>
        <time>2019-04-19T05:27:16Z</time>
      </trkpt>
      <trkpt lat="45.7443" lon="7.31774">
        <ele>619</ele>
        <time>2019-04-19T05:28:16Z</time>
      </trkpt>
      <trkpt lat="45.74384" lon="7.31703">
        <ele>613</ele>
        <time>2019-04-19T05:29:16Z</time>
      </trkpt>
      <trkpt lat="45.7435" lon="7.3164">
        <ele>609</ele>
        <time>2019-04-19T05:30:16Z</time>
      </trkpt>
      <trkpt lat="45.74345" lon="7.31632">
        <ele>609</ele>
        <time>2019-04-19T05:31:16Z</time>
      </trkpt>
      <trkpt lat="45.74338" lon="7.31626">
        <ele>608</ele>
        <time>2019-04-19T05:32:16Z</time>
      </trkpt>
      <trkpt lat="45.74283" lon="7.31601">
        <ele>604</ele>
        <time>2019-04-19T05:33:16Z</time>
      </trkpt>
      <trkpt lat="45.74275" lon="7.3159">
        <ele>604</ele>
        <time>2019-04-19T05:34:16Z</time>
      </trkpt>
      <trkpt lat="45.74269" lon="7.31577">
        <ele>604</ele>
        <time>2019-04-19T05:35:16Z</time>
      </trkpt>
      <trkpt lat="45.74252" lon="7.31524">
        <ele>603</ele>
        <time>2019-04-19T05:36:16Z</time>
      </trkpt>
      <trkpt lat="45.74238" lon="7.31499">
        <ele>602</ele>
        <time>2019-04-19T05:37:16Z</time>
      </trkpt>
      <trkpt lat="45.74174" lon="7.31435">
        <ele>596</ele>
        <time>2019-04-19T05:38:16Z</time>
      </trkpt>
      <trkpt lat="45.7416" lon="7.3143">
        <ele>594</ele>
        <time>2019-04-19T05:39:16Z</time>
      </trkpt>
      <trkpt lat="45.74158" lon="7.31423">
        <ele>594</ele>
        <time>2019-04-19T05:40:16Z</time>
      </trkpt>
      <trkpt lat="45.74151" lon="7.31419">
        <ele>594</ele>
        <time>2019-04-19T05:41:16Z</time>
      </trkpt>
      <trkpt lat="45.74154" lon="7.31365">
        <ele>596</ele>
        <time>2019-04-19T05:42:16Z</time>
      </trkpt>
      <trkpt lat="45.74154" lon="7.31316">
        <ele>597</ele>
        <time>2019-04-19T05:43:16Z</time>
      </trkpt>
      <trkpt lat="45.7415" lon="7.31294">
        <ele>596</ele>
        <time>2019-04-19T05:44:16Z</time>
      </trkpt>
      <trkpt lat="45.74142" lon="7.31271">
        <ele>596</ele>
        <time>2019-04-19T05:45:16Z</time>
      </trkpt>
      <trkpt lat="45.74122" lon="7.31234">
        <ele>595</ele>
        <time>2019-04-19T05:46:16Z</time>
      </trkpt>
      <trkpt lat="45.74028" lon="7.31088">
        <ele>590</ele>
        <time>2019-04-19T05:47:16Z</time>
      </trkpt>
      <trkpt lat="45.74001" lon="7.3105">
        <ele>590</ele>
        <time>2019-04-19T05:48:16Z</time>
      </trkpt>
      <trkpt lat="45.74002" lon="7.31046">
        <ele>590</ele>
        <time>2019-04-19T05:49:16Z</time>
      </trkpt>
      <trkpt lat="45.74001" lon="7.31041">
        <ele>590</ele>
        <time>2019-04-19T05:50:16Z</time>
      </trkpt>
      <trkpt lat="45.73996" lon="7.31038">
        <ele>590</ele>
        <time>2019-04-19T05:51:16Z</time>
      </trkpt>
      <trkpt lat="45.73993" lon="7.3104">
        <ele>590</ele>
        <time>2019-04-19T05:52:16Z</time>
      </trkpt>
      <trkpt lat="45.73952" lon="7.30978">
        <ele>590</ele>
        <time>2019-04-19T05:53:16Z</time>
      </trkpt>
      <trkpt lat="45.73935" lon="7.30948">
        <ele>589</ele>
        <time>2019-04-19T05:54:16Z</time>
      </trkpt>
      <trkpt lat="45.73924" lon="7.30922">
        <ele>588</ele>
        <time>2019-04-19T05:55:16Z</time>
      </trkpt>
      <trkpt lat="45.73919" lon="7.30902">
        <ele>587</ele>
        <time>2019-04-19T05:56:16Z</time>
      </trkpt>
      <trkpt lat="45.73916" lon="7.30879">
        <ele>587</ele>
        <time>2019-04-19T05:57:16Z</time>
      </trkpt>
      <trkpt lat="45.73916" lon="7.30847">
        <ele>587</ele>
        <time>2019-04-19T05:58:16Z</time>
      </trkpt>
      <trkpt lat="45.73919" lon="7.30779">
        <ele>587</ele>
        <time>2019-04-19T05:59:16Z</time>
      </trkpt>
      <trkpt lat="45.73918" lon="7.3072">
        <ele>587</ele>
        <time>2019-04-19T06:00:16Z</time>
      </trkpt>
      <trkpt lat="45.73911" lon="7.30673">
        <ele>588</ele>
        <time>2019-04-19T06:01:16Z</time>
      </trkpt>
      <trkpt lat="45.73904" lon="7.30645">
        <ele>589</ele>
        <time>2019-04-19T06:02:16Z</time>
      </trkpt>
      <trkpt lat="45.73888" lon="7.30605">
        <ele>590</ele>
        <time>2019-04-19T06:03:16Z</time>
      </trkpt>
      <trkpt lat="45.73871" lon="7.30575">
        <ele>590</ele>
        <time>2019-04-19T06:04:16Z</time>
      </trkpt>
      <trkpt lat="45.73828" lon="7.30511">
        <ele>588</ele>
        <time>2019-04-19T06:05:16Z</time>
      </trkpt>
      <trkpt lat="45.73788" lon="7.30429">
        <ele>586</ele>
        <time>2019-04-19T06:06:16Z</time>
      </trkpt>
      <trkpt lat="45.73691" lon="7.30197">
        <ele>587</ele>
        <time>2019-04-19T06:07:16Z</time>
      </trkpt>
      <trkpt lat="45.73684" lon="7.30169">
        <ele>587</ele>
        <time>2019-04-19T06:08:16Z</time>
      </trkpt>
      <trkpt lat="45.73681" lon="7.30149">
        <ele>587</ele>
        <time>2019-04-19T06:09:16Z</time>
      </trkpt>
      <trkpt lat="45.73686" lon="7.30143">
        <ele>587</ele>
        <time>2019-04-19T06:10:16Z</time>
      </trkpt>
      <trkpt lat="45.73687" lon="7.30137">
        <ele>588</ele>
        <time>2019-04-19T06:11:16Z</time>
      </trkpt>
      <trkpt lat="45.73686" lon="7.3013">
        <ele>588</ele>
        <time>2019-04-19T06:12:16Z</time>
      </trkpt>
      <trkpt lat="45.73677" lon="7.30107">
        <ele>588</ele>
        <time>2019-04-19T06:13:16Z</time>
      </trkpt>
      <trkpt lat="45.73671" lon="7.30098">
        <ele>587</ele>
        <time>2019-04-19T06:14:16Z</time>
      </trkpt>
      <trkpt lat="45.73666" lon="7.30094">
        <ele>587</ele>
        <time>2019-04-19T06:15:16Z</time>
      </trkpt>
      <trkpt lat="45.7366" lon="7.30094">
        <ele>587</ele>
        <time>2019-04-19T06:16:16Z</time>
      </trkpt>
      <trkpt lat="45.73655" lon="7.30098">
        <ele>586</ele>
        <time>2019-04-19T06:17:16Z</time>
      </trkpt>
      <trkpt lat="45.73648" lon="7.30093">
        <ele>586</ele>
        <time>2019-04-19T06:18:16Z</time>
      </trkpt>
      <trkpt lat="45.7364" lon="7.30072">
        <ele>586</ele>
        <time>2019-04-19T06:19:16Z</time>
      </trkpt>
      <trkpt lat="45.73633" lon="7.3005">
        <ele>586</ele>
        <time>2019-04-19T06:20:16Z</time>
      </trkpt>
      <trkpt lat="45.73611" lon="7.29904">
        <ele>584</ele>
        <time>2019-04-19T06:21:16Z</time>
      </trkpt>
      <trkpt lat="45.73553" lon="7.29537">
        <ele>589</ele>
        <time>2019-04-19T06:22:16Z</time>
      </trkpt>
      <trkpt lat="45.73544" lon="7.29499">
        <ele>590</ele>
        <time>2019-04-19T06:23:16Z</time>
      </trkpt>
      <trkpt lat="45.73536" lon="7.29478">
        <ele>591</ele>
        <time>2019-04-19T06:24:16Z</time>
      </trkpt>
      <trkpt lat="45.73526" lon="7.29458">
        <ele>592</ele>
        <time>2019-04-19T06:25:16Z</time>
      </trkpt>
      <trkpt lat="45.73466" lon="7.29368">
        <ele>592</ele>
        <time>2019-04-19T06:26:16Z</time>
      </trkpt>
      <trkpt lat="45.73352" lon="7.292">
        <ele>592</ele>
        <time>2019-04-19T06:27:16Z</time>
      </trkpt>
      <trkpt lat="45.73329" lon="7.29173">
        <ele>592</ele>
        <time>2019-04-19T06:28:16Z</time>
      </trkpt>
      <trkpt lat="45.73027" lon="7.2889">
        <ele>592</ele>
        <time>2019-04-19T06:29:16Z</time>
      </trkpt>
      <trkpt lat="45.73017" lon="7.28879">
        <ele>592</ele>
        <time>2019-04-19T06:30:16Z</time>
      </trkpt>
      <trkpt lat="45.72999" lon="7.28855">
        <ele>592</ele>
        <time>2019-04-19T06:31:16Z</time>
      </trkpt>
      <trkpt lat="45.72985" lon="7.28825">
        <ele>592</ele>
        <time>2019-04-19T06:32:16Z</time>
      </trkpt>
      <trkpt lat="45.72973" lon="7.28781">
        <ele>591</ele>
        <time>2019-04-19T06:33:16Z</time>
      </trkpt>
      <trkpt lat="45.72969" lon="7.28747">
        <ele>590</ele>
        <time>2019-04-19T06:34:16Z</time>
      </trkpt>
      <trkpt lat="45.7297" lon="7.28685">
        <ele>588</ele>
        <time>2019-04-19T06:35:16Z</time>
      </trkpt>
      <trkpt lat="45.72977" lon="7.28561">
        <ele>588</ele>
        <time>2019-04-19T06:36:16Z</time>
      </trkpt>
      <trkpt lat="45.72975" lon="7.28509">
        <ele>589</ele>
        <time>2019-04-19T06:37:16Z</time>
      </trkpt>
      <trkpt lat="45.72974" lon="7.28487">
        <ele>589</ele>
        <time>2019-04-19T06:38:16Z</time>
      </trkpt>
      <trkpt lat="45.72967" lon="7.28448">
        <ele>589</ele>
        <time>2019-04-19T06:39:16Z</time>
      </trkpt>
      <trkpt lat="45.72955" lon="7.28397">
        <ele>588</ele>
        <time>2019-04-19T06:40:16Z</time>
      </trkpt>
      <trkpt lat="45.72944" lon="7.28361">
        <ele>588</ele>
        <time>2019-04-19T06:41:16Z</time>
      </trkpt>
      <trkpt lat="45.72923" lon="7.28312">
        <ele>587</ele>
        <time>2019-04-19T06:42:16Z</time>
      </trkpt>
      <trkpt lat="45.72901" lon="7.2827">
        <ele>588</ele>
        <time>2019-04-19T06:43:16Z</time>
      </trkpt>
      <trkpt lat="45.7274" lon="7.28006">
        <ele>588</ele>
        <time>2019-04-19T06:44:16Z</time>
      </trkpt>
      <trkpt lat="45.72449" lon="7.27521">
        <ele>599</ele>
        <time>2019-04-19T06:45:16Z</time>
      </trkpt>
      <trkpt lat="45.72434" lon="7.27484">
        <ele>600</ele>
        <time>2019-04-19T06:46:16Z</time>
      </trkpt>
      <trkpt lat="45.72423" lon="7.27444">
        <ele>601</ele>
        <time>2019-04-19T06:47:16Z</time>
      </trkpt>
      <trkpt lat="45.72414" lon="7.274">
        <ele>602</ele>
        <time>2019-04-19T06:48:16Z</time>
      </trkpt>
      <trkpt lat="45.724" lon="7.27225">
        <ele>602</ele>
        <time>2019-04-19T06:49:16Z</time>
      </trkpt>
      <trkpt lat="45.72397" lon="7.27192">
        <ele>601</ele>
        <time>2019-04-19T06:50:16Z</time>
      </trkpt>
      <trkpt lat="45.72391" lon="7.2715">
        <ele>601</ele>
        <time>2019-04-19T06:51:16Z</time>
      </trkpt>
      <trkpt lat="45.72382" lon="7.27112">
        <ele>599</ele>
        <time>2019-04-19T06:52:16Z</time>
      </trkpt>
      <trkpt lat="45.72365" lon="7.27059">
        <ele>598</ele>
        <time>2019-04-19T06:53:16Z</time>
      </trkpt>
      <trkpt lat="45.72348" lon="7.27022">
        <ele>598</ele>
        <time>2019-04-19T06:54:16Z</time>
      </trkpt>
      <trkpt lat="45.72335" lon="7.26998">
        <ele>597</ele>
        <time>2019-04-19T06:55:16Z</time>
      </trkpt>
      <trkpt lat="45.72248" lon="7.26869">
        <ele>600</ele>
        <time>2019-04-19T06:56:16Z</time>
      </trkpt>
      <trkpt lat="45.72186" lon="7.2677">
        <ele>600</ele>
        <time>2019-04-19T06:57:16Z</time>
      </trkpt>
      <trkpt lat="45.72171" lon="7.26738">
        <ele>600</ele>
        <time>2019-04-19T06:58:16Z</time>
      </trkpt>
      <trkpt lat="45.72132" lon="7.2662">
        <ele>601</ele>
        <time>2019-04-19T06:59:16Z</time>
      </trkpt>
      <trkpt lat="45.7212" lon="7.26593">
        <ele>601</ele>
        <time>2019-04-19T07:00:16Z</time>
      </trkpt>
      <trkpt lat="45.72107" lon="7.26567">
        <ele>601</ele>
        <time>2019-04-19T07:01:16Z</time>
      </trkpt>
      <trkpt lat="45.7209" lon="7.26541">
        <ele>601</ele>
        <time>2019-04-19T07:02:16Z</time>
      </trkpt>
      <trkpt lat="45.71755" lon="7.26148">
        <ele>611</ele>
        <time>2019-04-19T07:03:16Z</time>
      </trkpt>
      <trkpt lat="45.71407" lon="7.25715">
        <ele>613</ele>
        <time>2019-04-19T07:04:16Z</time>
      </trkpt>
      <trkpt lat="45.71315" lon="7.25598">
        <ele>616</ele>
        <time>2019-04-19T07:05:16Z</time>
      </trkpt>
      <trkpt lat="45.713" lon="7.25571">
        <ele>617</ele>
        <time>2019-04-19T07:06:16Z</time>
      </trkpt>
      <trkpt lat="45.7127" lon="7.25543">
        <ele>617</ele>
        <time>2019-04-19T07:07:16Z</time>
      </trkpt>
      <trkpt lat="45.71244" lon="7.25512">
        <ele>619</ele>
        <time>2019-04-19T07:08:16Z</time>
      </trkpt>
      <trkpt lat="45.71216" lon="7.25475">
        <ele>617</ele>
        <time>2019-04-19T07:09:16Z</time>
      </trkpt>
      <trkpt lat="45.712" lon="7.25442">
        <ele>617</ele>
        <time>2019-04-19T07:10:16Z</time>
      </trkpt>
      <trkpt lat="45.71189" lon="7.25401">
        <ele>616</ele>
        <time>2019-04-19T07:11:16Z</time>
      </trkpt>
      <trkpt lat="45.71187" lon="7.25382">
        <ele>615</ele>
        <time>2019-04-19T07:12:16Z</time>
      </trkpt>
      <trkpt lat="45.71186" lon="7.25344">
        <ele>615</ele>
        <time>2019-04-19T07:13:16Z</time>
      </trkpt>
      <trkpt lat="45.71191" lon="7.25282">
        <ele>617</ele>
        <time>2019-04-19T07:14:16Z</time>
      </trkpt>
      <trkpt lat="45.71194" lon="7.25261">
        <ele>618</ele>
        <time>2019-04-19T07:15:16Z</time>
      </trkpt>
      <trkpt lat="45.71198" lon="7.25244">
        <ele>619</ele>
        <time>2019-04-19T07:16:16Z</time>
      </trkpt>
      <trkpt lat="45.71204" lon="7.25224">
        <ele>621</ele>
        <time>2019-04-19T07:17:16Z</time>
      </trkpt>
      <trkpt lat="45.7122" lon="7.25186">
        <ele>626</ele>
        <time>2019-04-19T07:18:16Z</time>
      </trkpt>
      <trkpt lat="45.71257" lon="7.2511">
        <ele>631</ele>
        <time>2019-04-19T07:19:16Z</time>
      </trkpt>
      <trkpt lat="45.71264" lon="7.25089">
        <ele>632</ele>
        <time>2019-04-19T07:20:16Z</time>
      </trkpt>
      <trkpt lat="45.71268" lon="7.2507">
        <ele>632</ele>
        <time>2019-04-19T07:21:16Z</time>
      </trkpt>
      <trkpt lat="45.71272" lon="7.25028">
        <ele>634</ele>
        <time>2019-04-19T07:22:16Z</time>
      </trkpt>
      <trkpt lat="45.71272" lon="7.25012">
        <ele>634</ele>
        <time>2019-04-19T07:23:16Z</time>
      </trkpt>
      <trkpt lat="45.71265" lon="7.24932">
        <ele>634</ele>
        <time>2019-04-19T07:24:16Z</time>
      </trkpt>
      <trkpt lat="45.71249" lon="7.24783">
        <ele>635</ele>
        <time>2019-04-19T07:25:16Z</time>
      </trkpt>
      <trkpt lat="45.71244" lon="7.24752">
        <ele>636</ele>
        <time>2019-04-19T07:26:16Z</time>
      </trkpt>
      <trkpt lat="45.71216" lon="7.24651">
        <ele>642</ele>
        <time>2019-04-19T07:27:16Z</time>
      </trkpt>
      <trkpt lat="45.71207" lon="7.24611">
        <ele>645</ele>
        <time>2019-04-19T07:28:16Z</time>
      </trkpt>
      <trkpt lat="45.71181" lon="7.24469">
        <ele>662</ele>
        <time>2019-04-19T07:29:16Z</time>
      </trkpt>
      <trkpt lat="45.7117" lon="7.24422">
        <ele>668</ele>
        <time>2019-04-19T07:30:16Z</time>
      </trkpt>
      <trkpt lat="45.71161" lon="7.24395">
        <ele>669</ele>
        <time>2019-04-19T07:31:16Z</time>
      </trkpt>
      <trkpt lat="45.71151" lon="7.2437">
        <ele>669</ele>
        <time>2019-04-19T07:32:16Z</time>
      </trkpt>
      <trkpt lat="45.71122" lon="7.24323">
        <ele>663</ele>
        <time>2019-04-19T07:33:16Z</time>
      </trkpt>
      <trkpt lat="45.71059" lon="7.24248">
        <ele>656</ele>
        <time>2019-04-19T07:34:16Z</time>
      </trkpt>
      <trkpt lat="45.71043" lon="7.24234">
        <ele>654</ele>
        <time>2019-04-19T07:35:16Z</time>
      </trkpt>
      <trkpt lat="45.71028" lon="7.24224">
        <ele>653</ele>
        <time>2019-04-19T07:36:16Z</time>
      </trkpt>
      <trkpt lat="45.70997" lon="7.24214">
        <ele>649</ele>
        <time>2019-04-19T07:37:16Z</time>
      </trkpt>
      <trkpt lat="45.70919" lon="7.24215">
        <ele>654</ele>
        <time>2019-04-19T07:38:16Z</time>
      </trkpt>
      <trkpt lat="45.70903" lon="7.24211">
        <ele>654</ele>
        <time>2019-04-19T07:39:16Z</time>
      </trkpt>
      <trkpt lat="45.7088" lon="7.24201">
        <ele>656</ele>
        <time>2019-04-19T07:40:16Z</time>
      </trkpt>
      <trkpt lat="45.70854" lon="7.24182">
        <ele>658</ele>
        <time>2019-04-19T07:41:16Z</time>
      </trkpt>
      <trkpt lat="45.70842" lon="7.24167">
        <ele>660</ele>
        <time>2019-04-19T07:42:16Z</time>
      </trkpt>
      <trkpt lat="45.70828" lon="7.24148">
        <ele>658</ele>
        <time>2019-04-19T07:43:16Z</time>
      </trkpt>
      <trkpt lat="45.70819" lon="7.24129">
        <ele>657</ele>
        <time>2019-04-19T07:44:16Z</time>
      </trkpt>
      <trkpt lat="45.70811" lon="7.24109">
        <ele>657</ele>
        <time>2019-04-19T07:45:16Z</time>
      </trkpt>
      <trkpt lat="45.70804" lon="7.24087">
        <ele>657</ele>
        <time>2019-04-19T07:46:16Z</time>
      </trkpt>
      <trkpt lat="45.70798" lon="7.24058">
        <ele>657</ele>
        <time>2019-04-19T07:47:16Z</time>
      </trkpt>
      <trkpt lat="45.70796" lon="7.24018">
        <ele>659</ele>
        <time>2019-04-19T07:48:16Z</time>
      </trkpt>
      <trkpt lat="45.70802" lon="7.23832">
        <ele>666</ele>
        <time>2019-04-19T07:49:16Z</time>
      </trkpt>
      <trkpt lat="45.70809" lon="7.23756">
        <ele>669</ele>
        <time>2019-04-19T07:50:16Z</time>
      </trkpt>
      <trkpt lat="45.70813" lon="7.23733">
        <ele>669</ele>
        <time>2019-04-19T07:51:16Z</time>
      </trkpt>
      <trkpt lat="45.70827" lon="7.23681">
        <ele>669</ele>
        <time>2019-04-19T07:52:16Z</time>
      </trkpt>
      <trkpt lat="45.70836" lon="7.23653">
        <ele>669</ele>
        <time>2019-04-19T07:53:16Z</time>
      </trkpt>
      <trkpt lat="45.70986" lon="7.23286">
        <ele>674</ele>
        <time>2019-04-19T07:54:16Z</time>
      </trkpt>
      <trkpt lat="45.70998" lon="7.23248">
        <ele>674</ele>
        <time>2019-04-19T07:55:16Z</time>
      </trkpt>
      <trkpt lat="45.71006" lon="7.23208">
        <ele>675</ele>
        <time>2019-04-19T07:56:16Z</time>
      </trkpt>
      <trkpt lat="45.7101" lon="7.23145">
        <ele>677</ele>
        <time>2019-04-19T07:57:16Z</time>
      </trkpt>
      <trkpt lat="45.71008" lon="7.23098">
        <ele>679</ele>
        <time>2019-04-19T07:58:16Z</time>
      </trkpt>
      <trkpt lat="45.70966" lon="7.22825">
        <ele>683</ele>
        <time>2019-04-19T07:59:16Z</time>
      </trkpt>
      <trkpt lat="45.70964" lon="7.22779">
        <ele>685</ele>
        <time>2019-04-19T08:00:16Z</time>
      </trkpt>
      <trkpt lat="45.70939" lon="7.22667">
        <ele>683</ele>
        <time>2019-04-19T08:01:16Z</time>
      </trkpt>
      <trkpt lat="45.70931" lon="7.22648">
        <ele>682</ele>
        <time>2019-04-19T08:02:16Z</time>
      </trkpt>
      <trkpt lat="45.70882" lon="7.22608">
        <ele>678</ele>
        <time>2019-04-19T08:03:16Z</time>
      </trkpt>
      <trkpt lat="45.70868" lon="7.22594">
        <ele>678</ele>
        <time>2019-04-19T08:04:16Z</time>
      </trkpt>
      <trkpt lat="45.70862" lon="7.22587">
        <ele>678</ele>
        <time>2019-04-19T08:05:16Z</time>
      </trkpt>
      <trkpt lat="45.70859" lon="7.22578">
        <ele>678</ele>
        <time>2019-04-19T08:06:16Z</time>
      </trkpt>
      <trkpt lat="45.70847" lon="7.22583">
        <ele>677</ele>
        <time>2019-04-19T08:07:16Z</time>
      </trkpt>
      <trkpt lat="45.70836" lon="7.22581">
        <ele>676</ele>
        <time>2019-04-19T08:08:16Z</time>
      </trkpt>
      <trkpt lat="45.70798" lon="7.22549">
        <ele>678</ele>
        <time>2019-04-19T08:09:16Z</time>
      </trkpt>
      <trkpt lat="45.70663" lon="7.22427">
        <ele>677</ele>
        <time>2019-04-19T08:10:16Z</time>
      </trkpt>
      <trkpt lat="45.70655" lon="7.22418">
        <ele>676</ele>
        <time>2019-04-19T08:11:16Z</time>
      </trkpt>
      <trkpt lat="45.70633" lon="7.22384">
        <ele>675</ele>
        <time>2019-04-19T08:12:16Z</time>
      </trkpt>
      <trkpt lat="45.70615" lon="7.22348">
        <ele>675</ele>
        <time>2019-04-19T08:13:16Z</time>
      </trkpt>
      <trkpt lat="45.70608" lon="7.22329">
        <ele>675</ele>
        <time>2019-04-19T08:14:16Z</time>
      </trkpt>
      <trkpt lat="45.70597" lon="7.22281">
        <ele>675</ele>
        <time>2019-04-19T08:15:16Z</time>
      </trkpt>
      <trkpt lat="45.70593" lon="7.22244">
        <ele>676</ele>
        <time>2019-04-19T08:16:16Z</time>
      </trkpt>
      <trkpt lat="45.70594" lon="7.21964">
        <ele>670</ele>
        <time>2019-04-19T08:17:16Z</time>
      </trkpt>
      <trkpt lat="45.70596" lon="7.21853">
        <ele>669</ele>
        <time>2019-04-19T08:18:16Z</time>
      </trkpt>
      <trkpt lat="45.70596" lon="7.21652">
        <ele>666</ele>
        <time>2019-04-19T08:19:16Z</time>
      </trkpt>
      <trkpt lat="45.70598" lon="7.21592">
        <ele>662</ele>
        <time>2019-04-19T08:20:16Z</time>
      </trkpt>
      <trkpt lat="45.70602" lon="7.2156">
        <ele>660</ele>
        <time>2019-04-19T08:21:16Z</time>
      </trkpt>
      <trkpt lat="45.70619" lon="7.21476">
        <ele>656</ele>
        <time>2019-04-19T08:22:16Z</time>
      </trkpt>
      <trkpt lat="45.70624" lon="7.21434">
        <ele>656</ele>
        <time>2019-04-19T08:23:16Z</time>
      </trkpt>
      <trkpt lat="45.70622" lon="7.214">
        <ele>655</ele>
        <time>2019-04-19T08:24:16Z</time>
      </trkpt>
      <trkpt lat="45.70602" lon="7.21274">
        <ele>657</ele>
        <time>2019-04-19T08:25:16Z</time>
      </trkpt>
      <trkpt lat="45.70595" lon="7.21252">
        <ele>657</ele>
        <time>2019-04-19T08:26:16Z</time>
      </trkpt>
      <trkpt lat="45.70586" lon="7.21229">
        <ele>657</ele>
        <time>2019-04-19T08:27:16Z</time>
      </trkpt>
      <trkpt lat="45.70563" lon="7.2119">
        <ele>658</ele>
        <time>2019-04-19T08:28:16Z</time>
      </trkpt>
      <trkpt lat="45.70443" lon="7.21009">
        <ele>659</ele>
        <time>2019-04-19T08:29:16Z</time>
      </trkpt>
      <trkpt lat="45.70432" lon="7.20988">
        <ele>659</ele>
        <time>2019-04-19T08:30:16Z</time>
      </trkpt>
      <trkpt lat="45.70421" lon="7.20955">
        <ele>659</ele>
        <time>2019-04-19T08:31:16Z</time>
      </trkpt>
      <trkpt lat="45.70417" lon="7.2094">
        <ele>659</ele>
        <time>2019-04-19T08:32:16Z</time>
      </trkpt>
      <trkpt lat="45.70413" lon="7.20907">
        <ele>660</ele>
        <time>2019-04-19T08:33:16Z</time>
      </trkpt>
      <trkpt lat="45.70395" lon="7.2067">
        <ele>679</ele>
        <time>2019-04-19T08:34:16Z</time>
      </trkpt>
      <trkpt lat="45.70391" lon="7.2058">
        <ele>682</ele>
        <time>2019-04-19T08:35:16Z</time>
      </trkpt>
      <trkpt lat="45.70384" lon="7.20545">
        <ele>683</ele>
        <time>2019-04-19T08:36:16Z</time>
      </trkpt>
      <trkpt lat="45.70375" lon="7.20522">
        <ele>681</ele>
        <time>2019-04-19T08:37:16Z</time>
      </trkpt>
      <trkpt lat="45.70363" lon="7.20499">
        <ele>678</ele>
        <time>2019-04-19T08:38:16Z</time>
      </trkpt>
      <trkpt lat="45.70297" lon="7.20424">
        <ele>669</ele>
        <time>2019-04-19T08:39:16Z</time>
      </trkpt>
      <trkpt lat="45.70284" lon="7.20407">
        <ele>669</ele>
        <time>2019-04-19T08:40:16Z</time>
      </trkpt>
      <trkpt lat="45.70275" lon="7.2039">
        <ele>669</ele>
        <time>2019-04-19T08:41:16Z</time>
      </trkpt>
      <trkpt lat="45.70261" lon="7.20356">
        <ele>669</ele>
        <time>2019-04-19T08:42:16Z</time>
      </trkpt>
      <trkpt lat="45.69978" lon="7.19271">
        <ele>676</ele>
        <time>2019-04-19T08:43:16Z</time>
      </trkpt>
      <trkpt lat="45.6997" lon="7.19234">
        <ele>676</ele>
        <time>2019-04-19T08:44:16Z</time>
      </trkpt>
      <trkpt lat="45.69966" lon="7.19184">
        <ele>675</ele>
        <time>2019-04-19T08:45:16Z</time>
      </trkpt>
      <trkpt lat="45.69968" lon="7.19138">
        <ele>675</ele>
        <time>2019-04-19T08:46:16Z</time>
      </trkpt>
      <trkpt lat="45.69974" lon="7.19109">
        <ele>676</ele>
        <time>2019-04-19T08:47:16Z</time>
      </trkpt>
      <trkpt lat="45.69989" lon="7.19063">
        <ele>676</ele>
        <time>2019-04-19T08:48:16Z</time>
      </trkpt>
      <trkpt lat="45.70002" lon="7.19037">
        <ele>676</ele>
        <time>2019-04-19T08:49:16Z</time>
      </trkpt>
      <trkpt lat="45.70284" lon="7.18538">
        <ele>714</ele>
        <time>2019-04-19T08:50:16Z</time>
      </trkpt>
      <trkpt lat="45.70295" lon="7.18513">
        <ele>715</ele>
        <time>2019-04-19T08:51:16Z</time>
      </trkpt>
      <trkpt lat="45.70304" lon="7.18487">
        <ele>714</ele>
        <time>2019-04-19T08:52:16Z</time>
      </trkpt>
      <trkpt lat="45.7031" lon="7.1846">
        <ele>715</ele>
        <time>2019-04-19T08:53:16Z</time>
      </trkpt>
      <trkpt lat="45.70313" lon="7.18434">
        <ele>716</ele>
        <time>2019-04-19T08:54:16Z</time>
      </trkpt>
      <trkpt lat="45.70313" lon="7.18402">
        <ele>719</ele>
        <time>2019-04-19T08:55:16Z</time>
      </trkpt>
      <trkpt lat="45.70307" lon="7.18304">
        <ele>730</ele>
        <time>2019-04-19T08:56:16Z</time>
      </trkpt>
      <trkpt lat="45.70306" lon="7.18266">
        <ele>732</ele>
        <time>2019-04-19T08:57:16Z</time>
      </trkpt>
      <trkpt lat="45.70311" lon="7.18221">
        <ele>734</ele>
        <time>2019-04-19T08:58:16Z</time>
      </trkpt>
      <trkpt lat="45.70318" lon="7.18193">
        <ele>733</ele>
        <time>2019-04-19T08:59:16Z</time>
      </trkpt>
      <trkpt lat="45.7033" lon="7.1816">
        <ele>731</ele>
        <time>2019-04-19T09:00:16Z</time>
      </trkpt>
      <trkpt lat="45.70343" lon="7.18139">
        <ele>731</ele>
        <time>2019-04-19T09:01:16Z</time>
      </trkpt>
      <trkpt lat="45.70357" lon="7.18122">
        <ele>732</ele>
        <time>2019-04-19T09:02:16Z</time>
      </trkpt>
      <trkpt lat="45.70417" lon="7.18072">
        <ele>726</ele>
        <time>2019-04-19T09:03:16Z</time>
      </trkpt>
      <trkpt lat="45.70446" lon="7.18044">
        <ele>728</ele>
        <time>2019-04-19T09:04:16Z</time>
      </trkpt>
      <trkpt lat="45.70469" lon="7.18017">
        <ele>729</ele>
        <time>2019-04-19T09:05:16Z</time>
      </trkpt>
      <trkpt lat="45.7052" lon="7.17945">
        <ele>728</ele>
        <time>2019-04-19T09:06:16Z</time>
      </trkpt>
      <trkpt lat="45.70554" lon="7.17893">
        <ele>729</ele>
        <time>2019-04-19T09:07:16Z</time>
      </trkpt>
      <trkpt lat="45.70567" lon="7.17867">
        <ele>731</ele>
        <time>2019-04-19T09:08:16Z</time>
      </trkpt>
      <trkpt lat="45.70575" lon="7.17843">
        <ele>734</ele>
        <time>2019-04-19T09:09:16Z</time>
      </trkpt>
      <trkpt lat="45.70581" lon="7.17817">
        <ele>737</ele>
        <time>2019-04-19T09:10:16Z</time>
      </trkpt>
      <trkpt lat="45.70586" lon="7.17782">
        <ele>743</ele>
        <time>2019-04-19T09:11:16Z</time>
      </trkpt>
      <trkpt lat="45.70584" lon="7.1773">
        <ele>751</ele>
        <time>2019-04-19T09:12:16Z</time>
      </trkpt>
      <trkpt lat="45.7058" lon="7.17685">
        <ele>755</ele>
        <time>2019-04-19T09:13:16Z</time>
      </trkpt>
      <trkpt lat="45.70571" lon="7.17624">
        <ele>757</ele>
        <time>2019-04-19T09:14:16Z</time>
      </trkpt>
      <trkpt lat="45.70553" lon="7.17524">
        <ele>750</ele>
        <time>2019-04-19T09:15:16Z</time>
      </trkpt>
      <trkpt lat="45.70541" lon="7.17473">
        <ele>747</ele>
        <time>2019-04-19T09:16:16Z</time>
      </trkpt>
      <trkpt lat="45.70469" lon="7.17217">
        <ele>755</ele>
        <time>2019-04-19T09:17:16Z</time>
      </trkpt>
      <trkpt lat="45.70459" lon="7.17189">
        <ele>757</ele>
        <time>2019-04-19T09:18:16Z</time>
      </trkpt>
      <trkpt lat="45.70447" lon="7.17163">
        <ele>759</ele>
        <time>2019-04-19T09:19:16Z</time>
      </trkpt>
      <trkpt lat="45.70419" lon="7.17123">
        <ele>762</ele>
        <time>2019-04-19T09:20:16Z</time>
      </trkpt>
      <trkpt lat="45.70374" lon="7.17067">
        <ele>772</ele>
        <time>2019-04-19T09:21:16Z</time>
      </trkpt>
      <trkpt lat="45.70361" lon="7.17046">
        <ele>772</ele>
        <time>2019-04-19T09:22:16Z</time>
      </trkpt>
      <trkpt lat="45.70346" lon="7.17008">
        <ele>765</ele>
        <time>2019-04-19T09:23:16Z</time>
      </trkpt>
      <trkpt lat="45.70333" lon="7.16948">
        <ele>759</ele>
        <time>2019-04-19T09:24:16Z</time>
      </trkpt>
      <trkpt lat="45.7033" lon="7.16928">
        <ele>757</ele>
        <time>2019-04-19T09:25:16Z</time>
      </trkpt>
      <trkpt lat="45.70329" lon="7.16895">
        <ele>756</ele>
        <time>2019-04-19T09:26:16Z</time>
      </trkpt>
      <trkpt lat="45.70333" lon="7.16839">
        <ele>754</ele>
        <time>2019-04-19T09:27:16Z</time>
      </trkpt>
      <trkpt lat="45.70386" lon="7.16548">
        <ele>752</ele>
        <time>2019-04-19T09:28:16Z</time>
      </trkpt>
      <trkpt lat="45.70389" lon="7.1651">
        <ele>752</ele>
        <time>2019-04-19T09:29:16Z</time>
      </trkpt>
      <trkpt lat="45.70387" lon="7.16472">
        <ele>752</ele>
        <time>2019-04-19T09:30:16Z</time>
      </trkpt>
      <trkpt lat="45.70384" lon="7.16454">
        <ele>752</ele>
        <time>2019-04-19T09:31:16Z</time>
      </trkpt>
      <trkpt lat="45.70379" lon="7.16436">
        <ele>752</ele>
        <time>2019-04-19T09:32:16Z</time>
      </trkpt>
      <trkpt lat="45.70366" lon="7.16405">
        <ele>750</ele>
        <time>2019-04-19T09:33:16Z</time>
      </trkpt>
      <trkpt lat="45.70357" lon="7.16389">
        <ele>749</ele>
        <time>2019-04-19T09:34:16Z</time>
      </trkpt>
      <trkpt lat="45.70315" lon="7.16339">
        <ele>746</ele>
        <time>2019-04-19T09:35:16Z</time>
      </trkpt>
      <trkpt lat="45.70275" lon="7.16294">
        <ele>744</ele>
        <time>2019-04-19T09:36:16Z</time>
      </trkpt>
      <trkpt lat="45.70252" lon="7.16272">
        <ele>747</ele>
        <time>2019-04-19T09:37:16Z</time>
      </trkpt>
      <trkpt lat="45.70254" lon="7.16265">
        <ele>746</ele>
        <time>2019-04-19T09:38:16Z</time>
      </trkpt>
      <trkpt lat="45.70255" lon="7.16257">
        <ele>744</ele>
        <time>2019-04-19T09:39:16Z</time>
      </trkpt>
      <trkpt lat="45.70253" lon="7.16249">
        <ele>744</ele>
        <time>2019-04-19T09:40:16Z</time>
      </trkpt>
      <trkpt lat="45.7025" lon="7.16243">
        <ele>744</ele>
        <time>2019-04-19T09:41:16Z</time>
      </trkpt>
      <trkpt lat="45.70246" lon="7.16238">
        <ele>744</ele>
        <time>2019-04-19T09:42:16Z</time>
      </trkpt>
      <trkpt lat="45.70241" lon="7.16236">
        <ele>744</ele>
        <time>2019-04-19T09:43:16Z</time>
      </trkpt>
      <trkpt lat="45.70235" lon="7.16236">
        <ele>745</ele>
        <time>2019-04-19T09:44:16Z</time>
      </trkpt>
      <trkpt lat="45.7023" lon="7.16239">
        <ele>745</ele>
        <time>2019-04-19T09:45:16Z</time>
      </trkpt>
      <trkpt lat="45.70208" lon="7.16182">
        <ele>742</ele>
        <time>2019-04-19T09:46:16Z</time>
      </trkpt>
      <trkpt lat="45.70197" lon="7.1614">
        <ele>739</ele>
        <time>2019-04-19T09:47:16Z</time>
      </trkpt>
      <trkpt lat="45.70194" lon="7.16124">
        <ele>738</ele>
        <time>2019-04-19T09:48:16Z</time>
      </trkpt>
      <trkpt lat="45.70191" lon="7.1609">
        <ele>736</ele>
        <time>2019-04-19T09:49:16Z</time>
      </trkpt>
      <trkpt lat="45.70192" lon="7.16042">
        <ele>729</ele>
        <time>2019-04-19T09:50:16Z</time>
      </trkpt>
      <trkpt lat="45.70238" lon="7.15651">
        <ele>739</ele>
        <time>2019-04-19T09:51:16Z</time>
      </trkpt>
      <trkpt lat="45.70246" lon="7.15616">
        <ele>741</ele>
        <time>2019-04-19T09:52:16Z</time>
      </trkpt>
      <trkpt lat="45.70262" lon="7.1557">
        <ele>740</ele>
        <time>2019-04-19T09:53:16Z</time>
      </trkpt>
      <trkpt lat="45.70315" lon="7.15442">
        <ele>741</ele>
        <time>2019-04-19T09:54:16Z</time>
      </trkpt>
      <trkpt lat="45.70331" lon="7.15401">
        <ele>748</ele>
        <time>2019-04-19T09:55:16Z</time>
      </trkpt>
      <trkpt lat="45.7034" lon="7.15371">
        <ele>753</ele>
        <time>2019-04-19T09:56:16Z</time>
      </trkpt>
      <trkpt lat="45.70435" lon="7.14843">
        <ele>772</ele>
        <time>2019-04-19T09:57:16Z</time>
      </trkpt>
      <trkpt lat="45.70538" lon="7.1448">
        <ele>765</ele>
        <time>2019-04-19T09:58:16Z</time>
      </trkpt>
      <trkpt lat="45.70548" lon="7.14435">
        <ele>767</ele>
        <time>2019-04-19T09:59:16Z</time>
      </trkpt>
      <trkpt lat="45.70563" lon="7.14338">
        <ele>765</ele>
        <time>2019-04-19T10:00:16Z</time>
      </trkpt>
      <trkpt lat="45.7059" lon="7.14222">
        <ele>758</ele>
        <time>2019-04-19T10:01:16Z</time>
      </trkpt>
      <trkpt lat="45.70629" lon="7.13998">
        <ele>771</ele>
        <time>2019-04-19T10:02:16Z</time>
      </trkpt>
      <trkpt lat="45.70658" lon="7.13886">
        <ele>774</ele>
        <time>2019-04-19T10:03:16Z</time>
      </trkpt>
      <trkpt lat="45.7066" lon="7.13871">
        <ele>777</ele>
        <time>2019-04-19T10:04:16Z</time>
      </trkpt>
      <trkpt lat="45.70663" lon="7.13837">
        <ele>782</ele>
        <time>2019-04-19T10:05:16Z</time>
      </trkpt>
      <trkpt lat="45.70663" lon="7.13747">
        <ele>797</ele>
        <time>2019-04-19T10:06:16Z</time>
      </trkpt>
      <trkpt lat="45.7066" lon="7.13707">
        <ele>795</ele>
        <time>2019-04-19T10:07:16Z</time>
      </trkpt>
      <trkpt lat="45.70646" lon="7.13643">
        <ele>796</ele>
        <time>2019-04-19T10:08:16Z</time>
      </trkpt>
      <trkpt lat="45.70642" lon="7.13601">
        <ele>792</ele>
        <time>2019-04-19T10:09:16Z</time>
      </trkpt>
      <trkpt lat="45.70646" lon="7.13592">
        <ele>789</ele>
        <time>2019-04-19T10:10:16Z</time>
      </trkpt>
      <trkpt lat="45.70645" lon="7.13581">
        <ele>788</ele>
        <time>2019-04-19T10:11:16Z</time>
      </trkpt>
      <trkpt lat="45.70639" lon="7.13573">
        <ele>791</ele>
        <time>2019-04-19T10:12:16Z</time>
      </trkpt>
      <trkpt lat="45.70633" lon="7.13573">
        <ele>793</ele>
        <time>2019-04-19T10:13:16Z</time>
      </trkpt>
      <trkpt lat="45.70627" lon="7.13578">
        <ele>796</ele>
        <time>2019-04-19T10:14:16Z</time>
      </trkpt>
      <trkpt lat="45.7061" lon="7.13571">
        <ele>802</ele>
        <time>2019-04-19T10:15:16Z</time>
      </trkpt>
      <trkpt lat="45.70608" lon="7.13569">
        <ele>803</ele>
        <time>2019-04-19T10:16:16Z</time>
      </trkpt>
      <trkpt lat="45.70588" lon="7.13519">
        <ele>801</ele>
        <time>2019-04-19T10:17:16Z</time>
      </trkpt>
      <trkpt lat="45.70575" lon="7.1347">
        <ele>801</ele>
        <time>2019-04-19T10:18:16Z</time>
      </trkpt>
      <trkpt lat="45.70571" lon="7.13433">
        <ele>799</ele>
        <time>2019-04-19T10:19:16Z</time>
      </trkpt>
      <trkpt lat="45.70548" lon="7.13157">
        <ele>814</ele>
        <time>2019-04-19T10:20:16Z</time>
      </trkpt>
      <trkpt lat="45.70547" lon="7.1309">
        <ele>809</ele>
        <time>2019-04-19T10:21:16Z</time>
      </trkpt>
      <trkpt lat="45.70552" lon="7.13035">
        <ele>807</ele>
        <time>2019-04-19T10:22:16Z</time>
      </trkpt>
      <trkpt lat="45.70563" lon="7.12979">
        <ele>804</ele>
        <time>2019-04-19T10:23:16Z</time>
      </trkpt>
      <trkpt lat="45.70668" lon="7.12594">
        <ele>799</ele>
        <time>2019-04-19T10:24:16Z</time>
      </trkpt>
      <trkpt lat="45.70689" lon="7.12531">
        <ele>797</ele>
        <time>2019-04-19T10:25:16Z</time>
      </trkpt>
      <trkpt lat="45.70707" lon="7.12489">
        <ele>797</ele>
        <time>2019-04-19T10:26:16Z</time>
      </trkpt>
      <trkpt lat="45.70728" lon="7.1245">
        <ele>798</ele>
        <time>2019-04-19T10:27:16Z</time>
      </trkpt>
      <trkpt lat="45.7076" lon="7.124">
        <ele>802</ele>
        <time>2019-04-19T10:28:16Z</time>
      </trkpt>
      <trkpt lat="45.71003" lon="7.12077">
        <ele>832</ele>
        <time>2019-04-19T10:29:16Z</time>
      </trkpt>
      <trkpt lat="45.71033" lon="7.12032">
        <ele>824</ele>
        <time>2019-04-19T10:30:16Z</time>
      </trkpt>
      <trkpt lat="45.71054" lon="7.11988">
        <ele>816</ele>
        <time>2019-04-19T10:31:16Z</time>
      </trkpt>
      <trkpt lat="45.71128" lon="7.11788">
        <ele>814</ele>
        <time>2019-04-19T10:32:16Z</time>
      </trkpt>
      <trkpt lat="45.71145" lon="7.11747">
        <ele>808</ele>
        <time>2019-04-19T10:33:16Z</time>
      </trkpt>
      <trkpt lat="45.71162" lon="7.11709">
        <ele>803</ele>
        <time>2019-04-19T10:34:16Z</time>
      </trkpt>
      <trkpt lat="45.71232" lon="7.11585">
        <ele>800</ele>
        <time>2019-04-19T10:35:16Z</time>
      </trkpt>
      <trkpt lat="45.71243" lon="7.11562">
        <ele>798</ele>
        <time>2019-04-19T10:36:16Z</time>
      </trkpt>
      <trkpt lat="45.71278" lon="7.11478">
        <ele>799</ele>
        <time>2019-04-19T10:37:16Z</time>
      </trkpt>
      <trkpt lat="45.71305" lon="7.11419">
        <ele>799</ele>
        <time>2019-04-19T10:38:16Z</time>
      </trkpt>
      <trkpt lat="45.71346" lon="7.11349">
        <ele>800</ele>
        <time>2019-04-19T10:39:16Z</time>
      </trkpt>
      <trkpt lat="45.71486" lon="7.11161">
        <ele>800</ele>
        <time>2019-04-19T10:40:16Z</time>
      </trkpt>
      <trkpt lat="45.71505" lon="7.11138">
        <ele>799</ele>
        <time>2019-04-19T10:41:16Z</time>
      </trkpt>
      <trkpt lat="45.71524" lon="7.11124">
        <ele>798</ele>
        <time>2019-04-19T10:42:16Z</time>
      </trkpt>
      <trkpt lat="45.71545" lon="7.11114">
        <ele>795</ele>
        <time>2019-04-19T10:43:16Z</time>
      </trkpt>
      <trkpt lat="45.716" lon="7.11111">
        <ele>788</ele>
        <time>2019-04-19T10:44:16Z</time>
      </trkpt>
      <trkpt lat="45.71608" lon="7.1111">
        <ele>789</ele>
        <time>2019-04-19T10:45:16Z</time>
      </trkpt>
      <trkpt lat="45.71626" lon="7.11101">
        <ele>791</ele>
        <time>2019-04-19T10:46:16Z</time>
      </trkpt>
      <trkpt lat="45.7164" lon="7.11091">
        <ele>791</ele>
        <time>2019-04-19T10:47:16Z</time>
      </trkpt>
      <trkpt lat="45.71654" lon="7.11078">
        <ele>790</ele>
        <time>2019-04-19T10:48:16Z</time>
      </trkpt>
      <trkpt lat="45.71665" lon="7.11064">
        <ele>790</ele>
        <time>2019-04-19T10:49:16Z</time>
      </trkpt>
      <trkpt lat="45.71705" lon="7.11008">
        <ele>794</ele>
        <time>2019-04-19T10:50:16Z</time>
      </trkpt>
      <trkpt lat="45.7173" lon="7.10964">
        <ele>793</ele>
        <time>2019-04-19T10:51:16Z</time>
      </trkpt>
      <trkpt lat="45.71739" lon="7.10942">
        <ele>791</ele>
        <time>2019-04-19T10:52:16Z</time>
      </trkpt>
      <trkpt lat="45.71747" lon="7.10919">
        <ele>788</ele>
        <time>2019-04-19T10:53:16Z</time>
      </trkpt>
      <trkpt lat="45.71772" lon="7.10821">
        <ele>800</ele>
        <time>2019-04-19T10:54:16Z</time>
      </trkpt>
      <trkpt lat="45.71781" lon="7.10791">
        <ele>800</ele>
        <time>2019-04-19T10:55:16Z</time>
      </trkpt>
      <trkpt lat="45.71801" lon="7.10741">
        <ele>797</ele>
        <time>2019-04-19T10:56:16Z</time>
      </trkpt>
      <trkpt lat="45.72033" lon="7.1031">
        <ele>798</ele>
        <time>2019-04-19T10:57:16Z</time>
      </trkpt>
      <trkpt lat="45.72047" lon="7.10289">
        <ele>800</ele>
        <time>2019-04-19T10:58:16Z</time>
      </trkpt>
      <trkpt lat="45.72109" lon="7.1021">
        <ele>802</ele>
        <time>2019-04-19T10:59:16Z</time>
      </trkpt>
      <trkpt lat="45.72141" lon="7.10161">
        <ele>800</ele>
        <time>2019-04-19T11:00:16Z</time>
      </trkpt>
      <trkpt lat="45.7231" lon="7.09877">
        <ele>798</ele>
        <time>2019-04-19T11:01:16Z</time>
      </trkpt>
      <trkpt lat="45.72318" lon="7.09879">
        <ele>798</ele>
        <time>2019-04-19T11:02:16Z</time>
      </trkpt>
      <trkpt lat="45.72381" lon="7.09798">
        <ele>800</ele>
        <time>2019-04-19T11:03:16Z</time>
      </trkpt>
      <trkpt lat="45.72428" lon="7.09728">
        <ele>802</ele>
        <time>2019-04-19T11:04:16Z</time>
      </trkpt>
      <trkpt lat="45.72439" lon="7.09708">
        <ele>804</ele>
        <time>2019-04-19T11:05:16Z</time>
      </trkpt>
      <trkpt lat="45.72492" lon="7.09598">
        <ele>806</ele>
        <time>2019-04-19T11:06:16Z</time>
      </trkpt>
      <trkpt lat="45.72489" lon="7.0959">
        <ele>806</ele>
        <time>2019-04-19T11:07:16Z</time>
      </trkpt>
      <trkpt lat="45.72484" lon="7.09584">
        <ele>805</ele>
        <time>2019-04-19T11:08:16Z</time>
      </trkpt>
      <trkpt lat="45.72601" lon="7.09389">
        <ele>819</ele>
        <time>2019-04-19T11:09:16Z</time>
      </trkpt>
      <trkpt lat="45.72788" lon="7.09042">
        <ele>823</ele>
        <time>2019-04-19T11:10:16Z</time>
      </trkpt>
      <trkpt lat="45.72805" lon="7.0902">
        <ele>823</ele>
        <time>2019-04-19T11:11:16Z</time>
      </trkpt>
      <trkpt lat="45.72844" lon="7.08985">
        <ele>825</ele>
        <time>2019-04-19T11:12:16Z</time>
      </trkpt>
      <trkpt lat="45.72863" lon="7.08962">
        <ele>825</ele>
        <time>2019-04-19T11:13:16Z</time>
      </trkpt>
      <trkpt lat="45.72884" lon="7.08926">
        <ele>822</ele>
        <time>2019-04-19T11:14:16Z</time>
      </trkpt>
      <trkpt lat="45.72894" lon="7.08895">
        <ele>821</ele>
        <time>2019-04-19T11:15:16Z</time>
      </trkpt>
      <trkpt lat="45.72916" lon="7.08783">
        <ele>819</ele>
        <time>2019-04-19T11:16:16Z</time>
      </trkpt>
      <trkpt lat="45.72929" lon="7.08722">
        <ele>819</ele>
        <time>2019-04-19T11:17:16Z</time>
      </trkpt>
      <trkpt lat="45.72944" lon="7.08686">
        <ele>821</ele>
        <time>2019-04-19T11:18:16Z</time>
      </trkpt>
      <trkpt lat="45.73011" lon="7.08553">
        <ele>825</ele>
        <time>2019-04-19T11:19:16Z</time>
      </trkpt>
      <trkpt lat="45.73034" lon="7.08503">
        <ele>826</ele>
        <time>2019-04-19T11:20:16Z</time>
      </trkpt>
      <trkpt lat="45.73053" lon="7.08449">
        <ele>830</ele>
        <time>2019-04-19T11:21:16Z</time>
      </trkpt>
      <trkpt lat="45.73056" lon="7.08434">
        <ele>830</ele>
        <time>2019-04-19T11:22:16Z</time>
      </trkpt>
      <trkpt lat="45.73061" lon="7.08407">
        <ele>831</ele>
        <time>2019-04-19T11:23:16Z</time>
      </trkpt>
      <trkpt lat="45.73088" lon="7.0816">
        <ele>835</ele>
        <time>2019-04-19T11:24:16Z</time>
      </trkpt>
      <trkpt lat="45.73095" lon="7.08116">
        <ele>836</ele>
        <time>2019-04-19T11:25:16Z</time>
      </trkpt>
      <trkpt lat="45.73117" lon="7.08028">
        <ele>843</ele>
        <time>2019-04-19T11:26:16Z</time>
      </trkpt>
      <trkpt lat="45.7313" lon="7.07968">
        <ele>847</ele>
        <time>2019-04-19T11:27:16Z</time>
      </trkpt>
      <trkpt lat="45.73133" lon="7.07944">
        <ele>848</ele>
        <time>2019-04-19T11:28:16Z</time>
      </trkpt>
      <trkpt lat="45.73139" lon="7.07894">
        <ele>848</ele>
        <time>2019-04-19T11:29:16Z</time>
      </trkpt>
      <trkpt lat="45.7314" lon="7.07756">
        <ele>847</ele>
        <time>2019-04-19T11:30:16Z</time>
      </trkpt>
      <trkpt lat="45.73143" lon="7.07728">
        <ele>847</ele>
        <time>2019-04-19T11:31:16Z</time>
      </trkpt>
      <trkpt lat="45.73148" lon="7.07701">
        <ele>847</ele>
        <time>2019-04-19T11:32:16Z</time>
      </trkpt>
      <trkpt lat="45.73155" lon="7.07682">
        <ele>845</ele>
        <time>2019-04-19T11:33:16Z</time>
      </trkpt>
      <trkpt lat="45.7317" lon="7.07652">
        <ele>844</ele>
        <time>2019-04-19T11:34:16Z</time>
      </trkpt>
      <trkpt lat="45.73341" lon="7.07447">
        <ele>851</ele>
        <time>2019-04-19T11:35:16Z</time>
      </trkpt>
      <trkpt lat="45.73451" lon="7.07294">
        <ele>857</ele>
        <time>2019-04-19T11:36:16Z</time>
      </trkpt>
      <trkpt lat="45.7347" lon="7.07272">
        <ele>858</ele>
        <time>2019-04-19T11:37:16Z</time>
      </trkpt>
      <trkpt lat="45.73486" lon="7.07257">
        <ele>858</ele>
        <time>2019-04-19T11:38:16Z</time>
      </trkpt>
      <trkpt lat="45.73674" lon="7.07095">
        <ele>861</ele>
        <time>2019-04-19T11:39:16Z</time>
      </trkpt>
      <trkpt lat="45.7382" lon="7.06942">
        <ele>872</ele>
        <time>2019-04-19T11:40:16Z</time>
      </trkpt>
      <trkpt lat="45.73853" lon="7.0691">
        <ele>872</ele>
        <time>2019-04-19T11:41:16Z</time>
      </trkpt>
      <trkpt lat="45.7387" lon="7.06896">
        <ele>874</ele>
        <time>2019-04-19T11:42:16Z</time>
      </trkpt>
      <trkpt lat="45.73907" lon="7.06878">
        <ele>876</ele>
        <time>2019-04-19T11:43:16Z</time>
      </trkpt>
      <trkpt lat="45.74009" lon="7.06846">
        <ele>877</ele>
        <time>2019-04-19T11:44:16Z</time>
      </trkpt>
      <trkpt lat="45.74033" lon="7.06833">
        <ele>877</ele>
        <time>2019-04-19T11:45:16Z</time>
      </trkpt>
      <trkpt lat="45.74043" lon="7.06825">
        <ele>879</ele>
        <time>2019-04-19T11:46:16Z</time>
      </trkpt>
      <trkpt lat="45.74056" lon="7.06812">
        <ele>881</ele>
        <time>2019-04-19T11:47:16Z</time>
      </trkpt>
      <trkpt lat="45.74066" lon="7.06798">
        <ele>881</ele>
        <time>2019-04-19T11:48:16Z</time>
      </trkpt>
      <trkpt lat="45.74075" lon="7.06781">
        <ele>880</ele>
        <time>2019-04-19T11:49:16Z</time>
      </trkpt>
      <trkpt lat="45.74083" lon="7.06764">
        <ele>879</ele>
        <time>2019-04-19T11:50:16Z</time>
      </trkpt>
      <trkpt lat="45.74089" lon="7.06746">
        <ele>880</ele>
        <time>2019-04-19T11:51:16Z</time>
      </trkpt>
      <trkpt lat="45.74093" lon="7.06724">
        <ele>881</ele>
        <time>2019-04-19T11:52:16Z</time>
      </trkpt>
      <trkpt lat="45.74108" lon="7.06633">
        <ele>884</ele>
        <time>2019-04-19T11:53:16Z</time>
      </trkpt>
      <trkpt lat="45.74118" lon="7.06591">
        <ele>884</ele>
        <time>2019-04-19T11:54:16Z</time>
      </trkpt>
      <trkpt lat="45.74133" lon="7.06557">
        <ele>886</ele>
        <time>2019-04-19T11:55:16Z</time>
      </trkpt>
      <trkpt lat="45.74176" lon="7.06479">
        <ele>887</ele>
        <time>2019-04-19T11:56:16Z</time>
      </trkpt>
      <trkpt lat="45.74195" lon="7.06438">
        <ele>887</ele>
        <time>2019-04-19T11:57:16Z</time>
      </trkpt>
      <trkpt lat="45.74205" lon="7.06403">
        <ele>887</ele>
        <time>2019-04-19T11:58:16Z</time>
      </trkpt>
      <trkpt lat="45.7422" lon="7.06323">
        <ele>890</ele>
        <time>2019-04-19T11:59:16Z</time>
      </trkpt>
      <trkpt lat="45.74226" lon="7.06301">
        <ele>890</ele>
        <time>2019-04-19T12:00:16Z</time>
      </trkpt>
      <trkpt lat="45.74241" lon="7.06265">
        <ele>891</ele>
        <time>2019-04-19T12:01:16Z</time>
      </trkpt>
      <trkpt lat="45.74261" lon="7.06234">
        <ele>891</ele>
        <time>2019-04-19T12:02:16Z</time>
      </trkpt>
      <trkpt lat="45.74283" lon="7.0621">
        <ele>892</ele>
        <time>2019-04-19T12:03:16Z</time>
      </trkpt>
      <trkpt lat="45.74302" lon="7.06197">
        <ele>892</ele>
        <time>2019-04-19T12:04:16Z</time>
      </trkpt>
      <trkpt lat="45.74316" lon="7.06191">
        <ele>892</ele>
        <time>2019-04-19T12:05:16Z</time>
      </trkpt>
      <trkpt lat="45.74377" lon="7.0617">
        <ele>893</ele>
        <time>2019-04-19T12:06:16Z</time>
      </trkpt>
      <trkpt lat="45.74416" lon="7.06159">
        <ele>893</ele>
        <time>2019-04-19T12:07:16Z</time>
      </trkpt>
      <trkpt lat="45.74448" lon="7.06153">
        <ele>893</ele>
        <time>2019-04-19T12:08:16Z</time>
      </trkpt>
      <trkpt lat="45.74453" lon="7.06159">
        <ele>894</ele>
        <time>2019-04-19T12:09:16Z</time>
      </trkpt>
      <trkpt lat="45.74459" lon="7.0616">
        <ele>894</ele>
        <time>2019-04-19T12:10:16Z</time>
      </trkpt>
      <trkpt lat="45.74464" lon="7.06156">
        <ele>893</ele>
        <time>2019-04-19T12:11:16Z</time>
      </trkpt>
      <trkpt lat="45.74467" lon="7.0615">
        <ele>893</ele>
        <time>2019-04-19T12:12:16Z</time>
      </trkpt>
      <trkpt lat="45.74484" lon="7.06143">
        <ele>893</ele>
        <time>2019-04-19T12:13:16Z</time>
      </trkpt>
      <trkpt lat="45.745" lon="7.06132">
        <ele>892</ele>
        <time>2019-04-19T12:14:16Z</time>
      </trkpt>
      <trkpt lat="45.74527" lon="7.0612">
        <ele>894</ele>
        <time>2019-04-19T12:15:16Z</time>
      </trkpt>
      <trkpt lat="45.74547" lon="7.06105">
        <ele>894</ele>
        <time>2019-04-19T12:16:16Z</time>
      </trkpt>
      <trkpt lat="45.74555" lon="7.06099">
        <ele>894</ele>
        <time>2019-04-19T12:17:16Z</time>
      </trkpt>
      <trkpt lat="45.74569" lon="7.06082">
        <ele>894</ele>
        <time>2019-04-19T12:18:16Z</time>
      </trkpt>
      <trkpt lat="45.74693" lon="7.05906">
        <ele>895</ele>
        <time>2019-04-19T12:19:16Z</time>
      </trkpt>
      <trkpt lat="45.74709" lon="7.0588">
        <ele>895</ele>
        <time>2019-04-19T12:20:16Z</time>
      </trkpt>
      <trkpt lat="45.74727" lon="7.05846">
        <ele>895</ele>
        <time>2019-04-19T12:21:16Z</time>
      </trkpt>
      <trkpt lat="45.74863" lon="7.05543">
        <ele>895</ele>
        <time>2019-04-19T12:22:16Z</time>
      </trkpt>
      <trkpt lat="45.74967" lon="7.05303">
        <ele>898</ele>
        <time>2019-04-19T12:23:16Z</time>
      </trkpt>
      <trkpt lat="45.75059" lon="7.05099">
        <ele>902</ele>
        <time>2019-04-19T12:24:16Z</time>
      </trkpt>
      <trkpt lat="45.75345" lon="7.04445">
        <ele>916</ele>
        <time>2019-04-19T12:25:16Z</time>
      </trkpt>
      <trkpt lat="45.75357" lon="7.04408">
        <ele>916</ele>
        <time>2019-04-19T12:26:16Z</time>
      </trkpt>
      <trkpt lat="45.75359" lon="7.0441">
        <ele>916</ele>
        <time>2019-04-19T12:27:16Z</time>
      </trkpt>
      <trkpt lat="45.75365" lon="7.04411">
        <ele>917</ele>
        <time>2019-04-19T12:28:16Z</time>
      </trkpt>
      <trkpt lat="45.75371" lon="7.04404">
        <ele>917</ele>
        <time>2019-04-19T12:29:16Z</time>
      </trkpt>
      <trkpt lat="45.75371" lon="7.04395">
        <ele>917</ele>
        <time>2019-04-19T12:30:16Z</time>
      </trkpt>
      <trkpt lat="45.75366" lon="7.04387">
        <ele>916</ele>
        <time>2019-04-19T12:31:16Z</time>
      </trkpt>
      <trkpt lat="45.75377" lon="7.0437">
        <ele>917</ele>
        <time>2019-04-19T12:32:16Z</time>
      </trkpt>
      <trkpt lat="45.75463" lon="7.04173">
        <ele>917</ele>
        <time>2019-04-19T12:33:16Z</time>
      </trkpt>
      <trkpt lat="45.75508" lon="7.04077">
        <ele>921</ele>
        <time>2019-04-19T12:34:16Z</time>
      </trkpt>
      <trkpt lat="45.75602" lon="7.03861">
        <ele>923</ele>
        <time>2019-04-19T12:35:16Z</time>
      </trkpt>
      <trkpt lat="45.75627" lon="7.03822">
        <ele>924</ele>
        <time>2019-04-19T12:36:16Z</time>
      </trkpt>
      <trkpt lat="45.75778" lon="7.03648">
        <ele>926</ele>
        <time>2019-04-19T12:37:16Z</time>
      </trkpt>
      <trkpt lat="45.75804" lon="7.03613">
        <ele>925</ele>
        <time>2019-04-19T12:38:16Z</time>
      </trkpt>
      <trkpt lat="45.75828" lon="7.03569">
        <ele>924</ele>
        <time>2019-04-19T12:39:16Z</time>
      </trkpt>
      <trkpt lat="45.7585" lon="7.03513">
        <ele>926</ele>
        <time>2019-04-19T12:40:16Z</time>
      </trkpt>
      <trkpt lat="45.75862" lon="7.03468">
        <ele>928</ele>
        <time>2019-04-19T12:41:16Z</time>
      </trkpt>
      <trkpt lat="45.75951" lon="7.03087">
        <ele>930</ele>
        <time>2019-04-19T12:42:16Z</time>
      </trkpt>
      <trkpt lat="45.75961" lon="7.03088">
        <ele>931</ele>
        <time>2019-04-19T12:43:16Z</time>
      </trkpt>
      <trkpt lat="45.75968" lon="7.03082">
        <ele>931</ele>
        <time>2019-04-19T12:44:16Z</time>
      </trkpt>
      <trkpt lat="45.75971" lon="7.03072">
        <ele>931</ele>
        <time>2019-04-19T12:45:16Z</time>
      </trkpt>
      <trkpt lat="45.7597" lon="7.03059">
        <ele>931</ele>
        <time>2019-04-19T12:46:16Z</time>
      </trkpt>
      <trkpt lat="45.75966" lon="7.03051">
        <ele>931</ele>
        <time>2019-04-19T12:47:16Z</time>
      </trkpt>
      <trkpt lat="45.75973" lon="7.0304">
        <ele>931</ele>
        <time>2019-04-19T12:48:16Z</time>
      </trkpt>
      <trkpt lat="45.76019" lon="7.02928">
        <ele>933</ele>
        <time>2019-04-19T12:49:16Z</time>
      </trkpt>
      <trkpt lat="45.76025" lon="7.02908">
        <ele>934</ele>
        <time>2019-04-19T12:50:16Z</time>
      </trkpt>
      <trkpt lat="45.76033" lon="7.02865">
        <ele>936</ele>
        <time>2019-04-19T12:51:16Z</time>
      </trkpt>
      <trkpt lat="45.76036" lon="7.02817">
        <ele>937</ele>
        <time>2019-04-19T12:52:16Z</time>
      </trkpt>
      <trkpt lat="45.76036" lon="7.02797">
        <ele>937</ele>
        <time>2019-04-19T12:53:16Z</time>
      </trkpt>
      <trkpt lat="45.76019" lon="7.02633">
        <ele>939</ele>
        <time>2019-04-19T12:54:16Z</time>
      </trkpt>
      <trkpt lat="45.76018" lon="7.02614">
        <ele>939</ele>
        <time>2019-04-19T12:55:16Z</time>
      </trkpt>
      <trkpt lat="45.76028" lon="7.02315">
        <ele>947</ele>
        <time>2019-04-19T12:56:16Z</time>
      </trkpt>
      <trkpt lat="45.76032" lon="7.02273">
        <ele>947</ele>
        <time>2019-04-19T12:57:16Z</time>
      </trkpt>
      <trkpt lat="45.76037" lon="7.02241">
        <ele>948</ele>
        <time>2019-04-19T12:58:16Z</time>
      </trkpt>
      <trkpt lat="45.76063" lon="7.02111">
        <ele>951</ele>
        <time>2019-04-19T12:59:16Z</time>
      </trkpt>
      <trkpt lat="45.76067" lon="7.02088">
        <ele>951</ele>
        <time>2019-04-19T13:00:16Z</time>
      </trkpt>
      <trkpt lat="45.76068" lon="7.02063">
        <ele>952</ele>
        <time>2019-04-19T13:01:16Z</time>
      </trkpt>
      <trkpt lat="45.76067" lon="7.02021">
        <ele>954</ele>
        <time>2019-04-19T13:02:16Z</time>
      </trkpt>
      <trkpt lat="45.76063" lon="7.01979">
        <ele>956</ele>
        <time>2019-04-19T13:03:16Z</time>
      </trkpt>
      <trkpt lat="45.76041" lon="7.0183">
        <ele>961</ele>
        <time>2019-04-19T13:04:16Z</time>
      </trkpt>
      <trkpt lat="45.76037" lon="7.01793">
        <ele>961</ele>
        <time>2019-04-19T13:05:16Z</time>
      </trkpt>
      <trkpt lat="45.76037" lon="7.01753">
        <ele>963</ele>
        <time>2019-04-19T13:06:16Z</time>
      </trkpt>
      <trkpt lat="45.76038" lon="7.01719">
        <ele>963</ele>
        <time>2019-04-19T13:07:16Z</time>
      </trkpt>
      <trkpt lat="45.76069" lon="7.01486">
        <ele>970</ele>
        <time>2019-04-19T13:08:16Z</time>
      </trkpt>
      <trkpt lat="45.76075" lon="7.01454">
        <ele>970</ele>
        <time>2019-04-19T13:09:16Z</time>
      </trkpt>
      <trkpt lat="45.76123" lon="7.01262">
        <ele>975</ele>
        <time>2019-04-19T13:10:16Z</time>
      </trkpt>
      <trkpt lat="45.76133" lon="7.01205">
        <ele>975</ele>
        <time>2019-04-19T13:11:16Z</time>
      </trkpt>
      <trkpt lat="45.76154" lon="7.01028">
        <ele>973</ele>
        <time>2019-04-19T13:12:16Z</time>
      </trkpt>
      <trkpt lat="45.76155" lon="7.00986">
        <ele>970</ele>
        <time>2019-04-19T13:13:16Z</time>
      </trkpt>
      <trkpt lat="45.76154" lon="7.00962">
        <ele>968</ele>
        <time>2019-04-19T13:14:16Z</time>
      </trkpt>
      <trkpt lat="45.76138" lon="7.00863">
        <ele>967</ele>
        <time>2019-04-19T13:15:16Z</time>
      </trkpt>
      <trkpt lat="45.76137" lon="7.00839">
        <ele>968</ele>
        <time>2019-04-19T13:16:16Z</time>
      </trkpt>
      <trkpt lat="45.76137" lon="7.00806">
        <ele>971</ele>
        <time>2019-04-19T13:17:16Z</time>
      </trkpt>
      <trkpt lat="45.76145" lon="7.00762">
        <ele>974</ele>
        <time>2019-04-19T13:18:16Z</time>
      </trkpt>
      <trkpt lat="45.76183" lon="7.00615">
        <ele>975</ele>
        <time>2019-04-19T13:19:16Z</time>
      </trkpt>
      <trkpt lat="45.76221" lon="7.00514">
        <ele>979</ele>
        <time>2019-04-19T13:20:16Z</time>
      </trkpt>
      <trkpt lat="45.76229" lon="7.00487">
        <ele>979</ele>
        <time>2019-04-19T13:21:16Z</time>
      </trkpt>
      <trkpt lat="45.7625" lon="7.00334">
        <ele>988</ele>
        <time>2019-04-19T13:22:16Z</time>
      </trkpt>
      <trkpt lat="45.76251" lon="7.00296">
        <ele>989</ele>
        <time>2019-04-19T13:23:16Z</time>
      </trkpt>
      <trkpt lat="45.76243" lon="7.00214">
        <ele>997</ele>
        <time>2019-04-19T13:24:16Z</time>
      </trkpt>
      <trkpt lat="45.76243" lon="7.00192">
        <ele>999</ele>
        <time>2019-04-19T13:25:16Z</time>
      </trkpt>
      <trkpt lat="45.76248" lon="7.0015">
        <ele>1002</ele>
        <time>2019-04-19T13:26:16Z</time>
      </trkpt>
      <trkpt lat="45.76252" lon="7.00134">
        <ele>1005</ele>
        <time>2019-04-19T13:27:16Z</time>
      </trkpt>
      <trkpt lat="45.76266" lon="7.00097">
        <ele>1008</ele>
        <time>2019-04-19T13:28:16Z</time>
      </trkpt>
      <trkpt lat="45.76307" lon="7.00009">
        <ele>1012</ele>
        <time>2019-04-19T13:29:16Z</time>
      </trkpt>
      <trkpt lat="45.76319" lon="6.99979">
        <ele>1013</ele>
        <time>2019-04-19T13:30:16Z</time>
      </trkpt>
      <trkpt lat="45.76353" lon="6.99862">
        <ele>1017</ele>
        <time>2019-04-19T13:31:16Z</time>
      </trkpt>
      <trkpt lat="45.76359" lon="6.99833">
        <ele>1016</ele>
        <time>2019-04-19T13:32:16Z</time>
      </trkpt>
      <trkpt lat="45.76359" lon="6.998">
        <ele>1016</ele>
        <time>2019-04-19T13:33:16Z</time>
      </trkpt>
      <trkpt lat="45.76359" lon="6.99784">
        <ele>1016</ele>
        <time>2019-04-19T13:34:16Z</time>
      </trkpt>
      <trkpt lat="45.76354" lon="6.99751">
        <ele>1016</ele>
        <time>2019-04-19T13:35:16Z</time>
      </trkpt>
      <trkpt lat="45.76342" lon="6.99709">
        <ele>1013</ele>
        <time>2019-04-19T13:36:16Z</time>
      </trkpt>
      <trkpt lat="45.76314" lon="6.99618">
        <ele>1008</ele>
        <time>2019-04-19T13:37:16Z</time>
      </trkpt>
      <trkpt lat="45.76285" lon="6.99554">
        <ele>1013</ele>
        <time>2019-04-19T13:38:16Z</time>
      </trkpt>
      <trkpt lat="45.76274" lon="6.99526">
        <ele>1015</ele>
        <time>2019-04-19T13:39:16Z</time>
      </trkpt>
      <trkpt lat="45.76267" lon="6.99495">
        <ele>1015</ele>
        <time>2019-04-19T13:40:16Z</time>
      </trkpt>
      <trkpt lat="45.76263" lon="6.99457">
        <ele>1018</ele>
        <time>2019-04-19T13:41:16Z</time>
      </trkpt>
      <trkpt lat="45.76264" lon="6.99437">
        <ele>1018</ele>
        <time>2019-04-19T13:42:16Z</time>
      </trkpt>
      <trkpt lat="45.76267" lon="6.99404">
        <ele>1019</ele>
        <time>2019-04-19T13:43:16Z</time>
      </trkpt>
      <trkpt lat="45.76279" lon="6.99308">
        <ele>1018</ele>
        <time>2019-04-19T13:44:16Z</time>
      </trkpt>
      <trkpt lat="45.7628" lon="6.99269">
        <ele>1018</ele>
        <time>2019-04-19T13:45:16Z</time>
      </trkpt>
      <trkpt lat="45.76276" lon="6.99234">
        <ele>1018</ele>
        <time>2019-04-19T13:46:16Z</time>
      </trkpt>
      <trkpt lat="45.7627" lon="6.99211">
        <ele>1018</ele>
        <time>2019-04-19T13:47:16Z</time>
      </trkpt>
      <trkpt lat="45.76243" lon="6.99145">
        <ele>1021</ele>
        <time>2019-04-19T13:48:16Z</time>
      </trkpt>
      <trkpt lat="45.76236" lon="6.99112">
        <ele>1021</ele>
        <time>2019-04-19T13:49:16Z</time>
      </trkpt>
      <trkpt lat="45.76234" lon="6.99086">
        <ele>1019</ele>
        <time>2019-04-19T13:50:16Z</time>
      </trkpt>
      <trkpt lat="45.76237" lon="6.99059">
        <ele>1016</ele>
        <time>2019-04-19T13:51:16Z</time>
      </trkpt>
      <trkpt lat="45.76244" lon="6.99031">
        <ele>1012</ele>
        <time>2019-04-19T13:52:16Z</time>
      </trkpt>
      <trkpt lat="45.7626" lon="6.99">
        <ele>1008</ele>
        <time>2019-04-19T13:53:16Z</time>
      </trkpt>
      <trkpt lat="45.7633" lon="6.98921">
        <ele>1007</ele>
        <time>2019-04-19T13:54:16Z</time>
      </trkpt>
      <trkpt lat="45.76341" lon="6.98907">
        <ele>1008</ele>
        <time>2019-04-19T13:55:16Z</time>
      </trkpt>
      <trkpt lat="45.76342" lon="6.98878">
        <ele>1009</ele>
        <time>2019-04-19T13:56:16Z</time>
      </trkpt>
      <trkpt lat="45.76392" lon="6.98651">
        <ele>1018</ele>
        <time>2019-04-19T13:57:16Z</time>
      </trkpt>
      <trkpt lat="45.76399" lon="6.98636">
        <ele>1019</ele>
        <time>2019-04-19T13:58:16Z</time>
      </trkpt>
      <trkpt lat="45.76422" lon="6.98597">
        <ele>1020</ele>
        <time>2019-04-19T13:59:16Z</time>
      </trkpt>
      <trkpt lat="45.76431" lon="6.98578">
        <ele>1021</ele>
        <time>2019-04-19T14:00:16Z</time>
      </trkpt>
      <trkpt lat="45.76459" lon="6.98509">
        <ele>1025</ele>
        <time>2019-04-19T14:01:16Z</time>
      </trkpt>
      <trkpt lat="45.76481" lon="6.98466">
        <ele>1028</ele>
        <time>2019-04-19T14:02:16Z</time>
      </trkpt>
      <trkpt lat="45.76626" lon="6.98314">
        <ele>1041</ele>
        <time>2019-04-19T14:03:16Z</time>
      </trkpt>
      <trkpt lat="45.76628" lon="6.98307">
        <ele>1042</ele>
        <time>2019-04-19T14:04:16Z</time>
      </trkpt>
      <trkpt lat="45.76626" lon="6.98301">
        <ele>1045</ele>
        <time>2019-04-19T14:05:16Z</time>
      </trkpt>
      <trkpt lat="45.76622" lon="6.983">
        <ele>1046</ele>
        <time>2019-04-19T14:06:16Z</time>
      </trkpt>
      <trkpt lat="45.76603" lon="6.98313">
        <ele>1044</ele>
        <time>2019-04-19T14:07:16Z</time>
      </trkpt>
      <trkpt lat="45.76587" lon="6.9832">
        <ele>1044</ele>
        <time>2019-04-19T14:08:16Z</time>
      </trkpt>
      <trkpt lat="45.76562" lon="6.98325">
        <ele>1045</ele>
        <time>2019-04-19T14:09:16Z</time>
      </trkpt>
      <trkpt lat="45.76393" lon="6.98335">
        <ele>1055</ele>
        <time>2019-04-19T14:10:16Z</time>
      </trkpt>
      <trkpt lat="45.76373" lon="6.98334">
        <ele>1056</ele>
        <time>2019-04-19T14:11:16Z</time>
      </trkpt>
      <trkpt lat="45.76308" lon="6.98314">
        <ele>1067</ele>
        <time>2019-04-19T14:12:16Z</time>
      </trkpt>
      <trkpt lat="45.76298" lon="6.98312">
        <ele>1069</ele>
        <time>2019-04-19T14:13:16Z</time>
      </trkpt>
      <trkpt lat="45.76284" lon="6.98314">
        <ele>1070</ele>
        <time>2019-04-19T14:14:16Z</time>
      </trkpt>
      <trkpt lat="45.76232" lon="6.98329">
        <ele>1074</ele>
        <time>2019-04-19T14:15:16Z</time>
      </trkpt>
      <trkpt lat="45.7622" lon="6.98336">
        <ele>1076</ele>
        <time>2019-04-19T14:16:16Z</time>
      </trkpt>
      <trkpt lat="45.76137" lon="6.98394">
        <ele>1087</ele>
        <time>2019-04-19T14:17:16Z</time>
      </trkpt>
      <trkpt lat="45.7613" lon="6.98401">
        <ele>1088</ele>
        <time>2019-04-19T14:18:16Z</time>
      </trkpt>
      <trkpt lat="45.76112" lon="6.98425">
        <ele>1086</ele>
        <time>2019-04-19T14:19:16Z</time>
      </trkpt>
      <trkpt lat="45.76076" lon="6.98452">
        <ele>1088</ele>
        <time>2019-04-19T14:20:16Z</time>
      </trkpt>
      <trkpt lat="45.76071" lon="6.98451">
        <ele>1090</ele>
        <time>2019-04-19T14:21:16Z</time>
      </trkpt>
      <trkpt lat="45.76068" lon="6.98448">
        <ele>1093</ele>
        <time>2019-04-19T14:22:16Z</time>
      </trkpt>
      <trkpt lat="45.76067" lon="6.98443">
        <ele>1095</ele>
        <time>2019-04-19T14:23:16Z</time>
      </trkpt>
      <trkpt lat="45.76068" lon="6.98438">
        <ele>1096</ele>
        <time>2019-04-19T14:24:16Z</time>
      </trkpt>
      <trkpt lat="45.7607" lon="6.98433">
        <ele>1097</ele>
        <time>2019-04-19T14:25:16Z</time>
      </trkpt>
      <trkpt lat="45.76101" lon="6.98421">
        <ele>1091</ele>
        <time>2019-04-19T14:26:16Z</time>
      </trkpt>
      <trkpt lat="45.7611" lon="6.9841">
        <ele>1091</ele>
        <time>2019-04-19T14:27:16Z</time>
      </trkpt>
      <trkpt lat="45.76122" lon="6.98369">
        <ele>1099</ele>
        <time>2019-04-19T14:28:16Z</time>
      </trkpt>
      <trkpt lat="45.7613" lon="6.98353">
        <ele>1101</ele>
        <time>2019-04-19T14:29:16Z</time>
      </trkpt>
      <trkpt lat="45.7616" lon="6.98329">
        <ele>1097</ele>
        <time>2019-04-19T14:30:16Z</time>
      </trkpt>
      <trkpt lat="45.76188" lon="6.98302">
        <ele>1095</ele>
        <time>2019-04-19T14:31:16Z</time>
      </trkpt>
      <trkpt lat="45.76194" lon="6.98292">
        <ele>1096</ele>
        <time>2019-04-19T14:32:16Z</time>
      </trkpt>
      <trkpt lat="45.76196" lon="6.98283">
        <ele>1098</ele>
        <time>2019-04-19T14:33:16Z</time>
      </trkpt>
      <trkpt lat="45.76194" lon="6.98279">
        <ele>1099</ele>
        <time>2019-04-19T14:34:16Z</time>
      </trkpt>
      <trkpt lat="45.76188" lon="6.98277">
        <ele>1101</ele>
        <time>2019-04-19T14:35:16Z</time>
      </trkpt>
      <trkpt lat="45.76154" lon="6.98313">
        <ele>1103</ele>
        <time>2019-04-19T14:36:16Z</time>
      </trkpt>
      <trkpt lat="45.76126" lon="6.98327">
        <ele>1109</ele>
        <time>2019-04-19T14:37:16Z</time>
      </trkpt>
      <trkpt lat="45.76117" lon="6.98337">
        <ele>1109</ele>
        <time>2019-04-19T14:38:16Z</time>
      </trkpt>
      <trkpt lat="45.76102" lon="6.98372">
        <ele>1104</ele>
        <time>2019-04-19T14:39:16Z</time>
      </trkpt>
      <trkpt lat="45.7609" lon="6.98388">
        <ele>1104</ele>
        <time>2019-04-19T14:40:16Z</time>
      </trkpt>
      <trkpt lat="45.76065" lon="6.98401">
        <ele>1109</ele>
        <time>2019-04-19T14:41:16Z</time>
      </trkpt>
      <trkpt lat="45.76061" lon="6.98402">
        <ele>1110</ele>
        <time>2019-04-19T14:42:16Z</time>
      </trkpt>
      <trkpt lat="45.76057" lon="6.984">
        <ele>1112</ele>
        <time>2019-04-19T14:43:16Z</time>
      </trkpt>
      <trkpt lat="45.76053" lon="6.98392">
        <ele>1115</ele>
        <time>2019-04-19T14:44:16Z</time>
      </trkpt>
      <trkpt lat="45.76054" lon="6.98383">
        <ele>1117</ele>
        <time>2019-04-19T14:45:16Z</time>
      </trkpt>
      <trkpt lat="45.76057" lon="6.98379">
        <ele>1117</ele>
        <time>2019-04-19T14:46:16Z</time>
      </trkpt>
      <trkpt lat="45.76085" lon="6.9837">
        <ele>1110</ele>
        <time>2019-04-19T14:47:16Z</time>
      </trkpt>
      <trkpt lat="45.76093" lon="6.98362">
        <ele>1110</ele>
        <time>2019-04-19T14:48:16Z</time>
      </trkpt>
      <trkpt lat="45.76107" lon="6.98313">
        <ele>1118</ele>
        <time>2019-04-19T14:49:16Z</time>
      </trkpt>
      <trkpt lat="45.7611" lon="6.98308">
        <ele>1118</ele>
        <time>2019-04-19T14:50:16Z</time>
      </trkpt>
      <trkpt lat="45.76146" lon="6.98275">
        <ele>1114</ele>
        <time>2019-04-19T14:51:16Z</time>
      </trkpt>
      <trkpt lat="45.76176" lon="6.98236">
        <ele>1117</ele>
        <time>2019-04-19T14:52:16Z</time>
      </trkpt>
      <trkpt lat="45.76177" lon="6.98227">
        <ele>1120</ele>
        <time>2019-04-19T14:53:16Z</time>
      </trkpt>
      <trkpt lat="45.76176" lon="6.98223">
        <ele>1122</ele>
        <time>2019-04-19T14:54:16Z</time>
      </trkpt>
      <trkpt lat="45.7617" lon="6.9822">
        <ele>1125</ele>
        <time>2019-04-19T14:55:16Z</time>
      </trkpt>
      <trkpt lat="45.7616" lon="6.98228">
        <ele>1125</ele>
        <time>2019-04-19T14:56:16Z</time>
      </trkpt>
      <trkpt lat="45.76153" lon="6.98239">
        <ele>1122</ele>
        <time>2019-04-19T14:57:16Z</time>
      </trkpt>
      <trkpt lat="45.76137" lon="6.98267">
        <ele>1119</ele>
        <time>2019-04-19T14:58:16Z</time>
      </trkpt>
      <trkpt lat="45.76133" lon="6.98271">
        <ele>1119</ele>
        <time>2019-04-19T14:59:16Z</time>
      </trkpt>
      <trkpt lat="45.76104" lon="6.98286">
        <ele>1126</ele>
        <time>2019-04-19T15:00:16Z</time>
      </trkpt>
      <trkpt lat="45.76096" lon="6.98294">
        <ele>1126</ele>
        <time>2019-04-19T15:01:16Z</time>
      </trkpt>
      <trkpt lat="45.76079" lon="6.98327">
        <ele>1124</ele>
        <time>2019-04-19T15:02:16Z</time>
      </trkpt>
      <trkpt lat="45.76071" lon="6.98332">
        <ele>1125</ele>
        <time>2019-04-19T15:03:16Z</time>
      </trkpt>
      <trkpt lat="45.76045" lon="6.98332">
        <ele>1131</ele>
        <time>2019-04-19T15:04:16Z</time>
      </trkpt>
      <trkpt lat="45.76" lon="6.98369">
        <ele>1137</ele>
        <time>2019-04-19T15:05:16Z</time>
      </trkpt>
      <trkpt lat="45.75993" lon="6.98388">
        <ele>1139</ele>
        <time>2019-04-19T15:06:16Z</time>
      </trkpt>
      <trkpt lat="45.75987" lon="6.98415">
        <ele>1138</ele>
        <time>2019-04-19T15:07:16Z</time>
      </trkpt>
      <trkpt lat="45.75982" lon="6.98459">
        <ele>1136</ele>
        <time>2019-04-19T15:08:16Z</time>
      </trkpt>
      <trkpt lat="45.75978" lon="6.98467">
        <ele>1138</ele>
        <time>2019-04-19T15:09:16Z</time>
      </trkpt>
      <trkpt lat="45.75975" lon="6.98468">
        <ele>1140</ele>
        <time>2019-04-19T15:10:16Z</time>
      </trkpt>
      <trkpt lat="45.75972" lon="6.98467">
        <ele>1142</ele>
        <time>2019-04-19T15:11:16Z</time>
      </trkpt>
      <trkpt lat="45.75968" lon="6.98458">
        <ele>1146</ele>
        <time>2019-04-19T15:12:16Z</time>
      </trkpt>
      <trkpt lat="45.75969" lon="6.98444">
        <ele>1147</ele>
        <time>2019-04-19T15:13:16Z</time>
      </trkpt>
      <trkpt lat="45.75973" lon="6.98424">
        <ele>1146</ele>
        <time>2019-04-19T15:14:16Z</time>
      </trkpt>
      <trkpt lat="45.76011" lon="6.98308">
        <ele>1146</ele>
        <time>2019-04-19T15:15:16Z</time>
      </trkpt>
      <trkpt lat="45.76014" lon="6.98301">
        <ele>1146</ele>
        <time>2019-04-19T15:16:16Z</time>
      </trkpt>
      <trkpt lat="45.76022" lon="6.98294">
        <ele>1146</ele>
        <time>2019-04-19T15:17:16Z</time>
      </trkpt>
      <trkpt lat="45.76065" lon="6.98273">
        <ele>1140</ele>
        <time>2019-04-19T15:18:16Z</time>
      </trkpt>
      <trkpt lat="45.76074" lon="6.98264">
        <ele>1140</ele>
        <time>2019-04-19T15:19:16Z</time>
      </trkpt>
      <trkpt lat="45.76095" lon="6.98231">
        <ele>1146</ele>
        <time>2019-04-19T15:20:16Z</time>
      </trkpt>
      <trkpt lat="45.76118" lon="6.98203">
        <ele>1150</ele>
        <time>2019-04-19T15:21:16Z</time>
      </trkpt>
      <trkpt lat="45.76145" lon="6.9819">
        <ele>1147</ele>
        <time>2019-04-19T15:22:16Z</time>
      </trkpt>
      <trkpt lat="45.7615" lon="6.98182">
        <ele>1148</ele>
        <time>2019-04-19T15:23:16Z</time>
      </trkpt>
      <trkpt lat="45.7615" lon="6.98176">
        <ele>1151</ele>
        <time>2019-04-19T15:24:16Z</time>
      </trkpt>
      <trkpt lat="45.76147" lon="6.98168">
        <ele>1155</ele>
        <time>2019-04-19T15:25:16Z</time>
      </trkpt>
      <trkpt lat="45.7614" lon="6.98167">
        <ele>1158</ele>
        <time>2019-04-19T15:26:16Z</time>
      </trkpt>
      <trkpt lat="45.76133" lon="6.98171">
        <ele>1159</ele>
        <time>2019-04-19T15:27:16Z</time>
      </trkpt>
      <trkpt lat="45.761" lon="6.98208">
        <ele>1154</ele>
        <time>2019-04-19T15:28:16Z</time>
      </trkpt>
      <trkpt lat="45.76065" lon="6.98233">
        <ele>1153</ele>
        <time>2019-04-19T15:29:16Z</time>
      </trkpt>
      <trkpt lat="45.75993" lon="6.9825">
        <ele>1164</ele>
        <time>2019-04-19T15:30:16Z</time>
      </trkpt>
      <trkpt lat="45.75988" lon="6.98253">
        <ele>1165</ele>
        <time>2019-04-19T15:31:16Z</time>
      </trkpt>
      <trkpt lat="45.75983" lon="6.9826">
        <ele>1165</ele>
        <time>2019-04-19T15:32:16Z</time>
      </trkpt>
      <trkpt lat="45.75959" lon="6.98293">
        <ele>1169</ele>
        <time>2019-04-19T15:33:16Z</time>
      </trkpt>
      <trkpt lat="45.75954" lon="6.98307">
        <ele>1169</ele>
        <time>2019-04-19T15:34:16Z</time>
      </trkpt>
      <trkpt lat="45.7594" lon="6.98401">
        <ele>1169</ele>
        <time>2019-04-19T15:35:16Z</time>
      </trkpt>
      <trkpt lat="45.75935" lon="6.98452">
        <ele>1169</ele>
        <time>2019-04-19T15:36:16Z</time>
      </trkpt>
      <trkpt lat="45.75931" lon="6.9846">
        <ele>1171</ele>
        <time>2019-04-19T15:37:16Z</time>
      </trkpt>
      <trkpt lat="45.75927" lon="6.98461">
        <ele>1173</ele>
        <time>2019-04-19T15:38:16Z</time>
      </trkpt>
      <trkpt lat="45.75922" lon="6.98451">
        <ele>1177</ele>
        <time>2019-04-19T15:39:16Z</time>
      </trkpt>
      <trkpt lat="45.75922" lon="6.98443">
        <ele>1178</ele>
        <time>2019-04-19T15:40:16Z</time>
      </trkpt>
      <trkpt lat="45.75937" lon="6.98326">
        <ele>1174</ele>
        <time>2019-04-19T15:41:16Z</time>
      </trkpt>
      <trkpt lat="45.75937" lon="6.98281">
        <ele>1180</ele>
        <time>2019-04-19T15:42:16Z</time>
      </trkpt>
      <trkpt lat="45.7594" lon="6.98267">
        <ele>1181</ele>
        <time>2019-04-19T15:43:16Z</time>
      </trkpt>
      <trkpt lat="45.75943" lon="6.98261">
        <ele>1181</ele>
        <time>2019-04-19T15:44:16Z</time>
      </trkpt>
      <trkpt lat="45.75978" lon="6.9822">
        <ele>1179</ele>
        <time>2019-04-19T15:45:16Z</time>
      </trkpt>
      <trkpt lat="45.76009" lon="6.98204">
        <ele>1176</ele>
        <time>2019-04-19T15:46:16Z</time>
      </trkpt>
      <trkpt lat="45.76038" lon="6.98195">
        <ele>1174</ele>
        <time>2019-04-19T15:47:16Z</time>
      </trkpt>
      <trkpt lat="45.76042" lon="6.98188">
        <ele>1177</ele>
        <time>2019-04-19T15:48:16Z</time>
      </trkpt>
      <trkpt lat="45.76041" lon="6.9818">
        <ele>1180</ele>
        <time>2019-04-19T15:49:16Z</time>
      </trkpt>
      <trkpt lat="45.76039" lon="6.98177">
        <ele>1182</ele>
        <time>2019-04-19T15:50:16Z</time>
      </trkpt>
      <trkpt lat="45.76033" lon="6.98176">
        <ele>1183</ele>
        <time>2019-04-19T15:51:16Z</time>
      </trkpt>
      <trkpt lat="45.76009" lon="6.98192">
        <ele>1181</ele>
        <time>2019-04-19T15:52:16Z</time>
      </trkpt>
      <trkpt lat="45.75977" lon="6.98199">
        <ele>1187</ele>
        <time>2019-04-19T15:53:16Z</time>
      </trkpt>
      <trkpt lat="45.75933" lon="6.9823">
        <ele>1191</ele>
        <time>2019-04-19T15:54:16Z</time>
      </trkpt>
      <trkpt lat="45.75926" lon="6.98236">
        <ele>1192</ele>
        <time>2019-04-19T15:55:16Z</time>
      </trkpt>
      <trkpt lat="45.75921" lon="6.98245">
        <ele>1192</ele>
        <time>2019-04-19T15:56:16Z</time>
      </trkpt>
      <trkpt lat="45.75917" lon="6.98254">
        <ele>1191</ele>
        <time>2019-04-19T15:57:16Z</time>
      </trkpt>
      <trkpt lat="45.75908" lon="6.98297">
        <ele>1191</ele>
        <time>2019-04-19T15:58:16Z</time>
      </trkpt>
      <trkpt lat="45.75905" lon="6.98308">
        <ele>1191</ele>
        <time>2019-04-19T15:59:16Z</time>
      </trkpt>
      <trkpt lat="45.75895" lon="6.98323">
        <ele>1194</ele>
        <time>2019-04-19T16:00:16Z</time>
      </trkpt>
      <trkpt lat="45.7589" lon="6.98329">
        <ele>1195</ele>
        <time>2019-04-19T16:01:16Z</time>
      </trkpt>
      <trkpt lat="45.75748" lon="6.98394">
        <ele>1176</ele>
        <time>2019-04-19T16:02:16Z</time>
      </trkpt>
      <trkpt lat="45.75743" lon="6.98396">
        <ele>1174</ele>
        <time>2019-04-19T16:03:16Z</time>
      </trkpt>
      <trkpt lat="45.75726" lon="6.98395">
        <ele>1174</ele>
        <time>2019-04-19T16:04:16Z</time>
      </trkpt>
      <trkpt lat="45.75711" lon="6.98384">
        <ele>1179</ele>
        <time>2019-04-19T16:05:16Z</time>
      </trkpt>
      <trkpt lat="45.757" lon="6.98368">
        <ele>1187</ele>
        <time>2019-04-19T16:06:16Z</time>
      </trkpt>
      <trkpt lat="45.75665" lon="6.98303">
        <ele>1204</ele>
        <time>2019-04-19T16:07:16Z</time>
      </trkpt>
      <trkpt lat="45.75653" lon="6.98285">
        <ele>1207</ele>
        <time>2019-04-19T16:08:16Z</time>
      </trkpt>
      <trkpt lat="45.7564" lon="6.98275">
        <ele>1206</ele>
        <time>2019-04-19T16:09:16Z</time>
      </trkpt>
      <trkpt lat="45.75607" lon="6.98267">
        <ele>1199</ele>
        <time>2019-04-19T16:10:16Z</time>
      </trkpt>
      <trkpt lat="45.756" lon="6.98261">
        <ele>1198</ele>
        <time>2019-04-19T16:11:16Z</time>
      </trkpt>
      <trkpt lat="45.75594" lon="6.98253">
        <ele>1197</ele>
        <time>2019-04-19T16:12:16Z</time>
      </trkpt>
      <trkpt lat="45.75586" lon="6.98238">
        <ele>1198</ele>
        <time>2019-04-19T16:13:16Z</time>
      </trkpt>
      <trkpt lat="45.75531" lon="6.98101">
        <ele>1207</ele>
        <time>2019-04-19T16:14:16Z</time>
      </trkpt>
      <trkpt lat="45.7549" lon="6.98006">
        <ele>1214</ele>
        <time>2019-04-19T16:15:16Z</time>
      </trkpt>
      <trkpt lat="45.75473" lon="6.97981">
        <ele>1219</ele>
        <time>2019-04-19T16:16:16Z</time>
      </trkpt>
      <trkpt lat="45.75459" lon="6.9797">
        <ele>1219</ele>
        <time>2019-04-19T16:17:16Z</time>
      </trkpt>
      <trkpt lat="45.75437" lon="6.9796">
        <ele>1214</ele>
        <time>2019-04-19T16:18:16Z</time>
      </trkpt>
      <trkpt lat="45.75428" lon="6.97953">
        <ele>1212</ele>
        <time>2019-04-19T16:19:16Z</time>
      </trkpt>
      <trkpt lat="45.7541" lon="6.97929">
        <ele>1213</ele>
        <time>2019-04-19T16:20:16Z</time>
      </trkpt>
      <trkpt lat="45.7539" lon="6.9789">
        <ele>1220</ele>
        <time>2019-04-19T16:21:16Z</time>
      </trkpt>
      <trkpt lat="45.75371" lon="6.97861">
        <ele>1221</ele>
        <time>2019-04-19T16:22:16Z</time>
      </trkpt>
      <trkpt lat="45.75234" lon="6.97701">
        <ele>1224</ele>
        <time>2019-04-19T16:23:16Z</time>
      </trkpt>
      <trkpt lat="45.75157" lon="6.97568">
        <ele>1227</ele>
        <time>2019-04-19T16:24:16Z</time>
      </trkpt>
      <trkpt lat="45.75111" lon="6.97504">
        <ele>1230</ele>
        <time>2019-04-19T16:25:16Z</time>
      </trkpt>
      <trkpt lat="45.75082" lon="6.97439">
        <ele>1232</ele>
        <time>2019-04-19T16:26:16Z</time>
      </trkpt>
      <trkpt lat="45.75045" lon="6.97384">
        <ele>1231</ele>
        <time>2019-04-19T16:27:16Z</time>
      </trkpt>
      <trkpt lat="45.75037" lon="6.97366">
        <ele>1231</ele>
        <time>2019-04-19T16:28:16Z</time>
      </trkpt>
      <trkpt lat="45.75026" lon="6.97323">
        <ele>1234</ele>
        <time>2019-04-19T16:29:16Z</time>
      </trkpt>
      <trkpt lat="45.75012" lon="6.97285">
        <ele>1238</ele>
        <time>2019-04-19T16:30:16Z</time>
      </trkpt>
      <trkpt lat="45.75003" lon="6.9727">
        <ele>1237</ele>
        <time>2019-04-19T16:31:16Z</time>
      </trkpt>
      <trkpt lat="45.74979" lon="6.9724">
        <ele>1241</ele>
        <time>2019-04-19T16:32:16Z</time>
      </trkpt>
      <trkpt lat="45.74964" lon="6.97224">
        <ele>1243</ele>
        <time>2019-04-19T16:33:16Z</time>
      </trkpt>
      <trkpt lat="45.74947" lon="6.97215">
        <ele>1243</ele>
        <time>2019-04-19T16:34:16Z</time>
      </trkpt>
      <trkpt lat="45.74909" lon="6.97206">
        <ele>1240</ele>
        <time>2019-04-19T16:35:16Z</time>
      </trkpt>
      <trkpt lat="45.74892" lon="6.972">
        <ele>1244</ele>
        <time>2019-04-19T16:36:16Z</time>
      </trkpt>
      <trkpt lat="45.74871" lon="6.97186">
        <ele>1248</ele>
        <time>2019-04-19T16:37:16Z</time>
      </trkpt>
      <trkpt lat="45.74845" lon="6.97159">
        <ele>1251</ele>
        <time>2019-04-19T16:38:16Z</time>
      </trkpt>
      <trkpt lat="45.74781" lon="6.9709">
        <ele>1259</ele>
        <time>2019-04-19T16:39:16Z</time>
      </trkpt>
      <trkpt lat="45.74759" lon="6.97058">
        <ele>1260</ele>
        <time>2019-04-19T16:40:16Z</time>
      </trkpt>
      <trkpt lat="45.74694" lon="6.96945">
        <ele>1269</ele>
        <time>2019-04-19T16:41:16Z</time>
      </trkpt>
      <trkpt lat="45.74679" lon="6.96923">
        <ele>1267</ele>
        <time>2019-04-19T16:42:16Z</time>
      </trkpt>
      <trkpt lat="45.74661" lon="6.96902">
        <ele>1268</ele>
        <time>2019-04-19T16:43:16Z</time>
      </trkpt>
      <trkpt lat="45.7464" lon="6.96884">
        <ele>1270</ele>
        <time>2019-04-19T16:44:16Z</time>
      </trkpt>
      <trkpt lat="45.74508" lon="6.96791">
        <ele>1274</ele>
        <time>2019-04-19T16:45:16Z</time>
      </trkpt>
      <trkpt lat="45.74497" lon="6.96785">
        <ele>1274</ele>
        <time>2019-04-19T16:46:16Z</time>
      </trkpt>
      <trkpt lat="45.74413" lon="6.96762">
        <ele>1271</ele>
        <time>2019-04-19T16:47:16Z</time>
      </trkpt>
      <trkpt lat="45.74391" lon="6.96747">
        <ele>1272</ele>
        <time>2019-04-19T16:48:16Z</time>
      </trkpt>
      <trkpt lat="45.74364" lon="6.96717">
        <ele>1274</ele>
        <time>2019-04-19T16:49:16Z</time>
      </trkpt>
      <trkpt lat="45.7434" lon="6.9668">
        <ele>1273</ele>
        <time>2019-04-19T16:50:16Z</time>
      </trkpt>
      <trkpt lat="45.74329" lon="6.96655">
        <ele>1274</ele>
        <time>2019-04-19T16:51:16Z</time>
      </trkpt>
      <trkpt lat="45.7432" lon="6.96622">
        <ele>1278</ele>
        <time>2019-04-19T16:52:16Z</time>
      </trkpt>
      <trkpt lat="45.74312" lon="6.96603">
        <ele>1280</ele>
        <time>2019-04-19T16:53:16Z</time>
      </trkpt>
      <trkpt lat="45.74287" lon="6.96557">
        <ele>1284</ele>
        <time>2019-04-19T16:54:16Z</time>
      </trkpt>
      <trkpt lat="45.74261" lon="6.96524">
        <ele>1287</ele>
        <time>2019-04-19T16:55:16Z</time>
      </trkpt>
      <trkpt lat="45.74204" lon="6.9647">
        <ele>1293</ele>
        <time>2019-04-19T16:56:16Z</time>
      </trkpt>
      <trkpt lat="45.7418" lon="6.96442">
        <ele>1295</ele>
        <time>2019-04-19T16:57:16Z</time>
      </trkpt>
      <trkpt lat="45.74144" lon="6.96408">
        <ele>1295</ele>
        <time>2019-04-19T16:58:16Z</time>
      </trkpt>
      <trkpt lat="45.74113" lon="6.96384">
        <ele>1297</ele>
        <time>2019-04-19T16:59:16Z</time>
      </trkpt>
      <trkpt lat="45.74065" lon="6.9636">
        <ele>1296</ele>
        <time>2019-04-19T17:00:16Z</time>
      </trkpt>
      <trkpt lat="45.73966" lon="6.9632">
        <ele>1303</ele>
        <time>2019-04-19T17:01:16Z</time>
      </trkpt>
      <trkpt lat="45.73953" lon="6.96307">
        <ele>1306</ele>
        <time>2019-04-19T17:02:16Z</time>
      </trkpt>
      <trkpt lat="45.7394" lon="6.96282">
        <ele>1307</ele>
        <time>2019-04-19T17:03:16Z</time>
      </trkpt>
      <trkpt lat="45.73903" lon="6.96186">
        <ele>1311</ele>
        <time>2019-04-19T17:04:16Z</time>
      </trkpt>
      <trkpt lat="45.73894" lon="6.96173">
        <ele>1311</ele>
        <time>2019-04-19T17:05:16Z</time>
      </trkpt>
      <trkpt lat="45.73838" lon="6.96111">
        <ele>1312</ele>
        <time>2019-04-19T17:06:16Z</time>
      </trkpt>
      <trkpt lat="45.73775" lon="6.9603">
        <ele>1326</ele>
        <time>2019-04-19T17:07:16Z</time>
      </trkpt>
      <trkpt lat="45.73758" lon="6.96011">
        <ele>1326</ele>
        <time>2019-04-19T17:08:16Z</time>
      </trkpt>
      <trkpt lat="45.73746" lon="6.96003">
        <ele>1325</ele>
        <time>2019-04-19T17:09:16Z</time>
      </trkpt>
      <trkpt lat="45.73734" lon="6.95997">
        <ele>1325</ele>
        <time>2019-04-19T17:10:16Z</time>
      </trkpt>
      <trkpt lat="45.73724" lon="6.95996">
        <ele>1325</ele>
        <time>2019-04-19T17:11:16Z</time>
      </trkpt>
      <trkpt lat="45.73713" lon="6.95998">
        <ele>1322</ele>
        <time>2019-04-19T17:12:16Z</time>
      </trkpt>
      <trkpt lat="45.73679" lon="6.96017">
        <ele>1316</ele>
        <time>2019-04-19T17:13:16Z</time>
      </trkpt>
      <trkpt lat="45.7367" lon="6.9602">
        <ele>1315</ele>
        <time>2019-04-19T17:14:16Z</time>
      </trkpt>
      <trkpt lat="45.73661" lon="6.9602">
        <ele>1314</ele>
        <time>2019-04-19T17:15:16Z</time>
      </trkpt>
      <trkpt lat="45.73646" lon="6.96015">
        <ele>1314</ele>
        <time>2019-04-19T17:16:16Z</time>
      </trkpt>
      <trkpt lat="45.73599" lon="6.95984">
        <ele>1318</ele>
        <time>2019-04-19T17:17:16Z</time>
      </trkpt>
      <trkpt lat="45.73588" lon="6.9598">
        <ele>1318</ele>
        <time>2019-04-19T17:18:16Z</time>
      </trkpt>
      <trkpt lat="45.73523" lon="6.95967">
        <ele>1316</ele>
        <time>2019-04-19T17:19:16Z</time>
      </trkpt>
      <trkpt lat="45.73513" lon="6.95976">
        <ele>1314</ele>
        <time>2019-04-19T17:20:16Z</time>
      </trkpt>
      <trkpt lat="45.7351" lon="6.95982">
        <ele>1313</ele>
        <time>2019-04-19T17:21:16Z</time>
      </trkpt>
      <trkpt lat="45.73501" lon="6.96028">
        <ele>1313</ele>
        <time>2019-04-19T17:22:16Z</time>
      </trkpt>
      <trkpt lat="45.73498" lon="6.96046">
        <ele>1315</ele>
        <time>2019-04-19T17:23:16Z</time>
      </trkpt>
      <trkpt lat="45.73499" lon="6.96055">
        <ele>1316</ele>
        <time>2019-04-19T17:24:16Z</time>
      </trkpt>
      <trkpt lat="45.73502" lon="6.96064">
        <ele>1317</ele>
        <time>2019-04-19T17:25:16Z</time>
      </trkpt>
      <trkpt lat="45.73507" lon="6.96072">
        <ele>1317</ele>
        <time>2019-04-19T17:26:16Z</time>
      </trkpt>
      <trkpt lat="45.73518" lon="6.96081">
        <ele>1317</ele>
        <time>2019-04-19T17:27:16Z</time>
      </trkpt>
      <trkpt lat="45.73535" lon="6.9609">
        <ele>1319</ele>
        <time>2019-04-19T17:28:16Z</time>
      </trkpt>
      <trkpt lat="45.73564" lon="6.96099">
        <ele>1319</ele>
        <time>2019-04-19T17:29:16Z</time>
      </trkpt>
      <trkpt lat="45.73576" lon="6.96107">
        <ele>1320</ele>
        <time>2019-04-19T17:30:16Z</time>
      </trkpt>
      <trkpt lat="45.73579" lon="6.96115">
        <ele>1322</ele>
        <time>2019-04-19T17:31:16Z</time>
      </trkpt>
      <trkpt lat="45.73579" lon="6.96124">
        <ele>1325</ele>
        <time>2019-04-19T17:32:16Z</time>
      </trkpt>
      <trkpt lat="45.73576" lon="6.96132">
        <ele>1328</ele>
        <time>2019-04-19T17:33:16Z</time>
      </trkpt>
      <trkpt lat="45.73572" lon="6.96136">
        <ele>1330</ele>
        <time>2019-04-19T17:34:16Z</time>
      </trkpt>
      <trkpt lat="45.73566" lon="6.96138">
        <ele>1331</ele>
        <time>2019-04-19T17:35:16Z</time>
      </trkpt>
      <trkpt lat="45.73561" lon="6.96136">
        <ele>1332</ele>
        <time>2019-04-19T17:36:16Z</time>
      </trkpt>
      <trkpt lat="45.73537" lon="6.96115">
        <ele>1328</ele>
        <time>2019-04-19T17:37:16Z</time>
      </trkpt>
      <trkpt lat="45.73519" lon="6.96105">
        <ele>1326</ele>
        <time>2019-04-19T17:38:16Z</time>
      </trkpt>
      <trkpt lat="45.73465" lon="6.96086">
        <ele>1330</ele>
        <time>2019-04-19T17:39:16Z</time>
      </trkpt>
      <trkpt lat="45.73414" lon="6.96052">
        <ele>1334</ele>
        <time>2019-04-19T17:40:16Z</time>
      </trkpt>
      <trkpt lat="45.73312" lon="6.96008">
        <ele>1335</ele>
        <time>2019-04-19T17:41:16Z</time>
      </trkpt>
      <trkpt lat="45.73292" lon="6.96003">
        <ele>1337</ele>
        <time>2019-04-19T17:42:16Z</time>
      </trkpt>
      <trkpt lat="45.73262" lon="6.96002">
        <ele>1341</ele>
        <time>2019-04-19T17:43:16Z</time>
      </trkpt>
      <trkpt lat="45.73254" lon="6.95998">
        <ele>1341</ele>
        <time>2019-04-19T17:44:16Z</time>
      </trkpt>
      <trkpt lat="45.73207" lon="6.95959">
        <ele>1344</ele>
        <time>2019-04-19T17:45:16Z</time>
      </trkpt>
      <trkpt lat="45.73196" lon="6.95953">
        <ele>1345</ele>
        <time>2019-04-19T17:46:16Z</time>
      </trkpt>
      <trkpt lat="45.73185" lon="6.95949">
        <ele>1346</ele>
        <time>2019-04-19T17:47:16Z</time>
      </trkpt>
      <trkpt lat="45.73159" lon="6.95947">
        <ele>1350</ele>
        <time>2019-04-19T17:48:16Z</time>
      </trkpt>
      <trkpt lat="45.73139" lon="6.95939">
        <ele>1353</ele>
        <time>2019-04-19T17:49:16Z</time>
      </trkpt>
      <trkpt lat="45.73062" lon="6.95885">
        <ele>1360</ele>
        <time>2019-04-19T17:50:16Z</time>
      </trkpt>
      <trkpt lat="45.73045" lon="6.95872">
        <ele>1364</ele>
        <time>2019-04-19T17:51:16Z</time>
      </trkpt>
      <trkpt lat="45.73031" lon="6.95858">
        <ele>1366</ele>
        <time>2019-04-19T17:52:16Z</time>
      </trkpt>
      <trkpt lat="45.72973" lon="6.95796">
        <ele>1370</ele>
        <time>2019-04-19T17:53:16Z</time>
      </trkpt>
      <trkpt lat="45.72922" lon="6.95717">
        <ele>1371</ele>
        <time>2019-04-19T17:54:16Z</time>
      </trkpt>
      <trkpt lat="45.72918" lon="6.95705">
        <ele>1371</ele>
        <time>2019-04-19T17:55:16Z</time>
      </trkpt>
      <trkpt lat="45.72912" lon="6.95654">
        <ele>1366</ele>
        <time>2019-04-19T17:56:16Z</time>
      </trkpt>
      <trkpt lat="45.72906" lon="6.95628">
        <ele>1364</ele>
        <time>2019-04-19T17:57:16Z</time>
      </trkpt>
      <trkpt lat="45.72888" lon="6.95588">
        <ele>1366</ele>
        <time>2019-04-19T17:58:16Z</time>
      </trkpt>
      <trkpt lat="45.72885" lon="6.95587">
        <ele>1368</ele>
        <time>2019-04-19T17:59:16Z</time>
      </trkpt>
      <trkpt lat="45.7288" lon="6.95593">
        <ele>1372</ele>
        <time>2019-04-19T18:00:16Z</time>
      </trkpt>
      <trkpt lat="45.72879" lon="6.95606">
        <ele>1375</ele>
        <time>2019-04-19T18:01:16Z</time>
      </trkpt>
      <trkpt lat="45.72884" lon="6.95651">
        <ele>1382</ele>
        <time>2019-04-19T18:02:16Z</time>
      </trkpt>
      <trkpt lat="45.72886" lon="6.9572">
        <ele>1391</ele>
        <time>2019-04-19T18:03:16Z</time>
      </trkpt>
      <trkpt lat="45.72891" lon="6.95743">
        <ele>1392</ele>
        <time>2019-04-19T18:04:16Z</time>
      </trkpt>
      <trkpt lat="45.72895" lon="6.95753">
        <ele>1391</ele>
        <time>2019-04-19T18:05:16Z</time>
      </trkpt>
      <trkpt lat="45.72913" lon="6.95783">
        <ele>1389</ele>
        <time>2019-04-19T18:06:16Z</time>
      </trkpt>
      <trkpt lat="45.72917" lon="6.95794">
        <ele>1391</ele>
        <time>2019-04-19T18:07:16Z</time>
      </trkpt>
      <trkpt lat="45.72915" lon="6.95801">
        <ele>1394</ele>
        <time>2019-04-19T18:08:16Z</time>
      </trkpt>
      <trkpt lat="45.72913" lon="6.95804">
        <ele>1395</ele>
        <time>2019-04-19T18:09:16Z</time>
      </trkpt>
      <trkpt lat="45.72909" lon="6.95806">
        <ele>1398</ele>
        <time>2019-04-19T18:10:16Z</time>
      </trkpt>
      <trkpt lat="45.72903" lon="6.95803">
        <ele>1400</ele>
        <time>2019-04-19T18:11:16Z</time>
      </trkpt>
      <trkpt lat="45.72887" lon="6.95778">
        <ele>1402</ele>
        <time>2019-04-19T18:12:16Z</time>
      </trkpt>
      <trkpt lat="45.7287" lon="6.9574">
        <ele>1403</ele>
        <time>2019-04-19T18:13:16Z</time>
      </trkpt>
      <trkpt lat="45.72853" lon="6.95673">
        <ele>1404</ele>
        <time>2019-04-19T18:14:16Z</time>
      </trkpt>
      <trkpt lat="45.72826" lon="6.95552">
        <ele>1391</ele>
        <time>2019-04-19T18:15:16Z</time>
      </trkpt>
      <trkpt lat="45.72819" lon="6.95525">
        <ele>1389</ele>
        <time>2019-04-19T18:16:16Z</time>
      </trkpt>
      <trkpt lat="45.72811" lon="6.95509">
        <ele>1390</ele>
        <time>2019-04-19T18:17:16Z</time>
      </trkpt>
      <trkpt lat="45.72799" lon="6.95491">
        <ele>1394</ele>
        <time>2019-04-19T18:18:16Z</time>
      </trkpt>
      <trkpt lat="45.72746" lon="6.95423">
        <ele>1406</ele>
        <time>2019-04-19T18:19:16Z</time>
      </trkpt>
      <trkpt lat="45.72712" lon="6.9539">
        <ele>1412</ele>
        <time>2019-04-19T18:20:16Z</time>
      </trkpt>
      <trkpt lat="45.72691" lon="6.95366">
        <ele>1415</ele>
        <time>2019-04-19T18:21:16Z</time>
      </trkpt>
      <trkpt lat="45.72552" lon="6.95163">
        <ele>1424</ele>
        <time>2019-04-19T18:22:16Z</time>
      </trkpt>
      <trkpt lat="45.72233" lon="6.94753">
        <ele>1474</ele>
        <time>2019-04-19T18:23:16Z</time>
      </trkpt>
      <trkpt lat="45.72222" lon="6.94743">
        <ele>1467</ele>
        <time>2019-04-19T18:24:16Z</time>
      </trkpt>
      <trkpt lat="45.72207" lon="6.94733">
        <ele>1463</ele>
        <time>2019-04-19T18:25:16Z</time>
      </trkpt>
      <trkpt lat="45.72194" lon="6.9473">
        <ele>1462</ele>
        <time>2019-04-19T18:26:16Z</time>
      </trkpt>
      <trkpt lat="45.72031" lon="6.94767">
        <ele>1453</ele>
        <time>2019-04-19T18:27:16Z</time>
      </trkpt>
      <trkpt lat="45.72023" lon="6.94766">
        <ele>1451</ele>
        <time>2019-04-19T18:28:16Z</time>
      </trkpt>
      <trkpt lat="45.71876" lon="6.9472">
        <ele>1440</ele>
        <time>2019-04-19T18:29:16Z</time>
      </trkpt>
      <trkpt lat="45.71867" lon="6.9472">
        <ele>1440</ele>
        <time>2019-04-19T18:30:16Z</time>
      </trkpt>
      <trkpt lat="45.71855" lon="6.94722">
        <ele>1441</ele>
        <time>2019-04-19T18:31:16Z</time>
      </trkpt>
      <trkpt lat="45.71788" lon="6.94762">
        <ele>1444</ele>
        <time>2019-04-19T18:32:16Z</time>
      </trkpt>
      <trkpt lat="45.7169" lon="6.94869">
        <ele>1452</ele>
        <time>2019-04-19T18:33:16Z</time>
      </trkpt>
      <trkpt lat="45.71676" lon="6.94882">
        <ele>1453</ele>
        <time>2019-04-19T18:34:16Z</time>
      </trkpt>
      <trkpt lat="45.71669" lon="6.94883">
        <ele>1452</ele>
        <time>2019-04-19T18:35:16Z</time>
      </trkpt>
      <trkpt lat="45.71664" lon="6.9488">
        <ele>1452</ele>
        <time>2019-04-19T18:36:16Z</time>
      </trkpt>
      <trkpt lat="45.7166" lon="6.94871">
        <ele>1452</ele>
        <time>2019-04-19T18:37:16Z</time>
      </trkpt>
      <trkpt lat="45.7165" lon="6.94818">
        <ele>1451</ele>
        <time>2019-04-19T18:38:16Z</time>
      </trkpt>
    </trkseg>
  </trk>
  <trk>
    <name><![CDATA[J9]]></name>
    <trkseg>
      <trkpt lat="45.62249" lon="6.78547">
        <ele>820</ele>
        <time>2019-04-17T10:46:40Z</time>
      </trkpt>
      <trkpt lat="45.62201" lon="6.78685">
        <ele>821</ele>
        <time>2019-04-17T10:47:40Z</time>
      </trkpt>
      <trkpt lat="45.62171" lon="6.78767">
        <ele>823</ele>
        <time>2019-04-17T10:48:40Z</time>
      </trkpt>
      <trkpt lat="45.62155" lon="6.78798">
        <ele>822</ele>
        <time>2019-04-17T10:49:40Z</time>
      </trkpt>
      <trkpt lat="45.62144" lon="6.78817">
        <ele>821</ele>
        <time>2019-04-17T10:50:40Z</time>
      </trkpt>
      <trkpt lat="45.62112" lon="6.78852">
        <ele>820</ele>
        <time>2019-04-17T10:51:40Z</time>
      </trkpt>
      <trkpt lat="45.62085" lon="6.78868">
        <ele>818</ele>
        <time>2019-04-17T10:52:40Z</time>
      </trkpt>
      <trkpt lat="45.62043" lon="6.78886">
        <ele>816</ele>
        <time>2019-04-17T10:53:40Z</time>
      </trkpt>
      <trkpt lat="45.62023" lon="6.78891">
        <ele>815</ele>
        <time>2019-04-17T10:54:40Z</time>
      </trkpt>
      <trkpt lat="45.62025" lon="6.78899">
        <ele>815</ele>
        <time>2019-04-17T10:55:40Z</time>
      </trkpt>
      <trkpt lat="45.62098" lon="6.79103">
        <ele>822</ele>
        <time>2019-04-17T10:56:40Z</time>
      </trkpt>
      <trkpt lat="45.6211" lon="6.79157">
        <ele>826</ele>
        <time>2019-04-17T10:57:40Z</time>
      </trkpt>
      <trkpt lat="45.62109" lon="6.7919">
        <ele>828</ele>
        <time>2019-04-17T10:58:40Z</time>
      </trkpt>
      <trkpt lat="45.62084" lon="6.7928">
        <ele>834</ele>
        <time>2019-04-17T10:59:40Z</time>
      </trkpt>
      <trkpt lat="45.62029" lon="6.79468">
        <ele>834</ele>
        <time>2019-04-17T11:00:40Z</time>
      </trkpt>
      <trkpt lat="45.62027" lon="6.79484">
        <ele>835</ele>
        <time>2019-04-17T11:01:40Z</time>
      </trkpt>
      <trkpt lat="45.62028" lon="6.79504">
        <ele>837</ele>
        <time>2019-04-17T11:02:40Z</time>
      </trkpt>
      <trkpt lat="45.62035" lon="6.79517">
        <ele>839</ele>
        <time>2019-04-17T11:03:40Z</time>
      </trkpt>
      <trkpt lat="45.62044" lon="6.7953">
        <ele>841</ele>
        <time>2019-04-17T11:04:40Z</time>
      </trkpt>
      <trkpt lat="45.62056" lon="6.79533">
        <ele>842</ele>
        <time>2019-04-17T11:05:40Z</time>
      </trkpt>
      <trkpt lat="45.62123" lon="6.79523">
        <ele>847</ele>
        <time>2019-04-17T11:06:40Z</time>
      </trkpt>
      <trkpt lat="45.62345" lon="6.79481">
        <ele>858</ele>
        <time>2019-04-17T11:07:40Z</time>
      </trkpt>
      <trkpt lat="45.62375" lon="6.79537">
        <ele>864</ele>
        <time>2019-04-17T11:08:40Z</time>
      </trkpt>
      <trkpt lat="45.6238" lon="6.79549">
        <ele>865</ele>
        <time>2019-04-17T11:09:40Z</time>
      </trkpt>
      <trkpt lat="45.62383" lon="6.79565">
        <ele>867</ele>
        <time>2019-04-17T11:10:40Z</time>
      </trkpt>
      <trkpt lat="45.62387" lon="6.79609">
        <ele>870</ele>
        <time>2019-04-17T11:11:40Z</time>
      </trkpt>
      <trkpt lat="45.62397" lon="6.79708">
        <ele>878</ele>
        <time>2019-04-17T11:12:40Z</time>
      </trkpt>
      <trkpt lat="45.62401" lon="6.79712">
        <ele>879</ele>
        <time>2019-04-17T11:13:40Z</time>
      </trkpt>
      <trkpt lat="45.62339" lon="6.79844">
        <ele>886</ele>
        <time>2019-04-17T11:14:40Z</time>
      </trkpt>
      <trkpt lat="45.62321" lon="6.79879">
        <ele>887</ele>
        <time>2019-04-17T11:15:40Z</time>
      </trkpt>
      <trkpt lat="45.62294" lon="6.79945">
        <ele>891</ele>
        <time>2019-04-17T11:16:40Z</time>
      </trkpt>
      <trkpt lat="45.62286" lon="6.7996">
        <ele>892</ele>
        <time>2019-04-17T11:17:40Z</time>
      </trkpt>
      <trkpt lat="45.62274" lon="6.79975">
        <ele>892</ele>
        <time>2019-04-17T11:18:40Z</time>
      </trkpt>
      <trkpt lat="45.62233" lon="6.80031">
        <ele>893</ele>
        <time>2019-04-17T11:19:40Z</time>
      </trkpt>
      <trkpt lat="45.62225" lon="6.80043">
        <ele>893</ele>
        <time>2019-04-17T11:20:40Z</time>
      </trkpt>
      <trkpt lat="45.62208" lon="6.80076">
        <ele>894</ele>
        <time>2019-04-17T11:21:40Z</time>
      </trkpt>
      <trkpt lat="45.62198" lon="6.80102">
        <ele>895</ele>
        <time>2019-04-17T11:22:40Z</time>
      </trkpt>
      <trkpt lat="45.62182" lon="6.8015">
        <ele>896</ele>
        <time>2019-04-17T11:23:40Z</time>
      </trkpt>
      <trkpt lat="45.62178" lon="6.80148">
        <ele>896</ele>
        <time>2019-04-17T11:24:40Z</time>
      </trkpt>
      <trkpt lat="45.6217" lon="6.80149">
        <ele>895</ele>
        <time>2019-04-17T11:25:40Z</time>
      </trkpt>
      <trkpt lat="45.62165" lon="6.80158">
        <ele>895</ele>
        <time>2019-04-17T11:26:40Z</time>
      </trkpt>
      <trkpt lat="45.62165" lon="6.80165">
        <ele>896</ele>
        <time>2019-04-17T11:27:40Z</time>
      </trkpt>
      <trkpt lat="45.62158" lon="6.8017">
        <ele>896</ele>
        <time>2019-04-17T11:28:40Z</time>
      </trkpt>
      <trkpt lat="45.6214" lon="6.80191">
        <ele>895</ele>
        <time>2019-04-17T11:29:40Z</time>
      </trkpt>
      <trkpt lat="45.62093" lon="6.80232">
        <ele>894</ele>
        <time>2019-04-17T11:30:40Z</time>
      </trkpt>
      <trkpt lat="45.62055" lon="6.80273">
        <ele>894</ele>
        <time>2019-04-17T11:31:40Z</time>
      </trkpt>
      <trkpt lat="45.62043" lon="6.80281">
        <ele>893</ele>
        <time>2019-04-17T11:32:40Z</time>
      </trkpt>
      <trkpt lat="45.62034" lon="6.80292">
        <ele>893</ele>
        <time>2019-04-17T11:33:40Z</time>
      </trkpt>
      <trkpt lat="45.61986" lon="6.80365">
        <ele>892</ele>
        <time>2019-04-17T11:34:40Z</time>
      </trkpt>
      <trkpt lat="45.61968" lon="6.80397">
        <ele>890</ele>
        <time>2019-04-17T11:35:40Z</time>
      </trkpt>
      <trkpt lat="45.6194" lon="6.80461">
        <ele>887</ele>
        <time>2019-04-17T11:36:40Z</time>
      </trkpt>
      <trkpt lat="45.61836" lon="6.80709">
        <ele>882</ele>
        <time>2019-04-17T11:37:40Z</time>
      </trkpt>
      <trkpt lat="45.61801" lon="6.80796">
        <ele>881</ele>
        <time>2019-04-17T11:38:40Z</time>
      </trkpt>
      <trkpt lat="45.61785" lon="6.8086">
        <ele>880</ele>
        <time>2019-04-17T11:39:40Z</time>
      </trkpt>
      <trkpt lat="45.61762" lon="6.81034">
        <ele>878</ele>
        <time>2019-04-17T11:40:40Z</time>
      </trkpt>
      <trkpt lat="45.6173" lon="6.81234">
        <ele>873</ele>
        <time>2019-04-17T11:41:40Z</time>
      </trkpt>
      <trkpt lat="45.61701" lon="6.81637">
        <ele>863</ele>
        <time>2019-04-17T11:42:40Z</time>
      </trkpt>
      <trkpt lat="45.61697" lon="6.81664">
        <ele>863</ele>
        <time>2019-04-17T11:43:40Z</time>
      </trkpt>
      <trkpt lat="45.61681" lon="6.81725">
        <ele>865</ele>
        <time>2019-04-17T11:44:40Z</time>
      </trkpt>
      <trkpt lat="45.61551" lon="6.82118">
        <ele>861</ele>
        <time>2019-04-17T11:45:40Z</time>
      </trkpt>
      <trkpt lat="45.61534" lon="6.82156">
        <ele>860</ele>
        <time>2019-04-17T11:46:40Z</time>
      </trkpt>
      <trkpt lat="45.61527" lon="6.82156">
        <ele>858</ele>
        <time>2019-04-17T11:47:40Z</time>
      </trkpt>
      <trkpt lat="45.6151" lon="6.82169">
        <ele>854</ele>
        <time>2019-04-17T11:48:40Z</time>
      </trkpt>
      <trkpt lat="45.61484" lon="6.82184">
        <ele>852</ele>
        <time>2019-04-17T11:49:40Z</time>
      </trkpt>
      <trkpt lat="45.61465" lon="6.82208">
        <ele>852</ele>
        <time>2019-04-17T11:50:40Z</time>
      </trkpt>
      <trkpt lat="45.61455" lon="6.8224">
        <ele>854</ele>
        <time>2019-04-17T11:51:40Z</time>
      </trkpt>
      <trkpt lat="45.6145" lon="6.82263">
        <ele>856</ele>
        <time>2019-04-17T11:52:40Z</time>
      </trkpt>
      <trkpt lat="45.61451" lon="6.82273">
        <ele>857</ele>
        <time>2019-04-17T11:53:40Z</time>
      </trkpt>
      <trkpt lat="45.61391" lon="6.82351">
        <ele>853</ele>
        <time>2019-04-17T11:54:40Z</time>
      </trkpt>
      <trkpt lat="45.61349" lon="6.8241">
        <ele>853</ele>
        <time>2019-04-17T11:55:40Z</time>
      </trkpt>
      <trkpt lat="45.6132" lon="6.82479">
        <ele>855</ele>
        <time>2019-04-17T11:56:40Z</time>
      </trkpt>
      <trkpt lat="45.61297" lon="6.82546">
        <ele>856</ele>
        <time>2019-04-17T11:57:40Z</time>
      </trkpt>
      <trkpt lat="45.61289" lon="6.82582">
        <ele>856</ele>
        <time>2019-04-17T11:58:40Z</time>
      </trkpt>
      <trkpt lat="45.61283" lon="6.82619">
        <ele>857</ele>
        <time>2019-04-17T11:59:40Z</time>
      </trkpt>
      <trkpt lat="45.61282" lon="6.82666">
        <ele>860</ele>
        <time>2019-04-17T12:00:40Z</time>
      </trkpt>
      <trkpt lat="45.61285" lon="6.82709">
        <ele>860</ele>
        <time>2019-04-17T12:01:40Z</time>
      </trkpt>
      <trkpt lat="45.61295" lon="6.82767">
        <ele>862</ele>
        <time>2019-04-17T12:02:40Z</time>
      </trkpt>
      <trkpt lat="45.61295" lon="6.82795">
        <ele>864</ele>
        <time>2019-04-17T12:03:40Z</time>
      </trkpt>
      <trkpt lat="45.61291" lon="6.82821">
        <ele>865</ele>
        <time>2019-04-17T12:04:40Z</time>
      </trkpt>
      <trkpt lat="45.61233" lon="6.83056">
        <ele>866</ele>
        <time>2019-04-17T12:05:40Z</time>
      </trkpt>
      <trkpt lat="45.61116" lon="6.83446">
        <ele>870</ele>
        <time>2019-04-17T12:06:40Z</time>
      </trkpt>
      <trkpt lat="45.61092" lon="6.83518">
        <ele>867</ele>
        <time>2019-04-17T12:07:40Z</time>
      </trkpt>
      <trkpt lat="45.61071" lon="6.83573">
        <ele>870</ele>
        <time>2019-04-17T12:08:40Z</time>
      </trkpt>
      <trkpt lat="45.61042" lon="6.8362">
        <ele>873</ele>
        <time>2019-04-17T12:09:40Z</time>
      </trkpt>
      <trkpt lat="45.60976" lon="6.83717">
        <ele>872</ele>
        <time>2019-04-17T12:10:40Z</time>
      </trkpt>
      <trkpt lat="45.60949" lon="6.83775">
        <ele>872</ele>
        <time>2019-04-17T12:11:40Z</time>
      </trkpt>
      <trkpt lat="45.60934" lon="6.83811">
        <ele>872</ele>
        <time>2019-04-17T12:12:40Z</time>
      </trkpt>
      <trkpt lat="45.60906" lon="6.83878">
        <ele>875</ele>
        <time>2019-04-17T12:13:40Z</time>
      </trkpt>
      <trkpt lat="45.60869" lon="6.83951">
        <ele>874</ele>
        <time>2019-04-17T12:14:40Z</time>
      </trkpt>
      <trkpt lat="45.60853" lon="6.84016">
        <ele>879</ele>
        <time>2019-04-17T12:15:40Z</time>
      </trkpt>
      <trkpt lat="45.60835" lon="6.84105">
        <ele>886</ele>
        <time>2019-04-17T12:16:40Z</time>
      </trkpt>
      <trkpt lat="45.60814" lon="6.84188">
        <ele>887</ele>
        <time>2019-04-17T12:17:40Z</time>
      </trkpt>
      <trkpt lat="45.60787" lon="6.84369">
        <ele>889</ele>
        <time>2019-04-17T12:18:40Z</time>
      </trkpt>
      <trkpt lat="45.60773" lon="6.84443">
        <ele>889</ele>
        <time>2019-04-17T12:19:40Z</time>
      </trkpt>
      <trkpt lat="45.60756" lon="6.84523">
        <ele>890</ele>
        <time>2019-04-17T12:20:40Z</time>
      </trkpt>
      <trkpt lat="45.60713" lon="6.84661">
        <ele>900</ele>
        <time>2019-04-17T12:21:40Z</time>
      </trkpt>
      <trkpt lat="45.60688" lon="6.84754">
        <ele>899</ele>
        <time>2019-04-17T12:22:40Z</time>
      </trkpt>
      <trkpt lat="45.60665" lon="6.8487">
        <ele>901</ele>
        <time>2019-04-17T12:23:40Z</time>
      </trkpt>
      <trkpt lat="45.60649" lon="6.84979">
        <ele>908</ele>
        <time>2019-04-17T12:24:40Z</time>
      </trkpt>
      <trkpt lat="45.60632" lon="6.85046">
        <ele>907</ele>
        <time>2019-04-17T12:25:40Z</time>
      </trkpt>
      <trkpt lat="45.60618" lon="6.85076">
        <ele>904</ele>
        <time>2019-04-17T12:26:40Z</time>
      </trkpt>
      <trkpt lat="45.60605" lon="6.85115">
        <ele>899</ele>
        <time>2019-04-17T12:27:40Z</time>
      </trkpt>
      <trkpt lat="45.60594" lon="6.85168">
        <ele>892</ele>
        <time>2019-04-17T12:28:40Z</time>
      </trkpt>
      <trkpt lat="45.6059" lon="6.85289">
        <ele>894</ele>
        <time>2019-04-17T12:29:40Z</time>
      </trkpt>
      <trkpt lat="45.60579" lon="6.85402">
        <ele>897</ele>
        <time>2019-04-17T12:30:40Z</time>
      </trkpt>
      <trkpt lat="45.60563" lon="6.85474">
        <ele>898</ele>
        <time>2019-04-17T12:31:40Z</time>
      </trkpt>
      <trkpt lat="45.60551" lon="6.85508">
        <ele>897</ele>
        <time>2019-04-17T12:32:40Z</time>
      </trkpt>
      <trkpt lat="45.60493" lon="6.85604">
        <ele>887</ele>
        <time>2019-04-17T12:33:40Z</time>
      </trkpt>
      <trkpt lat="45.60417" lon="6.85722">
        <ele>892</ele>
        <time>2019-04-17T12:34:40Z</time>
      </trkpt>
      <trkpt lat="45.60357" lon="6.85874">
        <ele>894</ele>
        <time>2019-04-17T12:35:40Z</time>
      </trkpt>
      <trkpt lat="45.60351" lon="6.85902">
        <ele>894</ele>
        <time>2019-04-17T12:36:40Z</time>
      </trkpt>
      <trkpt lat="45.60349" lon="6.85934">
        <ele>895</ele>
        <time>2019-04-17T12:37:40Z</time>
      </trkpt>
      <trkpt lat="45.6035" lon="6.86077">
        <ele>898</ele>
        <time>2019-04-17T12:38:40Z</time>
      </trkpt>
      <trkpt lat="45.60348" lon="6.86098">
        <ele>898</ele>
        <time>2019-04-17T12:39:40Z</time>
      </trkpt>
      <trkpt lat="45.60307" lon="6.86313">
        <ele>907</ele>
        <time>2019-04-17T12:40:40Z</time>
      </trkpt>
      <trkpt lat="45.60293" lon="6.86396">
        <ele>911</ele>
        <time>2019-04-17T12:41:40Z</time>
      </trkpt>
      <trkpt lat="45.60282" lon="6.86447">
        <ele>909</ele>
        <time>2019-04-17T12:42:40Z</time>
      </trkpt>
      <trkpt lat="45.60271" lon="6.86483">
        <ele>906</ele>
        <time>2019-04-17T12:43:40Z</time>
      </trkpt>
      <trkpt lat="45.60242" lon="6.86538">
        <ele>900</ele>
        <time>2019-04-17T12:44:40Z</time>
      </trkpt>
      <trkpt lat="45.60204" lon="6.86582">
        <ele>899</ele>
        <time>2019-04-17T12:45:40Z</time>
      </trkpt>
      <trkpt lat="45.60032" lon="6.86755">
        <ele>907</ele>
        <time>2019-04-17T12:46:40Z</time>
      </trkpt>
      <trkpt lat="45.6001" lon="6.86791">
        <ele>907</ele>
        <time>2019-04-17T12:47:40Z</time>
      </trkpt>
      <trkpt lat="45.59978" lon="6.86866">
        <ele>909</ele>
        <time>2019-04-17T12:48:40Z</time>
      </trkpt>
      <trkpt lat="45.59971" lon="6.86885">
        <ele>910</ele>
        <time>2019-04-17T12:49:40Z</time>
      </trkpt>
      <trkpt lat="45.59944" lon="6.87003">
        <ele>917</ele>
        <time>2019-04-17T12:50:40Z</time>
      </trkpt>
      <trkpt lat="45.59905" lon="6.8714">
        <ele>914</ele>
        <time>2019-04-17T12:51:40Z</time>
      </trkpt>
      <trkpt lat="45.59782" lon="6.87611">
        <ele>920</ele>
        <time>2019-04-17T12:52:40Z</time>
      </trkpt>
      <trkpt lat="45.59775" lon="6.87641">
        <ele>922</ele>
        <time>2019-04-17T12:53:40Z</time>
      </trkpt>
      <trkpt lat="45.59729" lon="6.87939">
        <ele>939</ele>
        <time>2019-04-17T12:54:40Z</time>
      </trkpt>
      <trkpt lat="45.59711" lon="6.87964">
        <ele>937</ele>
        <time>2019-04-17T12:55:40Z</time>
      </trkpt>
      <trkpt lat="45.59635" lon="6.88047">
        <ele>939</ele>
        <time>2019-04-17T12:56:40Z</time>
      </trkpt>
      <trkpt lat="45.59549" lon="6.88123">
        <ele>961</ele>
        <time>2019-04-17T12:57:40Z</time>
      </trkpt>
      <trkpt lat="45.5953" lon="6.88121">
        <ele>963</ele>
        <time>2019-04-17T12:58:40Z</time>
      </trkpt>
      <trkpt lat="45.59494" lon="6.88083">
        <ele>955</ele>
        <time>2019-04-17T12:59:40Z</time>
      </trkpt>
      <trkpt lat="45.59409" lon="6.88074">
        <ele>959</ele>
        <time>2019-04-17T13:00:40Z</time>
      </trkpt>
      <trkpt lat="45.59365" lon="6.88103">
        <ele>969</ele>
        <time>2019-04-17T13:01:40Z</time>
      </trkpt>
      <trkpt lat="45.59345" lon="6.88109">
        <ele>972</ele>
        <time>2019-04-17T13:02:40Z</time>
      </trkpt>
      <trkpt lat="45.59325" lon="6.88111">
        <ele>974</ele>
        <time>2019-04-17T13:03:40Z</time>
      </trkpt>
      <trkpt lat="45.59295" lon="6.88108">
        <ele>974</ele>
        <time>2019-04-17T13:04:40Z</time>
      </trkpt>
      <trkpt lat="45.59282" lon="6.88103">
        <ele>973</ele>
        <time>2019-04-17T13:05:40Z</time>
      </trkpt>
      <trkpt lat="45.59269" lon="6.88096">
        <ele>972</ele>
        <time>2019-04-17T13:06:40Z</time>
      </trkpt>
      <trkpt lat="45.59258" lon="6.88088">
        <ele>969</ele>
        <time>2019-04-17T13:07:40Z</time>
      </trkpt>
      <trkpt lat="45.59239" lon="6.88069">
        <ele>964</ele>
        <time>2019-04-17T13:08:40Z</time>
      </trkpt>
      <trkpt lat="45.59229" lon="6.88062">
        <ele>963</ele>
        <time>2019-04-17T13:09:40Z</time>
      </trkpt>
      <trkpt lat="45.5922" lon="6.88063">
        <ele>964</ele>
        <time>2019-04-17T13:10:40Z</time>
      </trkpt>
      <trkpt lat="45.59216" lon="6.88066">
        <ele>965</ele>
        <time>2019-04-17T13:11:40Z</time>
      </trkpt>
      <trkpt lat="45.59213" lon="6.88072">
        <ele>967</ele>
        <time>2019-04-17T13:12:40Z</time>
      </trkpt>
      <trkpt lat="45.59211" lon="6.88081">
        <ele>969</ele>
        <time>2019-04-17T13:13:40Z</time>
      </trkpt>
      <trkpt lat="45.59213" lon="6.88093">
        <ele>974</ele>
        <time>2019-04-17T13:14:40Z</time>
      </trkpt>
      <trkpt lat="45.59222" lon="6.88101">
        <ele>976</ele>
        <time>2019-04-17T13:15:40Z</time>
      </trkpt>
      <trkpt lat="45.59241" lon="6.88105">
        <ele>977</ele>
        <time>2019-04-17T13:16:40Z</time>
      </trkpt>
      <trkpt lat="45.59305" lon="6.88138">
        <ele>985</ele>
        <time>2019-04-17T13:17:40Z</time>
      </trkpt>
      <trkpt lat="45.59438" lon="6.88158">
        <ele>984</ele>
        <time>2019-04-17T13:18:40Z</time>
      </trkpt>
      <trkpt lat="45.59476" lon="6.88186">
        <ele>991</ele>
        <time>2019-04-17T13:19:40Z</time>
      </trkpt>
      <trkpt lat="45.59516" lon="6.88229">
        <ele>1005</ele>
        <time>2019-04-17T13:20:40Z</time>
      </trkpt>
      <trkpt lat="45.59567" lon="6.8823">
        <ele>1002</ele>
        <time>2019-04-17T13:21:40Z</time>
      </trkpt>
      <trkpt lat="45.5959" lon="6.88222">
        <ele>998</ele>
        <time>2019-04-17T13:22:40Z</time>
      </trkpt>
      <trkpt lat="45.59603" lon="6.8822">
        <ele>999</ele>
        <time>2019-04-17T13:23:40Z</time>
      </trkpt>
      <trkpt lat="45.5961" lon="6.88224">
        <ele>1002</ele>
        <time>2019-04-17T13:24:40Z</time>
      </trkpt>
      <trkpt lat="45.59614" lon="6.88231">
        <ele>1006</ele>
        <time>2019-04-17T13:25:40Z</time>
      </trkpt>
      <trkpt lat="45.59615" lon="6.88241">
        <ele>1011</ele>
        <time>2019-04-17T13:26:40Z</time>
      </trkpt>
      <trkpt lat="45.59615" lon="6.88252">
        <ele>1016</ele>
        <time>2019-04-17T13:27:40Z</time>
      </trkpt>
      <trkpt lat="45.59611" lon="6.88261">
        <ele>1022</ele>
        <time>2019-04-17T13:28:40Z</time>
      </trkpt>
      <trkpt lat="45.59605" lon="6.88265">
        <ele>1023</ele>
        <time>2019-04-17T13:29:40Z</time>
      </trkpt>
      <trkpt lat="45.59592" lon="6.88264">
        <ele>1021</ele>
        <time>2019-04-17T13:30:40Z</time>
      </trkpt>
      <trkpt lat="45.59568" lon="6.88251">
        <ele>1012</ele>
        <time>2019-04-17T13:31:40Z</time>
      </trkpt>
      <trkpt lat="45.59517" lon="6.88262">
        <ele>1020</ele>
        <time>2019-04-17T13:32:40Z</time>
      </trkpt>
      <trkpt lat="45.59474" lon="6.8824">
        <ele>1014</ele>
        <time>2019-04-17T13:33:40Z</time>
      </trkpt>
      <trkpt lat="45.59379" lon="6.88235">
        <ele>1020</ele>
        <time>2019-04-17T13:34:40Z</time>
      </trkpt>
      <trkpt lat="45.59334" lon="6.88236">
        <ele>1022</ele>
        <time>2019-04-17T13:35:40Z</time>
      </trkpt>
      <trkpt lat="45.59274" lon="6.8826">
        <ele>1031</ele>
        <time>2019-04-17T13:36:40Z</time>
      </trkpt>
      <trkpt lat="45.59238" lon="6.88252">
        <ele>1029</ele>
        <time>2019-04-17T13:37:40Z</time>
      </trkpt>
      <trkpt lat="45.59143" lon="6.88257">
        <ele>1035</ele>
        <time>2019-04-17T13:38:40Z</time>
      </trkpt>
      <trkpt lat="45.59117" lon="6.88264">
        <ele>1035</ele>
        <time>2019-04-17T13:39:40Z</time>
      </trkpt>
      <trkpt lat="45.59084" lon="6.8828">
        <ele>1037</ele>
        <time>2019-04-17T13:40:40Z</time>
      </trkpt>
      <trkpt lat="45.59057" lon="6.88299">
        <ele>1038</ele>
        <time>2019-04-17T13:41:40Z</time>
      </trkpt>
      <trkpt lat="45.59049" lon="6.8831">
        <ele>1040</ele>
        <time>2019-04-17T13:42:40Z</time>
      </trkpt>
      <trkpt lat="45.59045" lon="6.88321">
        <ele>1042</ele>
        <time>2019-04-17T13:43:40Z</time>
      </trkpt>
      <trkpt lat="45.5904" lon="6.88343">
        <ele>1045</ele>
        <time>2019-04-17T13:44:40Z</time>
      </trkpt>
      <trkpt lat="45.59034" lon="6.88386">
        <ele>1051</ele>
        <time>2019-04-17T13:45:40Z</time>
      </trkpt>
      <trkpt lat="45.59024" lon="6.88405">
        <ele>1053</ele>
        <time>2019-04-17T13:46:40Z</time>
      </trkpt>
      <trkpt lat="45.59013" lon="6.88413">
        <ele>1054</ele>
        <time>2019-04-17T13:47:40Z</time>
      </trkpt>
      <trkpt lat="45.59003" lon="6.88413">
        <ele>1054</ele>
        <time>2019-04-17T13:48:40Z</time>
      </trkpt>
      <trkpt lat="45.5899" lon="6.88405">
        <ele>1054</ele>
        <time>2019-04-17T13:49:40Z</time>
      </trkpt>
      <trkpt lat="45.58977" lon="6.88392">
        <ele>1053</ele>
        <time>2019-04-17T13:50:40Z</time>
      </trkpt>
      <trkpt lat="45.58945" lon="6.88351">
        <ele>1051</ele>
        <time>2019-04-17T13:51:40Z</time>
      </trkpt>
      <trkpt lat="45.58926" lon="6.8834">
        <ele>1052</ele>
        <time>2019-04-17T13:52:40Z</time>
      </trkpt>
      <trkpt lat="45.58905" lon="6.88341">
        <ele>1053</ele>
        <time>2019-04-17T13:53:40Z</time>
      </trkpt>
      <trkpt lat="45.58884" lon="6.88345">
        <ele>1054</ele>
        <time>2019-04-17T13:54:40Z</time>
      </trkpt>
      <trkpt lat="45.58867" lon="6.88358">
        <ele>1056</ele>
        <time>2019-04-17T13:55:40Z</time>
      </trkpt>
      <trkpt lat="45.58861" lon="6.88372">
        <ele>1058</ele>
        <time>2019-04-17T13:56:40Z</time>
      </trkpt>
      <trkpt lat="45.58847" lon="6.88439">
        <ele>1069</ele>
        <time>2019-04-17T13:57:40Z</time>
      </trkpt>
      <trkpt lat="45.58831" lon="6.88459">
        <ele>1072</ele>
        <time>2019-04-17T13:58:40Z</time>
      </trkpt>
      <trkpt lat="45.58783" lon="6.88494">
        <ele>1080</ele>
        <time>2019-04-17T13:59:40Z</time>
      </trkpt>
      <trkpt lat="45.58765" lon="6.88496">
        <ele>1081</ele>
        <time>2019-04-17T14:00:40Z</time>
      </trkpt>
      <trkpt lat="45.58651" lon="6.88442">
        <ele>1083</ele>
        <time>2019-04-17T14:01:40Z</time>
      </trkpt>
      <trkpt lat="45.5863" lon="6.88439">
        <ele>1084</ele>
        <time>2019-04-17T14:02:40Z</time>
      </trkpt>
      <trkpt lat="45.58613" lon="6.88438">
        <ele>1084</ele>
        <time>2019-04-17T14:03:40Z</time>
      </trkpt>
      <trkpt lat="45.58599" lon="6.88446">
        <ele>1086</ele>
        <time>2019-04-17T14:04:40Z</time>
      </trkpt>
      <trkpt lat="45.58532" lon="6.88501">
        <ele>1098</ele>
        <time>2019-04-17T14:05:40Z</time>
      </trkpt>
      <trkpt lat="45.58506" lon="6.88513">
        <ele>1103</ele>
        <time>2019-04-17T14:06:40Z</time>
      </trkpt>
      <trkpt lat="45.58479" lon="6.88503">
        <ele>1103</ele>
        <time>2019-04-17T14:07:40Z</time>
      </trkpt>
      <trkpt lat="45.58394" lon="6.88489">
        <ele>1113</ele>
        <time>2019-04-17T14:08:40Z</time>
      </trkpt>
      <trkpt lat="45.5834" lon="6.88471">
        <ele>1123</ele>
        <time>2019-04-17T14:09:40Z</time>
      </trkpt>
      <trkpt lat="45.58289" lon="6.88435">
        <ele>1121</ele>
        <time>2019-04-17T14:10:40Z</time>
      </trkpt>
      <trkpt lat="45.58257" lon="6.88423">
        <ele>1126</ele>
        <time>2019-04-17T14:11:40Z</time>
      </trkpt>
      <trkpt lat="45.58205" lon="6.88419">
        <ele>1131</ele>
        <time>2019-04-17T14:12:40Z</time>
      </trkpt>
      <trkpt lat="45.5812" lon="6.88395">
        <ele>1136</ele>
        <time>2019-04-17T14:13:40Z</time>
      </trkpt>
      <trkpt lat="45.58075" lon="6.88376">
        <ele>1137</ele>
        <time>2019-04-17T14:14:40Z</time>
      </trkpt>
      <trkpt lat="45.5812" lon="6.88395">
        <ele>1136</ele>
        <time>2019-04-17T14:15:40Z</time>
      </trkpt>
      <trkpt lat="45.58075" lon="6.88387">
        <ele>1141</ele>
        <time>2019-04-17T14:16:40Z</time>
      </trkpt>
      <trkpt lat="45.58042" lon="6.88385">
        <ele>1143</ele>
        <time>2019-04-17T14:17:40Z</time>
      </trkpt>
      <trkpt lat="45.58015" lon="6.88392">
        <ele>1147</ele>
        <time>2019-04-17T14:18:40Z</time>
      </trkpt>
      <trkpt lat="45.57984" lon="6.88396">
        <ele>1156</ele>
        <time>2019-04-17T14:19:40Z</time>
      </trkpt>
      <trkpt lat="45.5796" lon="6.8839">
        <ele>1164</ele>
        <time>2019-04-17T14:20:40Z</time>
      </trkpt>
      <trkpt lat="45.57909" lon="6.88344">
        <ele>1165</ele>
        <time>2019-04-17T14:21:40Z</time>
      </trkpt>
      <trkpt lat="45.57869" lon="6.8828">
        <ele>1163</ele>
        <time>2019-04-17T14:22:40Z</time>
      </trkpt>
      <trkpt lat="45.57859" lon="6.88256">
        <ele>1158</ele>
        <time>2019-04-17T14:23:40Z</time>
      </trkpt>
      <trkpt lat="45.57857" lon="6.88232">
        <ele>1150</ele>
        <time>2019-04-17T14:24:40Z</time>
      </trkpt>
      <trkpt lat="45.57848" lon="6.88222">
        <ele>1150</ele>
        <time>2019-04-17T14:25:40Z</time>
      </trkpt>
      <trkpt lat="45.5784" lon="6.88222">
        <ele>1152</ele>
        <time>2019-04-17T14:26:40Z</time>
      </trkpt>
      <trkpt lat="45.57833" lon="6.88229">
        <ele>1157</ele>
        <time>2019-04-17T14:27:40Z</time>
      </trkpt>
      <trkpt lat="45.57831" lon="6.88245">
        <ele>1163</ele>
        <time>2019-04-17T14:28:40Z</time>
      </trkpt>
      <trkpt lat="45.57842" lon="6.88266">
        <ele>1168</ele>
        <time>2019-04-17T14:29:40Z</time>
      </trkpt>
      <trkpt lat="45.57918" lon="6.8839">
        <ele>1181</ele>
        <time>2019-04-17T14:30:40Z</time>
      </trkpt>
      <trkpt lat="45.57952" lon="6.88436">
        <ele>1184</ele>
        <time>2019-04-17T14:31:40Z</time>
      </trkpt>
      <trkpt lat="45.57967" lon="6.88445">
        <ele>1179</ele>
        <time>2019-04-17T14:32:40Z</time>
      </trkpt>
      <trkpt lat="45.57995" lon="6.88455">
        <ele>1169</ele>
        <time>2019-04-17T14:33:40Z</time>
      </trkpt>
      <trkpt lat="45.57999" lon="6.88468">
        <ele>1171</ele>
        <time>2019-04-17T14:34:40Z</time>
      </trkpt>
      <trkpt lat="45.57998" lon="6.8848">
        <ele>1175</ele>
        <time>2019-04-17T14:35:40Z</time>
      </trkpt>
      <trkpt lat="45.5799" lon="6.88486">
        <ele>1181</ele>
        <time>2019-04-17T14:36:40Z</time>
      </trkpt>
      <trkpt lat="45.57979" lon="6.88484">
        <ele>1186</ele>
        <time>2019-04-17T14:37:40Z</time>
      </trkpt>
      <trkpt lat="45.5795" lon="6.88465">
        <ele>1195</ele>
        <time>2019-04-17T14:38:40Z</time>
      </trkpt>
      <trkpt lat="45.57927" lon="6.88432">
        <ele>1194</ele>
        <time>2019-04-17T14:39:40Z</time>
      </trkpt>
      <trkpt lat="45.57852" lon="6.88336">
        <ele>1192</ele>
        <time>2019-04-17T14:40:40Z</time>
      </trkpt>
      <trkpt lat="45.57823" lon="6.88308">
        <ele>1192</ele>
        <time>2019-04-17T14:41:40Z</time>
      </trkpt>
      <trkpt lat="45.57786" lon="6.88295">
        <ele>1194</ele>
        <time>2019-04-17T14:42:40Z</time>
      </trkpt>
      <trkpt lat="45.57735" lon="6.88291">
        <ele>1200</ele>
        <time>2019-04-17T14:43:40Z</time>
      </trkpt>
      <trkpt lat="45.57688" lon="6.88316">
        <ele>1204</ele>
        <time>2019-04-17T14:44:40Z</time>
      </trkpt>
      <trkpt lat="45.57643" lon="6.88356">
        <ele>1209</ele>
        <time>2019-04-17T14:45:40Z</time>
      </trkpt>
      <trkpt lat="45.57625" lon="6.88401">
        <ele>1218</ele>
        <time>2019-04-17T14:46:40Z</time>
      </trkpt>
      <trkpt lat="45.57597" lon="6.88424">
        <ele>1222</ele>
        <time>2019-04-17T14:47:40Z</time>
      </trkpt>
      <trkpt lat="45.57564" lon="6.88438">
        <ele>1226</ele>
        <time>2019-04-17T14:48:40Z</time>
      </trkpt>
      <trkpt lat="45.57533" lon="6.88441">
        <ele>1227</ele>
        <time>2019-04-17T14:49:40Z</time>
      </trkpt>
      <trkpt lat="45.57487" lon="6.8843">
        <ele>1225</ele>
        <time>2019-04-17T14:50:40Z</time>
      </trkpt>
      <trkpt lat="45.57476" lon="6.88431">
        <ele>1226</ele>
        <time>2019-04-17T14:51:40Z</time>
      </trkpt>
      <trkpt lat="45.57454" lon="6.88439">
        <ele>1228</ele>
        <time>2019-04-17T14:52:40Z</time>
      </trkpt>
      <trkpt lat="45.57439" lon="6.88448">
        <ele>1230</ele>
        <time>2019-04-17T14:53:40Z</time>
      </trkpt>
      <trkpt lat="45.57412" lon="6.88474">
        <ele>1234</ele>
        <time>2019-04-17T14:54:40Z</time>
      </trkpt>
      <trkpt lat="45.57379" lon="6.8851">
        <ele>1239</ele>
        <time>2019-04-17T14:55:40Z</time>
      </trkpt>
      <trkpt lat="45.57362" lon="6.88523">
        <ele>1241</ele>
        <time>2019-04-17T14:56:40Z</time>
      </trkpt>
      <trkpt lat="45.57325" lon="6.8854">
        <ele>1242</ele>
        <time>2019-04-17T14:57:40Z</time>
      </trkpt>
      <trkpt lat="45.57307" lon="6.8857">
        <ele>1246</ele>
        <time>2019-04-17T14:58:40Z</time>
      </trkpt>
      <trkpt lat="45.57292" lon="6.886">
        <ele>1250</ele>
        <time>2019-04-17T14:59:40Z</time>
      </trkpt>
      <trkpt lat="45.57268" lon="6.88621">
        <ele>1254</ele>
        <time>2019-04-17T15:00:40Z</time>
      </trkpt>
      <trkpt lat="45.57186" lon="6.88641">
        <ele>1257</ele>
        <time>2019-04-17T15:01:40Z</time>
      </trkpt>
      <trkpt lat="45.57135" lon="6.88658">
        <ele>1255</ele>
        <time>2019-04-17T15:02:40Z</time>
      </trkpt>
      <trkpt lat="45.57081" lon="6.88689">
        <ele>1258</ele>
        <time>2019-04-17T15:03:40Z</time>
      </trkpt>
      <trkpt lat="45.57041" lon="6.88717">
        <ele>1254</ele>
        <time>2019-04-17T15:04:40Z</time>
      </trkpt>
      <trkpt lat="45.57007" lon="6.88756">
        <ele>1256</ele>
        <time>2019-04-17T15:05:40Z</time>
      </trkpt>
      <trkpt lat="45.56956" lon="6.8882">
        <ele>1271</ele>
        <time>2019-04-17T15:06:40Z</time>
      </trkpt>
      <trkpt lat="45.56937" lon="6.88841">
        <ele>1276</ele>
        <time>2019-04-17T15:07:40Z</time>
      </trkpt>
      <trkpt lat="45.56915" lon="6.88859">
        <ele>1279</ele>
        <time>2019-04-17T15:08:40Z</time>
      </trkpt>
      <trkpt lat="45.56769" lon="6.88937">
        <ele>1290</ele>
        <time>2019-04-17T15:09:40Z</time>
      </trkpt>
      <trkpt lat="45.56757" lon="6.8894">
        <ele>1289</ele>
        <time>2019-04-17T15:10:40Z</time>
      </trkpt>
      <trkpt lat="45.56709" lon="6.88935">
        <ele>1276</ele>
        <time>2019-04-17T15:11:40Z</time>
      </trkpt>
      <trkpt lat="45.56699" lon="6.88936">
        <ele>1274</ele>
        <time>2019-04-17T15:12:40Z</time>
      </trkpt>
      <trkpt lat="45.56692" lon="6.88941">
        <ele>1275</ele>
        <time>2019-04-17T15:13:40Z</time>
      </trkpt>
      <trkpt lat="45.5668" lon="6.88952">
        <ele>1278</ele>
        <time>2019-04-17T15:14:40Z</time>
      </trkpt>
      <trkpt lat="45.56651" lon="6.88998">
        <ele>1290</ele>
        <time>2019-04-17T15:15:40Z</time>
      </trkpt>
      <trkpt lat="45.56605" lon="6.8906">
        <ele>1300</ele>
        <time>2019-04-17T15:16:40Z</time>
      </trkpt>
      <trkpt lat="45.56587" lon="6.89081">
        <ele>1306</ele>
        <time>2019-04-17T15:17:40Z</time>
      </trkpt>
      <trkpt lat="45.56546" lon="6.89112">
        <ele>1309</ele>
        <time>2019-04-17T15:18:40Z</time>
      </trkpt>
      <trkpt lat="45.56512" lon="6.89131">
        <ele>1309</ele>
        <time>2019-04-17T15:19:40Z</time>
      </trkpt>
      <trkpt lat="45.56497" lon="6.89144">
        <ele>1312</ele>
        <time>2019-04-17T15:20:40Z</time>
      </trkpt>
      <trkpt lat="45.5647" lon="6.89168">
        <ele>1315</ele>
        <time>2019-04-17T15:21:40Z</time>
      </trkpt>
      <trkpt lat="45.56397" lon="6.89247">
        <ele>1337</ele>
        <time>2019-04-17T15:22:40Z</time>
      </trkpt>
      <trkpt lat="45.56381" lon="6.89259">
        <ele>1340</ele>
        <time>2019-04-17T15:23:40Z</time>
      </trkpt>
      <trkpt lat="45.56364" lon="6.89265">
        <ele>1339</ele>
        <time>2019-04-17T15:24:40Z</time>
      </trkpt>
      <trkpt lat="45.56316" lon="6.89277">
        <ele>1335</ele>
        <time>2019-04-17T15:25:40Z</time>
      </trkpt>
      <trkpt lat="45.56298" lon="6.89284">
        <ele>1336</ele>
        <time>2019-04-17T15:26:40Z</time>
      </trkpt>
      <trkpt lat="45.56252" lon="6.8932">
        <ele>1344</ele>
        <time>2019-04-17T15:27:40Z</time>
      </trkpt>
      <trkpt lat="45.56137" lon="6.89422">
        <ele>1345</ele>
        <time>2019-04-17T15:28:40Z</time>
      </trkpt>
      <trkpt lat="45.56112" lon="6.89438">
        <ele>1349</ele>
        <time>2019-04-17T15:29:40Z</time>
      </trkpt>
      <trkpt lat="45.56087" lon="6.89449">
        <ele>1349</ele>
        <time>2019-04-17T15:30:40Z</time>
      </trkpt>
      <trkpt lat="45.56057" lon="6.89458">
        <ele>1345</ele>
        <time>2019-04-17T15:31:40Z</time>
      </trkpt>
      <trkpt lat="45.5602" lon="6.89463">
        <ele>1338</ele>
        <time>2019-04-17T15:32:40Z</time>
      </trkpt>
      <trkpt lat="45.55995" lon="6.8947">
        <ele>1334</ele>
        <time>2019-04-17T15:33:40Z</time>
      </trkpt>
      <trkpt lat="45.55983" lon="6.89478">
        <ele>1333</ele>
        <time>2019-04-17T15:34:40Z</time>
      </trkpt>
      <trkpt lat="45.55969" lon="6.89494">
        <ele>1332</ele>
        <time>2019-04-17T15:35:40Z</time>
      </trkpt>
      <trkpt lat="45.55958" lon="6.89516">
        <ele>1333</ele>
        <time>2019-04-17T15:36:40Z</time>
      </trkpt>
      <trkpt lat="45.55923" lon="6.89614">
        <ele>1342</ele>
        <time>2019-04-17T15:37:40Z</time>
      </trkpt>
      <trkpt lat="45.55881" lon="6.89684">
        <ele>1345</ele>
        <time>2019-04-17T15:38:40Z</time>
      </trkpt>
      <trkpt lat="45.55866" lon="6.89707">
        <ele>1346</ele>
        <time>2019-04-17T15:39:40Z</time>
      </trkpt>
      <trkpt lat="45.55852" lon="6.89723">
        <ele>1344</ele>
        <time>2019-04-17T15:40:40Z</time>
      </trkpt>
      <trkpt lat="45.55838" lon="6.89734">
        <ele>1341</ele>
        <time>2019-04-17T15:41:40Z</time>
      </trkpt>
      <trkpt lat="45.55827" lon="6.89744">
        <ele>1339</ele>
        <time>2019-04-17T15:42:40Z</time>
      </trkpt>
      <trkpt lat="45.55819" lon="6.89758">
        <ele>1341</ele>
        <time>2019-04-17T15:43:40Z</time>
      </trkpt>
      <trkpt lat="45.55799" lon="6.89806">
        <ele>1350</ele>
        <time>2019-04-17T15:44:40Z</time>
      </trkpt>
      <trkpt lat="45.5578" lon="6.89834">
        <ele>1354</ele>
        <time>2019-04-17T15:45:40Z</time>
      </trkpt>
      <trkpt lat="45.5574" lon="6.89884">
        <ele>1352</ele>
        <time>2019-04-17T15:46:40Z</time>
      </trkpt>
      <trkpt lat="45.55731" lon="6.89899">
        <ele>1352</ele>
        <time>2019-04-17T15:47:40Z</time>
      </trkpt>
      <trkpt lat="45.55725" lon="6.89913">
        <ele>1352</ele>
        <time>2019-04-17T15:48:40Z</time>
      </trkpt>
      <trkpt lat="45.5571" lon="6.89937">
        <ele>1354</ele>
        <time>2019-04-17T15:49:40Z</time>
      </trkpt>
      <trkpt lat="45.55674" lon="6.89981">
        <ele>1353</ele>
        <time>2019-04-17T15:50:40Z</time>
      </trkpt>
      <trkpt lat="45.55604" lon="6.90081">
        <ele>1371</ele>
        <time>2019-04-17T15:51:40Z</time>
      </trkpt>
      <trkpt lat="45.55584" lon="6.90099">
        <ele>1378</ele>
        <time>2019-04-17T15:52:40Z</time>
      </trkpt>
      <trkpt lat="45.55562" lon="6.90114">
        <ele>1383</ele>
        <time>2019-04-17T15:53:40Z</time>
      </trkpt>
      <trkpt lat="45.5553" lon="6.90125">
        <ele>1377</ele>
        <time>2019-04-17T15:54:40Z</time>
      </trkpt>
      <trkpt lat="45.55459" lon="6.90158">
        <ele>1369</ele>
        <time>2019-04-17T15:55:40Z</time>
      </trkpt>
      <trkpt lat="45.55434" lon="6.90164">
        <ele>1366</ele>
        <time>2019-04-17T15:56:40Z</time>
      </trkpt>
      <trkpt lat="45.55334" lon="6.90159">
        <ele>1382</ele>
        <time>2019-04-17T15:57:40Z</time>
      </trkpt>
      <trkpt lat="45.55303" lon="6.90151">
        <ele>1375</ele>
        <time>2019-04-17T15:58:40Z</time>
      </trkpt>
      <trkpt lat="45.55286" lon="6.90149">
        <ele>1373</ele>
        <time>2019-04-17T15:59:40Z</time>
      </trkpt>
      <trkpt lat="45.55269" lon="6.90153">
        <ele>1374</ele>
        <time>2019-04-17T16:00:40Z</time>
      </trkpt>
      <trkpt lat="45.55254" lon="6.9016">
        <ele>1376</ele>
        <time>2019-04-17T16:01:40Z</time>
      </trkpt>
      <trkpt lat="45.55091" lon="6.90283">
        <ele>1392</ele>
        <time>2019-04-17T16:02:40Z</time>
      </trkpt>
      <trkpt lat="45.55065" lon="6.90308">
        <ele>1393</ele>
        <time>2019-04-17T16:03:40Z</time>
      </trkpt>
      <trkpt lat="45.55035" lon="6.90346">
        <ele>1397</ele>
        <time>2019-04-17T16:04:40Z</time>
      </trkpt>
      <trkpt lat="45.55005" lon="6.90382">
        <ele>1397</ele>
        <time>2019-04-17T16:05:40Z</time>
      </trkpt>
      <trkpt lat="45.54976" lon="6.90425">
        <ele>1400</ele>
        <time>2019-04-17T16:06:40Z</time>
      </trkpt>
      <trkpt lat="45.54863" lon="6.90617">
        <ele>1416</ele>
        <time>2019-04-17T16:07:40Z</time>
      </trkpt>
      <trkpt lat="45.54843" lon="6.9064">
        <ele>1418</ele>
        <time>2019-04-17T16:08:40Z</time>
      </trkpt>
      <trkpt lat="45.54759" lon="6.90705">
        <ele>1423</ele>
        <time>2019-04-17T16:09:40Z</time>
      </trkpt>
      <trkpt lat="45.54724" lon="6.90727">
        <ele>1426</ele>
        <time>2019-04-17T16:10:40Z</time>
      </trkpt>
      <trkpt lat="45.54699" lon="6.90738">
        <ele>1426</ele>
        <time>2019-04-17T16:11:40Z</time>
      </trkpt>
      <trkpt lat="45.54627" lon="6.90759">
        <ele>1419</ele>
        <time>2019-04-17T16:12:40Z</time>
      </trkpt>
      <trkpt lat="45.54576" lon="6.90781">
        <ele>1419</ele>
        <time>2019-04-17T16:13:40Z</time>
      </trkpt>
      <trkpt lat="45.54531" lon="6.90794">
        <ele>1418</ele>
        <time>2019-04-17T16:14:40Z</time>
      </trkpt>
      <trkpt lat="45.54488" lon="6.90819">
        <ele>1423</ele>
        <time>2019-04-17T16:15:40Z</time>
      </trkpt>
      <trkpt lat="45.54462" lon="6.90838">
        <ele>1427</ele>
        <time>2019-04-17T16:16:40Z</time>
      </trkpt>
      <trkpt lat="45.54435" lon="6.90853">
        <ele>1432</ele>
        <time>2019-04-17T16:17:40Z</time>
      </trkpt>
      <trkpt lat="45.54375" lon="6.90878">
        <ele>1432</ele>
        <time>2019-04-17T16:18:40Z</time>
      </trkpt>
      <trkpt lat="45.54354" lon="6.9089">
        <ele>1432</ele>
        <time>2019-04-17T16:19:40Z</time>
      </trkpt>
      <trkpt lat="45.54319" lon="6.90916">
        <ele>1436</ele>
        <time>2019-04-17T16:20:40Z</time>
      </trkpt>
      <trkpt lat="45.54275" lon="6.90953">
        <ele>1444</ele>
        <time>2019-04-17T16:21:40Z</time>
      </trkpt>
      <trkpt lat="45.54246" lon="6.90981">
        <ele>1447</ele>
        <time>2019-04-17T16:22:40Z</time>
      </trkpt>
      <trkpt lat="45.54177" lon="6.91059">
        <ele>1456</ele>
        <time>2019-04-17T16:23:40Z</time>
      </trkpt>
      <trkpt lat="45.54157" lon="6.91073">
        <ele>1457</ele>
        <time>2019-04-17T16:24:40Z</time>
      </trkpt>
      <trkpt lat="45.54126" lon="6.91091">
        <ele>1463</ele>
        <time>2019-04-17T16:25:40Z</time>
      </trkpt>
      <trkpt lat="45.54105" lon="6.911">
        <ele>1467</ele>
        <time>2019-04-17T16:26:40Z</time>
      </trkpt>
      <trkpt lat="45.54083" lon="6.91101">
        <ele>1466</ele>
        <time>2019-04-17T16:27:40Z</time>
      </trkpt>
      <trkpt lat="45.54067" lon="6.91098">
        <ele>1464</ele>
        <time>2019-04-17T16:28:40Z</time>
      </trkpt>
      <trkpt lat="45.54047" lon="6.91088">
        <ele>1457</ele>
        <time>2019-04-17T16:29:40Z</time>
      </trkpt>
      <trkpt lat="45.54028" lon="6.91082">
        <ele>1453</ele>
        <time>2019-04-17T16:30:40Z</time>
      </trkpt>
      <trkpt lat="45.54006" lon="6.91088">
        <ele>1456</ele>
        <time>2019-04-17T16:31:40Z</time>
      </trkpt>
      <trkpt lat="45.53988" lon="6.91101">
        <ele>1462</ele>
        <time>2019-04-17T16:32:40Z</time>
      </trkpt>
      <trkpt lat="45.53949" lon="6.91125">
        <ele>1470</ele>
        <time>2019-04-17T16:33:40Z</time>
      </trkpt>
      <trkpt lat="45.5392" lon="6.91148">
        <ele>1481</ele>
        <time>2019-04-17T16:34:40Z</time>
      </trkpt>
      <trkpt lat="45.53903" lon="6.91149">
        <ele>1479</ele>
        <time>2019-04-17T16:35:40Z</time>
      </trkpt>
      <trkpt lat="45.53863" lon="6.91142">
        <ele>1469</ele>
        <time>2019-04-17T16:36:40Z</time>
      </trkpt>
      <trkpt lat="45.5384" lon="6.91148">
        <ele>1470</ele>
        <time>2019-04-17T16:37:40Z</time>
      </trkpt>
      <trkpt lat="45.53803" lon="6.91167">
        <ele>1472</ele>
        <time>2019-04-17T16:38:40Z</time>
      </trkpt>
      <trkpt lat="45.5378" lon="6.91185">
        <ele>1471</ele>
        <time>2019-04-17T16:39:40Z</time>
      </trkpt>
      <trkpt lat="45.53704" lon="6.91278">
        <ele>1473</ele>
        <time>2019-04-17T16:40:40Z</time>
      </trkpt>
      <trkpt lat="45.53689" lon="6.913">
        <ele>1473</ele>
        <time>2019-04-17T16:41:40Z</time>
      </trkpt>
      <trkpt lat="45.5368" lon="6.91323">
        <ele>1477</ele>
        <time>2019-04-17T16:42:40Z</time>
      </trkpt>
      <trkpt lat="45.53656" lon="6.91412">
        <ele>1489</ele>
        <time>2019-04-17T16:43:40Z</time>
      </trkpt>
      <trkpt lat="45.53648" lon="6.91424">
        <ele>1493</ele>
        <time>2019-04-17T16:44:40Z</time>
      </trkpt>
      <trkpt lat="45.5364" lon="6.91434">
        <ele>1497</ele>
        <time>2019-04-17T16:45:40Z</time>
      </trkpt>
      <trkpt lat="45.53629" lon="6.91438">
        <ele>1499</ele>
        <time>2019-04-17T16:46:40Z</time>
      </trkpt>
      <trkpt lat="45.53617" lon="6.91439">
        <ele>1499</ele>
        <time>2019-04-17T16:47:40Z</time>
      </trkpt>
      <trkpt lat="45.53581" lon="6.91429">
        <ele>1491</ele>
        <time>2019-04-17T16:48:40Z</time>
      </trkpt>
      <trkpt lat="45.53566" lon="6.91432">
        <ele>1492</ele>
        <time>2019-04-17T16:49:40Z</time>
      </trkpt>
      <trkpt lat="45.53515" lon="6.91462">
        <ele>1501</ele>
        <time>2019-04-17T16:50:40Z</time>
      </trkpt>
      <trkpt lat="45.53504" lon="6.91461">
        <ele>1499</ele>
        <time>2019-04-17T16:51:40Z</time>
      </trkpt>
      <trkpt lat="45.53485" lon="6.91456">
        <ele>1495</ele>
        <time>2019-04-17T16:52:40Z</time>
      </trkpt>
      <trkpt lat="45.53464" lon="6.91459">
        <ele>1495</ele>
        <time>2019-04-17T16:53:40Z</time>
      </trkpt>
      <trkpt lat="45.534" lon="6.91486">
        <ele>1507</ele>
        <time>2019-04-17T16:54:40Z</time>
      </trkpt>
      <trkpt lat="45.53375" lon="6.91495">
        <ele>1513</ele>
        <time>2019-04-17T16:55:40Z</time>
      </trkpt>
      <trkpt lat="45.53329" lon="6.915">
        <ele>1518</ele>
        <time>2019-04-17T16:56:40Z</time>
      </trkpt>
      <trkpt lat="45.53235" lon="6.91516">
        <ele>1517</ele>
        <time>2019-04-17T16:57:40Z</time>
      </trkpt>
      <trkpt lat="45.53203" lon="6.91529">
        <ele>1520</ele>
        <time>2019-04-17T16:58:40Z</time>
      </trkpt>
      <trkpt lat="45.53195" lon="6.9154">
        <ele>1524</ele>
        <time>2019-04-17T16:59:40Z</time>
      </trkpt>
      <trkpt lat="45.53177" lon="6.91584">
        <ele>1544</ele>
        <time>2019-04-17T17:00:40Z</time>
      </trkpt>
      <trkpt lat="45.53165" lon="6.9159">
        <ele>1545</ele>
        <time>2019-04-17T17:01:40Z</time>
      </trkpt>
      <trkpt lat="45.53153" lon="6.91587">
        <ele>1548</ele>
        <time>2019-04-17T17:02:40Z</time>
      </trkpt>
      <trkpt lat="45.53137" lon="6.9157">
        <ele>1545</ele>
        <time>2019-04-17T17:03:40Z</time>
      </trkpt>
      <trkpt lat="45.53109" lon="6.91526">
        <ele>1533</ele>
        <time>2019-04-17T17:04:40Z</time>
      </trkpt>
      <trkpt lat="45.53096" lon="6.91512">
        <ele>1531</ele>
        <time>2019-04-17T17:05:40Z</time>
      </trkpt>
      <trkpt lat="45.53053" lon="6.91487">
        <ele>1534</ele>
        <time>2019-04-17T17:06:40Z</time>
      </trkpt>
      <trkpt lat="45.53031" lon="6.91478">
        <ele>1537</ele>
        <time>2019-04-17T17:07:40Z</time>
      </trkpt>
      <trkpt lat="45.5301" lon="6.91463">
        <ele>1538</ele>
        <time>2019-04-17T17:08:40Z</time>
      </trkpt>
      <trkpt lat="45.52956" lon="6.91406">
        <ele>1532</ele>
        <time>2019-04-17T17:09:40Z</time>
      </trkpt>
      <trkpt lat="45.52931" lon="6.91384">
        <ele>1533</ele>
        <time>2019-04-17T17:10:40Z</time>
      </trkpt>
      <trkpt lat="45.52903" lon="6.91368">
        <ele>1538</ele>
        <time>2019-04-17T17:11:40Z</time>
      </trkpt>
      <trkpt lat="45.52719" lon="6.91311">
        <ele>1567</ele>
        <time>2019-04-17T17:12:40Z</time>
      </trkpt>
      <trkpt lat="45.52647" lon="6.91281">
        <ele>1564</ele>
        <time>2019-04-17T17:13:40Z</time>
      </trkpt>
      <trkpt lat="45.52614" lon="6.91274">
        <ele>1565</ele>
        <time>2019-04-17T17:14:40Z</time>
      </trkpt>
      <trkpt lat="45.52559" lon="6.91268">
        <ele>1566</ele>
        <time>2019-04-17T17:15:40Z</time>
      </trkpt>
      <trkpt lat="45.52498" lon="6.91264">
        <ele>1564</ele>
        <time>2019-04-17T17:16:40Z</time>
      </trkpt>
      <trkpt lat="45.52476" lon="6.91265">
        <ele>1561</ele>
        <time>2019-04-17T17:17:40Z</time>
      </trkpt>
      <trkpt lat="45.52448" lon="6.91271">
        <ele>1560</ele>
        <time>2019-04-17T17:18:40Z</time>
      </trkpt>
      <trkpt lat="45.52418" lon="6.9128">
        <ele>1560</ele>
        <time>2019-04-17T17:19:40Z</time>
      </trkpt>
      <trkpt lat="45.52395" lon="6.91291">
        <ele>1560</ele>
        <time>2019-04-17T17:20:40Z</time>
      </trkpt>
      <trkpt lat="45.52309" lon="6.91349">
        <ele>1567</ele>
        <time>2019-04-17T17:21:40Z</time>
      </trkpt>
      <trkpt lat="45.52288" lon="6.91359">
        <ele>1570</ele>
        <time>2019-04-17T17:22:40Z</time>
      </trkpt>
      <trkpt lat="45.52193" lon="6.91391">
        <ele>1577</ele>
        <time>2019-04-17T17:23:40Z</time>
      </trkpt>
      <trkpt lat="45.52179" lon="6.91393">
        <ele>1577</ele>
        <time>2019-04-17T17:24:40Z</time>
      </trkpt>
      <trkpt lat="45.52158" lon="6.91391">
        <ele>1576</ele>
        <time>2019-04-17T17:25:40Z</time>
      </trkpt>
      <trkpt lat="45.52139" lon="6.91383">
        <ele>1575</ele>
        <time>2019-04-17T17:26:40Z</time>
      </trkpt>
      <trkpt lat="45.52123" lon="6.91369">
        <ele>1572</ele>
        <time>2019-04-17T17:27:40Z</time>
      </trkpt>
      <trkpt lat="45.52089" lon="6.91335">
        <ele>1568</ele>
        <time>2019-04-17T17:28:40Z</time>
      </trkpt>
      <trkpt lat="45.52071" lon="6.9133">
        <ele>1566</ele>
        <time>2019-04-17T17:29:40Z</time>
      </trkpt>
      <trkpt lat="45.52059" lon="6.9133">
        <ele>1564</ele>
        <time>2019-04-17T17:30:40Z</time>
      </trkpt>
      <trkpt lat="45.52047" lon="6.91335">
        <ele>1564</ele>
        <time>2019-04-17T17:31:40Z</time>
      </trkpt>
      <trkpt lat="45.52024" lon="6.9136">
        <ele>1567</ele>
        <time>2019-04-17T17:32:40Z</time>
      </trkpt>
      <trkpt lat="45.52006" lon="6.91392">
        <ele>1572</ele>
        <time>2019-04-17T17:33:40Z</time>
      </trkpt>
      <trkpt lat="45.5198" lon="6.91428">
        <ele>1578</ele>
        <time>2019-04-17T17:34:40Z</time>
      </trkpt>
      <trkpt lat="45.51935" lon="6.91469">
        <ele>1584</ele>
        <time>2019-04-17T17:35:40Z</time>
      </trkpt>
      <trkpt lat="45.51895" lon="6.91493">
        <ele>1587</ele>
        <time>2019-04-17T17:36:40Z</time>
      </trkpt>
      <trkpt lat="45.51803" lon="6.91539">
        <ele>1598</ele>
        <time>2019-04-17T17:37:40Z</time>
      </trkpt>
      <trkpt lat="45.51782" lon="6.91555">
        <ele>1601</ele>
        <time>2019-04-17T17:38:40Z</time>
      </trkpt>
      <trkpt lat="45.51761" lon="6.91577">
        <ele>1602</ele>
        <time>2019-04-17T17:39:40Z</time>
      </trkpt>
      <trkpt lat="45.51733" lon="6.9161">
        <ele>1611</ele>
        <time>2019-04-17T17:40:40Z</time>
      </trkpt>
      <trkpt lat="45.51704" lon="6.91624">
        <ele>1618</ele>
        <time>2019-04-17T17:41:40Z</time>
      </trkpt>
      <trkpt lat="45.51675" lon="6.9163">
        <ele>1623</ele>
        <time>2019-04-17T17:42:40Z</time>
      </trkpt>
      <trkpt lat="45.51652" lon="6.91631">
        <ele>1622</ele>
        <time>2019-04-17T17:43:40Z</time>
      </trkpt>
      <trkpt lat="45.51601" lon="6.91641">
        <ele>1623</ele>
        <time>2019-04-17T17:44:40Z</time>
      </trkpt>
      <trkpt lat="45.51554" lon="6.91654">
        <ele>1624</ele>
        <time>2019-04-17T17:45:40Z</time>
      </trkpt>
      <trkpt lat="45.51515" lon="6.91669">
        <ele>1623</ele>
        <time>2019-04-17T17:46:40Z</time>
      </trkpt>
      <trkpt lat="45.51475" lon="6.91688">
        <ele>1628</ele>
        <time>2019-04-17T17:47:40Z</time>
      </trkpt>
      <trkpt lat="45.51432" lon="6.91714">
        <ele>1635</ele>
        <time>2019-04-17T17:48:40Z</time>
      </trkpt>
      <trkpt lat="45.51404" lon="6.91734">
        <ele>1638</ele>
        <time>2019-04-17T17:49:40Z</time>
      </trkpt>
      <trkpt lat="45.51372" lon="6.91769">
        <ele>1640</ele>
        <time>2019-04-17T17:50:40Z</time>
      </trkpt>
      <trkpt lat="45.5129" lon="6.91882">
        <ele>1648</ele>
        <time>2019-04-17T17:51:40Z</time>
      </trkpt>
      <trkpt lat="45.51144" lon="6.92069">
        <ele>1657</ele>
        <time>2019-04-17T17:52:40Z</time>
      </trkpt>
      <trkpt lat="45.51093" lon="6.92137">
        <ele>1661</ele>
        <time>2019-04-17T17:53:40Z</time>
      </trkpt>
      <trkpt lat="45.51054" lon="6.922">
        <ele>1668</ele>
        <time>2019-04-17T17:54:40Z</time>
      </trkpt>
      <trkpt lat="45.5103" lon="6.92244">
        <ele>1672</ele>
        <time>2019-04-17T17:55:40Z</time>
      </trkpt>
      <trkpt lat="45.5099" lon="6.9235">
        <ele>1690</ele>
        <time>2019-04-17T17:56:40Z</time>
      </trkpt>
      <trkpt lat="45.50969" lon="6.9239">
        <ele>1696</ele>
        <time>2019-04-17T17:57:40Z</time>
      </trkpt>
      <trkpt lat="45.50941" lon="6.92422">
        <ele>1694</ele>
        <time>2019-04-17T17:58:40Z</time>
      </trkpt>
      <trkpt lat="45.50907" lon="6.92453">
        <ele>1699</ele>
        <time>2019-04-17T17:59:40Z</time>
      </trkpt>
      <trkpt lat="45.50879" lon="6.92471">
        <ele>1702</ele>
        <time>2019-04-17T18:00:40Z</time>
      </trkpt>
      <trkpt lat="45.50842" lon="6.9249">
        <ele>1705</ele>
        <time>2019-04-17T18:01:40Z</time>
      </trkpt>
      <trkpt lat="45.50782" lon="6.92517">
        <ele>1701</ele>
        <time>2019-04-17T18:02:40Z</time>
      </trkpt>
      <trkpt lat="45.50756" lon="6.9253">
        <ele>1699</ele>
        <time>2019-04-17T18:03:40Z</time>
      </trkpt>
      <trkpt lat="45.50742" lon="6.92545">
        <ele>1701</ele>
        <time>2019-04-17T18:04:40Z</time>
      </trkpt>
      <trkpt lat="45.50726" lon="6.92569">
        <ele>1708</ele>
        <time>2019-04-17T18:05:40Z</time>
      </trkpt>
      <trkpt lat="45.50684" lon="6.92639">
        <ele>1725</ele>
        <time>2019-04-17T18:06:40Z</time>
      </trkpt>
      <trkpt lat="45.50672" lon="6.92656">
        <ele>1729</ele>
        <time>2019-04-17T18:07:40Z</time>
      </trkpt>
      <trkpt lat="45.50619" lon="6.9271">
        <ele>1732</ele>
        <time>2019-04-17T18:08:40Z</time>
      </trkpt>
      <trkpt lat="45.50526" lon="6.92825">
        <ele>1735</ele>
        <time>2019-04-17T18:09:40Z</time>
      </trkpt>
      <trkpt lat="45.50453" lon="6.92919">
        <ele>1749</ele>
        <time>2019-04-17T18:10:40Z</time>
      </trkpt>
      <trkpt lat="45.50374" lon="6.92985">
        <ele>1754</ele>
        <time>2019-04-17T18:11:40Z</time>
      </trkpt>
      <trkpt lat="45.50298" lon="6.93016">
        <ele>1756</ele>
        <time>2019-04-17T18:12:40Z</time>
      </trkpt>
      <trkpt lat="45.50259" lon="6.9302">
        <ele>1756</ele>
        <time>2019-04-17T18:13:40Z</time>
      </trkpt>
      <trkpt lat="45.50204" lon="6.93017">
        <ele>1751</ele>
        <time>2019-04-17T18:14:40Z</time>
      </trkpt>
      <trkpt lat="45.50182" lon="6.93022">
        <ele>1753</ele>
        <time>2019-04-17T18:15:40Z</time>
      </trkpt>
      <trkpt lat="45.50122" lon="6.93055">
        <ele>1768</ele>
        <time>2019-04-17T18:16:40Z</time>
      </trkpt>
      <trkpt lat="45.50043" lon="6.93086">
        <ele>1774</ele>
        <time>2019-04-17T18:17:40Z</time>
      </trkpt>
      <trkpt lat="45.49946" lon="6.93144">
        <ele>1786</ele>
        <time>2019-04-17T18:18:40Z</time>
      </trkpt>
      <trkpt lat="45.49835" lon="6.93196">
        <ele>1783</ele>
        <time>2019-04-17T18:19:40Z</time>
      </trkpt>
      <trkpt lat="45.49818" lon="6.9321">
        <ele>1782</ele>
        <time>2019-04-17T18:20:40Z</time>
      </trkpt>
      <trkpt lat="45.49791" lon="6.9324">
        <ele>1787</ele>
        <time>2019-04-17T18:21:40Z</time>
      </trkpt>
      <trkpt lat="45.49757" lon="6.93271">
        <ele>1791</ele>
        <time>2019-04-17T18:22:40Z</time>
      </trkpt>
      <trkpt lat="45.49738" lon="6.93295">
        <ele>1795</ele>
        <time>2019-04-17T18:23:40Z</time>
      </trkpt>
      <trkpt lat="45.49715" lon="6.93316">
        <ele>1796</ele>
        <time>2019-04-17T18:24:40Z</time>
      </trkpt>
      <trkpt lat="45.49672" lon="6.93352">
        <ele>1797</ele>
        <time>2019-04-17T18:25:40Z</time>
      </trkpt>
      <trkpt lat="45.49581" lon="6.93406">
        <ele>1769</ele>
        <time>2019-04-17T18:26:40Z</time>
      </trkpt>
      <trkpt lat="45.49562" lon="6.9342">
        <ele>1773</ele>
        <time>2019-04-17T18:27:40Z</time>
      </trkpt>
      <trkpt lat="45.49543" lon="6.93441">
        <ele>1779</ele>
        <time>2019-04-17T18:28:40Z</time>
      </trkpt>
      <trkpt lat="45.4953" lon="6.93466">
        <ele>1788</ele>
        <time>2019-04-17T18:29:40Z</time>
      </trkpt>
      <trkpt lat="45.49514" lon="6.93507">
        <ele>1803</ele>
        <time>2019-04-17T18:30:40Z</time>
      </trkpt>
      <trkpt lat="45.49389" lon="6.93686">
        <ele>1809</ele>
        <time>2019-04-17T18:31:40Z</time>
      </trkpt>
      <trkpt lat="45.49321" lon="6.93846">
        <ele>1830</ele>
        <time>2019-04-17T18:32:40Z</time>
      </trkpt>
      <trkpt lat="45.49233" lon="6.9401">
        <ele>1864</ele>
        <time>2019-04-17T18:33:40Z</time>
      </trkpt>
      <trkpt lat="45.49144" lon="6.94111">
        <ele>1853</ele>
        <time>2019-04-17T18:34:40Z</time>
      </trkpt>
      <trkpt lat="45.49014" lon="6.94182">
        <ele>1825</ele>
        <time>2019-04-17T18:35:40Z</time>
      </trkpt>
      <trkpt lat="45.48874" lon="6.94263">
        <ele>1822</ele>
        <time>2019-04-17T18:36:40Z</time>
      </trkpt>
      <trkpt lat="45.48727" lon="6.94331">
        <ele>1817</ele>
        <time>2019-04-17T18:37:40Z</time>
      </trkpt>
      <trkpt lat="45.48589" lon="6.94412">
        <ele>1815</ele>
        <time>2019-04-17T18:38:40Z</time>
      </trkpt>
      <trkpt lat="45.48495" lon="6.94472">
        <ele>1820</ele>
        <time>2019-04-17T18:39:40Z</time>
      </trkpt>
      <trkpt lat="45.48444" lon="6.94501">
        <ele>1822</ele>
        <time>2019-04-17T18:40:40Z</time>
      </trkpt>
      <trkpt lat="45.4834" lon="6.94519">
        <ele>1826</ele>
        <time>2019-04-17T18:41:40Z</time>
      </trkpt>
      <trkpt lat="45.48249" lon="6.9454">
        <ele>1816</ele>
        <time>2019-04-17T18:42:40Z</time>
      </trkpt>
      <trkpt lat="45.48184" lon="6.94566">
        <ele>1814</ele>
        <time>2019-04-17T18:43:40Z</time>
      </trkpt>
      <trkpt lat="45.48101" lon="6.9461">
        <ele>1815</ele>
        <time>2019-04-17T18:44:40Z</time>
      </trkpt>
      <trkpt lat="45.48037" lon="6.9465">
        <ele>1802</ele>
        <time>2019-04-17T18:45:40Z</time>
      </trkpt>
      <trkpt lat="45.48003" lon="6.94692">
        <ele>1800</ele>
        <time>2019-04-17T18:46:40Z</time>
      </trkpt>
      <trkpt lat="45.47951" lon="6.948">
        <ele>1807</ele>
        <time>2019-04-17T18:47:40Z</time>
      </trkpt>
      <trkpt lat="45.47901" lon="6.94872">
        <ele>1806</ele>
        <time>2019-04-17T18:48:40Z</time>
      </trkpt>
      <trkpt lat="45.47849" lon="6.94934">
        <ele>1807</ele>
        <time>2019-04-17T18:49:40Z</time>
      </trkpt>
      <trkpt lat="45.47793" lon="6.94986">
        <ele>1813</ele>
        <time>2019-04-17T18:50:40Z</time>
      </trkpt>
      <trkpt lat="45.47746" lon="6.95027">
        <ele>1811</ele>
        <time>2019-04-17T18:51:40Z</time>
      </trkpt>
      <trkpt lat="45.47735" lon="6.95035">
        <ele>1814</ele>
        <time>2019-04-17T18:52:40Z</time>
      </trkpt>
      <trkpt lat="45.47722" lon="6.95039">
        <ele>1815</ele>
        <time>2019-04-17T18:53:40Z</time>
      </trkpt>
      <trkpt lat="45.47709" lon="6.95037">
        <ele>1814</ele>
        <time>2019-04-17T18:54:40Z</time>
      </trkpt>
      <trkpt lat="45.47692" lon="6.95022">
        <ele>1811</ele>
        <time>2019-04-17T18:55:40Z</time>
      </trkpt>
      <trkpt lat="45.47685" lon="6.9501">
        <ele>1808</ele>
        <time>2019-04-17T18:56:40Z</time>
      </trkpt>
      <trkpt lat="45.47671" lon="6.9496">
        <ele>1800</ele>
        <time>2019-04-17T18:57:40Z</time>
      </trkpt>
      <trkpt lat="45.47664" lon="6.94945">
        <ele>1799</ele>
        <time>2019-04-17T18:58:40Z</time>
      </trkpt>
      <trkpt lat="45.4765" lon="6.9493">
        <ele>1798</ele>
        <time>2019-04-17T18:59:40Z</time>
      </trkpt>
      <trkpt lat="45.47639" lon="6.94924">
        <ele>1798</ele>
        <time>2019-04-17T19:00:40Z</time>
      </trkpt>
      <trkpt lat="45.47609" lon="6.94915">
        <ele>1799</ele>
        <time>2019-04-17T19:01:40Z</time>
      </trkpt>
      <trkpt lat="45.47584" lon="6.94914">
        <ele>1801</ele>
        <time>2019-04-17T19:02:40Z</time>
      </trkpt>
      <trkpt lat="45.47522" lon="6.94918">
        <ele>1809</ele>
        <time>2019-04-17T19:03:40Z</time>
      </trkpt>
      <trkpt lat="45.47512" lon="6.94916">
        <ele>1809</ele>
        <time>2019-04-17T19:04:40Z</time>
      </trkpt>
      <trkpt lat="45.47485" lon="6.9489">
        <ele>1800</ele>
        <time>2019-04-17T19:05:40Z</time>
      </trkpt>
      <trkpt lat="45.47463" lon="6.94861">
        <ele>1788</ele>
        <time>2019-04-17T19:06:40Z</time>
      </trkpt>
      <trkpt lat="45.47444" lon="6.94856">
        <ele>1785</ele>
        <time>2019-04-17T19:07:40Z</time>
      </trkpt>
      <trkpt lat="45.47425" lon="6.94857">
        <ele>1784</ele>
        <time>2019-04-17T19:08:40Z</time>
      </trkpt>
      <trkpt lat="45.47413" lon="6.94867">
        <ele>1785</ele>
        <time>2019-04-17T19:09:40Z</time>
      </trkpt>
      <trkpt lat="45.47402" lon="6.94884">
        <ele>1786</ele>
        <time>2019-04-17T19:10:40Z</time>
      </trkpt>
      <trkpt lat="45.47392" lon="6.94915">
        <ele>1790</ele>
        <time>2019-04-17T19:11:40Z</time>
      </trkpt>
      <trkpt lat="45.47355" lon="6.95134">
        <ele>1858</ele>
        <time>2019-04-17T19:12:40Z</time>
      </trkpt>
      <trkpt lat="45.47323" lon="6.95215">
        <ele>1856</ele>
        <time>2019-04-17T19:13:40Z</time>
      </trkpt>
      <trkpt lat="45.47242" lon="6.95302">
        <ele>1811</ele>
        <time>2019-04-17T19:14:40Z</time>
      </trkpt>
      <trkpt lat="45.47204" lon="6.95352">
        <ele>1802</ele>
        <time>2019-04-17T19:15:40Z</time>
      </trkpt>
      <trkpt lat="45.47193" lon="6.95387">
        <ele>1805</ele>
        <time>2019-04-17T19:16:40Z</time>
      </trkpt>
      <trkpt lat="45.47033" lon="6.95744">
        <ele>1841</ele>
        <time>2019-04-17T19:17:40Z</time>
      </trkpt>
      <trkpt lat="45.4693" lon="6.95884">
        <ele>1858</ele>
        <time>2019-04-17T19:18:40Z</time>
      </trkpt>
      <trkpt lat="45.46881" lon="6.95938">
        <ele>1864</ele>
        <time>2019-04-17T19:19:40Z</time>
      </trkpt>
      <trkpt lat="45.46851" lon="6.95955">
        <ele>1855</ele>
        <time>2019-04-17T19:20:40Z</time>
      </trkpt>
      <trkpt lat="45.46818" lon="6.95962">
        <ele>1842</ele>
        <time>2019-04-17T19:21:40Z</time>
      </trkpt>
      <trkpt lat="45.46776" lon="6.9596">
        <ele>1827</ele>
        <time>2019-04-17T19:22:40Z</time>
      </trkpt>
      <trkpt lat="45.46753" lon="6.95955">
        <ele>1819</ele>
        <time>2019-04-17T19:23:40Z</time>
      </trkpt>
      <trkpt lat="45.4673" lon="6.95954">
        <ele>1813</ele>
        <time>2019-04-17T19:24:40Z</time>
      </trkpt>
      <trkpt lat="45.46716" lon="6.95959">
        <ele>1811</ele>
        <time>2019-04-17T19:25:40Z</time>
      </trkpt>
      <trkpt lat="45.46701" lon="6.95969">
        <ele>1809</ele>
        <time>2019-04-17T19:26:40Z</time>
      </trkpt>
      <trkpt lat="45.46677" lon="6.95991">
        <ele>1806</ele>
        <time>2019-04-17T19:27:40Z</time>
      </trkpt>
      <trkpt lat="45.46653" lon="6.96017">
        <ele>1808</ele>
        <time>2019-04-17T19:28:40Z</time>
      </trkpt>
      <trkpt lat="45.466" lon="6.96089">
        <ele>1811</ele>
        <time>2019-04-17T19:29:40Z</time>
      </trkpt>
      <trkpt lat="45.46563" lon="6.96141">
        <ele>1811</ele>
        <time>2019-04-17T19:30:40Z</time>
      </trkpt>
      <trkpt lat="45.4651" lon="6.96195">
        <ele>1807</ele>
        <time>2019-04-17T19:31:40Z</time>
      </trkpt>
      <trkpt lat="45.46405" lon="6.96283">
        <ele>1809</ele>
        <time>2019-04-17T19:32:40Z</time>
      </trkpt>
      <trkpt lat="45.46367" lon="6.9632">
        <ele>1810</ele>
        <time>2019-04-17T19:33:40Z</time>
      </trkpt>
      <trkpt lat="45.46333" lon="6.96374">
        <ele>1807</ele>
        <time>2019-04-17T19:34:40Z</time>
      </trkpt>
      <trkpt lat="45.46294" lon="6.96414">
        <ele>1805</ele>
        <time>2019-04-17T19:35:40Z</time>
      </trkpt>
      <trkpt lat="45.46282" lon="6.96422">
        <ele>1804</ele>
        <time>2019-04-17T19:36:40Z</time>
      </trkpt>
      <trkpt lat="45.46276" lon="6.96413">
        <ele>1803</ele>
        <time>2019-04-17T19:37:40Z</time>
      </trkpt>
      <trkpt lat="45.46269" lon="6.96413">
        <ele>1802</ele>
        <time>2019-04-17T19:38:40Z</time>
      </trkpt>
      <trkpt lat="45.46263" lon="6.9642">
        <ele>1801</ele>
        <time>2019-04-17T19:39:40Z</time>
      </trkpt>
      <trkpt lat="45.46263" lon="6.9643">
        <ele>1803</ele>
        <time>2019-04-17T19:40:40Z</time>
      </trkpt>
      <trkpt lat="45.46122" lon="6.96505">
        <ele>1801</ele>
        <time>2019-04-17T19:41:40Z</time>
      </trkpt>
      <trkpt lat="45.45973" lon="6.96623">
        <ele>1800</ele>
        <time>2019-04-17T19:42:40Z</time>
      </trkpt>
      <trkpt lat="45.45967" lon="6.96617">
        <ele>1800</ele>
        <time>2019-04-17T19:43:40Z</time>
      </trkpt>
      <trkpt lat="45.4596" lon="6.96618">
        <ele>1800</ele>
        <time>2019-04-17T19:44:40Z</time>
      </trkpt>
      <trkpt lat="45.45956" lon="6.96626">
        <ele>1800</ele>
        <time>2019-04-17T19:45:40Z</time>
      </trkpt>
      <trkpt lat="45.45957" lon="6.96636">
        <ele>1800</ele>
        <time>2019-04-17T19:46:40Z</time>
      </trkpt>
      <trkpt lat="45.45545" lon="6.9696">
        <ele>1805</ele>
        <time>2019-04-17T19:47:40Z</time>
      </trkpt>
      <trkpt lat="45.45464" lon="6.97042">
        <ele>1809</ele>
        <time>2019-04-17T19:48:40Z</time>
      </trkpt>
      <trkpt lat="45.45435" lon="6.97084">
        <ele>1810</ele>
        <time>2019-04-17T19:49:40Z</time>
      </trkpt>
      <trkpt lat="45.45406" lon="6.97131">
        <ele>1810</ele>
        <time>2019-04-17T19:50:40Z</time>
      </trkpt>
      <trkpt lat="45.45351" lon="6.97234">
        <ele>1814</ele>
        <time>2019-04-17T19:51:40Z</time>
      </trkpt>
      <trkpt lat="45.45307" lon="6.97307">
        <ele>1815</ele>
        <time>2019-04-17T19:52:40Z</time>
      </trkpt>
      <trkpt lat="45.45268" lon="6.97359">
        <ele>1817</ele>
        <time>2019-04-17T19:53:40Z</time>
      </trkpt>
      <trkpt lat="45.45214" lon="6.97415">
        <ele>1820</ele>
        <time>2019-04-17T19:54:40Z</time>
      </trkpt>
      <trkpt lat="45.4518" lon="6.97458">
        <ele>1821</ele>
        <time>2019-04-17T19:55:40Z</time>
      </trkpt>
      <trkpt lat="45.45151" lon="6.9749">
        <ele>1820</ele>
        <time>2019-04-17T19:56:40Z</time>
      </trkpt>
      <trkpt lat="45.45108" lon="6.97566">
        <ele>1821</ele>
        <time>2019-04-17T19:57:40Z</time>
      </trkpt>
      <trkpt lat="45.45054" lon="6.9768">
        <ele>1824</ele>
        <time>2019-04-17T19:58:40Z</time>
      </trkpt>
      <trkpt lat="45.45039" lon="6.97707">
        <ele>1825</ele>
        <time>2019-04-17T19:59:40Z</time>
      </trkpt>
      <trkpt lat="45.4503" lon="6.97717">
        <ele>1825</ele>
        <time>2019-04-17T20:00:40Z</time>
      </trkpt>
      <trkpt lat="45.45016" lon="6.97729">
        <ele>1826</ele>
        <time>2019-04-17T20:01:40Z</time>
      </trkpt>
      <trkpt lat="45.4501" lon="6.97722">
        <ele>1826</ele>
        <time>2019-04-17T20:02:40Z</time>
      </trkpt>
      <trkpt lat="45.45006" lon="6.97721">
        <ele>1826</ele>
        <time>2019-04-17T20:03:40Z</time>
      </trkpt>
      <trkpt lat="45.44998" lon="6.97726">
        <ele>1826</ele>
        <time>2019-04-17T20:04:40Z</time>
      </trkpt>
      <trkpt lat="45.44995" lon="6.97737">
        <ele>1826</ele>
        <time>2019-04-17T20:05:40Z</time>
      </trkpt>
      <trkpt lat="45.44998" lon="6.97748">
        <ele>1826</ele>
        <time>2019-04-17T20:06:40Z</time>
      </trkpt>
      <trkpt lat="45.45" lon="6.97751">
        <ele>1826</ele>
        <time>2019-04-17T20:07:40Z</time>
      </trkpt>
      <trkpt lat="45.449" lon="6.97988">
        <ele>1837</ele>
        <time>2019-04-17T20:08:40Z</time>
      </trkpt>
      <trkpt lat="45.44892" lon="6.97987">
        <ele>1837</ele>
        <time>2019-04-17T20:09:40Z</time>
      </trkpt>
      <trkpt lat="45.44887" lon="6.97994">
        <ele>1838</ele>
        <time>2019-04-17T20:10:40Z</time>
      </trkpt>
      <trkpt lat="45.44885" lon="6.98002">
        <ele>1838</ele>
        <time>2019-04-17T20:11:40Z</time>
      </trkpt>
      <trkpt lat="45.44887" lon="6.98009">
        <ele>1838</ele>
        <time>2019-04-17T20:12:40Z</time>
      </trkpt>
      <trkpt lat="45.44892" lon="6.98014">
        <ele>1838</ele>
        <time>2019-04-17T20:13:40Z</time>
      </trkpt>
      <trkpt lat="45.44862" lon="6.98084">
        <ele>1837</ele>
        <time>2019-04-17T20:14:40Z</time>
      </trkpt>
      <trkpt lat="45.44823" lon="6.98168">
        <ele>1838</ele>
        <time>2019-04-17T20:15:40Z</time>
      </trkpt>
      <trkpt lat="45.44733" lon="6.98453">
        <ele>1843</ele>
        <time>2019-04-17T20:16:40Z</time>
      </trkpt>
      <trkpt lat="45.44696" lon="6.98563">
        <ele>1846</ele>
        <time>2019-04-17T20:17:40Z</time>
      </trkpt>
      <trkpt lat="45.44671" lon="6.98644">
        <ele>1849</ele>
        <time>2019-04-17T20:18:40Z</time>
      </trkpt>
      <trkpt lat="45.44662" lon="6.98686">
        <ele>1851</ele>
        <time>2019-04-17T20:19:40Z</time>
      </trkpt>
      <trkpt lat="45.44655" lon="6.98789">
        <ele>1853</ele>
        <time>2019-04-17T20:20:40Z</time>
      </trkpt>
      <trkpt lat="45.44649" lon="6.98792">
        <ele>1853</ele>
        <time>2019-04-17T20:21:40Z</time>
      </trkpt>
      <trkpt lat="45.44647" lon="6.98798">
        <ele>1853</ele>
        <time>2019-04-17T20:22:40Z</time>
      </trkpt>
      <trkpt lat="45.44647" lon="6.98805">
        <ele>1853</ele>
        <time>2019-04-17T20:23:40Z</time>
      </trkpt>
      <trkpt lat="45.44649" lon="6.9881">
        <ele>1853</ele>
        <time>2019-04-17T20:24:40Z</time>
      </trkpt>
      <trkpt lat="45.44654" lon="6.98814">
        <ele>1853</ele>
        <time>2019-04-17T20:25:40Z</time>
      </trkpt>
      <trkpt lat="45.44658" lon="6.98814">
        <ele>1853</ele>
        <time>2019-04-17T20:26:40Z</time>
      </trkpt>
      <trkpt lat="45.44674" lon="6.98911">
        <ele>1852</ele>
        <time>2019-04-17T20:27:40Z</time>
      </trkpt>
      <trkpt lat="45.44715" lon="6.99149">
        <ele>1856</ele>
        <time>2019-04-17T20:28:40Z</time>
      </trkpt>
      <trkpt lat="45.44736" lon="6.99306">
        <ele>1861</ele>
        <time>2019-04-17T20:29:40Z</time>
      </trkpt>
      <trkpt lat="45.44739" lon="6.99354">
        <ele>1862</ele>
        <time>2019-04-17T20:30:40Z</time>
      </trkpt>
      <trkpt lat="45.44738" lon="6.99424">
        <ele>1863</ele>
        <time>2019-04-17T20:31:40Z</time>
      </trkpt>
      <trkpt lat="45.44738" lon="6.9973">
        <ele>1873</ele>
        <time>2019-04-17T20:32:40Z</time>
      </trkpt>
      <trkpt lat="45.4475" lon="6.99881">
        <ele>1879</ele>
        <time>2019-04-17T20:33:40Z</time>
      </trkpt>
      <trkpt lat="45.44783" lon="7.0005">
        <ele>1895</ele>
        <time>2019-04-17T20:34:40Z</time>
      </trkpt>
      <trkpt lat="45.44787" lon="7.00145">
        <ele>1900</ele>
        <time>2019-04-17T20:35:40Z</time>
      </trkpt>
      <trkpt lat="45.44818" lon="7.00325">
        <ele>1903</ele>
        <time>2019-04-17T20:36:40Z</time>
      </trkpt>
      <trkpt lat="45.44827" lon="7.00586">
        <ele>1910</ele>
        <time>2019-04-17T20:37:40Z</time>
      </trkpt>
      <trkpt lat="45.4483" lon="7.00634">
        <ele>1911</ele>
        <time>2019-04-17T20:38:40Z</time>
      </trkpt>
      <trkpt lat="45.44839" lon="7.00674">
        <ele>1913</ele>
        <time>2019-04-17T20:39:40Z</time>
      </trkpt>
      <trkpt lat="45.44873" lon="7.00758">
        <ele>1923</ele>
        <time>2019-04-17T20:40:40Z</time>
      </trkpt>
      <trkpt lat="45.44963" lon="7.00959">
        <ele>1935</ele>
        <time>2019-04-17T20:41:40Z</time>
      </trkpt>
      <trkpt lat="45.44979" lon="7.00983">
        <ele>1937</ele>
        <time>2019-04-17T20:42:40Z</time>
      </trkpt>
      <trkpt lat="45.44986" lon="7.00998">
        <ele>1937</ele>
        <time>2019-04-17T20:43:40Z</time>
      </trkpt>
      <trkpt lat="45.45014" lon="7.01039">
        <ele>1940</ele>
        <time>2019-04-17T20:44:40Z</time>
      </trkpt>
      <trkpt lat="45.45029" lon="7.01064">
        <ele>1941</ele>
        <time>2019-04-17T20:45:40Z</time>
      </trkpt>
      <trkpt lat="45.45039" lon="7.01084">
        <ele>1942</ele>
        <time>2019-04-17T20:46:40Z</time>
      </trkpt>
      <trkpt lat="45.45049" lon="7.01109">
        <ele>1944</ele>
        <time>2019-04-17T20:47:40Z</time>
      </trkpt>
      <trkpt lat="45.45055" lon="7.01129">
        <ele>1945</ele>
        <time>2019-04-17T20:48:40Z</time>
      </trkpt>
      <trkpt lat="45.45055" lon="7.01147">
        <ele>1945</ele>
        <time>2019-04-17T20:49:40Z</time>
      </trkpt>
      <trkpt lat="45.45057" lon="7.01156">
        <ele>1946</ele>
        <time>2019-04-17T20:50:40Z</time>
      </trkpt>
      <trkpt lat="45.45067" lon="7.01181">
        <ele>1948</ele>
        <time>2019-04-17T20:51:40Z</time>
      </trkpt>
      <trkpt lat="45.45083" lon="7.01259">
        <ele>1952</ele>
        <time>2019-04-17T20:52:40Z</time>
      </trkpt>
      <trkpt lat="45.45111" lon="7.01336">
        <ele>1959</ele>
        <time>2019-04-17T20:53:40Z</time>
      </trkpt>
      <trkpt lat="45.45258" lon="7.01726">
        <ele>1984</ele>
        <time>2019-04-17T20:54:40Z</time>
      </trkpt>
      <trkpt lat="45.4527" lon="7.01773">
        <ele>1988</ele>
        <time>2019-04-17T20:55:40Z</time>
      </trkpt>
      <trkpt lat="45.45299" lon="7.01951">
        <ele>2000</ele>
        <time>2019-04-17T20:56:40Z</time>
      </trkpt>
      <trkpt lat="45.45302" lon="7.01979">
        <ele>2001</ele>
        <time>2019-04-17T20:57:40Z</time>
      </trkpt>
      <trkpt lat="45.453" lon="7.01998">
        <ele>2001</ele>
        <time>2019-04-17T20:58:40Z</time>
      </trkpt>
      <trkpt lat="45.45271" lon="7.02084">
        <ele>2002</ele>
        <time>2019-04-17T20:59:40Z</time>
      </trkpt>
      <trkpt lat="45.45259" lon="7.02129">
        <ele>2002</ele>
        <time>2019-04-17T21:00:40Z</time>
      </trkpt>
      <trkpt lat="45.45261" lon="7.02152">
        <ele>2004</ele>
        <time>2019-04-17T21:01:40Z</time>
      </trkpt>
      <trkpt lat="45.45266" lon="7.0217">
        <ele>2007</ele>
        <time>2019-04-17T21:02:40Z</time>
      </trkpt>
      <trkpt lat="45.45267" lon="7.02193">
        <ele>2010</ele>
        <time>2019-04-17T21:03:40Z</time>
      </trkpt>
      <trkpt lat="45.45263" lon="7.02215">
        <ele>2012</ele>
        <time>2019-04-17T21:04:40Z</time>
      </trkpt>
      <trkpt lat="45.45253" lon="7.02244">
        <ele>2014</ele>
        <time>2019-04-17T21:05:40Z</time>
      </trkpt>
      <trkpt lat="45.45226" lon="7.0228">
        <ele>2014</ele>
        <time>2019-04-17T21:06:40Z</time>
      </trkpt>
      <trkpt lat="45.45178" lon="7.02298">
        <ele>2010</ele>
        <time>2019-04-17T21:07:40Z</time>
      </trkpt>
      <trkpt lat="45.45152" lon="7.02341">
        <ele>2018</ele>
        <time>2019-04-17T21:08:40Z</time>
      </trkpt>
      <trkpt lat="45.45143" lon="7.02374">
        <ele>2023</ele>
        <time>2019-04-17T21:09:40Z</time>
      </trkpt>
      <trkpt lat="45.45143" lon="7.0241">
        <ele>2026</ele>
        <time>2019-04-17T21:10:40Z</time>
      </trkpt>
      <trkpt lat="45.45148" lon="7.02438">
        <ele>2026</ele>
        <time>2019-04-17T21:11:40Z</time>
      </trkpt>
      <trkpt lat="45.45247" lon="7.02706">
        <ele>2035</ele>
        <time>2019-04-17T21:12:40Z</time>
      </trkpt>
      <trkpt lat="45.4525" lon="7.02729">
        <ele>2035</ele>
        <time>2019-04-17T21:13:40Z</time>
      </trkpt>
      <trkpt lat="45.45258" lon="7.02833">
        <ele>2031</ele>
        <time>2019-04-17T21:14:40Z</time>
      </trkpt>
      <trkpt lat="45.45264" lon="7.02866">
        <ele>2032</ele>
        <time>2019-04-17T21:15:40Z</time>
      </trkpt>
      <trkpt lat="45.45376" lon="7.03152">
        <ele>2044</ele>
        <time>2019-04-17T21:16:40Z</time>
      </trkpt>
      <trkpt lat="45.45386" lon="7.03167">
        <ele>2045</ele>
        <time>2019-04-17T21:17:40Z</time>
      </trkpt>
      <trkpt lat="45.4539" lon="7.03189">
        <ele>2045</ele>
        <time>2019-04-17T21:18:40Z</time>
      </trkpt>
      <trkpt lat="45.45469" lon="7.03346">
        <ele>2053</ele>
        <time>2019-04-17T21:19:40Z</time>
      </trkpt>
      <trkpt lat="45.4548" lon="7.03401">
        <ele>2052</ele>
        <time>2019-04-17T21:20:40Z</time>
      </trkpt>
      <trkpt lat="45.45487" lon="7.03418">
        <ele>2051</ele>
        <time>2019-04-17T21:21:40Z</time>
      </trkpt>
      <trkpt lat="45.45487" lon="7.03436">
        <ele>2051</ele>
        <time>2019-04-17T21:22:40Z</time>
      </trkpt>
      <trkpt lat="45.45497" lon="7.0349">
        <ele>2051</ele>
        <time>2019-04-17T21:23:40Z</time>
      </trkpt>
      <trkpt lat="45.45496" lon="7.03603">
        <ele>2053</ele>
        <time>2019-04-17T21:24:40Z</time>
      </trkpt>
      <trkpt lat="45.45491" lon="7.03641">
        <ele>2053</ele>
        <time>2019-04-17T21:25:40Z</time>
      </trkpt>
      <trkpt lat="45.45482" lon="7.03658">
        <ele>2053</ele>
        <time>2019-04-17T21:26:40Z</time>
      </trkpt>
      <trkpt lat="45.45465" lon="7.03669">
        <ele>2054</ele>
        <time>2019-04-17T21:27:40Z</time>
      </trkpt>
      <trkpt lat="45.45414" lon="7.03664">
        <ele>2055</ele>
        <time>2019-04-17T21:28:40Z</time>
      </trkpt>
      <trkpt lat="45.45403" lon="7.0366">
        <ele>2059</ele>
        <time>2019-04-17T21:29:40Z</time>
      </trkpt>
      <trkpt lat="45.45394" lon="7.03651">
        <ele>2061</ele>
        <time>2019-04-17T21:30:40Z</time>
      </trkpt>
      <trkpt lat="45.45359" lon="7.03586">
        <ele>2066</ele>
        <time>2019-04-17T21:31:40Z</time>
      </trkpt>
      <trkpt lat="45.45348" lon="7.03561">
        <ele>2065</ele>
        <time>2019-04-17T21:32:40Z</time>
      </trkpt>
      <trkpt lat="45.45346" lon="7.03527">
        <ele>2062</ele>
        <time>2019-04-17T21:33:40Z</time>
      </trkpt>
      <trkpt lat="45.4534" lon="7.03516">
        <ele>2062</ele>
        <time>2019-04-17T21:34:40Z</time>
      </trkpt>
      <trkpt lat="45.45333" lon="7.03512">
        <ele>2063</ele>
        <time>2019-04-17T21:35:40Z</time>
      </trkpt>
      <trkpt lat="45.45325" lon="7.0352">
        <ele>2067</ele>
        <time>2019-04-17T21:36:40Z</time>
      </trkpt>
      <trkpt lat="45.45322" lon="7.03531">
        <ele>2069</ele>
        <time>2019-04-17T21:37:40Z</time>
      </trkpt>
      <trkpt lat="45.45327" lon="7.03545">
        <ele>2069</ele>
        <time>2019-04-17T21:38:40Z</time>
      </trkpt>
      <trkpt lat="45.45339" lon="7.03573">
        <ele>2069</ele>
        <time>2019-04-17T21:39:40Z</time>
      </trkpt>
      <trkpt lat="45.45377" lon="7.03771">
        <ele>2078</ele>
        <time>2019-04-17T21:40:40Z</time>
      </trkpt>
      <trkpt lat="45.45383" lon="7.03831">
        <ele>2080</ele>
        <time>2019-04-17T21:41:40Z</time>
      </trkpt>
      <trkpt lat="45.45379" lon="7.03922">
        <ele>2091</ele>
        <time>2019-04-17T21:42:40Z</time>
      </trkpt>
      <trkpt lat="45.45385" lon="7.03942">
        <ele>2091</ele>
        <time>2019-04-17T21:43:40Z</time>
      </trkpt>
      <trkpt lat="45.45397" lon="7.0396">
        <ele>2089</ele>
        <time>2019-04-17T21:44:40Z</time>
      </trkpt>
      <trkpt lat="45.45397" lon="7.0397">
        <ele>2091</ele>
        <time>2019-04-17T21:45:40Z</time>
      </trkpt>
      <trkpt lat="45.45391" lon="7.03981">
        <ele>2094</ele>
        <time>2019-04-17T21:46:40Z</time>
      </trkpt>
      <trkpt lat="45.45382" lon="7.03979">
        <ele>2097</ele>
        <time>2019-04-17T21:47:40Z</time>
      </trkpt>
      <trkpt lat="45.45375" lon="7.03969">
        <ele>2098</ele>
        <time>2019-04-17T21:48:40Z</time>
      </trkpt>
      <trkpt lat="45.45353" lon="7.03846">
        <ele>2093</ele>
        <time>2019-04-17T21:49:40Z</time>
      </trkpt>
      <trkpt lat="45.45316" lon="7.03742">
        <ele>2104</ele>
        <time>2019-04-17T21:50:40Z</time>
      </trkpt>
      <trkpt lat="45.45239" lon="7.03571">
        <ele>2109</ele>
        <time>2019-04-17T21:51:40Z</time>
      </trkpt>
      <trkpt lat="45.45206" lon="7.03476">
        <ele>2112</ele>
        <time>2019-04-17T21:52:40Z</time>
      </trkpt>
      <trkpt lat="45.45155" lon="7.03399">
        <ele>2128</ele>
        <time>2019-04-17T21:53:40Z</time>
      </trkpt>
      <trkpt lat="45.45103" lon="7.03233">
        <ele>2134</ele>
        <time>2019-04-17T21:54:40Z</time>
      </trkpt>
      <trkpt lat="45.45069" lon="7.0316">
        <ele>2141</ele>
        <time>2019-04-17T21:55:40Z</time>
      </trkpt>
      <trkpt lat="45.45041" lon="7.03074">
        <ele>2138</ele>
        <time>2019-04-17T21:56:40Z</time>
      </trkpt>
      <trkpt lat="45.45009" lon="7.03031">
        <ele>2151</ele>
        <time>2019-04-17T21:57:40Z</time>
      </trkpt>
      <trkpt lat="45.44974" lon="7.02939">
        <ele>2152</ele>
        <time>2019-04-17T21:58:40Z</time>
      </trkpt>
      <trkpt lat="45.44951" lon="7.0286">
        <ele>2152</ele>
        <time>2019-04-17T21:59:40Z</time>
      </trkpt>
      <trkpt lat="45.44913" lon="7.02769">
        <ele>2160</ele>
        <time>2019-04-17T22:00:40Z</time>
      </trkpt>
      <trkpt lat="45.44875" lon="7.02622">
        <ele>2169</ele>
        <time>2019-04-17T22:01:40Z</time>
      </trkpt>
      <trkpt lat="45.44842" lon="7.02519">
        <ele>2177</ele>
        <time>2019-04-17T22:02:40Z</time>
      </trkpt>
      <trkpt lat="45.44828" lon="7.02482">
        <ele>2178</ele>
        <time>2019-04-17T22:03:40Z</time>
      </trkpt>
      <trkpt lat="45.44795" lon="7.02422">
        <ele>2184</ele>
        <time>2019-04-17T22:04:40Z</time>
      </trkpt>
      <trkpt lat="45.44784" lon="7.02381">
        <ele>2183</ele>
        <time>2019-04-17T22:05:40Z</time>
      </trkpt>
      <trkpt lat="45.44698" lon="7.02208">
        <ele>2198</ele>
        <time>2019-04-17T22:06:40Z</time>
      </trkpt>
      <trkpt lat="45.44578" lon="7.02029">
        <ele>2214</ele>
        <time>2019-04-17T22:07:40Z</time>
      </trkpt>
      <trkpt lat="45.44534" lon="7.01947">
        <ele>2219</ele>
        <time>2019-04-17T22:08:40Z</time>
      </trkpt>
      <trkpt lat="45.44512" lon="7.01876">
        <ele>2215</ele>
        <time>2019-04-17T22:09:40Z</time>
      </trkpt>
      <trkpt lat="45.44502" lon="7.01856">
        <ele>2215</ele>
        <time>2019-04-17T22:10:40Z</time>
      </trkpt>
      <trkpt lat="45.44493" lon="7.01848">
        <ele>2217</ele>
        <time>2019-04-17T22:11:40Z</time>
      </trkpt>
      <trkpt lat="45.4448" lon="7.01862">
        <ele>2224</ele>
        <time>2019-04-17T22:12:40Z</time>
      </trkpt>
      <trkpt lat="45.44498" lon="7.01898">
        <ele>2226</ele>
        <time>2019-04-17T22:13:40Z</time>
      </trkpt>
      <trkpt lat="45.44522" lon="7.01981">
        <ele>2232</ele>
        <time>2019-04-17T22:14:40Z</time>
      </trkpt>
      <trkpt lat="45.44558" lon="7.02087">
        <ele>2233</ele>
        <time>2019-04-17T22:15:40Z</time>
      </trkpt>
      <trkpt lat="45.44578" lon="7.02184">
        <ele>2243</ele>
        <time>2019-04-17T22:16:40Z</time>
      </trkpt>
      <trkpt lat="45.44643" lon="7.02298">
        <ele>2242</ele>
        <time>2019-04-17T22:17:40Z</time>
      </trkpt>
      <trkpt lat="45.4468" lon="7.02401">
        <ele>2245</ele>
        <time>2019-04-17T22:18:40Z</time>
      </trkpt>
      <trkpt lat="45.44681" lon="7.0241">
        <ele>2246</ele>
        <time>2019-04-17T22:19:40Z</time>
      </trkpt>
      <trkpt lat="45.44678" lon="7.02419">
        <ele>2249</ele>
        <time>2019-04-17T22:20:40Z</time>
      </trkpt>
      <trkpt lat="45.44667" lon="7.02417">
        <ele>2255</ele>
        <time>2019-04-17T22:21:40Z</time>
      </trkpt>
      <trkpt lat="45.44626" lon="7.0232">
        <ele>2256</ele>
        <time>2019-04-17T22:22:40Z</time>
      </trkpt>
      <trkpt lat="45.44542" lon="7.02231">
        <ele>2269</ele>
        <time>2019-04-17T22:23:40Z</time>
      </trkpt>
      <trkpt lat="45.4452" lon="7.02196">
        <ele>2272</ele>
        <time>2019-04-17T22:24:40Z</time>
      </trkpt>
      <trkpt lat="45.44514" lon="7.02174">
        <ele>2271</ele>
        <time>2019-04-17T22:25:40Z</time>
      </trkpt>
      <trkpt lat="45.4448" lon="7.02104">
        <ele>2275</ele>
        <time>2019-04-17T22:26:40Z</time>
      </trkpt>
      <trkpt lat="45.44402" lon="7.01977">
        <ele>2284</ele>
        <time>2019-04-17T22:27:40Z</time>
      </trkpt>
      <trkpt lat="45.44375" lon="7.01942">
        <ele>2285</ele>
        <time>2019-04-17T22:28:40Z</time>
      </trkpt>
      <trkpt lat="45.44304" lon="7.01885">
        <ele>2300</ele>
        <time>2019-04-17T22:29:40Z</time>
      </trkpt>
      <trkpt lat="45.44276" lon="7.01849">
        <ele>2310</ele>
        <time>2019-04-17T22:30:40Z</time>
      </trkpt>
      <trkpt lat="45.44274" lon="7.01832">
        <ele>2310</ele>
        <time>2019-04-17T22:31:40Z</time>
      </trkpt>
      <trkpt lat="45.44292" lon="7.01767">
        <ele>2298</ele>
        <time>2019-04-17T22:32:40Z</time>
      </trkpt>
      <trkpt lat="45.44293" lon="7.01749">
        <ele>2296</ele>
        <time>2019-04-17T22:33:40Z</time>
      </trkpt>
      <trkpt lat="45.44283" lon="7.01711">
        <ele>2292</ele>
        <time>2019-04-17T22:34:40Z</time>
      </trkpt>
      <trkpt lat="45.44249" lon="7.01676">
        <ele>2299</ele>
        <time>2019-04-17T22:35:40Z</time>
      </trkpt>
      <trkpt lat="45.44197" lon="7.01675">
        <ele>2309</ele>
        <time>2019-04-17T22:36:40Z</time>
      </trkpt>
      <trkpt lat="45.44187" lon="7.01667">
        <ele>2310</ele>
        <time>2019-04-17T22:37:40Z</time>
      </trkpt>
      <trkpt lat="45.44178" lon="7.01648">
        <ele>2312</ele>
        <time>2019-04-17T22:38:40Z</time>
      </trkpt>
      <trkpt lat="45.44177" lon="7.01614">
        <ele>2312</ele>
        <time>2019-04-17T22:39:40Z</time>
      </trkpt>
      <trkpt lat="45.44179" lon="7.0157">
        <ele>2312</ele>
        <time>2019-04-17T22:40:40Z</time>
      </trkpt>
      <trkpt lat="45.44183" lon="7.01517">
        <ele>2311</ele>
        <time>2019-04-17T22:41:40Z</time>
      </trkpt>
      <trkpt lat="45.44197" lon="7.01461">
        <ele>2306</ele>
        <time>2019-04-17T22:42:40Z</time>
      </trkpt>
      <trkpt lat="45.44211" lon="7.01376">
        <ele>2309</ele>
        <time>2019-04-17T22:43:40Z</time>
      </trkpt>
      <trkpt lat="45.44211" lon="7.01351">
        <ele>2313</ele>
        <time>2019-04-17T22:44:40Z</time>
      </trkpt>
      <trkpt lat="45.44193" lon="7.01238">
        <ele>2329</ele>
        <time>2019-04-17T22:45:40Z</time>
      </trkpt>
      <trkpt lat="45.44193" lon="7.01214">
        <ele>2330</ele>
        <time>2019-04-17T22:46:40Z</time>
      </trkpt>
      <trkpt lat="45.44196" lon="7.01167">
        <ele>2329</ele>
        <time>2019-04-17T22:47:40Z</time>
      </trkpt>
      <trkpt lat="45.44191" lon="7.01134">
        <ele>2327</ele>
        <time>2019-04-17T22:48:40Z</time>
      </trkpt>
      <trkpt lat="45.44158" lon="7.01014">
        <ele>2324</ele>
        <time>2019-04-17T22:49:40Z</time>
      </trkpt>
      <trkpt lat="45.44146" lon="7.00955">
        <ele>2328</ele>
        <time>2019-04-17T22:50:40Z</time>
      </trkpt>
      <trkpt lat="45.44138" lon="7.00889">
        <ele>2326</ele>
        <time>2019-04-17T22:51:40Z</time>
      </trkpt>
      <trkpt lat="45.44132" lon="7.00858">
        <ele>2324</ele>
        <time>2019-04-17T22:52:40Z</time>
      </trkpt>
      <trkpt lat="45.44093" lon="7.00767">
        <ele>2327</ele>
        <time>2019-04-17T22:53:40Z</time>
      </trkpt>
      <trkpt lat="45.44037" lon="7.00664">
        <ele>2332</ele>
        <time>2019-04-17T22:54:40Z</time>
      </trkpt>
      <trkpt lat="45.44007" lon="7.00625">
        <ele>2333</ele>
        <time>2019-04-17T22:55:40Z</time>
      </trkpt>
      <trkpt lat="45.43946" lon="7.00579">
        <ele>2346</ele>
        <time>2019-04-17T22:56:40Z</time>
      </trkpt>
      <trkpt lat="45.439" lon="7.00526">
        <ele>2341</ele>
        <time>2019-04-17T22:57:40Z</time>
      </trkpt>
      <trkpt lat="45.43822" lon="7.00482">
        <ele>2346</ele>
        <time>2019-04-17T22:58:40Z</time>
      </trkpt>
      <trkpt lat="45.43751" lon="7.0043">
        <ele>2350</ele>
        <time>2019-04-17T22:59:40Z</time>
      </trkpt>
      <trkpt lat="45.43725" lon="7.00427">
        <ele>2360</ele>
        <time>2019-04-17T23:00:40Z</time>
      </trkpt>
      <trkpt lat="45.437" lon="7.00408">
        <ele>2363</ele>
        <time>2019-04-17T23:01:40Z</time>
      </trkpt>
      <trkpt lat="45.43643" lon="7.00338">
        <ele>2363</ele>
        <time>2019-04-17T23:02:40Z</time>
      </trkpt>
      <trkpt lat="45.43618" lon="7.00292">
        <ele>2361</ele>
        <time>2019-04-17T23:03:40Z</time>
      </trkpt>
      <trkpt lat="45.43523" lon="7.00229">
        <ele>2371</ele>
        <time>2019-04-17T23:04:40Z</time>
      </trkpt>
      <trkpt lat="45.4345" lon="7.0022">
        <ele>2384</ele>
        <time>2019-04-17T23:05:40Z</time>
      </trkpt>
      <trkpt lat="45.43407" lon="7.00202">
        <ele>2385</ele>
        <time>2019-04-17T23:06:40Z</time>
      </trkpt>
      <trkpt lat="45.4337" lon="7.00257">
        <ele>2402</ele>
        <time>2019-04-17T23:07:40Z</time>
      </trkpt>
      <trkpt lat="45.43352" lon="7.00259">
        <ele>2404</ele>
        <time>2019-04-17T23:08:40Z</time>
      </trkpt>
      <trkpt lat="45.433" lon="7.00229">
        <ele>2401</ele>
        <time>2019-04-17T23:09:40Z</time>
      </trkpt>
      <trkpt lat="45.43222" lon="7.00208">
        <ele>2408</ele>
        <time>2019-04-17T23:10:40Z</time>
      </trkpt>
      <trkpt lat="45.43199" lon="7.0018">
        <ele>2407</ele>
        <time>2019-04-17T23:11:40Z</time>
      </trkpt>
      <trkpt lat="45.43175" lon="7.00169">
        <ele>2410</ele>
        <time>2019-04-17T23:12:40Z</time>
      </trkpt>
      <trkpt lat="45.4315" lon="7.0017">
        <ele>2417</ele>
        <time>2019-04-17T23:13:40Z</time>
      </trkpt>
      <trkpt lat="45.43118" lon="7.0019">
        <ele>2429</ele>
        <time>2019-04-17T23:14:40Z</time>
      </trkpt>
      <trkpt lat="45.43116" lon="7.00213">
        <ele>2432</ele>
        <time>2019-04-17T23:15:40Z</time>
      </trkpt>
      <trkpt lat="45.43119" lon="7.00245">
        <ele>2433</ele>
        <time>2019-04-17T23:16:40Z</time>
      </trkpt>
      <trkpt lat="45.43126" lon="7.00269">
        <ele>2435</ele>
        <time>2019-04-17T23:17:40Z</time>
      </trkpt>
      <trkpt lat="45.43141" lon="7.00282">
        <ele>2432</ele>
        <time>2019-04-17T23:18:40Z</time>
      </trkpt>
      <trkpt lat="45.43156" lon="7.00292">
        <ele>2428</ele>
        <time>2019-04-17T23:19:40Z</time>
      </trkpt>
      <trkpt lat="45.43216" lon="7.00292">
        <ele>2423</ele>
        <time>2019-04-17T23:20:40Z</time>
      </trkpt>
      <trkpt lat="45.43286" lon="7.00336">
        <ele>2429</ele>
        <time>2019-04-17T23:21:40Z</time>
      </trkpt>
      <trkpt lat="45.43352" lon="7.0033">
        <ele>2423</ele>
        <time>2019-04-17T23:22:40Z</time>
      </trkpt>
      <trkpt lat="45.4336" lon="7.00333">
        <ele>2424</ele>
        <time>2019-04-17T23:23:40Z</time>
      </trkpt>
      <trkpt lat="45.4336" lon="7.00348">
        <ele>2427</ele>
        <time>2019-04-17T23:24:40Z</time>
      </trkpt>
      <trkpt lat="45.43366" lon="7.00365">
        <ele>2430</ele>
        <time>2019-04-17T23:25:40Z</time>
      </trkpt>
      <trkpt lat="45.43414" lon="7.00441">
        <ele>2441</ele>
        <time>2019-04-17T23:26:40Z</time>
      </trkpt>
      <trkpt lat="45.43453" lon="7.00484">
        <ele>2447</ele>
        <time>2019-04-17T23:27:40Z</time>
      </trkpt>
      <trkpt lat="45.43505" lon="7.00506">
        <ele>2450</ele>
        <time>2019-04-17T23:28:40Z</time>
      </trkpt>
      <trkpt lat="45.43571" lon="7.00517">
        <ele>2447</ele>
        <time>2019-04-17T23:29:40Z</time>
      </trkpt>
      <trkpt lat="45.43606" lon="7.00551">
        <ele>2452</ele>
        <time>2019-04-17T23:30:40Z</time>
      </trkpt>
      <trkpt lat="45.43636" lon="7.00575">
        <ele>2455</ele>
        <time>2019-04-17T23:31:40Z</time>
      </trkpt>
      <trkpt lat="45.43716" lon="7.00631">
        <ele>2450</ele>
        <time>2019-04-17T23:32:40Z</time>
      </trkpt>
      <trkpt lat="45.43719" lon="7.00639">
        <ele>2452</ele>
        <time>2019-04-17T23:33:40Z</time>
      </trkpt>
      <trkpt lat="45.43718" lon="7.00649">
        <ele>2456</ele>
        <time>2019-04-17T23:34:40Z</time>
      </trkpt>
      <trkpt lat="45.43708" lon="7.00653">
        <ele>2461</ele>
        <time>2019-04-17T23:35:40Z</time>
      </trkpt>
      <trkpt lat="45.43689" lon="7.00637">
        <ele>2462</ele>
        <time>2019-04-17T23:36:40Z</time>
      </trkpt>
      <trkpt lat="45.43569" lon="7.00574">
        <ele>2467</ele>
        <time>2019-04-17T23:37:40Z</time>
      </trkpt>
      <trkpt lat="45.43516" lon="7.00581">
        <ele>2475</ele>
        <time>2019-04-17T23:38:40Z</time>
      </trkpt>
      <trkpt lat="45.43471" lon="7.00601">
        <ele>2485</ele>
        <time>2019-04-17T23:39:40Z</time>
      </trkpt>
      <trkpt lat="45.43423" lon="7.00598">
        <ele>2485</ele>
        <time>2019-04-17T23:40:40Z</time>
      </trkpt>
      <trkpt lat="45.43419" lon="7.00607">
        <ele>2488</ele>
        <time>2019-04-17T23:41:40Z</time>
      </trkpt>
      <trkpt lat="45.43421" lon="7.00616">
        <ele>2491</ele>
        <time>2019-04-17T23:42:40Z</time>
      </trkpt>
      <trkpt lat="45.43483" lon="7.00632">
        <ele>2495</ele>
        <time>2019-04-17T23:43:40Z</time>
      </trkpt>
      <trkpt lat="45.43502" lon="7.00619">
        <ele>2490</ele>
        <time>2019-04-17T23:44:40Z</time>
      </trkpt>
      <trkpt lat="45.43533" lon="7.00618">
        <ele>2487</ele>
        <time>2019-04-17T23:45:40Z</time>
      </trkpt>
      <trkpt lat="45.43569" lon="7.00656">
        <ele>2497</ele>
        <time>2019-04-17T23:46:40Z</time>
      </trkpt>
      <trkpt lat="45.43609" lon="7.00676">
        <ele>2497</ele>
        <time>2019-04-17T23:47:40Z</time>
      </trkpt>
      <trkpt lat="45.43674" lon="7.00773">
        <ele>2510</ele>
        <time>2019-04-17T23:48:40Z</time>
      </trkpt>
      <trkpt lat="45.43712" lon="7.0084">
        <ele>2519</ele>
        <time>2019-04-17T23:49:40Z</time>
      </trkpt>
      <trkpt lat="45.43794" lon="7.00913">
        <ele>2508</ele>
        <time>2019-04-17T23:50:40Z</time>
      </trkpt>
      <trkpt lat="45.43827" lon="7.00956">
        <ele>2509</ele>
        <time>2019-04-17T23:51:40Z</time>
      </trkpt>
      <trkpt lat="45.43843" lon="7.00983">
        <ele>2513</ele>
        <time>2019-04-17T23:52:40Z</time>
      </trkpt>
      <trkpt lat="45.43858" lon="7.01019">
        <ele>2517</ele>
        <time>2019-04-17T23:53:40Z</time>
      </trkpt>
      <trkpt lat="45.43858" lon="7.01046">
        <ele>2520</ele>
        <time>2019-04-17T23:54:40Z</time>
      </trkpt>
      <trkpt lat="45.4384" lon="7.01047">
        <ele>2522</ele>
        <time>2019-04-17T23:55:40Z</time>
      </trkpt>
      <trkpt lat="45.43819" lon="7.01032">
        <ele>2526</ele>
        <time>2019-04-17T23:56:40Z</time>
      </trkpt>
      <trkpt lat="45.43805" lon="7.01029">
        <ele>2530</ele>
        <time>2019-04-17T23:57:40Z</time>
      </trkpt>
      <trkpt lat="45.4379" lon="7.01044">
        <ele>2535</ele>
        <time>2019-04-17T23:58:40Z</time>
      </trkpt>
      <trkpt lat="45.43762" lon="7.01108">
        <ele>2541</ele>
        <time>2019-04-17T23:59:40Z</time>
      </trkpt>
      <trkpt lat="45.43743" lon="7.01163">
        <ele>2540</ele>
        <time>2019-04-18T00:00:40Z</time>
      </trkpt>
      <trkpt lat="45.43722" lon="7.01186">
        <ele>2547</ele>
        <time>2019-04-18T00:01:40Z</time>
      </trkpt>
      <trkpt lat="45.43712" lon="7.01207">
        <ele>2549</ele>
        <time>2019-04-18T00:02:40Z</time>
      </trkpt>
      <trkpt lat="45.43712" lon="7.01235">
        <ele>2548</ele>
        <time>2019-04-18T00:03:40Z</time>
      </trkpt>
      <trkpt lat="45.43702" lon="7.01264">
        <ele>2548</ele>
        <time>2019-04-18T00:04:40Z</time>
      </trkpt>
      <trkpt lat="45.43687" lon="7.01283">
        <ele>2550</ele>
        <time>2019-04-18T00:05:40Z</time>
      </trkpt>
      <trkpt lat="45.43622" lon="7.01379">
        <ele>2549</ele>
        <time>2019-04-18T00:06:40Z</time>
      </trkpt>
      <trkpt lat="45.43607" lon="7.01389">
        <ele>2551</ele>
        <time>2019-04-18T00:07:40Z</time>
      </trkpt>
      <trkpt lat="45.4359" lon="7.01389">
        <ele>2554</ele>
        <time>2019-04-18T00:08:40Z</time>
      </trkpt>
      <trkpt lat="45.43557" lon="7.01379">
        <ele>2562</ele>
        <time>2019-04-18T00:09:40Z</time>
      </trkpt>
      <trkpt lat="45.43489" lon="7.01445">
        <ele>2564</ele>
        <time>2019-04-18T00:10:40Z</time>
      </trkpt>
      <trkpt lat="45.43384" lon="7.01525">
        <ele>2578</ele>
        <time>2019-04-18T00:11:40Z</time>
      </trkpt>
      <trkpt lat="45.43318" lon="7.0166">
        <ele>2578</ele>
        <time>2019-04-18T00:12:40Z</time>
      </trkpt>
      <trkpt lat="45.43298" lon="7.0171">
        <ele>2575</ele>
        <time>2019-04-18T00:13:40Z</time>
      </trkpt>
      <trkpt lat="45.4328" lon="7.01732">
        <ele>2576</ele>
        <time>2019-04-18T00:14:40Z</time>
      </trkpt>
      <trkpt lat="45.43235" lon="7.01773">
        <ele>2581</ele>
        <time>2019-04-18T00:15:40Z</time>
      </trkpt>
      <trkpt lat="45.43185" lon="7.01824">
        <ele>2582</ele>
        <time>2019-04-18T00:16:40Z</time>
      </trkpt>
      <trkpt lat="45.43153" lon="7.01841">
        <ele>2587</ele>
        <time>2019-04-18T00:17:40Z</time>
      </trkpt>
      <trkpt lat="45.43042" lon="7.01907">
        <ele>2602</ele>
        <time>2019-04-18T00:18:40Z</time>
      </trkpt>
      <trkpt lat="45.42898" lon="7.02107">
        <ele>2610</ele>
        <time>2019-04-18T00:19:40Z</time>
      </trkpt>
      <trkpt lat="45.42881" lon="7.02122">
        <ele>2611</ele>
        <time>2019-04-18T00:20:40Z</time>
      </trkpt>
      <trkpt lat="45.4286" lon="7.02133">
        <ele>2614</ele>
        <time>2019-04-18T00:21:40Z</time>
      </trkpt>
      <trkpt lat="45.4268" lon="7.02213">
        <ele>2627</ele>
        <time>2019-04-18T00:22:40Z</time>
      </trkpt>
      <trkpt lat="45.42635" lon="7.02247">
        <ele>2631</ele>
        <time>2019-04-18T00:23:40Z</time>
      </trkpt>
      <trkpt lat="45.42596" lon="7.02272">
        <ele>2634</ele>
        <time>2019-04-18T00:24:40Z</time>
      </trkpt>
      <trkpt lat="45.42523" lon="7.02265">
        <ele>2641</ele>
        <time>2019-04-18T00:25:40Z</time>
      </trkpt>
      <trkpt lat="45.42423" lon="7.02278">
        <ele>2650</ele>
        <time>2019-04-18T00:26:40Z</time>
      </trkpt>
      <trkpt lat="45.42394" lon="7.02291">
        <ele>2655</ele>
        <time>2019-04-18T00:27:40Z</time>
      </trkpt>
      <trkpt lat="45.42375" lon="7.02313">
        <ele>2657</ele>
        <time>2019-04-18T00:28:40Z</time>
      </trkpt>
      <trkpt lat="45.42363" lon="7.02333">
        <ele>2657</ele>
        <time>2019-04-18T00:29:40Z</time>
      </trkpt>
      <trkpt lat="45.42358" lon="7.02356">
        <ele>2658</ele>
        <time>2019-04-18T00:30:40Z</time>
      </trkpt>
      <trkpt lat="45.4236" lon="7.02386">
        <ele>2659</ele>
        <time>2019-04-18T00:31:40Z</time>
      </trkpt>
      <trkpt lat="45.42371" lon="7.02446">
        <ele>2658</ele>
        <time>2019-04-18T00:32:40Z</time>
      </trkpt>
      <trkpt lat="45.42371" lon="7.02473">
        <ele>2660</ele>
        <time>2019-04-18T00:33:40Z</time>
      </trkpt>
      <trkpt lat="45.42367" lon="7.02515">
        <ele>2663</ele>
        <time>2019-04-18T00:34:40Z</time>
      </trkpt>
      <trkpt lat="45.4236" lon="7.0253">
        <ele>2665</ele>
        <time>2019-04-18T00:35:40Z</time>
      </trkpt>
      <trkpt lat="45.42342" lon="7.026">
        <ele>2670</ele>
        <time>2019-04-18T00:36:40Z</time>
      </trkpt>
      <trkpt lat="45.42338" lon="7.02628">
        <ele>2674</ele>
        <time>2019-04-18T00:37:40Z</time>
      </trkpt>
      <trkpt lat="45.42345" lon="7.02659">
        <ele>2676</ele>
        <time>2019-04-18T00:38:40Z</time>
      </trkpt>
      <trkpt lat="45.42346" lon="7.02681">
        <ele>2677</ele>
        <time>2019-04-18T00:39:40Z</time>
      </trkpt>
      <trkpt lat="45.42343" lon="7.02696">
        <ele>2678</ele>
        <time>2019-04-18T00:40:40Z</time>
      </trkpt>
      <trkpt lat="45.42313" lon="7.02775">
        <ele>2684</ele>
        <time>2019-04-18T00:41:40Z</time>
      </trkpt>
      <trkpt lat="45.42282" lon="7.02832">
        <ele>2689</ele>
        <time>2019-04-18T00:42:40Z</time>
      </trkpt>
      <trkpt lat="45.42247" lon="7.02876">
        <ele>2696</ele>
        <time>2019-04-18T00:43:40Z</time>
      </trkpt>
      <trkpt lat="45.42232" lon="7.02881">
        <ele>2698</ele>
        <time>2019-04-18T00:44:40Z</time>
      </trkpt>
      <trkpt lat="45.42221" lon="7.02878">
        <ele>2698</ele>
        <time>2019-04-18T00:45:40Z</time>
      </trkpt>
      <trkpt lat="45.42215" lon="7.02874">
        <ele>2699</ele>
        <time>2019-04-18T00:46:40Z</time>
      </trkpt>
      <trkpt lat="45.4212" lon="7.02755">
        <ele>2704</ele>
        <time>2019-04-18T00:47:40Z</time>
      </trkpt>
      <trkpt lat="45.42109" lon="7.02745">
        <ele>2705</ele>
        <time>2019-04-18T00:48:40Z</time>
      </trkpt>
      <trkpt lat="45.42099" lon="7.02743">
        <ele>2705</ele>
        <time>2019-04-18T00:49:40Z</time>
      </trkpt>
      <trkpt lat="45.4209" lon="7.02745">
        <ele>2705</ele>
        <time>2019-04-18T00:50:40Z</time>
      </trkpt>
      <trkpt lat="45.42083" lon="7.02753">
        <ele>2706</ele>
        <time>2019-04-18T00:51:40Z</time>
      </trkpt>
      <trkpt lat="45.42076" lon="7.02769">
        <ele>2708</ele>
        <time>2019-04-18T00:52:40Z</time>
      </trkpt>
      <trkpt lat="45.42046" lon="7.02849">
        <ele>2714</ele>
        <time>2019-04-18T00:53:40Z</time>
      </trkpt>
      <trkpt lat="45.4204" lon="7.0286">
        <ele>2716</ele>
        <time>2019-04-18T00:54:40Z</time>
      </trkpt>
      <trkpt lat="45.4203" lon="7.02872">
        <ele>2718</ele>
        <time>2019-04-18T00:55:40Z</time>
      </trkpt>
      <trkpt lat="45.42022" lon="7.02877">
        <ele>2719</ele>
        <time>2019-04-18T00:56:40Z</time>
      </trkpt>
      <trkpt lat="45.42016" lon="7.02881">
        <ele>2719</ele>
        <time>2019-04-18T00:57:40Z</time>
      </trkpt>
      <trkpt lat="45.41996" lon="7.02883">
        <ele>2721</ele>
        <time>2019-04-18T00:58:40Z</time>
      </trkpt>
      <trkpt lat="45.41885" lon="7.0287">
        <ele>2730</ele>
        <time>2019-04-18T00:59:40Z</time>
      </trkpt>
      <trkpt lat="45.41874" lon="7.02874">
        <ele>2731</ele>
        <time>2019-04-18T01:00:40Z</time>
      </trkpt>
      <trkpt lat="45.41869" lon="7.02881">
        <ele>2732</ele>
        <time>2019-04-18T01:01:40Z</time>
      </trkpt>
      <trkpt lat="45.41869" lon="7.02888">
        <ele>2733</ele>
        <time>2019-04-18T01:02:40Z</time>
      </trkpt>
      <trkpt lat="45.41871" lon="7.02894">
        <ele>2733</ele>
        <time>2019-04-18T01:03:40Z</time>
      </trkpt>
      <trkpt lat="45.41878" lon="7.02901">
        <ele>2733</ele>
        <time>2019-04-18T01:04:40Z</time>
      </trkpt>
      <trkpt lat="45.41896" lon="7.02903">
        <ele>2732</ele>
        <time>2019-04-18T01:05:40Z</time>
      </trkpt>
      <trkpt lat="45.41902" lon="7.02908">
        <ele>2732</ele>
        <time>2019-04-18T01:06:40Z</time>
      </trkpt>
      <trkpt lat="45.41908" lon="7.02917">
        <ele>2732</ele>
        <time>2019-04-18T01:07:40Z</time>
      </trkpt>
      <trkpt lat="45.41929" lon="7.02967">
        <ele>2740</ele>
        <time>2019-04-18T01:08:40Z</time>
      </trkpt>
      <trkpt lat="45.41936" lon="7.02987">
        <ele>2743</ele>
        <time>2019-04-18T01:09:40Z</time>
      </trkpt>
      <trkpt lat="45.41939" lon="7.03005">
        <ele>2747</ele>
        <time>2019-04-18T01:10:40Z</time>
      </trkpt>
      <trkpt lat="45.41938" lon="7.03013">
        <ele>2748</ele>
        <time>2019-04-18T01:11:40Z</time>
      </trkpt>
      <trkpt lat="45.41934" lon="7.03019">
        <ele>2750</ele>
        <time>2019-04-18T01:12:40Z</time>
      </trkpt>
      <trkpt lat="45.41926" lon="7.03019">
        <ele>2750</ele>
        <time>2019-04-18T01:13:40Z</time>
      </trkpt>
      <trkpt lat="45.4192" lon="7.03009">
        <ele>2748</ele>
        <time>2019-04-18T01:14:40Z</time>
      </trkpt>
      <trkpt lat="45.41914" lon="7.02989">
        <ele>2744</ele>
        <time>2019-04-18T01:15:40Z</time>
      </trkpt>
      <trkpt lat="45.41909" lon="7.02981">
        <ele>2743</ele>
        <time>2019-04-18T01:16:40Z</time>
      </trkpt>
      <trkpt lat="45.419" lon="7.02972">
        <ele>2742</ele>
        <time>2019-04-18T01:17:40Z</time>
      </trkpt>
      <trkpt lat="45.41879" lon="7.02967">
        <ele>2743</ele>
        <time>2019-04-18T01:18:40Z</time>
      </trkpt>
      <trkpt lat="45.41867" lon="7.02972">
        <ele>2745</ele>
        <time>2019-04-18T01:19:40Z</time>
      </trkpt>
      <trkpt lat="45.41856" lon="7.02984">
        <ele>2748</ele>
        <time>2019-04-18T01:20:40Z</time>
      </trkpt>
      <trkpt lat="45.41823" lon="7.03032">
        <ele>2756</ele>
        <time>2019-04-18T01:21:40Z</time>
      </trkpt>
      <trkpt lat="45.41806" lon="7.03043">
        <ele>2758</ele>
        <time>2019-04-18T01:22:40Z</time>
      </trkpt>
      <trkpt lat="45.41739" lon="7.0306">
        <ele>2761</ele>
        <time>2019-04-18T01:23:40Z</time>
      </trkpt>
      <trkpt lat="45.41724" lon="7.03068">
        <ele>2762</ele>
        <time>2019-04-18T01:24:40Z</time>
      </trkpt>
      <trkpt lat="45.41711" lon="7.03083">
        <ele>2762</ele>
        <time>2019-04-18T01:25:40Z</time>
      </trkpt>
      <trkpt lat="45.41704" lon="7.03098">
        <ele>2761</ele>
        <time>2019-04-18T01:26:40Z</time>
      </trkpt>
      <trkpt lat="45.41697" lon="7.03121">
        <ele>2759</ele>
        <time>2019-04-18T01:27:40Z</time>
      </trkpt>
      <trkpt lat="45.41694" lon="7.03134">
        <ele>2758</ele>
        <time>2019-04-18T01:28:40Z</time>
      </trkpt>
      <trkpt lat="45.41694" lon="7.03148">
        <ele>2757</ele>
        <time>2019-04-18T01:29:40Z</time>
      </trkpt>
      <trkpt lat="45.41695" lon="7.03164">
        <ele>2756</ele>
        <time>2019-04-18T01:30:40Z</time>
      </trkpt>
      <trkpt lat="45.417" lon="7.03176">
        <ele>2753</ele>
        <time>2019-04-18T01:31:40Z</time>
      </trkpt>
      <trkpt lat="45.41708" lon="7.03187">
        <ele>2751</ele>
        <time>2019-04-18T01:32:40Z</time>
      </trkpt>
      <trkpt lat="45.41722" lon="7.03196">
        <ele>2750</ele>
        <time>2019-04-18T01:33:40Z</time>
      </trkpt>
      <trkpt lat="45.41773" lon="7.03208">
        <ele>2753</ele>
        <time>2019-04-18T01:34:40Z</time>
      </trkpt>
      <trkpt lat="45.41785" lon="7.03216">
        <ele>2752</ele>
        <time>2019-04-18T01:35:40Z</time>
      </trkpt>
      <trkpt lat="45.41807" lon="7.03238">
        <ele>2751</ele>
        <time>2019-04-18T01:36:40Z</time>
      </trkpt>
      <trkpt lat="45.41836" lon="7.03258">
        <ele>2751</ele>
        <time>2019-04-18T01:37:40Z</time>
      </trkpt>
      <trkpt lat="45.41859" lon="7.0327">
        <ele>2752</ele>
        <time>2019-04-18T01:38:40Z</time>
      </trkpt>
      <trkpt lat="45.41873" lon="7.03283">
        <ele>2752</ele>
        <time>2019-04-18T01:39:40Z</time>
      </trkpt>
      <trkpt lat="45.41881" lon="7.03307">
        <ele>2749</ele>
        <time>2019-04-18T01:40:40Z</time>
      </trkpt>
      <trkpt lat="45.41899" lon="7.03456">
        <ele>2729</ele>
        <time>2019-04-18T01:41:40Z</time>
      </trkpt>
      <trkpt lat="45.41906" lon="7.03487">
        <ele>2724</ele>
        <time>2019-04-18T01:42:40Z</time>
      </trkpt>
      <trkpt lat="45.4191" lon="7.03498">
        <ele>2723</ele>
        <time>2019-04-18T01:43:40Z</time>
      </trkpt>
      <trkpt lat="45.41915" lon="7.03511">
        <ele>2722</ele>
        <time>2019-04-18T01:44:40Z</time>
      </trkpt>
      <trkpt lat="45.41973" lon="7.03604">
        <ele>2718</ele>
        <time>2019-04-18T01:45:40Z</time>
      </trkpt>
      <trkpt lat="45.41993" lon="7.03633">
        <ele>2716</ele>
        <time>2019-04-18T01:46:40Z</time>
      </trkpt>
      <trkpt lat="45.42043" lon="7.03693">
        <ele>2718</ele>
        <time>2019-04-18T01:47:40Z</time>
      </trkpt>
      <trkpt lat="45.4207" lon="7.03733">
        <ele>2720</ele>
        <time>2019-04-18T01:48:40Z</time>
      </trkpt>
      <trkpt lat="45.42074" lon="7.03745">
        <ele>2719</ele>
        <time>2019-04-18T01:49:40Z</time>
      </trkpt>
      <trkpt lat="45.42074" lon="7.03751">
        <ele>2717</ele>
        <time>2019-04-18T01:50:40Z</time>
      </trkpt>
      <trkpt lat="45.42072" lon="7.03754">
        <ele>2716</ele>
        <time>2019-04-18T01:51:40Z</time>
      </trkpt>
      <trkpt lat="45.42067" lon="7.03759">
        <ele>2714</ele>
        <time>2019-04-18T01:52:40Z</time>
      </trkpt>
      <trkpt lat="45.4206" lon="7.03758">
        <ele>2711</ele>
        <time>2019-04-18T01:53:40Z</time>
      </trkpt>
      <trkpt lat="45.42053" lon="7.03753">
        <ele>2709</ele>
        <time>2019-04-18T01:54:40Z</time>
      </trkpt>
      <trkpt lat="45.42035" lon="7.03719">
        <ele>2710</ele>
        <time>2019-04-18T01:55:40Z</time>
      </trkpt>
      <trkpt lat="45.42027" lon="7.03706">
        <ele>2709</ele>
        <time>2019-04-18T01:56:40Z</time>
      </trkpt>
      <trkpt lat="45.42014" lon="7.03692">
        <ele>2708</ele>
        <time>2019-04-18T01:57:40Z</time>
      </trkpt>
      <trkpt lat="45.4198" lon="7.03662">
        <ele>2703</ele>
        <time>2019-04-18T01:58:40Z</time>
      </trkpt>
      <trkpt lat="45.41966" lon="7.03653">
        <ele>2701</ele>
        <time>2019-04-18T01:59:40Z</time>
      </trkpt>
      <trkpt lat="45.41929" lon="7.03635">
        <ele>2694</ele>
        <time>2019-04-18T02:00:40Z</time>
      </trkpt>
      <trkpt lat="45.41919" lon="7.03627">
        <ele>2692</ele>
        <time>2019-04-18T02:01:40Z</time>
      </trkpt>
      <trkpt lat="45.41862" lon="7.03574">
        <ele>2687</ele>
        <time>2019-04-18T02:02:40Z</time>
      </trkpt>
      <trkpt lat="45.41844" lon="7.03552">
        <ele>2687</ele>
        <time>2019-04-18T02:03:40Z</time>
      </trkpt>
      <trkpt lat="45.41824" lon="7.03534">
        <ele>2686</ele>
        <time>2019-04-18T02:04:40Z</time>
      </trkpt>
      <trkpt lat="45.41803" lon="7.03518">
        <ele>2684</ele>
        <time>2019-04-18T02:05:40Z</time>
      </trkpt>
      <trkpt lat="45.41791" lon="7.03513">
        <ele>2682</ele>
        <time>2019-04-18T02:06:40Z</time>
      </trkpt>
      <trkpt lat="45.41758" lon="7.03514">
        <ele>2672</ele>
        <time>2019-04-18T02:07:40Z</time>
      </trkpt>
      <trkpt lat="45.41748" lon="7.03511">
        <ele>2670</ele>
        <time>2019-04-18T02:08:40Z</time>
      </trkpt>
      <trkpt lat="45.4174" lon="7.03507">
        <ele>2669</ele>
        <time>2019-04-18T02:09:40Z</time>
      </trkpt>
      <trkpt lat="45.41715" lon="7.03489">
        <ele>2665</ele>
        <time>2019-04-18T02:10:40Z</time>
      </trkpt>
      <trkpt lat="45.41705" lon="7.03479">
        <ele>2664</ele>
        <time>2019-04-18T02:11:40Z</time>
      </trkpt>
      <trkpt lat="45.41685" lon="7.03442">
        <ele>2665</ele>
        <time>2019-04-18T02:12:40Z</time>
      </trkpt>
      <trkpt lat="45.41669" lon="7.03423">
        <ele>2664</ele>
        <time>2019-04-18T02:13:40Z</time>
      </trkpt>
      <trkpt lat="45.41654" lon="7.03408">
        <ele>2663</ele>
        <time>2019-04-18T02:14:40Z</time>
      </trkpt>
      <trkpt lat="45.41617" lon="7.03392">
        <ele>2656</ele>
        <time>2019-04-18T02:15:40Z</time>
      </trkpt>
      <trkpt lat="45.41555" lon="7.03352">
        <ele>2646</ele>
        <time>2019-04-18T02:16:40Z</time>
      </trkpt>
      <trkpt lat="45.41547" lon="7.03343">
        <ele>2645</ele>
        <time>2019-04-18T02:17:40Z</time>
      </trkpt>
      <trkpt lat="45.4153" lon="7.0331">
        <ele>2651</ele>
        <time>2019-04-18T02:18:40Z</time>
      </trkpt>
      <trkpt lat="45.41523" lon="7.03302">
        <ele>2651</ele>
        <time>2019-04-18T02:19:40Z</time>
      </trkpt>
      <trkpt lat="45.41473" lon="7.03267">
        <ele>2642</ele>
        <time>2019-04-18T02:20:40Z</time>
      </trkpt>
      <trkpt lat="45.41453" lon="7.03249">
        <ele>2638</ele>
        <time>2019-04-18T02:21:40Z</time>
      </trkpt>
      <trkpt lat="45.41436" lon="7.0323">
        <ele>2634</ele>
        <time>2019-04-18T02:22:40Z</time>
      </trkpt>
      <trkpt lat="45.41417" lon="7.03201">
        <ele>2631</ele>
        <time>2019-04-18T02:23:40Z</time>
      </trkpt>
      <trkpt lat="45.41386" lon="7.03143">
        <ele>2629</ele>
        <time>2019-04-18T02:24:40Z</time>
      </trkpt>
      <trkpt lat="45.41354" lon="7.03079">
        <ele>2626</ele>
        <time>2019-04-18T02:25:40Z</time>
      </trkpt>
      <trkpt lat="45.41315" lon="7.03027">
        <ele>2619</ele>
        <time>2019-04-18T02:26:40Z</time>
      </trkpt>
      <trkpt lat="45.41267" lon="7.02985">
        <ele>2610</ele>
        <time>2019-04-18T02:27:40Z</time>
      </trkpt>
      <trkpt lat="45.41243" lon="7.0297">
        <ele>2605</ele>
        <time>2019-04-18T02:28:40Z</time>
      </trkpt>
      <trkpt lat="45.41169" lon="7.02931">
        <ele>2592</ele>
        <time>2019-04-18T02:29:40Z</time>
      </trkpt>
      <trkpt lat="45.41138" lon="7.02919">
        <ele>2587</ele>
        <time>2019-04-18T02:30:40Z</time>
      </trkpt>
      <trkpt lat="45.41122" lon="7.02911">
        <ele>2584</ele>
        <time>2019-04-18T02:31:40Z</time>
      </trkpt>
      <trkpt lat="45.41108" lon="7.02898">
        <ele>2583</ele>
        <time>2019-04-18T02:32:40Z</time>
      </trkpt>
      <trkpt lat="45.41077" lon="7.02861">
        <ele>2581</ele>
        <time>2019-04-18T02:33:40Z</time>
      </trkpt>
      <trkpt lat="45.41034" lon="7.02801">
        <ele>2577</ele>
        <time>2019-04-18T02:34:40Z</time>
      </trkpt>
      <trkpt lat="45.41019" lon="7.02784">
        <ele>2575</ele>
        <time>2019-04-18T02:35:40Z</time>
      </trkpt>
      <trkpt lat="45.41001" lon="7.0277">
        <ele>2571</ele>
        <time>2019-04-18T02:36:40Z</time>
      </trkpt>
      <trkpt lat="45.40961" lon="7.02755">
        <ele>2566</ele>
        <time>2019-04-18T02:37:40Z</time>
      </trkpt>
      <trkpt lat="45.40944" lon="7.02757">
        <ele>2562</ele>
        <time>2019-04-18T02:38:40Z</time>
      </trkpt>
      <trkpt lat="45.40928" lon="7.02763">
        <ele>2558</ele>
        <time>2019-04-18T02:39:40Z</time>
      </trkpt>
      <trkpt lat="45.40896" lon="7.02787">
        <ele>2551</ele>
        <time>2019-04-18T02:40:40Z</time>
      </trkpt>
      <trkpt lat="45.40878" lon="7.02796">
        <ele>2549</ele>
        <time>2019-04-18T02:41:40Z</time>
      </trkpt>
      <trkpt lat="45.4086" lon="7.02798">
        <ele>2547</ele>
        <time>2019-04-18T02:42:40Z</time>
      </trkpt>
      <trkpt lat="45.40843" lon="7.02795">
        <ele>2547</ele>
        <time>2019-04-18T02:43:40Z</time>
      </trkpt>
      <trkpt lat="45.40813" lon="7.02779">
        <ele>2546</ele>
        <time>2019-04-18T02:44:40Z</time>
      </trkpt>
      <trkpt lat="45.40795" lon="7.02774">
        <ele>2544</ele>
        <time>2019-04-18T02:45:40Z</time>
      </trkpt>
      <trkpt lat="45.40754" lon="7.02784">
        <ele>2536</ele>
        <time>2019-04-18T02:46:40Z</time>
      </trkpt>
      <trkpt lat="45.4074" lon="7.02783">
        <ele>2535</ele>
        <time>2019-04-18T02:47:40Z</time>
      </trkpt>
      <trkpt lat="45.40709" lon="7.0277">
        <ele>2536</ele>
        <time>2019-04-18T02:48:40Z</time>
      </trkpt>
      <trkpt lat="45.40695" lon="7.02769">
        <ele>2536</ele>
        <time>2019-04-18T02:49:40Z</time>
      </trkpt>
      <trkpt lat="45.40674" lon="7.0277">
        <ele>2535</ele>
        <time>2019-04-18T02:50:40Z</time>
      </trkpt>
      <trkpt lat="45.4065" lon="7.02783">
        <ele>2532</ele>
        <time>2019-04-18T02:51:40Z</time>
      </trkpt>
      <trkpt lat="45.40638" lon="7.02797">
        <ele>2530</ele>
        <time>2019-04-18T02:52:40Z</time>
      </trkpt>
      <trkpt lat="45.40627" lon="7.02817">
        <ele>2528</ele>
        <time>2019-04-18T02:53:40Z</time>
      </trkpt>
      <trkpt lat="45.40599" lon="7.0289">
        <ele>2530</ele>
        <time>2019-04-18T02:54:40Z</time>
      </trkpt>
      <trkpt lat="45.40593" lon="7.029">
        <ele>2530</ele>
        <time>2019-04-18T02:55:40Z</time>
      </trkpt>
      <trkpt lat="45.40584" lon="7.02906">
        <ele>2530</ele>
        <time>2019-04-18T02:56:40Z</time>
      </trkpt>
      <trkpt lat="45.40564" lon="7.02912">
        <ele>2526</ele>
        <time>2019-04-18T02:57:40Z</time>
      </trkpt>
      <trkpt lat="45.40551" lon="7.0292">
        <ele>2524</ele>
        <time>2019-04-18T02:58:40Z</time>
      </trkpt>
      <trkpt lat="45.40539" lon="7.02933">
        <ele>2523</ele>
        <time>2019-04-18T02:59:40Z</time>
      </trkpt>
      <trkpt lat="45.40519" lon="7.02959">
        <ele>2520</ele>
        <time>2019-04-18T03:00:40Z</time>
      </trkpt>
      <trkpt lat="45.40482" lon="7.03013">
        <ele>2511</ele>
        <time>2019-04-18T03:01:40Z</time>
      </trkpt>
      <trkpt lat="45.40476" lon="7.03031">
        <ele>2512</ele>
        <time>2019-04-18T03:02:40Z</time>
      </trkpt>
      <trkpt lat="45.40474" lon="7.03051">
        <ele>2514</ele>
        <time>2019-04-18T03:03:40Z</time>
      </trkpt>
      <trkpt lat="45.40476" lon="7.03066">
        <ele>2518</ele>
        <time>2019-04-18T03:04:40Z</time>
      </trkpt>
      <trkpt lat="45.40483" lon="7.03087">
        <ele>2525</ele>
        <time>2019-04-18T03:05:40Z</time>
      </trkpt>
      <trkpt lat="45.40484" lon="7.03102">
        <ele>2529</ele>
        <time>2019-04-18T03:06:40Z</time>
      </trkpt>
      <trkpt lat="45.4048" lon="7.03122">
        <ele>2531</ele>
        <time>2019-04-18T03:07:40Z</time>
      </trkpt>
      <trkpt lat="45.40468" lon="7.0315">
        <ele>2529</ele>
        <time>2019-04-18T03:08:40Z</time>
      </trkpt>
      <trkpt lat="45.40432" lon="7.03208">
        <ele>2524</ele>
        <time>2019-04-18T03:09:40Z</time>
      </trkpt>
      <trkpt lat="45.40419" lon="7.03217">
        <ele>2519</ele>
        <time>2019-04-18T03:10:40Z</time>
      </trkpt>
      <trkpt lat="45.40406" lon="7.0322">
        <ele>2514</ele>
        <time>2019-04-18T03:11:40Z</time>
      </trkpt>
      <trkpt lat="45.40387" lon="7.03229">
        <ele>2507</ele>
        <time>2019-04-18T03:12:40Z</time>
      </trkpt>
      <trkpt lat="45.40329" lon="7.03283">
        <ele>2499</ele>
        <time>2019-04-18T03:13:40Z</time>
      </trkpt>
      <trkpt lat="45.40312" lon="7.03306">
        <ele>2502</ele>
        <time>2019-04-18T03:14:40Z</time>
      </trkpt>
      <trkpt lat="45.40299" lon="7.03328">
        <ele>2504</ele>
        <time>2019-04-18T03:15:40Z</time>
      </trkpt>
      <trkpt lat="45.40292" lon="7.03353">
        <ele>2505</ele>
        <time>2019-04-18T03:16:40Z</time>
      </trkpt>
      <trkpt lat="45.40253" lon="7.03505">
        <ele>2505</ele>
        <time>2019-04-18T03:17:40Z</time>
      </trkpt>
      <trkpt lat="45.40244" lon="7.03531">
        <ele>2506</ele>
        <time>2019-04-18T03:18:40Z</time>
      </trkpt>
      <trkpt lat="45.40234" lon="7.03547">
        <ele>2503</ele>
        <time>2019-04-18T03:19:40Z</time>
      </trkpt>
      <trkpt lat="45.40221" lon="7.03562">
        <ele>2497</ele>
        <time>2019-04-18T03:20:40Z</time>
      </trkpt>
      <trkpt lat="45.40196" lon="7.03581">
        <ele>2483</ele>
        <time>2019-04-18T03:21:40Z</time>
      </trkpt>
      <trkpt lat="45.4016" lon="7.03611">
        <ele>2464</ele>
        <time>2019-04-18T03:22:40Z</time>
      </trkpt>
      <trkpt lat="45.40154" lon="7.0362">
        <ele>2462</ele>
        <time>2019-04-18T03:23:40Z</time>
      </trkpt>
      <trkpt lat="45.4015" lon="7.03631">
        <ele>2462</ele>
        <time>2019-04-18T03:24:40Z</time>
      </trkpt>
      <trkpt lat="45.40154" lon="7.03666">
        <ele>2472</ele>
        <time>2019-04-18T03:25:40Z</time>
      </trkpt>
      <trkpt lat="45.40152" lon="7.03769">
        <ele>2499</ele>
        <time>2019-04-18T03:26:40Z</time>
      </trkpt>
      <trkpt lat="45.40148" lon="7.03785">
        <ele>2500</ele>
        <time>2019-04-18T03:27:40Z</time>
      </trkpt>
      <trkpt lat="45.40138" lon="7.03797">
        <ele>2495</ele>
        <time>2019-04-18T03:28:40Z</time>
      </trkpt>
      <trkpt lat="45.40124" lon="7.0381">
        <ele>2487</ele>
        <time>2019-04-18T03:29:40Z</time>
      </trkpt>
      <trkpt lat="45.40118" lon="7.0382">
        <ele>2485</ele>
        <time>2019-04-18T03:30:40Z</time>
      </trkpt>
      <trkpt lat="45.40112" lon="7.0385">
        <ele>2486</ele>
        <time>2019-04-18T03:31:40Z</time>
      </trkpt>
      <trkpt lat="45.401" lon="7.0388">
        <ele>2480</ele>
        <time>2019-04-18T03:32:40Z</time>
      </trkpt>
      <trkpt lat="45.40098" lon="7.0389">
        <ele>2480</ele>
        <time>2019-04-18T03:33:40Z</time>
      </trkpt>
      <trkpt lat="45.40102" lon="7.03917">
        <ele>2488</ele>
        <time>2019-04-18T03:34:40Z</time>
      </trkpt>
      <trkpt lat="45.40101" lon="7.03939">
        <ele>2491</ele>
        <time>2019-04-18T03:35:40Z</time>
      </trkpt>
      <trkpt lat="45.40085" lon="7.0397">
        <ele>2481</ele>
        <time>2019-04-18T03:36:40Z</time>
      </trkpt>
      <trkpt lat="45.40077" lon="7.0401">
        <ele>2480</ele>
        <time>2019-04-18T03:37:40Z</time>
      </trkpt>
      <trkpt lat="45.40061" lon="7.04102">
        <ele>2484</ele>
        <time>2019-04-18T03:38:40Z</time>
      </trkpt>
      <trkpt lat="45.40061" lon="7.04135">
        <ele>2490</ele>
        <time>2019-04-18T03:39:40Z</time>
      </trkpt>
      <trkpt lat="45.40059" lon="7.04157">
        <ele>2493</ele>
        <time>2019-04-18T03:40:40Z</time>
      </trkpt>
      <trkpt lat="45.40053" lon="7.04185">
        <ele>2495</ele>
        <time>2019-04-18T03:41:40Z</time>
      </trkpt>
      <trkpt lat="45.40045" lon="7.04206">
        <ele>2494</ele>
        <time>2019-04-18T03:42:40Z</time>
      </trkpt>
      <trkpt lat="45.40037" lon="7.04222">
        <ele>2492</ele>
        <time>2019-04-18T03:43:40Z</time>
      </trkpt>
      <trkpt lat="45.40027" lon="7.04231">
        <ele>2488</ele>
        <time>2019-04-18T03:44:40Z</time>
      </trkpt>
      <trkpt lat="45.40011" lon="7.04242">
        <ele>2481</ele>
        <time>2019-04-18T03:45:40Z</time>
      </trkpt>
      <trkpt lat="45.39986" lon="7.04252">
        <ele>2472</ele>
        <time>2019-04-18T03:46:40Z</time>
      </trkpt>
      <trkpt lat="45.39974" lon="7.04264">
        <ele>2472</ele>
        <time>2019-04-18T03:47:40Z</time>
      </trkpt>
      <trkpt lat="45.39948" lon="7.04312">
        <ele>2476</ele>
        <time>2019-04-18T03:48:40Z</time>
      </trkpt>
      <trkpt lat="45.3993" lon="7.04335">
        <ele>2477</ele>
        <time>2019-04-18T03:49:40Z</time>
      </trkpt>
      <trkpt lat="45.39923" lon="7.0434">
        <ele>2477</ele>
        <time>2019-04-18T03:50:40Z</time>
      </trkpt>
      <trkpt lat="45.39896" lon="7.04341">
        <ele>2475</ele>
        <time>2019-04-18T03:51:40Z</time>
      </trkpt>
      <trkpt lat="45.39879" lon="7.04339">
        <ele>2475</ele>
        <time>2019-04-18T03:52:40Z</time>
      </trkpt>
      <trkpt lat="45.39865" lon="7.04335">
        <ele>2474</ele>
        <time>2019-04-18T03:53:40Z</time>
      </trkpt>
      <trkpt lat="45.39836" lon="7.04319">
        <ele>2468</ele>
        <time>2019-04-18T03:54:40Z</time>
      </trkpt>
      <trkpt lat="45.39794" lon="7.04312">
        <ele>2467</ele>
        <time>2019-04-18T03:55:40Z</time>
      </trkpt>
      <trkpt lat="45.39779" lon="7.04306">
        <ele>2465</ele>
        <time>2019-04-18T03:56:40Z</time>
      </trkpt>
      <trkpt lat="45.39744" lon="7.04281">
        <ele>2456</ele>
        <time>2019-04-18T03:57:40Z</time>
      </trkpt>
      <trkpt lat="45.39727" lon="7.04272">
        <ele>2453</ele>
        <time>2019-04-18T03:58:40Z</time>
      </trkpt>
      <trkpt lat="45.39698" lon="7.04263">
        <ele>2451</ele>
        <time>2019-04-18T03:59:40Z</time>
      </trkpt>
      <trkpt lat="45.39659" lon="7.04258">
        <ele>2449</ele>
        <time>2019-04-18T04:00:40Z</time>
      </trkpt>
      <trkpt lat="45.39629" lon="7.04257">
        <ele>2442</ele>
        <time>2019-04-18T04:01:40Z</time>
      </trkpt>
      <trkpt lat="45.39602" lon="7.0426">
        <ele>2436</ele>
        <time>2019-04-18T04:02:40Z</time>
      </trkpt>
      <trkpt lat="45.3955" lon="7.04275">
        <ele>2425</ele>
        <time>2019-04-18T04:03:40Z</time>
      </trkpt>
      <trkpt lat="45.39543" lon="7.04281">
        <ele>2425</ele>
        <time>2019-04-18T04:04:40Z</time>
      </trkpt>
      <trkpt lat="45.39476" lon="7.04379">
        <ele>2429</ele>
        <time>2019-04-18T04:05:40Z</time>
      </trkpt>
      <trkpt lat="45.39458" lon="7.04396">
        <ele>2427</ele>
        <time>2019-04-18T04:06:40Z</time>
      </trkpt>
      <trkpt lat="45.39446" lon="7.04404">
        <ele>2424</ele>
        <time>2019-04-18T04:07:40Z</time>
      </trkpt>
      <trkpt lat="45.39433" lon="7.04408">
        <ele>2420</ele>
        <time>2019-04-18T04:08:40Z</time>
      </trkpt>
      <trkpt lat="45.3941" lon="7.04407">
        <ele>2412</ele>
        <time>2019-04-18T04:09:40Z</time>
      </trkpt>
      <trkpt lat="45.39393" lon="7.04415">
        <ele>2411</ele>
        <time>2019-04-18T04:10:40Z</time>
      </trkpt>
      <trkpt lat="45.39351" lon="7.0444">
        <ele>2408</ele>
        <time>2019-04-18T04:11:40Z</time>
      </trkpt>
      <trkpt lat="45.39332" lon="7.04458">
        <ele>2408</ele>
        <time>2019-04-18T04:12:40Z</time>
      </trkpt>
      <trkpt lat="45.39309" lon="7.04489">
        <ele>2407</ele>
        <time>2019-04-18T04:13:40Z</time>
      </trkpt>
      <trkpt lat="45.39293" lon="7.04502">
        <ele>2406</ele>
        <time>2019-04-18T04:14:40Z</time>
      </trkpt>
      <trkpt lat="45.39245" lon="7.04532">
        <ele>2398</ele>
        <time>2019-04-18T04:15:40Z</time>
      </trkpt>
      <trkpt lat="45.39238" lon="7.04542">
        <ele>2398</ele>
        <time>2019-04-18T04:16:40Z</time>
      </trkpt>
      <trkpt lat="45.39211" lon="7.04591">
        <ele>2400</ele>
        <time>2019-04-18T04:17:40Z</time>
      </trkpt>
      <trkpt lat="45.39201" lon="7.04601">
        <ele>2400</ele>
        <time>2019-04-18T04:18:40Z</time>
      </trkpt>
      <trkpt lat="45.39193" lon="7.04605">
        <ele>2399</ele>
        <time>2019-04-18T04:19:40Z</time>
      </trkpt>
      <trkpt lat="45.39162" lon="7.04609">
        <ele>2390</ele>
        <time>2019-04-18T04:20:40Z</time>
      </trkpt>
      <trkpt lat="45.39136" lon="7.0462">
        <ele>2387</ele>
        <time>2019-04-18T04:21:40Z</time>
      </trkpt>
      <trkpt lat="45.39126" lon="7.04627">
        <ele>2386</ele>
        <time>2019-04-18T04:22:40Z</time>
      </trkpt>
      <trkpt lat="45.39117" lon="7.04637">
        <ele>2386</ele>
        <time>2019-04-18T04:23:40Z</time>
      </trkpt>
      <trkpt lat="45.39095" lon="7.04671">
        <ele>2388</ele>
        <time>2019-04-18T04:24:40Z</time>
      </trkpt>
      <trkpt lat="45.39084" lon="7.04685">
        <ele>2387</ele>
        <time>2019-04-18T04:25:40Z</time>
      </trkpt>
      <trkpt lat="45.39075" lon="7.047">
        <ele>2388</ele>
        <time>2019-04-18T04:26:40Z</time>
      </trkpt>
      <trkpt lat="45.39041" lon="7.04748">
        <ele>2384</ele>
        <time>2019-04-18T04:27:40Z</time>
      </trkpt>
      <trkpt lat="45.39034" lon="7.04753">
        <ele>2383</ele>
        <time>2019-04-18T04:28:40Z</time>
      </trkpt>
      <trkpt lat="45.39022" lon="7.04754">
        <ele>2378</ele>
        <time>2019-04-18T04:29:40Z</time>
      </trkpt>
      <trkpt lat="45.39011" lon="7.04753">
        <ele>2374</ele>
        <time>2019-04-18T04:30:40Z</time>
      </trkpt>
      <trkpt lat="45.38997" lon="7.04747">
        <ele>2368</ele>
        <time>2019-04-18T04:31:40Z</time>
      </trkpt>
      <trkpt lat="45.38985" lon="7.04739">
        <ele>2364</ele>
        <time>2019-04-18T04:32:40Z</time>
      </trkpt>
      <trkpt lat="45.38974" lon="7.04729">
        <ele>2361</ele>
        <time>2019-04-18T04:33:40Z</time>
      </trkpt>
      <trkpt lat="45.38965" lon="7.04714">
        <ele>2357</ele>
        <time>2019-04-18T04:34:40Z</time>
      </trkpt>
      <trkpt lat="45.38962" lon="7.04703">
        <ele>2355</ele>
        <time>2019-04-18T04:35:40Z</time>
      </trkpt>
      <trkpt lat="45.38963" lon="7.0469">
        <ele>2354</ele>
        <time>2019-04-18T04:36:40Z</time>
      </trkpt>
      <trkpt lat="45.38965" lon="7.04681">
        <ele>2353</ele>
        <time>2019-04-18T04:37:40Z</time>
      </trkpt>
      <trkpt lat="45.38971" lon="7.04669">
        <ele>2354</ele>
        <time>2019-04-18T04:38:40Z</time>
      </trkpt>
      <trkpt lat="45.38997" lon="7.04635">
        <ele>2355</ele>
        <time>2019-04-18T04:39:40Z</time>
      </trkpt>
      <trkpt lat="45.39018" lon="7.04599">
        <ele>2351</ele>
        <time>2019-04-18T04:40:40Z</time>
      </trkpt>
      <trkpt lat="45.3905" lon="7.0456">
        <ele>2348</ele>
        <time>2019-04-18T04:41:40Z</time>
      </trkpt>
      <trkpt lat="45.39076" lon="7.04522">
        <ele>2345</ele>
        <time>2019-04-18T04:42:40Z</time>
      </trkpt>
      <trkpt lat="45.39109" lon="7.0446">
        <ele>2336</ele>
        <time>2019-04-18T04:43:40Z</time>
      </trkpt>
      <trkpt lat="45.39121" lon="7.04442">
        <ele>2335</ele>
        <time>2019-04-18T04:44:40Z</time>
      </trkpt>
      <trkpt lat="45.39145" lon="7.04419">
        <ele>2338</ele>
        <time>2019-04-18T04:45:40Z</time>
      </trkpt>
      <trkpt lat="45.39155" lon="7.04407">
        <ele>2337</ele>
        <time>2019-04-18T04:46:40Z</time>
      </trkpt>
      <trkpt lat="45.39175" lon="7.04368">
        <ele>2327</ele>
        <time>2019-04-18T04:47:40Z</time>
      </trkpt>
      <trkpt lat="45.39186" lon="7.04353">
        <ele>2325</ele>
        <time>2019-04-18T04:48:40Z</time>
      </trkpt>
      <trkpt lat="45.39231" lon="7.04317">
        <ele>2325</ele>
        <time>2019-04-18T04:49:40Z</time>
      </trkpt>
      <trkpt lat="45.39271" lon="7.0428">
        <ele>2321</ele>
        <time>2019-04-18T04:50:40Z</time>
      </trkpt>
      <trkpt lat="45.3931" lon="7.04234">
        <ele>2314</ele>
        <time>2019-04-18T04:51:40Z</time>
      </trkpt>
      <trkpt lat="45.39371" lon="7.04167">
        <ele>2306</ele>
        <time>2019-04-18T04:52:40Z</time>
      </trkpt>
      <trkpt lat="45.39442" lon="7.04095">
        <ele>2294</ele>
        <time>2019-04-18T04:53:40Z</time>
      </trkpt>
      <trkpt lat="45.39486" lon="7.04055">
        <ele>2288</ele>
        <time>2019-04-18T04:54:40Z</time>
      </trkpt>
      <trkpt lat="45.39515" lon="7.04034">
        <ele>2286</ele>
        <time>2019-04-18T04:55:40Z</time>
      </trkpt>
      <trkpt lat="45.39607" lon="7.0398">
        <ele>2284</ele>
        <time>2019-04-18T04:56:40Z</time>
      </trkpt>
      <trkpt lat="45.39632" lon="7.03967">
        <ele>2284</ele>
        <time>2019-04-18T04:57:40Z</time>
      </trkpt>
      <trkpt lat="45.39666" lon="7.03961">
        <ele>2288</ele>
        <time>2019-04-18T04:58:40Z</time>
      </trkpt>
      <trkpt lat="45.39671" lon="7.03957">
        <ele>2288</ele>
        <time>2019-04-18T04:59:40Z</time>
      </trkpt>
      <trkpt lat="45.39673" lon="7.0395">
        <ele>2287</ele>
        <time>2019-04-18T05:00:40Z</time>
      </trkpt>
      <trkpt lat="45.39672" lon="7.03943">
        <ele>2285</ele>
        <time>2019-04-18T05:01:40Z</time>
      </trkpt>
      <trkpt lat="45.39665" lon="7.03936">
        <ele>2282</ele>
        <time>2019-04-18T05:02:40Z</time>
      </trkpt>
      <trkpt lat="45.39623" lon="7.03938">
        <ele>2275</ele>
        <time>2019-04-18T05:03:40Z</time>
      </trkpt>
      <trkpt lat="45.39596" lon="7.03946">
        <ele>2272</ele>
        <time>2019-04-18T05:04:40Z</time>
      </trkpt>
      <trkpt lat="45.39537" lon="7.03971">
        <ele>2270</ele>
        <time>2019-04-18T05:05:40Z</time>
      </trkpt>
      <trkpt lat="45.39488" lon="7.03987">
        <ele>2265</ele>
        <time>2019-04-18T05:06:40Z</time>
      </trkpt>
      <trkpt lat="45.39405" lon="7.04001">
        <ele>2256</ele>
        <time>2019-04-18T05:07:40Z</time>
      </trkpt>
      <trkpt lat="45.39348" lon="7.04014">
        <ele>2249</ele>
        <time>2019-04-18T05:08:40Z</time>
      </trkpt>
      <trkpt lat="45.39326" lon="7.04022">
        <ele>2246</ele>
        <time>2019-04-18T05:09:40Z</time>
      </trkpt>
      <trkpt lat="45.39313" lon="7.04037">
        <ele>2245</ele>
        <time>2019-04-18T05:10:40Z</time>
      </trkpt>
      <trkpt lat="45.39301" lon="7.04078">
        <ele>2250</ele>
        <time>2019-04-18T05:11:40Z</time>
      </trkpt>
      <trkpt lat="45.39295" lon="7.04086">
        <ele>2251</ele>
        <time>2019-04-18T05:12:40Z</time>
      </trkpt>
      <trkpt lat="45.39287" lon="7.04091">
        <ele>2251</ele>
        <time>2019-04-18T05:13:40Z</time>
      </trkpt>
      <trkpt lat="45.39206" lon="7.0413">
        <ele>2242</ele>
        <time>2019-04-18T05:14:40Z</time>
      </trkpt>
      <trkpt lat="45.3917" lon="7.04144">
        <ele>2236</ele>
        <time>2019-04-18T05:15:40Z</time>
      </trkpt>
      <trkpt lat="45.39121" lon="7.04163">
        <ele>2228</ele>
        <time>2019-04-18T05:16:40Z</time>
      </trkpt>
      <trkpt lat="45.39039" lon="7.04188">
        <ele>2215</ele>
        <time>2019-04-18T05:17:40Z</time>
      </trkpt>
      <trkpt lat="45.3901" lon="7.04201">
        <ele>2212</ele>
        <time>2019-04-18T05:18:40Z</time>
      </trkpt>
      <trkpt lat="45.39001" lon="7.04209">
        <ele>2212</ele>
        <time>2019-04-18T05:19:40Z</time>
      </trkpt>
      <trkpt lat="45.38984" lon="7.0423">
        <ele>2213</ele>
        <time>2019-04-18T05:20:40Z</time>
      </trkpt>
      <trkpt lat="45.38973" lon="7.04239">
        <ele>2212</ele>
        <time>2019-04-18T05:21:40Z</time>
      </trkpt>
      <trkpt lat="45.38938" lon="7.04257">
        <ele>2207</ele>
        <time>2019-04-18T05:22:40Z</time>
      </trkpt>
      <trkpt lat="45.38923" lon="7.04267">
        <ele>2205</ele>
        <time>2019-04-18T05:23:40Z</time>
      </trkpt>
      <trkpt lat="45.38882" lon="7.04304">
        <ele>2202</ele>
        <time>2019-04-18T05:24:40Z</time>
      </trkpt>
      <trkpt lat="45.38865" lon="7.04323">
        <ele>2201</ele>
        <time>2019-04-18T05:25:40Z</time>
      </trkpt>
      <trkpt lat="45.38782" lon="7.04392">
        <ele>2192</ele>
        <time>2019-04-18T05:26:40Z</time>
      </trkpt>
      <trkpt lat="45.38723" lon="7.04431">
        <ele>2184</ele>
        <time>2019-04-18T05:27:40Z</time>
      </trkpt>
      <trkpt lat="45.3868" lon="7.04477">
        <ele>2182</ele>
        <time>2019-04-18T05:28:40Z</time>
      </trkpt>
      <trkpt lat="45.38645" lon="7.04497">
        <ele>2176</ele>
        <time>2019-04-18T05:29:40Z</time>
      </trkpt>
      <trkpt lat="45.38626" lon="7.04513">
        <ele>2174</ele>
        <time>2019-04-18T05:30:40Z</time>
      </trkpt>
      <trkpt lat="45.38602" lon="7.04534">
        <ele>2171</ele>
        <time>2019-04-18T05:31:40Z</time>
      </trkpt>
      <trkpt lat="45.38586" lon="7.04566">
        <ele>2171</ele>
        <time>2019-04-18T05:32:40Z</time>
      </trkpt>
      <trkpt lat="45.38576" lon="7.04581">
        <ele>2171</ele>
        <time>2019-04-18T05:33:40Z</time>
      </trkpt>
      <trkpt lat="45.38562" lon="7.04592">
        <ele>2170</ele>
        <time>2019-04-18T05:34:40Z</time>
      </trkpt>
      <trkpt lat="45.38547" lon="7.046">
        <ele>2168</ele>
        <time>2019-04-18T05:35:40Z</time>
      </trkpt>
      <trkpt lat="45.38529" lon="7.04606">
        <ele>2165</ele>
        <time>2019-04-18T05:36:40Z</time>
      </trkpt>
      <trkpt lat="45.38514" lon="7.04607">
        <ele>2162</ele>
        <time>2019-04-18T05:37:40Z</time>
      </trkpt>
      <trkpt lat="45.38507" lon="7.04606">
        <ele>2160</ele>
        <time>2019-04-18T05:38:40Z</time>
      </trkpt>
      <trkpt lat="45.385" lon="7.04598">
        <ele>2157</ele>
        <time>2019-04-18T05:39:40Z</time>
      </trkpt>
      <trkpt lat="45.38497" lon="7.0459">
        <ele>2155</ele>
        <time>2019-04-18T05:40:40Z</time>
      </trkpt>
      <trkpt lat="45.38498" lon="7.0458">
        <ele>2154</ele>
        <time>2019-04-18T05:41:40Z</time>
      </trkpt>
      <trkpt lat="45.38501" lon="7.0457">
        <ele>2154</ele>
        <time>2019-04-18T05:42:40Z</time>
      </trkpt>
      <trkpt lat="45.38512" lon="7.04549">
        <ele>2154</ele>
        <time>2019-04-18T05:43:40Z</time>
      </trkpt>
      <trkpt lat="45.38523" lon="7.04515">
        <ele>2153</ele>
        <time>2019-04-18T05:44:40Z</time>
      </trkpt>
      <trkpt lat="45.38529" lon="7.04484">
        <ele>2150</ele>
        <time>2019-04-18T05:45:40Z</time>
      </trkpt>
      <trkpt lat="45.38539" lon="7.04403">
        <ele>2143</ele>
        <time>2019-04-18T05:46:40Z</time>
      </trkpt>
      <trkpt lat="45.38547" lon="7.04349">
        <ele>2141</ele>
        <time>2019-04-18T05:47:40Z</time>
      </trkpt>
      <trkpt lat="45.38547" lon="7.04335">
        <ele>2140</ele>
        <time>2019-04-18T05:48:40Z</time>
      </trkpt>
      <trkpt lat="45.38545" lon="7.04318">
        <ele>2139</ele>
        <time>2019-04-18T05:49:40Z</time>
      </trkpt>
      <trkpt lat="45.38538" lon="7.04303">
        <ele>2137</ele>
        <time>2019-04-18T05:50:40Z</time>
      </trkpt>
      <trkpt lat="45.38528" lon="7.04292">
        <ele>2136</ele>
        <time>2019-04-18T05:51:40Z</time>
      </trkpt>
      <trkpt lat="45.38509" lon="7.04279">
        <ele>2135</ele>
        <time>2019-04-18T05:52:40Z</time>
      </trkpt>
      <trkpt lat="45.38476" lon="7.04262">
        <ele>2139</ele>
        <time>2019-04-18T05:53:40Z</time>
      </trkpt>
      <trkpt lat="45.3847" lon="7.04263">
        <ele>2141</ele>
        <time>2019-04-18T05:54:40Z</time>
      </trkpt>
      <trkpt lat="45.38457" lon="7.0427">
        <ele>2143</ele>
        <time>2019-04-18T05:55:40Z</time>
      </trkpt>
      <trkpt lat="45.38449" lon="7.04282">
        <ele>2144</ele>
        <time>2019-04-18T05:56:40Z</time>
      </trkpt>
      <trkpt lat="45.38423" lon="7.04328">
        <ele>2143</ele>
        <time>2019-04-18T05:57:40Z</time>
      </trkpt>
      <trkpt lat="45.38357" lon="7.04454">
        <ele>2140</ele>
        <time>2019-04-18T05:58:40Z</time>
      </trkpt>
      <trkpt lat="45.3835" lon="7.04464">
        <ele>2139</ele>
        <time>2019-04-18T05:59:40Z</time>
      </trkpt>
      <trkpt lat="45.38322" lon="7.04494">
        <ele>2140</ele>
        <time>2019-04-18T06:00:40Z</time>
      </trkpt>
      <trkpt lat="45.38302" lon="7.04527">
        <ele>2144</ele>
        <time>2019-04-18T06:01:40Z</time>
      </trkpt>
      <trkpt lat="45.38265" lon="7.04609">
        <ele>2134</ele>
        <time>2019-04-18T06:02:40Z</time>
      </trkpt>
      <trkpt lat="45.38257" lon="7.04623">
        <ele>2132</ele>
        <time>2019-04-18T06:03:40Z</time>
      </trkpt>
      <trkpt lat="45.38249" lon="7.04633">
        <ele>2131</ele>
        <time>2019-04-18T06:04:40Z</time>
      </trkpt>
      <trkpt lat="45.3819" lon="7.04665">
        <ele>2132</ele>
        <time>2019-04-18T06:05:40Z</time>
      </trkpt>
      <trkpt lat="45.38166" lon="7.04683">
        <ele>2132</ele>
        <time>2019-04-18T06:06:40Z</time>
      </trkpt>
      <trkpt lat="45.38154" lon="7.04695">
        <ele>2136</ele>
        <time>2019-04-18T06:07:40Z</time>
      </trkpt>
      <trkpt lat="45.38145" lon="7.04708">
        <ele>2137</ele>
        <time>2019-04-18T06:08:40Z</time>
      </trkpt>
      <trkpt lat="45.38136" lon="7.04734">
        <ele>2134</ele>
        <time>2019-04-18T06:09:40Z</time>
      </trkpt>
      <trkpt lat="45.3812" lon="7.04798">
        <ele>2126</ele>
        <time>2019-04-18T06:10:40Z</time>
      </trkpt>
      <trkpt lat="45.38118" lon="7.04815">
        <ele>2123</ele>
        <time>2019-04-18T06:11:40Z</time>
      </trkpt>
      <trkpt lat="45.38118" lon="7.04851">
        <ele>2118</ele>
        <time>2019-04-18T06:12:40Z</time>
      </trkpt>
      <trkpt lat="45.38115" lon="7.04859">
        <ele>2119</ele>
        <time>2019-04-18T06:13:40Z</time>
      </trkpt>
      <trkpt lat="45.38077" lon="7.04925">
        <ele>2118</ele>
        <time>2019-04-18T06:14:40Z</time>
      </trkpt>
      <trkpt lat="45.38074" lon="7.04939">
        <ele>2117</ele>
        <time>2019-04-18T06:15:40Z</time>
      </trkpt>
      <trkpt lat="45.38073" lon="7.04968">
        <ele>2113</ele>
        <time>2019-04-18T06:16:40Z</time>
      </trkpt>
      <trkpt lat="45.38071" lon="7.04974">
        <ele>2113</ele>
        <time>2019-04-18T06:17:40Z</time>
      </trkpt>
      <trkpt lat="45.38063" lon="7.04987">
        <ele>2112</ele>
        <time>2019-04-18T06:18:40Z</time>
      </trkpt>
      <trkpt lat="45.37985" lon="7.05012">
        <ele>2115</ele>
        <time>2019-04-18T06:19:40Z</time>
      </trkpt>
      <trkpt lat="45.3796" lon="7.05011">
        <ele>2114</ele>
        <time>2019-04-18T06:20:40Z</time>
      </trkpt>
      <trkpt lat="45.37934" lon="7.05004">
        <ele>2116</ele>
        <time>2019-04-18T06:21:40Z</time>
      </trkpt>
      <trkpt lat="45.37905" lon="7.04991">
        <ele>2117</ele>
        <time>2019-04-18T06:22:40Z</time>
      </trkpt>
      <trkpt lat="45.37875" lon="7.04966">
        <ele>2114</ele>
        <time>2019-04-18T06:23:40Z</time>
      </trkpt>
      <trkpt lat="45.37867" lon="7.04956">
        <ele>2114</ele>
        <time>2019-04-18T06:24:40Z</time>
      </trkpt>
      <trkpt lat="45.37817" lon="7.04878">
        <ele>2110</ele>
        <time>2019-04-18T06:25:40Z</time>
      </trkpt>
      <trkpt lat="45.37792" lon="7.04851">
        <ele>2099</ele>
        <time>2019-04-18T06:26:40Z</time>
      </trkpt>
      <trkpt lat="45.37783" lon="7.04836">
        <ele>2096</ele>
        <time>2019-04-18T06:27:40Z</time>
      </trkpt>
      <trkpt lat="45.37777" lon="7.0482">
        <ele>2096</ele>
        <time>2019-04-18T06:28:40Z</time>
      </trkpt>
      <trkpt lat="45.37772" lon="7.04799">
        <ele>2099</ele>
        <time>2019-04-18T06:29:40Z</time>
      </trkpt>
      <trkpt lat="45.37767" lon="7.04786">
        <ele>2099</ele>
        <time>2019-04-18T06:30:40Z</time>
      </trkpt>
      <trkpt lat="45.37745" lon="7.04747">
        <ele>2092</ele>
        <time>2019-04-18T06:31:40Z</time>
      </trkpt>
      <trkpt lat="45.37741" lon="7.04735">
        <ele>2093</ele>
        <time>2019-04-18T06:32:40Z</time>
      </trkpt>
      <trkpt lat="45.37727" lon="7.04672">
        <ele>2100</ele>
        <time>2019-04-18T06:33:40Z</time>
      </trkpt>
      <trkpt lat="45.37713" lon="7.04636">
        <ele>2097</ele>
        <time>2019-04-18T06:34:40Z</time>
      </trkpt>
      <trkpt lat="45.37704" lon="7.04608">
        <ele>2096</ele>
        <time>2019-04-18T06:35:40Z</time>
      </trkpt>
      <trkpt lat="45.37695" lon="7.04561">
        <ele>2102</ele>
        <time>2019-04-18T06:36:40Z</time>
      </trkpt>
      <trkpt lat="45.37683" lon="7.04516">
        <ele>2105</ele>
        <time>2019-04-18T06:37:40Z</time>
      </trkpt>
      <trkpt lat="45.37657" lon="7.04472">
        <ele>2094</ele>
        <time>2019-04-18T06:38:40Z</time>
      </trkpt>
      <trkpt lat="45.37644" lon="7.04433">
        <ele>2091</ele>
        <time>2019-04-18T06:39:40Z</time>
      </trkpt>
      <trkpt lat="45.37614" lon="7.04357">
        <ele>2078</ele>
        <time>2019-04-18T06:40:40Z</time>
      </trkpt>
      <trkpt lat="45.37609" lon="7.0434">
        <ele>2076</ele>
        <time>2019-04-18T06:41:40Z</time>
      </trkpt>
      <trkpt lat="45.37604" lon="7.04304">
        <ele>2080</ele>
        <time>2019-04-18T06:42:40Z</time>
      </trkpt>
      <trkpt lat="45.37598" lon="7.04283">
        <ele>2080</ele>
        <time>2019-04-18T06:43:40Z</time>
      </trkpt>
      <trkpt lat="45.37581" lon="7.04248">
        <ele>2073</ele>
        <time>2019-04-18T06:44:40Z</time>
      </trkpt>
      <trkpt lat="45.37569" lon="7.0421">
        <ele>2073</ele>
        <time>2019-04-18T06:45:40Z</time>
      </trkpt>
      <trkpt lat="45.37547" lon="7.04148">
        <ele>2064</ele>
        <time>2019-04-18T06:46:40Z</time>
      </trkpt>
      <trkpt lat="45.37526" lon="7.04065">
        <ele>2053</ele>
        <time>2019-04-18T06:47:40Z</time>
      </trkpt>
      <trkpt lat="45.37519" lon="7.04044">
        <ele>2050</ele>
        <time>2019-04-18T06:48:40Z</time>
      </trkpt>
      <trkpt lat="45.37471" lon="7.03937">
        <ele>2036</ele>
        <time>2019-04-18T06:49:40Z</time>
      </trkpt>
      <trkpt lat="45.37421" lon="7.03814">
        <ele>2025</ele>
        <time>2019-04-18T06:50:40Z</time>
      </trkpt>
      <trkpt lat="45.37414" lon="7.03793">
        <ele>2023</ele>
        <time>2019-04-18T06:51:40Z</time>
      </trkpt>
      <trkpt lat="45.37394" lon="7.03749">
        <ele>2018</ele>
        <time>2019-04-18T06:52:40Z</time>
      </trkpt>
      <trkpt lat="45.37383" lon="7.03716">
        <ele>2016</ele>
        <time>2019-04-18T06:53:40Z</time>
      </trkpt>
      <trkpt lat="45.37377" lon="7.03702">
        <ele>2015</ele>
        <time>2019-04-18T06:54:40Z</time>
      </trkpt>
      <trkpt lat="45.37356" lon="7.03674">
        <ele>2008</ele>
        <time>2019-04-18T06:55:40Z</time>
      </trkpt>
      <trkpt lat="45.37354" lon="7.03658">
        <ele>2008</ele>
        <time>2019-04-18T06:56:40Z</time>
      </trkpt>
      <trkpt lat="45.37356" lon="7.03637">
        <ele>2011</ele>
        <time>2019-04-18T06:57:40Z</time>
      </trkpt>
      <trkpt lat="45.37354" lon="7.03625">
        <ele>2011</ele>
        <time>2019-04-18T06:58:40Z</time>
      </trkpt>
      <trkpt lat="45.37346" lon="7.03608">
        <ele>2008</ele>
        <time>2019-04-18T06:59:40Z</time>
      </trkpt>
      <trkpt lat="45.37336" lon="7.03577">
        <ele>2005</ele>
        <time>2019-04-18T07:00:40Z</time>
      </trkpt>
      <trkpt lat="45.37328" lon="7.03559">
        <ele>2002</ele>
        <time>2019-04-18T07:01:40Z</time>
      </trkpt>
      <trkpt lat="45.37326" lon="7.03551">
        <ele>2002</ele>
        <time>2019-04-18T07:02:40Z</time>
      </trkpt>
      <trkpt lat="45.37329" lon="7.03512">
        <ele>2007</ele>
        <time>2019-04-18T07:03:40Z</time>
      </trkpt>
      <trkpt lat="45.37328" lon="7.03504">
        <ele>2007</ele>
        <time>2019-04-18T07:04:40Z</time>
      </trkpt>
      <trkpt lat="45.37319" lon="7.0348">
        <ele>2006</ele>
        <time>2019-04-18T07:05:40Z</time>
      </trkpt>
      <trkpt lat="45.3724" lon="7.03376">
        <ele>1995</ele>
        <time>2019-04-18T07:06:40Z</time>
      </trkpt>
      <trkpt lat="45.3723" lon="7.03364">
        <ele>1994</ele>
        <time>2019-04-18T07:07:40Z</time>
      </trkpt>
      <trkpt lat="45.37217" lon="7.03355">
        <ele>1992</ele>
        <time>2019-04-18T07:08:40Z</time>
      </trkpt>
      <trkpt lat="45.3717" lon="7.0333">
        <ele>1980</ele>
        <time>2019-04-18T07:09:40Z</time>
      </trkpt>
      <trkpt lat="45.37149" lon="7.03314">
        <ele>1977</ele>
        <time>2019-04-18T07:10:40Z</time>
      </trkpt>
      <trkpt lat="45.37113" lon="7.03258">
        <ele>1980</ele>
        <time>2019-04-18T07:11:40Z</time>
      </trkpt>
      <trkpt lat="45.37102" lon="7.03245">
        <ele>1980</ele>
        <time>2019-04-18T07:12:40Z</time>
      </trkpt>
      <trkpt lat="45.37074" lon="7.03228">
        <ele>1976</ele>
        <time>2019-04-18T07:13:40Z</time>
      </trkpt>
      <trkpt lat="45.37064" lon="7.03224">
        <ele>1974</ele>
        <time>2019-04-18T07:14:40Z</time>
      </trkpt>
      <trkpt lat="45.37037" lon="7.03221">
        <ele>1966</ele>
        <time>2019-04-18T07:15:40Z</time>
      </trkpt>
      <trkpt lat="45.37027" lon="7.03217">
        <ele>1964</ele>
        <time>2019-04-18T07:16:40Z</time>
      </trkpt>
      <trkpt lat="45.36996" lon="7.0319">
        <ele>1962</ele>
        <time>2019-04-18T07:17:40Z</time>
      </trkpt>
      <trkpt lat="45.36985" lon="7.03177">
        <ele>1960</ele>
        <time>2019-04-18T07:18:40Z</time>
      </trkpt>
      <trkpt lat="45.36973" lon="7.03156">
        <ele>1961</ele>
        <time>2019-04-18T07:19:40Z</time>
      </trkpt>
      <trkpt lat="45.36969" lon="7.03153">
        <ele>1960</ele>
        <time>2019-04-18T07:20:40Z</time>
      </trkpt>
      <trkpt lat="45.36963" lon="7.03156">
        <ele>1956</ele>
        <time>2019-04-18T07:21:40Z</time>
      </trkpt>
      <trkpt lat="45.36961" lon="7.03162">
        <ele>1953</ele>
        <time>2019-04-18T07:22:40Z</time>
      </trkpt>
      <trkpt lat="45.36963" lon="7.03171">
        <ele>1951</ele>
        <time>2019-04-18T07:23:40Z</time>
      </trkpt>
      <trkpt lat="45.36971" lon="7.03184">
        <ele>1951</ele>
        <time>2019-04-18T07:24:40Z</time>
      </trkpt>
      <trkpt lat="45.37017" lon="7.03244">
        <ele>1952</ele>
        <time>2019-04-18T07:25:40Z</time>
      </trkpt>
      <trkpt lat="45.37061" lon="7.03282">
        <ele>1954</ele>
        <time>2019-04-18T07:26:40Z</time>
      </trkpt>
      <trkpt lat="45.3707" lon="7.03295">
        <ele>1953</ele>
        <time>2019-04-18T07:27:40Z</time>
      </trkpt>
      <trkpt lat="45.37078" lon="7.03312">
        <ele>1950</ele>
        <time>2019-04-18T07:28:40Z</time>
      </trkpt>
      <trkpt lat="45.37094" lon="7.03361">
        <ele>1942</ele>
        <time>2019-04-18T07:29:40Z</time>
      </trkpt>
      <trkpt lat="45.37103" lon="7.03385">
        <ele>1940</ele>
        <time>2019-04-18T07:30:40Z</time>
      </trkpt>
      <trkpt lat="45.37132" lon="7.0344">
        <ele>1937</ele>
        <time>2019-04-18T07:31:40Z</time>
      </trkpt>
      <trkpt lat="45.37147" lon="7.03467">
        <ele>1935</ele>
        <time>2019-04-18T07:32:40Z</time>
      </trkpt>
      <trkpt lat="45.37166" lon="7.03491">
        <ele>1935</ele>
        <time>2019-04-18T07:33:40Z</time>
      </trkpt>
      <trkpt lat="45.37176" lon="7.03512">
        <ele>1935</ele>
        <time>2019-04-18T07:34:40Z</time>
      </trkpt>
      <trkpt lat="45.37182" lon="7.03529">
        <ele>1934</ele>
        <time>2019-04-18T07:35:40Z</time>
      </trkpt>
      <trkpt lat="45.37187" lon="7.03566">
        <ele>1929</ele>
        <time>2019-04-18T07:36:40Z</time>
      </trkpt>
      <trkpt lat="45.37189" lon="7.03607">
        <ele>1924</ele>
        <time>2019-04-18T07:37:40Z</time>
      </trkpt>
      <trkpt lat="45.37195" lon="7.03639">
        <ele>1923</ele>
        <time>2019-04-18T07:38:40Z</time>
      </trkpt>
      <trkpt lat="45.37196" lon="7.03654">
        <ele>1922</ele>
        <time>2019-04-18T07:39:40Z</time>
      </trkpt>
      <trkpt lat="45.37198" lon="7.03668">
        <ele>1921</ele>
        <time>2019-04-18T07:40:40Z</time>
      </trkpt>
      <trkpt lat="45.37203" lon="7.03689">
        <ele>1921</ele>
        <time>2019-04-18T07:41:40Z</time>
      </trkpt>
      <trkpt lat="45.37204" lon="7.03701">
        <ele>1920</ele>
        <time>2019-04-18T07:42:40Z</time>
      </trkpt>
      <trkpt lat="45.37201" lon="7.03727">
        <ele>1915</ele>
        <time>2019-04-18T07:43:40Z</time>
      </trkpt>
      <trkpt lat="45.37214" lon="7.0379">
        <ele>1912</ele>
        <time>2019-04-18T07:44:40Z</time>
      </trkpt>
      <trkpt lat="45.37219" lon="7.03831">
        <ele>1908</ele>
        <time>2019-04-18T07:45:40Z</time>
      </trkpt>
      <trkpt lat="45.37226" lon="7.03852">
        <ele>1907</ele>
        <time>2019-04-18T07:46:40Z</time>
      </trkpt>
      <trkpt lat="45.37238" lon="7.03868">
        <ele>1910</ele>
        <time>2019-04-18T07:47:40Z</time>
      </trkpt>
      <trkpt lat="45.37247" lon="7.03887">
        <ele>1910</ele>
        <time>2019-04-18T07:48:40Z</time>
      </trkpt>
      <trkpt lat="45.37257" lon="7.03948">
        <ele>1900</ele>
        <time>2019-04-18T07:49:40Z</time>
      </trkpt>
      <trkpt lat="45.37287" lon="7.04051">
        <ele>1896</ele>
        <time>2019-04-18T07:50:40Z</time>
      </trkpt>
      <trkpt lat="45.37291" lon="7.04088">
        <ele>1890</ele>
        <time>2019-04-18T07:51:40Z</time>
      </trkpt>
      <trkpt lat="45.37334" lon="7.04257">
        <ele>1883</ele>
        <time>2019-04-18T07:52:40Z</time>
      </trkpt>
      <trkpt lat="45.37349" lon="7.04339">
        <ele>1881</ele>
        <time>2019-04-18T07:53:40Z</time>
      </trkpt>
      <trkpt lat="45.37354" lon="7.04381">
        <ele>1879</ele>
        <time>2019-04-18T07:54:40Z</time>
      </trkpt>
      <trkpt lat="45.37368" lon="7.04442">
        <ele>1881</ele>
        <time>2019-04-18T07:55:40Z</time>
      </trkpt>
      <trkpt lat="45.37372" lon="7.04486">
        <ele>1878</ele>
        <time>2019-04-18T07:56:40Z</time>
      </trkpt>
      <trkpt lat="45.37371" lon="7.04515">
        <ele>1873</ele>
        <time>2019-04-18T07:57:40Z</time>
      </trkpt>
      <trkpt lat="45.37363" lon="7.04565">
        <ele>1862</ele>
        <time>2019-04-18T07:58:40Z</time>
      </trkpt>
      <trkpt lat="45.3736" lon="7.04608">
        <ele>1856</ele>
        <time>2019-04-18T07:59:40Z</time>
      </trkpt>
      <trkpt lat="45.3736" lon="7.04671">
        <ele>1852</ele>
        <time>2019-04-18T08:00:40Z</time>
      </trkpt>
      <trkpt lat="45.37361" lon="7.04705">
        <ele>1849</ele>
        <time>2019-04-18T08:01:40Z</time>
      </trkpt>
      <trkpt lat="45.37369" lon="7.04749">
        <ele>1850</ele>
        <time>2019-04-18T08:02:40Z</time>
      </trkpt>
      <trkpt lat="45.37371" lon="7.04786">
        <ele>1846</ele>
        <time>2019-04-18T08:03:40Z</time>
      </trkpt>
      <trkpt lat="45.37377" lon="7.04818">
        <ele>1843</ele>
        <time>2019-04-18T08:04:40Z</time>
      </trkpt>
      <trkpt lat="45.37387" lon="7.04861">
        <ele>1842</ele>
        <time>2019-04-18T08:05:40Z</time>
      </trkpt>
      <trkpt lat="45.37397" lon="7.04913">
        <ele>1838</ele>
        <time>2019-04-18T08:06:40Z</time>
      </trkpt>
      <trkpt lat="45.37429" lon="7.05109">
        <ele>1828</ele>
        <time>2019-04-18T08:07:40Z</time>
      </trkpt>
      <trkpt lat="45.3743" lon="7.05164">
        <ele>1825</ele>
        <time>2019-04-18T08:08:40Z</time>
      </trkpt>
      <trkpt lat="45.37425" lon="7.05219">
        <ele>1821</ele>
        <time>2019-04-18T08:09:40Z</time>
      </trkpt>
      <trkpt lat="45.3741" lon="7.05252">
        <ele>1817</ele>
        <time>2019-04-18T08:10:40Z</time>
      </trkpt>
      <trkpt lat="45.37381" lon="7.05281">
        <ele>1812</ele>
        <time>2019-04-18T08:11:40Z</time>
      </trkpt>
      <trkpt lat="45.37347" lon="7.05283">
        <ele>1806</ele>
        <time>2019-04-18T08:12:40Z</time>
      </trkpt>
      <trkpt lat="45.37337" lon="7.0528">
        <ele>1804</ele>
        <time>2019-04-18T08:13:40Z</time>
      </trkpt>
      <trkpt lat="45.37325" lon="7.05273">
        <ele>1803</ele>
        <time>2019-04-18T08:14:40Z</time>
      </trkpt>
      <trkpt lat="45.37305" lon="7.05252">
        <ele>1801</ele>
        <time>2019-04-18T08:15:40Z</time>
      </trkpt>
      <trkpt lat="45.37279" lon="7.05202">
        <ele>1798</ele>
        <time>2019-04-18T08:16:40Z</time>
      </trkpt>
      <trkpt lat="45.37185" lon="7.04991">
        <ele>1792</ele>
        <time>2019-04-18T08:17:40Z</time>
      </trkpt>
      <trkpt lat="45.37141" lon="7.04892">
        <ele>1790</ele>
        <time>2019-04-18T08:18:40Z</time>
      </trkpt>
      <trkpt lat="45.37053" lon="7.04679">
        <ele>1788</ele>
        <time>2019-04-18T08:19:40Z</time>
      </trkpt>
      <trkpt lat="45.3695" lon="7.04334">
        <ele>1782</ele>
        <time>2019-04-18T08:20:40Z</time>
      </trkpt>
      <trkpt lat="45.36925" lon="7.04267">
        <ele>1782</ele>
        <time>2019-04-18T08:21:40Z</time>
      </trkpt>
      <trkpt lat="45.36898" lon="7.04228">
        <ele>1782</ele>
        <time>2019-04-18T08:22:40Z</time>
      </trkpt>
      <trkpt lat="45.36733" lon="7.0401">
        <ele>1783</ele>
        <time>2019-04-18T08:23:40Z</time>
      </trkpt>
      <trkpt lat="45.36417" lon="7.03684">
        <ele>1778</ele>
        <time>2019-04-18T08:24:40Z</time>
      </trkpt>
      <trkpt lat="45.36363" lon="7.03619">
        <ele>1781</ele>
        <time>2019-04-18T08:25:40Z</time>
      </trkpt>
      <trkpt lat="45.36304" lon="7.03534">
        <ele>1777</ele>
        <time>2019-04-18T08:26:40Z</time>
      </trkpt>
      <trkpt lat="45.3628" lon="7.03505">
        <ele>1774</ele>
        <time>2019-04-18T08:27:40Z</time>
      </trkpt>
      <trkpt lat="45.36194" lon="7.03434">
        <ele>1773</ele>
        <time>2019-04-18T08:28:40Z</time>
      </trkpt>
      <trkpt lat="45.35978" lon="7.03203">
        <ele>1767</ele>
        <time>2019-04-18T08:29:40Z</time>
      </trkpt>
      <trkpt lat="45.35956" lon="7.03187">
        <ele>1767</ele>
        <time>2019-04-18T08:30:40Z</time>
      </trkpt>
      <trkpt lat="45.35767" lon="7.03065">
        <ele>1777</ele>
        <time>2019-04-18T08:31:40Z</time>
      </trkpt>
      <trkpt lat="45.35735" lon="7.03035">
        <ele>1774</ele>
        <time>2019-04-18T08:32:40Z</time>
      </trkpt>
      <trkpt lat="45.35705" lon="7.03004">
        <ele>1768</ele>
        <time>2019-04-18T08:33:40Z</time>
      </trkpt>
      <trkpt lat="45.35667" lon="7.02979">
        <ele>1769</ele>
        <time>2019-04-18T08:34:40Z</time>
      </trkpt>
      <trkpt lat="45.35632" lon="7.02963">
        <ele>1768</ele>
        <time>2019-04-18T08:35:40Z</time>
      </trkpt>
      <trkpt lat="45.35608" lon="7.02959">
        <ele>1768</ele>
        <time>2019-04-18T08:36:40Z</time>
      </trkpt>
      <trkpt lat="45.35583" lon="7.02959">
        <ele>1769</ele>
        <time>2019-04-18T08:37:40Z</time>
      </trkpt>
      <trkpt lat="45.35211" lon="7.03017">
        <ele>1757</ele>
        <time>2019-04-18T08:38:40Z</time>
      </trkpt>
      <trkpt lat="45.35156" lon="7.03016">
        <ele>1756</ele>
        <time>2019-04-18T08:39:40Z</time>
      </trkpt>
      <trkpt lat="45.35098" lon="7.03009">
        <ele>1758</ele>
        <time>2019-04-18T08:40:40Z</time>
      </trkpt>
      <trkpt lat="45.34924" lon="7.02977">
        <ele>1756</ele>
        <time>2019-04-18T08:41:40Z</time>
      </trkpt>
      <trkpt lat="45.34753" lon="7.02961">
        <ele>1754</ele>
        <time>2019-04-18T08:42:40Z</time>
      </trkpt>
      <trkpt lat="45.3467" lon="7.02948">
        <ele>1754</ele>
        <time>2019-04-18T08:43:40Z</time>
      </trkpt>
      <trkpt lat="45.34584" lon="7.02919">
        <ele>1749</ele>
        <time>2019-04-18T08:44:40Z</time>
      </trkpt>
      <trkpt lat="45.34423" lon="7.02852">
        <ele>1750</ele>
        <time>2019-04-18T08:45:40Z</time>
      </trkpt>
      <trkpt lat="45.34354" lon="7.02813">
        <ele>1748</ele>
        <time>2019-04-18T08:46:40Z</time>
      </trkpt>
      <trkpt lat="45.34081" lon="7.02614">
        <ele>1749</ele>
        <time>2019-04-18T08:47:40Z</time>
      </trkpt>
      <trkpt lat="45.34047" lon="7.02585">
        <ele>1748</ele>
        <time>2019-04-18T08:48:40Z</time>
      </trkpt>
      <trkpt lat="45.34002" lon="7.02535">
        <ele>1747</ele>
        <time>2019-04-18T08:49:40Z</time>
      </trkpt>
      <trkpt lat="45.3392" lon="7.02423">
        <ele>1744</ele>
        <time>2019-04-18T08:50:40Z</time>
      </trkpt>
      <trkpt lat="45.33898" lon="7.02393">
        <ele>1743</ele>
        <time>2019-04-18T08:51:40Z</time>
      </trkpt>
      <trkpt lat="45.33872" lon="7.02364">
        <ele>1743</ele>
        <time>2019-04-18T08:52:40Z</time>
      </trkpt>
      <trkpt lat="45.33176" lon="7.01654">
        <ele>1734</ele>
        <time>2019-04-18T08:53:40Z</time>
      </trkpt>
      <trkpt lat="45.33152" lon="7.01625">
        <ele>1734</ele>
        <time>2019-04-18T08:54:40Z</time>
      </trkpt>
      <trkpt lat="45.33134" lon="7.01599">
        <ele>1735</ele>
        <time>2019-04-18T08:55:40Z</time>
      </trkpt>
      <trkpt lat="45.33052" lon="7.0147">
        <ele>1740</ele>
        <time>2019-04-18T08:56:40Z</time>
      </trkpt>
      <trkpt lat="45.33029" lon="7.01429">
        <ele>1743</ele>
        <time>2019-04-18T08:57:40Z</time>
      </trkpt>
      <trkpt lat="45.33013" lon="7.01392">
        <ele>1745</ele>
        <time>2019-04-18T08:58:40Z</time>
      </trkpt>
      <trkpt lat="45.33" lon="7.01352">
        <ele>1746</ele>
        <time>2019-04-18T08:59:40Z</time>
      </trkpt>
      <trkpt lat="45.32939" lon="7.01153">
        <ele>1741</ele>
        <time>2019-04-18T09:00:40Z</time>
      </trkpt>
      <trkpt lat="45.32926" lon="7.01116">
        <ele>1739</ele>
        <time>2019-04-18T09:01:40Z</time>
      </trkpt>
      <trkpt lat="45.32911" lon="7.01081">
        <ele>1737</ele>
        <time>2019-04-18T09:02:40Z</time>
      </trkpt>
      <trkpt lat="45.32855" lon="7.00969">
        <ele>1734</ele>
        <time>2019-04-18T09:03:40Z</time>
      </trkpt>
      <trkpt lat="45.32717" lon="7.00682">
        <ele>1731</ele>
        <time>2019-04-18T09:04:40Z</time>
      </trkpt>
      <trkpt lat="45.32617" lon="7.00481">
        <ele>1738</ele>
        <time>2019-04-18T09:05:40Z</time>
      </trkpt>
      <trkpt lat="45.32584" lon="7.00419">
        <ele>1736</ele>
        <time>2019-04-18T09:06:40Z</time>
      </trkpt>
      <trkpt lat="45.32548" lon="7.00367">
        <ele>1735</ele>
        <time>2019-04-18T09:07:40Z</time>
      </trkpt>
      <trkpt lat="45.32515" lon="7.00327">
        <ele>1734</ele>
        <time>2019-04-18T09:08:40Z</time>
      </trkpt>
      <trkpt lat="45.32399" lon="7.00214">
        <ele>1732</ele>
        <time>2019-04-18T09:09:40Z</time>
      </trkpt>
      <trkpt lat="45.32353" lon="7.00174">
        <ele>1732</ele>
        <time>2019-04-18T09:10:40Z</time>
      </trkpt>
      <trkpt lat="45.32342" lon="7.00153">
        <ele>1732</ele>
        <time>2019-04-18T09:11:40Z</time>
      </trkpt>
      <trkpt lat="45.32326" lon="7.00143">
        <ele>1732</ele>
        <time>2019-04-18T09:12:40Z</time>
      </trkpt>
      <trkpt lat="45.32302" lon="7.0012">
        <ele>1733</ele>
        <time>2019-04-18T09:13:40Z</time>
      </trkpt>
      <trkpt lat="45.3219" lon="7.0001">
        <ele>1733</ele>
        <time>2019-04-18T09:14:40Z</time>
      </trkpt>
      <trkpt lat="45.32095" lon="6.99919">
        <ele>1730</ele>
        <time>2019-04-18T09:15:40Z</time>
      </trkpt>
      <trkpt lat="45.31995" lon="6.9982">
        <ele>1731</ele>
        <time>2019-04-18T09:16:40Z</time>
      </trkpt>
      <trkpt lat="45.3134" lon="6.99189">
        <ele>1743</ele>
        <time>2019-04-18T09:17:40Z</time>
      </trkpt>
      <trkpt lat="45.31294" lon="6.9914">
        <ele>1743</ele>
        <time>2019-04-18T09:18:40Z</time>
      </trkpt>
      <trkpt lat="45.31268" lon="6.99094">
        <ele>1742</ele>
        <time>2019-04-18T09:19:40Z</time>
      </trkpt>
      <trkpt lat="45.31252" lon="6.99054">
        <ele>1739</ele>
        <time>2019-04-18T09:20:40Z</time>
      </trkpt>
      <trkpt lat="45.31217" lon="6.98939">
        <ele>1745</ele>
        <time>2019-04-18T09:21:40Z</time>
      </trkpt>
      <trkpt lat="45.31215" lon="6.98931">
        <ele>1747</ele>
        <time>2019-04-18T09:22:40Z</time>
      </trkpt>
      <trkpt lat="45.31212" lon="6.98899">
        <ele>1753</ele>
        <time>2019-04-18T09:23:40Z</time>
      </trkpt>
      <trkpt lat="45.31214" lon="6.98861">
        <ele>1758</ele>
        <time>2019-04-18T09:24:40Z</time>
      </trkpt>
      <trkpt lat="45.31227" lon="6.98795">
        <ele>1755</ele>
        <time>2019-04-18T09:25:40Z</time>
      </trkpt>
      <trkpt lat="45.31229" lon="6.98738">
        <ele>1754</ele>
        <time>2019-04-18T09:26:40Z</time>
      </trkpt>
      <trkpt lat="45.31224" lon="6.98677">
        <ele>1749</ele>
        <time>2019-04-18T09:27:40Z</time>
      </trkpt>
      <trkpt lat="45.31208" lon="6.98617">
        <ele>1748</ele>
        <time>2019-04-18T09:28:40Z</time>
      </trkpt>
      <trkpt lat="45.31021" lon="6.98181">
        <ele>1733</ele>
        <time>2019-04-18T09:29:40Z</time>
      </trkpt>
      <trkpt lat="45.30869" lon="6.97838">
        <ele>1703</ele>
        <time>2019-04-18T09:30:40Z</time>
      </trkpt>
      <trkpt lat="45.30852" lon="6.97796">
        <ele>1699</ele>
        <time>2019-04-18T09:31:40Z</time>
      </trkpt>
      <trkpt lat="45.30838" lon="6.97747">
        <ele>1692</ele>
        <time>2019-04-18T09:32:40Z</time>
      </trkpt>
      <trkpt lat="45.30834" lon="6.97716">
        <ele>1691</ele>
        <time>2019-04-18T09:33:40Z</time>
      </trkpt>
      <trkpt lat="45.30832" lon="6.97681">
        <ele>1688</ele>
        <time>2019-04-18T09:34:40Z</time>
      </trkpt>
      <trkpt lat="45.30836" lon="6.9762">
        <ele>1685</ele>
        <time>2019-04-18T09:35:40Z</time>
      </trkpt>
      <trkpt lat="45.3084" lon="6.97596">
        <ele>1684</ele>
        <time>2019-04-18T09:36:40Z</time>
      </trkpt>
      <trkpt lat="45.3086" lon="6.97518">
        <ele>1681</ele>
        <time>2019-04-18T09:37:40Z</time>
      </trkpt>
      <trkpt lat="45.30864" lon="6.97494">
        <ele>1681</ele>
        <time>2019-04-18T09:38:40Z</time>
      </trkpt>
      <trkpt lat="45.30889" lon="6.97395">
        <ele>1681</ele>
        <time>2019-04-18T09:39:40Z</time>
      </trkpt>
      <trkpt lat="45.30894" lon="6.97369">
        <ele>1681</ele>
        <time>2019-04-18T09:40:40Z</time>
      </trkpt>
      <trkpt lat="45.309" lon="6.97313">
        <ele>1682</ele>
        <time>2019-04-18T09:41:40Z</time>
      </trkpt>
      <trkpt lat="45.30899" lon="6.97274">
        <ele>1682</ele>
        <time>2019-04-18T09:42:40Z</time>
      </trkpt>
      <trkpt lat="45.30894" lon="6.97244">
        <ele>1682</ele>
        <time>2019-04-18T09:43:40Z</time>
      </trkpt>
      <trkpt lat="45.30884" lon="6.97209">
        <ele>1682</ele>
        <time>2019-04-18T09:44:40Z</time>
      </trkpt>
      <trkpt lat="45.30863" lon="6.97162">
        <ele>1682</ele>
        <time>2019-04-18T09:45:40Z</time>
      </trkpt>
      <trkpt lat="45.30808" lon="6.97057">
        <ele>1682</ele>
        <time>2019-04-18T09:46:40Z</time>
      </trkpt>
      <trkpt lat="45.30708" lon="6.96877">
        <ele>1678</ele>
        <time>2019-04-18T09:47:40Z</time>
      </trkpt>
      <trkpt lat="45.30683" lon="6.9682">
        <ele>1677</ele>
        <time>2019-04-18T09:48:40Z</time>
      </trkpt>
      <trkpt lat="45.30661" lon="6.9675">
        <ele>1675</ele>
        <time>2019-04-18T09:49:40Z</time>
      </trkpt>
      <trkpt lat="45.30644" lon="6.96678">
        <ele>1677</ele>
        <time>2019-04-18T09:50:40Z</time>
      </trkpt>
      <trkpt lat="45.30636" lon="6.96598">
        <ele>1677</ele>
        <time>2019-04-18T09:51:40Z</time>
      </trkpt>
      <trkpt lat="45.3063" lon="6.9648">
        <ele>1678</ele>
        <time>2019-04-18T09:52:40Z</time>
      </trkpt>
      <trkpt lat="45.30628" lon="6.9638">
        <ele>1676</ele>
        <time>2019-04-18T09:53:40Z</time>
      </trkpt>
      <trkpt lat="45.30634" lon="6.96254">
        <ele>1676</ele>
        <time>2019-04-18T09:54:40Z</time>
      </trkpt>
      <trkpt lat="45.30645" lon="6.96094">
        <ele>1682</ele>
        <time>2019-04-18T09:55:40Z</time>
      </trkpt>
      <trkpt lat="45.30644" lon="6.96048">
        <ele>1682</ele>
        <time>2019-04-18T09:56:40Z</time>
      </trkpt>
      <trkpt lat="45.30639" lon="6.96005">
        <ele>1681</ele>
        <time>2019-04-18T09:57:40Z</time>
      </trkpt>
      <trkpt lat="45.3062" lon="6.95904">
        <ele>1688</ele>
        <time>2019-04-18T09:58:40Z</time>
      </trkpt>
      <trkpt lat="45.30596" lon="6.95817">
        <ele>1695</ele>
        <time>2019-04-18T09:59:40Z</time>
      </trkpt>
      <trkpt lat="45.3057" lon="6.95759">
        <ele>1692</ele>
        <time>2019-04-18T10:00:40Z</time>
      </trkpt>
      <trkpt lat="45.30544" lon="6.95721">
        <ele>1694</ele>
        <time>2019-04-18T10:01:40Z</time>
      </trkpt>
      <trkpt lat="45.30502" lon="6.95686">
        <ele>1689</ele>
        <time>2019-04-18T10:02:40Z</time>
      </trkpt>
      <trkpt lat="45.30353" lon="6.95605">
        <ele>1699</ele>
        <time>2019-04-18T10:03:40Z</time>
      </trkpt>
      <trkpt lat="45.3033" lon="6.95585">
        <ele>1701</ele>
        <time>2019-04-18T10:04:40Z</time>
      </trkpt>
      <trkpt lat="45.30317" lon="6.95567">
        <ele>1702</ele>
        <time>2019-04-18T10:05:40Z</time>
      </trkpt>
      <trkpt lat="45.30307" lon="6.95546">
        <ele>1703</ele>
        <time>2019-04-18T10:06:40Z</time>
      </trkpt>
      <trkpt lat="45.30296" lon="6.95515">
        <ele>1706</ele>
        <time>2019-04-18T10:07:40Z</time>
      </trkpt>
      <trkpt lat="45.30289" lon="6.95488">
        <ele>1708</ele>
        <time>2019-04-18T10:08:40Z</time>
      </trkpt>
      <trkpt lat="45.30261" lon="6.95349">
        <ele>1716</ele>
        <time>2019-04-18T10:09:40Z</time>
      </trkpt>
      <trkpt lat="45.30249" lon="6.95317">
        <ele>1718</ele>
        <time>2019-04-18T10:10:40Z</time>
      </trkpt>
      <trkpt lat="45.30239" lon="6.95302">
        <ele>1719</ele>
        <time>2019-04-18T10:11:40Z</time>
      </trkpt>
      <trkpt lat="45.30231" lon="6.95294">
        <ele>1720</ele>
        <time>2019-04-18T10:12:40Z</time>
      </trkpt>
      <trkpt lat="45.30219" lon="6.95289">
        <ele>1721</ele>
        <time>2019-04-18T10:13:40Z</time>
      </trkpt>
      <trkpt lat="45.30196" lon="6.95289">
        <ele>1723</ele>
        <time>2019-04-18T10:14:40Z</time>
      </trkpt>
      <trkpt lat="45.30134" lon="6.95304">
        <ele>1723</ele>
        <time>2019-04-18T10:15:40Z</time>
      </trkpt>
      <trkpt lat="45.30117" lon="6.95305">
        <ele>1723</ele>
        <time>2019-04-18T10:16:40Z</time>
      </trkpt>
      <trkpt lat="45.301" lon="6.95299">
        <ele>1724</ele>
        <time>2019-04-18T10:17:40Z</time>
      </trkpt>
      <trkpt lat="45.30085" lon="6.95287">
        <ele>1725</ele>
        <time>2019-04-18T10:18:40Z</time>
      </trkpt>
      <trkpt lat="45.30076" lon="6.95274">
        <ele>1723</ele>
        <time>2019-04-18T10:19:40Z</time>
      </trkpt>
      <trkpt lat="45.30069" lon="6.95256">
        <ele>1721</ele>
        <time>2019-04-18T10:20:40Z</time>
      </trkpt>
      <trkpt lat="45.3001" lon="6.94988">
        <ele>1736</ele>
        <time>2019-04-18T10:21:40Z</time>
      </trkpt>
      <trkpt lat="45.30006" lon="6.94953">
        <ele>1737</ele>
        <time>2019-04-18T10:22:40Z</time>
      </trkpt>
      <trkpt lat="45.30007" lon="6.94923">
        <ele>1738</ele>
        <time>2019-04-18T10:23:40Z</time>
      </trkpt>
      <trkpt lat="45.30009" lon="6.94906">
        <ele>1739</ele>
        <time>2019-04-18T10:24:40Z</time>
      </trkpt>
      <trkpt lat="45.30068" lon="6.9472">
        <ele>1739</ele>
        <time>2019-04-18T10:25:40Z</time>
      </trkpt>
      <trkpt lat="45.30078" lon="6.94681">
        <ele>1738</ele>
        <time>2019-04-18T10:26:40Z</time>
      </trkpt>
      <trkpt lat="45.30086" lon="6.9462">
        <ele>1736</ele>
        <time>2019-04-18T10:27:40Z</time>
      </trkpt>
      <trkpt lat="45.30087" lon="6.94544">
        <ele>1735</ele>
        <time>2019-04-18T10:28:40Z</time>
      </trkpt>
      <trkpt lat="45.30079" lon="6.94358">
        <ele>1728</ele>
        <time>2019-04-18T10:29:40Z</time>
      </trkpt>
      <trkpt lat="45.30077" lon="6.9433">
        <ele>1727</ele>
        <time>2019-04-18T10:30:40Z</time>
      </trkpt>
      <trkpt lat="45.30072" lon="6.94305">
        <ele>1724</ele>
        <time>2019-04-18T10:31:40Z</time>
      </trkpt>
      <trkpt lat="45.30046" lon="6.94225">
        <ele>1716</ele>
        <time>2019-04-18T10:32:40Z</time>
      </trkpt>
      <trkpt lat="45.30029" lon="6.94194">
        <ele>1716</ele>
        <time>2019-04-18T10:33:40Z</time>
      </trkpt>
      <trkpt lat="45.30011" lon="6.94165">
        <ele>1716</ele>
        <time>2019-04-18T10:34:40Z</time>
      </trkpt>
      <trkpt lat="45.29939" lon="6.94063">
        <ele>1715</ele>
        <time>2019-04-18T10:35:40Z</time>
      </trkpt>
      <trkpt lat="45.2993" lon="6.94045">
        <ele>1715</ele>
        <time>2019-04-18T10:36:40Z</time>
      </trkpt>
      <trkpt lat="45.29924" lon="6.94028">
        <ele>1715</ele>
        <time>2019-04-18T10:37:40Z</time>
      </trkpt>
      <trkpt lat="45.2992" lon="6.94013">
        <ele>1716</ele>
        <time>2019-04-18T10:38:40Z</time>
      </trkpt>
      <trkpt lat="45.29919" lon="6.93998">
        <ele>1717</ele>
        <time>2019-04-18T10:39:40Z</time>
      </trkpt>
      <trkpt lat="45.29921" lon="6.93981">
        <ele>1716</ele>
        <time>2019-04-18T10:40:40Z</time>
      </trkpt>
      <trkpt lat="45.29926" lon="6.93959">
        <ele>1715</ele>
        <time>2019-04-18T10:41:40Z</time>
      </trkpt>
      <trkpt lat="45.29972" lon="6.93817">
        <ele>1703</ele>
        <time>2019-04-18T10:42:40Z</time>
      </trkpt>
      <trkpt lat="45.29978" lon="6.93791">
        <ele>1702</ele>
        <time>2019-04-18T10:43:40Z</time>
      </trkpt>
      <trkpt lat="45.29981" lon="6.93752">
        <ele>1702</ele>
        <time>2019-04-18T10:44:40Z</time>
      </trkpt>
      <trkpt lat="45.29979" lon="6.93726">
        <ele>1702</ele>
        <time>2019-04-18T10:45:40Z</time>
      </trkpt>
      <trkpt lat="45.29974" lon="6.93695">
        <ele>1703</ele>
        <time>2019-04-18T10:46:40Z</time>
      </trkpt>
      <trkpt lat="45.29948" lon="6.93575">
        <ele>1698</ele>
        <time>2019-04-18T10:47:40Z</time>
      </trkpt>
      <trkpt lat="45.29942" lon="6.93557">
        <ele>1697</ele>
        <time>2019-04-18T10:48:40Z</time>
      </trkpt>
      <trkpt lat="45.29936" lon="6.93547">
        <ele>1695</ele>
        <time>2019-04-18T10:49:40Z</time>
      </trkpt>
      <trkpt lat="45.29928" lon="6.93537">
        <ele>1693</ele>
        <time>2019-04-18T10:50:40Z</time>
      </trkpt>
      <trkpt lat="45.2992" lon="6.93532">
        <ele>1690</ele>
        <time>2019-04-18T10:51:40Z</time>
      </trkpt>
      <trkpt lat="45.29912" lon="6.9353">
        <ele>1688</ele>
        <time>2019-04-18T10:52:40Z</time>
      </trkpt>
      <trkpt lat="45.29902" lon="6.9353">
        <ele>1686</ele>
        <time>2019-04-18T10:53:40Z</time>
      </trkpt>
      <trkpt lat="45.29885" lon="6.93537">
        <ele>1683</ele>
        <time>2019-04-18T10:54:40Z</time>
      </trkpt>
      <trkpt lat="45.29829" lon="6.93595">
        <ele>1680</ele>
        <time>2019-04-18T10:55:40Z</time>
      </trkpt>
      <trkpt lat="45.29768" lon="6.9364">
        <ele>1679</ele>
        <time>2019-04-18T10:56:40Z</time>
      </trkpt>
      <trkpt lat="45.29741" lon="6.93665">
        <ele>1679</ele>
        <time>2019-04-18T10:57:40Z</time>
      </trkpt>
      <trkpt lat="45.29726" lon="6.93676">
        <ele>1677</ele>
        <time>2019-04-18T10:58:40Z</time>
      </trkpt>
      <trkpt lat="45.2972" lon="6.93677">
        <ele>1675</ele>
        <time>2019-04-18T10:59:40Z</time>
      </trkpt>
      <trkpt lat="45.29706" lon="6.93673">
        <ele>1672</ele>
        <time>2019-04-18T11:00:40Z</time>
      </trkpt>
      <trkpt lat="45.29699" lon="6.93666">
        <ele>1670</ele>
        <time>2019-04-18T11:01:40Z</time>
      </trkpt>
      <trkpt lat="45.29693" lon="6.93656">
        <ele>1667</ele>
        <time>2019-04-18T11:02:40Z</time>
      </trkpt>
      <trkpt lat="45.29687" lon="6.93637">
        <ele>1663</ele>
        <time>2019-04-18T11:03:40Z</time>
      </trkpt>
      <trkpt lat="45.29687" lon="6.93622">
        <ele>1661</ele>
        <time>2019-04-18T11:04:40Z</time>
      </trkpt>
      <trkpt lat="45.29689" lon="6.9361">
        <ele>1659</ele>
        <time>2019-04-18T11:05:40Z</time>
      </trkpt>
      <trkpt lat="45.29692" lon="6.93602">
        <ele>1659</ele>
        <time>2019-04-18T11:06:40Z</time>
      </trkpt>
      <trkpt lat="45.29698" lon="6.93594">
        <ele>1658</ele>
        <time>2019-04-18T11:07:40Z</time>
      </trkpt>
      <trkpt lat="45.29758" lon="6.9356">
        <ele>1660</ele>
        <time>2019-04-18T11:08:40Z</time>
      </trkpt>
      <trkpt lat="45.29768" lon="6.93551">
        <ele>1661</ele>
        <time>2019-04-18T11:09:40Z</time>
      </trkpt>
      <trkpt lat="45.29783" lon="6.93526">
        <ele>1661</ele>
        <time>2019-04-18T11:10:40Z</time>
      </trkpt>
      <trkpt lat="45.29787" lon="6.93513">
        <ele>1660</ele>
        <time>2019-04-18T11:11:40Z</time>
      </trkpt>
      <trkpt lat="45.29792" lon="6.93484">
        <ele>1658</ele>
        <time>2019-04-18T11:12:40Z</time>
      </trkpt>
      <trkpt lat="45.29798" lon="6.93425">
        <ele>1655</ele>
        <time>2019-04-18T11:13:40Z</time>
      </trkpt>
      <trkpt lat="45.29796" lon="6.93394">
        <ele>1654</ele>
        <time>2019-04-18T11:14:40Z</time>
      </trkpt>
      <trkpt lat="45.29786" lon="6.93365">
        <ele>1652</ele>
        <time>2019-04-18T11:15:40Z</time>
      </trkpt>
      <trkpt lat="45.29777" lon="6.9335">
        <ele>1651</ele>
        <time>2019-04-18T11:16:40Z</time>
      </trkpt>
      <trkpt lat="45.29765" lon="6.93336">
        <ele>1649</ele>
        <time>2019-04-18T11:17:40Z</time>
      </trkpt>
      <trkpt lat="45.29755" lon="6.93328">
        <ele>1647</ele>
        <time>2019-04-18T11:18:40Z</time>
      </trkpt>
      <trkpt lat="45.29732" lon="6.93321">
        <ele>1645</ele>
        <time>2019-04-18T11:19:40Z</time>
      </trkpt>
      <trkpt lat="45.2972" lon="6.93322">
        <ele>1644</ele>
        <time>2019-04-18T11:20:40Z</time>
      </trkpt>
      <trkpt lat="45.29706" lon="6.93326">
        <ele>1643</ele>
        <time>2019-04-18T11:21:40Z</time>
      </trkpt>
      <trkpt lat="45.29694" lon="6.93332">
        <ele>1642</ele>
        <time>2019-04-18T11:22:40Z</time>
      </trkpt>
      <trkpt lat="45.29669" lon="6.93359">
        <ele>1641</ele>
        <time>2019-04-18T11:23:40Z</time>
      </trkpt>
      <trkpt lat="45.29636" lon="6.93412">
        <ele>1638</ele>
        <time>2019-04-18T11:24:40Z</time>
      </trkpt>
      <trkpt lat="45.29625" lon="6.93426">
        <ele>1636</ele>
        <time>2019-04-18T11:25:40Z</time>
      </trkpt>
      <trkpt lat="45.29604" lon="6.93434">
        <ele>1633</ele>
        <time>2019-04-18T11:26:40Z</time>
      </trkpt>
      <trkpt lat="45.29578" lon="6.93434">
        <ele>1628</ele>
        <time>2019-04-18T11:27:40Z</time>
      </trkpt>
      <trkpt lat="45.2954" lon="6.93407">
        <ele>1621</ele>
        <time>2019-04-18T11:28:40Z</time>
      </trkpt>
      <trkpt lat="45.29494" lon="6.93355">
        <ele>1616</ele>
        <time>2019-04-18T11:29:40Z</time>
      </trkpt>
      <trkpt lat="45.2948" lon="6.93335">
        <ele>1613</ele>
        <time>2019-04-18T11:30:40Z</time>
      </trkpt>
      <trkpt lat="45.29445" lon="6.93271">
        <ele>1606</ele>
        <time>2019-04-18T11:31:40Z</time>
      </trkpt>
      <trkpt lat="45.29388" lon="6.93131">
        <ele>1596</ele>
        <time>2019-04-18T11:32:40Z</time>
      </trkpt>
      <trkpt lat="45.29381" lon="6.93108">
        <ele>1594</ele>
        <time>2019-04-18T11:33:40Z</time>
      </trkpt>
      <trkpt lat="45.2937" lon="6.93046">
        <ele>1590</ele>
        <time>2019-04-18T11:34:40Z</time>
      </trkpt>
      <trkpt lat="45.29366" lon="6.93003">
        <ele>1590</ele>
        <time>2019-04-18T11:35:40Z</time>
      </trkpt>
      <trkpt lat="45.29365" lon="6.92971">
        <ele>1587</ele>
        <time>2019-04-18T11:36:40Z</time>
      </trkpt>
      <trkpt lat="45.29368" lon="6.92945">
        <ele>1587</ele>
        <time>2019-04-18T11:37:40Z</time>
      </trkpt>
      <trkpt lat="45.29373" lon="6.92926">
        <ele>1587</ele>
        <time>2019-04-18T11:38:40Z</time>
      </trkpt>
      <trkpt lat="45.29383" lon="6.92902">
        <ele>1586</ele>
        <time>2019-04-18T11:39:40Z</time>
      </trkpt>
      <trkpt lat="45.29447" lon="6.92801">
        <ele>1582</ele>
        <time>2019-04-18T11:40:40Z</time>
      </trkpt>
      <trkpt lat="45.2948" lon="6.92731">
        <ele>1583</ele>
        <time>2019-04-18T11:41:40Z</time>
      </trkpt>
      <trkpt lat="45.29483" lon="6.92716">
        <ele>1584</ele>
        <time>2019-04-18T11:42:40Z</time>
      </trkpt>
      <trkpt lat="45.29482" lon="6.92685">
        <ele>1582</ele>
        <time>2019-04-18T11:43:40Z</time>
      </trkpt>
      <trkpt lat="45.2948" lon="6.92667">
        <ele>1581</ele>
        <time>2019-04-18T11:44:40Z</time>
      </trkpt>
      <trkpt lat="45.29476" lon="6.92652">
        <ele>1580</ele>
        <time>2019-04-18T11:45:40Z</time>
      </trkpt>
      <trkpt lat="45.29472" lon="6.92647">
        <ele>1578</ele>
        <time>2019-04-18T11:46:40Z</time>
      </trkpt>
      <trkpt lat="45.29461" lon="6.92642">
        <ele>1574</ele>
        <time>2019-04-18T11:47:40Z</time>
      </trkpt>
      <trkpt lat="45.29433" lon="6.92654">
        <ele>1565</ele>
        <time>2019-04-18T11:48:40Z</time>
      </trkpt>
      <trkpt lat="45.29423" lon="6.92655">
        <ele>1562</ele>
        <time>2019-04-18T11:49:40Z</time>
      </trkpt>
      <trkpt lat="45.29414" lon="6.92649">
        <ele>1559</ele>
        <time>2019-04-18T11:50:40Z</time>
      </trkpt>
      <trkpt lat="45.29409" lon="6.92639">
        <ele>1558</ele>
        <time>2019-04-18T11:51:40Z</time>
      </trkpt>
      <trkpt lat="45.29406" lon="6.9263">
        <ele>1557</ele>
        <time>2019-04-18T11:52:40Z</time>
      </trkpt>
      <trkpt lat="45.29407" lon="6.9261">
        <ele>1556</ele>
        <time>2019-04-18T11:53:40Z</time>
      </trkpt>
      <trkpt lat="45.29419" lon="6.92565">
        <ele>1556</ele>
        <time>2019-04-18T11:54:40Z</time>
      </trkpt>
      <trkpt lat="45.29421" lon="6.92549">
        <ele>1556</ele>
        <time>2019-04-18T11:55:40Z</time>
      </trkpt>
      <trkpt lat="45.29417" lon="6.92493">
        <ele>1551</ele>
        <time>2019-04-18T11:56:40Z</time>
      </trkpt>
      <trkpt lat="45.29418" lon="6.92451">
        <ele>1551</ele>
        <time>2019-04-18T11:57:40Z</time>
      </trkpt>
      <trkpt lat="45.29417" lon="6.92445">
        <ele>1550</ele>
        <time>2019-04-18T11:58:40Z</time>
      </trkpt>
      <trkpt lat="45.29408" lon="6.92436">
        <ele>1548</ele>
        <time>2019-04-18T11:59:40Z</time>
      </trkpt>
      <trkpt lat="45.29402" lon="6.92435">
        <ele>1547</ele>
        <time>2019-04-18T12:00:40Z</time>
      </trkpt>
      <trkpt lat="45.29382" lon="6.9244">
        <ele>1543</ele>
        <time>2019-04-18T12:01:40Z</time>
      </trkpt>
      <trkpt lat="45.29369" lon="6.9244">
        <ele>1540</ele>
        <time>2019-04-18T12:02:40Z</time>
      </trkpt>
      <trkpt lat="45.2936" lon="6.92435">
        <ele>1538</ele>
        <time>2019-04-18T12:03:40Z</time>
      </trkpt>
      <trkpt lat="45.29345" lon="6.92416">
        <ele>1533</ele>
        <time>2019-04-18T12:04:40Z</time>
      </trkpt>
      <trkpt lat="45.29337" lon="6.92394">
        <ele>1530</ele>
        <time>2019-04-18T12:05:40Z</time>
      </trkpt>
      <trkpt lat="45.29335" lon="6.92375">
        <ele>1529</ele>
        <time>2019-04-18T12:06:40Z</time>
      </trkpt>
      <trkpt lat="45.29339" lon="6.92359">
        <ele>1529</ele>
        <time>2019-04-18T12:07:40Z</time>
      </trkpt>
      <trkpt lat="45.29367" lon="6.92281">
        <ele>1533</ele>
        <time>2019-04-18T12:08:40Z</time>
      </trkpt>
      <trkpt lat="45.29368" lon="6.92259">
        <ele>1532</ele>
        <time>2019-04-18T12:09:40Z</time>
      </trkpt>
      <trkpt lat="45.29366" lon="6.92252">
        <ele>1531</ele>
        <time>2019-04-18T12:10:40Z</time>
      </trkpt>
      <trkpt lat="45.29363" lon="6.92246">
        <ele>1530</ele>
        <time>2019-04-18T12:11:40Z</time>
      </trkpt>
      <trkpt lat="45.29354" lon="6.92242">
        <ele>1527</ele>
        <time>2019-04-18T12:12:40Z</time>
      </trkpt>
      <trkpt lat="45.29333" lon="6.92241">
        <ele>1519</ele>
        <time>2019-04-18T12:13:40Z</time>
      </trkpt>
      <trkpt lat="45.29329" lon="6.92238">
        <ele>1519</ele>
        <time>2019-04-18T12:14:40Z</time>
      </trkpt>
      <trkpt lat="45.29324" lon="6.92229">
        <ele>1518</ele>
        <time>2019-04-18T12:15:40Z</time>
      </trkpt>
      <trkpt lat="45.29316" lon="6.92185">
        <ele>1514</ele>
        <time>2019-04-18T12:16:40Z</time>
      </trkpt>
      <trkpt lat="45.29304" lon="6.92135">
        <ele>1509</ele>
        <time>2019-04-18T12:17:40Z</time>
      </trkpt>
      <trkpt lat="45.29294" lon="6.92112">
        <ele>1506</ele>
        <time>2019-04-18T12:18:40Z</time>
      </trkpt>
      <trkpt lat="45.29257" lon="6.92043">
        <ele>1500</ele>
        <time>2019-04-18T12:19:40Z</time>
      </trkpt>
      <trkpt lat="45.29214" lon="6.91987">
        <ele>1495</ele>
        <time>2019-04-18T12:20:40Z</time>
      </trkpt>
      <trkpt lat="45.29187" lon="6.91942">
        <ele>1489</ele>
        <time>2019-04-18T12:21:40Z</time>
      </trkpt>
      <trkpt lat="45.29172" lon="6.9191">
        <ele>1483</ele>
        <time>2019-04-18T12:22:40Z</time>
      </trkpt>
      <trkpt lat="45.29163" lon="6.91882">
        <ele>1481</ele>
        <time>2019-04-18T12:23:40Z</time>
      </trkpt>
      <trkpt lat="45.29158" lon="6.91856">
        <ele>1479</ele>
        <time>2019-04-18T12:24:40Z</time>
      </trkpt>
      <trkpt lat="45.2915" lon="6.9183">
        <ele>1477</ele>
        <time>2019-04-18T12:25:40Z</time>
      </trkpt>
      <trkpt lat="45.29149" lon="6.91822">
        <ele>1476</ele>
        <time>2019-04-18T12:26:40Z</time>
      </trkpt>
      <trkpt lat="45.29149" lon="6.91695">
        <ele>1473</ele>
        <time>2019-04-18T12:27:40Z</time>
      </trkpt>
      <trkpt lat="45.29141" lon="6.91631">
        <ele>1472</ele>
        <time>2019-04-18T12:28:40Z</time>
      </trkpt>
      <trkpt lat="45.29144" lon="6.91589">
        <ele>1471</ele>
        <time>2019-04-18T12:29:40Z</time>
      </trkpt>
      <trkpt lat="45.29143" lon="6.91579">
        <ele>1471</ele>
        <time>2019-04-18T12:30:40Z</time>
      </trkpt>
      <trkpt lat="45.29138" lon="6.91559">
        <ele>1471</ele>
        <time>2019-04-18T12:31:40Z</time>
      </trkpt>
      <trkpt lat="45.29123" lon="6.91515">
        <ele>1470</ele>
        <time>2019-04-18T12:32:40Z</time>
      </trkpt>
      <trkpt lat="45.29113" lon="6.91491">
        <ele>1470</ele>
        <time>2019-04-18T12:33:40Z</time>
      </trkpt>
      <trkpt lat="45.29051" lon="6.91389">
        <ele>1468</ele>
        <time>2019-04-18T12:34:40Z</time>
      </trkpt>
      <trkpt lat="45.29038" lon="6.91352">
        <ele>1467</ele>
        <time>2019-04-18T12:35:40Z</time>
      </trkpt>
      <trkpt lat="45.29033" lon="6.91328">
        <ele>1467</ele>
        <time>2019-04-18T12:36:40Z</time>
      </trkpt>
      <trkpt lat="45.29033" lon="6.9131">
        <ele>1467</ele>
        <time>2019-04-18T12:37:40Z</time>
      </trkpt>
      <trkpt lat="45.29035" lon="6.91278">
        <ele>1466</ele>
        <time>2019-04-18T12:38:40Z</time>
      </trkpt>
      <trkpt lat="45.2904" lon="6.91259">
        <ele>1466</ele>
        <time>2019-04-18T12:39:40Z</time>
      </trkpt>
      <trkpt lat="45.29041" lon="6.91245">
        <ele>1466</ele>
        <time>2019-04-18T12:40:40Z</time>
      </trkpt>
      <trkpt lat="45.2904" lon="6.90728">
        <ele>1460</ele>
        <time>2019-04-18T12:41:40Z</time>
      </trkpt>
      <trkpt lat="45.29036" lon="6.90688">
        <ele>1458</ele>
        <time>2019-04-18T12:42:40Z</time>
      </trkpt>
      <trkpt lat="45.29033" lon="6.90673">
        <ele>1457</ele>
        <time>2019-04-18T12:43:40Z</time>
      </trkpt>
      <trkpt lat="45.29022" lon="6.90643">
        <ele>1456</ele>
        <time>2019-04-18T12:44:40Z</time>
      </trkpt>
      <trkpt lat="45.28991" lon="6.90596">
        <ele>1455</ele>
        <time>2019-04-18T12:45:40Z</time>
      </trkpt>
      <trkpt lat="45.2895" lon="6.90529">
        <ele>1453</ele>
        <time>2019-04-18T12:46:40Z</time>
      </trkpt>
      <trkpt lat="45.28932" lon="6.90493">
        <ele>1451</ele>
        <time>2019-04-18T12:47:40Z</time>
      </trkpt>
      <trkpt lat="45.28846" lon="6.90289">
        <ele>1441</ele>
        <time>2019-04-18T12:48:40Z</time>
      </trkpt>
      <trkpt lat="45.2883" lon="6.90244">
        <ele>1438</ele>
        <time>2019-04-18T12:49:40Z</time>
      </trkpt>
      <trkpt lat="45.28832" lon="6.90237">
        <ele>1437</ele>
        <time>2019-04-18T12:50:40Z</time>
      </trkpt>
      <trkpt lat="45.28831" lon="6.90231">
        <ele>1436</ele>
        <time>2019-04-18T12:51:40Z</time>
      </trkpt>
      <trkpt lat="45.28827" lon="6.90226">
        <ele>1436</ele>
        <time>2019-04-18T12:52:40Z</time>
      </trkpt>
      <trkpt lat="45.28824" lon="6.90225">
        <ele>1436</ele>
        <time>2019-04-18T12:53:40Z</time>
      </trkpt>
      <trkpt lat="45.28822" lon="6.90221">
        <ele>1436</ele>
        <time>2019-04-18T12:54:40Z</time>
      </trkpt>
      <trkpt lat="45.28791" lon="6.90205">
        <ele>1437</ele>
        <time>2019-04-18T12:55:40Z</time>
      </trkpt>
      <trkpt lat="45.28765" lon="6.90173">
        <ele>1436</ele>
        <time>2019-04-18T12:56:40Z</time>
      </trkpt>
      <trkpt lat="45.28756" lon="6.90157">
        <ele>1435</ele>
        <time>2019-04-18T12:57:40Z</time>
      </trkpt>
      <trkpt lat="45.28742" lon="6.90122">
        <ele>1432</ele>
        <time>2019-04-18T12:58:40Z</time>
      </trkpt>
      <trkpt lat="45.28727" lon="6.90069">
        <ele>1428</ele>
        <time>2019-04-18T12:59:40Z</time>
      </trkpt>
      <trkpt lat="45.28696" lon="6.89941">
        <ele>1426</ele>
        <time>2019-04-18T13:00:40Z</time>
      </trkpt>
      <trkpt lat="45.28675" lon="6.89876">
        <ele>1424</ele>
        <time>2019-04-18T13:01:40Z</time>
      </trkpt>
      <trkpt lat="45.28654" lon="6.89832">
        <ele>1424</ele>
        <time>2019-04-18T13:02:40Z</time>
      </trkpt>
      <trkpt lat="45.2864" lon="6.89798">
        <ele>1426</ele>
        <time>2019-04-18T13:03:40Z</time>
      </trkpt>
      <trkpt lat="45.28628" lon="6.89752">
        <ele>1426</ele>
        <time>2019-04-18T13:04:40Z</time>
      </trkpt>
      <trkpt lat="45.28624" lon="6.89716">
        <ele>1426</ele>
        <time>2019-04-18T13:05:40Z</time>
      </trkpt>
      <trkpt lat="45.28623" lon="6.89676">
        <ele>1426</ele>
        <time>2019-04-18T13:06:40Z</time>
      </trkpt>
      <trkpt lat="45.28634" lon="6.89371">
        <ele>1421</ele>
        <time>2019-04-18T13:07:40Z</time>
      </trkpt>
      <trkpt lat="45.28632" lon="6.89291">
        <ele>1420</ele>
        <time>2019-04-18T13:08:40Z</time>
      </trkpt>
      <trkpt lat="45.28622" lon="6.89095">
        <ele>1417</ele>
        <time>2019-04-18T13:09:40Z</time>
      </trkpt>
      <trkpt lat="45.28612" lon="6.8896">
        <ele>1409</ele>
        <time>2019-04-18T13:10:40Z</time>
      </trkpt>
      <trkpt lat="45.28602" lon="6.88834">
        <ele>1403</ele>
        <time>2019-04-18T13:11:40Z</time>
      </trkpt>
      <trkpt lat="45.28567" lon="6.88464">
        <ele>1400</ele>
        <time>2019-04-18T13:12:40Z</time>
      </trkpt>
      <trkpt lat="45.28567" lon="6.88425">
        <ele>1400</ele>
        <time>2019-04-18T13:13:40Z</time>
      </trkpt>
      <trkpt lat="45.28572" lon="6.88406">
        <ele>1400</ele>
        <time>2019-04-18T13:14:40Z</time>
      </trkpt>
      <trkpt lat="45.28569" lon="6.88398">
        <ele>1399</ele>
        <time>2019-04-18T13:15:40Z</time>
      </trkpt>
      <trkpt lat="45.28566" lon="6.88395">
        <ele>1399</ele>
        <time>2019-04-18T13:16:40Z</time>
      </trkpt>
      <trkpt lat="45.28559" lon="6.88375">
        <ele>1399</ele>
        <time>2019-04-18T13:17:40Z</time>
      </trkpt>
      <trkpt lat="45.28557" lon="6.88311">
        <ele>1399</ele>
        <time>2019-04-18T13:18:40Z</time>
      </trkpt>
      <trkpt lat="45.28607" lon="6.88299">
        <ele>1403</ele>
        <time>2019-04-18T13:19:40Z</time>
      </trkpt>
    </trkseg>
  </trk>
  <trk>
    <name><![CDATA[J11bis]]></name>
    <trkseg>
      <trkpt lat="45.13422" lon="7.06048">
        <ele>486</ele>
        <time>2019-04-17T11:23:31Z</time>
      </trkpt>
      <trkpt lat="45.13294" lon="7.06406">
        <ele>483</ele>
        <time>2019-04-17T11:24:31Z</time>
      </trkpt>
      <trkpt lat="45.13288" lon="7.06426">
        <ele>484</ele>
        <time>2019-04-17T11:25:31Z</time>
      </trkpt>
      <trkpt lat="45.1328" lon="7.06476">
        <ele>484</ele>
        <time>2019-04-17T11:26:31Z</time>
      </trkpt>
      <trkpt lat="45.13278" lon="7.06568">
        <ele>484</ele>
        <time>2019-04-17T11:27:31Z</time>
      </trkpt>
      <trkpt lat="45.1328" lon="7.07401">
        <ele>475</ele>
        <time>2019-04-17T11:28:31Z</time>
      </trkpt>
      <trkpt lat="45.13284" lon="7.07466">
        <ele>475</ele>
        <time>2019-04-17T11:29:31Z</time>
      </trkpt>
      <trkpt lat="45.13295" lon="7.07542">
        <ele>474</ele>
        <time>2019-04-17T11:30:31Z</time>
      </trkpt>
      <trkpt lat="45.13383" lon="7.07963">
        <ele>476</ele>
        <time>2019-04-17T11:31:31Z</time>
      </trkpt>
      <trkpt lat="45.13393" lon="7.08001">
        <ele>476</ele>
        <time>2019-04-17T11:32:31Z</time>
      </trkpt>
      <trkpt lat="45.1347" lon="7.0827">
        <ele>477</ele>
        <time>2019-04-17T11:33:31Z</time>
      </trkpt>
      <trkpt lat="45.13483" lon="7.08326">
        <ele>477</ele>
        <time>2019-04-17T11:34:31Z</time>
      </trkpt>
      <trkpt lat="45.13487" lon="7.08348">
        <ele>477</ele>
        <time>2019-04-17T11:35:31Z</time>
      </trkpt>
      <trkpt lat="45.13494" lon="7.08408">
        <ele>477</ele>
        <time>2019-04-17T11:36:31Z</time>
      </trkpt>
      <trkpt lat="45.13498" lon="7.08471">
        <ele>476</ele>
        <time>2019-04-17T11:37:31Z</time>
      </trkpt>
      <trkpt lat="45.13498" lon="7.08541">
        <ele>475</ele>
        <time>2019-04-17T11:38:31Z</time>
      </trkpt>
      <trkpt lat="45.13437" lon="7.09309">
        <ele>467</ele>
        <time>2019-04-17T11:39:31Z</time>
      </trkpt>
      <trkpt lat="45.13424" lon="7.09394">
        <ele>469</ele>
        <time>2019-04-17T11:40:31Z</time>
      </trkpt>
      <trkpt lat="45.13405" lon="7.0947">
        <ele>469</ele>
        <time>2019-04-17T11:41:31Z</time>
      </trkpt>
      <trkpt lat="45.13337" lon="7.09653">
        <ele>467</ele>
        <time>2019-04-17T11:42:31Z</time>
      </trkpt>
      <trkpt lat="45.13316" lon="7.09717">
        <ele>466</ele>
        <time>2019-04-17T11:43:31Z</time>
      </trkpt>
      <trkpt lat="45.13287" lon="7.09913">
        <ele>462</ele>
        <time>2019-04-17T11:44:31Z</time>
      </trkpt>
      <trkpt lat="45.13274" lon="7.0997">
        <ele>462</ele>
        <time>2019-04-17T11:45:31Z</time>
      </trkpt>
      <trkpt lat="45.13238" lon="7.10099">
        <ele>460</ele>
        <time>2019-04-17T11:46:31Z</time>
      </trkpt>
      <trkpt lat="45.13228" lon="7.10155">
        <ele>460</ele>
        <time>2019-04-17T11:47:31Z</time>
      </trkpt>
      <trkpt lat="45.1322" lon="7.10217">
        <ele>459</ele>
        <time>2019-04-17T11:48:31Z</time>
      </trkpt>
      <trkpt lat="45.13218" lon="7.10305">
        <ele>458</ele>
        <time>2019-04-17T11:49:31Z</time>
      </trkpt>
      <trkpt lat="45.13224" lon="7.10458">
        <ele>456</ele>
        <time>2019-04-17T11:50:31Z</time>
      </trkpt>
      <trkpt lat="45.13224" lon="7.10493">
        <ele>456</ele>
        <time>2019-04-17T11:51:31Z</time>
      </trkpt>
      <trkpt lat="45.13222" lon="7.10535">
        <ele>456</ele>
        <time>2019-04-17T11:52:31Z</time>
      </trkpt>
      <trkpt lat="45.13214" lon="7.10611">
        <ele>455</ele>
        <time>2019-04-17T11:53:31Z</time>
      </trkpt>
      <trkpt lat="45.13186" lon="7.10792">
        <ele>455</ele>
        <time>2019-04-17T11:54:31Z</time>
      </trkpt>
      <trkpt lat="45.13183" lon="7.10825">
        <ele>456</ele>
        <time>2019-04-17T11:55:31Z</time>
      </trkpt>
      <trkpt lat="45.13182" lon="7.10849">
        <ele>456</ele>
        <time>2019-04-17T11:56:31Z</time>
      </trkpt>
      <trkpt lat="45.13184" lon="7.10872">
        <ele>457</ele>
        <time>2019-04-17T11:57:31Z</time>
      </trkpt>
      <trkpt lat="45.13196" lon="7.10969">
        <ele>457</ele>
        <time>2019-04-17T11:58:31Z</time>
      </trkpt>
      <trkpt lat="45.13261" lon="7.11486">
        <ele>453</ele>
        <time>2019-04-17T11:59:31Z</time>
      </trkpt>
      <trkpt lat="45.13265" lon="7.11528">
        <ele>452</ele>
        <time>2019-04-17T12:00:31Z</time>
      </trkpt>
      <trkpt lat="45.13265" lon="7.11549">
        <ele>451</ele>
        <time>2019-04-17T12:01:31Z</time>
      </trkpt>
      <trkpt lat="45.13262" lon="7.11586">
        <ele>451</ele>
        <time>2019-04-17T12:02:31Z</time>
      </trkpt>
      <trkpt lat="45.13254" lon="7.11625">
        <ele>451</ele>
        <time>2019-04-17T12:03:31Z</time>
      </trkpt>
      <trkpt lat="45.13215" lon="7.11752">
        <ele>451</ele>
        <time>2019-04-17T12:04:31Z</time>
      </trkpt>
      <trkpt lat="45.13203" lon="7.11795">
        <ele>450</ele>
        <time>2019-04-17T12:05:31Z</time>
      </trkpt>
      <trkpt lat="45.13201" lon="7.11812">
        <ele>450</ele>
        <time>2019-04-17T12:06:31Z</time>
      </trkpt>
      <trkpt lat="45.13199" lon="7.11831">
        <ele>449</ele>
        <time>2019-04-17T12:07:31Z</time>
      </trkpt>
      <trkpt lat="45.13193" lon="7.12062">
        <ele>448</ele>
        <time>2019-04-17T12:08:31Z</time>
      </trkpt>
      <trkpt lat="45.13191" lon="7.12085">
        <ele>448</ele>
        <time>2019-04-17T12:09:31Z</time>
      </trkpt>
      <trkpt lat="45.13181" lon="7.12159">
        <ele>447</ele>
        <time>2019-04-17T12:10:31Z</time>
      </trkpt>
      <trkpt lat="45.13152" lon="7.12349">
        <ele>446</ele>
        <time>2019-04-17T12:11:31Z</time>
      </trkpt>
      <trkpt lat="45.13151" lon="7.1238">
        <ele>446</ele>
        <time>2019-04-17T12:12:31Z</time>
      </trkpt>
      <trkpt lat="45.13152" lon="7.12401">
        <ele>446</ele>
        <time>2019-04-17T12:13:31Z</time>
      </trkpt>
      <trkpt lat="45.13159" lon="7.1244">
        <ele>447</ele>
        <time>2019-04-17T12:14:31Z</time>
      </trkpt>
      <trkpt lat="45.13164" lon="7.12459">
        <ele>447</ele>
        <time>2019-04-17T12:15:31Z</time>
      </trkpt>
      <trkpt lat="45.13185" lon="7.125">
        <ele>447</ele>
        <time>2019-04-17T12:16:31Z</time>
      </trkpt>
      <trkpt lat="45.13244" lon="7.12592">
        <ele>448</ele>
        <time>2019-04-17T12:17:31Z</time>
      </trkpt>
      <trkpt lat="45.1325" lon="7.12605">
        <ele>448</ele>
        <time>2019-04-17T12:18:31Z</time>
      </trkpt>
      <trkpt lat="45.13303" lon="7.12752">
        <ele>449</ele>
        <time>2019-04-17T12:19:31Z</time>
      </trkpt>
      <trkpt lat="45.13311" lon="7.12792">
        <ele>449</ele>
        <time>2019-04-17T12:20:31Z</time>
      </trkpt>
      <trkpt lat="45.13316" lon="7.12835">
        <ele>449</ele>
        <time>2019-04-17T12:21:31Z</time>
      </trkpt>
      <trkpt lat="45.13327" lon="7.13238">
        <ele>447</ele>
        <time>2019-04-17T12:22:31Z</time>
      </trkpt>
      <trkpt lat="45.13331" lon="7.13282">
        <ele>449</ele>
        <time>2019-04-17T12:23:31Z</time>
      </trkpt>
      <trkpt lat="45.13339" lon="7.13324">
        <ele>450</ele>
        <time>2019-04-17T12:24:31Z</time>
      </trkpt>
      <trkpt lat="45.13349" lon="7.13367">
        <ele>450</ele>
        <time>2019-04-17T12:25:31Z</time>
      </trkpt>
      <trkpt lat="45.1343" lon="7.1364">
        <ele>451</ele>
        <time>2019-04-17T12:26:31Z</time>
      </trkpt>
      <trkpt lat="45.13507" lon="7.13892">
        <ele>452</ele>
        <time>2019-04-17T12:27:31Z</time>
      </trkpt>
      <trkpt lat="45.13535" lon="7.14005">
        <ele>452</ele>
        <time>2019-04-17T12:28:31Z</time>
      </trkpt>
      <trkpt lat="45.13548" lon="7.14091">
        <ele>451</ele>
        <time>2019-04-17T12:29:31Z</time>
      </trkpt>
      <trkpt lat="45.13575" lon="7.14301">
        <ele>449</ele>
        <time>2019-04-17T12:30:31Z</time>
      </trkpt>
      <trkpt lat="45.13579" lon="7.14375">
        <ele>450</ele>
        <time>2019-04-17T12:31:31Z</time>
      </trkpt>
      <trkpt lat="45.13562" lon="7.14761">
        <ele>447</ele>
        <time>2019-04-17T12:32:31Z</time>
      </trkpt>
      <trkpt lat="45.1354" lon="7.15195">
        <ele>439</ele>
        <time>2019-04-17T12:33:31Z</time>
      </trkpt>
      <trkpt lat="45.13532" lon="7.1534">
        <ele>438</ele>
        <time>2019-04-17T12:34:31Z</time>
      </trkpt>
      <trkpt lat="45.13528" lon="7.15368">
        <ele>437</ele>
        <time>2019-04-17T12:35:31Z</time>
      </trkpt>
      <trkpt lat="45.13524" lon="7.15394">
        <ele>437</ele>
        <time>2019-04-17T12:36:31Z</time>
      </trkpt>
      <trkpt lat="45.13514" lon="7.15437">
        <ele>437</ele>
        <time>2019-04-17T12:37:31Z</time>
      </trkpt>
      <trkpt lat="45.13386" lon="7.15771">
        <ele>436</ele>
        <time>2019-04-17T12:38:31Z</time>
      </trkpt>
      <trkpt lat="45.13369" lon="7.15824">
        <ele>435</ele>
        <time>2019-04-17T12:39:31Z</time>
      </trkpt>
      <trkpt lat="45.13323" lon="7.16016">
        <ele>434</ele>
        <time>2019-04-17T12:40:31Z</time>
      </trkpt>
      <trkpt lat="45.133" lon="7.16099">
        <ele>431</ele>
        <time>2019-04-17T12:41:31Z</time>
      </trkpt>
      <trkpt lat="45.13269" lon="7.16188">
        <ele>431</ele>
        <time>2019-04-17T12:42:31Z</time>
      </trkpt>
      <trkpt lat="45.13161" lon="7.16468">
        <ele>430</ele>
        <time>2019-04-17T12:43:31Z</time>
      </trkpt>
      <trkpt lat="45.13144" lon="7.16517">
        <ele>430</ele>
        <time>2019-04-17T12:44:31Z</time>
      </trkpt>
      <trkpt lat="45.13133" lon="7.1656">
        <ele>429</ele>
        <time>2019-04-17T12:45:31Z</time>
      </trkpt>
      <trkpt lat="45.13116" lon="7.1666">
        <ele>429</ele>
        <time>2019-04-17T12:46:31Z</time>
      </trkpt>
      <trkpt lat="45.13089" lon="7.16856">
        <ele>429</ele>
        <time>2019-04-17T12:47:31Z</time>
      </trkpt>
      <trkpt lat="45.13072" lon="7.16968">
        <ele>429</ele>
        <time>2019-04-17T12:48:31Z</time>
      </trkpt>
      <trkpt lat="45.13044" lon="7.17182">
        <ele>429</ele>
        <time>2019-04-17T12:49:31Z</time>
      </trkpt>
      <trkpt lat="45.1304" lon="7.17207">
        <ele>428</ele>
        <time>2019-04-17T12:50:31Z</time>
      </trkpt>
      <trkpt lat="45.13026" lon="7.17252">
        <ele>427</ele>
        <time>2019-04-17T12:51:31Z</time>
      </trkpt>
      <trkpt lat="45.1301" lon="7.17287">
        <ele>427</ele>
        <time>2019-04-17T12:52:31Z</time>
      </trkpt>
      <trkpt lat="45.13" lon="7.17305">
        <ele>427</ele>
        <time>2019-04-17T12:53:31Z</time>
      </trkpt>
      <trkpt lat="45.12756" lon="7.17622">
        <ele>427</ele>
        <time>2019-04-17T12:54:31Z</time>
      </trkpt>
      <trkpt lat="45.12739" lon="7.17648">
        <ele>428</ele>
        <time>2019-04-17T12:55:31Z</time>
      </trkpt>
      <trkpt lat="45.12721" lon="7.17686">
        <ele>429</ele>
        <time>2019-04-17T12:56:31Z</time>
      </trkpt>
      <trkpt lat="45.12712" lon="7.17713">
        <ele>430</ele>
        <time>2019-04-17T12:57:31Z</time>
      </trkpt>
      <trkpt lat="45.12704" lon="7.17754">
        <ele>431</ele>
        <time>2019-04-17T12:58:31Z</time>
      </trkpt>
      <trkpt lat="45.127" lon="7.17782">
        <ele>433</ele>
        <time>2019-04-17T12:59:31Z</time>
      </trkpt>
      <trkpt lat="45.12695" lon="7.17969">
        <ele>436</ele>
        <time>2019-04-17T13:00:31Z</time>
      </trkpt>
      <trkpt lat="45.12691" lon="7.18012">
        <ele>437</ele>
        <time>2019-04-17T13:01:31Z</time>
      </trkpt>
      <trkpt lat="45.12684" lon="7.18073">
        <ele>438</ele>
        <time>2019-04-17T13:02:31Z</time>
      </trkpt>
      <trkpt lat="45.12662" lon="7.18197">
        <ele>439</ele>
        <time>2019-04-17T13:03:31Z</time>
      </trkpt>
      <trkpt lat="45.12652" lon="7.18234">
        <ele>439</ele>
        <time>2019-04-17T13:04:31Z</time>
      </trkpt>
      <trkpt lat="45.12646" lon="7.18248">
        <ele>439</ele>
        <time>2019-04-17T13:05:31Z</time>
      </trkpt>
      <trkpt lat="45.1263" lon="7.18271">
        <ele>439</ele>
        <time>2019-04-17T13:06:31Z</time>
      </trkpt>
      <trkpt lat="45.12496" lon="7.18419">
        <ele>442</ele>
        <time>2019-04-17T13:07:31Z</time>
      </trkpt>
      <trkpt lat="45.12476" lon="7.18446">
        <ele>443</ele>
        <time>2019-04-17T13:08:31Z</time>
      </trkpt>
      <trkpt lat="45.12468" lon="7.18461">
        <ele>442</ele>
        <time>2019-04-17T13:09:31Z</time>
      </trkpt>
      <trkpt lat="45.12456" lon="7.18496">
        <ele>441</ele>
        <time>2019-04-17T13:10:31Z</time>
      </trkpt>
      <trkpt lat="45.12451" lon="7.18517">
        <ele>439</ele>
        <time>2019-04-17T13:11:31Z</time>
      </trkpt>
      <trkpt lat="45.12449" lon="7.18565">
        <ele>437</ele>
        <time>2019-04-17T13:12:31Z</time>
      </trkpt>
      <trkpt lat="45.12446" lon="7.1884">
        <ele>440</ele>
        <time>2019-04-17T13:13:31Z</time>
      </trkpt>
      <trkpt lat="45.12442" lon="7.18894">
        <ele>441</ele>
        <time>2019-04-17T13:14:31Z</time>
      </trkpt>
      <trkpt lat="45.12433" lon="7.18943">
        <ele>440</ele>
        <time>2019-04-17T13:15:31Z</time>
      </trkpt>
      <trkpt lat="45.1241" lon="7.19039">
        <ele>436</ele>
        <time>2019-04-17T13:16:31Z</time>
      </trkpt>
      <trkpt lat="45.1239" lon="7.19099">
        <ele>434</ele>
        <time>2019-04-17T13:17:31Z</time>
      </trkpt>
      <trkpt lat="45.12301" lon="7.19335">
        <ele>425</ele>
        <time>2019-04-17T13:18:31Z</time>
      </trkpt>
      <trkpt lat="45.12283" lon="7.19373">
        <ele>425</ele>
        <time>2019-04-17T13:19:31Z</time>
      </trkpt>
      <trkpt lat="45.12223" lon="7.19475">
        <ele>425</ele>
        <time>2019-04-17T13:20:31Z</time>
      </trkpt>
      <trkpt lat="45.12197" lon="7.19523">
        <ele>423</ele>
        <time>2019-04-17T13:21:31Z</time>
      </trkpt>
      <trkpt lat="45.12179" lon="7.19562">
        <ele>421</ele>
        <time>2019-04-17T13:22:31Z</time>
      </trkpt>
      <trkpt lat="45.12154" lon="7.19624">
        <ele>420</ele>
        <time>2019-04-17T13:23:31Z</time>
      </trkpt>
      <trkpt lat="45.12143" lon="7.19664">
        <ele>419</ele>
        <time>2019-04-17T13:24:31Z</time>
      </trkpt>
      <trkpt lat="45.12137" lon="7.19704">
        <ele>420</ele>
        <time>2019-04-17T13:25:31Z</time>
      </trkpt>
      <trkpt lat="45.12137" lon="7.19722">
        <ele>420</ele>
        <time>2019-04-17T13:26:31Z</time>
      </trkpt>
      <trkpt lat="45.12144" lon="7.1982">
        <ele>421</ele>
        <time>2019-04-17T13:27:31Z</time>
      </trkpt>
      <trkpt lat="45.12156" lon="7.19937">
        <ele>421</ele>
        <time>2019-04-17T13:28:31Z</time>
      </trkpt>
      <trkpt lat="45.12155" lon="7.1997">
        <ele>420</ele>
        <time>2019-04-17T13:29:31Z</time>
      </trkpt>
      <trkpt lat="45.12148" lon="7.20019">
        <ele>421</ele>
        <time>2019-04-17T13:30:31Z</time>
      </trkpt>
      <trkpt lat="45.12017" lon="7.20767">
        <ele>414</ele>
        <time>2019-04-17T13:31:31Z</time>
      </trkpt>
      <trkpt lat="45.11987" lon="7.20896">
        <ele>416</ele>
        <time>2019-04-17T13:32:31Z</time>
      </trkpt>
      <trkpt lat="45.11976" lon="7.20931">
        <ele>416</ele>
        <time>2019-04-17T13:33:31Z</time>
      </trkpt>
      <trkpt lat="45.11926" lon="7.2105">
        <ele>412</ele>
        <time>2019-04-17T13:34:31Z</time>
      </trkpt>
      <trkpt lat="45.11919" lon="7.21073">
        <ele>410</ele>
        <time>2019-04-17T13:35:31Z</time>
      </trkpt>
      <trkpt lat="45.11913" lon="7.21103">
        <ele>409</ele>
        <time>2019-04-17T13:36:31Z</time>
      </trkpt>
      <trkpt lat="45.11887" lon="7.21262">
        <ele>406</ele>
        <time>2019-04-17T13:37:31Z</time>
      </trkpt>
      <trkpt lat="45.1188" lon="7.21343">
        <ele>404</ele>
        <time>2019-04-17T13:38:31Z</time>
      </trkpt>
      <trkpt lat="45.11872" lon="7.21484">
        <ele>402</ele>
        <time>2019-04-17T13:39:31Z</time>
      </trkpt>
      <trkpt lat="45.11872" lon="7.21516">
        <ele>402</ele>
        <time>2019-04-17T13:40:31Z</time>
      </trkpt>
      <trkpt lat="45.11875" lon="7.21575">
        <ele>401</ele>
        <time>2019-04-17T13:41:31Z</time>
      </trkpt>
      <trkpt lat="45.11928" lon="7.22057">
        <ele>406</ele>
        <time>2019-04-17T13:42:31Z</time>
      </trkpt>
      <trkpt lat="45.11932" lon="7.2213">
        <ele>407</ele>
        <time>2019-04-17T13:43:31Z</time>
      </trkpt>
      <trkpt lat="45.11932" lon="7.22364">
        <ele>406</ele>
        <time>2019-04-17T13:44:31Z</time>
      </trkpt>
      <trkpt lat="45.11944" lon="7.22564">
        <ele>405</ele>
        <time>2019-04-17T13:45:31Z</time>
      </trkpt>
      <trkpt lat="45.1195" lon="7.22694">
        <ele>404</ele>
        <time>2019-04-17T13:46:31Z</time>
      </trkpt>
      <trkpt lat="45.11935" lon="7.23076">
        <ele>402</ele>
        <time>2019-04-17T13:47:31Z</time>
      </trkpt>
      <trkpt lat="45.11931" lon="7.23102">
        <ele>402</ele>
        <time>2019-04-17T13:48:31Z</time>
      </trkpt>
      <trkpt lat="45.11928" lon="7.23111">
        <ele>403</ele>
        <time>2019-04-17T13:49:31Z</time>
      </trkpt>
      <trkpt lat="45.11913" lon="7.23134">
        <ele>403</ele>
        <time>2019-04-17T13:50:31Z</time>
      </trkpt>
      <trkpt lat="45.11912" lon="7.23142">
        <ele>403</ele>
        <time>2019-04-17T13:51:31Z</time>
      </trkpt>
      <trkpt lat="45.11913" lon="7.23158">
        <ele>403</ele>
        <time>2019-04-17T13:52:31Z</time>
      </trkpt>
      <trkpt lat="45.11921" lon="7.23169">
        <ele>403</ele>
        <time>2019-04-17T13:53:31Z</time>
      </trkpt>
      <trkpt lat="45.11924" lon="7.23193">
        <ele>402</ele>
        <time>2019-04-17T13:54:31Z</time>
      </trkpt>
      <trkpt lat="45.11925" lon="7.23209">
        <ele>402</ele>
        <time>2019-04-17T13:55:31Z</time>
      </trkpt>
      <trkpt lat="45.11919" lon="7.23235">
        <ele>401</ele>
        <time>2019-04-17T13:56:31Z</time>
      </trkpt>
      <trkpt lat="45.11859" lon="7.23428">
        <ele>398</ele>
        <time>2019-04-17T13:57:31Z</time>
      </trkpt>
      <trkpt lat="45.11841" lon="7.23469">
        <ele>399</ele>
        <time>2019-04-17T13:58:31Z</time>
      </trkpt>
      <trkpt lat="45.11752" lon="7.23614">
        <ele>396</ele>
        <time>2019-04-17T13:59:31Z</time>
      </trkpt>
      <trkpt lat="45.11707" lon="7.23691">
        <ele>395</ele>
        <time>2019-04-17T14:00:31Z</time>
      </trkpt>
      <trkpt lat="45.11592" lon="7.23878">
        <ele>394</ele>
        <time>2019-04-17T14:01:31Z</time>
      </trkpt>
      <trkpt lat="45.1157" lon="7.23919">
        <ele>394</ele>
        <time>2019-04-17T14:02:31Z</time>
      </trkpt>
      <trkpt lat="45.11533" lon="7.23973">
        <ele>394</ele>
        <time>2019-04-17T14:03:31Z</time>
      </trkpt>
      <trkpt lat="45.11506" lon="7.2402">
        <ele>394</ele>
        <time>2019-04-17T14:04:31Z</time>
      </trkpt>
      <trkpt lat="45.11486" lon="7.2406">
        <ele>394</ele>
        <time>2019-04-17T14:05:31Z</time>
      </trkpt>
      <trkpt lat="45.1146" lon="7.2412">
        <ele>393</ele>
        <time>2019-04-17T14:06:31Z</time>
      </trkpt>
      <trkpt lat="45.11417" lon="7.24241">
        <ele>391</ele>
        <time>2019-04-17T14:07:31Z</time>
      </trkpt>
      <trkpt lat="45.10974" lon="7.25545">
        <ele>386</ele>
        <time>2019-04-17T14:08:31Z</time>
      </trkpt>
      <trkpt lat="45.1088" lon="7.25817">
        <ele>387</ele>
        <time>2019-04-17T14:09:31Z</time>
      </trkpt>
      <trkpt lat="45.10807" lon="7.26048">
        <ele>386</ele>
        <time>2019-04-17T14:10:31Z</time>
      </trkpt>
      <trkpt lat="45.10728" lon="7.26268">
        <ele>385</ele>
        <time>2019-04-17T14:11:31Z</time>
      </trkpt>
      <trkpt lat="45.10723" lon="7.26266">
        <ele>385</ele>
        <time>2019-04-17T14:12:31Z</time>
      </trkpt>
      <trkpt lat="45.10714" lon="7.26268">
        <ele>385</ele>
        <time>2019-04-17T14:13:31Z</time>
      </trkpt>
      <trkpt lat="45.10708" lon="7.26277">
        <ele>385</ele>
        <time>2019-04-17T14:14:31Z</time>
      </trkpt>
      <trkpt lat="45.10706" lon="7.26283">
        <ele>385</ele>
        <time>2019-04-17T14:15:31Z</time>
      </trkpt>
      <trkpt lat="45.10706" lon="7.26289">
        <ele>385</ele>
        <time>2019-04-17T14:16:31Z</time>
      </trkpt>
      <trkpt lat="45.10709" lon="7.26301">
        <ele>385</ele>
        <time>2019-04-17T14:17:31Z</time>
      </trkpt>
      <trkpt lat="45.10716" lon="7.26308">
        <ele>385</ele>
        <time>2019-04-17T14:18:31Z</time>
      </trkpt>
      <trkpt lat="45.10723" lon="7.26309">
        <ele>385</ele>
        <time>2019-04-17T14:19:31Z</time>
      </trkpt>
      <trkpt lat="45.1086" lon="7.2733">
        <ele>382</ele>
        <time>2019-04-17T14:20:31Z</time>
      </trkpt>
      <trkpt lat="45.10863" lon="7.27366">
        <ele>383</ele>
        <time>2019-04-17T14:21:31Z</time>
      </trkpt>
      <trkpt lat="45.10864" lon="7.27417">
        <ele>383</ele>
        <time>2019-04-17T14:22:31Z</time>
      </trkpt>
      <trkpt lat="45.10858" lon="7.2758">
        <ele>384</ele>
        <time>2019-04-17T14:23:31Z</time>
      </trkpt>
      <trkpt lat="45.10852" lon="7.27656">
        <ele>383</ele>
        <time>2019-04-17T14:24:31Z</time>
      </trkpt>
      <trkpt lat="45.10848" lon="7.27685">
        <ele>383</ele>
        <time>2019-04-17T14:25:31Z</time>
      </trkpt>
      <trkpt lat="45.10807" lon="7.27854">
        <ele>380</ele>
        <time>2019-04-17T14:26:31Z</time>
      </trkpt>
      <trkpt lat="45.10802" lon="7.27883">
        <ele>380</ele>
        <time>2019-04-17T14:27:31Z</time>
      </trkpt>
      <trkpt lat="45.10796" lon="7.27932">
        <ele>380</ele>
        <time>2019-04-17T14:28:31Z</time>
      </trkpt>
      <trkpt lat="45.10754" lon="7.28888">
        <ele>377</ele>
        <time>2019-04-17T14:29:31Z</time>
      </trkpt>
      <trkpt lat="45.10747" lon="7.28889">
        <ele>377</ele>
        <time>2019-04-17T14:30:31Z</time>
      </trkpt>
      <trkpt lat="45.10741" lon="7.28893">
        <ele>377</ele>
        <time>2019-04-17T14:31:31Z</time>
      </trkpt>
      <trkpt lat="45.10737" lon="7.28899">
        <ele>377</ele>
        <time>2019-04-17T14:32:31Z</time>
      </trkpt>
      <trkpt lat="45.10734" lon="7.28907">
        <ele>377</ele>
        <time>2019-04-17T14:33:31Z</time>
      </trkpt>
      <trkpt lat="45.10733" lon="7.28917">
        <ele>377</ele>
        <time>2019-04-17T14:34:31Z</time>
      </trkpt>
      <trkpt lat="45.10737" lon="7.28932">
        <ele>377</ele>
        <time>2019-04-17T14:35:31Z</time>
      </trkpt>
      <trkpt lat="45.10746" lon="7.2894">
        <ele>377</ele>
        <time>2019-04-17T14:36:31Z</time>
      </trkpt>
      <trkpt lat="45.10751" lon="7.28942">
        <ele>377</ele>
        <time>2019-04-17T14:37:31Z</time>
      </trkpt>
      <trkpt lat="45.10716" lon="7.29749">
        <ele>373</ele>
        <time>2019-04-17T14:38:31Z</time>
      </trkpt>
      <trkpt lat="45.10658" lon="7.30941">
        <ele>370</ele>
        <time>2019-04-17T14:39:31Z</time>
      </trkpt>
      <trkpt lat="45.10651" lon="7.31052">
        <ele>370</ele>
        <time>2019-04-17T14:40:31Z</time>
      </trkpt>
      <trkpt lat="45.10648" lon="7.31085">
        <ele>369</ele>
        <time>2019-04-17T14:41:31Z</time>
      </trkpt>
      <trkpt lat="45.10642" lon="7.31108">
        <ele>369</ele>
        <time>2019-04-17T14:42:31Z</time>
      </trkpt>
      <trkpt lat="45.10637" lon="7.31112">
        <ele>370</ele>
        <time>2019-04-17T14:43:31Z</time>
      </trkpt>
      <trkpt lat="45.10632" lon="7.31119">
        <ele>370</ele>
        <time>2019-04-17T14:44:31Z</time>
      </trkpt>
      <trkpt lat="45.1063" lon="7.31127">
        <ele>370</ele>
        <time>2019-04-17T14:45:31Z</time>
      </trkpt>
      <trkpt lat="45.10629" lon="7.31136">
        <ele>370</ele>
        <time>2019-04-17T14:46:31Z</time>
      </trkpt>
      <trkpt lat="45.10631" lon="7.31144">
        <ele>370</ele>
        <time>2019-04-17T14:47:31Z</time>
      </trkpt>
      <trkpt lat="45.10635" lon="7.31151">
        <ele>370</ele>
        <time>2019-04-17T14:48:31Z</time>
      </trkpt>
      <trkpt lat="45.1064" lon="7.31156">
        <ele>370</ele>
        <time>2019-04-17T14:49:31Z</time>
      </trkpt>
      <trkpt lat="45.10642" lon="7.31169">
        <ele>370</ele>
        <time>2019-04-17T14:50:31Z</time>
      </trkpt>
      <trkpt lat="45.10643" lon="7.31213">
        <ele>369</ele>
        <time>2019-04-17T14:51:31Z</time>
      </trkpt>
      <trkpt lat="45.10622" lon="7.31639">
        <ele>369</ele>
        <time>2019-04-17T14:52:31Z</time>
      </trkpt>
      <trkpt lat="45.10627" lon="7.3164">
        <ele>369</ele>
        <time>2019-04-17T14:53:31Z</time>
      </trkpt>
      <trkpt lat="45.1062" lon="7.31763">
        <ele>368</ele>
        <time>2019-04-17T14:54:31Z</time>
      </trkpt>
      <trkpt lat="45.10582" lon="7.3251">
        <ele>367</ele>
        <time>2019-04-17T14:55:31Z</time>
      </trkpt>
      <trkpt lat="45.10571" lon="7.32508">
        <ele>367</ele>
        <time>2019-04-17T14:56:31Z</time>
      </trkpt>
      <trkpt lat="45.10569" lon="7.32552">
        <ele>367</ele>
        <time>2019-04-17T14:57:31Z</time>
      </trkpt>
      <trkpt lat="45.10543" lon="7.33034">
        <ele>366</ele>
        <time>2019-04-17T14:58:31Z</time>
      </trkpt>
      <trkpt lat="45.10548" lon="7.33034">
        <ele>367</ele>
        <time>2019-04-17T14:59:31Z</time>
      </trkpt>
      <trkpt lat="45.10538" lon="7.33223">
        <ele>364</ele>
        <time>2019-04-17T15:00:31Z</time>
      </trkpt>
      <trkpt lat="45.10504" lon="7.33834">
        <ele>361</ele>
        <time>2019-04-17T15:01:31Z</time>
      </trkpt>
      <trkpt lat="45.10461" lon="7.34643">
        <ele>361</ele>
        <time>2019-04-17T15:02:31Z</time>
      </trkpt>
      <trkpt lat="45.10448" lon="7.3486">
        <ele>360</ele>
        <time>2019-04-17T15:03:31Z</time>
      </trkpt>
      <trkpt lat="45.10443" lon="7.34921">
        <ele>361</ele>
        <time>2019-04-17T15:04:31Z</time>
      </trkpt>
      <trkpt lat="45.10423" lon="7.34965">
        <ele>362</ele>
        <time>2019-04-17T15:05:31Z</time>
      </trkpt>
      <trkpt lat="45.10406" lon="7.34993">
        <ele>362</ele>
        <time>2019-04-17T15:06:31Z</time>
      </trkpt>
      <trkpt lat="45.10168" lon="7.35308">
        <ele>360</ele>
        <time>2019-04-17T15:07:31Z</time>
      </trkpt>
      <trkpt lat="45.10053" lon="7.35456">
        <ele>361</ele>
        <time>2019-04-17T15:08:31Z</time>
      </trkpt>
      <trkpt lat="45.10043" lon="7.35472">
        <ele>361</ele>
        <time>2019-04-17T15:09:31Z</time>
      </trkpt>
      <trkpt lat="45.10072" lon="7.35519">
        <ele>358</ele>
        <time>2019-04-17T15:10:31Z</time>
      </trkpt>
      <trkpt lat="45.10075" lon="7.3554">
        <ele>358</ele>
        <time>2019-04-17T15:11:31Z</time>
      </trkpt>
      <trkpt lat="45.10072" lon="7.35552">
        <ele>358</ele>
        <time>2019-04-17T15:12:31Z</time>
      </trkpt>
      <trkpt lat="45.10058" lon="7.35588">
        <ele>358</ele>
        <time>2019-04-17T15:13:31Z</time>
      </trkpt>
      <trkpt lat="45.10049" lon="7.35626">
        <ele>358</ele>
        <time>2019-04-17T15:14:31Z</time>
      </trkpt>
      <trkpt lat="45.10034" lon="7.35682">
        <ele>358</ele>
        <time>2019-04-17T15:15:31Z</time>
      </trkpt>
      <trkpt lat="45.10031" lon="7.35686">
        <ele>358</ele>
        <time>2019-04-17T15:16:31Z</time>
      </trkpt>
      <trkpt lat="45.10026" lon="7.35688">
        <ele>358</ele>
        <time>2019-04-17T15:17:31Z</time>
      </trkpt>
      <trkpt lat="45.10001" lon="7.35676">
        <ele>358</ele>
        <time>2019-04-17T15:18:31Z</time>
      </trkpt>
      <trkpt lat="45.09981" lon="7.35657">
        <ele>359</ele>
        <time>2019-04-17T15:19:31Z</time>
      </trkpt>
      <trkpt lat="45.09958" lon="7.35628">
        <ele>362</ele>
        <time>2019-04-17T15:20:31Z</time>
      </trkpt>
      <trkpt lat="45.0994" lon="7.35609">
        <ele>364</ele>
        <time>2019-04-17T15:21:31Z</time>
      </trkpt>
      <trkpt lat="45.09918" lon="7.35576">
        <ele>369</ele>
        <time>2019-04-17T15:22:31Z</time>
      </trkpt>
      <trkpt lat="45.09906" lon="7.35601">
        <ele>367</ele>
        <time>2019-04-17T15:23:31Z</time>
      </trkpt>
      <trkpt lat="45.09888" lon="7.3559">
        <ele>368</ele>
        <time>2019-04-17T15:24:31Z</time>
      </trkpt>
      <trkpt lat="45.0988" lon="7.35608">
        <ele>367</ele>
        <time>2019-04-17T15:25:31Z</time>
      </trkpt>
      <trkpt lat="45.09839" lon="7.35644">
        <ele>365</ele>
        <time>2019-04-17T15:26:31Z</time>
      </trkpt>
      <trkpt lat="45.09829" lon="7.35644">
        <ele>366</ele>
        <time>2019-04-17T15:27:31Z</time>
      </trkpt>
      <trkpt lat="45.09772" lon="7.35699">
        <ele>366</ele>
        <time>2019-04-17T15:28:31Z</time>
      </trkpt>
      <trkpt lat="45.09755" lon="7.3572">
        <ele>363</ele>
        <time>2019-04-17T15:29:31Z</time>
      </trkpt>
      <trkpt lat="45.09732" lon="7.35739">
        <ele>362</ele>
        <time>2019-04-17T15:30:31Z</time>
      </trkpt>
      <trkpt lat="45.09712" lon="7.35745">
        <ele>362</ele>
        <time>2019-04-17T15:31:31Z</time>
      </trkpt>
      <trkpt lat="45.09683" lon="7.35764">
        <ele>361</ele>
        <time>2019-04-17T15:32:31Z</time>
      </trkpt>
      <trkpt lat="45.09658" lon="7.35771">
        <ele>361</ele>
        <time>2019-04-17T15:33:31Z</time>
      </trkpt>
      <trkpt lat="45.09644" lon="7.35788">
        <ele>360</ele>
        <time>2019-04-17T15:34:31Z</time>
      </trkpt>
      <trkpt lat="45.09645" lon="7.35802">
        <ele>358</ele>
        <time>2019-04-17T15:35:31Z</time>
      </trkpt>
      <trkpt lat="45.09577" lon="7.35845">
        <ele>355</ele>
        <time>2019-04-17T15:36:31Z</time>
      </trkpt>
      <trkpt lat="45.09604" lon="7.35939">
        <ele>354</ele>
        <time>2019-04-17T15:37:31Z</time>
      </trkpt>
      <trkpt lat="45.0956" lon="7.35976">
        <ele>353</ele>
        <time>2019-04-17T15:38:31Z</time>
      </trkpt>
      <trkpt lat="45.09549" lon="7.35991">
        <ele>353</ele>
        <time>2019-04-17T15:39:31Z</time>
      </trkpt>
      <trkpt lat="45.09533" lon="7.36026">
        <ele>353</ele>
        <time>2019-04-17T15:40:31Z</time>
      </trkpt>
      <trkpt lat="45.09519" lon="7.36048">
        <ele>353</ele>
        <time>2019-04-17T15:41:31Z</time>
      </trkpt>
      <trkpt lat="45.09506" lon="7.36063">
        <ele>353</ele>
        <time>2019-04-17T15:42:31Z</time>
      </trkpt>
      <trkpt lat="45.09481" lon="7.36083">
        <ele>354</ele>
        <time>2019-04-17T15:43:31Z</time>
      </trkpt>
      <trkpt lat="45.09465" lon="7.3609">
        <ele>354</ele>
        <time>2019-04-17T15:44:31Z</time>
      </trkpt>
      <trkpt lat="45.09451" lon="7.36094">
        <ele>355</ele>
        <time>2019-04-17T15:45:31Z</time>
      </trkpt>
      <trkpt lat="45.0944" lon="7.36093">
        <ele>355</ele>
        <time>2019-04-17T15:46:31Z</time>
      </trkpt>
      <trkpt lat="45.09403" lon="7.36036">
        <ele>357</ele>
        <time>2019-04-17T15:47:31Z</time>
      </trkpt>
      <trkpt lat="45.09396" lon="7.3603">
        <ele>357</ele>
        <time>2019-04-17T15:48:31Z</time>
      </trkpt>
      <trkpt lat="45.09389" lon="7.36028">
        <ele>357</ele>
        <time>2019-04-17T15:49:31Z</time>
      </trkpt>
      <trkpt lat="45.09383" lon="7.36031">
        <ele>357</ele>
        <time>2019-04-17T15:50:31Z</time>
      </trkpt>
      <trkpt lat="45.09332" lon="7.3608">
        <ele>353</ele>
        <time>2019-04-17T15:51:31Z</time>
      </trkpt>
      <trkpt lat="45.09314" lon="7.36095">
        <ele>353</ele>
        <time>2019-04-17T15:52:31Z</time>
      </trkpt>
      <trkpt lat="45.09294" lon="7.36106">
        <ele>353</ele>
        <time>2019-04-17T15:53:31Z</time>
      </trkpt>
      <trkpt lat="45.09277" lon="7.36113">
        <ele>353</ele>
        <time>2019-04-17T15:54:31Z</time>
      </trkpt>
      <trkpt lat="45.09255" lon="7.36113">
        <ele>353</ele>
        <time>2019-04-17T15:55:31Z</time>
      </trkpt>
      <trkpt lat="45.09234" lon="7.36107">
        <ele>355</ele>
        <time>2019-04-17T15:56:31Z</time>
      </trkpt>
      <trkpt lat="45.09187" lon="7.3616">
        <ele>355</ele>
        <time>2019-04-17T15:57:31Z</time>
      </trkpt>
      <trkpt lat="45.09175" lon="7.36182">
        <ele>355</ele>
        <time>2019-04-17T15:58:31Z</time>
      </trkpt>
      <trkpt lat="45.09129" lon="7.36294">
        <ele>353</ele>
        <time>2019-04-17T15:59:31Z</time>
      </trkpt>
      <trkpt lat="45.09126" lon="7.36307">
        <ele>353</ele>
        <time>2019-04-17T16:00:31Z</time>
      </trkpt>
      <trkpt lat="45.09098" lon="7.36319">
        <ele>352</ele>
        <time>2019-04-17T16:01:31Z</time>
      </trkpt>
      <trkpt lat="45.09086" lon="7.36327">
        <ele>352</ele>
        <time>2019-04-17T16:02:31Z</time>
      </trkpt>
      <trkpt lat="45.09032" lon="7.36381">
        <ele>351</ele>
        <time>2019-04-17T16:03:31Z</time>
      </trkpt>
      <trkpt lat="45.08974" lon="7.36319">
        <ele>354</ele>
        <time>2019-04-17T16:04:31Z</time>
      </trkpt>
      <trkpt lat="45.08963" lon="7.3631">
        <ele>356</ele>
        <time>2019-04-17T16:05:31Z</time>
      </trkpt>
      <trkpt lat="45.08949" lon="7.36302">
        <ele>358</ele>
        <time>2019-04-17T16:06:31Z</time>
      </trkpt>
      <trkpt lat="45.08934" lon="7.36301">
        <ele>359</ele>
        <time>2019-04-17T16:07:31Z</time>
      </trkpt>
      <trkpt lat="45.08927" lon="7.36304">
        <ele>360</ele>
        <time>2019-04-17T16:08:31Z</time>
      </trkpt>
      <trkpt lat="45.08881" lon="7.36339">
        <ele>362</ele>
        <time>2019-04-17T16:09:31Z</time>
      </trkpt>
      <trkpt lat="45.08804" lon="7.36382">
        <ele>371</ele>
        <time>2019-04-17T16:10:31Z</time>
      </trkpt>
      <trkpt lat="45.08789" lon="7.36398">
        <ele>370</ele>
        <time>2019-04-17T16:11:31Z</time>
      </trkpt>
      <trkpt lat="45.08782" lon="7.36411">
        <ele>368</ele>
        <time>2019-04-17T16:12:31Z</time>
      </trkpt>
      <trkpt lat="45.08701" lon="7.36625">
        <ele>356</ele>
        <time>2019-04-17T16:13:31Z</time>
      </trkpt>
      <trkpt lat="45.08688" lon="7.36653">
        <ele>356</ele>
        <time>2019-04-17T16:14:31Z</time>
      </trkpt>
      <trkpt lat="45.08621" lon="7.36761">
        <ele>357</ele>
        <time>2019-04-17T16:15:31Z</time>
      </trkpt>
      <trkpt lat="45.08613" lon="7.36779">
        <ele>357</ele>
        <time>2019-04-17T16:16:31Z</time>
      </trkpt>
      <trkpt lat="45.08598" lon="7.36839">
        <ele>355</ele>
        <time>2019-04-17T16:17:31Z</time>
      </trkpt>
      <trkpt lat="45.08581" lon="7.36888">
        <ele>355</ele>
        <time>2019-04-17T16:18:31Z</time>
      </trkpt>
      <trkpt lat="45.08574" lon="7.36905">
        <ele>355</ele>
        <time>2019-04-17T16:19:31Z</time>
      </trkpt>
      <trkpt lat="45.08533" lon="7.3695">
        <ele>355</ele>
        <time>2019-04-17T16:20:31Z</time>
      </trkpt>
      <trkpt lat="45.08506" lon="7.36966">
        <ele>354</ele>
        <time>2019-04-17T16:21:31Z</time>
      </trkpt>
      <trkpt lat="45.08453" lon="7.36985">
        <ele>353</ele>
        <time>2019-04-17T16:22:31Z</time>
      </trkpt>
      <trkpt lat="45.08409" lon="7.36998">
        <ele>353</ele>
        <time>2019-04-17T16:23:31Z</time>
      </trkpt>
      <trkpt lat="45.08337" lon="7.37006">
        <ele>356</ele>
        <time>2019-04-17T16:24:31Z</time>
      </trkpt>
      <trkpt lat="45.08261" lon="7.37006">
        <ele>356</ele>
        <time>2019-04-17T16:25:31Z</time>
      </trkpt>
      <trkpt lat="45.08221" lon="7.37009">
        <ele>355</ele>
        <time>2019-04-17T16:26:31Z</time>
      </trkpt>
      <trkpt lat="45.08147" lon="7.3701">
        <ele>354</ele>
        <time>2019-04-17T16:27:31Z</time>
      </trkpt>
      <trkpt lat="45.08119" lon="7.37007">
        <ele>354</ele>
        <time>2019-04-17T16:28:31Z</time>
      </trkpt>
      <trkpt lat="45.08049" lon="7.36991">
        <ele>354</ele>
        <time>2019-04-17T16:29:31Z</time>
      </trkpt>
      <trkpt lat="45.08026" lon="7.36992">
        <ele>353</ele>
        <time>2019-04-17T16:30:31Z</time>
      </trkpt>
      <trkpt lat="45.07951" lon="7.37003">
        <ele>352</ele>
        <time>2019-04-17T16:31:31Z</time>
      </trkpt>
      <trkpt lat="45.07929" lon="7.37002">
        <ele>353</ele>
        <time>2019-04-17T16:32:31Z</time>
      </trkpt>
      <trkpt lat="45.07905" lon="7.36999">
        <ele>353</ele>
        <time>2019-04-17T16:33:31Z</time>
      </trkpt>
      <trkpt lat="45.0788" lon="7.36978">
        <ele>358</ele>
        <time>2019-04-17T16:34:31Z</time>
      </trkpt>
      <trkpt lat="45.07849" lon="7.36972">
        <ele>360</ele>
        <time>2019-04-17T16:35:31Z</time>
      </trkpt>
      <trkpt lat="45.07782" lon="7.36985">
        <ele>359</ele>
        <time>2019-04-17T16:36:31Z</time>
      </trkpt>
      <trkpt lat="45.07774" lon="7.36983">
        <ele>360</ele>
        <time>2019-04-17T16:37:31Z</time>
      </trkpt>
      <trkpt lat="45.0774" lon="7.36959">
        <ele>366</ele>
        <time>2019-04-17T16:38:31Z</time>
      </trkpt>
      <trkpt lat="45.07732" lon="7.36955">
        <ele>367</ele>
        <time>2019-04-17T16:39:31Z</time>
      </trkpt>
      <trkpt lat="45.07719" lon="7.36953">
        <ele>368</ele>
        <time>2019-04-17T16:40:31Z</time>
      </trkpt>
      <trkpt lat="45.07704" lon="7.36954">
        <ele>368</ele>
        <time>2019-04-17T16:41:31Z</time>
      </trkpt>
      <trkpt lat="45.0763" lon="7.36975">
        <ele>367</ele>
        <time>2019-04-17T16:42:31Z</time>
      </trkpt>
      <trkpt lat="45.07558" lon="7.37014">
        <ele>363</ele>
        <time>2019-04-17T16:43:31Z</time>
      </trkpt>
      <trkpt lat="45.07548" lon="7.37016">
        <ele>363</ele>
        <time>2019-04-17T16:44:31Z</time>
      </trkpt>
      <trkpt lat="45.07539" lon="7.37013">
        <ele>363</ele>
        <time>2019-04-17T16:45:31Z</time>
      </trkpt>
      <trkpt lat="45.07529" lon="7.37007">
        <ele>364</ele>
        <time>2019-04-17T16:46:31Z</time>
      </trkpt>
      <trkpt lat="45.07456" lon="7.36954">
        <ele>366</ele>
        <time>2019-04-17T16:47:31Z</time>
      </trkpt>
      <trkpt lat="45.07394" lon="7.36946">
        <ele>363</ele>
        <time>2019-04-17T16:48:31Z</time>
      </trkpt>
      <trkpt lat="45.0736" lon="7.36947">
        <ele>363</ele>
        <time>2019-04-17T16:49:31Z</time>
      </trkpt>
      <trkpt lat="45.07287" lon="7.3697">
        <ele>364</ele>
        <time>2019-04-17T16:50:31Z</time>
      </trkpt>
      <trkpt lat="45.07227" lon="7.37026">
        <ele>360</ele>
        <time>2019-04-17T16:51:31Z</time>
      </trkpt>
      <trkpt lat="45.07168" lon="7.37066">
        <ele>362</ele>
        <time>2019-04-17T16:52:31Z</time>
      </trkpt>
      <trkpt lat="45.07126" lon="7.37102">
        <ele>366</ele>
        <time>2019-04-17T16:53:31Z</time>
      </trkpt>
      <trkpt lat="45.06997" lon="7.37242">
        <ele>365</ele>
        <time>2019-04-17T16:54:31Z</time>
      </trkpt>
      <trkpt lat="45.06936" lon="7.37323">
        <ele>366</ele>
        <time>2019-04-17T16:55:31Z</time>
      </trkpt>
      <trkpt lat="45.06897" lon="7.37388">
        <ele>363</ele>
        <time>2019-04-17T16:56:31Z</time>
      </trkpt>
      <trkpt lat="45.06823" lon="7.37498">
        <ele>357</ele>
        <time>2019-04-17T16:57:31Z</time>
      </trkpt>
      <trkpt lat="45.06781" lon="7.37556">
        <ele>358</ele>
        <time>2019-04-17T16:58:31Z</time>
      </trkpt>
      <trkpt lat="45.06756" lon="7.37585">
        <ele>355</ele>
        <time>2019-04-17T16:59:31Z</time>
      </trkpt>
      <trkpt lat="45.06642" lon="7.37698">
        <ele>364</ele>
        <time>2019-04-17T17:00:31Z</time>
      </trkpt>
      <trkpt lat="45.06619" lon="7.37709">
        <ele>368</ele>
        <time>2019-04-17T17:01:31Z</time>
      </trkpt>
      <trkpt lat="45.0657" lon="7.37726">
        <ele>375</ele>
        <time>2019-04-17T17:02:31Z</time>
      </trkpt>
      <trkpt lat="45.06553" lon="7.37735">
        <ele>376</ele>
        <time>2019-04-17T17:03:31Z</time>
      </trkpt>
      <trkpt lat="45.06514" lon="7.37762">
        <ele>375</ele>
        <time>2019-04-17T17:04:31Z</time>
      </trkpt>
      <trkpt lat="45.06483" lon="7.37792">
        <ele>375</ele>
        <time>2019-04-17T17:05:31Z</time>
      </trkpt>
      <trkpt lat="45.06449" lon="7.37827">
        <ele>374</ele>
        <time>2019-04-17T17:06:31Z</time>
      </trkpt>
      <trkpt lat="45.06428" lon="7.37854">
        <ele>373</ele>
        <time>2019-04-17T17:07:31Z</time>
      </trkpt>
      <trkpt lat="45.06393" lon="7.3791">
        <ele>367</ele>
        <time>2019-04-17T17:08:31Z</time>
      </trkpt>
      <trkpt lat="45.06339" lon="7.37989">
        <ele>360</ele>
        <time>2019-04-17T17:09:31Z</time>
      </trkpt>
      <trkpt lat="45.06236" lon="7.38069">
        <ele>368</ele>
        <time>2019-04-17T17:10:31Z</time>
      </trkpt>
      <trkpt lat="45.06183" lon="7.38143">
        <ele>367</ele>
        <time>2019-04-17T17:11:31Z</time>
      </trkpt>
      <trkpt lat="45.06116" lon="7.38205">
        <ele>370</ele>
        <time>2019-04-17T17:12:31Z</time>
      </trkpt>
      <trkpt lat="45.06096" lon="7.38244">
        <ele>366</ele>
        <time>2019-04-17T17:13:31Z</time>
      </trkpt>
      <trkpt lat="45.06084" lon="7.3828">
        <ele>364</ele>
        <time>2019-04-17T17:14:31Z</time>
      </trkpt>
      <trkpt lat="45.06025" lon="7.38512">
        <ele>365</ele>
        <time>2019-04-17T17:15:31Z</time>
      </trkpt>
      <trkpt lat="45.06002" lon="7.38613">
        <ele>363</ele>
        <time>2019-04-17T17:16:31Z</time>
      </trkpt>
      <trkpt lat="45.06001" lon="7.38685">
        <ele>360</ele>
        <time>2019-04-17T17:17:31Z</time>
      </trkpt>
      <trkpt lat="45.06024" lon="7.38802">
        <ele>360</ele>
        <time>2019-04-17T17:18:31Z</time>
      </trkpt>
      <trkpt lat="45.06073" lon="7.38967">
        <ele>355</ele>
        <time>2019-04-17T17:19:31Z</time>
      </trkpt>
      <trkpt lat="45.06102" lon="7.39019">
        <ele>355</ele>
        <time>2019-04-17T17:20:31Z</time>
      </trkpt>
      <trkpt lat="45.06191" lon="7.39192">
        <ele>357</ele>
        <time>2019-04-17T17:21:31Z</time>
      </trkpt>
      <trkpt lat="45.06198" lon="7.39224">
        <ele>358</ele>
        <time>2019-04-17T17:22:31Z</time>
      </trkpt>
      <trkpt lat="45.06194" lon="7.39233">
        <ele>359</ele>
        <time>2019-04-17T17:23:31Z</time>
      </trkpt>
      <trkpt lat="45.06195" lon="7.39244">
        <ele>360</ele>
        <time>2019-04-17T17:24:31Z</time>
      </trkpt>
      <trkpt lat="45.06178" lon="7.39273">
        <ele>364</ele>
        <time>2019-04-17T17:25:31Z</time>
      </trkpt>
      <trkpt lat="45.06167" lon="7.39278">
        <ele>365</ele>
        <time>2019-04-17T17:26:31Z</time>
      </trkpt>
      <trkpt lat="45.06156" lon="7.39277">
        <ele>365</ele>
        <time>2019-04-17T17:27:31Z</time>
      </trkpt>
      <trkpt lat="45.06134" lon="7.39264">
        <ele>364</ele>
        <time>2019-04-17T17:28:31Z</time>
      </trkpt>
      <trkpt lat="45.06074" lon="7.39217">
        <ele>362</ele>
        <time>2019-04-17T17:29:31Z</time>
      </trkpt>
      <trkpt lat="45.06064" lon="7.39215">
        <ele>362</ele>
        <time>2019-04-17T17:30:31Z</time>
      </trkpt>
      <trkpt lat="45.06054" lon="7.39218">
        <ele>362</ele>
        <time>2019-04-17T17:31:31Z</time>
      </trkpt>
      <trkpt lat="45.06045" lon="7.39223">
        <ele>362</ele>
        <time>2019-04-17T17:32:31Z</time>
      </trkpt>
      <trkpt lat="45.06026" lon="7.39225">
        <ele>362</ele>
        <time>2019-04-17T17:33:31Z</time>
      </trkpt>
      <trkpt lat="45.0602" lon="7.39221">
        <ele>362</ele>
        <time>2019-04-17T17:34:31Z</time>
      </trkpt>
      <trkpt lat="45.06013" lon="7.39219">
        <ele>362</ele>
        <time>2019-04-17T17:35:31Z</time>
      </trkpt>
      <trkpt lat="45.06006" lon="7.39221">
        <ele>362</ele>
        <time>2019-04-17T17:36:31Z</time>
      </trkpt>
      <trkpt lat="45.06" lon="7.39225">
        <ele>362</ele>
        <time>2019-04-17T17:37:31Z</time>
      </trkpt>
      <trkpt lat="45.05995" lon="7.39232">
        <ele>362</ele>
        <time>2019-04-17T17:38:31Z</time>
      </trkpt>
      <trkpt lat="45.05991" lon="7.39242">
        <ele>362</ele>
        <time>2019-04-17T17:39:31Z</time>
      </trkpt>
      <trkpt lat="45.0599" lon="7.39252">
        <ele>363</ele>
        <time>2019-04-17T17:40:31Z</time>
      </trkpt>
      <trkpt lat="45.05979" lon="7.39265">
        <ele>363</ele>
        <time>2019-04-17T17:41:31Z</time>
      </trkpt>
      <trkpt lat="45.05938" lon="7.39301">
        <ele>362</ele>
        <time>2019-04-17T17:42:31Z</time>
      </trkpt>
      <trkpt lat="45.05909" lon="7.39343">
        <ele>362</ele>
        <time>2019-04-17T17:43:31Z</time>
      </trkpt>
      <trkpt lat="45.05747" lon="7.39544">
        <ele>367</ele>
        <time>2019-04-17T17:44:31Z</time>
      </trkpt>
      <trkpt lat="45.05738" lon="7.39554">
        <ele>367</ele>
        <time>2019-04-17T17:45:31Z</time>
      </trkpt>
      <trkpt lat="45.05721" lon="7.39566">
        <ele>367</ele>
        <time>2019-04-17T17:46:31Z</time>
      </trkpt>
      <trkpt lat="45.05694" lon="7.39574">
        <ele>366</ele>
        <time>2019-04-17T17:47:31Z</time>
      </trkpt>
      <trkpt lat="45.05286" lon="7.39675">
        <ele>367</ele>
        <time>2019-04-17T17:48:31Z</time>
      </trkpt>
      <trkpt lat="45.05273" lon="7.39679">
        <ele>366</ele>
        <time>2019-04-17T17:49:31Z</time>
      </trkpt>
      <trkpt lat="45.05251" lon="7.39692">
        <ele>366</ele>
        <time>2019-04-17T17:50:31Z</time>
      </trkpt>
      <trkpt lat="45.0524" lon="7.397">
        <ele>366</ele>
        <time>2019-04-17T17:51:31Z</time>
      </trkpt>
      <trkpt lat="45.05217" lon="7.39731">
        <ele>367</ele>
        <time>2019-04-17T17:52:31Z</time>
      </trkpt>
      <trkpt lat="45.05206" lon="7.39751">
        <ele>368</ele>
        <time>2019-04-17T17:53:31Z</time>
      </trkpt>
      <trkpt lat="45.04943" lon="7.40297">
        <ele>366</ele>
        <time>2019-04-17T17:54:31Z</time>
      </trkpt>
      <trkpt lat="45.04917" lon="7.40341">
        <ele>365</ele>
        <time>2019-04-17T17:55:31Z</time>
      </trkpt>
      <trkpt lat="45.04157" lon="7.41371">
        <ele>395</ele>
        <time>2019-04-17T17:56:31Z</time>
      </trkpt>
      <trkpt lat="45.04141" lon="7.41406">
        <ele>400</ele>
        <time>2019-04-17T17:57:31Z</time>
      </trkpt>
      <trkpt lat="45.04137" lon="7.41428">
        <ele>401</ele>
        <time>2019-04-17T17:58:31Z</time>
      </trkpt>
      <trkpt lat="45.04135" lon="7.4145">
        <ele>402</ele>
        <time>2019-04-17T17:59:31Z</time>
      </trkpt>
      <trkpt lat="45.04135" lon="7.41499">
        <ele>402</ele>
        <time>2019-04-17T18:00:31Z</time>
      </trkpt>
      <trkpt lat="45.04131" lon="7.41536">
        <ele>402</ele>
        <time>2019-04-17T18:01:31Z</time>
      </trkpt>
      <trkpt lat="45.0412" lon="7.41566">
        <ele>402</ele>
        <time>2019-04-17T18:02:31Z</time>
      </trkpt>
      <trkpt lat="45.04108" lon="7.41583">
        <ele>401</ele>
        <time>2019-04-17T18:03:31Z</time>
      </trkpt>
      <trkpt lat="45.03871" lon="7.41873">
        <ele>379</ele>
        <time>2019-04-17T18:04:31Z</time>
      </trkpt>
      <trkpt lat="45.0384" lon="7.419">
        <ele>378</ele>
        <time>2019-04-17T18:05:31Z</time>
      </trkpt>
      <trkpt lat="45.03825" lon="7.41909">
        <ele>377</ele>
        <time>2019-04-17T18:06:31Z</time>
      </trkpt>
      <trkpt lat="45.03791" lon="7.41923">
        <ele>376</ele>
        <time>2019-04-17T18:07:31Z</time>
      </trkpt>
      <trkpt lat="45.03503" lon="7.41995">
        <ele>371</ele>
        <time>2019-04-17T18:08:31Z</time>
      </trkpt>
      <trkpt lat="45.03482" lon="7.42005">
        <ele>373</ele>
        <time>2019-04-17T18:09:31Z</time>
      </trkpt>
      <trkpt lat="45.03477" lon="7.4201">
        <ele>373</ele>
        <time>2019-04-17T18:10:31Z</time>
      </trkpt>
      <trkpt lat="45.03472" lon="7.42016">
        <ele>373</ele>
        <time>2019-04-17T18:11:31Z</time>
      </trkpt>
      <trkpt lat="45.03463" lon="7.42032">
        <ele>374</ele>
        <time>2019-04-17T18:12:31Z</time>
      </trkpt>
      <trkpt lat="45.03459" lon="7.42042">
        <ele>375</ele>
        <time>2019-04-17T18:13:31Z</time>
      </trkpt>
      <trkpt lat="45.03455" lon="7.42064">
        <ele>375</ele>
        <time>2019-04-17T18:14:31Z</time>
      </trkpt>
      <trkpt lat="45.03453" lon="7.42101">
        <ele>375</ele>
        <time>2019-04-17T18:15:31Z</time>
      </trkpt>
      <trkpt lat="45.0345" lon="7.42098">
        <ele>376</ele>
        <time>2019-04-17T18:16:31Z</time>
      </trkpt>
      <trkpt lat="45.03443" lon="7.42096">
        <ele>376</ele>
        <time>2019-04-17T18:17:31Z</time>
      </trkpt>
      <trkpt lat="45.03438" lon="7.42101">
        <ele>377</ele>
        <time>2019-04-17T18:18:31Z</time>
      </trkpt>
      <trkpt lat="45.03436" lon="7.4211">
        <ele>377</ele>
        <time>2019-04-17T18:19:31Z</time>
      </trkpt>
      <trkpt lat="45.03437" lon="7.42118">
        <ele>377</ele>
        <time>2019-04-17T18:20:31Z</time>
      </trkpt>
      <trkpt lat="45.03442" lon="7.42124">
        <ele>377</ele>
        <time>2019-04-17T18:21:31Z</time>
      </trkpt>
      <trkpt lat="45.03445" lon="7.42124">
        <ele>376</ele>
        <time>2019-04-17T18:22:31Z</time>
      </trkpt>
      <trkpt lat="45.03451" lon="7.42121">
        <ele>375</ele>
        <time>2019-04-17T18:23:31Z</time>
      </trkpt>
      <trkpt lat="45.03451" lon="7.42149">
        <ele>375</ele>
        <time>2019-04-17T18:24:31Z</time>
      </trkpt>
      <trkpt lat="45.03418" lon="7.42997">
        <ele>364</ele>
        <time>2019-04-17T18:25:31Z</time>
      </trkpt>
      <trkpt lat="45.03412" lon="7.43097">
        <ele>363</ele>
        <time>2019-04-17T18:26:31Z</time>
      </trkpt>
      <trkpt lat="45.03405" lon="7.43149">
        <ele>362</ele>
        <time>2019-04-17T18:27:31Z</time>
      </trkpt>
      <trkpt lat="45.03397" lon="7.43191">
        <ele>361</ele>
        <time>2019-04-17T18:28:31Z</time>
      </trkpt>
      <trkpt lat="45.03375" lon="7.43291">
        <ele>360</ele>
        <time>2019-04-17T18:29:31Z</time>
      </trkpt>
      <trkpt lat="45.03348" lon="7.43378">
        <ele>359</ele>
        <time>2019-04-17T18:30:31Z</time>
      </trkpt>
      <trkpt lat="45.02389" lon="7.45862">
        <ele>329</ele>
        <time>2019-04-17T18:31:31Z</time>
      </trkpt>
      <trkpt lat="45.02344" lon="7.45972">
        <ele>327</ele>
        <time>2019-04-17T18:32:31Z</time>
      </trkpt>
      <trkpt lat="45.02335" lon="7.45988">
        <ele>327</ele>
        <time>2019-04-17T18:33:31Z</time>
      </trkpt>
      <trkpt lat="45.02257" lon="7.46106">
        <ele>328</ele>
        <time>2019-04-17T18:34:31Z</time>
      </trkpt>
      <trkpt lat="45.02047" lon="7.46421">
        <ele>324</ele>
        <time>2019-04-17T18:35:31Z</time>
      </trkpt>
      <trkpt lat="45.02023" lon="7.46454">
        <ele>324</ele>
        <time>2019-04-17T18:36:31Z</time>
      </trkpt>
      <trkpt lat="45.02019" lon="7.46457">
        <ele>324</ele>
        <time>2019-04-17T18:37:31Z</time>
      </trkpt>
      <trkpt lat="45.02015" lon="7.4647">
        <ele>324</ele>
        <time>2019-04-17T18:38:31Z</time>
      </trkpt>
      <trkpt lat="45.01992" lon="7.46481">
        <ele>324</ele>
        <time>2019-04-17T18:39:31Z</time>
      </trkpt>
      <trkpt lat="45.01987" lon="7.4648">
        <ele>324</ele>
        <time>2019-04-17T18:40:31Z</time>
      </trkpt>
      <trkpt lat="45.01981" lon="7.46484">
        <ele>323</ele>
        <time>2019-04-17T18:41:31Z</time>
      </trkpt>
      <trkpt lat="45.01963" lon="7.46489">
        <ele>323</ele>
        <time>2019-04-17T18:42:31Z</time>
      </trkpt>
      <trkpt lat="45.01608" lon="7.46529">
        <ele>318</ele>
        <time>2019-04-17T18:43:31Z</time>
      </trkpt>
      <trkpt lat="45.0159" lon="7.46541">
        <ele>318</ele>
        <time>2019-04-17T18:44:31Z</time>
      </trkpt>
      <trkpt lat="45.01584" lon="7.46535">
        <ele>318</ele>
        <time>2019-04-17T18:45:31Z</time>
      </trkpt>
      <trkpt lat="45.01578" lon="7.46536">
        <ele>318</ele>
        <time>2019-04-17T18:46:31Z</time>
      </trkpt>
      <trkpt lat="45.01575" lon="7.46538">
        <ele>318</ele>
        <time>2019-04-17T18:47:31Z</time>
      </trkpt>
      <trkpt lat="45.01571" lon="7.46547">
        <ele>318</ele>
        <time>2019-04-17T18:48:31Z</time>
      </trkpt>
      <trkpt lat="45.0156" lon="7.4654">
        <ele>317</ele>
        <time>2019-04-17T18:49:31Z</time>
      </trkpt>
      <trkpt lat="45.01549" lon="7.46537">
        <ele>317</ele>
        <time>2019-04-17T18:50:31Z</time>
      </trkpt>
      <trkpt lat="45.01526" lon="7.46539">
        <ele>316</ele>
        <time>2019-04-17T18:51:31Z</time>
      </trkpt>
      <trkpt lat="45.00205" lon="7.46686">
        <ele>306</ele>
        <time>2019-04-17T18:52:31Z</time>
      </trkpt>
      <trkpt lat="45.00205" lon="7.46681">
        <ele>306</ele>
        <time>2019-04-17T18:53:31Z</time>
      </trkpt>
      <trkpt lat="45.00201" lon="7.46674">
        <ele>306</ele>
        <time>2019-04-17T18:54:31Z</time>
      </trkpt>
      <trkpt lat="45.00195" lon="7.46672">
        <ele>306</ele>
        <time>2019-04-17T18:55:31Z</time>
      </trkpt>
      <trkpt lat="45.00189" lon="7.46675">
        <ele>306</ele>
        <time>2019-04-17T18:56:31Z</time>
      </trkpt>
      <trkpt lat="45.00185" lon="7.46683">
        <ele>306</ele>
        <time>2019-04-17T18:57:31Z</time>
      </trkpt>
      <trkpt lat="45.00185" lon="7.46688">
        <ele>305</ele>
        <time>2019-04-17T18:58:31Z</time>
      </trkpt>
      <trkpt lat="44.99881" lon="7.4672">
        <ele>303</ele>
        <time>2019-04-17T18:59:31Z</time>
      </trkpt>
      <trkpt lat="44.99236" lon="7.46796">
        <ele>298</ele>
        <time>2019-04-17T19:00:31Z</time>
      </trkpt>
      <trkpt lat="44.99046" lon="7.46816">
        <ele>297</ele>
        <time>2019-04-17T19:01:31Z</time>
      </trkpt>
      <trkpt lat="44.99022" lon="7.46815">
        <ele>297</ele>
        <time>2019-04-17T19:02:31Z</time>
      </trkpt>
      <trkpt lat="44.99001" lon="7.46809">
        <ele>297</ele>
        <time>2019-04-17T19:03:31Z</time>
      </trkpt>
      <trkpt lat="44.98998" lon="7.46806">
        <ele>297</ele>
        <time>2019-04-17T19:04:31Z</time>
      </trkpt>
      <trkpt lat="44.98991" lon="7.46779">
        <ele>298</ele>
        <time>2019-04-17T19:05:31Z</time>
      </trkpt>
      <trkpt lat="44.98982" lon="7.46731">
        <ele>298</ele>
        <time>2019-04-17T19:06:31Z</time>
      </trkpt>
      <trkpt lat="44.98919" lon="7.46458">
        <ele>298</ele>
        <time>2019-04-17T19:07:31Z</time>
      </trkpt>
      <trkpt lat="44.98908" lon="7.4642">
        <ele>297</ele>
        <time>2019-04-17T19:08:31Z</time>
      </trkpt>
      <trkpt lat="44.98891" lon="7.46392">
        <ele>297</ele>
        <time>2019-04-17T19:09:31Z</time>
      </trkpt>
      <trkpt lat="44.98738" lon="7.46213">
        <ele>297</ele>
        <time>2019-04-17T19:10:31Z</time>
      </trkpt>
      <trkpt lat="44.98666" lon="7.46125">
        <ele>295</ele>
        <time>2019-04-17T19:11:31Z</time>
      </trkpt>
      <trkpt lat="44.98563" lon="7.46011">
        <ele>293</ele>
        <time>2019-04-17T19:12:31Z</time>
      </trkpt>
      <trkpt lat="44.98437" lon="7.45864">
        <ele>292</ele>
        <time>2019-04-17T19:13:31Z</time>
      </trkpt>
      <trkpt lat="44.98437" lon="7.4586">
        <ele>292</ele>
        <time>2019-04-17T19:14:31Z</time>
      </trkpt>
      <trkpt lat="44.98436" lon="7.45853">
        <ele>292</ele>
        <time>2019-04-17T19:15:31Z</time>
      </trkpt>
      <trkpt lat="44.98434" lon="7.4585">
        <ele>292</ele>
        <time>2019-04-17T19:16:31Z</time>
      </trkpt>
      <trkpt lat="44.98429" lon="7.45848">
        <ele>292</ele>
        <time>2019-04-17T19:17:31Z</time>
      </trkpt>
      <trkpt lat="44.98424" lon="7.45851">
        <ele>292</ele>
        <time>2019-04-17T19:18:31Z</time>
      </trkpt>
      <trkpt lat="44.98114" lon="7.45491">
        <ele>287</ele>
        <time>2019-04-17T19:19:31Z</time>
      </trkpt>
      <trkpt lat="44.981" lon="7.45474">
        <ele>286</ele>
        <time>2019-04-17T19:20:31Z</time>
      </trkpt>
      <trkpt lat="44.98102" lon="7.45466">
        <ele>286</ele>
        <time>2019-04-17T19:21:31Z</time>
      </trkpt>
      <trkpt lat="44.981" lon="7.45462">
        <ele>286</ele>
        <time>2019-04-17T19:22:31Z</time>
      </trkpt>
      <trkpt lat="44.98094" lon="7.4546">
        <ele>286</ele>
        <time>2019-04-17T19:23:31Z</time>
      </trkpt>
      <trkpt lat="44.98091" lon="7.45463">
        <ele>286</ele>
        <time>2019-04-17T19:24:31Z</time>
      </trkpt>
      <trkpt lat="44.98089" lon="7.45461">
        <ele>286</ele>
        <time>2019-04-17T19:25:31Z</time>
      </trkpt>
      <trkpt lat="44.97833" lon="7.45167">
        <ele>279</ele>
        <time>2019-04-17T19:26:31Z</time>
      </trkpt>
      <trkpt lat="44.97797" lon="7.45123">
        <ele>278</ele>
        <time>2019-04-17T19:27:31Z</time>
      </trkpt>
      <trkpt lat="44.97775" lon="7.45084">
        <ele>277</ele>
        <time>2019-04-17T19:28:31Z</time>
      </trkpt>
      <trkpt lat="44.97708" lon="7.44946">
        <ele>281</ele>
        <time>2019-04-17T19:29:31Z</time>
      </trkpt>
      <trkpt lat="44.97586" lon="7.44687">
        <ele>279</ele>
        <time>2019-04-17T19:30:31Z</time>
      </trkpt>
      <trkpt lat="44.97581" lon="7.44678">
        <ele>279</ele>
        <time>2019-04-17T19:31:31Z</time>
      </trkpt>
      <trkpt lat="44.97566" lon="7.44661">
        <ele>279</ele>
        <time>2019-04-17T19:32:31Z</time>
      </trkpt>
      <trkpt lat="44.97556" lon="7.44646">
        <ele>279</ele>
        <time>2019-04-17T19:33:31Z</time>
      </trkpt>
      <trkpt lat="44.97554" lon="7.44637">
        <ele>279</ele>
        <time>2019-04-17T19:34:31Z</time>
      </trkpt>
      <trkpt lat="44.9755" lon="7.4463">
        <ele>280</ele>
        <time>2019-04-17T19:35:31Z</time>
      </trkpt>
      <trkpt lat="44.97545" lon="7.44624">
        <ele>280</ele>
        <time>2019-04-17T19:36:31Z</time>
      </trkpt>
      <trkpt lat="44.97539" lon="7.44621">
        <ele>280</ele>
        <time>2019-04-17T19:37:31Z</time>
      </trkpt>
      <trkpt lat="44.97533" lon="7.44608">
        <ele>280</ele>
        <time>2019-04-17T19:38:31Z</time>
      </trkpt>
      <trkpt lat="44.97517" lon="7.44586">
        <ele>280</ele>
        <time>2019-04-17T19:39:31Z</time>
      </trkpt>
      <trkpt lat="44.97517" lon="7.44559">
        <ele>280</ele>
        <time>2019-04-17T19:40:31Z</time>
      </trkpt>
      <trkpt lat="44.97519" lon="7.4455">
        <ele>281</ele>
        <time>2019-04-17T19:41:31Z</time>
      </trkpt>
      <trkpt lat="44.97528" lon="7.44533">
        <ele>282</ele>
        <time>2019-04-17T19:42:31Z</time>
      </trkpt>
      <trkpt lat="44.97553" lon="7.44514">
        <ele>283</ele>
        <time>2019-04-17T19:43:31Z</time>
      </trkpt>
      <trkpt lat="44.97578" lon="7.445">
        <ele>284</ele>
        <time>2019-04-17T19:44:31Z</time>
      </trkpt>
      <trkpt lat="44.97582" lon="7.445">
        <ele>284</ele>
        <time>2019-04-17T19:45:31Z</time>
      </trkpt>
      <trkpt lat="44.97578" lon="7.445">
        <ele>284</ele>
        <time>2019-04-17T19:46:31Z</time>
      </trkpt>
      <trkpt lat="44.97566" lon="7.44474">
        <ele>283</ele>
        <time>2019-04-17T19:47:31Z</time>
      </trkpt>
      <trkpt lat="44.97538" lon="7.44403">
        <ele>281</ele>
        <time>2019-04-17T19:48:31Z</time>
      </trkpt>
      <trkpt lat="44.97508" lon="7.44291">
        <ele>279</ele>
        <time>2019-04-17T19:49:31Z</time>
      </trkpt>
      <trkpt lat="44.97465" lon="7.44119">
        <ele>277</ele>
        <time>2019-04-17T19:50:31Z</time>
      </trkpt>
      <trkpt lat="44.97378" lon="7.43868">
        <ele>278</ele>
        <time>2019-04-17T19:51:31Z</time>
      </trkpt>
      <trkpt lat="44.97335" lon="7.43767">
        <ele>275</ele>
        <time>2019-04-17T19:52:31Z</time>
      </trkpt>
      <trkpt lat="44.97309" lon="7.43715">
        <ele>274</ele>
        <time>2019-04-17T19:53:31Z</time>
      </trkpt>
      <trkpt lat="44.97278" lon="7.43674">
        <ele>273</ele>
        <time>2019-04-17T19:54:31Z</time>
      </trkpt>
      <trkpt lat="44.97267" lon="7.43649">
        <ele>273</ele>
        <time>2019-04-17T19:55:31Z</time>
      </trkpt>
      <trkpt lat="44.97139" lon="7.43608">
        <ele>274</ele>
        <time>2019-04-17T19:56:31Z</time>
      </trkpt>
      <trkpt lat="44.97052" lon="7.43569">
        <ele>275</ele>
        <time>2019-04-17T19:57:31Z</time>
      </trkpt>
      <trkpt lat="44.96978" lon="7.43416">
        <ele>274</ele>
        <time>2019-04-17T19:58:31Z</time>
      </trkpt>
      <trkpt lat="44.96947" lon="7.43343">
        <ele>274</ele>
        <time>2019-04-17T19:59:31Z</time>
      </trkpt>
      <trkpt lat="44.96944" lon="7.43285">
        <ele>275</ele>
        <time>2019-04-17T20:00:31Z</time>
      </trkpt>
      <trkpt lat="44.96945" lon="7.43241">
        <ele>276</ele>
        <time>2019-04-17T20:01:31Z</time>
      </trkpt>
      <trkpt lat="44.96941" lon="7.43201">
        <ele>277</ele>
        <time>2019-04-17T20:02:31Z</time>
      </trkpt>
      <trkpt lat="44.96931" lon="7.43165">
        <ele>278</ele>
        <time>2019-04-17T20:03:31Z</time>
      </trkpt>
      <trkpt lat="44.96924" lon="7.43125">
        <ele>279</ele>
        <time>2019-04-17T20:04:31Z</time>
      </trkpt>
      <trkpt lat="44.96934" lon="7.43053">
        <ele>280</ele>
        <time>2019-04-17T20:05:31Z</time>
      </trkpt>
      <trkpt lat="44.96924" lon="7.43011">
        <ele>280</ele>
        <time>2019-04-17T20:06:31Z</time>
      </trkpt>
      <trkpt lat="44.96907" lon="7.42973">
        <ele>279</ele>
        <time>2019-04-17T20:07:31Z</time>
      </trkpt>
      <trkpt lat="44.9688" lon="7.4287">
        <ele>277</ele>
        <time>2019-04-17T20:08:31Z</time>
      </trkpt>
      <trkpt lat="44.96876" lon="7.42794">
        <ele>277</ele>
        <time>2019-04-17T20:09:31Z</time>
      </trkpt>
      <trkpt lat="44.9688" lon="7.42727">
        <ele>277</ele>
        <time>2019-04-17T20:10:31Z</time>
      </trkpt>
      <trkpt lat="44.96881" lon="7.4266">
        <ele>278</ele>
        <time>2019-04-17T20:11:31Z</time>
      </trkpt>
      <trkpt lat="44.96865" lon="7.42599">
        <ele>278</ele>
        <time>2019-04-17T20:12:31Z</time>
      </trkpt>
      <trkpt lat="44.96834" lon="7.42504">
        <ele>278</ele>
        <time>2019-04-17T20:13:31Z</time>
      </trkpt>
      <trkpt lat="44.96816" lon="7.42445">
        <ele>279</ele>
        <time>2019-04-17T20:14:31Z</time>
      </trkpt>
      <trkpt lat="44.96815" lon="7.42366">
        <ele>278</ele>
        <time>2019-04-17T20:15:31Z</time>
      </trkpt>
      <trkpt lat="44.96819" lon="7.42267">
        <ele>279</ele>
        <time>2019-04-17T20:16:31Z</time>
      </trkpt>
      <trkpt lat="44.96831" lon="7.42113">
        <ele>281</ele>
        <time>2019-04-17T20:17:31Z</time>
      </trkpt>
      <trkpt lat="44.96835" lon="7.41994">
        <ele>282</ele>
        <time>2019-04-17T20:18:31Z</time>
      </trkpt>
      <trkpt lat="44.96832" lon="7.41958">
        <ele>282</ele>
        <time>2019-04-17T20:19:31Z</time>
      </trkpt>
      <trkpt lat="44.96825" lon="7.41927">
        <ele>282</ele>
        <time>2019-04-17T20:20:31Z</time>
      </trkpt>
      <trkpt lat="44.96805" lon="7.41879">
        <ele>282</ele>
        <time>2019-04-17T20:21:31Z</time>
      </trkpt>
      <trkpt lat="44.96734" lon="7.41745">
        <ele>284</ele>
        <time>2019-04-17T20:22:31Z</time>
      </trkpt>
      <trkpt lat="44.96683" lon="7.4166">
        <ele>285</ele>
        <time>2019-04-17T20:23:31Z</time>
      </trkpt>
      <trkpt lat="44.96621" lon="7.41578">
        <ele>285</ele>
        <time>2019-04-17T20:24:31Z</time>
      </trkpt>
      <trkpt lat="44.96578" lon="7.41532">
        <ele>287</ele>
        <time>2019-04-17T20:25:31Z</time>
      </trkpt>
      <trkpt lat="44.96552" lon="7.41495">
        <ele>290</ele>
        <time>2019-04-17T20:26:31Z</time>
      </trkpt>
      <trkpt lat="44.96525" lon="7.41421">
        <ele>291</ele>
        <time>2019-04-17T20:27:31Z</time>
      </trkpt>
      <trkpt lat="44.96477" lon="7.41309">
        <ele>289</ele>
        <time>2019-04-17T20:28:31Z</time>
      </trkpt>
      <trkpt lat="44.96404" lon="7.41123">
        <ele>287</ele>
        <time>2019-04-17T20:29:31Z</time>
      </trkpt>
      <trkpt lat="44.96366" lon="7.41035">
        <ele>289</ele>
        <time>2019-04-17T20:30:31Z</time>
      </trkpt>
      <trkpt lat="44.96352" lon="7.40998">
        <ele>290</ele>
        <time>2019-04-17T20:31:31Z</time>
      </trkpt>
      <trkpt lat="44.96341" lon="7.40941">
        <ele>290</ele>
        <time>2019-04-17T20:32:31Z</time>
      </trkpt>
      <trkpt lat="44.9634" lon="7.40904">
        <ele>290</ele>
        <time>2019-04-17T20:33:31Z</time>
      </trkpt>
      <trkpt lat="44.96293" lon="7.40913">
        <ele>290</ele>
        <time>2019-04-17T20:34:31Z</time>
      </trkpt>
      <trkpt lat="44.96166" lon="7.40753">
        <ele>294</ele>
        <time>2019-04-17T20:35:31Z</time>
      </trkpt>
      <trkpt lat="44.96154" lon="7.40725">
        <ele>293</ele>
        <time>2019-04-17T20:36:31Z</time>
      </trkpt>
      <trkpt lat="44.96117" lon="7.40617">
        <ele>291</ele>
        <time>2019-04-17T20:37:31Z</time>
      </trkpt>
      <trkpt lat="44.9609" lon="7.40568">
        <ele>291</ele>
        <time>2019-04-17T20:38:31Z</time>
      </trkpt>
      <trkpt lat="44.96055" lon="7.40521">
        <ele>291</ele>
        <time>2019-04-17T20:39:31Z</time>
      </trkpt>
      <trkpt lat="44.95995" lon="7.40432">
        <ele>293</ele>
        <time>2019-04-17T20:40:31Z</time>
      </trkpt>
      <trkpt lat="44.95969" lon="7.40399">
        <ele>293</ele>
        <time>2019-04-17T20:41:31Z</time>
      </trkpt>
      <trkpt lat="44.95939" lon="7.40382">
        <ele>293</ele>
        <time>2019-04-17T20:42:31Z</time>
      </trkpt>
      <trkpt lat="44.95912" lon="7.40323">
        <ele>292</ele>
        <time>2019-04-17T20:43:31Z</time>
      </trkpt>
      <trkpt lat="44.95833" lon="7.40191">
        <ele>292</ele>
        <time>2019-04-17T20:44:31Z</time>
      </trkpt>
      <trkpt lat="44.95814" lon="7.40153">
        <ele>292</ele>
        <time>2019-04-17T20:45:31Z</time>
      </trkpt>
      <trkpt lat="44.95772" lon="7.40091">
        <ele>291</ele>
        <time>2019-04-17T20:46:31Z</time>
      </trkpt>
      <trkpt lat="44.95748" lon="7.40063">
        <ele>290</ele>
        <time>2019-04-17T20:47:31Z</time>
      </trkpt>
      <trkpt lat="44.95663" lon="7.39985">
        <ele>294</ele>
        <time>2019-04-17T20:48:31Z</time>
      </trkpt>
      <trkpt lat="44.95617" lon="7.39902">
        <ele>295</ele>
        <time>2019-04-17T20:49:31Z</time>
      </trkpt>
      <trkpt lat="44.95574" lon="7.39828">
        <ele>296</ele>
        <time>2019-04-17T20:50:31Z</time>
      </trkpt>
      <trkpt lat="44.95546" lon="7.39792">
        <ele>296</ele>
        <time>2019-04-17T20:51:31Z</time>
      </trkpt>
      <trkpt lat="44.95447" lon="7.3969">
        <ele>297</ele>
        <time>2019-04-17T20:52:31Z</time>
      </trkpt>
      <trkpt lat="44.95405" lon="7.39628">
        <ele>297</ele>
        <time>2019-04-17T20:53:31Z</time>
      </trkpt>
      <trkpt lat="44.95357" lon="7.39527">
        <ele>297</ele>
        <time>2019-04-17T20:54:31Z</time>
      </trkpt>
      <trkpt lat="44.95338" lon="7.39502">
        <ele>297</ele>
        <time>2019-04-17T20:55:31Z</time>
      </trkpt>
      <trkpt lat="44.95322" lon="7.39434">
        <ele>298</ele>
        <time>2019-04-17T20:56:31Z</time>
      </trkpt>
      <trkpt lat="44.9532" lon="7.39383">
        <ele>299</ele>
        <time>2019-04-17T20:57:31Z</time>
      </trkpt>
      <trkpt lat="44.95315" lon="7.39339">
        <ele>300</ele>
        <time>2019-04-17T20:58:31Z</time>
      </trkpt>
      <trkpt lat="44.95317" lon="7.39278">
        <ele>301</ele>
        <time>2019-04-17T20:59:31Z</time>
      </trkpt>
      <trkpt lat="44.95312" lon="7.39233">
        <ele>302</ele>
        <time>2019-04-17T21:00:31Z</time>
      </trkpt>
      <trkpt lat="44.95294" lon="7.39177">
        <ele>303</ele>
        <time>2019-04-17T21:01:31Z</time>
      </trkpt>
      <trkpt lat="44.95242" lon="7.3911">
        <ele>303</ele>
        <time>2019-04-17T21:02:31Z</time>
      </trkpt>
      <trkpt lat="44.95241" lon="7.39056">
        <ele>303</ele>
        <time>2019-04-17T21:03:31Z</time>
      </trkpt>
      <trkpt lat="44.95225" lon="7.39025">
        <ele>303</ele>
        <time>2019-04-17T21:04:31Z</time>
      </trkpt>
      <trkpt lat="44.95183" lon="7.38992">
        <ele>305</ele>
        <time>2019-04-17T21:05:31Z</time>
      </trkpt>
      <trkpt lat="44.95133" lon="7.38924">
        <ele>304</ele>
        <time>2019-04-17T21:06:31Z</time>
      </trkpt>
      <trkpt lat="44.95059" lon="7.38787">
        <ele>305</ele>
        <time>2019-04-17T21:07:31Z</time>
      </trkpt>
      <trkpt lat="44.95056" lon="7.38775">
        <ele>305</ele>
        <time>2019-04-17T21:08:31Z</time>
      </trkpt>
      <trkpt lat="44.95052" lon="7.38741">
        <ele>306</ele>
        <time>2019-04-17T21:09:31Z</time>
      </trkpt>
      <trkpt lat="44.94989" lon="7.38665">
        <ele>311</ele>
        <time>2019-04-17T21:10:31Z</time>
      </trkpt>
      <trkpt lat="44.94948" lon="7.38604">
        <ele>312</ele>
        <time>2019-04-17T21:11:31Z</time>
      </trkpt>
      <trkpt lat="44.94938" lon="7.3858">
        <ele>313</ele>
        <time>2019-04-17T21:12:31Z</time>
      </trkpt>
      <trkpt lat="44.94916" lon="7.38593">
        <ele>312</ele>
        <time>2019-04-17T21:13:31Z</time>
      </trkpt>
      <trkpt lat="44.94891" lon="7.3856">
        <ele>311</ele>
        <time>2019-04-17T21:14:31Z</time>
      </trkpt>
      <trkpt lat="44.94847" lon="7.38479">
        <ele>312</ele>
        <time>2019-04-17T21:15:31Z</time>
      </trkpt>
      <trkpt lat="44.94781" lon="7.3843">
        <ele>311</ele>
        <time>2019-04-17T21:16:31Z</time>
      </trkpt>
      <trkpt lat="44.94709" lon="7.38393">
        <ele>310</ele>
        <time>2019-04-17T21:17:31Z</time>
      </trkpt>
      <trkpt lat="44.94649" lon="7.38357">
        <ele>310</ele>
        <time>2019-04-17T21:18:31Z</time>
      </trkpt>
      <trkpt lat="44.94589" lon="7.38305">
        <ele>311</ele>
        <time>2019-04-17T21:19:31Z</time>
      </trkpt>
      <trkpt lat="44.94543" lon="7.3826">
        <ele>312</ele>
        <time>2019-04-17T21:20:31Z</time>
      </trkpt>
      <trkpt lat="44.94514" lon="7.38215">
        <ele>312</ele>
        <time>2019-04-17T21:21:31Z</time>
      </trkpt>
      <trkpt lat="44.94481" lon="7.38137">
        <ele>313</ele>
        <time>2019-04-17T21:22:31Z</time>
      </trkpt>
      <trkpt lat="44.9445" lon="7.38077">
        <ele>313</ele>
        <time>2019-04-17T21:23:31Z</time>
      </trkpt>
      <trkpt lat="44.94414" lon="7.3802">
        <ele>313</ele>
        <time>2019-04-17T21:24:31Z</time>
      </trkpt>
      <trkpt lat="44.944" lon="7.38014">
        <ele>313</ele>
        <time>2019-04-17T21:25:31Z</time>
      </trkpt>
      <trkpt lat="44.94357" lon="7.38">
        <ele>311</ele>
        <time>2019-04-17T21:26:31Z</time>
      </trkpt>
      <trkpt lat="44.94156" lon="7.37578">
        <ele>311</ele>
        <time>2019-04-17T21:27:31Z</time>
      </trkpt>
      <trkpt lat="44.94113" lon="7.37511">
        <ele>313</ele>
        <time>2019-04-17T21:28:31Z</time>
      </trkpt>
      <trkpt lat="44.94109" lon="7.37497">
        <ele>313</ele>
        <time>2019-04-17T21:29:31Z</time>
      </trkpt>
      <trkpt lat="44.94108" lon="7.37489">
        <ele>313</ele>
        <time>2019-04-17T21:30:31Z</time>
      </trkpt>
      <trkpt lat="44.94131" lon="7.37437">
        <ele>315</ele>
        <time>2019-04-17T21:31:31Z</time>
      </trkpt>
      <trkpt lat="44.94129" lon="7.37426">
        <ele>315</ele>
        <time>2019-04-17T21:32:31Z</time>
      </trkpt>
      <trkpt lat="44.941" lon="7.37394">
        <ele>318</ele>
        <time>2019-04-17T21:33:31Z</time>
      </trkpt>
      <trkpt lat="44.94073" lon="7.37371">
        <ele>319</ele>
        <time>2019-04-17T21:34:31Z</time>
      </trkpt>
      <trkpt lat="44.94051" lon="7.37381">
        <ele>318</ele>
        <time>2019-04-17T21:35:31Z</time>
      </trkpt>
      <trkpt lat="44.94025" lon="7.37312">
        <ele>320</ele>
        <time>2019-04-17T21:36:31Z</time>
      </trkpt>
      <trkpt lat="44.94003" lon="7.37286">
        <ele>318</ele>
        <time>2019-04-17T21:37:31Z</time>
      </trkpt>
      <trkpt lat="44.93978" lon="7.37185">
        <ele>322</ele>
        <time>2019-04-17T21:38:31Z</time>
      </trkpt>
      <trkpt lat="44.93922" lon="7.37109">
        <ele>326</ele>
        <time>2019-04-17T21:39:31Z</time>
      </trkpt>
      <trkpt lat="44.93874" lon="7.37005">
        <ele>326</ele>
        <time>2019-04-17T21:40:31Z</time>
      </trkpt>
      <trkpt lat="44.93839" lon="7.36916">
        <ele>326</ele>
        <time>2019-04-17T21:41:31Z</time>
      </trkpt>
      <trkpt lat="44.93825" lon="7.36819">
        <ele>331</ele>
        <time>2019-04-17T21:42:31Z</time>
      </trkpt>
      <trkpt lat="44.93802" lon="7.36754">
        <ele>332</ele>
        <time>2019-04-17T21:43:31Z</time>
      </trkpt>
      <trkpt lat="44.93817" lon="7.36659">
        <ele>336</ele>
        <time>2019-04-17T21:44:31Z</time>
      </trkpt>
      <trkpt lat="44.93812" lon="7.36567">
        <ele>337</ele>
        <time>2019-04-17T21:45:31Z</time>
      </trkpt>
      <trkpt lat="44.93769" lon="7.36489">
        <ele>335</ele>
        <time>2019-04-17T21:46:31Z</time>
      </trkpt>
      <trkpt lat="44.93724" lon="7.36465">
        <ele>332</ele>
        <time>2019-04-17T21:47:31Z</time>
      </trkpt>
      <trkpt lat="44.9369" lon="7.36507">
        <ele>329</ele>
        <time>2019-04-17T21:48:31Z</time>
      </trkpt>
      <trkpt lat="44.93652" lon="7.36542">
        <ele>328</ele>
        <time>2019-04-17T21:49:31Z</time>
      </trkpt>
      <trkpt lat="44.9354" lon="7.36573">
        <ele>329</ele>
        <time>2019-04-17T21:50:31Z</time>
      </trkpt>
      <trkpt lat="44.93526" lon="7.36548">
        <ele>330</ele>
        <time>2019-04-17T21:51:31Z</time>
      </trkpt>
      <trkpt lat="44.93515" lon="7.36536">
        <ele>331</ele>
        <time>2019-04-17T21:52:31Z</time>
      </trkpt>
      <trkpt lat="44.93504" lon="7.36533">
        <ele>331</ele>
        <time>2019-04-17T21:53:31Z</time>
      </trkpt>
      <trkpt lat="44.93447" lon="7.36529">
        <ele>333</ele>
        <time>2019-04-17T21:54:31Z</time>
      </trkpt>
      <trkpt lat="44.93441" lon="7.36547">
        <ele>333</ele>
        <time>2019-04-17T21:55:31Z</time>
      </trkpt>
      <trkpt lat="44.93396" lon="7.36527">
        <ele>334</ele>
        <time>2019-04-17T21:56:31Z</time>
      </trkpt>
      <trkpt lat="44.93338" lon="7.36523">
        <ele>334</ele>
        <time>2019-04-17T21:57:31Z</time>
      </trkpt>
      <trkpt lat="44.93282" lon="7.36511">
        <ele>333</ele>
        <time>2019-04-17T21:58:31Z</time>
      </trkpt>
      <trkpt lat="44.93211" lon="7.36479">
        <ele>332</ele>
        <time>2019-04-17T21:59:31Z</time>
      </trkpt>
      <trkpt lat="44.93179" lon="7.36471">
        <ele>331</ele>
        <time>2019-04-17T22:00:31Z</time>
      </trkpt>
      <trkpt lat="44.93113" lon="7.36484">
        <ele>330</ele>
        <time>2019-04-17T22:01:31Z</time>
      </trkpt>
      <trkpt lat="44.93071" lon="7.36477">
        <ele>329</ele>
        <time>2019-04-17T22:02:31Z</time>
      </trkpt>
      <trkpt lat="44.92981" lon="7.36407">
        <ele>331</ele>
        <time>2019-04-17T22:03:31Z</time>
      </trkpt>
      <trkpt lat="44.92926" lon="7.36355">
        <ele>332</ele>
        <time>2019-04-17T22:04:31Z</time>
      </trkpt>
      <trkpt lat="44.92858" lon="7.36328">
        <ele>332</ele>
        <time>2019-04-17T22:05:31Z</time>
      </trkpt>
      <trkpt lat="44.92807" lon="7.3633">
        <ele>332</ele>
        <time>2019-04-17T22:06:31Z</time>
      </trkpt>
      <trkpt lat="44.9266" lon="7.36284">
        <ele>330</ele>
        <time>2019-04-17T22:07:31Z</time>
      </trkpt>
      <trkpt lat="44.92576" lon="7.36264">
        <ele>330</ele>
        <time>2019-04-17T22:08:31Z</time>
      </trkpt>
      <trkpt lat="44.92494" lon="7.36255">
        <ele>329</ele>
        <time>2019-04-17T22:09:31Z</time>
      </trkpt>
      <trkpt lat="44.92333" lon="7.36185">
        <ele>330</ele>
        <time>2019-04-17T22:10:31Z</time>
      </trkpt>
      <trkpt lat="44.92232" lon="7.36137">
        <ele>330</ele>
        <time>2019-04-17T22:11:31Z</time>
      </trkpt>
      <trkpt lat="44.92048" lon="7.36027">
        <ele>327</ele>
        <time>2019-04-17T22:12:31Z</time>
      </trkpt>
      <trkpt lat="44.9192" lon="7.35967">
        <ele>329</ele>
        <time>2019-04-17T22:13:31Z</time>
      </trkpt>
      <trkpt lat="44.91908" lon="7.35956">
        <ele>330</ele>
        <time>2019-04-17T22:14:31Z</time>
      </trkpt>
      <trkpt lat="44.91889" lon="7.35946">
        <ele>331</ele>
        <time>2019-04-17T22:15:31Z</time>
      </trkpt>
      <trkpt lat="44.91852" lon="7.35939">
        <ele>332</ele>
        <time>2019-04-17T22:16:31Z</time>
      </trkpt>
      <trkpt lat="44.91685" lon="7.35914">
        <ele>332</ele>
        <time>2019-04-17T22:17:31Z</time>
      </trkpt>
      <trkpt lat="44.91624" lon="7.35901">
        <ele>331</ele>
        <time>2019-04-17T22:18:31Z</time>
      </trkpt>
      <trkpt lat="44.91601" lon="7.35888">
        <ele>331</ele>
        <time>2019-04-17T22:19:31Z</time>
      </trkpt>
      <trkpt lat="44.91537" lon="7.35833">
        <ele>328</ele>
        <time>2019-04-17T22:20:31Z</time>
      </trkpt>
      <trkpt lat="44.91504" lon="7.35818">
        <ele>326</ele>
        <time>2019-04-17T22:21:31Z</time>
      </trkpt>
      <trkpt lat="44.91476" lon="7.3581">
        <ele>327</ele>
        <time>2019-04-17T22:22:31Z</time>
      </trkpt>
      <trkpt lat="44.91465" lon="7.35794">
        <ele>327</ele>
        <time>2019-04-17T22:23:31Z</time>
      </trkpt>
      <trkpt lat="44.91467" lon="7.35773">
        <ele>327</ele>
        <time>2019-04-17T22:24:31Z</time>
      </trkpt>
      <trkpt lat="44.91473" lon="7.35749">
        <ele>327</ele>
        <time>2019-04-17T22:25:31Z</time>
      </trkpt>
      <trkpt lat="44.91471" lon="7.35719">
        <ele>327</ele>
        <time>2019-04-17T22:26:31Z</time>
      </trkpt>
      <trkpt lat="44.91461" lon="7.35687">
        <ele>328</ele>
        <time>2019-04-17T22:27:31Z</time>
      </trkpt>
      <trkpt lat="44.91449" lon="7.35675">
        <ele>328</ele>
        <time>2019-04-17T22:28:31Z</time>
      </trkpt>
      <trkpt lat="44.91437" lon="7.35671">
        <ele>328</ele>
        <time>2019-04-17T22:29:31Z</time>
      </trkpt>
      <trkpt lat="44.91359" lon="7.35676">
        <ele>328</ele>
        <time>2019-04-17T22:30:31Z</time>
      </trkpt>
      <trkpt lat="44.91325" lon="7.35769">
        <ele>328</ele>
        <time>2019-04-17T22:31:31Z</time>
      </trkpt>
      <trkpt lat="44.91264" lon="7.35738">
        <ele>329</ele>
        <time>2019-04-17T22:32:31Z</time>
      </trkpt>
      <trkpt lat="44.91202" lon="7.35717">
        <ele>329</ele>
        <time>2019-04-17T22:33:31Z</time>
      </trkpt>
      <trkpt lat="44.91125" lon="7.35705">
        <ele>329</ele>
        <time>2019-04-17T22:34:31Z</time>
      </trkpt>
      <trkpt lat="44.91066" lon="7.35699">
        <ele>329</ele>
        <time>2019-04-17T22:35:31Z</time>
      </trkpt>
      <trkpt lat="44.91006" lon="7.35677">
        <ele>332</ele>
        <time>2019-04-17T22:36:31Z</time>
      </trkpt>
      <trkpt lat="44.90935" lon="7.35671">
        <ele>331</ele>
        <time>2019-04-17T22:37:31Z</time>
      </trkpt>
      <trkpt lat="44.90912" lon="7.3566">
        <ele>331</ele>
        <time>2019-04-17T22:38:31Z</time>
      </trkpt>
      <trkpt lat="44.90802" lon="7.3566">
        <ele>333</ele>
        <time>2019-04-17T22:39:31Z</time>
      </trkpt>
      <trkpt lat="44.90768" lon="7.35654">
        <ele>333</ele>
        <time>2019-04-17T22:40:31Z</time>
      </trkpt>
      <trkpt lat="44.90708" lon="7.35632">
        <ele>335</ele>
        <time>2019-04-17T22:41:31Z</time>
      </trkpt>
      <trkpt lat="44.90596" lon="7.35589">
        <ele>337</ele>
        <time>2019-04-17T22:42:31Z</time>
      </trkpt>
      <trkpt lat="44.90474" lon="7.3557">
        <ele>337</ele>
        <time>2019-04-17T22:43:31Z</time>
      </trkpt>
      <trkpt lat="44.90423" lon="7.35552">
        <ele>339</ele>
        <time>2019-04-17T22:44:31Z</time>
      </trkpt>
      <trkpt lat="44.90347" lon="7.35559">
        <ele>341</ele>
        <time>2019-04-17T22:45:31Z</time>
      </trkpt>
      <trkpt lat="44.90285" lon="7.35574">
        <ele>341</ele>
        <time>2019-04-17T22:46:31Z</time>
      </trkpt>
      <trkpt lat="44.90236" lon="7.35592">
        <ele>341</ele>
        <time>2019-04-17T22:47:31Z</time>
      </trkpt>
      <trkpt lat="44.90108" lon="7.35609">
        <ele>342</ele>
        <time>2019-04-17T22:48:31Z</time>
      </trkpt>
      <trkpt lat="44.90038" lon="7.35638">
        <ele>345</ele>
        <time>2019-04-17T22:49:31Z</time>
      </trkpt>
      <trkpt lat="44.8991" lon="7.35736">
        <ele>349</ele>
        <time>2019-04-17T22:50:31Z</time>
      </trkpt>
      <trkpt lat="44.89484" lon="7.3557">
        <ele>347</ele>
        <time>2019-04-17T22:51:31Z</time>
      </trkpt>
      <trkpt lat="44.89458" lon="7.35554">
        <ele>347</ele>
        <time>2019-04-17T22:52:31Z</time>
      </trkpt>
      <trkpt lat="44.89434" lon="7.35535">
        <ele>346</ele>
        <time>2019-04-17T22:53:31Z</time>
      </trkpt>
      <trkpt lat="44.89425" lon="7.35525">
        <ele>346</ele>
        <time>2019-04-17T22:54:31Z</time>
      </trkpt>
      <trkpt lat="44.89417" lon="7.35515">
        <ele>346</ele>
        <time>2019-04-17T22:55:31Z</time>
      </trkpt>
      <trkpt lat="44.89403" lon="7.35493">
        <ele>346</ele>
        <time>2019-04-17T22:56:31Z</time>
      </trkpt>
      <trkpt lat="44.89378" lon="7.3542">
        <ele>348</ele>
        <time>2019-04-17T22:57:31Z</time>
      </trkpt>
      <trkpt lat="44.89384" lon="7.35418">
        <ele>348</ele>
        <time>2019-04-17T22:58:31Z</time>
      </trkpt>
      <trkpt lat="44.89387" lon="7.35411">
        <ele>348</ele>
        <time>2019-04-17T22:59:31Z</time>
      </trkpt>
      <trkpt lat="44.89386" lon="7.35402">
        <ele>348</ele>
        <time>2019-04-17T23:00:31Z</time>
      </trkpt>
      <trkpt lat="44.89382" lon="7.35397">
        <ele>348</ele>
        <time>2019-04-17T23:01:31Z</time>
      </trkpt>
      <trkpt lat="44.89375" lon="7.35396">
        <ele>348</ele>
        <time>2019-04-17T23:02:31Z</time>
      </trkpt>
      <trkpt lat="44.89365" lon="7.35389">
        <ele>348</ele>
        <time>2019-04-17T23:03:31Z</time>
      </trkpt>
      <trkpt lat="44.89352" lon="7.35273">
        <ele>351</ele>
        <time>2019-04-17T23:04:31Z</time>
      </trkpt>
      <trkpt lat="44.89343" lon="7.35235">
        <ele>352</ele>
        <time>2019-04-17T23:05:31Z</time>
      </trkpt>
      <trkpt lat="44.89306" lon="7.35097">
        <ele>353</ele>
        <time>2019-04-17T23:06:31Z</time>
      </trkpt>
      <trkpt lat="44.89299" lon="7.35064">
        <ele>353</ele>
        <time>2019-04-17T23:07:31Z</time>
      </trkpt>
      <trkpt lat="44.89298" lon="7.35026">
        <ele>353</ele>
        <time>2019-04-17T23:08:31Z</time>
      </trkpt>
      <trkpt lat="44.89299" lon="7.35016">
        <ele>353</ele>
        <time>2019-04-17T23:09:31Z</time>
      </trkpt>
      <trkpt lat="44.89302" lon="7.35007">
        <ele>353</ele>
        <time>2019-04-17T23:10:31Z</time>
      </trkpt>
      <trkpt lat="44.89303" lon="7.35">
        <ele>353</ele>
        <time>2019-04-17T23:11:31Z</time>
      </trkpt>
      <trkpt lat="44.89301" lon="7.34989">
        <ele>353</ele>
        <time>2019-04-17T23:12:31Z</time>
      </trkpt>
      <trkpt lat="44.89294" lon="7.34979">
        <ele>353</ele>
        <time>2019-04-17T23:13:31Z</time>
      </trkpt>
      <trkpt lat="44.89288" lon="7.34966">
        <ele>354</ele>
        <time>2019-04-17T23:14:31Z</time>
      </trkpt>
      <trkpt lat="44.89283" lon="7.34922">
        <ele>354</ele>
        <time>2019-04-17T23:15:31Z</time>
      </trkpt>
      <trkpt lat="44.89282" lon="7.34862">
        <ele>355</ele>
        <time>2019-04-17T23:16:31Z</time>
      </trkpt>
      <trkpt lat="44.8928" lon="7.34843">
        <ele>356</ele>
        <time>2019-04-17T23:17:31Z</time>
      </trkpt>
      <trkpt lat="44.89259" lon="7.34721">
        <ele>355</ele>
        <time>2019-04-17T23:18:31Z</time>
      </trkpt>
      <trkpt lat="44.89253" lon="7.34699">
        <ele>355</ele>
        <time>2019-04-17T23:19:31Z</time>
      </trkpt>
      <trkpt lat="44.89222" lon="7.34613">
        <ele>357</ele>
        <time>2019-04-17T23:20:31Z</time>
      </trkpt>
      <trkpt lat="44.89196" lon="7.34545">
        <ele>358</ele>
        <time>2019-04-17T23:21:31Z</time>
      </trkpt>
      <trkpt lat="44.89173" lon="7.34497">
        <ele>359</ele>
        <time>2019-04-17T23:22:31Z</time>
      </trkpt>
      <trkpt lat="44.89162" lon="7.34452">
        <ele>361</ele>
        <time>2019-04-17T23:23:31Z</time>
      </trkpt>
      <trkpt lat="44.89151" lon="7.34394">
        <ele>362</ele>
        <time>2019-04-17T23:24:31Z</time>
      </trkpt>
      <trkpt lat="44.89129" lon="7.3429">
        <ele>363</ele>
        <time>2019-04-17T23:25:31Z</time>
      </trkpt>
      <trkpt lat="44.89112" lon="7.34261">
        <ele>363</ele>
        <time>2019-04-17T23:26:31Z</time>
      </trkpt>
      <trkpt lat="44.89099" lon="7.34247">
        <ele>363</ele>
        <time>2019-04-17T23:27:31Z</time>
      </trkpt>
      <trkpt lat="44.89065" lon="7.34217">
        <ele>364</ele>
        <time>2019-04-17T23:28:31Z</time>
      </trkpt>
      <trkpt lat="44.89056" lon="7.34203">
        <ele>365</ele>
        <time>2019-04-17T23:29:31Z</time>
      </trkpt>
      <trkpt lat="44.89016" lon="7.34098">
        <ele>365</ele>
        <time>2019-04-17T23:30:31Z</time>
      </trkpt>
      <trkpt lat="44.88985" lon="7.34025">
        <ele>365</ele>
        <time>2019-04-17T23:31:31Z</time>
      </trkpt>
      <trkpt lat="44.88962" lon="7.33981">
        <ele>365</ele>
        <time>2019-04-17T23:32:31Z</time>
      </trkpt>
      <trkpt lat="44.88908" lon="7.33895">
        <ele>366</ele>
        <time>2019-04-17T23:33:31Z</time>
      </trkpt>
      <trkpt lat="44.88892" lon="7.33865">
        <ele>367</ele>
        <time>2019-04-17T23:34:31Z</time>
      </trkpt>
      <trkpt lat="44.88877" lon="7.33828">
        <ele>368</ele>
        <time>2019-04-17T23:35:31Z</time>
      </trkpt>
      <trkpt lat="44.88823" lon="7.33646">
        <ele>371</ele>
        <time>2019-04-17T23:36:31Z</time>
      </trkpt>
      <trkpt lat="44.88778" lon="7.3367">
        <ele>371</ele>
        <time>2019-04-17T23:37:31Z</time>
      </trkpt>
    </trkseg>
  </trk>
  <trk>
    <name><![CDATA[J12bis]]></name>
    <trkseg>
      <trkpt lat="44.88574" lon="7.3291">
        <ele>385</ele>
        <time>2019-04-17T17:42:40Z</time>
      </trkpt>
      <trkpt lat="44.8855" lon="7.32918">
        <ele>384</ele>
        <time>2019-04-17T17:43:40Z</time>
      </trkpt>
      <trkpt lat="44.88547" lon="7.32891">
        <ele>385</ele>
        <time>2019-04-17T17:44:40Z</time>
      </trkpt>
      <trkpt lat="44.88536" lon="7.32844">
        <ele>385</ele>
        <time>2019-04-17T17:45:40Z</time>
      </trkpt>
      <trkpt lat="44.88527" lon="7.32785">
        <ele>387</ele>
        <time>2019-04-17T17:46:40Z</time>
      </trkpt>
      <trkpt lat="44.88525" lon="7.32759">
        <ele>387</ele>
        <time>2019-04-17T17:47:40Z</time>
      </trkpt>
      <trkpt lat="44.88526" lon="7.32721">
        <ele>387</ele>
        <time>2019-04-17T17:48:40Z</time>
      </trkpt>
      <trkpt lat="44.88528" lon="7.32695">
        <ele>387</ele>
        <time>2019-04-17T17:49:40Z</time>
      </trkpt>
      <trkpt lat="44.88538" lon="7.32636">
        <ele>387</ele>
        <time>2019-04-17T17:50:40Z</time>
      </trkpt>
      <trkpt lat="44.88542" lon="7.32634">
        <ele>387</ele>
        <time>2019-04-17T17:51:40Z</time>
      </trkpt>
      <trkpt lat="44.88544" lon="7.32627">
        <ele>387</ele>
        <time>2019-04-17T17:52:40Z</time>
      </trkpt>
      <trkpt lat="44.88541" lon="7.32623">
        <ele>386</ele>
        <time>2019-04-17T17:53:40Z</time>
      </trkpt>
      <trkpt lat="44.88538" lon="7.32623">
        <ele>386</ele>
        <time>2019-04-17T17:54:40Z</time>
      </trkpt>
      <trkpt lat="44.88535" lon="7.32627">
        <ele>386</ele>
        <time>2019-04-17T17:55:40Z</time>
      </trkpt>
      <trkpt lat="44.88512" lon="7.32621">
        <ele>384</ele>
        <time>2019-04-17T17:56:40Z</time>
      </trkpt>
      <trkpt lat="44.88538" lon="7.32433">
        <ele>384</ele>
        <time>2019-04-17T17:57:40Z</time>
      </trkpt>
      <trkpt lat="44.8854" lon="7.32406">
        <ele>384</ele>
        <time>2019-04-17T17:58:40Z</time>
      </trkpt>
      <trkpt lat="44.8856" lon="7.3171">
        <ele>386</ele>
        <time>2019-04-17T17:59:40Z</time>
      </trkpt>
      <trkpt lat="44.88565" lon="7.31394">
        <ele>389</ele>
        <time>2019-04-17T18:00:40Z</time>
      </trkpt>
      <trkpt lat="44.88571" lon="7.31228">
        <ele>390</ele>
        <time>2019-04-17T18:01:40Z</time>
      </trkpt>
      <trkpt lat="44.88576" lon="7.31202">
        <ele>391</ele>
        <time>2019-04-17T18:02:40Z</time>
      </trkpt>
      <trkpt lat="44.8858" lon="7.31198">
        <ele>391</ele>
        <time>2019-04-17T18:03:40Z</time>
      </trkpt>
      <trkpt lat="44.88583" lon="7.31188">
        <ele>391</ele>
        <time>2019-04-17T18:04:40Z</time>
      </trkpt>
      <trkpt lat="44.88581" lon="7.31177">
        <ele>392</ele>
        <time>2019-04-17T18:05:40Z</time>
      </trkpt>
      <trkpt lat="44.88575" lon="7.3117">
        <ele>392</ele>
        <time>2019-04-17T18:06:40Z</time>
      </trkpt>
      <trkpt lat="44.88605" lon="7.30747">
        <ele>399</ele>
        <time>2019-04-17T18:07:40Z</time>
      </trkpt>
      <trkpt lat="44.88615" lon="7.30686">
        <ele>399</ele>
        <time>2019-04-17T18:08:40Z</time>
      </trkpt>
      <trkpt lat="44.88613" lon="7.3064">
        <ele>398</ele>
        <time>2019-04-17T18:09:40Z</time>
      </trkpt>
      <trkpt lat="44.88599" lon="7.30534">
        <ele>398</ele>
        <time>2019-04-17T18:10:40Z</time>
      </trkpt>
      <trkpt lat="44.88593" lon="7.30506">
        <ele>397</ele>
        <time>2019-04-17T18:11:40Z</time>
      </trkpt>
      <trkpt lat="44.88572" lon="7.30454">
        <ele>399</ele>
        <time>2019-04-17T18:12:40Z</time>
      </trkpt>
      <trkpt lat="44.88546" lon="7.30395">
        <ele>399</ele>
        <time>2019-04-17T18:13:40Z</time>
      </trkpt>
      <trkpt lat="44.88543" lon="7.30379">
        <ele>399</ele>
        <time>2019-04-17T18:14:40Z</time>
      </trkpt>
      <trkpt lat="44.88542" lon="7.30363">
        <ele>399</ele>
        <time>2019-04-17T18:15:40Z</time>
      </trkpt>
      <trkpt lat="44.88551" lon="7.3026">
        <ele>401</ele>
        <time>2019-04-17T18:16:40Z</time>
      </trkpt>
      <trkpt lat="44.88556" lon="7.30092">
        <ele>404</ele>
        <time>2019-04-17T18:17:40Z</time>
      </trkpt>
      <trkpt lat="44.88557" lon="7.30011">
        <ele>405</ele>
        <time>2019-04-17T18:18:40Z</time>
      </trkpt>
      <trkpt lat="44.88573" lon="7.29823">
        <ele>409</ele>
        <time>2019-04-17T18:19:40Z</time>
      </trkpt>
      <trkpt lat="44.88568" lon="7.29716">
        <ele>408</ele>
        <time>2019-04-17T18:20:40Z</time>
      </trkpt>
      <trkpt lat="44.88566" lon="7.29584">
        <ele>406</ele>
        <time>2019-04-17T18:21:40Z</time>
      </trkpt>
      <trkpt lat="44.88561" lon="7.29462">
        <ele>407</ele>
        <time>2019-04-17T18:22:40Z</time>
      </trkpt>
      <trkpt lat="44.88554" lon="7.29412">
        <ele>408</ele>
        <time>2019-04-17T18:23:40Z</time>
      </trkpt>
      <trkpt lat="44.88529" lon="7.29284">
        <ele>407</ele>
        <time>2019-04-17T18:24:40Z</time>
      </trkpt>
      <trkpt lat="44.88525" lon="7.29245">
        <ele>407</ele>
        <time>2019-04-17T18:25:40Z</time>
      </trkpt>
      <trkpt lat="44.88524" lon="7.29209">
        <ele>407</ele>
        <time>2019-04-17T18:26:40Z</time>
      </trkpt>
      <trkpt lat="44.88547" lon="7.28825">
        <ele>410</ele>
        <time>2019-04-17T18:27:40Z</time>
      </trkpt>
      <trkpt lat="44.88547" lon="7.28797">
        <ele>411</ele>
        <time>2019-04-17T18:28:40Z</time>
      </trkpt>
      <trkpt lat="44.88545" lon="7.28774">
        <ele>411</ele>
        <time>2019-04-17T18:29:40Z</time>
      </trkpt>
      <trkpt lat="44.88534" lon="7.28684">
        <ele>409</ele>
        <time>2019-04-17T18:30:40Z</time>
      </trkpt>
      <trkpt lat="44.88529" lon="7.28629">
        <ele>408</ele>
        <time>2019-04-17T18:31:40Z</time>
      </trkpt>
      <trkpt lat="44.8853" lon="7.28545">
        <ele>406</ele>
        <time>2019-04-17T18:32:40Z</time>
      </trkpt>
      <trkpt lat="44.88547" lon="7.28268">
        <ele>412</ele>
        <time>2019-04-17T18:33:40Z</time>
      </trkpt>
      <trkpt lat="44.88549" lon="7.28251">
        <ele>412</ele>
        <time>2019-04-17T18:34:40Z</time>
      </trkpt>
      <trkpt lat="44.88556" lon="7.28217">
        <ele>412</ele>
        <time>2019-04-17T18:35:40Z</time>
      </trkpt>
      <trkpt lat="44.88594" lon="7.28069">
        <ele>412</ele>
        <time>2019-04-17T18:36:40Z</time>
      </trkpt>
      <trkpt lat="44.88608" lon="7.28002">
        <ele>414</ele>
        <time>2019-04-17T18:37:40Z</time>
      </trkpt>
      <trkpt lat="44.88656" lon="7.27685">
        <ele>420</ele>
        <time>2019-04-17T18:38:40Z</time>
      </trkpt>
      <trkpt lat="44.88683" lon="7.275">
        <ele>423</ele>
        <time>2019-04-17T18:39:40Z</time>
      </trkpt>
      <trkpt lat="44.88684" lon="7.27477">
        <ele>424</ele>
        <time>2019-04-17T18:40:40Z</time>
      </trkpt>
      <trkpt lat="44.88682" lon="7.2744">
        <ele>424</ele>
        <time>2019-04-17T18:41:40Z</time>
      </trkpt>
      <trkpt lat="44.88659" lon="7.27202">
        <ele>426</ele>
        <time>2019-04-17T18:42:40Z</time>
      </trkpt>
      <trkpt lat="44.88659" lon="7.27165">
        <ele>425</ele>
        <time>2019-04-17T18:43:40Z</time>
      </trkpt>
      <trkpt lat="44.88673" lon="7.27052">
        <ele>428</ele>
        <time>2019-04-17T18:44:40Z</time>
      </trkpt>
      <trkpt lat="44.88706" lon="7.26765">
        <ele>433</ele>
        <time>2019-04-17T18:45:40Z</time>
      </trkpt>
      <trkpt lat="44.88713" lon="7.26714">
        <ele>432</ele>
        <time>2019-04-17T18:46:40Z</time>
      </trkpt>
      <trkpt lat="44.88717" lon="7.26697">
        <ele>432</ele>
        <time>2019-04-17T18:47:40Z</time>
      </trkpt>
      <trkpt lat="44.88804" lon="7.26452">
        <ele>438</ele>
        <time>2019-04-17T18:48:40Z</time>
      </trkpt>
      <trkpt lat="44.88857" lon="7.26353">
        <ele>442</ele>
        <time>2019-04-17T18:49:40Z</time>
      </trkpt>
      <trkpt lat="44.88949" lon="7.26154">
        <ele>445</ele>
        <time>2019-04-17T18:50:40Z</time>
      </trkpt>
      <trkpt lat="44.89053" lon="7.25922">
        <ele>444</ele>
        <time>2019-04-17T18:51:40Z</time>
      </trkpt>
      <trkpt lat="44.89061" lon="7.2589">
        <ele>444</ele>
        <time>2019-04-17T18:52:40Z</time>
      </trkpt>
      <trkpt lat="44.89096" lon="7.25628">
        <ele>451</ele>
        <time>2019-04-17T18:53:40Z</time>
      </trkpt>
      <trkpt lat="44.89109" lon="7.25525">
        <ele>456</ele>
        <time>2019-04-17T18:54:40Z</time>
      </trkpt>
      <trkpt lat="44.8911" lon="7.25492">
        <ele>456</ele>
        <time>2019-04-17T18:55:40Z</time>
      </trkpt>
      <trkpt lat="44.89101" lon="7.25291">
        <ele>457</ele>
        <time>2019-04-17T18:56:40Z</time>
      </trkpt>
      <trkpt lat="44.89096" lon="7.25231">
        <ele>457</ele>
        <time>2019-04-17T18:57:40Z</time>
      </trkpt>
      <trkpt lat="44.89082" lon="7.25092">
        <ele>454</ele>
        <time>2019-04-17T18:58:40Z</time>
      </trkpt>
      <trkpt lat="44.89061" lon="7.24915">
        <ele>450</ele>
        <time>2019-04-17T18:59:40Z</time>
      </trkpt>
      <trkpt lat="44.89056" lon="7.24865">
        <ele>450</ele>
        <time>2019-04-17T19:00:40Z</time>
      </trkpt>
      <trkpt lat="44.89057" lon="7.24824">
        <ele>450</ele>
        <time>2019-04-17T19:01:40Z</time>
      </trkpt>
      <trkpt lat="44.8906" lon="7.24785">
        <ele>451</ele>
        <time>2019-04-17T19:02:40Z</time>
      </trkpt>
      <trkpt lat="44.89064" lon="7.24762">
        <ele>451</ele>
        <time>2019-04-17T19:03:40Z</time>
      </trkpt>
      <trkpt lat="44.89072" lon="7.24734">
        <ele>451</ele>
        <time>2019-04-17T19:04:40Z</time>
      </trkpt>
      <trkpt lat="44.89093" lon="7.24677">
        <ele>453</ele>
        <time>2019-04-17T19:05:40Z</time>
      </trkpt>
      <trkpt lat="44.89125" lon="7.24607">
        <ele>453</ele>
        <time>2019-04-17T19:06:40Z</time>
      </trkpt>
      <trkpt lat="44.89147" lon="7.24565">
        <ele>453</ele>
        <time>2019-04-17T19:07:40Z</time>
      </trkpt>
      <trkpt lat="44.89154" lon="7.24553">
        <ele>453</ele>
        <time>2019-04-17T19:08:40Z</time>
      </trkpt>
      <trkpt lat="44.89191" lon="7.24512">
        <ele>458</ele>
        <time>2019-04-17T19:09:40Z</time>
      </trkpt>
      <trkpt lat="44.89205" lon="7.24489">
        <ele>459</ele>
        <time>2019-04-17T19:10:40Z</time>
      </trkpt>
      <trkpt lat="44.89215" lon="7.24487">
        <ele>459</ele>
        <time>2019-04-17T19:11:40Z</time>
      </trkpt>
      <trkpt lat="44.89223" lon="7.24479">
        <ele>459</ele>
        <time>2019-04-17T19:12:40Z</time>
      </trkpt>
      <trkpt lat="44.89229" lon="7.24465">
        <ele>459</ele>
        <time>2019-04-17T19:13:40Z</time>
      </trkpt>
      <trkpt lat="44.8923" lon="7.24456">
        <ele>458</ele>
        <time>2019-04-17T19:14:40Z</time>
      </trkpt>
      <trkpt lat="44.89242" lon="7.24439">
        <ele>457</ele>
        <time>2019-04-17T19:15:40Z</time>
      </trkpt>
      <trkpt lat="44.89271" lon="7.24422">
        <ele>458</ele>
        <time>2019-04-17T19:16:40Z</time>
      </trkpt>
      <trkpt lat="44.89293" lon="7.24419">
        <ele>459</ele>
        <time>2019-04-17T19:17:40Z</time>
      </trkpt>
      <trkpt lat="44.89324" lon="7.24419">
        <ele>461</ele>
        <time>2019-04-17T19:18:40Z</time>
      </trkpt>
      <trkpt lat="44.89573" lon="7.24464">
        <ele>478</ele>
        <time>2019-04-17T19:19:40Z</time>
      </trkpt>
      <trkpt lat="44.89607" lon="7.24473">
        <ele>477</ele>
        <time>2019-04-17T19:20:40Z</time>
      </trkpt>
      <trkpt lat="44.89632" lon="7.24481">
        <ele>477</ele>
        <time>2019-04-17T19:21:40Z</time>
      </trkpt>
      <trkpt lat="44.89647" lon="7.24489">
        <ele>477</ele>
        <time>2019-04-17T19:22:40Z</time>
      </trkpt>
      <trkpt lat="44.89647" lon="7.24495">
        <ele>478</ele>
        <time>2019-04-17T19:23:40Z</time>
      </trkpt>
      <trkpt lat="44.89651" lon="7.24506">
        <ele>481</ele>
        <time>2019-04-17T19:24:40Z</time>
      </trkpt>
      <trkpt lat="44.89659" lon="7.2451">
        <ele>482</ele>
        <time>2019-04-17T19:25:40Z</time>
      </trkpt>
      <trkpt lat="44.89667" lon="7.24505">
        <ele>478</ele>
        <time>2019-04-17T19:26:40Z</time>
      </trkpt>
      <trkpt lat="44.89669" lon="7.24499">
        <ele>475</ele>
        <time>2019-04-17T19:27:40Z</time>
      </trkpt>
      <trkpt lat="44.89786" lon="7.24552">
        <ele>473</ele>
        <time>2019-04-17T19:28:40Z</time>
      </trkpt>
      <trkpt lat="44.89805" lon="7.24563">
        <ele>472</ele>
        <time>2019-04-17T19:29:40Z</time>
      </trkpt>
      <trkpt lat="44.89815" lon="7.2457">
        <ele>471</ele>
        <time>2019-04-17T19:30:40Z</time>
      </trkpt>
      <trkpt lat="44.8994" lon="7.24721">
        <ele>482</ele>
        <time>2019-04-17T19:31:40Z</time>
      </trkpt>
      <trkpt lat="44.89987" lon="7.24771">
        <ele>482</ele>
        <time>2019-04-17T19:32:40Z</time>
      </trkpt>
      <trkpt lat="44.90116" lon="7.24868">
        <ele>481</ele>
        <time>2019-04-17T19:33:40Z</time>
      </trkpt>
      <trkpt lat="44.90134" lon="7.24877">
        <ele>481</ele>
        <time>2019-04-17T19:34:40Z</time>
      </trkpt>
      <trkpt lat="44.9017" lon="7.24886">
        <ele>476</ele>
        <time>2019-04-17T19:35:40Z</time>
      </trkpt>
      <trkpt lat="44.90376" lon="7.24906">
        <ele>474</ele>
        <time>2019-04-17T19:36:40Z</time>
      </trkpt>
      <trkpt lat="44.90406" lon="7.24905">
        <ele>473</ele>
        <time>2019-04-17T19:37:40Z</time>
      </trkpt>
      <trkpt lat="44.9049" lon="7.24896">
        <ele>473</ele>
        <time>2019-04-17T19:38:40Z</time>
      </trkpt>
      <trkpt lat="44.90536" lon="7.24895">
        <ele>474</ele>
        <time>2019-04-17T19:39:40Z</time>
      </trkpt>
      <trkpt lat="44.90546" lon="7.24899">
        <ele>474</ele>
        <time>2019-04-17T19:40:40Z</time>
      </trkpt>
      <trkpt lat="44.90561" lon="7.2491">
        <ele>474</ele>
        <time>2019-04-17T19:41:40Z</time>
      </trkpt>
      <trkpt lat="44.90587" lon="7.24921">
        <ele>475</ele>
        <time>2019-04-17T19:42:40Z</time>
      </trkpt>
      <trkpt lat="44.90593" lon="7.24929">
        <ele>475</ele>
        <time>2019-04-17T19:43:40Z</time>
      </trkpt>
      <trkpt lat="44.90604" lon="7.24934">
        <ele>475</ele>
        <time>2019-04-17T19:44:40Z</time>
      </trkpt>
      <trkpt lat="44.90815" lon="7.24958">
        <ele>480</ele>
        <time>2019-04-17T19:45:40Z</time>
      </trkpt>
      <trkpt lat="44.9088" lon="7.24974">
        <ele>482</ele>
        <time>2019-04-17T19:46:40Z</time>
      </trkpt>
      <trkpt lat="44.91011" lon="7.2501">
        <ele>483</ele>
        <time>2019-04-17T19:47:40Z</time>
      </trkpt>
      <trkpt lat="44.91031" lon="7.25013">
        <ele>484</ele>
        <time>2019-04-17T19:48:40Z</time>
      </trkpt>
      <trkpt lat="44.91055" lon="7.25011">
        <ele>483</ele>
        <time>2019-04-17T19:49:40Z</time>
      </trkpt>
      <trkpt lat="44.91078" lon="7.25004">
        <ele>483</ele>
        <time>2019-04-17T19:50:40Z</time>
      </trkpt>
      <trkpt lat="44.91304" lon="7.24888">
        <ele>488</ele>
        <time>2019-04-17T19:51:40Z</time>
      </trkpt>
      <trkpt lat="44.91542" lon="7.24774">
        <ele>495</ele>
        <time>2019-04-17T19:52:40Z</time>
      </trkpt>
      <trkpt lat="44.91566" lon="7.24768">
        <ele>494</ele>
        <time>2019-04-17T19:53:40Z</time>
      </trkpt>
      <trkpt lat="44.91593" lon="7.24769">
        <ele>495</ele>
        <time>2019-04-17T19:54:40Z</time>
      </trkpt>
      <trkpt lat="44.91869" lon="7.2483">
        <ele>503</ele>
        <time>2019-04-17T19:55:40Z</time>
      </trkpt>
      <trkpt lat="44.9189" lon="7.24829">
        <ele>504</ele>
        <time>2019-04-17T19:56:40Z</time>
      </trkpt>
      <trkpt lat="44.91909" lon="7.24818">
        <ele>504</ele>
        <time>2019-04-17T19:57:40Z</time>
      </trkpt>
      <trkpt lat="44.92001" lon="7.24744">
        <ele>505</ele>
        <time>2019-04-17T19:58:40Z</time>
      </trkpt>
      <trkpt lat="44.92081" lon="7.24691">
        <ele>507</ele>
        <time>2019-04-17T19:59:40Z</time>
      </trkpt>
      <trkpt lat="44.9209" lon="7.24684">
        <ele>507</ele>
        <time>2019-04-17T20:00:40Z</time>
      </trkpt>
      <trkpt lat="44.92121" lon="7.24646">
        <ele>507</ele>
        <time>2019-04-17T20:01:40Z</time>
      </trkpt>
      <trkpt lat="44.92191" lon="7.24557">
        <ele>507</ele>
        <time>2019-04-17T20:02:40Z</time>
      </trkpt>
      <trkpt lat="44.92231" lon="7.2451">
        <ele>507</ele>
        <time>2019-04-17T20:03:40Z</time>
      </trkpt>
      <trkpt lat="44.92415" lon="7.24323">
        <ele>509</ele>
        <time>2019-04-17T20:04:40Z</time>
      </trkpt>
      <trkpt lat="44.92474" lon="7.24268">
        <ele>512</ele>
        <time>2019-04-17T20:05:40Z</time>
      </trkpt>
      <trkpt lat="44.9253" lon="7.24207">
        <ele>513</ele>
        <time>2019-04-17T20:06:40Z</time>
      </trkpt>
      <trkpt lat="44.92781" lon="7.23955">
        <ele>517</ele>
        <time>2019-04-17T20:07:40Z</time>
      </trkpt>
      <trkpt lat="44.93099" lon="7.23605">
        <ele>525</ele>
        <time>2019-04-17T20:08:40Z</time>
      </trkpt>
      <trkpt lat="44.93142" lon="7.23559">
        <ele>527</ele>
        <time>2019-04-17T20:09:40Z</time>
      </trkpt>
      <trkpt lat="44.93156" lon="7.23546">
        <ele>528</ele>
        <time>2019-04-17T20:10:40Z</time>
      </trkpt>
      <trkpt lat="44.93181" lon="7.23529">
        <ele>528</ele>
        <time>2019-04-17T20:11:40Z</time>
      </trkpt>
      <trkpt lat="44.93192" lon="7.23523">
        <ele>529</ele>
        <time>2019-04-17T20:12:40Z</time>
      </trkpt>
      <trkpt lat="44.93521" lon="7.23388">
        <ele>536</ele>
        <time>2019-04-17T20:13:40Z</time>
      </trkpt>
      <trkpt lat="44.93548" lon="7.23369">
        <ele>537</ele>
        <time>2019-04-17T20:14:40Z</time>
      </trkpt>
      <trkpt lat="44.93575" lon="7.23337">
        <ele>536</ele>
        <time>2019-04-17T20:15:40Z</time>
      </trkpt>
      <trkpt lat="44.9359" lon="7.23312">
        <ele>536</ele>
        <time>2019-04-17T20:16:40Z</time>
      </trkpt>
      <trkpt lat="44.93604" lon="7.23278">
        <ele>535</ele>
        <time>2019-04-17T20:17:40Z</time>
      </trkpt>
      <trkpt lat="44.93622" lon="7.23214">
        <ele>536</ele>
        <time>2019-04-17T20:18:40Z</time>
      </trkpt>
      <trkpt lat="44.9364" lon="7.23173">
        <ele>537</ele>
        <time>2019-04-17T20:19:40Z</time>
      </trkpt>
      <trkpt lat="44.93651" lon="7.23156">
        <ele>538</ele>
        <time>2019-04-17T20:20:40Z</time>
      </trkpt>
      <trkpt lat="44.93677" lon="7.23121">
        <ele>539</ele>
        <time>2019-04-17T20:21:40Z</time>
      </trkpt>
      <trkpt lat="44.93703" lon="7.23098">
        <ele>540</ele>
        <time>2019-04-17T20:22:40Z</time>
      </trkpt>
      <trkpt lat="44.93801" lon="7.23033">
        <ele>541</ele>
        <time>2019-04-17T20:23:40Z</time>
      </trkpt>
      <trkpt lat="44.93877" lon="7.22967">
        <ele>541</ele>
        <time>2019-04-17T20:24:40Z</time>
      </trkpt>
      <trkpt lat="44.93911" lon="7.22943">
        <ele>540</ele>
        <time>2019-04-17T20:25:40Z</time>
      </trkpt>
      <trkpt lat="44.93953" lon="7.22922">
        <ele>541</ele>
        <time>2019-04-17T20:26:40Z</time>
      </trkpt>
      <trkpt lat="44.93995" lon="7.22909">
        <ele>542</ele>
        <time>2019-04-17T20:27:40Z</time>
      </trkpt>
      <trkpt lat="44.94095" lon="7.22888">
        <ele>544</ele>
        <time>2019-04-17T20:28:40Z</time>
      </trkpt>
      <trkpt lat="44.9413" lon="7.22873">
        <ele>545</ele>
        <time>2019-04-17T20:29:40Z</time>
      </trkpt>
      <trkpt lat="44.94152" lon="7.22858">
        <ele>546</ele>
        <time>2019-04-17T20:30:40Z</time>
      </trkpt>
      <trkpt lat="44.94165" lon="7.22855">
        <ele>547</ele>
        <time>2019-04-17T20:31:40Z</time>
      </trkpt>
      <trkpt lat="44.94169" lon="7.2285">
        <ele>547</ele>
        <time>2019-04-17T20:32:40Z</time>
      </trkpt>
      <trkpt lat="44.94171" lon="7.22843">
        <ele>547</ele>
        <time>2019-04-17T20:33:40Z</time>
      </trkpt>
      <trkpt lat="44.94183" lon="7.22827">
        <ele>547</ele>
        <time>2019-04-17T20:34:40Z</time>
      </trkpt>
      <trkpt lat="44.94204" lon="7.22793">
        <ele>548</ele>
        <time>2019-04-17T20:35:40Z</time>
      </trkpt>
      <trkpt lat="44.94315" lon="7.22609">
        <ele>546</ele>
        <time>2019-04-17T20:36:40Z</time>
      </trkpt>
      <trkpt lat="44.94339" lon="7.22575">
        <ele>546</ele>
        <time>2019-04-17T20:37:40Z</time>
      </trkpt>
      <trkpt lat="44.94368" lon="7.22543">
        <ele>547</ele>
        <time>2019-04-17T20:38:40Z</time>
      </trkpt>
      <trkpt lat="44.94405" lon="7.22514">
        <ele>549</ele>
        <time>2019-04-17T20:39:40Z</time>
      </trkpt>
      <trkpt lat="44.94562" lon="7.22407">
        <ele>554</ele>
        <time>2019-04-17T20:40:40Z</time>
      </trkpt>
      <trkpt lat="44.94576" lon="7.22395">
        <ele>555</ele>
        <time>2019-04-17T20:41:40Z</time>
      </trkpt>
      <trkpt lat="44.94585" lon="7.22383">
        <ele>555</ele>
        <time>2019-04-17T20:42:40Z</time>
      </trkpt>
      <trkpt lat="44.94599" lon="7.22362">
        <ele>556</ele>
        <time>2019-04-17T20:43:40Z</time>
      </trkpt>
      <trkpt lat="44.9469" lon="7.22202">
        <ele>561</ele>
        <time>2019-04-17T20:44:40Z</time>
      </trkpt>
      <trkpt lat="44.94697" lon="7.22185">
        <ele>561</ele>
        <time>2019-04-17T20:45:40Z</time>
      </trkpt>
      <trkpt lat="44.94719" lon="7.22102">
        <ele>558</ele>
        <time>2019-04-17T20:46:40Z</time>
      </trkpt>
      <trkpt lat="44.94729" lon="7.22073">
        <ele>558</ele>
        <time>2019-04-17T20:47:40Z</time>
      </trkpt>
      <trkpt lat="44.94825" lon="7.21854">
        <ele>558</ele>
        <time>2019-04-17T20:48:40Z</time>
      </trkpt>
      <trkpt lat="44.94834" lon="7.21838">
        <ele>558</ele>
        <time>2019-04-17T20:49:40Z</time>
      </trkpt>
      <trkpt lat="44.94856" lon="7.2181">
        <ele>560</ele>
        <time>2019-04-17T20:50:40Z</time>
      </trkpt>
      <trkpt lat="44.9494" lon="7.21729">
        <ele>563</ele>
        <time>2019-04-17T20:51:40Z</time>
      </trkpt>
      <trkpt lat="44.94954" lon="7.21714">
        <ele>564</ele>
        <time>2019-04-17T20:52:40Z</time>
      </trkpt>
      <trkpt lat="44.94966" lon="7.21696">
        <ele>564</ele>
        <time>2019-04-17T20:53:40Z</time>
      </trkpt>
      <trkpt lat="44.95002" lon="7.21626">
        <ele>566</ele>
        <time>2019-04-17T20:54:40Z</time>
      </trkpt>
      <trkpt lat="44.95059" lon="7.21486">
        <ele>569</ele>
        <time>2019-04-17T20:55:40Z</time>
      </trkpt>
      <trkpt lat="44.95143" lon="7.21291">
        <ele>571</ele>
        <time>2019-04-17T20:56:40Z</time>
      </trkpt>
      <trkpt lat="44.9516" lon="7.21262">
        <ele>573</ele>
        <time>2019-04-17T20:57:40Z</time>
      </trkpt>
      <trkpt lat="44.95178" lon="7.21242">
        <ele>574</ele>
        <time>2019-04-17T20:58:40Z</time>
      </trkpt>
      <trkpt lat="44.95224" lon="7.21207">
        <ele>578</ele>
        <time>2019-04-17T20:59:40Z</time>
      </trkpt>
      <trkpt lat="44.95238" lon="7.21191">
        <ele>580</ele>
        <time>2019-04-17T21:00:40Z</time>
      </trkpt>
      <trkpt lat="44.9525" lon="7.21171">
        <ele>581</ele>
        <time>2019-04-17T21:01:40Z</time>
      </trkpt>
      <trkpt lat="44.95259" lon="7.21147">
        <ele>582</ele>
        <time>2019-04-17T21:02:40Z</time>
      </trkpt>
      <trkpt lat="44.95295" lon="7.21013">
        <ele>586</ele>
        <time>2019-04-17T21:03:40Z</time>
      </trkpt>
      <trkpt lat="44.95308" lon="7.20972">
        <ele>586</ele>
        <time>2019-04-17T21:04:40Z</time>
      </trkpt>
      <trkpt lat="44.95361" lon="7.20877">
        <ele>588</ele>
        <time>2019-04-17T21:05:40Z</time>
      </trkpt>
      <trkpt lat="44.95367" lon="7.20859">
        <ele>588</ele>
        <time>2019-04-17T21:06:40Z</time>
      </trkpt>
      <trkpt lat="44.954" lon="7.20746">
        <ele>589</ele>
        <time>2019-04-17T21:07:40Z</time>
      </trkpt>
      <trkpt lat="44.95408" lon="7.20723">
        <ele>590</ele>
        <time>2019-04-17T21:08:40Z</time>
      </trkpt>
      <trkpt lat="44.95444" lon="7.20643">
        <ele>590</ele>
        <time>2019-04-17T21:09:40Z</time>
      </trkpt>
      <trkpt lat="44.95468" lon="7.20603">
        <ele>592</ele>
        <time>2019-04-17T21:10:40Z</time>
      </trkpt>
      <trkpt lat="44.95507" lon="7.20562">
        <ele>594</ele>
        <time>2019-04-17T21:11:40Z</time>
      </trkpt>
      <trkpt lat="44.95516" lon="7.20549">
        <ele>596</ele>
        <time>2019-04-17T21:12:40Z</time>
      </trkpt>
      <trkpt lat="44.95527" lon="7.20525">
        <ele>597</ele>
        <time>2019-04-17T21:13:40Z</time>
      </trkpt>
      <trkpt lat="44.95534" lon="7.20501">
        <ele>597</ele>
        <time>2019-04-17T21:14:40Z</time>
      </trkpt>
      <trkpt lat="44.95538" lon="7.20468">
        <ele>597</ele>
        <time>2019-04-17T21:15:40Z</time>
      </trkpt>
      <trkpt lat="44.95549" lon="7.20264">
        <ele>596</ele>
        <time>2019-04-17T21:16:40Z</time>
      </trkpt>
      <trkpt lat="44.95547" lon="7.20254">
        <ele>596</ele>
        <time>2019-04-17T21:17:40Z</time>
      </trkpt>
      <trkpt lat="44.9556" lon="7.20233">
        <ele>598</ele>
        <time>2019-04-17T21:18:40Z</time>
      </trkpt>
      <trkpt lat="44.95598" lon="7.20145">
        <ele>603</ele>
        <time>2019-04-17T21:19:40Z</time>
      </trkpt>
      <trkpt lat="44.95604" lon="7.20124">
        <ele>605</ele>
        <time>2019-04-17T21:20:40Z</time>
      </trkpt>
      <trkpt lat="44.95597" lon="7.20099">
        <ele>604</ele>
        <time>2019-04-17T21:21:40Z</time>
      </trkpt>
      <trkpt lat="44.95577" lon="7.2007">
        <ele>602</ele>
        <time>2019-04-17T21:22:40Z</time>
      </trkpt>
      <trkpt lat="44.95563" lon="7.2004">
        <ele>601</ele>
        <time>2019-04-17T21:23:40Z</time>
      </trkpt>
      <trkpt lat="44.95557" lon="7.19971">
        <ele>600</ele>
        <time>2019-04-17T21:24:40Z</time>
      </trkpt>
      <trkpt lat="44.9553" lon="7.19891">
        <ele>599</ele>
        <time>2019-04-17T21:25:40Z</time>
      </trkpt>
      <trkpt lat="44.95521" lon="7.19891">
        <ele>599</ele>
        <time>2019-04-17T21:26:40Z</time>
      </trkpt>
      <trkpt lat="44.95517" lon="7.19861">
        <ele>599</ele>
        <time>2019-04-17T21:27:40Z</time>
      </trkpt>
      <trkpt lat="44.95511" lon="7.19833">
        <ele>599</ele>
        <time>2019-04-17T21:28:40Z</time>
      </trkpt>
      <trkpt lat="44.95493" lon="7.19785">
        <ele>600</ele>
        <time>2019-04-17T21:29:40Z</time>
      </trkpt>
      <trkpt lat="44.95468" lon="7.19741">
        <ele>602</ele>
        <time>2019-04-17T21:30:40Z</time>
      </trkpt>
      <trkpt lat="44.95447" lon="7.19721">
        <ele>604</ele>
        <time>2019-04-17T21:31:40Z</time>
      </trkpt>
      <trkpt lat="44.954" lon="7.19687">
        <ele>603</ele>
        <time>2019-04-17T21:32:40Z</time>
      </trkpt>
      <trkpt lat="44.95378" lon="7.19664">
        <ele>602</ele>
        <time>2019-04-17T21:33:40Z</time>
      </trkpt>
      <trkpt lat="44.95357" lon="7.19632">
        <ele>603</ele>
        <time>2019-04-17T21:34:40Z</time>
      </trkpt>
      <trkpt lat="44.95344" lon="7.19603">
        <ele>604</ele>
        <time>2019-04-17T21:35:40Z</time>
      </trkpt>
      <trkpt lat="44.95334" lon="7.19563">
        <ele>605</ele>
        <time>2019-04-17T21:36:40Z</time>
      </trkpt>
      <trkpt lat="44.95326" lon="7.19513">
        <ele>603</ele>
        <time>2019-04-17T21:37:40Z</time>
      </trkpt>
      <trkpt lat="44.95325" lon="7.19489">
        <ele>602</ele>
        <time>2019-04-17T21:38:40Z</time>
      </trkpt>
      <trkpt lat="44.9533" lon="7.19471">
        <ele>600</ele>
        <time>2019-04-17T21:39:40Z</time>
      </trkpt>
      <trkpt lat="44.95336" lon="7.1946">
        <ele>600</ele>
        <time>2019-04-17T21:40:40Z</time>
      </trkpt>
      <trkpt lat="44.95346" lon="7.19451">
        <ele>600</ele>
        <time>2019-04-17T21:41:40Z</time>
      </trkpt>
      <trkpt lat="44.95361" lon="7.19443">
        <ele>601</ele>
        <time>2019-04-17T21:42:40Z</time>
      </trkpt>
      <trkpt lat="44.95382" lon="7.19445">
        <ele>605</ele>
        <time>2019-04-17T21:43:40Z</time>
      </trkpt>
      <trkpt lat="44.95417" lon="7.19463">
        <ele>613</ele>
        <time>2019-04-17T21:44:40Z</time>
      </trkpt>
      <trkpt lat="44.9543" lon="7.19464">
        <ele>614</ele>
        <time>2019-04-17T21:45:40Z</time>
      </trkpt>
      <trkpt lat="44.9545" lon="7.1946">
        <ele>615</ele>
        <time>2019-04-17T21:46:40Z</time>
      </trkpt>
      <trkpt lat="44.95515" lon="7.19429">
        <ele>615</ele>
        <time>2019-04-17T21:47:40Z</time>
      </trkpt>
      <trkpt lat="44.95549" lon="7.19407">
        <ele>617</ele>
        <time>2019-04-17T21:48:40Z</time>
      </trkpt>
      <trkpt lat="44.95566" lon="7.19386">
        <ele>617</ele>
        <time>2019-04-17T21:49:40Z</time>
      </trkpt>
      <trkpt lat="44.95576" lon="7.19368">
        <ele>617</ele>
        <time>2019-04-17T21:50:40Z</time>
      </trkpt>
      <trkpt lat="44.95615" lon="7.19275">
        <ele>617</ele>
        <time>2019-04-17T21:51:40Z</time>
      </trkpt>
      <trkpt lat="44.95622" lon="7.19265">
        <ele>618</ele>
        <time>2019-04-17T21:52:40Z</time>
      </trkpt>
      <trkpt lat="44.95657" lon="7.19226">
        <ele>620</ele>
        <time>2019-04-17T21:53:40Z</time>
      </trkpt>
      <trkpt lat="44.95781" lon="7.19069">
        <ele>627</ele>
        <time>2019-04-17T21:54:40Z</time>
      </trkpt>
      <trkpt lat="44.95871" lon="7.1896">
        <ele>632</ele>
        <time>2019-04-17T21:55:40Z</time>
      </trkpt>
      <trkpt lat="44.95901" lon="7.18926">
        <ele>633</ele>
        <time>2019-04-17T21:56:40Z</time>
      </trkpt>
      <trkpt lat="44.95937" lon="7.18903">
        <ele>636</ele>
        <time>2019-04-17T21:57:40Z</time>
      </trkpt>
      <trkpt lat="44.95965" lon="7.18878">
        <ele>638</ele>
        <time>2019-04-17T21:58:40Z</time>
      </trkpt>
      <trkpt lat="44.95996" lon="7.18829">
        <ele>640</ele>
        <time>2019-04-17T21:59:40Z</time>
      </trkpt>
      <trkpt lat="44.9601" lon="7.18818">
        <ele>639</ele>
        <time>2019-04-17T22:00:40Z</time>
      </trkpt>
      <trkpt lat="44.96025" lon="7.18808">
        <ele>638</ele>
        <time>2019-04-17T22:01:40Z</time>
      </trkpt>
      <trkpt lat="44.96084" lon="7.18789">
        <ele>641</ele>
        <time>2019-04-17T22:02:40Z</time>
      </trkpt>
      <trkpt lat="44.96148" lon="7.18764">
        <ele>647</ele>
        <time>2019-04-17T22:03:40Z</time>
      </trkpt>
      <trkpt lat="44.96183" lon="7.18736">
        <ele>649</ele>
        <time>2019-04-17T22:04:40Z</time>
      </trkpt>
      <trkpt lat="44.96248" lon="7.18669">
        <ele>651</ele>
        <time>2019-04-17T22:05:40Z</time>
      </trkpt>
      <trkpt lat="44.96322" lon="7.18617">
        <ele>653</ele>
        <time>2019-04-17T22:06:40Z</time>
      </trkpt>
      <trkpt lat="44.96346" lon="7.18597">
        <ele>654</ele>
        <time>2019-04-17T22:07:40Z</time>
      </trkpt>
      <trkpt lat="44.96373" lon="7.18585">
        <ele>654</ele>
        <time>2019-04-17T22:08:40Z</time>
      </trkpt>
      <trkpt lat="44.96433" lon="7.18574">
        <ele>656</ele>
        <time>2019-04-17T22:09:40Z</time>
      </trkpt>
      <trkpt lat="44.96448" lon="7.18569">
        <ele>657</ele>
        <time>2019-04-17T22:10:40Z</time>
      </trkpt>
      <trkpt lat="44.96488" lon="7.18552">
        <ele>657</ele>
        <time>2019-04-17T22:11:40Z</time>
      </trkpt>
      <trkpt lat="44.96556" lon="7.18513">
        <ele>658</ele>
        <time>2019-04-17T22:12:40Z</time>
      </trkpt>
      <trkpt lat="44.96593" lon="7.18484">
        <ele>659</ele>
        <time>2019-04-17T22:13:40Z</time>
      </trkpt>
      <trkpt lat="44.96617" lon="7.18449">
        <ele>660</ele>
        <time>2019-04-17T22:14:40Z</time>
      </trkpt>
      <trkpt lat="44.96636" lon="7.18404">
        <ele>657</ele>
        <time>2019-04-17T22:15:40Z</time>
      </trkpt>
      <trkpt lat="44.96692" lon="7.1823">
        <ele>657</ele>
        <time>2019-04-17T22:16:40Z</time>
      </trkpt>
      <trkpt lat="44.96715" lon="7.18152">
        <ele>661</ele>
        <time>2019-04-17T22:17:40Z</time>
      </trkpt>
      <trkpt lat="44.96738" lon="7.18026">
        <ele>660</ele>
        <time>2019-04-17T22:18:40Z</time>
      </trkpt>
      <trkpt lat="44.96757" lon="7.17973">
        <ele>661</ele>
        <time>2019-04-17T22:19:40Z</time>
      </trkpt>
      <trkpt lat="44.96779" lon="7.17927">
        <ele>662</ele>
        <time>2019-04-17T22:20:40Z</time>
      </trkpt>
      <trkpt lat="44.96806" lon="7.17887">
        <ele>663</ele>
        <time>2019-04-17T22:21:40Z</time>
      </trkpt>
      <trkpt lat="44.96844" lon="7.17849">
        <ele>661</ele>
        <time>2019-04-17T22:22:40Z</time>
      </trkpt>
      <trkpt lat="44.96872" lon="7.1783">
        <ele>660</ele>
        <time>2019-04-17T22:23:40Z</time>
      </trkpt>
      <trkpt lat="44.97046" lon="7.17771">
        <ele>666</ele>
        <time>2019-04-17T22:24:40Z</time>
      </trkpt>
      <trkpt lat="44.97094" lon="7.1774">
        <ele>668</ele>
        <time>2019-04-17T22:25:40Z</time>
      </trkpt>
      <trkpt lat="44.97146" lon="7.17694">
        <ele>669</ele>
        <time>2019-04-17T22:26:40Z</time>
      </trkpt>
      <trkpt lat="44.97199" lon="7.17628">
        <ele>675</ele>
        <time>2019-04-17T22:27:40Z</time>
      </trkpt>
      <trkpt lat="44.97313" lon="7.17435">
        <ele>702</ele>
        <time>2019-04-17T22:28:40Z</time>
      </trkpt>
      <trkpt lat="44.97364" lon="7.17287">
        <ele>703</ele>
        <time>2019-04-17T22:29:40Z</time>
      </trkpt>
      <trkpt lat="44.97389" lon="7.17242">
        <ele>702</ele>
        <time>2019-04-17T22:30:40Z</time>
      </trkpt>
      <trkpt lat="44.97426" lon="7.17213">
        <ele>699</ele>
        <time>2019-04-17T22:31:40Z</time>
      </trkpt>
      <trkpt lat="44.97483" lon="7.17191">
        <ele>700</ele>
        <time>2019-04-17T22:32:40Z</time>
      </trkpt>
      <trkpt lat="44.97551" lon="7.17141">
        <ele>703</ele>
        <time>2019-04-17T22:33:40Z</time>
      </trkpt>
      <trkpt lat="44.97574" lon="7.17109">
        <ele>703</ele>
        <time>2019-04-17T22:34:40Z</time>
      </trkpt>
      <trkpt lat="44.9758" lon="7.17072">
        <ele>699</ele>
        <time>2019-04-17T22:35:40Z</time>
      </trkpt>
      <trkpt lat="44.97582" lon="7.17038">
        <ele>697</ele>
        <time>2019-04-17T22:36:40Z</time>
      </trkpt>
      <trkpt lat="44.97576" lon="7.1697">
        <ele>694</ele>
        <time>2019-04-17T22:37:40Z</time>
      </trkpt>
      <trkpt lat="44.97583" lon="7.16736">
        <ele>695</ele>
        <time>2019-04-17T22:38:40Z</time>
      </trkpt>
      <trkpt lat="44.9759" lon="7.16685">
        <ele>697</ele>
        <time>2019-04-17T22:39:40Z</time>
      </trkpt>
      <trkpt lat="44.97662" lon="7.16386">
        <ele>710</ele>
        <time>2019-04-17T22:40:40Z</time>
      </trkpt>
      <trkpt lat="44.97689" lon="7.16284">
        <ele>711</ele>
        <time>2019-04-17T22:41:40Z</time>
      </trkpt>
      <trkpt lat="44.97705" lon="7.16247">
        <ele>710</ele>
        <time>2019-04-17T22:42:40Z</time>
      </trkpt>
      <trkpt lat="44.97726" lon="7.16223">
        <ele>712</ele>
        <time>2019-04-17T22:43:40Z</time>
      </trkpt>
      <trkpt lat="44.97754" lon="7.16207">
        <ele>714</ele>
        <time>2019-04-17T22:44:40Z</time>
      </trkpt>
      <trkpt lat="44.97794" lon="7.16195">
        <ele>719</ele>
        <time>2019-04-17T22:45:40Z</time>
      </trkpt>
      <trkpt lat="44.97827" lon="7.16171">
        <ele>720</ele>
        <time>2019-04-17T22:46:40Z</time>
      </trkpt>
      <trkpt lat="44.97951" lon="7.16064">
        <ele>728</ele>
        <time>2019-04-17T22:47:40Z</time>
      </trkpt>
      <trkpt lat="44.97983" lon="7.16026">
        <ele>731</ele>
        <time>2019-04-17T22:48:40Z</time>
      </trkpt>
      <trkpt lat="44.98065" lon="7.15889">
        <ele>739</ele>
        <time>2019-04-17T22:49:40Z</time>
      </trkpt>
      <trkpt lat="44.98088" lon="7.15844">
        <ele>738</ele>
        <time>2019-04-17T22:50:40Z</time>
      </trkpt>
      <trkpt lat="44.98142" lon="7.15693">
        <ele>743</ele>
        <time>2019-04-17T22:51:40Z</time>
      </trkpt>
      <trkpt lat="44.98239" lon="7.15459">
        <ele>744</ele>
        <time>2019-04-17T22:52:40Z</time>
      </trkpt>
      <trkpt lat="44.98248" lon="7.15424">
        <ele>742</ele>
        <time>2019-04-17T22:53:40Z</time>
      </trkpt>
      <trkpt lat="44.98252" lon="7.15387">
        <ele>741</ele>
        <time>2019-04-17T22:54:40Z</time>
      </trkpt>
      <trkpt lat="44.98256" lon="7.15178">
        <ele>750</ele>
        <time>2019-04-17T22:55:40Z</time>
      </trkpt>
      <trkpt lat="44.98263" lon="7.15073">
        <ele>755</ele>
        <time>2019-04-17T22:56:40Z</time>
      </trkpt>
      <trkpt lat="44.98288" lon="7.1488">
        <ele>756</ele>
        <time>2019-04-17T22:57:40Z</time>
      </trkpt>
      <trkpt lat="44.98306" lon="7.14795">
        <ele>757</ele>
        <time>2019-04-17T22:58:40Z</time>
      </trkpt>
      <trkpt lat="44.98321" lon="7.1475">
        <ele>758</ele>
        <time>2019-04-17T22:59:40Z</time>
      </trkpt>
      <trkpt lat="44.98341" lon="7.14721">
        <ele>760</ele>
        <time>2019-04-17T23:00:40Z</time>
      </trkpt>
      <trkpt lat="44.98371" lon="7.14686">
        <ele>762</ele>
        <time>2019-04-17T23:01:40Z</time>
      </trkpt>
      <trkpt lat="44.98386" lon="7.14672">
        <ele>762</ele>
        <time>2019-04-17T23:02:40Z</time>
      </trkpt>
      <trkpt lat="44.98428" lon="7.14656">
        <ele>764</ele>
        <time>2019-04-17T23:03:40Z</time>
      </trkpt>
      <trkpt lat="44.98455" lon="7.14641">
        <ele>765</ele>
        <time>2019-04-17T23:04:40Z</time>
      </trkpt>
      <trkpt lat="44.98554" lon="7.14525">
        <ele>766</ele>
        <time>2019-04-17T23:05:40Z</time>
      </trkpt>
      <trkpt lat="44.9864" lon="7.14423">
        <ele>770</ele>
        <time>2019-04-17T23:06:40Z</time>
      </trkpt>
      <trkpt lat="44.98766" lon="7.14248">
        <ele>778</ele>
        <time>2019-04-17T23:07:40Z</time>
      </trkpt>
      <trkpt lat="44.98784" lon="7.14229">
        <ele>779</ele>
        <time>2019-04-17T23:08:40Z</time>
      </trkpt>
      <trkpt lat="44.98839" lon="7.14176">
        <ele>782</ele>
        <time>2019-04-17T23:09:40Z</time>
      </trkpt>
      <trkpt lat="44.98865" lon="7.14159">
        <ele>783</ele>
        <time>2019-04-17T23:10:40Z</time>
      </trkpt>
      <trkpt lat="44.98881" lon="7.14154">
        <ele>785</ele>
        <time>2019-04-17T23:11:40Z</time>
      </trkpt>
      <trkpt lat="44.9908" lon="7.14118">
        <ele>802</ele>
        <time>2019-04-17T23:12:40Z</time>
      </trkpt>
      <trkpt lat="44.99112" lon="7.14108">
        <ele>804</ele>
        <time>2019-04-17T23:13:40Z</time>
      </trkpt>
      <trkpt lat="44.99282" lon="7.14041">
        <ele>814</ele>
        <time>2019-04-17T23:14:40Z</time>
      </trkpt>
      <trkpt lat="44.99295" lon="7.14034">
        <ele>815</ele>
        <time>2019-04-17T23:15:40Z</time>
      </trkpt>
      <trkpt lat="44.99303" lon="7.14027">
        <ele>814</ele>
        <time>2019-04-17T23:16:40Z</time>
      </trkpt>
      <trkpt lat="44.9933" lon="7.13986">
        <ele>809</ele>
        <time>2019-04-17T23:17:40Z</time>
      </trkpt>
      <trkpt lat="44.9956" lon="7.13583">
        <ele>823</ele>
        <time>2019-04-17T23:18:40Z</time>
      </trkpt>
      <trkpt lat="44.99585" lon="7.13524">
        <ele>825</ele>
        <time>2019-04-17T23:19:40Z</time>
      </trkpt>
      <trkpt lat="44.99596" lon="7.13483">
        <ele>828</ele>
        <time>2019-04-17T23:20:40Z</time>
      </trkpt>
      <trkpt lat="44.99599" lon="7.13468">
        <ele>829</ele>
        <time>2019-04-17T23:21:40Z</time>
      </trkpt>
      <trkpt lat="44.99601" lon="7.1345">
        <ele>830</ele>
        <time>2019-04-17T23:22:40Z</time>
      </trkpt>
      <trkpt lat="44.99581" lon="7.13344">
        <ele>830</ele>
        <time>2019-04-17T23:23:40Z</time>
      </trkpt>
      <trkpt lat="44.9958" lon="7.13321">
        <ele>831</ele>
        <time>2019-04-17T23:24:40Z</time>
      </trkpt>
      <trkpt lat="44.99589" lon="7.13292">
        <ele>833</ele>
        <time>2019-04-17T23:25:40Z</time>
      </trkpt>
      <trkpt lat="44.99609" lon="7.13272">
        <ele>835</ele>
        <time>2019-04-17T23:26:40Z</time>
      </trkpt>
      <trkpt lat="44.99925" lon="7.1314">
        <ele>850</ele>
        <time>2019-04-17T23:27:40Z</time>
      </trkpt>
      <trkpt lat="44.99974" lon="7.13103">
        <ele>850</ele>
        <time>2019-04-17T23:28:40Z</time>
      </trkpt>
      <trkpt lat="44.99989" lon="7.13079">
        <ele>850</ele>
        <time>2019-04-17T23:29:40Z</time>
      </trkpt>
      <trkpt lat="45.00044" lon="7.1294">
        <ele>855</ele>
        <time>2019-04-17T23:30:40Z</time>
      </trkpt>
      <trkpt lat="45.00061" lon="7.12915">
        <ele>856</ele>
        <time>2019-04-17T23:31:40Z</time>
      </trkpt>
      <trkpt lat="45.0009" lon="7.1289">
        <ele>858</ele>
        <time>2019-04-17T23:32:40Z</time>
      </trkpt>
      <trkpt lat="45.00149" lon="7.12871">
        <ele>860</ele>
        <time>2019-04-17T23:33:40Z</time>
      </trkpt>
      <trkpt lat="45.00213" lon="7.12834">
        <ele>863</ele>
        <time>2019-04-17T23:34:40Z</time>
      </trkpt>
      <trkpt lat="45.00307" lon="7.12766">
        <ele>868</ele>
        <time>2019-04-17T23:35:40Z</time>
      </trkpt>
      <trkpt lat="45.00343" lon="7.12735">
        <ele>869</ele>
        <time>2019-04-17T23:36:40Z</time>
      </trkpt>
      <trkpt lat="45.0039" lon="7.12663">
        <ele>875</ele>
        <time>2019-04-17T23:37:40Z</time>
      </trkpt>
      <trkpt lat="45.00415" lon="7.12614">
        <ele>877</ele>
        <time>2019-04-17T23:38:40Z</time>
      </trkpt>
      <trkpt lat="45.00423" lon="7.12557">
        <ele>880</ele>
        <time>2019-04-17T23:39:40Z</time>
      </trkpt>
      <trkpt lat="45.00435" lon="7.12508">
        <ele>882</ele>
        <time>2019-04-17T23:40:40Z</time>
      </trkpt>
      <trkpt lat="45.0046" lon="7.12475">
        <ele>887</ele>
        <time>2019-04-17T23:41:40Z</time>
      </trkpt>
      <trkpt lat="45.00541" lon="7.12434">
        <ele>897</ele>
        <time>2019-04-17T23:42:40Z</time>
      </trkpt>
      <trkpt lat="45.00636" lon="7.12361">
        <ele>905</ele>
        <time>2019-04-17T23:43:40Z</time>
      </trkpt>
      <trkpt lat="45.00664" lon="7.12319">
        <ele>906</ele>
        <time>2019-04-17T23:44:40Z</time>
      </trkpt>
      <trkpt lat="45.00698" lon="7.12237">
        <ele>905</ele>
        <time>2019-04-17T23:45:40Z</time>
      </trkpt>
      <trkpt lat="45.00726" lon="7.12197">
        <ele>907</ele>
        <time>2019-04-17T23:46:40Z</time>
      </trkpt>
      <trkpt lat="45.0077" lon="7.12147">
        <ele>910</ele>
        <time>2019-04-17T23:47:40Z</time>
      </trkpt>
      <trkpt lat="45.01135" lon="7.11793">
        <ele>941</ele>
        <time>2019-04-17T23:48:40Z</time>
      </trkpt>
      <trkpt lat="45.01189" lon="7.11758">
        <ele>942</ele>
        <time>2019-04-17T23:49:40Z</time>
      </trkpt>
      <trkpt lat="45.01217" lon="7.1175">
        <ele>945</ele>
        <time>2019-04-17T23:50:40Z</time>
      </trkpt>
      <trkpt lat="45.01294" lon="7.11742">
        <ele>956</ele>
        <time>2019-04-17T23:51:40Z</time>
      </trkpt>
      <trkpt lat="45.01323" lon="7.11733">
        <ele>958</ele>
        <time>2019-04-17T23:52:40Z</time>
      </trkpt>
      <trkpt lat="45.01391" lon="7.11694">
        <ele>959</ele>
        <time>2019-04-17T23:53:40Z</time>
      </trkpt>
      <trkpt lat="45.01459" lon="7.11673">
        <ele>964</ele>
        <time>2019-04-17T23:54:40Z</time>
      </trkpt>
      <trkpt lat="45.0148" lon="7.1166">
        <ele>965</ele>
        <time>2019-04-17T23:55:40Z</time>
      </trkpt>
      <trkpt lat="45.01562" lon="7.116">
        <ele>971</ele>
        <time>2019-04-17T23:56:40Z</time>
      </trkpt>
      <trkpt lat="45.01589" lon="7.11578">
        <ele>973</ele>
        <time>2019-04-17T23:57:40Z</time>
      </trkpt>
      <trkpt lat="45.01603" lon="7.11558">
        <ele>975</ele>
        <time>2019-04-17T23:58:40Z</time>
      </trkpt>
      <trkpt lat="45.01851" lon="7.111">
        <ele>987</ele>
        <time>2019-04-17T23:59:40Z</time>
      </trkpt>
      <trkpt lat="45.01872" lon="7.11073">
        <ele>987</ele>
        <time>2019-04-18T00:00:40Z</time>
      </trkpt>
      <trkpt lat="45.01891" lon="7.11055">
        <ele>987</ele>
        <time>2019-04-18T00:01:40Z</time>
      </trkpt>
      <trkpt lat="45.02072" lon="7.10898">
        <ele>993</ele>
        <time>2019-04-18T00:02:40Z</time>
      </trkpt>
      <trkpt lat="45.021" lon="7.10864">
        <ele>997</ele>
        <time>2019-04-18T00:03:40Z</time>
      </trkpt>
      <trkpt lat="45.02117" lon="7.10831">
        <ele>999</ele>
        <time>2019-04-18T00:04:40Z</time>
      </trkpt>
      <trkpt lat="45.02156" lon="7.10721">
        <ele>997</ele>
        <time>2019-04-18T00:05:40Z</time>
      </trkpt>
      <trkpt lat="45.02226" lon="7.10515">
        <ele>1006</ele>
        <time>2019-04-18T00:06:40Z</time>
      </trkpt>
      <trkpt lat="45.02255" lon="7.10423">
        <ele>1008</ele>
        <time>2019-04-18T00:07:40Z</time>
      </trkpt>
      <trkpt lat="45.02272" lon="7.10356">
        <ele>1016</ele>
        <time>2019-04-18T00:08:40Z</time>
      </trkpt>
      <trkpt lat="45.02276" lon="7.10317">
        <ele>1019</ele>
        <time>2019-04-18T00:09:40Z</time>
      </trkpt>
      <trkpt lat="45.02284" lon="7.10194">
        <ele>1028</ele>
        <time>2019-04-18T00:10:40Z</time>
      </trkpt>
      <trkpt lat="45.02281" lon="7.10121">
        <ele>1032</ele>
        <time>2019-04-18T00:11:40Z</time>
      </trkpt>
      <trkpt lat="45.02276" lon="7.10092">
        <ele>1031</ele>
        <time>2019-04-18T00:12:40Z</time>
      </trkpt>
      <trkpt lat="45.02257" lon="7.10037">
        <ele>1031</ele>
        <time>2019-04-18T00:13:40Z</time>
      </trkpt>
      <trkpt lat="45.02249" lon="7.10018">
        <ele>1031</ele>
        <time>2019-04-18T00:14:40Z</time>
      </trkpt>
      <trkpt lat="45.02219" lon="7.09973">
        <ele>1025</ele>
        <time>2019-04-18T00:15:40Z</time>
      </trkpt>
      <trkpt lat="45.02211" lon="7.09945">
        <ele>1025</ele>
        <time>2019-04-18T00:16:40Z</time>
      </trkpt>
      <trkpt lat="45.02207" lon="7.09829">
        <ele>1031</ele>
        <time>2019-04-18T00:17:40Z</time>
      </trkpt>
      <trkpt lat="45.02205" lon="7.09738">
        <ele>1033</ele>
        <time>2019-04-18T00:18:40Z</time>
      </trkpt>
      <trkpt lat="45.022" lon="7.09673">
        <ele>1027</ele>
        <time>2019-04-18T00:19:40Z</time>
      </trkpt>
      <trkpt lat="45.02207" lon="7.09636">
        <ele>1028</ele>
        <time>2019-04-18T00:20:40Z</time>
      </trkpt>
      <trkpt lat="45.02218" lon="7.09601">
        <ele>1030</ele>
        <time>2019-04-18T00:21:40Z</time>
      </trkpt>
      <trkpt lat="45.02239" lon="7.09553">
        <ele>1034</ele>
        <time>2019-04-18T00:22:40Z</time>
      </trkpt>
      <trkpt lat="45.02277" lon="7.09484">
        <ele>1038</ele>
        <time>2019-04-18T00:23:40Z</time>
      </trkpt>
      <trkpt lat="45.02299" lon="7.09433">
        <ele>1041</ele>
        <time>2019-04-18T00:24:40Z</time>
      </trkpt>
      <trkpt lat="45.02341" lon="7.09298">
        <ele>1045</ele>
        <time>2019-04-18T00:25:40Z</time>
      </trkpt>
      <trkpt lat="45.02376" lon="7.09067">
        <ele>1046</ele>
        <time>2019-04-18T00:26:40Z</time>
      </trkpt>
      <trkpt lat="45.02381" lon="7.09014">
        <ele>1047</ele>
        <time>2019-04-18T00:27:40Z</time>
      </trkpt>
      <trkpt lat="45.02384" lon="7.08844">
        <ele>1045</ele>
        <time>2019-04-18T00:28:40Z</time>
      </trkpt>
      <trkpt lat="45.02387" lon="7.08807">
        <ele>1045</ele>
        <time>2019-04-18T00:29:40Z</time>
      </trkpt>
      <trkpt lat="45.02398" lon="7.08758">
        <ele>1045</ele>
        <time>2019-04-18T00:30:40Z</time>
      </trkpt>
      <trkpt lat="45.02422" lon="7.08713">
        <ele>1046</ele>
        <time>2019-04-18T00:31:40Z</time>
      </trkpt>
      <trkpt lat="45.02468" lon="7.08646">
        <ele>1048</ele>
        <time>2019-04-18T00:32:40Z</time>
      </trkpt>
      <trkpt lat="45.02477" lon="7.08625">
        <ele>1049</ele>
        <time>2019-04-18T00:33:40Z</time>
      </trkpt>
      <trkpt lat="45.02486" lon="7.08595">
        <ele>1049</ele>
        <time>2019-04-18T00:34:40Z</time>
      </trkpt>
      <trkpt lat="45.02502" lon="7.08503">
        <ele>1049</ele>
        <time>2019-04-18T00:35:40Z</time>
      </trkpt>
      <trkpt lat="45.02505" lon="7.08482">
        <ele>1050</ele>
        <time>2019-04-18T00:36:40Z</time>
      </trkpt>
      <trkpt lat="45.02509" lon="7.08406">
        <ele>1053</ele>
        <time>2019-04-18T00:37:40Z</time>
      </trkpt>
      <trkpt lat="45.02507" lon="7.08367">
        <ele>1054</ele>
        <time>2019-04-18T00:38:40Z</time>
      </trkpt>
      <trkpt lat="45.02499" lon="7.08337">
        <ele>1053</ele>
        <time>2019-04-18T00:39:40Z</time>
      </trkpt>
      <trkpt lat="45.02483" lon="7.08303">
        <ele>1050</ele>
        <time>2019-04-18T00:40:40Z</time>
      </trkpt>
      <trkpt lat="45.02477" lon="7.08281">
        <ele>1050</ele>
        <time>2019-04-18T00:41:40Z</time>
      </trkpt>
      <trkpt lat="45.02461" lon="7.08192">
        <ele>1048</ele>
        <time>2019-04-18T00:42:40Z</time>
      </trkpt>
      <trkpt lat="45.02458" lon="7.08168">
        <ele>1048</ele>
        <time>2019-04-18T00:43:40Z</time>
      </trkpt>
      <trkpt lat="45.02458" lon="7.08152">
        <ele>1048</ele>
        <time>2019-04-18T00:44:40Z</time>
      </trkpt>
      <trkpt lat="45.02478" lon="7.0807">
        <ele>1050</ele>
        <time>2019-04-18T00:45:40Z</time>
      </trkpt>
      <trkpt lat="45.02485" lon="7.08053">
        <ele>1050</ele>
        <time>2019-04-18T00:46:40Z</time>
      </trkpt>
      <trkpt lat="45.02491" lon="7.08042">
        <ele>1050</ele>
        <time>2019-04-18T00:47:40Z</time>
      </trkpt>
      <trkpt lat="45.02527" lon="7.07993">
        <ele>1056</ele>
        <time>2019-04-18T00:48:40Z</time>
      </trkpt>
      <trkpt lat="45.02537" lon="7.07974">
        <ele>1058</ele>
        <time>2019-04-18T00:49:40Z</time>
      </trkpt>
      <trkpt lat="45.02548" lon="7.07942">
        <ele>1060</ele>
        <time>2019-04-18T00:50:40Z</time>
      </trkpt>
      <trkpt lat="45.02586" lon="7.07852">
        <ele>1064</ele>
        <time>2019-04-18T00:51:40Z</time>
      </trkpt>
      <trkpt lat="45.02594" lon="7.07825">
        <ele>1065</ele>
        <time>2019-04-18T00:52:40Z</time>
      </trkpt>
      <trkpt lat="45.02603" lon="7.07781">
        <ele>1065</ele>
        <time>2019-04-18T00:53:40Z</time>
      </trkpt>
      <trkpt lat="45.02618" lon="7.07697">
        <ele>1069</ele>
        <time>2019-04-18T00:54:40Z</time>
      </trkpt>
      <trkpt lat="45.02618" lon="7.07672">
        <ele>1069</ele>
        <time>2019-04-18T00:55:40Z</time>
      </trkpt>
      <trkpt lat="45.02616" lon="7.0764">
        <ele>1068</ele>
        <time>2019-04-18T00:56:40Z</time>
      </trkpt>
      <trkpt lat="45.02613" lon="7.07619">
        <ele>1068</ele>
        <time>2019-04-18T00:57:40Z</time>
      </trkpt>
      <trkpt lat="45.02602" lon="7.07577">
        <ele>1064</ele>
        <time>2019-04-18T00:58:40Z</time>
      </trkpt>
      <trkpt lat="45.02601" lon="7.07561">
        <ele>1063</ele>
        <time>2019-04-18T00:59:40Z</time>
      </trkpt>
      <trkpt lat="45.02602" lon="7.07542">
        <ele>1063</ele>
        <time>2019-04-18T01:00:40Z</time>
      </trkpt>
      <trkpt lat="45.0261" lon="7.0751">
        <ele>1067</ele>
        <time>2019-04-18T01:01:40Z</time>
      </trkpt>
      <trkpt lat="45.02629" lon="7.07443">
        <ele>1071</ele>
        <time>2019-04-18T01:02:40Z</time>
      </trkpt>
      <trkpt lat="45.02638" lon="7.07404">
        <ele>1072</ele>
        <time>2019-04-18T01:03:40Z</time>
      </trkpt>
      <trkpt lat="45.02659" lon="7.07284">
        <ele>1073</ele>
        <time>2019-04-18T01:04:40Z</time>
      </trkpt>
      <trkpt lat="45.02665" lon="7.07236">
        <ele>1073</ele>
        <time>2019-04-18T01:05:40Z</time>
      </trkpt>
      <trkpt lat="45.02673" lon="7.06934">
        <ele>1086</ele>
        <time>2019-04-18T01:06:40Z</time>
      </trkpt>
      <trkpt lat="45.02673" lon="7.0691">
        <ele>1087</ele>
        <time>2019-04-18T01:07:40Z</time>
      </trkpt>
      <trkpt lat="45.02668" lon="7.06871">
        <ele>1084</ele>
        <time>2019-04-18T01:08:40Z</time>
      </trkpt>
      <trkpt lat="45.02644" lon="7.06809">
        <ele>1078</ele>
        <time>2019-04-18T01:09:40Z</time>
      </trkpt>
      <trkpt lat="45.0264" lon="7.06791">
        <ele>1077</ele>
        <time>2019-04-18T01:10:40Z</time>
      </trkpt>
      <trkpt lat="45.0264" lon="7.06766">
        <ele>1078</ele>
        <time>2019-04-18T01:11:40Z</time>
      </trkpt>
      <trkpt lat="45.02646" lon="7.06752">
        <ele>1079</ele>
        <time>2019-04-18T01:12:40Z</time>
      </trkpt>
      <trkpt lat="45.02685" lon="7.06684">
        <ele>1087</ele>
        <time>2019-04-18T01:13:40Z</time>
      </trkpt>
      <trkpt lat="45.02693" lon="7.06656">
        <ele>1090</ele>
        <time>2019-04-18T01:14:40Z</time>
      </trkpt>
      <trkpt lat="45.02702" lon="7.06593">
        <ele>1092</ele>
        <time>2019-04-18T01:15:40Z</time>
      </trkpt>
      <trkpt lat="45.02706" lon="7.06521">
        <ele>1093</ele>
        <time>2019-04-18T01:16:40Z</time>
      </trkpt>
      <trkpt lat="45.02726" lon="7.06291">
        <ele>1101</ele>
        <time>2019-04-18T01:17:40Z</time>
      </trkpt>
      <trkpt lat="45.02738" lon="7.06217">
        <ele>1098</ele>
        <time>2019-04-18T01:18:40Z</time>
      </trkpt>
      <trkpt lat="45.02746" lon="7.06171">
        <ele>1095</ele>
        <time>2019-04-18T01:19:40Z</time>
      </trkpt>
      <trkpt lat="45.02753" lon="7.06145">
        <ele>1095</ele>
        <time>2019-04-18T01:20:40Z</time>
      </trkpt>
      <trkpt lat="45.02764" lon="7.06113">
        <ele>1099</ele>
        <time>2019-04-18T01:21:40Z</time>
      </trkpt>
      <trkpt lat="45.02767" lon="7.06095">
        <ele>1099</ele>
        <time>2019-04-18T01:22:40Z</time>
      </trkpt>
      <trkpt lat="45.02771" lon="7.06025">
        <ele>1104</ele>
        <time>2019-04-18T01:23:40Z</time>
      </trkpt>
      <trkpt lat="45.02771" lon="7.06003">
        <ele>1106</ele>
        <time>2019-04-18T01:24:40Z</time>
      </trkpt>
      <trkpt lat="45.02769" lon="7.05983">
        <ele>1108</ele>
        <time>2019-04-18T01:25:40Z</time>
      </trkpt>
      <trkpt lat="45.02763" lon="7.05952">
        <ele>1110</ele>
        <time>2019-04-18T01:26:40Z</time>
      </trkpt>
      <trkpt lat="45.02749" lon="7.05906">
        <ele>1109</ele>
        <time>2019-04-18T01:27:40Z</time>
      </trkpt>
      <trkpt lat="45.02742" lon="7.05852">
        <ele>1113</ele>
        <time>2019-04-18T01:28:40Z</time>
      </trkpt>
      <trkpt lat="45.02736" lon="7.05822">
        <ele>1113</ele>
        <time>2019-04-18T01:29:40Z</time>
      </trkpt>
      <trkpt lat="45.02731" lon="7.05806">
        <ele>1112</ele>
        <time>2019-04-18T01:30:40Z</time>
      </trkpt>
      <trkpt lat="45.02726" lon="7.05795">
        <ele>1111</ele>
        <time>2019-04-18T01:31:40Z</time>
      </trkpt>
      <trkpt lat="45.02713" lon="7.05779">
        <ele>1107</ele>
        <time>2019-04-18T01:32:40Z</time>
      </trkpt>
      <trkpt lat="45.02675" lon="7.05749">
        <ele>1096</ele>
        <time>2019-04-18T01:33:40Z</time>
      </trkpt>
      <trkpt lat="45.02669" lon="7.05742">
        <ele>1094</ele>
        <time>2019-04-18T01:34:40Z</time>
      </trkpt>
      <trkpt lat="45.02666" lon="7.05734">
        <ele>1093</ele>
        <time>2019-04-18T01:35:40Z</time>
      </trkpt>
      <trkpt lat="45.02664" lon="7.05724">
        <ele>1092</ele>
        <time>2019-04-18T01:36:40Z</time>
      </trkpt>
      <trkpt lat="45.02665" lon="7.05714">
        <ele>1092</ele>
        <time>2019-04-18T01:37:40Z</time>
      </trkpt>
      <trkpt lat="45.02668" lon="7.05705">
        <ele>1093</ele>
        <time>2019-04-18T01:38:40Z</time>
      </trkpt>
      <trkpt lat="45.02673" lon="7.05697">
        <ele>1094</ele>
        <time>2019-04-18T01:39:40Z</time>
      </trkpt>
      <trkpt lat="45.02696" lon="7.05679">
        <ele>1098</ele>
        <time>2019-04-18T01:40:40Z</time>
      </trkpt>
      <trkpt lat="45.02713" lon="7.05669">
        <ele>1101</ele>
        <time>2019-04-18T01:41:40Z</time>
      </trkpt>
      <trkpt lat="45.02739" lon="7.05661">
        <ele>1104</ele>
        <time>2019-04-18T01:42:40Z</time>
      </trkpt>
      <trkpt lat="45.02824" lon="7.05647">
        <ele>1115</ele>
        <time>2019-04-18T01:43:40Z</time>
      </trkpt>
      <trkpt lat="45.02884" lon="7.0563">
        <ele>1118</ele>
        <time>2019-04-18T01:44:40Z</time>
      </trkpt>
      <trkpt lat="45.02943" lon="7.05634">
        <ele>1122</ele>
        <time>2019-04-18T01:45:40Z</time>
      </trkpt>
      <trkpt lat="45.02961" lon="7.0564">
        <ele>1123</ele>
        <time>2019-04-18T01:46:40Z</time>
      </trkpt>
      <trkpt lat="45.02997" lon="7.05666">
        <ele>1130</ele>
        <time>2019-04-18T01:47:40Z</time>
      </trkpt>
      <trkpt lat="45.03023" lon="7.05678">
        <ele>1135</ele>
        <time>2019-04-18T01:48:40Z</time>
      </trkpt>
      <trkpt lat="45.03053" lon="7.05679">
        <ele>1136</ele>
        <time>2019-04-18T01:49:40Z</time>
      </trkpt>
      <trkpt lat="45.03073" lon="7.05672">
        <ele>1134</ele>
        <time>2019-04-18T01:50:40Z</time>
      </trkpt>
      <trkpt lat="45.03088" lon="7.05665">
        <ele>1133</ele>
        <time>2019-04-18T01:51:40Z</time>
      </trkpt>
      <trkpt lat="45.03279" lon="7.05533">
        <ele>1144</ele>
        <time>2019-04-18T01:52:40Z</time>
      </trkpt>
      <trkpt lat="45.03295" lon="7.05514">
        <ele>1144</ele>
        <time>2019-04-18T01:53:40Z</time>
      </trkpt>
      <trkpt lat="45.03301" lon="7.05502">
        <ele>1143</ele>
        <time>2019-04-18T01:54:40Z</time>
      </trkpt>
      <trkpt lat="45.03319" lon="7.05451">
        <ele>1143</ele>
        <time>2019-04-18T01:55:40Z</time>
      </trkpt>
      <trkpt lat="45.03321" lon="7.05447">
        <ele>1143</ele>
        <time>2019-04-18T01:56:40Z</time>
      </trkpt>
      <trkpt lat="45.0333" lon="7.05444">
        <ele>1145</ele>
        <time>2019-04-18T01:57:40Z</time>
      </trkpt>
      <trkpt lat="45.03333" lon="7.05438">
        <ele>1145</ele>
        <time>2019-04-18T01:58:40Z</time>
      </trkpt>
      <trkpt lat="45.03347" lon="7.05436">
        <ele>1148</ele>
        <time>2019-04-18T01:59:40Z</time>
      </trkpt>
      <trkpt lat="45.03397" lon="7.05411">
        <ele>1155</ele>
        <time>2019-04-18T02:00:40Z</time>
      </trkpt>
      <trkpt lat="45.03401" lon="7.05411">
        <ele>1155</ele>
        <time>2019-04-18T02:01:40Z</time>
      </trkpt>
      <trkpt lat="45.03409" lon="7.05416">
        <ele>1157</ele>
        <time>2019-04-18T02:02:40Z</time>
      </trkpt>
      <trkpt lat="45.0341" lon="7.05421">
        <ele>1158</ele>
        <time>2019-04-18T02:03:40Z</time>
      </trkpt>
      <trkpt lat="45.0341" lon="7.05427">
        <ele>1160</ele>
        <time>2019-04-18T02:04:40Z</time>
      </trkpt>
      <trkpt lat="45.03403" lon="7.05437">
        <ele>1160</ele>
        <time>2019-04-18T02:05:40Z</time>
      </trkpt>
      <trkpt lat="45.03403" lon="7.05443">
        <ele>1161</ele>
        <time>2019-04-18T02:06:40Z</time>
      </trkpt>
      <trkpt lat="45.03426" lon="7.05426">
        <ele>1162</ele>
        <time>2019-04-18T02:07:40Z</time>
      </trkpt>
      <trkpt lat="45.03438" lon="7.0541">
        <ele>1162</ele>
        <time>2019-04-18T02:08:40Z</time>
      </trkpt>
      <trkpt lat="45.03456" lon="7.05375">
        <ele>1161</ele>
        <time>2019-04-18T02:09:40Z</time>
      </trkpt>
      <trkpt lat="45.0347" lon="7.05355">
        <ele>1160</ele>
        <time>2019-04-18T02:10:40Z</time>
      </trkpt>
      <trkpt lat="45.03502" lon="7.05329">
        <ele>1161</ele>
        <time>2019-04-18T02:11:40Z</time>
      </trkpt>
      <trkpt lat="45.0351" lon="7.05321">
        <ele>1163</ele>
        <time>2019-04-18T02:12:40Z</time>
      </trkpt>
      <trkpt lat="45.03519" lon="7.05306">
        <ele>1165</ele>
        <time>2019-04-18T02:13:40Z</time>
      </trkpt>
      <trkpt lat="45.03526" lon="7.05283">
        <ele>1167</ele>
        <time>2019-04-18T02:14:40Z</time>
      </trkpt>
      <trkpt lat="45.03529" lon="7.05253">
        <ele>1167</ele>
        <time>2019-04-18T02:15:40Z</time>
      </trkpt>
      <trkpt lat="45.03525" lon="7.05211">
        <ele>1164</ele>
        <time>2019-04-18T02:16:40Z</time>
      </trkpt>
      <trkpt lat="45.03527" lon="7.05184">
        <ele>1163</ele>
        <time>2019-04-18T02:17:40Z</time>
      </trkpt>
      <trkpt lat="45.03538" lon="7.0516">
        <ele>1162</ele>
        <time>2019-04-18T02:18:40Z</time>
      </trkpt>
      <trkpt lat="45.03546" lon="7.05151">
        <ele>1162</ele>
        <time>2019-04-18T02:19:40Z</time>
      </trkpt>
      <trkpt lat="45.03558" lon="7.0514">
        <ele>1163</ele>
        <time>2019-04-18T02:20:40Z</time>
      </trkpt>
      <trkpt lat="45.03606" lon="7.05102">
        <ele>1166</ele>
        <time>2019-04-18T02:21:40Z</time>
      </trkpt>
      <trkpt lat="45.03619" lon="7.05087">
        <ele>1166</ele>
        <time>2019-04-18T02:22:40Z</time>
      </trkpt>
      <trkpt lat="45.03629" lon="7.05068">
        <ele>1166</ele>
        <time>2019-04-18T02:23:40Z</time>
      </trkpt>
      <trkpt lat="45.03634" lon="7.05046">
        <ele>1165</ele>
        <time>2019-04-18T02:24:40Z</time>
      </trkpt>
      <trkpt lat="45.03648" lon="7.04878">
        <ele>1164</ele>
        <time>2019-04-18T02:25:40Z</time>
      </trkpt>
      <trkpt lat="45.03651" lon="7.04863">
        <ele>1164</ele>
        <time>2019-04-18T02:26:40Z</time>
      </trkpt>
      <trkpt lat="45.0366" lon="7.04839">
        <ele>1166</ele>
        <time>2019-04-18T02:27:40Z</time>
      </trkpt>
      <trkpt lat="45.03675" lon="7.04814">
        <ele>1165</ele>
        <time>2019-04-18T02:28:40Z</time>
      </trkpt>
      <trkpt lat="45.03682" lon="7.04805">
        <ele>1165</ele>
        <time>2019-04-18T02:29:40Z</time>
      </trkpt>
      <trkpt lat="45.03711" lon="7.04785">
        <ele>1167</ele>
        <time>2019-04-18T02:30:40Z</time>
      </trkpt>
      <trkpt lat="45.03741" lon="7.04748">
        <ele>1169</ele>
        <time>2019-04-18T02:31:40Z</time>
      </trkpt>
      <trkpt lat="45.03813" lon="7.04682">
        <ele>1174</ele>
        <time>2019-04-18T02:32:40Z</time>
      </trkpt>
      <trkpt lat="45.03892" lon="7.04607">
        <ele>1183</ele>
        <time>2019-04-18T02:33:40Z</time>
      </trkpt>
      <trkpt lat="45.03972" lon="7.04521">
        <ele>1196</ele>
        <time>2019-04-18T02:34:40Z</time>
      </trkpt>
      <trkpt lat="45.04004" lon="7.0448">
        <ele>1203</ele>
        <time>2019-04-18T02:35:40Z</time>
      </trkpt>
      <trkpt lat="45.04017" lon="7.04454">
        <ele>1208</ele>
        <time>2019-04-18T02:36:40Z</time>
      </trkpt>
      <trkpt lat="45.04028" lon="7.04421">
        <ele>1210</ele>
        <time>2019-04-18T02:37:40Z</time>
      </trkpt>
      <trkpt lat="45.04031" lon="7.04391">
        <ele>1209</ele>
        <time>2019-04-18T02:38:40Z</time>
      </trkpt>
      <trkpt lat="45.04029" lon="7.04319">
        <ele>1203</ele>
        <time>2019-04-18T02:39:40Z</time>
      </trkpt>
      <trkpt lat="45.04032" lon="7.04298">
        <ele>1204</ele>
        <time>2019-04-18T02:40:40Z</time>
      </trkpt>
      <trkpt lat="45.04042" lon="7.0426">
        <ele>1207</ele>
        <time>2019-04-18T02:41:40Z</time>
      </trkpt>
      <trkpt lat="45.04052" lon="7.04213">
        <ele>1209</ele>
        <time>2019-04-18T02:42:40Z</time>
      </trkpt>
      <trkpt lat="45.04077" lon="7.04146">
        <ele>1218</ele>
        <time>2019-04-18T02:43:40Z</time>
      </trkpt>
      <trkpt lat="45.04093" lon="7.04113">
        <ele>1224</ele>
        <time>2019-04-18T02:44:40Z</time>
      </trkpt>
      <trkpt lat="45.04099" lon="7.04032">
        <ele>1230</ele>
        <time>2019-04-18T02:45:40Z</time>
      </trkpt>
      <trkpt lat="45.04107" lon="7.0401">
        <ele>1236</ele>
        <time>2019-04-18T02:46:40Z</time>
      </trkpt>
      <trkpt lat="45.04162" lon="7.03936">
        <ele>1261</ele>
        <time>2019-04-18T02:47:40Z</time>
      </trkpt>
      <trkpt lat="45.0425" lon="7.03889">
        <ele>1301</ele>
        <time>2019-04-18T02:48:40Z</time>
      </trkpt>
      <trkpt lat="45.04352" lon="7.03704">
        <ele>1354</ele>
        <time>2019-04-18T02:49:40Z</time>
      </trkpt>
      <trkpt lat="45.04369" lon="7.035">
        <ele>1321</ele>
        <time>2019-04-18T02:50:40Z</time>
      </trkpt>
      <trkpt lat="45.04368" lon="7.03275">
        <ele>1268</ele>
        <time>2019-04-18T02:51:40Z</time>
      </trkpt>
      <trkpt lat="45.04375" lon="7.03239">
        <ele>1265</ele>
        <time>2019-04-18T02:52:40Z</time>
      </trkpt>
      <trkpt lat="45.04394" lon="7.03185">
        <ele>1270</ele>
        <time>2019-04-18T02:53:40Z</time>
      </trkpt>
      <trkpt lat="45.04403" lon="7.03144">
        <ele>1275</ele>
        <time>2019-04-18T02:54:40Z</time>
      </trkpt>
      <trkpt lat="45.0441" lon="7.03099">
        <ele>1280</ele>
        <time>2019-04-18T02:55:40Z</time>
      </trkpt>
      <trkpt lat="45.0441" lon="7.03065">
        <ele>1282</ele>
        <time>2019-04-18T02:56:40Z</time>
      </trkpt>
      <trkpt lat="45.04405" lon="7.0303">
        <ele>1282</ele>
        <time>2019-04-18T02:57:40Z</time>
      </trkpt>
      <trkpt lat="45.04401" lon="7.03012">
        <ele>1281</ele>
        <time>2019-04-18T02:58:40Z</time>
      </trkpt>
      <trkpt lat="45.04401" lon="7.02994">
        <ele>1283</ele>
        <time>2019-04-18T02:59:40Z</time>
      </trkpt>
      <trkpt lat="45.04404" lon="7.02974">
        <ele>1285</ele>
        <time>2019-04-18T03:00:40Z</time>
      </trkpt>
      <trkpt lat="45.04415" lon="7.02934">
        <ele>1292</ele>
        <time>2019-04-18T03:01:40Z</time>
      </trkpt>
      <trkpt lat="45.04436" lon="7.02754">
        <ele>1300</ele>
        <time>2019-04-18T03:02:40Z</time>
      </trkpt>
      <trkpt lat="45.04437" lon="7.02729">
        <ele>1303</ele>
        <time>2019-04-18T03:03:40Z</time>
      </trkpt>
      <trkpt lat="45.04435" lon="7.02705">
        <ele>1306</ele>
        <time>2019-04-18T03:04:40Z</time>
      </trkpt>
      <trkpt lat="45.04431" lon="7.02689">
        <ele>1307</ele>
        <time>2019-04-18T03:05:40Z</time>
      </trkpt>
      <trkpt lat="45.04419" lon="7.02665">
        <ele>1307</ele>
        <time>2019-04-18T03:06:40Z</time>
      </trkpt>
      <trkpt lat="45.04414" lon="7.02651">
        <ele>1304</ele>
        <time>2019-04-18T03:07:40Z</time>
      </trkpt>
      <trkpt lat="45.04413" lon="7.02639">
        <ele>1302</ele>
        <time>2019-04-18T03:08:40Z</time>
      </trkpt>
      <trkpt lat="45.04415" lon="7.02627">
        <ele>1302</ele>
        <time>2019-04-18T03:09:40Z</time>
      </trkpt>
      <trkpt lat="45.04422" lon="7.02608">
        <ele>1304</ele>
        <time>2019-04-18T03:10:40Z</time>
      </trkpt>
      <trkpt lat="45.04446" lon="7.02558">
        <ele>1304</ele>
        <time>2019-04-18T03:11:40Z</time>
      </trkpt>
      <trkpt lat="45.04457" lon="7.02548">
        <ele>1306</ele>
        <time>2019-04-18T03:12:40Z</time>
      </trkpt>
      <trkpt lat="45.04482" lon="7.02534">
        <ele>1315</ele>
        <time>2019-04-18T03:13:40Z</time>
      </trkpt>
      <trkpt lat="45.0449" lon="7.02521">
        <ele>1317</ele>
        <time>2019-04-18T03:14:40Z</time>
      </trkpt>
      <trkpt lat="45.04494" lon="7.02501">
        <ele>1316</ele>
        <time>2019-04-18T03:15:40Z</time>
      </trkpt>
      <trkpt lat="45.04502" lon="7.0248">
        <ele>1316</ele>
        <time>2019-04-18T03:16:40Z</time>
      </trkpt>
      <trkpt lat="45.04512" lon="7.0246">
        <ele>1315</ele>
        <time>2019-04-18T03:17:40Z</time>
      </trkpt>
      <trkpt lat="45.0453" lon="7.02444">
        <ele>1319</ele>
        <time>2019-04-18T03:18:40Z</time>
      </trkpt>
      <trkpt lat="45.04556" lon="7.024">
        <ele>1323</ele>
        <time>2019-04-18T03:19:40Z</time>
      </trkpt>
      <trkpt lat="45.04561" lon="7.02384">
        <ele>1325</ele>
        <time>2019-04-18T03:20:40Z</time>
      </trkpt>
      <trkpt lat="45.04571" lon="7.02313">
        <ele>1327</ele>
        <time>2019-04-18T03:21:40Z</time>
      </trkpt>
      <trkpt lat="45.04579" lon="7.02281">
        <ele>1331</ele>
        <time>2019-04-18T03:22:40Z</time>
      </trkpt>
      <trkpt lat="45.04598" lon="7.02234">
        <ele>1339</ele>
        <time>2019-04-18T03:23:40Z</time>
      </trkpt>
      <trkpt lat="45.04605" lon="7.0219">
        <ele>1345</ele>
        <time>2019-04-18T03:24:40Z</time>
      </trkpt>
      <trkpt lat="45.04616" lon="7.02007">
        <ele>1365</ele>
        <time>2019-04-18T03:25:40Z</time>
      </trkpt>
      <trkpt lat="45.04613" lon="7.01973">
        <ele>1365</ele>
        <time>2019-04-18T03:26:40Z</time>
      </trkpt>
      <trkpt lat="45.04594" lon="7.01919">
        <ele>1359</ele>
        <time>2019-04-18T03:27:40Z</time>
      </trkpt>
      <trkpt lat="45.04579" lon="7.01891">
        <ele>1359</ele>
        <time>2019-04-18T03:28:40Z</time>
      </trkpt>
      <trkpt lat="45.04541" lon="7.01849">
        <ele>1351</ele>
        <time>2019-04-18T03:29:40Z</time>
      </trkpt>
      <trkpt lat="45.04532" lon="7.01832">
        <ele>1350</ele>
        <time>2019-04-18T03:30:40Z</time>
      </trkpt>
      <trkpt lat="45.0453" lon="7.01817">
        <ele>1349</ele>
        <time>2019-04-18T03:31:40Z</time>
      </trkpt>
      <trkpt lat="45.0453" lon="7.018">
        <ele>1350</ele>
        <time>2019-04-18T03:32:40Z</time>
      </trkpt>
      <trkpt lat="45.0454" lon="7.01776">
        <ele>1354</ele>
        <time>2019-04-18T03:33:40Z</time>
      </trkpt>
      <trkpt lat="45.04564" lon="7.01746">
        <ele>1365</ele>
        <time>2019-04-18T03:34:40Z</time>
      </trkpt>
      <trkpt lat="45.04574" lon="7.017">
        <ele>1368</ele>
        <time>2019-04-18T03:35:40Z</time>
      </trkpt>
      <trkpt lat="45.0458" lon="7.01683">
        <ele>1370</ele>
        <time>2019-04-18T03:36:40Z</time>
      </trkpt>
      <trkpt lat="45.04587" lon="7.01622">
        <ele>1373</ele>
        <time>2019-04-18T03:37:40Z</time>
      </trkpt>
      <trkpt lat="45.04588" lon="7.01593">
        <ele>1373</ele>
        <time>2019-04-18T03:38:40Z</time>
      </trkpt>
      <trkpt lat="45.04584" lon="7.01576">
        <ele>1371</ele>
        <time>2019-04-18T03:39:40Z</time>
      </trkpt>
      <trkpt lat="45.04564" lon="7.01532">
        <ele>1368</ele>
        <time>2019-04-18T03:40:40Z</time>
      </trkpt>
      <trkpt lat="45.04559" lon="7.01507">
        <ele>1368</ele>
        <time>2019-04-18T03:41:40Z</time>
      </trkpt>
      <trkpt lat="45.04559" lon="7.01485">
        <ele>1370</ele>
        <time>2019-04-18T03:42:40Z</time>
      </trkpt>
      <trkpt lat="45.04566" lon="7.01459">
        <ele>1373</ele>
        <time>2019-04-18T03:43:40Z</time>
      </trkpt>
      <trkpt lat="45.04575" lon="7.01435">
        <ele>1377</ele>
        <time>2019-04-18T03:44:40Z</time>
      </trkpt>
      <trkpt lat="45.04578" lon="7.01413">
        <ele>1378</ele>
        <time>2019-04-18T03:45:40Z</time>
      </trkpt>
      <trkpt lat="45.04578" lon="7.01388">
        <ele>1377</ele>
        <time>2019-04-18T03:46:40Z</time>
      </trkpt>
      <trkpt lat="45.04574" lon="7.01341">
        <ele>1375</ele>
        <time>2019-04-18T03:47:40Z</time>
      </trkpt>
      <trkpt lat="45.04575" lon="7.0131">
        <ele>1375</ele>
        <time>2019-04-18T03:48:40Z</time>
      </trkpt>
      <trkpt lat="45.04581" lon="7.01266">
        <ele>1375</ele>
        <time>2019-04-18T03:49:40Z</time>
      </trkpt>
      <trkpt lat="45.04582" lon="7.01197">
        <ele>1377</ele>
        <time>2019-04-18T03:50:40Z</time>
      </trkpt>
      <trkpt lat="45.04588" lon="7.01135">
        <ele>1386</ele>
        <time>2019-04-18T03:51:40Z</time>
      </trkpt>
      <trkpt lat="45.04587" lon="7.0111">
        <ele>1390</ele>
        <time>2019-04-18T03:52:40Z</time>
      </trkpt>
      <trkpt lat="45.04553" lon="7.00942">
        <ele>1398</ele>
        <time>2019-04-18T03:53:40Z</time>
      </trkpt>
      <trkpt lat="45.0455" lon="7.00901">
        <ele>1396</ele>
        <time>2019-04-18T03:54:40Z</time>
      </trkpt>
      <trkpt lat="45.04555" lon="7.00872">
        <ele>1395</ele>
        <time>2019-04-18T03:55:40Z</time>
      </trkpt>
      <trkpt lat="45.0457" lon="7.00844">
        <ele>1395</ele>
        <time>2019-04-18T03:56:40Z</time>
      </trkpt>
      <trkpt lat="45.04604" lon="7.00809">
        <ele>1398</ele>
        <time>2019-04-18T03:57:40Z</time>
      </trkpt>
      <trkpt lat="45.04693" lon="7.00738">
        <ele>1404</ele>
        <time>2019-04-18T03:58:40Z</time>
      </trkpt>
      <trkpt lat="45.04716" lon="7.00709">
        <ele>1405</ele>
        <time>2019-04-18T03:59:40Z</time>
      </trkpt>
      <trkpt lat="45.04735" lon="7.00678">
        <ele>1405</ele>
        <time>2019-04-18T04:00:40Z</time>
      </trkpt>
      <trkpt lat="45.04746" lon="7.0065">
        <ele>1405</ele>
        <time>2019-04-18T04:01:40Z</time>
      </trkpt>
      <trkpt lat="45.04753" lon="7.00624">
        <ele>1405</ele>
        <time>2019-04-18T04:02:40Z</time>
      </trkpt>
      <trkpt lat="45.04755" lon="7.00504">
        <ele>1402</ele>
        <time>2019-04-18T04:03:40Z</time>
      </trkpt>
      <trkpt lat="45.04754" lon="7.00431">
        <ele>1403</ele>
        <time>2019-04-18T04:04:40Z</time>
      </trkpt>
      <trkpt lat="45.04759" lon="7.00371">
        <ele>1406</ele>
        <time>2019-04-18T04:05:40Z</time>
      </trkpt>
      <trkpt lat="45.04769" lon="7.00355">
        <ele>1410</ele>
        <time>2019-04-18T04:06:40Z</time>
      </trkpt>
      <trkpt lat="45.04777" lon="7.00333">
        <ele>1414</ele>
        <time>2019-04-18T04:07:40Z</time>
      </trkpt>
      <trkpt lat="45.04779" lon="7.00274">
        <ele>1418</ele>
        <time>2019-04-18T04:08:40Z</time>
      </trkpt>
      <trkpt lat="45.04775" lon="7.00241">
        <ele>1418</ele>
        <time>2019-04-18T04:09:40Z</time>
      </trkpt>
      <trkpt lat="45.04762" lon="7.00165">
        <ele>1422</ele>
        <time>2019-04-18T04:10:40Z</time>
      </trkpt>
      <trkpt lat="45.04749" lon="7.00135">
        <ele>1418</ele>
        <time>2019-04-18T04:11:40Z</time>
      </trkpt>
      <trkpt lat="45.04686" lon="7.00101">
        <ele>1411</ele>
        <time>2019-04-18T04:12:40Z</time>
      </trkpt>
      <trkpt lat="45.04663" lon="7.00071">
        <ele>1409</ele>
        <time>2019-04-18T04:13:40Z</time>
      </trkpt>
      <trkpt lat="45.04636" lon="7.00018">
        <ele>1411</ele>
        <time>2019-04-18T04:14:40Z</time>
      </trkpt>
      <trkpt lat="45.04617" lon="6.99962">
        <ele>1413</ele>
        <time>2019-04-18T04:15:40Z</time>
      </trkpt>
      <trkpt lat="45.04604" lon="6.99915">
        <ele>1415</ele>
        <time>2019-04-18T04:16:40Z</time>
      </trkpt>
      <trkpt lat="45.046" lon="6.99861">
        <ele>1416</ele>
        <time>2019-04-18T04:17:40Z</time>
      </trkpt>
      <trkpt lat="45.04619" lon="6.99605">
        <ele>1420</ele>
        <time>2019-04-18T04:18:40Z</time>
      </trkpt>
      <trkpt lat="45.04619" lon="6.99576">
        <ele>1421</ele>
        <time>2019-04-18T04:19:40Z</time>
      </trkpt>
      <trkpt lat="45.04614" lon="6.99535">
        <ele>1423</ele>
        <time>2019-04-18T04:20:40Z</time>
      </trkpt>
      <trkpt lat="45.04603" lon="6.99492">
        <ele>1423</ele>
        <time>2019-04-18T04:21:40Z</time>
      </trkpt>
      <trkpt lat="45.04524" lon="6.99258">
        <ele>1426</ele>
        <time>2019-04-18T04:22:40Z</time>
      </trkpt>
      <trkpt lat="45.04482" lon="6.99102">
        <ele>1427</ele>
        <time>2019-04-18T04:23:40Z</time>
      </trkpt>
      <trkpt lat="45.04408" lon="6.98927">
        <ele>1429</ele>
        <time>2019-04-18T04:24:40Z</time>
      </trkpt>
      <trkpt lat="45.04393" lon="6.98895">
        <ele>1431</ele>
        <time>2019-04-18T04:25:40Z</time>
      </trkpt>
      <trkpt lat="45.04345" lon="6.98831">
        <ele>1423</ele>
        <time>2019-04-18T04:26:40Z</time>
      </trkpt>
      <trkpt lat="45.04332" lon="6.98797">
        <ele>1421</ele>
        <time>2019-04-18T04:27:40Z</time>
      </trkpt>
      <trkpt lat="45.04329" lon="6.98762">
        <ele>1424</ele>
        <time>2019-04-18T04:28:40Z</time>
      </trkpt>
      <trkpt lat="45.04343" lon="6.98655">
        <ele>1431</ele>
        <time>2019-04-18T04:29:40Z</time>
      </trkpt>
      <trkpt lat="45.04341" lon="6.9862">
        <ele>1435</ele>
        <time>2019-04-18T04:30:40Z</time>
      </trkpt>
      <trkpt lat="45.04275" lon="6.98344">
        <ele>1436</ele>
        <time>2019-04-18T04:31:40Z</time>
      </trkpt>
      <trkpt lat="45.04263" lon="6.98313">
        <ele>1435</ele>
        <time>2019-04-18T04:32:40Z</time>
      </trkpt>
      <trkpt lat="45.04244" lon="6.98283">
        <ele>1432</ele>
        <time>2019-04-18T04:33:40Z</time>
      </trkpt>
      <trkpt lat="45.0423" lon="6.98251">
        <ele>1433</ele>
        <time>2019-04-18T04:34:40Z</time>
      </trkpt>
      <trkpt lat="45.04223" lon="6.9822">
        <ele>1434</ele>
        <time>2019-04-18T04:35:40Z</time>
      </trkpt>
      <trkpt lat="45.04214" lon="6.98157">
        <ele>1438</ele>
        <time>2019-04-18T04:36:40Z</time>
      </trkpt>
      <trkpt lat="45.04178" lon="6.98023">
        <ele>1442</ele>
        <time>2019-04-18T04:37:40Z</time>
      </trkpt>
      <trkpt lat="45.04156" lon="6.97953">
        <ele>1445</ele>
        <time>2019-04-18T04:38:40Z</time>
      </trkpt>
      <trkpt lat="45.04143" lon="6.97922">
        <ele>1446</ele>
        <time>2019-04-18T04:39:40Z</time>
      </trkpt>
      <trkpt lat="45.04134" lon="6.97903">
        <ele>1446</ele>
        <time>2019-04-18T04:40:40Z</time>
      </trkpt>
      <trkpt lat="45.04117" lon="6.97882">
        <ele>1444</ele>
        <time>2019-04-18T04:41:40Z</time>
      </trkpt>
      <trkpt lat="45.04098" lon="6.97866">
        <ele>1439</ele>
        <time>2019-04-18T04:42:40Z</time>
      </trkpt>
      <trkpt lat="45.04076" lon="6.97851">
        <ele>1434</ele>
        <time>2019-04-18T04:43:40Z</time>
      </trkpt>
      <trkpt lat="45.04059" lon="6.97836">
        <ele>1434</ele>
        <time>2019-04-18T04:44:40Z</time>
      </trkpt>
      <trkpt lat="45.04046" lon="6.97811">
        <ele>1435</ele>
        <time>2019-04-18T04:45:40Z</time>
      </trkpt>
      <trkpt lat="45.04037" lon="6.97774">
        <ele>1439</ele>
        <time>2019-04-18T04:46:40Z</time>
      </trkpt>
      <trkpt lat="45.04034" lon="6.97733">
        <ele>1442</ele>
        <time>2019-04-18T04:47:40Z</time>
      </trkpt>
      <trkpt lat="45.04032" lon="6.97659">
        <ele>1446</ele>
        <time>2019-04-18T04:48:40Z</time>
      </trkpt>
      <trkpt lat="45.04027" lon="6.97618">
        <ele>1449</ele>
        <time>2019-04-18T04:49:40Z</time>
      </trkpt>
      <trkpt lat="45.04013" lon="6.9756">
        <ele>1449</ele>
        <time>2019-04-18T04:50:40Z</time>
      </trkpt>
      <trkpt lat="45.03989" lon="6.97495">
        <ele>1448</ele>
        <time>2019-04-18T04:51:40Z</time>
      </trkpt>
      <trkpt lat="45.03957" lon="6.97425">
        <ele>1454</ele>
        <time>2019-04-18T04:52:40Z</time>
      </trkpt>
      <trkpt lat="45.03914" lon="6.97349">
        <ele>1453</ele>
        <time>2019-04-18T04:53:40Z</time>
      </trkpt>
      <trkpt lat="45.03871" lon="6.97294">
        <ele>1454</ele>
        <time>2019-04-18T04:54:40Z</time>
      </trkpt>
      <trkpt lat="45.03822" lon="6.97225">
        <ele>1454</ele>
        <time>2019-04-18T04:55:40Z</time>
      </trkpt>
      <trkpt lat="45.03767" lon="6.97133">
        <ele>1455</ele>
        <time>2019-04-18T04:56:40Z</time>
      </trkpt>
      <trkpt lat="45.03719" lon="6.97059">
        <ele>1454</ele>
        <time>2019-04-18T04:57:40Z</time>
      </trkpt>
      <trkpt lat="45.03714" lon="6.97045">
        <ele>1454</ele>
        <time>2019-04-18T04:58:40Z</time>
      </trkpt>
      <trkpt lat="45.03709" lon="6.97021">
        <ele>1454</ele>
        <time>2019-04-18T04:59:40Z</time>
      </trkpt>
      <trkpt lat="45.03706" lon="6.96973">
        <ele>1456</ele>
        <time>2019-04-18T05:00:40Z</time>
      </trkpt>
      <trkpt lat="45.03701" lon="6.96937">
        <ele>1458</ele>
        <time>2019-04-18T05:01:40Z</time>
      </trkpt>
      <trkpt lat="45.03681" lon="6.96882">
        <ele>1458</ele>
        <time>2019-04-18T05:02:40Z</time>
      </trkpt>
      <trkpt lat="45.03623" lon="6.96729">
        <ele>1469</ele>
        <time>2019-04-18T05:03:40Z</time>
      </trkpt>
      <trkpt lat="45.03579" lon="6.9664">
        <ele>1470</ele>
        <time>2019-04-18T05:04:40Z</time>
      </trkpt>
      <trkpt lat="45.03557" lon="6.96607">
        <ele>1473</ele>
        <time>2019-04-18T05:05:40Z</time>
      </trkpt>
      <trkpt lat="45.03533" lon="6.96584">
        <ele>1471</ele>
        <time>2019-04-18T05:06:40Z</time>
      </trkpt>
      <trkpt lat="45.03504" lon="6.96564">
        <ele>1467</ele>
        <time>2019-04-18T05:07:40Z</time>
      </trkpt>
      <trkpt lat="45.03477" lon="6.96551">
        <ele>1467</ele>
        <time>2019-04-18T05:08:40Z</time>
      </trkpt>
      <trkpt lat="45.03416" lon="6.96549">
        <ele>1463</ele>
        <time>2019-04-18T05:09:40Z</time>
      </trkpt>
      <trkpt lat="45.03395" lon="6.96543">
        <ele>1464</ele>
        <time>2019-04-18T05:10:40Z</time>
      </trkpt>
      <trkpt lat="45.03353" lon="6.96512">
        <ele>1468</ele>
        <time>2019-04-18T05:11:40Z</time>
      </trkpt>
      <trkpt lat="45.03276" lon="6.96447">
        <ele>1472</ele>
        <time>2019-04-18T05:12:40Z</time>
      </trkpt>
      <trkpt lat="45.0324" lon="6.96404">
        <ele>1472</ele>
        <time>2019-04-18T05:13:40Z</time>
      </trkpt>
      <trkpt lat="45.03214" lon="6.9637">
        <ele>1470</ele>
        <time>2019-04-18T05:14:40Z</time>
      </trkpt>
      <trkpt lat="45.03201" lon="6.96341">
        <ele>1470</ele>
        <time>2019-04-18T05:15:40Z</time>
      </trkpt>
      <trkpt lat="45.03198" lon="6.96304">
        <ele>1470</ele>
        <time>2019-04-18T05:16:40Z</time>
      </trkpt>
      <trkpt lat="45.03204" lon="6.96234">
        <ele>1473</ele>
        <time>2019-04-18T05:17:40Z</time>
      </trkpt>
      <trkpt lat="45.03203" lon="6.96199">
        <ele>1475</ele>
        <time>2019-04-18T05:18:40Z</time>
      </trkpt>
      <trkpt lat="45.03195" lon="6.9616">
        <ele>1477</ele>
        <time>2019-04-18T05:19:40Z</time>
      </trkpt>
      <trkpt lat="45.0319" lon="6.96145">
        <ele>1478</ele>
        <time>2019-04-18T05:20:40Z</time>
      </trkpt>
      <trkpt lat="45.03163" lon="6.96104">
        <ele>1477</ele>
        <time>2019-04-18T05:21:40Z</time>
      </trkpt>
      <trkpt lat="45.03066" lon="6.96016">
        <ele>1472</ele>
        <time>2019-04-18T05:22:40Z</time>
      </trkpt>
      <trkpt lat="45.03043" lon="6.95986">
        <ele>1475</ele>
        <time>2019-04-18T05:23:40Z</time>
      </trkpt>
      <trkpt lat="45.03015" lon="6.95931">
        <ele>1479</ele>
        <time>2019-04-18T05:24:40Z</time>
      </trkpt>
      <trkpt lat="45.02937" lon="6.95802">
        <ele>1491</ele>
        <time>2019-04-18T05:25:40Z</time>
      </trkpt>
      <trkpt lat="45.02913" lon="6.95765">
        <ele>1492</ele>
        <time>2019-04-18T05:26:40Z</time>
      </trkpt>
      <trkpt lat="45.02871" lon="6.95736">
        <ele>1491</ele>
        <time>2019-04-18T05:27:40Z</time>
      </trkpt>
      <trkpt lat="45.02834" lon="6.95695">
        <ele>1488</ele>
        <time>2019-04-18T05:28:40Z</time>
      </trkpt>
      <trkpt lat="45.02795" lon="6.95637">
        <ele>1495</ele>
        <time>2019-04-18T05:29:40Z</time>
      </trkpt>
      <trkpt lat="45.0277" lon="6.95609">
        <ele>1493</ele>
        <time>2019-04-18T05:30:40Z</time>
      </trkpt>
      <trkpt lat="45.02731" lon="6.95575">
        <ele>1492</ele>
        <time>2019-04-18T05:31:40Z</time>
      </trkpt>
      <trkpt lat="45.02646" lon="6.95507">
        <ele>1499</ele>
        <time>2019-04-18T05:32:40Z</time>
      </trkpt>
      <trkpt lat="45.02621" lon="6.95479">
        <ele>1506</ele>
        <time>2019-04-18T05:33:40Z</time>
      </trkpt>
      <trkpt lat="45.02609" lon="6.95453">
        <ele>1507</ele>
        <time>2019-04-18T05:34:40Z</time>
      </trkpt>
      <trkpt lat="45.02585" lon="6.95389">
        <ele>1502</ele>
        <time>2019-04-18T05:35:40Z</time>
      </trkpt>
      <trkpt lat="45.0257" lon="6.95356">
        <ele>1506</ele>
        <time>2019-04-18T05:36:40Z</time>
      </trkpt>
      <trkpt lat="45.02541" lon="6.95313">
        <ele>1509</ele>
        <time>2019-04-18T05:37:40Z</time>
      </trkpt>
      <trkpt lat="45.02459" lon="6.95207">
        <ele>1511</ele>
        <time>2019-04-18T05:38:40Z</time>
      </trkpt>
      <trkpt lat="45.02389" lon="6.95128">
        <ele>1508</ele>
        <time>2019-04-18T05:39:40Z</time>
      </trkpt>
      <trkpt lat="45.02338" lon="6.9505">
        <ele>1508</ele>
        <time>2019-04-18T05:40:40Z</time>
      </trkpt>
      <trkpt lat="45.02306" lon="6.95009">
        <ele>1509</ele>
        <time>2019-04-18T05:41:40Z</time>
      </trkpt>
      <trkpt lat="45.02277" lon="6.94986">
        <ele>1506</ele>
        <time>2019-04-18T05:42:40Z</time>
      </trkpt>
      <trkpt lat="45.02196" lon="6.94952">
        <ele>1504</ele>
        <time>2019-04-18T05:43:40Z</time>
      </trkpt>
      <trkpt lat="45.02137" lon="6.94923">
        <ele>1502</ele>
        <time>2019-04-18T05:44:40Z</time>
      </trkpt>
      <trkpt lat="45.02103" lon="6.94896">
        <ele>1503</ele>
        <time>2019-04-18T05:45:40Z</time>
      </trkpt>
      <trkpt lat="45.02038" lon="6.9483">
        <ele>1502</ele>
        <time>2019-04-18T05:46:40Z</time>
      </trkpt>
      <trkpt lat="45.01981" lon="6.94762">
        <ele>1504</ele>
        <time>2019-04-18T05:47:40Z</time>
      </trkpt>
      <trkpt lat="45.01951" lon="6.9473">
        <ele>1504</ele>
        <time>2019-04-18T05:48:40Z</time>
      </trkpt>
      <trkpt lat="45.01955" lon="6.94717">
        <ele>1504</ele>
        <time>2019-04-18T05:49:40Z</time>
      </trkpt>
      <trkpt lat="45.01952" lon="6.94704">
        <ele>1504</ele>
        <time>2019-04-18T05:50:40Z</time>
      </trkpt>
      <trkpt lat="45.01948" lon="6.94699">
        <ele>1504</ele>
        <time>2019-04-18T05:51:40Z</time>
      </trkpt>
      <trkpt lat="45.01939" lon="6.94695">
        <ele>1504</ele>
        <time>2019-04-18T05:52:40Z</time>
      </trkpt>
      <trkpt lat="45.0193" lon="6.94699">
        <ele>1503</ele>
        <time>2019-04-18T05:53:40Z</time>
      </trkpt>
      <trkpt lat="45.01911" lon="6.94665">
        <ele>1503</ele>
        <time>2019-04-18T05:54:40Z</time>
      </trkpt>
      <trkpt lat="45.01864" lon="6.94605">
        <ele>1507</ele>
        <time>2019-04-18T05:55:40Z</time>
      </trkpt>
      <trkpt lat="45.01741" lon="6.94434">
        <ele>1511</ele>
        <time>2019-04-18T05:56:40Z</time>
      </trkpt>
      <trkpt lat="45.01699" lon="6.94383">
        <ele>1511</ele>
        <time>2019-04-18T05:57:40Z</time>
      </trkpt>
      <trkpt lat="45.01665" lon="6.94339">
        <ele>1511</ele>
        <time>2019-04-18T05:58:40Z</time>
      </trkpt>
      <trkpt lat="45.01634" lon="6.94294">
        <ele>1512</ele>
        <time>2019-04-18T05:59:40Z</time>
      </trkpt>
      <trkpt lat="45.01583" lon="6.94232">
        <ele>1514</ele>
        <time>2019-04-18T06:00:40Z</time>
      </trkpt>
      <trkpt lat="45.01552" lon="6.94209">
        <ele>1515</ele>
        <time>2019-04-18T06:01:40Z</time>
      </trkpt>
      <trkpt lat="45.01537" lon="6.942">
        <ele>1516</ele>
        <time>2019-04-18T06:02:40Z</time>
      </trkpt>
      <trkpt lat="45.01358" lon="6.94115">
        <ele>1525</ele>
        <time>2019-04-18T06:03:40Z</time>
      </trkpt>
      <trkpt lat="45.01329" lon="6.94093">
        <ele>1526</ele>
        <time>2019-04-18T06:04:40Z</time>
      </trkpt>
      <trkpt lat="45.0131" lon="6.94074">
        <ele>1527</ele>
        <time>2019-04-18T06:05:40Z</time>
      </trkpt>
      <trkpt lat="45.0125" lon="6.93997">
        <ele>1533</ele>
        <time>2019-04-18T06:06:40Z</time>
      </trkpt>
      <trkpt lat="45.01143" lon="6.93902">
        <ele>1533</ele>
        <time>2019-04-18T06:07:40Z</time>
      </trkpt>
      <trkpt lat="45.01117" lon="6.93871">
        <ele>1533</ele>
        <time>2019-04-18T06:08:40Z</time>
      </trkpt>
      <trkpt lat="45.01098" lon="6.93826">
        <ele>1533</ele>
        <time>2019-04-18T06:09:40Z</time>
      </trkpt>
      <trkpt lat="45.0109" lon="6.93783">
        <ele>1533</ele>
        <time>2019-04-18T06:10:40Z</time>
      </trkpt>
      <trkpt lat="45.01091" lon="6.93736">
        <ele>1534</ele>
        <time>2019-04-18T06:11:40Z</time>
      </trkpt>
      <trkpt lat="45.01084" lon="6.93677">
        <ele>1533</ele>
        <time>2019-04-18T06:12:40Z</time>
      </trkpt>
      <trkpt lat="45.01068" lon="6.93614">
        <ele>1534</ele>
        <time>2019-04-18T06:13:40Z</time>
      </trkpt>
      <trkpt lat="45.01053" lon="6.93571">
        <ele>1535</ele>
        <time>2019-04-18T06:14:40Z</time>
      </trkpt>
      <trkpt lat="45.01032" lon="6.9353">
        <ele>1538</ele>
        <time>2019-04-18T06:15:40Z</time>
      </trkpt>
      <trkpt lat="45.01008" lon="6.93501">
        <ele>1539</ele>
        <time>2019-04-18T06:16:40Z</time>
      </trkpt>
      <trkpt lat="45.00804" lon="6.93373">
        <ele>1542</ele>
        <time>2019-04-18T06:17:40Z</time>
      </trkpt>
      <trkpt lat="45.00782" lon="6.93369">
        <ele>1542</ele>
        <time>2019-04-18T06:18:40Z</time>
      </trkpt>
      <trkpt lat="45.00759" lon="6.93372">
        <ele>1542</ele>
        <time>2019-04-18T06:19:40Z</time>
      </trkpt>
      <trkpt lat="45.00736" lon="6.93366">
        <ele>1542</ele>
        <time>2019-04-18T06:20:40Z</time>
      </trkpt>
      <trkpt lat="45.00718" lon="6.93345">
        <ele>1543</ele>
        <time>2019-04-18T06:21:40Z</time>
      </trkpt>
      <trkpt lat="45.007" lon="6.93291">
        <ele>1547</ele>
        <time>2019-04-18T06:22:40Z</time>
      </trkpt>
      <trkpt lat="45.00687" lon="6.93269">
        <ele>1548</ele>
        <time>2019-04-18T06:23:40Z</time>
      </trkpt>
      <trkpt lat="45.00596" lon="6.93193">
        <ele>1557</ele>
        <time>2019-04-18T06:24:40Z</time>
      </trkpt>
      <trkpt lat="45.00583" lon="6.93187">
        <ele>1557</ele>
        <time>2019-04-18T06:25:40Z</time>
      </trkpt>
      <trkpt lat="45.00542" lon="6.93179">
        <ele>1556</ele>
        <time>2019-04-18T06:26:40Z</time>
      </trkpt>
      <trkpt lat="45.00518" lon="6.93168">
        <ele>1555</ele>
        <time>2019-04-18T06:27:40Z</time>
      </trkpt>
      <trkpt lat="45.0047" lon="6.93138">
        <ele>1560</ele>
        <time>2019-04-18T06:28:40Z</time>
      </trkpt>
      <trkpt lat="45.00418" lon="6.931">
        <ele>1562</ele>
        <time>2019-04-18T06:29:40Z</time>
      </trkpt>
      <trkpt lat="45.00395" lon="6.93076">
        <ele>1564</ele>
        <time>2019-04-18T06:30:40Z</time>
      </trkpt>
      <trkpt lat="45.00367" lon="6.93032">
        <ele>1568</ele>
        <time>2019-04-18T06:31:40Z</time>
      </trkpt>
      <trkpt lat="45.00347" lon="6.92951">
        <ele>1576</ele>
        <time>2019-04-18T06:32:40Z</time>
      </trkpt>
      <trkpt lat="45.00334" lon="6.92916">
        <ele>1577</ele>
        <time>2019-04-18T06:33:40Z</time>
      </trkpt>
      <trkpt lat="45.0031" lon="6.92881">
        <ele>1579</ele>
        <time>2019-04-18T06:34:40Z</time>
      </trkpt>
      <trkpt lat="45.00283" lon="6.92853">
        <ele>1580</ele>
        <time>2019-04-18T06:35:40Z</time>
      </trkpt>
      <trkpt lat="45.00105" lon="6.92716">
        <ele>1584</ele>
        <time>2019-04-18T06:36:40Z</time>
      </trkpt>
      <trkpt lat="45.00063" lon="6.92676">
        <ele>1588</ele>
        <time>2019-04-18T06:37:40Z</time>
      </trkpt>
      <trkpt lat="44.99966" lon="6.92563">
        <ele>1592</ele>
        <time>2019-04-18T06:38:40Z</time>
      </trkpt>
      <trkpt lat="44.99945" lon="6.92534">
        <ele>1593</ele>
        <time>2019-04-18T06:39:40Z</time>
      </trkpt>
      <trkpt lat="44.99928" lon="6.92503">
        <ele>1597</ele>
        <time>2019-04-18T06:40:40Z</time>
      </trkpt>
      <trkpt lat="44.99905" lon="6.92476">
        <ele>1597</ele>
        <time>2019-04-18T06:41:40Z</time>
      </trkpt>
      <trkpt lat="44.99886" lon="6.92451">
        <ele>1596</ele>
        <time>2019-04-18T06:42:40Z</time>
      </trkpt>
      <trkpt lat="44.99821" lon="6.92316">
        <ele>1600</ele>
        <time>2019-04-18T06:43:40Z</time>
      </trkpt>
      <trkpt lat="44.99813" lon="6.9228">
        <ele>1604</ele>
        <time>2019-04-18T06:44:40Z</time>
      </trkpt>
      <trkpt lat="44.9981" lon="6.92239">
        <ele>1610</ele>
        <time>2019-04-18T06:45:40Z</time>
      </trkpt>
      <trkpt lat="44.99799" lon="6.9221">
        <ele>1613</ele>
        <time>2019-04-18T06:46:40Z</time>
      </trkpt>
      <trkpt lat="44.99775" lon="6.92159">
        <ele>1613</ele>
        <time>2019-04-18T06:47:40Z</time>
      </trkpt>
      <trkpt lat="44.99761" lon="6.92134">
        <ele>1613</ele>
        <time>2019-04-18T06:48:40Z</time>
      </trkpt>
      <trkpt lat="44.99721" lon="6.9208">
        <ele>1612</ele>
        <time>2019-04-18T06:49:40Z</time>
      </trkpt>
      <trkpt lat="44.99706" lon="6.92043">
        <ele>1613</ele>
        <time>2019-04-18T06:50:40Z</time>
      </trkpt>
      <trkpt lat="44.99698" lon="6.92001">
        <ele>1617</ele>
        <time>2019-04-18T06:51:40Z</time>
      </trkpt>
      <trkpt lat="44.99693" lon="6.91948">
        <ele>1620</ele>
        <time>2019-04-18T06:52:40Z</time>
      </trkpt>
      <trkpt lat="44.99686" lon="6.91924">
        <ele>1620</ele>
        <time>2019-04-18T06:53:40Z</time>
      </trkpt>
      <trkpt lat="44.99691" lon="6.91918">
        <ele>1622</ele>
        <time>2019-04-18T06:54:40Z</time>
      </trkpt>
      <trkpt lat="44.99693" lon="6.91914">
        <ele>1623</ele>
        <time>2019-04-18T06:55:40Z</time>
      </trkpt>
      <trkpt lat="44.99693" lon="6.91909">
        <ele>1623</ele>
        <time>2019-04-18T06:56:40Z</time>
      </trkpt>
      <trkpt lat="44.99691" lon="6.919">
        <ele>1624</ele>
        <time>2019-04-18T06:57:40Z</time>
      </trkpt>
      <trkpt lat="44.99685" lon="6.91895">
        <ele>1622</ele>
        <time>2019-04-18T06:58:40Z</time>
      </trkpt>
      <trkpt lat="44.99676" lon="6.91898">
        <ele>1619</ele>
        <time>2019-04-18T06:59:40Z</time>
      </trkpt>
      <trkpt lat="44.99668" lon="6.91881">
        <ele>1619</ele>
        <time>2019-04-18T07:00:40Z</time>
      </trkpt>
      <trkpt lat="44.99631" lon="6.91826">
        <ele>1620</ele>
        <time>2019-04-18T07:01:40Z</time>
      </trkpt>
      <trkpt lat="44.99587" lon="6.91765">
        <ele>1622</ele>
        <time>2019-04-18T07:02:40Z</time>
      </trkpt>
      <trkpt lat="44.99521" lon="6.91692">
        <ele>1630</ele>
        <time>2019-04-18T07:03:40Z</time>
      </trkpt>
      <trkpt lat="44.99503" lon="6.91677">
        <ele>1630</ele>
        <time>2019-04-18T07:04:40Z</time>
      </trkpt>
      <trkpt lat="44.99487" lon="6.91672">
        <ele>1632</ele>
        <time>2019-04-18T07:05:40Z</time>
      </trkpt>
      <trkpt lat="44.99471" lon="6.91675">
        <ele>1634</ele>
        <time>2019-04-18T07:06:40Z</time>
      </trkpt>
      <trkpt lat="44.99425" lon="6.9171">
        <ele>1633</ele>
        <time>2019-04-18T07:07:40Z</time>
      </trkpt>
      <trkpt lat="44.99398" lon="6.9172">
        <ele>1631</ele>
        <time>2019-04-18T07:08:40Z</time>
      </trkpt>
      <trkpt lat="44.99368" lon="6.91725">
        <ele>1630</ele>
        <time>2019-04-18T07:09:40Z</time>
      </trkpt>
      <trkpt lat="44.99339" lon="6.91719">
        <ele>1632</ele>
        <time>2019-04-18T07:10:40Z</time>
      </trkpt>
      <trkpt lat="44.99132" lon="6.91617">
        <ele>1653</ele>
        <time>2019-04-18T07:11:40Z</time>
      </trkpt>
      <trkpt lat="44.99091" lon="6.91612">
        <ele>1653</ele>
        <time>2019-04-18T07:12:40Z</time>
      </trkpt>
      <trkpt lat="44.99055" lon="6.91594">
        <ele>1659</ele>
        <time>2019-04-18T07:13:40Z</time>
      </trkpt>
      <trkpt lat="44.99025" lon="6.9157">
        <ele>1665</ele>
        <time>2019-04-18T07:14:40Z</time>
      </trkpt>
      <trkpt lat="44.99011" lon="6.91568">
        <ele>1665</ele>
        <time>2019-04-18T07:15:40Z</time>
      </trkpt>
      <trkpt lat="44.98981" lon="6.91576">
        <ele>1662</ele>
        <time>2019-04-18T07:16:40Z</time>
      </trkpt>
      <trkpt lat="44.98965" lon="6.91573">
        <ele>1664</ele>
        <time>2019-04-18T07:17:40Z</time>
      </trkpt>
      <trkpt lat="44.98948" lon="6.91561">
        <ele>1669</ele>
        <time>2019-04-18T07:18:40Z</time>
      </trkpt>
      <trkpt lat="44.98939" lon="6.91558">
        <ele>1671</ele>
        <time>2019-04-18T07:19:40Z</time>
      </trkpt>
      <trkpt lat="44.98888" lon="6.91584">
        <ele>1666</ele>
        <time>2019-04-18T07:20:40Z</time>
      </trkpt>
      <trkpt lat="44.98873" lon="6.91586">
        <ele>1666</ele>
        <time>2019-04-18T07:21:40Z</time>
      </trkpt>
      <trkpt lat="44.98813" lon="6.91578">
        <ele>1668</ele>
        <time>2019-04-18T07:22:40Z</time>
      </trkpt>
      <trkpt lat="44.98778" lon="6.91578">
        <ele>1665</ele>
        <time>2019-04-18T07:23:40Z</time>
      </trkpt>
      <trkpt lat="44.98767" lon="6.91572">
        <ele>1666</ele>
        <time>2019-04-18T07:24:40Z</time>
      </trkpt>
      <trkpt lat="44.98764" lon="6.9156">
        <ele>1669</ele>
        <time>2019-04-18T07:25:40Z</time>
      </trkpt>
      <trkpt lat="44.98769" lon="6.91552">
        <ele>1672</ele>
        <time>2019-04-18T07:26:40Z</time>
      </trkpt>
      <trkpt lat="44.98778" lon="6.9155">
        <ele>1673</ele>
        <time>2019-04-18T07:27:40Z</time>
      </trkpt>
      <trkpt lat="44.98812" lon="6.91554">
        <ele>1675</ele>
        <time>2019-04-18T07:28:40Z</time>
      </trkpt>
      <trkpt lat="44.98851" lon="6.91552">
        <ele>1676</ele>
        <time>2019-04-18T07:29:40Z</time>
      </trkpt>
      <trkpt lat="44.98873" lon="6.91547">
        <ele>1677</ele>
        <time>2019-04-18T07:30:40Z</time>
      </trkpt>
      <trkpt lat="44.98887" lon="6.91541">
        <ele>1678</ele>
        <time>2019-04-18T07:31:40Z</time>
      </trkpt>
      <trkpt lat="44.98901" lon="6.91532">
        <ele>1680</ele>
        <time>2019-04-18T07:32:40Z</time>
      </trkpt>
      <trkpt lat="44.98925" lon="6.91504">
        <ele>1687</ele>
        <time>2019-04-18T07:33:40Z</time>
      </trkpt>
      <trkpt lat="44.98934" lon="6.91498">
        <ele>1689</ele>
        <time>2019-04-18T07:34:40Z</time>
      </trkpt>
      <trkpt lat="44.98962" lon="6.91496">
        <ele>1690</ele>
        <time>2019-04-18T07:35:40Z</time>
      </trkpt>
      <trkpt lat="44.99028" lon="6.91499">
        <ele>1692</ele>
        <time>2019-04-18T07:36:40Z</time>
      </trkpt>
      <trkpt lat="44.99095" lon="6.91508">
        <ele>1693</ele>
        <time>2019-04-18T07:37:40Z</time>
      </trkpt>
      <trkpt lat="44.99116" lon="6.91506">
        <ele>1694</ele>
        <time>2019-04-18T07:38:40Z</time>
      </trkpt>
      <trkpt lat="44.99137" lon="6.915">
        <ele>1698</ele>
        <time>2019-04-18T07:39:40Z</time>
      </trkpt>
      <trkpt lat="44.99177" lon="6.9148">
        <ele>1705</ele>
        <time>2019-04-18T07:40:40Z</time>
      </trkpt>
      <trkpt lat="44.99199" lon="6.91476">
        <ele>1707</ele>
        <time>2019-04-18T07:41:40Z</time>
      </trkpt>
      <trkpt lat="44.99336" lon="6.9147">
        <ele>1715</ele>
        <time>2019-04-18T07:42:40Z</time>
      </trkpt>
      <trkpt lat="44.9934" lon="6.91467">
        <ele>1715</ele>
        <time>2019-04-18T07:43:40Z</time>
      </trkpt>
      <trkpt lat="44.99343" lon="6.91461">
        <ele>1717</ele>
        <time>2019-04-18T07:44:40Z</time>
      </trkpt>
      <trkpt lat="44.99342" lon="6.91453">
        <ele>1720</ele>
        <time>2019-04-18T07:45:40Z</time>
      </trkpt>
      <trkpt lat="44.99337" lon="6.91449">
        <ele>1722</ele>
        <time>2019-04-18T07:46:40Z</time>
      </trkpt>
      <trkpt lat="44.99319" lon="6.91447">
        <ele>1722</ele>
        <time>2019-04-18T07:47:40Z</time>
      </trkpt>
      <trkpt lat="44.99258" lon="6.91448">
        <ele>1718</ele>
        <time>2019-04-18T07:48:40Z</time>
      </trkpt>
      <trkpt lat="44.99237" lon="6.91447">
        <ele>1717</ele>
        <time>2019-04-18T07:49:40Z</time>
      </trkpt>
      <trkpt lat="44.99162" lon="6.91421">
        <ele>1724</ele>
        <time>2019-04-18T07:50:40Z</time>
      </trkpt>
      <trkpt lat="44.99055" lon="6.91393">
        <ele>1733</ele>
        <time>2019-04-18T07:51:40Z</time>
      </trkpt>
      <trkpt lat="44.9898" lon="6.91368">
        <ele>1735</ele>
        <time>2019-04-18T07:52:40Z</time>
      </trkpt>
      <trkpt lat="44.98946" lon="6.91347">
        <ele>1741</ele>
        <time>2019-04-18T07:53:40Z</time>
      </trkpt>
      <trkpt lat="44.98886" lon="6.9133">
        <ele>1743</ele>
        <time>2019-04-18T07:54:40Z</time>
      </trkpt>
      <trkpt lat="44.98838" lon="6.91299">
        <ele>1751</ele>
        <time>2019-04-18T07:55:40Z</time>
      </trkpt>
      <trkpt lat="44.98796" lon="6.91281">
        <ele>1754</ele>
        <time>2019-04-18T07:56:40Z</time>
      </trkpt>
      <trkpt lat="44.98749" lon="6.91269">
        <ele>1755</ele>
        <time>2019-04-18T07:57:40Z</time>
      </trkpt>
      <trkpt lat="44.98721" lon="6.91252">
        <ele>1758</ele>
        <time>2019-04-18T07:58:40Z</time>
      </trkpt>
      <trkpt lat="44.98688" lon="6.91227">
        <ele>1761</ele>
        <time>2019-04-18T07:59:40Z</time>
      </trkpt>
      <trkpt lat="44.98667" lon="6.91206">
        <ele>1763</ele>
        <time>2019-04-18T08:00:40Z</time>
      </trkpt>
      <trkpt lat="44.98631" lon="6.91139">
        <ele>1775</ele>
        <time>2019-04-18T08:01:40Z</time>
      </trkpt>
      <trkpt lat="44.98617" lon="6.91127">
        <ele>1776</ele>
        <time>2019-04-18T08:02:40Z</time>
      </trkpt>
      <trkpt lat="44.98602" lon="6.9112">
        <ele>1776</ele>
        <time>2019-04-18T08:03:40Z</time>
      </trkpt>
      <trkpt lat="44.98563" lon="6.91112">
        <ele>1774</ele>
        <time>2019-04-18T08:04:40Z</time>
      </trkpt>
      <trkpt lat="44.98496" lon="6.91073">
        <ele>1783</ele>
        <time>2019-04-18T08:05:40Z</time>
      </trkpt>
      <trkpt lat="44.98462" lon="6.91069">
        <ele>1783</ele>
        <time>2019-04-18T08:06:40Z</time>
      </trkpt>
      <trkpt lat="44.98425" lon="6.91068">
        <ele>1783</ele>
        <time>2019-04-18T08:07:40Z</time>
      </trkpt>
      <trkpt lat="44.98397" lon="6.91071">
        <ele>1780</ele>
        <time>2019-04-18T08:08:40Z</time>
      </trkpt>
      <trkpt lat="44.98372" lon="6.91068">
        <ele>1779</ele>
        <time>2019-04-18T08:09:40Z</time>
      </trkpt>
      <trkpt lat="44.98352" lon="6.91058">
        <ele>1780</ele>
        <time>2019-04-18T08:10:40Z</time>
      </trkpt>
      <trkpt lat="44.98326" lon="6.91031">
        <ele>1784</ele>
        <time>2019-04-18T08:11:40Z</time>
      </trkpt>
      <trkpt lat="44.98305" lon="6.90995">
        <ele>1789</ele>
        <time>2019-04-18T08:12:40Z</time>
      </trkpt>
      <trkpt lat="44.98271" lon="6.90927">
        <ele>1800</ele>
        <time>2019-04-18T08:13:40Z</time>
      </trkpt>
      <trkpt lat="44.98255" lon="6.90902">
        <ele>1802</ele>
        <time>2019-04-18T08:14:40Z</time>
      </trkpt>
      <trkpt lat="44.98221" lon="6.90869">
        <ele>1804</ele>
        <time>2019-04-18T08:15:40Z</time>
      </trkpt>
      <trkpt lat="44.9819" lon="6.90847">
        <ele>1805</ele>
        <time>2019-04-18T08:16:40Z</time>
      </trkpt>
      <trkpt lat="44.98169" lon="6.90827">
        <ele>1807</ele>
        <time>2019-04-18T08:17:40Z</time>
      </trkpt>
      <trkpt lat="44.98145" lon="6.90801">
        <ele>1810</ele>
        <time>2019-04-18T08:18:40Z</time>
      </trkpt>
      <trkpt lat="44.98087" lon="6.90773">
        <ele>1808</ele>
        <time>2019-04-18T08:19:40Z</time>
      </trkpt>
      <trkpt lat="44.9805" lon="6.90747">
        <ele>1809</ele>
        <time>2019-04-18T08:20:40Z</time>
      </trkpt>
      <trkpt lat="44.98014" lon="6.90707">
        <ele>1816</ele>
        <time>2019-04-18T08:21:40Z</time>
      </trkpt>
      <trkpt lat="44.97955" lon="6.90627">
        <ele>1824</ele>
        <time>2019-04-18T08:22:40Z</time>
      </trkpt>
      <trkpt lat="44.97936" lon="6.90612">
        <ele>1822</ele>
        <time>2019-04-18T08:23:40Z</time>
      </trkpt>
      <trkpt lat="44.97922" lon="6.90586">
        <ele>1824</ele>
        <time>2019-04-18T08:24:40Z</time>
      </trkpt>
      <trkpt lat="44.97891" lon="6.90484">
        <ele>1828</ele>
        <time>2019-04-18T08:25:40Z</time>
      </trkpt>
      <trkpt lat="44.97884" lon="6.90454">
        <ele>1831</ele>
        <time>2019-04-18T08:26:40Z</time>
      </trkpt>
      <trkpt lat="44.97878" lon="6.90402">
        <ele>1841</ele>
        <time>2019-04-18T08:27:40Z</time>
      </trkpt>
      <trkpt lat="44.9787" lon="6.90372">
        <ele>1846</ele>
        <time>2019-04-18T08:28:40Z</time>
      </trkpt>
      <trkpt lat="44.97854" lon="6.90339">
        <ele>1847</ele>
        <time>2019-04-18T08:29:40Z</time>
      </trkpt>
      <trkpt lat="44.9782" lon="6.90277">
        <ele>1849</ele>
        <time>2019-04-18T08:30:40Z</time>
      </trkpt>
      <trkpt lat="44.97803" lon="6.90258">
        <ele>1846</ele>
        <time>2019-04-18T08:31:40Z</time>
      </trkpt>
      <trkpt lat="44.97794" lon="6.90236">
        <ele>1849</ele>
        <time>2019-04-18T08:32:40Z</time>
      </trkpt>
      <trkpt lat="44.97785" lon="6.90203">
        <ele>1854</ele>
        <time>2019-04-18T08:33:40Z</time>
      </trkpt>
      <trkpt lat="44.97776" lon="6.90181">
        <ele>1857</ele>
        <time>2019-04-18T08:34:40Z</time>
      </trkpt>
      <trkpt lat="44.97736" lon="6.90127">
        <ele>1861</ele>
        <time>2019-04-18T08:35:40Z</time>
      </trkpt>
      <trkpt lat="44.97714" lon="6.90108">
        <ele>1862</ele>
        <time>2019-04-18T08:36:40Z</time>
      </trkpt>
      <trkpt lat="44.97651" lon="6.90046">
        <ele>1866</ele>
        <time>2019-04-18T08:37:40Z</time>
      </trkpt>
      <trkpt lat="44.97629" lon="6.90037">
        <ele>1864</ele>
        <time>2019-04-18T08:38:40Z</time>
      </trkpt>
      <trkpt lat="44.97605" lon="6.9003">
        <ele>1862</ele>
        <time>2019-04-18T08:39:40Z</time>
      </trkpt>
      <trkpt lat="44.97578" lon="6.90011">
        <ele>1861</ele>
        <time>2019-04-18T08:40:40Z</time>
      </trkpt>
      <trkpt lat="44.97565" lon="6.8999">
        <ele>1863</ele>
        <time>2019-04-18T08:41:40Z</time>
      </trkpt>
      <trkpt lat="44.97524" lon="6.89911">
        <ele>1872</ele>
        <time>2019-04-18T08:42:40Z</time>
      </trkpt>
      <trkpt lat="44.97514" lon="6.89868">
        <ele>1874</ele>
        <time>2019-04-18T08:43:40Z</time>
      </trkpt>
      <trkpt lat="44.97506" lon="6.89798">
        <ele>1879</ele>
        <time>2019-04-18T08:44:40Z</time>
      </trkpt>
      <trkpt lat="44.975" lon="6.89675">
        <ele>1891</ele>
        <time>2019-04-18T08:45:40Z</time>
      </trkpt>
      <trkpt lat="44.97488" lon="6.89589">
        <ele>1896</ele>
        <time>2019-04-18T08:46:40Z</time>
      </trkpt>
      <trkpt lat="44.97486" lon="6.89533">
        <ele>1900</ele>
        <time>2019-04-18T08:47:40Z</time>
      </trkpt>
      <trkpt lat="44.97473" lon="6.89451">
        <ele>1906</ele>
        <time>2019-04-18T08:48:40Z</time>
      </trkpt>
      <trkpt lat="44.97474" lon="6.89422">
        <ele>1911</ele>
        <time>2019-04-18T08:49:40Z</time>
      </trkpt>
      <trkpt lat="44.97472" lon="6.89401">
        <ele>1915</ele>
        <time>2019-04-18T08:50:40Z</time>
      </trkpt>
      <trkpt lat="44.97468" lon="6.89392">
        <ele>1916</ele>
        <time>2019-04-18T08:51:40Z</time>
      </trkpt>
      <trkpt lat="44.97457" lon="6.89382">
        <ele>1915</ele>
        <time>2019-04-18T08:52:40Z</time>
      </trkpt>
      <trkpt lat="44.97445" lon="6.89375">
        <ele>1912</ele>
        <time>2019-04-18T08:53:40Z</time>
      </trkpt>
      <trkpt lat="44.97423" lon="6.8937">
        <ele>1906</ele>
        <time>2019-04-18T08:54:40Z</time>
      </trkpt>
      <trkpt lat="44.97403" lon="6.89359">
        <ele>1903</ele>
        <time>2019-04-18T08:55:40Z</time>
      </trkpt>
      <trkpt lat="44.97379" lon="6.89331">
        <ele>1904</ele>
        <time>2019-04-18T08:56:40Z</time>
      </trkpt>
      <trkpt lat="44.97362" lon="6.89297">
        <ele>1908</ele>
        <time>2019-04-18T08:57:40Z</time>
      </trkpt>
      <trkpt lat="44.9734" lon="6.89217">
        <ele>1924</ele>
        <time>2019-04-18T08:58:40Z</time>
      </trkpt>
      <trkpt lat="44.97326" lon="6.89191">
        <ele>1928</ele>
        <time>2019-04-18T08:59:40Z</time>
      </trkpt>
      <trkpt lat="44.97305" lon="6.89166">
        <ele>1927</ele>
        <time>2019-04-18T09:00:40Z</time>
      </trkpt>
      <trkpt lat="44.97228" lon="6.89017">
        <ele>1934</ele>
        <time>2019-04-18T09:01:40Z</time>
      </trkpt>
      <trkpt lat="44.97216" lon="6.88982">
        <ele>1937</ele>
        <time>2019-04-18T09:02:40Z</time>
      </trkpt>
      <trkpt lat="44.97206" lon="6.88933">
        <ele>1943</ele>
        <time>2019-04-18T09:03:40Z</time>
      </trkpt>
      <trkpt lat="44.97198" lon="6.88906">
        <ele>1946</ele>
        <time>2019-04-18T09:04:40Z</time>
      </trkpt>
      <trkpt lat="44.97158" lon="6.88864">
        <ele>1940</ele>
        <time>2019-04-18T09:05:40Z</time>
      </trkpt>
      <trkpt lat="44.97151" lon="6.88848">
        <ele>1940</ele>
        <time>2019-04-18T09:06:40Z</time>
      </trkpt>
      <trkpt lat="44.97145" lon="6.88826">
        <ele>1941</ele>
        <time>2019-04-18T09:07:40Z</time>
      </trkpt>
      <trkpt lat="44.97139" lon="6.88766">
        <ele>1948</ele>
        <time>2019-04-18T09:08:40Z</time>
      </trkpt>
      <trkpt lat="44.9714" lon="6.88738">
        <ele>1952</ele>
        <time>2019-04-18T09:09:40Z</time>
      </trkpt>
      <trkpt lat="44.97145" lon="6.88666">
        <ele>1961</ele>
        <time>2019-04-18T09:10:40Z</time>
      </trkpt>
      <trkpt lat="44.97144" lon="6.88652">
        <ele>1964</ele>
        <time>2019-04-18T09:11:40Z</time>
      </trkpt>
      <trkpt lat="44.97141" lon="6.8864">
        <ele>1966</ele>
        <time>2019-04-18T09:12:40Z</time>
      </trkpt>
      <trkpt lat="44.97132" lon="6.88626">
        <ele>1967</ele>
        <time>2019-04-18T09:13:40Z</time>
      </trkpt>
      <trkpt lat="44.97122" lon="6.88623">
        <ele>1967</ele>
        <time>2019-04-18T09:14:40Z</time>
      </trkpt>
      <trkpt lat="44.97105" lon="6.88625">
        <ele>1964</ele>
        <time>2019-04-18T09:15:40Z</time>
      </trkpt>
      <trkpt lat="44.97086" lon="6.88636">
        <ele>1959</ele>
        <time>2019-04-18T09:16:40Z</time>
      </trkpt>
      <trkpt lat="44.97067" lon="6.88642">
        <ele>1958</ele>
        <time>2019-04-18T09:17:40Z</time>
      </trkpt>
      <trkpt lat="44.97002" lon="6.88635">
        <ele>1961</ele>
        <time>2019-04-18T09:18:40Z</time>
      </trkpt>
      <trkpt lat="44.96969" lon="6.88626">
        <ele>1961</ele>
        <time>2019-04-18T09:19:40Z</time>
      </trkpt>
      <trkpt lat="44.9692" lon="6.88597">
        <ele>1968</ele>
        <time>2019-04-18T09:20:40Z</time>
      </trkpt>
      <trkpt lat="44.96891" lon="6.88567">
        <ele>1969</ele>
        <time>2019-04-18T09:21:40Z</time>
      </trkpt>
      <trkpt lat="44.96842" lon="6.88487">
        <ele>1973</ele>
        <time>2019-04-18T09:22:40Z</time>
      </trkpt>
      <trkpt lat="44.96821" lon="6.88432">
        <ele>1985</ele>
        <time>2019-04-18T09:23:40Z</time>
      </trkpt>
      <trkpt lat="44.96801" lon="6.88407">
        <ele>1989</ele>
        <time>2019-04-18T09:24:40Z</time>
      </trkpt>
      <trkpt lat="44.96745" lon="6.88375">
        <ele>1992</ele>
        <time>2019-04-18T09:25:40Z</time>
      </trkpt>
      <trkpt lat="44.96636" lon="6.88287">
        <ele>2008</ele>
        <time>2019-04-18T09:26:40Z</time>
      </trkpt>
      <trkpt lat="44.96623" lon="6.88286">
        <ele>2008</ele>
        <time>2019-04-18T09:27:40Z</time>
      </trkpt>
      <trkpt lat="44.96604" lon="6.88291">
        <ele>2005</ele>
        <time>2019-04-18T09:28:40Z</time>
      </trkpt>
      <trkpt lat="44.96585" lon="6.88303">
        <ele>1999</ele>
        <time>2019-04-18T09:29:40Z</time>
      </trkpt>
      <trkpt lat="44.96542" lon="6.88319">
        <ele>1999</ele>
        <time>2019-04-18T09:30:40Z</time>
      </trkpt>
      <trkpt lat="44.9647" lon="6.88335">
        <ele>2000</ele>
        <time>2019-04-18T09:31:40Z</time>
      </trkpt>
      <trkpt lat="44.96432" lon="6.88334">
        <ele>2003</ele>
        <time>2019-04-18T09:32:40Z</time>
      </trkpt>
      <trkpt lat="44.96344" lon="6.88313">
        <ele>2015</ele>
        <time>2019-04-18T09:33:40Z</time>
      </trkpt>
      <trkpt lat="44.96288" lon="6.88318">
        <ele>2017</ele>
        <time>2019-04-18T09:34:40Z</time>
      </trkpt>
      <trkpt lat="44.96223" lon="6.88358">
        <ele>2015</ele>
        <time>2019-04-18T09:35:40Z</time>
      </trkpt>
      <trkpt lat="44.96168" lon="6.88396">
        <ele>2017</ele>
        <time>2019-04-18T09:36:40Z</time>
      </trkpt>
      <trkpt lat="44.96141" lon="6.88418">
        <ele>2018</ele>
        <time>2019-04-18T09:37:40Z</time>
      </trkpt>
      <trkpt lat="44.96116" lon="6.8843">
        <ele>2020</ele>
        <time>2019-04-18T09:38:40Z</time>
      </trkpt>
      <trkpt lat="44.96098" lon="6.88435">
        <ele>2022</ele>
        <time>2019-04-18T09:39:40Z</time>
      </trkpt>
      <trkpt lat="44.9607" lon="6.88431">
        <ele>2026</ele>
        <time>2019-04-18T09:40:40Z</time>
      </trkpt>
      <trkpt lat="44.9605" lon="6.88415">
        <ele>2029</ele>
        <time>2019-04-18T09:41:40Z</time>
      </trkpt>
      <trkpt lat="44.96033" lon="6.88396">
        <ele>2031</ele>
        <time>2019-04-18T09:42:40Z</time>
      </trkpt>
      <trkpt lat="44.95993" lon="6.88345">
        <ele>2036</ele>
        <time>2019-04-18T09:43:40Z</time>
      </trkpt>
      <trkpt lat="44.95998" lon="6.88336">
        <ele>2037</ele>
        <time>2019-04-18T09:44:40Z</time>
      </trkpt>
      <trkpt lat="44.95999" lon="6.88331">
        <ele>2037</ele>
        <time>2019-04-18T09:45:40Z</time>
      </trkpt>
      <trkpt lat="44.95998" lon="6.88325">
        <ele>2038</ele>
        <time>2019-04-18T09:46:40Z</time>
      </trkpt>
      <trkpt lat="44.95993" lon="6.88316">
        <ele>2038</ele>
        <time>2019-04-18T09:47:40Z</time>
      </trkpt>
      <trkpt lat="44.9599" lon="6.88314">
        <ele>2039</ele>
        <time>2019-04-18T09:48:40Z</time>
      </trkpt>
      <trkpt lat="44.95983" lon="6.88314">
        <ele>2038</ele>
        <time>2019-04-18T09:49:40Z</time>
      </trkpt>
      <trkpt lat="44.95977" lon="6.8832">
        <ele>2038</ele>
        <time>2019-04-18T09:50:40Z</time>
      </trkpt>
      <trkpt lat="44.95975" lon="6.88324">
        <ele>2037</ele>
        <time>2019-04-18T09:51:40Z</time>
      </trkpt>
      <trkpt lat="44.95961" lon="6.88311">
        <ele>2038</ele>
        <time>2019-04-18T09:52:40Z</time>
      </trkpt>
      <trkpt lat="44.95909" lon="6.88254">
        <ele>2037</ele>
        <time>2019-04-18T09:53:40Z</time>
      </trkpt>
      <trkpt lat="44.95853" lon="6.88199">
        <ele>2041</ele>
        <time>2019-04-18T09:54:40Z</time>
      </trkpt>
      <trkpt lat="44.95724" lon="6.88077">
        <ele>2035</ele>
        <time>2019-04-18T09:55:40Z</time>
      </trkpt>
      <trkpt lat="44.95706" lon="6.88054">
        <ele>2035</ele>
        <time>2019-04-18T09:56:40Z</time>
      </trkpt>
      <trkpt lat="44.95687" lon="6.88017">
        <ele>2035</ele>
        <time>2019-04-18T09:57:40Z</time>
      </trkpt>
      <trkpt lat="44.95682" lon="6.87974">
        <ele>2036</ele>
        <time>2019-04-18T09:58:40Z</time>
      </trkpt>
      <trkpt lat="44.95677" lon="6.87963">
        <ele>2036</ele>
        <time>2019-04-18T09:59:40Z</time>
      </trkpt>
      <trkpt lat="44.95661" lon="6.87948">
        <ele>2036</ele>
        <time>2019-04-18T10:00:40Z</time>
      </trkpt>
      <trkpt lat="44.95645" lon="6.87897">
        <ele>2036</ele>
        <time>2019-04-18T10:01:40Z</time>
      </trkpt>
      <trkpt lat="44.95635" lon="6.87858">
        <ele>2035</ele>
        <time>2019-04-18T10:02:40Z</time>
      </trkpt>
      <trkpt lat="44.95636" lon="6.87833">
        <ele>2035</ele>
        <time>2019-04-18T10:03:40Z</time>
      </trkpt>
      <trkpt lat="44.95638" lon="6.87822">
        <ele>2034</ele>
        <time>2019-04-18T10:04:40Z</time>
      </trkpt>
      <trkpt lat="44.95643" lon="6.87811">
        <ele>2033</ele>
        <time>2019-04-18T10:05:40Z</time>
      </trkpt>
      <trkpt lat="44.9565" lon="6.878">
        <ele>2033</ele>
        <time>2019-04-18T10:06:40Z</time>
      </trkpt>
      <trkpt lat="44.95661" lon="6.87787">
        <ele>2032</ele>
        <time>2019-04-18T10:07:40Z</time>
      </trkpt>
      <trkpt lat="44.95686" lon="6.87764">
        <ele>2031</ele>
        <time>2019-04-18T10:08:40Z</time>
      </trkpt>
      <trkpt lat="44.957" lon="6.87744">
        <ele>2030</ele>
        <time>2019-04-18T10:09:40Z</time>
      </trkpt>
      <trkpt lat="44.95706" lon="6.87724">
        <ele>2029</ele>
        <time>2019-04-18T10:10:40Z</time>
      </trkpt>
      <trkpt lat="44.95708" lon="6.87703">
        <ele>2028</ele>
        <time>2019-04-18T10:11:40Z</time>
      </trkpt>
      <trkpt lat="44.95705" lon="6.87677">
        <ele>2025</ele>
        <time>2019-04-18T10:12:40Z</time>
      </trkpt>
      <trkpt lat="44.9567" lon="6.87523">
        <ele>2018</ele>
        <time>2019-04-18T10:13:40Z</time>
      </trkpt>
      <trkpt lat="44.95665" lon="6.87499">
        <ele>2017</ele>
        <time>2019-04-18T10:14:40Z</time>
      </trkpt>
      <trkpt lat="44.95665" lon="6.87477">
        <ele>2014</ele>
        <time>2019-04-18T10:15:40Z</time>
      </trkpt>
      <trkpt lat="44.95669" lon="6.87449">
        <ele>2012</ele>
        <time>2019-04-18T10:16:40Z</time>
      </trkpt>
      <trkpt lat="44.95679" lon="6.87427">
        <ele>2011</ele>
        <time>2019-04-18T10:17:40Z</time>
      </trkpt>
      <trkpt lat="44.95683" lon="6.87408">
        <ele>2010</ele>
        <time>2019-04-18T10:18:40Z</time>
      </trkpt>
      <trkpt lat="44.95684" lon="6.87381">
        <ele>2009</ele>
        <time>2019-04-18T10:19:40Z</time>
      </trkpt>
      <trkpt lat="44.9568" lon="6.87361">
        <ele>2008</ele>
        <time>2019-04-18T10:20:40Z</time>
      </trkpt>
      <trkpt lat="44.95665" lon="6.87333">
        <ele>2004</ele>
        <time>2019-04-18T10:21:40Z</time>
      </trkpt>
      <trkpt lat="44.95574" lon="6.8723">
        <ele>1993</ele>
        <time>2019-04-18T10:22:40Z</time>
      </trkpt>
      <trkpt lat="44.95511" lon="6.87162">
        <ele>1985</ele>
        <time>2019-04-18T10:23:40Z</time>
      </trkpt>
      <trkpt lat="44.95457" lon="6.87089">
        <ele>1980</ele>
        <time>2019-04-18T10:24:40Z</time>
      </trkpt>
      <trkpt lat="44.95425" lon="6.8704">
        <ele>1973</ele>
        <time>2019-04-18T10:25:40Z</time>
      </trkpt>
      <trkpt lat="44.95411" lon="6.87009">
        <ele>1971</ele>
        <time>2019-04-18T10:26:40Z</time>
      </trkpt>
      <trkpt lat="44.95402" lon="6.8698">
        <ele>1969</ele>
        <time>2019-04-18T10:27:40Z</time>
      </trkpt>
      <trkpt lat="44.95399" lon="6.86946">
        <ele>1968</ele>
        <time>2019-04-18T10:28:40Z</time>
      </trkpt>
      <trkpt lat="44.95398" lon="6.86914">
        <ele>1967</ele>
        <time>2019-04-18T10:29:40Z</time>
      </trkpt>
      <trkpt lat="44.95408" lon="6.86861">
        <ele>1968</ele>
        <time>2019-04-18T10:30:40Z</time>
      </trkpt>
      <trkpt lat="44.9541" lon="6.86836">
        <ele>1968</ele>
        <time>2019-04-18T10:31:40Z</time>
      </trkpt>
      <trkpt lat="44.95409" lon="6.86814">
        <ele>1966</ele>
        <time>2019-04-18T10:32:40Z</time>
      </trkpt>
      <trkpt lat="44.95404" lon="6.8679">
        <ele>1963</ele>
        <time>2019-04-18T10:33:40Z</time>
      </trkpt>
      <trkpt lat="44.95396" lon="6.86766">
        <ele>1959</ele>
        <time>2019-04-18T10:34:40Z</time>
      </trkpt>
      <trkpt lat="44.95389" lon="6.86738">
        <ele>1956</ele>
        <time>2019-04-18T10:35:40Z</time>
      </trkpt>
      <trkpt lat="44.95387" lon="6.86714">
        <ele>1954</ele>
        <time>2019-04-18T10:36:40Z</time>
      </trkpt>
      <trkpt lat="44.95388" lon="6.8669">
        <ele>1953</ele>
        <time>2019-04-18T10:37:40Z</time>
      </trkpt>
      <trkpt lat="44.95392" lon="6.86671">
        <ele>1953</ele>
        <time>2019-04-18T10:38:40Z</time>
      </trkpt>
      <trkpt lat="44.954" lon="6.86644">
        <ele>1951</ele>
        <time>2019-04-18T10:39:40Z</time>
      </trkpt>
      <trkpt lat="44.95414" lon="6.86614">
        <ele>1949</ele>
        <time>2019-04-18T10:40:40Z</time>
      </trkpt>
      <trkpt lat="44.95471" lon="6.86506">
        <ele>1946</ele>
        <time>2019-04-18T10:41:40Z</time>
      </trkpt>
      <trkpt lat="44.95473" lon="6.86491">
        <ele>1948</ele>
        <time>2019-04-18T10:42:40Z</time>
      </trkpt>
      <trkpt lat="44.95472" lon="6.8648">
        <ele>1951</ele>
        <time>2019-04-18T10:43:40Z</time>
      </trkpt>
      <trkpt lat="44.95466" lon="6.8647">
        <ele>1952</ele>
        <time>2019-04-18T10:44:40Z</time>
      </trkpt>
      <trkpt lat="44.95456" lon="6.86463">
        <ele>1951</ele>
        <time>2019-04-18T10:45:40Z</time>
      </trkpt>
      <trkpt lat="44.95437" lon="6.86462">
        <ele>1947</ele>
        <time>2019-04-18T10:46:40Z</time>
      </trkpt>
      <trkpt lat="44.95388" lon="6.86463">
        <ele>1937</ele>
        <time>2019-04-18T10:47:40Z</time>
      </trkpt>
      <trkpt lat="44.95368" lon="6.86457">
        <ele>1934</ele>
        <time>2019-04-18T10:48:40Z</time>
      </trkpt>
      <trkpt lat="44.9531" lon="6.86406">
        <ele>1928</ele>
        <time>2019-04-18T10:49:40Z</time>
      </trkpt>
      <trkpt lat="44.95281" lon="6.86388">
        <ele>1920</ele>
        <time>2019-04-18T10:50:40Z</time>
      </trkpt>
      <trkpt lat="44.95265" lon="6.86367">
        <ele>1918</ele>
        <time>2019-04-18T10:51:40Z</time>
      </trkpt>
      <trkpt lat="44.95249" lon="6.86339">
        <ele>1916</ele>
        <time>2019-04-18T10:52:40Z</time>
      </trkpt>
      <trkpt lat="44.9524" lon="6.86311">
        <ele>1913</ele>
        <time>2019-04-18T10:53:40Z</time>
      </trkpt>
      <trkpt lat="44.95228" lon="6.86258">
        <ele>1909</ele>
        <time>2019-04-18T10:54:40Z</time>
      </trkpt>
      <trkpt lat="44.95219" lon="6.86228">
        <ele>1909</ele>
        <time>2019-04-18T10:55:40Z</time>
      </trkpt>
      <trkpt lat="44.95212" lon="6.86214">
        <ele>1908</ele>
        <time>2019-04-18T10:56:40Z</time>
      </trkpt>
      <trkpt lat="44.95196" lon="6.86192">
        <ele>1906</ele>
        <time>2019-04-18T10:57:40Z</time>
      </trkpt>
      <trkpt lat="44.9514" lon="6.86133">
        <ele>1902</ele>
        <time>2019-04-18T10:58:40Z</time>
      </trkpt>
      <trkpt lat="44.95125" lon="6.86121">
        <ele>1901</ele>
        <time>2019-04-18T10:59:40Z</time>
      </trkpt>
      <trkpt lat="44.95054" lon="6.86098">
        <ele>1885</ele>
        <time>2019-04-18T11:00:40Z</time>
      </trkpt>
      <trkpt lat="44.95018" lon="6.86077">
        <ele>1878</ele>
        <time>2019-04-18T11:01:40Z</time>
      </trkpt>
      <trkpt lat="44.94988" lon="6.86051">
        <ele>1873</ele>
        <time>2019-04-18T11:02:40Z</time>
      </trkpt>
      <trkpt lat="44.94974" lon="6.8603">
        <ele>1874</ele>
        <time>2019-04-18T11:03:40Z</time>
      </trkpt>
      <trkpt lat="44.94966" lon="6.86008">
        <ele>1878</ele>
        <time>2019-04-18T11:04:40Z</time>
      </trkpt>
      <trkpt lat="44.94964" lon="6.85987">
        <ele>1880</ele>
        <time>2019-04-18T11:05:40Z</time>
      </trkpt>
      <trkpt lat="44.94968" lon="6.85959">
        <ele>1881</ele>
        <time>2019-04-18T11:06:40Z</time>
      </trkpt>
      <trkpt lat="44.94987" lon="6.85892">
        <ele>1884</ele>
        <time>2019-04-18T11:07:40Z</time>
      </trkpt>
      <trkpt lat="44.94987" lon="6.85873">
        <ele>1882</ele>
        <time>2019-04-18T11:08:40Z</time>
      </trkpt>
      <trkpt lat="44.94984" lon="6.85847">
        <ele>1879</ele>
        <time>2019-04-18T11:09:40Z</time>
      </trkpt>
      <trkpt lat="44.94984" lon="6.85829">
        <ele>1877</ele>
        <time>2019-04-18T11:10:40Z</time>
      </trkpt>
      <trkpt lat="44.94991" lon="6.8581">
        <ele>1876</ele>
        <time>2019-04-18T11:11:40Z</time>
      </trkpt>
      <trkpt lat="44.95004" lon="6.85784">
        <ele>1876</ele>
        <time>2019-04-18T11:12:40Z</time>
      </trkpt>
      <trkpt lat="44.95026" lon="6.85752">
        <ele>1877</ele>
        <time>2019-04-18T11:13:40Z</time>
      </trkpt>
      <trkpt lat="44.95035" lon="6.85726">
        <ele>1875</ele>
        <time>2019-04-18T11:14:40Z</time>
      </trkpt>
      <trkpt lat="44.95047" lon="6.85668">
        <ele>1870</ele>
        <time>2019-04-18T11:15:40Z</time>
      </trkpt>
      <trkpt lat="44.95048" lon="6.85642">
        <ele>1869</ele>
        <time>2019-04-18T11:16:40Z</time>
      </trkpt>
      <trkpt lat="44.95046" lon="6.85613">
        <ele>1869</ele>
        <time>2019-04-18T11:17:40Z</time>
      </trkpt>
      <trkpt lat="44.95037" lon="6.85577">
        <ele>1867</ele>
        <time>2019-04-18T11:18:40Z</time>
      </trkpt>
      <trkpt lat="44.95007" lon="6.8553">
        <ele>1861</ele>
        <time>2019-04-18T11:19:40Z</time>
      </trkpt>
      <trkpt lat="44.94991" lon="6.85519">
        <ele>1857</ele>
        <time>2019-04-18T11:20:40Z</time>
      </trkpt>
      <trkpt lat="44.94974" lon="6.85519">
        <ele>1852</ele>
        <time>2019-04-18T11:21:40Z</time>
      </trkpt>
      <trkpt lat="44.94959" lon="6.8553">
        <ele>1848</ele>
        <time>2019-04-18T11:22:40Z</time>
      </trkpt>
      <trkpt lat="44.94939" lon="6.85566">
        <ele>1845</ele>
        <time>2019-04-18T11:23:40Z</time>
      </trkpt>
      <trkpt lat="44.94911" lon="6.85636">
        <ele>1842</ele>
        <time>2019-04-18T11:24:40Z</time>
      </trkpt>
      <trkpt lat="44.94888" lon="6.85708">
        <ele>1837</ele>
        <time>2019-04-18T11:25:40Z</time>
      </trkpt>
      <trkpt lat="44.94851" lon="6.85847">
        <ele>1829</ele>
        <time>2019-04-18T11:26:40Z</time>
      </trkpt>
      <trkpt lat="44.94846" lon="6.85874">
        <ele>1829</ele>
        <time>2019-04-18T11:27:40Z</time>
      </trkpt>
      <trkpt lat="44.94844" lon="6.85905">
        <ele>1831</ele>
        <time>2019-04-18T11:28:40Z</time>
      </trkpt>
      <trkpt lat="44.94849" lon="6.85944">
        <ele>1830</ele>
        <time>2019-04-18T11:29:40Z</time>
      </trkpt>
      <trkpt lat="44.94861" lon="6.85997">
        <ele>1829</ele>
        <time>2019-04-18T11:30:40Z</time>
      </trkpt>
      <trkpt lat="44.94869" lon="6.86023">
        <ele>1826</ele>
        <time>2019-04-18T11:31:40Z</time>
      </trkpt>
      <trkpt lat="44.94871" lon="6.86038">
        <ele>1822</ele>
        <time>2019-04-18T11:32:40Z</time>
      </trkpt>
      <trkpt lat="44.94866" lon="6.86049">
        <ele>1816</ele>
        <time>2019-04-18T11:33:40Z</time>
      </trkpt>
      <trkpt lat="44.94859" lon="6.86051">
        <ele>1811</ele>
        <time>2019-04-18T11:34:40Z</time>
      </trkpt>
      <trkpt lat="44.94851" lon="6.86044">
        <ele>1809</ele>
        <time>2019-04-18T11:35:40Z</time>
      </trkpt>
      <trkpt lat="44.94845" lon="6.86027">
        <ele>1811</ele>
        <time>2019-04-18T11:36:40Z</time>
      </trkpt>
      <trkpt lat="44.9484" lon="6.85996">
        <ele>1817</ele>
        <time>2019-04-18T11:37:40Z</time>
      </trkpt>
      <trkpt lat="44.94816" lon="6.85915">
        <ele>1819</ele>
        <time>2019-04-18T11:38:40Z</time>
      </trkpt>
      <trkpt lat="44.94814" lon="6.85889">
        <ele>1816</ele>
        <time>2019-04-18T11:39:40Z</time>
      </trkpt>
      <trkpt lat="44.94819" lon="6.85795">
        <ele>1812</ele>
        <time>2019-04-18T11:40:40Z</time>
      </trkpt>
      <trkpt lat="44.94816" lon="6.85755">
        <ele>1810</ele>
        <time>2019-04-18T11:41:40Z</time>
      </trkpt>
      <trkpt lat="44.94794" lon="6.8566">
        <ele>1795</ele>
        <time>2019-04-18T11:42:40Z</time>
      </trkpt>
      <trkpt lat="44.94785" lon="6.85613">
        <ele>1791</ele>
        <time>2019-04-18T11:43:40Z</time>
      </trkpt>
      <trkpt lat="44.94787" lon="6.8556">
        <ele>1790</ele>
        <time>2019-04-18T11:44:40Z</time>
      </trkpt>
      <trkpt lat="44.94791" lon="6.85496">
        <ele>1787</ele>
        <time>2019-04-18T11:45:40Z</time>
      </trkpt>
      <trkpt lat="44.94796" lon="6.8546">
        <ele>1785</ele>
        <time>2019-04-18T11:46:40Z</time>
      </trkpt>
      <trkpt lat="44.94808" lon="6.85414">
        <ele>1786</ele>
        <time>2019-04-18T11:47:40Z</time>
      </trkpt>
      <trkpt lat="44.94817" lon="6.85389">
        <ele>1788</ele>
        <time>2019-04-18T11:48:40Z</time>
      </trkpt>
      <trkpt lat="44.94822" lon="6.85361">
        <ele>1788</ele>
        <time>2019-04-18T11:49:40Z</time>
      </trkpt>
      <trkpt lat="44.94821" lon="6.85338">
        <ele>1785</ele>
        <time>2019-04-18T11:50:40Z</time>
      </trkpt>
      <trkpt lat="44.94813" lon="6.85323">
        <ele>1783</ele>
        <time>2019-04-18T11:51:40Z</time>
      </trkpt>
      <trkpt lat="44.94779" lon="6.85298">
        <ele>1774</ele>
        <time>2019-04-18T11:52:40Z</time>
      </trkpt>
      <trkpt lat="44.94767" lon="6.85276">
        <ele>1774</ele>
        <time>2019-04-18T11:53:40Z</time>
      </trkpt>
      <trkpt lat="44.94759" lon="6.8524">
        <ele>1776</ele>
        <time>2019-04-18T11:54:40Z</time>
      </trkpt>
      <trkpt lat="44.94754" lon="6.85193">
        <ele>1774</ele>
        <time>2019-04-18T11:55:40Z</time>
      </trkpt>
      <trkpt lat="44.94752" lon="6.85082">
        <ele>1769</ele>
        <time>2019-04-18T11:56:40Z</time>
      </trkpt>
      <trkpt lat="44.94748" lon="6.85041">
        <ele>1768</ele>
        <time>2019-04-18T11:57:40Z</time>
      </trkpt>
      <trkpt lat="44.9474" lon="6.85001">
        <ele>1765</ele>
        <time>2019-04-18T11:58:40Z</time>
      </trkpt>
      <trkpt lat="44.94729" lon="6.84979">
        <ele>1763</ele>
        <time>2019-04-18T11:59:40Z</time>
      </trkpt>
      <trkpt lat="44.94724" lon="6.84952">
        <ele>1762</ele>
        <time>2019-04-18T12:00:40Z</time>
      </trkpt>
      <trkpt lat="44.94724" lon="6.84905">
        <ele>1763</ele>
        <time>2019-04-18T12:01:40Z</time>
      </trkpt>
      <trkpt lat="44.94704" lon="6.84852">
        <ele>1758</ele>
        <time>2019-04-18T12:02:40Z</time>
      </trkpt>
      <trkpt lat="44.94701" lon="6.84819">
        <ele>1757</ele>
        <time>2019-04-18T12:03:40Z</time>
      </trkpt>
      <trkpt lat="44.94704" lon="6.84754">
        <ele>1759</ele>
        <time>2019-04-18T12:04:40Z</time>
      </trkpt>
      <trkpt lat="44.947" lon="6.8472">
        <ele>1760</ele>
        <time>2019-04-18T12:05:40Z</time>
      </trkpt>
      <trkpt lat="44.94688" lon="6.84683">
        <ele>1758</ele>
        <time>2019-04-18T12:06:40Z</time>
      </trkpt>
      <trkpt lat="44.94617" lon="6.845">
        <ele>1751</ele>
        <time>2019-04-18T12:07:40Z</time>
      </trkpt>
      <trkpt lat="44.94606" lon="6.84477">
        <ele>1750</ele>
        <time>2019-04-18T12:08:40Z</time>
      </trkpt>
      <trkpt lat="44.94593" lon="6.84461">
        <ele>1747</ele>
        <time>2019-04-18T12:09:40Z</time>
      </trkpt>
      <trkpt lat="44.94572" lon="6.84443">
        <ele>1743</ele>
        <time>2019-04-18T12:10:40Z</time>
      </trkpt>
      <trkpt lat="44.94548" lon="6.84432">
        <ele>1737</ele>
        <time>2019-04-18T12:11:40Z</time>
      </trkpt>
      <trkpt lat="44.94532" lon="6.84414">
        <ele>1736</ele>
        <time>2019-04-18T12:12:40Z</time>
      </trkpt>
      <trkpt lat="44.94523" lon="6.84389">
        <ele>1737</ele>
        <time>2019-04-18T12:13:40Z</time>
      </trkpt>
      <trkpt lat="44.94514" lon="6.84352">
        <ele>1739</ele>
        <time>2019-04-18T12:14:40Z</time>
      </trkpt>
      <trkpt lat="44.94439" lon="6.8423">
        <ele>1730</ele>
        <time>2019-04-18T12:15:40Z</time>
      </trkpt>
      <trkpt lat="44.94417" lon="6.84183">
        <ele>1727</ele>
        <time>2019-04-18T12:16:40Z</time>
      </trkpt>
      <trkpt lat="44.94402" lon="6.84142">
        <ele>1724</ele>
        <time>2019-04-18T12:17:40Z</time>
      </trkpt>
      <trkpt lat="44.94395" lon="6.84107">
        <ele>1723</ele>
        <time>2019-04-18T12:18:40Z</time>
      </trkpt>
      <trkpt lat="44.94393" lon="6.8406">
        <ele>1721</ele>
        <time>2019-04-18T12:19:40Z</time>
      </trkpt>
      <trkpt lat="44.94398" lon="6.8402">
        <ele>1720</ele>
        <time>2019-04-18T12:20:40Z</time>
      </trkpt>
      <trkpt lat="44.9441" lon="6.83951">
        <ele>1720</ele>
        <time>2019-04-18T12:21:40Z</time>
      </trkpt>
      <trkpt lat="44.94409" lon="6.83918">
        <ele>1718</ele>
        <time>2019-04-18T12:22:40Z</time>
      </trkpt>
      <trkpt lat="44.94398" lon="6.83812">
        <ele>1713</ele>
        <time>2019-04-18T12:23:40Z</time>
      </trkpt>
      <trkpt lat="44.94393" lon="6.83785">
        <ele>1713</ele>
        <time>2019-04-18T12:24:40Z</time>
      </trkpt>
      <trkpt lat="44.94357" lon="6.83697">
        <ele>1706</ele>
        <time>2019-04-18T12:25:40Z</time>
      </trkpt>
      <trkpt lat="44.94332" lon="6.83612">
        <ele>1700</ele>
        <time>2019-04-18T12:26:40Z</time>
      </trkpt>
      <trkpt lat="44.94321" lon="6.83568">
        <ele>1698</ele>
        <time>2019-04-18T12:27:40Z</time>
      </trkpt>
      <trkpt lat="44.94317" lon="6.83538">
        <ele>1698</ele>
        <time>2019-04-18T12:28:40Z</time>
      </trkpt>
      <trkpt lat="44.94324" lon="6.83397">
        <ele>1698</ele>
        <time>2019-04-18T12:29:40Z</time>
      </trkpt>
      <trkpt lat="44.94336" lon="6.83343">
        <ele>1697</ele>
        <time>2019-04-18T12:30:40Z</time>
      </trkpt>
      <trkpt lat="44.94336" lon="6.83323">
        <ele>1696</ele>
        <time>2019-04-18T12:31:40Z</time>
      </trkpt>
      <trkpt lat="44.94333" lon="6.83285">
        <ele>1694</ele>
        <time>2019-04-18T12:32:40Z</time>
      </trkpt>
      <trkpt lat="44.94333" lon="6.83246">
        <ele>1693</ele>
        <time>2019-04-18T12:33:40Z</time>
      </trkpt>
      <trkpt lat="44.94339" lon="6.83203">
        <ele>1694</ele>
        <time>2019-04-18T12:34:40Z</time>
      </trkpt>
      <trkpt lat="44.94339" lon="6.83179">
        <ele>1694</ele>
        <time>2019-04-18T12:35:40Z</time>
      </trkpt>
      <trkpt lat="44.94335" lon="6.83154">
        <ele>1692</ele>
        <time>2019-04-18T12:36:40Z</time>
      </trkpt>
      <trkpt lat="44.94324" lon="6.83126">
        <ele>1688</ele>
        <time>2019-04-18T12:37:40Z</time>
      </trkpt>
      <trkpt lat="44.94281" lon="6.82953">
        <ele>1680</ele>
        <time>2019-04-18T12:38:40Z</time>
      </trkpt>
      <trkpt lat="44.94272" lon="6.82928">
        <ele>1680</ele>
        <time>2019-04-18T12:39:40Z</time>
      </trkpt>
      <trkpt lat="44.94261" lon="6.82905">
        <ele>1679</ele>
        <time>2019-04-18T12:40:40Z</time>
      </trkpt>
      <trkpt lat="44.94244" lon="6.82889">
        <ele>1676</ele>
        <time>2019-04-18T12:41:40Z</time>
      </trkpt>
      <trkpt lat="44.9421" lon="6.8287">
        <ele>1669</ele>
        <time>2019-04-18T12:42:40Z</time>
      </trkpt>
      <trkpt lat="44.94188" lon="6.82846">
        <ele>1667</ele>
        <time>2019-04-18T12:43:40Z</time>
      </trkpt>
      <trkpt lat="44.94176" lon="6.8282">
        <ele>1668</ele>
        <time>2019-04-18T12:44:40Z</time>
      </trkpt>
      <trkpt lat="44.94152" lon="6.8278">
        <ele>1666</ele>
        <time>2019-04-18T12:45:40Z</time>
      </trkpt>
      <trkpt lat="44.9413" lon="6.82752">
        <ele>1663</ele>
        <time>2019-04-18T12:46:40Z</time>
      </trkpt>
      <trkpt lat="44.9412" lon="6.82731">
        <ele>1662</ele>
        <time>2019-04-18T12:47:40Z</time>
      </trkpt>
      <trkpt lat="44.94116" lon="6.82702">
        <ele>1663</ele>
        <time>2019-04-18T12:48:40Z</time>
      </trkpt>
      <trkpt lat="44.94098" lon="6.82541">
        <ele>1659</ele>
        <time>2019-04-18T12:49:40Z</time>
      </trkpt>
      <trkpt lat="44.94092" lon="6.8251">
        <ele>1657</ele>
        <time>2019-04-18T12:50:40Z</time>
      </trkpt>
      <trkpt lat="44.94077" lon="6.82452">
        <ele>1652</ele>
        <time>2019-04-18T12:51:40Z</time>
      </trkpt>
      <trkpt lat="44.94072" lon="6.82416">
        <ele>1650</ele>
        <time>2019-04-18T12:52:40Z</time>
      </trkpt>
      <trkpt lat="44.94071" lon="6.82302">
        <ele>1646</ele>
        <time>2019-04-18T12:53:40Z</time>
      </trkpt>
      <trkpt lat="44.94067" lon="6.82167">
        <ele>1640</ele>
        <time>2019-04-18T12:54:40Z</time>
      </trkpt>
      <trkpt lat="44.9407" lon="6.82143">
        <ele>1639</ele>
        <time>2019-04-18T12:55:40Z</time>
      </trkpt>
      <trkpt lat="44.94091" lon="6.82045">
        <ele>1639</ele>
        <time>2019-04-18T12:56:40Z</time>
      </trkpt>
      <trkpt lat="44.94101" lon="6.82017">
        <ele>1641</ele>
        <time>2019-04-18T12:57:40Z</time>
      </trkpt>
      <trkpt lat="44.94105" lon="6.81993">
        <ele>1640</ele>
        <time>2019-04-18T12:58:40Z</time>
      </trkpt>
      <trkpt lat="44.94104" lon="6.8197">
        <ele>1639</ele>
        <time>2019-04-18T12:59:40Z</time>
      </trkpt>
      <trkpt lat="44.94097" lon="6.81952">
        <ele>1635</ele>
        <time>2019-04-18T13:00:40Z</time>
      </trkpt>
      <trkpt lat="44.94093" lon="6.81929">
        <ele>1632</ele>
        <time>2019-04-18T13:01:40Z</time>
      </trkpt>
      <trkpt lat="44.94093" lon="6.81907">
        <ele>1630</ele>
        <time>2019-04-18T13:02:40Z</time>
      </trkpt>
      <trkpt lat="44.94125" lon="6.81773">
        <ele>1627</ele>
        <time>2019-04-18T13:03:40Z</time>
      </trkpt>
      <trkpt lat="44.94134" lon="6.81744">
        <ele>1627</ele>
        <time>2019-04-18T13:04:40Z</time>
      </trkpt>
      <trkpt lat="44.94152" lon="6.81706">
        <ele>1632</ele>
        <time>2019-04-18T13:05:40Z</time>
      </trkpt>
      <trkpt lat="44.9416" lon="6.81687">
        <ele>1634</ele>
        <time>2019-04-18T13:06:40Z</time>
      </trkpt>
      <trkpt lat="44.9416" lon="6.81671">
        <ele>1633</ele>
        <time>2019-04-18T13:07:40Z</time>
      </trkpt>
      <trkpt lat="44.94156" lon="6.81654">
        <ele>1631</ele>
        <time>2019-04-18T13:08:40Z</time>
      </trkpt>
      <trkpt lat="44.94139" lon="6.81627">
        <ele>1625</ele>
        <time>2019-04-18T13:09:40Z</time>
      </trkpt>
      <trkpt lat="44.94126" lon="6.81596">
        <ele>1620</ele>
        <time>2019-04-18T13:10:40Z</time>
      </trkpt>
      <trkpt lat="44.94126" lon="6.81555">
        <ele>1617</ele>
        <time>2019-04-18T13:11:40Z</time>
      </trkpt>
      <trkpt lat="44.94132" lon="6.8153">
        <ele>1616</ele>
        <time>2019-04-18T13:12:40Z</time>
      </trkpt>
      <trkpt lat="44.94145" lon="6.81501">
        <ele>1617</ele>
        <time>2019-04-18T13:13:40Z</time>
      </trkpt>
      <trkpt lat="44.94179" lon="6.81463">
        <ele>1620</ele>
        <time>2019-04-18T13:14:40Z</time>
      </trkpt>
      <trkpt lat="44.94203" lon="6.8143">
        <ele>1620</ele>
        <time>2019-04-18T13:15:40Z</time>
      </trkpt>
      <trkpt lat="44.94216" lon="6.81403">
        <ele>1621</ele>
        <time>2019-04-18T13:16:40Z</time>
      </trkpt>
      <trkpt lat="44.9422" lon="6.8137">
        <ele>1620</ele>
        <time>2019-04-18T13:17:40Z</time>
      </trkpt>
      <trkpt lat="44.94217" lon="6.81334">
        <ele>1616</ele>
        <time>2019-04-18T13:18:40Z</time>
      </trkpt>
      <trkpt lat="44.94205" lon="6.81306">
        <ele>1615</ele>
        <time>2019-04-18T13:19:40Z</time>
      </trkpt>
      <trkpt lat="44.94188" lon="6.81284">
        <ele>1612</ele>
        <time>2019-04-18T13:20:40Z</time>
      </trkpt>
      <trkpt lat="44.9416" lon="6.81243">
        <ele>1609</ele>
        <time>2019-04-18T13:21:40Z</time>
      </trkpt>
      <trkpt lat="44.94138" lon="6.81187">
        <ele>1604</ele>
        <time>2019-04-18T13:22:40Z</time>
      </trkpt>
      <trkpt lat="44.94128" lon="6.81154">
        <ele>1601</ele>
        <time>2019-04-18T13:23:40Z</time>
      </trkpt>
      <trkpt lat="44.94128" lon="6.81109">
        <ele>1600</ele>
        <time>2019-04-18T13:24:40Z</time>
      </trkpt>
      <trkpt lat="44.94134" lon="6.8107">
        <ele>1600</ele>
        <time>2019-04-18T13:25:40Z</time>
      </trkpt>
      <trkpt lat="44.94157" lon="6.81011">
        <ele>1603</ele>
        <time>2019-04-18T13:26:40Z</time>
      </trkpt>
      <trkpt lat="44.94162" lon="6.80982">
        <ele>1602</ele>
        <time>2019-04-18T13:27:40Z</time>
      </trkpt>
      <trkpt lat="44.94161" lon="6.80958">
        <ele>1600</ele>
        <time>2019-04-18T13:28:40Z</time>
      </trkpt>
      <trkpt lat="44.94153" lon="6.80932">
        <ele>1597</ele>
        <time>2019-04-18T13:29:40Z</time>
      </trkpt>
      <trkpt lat="44.94134" lon="6.8091">
        <ele>1593</ele>
        <time>2019-04-18T13:30:40Z</time>
      </trkpt>
      <trkpt lat="44.9411" lon="6.80896">
        <ele>1590</ele>
        <time>2019-04-18T13:31:40Z</time>
      </trkpt>
      <trkpt lat="44.94095" lon="6.80881">
        <ele>1587</ele>
        <time>2019-04-18T13:32:40Z</time>
      </trkpt>
      <trkpt lat="44.94082" lon="6.80857">
        <ele>1584</ele>
        <time>2019-04-18T13:33:40Z</time>
      </trkpt>
      <trkpt lat="44.94069" lon="6.80791">
        <ele>1580</ele>
        <time>2019-04-18T13:34:40Z</time>
      </trkpt>
      <trkpt lat="44.9406" lon="6.80699">
        <ele>1579</ele>
        <time>2019-04-18T13:35:40Z</time>
      </trkpt>
      <trkpt lat="44.94063" lon="6.80645">
        <ele>1580</ele>
        <time>2019-04-18T13:36:40Z</time>
      </trkpt>
      <trkpt lat="44.94063" lon="6.80598">
        <ele>1577</ele>
        <time>2019-04-18T13:37:40Z</time>
      </trkpt>
      <trkpt lat="44.9407" lon="6.80562">
        <ele>1575</ele>
        <time>2019-04-18T13:38:40Z</time>
      </trkpt>
      <trkpt lat="44.94097" lon="6.80493">
        <ele>1576</ele>
        <time>2019-04-18T13:39:40Z</time>
      </trkpt>
      <trkpt lat="44.94107" lon="6.80461">
        <ele>1578</ele>
        <time>2019-04-18T13:40:40Z</time>
      </trkpt>
      <trkpt lat="44.94109" lon="6.80433">
        <ele>1575</ele>
        <time>2019-04-18T13:41:40Z</time>
      </trkpt>
      <trkpt lat="44.94111" lon="6.80347">
        <ele>1560</ele>
        <time>2019-04-18T13:42:40Z</time>
      </trkpt>
      <trkpt lat="44.94118" lon="6.80323">
        <ele>1556</ele>
        <time>2019-04-18T13:43:40Z</time>
      </trkpt>
      <trkpt lat="44.94131" lon="6.80302">
        <ele>1553</ele>
        <time>2019-04-18T13:44:40Z</time>
      </trkpt>
      <trkpt lat="44.94153" lon="6.80289">
        <ele>1558</ele>
        <time>2019-04-18T13:45:40Z</time>
      </trkpt>
      <trkpt lat="44.94174" lon="6.80267">
        <ele>1556</ele>
        <time>2019-04-18T13:46:40Z</time>
      </trkpt>
      <trkpt lat="44.94191" lon="6.80241">
        <ele>1548</ele>
        <time>2019-04-18T13:47:40Z</time>
      </trkpt>
      <trkpt lat="44.94211" lon="6.80224">
        <ele>1543</ele>
        <time>2019-04-18T13:48:40Z</time>
      </trkpt>
      <trkpt lat="44.94229" lon="6.80218">
        <ele>1544</ele>
        <time>2019-04-18T13:49:40Z</time>
      </trkpt>
      <trkpt lat="44.94246" lon="6.80217">
        <ele>1547</ele>
        <time>2019-04-18T13:50:40Z</time>
      </trkpt>
      <trkpt lat="44.94294" lon="6.80244">
        <ele>1558</ele>
        <time>2019-04-18T13:51:40Z</time>
      </trkpt>
      <trkpt lat="44.94412" lon="6.80264">
        <ele>1552</ele>
        <time>2019-04-18T13:52:40Z</time>
      </trkpt>
      <trkpt lat="44.94557" lon="6.80297">
        <ele>1537</ele>
        <time>2019-04-18T13:53:40Z</time>
      </trkpt>
      <trkpt lat="44.94599" lon="6.80295">
        <ele>1528</ele>
        <time>2019-04-18T13:54:40Z</time>
      </trkpt>
      <trkpt lat="44.94615" lon="6.80302">
        <ele>1525</ele>
        <time>2019-04-18T13:55:40Z</time>
      </trkpt>
      <trkpt lat="44.94627" lon="6.80316">
        <ele>1525</ele>
        <time>2019-04-18T13:56:40Z</time>
      </trkpt>
      <trkpt lat="44.94638" lon="6.80337">
        <ele>1526</ele>
        <time>2019-04-18T13:57:40Z</time>
      </trkpt>
      <trkpt lat="44.94645" lon="6.80367">
        <ele>1533</ele>
        <time>2019-04-18T13:58:40Z</time>
      </trkpt>
      <trkpt lat="44.9466" lon="6.80389">
        <ele>1534</ele>
        <time>2019-04-18T13:59:40Z</time>
      </trkpt>
      <trkpt lat="44.94676" lon="6.80398">
        <ele>1532</ele>
        <time>2019-04-18T14:00:40Z</time>
      </trkpt>
      <trkpt lat="44.94697" lon="6.80399">
        <ele>1527</ele>
        <time>2019-04-18T14:01:40Z</time>
      </trkpt>
      <trkpt lat="44.94723" lon="6.80391">
        <ele>1519</ele>
        <time>2019-04-18T14:02:40Z</time>
      </trkpt>
      <trkpt lat="44.94761" lon="6.80372">
        <ele>1508</ele>
        <time>2019-04-18T14:03:40Z</time>
      </trkpt>
      <trkpt lat="44.94803" lon="6.80341">
        <ele>1501</ele>
        <time>2019-04-18T14:04:40Z</time>
      </trkpt>
      <trkpt lat="44.94853" lon="6.80285">
        <ele>1497</ele>
        <time>2019-04-18T14:05:40Z</time>
      </trkpt>
      <trkpt lat="44.94898" lon="6.8023">
        <ele>1493</ele>
        <time>2019-04-18T14:06:40Z</time>
      </trkpt>
      <trkpt lat="44.94918" lon="6.80201">
        <ele>1489</ele>
        <time>2019-04-18T14:07:40Z</time>
      </trkpt>
      <trkpt lat="44.94943" lon="6.80159">
        <ele>1483</ele>
        <time>2019-04-18T14:08:40Z</time>
      </trkpt>
      <trkpt lat="44.9496" lon="6.80139">
        <ele>1480</ele>
        <time>2019-04-18T14:09:40Z</time>
      </trkpt>
      <trkpt lat="44.95013" lon="6.801">
        <ele>1476</ele>
        <time>2019-04-18T14:10:40Z</time>
      </trkpt>
      <trkpt lat="44.9505" lon="6.80068">
        <ele>1472</ele>
        <time>2019-04-18T14:11:40Z</time>
      </trkpt>
      <trkpt lat="44.95075" lon="6.80058">
        <ele>1472</ele>
        <time>2019-04-18T14:12:40Z</time>
      </trkpt>
      <trkpt lat="44.95096" lon="6.80053">
        <ele>1473</ele>
        <time>2019-04-18T14:13:40Z</time>
      </trkpt>
      <trkpt lat="44.95109" lon="6.80041">
        <ele>1471</ele>
        <time>2019-04-18T14:14:40Z</time>
      </trkpt>
      <trkpt lat="44.9512" lon="6.80023">
        <ele>1469</ele>
        <time>2019-04-18T14:15:40Z</time>
      </trkpt>
      <trkpt lat="44.95133" lon="6.7999">
        <ele>1464</ele>
        <time>2019-04-18T14:16:40Z</time>
      </trkpt>
      <trkpt lat="44.95148" lon="6.79966">
        <ele>1461</ele>
        <time>2019-04-18T14:17:40Z</time>
      </trkpt>
      <trkpt lat="44.95184" lon="6.79939">
        <ele>1460</ele>
        <time>2019-04-18T14:18:40Z</time>
      </trkpt>
      <trkpt lat="44.95197" lon="6.79925">
        <ele>1460</ele>
        <time>2019-04-18T14:19:40Z</time>
      </trkpt>
      <trkpt lat="44.95212" lon="6.79881">
        <ele>1454</ele>
        <time>2019-04-18T14:20:40Z</time>
      </trkpt>
      <trkpt lat="44.95223" lon="6.79864">
        <ele>1451</ele>
        <time>2019-04-18T14:21:40Z</time>
      </trkpt>
      <trkpt lat="44.95236" lon="6.79859">
        <ele>1452</ele>
        <time>2019-04-18T14:22:40Z</time>
      </trkpt>
      <trkpt lat="44.95278" lon="6.79862">
        <ele>1446</ele>
        <time>2019-04-18T14:23:40Z</time>
      </trkpt>
      <trkpt lat="44.95283" lon="6.79856">
        <ele>1444</ele>
        <time>2019-04-18T14:24:40Z</time>
      </trkpt>
      <trkpt lat="44.95284" lon="6.79847">
        <ele>1441</ele>
        <time>2019-04-18T14:25:40Z</time>
      </trkpt>
      <trkpt lat="44.95279" lon="6.79839">
        <ele>1441</ele>
        <time>2019-04-18T14:26:40Z</time>
      </trkpt>
      <trkpt lat="44.95244" lon="6.79827">
        <ele>1444</ele>
        <time>2019-04-18T14:27:40Z</time>
      </trkpt>
      <trkpt lat="44.95212" lon="6.79822">
        <ele>1440</ele>
        <time>2019-04-18T14:28:40Z</time>
      </trkpt>
      <trkpt lat="44.95188" lon="6.79825">
        <ele>1439</ele>
        <time>2019-04-18T14:29:40Z</time>
      </trkpt>
      <trkpt lat="44.95167" lon="6.79835">
        <ele>1439</ele>
        <time>2019-04-18T14:30:40Z</time>
      </trkpt>
      <trkpt lat="44.95118" lon="6.79878">
        <ele>1439</ele>
        <time>2019-04-18T14:31:40Z</time>
      </trkpt>
      <trkpt lat="44.95098" lon="6.79885">
        <ele>1438</ele>
        <time>2019-04-18T14:32:40Z</time>
      </trkpt>
      <trkpt lat="44.95085" lon="6.79887">
        <ele>1436</ele>
        <time>2019-04-18T14:33:40Z</time>
      </trkpt>
      <trkpt lat="44.95068" lon="6.79881">
        <ele>1435</ele>
        <time>2019-04-18T14:34:40Z</time>
      </trkpt>
      <trkpt lat="44.95048" lon="6.79867">
        <ele>1431</ele>
        <time>2019-04-18T14:35:40Z</time>
      </trkpt>
      <trkpt lat="44.95022" lon="6.79843">
        <ele>1425</ele>
        <time>2019-04-18T14:36:40Z</time>
      </trkpt>
      <trkpt lat="44.95005" lon="6.79834">
        <ele>1422</ele>
        <time>2019-04-18T14:37:40Z</time>
      </trkpt>
      <trkpt lat="44.9498" lon="6.79828">
        <ele>1419</ele>
        <time>2019-04-18T14:38:40Z</time>
      </trkpt>
      <trkpt lat="44.94947" lon="6.79825">
        <ele>1417</ele>
        <time>2019-04-18T14:39:40Z</time>
      </trkpt>
      <trkpt lat="44.94828" lon="6.79825">
        <ele>1409</ele>
        <time>2019-04-18T14:40:40Z</time>
      </trkpt>
      <trkpt lat="44.94797" lon="6.79818">
        <ele>1409</ele>
        <time>2019-04-18T14:41:40Z</time>
      </trkpt>
      <trkpt lat="44.94684" lon="6.79765">
        <ele>1390</ele>
        <time>2019-04-18T14:42:40Z</time>
      </trkpt>
      <trkpt lat="44.9468" lon="6.79761">
        <ele>1388</ele>
        <time>2019-04-18T14:43:40Z</time>
      </trkpt>
      <trkpt lat="44.94679" lon="6.79756">
        <ele>1387</ele>
        <time>2019-04-18T14:44:40Z</time>
      </trkpt>
      <trkpt lat="44.94679" lon="6.7975">
        <ele>1385</ele>
        <time>2019-04-18T14:45:40Z</time>
      </trkpt>
      <trkpt lat="44.94681" lon="6.79744">
        <ele>1384</ele>
        <time>2019-04-18T14:46:40Z</time>
      </trkpt>
      <trkpt lat="44.94686" lon="6.79743">
        <ele>1384</ele>
        <time>2019-04-18T14:47:40Z</time>
      </trkpt>
      <trkpt lat="44.94692" lon="6.79744">
        <ele>1384</ele>
        <time>2019-04-18T14:48:40Z</time>
      </trkpt>
      <trkpt lat="44.94746" lon="6.79765">
        <ele>1392</ele>
        <time>2019-04-18T14:49:40Z</time>
      </trkpt>
      <trkpt lat="44.94763" lon="6.79769">
        <ele>1393</ele>
        <time>2019-04-18T14:50:40Z</time>
      </trkpt>
      <trkpt lat="44.94777" lon="6.79771">
        <ele>1393</ele>
        <time>2019-04-18T14:51:40Z</time>
      </trkpt>
      <trkpt lat="44.9479" lon="6.79769">
        <ele>1392</ele>
        <time>2019-04-18T14:52:40Z</time>
      </trkpt>
      <trkpt lat="44.9484" lon="6.79757">
        <ele>1386</ele>
        <time>2019-04-18T14:53:40Z</time>
      </trkpt>
      <trkpt lat="44.9485" lon="6.79751">
        <ele>1385</ele>
        <time>2019-04-18T14:54:40Z</time>
      </trkpt>
      <trkpt lat="44.94858" lon="6.79743">
        <ele>1384</ele>
        <time>2019-04-18T14:55:40Z</time>
      </trkpt>
      <trkpt lat="44.94882" lon="6.79704">
        <ele>1376</ele>
        <time>2019-04-18T14:56:40Z</time>
      </trkpt>
      <trkpt lat="44.94943" lon="6.79625">
        <ele>1367</ele>
        <time>2019-04-18T14:57:40Z</time>
      </trkpt>
      <trkpt lat="44.94954" lon="6.79612">
        <ele>1366</ele>
        <time>2019-04-18T14:58:40Z</time>
      </trkpt>
      <trkpt lat="44.94963" lon="6.79606">
        <ele>1366</ele>
        <time>2019-04-18T14:59:40Z</time>
      </trkpt>
      <trkpt lat="44.94994" lon="6.79596">
        <ele>1367</ele>
        <time>2019-04-18T15:00:40Z</time>
      </trkpt>
      <trkpt lat="44.95013" lon="6.79588">
        <ele>1367</ele>
        <time>2019-04-18T15:01:40Z</time>
      </trkpt>
      <trkpt lat="44.95076" lon="6.79554">
        <ele>1361</ele>
        <time>2019-04-18T15:02:40Z</time>
      </trkpt>
      <trkpt lat="44.95098" lon="6.79545">
        <ele>1360</ele>
        <time>2019-04-18T15:03:40Z</time>
      </trkpt>
      <trkpt lat="44.95109" lon="6.79543">
        <ele>1360</ele>
        <time>2019-04-18T15:04:40Z</time>
      </trkpt>
      <trkpt lat="44.95136" lon="6.79546">
        <ele>1361</ele>
        <time>2019-04-18T15:05:40Z</time>
      </trkpt>
      <trkpt lat="44.95149" lon="6.79544">
        <ele>1361</ele>
        <time>2019-04-18T15:06:40Z</time>
      </trkpt>
      <trkpt lat="44.95166" lon="6.79538">
        <ele>1360</ele>
        <time>2019-04-18T15:07:40Z</time>
      </trkpt>
      <trkpt lat="44.95221" lon="6.79505">
        <ele>1357</ele>
        <time>2019-04-18T15:08:40Z</time>
      </trkpt>
      <trkpt lat="44.95255" lon="6.79474">
        <ele>1353</ele>
        <time>2019-04-18T15:09:40Z</time>
      </trkpt>
      <trkpt lat="44.95281" lon="6.79444">
        <ele>1352</ele>
        <time>2019-04-18T15:10:40Z</time>
      </trkpt>
      <trkpt lat="44.95293" lon="6.79426">
        <ele>1351</ele>
        <time>2019-04-18T15:11:40Z</time>
      </trkpt>
      <trkpt lat="44.953" lon="6.79407">
        <ele>1350</ele>
        <time>2019-04-18T15:12:40Z</time>
      </trkpt>
      <trkpt lat="44.95302" lon="6.79396">
        <ele>1350</ele>
        <time>2019-04-18T15:13:40Z</time>
      </trkpt>
      <trkpt lat="44.95301" lon="6.79378">
        <ele>1349</ele>
        <time>2019-04-18T15:14:40Z</time>
      </trkpt>
      <trkpt lat="44.95305" lon="6.79378">
        <ele>1349</ele>
        <time>2019-04-18T15:15:40Z</time>
      </trkpt>
      <trkpt lat="44.9531" lon="6.79373">
        <ele>1349</ele>
        <time>2019-04-18T15:16:40Z</time>
      </trkpt>
      <trkpt lat="44.95311" lon="6.79366">
        <ele>1348</ele>
        <time>2019-04-18T15:17:40Z</time>
      </trkpt>
      <trkpt lat="44.9531" lon="6.79361">
        <ele>1348</ele>
        <time>2019-04-18T15:18:40Z</time>
      </trkpt>
      <trkpt lat="44.95305" lon="6.79355">
        <ele>1348</ele>
        <time>2019-04-18T15:19:40Z</time>
      </trkpt>
      <trkpt lat="44.95304" lon="6.79348">
        <ele>1347</ele>
        <time>2019-04-18T15:20:40Z</time>
      </trkpt>
      <trkpt lat="44.95295" lon="6.79326">
        <ele>1347</ele>
        <time>2019-04-18T15:21:40Z</time>
      </trkpt>
      <trkpt lat="44.95231" lon="6.7919">
        <ele>1353</ele>
        <time>2019-04-18T15:22:40Z</time>
      </trkpt>
      <trkpt lat="44.95272" lon="6.79158">
        <ele>1351</ele>
        <time>2019-04-18T15:23:40Z</time>
      </trkpt>
      <trkpt lat="44.95392" lon="6.79045">
        <ele>1347</ele>
        <time>2019-04-18T15:24:40Z</time>
      </trkpt>
      <trkpt lat="44.95401" lon="6.79033">
        <ele>1347</ele>
        <time>2019-04-18T15:25:40Z</time>
      </trkpt>
      <trkpt lat="44.95406" lon="6.79039">
        <ele>1346</ele>
        <time>2019-04-18T15:26:40Z</time>
      </trkpt>
      <trkpt lat="44.95412" lon="6.7904">
        <ele>1346</ele>
        <time>2019-04-18T15:27:40Z</time>
      </trkpt>
      <trkpt lat="44.95418" lon="6.79035">
        <ele>1345</ele>
        <time>2019-04-18T15:28:40Z</time>
      </trkpt>
      <trkpt lat="44.9542" lon="6.79028">
        <ele>1345</ele>
        <time>2019-04-18T15:29:40Z</time>
      </trkpt>
      <trkpt lat="44.95418" lon="6.79019">
        <ele>1345</ele>
        <time>2019-04-18T15:30:40Z</time>
      </trkpt>
      <trkpt lat="44.95414" lon="6.79014">
        <ele>1345</ele>
        <time>2019-04-18T15:31:40Z</time>
      </trkpt>
      <trkpt lat="44.95405" lon="6.79014">
        <ele>1346</ele>
        <time>2019-04-18T15:32:40Z</time>
      </trkpt>
      <trkpt lat="44.95403" lon="6.79017">
        <ele>1346</ele>
        <time>2019-04-18T15:33:40Z</time>
      </trkpt>
      <trkpt lat="44.95306" lon="6.78924">
        <ele>1352</ele>
        <time>2019-04-18T15:34:40Z</time>
      </trkpt>
      <trkpt lat="44.95286" lon="6.78897">
        <ele>1354</ele>
        <time>2019-04-18T15:35:40Z</time>
      </trkpt>
      <trkpt lat="44.95217" lon="6.78753">
        <ele>1360</ele>
        <time>2019-04-18T15:36:40Z</time>
      </trkpt>
      <trkpt lat="44.95197" lon="6.78702">
        <ele>1366</ele>
        <time>2019-04-18T15:37:40Z</time>
      </trkpt>
      <trkpt lat="44.95168" lon="6.78591">
        <ele>1373</ele>
        <time>2019-04-18T15:38:40Z</time>
      </trkpt>
      <trkpt lat="44.95153" lon="6.78563">
        <ele>1376</ele>
        <time>2019-04-18T15:39:40Z</time>
      </trkpt>
      <trkpt lat="44.95143" lon="6.7855">
        <ele>1378</ele>
        <time>2019-04-18T15:40:40Z</time>
      </trkpt>
      <trkpt lat="44.95131" lon="6.7854">
        <ele>1379</ele>
        <time>2019-04-18T15:41:40Z</time>
      </trkpt>
      <trkpt lat="44.95116" lon="6.78532">
        <ele>1379</ele>
        <time>2019-04-18T15:42:40Z</time>
      </trkpt>
      <trkpt lat="44.95103" lon="6.78528">
        <ele>1379</ele>
        <time>2019-04-18T15:43:40Z</time>
      </trkpt>
      <trkpt lat="44.95091" lon="6.78527">
        <ele>1378</ele>
        <time>2019-04-18T15:44:40Z</time>
      </trkpt>
      <trkpt lat="44.95068" lon="6.78532">
        <ele>1381</ele>
        <time>2019-04-18T15:45:40Z</time>
      </trkpt>
      <trkpt lat="44.95058" lon="6.78538">
        <ele>1383</ele>
        <time>2019-04-18T15:46:40Z</time>
      </trkpt>
      <trkpt lat="44.95039" lon="6.78556">
        <ele>1385</ele>
        <time>2019-04-18T15:47:40Z</time>
      </trkpt>
      <trkpt lat="44.9503" lon="6.7857">
        <ele>1385</ele>
        <time>2019-04-18T15:48:40Z</time>
      </trkpt>
      <trkpt lat="44.95024" lon="6.78583">
        <ele>1384</ele>
        <time>2019-04-18T15:49:40Z</time>
      </trkpt>
      <trkpt lat="44.9502" lon="6.78596">
        <ele>1385</ele>
        <time>2019-04-18T15:50:40Z</time>
      </trkpt>
      <trkpt lat="44.95017" lon="6.78621">
        <ele>1384</ele>
        <time>2019-04-18T15:51:40Z</time>
      </trkpt>
      <trkpt lat="44.95017" lon="6.78641">
        <ele>1383</ele>
        <time>2019-04-18T15:52:40Z</time>
      </trkpt>
      <trkpt lat="44.95042" lon="6.78786">
        <ele>1376</ele>
        <time>2019-04-18T15:53:40Z</time>
      </trkpt>
      <trkpt lat="44.95042" lon="6.78813">
        <ele>1375</ele>
        <time>2019-04-18T15:54:40Z</time>
      </trkpt>
      <trkpt lat="44.9504" lon="6.78825">
        <ele>1375</ele>
        <time>2019-04-18T15:55:40Z</time>
      </trkpt>
      <trkpt lat="44.95031" lon="6.7885">
        <ele>1378</ele>
        <time>2019-04-18T15:56:40Z</time>
      </trkpt>
      <trkpt lat="44.95016" lon="6.78869">
        <ele>1382</ele>
        <time>2019-04-18T15:57:40Z</time>
      </trkpt>
      <trkpt lat="44.95005" lon="6.78876">
        <ele>1384</ele>
        <time>2019-04-18T15:58:40Z</time>
      </trkpt>
      <trkpt lat="44.94984" lon="6.78882">
        <ele>1390</ele>
        <time>2019-04-18T15:59:40Z</time>
      </trkpt>
      <trkpt lat="44.94972" lon="6.78881">
        <ele>1393</ele>
        <time>2019-04-18T16:00:40Z</time>
      </trkpt>
      <trkpt lat="44.94962" lon="6.78875">
        <ele>1396</ele>
        <time>2019-04-18T16:01:40Z</time>
      </trkpt>
      <trkpt lat="44.94956" lon="6.78867">
        <ele>1398</ele>
        <time>2019-04-18T16:02:40Z</time>
      </trkpt>
      <trkpt lat="44.94951" lon="6.78857">
        <ele>1399</ele>
        <time>2019-04-18T16:03:40Z</time>
      </trkpt>
      <trkpt lat="44.9495" lon="6.78844">
        <ele>1399</ele>
        <time>2019-04-18T16:04:40Z</time>
      </trkpt>
      <trkpt lat="44.94951" lon="6.78829">
        <ele>1399</ele>
        <time>2019-04-18T16:05:40Z</time>
      </trkpt>
      <trkpt lat="44.94966" lon="6.78772">
        <ele>1400</ele>
        <time>2019-04-18T16:06:40Z</time>
      </trkpt>
      <trkpt lat="44.9497" lon="6.78752">
        <ele>1400</ele>
        <time>2019-04-18T16:07:40Z</time>
      </trkpt>
      <trkpt lat="44.9497" lon="6.78732">
        <ele>1400</ele>
        <time>2019-04-18T16:08:40Z</time>
      </trkpt>
      <trkpt lat="44.94969" lon="6.78713">
        <ele>1399</ele>
        <time>2019-04-18T16:09:40Z</time>
      </trkpt>
      <trkpt lat="44.94962" lon="6.78679">
        <ele>1400</ele>
        <time>2019-04-18T16:10:40Z</time>
      </trkpt>
      <trkpt lat="44.94955" lon="6.78662">
        <ele>1402</ele>
        <time>2019-04-18T16:11:40Z</time>
      </trkpt>
      <trkpt lat="44.94945" lon="6.78647">
        <ele>1405</ele>
        <time>2019-04-18T16:12:40Z</time>
      </trkpt>
      <trkpt lat="44.9493" lon="6.78631">
        <ele>1409</ele>
        <time>2019-04-18T16:13:40Z</time>
      </trkpt>
      <trkpt lat="44.94902" lon="6.78609">
        <ele>1415</ele>
        <time>2019-04-18T16:14:40Z</time>
      </trkpt>
      <trkpt lat="44.9485" lon="6.78575">
        <ele>1423</ele>
        <time>2019-04-18T16:15:40Z</time>
      </trkpt>
      <trkpt lat="44.94839" lon="6.78561">
        <ele>1426</ele>
        <time>2019-04-18T16:16:40Z</time>
      </trkpt>
      <trkpt lat="44.94833" lon="6.78548">
        <ele>1428</ele>
        <time>2019-04-18T16:17:40Z</time>
      </trkpt>
      <trkpt lat="44.94832" lon="6.7853">
        <ele>1430</ele>
        <time>2019-04-18T16:18:40Z</time>
      </trkpt>
      <trkpt lat="44.94835" lon="6.78512">
        <ele>1430</ele>
        <time>2019-04-18T16:19:40Z</time>
      </trkpt>
      <trkpt lat="44.94842" lon="6.78497">
        <ele>1431</ele>
        <time>2019-04-18T16:20:40Z</time>
      </trkpt>
      <trkpt lat="44.94856" lon="6.78479">
        <ele>1433</ele>
        <time>2019-04-18T16:21:40Z</time>
      </trkpt>
      <trkpt lat="44.94881" lon="6.78454">
        <ele>1435</ele>
        <time>2019-04-18T16:22:40Z</time>
      </trkpt>
      <trkpt lat="44.94913" lon="6.78431">
        <ele>1437</ele>
        <time>2019-04-18T16:23:40Z</time>
      </trkpt>
      <trkpt lat="44.94939" lon="6.78416">
        <ele>1436</ele>
        <time>2019-04-18T16:24:40Z</time>
      </trkpt>
      <trkpt lat="44.9496" lon="6.78399">
        <ele>1434</ele>
        <time>2019-04-18T16:25:40Z</time>
      </trkpt>
      <trkpt lat="44.94974" lon="6.78373">
        <ele>1434</ele>
        <time>2019-04-18T16:26:40Z</time>
      </trkpt>
      <trkpt lat="44.94981" lon="6.78339">
        <ele>1435</ele>
        <time>2019-04-18T16:27:40Z</time>
      </trkpt>
      <trkpt lat="44.94983" lon="6.78296">
        <ele>1436</ele>
        <time>2019-04-18T16:28:40Z</time>
      </trkpt>
      <trkpt lat="44.94979" lon="6.78256">
        <ele>1437</ele>
        <time>2019-04-18T16:29:40Z</time>
      </trkpt>
      <trkpt lat="44.9497" lon="6.78222">
        <ele>1441</ele>
        <time>2019-04-18T16:30:40Z</time>
      </trkpt>
      <trkpt lat="44.94947" lon="6.7816">
        <ele>1449</ele>
        <time>2019-04-18T16:31:40Z</time>
      </trkpt>
      <trkpt lat="44.94934" lon="6.78131">
        <ele>1453</ele>
        <time>2019-04-18T16:32:40Z</time>
      </trkpt>
      <trkpt lat="44.9492" lon="6.7809">
        <ele>1457</ele>
        <time>2019-04-18T16:33:40Z</time>
      </trkpt>
      <trkpt lat="44.94902" lon="6.78023">
        <ele>1467</ele>
        <time>2019-04-18T16:34:40Z</time>
      </trkpt>
      <trkpt lat="44.94881" lon="6.77966">
        <ele>1477</ele>
        <time>2019-04-18T16:35:40Z</time>
      </trkpt>
      <trkpt lat="44.94847" lon="6.7789">
        <ele>1483</ele>
        <time>2019-04-18T16:36:40Z</time>
      </trkpt>
      <trkpt lat="44.94815" lon="6.77835">
        <ele>1486</ele>
        <time>2019-04-18T16:37:40Z</time>
      </trkpt>
      <trkpt lat="44.94797" lon="6.77818">
        <ele>1492</ele>
        <time>2019-04-18T16:38:40Z</time>
      </trkpt>
      <trkpt lat="44.94772" lon="6.77798">
        <ele>1496</ele>
        <time>2019-04-18T16:39:40Z</time>
      </trkpt>
      <trkpt lat="44.94719" lon="6.77747">
        <ele>1500</ele>
        <time>2019-04-18T16:40:40Z</time>
      </trkpt>
      <trkpt lat="44.94708" lon="6.77725">
        <ele>1505</ele>
        <time>2019-04-18T16:41:40Z</time>
      </trkpt>
      <trkpt lat="44.94703" lon="6.77697">
        <ele>1508</ele>
        <time>2019-04-18T16:42:40Z</time>
      </trkpt>
      <trkpt lat="44.94701" lon="6.77666">
        <ele>1510</ele>
        <time>2019-04-18T16:43:40Z</time>
      </trkpt>
      <trkpt lat="44.94707" lon="6.77509">
        <ele>1514</ele>
        <time>2019-04-18T16:44:40Z</time>
      </trkpt>
      <trkpt lat="44.94712" lon="6.77308">
        <ele>1518</ele>
        <time>2019-04-18T16:45:40Z</time>
      </trkpt>
      <trkpt lat="44.94717" lon="6.77251">
        <ele>1519</ele>
        <time>2019-04-18T16:46:40Z</time>
      </trkpt>
      <trkpt lat="44.9472" lon="6.77225">
        <ele>1519</ele>
        <time>2019-04-18T16:47:40Z</time>
      </trkpt>
      <trkpt lat="44.94728" lon="6.77205">
        <ele>1518</ele>
        <time>2019-04-18T16:48:40Z</time>
      </trkpt>
      <trkpt lat="44.94734" lon="6.77193">
        <ele>1516</ele>
        <time>2019-04-18T16:49:40Z</time>
      </trkpt>
      <trkpt lat="44.94744" lon="6.77183">
        <ele>1512</ele>
        <time>2019-04-18T16:50:40Z</time>
      </trkpt>
      <trkpt lat="44.94757" lon="6.77178">
        <ele>1513</ele>
        <time>2019-04-18T16:51:40Z</time>
      </trkpt>
      <trkpt lat="44.94772" lon="6.77179">
        <ele>1518</ele>
        <time>2019-04-18T16:52:40Z</time>
      </trkpt>
      <trkpt lat="44.94783" lon="6.77185">
        <ele>1521</ele>
        <time>2019-04-18T16:53:40Z</time>
      </trkpt>
      <trkpt lat="44.94798" lon="6.77201">
        <ele>1524</ele>
        <time>2019-04-18T16:54:40Z</time>
      </trkpt>
      <trkpt lat="44.94813" lon="6.77223">
        <ele>1525</ele>
        <time>2019-04-18T16:55:40Z</time>
      </trkpt>
      <trkpt lat="44.94837" lon="6.77254">
        <ele>1527</ele>
        <time>2019-04-18T16:56:40Z</time>
      </trkpt>
      <trkpt lat="44.94859" lon="6.77291">
        <ele>1530</ele>
        <time>2019-04-18T16:57:40Z</time>
      </trkpt>
      <trkpt lat="44.94872" lon="6.77323">
        <ele>1531</ele>
        <time>2019-04-18T16:58:40Z</time>
      </trkpt>
      <trkpt lat="44.94884" lon="6.7736">
        <ele>1533</ele>
        <time>2019-04-18T16:59:40Z</time>
      </trkpt>
      <trkpt lat="44.94905" lon="6.77473">
        <ele>1540</ele>
        <time>2019-04-18T17:00:40Z</time>
      </trkpt>
      <trkpt lat="44.94911" lon="6.77525">
        <ele>1543</ele>
        <time>2019-04-18T17:01:40Z</time>
      </trkpt>
      <trkpt lat="44.94921" lon="6.77567">
        <ele>1546</ele>
        <time>2019-04-18T17:02:40Z</time>
      </trkpt>
      <trkpt lat="44.94933" lon="6.77609">
        <ele>1548</ele>
        <time>2019-04-18T17:03:40Z</time>
      </trkpt>
      <trkpt lat="44.94952" lon="6.77651">
        <ele>1552</ele>
        <time>2019-04-18T17:04:40Z</time>
      </trkpt>
      <trkpt lat="44.94982" lon="6.77703">
        <ele>1551</ele>
        <time>2019-04-18T17:05:40Z</time>
      </trkpt>
      <trkpt lat="44.94997" lon="6.77722">
        <ele>1551</ele>
        <time>2019-04-18T17:06:40Z</time>
      </trkpt>
      <trkpt lat="44.95014" lon="6.77736">
        <ele>1552</ele>
        <time>2019-04-18T17:07:40Z</time>
      </trkpt>
      <trkpt lat="44.9503" lon="6.77744">
        <ele>1554</ele>
        <time>2019-04-18T17:08:40Z</time>
      </trkpt>
      <trkpt lat="44.95076" lon="6.77753">
        <ele>1565</ele>
        <time>2019-04-18T17:09:40Z</time>
      </trkpt>
      <trkpt lat="44.95089" lon="6.77759">
        <ele>1566</ele>
        <time>2019-04-18T17:10:40Z</time>
      </trkpt>
      <trkpt lat="44.95109" lon="6.77774">
        <ele>1568</ele>
        <time>2019-04-18T17:11:40Z</time>
      </trkpt>
      <trkpt lat="44.9514" lon="6.77806">
        <ele>1567</ele>
        <time>2019-04-18T17:12:40Z</time>
      </trkpt>
      <trkpt lat="44.95158" lon="6.77832">
        <ele>1564</ele>
        <time>2019-04-18T17:13:40Z</time>
      </trkpt>
      <trkpt lat="44.95175" lon="6.77874">
        <ele>1563</ele>
        <time>2019-04-18T17:14:40Z</time>
      </trkpt>
      <trkpt lat="44.95183" lon="6.77901">
        <ele>1562</ele>
        <time>2019-04-18T17:15:40Z</time>
      </trkpt>
      <trkpt lat="44.95192" lon="6.77912">
        <ele>1565</ele>
        <time>2019-04-18T17:16:40Z</time>
      </trkpt>
      <trkpt lat="44.95199" lon="6.77912">
        <ele>1568</ele>
        <time>2019-04-18T17:17:40Z</time>
      </trkpt>
      <trkpt lat="44.95205" lon="6.77907">
        <ele>1572</ele>
        <time>2019-04-18T17:18:40Z</time>
      </trkpt>
      <trkpt lat="44.95207" lon="6.77895">
        <ele>1575</ele>
        <time>2019-04-18T17:19:40Z</time>
      </trkpt>
      <trkpt lat="44.95204" lon="6.7787">
        <ele>1578</ele>
        <time>2019-04-18T17:20:40Z</time>
      </trkpt>
      <trkpt lat="44.95199" lon="6.77847">
        <ele>1579</ele>
        <time>2019-04-18T17:21:40Z</time>
      </trkpt>
      <trkpt lat="44.95191" lon="6.77827">
        <ele>1580</ele>
        <time>2019-04-18T17:22:40Z</time>
      </trkpt>
      <trkpt lat="44.95174" lon="6.77796">
        <ele>1584</ele>
        <time>2019-04-18T17:23:40Z</time>
      </trkpt>
      <trkpt lat="44.95111" lon="6.77715">
        <ele>1590</ele>
        <time>2019-04-18T17:24:40Z</time>
      </trkpt>
      <trkpt lat="44.95093" lon="6.77684">
        <ele>1594</ele>
        <time>2019-04-18T17:25:40Z</time>
      </trkpt>
      <trkpt lat="44.95077" lon="6.7765">
        <ele>1596</ele>
        <time>2019-04-18T17:26:40Z</time>
      </trkpt>
      <trkpt lat="44.95068" lon="6.77623">
        <ele>1595</ele>
        <time>2019-04-18T17:27:40Z</time>
      </trkpt>
      <trkpt lat="44.95065" lon="6.77595">
        <ele>1597</ele>
        <time>2019-04-18T17:28:40Z</time>
      </trkpt>
      <trkpt lat="44.95067" lon="6.77497">
        <ele>1605</ele>
        <time>2019-04-18T17:29:40Z</time>
      </trkpt>
      <trkpt lat="44.9507" lon="6.77457">
        <ele>1610</ele>
        <time>2019-04-18T17:30:40Z</time>
      </trkpt>
      <trkpt lat="44.95069" lon="6.77408">
        <ele>1616</ele>
        <time>2019-04-18T17:31:40Z</time>
      </trkpt>
      <trkpt lat="44.95054" lon="6.77333">
        <ele>1621</ele>
        <time>2019-04-18T17:32:40Z</time>
      </trkpt>
      <trkpt lat="44.95033" lon="6.77257">
        <ele>1626</ele>
        <time>2019-04-18T17:33:40Z</time>
      </trkpt>
      <trkpt lat="44.95004" lon="6.77166">
        <ele>1631</ele>
        <time>2019-04-18T17:34:40Z</time>
      </trkpt>
      <trkpt lat="44.94989" lon="6.7708">
        <ele>1639</ele>
        <time>2019-04-18T17:35:40Z</time>
      </trkpt>
      <trkpt lat="44.9498" lon="6.76997">
        <ele>1651</ele>
        <time>2019-04-18T17:36:40Z</time>
      </trkpt>
      <trkpt lat="44.94973" lon="6.76969">
        <ele>1654</ele>
        <time>2019-04-18T17:37:40Z</time>
      </trkpt>
      <trkpt lat="44.94964" lon="6.7695">
        <ele>1655</ele>
        <time>2019-04-18T17:38:40Z</time>
      </trkpt>
      <trkpt lat="44.94934" lon="6.76915">
        <ele>1648</ele>
        <time>2019-04-18T17:39:40Z</time>
      </trkpt>
      <trkpt lat="44.94902" lon="6.76861">
        <ele>1652</ele>
        <time>2019-04-18T17:40:40Z</time>
      </trkpt>
      <trkpt lat="44.94766" lon="6.76603">
        <ele>1676</ele>
        <time>2019-04-18T17:41:40Z</time>
      </trkpt>
      <trkpt lat="44.9474" lon="6.76548">
        <ele>1684</ele>
        <time>2019-04-18T17:42:40Z</time>
      </trkpt>
      <trkpt lat="44.94719" lon="6.76515">
        <ele>1691</ele>
        <time>2019-04-18T17:43:40Z</time>
      </trkpt>
      <trkpt lat="44.94698" lon="6.76496">
        <ele>1693</ele>
        <time>2019-04-18T17:44:40Z</time>
      </trkpt>
      <trkpt lat="44.94682" lon="6.76489">
        <ele>1692</ele>
        <time>2019-04-18T17:45:40Z</time>
      </trkpt>
      <trkpt lat="44.94643" lon="6.76482">
        <ele>1688</ele>
        <time>2019-04-18T17:46:40Z</time>
      </trkpt>
      <trkpt lat="44.9456" lon="6.76488">
        <ele>1669</ele>
        <time>2019-04-18T17:47:40Z</time>
      </trkpt>
      <trkpt lat="44.9455" lon="6.76486">
        <ele>1666</ele>
        <time>2019-04-18T17:48:40Z</time>
      </trkpt>
      <trkpt lat="44.94541" lon="6.7648">
        <ele>1665</ele>
        <time>2019-04-18T17:49:40Z</time>
      </trkpt>
      <trkpt lat="44.94525" lon="6.76462">
        <ele>1667</ele>
        <time>2019-04-18T17:50:40Z</time>
      </trkpt>
      <trkpt lat="44.94516" lon="6.76436">
        <ele>1675</ele>
        <time>2019-04-18T17:51:40Z</time>
      </trkpt>
      <trkpt lat="44.94512" lon="6.76386">
        <ele>1694</ele>
        <time>2019-04-18T17:52:40Z</time>
      </trkpt>
      <trkpt lat="44.9451" lon="6.76372">
        <ele>1699</ele>
        <time>2019-04-18T17:53:40Z</time>
      </trkpt>
      <trkpt lat="44.94504" lon="6.76353">
        <ele>1703</ele>
        <time>2019-04-18T17:54:40Z</time>
      </trkpt>
      <trkpt lat="44.94482" lon="6.76311">
        <ele>1711</ele>
        <time>2019-04-18T17:55:40Z</time>
      </trkpt>
      <trkpt lat="44.94467" lon="6.76291">
        <ele>1711</ele>
        <time>2019-04-18T17:56:40Z</time>
      </trkpt>
      <trkpt lat="44.94456" lon="6.76278">
        <ele>1710</ele>
        <time>2019-04-18T17:57:40Z</time>
      </trkpt>
      <trkpt lat="44.94434" lon="6.76261">
        <ele>1701</ele>
        <time>2019-04-18T17:58:40Z</time>
      </trkpt>
      <trkpt lat="44.94409" lon="6.76233">
        <ele>1696</ele>
        <time>2019-04-18T17:59:40Z</time>
      </trkpt>
      <trkpt lat="44.94403" lon="6.76221">
        <ele>1697</ele>
        <time>2019-04-18T18:00:40Z</time>
      </trkpt>
      <trkpt lat="44.94398" lon="6.76206">
        <ele>1701</ele>
        <time>2019-04-18T18:01:40Z</time>
      </trkpt>
      <trkpt lat="44.94396" lon="6.76189">
        <ele>1708</ele>
        <time>2019-04-18T18:02:40Z</time>
      </trkpt>
      <trkpt lat="44.94396" lon="6.76147">
        <ele>1725</ele>
        <time>2019-04-18T18:03:40Z</time>
      </trkpt>
      <trkpt lat="44.94394" lon="6.76132">
        <ele>1728</ele>
        <time>2019-04-18T18:04:40Z</time>
      </trkpt>
      <trkpt lat="44.94383" lon="6.76111">
        <ele>1727</ele>
        <time>2019-04-18T18:05:40Z</time>
      </trkpt>
      <trkpt lat="44.94367" lon="6.76065">
        <ele>1730</ele>
        <time>2019-04-18T18:06:40Z</time>
      </trkpt>
      <trkpt lat="44.94364" lon="6.76044">
        <ele>1734</ele>
        <time>2019-04-18T18:07:40Z</time>
      </trkpt>
      <trkpt lat="44.94358" lon="6.75993">
        <ele>1745</ele>
        <time>2019-04-18T18:08:40Z</time>
      </trkpt>
      <trkpt lat="44.94348" lon="6.75961">
        <ele>1745</ele>
        <time>2019-04-18T18:09:40Z</time>
      </trkpt>
      <trkpt lat="44.94329" lon="6.75931">
        <ele>1741</ele>
        <time>2019-04-18T18:10:40Z</time>
      </trkpt>
      <trkpt lat="44.94319" lon="6.75922">
        <ele>1742</ele>
        <time>2019-04-18T18:11:40Z</time>
      </trkpt>
      <trkpt lat="44.94293" lon="6.75908">
        <ele>1744</ele>
        <time>2019-04-18T18:12:40Z</time>
      </trkpt>
      <trkpt lat="44.94263" lon="6.75886">
        <ele>1747</ele>
        <time>2019-04-18T18:13:40Z</time>
      </trkpt>
      <trkpt lat="44.9423" lon="6.75855">
        <ele>1746</ele>
        <time>2019-04-18T18:14:40Z</time>
      </trkpt>
      <trkpt lat="44.94219" lon="6.7584">
        <ele>1746</ele>
        <time>2019-04-18T18:15:40Z</time>
      </trkpt>
      <trkpt lat="44.9421" lon="6.75824">
        <ele>1747</ele>
        <time>2019-04-18T18:16:40Z</time>
      </trkpt>
      <trkpt lat="44.94206" lon="6.75811">
        <ele>1748</ele>
        <time>2019-04-18T18:17:40Z</time>
      </trkpt>
      <trkpt lat="44.94198" lon="6.75805">
        <ele>1748</ele>
        <time>2019-04-18T18:18:40Z</time>
      </trkpt>
      <trkpt lat="44.9419" lon="6.75806">
        <ele>1747</ele>
        <time>2019-04-18T18:19:40Z</time>
      </trkpt>
      <trkpt lat="44.94174" lon="6.75801">
        <ele>1746</ele>
        <time>2019-04-18T18:20:40Z</time>
      </trkpt>
      <trkpt lat="44.94159" lon="6.75792">
        <ele>1745</ele>
        <time>2019-04-18T18:21:40Z</time>
      </trkpt>
      <trkpt lat="44.94116" lon="6.75719">
        <ele>1744</ele>
        <time>2019-04-18T18:22:40Z</time>
      </trkpt>
      <trkpt lat="44.94111" lon="6.75705">
        <ele>1744</ele>
        <time>2019-04-18T18:23:40Z</time>
      </trkpt>
      <trkpt lat="44.94108" lon="6.75674">
        <ele>1746</ele>
        <time>2019-04-18T18:24:40Z</time>
      </trkpt>
      <trkpt lat="44.94109" lon="6.75657">
        <ele>1748</ele>
        <time>2019-04-18T18:25:40Z</time>
      </trkpt>
      <trkpt lat="44.94114" lon="6.75619">
        <ele>1750</ele>
        <time>2019-04-18T18:26:40Z</time>
      </trkpt>
      <trkpt lat="44.94115" lon="6.75605">
        <ele>1751</ele>
        <time>2019-04-18T18:27:40Z</time>
      </trkpt>
      <trkpt lat="44.94113" lon="6.75584">
        <ele>1751</ele>
        <time>2019-04-18T18:28:40Z</time>
      </trkpt>
      <trkpt lat="44.94109" lon="6.75569">
        <ele>1752</ele>
        <time>2019-04-18T18:29:40Z</time>
      </trkpt>
      <trkpt lat="44.94039" lon="6.75372">
        <ele>1758</ele>
        <time>2019-04-18T18:30:40Z</time>
      </trkpt>
      <trkpt lat="44.94033" lon="6.75349">
        <ele>1759</ele>
        <time>2019-04-18T18:31:40Z</time>
      </trkpt>
      <trkpt lat="44.94027" lon="6.75315">
        <ele>1760</ele>
        <time>2019-04-18T18:32:40Z</time>
      </trkpt>
      <trkpt lat="44.94018" lon="6.75254">
        <ele>1761</ele>
        <time>2019-04-18T18:33:40Z</time>
      </trkpt>
      <trkpt lat="44.94008" lon="6.75216">
        <ele>1761</ele>
        <time>2019-04-18T18:34:40Z</time>
      </trkpt>
      <trkpt lat="44.93998" lon="6.75191">
        <ele>1760</ele>
        <time>2019-04-18T18:35:40Z</time>
      </trkpt>
      <trkpt lat="44.93988" lon="6.75171">
        <ele>1761</ele>
        <time>2019-04-18T18:36:40Z</time>
      </trkpt>
      <trkpt lat="44.93975" lon="6.75149">
        <ele>1764</ele>
        <time>2019-04-18T18:37:40Z</time>
      </trkpt>
      <trkpt lat="44.93896" lon="6.75029">
        <ele>1766</ele>
        <time>2019-04-18T18:38:40Z</time>
      </trkpt>
      <trkpt lat="44.93736" lon="6.74798">
        <ele>1774</ele>
        <time>2019-04-18T18:39:40Z</time>
      </trkpt>
      <trkpt lat="44.93716" lon="6.74773">
        <ele>1775</ele>
        <time>2019-04-18T18:40:40Z</time>
      </trkpt>
      <trkpt lat="44.93677" lon="6.74699">
        <ele>1780</ele>
        <time>2019-04-18T18:41:40Z</time>
      </trkpt>
      <trkpt lat="44.93653" lon="6.74618">
        <ele>1787</ele>
        <time>2019-04-18T18:42:40Z</time>
      </trkpt>
      <trkpt lat="44.93645" lon="6.74593">
        <ele>1789</ele>
        <time>2019-04-18T18:43:40Z</time>
      </trkpt>
      <trkpt lat="44.93624" lon="6.74557">
        <ele>1789</ele>
        <time>2019-04-18T18:44:40Z</time>
      </trkpt>
      <trkpt lat="44.93615" lon="6.74529">
        <ele>1791</ele>
        <time>2019-04-18T18:45:40Z</time>
      </trkpt>
      <trkpt lat="44.93546" lon="6.74403">
        <ele>1793</ele>
        <time>2019-04-18T18:46:40Z</time>
      </trkpt>
      <trkpt lat="44.93537" lon="6.74364">
        <ele>1793</ele>
        <time>2019-04-18T18:47:40Z</time>
      </trkpt>
      <trkpt lat="44.93537" lon="6.74304">
        <ele>1799</ele>
        <time>2019-04-18T18:48:40Z</time>
      </trkpt>
      <trkpt lat="44.93535" lon="6.74278">
        <ele>1802</ele>
        <time>2019-04-18T18:49:40Z</time>
      </trkpt>
      <trkpt lat="44.93521" lon="6.74251">
        <ele>1804</ele>
        <time>2019-04-18T18:50:40Z</time>
      </trkpt>
      <trkpt lat="44.93497" lon="6.74235">
        <ele>1805</ele>
        <time>2019-04-18T18:51:40Z</time>
      </trkpt>
      <trkpt lat="44.93439" lon="6.74211">
        <ele>1804</ele>
        <time>2019-04-18T18:52:40Z</time>
      </trkpt>
      <trkpt lat="44.9342" lon="6.74197">
        <ele>1804</ele>
        <time>2019-04-18T18:53:40Z</time>
      </trkpt>
      <trkpt lat="44.93405" lon="6.74165">
        <ele>1807</ele>
        <time>2019-04-18T18:54:40Z</time>
      </trkpt>
      <trkpt lat="44.93388" lon="6.74084">
        <ele>1813</ele>
        <time>2019-04-18T18:55:40Z</time>
      </trkpt>
      <trkpt lat="44.93359" lon="6.73987">
        <ele>1814</ele>
        <time>2019-04-18T18:56:40Z</time>
      </trkpt>
      <trkpt lat="44.93348" lon="6.73863">
        <ele>1820</ele>
        <time>2019-04-18T18:57:40Z</time>
      </trkpt>
      <trkpt lat="44.9334" lon="6.73811">
        <ele>1822</ele>
        <time>2019-04-18T18:58:40Z</time>
      </trkpt>
      <trkpt lat="44.93309" lon="6.73664">
        <ele>1830</ele>
        <time>2019-04-18T18:59:40Z</time>
      </trkpt>
      <trkpt lat="44.93306" lon="6.73616">
        <ele>1832</ele>
        <time>2019-04-18T19:00:40Z</time>
      </trkpt>
      <trkpt lat="44.9331" lon="6.73541">
        <ele>1836</ele>
        <time>2019-04-18T19:01:40Z</time>
      </trkpt>
      <trkpt lat="44.93315" lon="6.73488">
        <ele>1837</ele>
        <time>2019-04-18T19:02:40Z</time>
      </trkpt>
      <trkpt lat="44.93318" lon="6.73474">
        <ele>1837</ele>
        <time>2019-04-18T19:03:40Z</time>
      </trkpt>
      <trkpt lat="44.93328" lon="6.73448">
        <ele>1838</ele>
        <time>2019-04-18T19:04:40Z</time>
      </trkpt>
      <trkpt lat="44.93367" lon="6.73382">
        <ele>1841</ele>
        <time>2019-04-18T19:05:40Z</time>
      </trkpt>
      <trkpt lat="44.93375" lon="6.73365">
        <ele>1843</ele>
        <time>2019-04-18T19:06:40Z</time>
      </trkpt>
      <trkpt lat="44.93385" lon="6.73336">
        <ele>1844</ele>
        <time>2019-04-18T19:07:40Z</time>
      </trkpt>
      <trkpt lat="44.93421" lon="6.73192">
        <ele>1847</ele>
        <time>2019-04-18T19:08:40Z</time>
      </trkpt>
      <trkpt lat="44.93423" lon="6.73178">
        <ele>1848</ele>
        <time>2019-04-18T19:09:40Z</time>
      </trkpt>
      <trkpt lat="44.93423" lon="6.73156">
        <ele>1848</ele>
        <time>2019-04-18T19:10:40Z</time>
      </trkpt>
      <trkpt lat="44.93414" lon="6.73121">
        <ele>1847</ele>
        <time>2019-04-18T19:11:40Z</time>
      </trkpt>
      <trkpt lat="44.93374" lon="6.73001">
        <ele>1849</ele>
        <time>2019-04-18T19:12:40Z</time>
      </trkpt>
      <trkpt lat="44.93348" lon="6.72919">
        <ele>1850</ele>
        <time>2019-04-18T19:13:40Z</time>
      </trkpt>
      <trkpt lat="44.93329" lon="6.72883">
        <ele>1850</ele>
        <time>2019-04-18T19:14:40Z</time>
      </trkpt>
      <trkpt lat="44.93288" lon="6.72823">
        <ele>1849</ele>
        <time>2019-04-18T19:15:40Z</time>
      </trkpt>
      <trkpt lat="44.93291" lon="6.72819">
        <ele>1849</ele>
        <time>2019-04-18T19:16:40Z</time>
      </trkpt>
      <trkpt lat="44.93293" lon="6.72805">
        <ele>1850</ele>
        <time>2019-04-18T19:17:40Z</time>
      </trkpt>
      <trkpt lat="44.93292" lon="6.72798">
        <ele>1850</ele>
        <time>2019-04-18T19:18:40Z</time>
      </trkpt>
      <trkpt lat="44.93288" lon="6.72792">
        <ele>1850</ele>
        <time>2019-04-18T19:19:40Z</time>
      </trkpt>
      <trkpt lat="44.93282" lon="6.72787">
        <ele>1850</ele>
        <time>2019-04-18T19:20:40Z</time>
      </trkpt>
      <trkpt lat="44.93285" lon="6.72775">
        <ele>1851</ele>
        <time>2019-04-18T19:21:40Z</time>
      </trkpt>
      <trkpt lat="44.93286" lon="6.72763">
        <ele>1851</ele>
        <time>2019-04-18T19:22:40Z</time>
      </trkpt>
      <trkpt lat="44.93284" lon="6.72753">
        <ele>1852</ele>
        <time>2019-04-18T19:23:40Z</time>
      </trkpt>
      <trkpt lat="44.93278" lon="6.72741">
        <ele>1852</ele>
        <time>2019-04-18T19:24:40Z</time>
      </trkpt>
      <trkpt lat="44.93155" lon="6.7254">
        <ele>1854</ele>
        <time>2019-04-18T19:25:40Z</time>
      </trkpt>
      <trkpt lat="44.9314" lon="6.72508">
        <ele>1854</ele>
        <time>2019-04-18T19:26:40Z</time>
      </trkpt>
      <trkpt lat="44.93123" lon="6.72455">
        <ele>1854</ele>
        <time>2019-04-18T19:27:40Z</time>
      </trkpt>
      <trkpt lat="44.93097" lon="6.72345">
        <ele>1854</ele>
        <time>2019-04-18T19:28:40Z</time>
      </trkpt>
      <trkpt lat="44.93043" lon="6.72154">
        <ele>1850</ele>
        <time>2019-04-18T19:29:40Z</time>
      </trkpt>
      <trkpt lat="44.92961" lon="6.71888">
        <ele>1838</ele>
        <time>2019-04-18T19:30:40Z</time>
      </trkpt>
      <trkpt lat="44.92957" lon="6.7188">
        <ele>1838</ele>
        <time>2019-04-18T19:31:40Z</time>
      </trkpt>
      <trkpt lat="44.92949" lon="6.71876">
        <ele>1837</ele>
        <time>2019-04-18T19:32:40Z</time>
      </trkpt>
      <trkpt lat="44.92938" lon="6.71879">
        <ele>1836</ele>
        <time>2019-04-18T19:33:40Z</time>
      </trkpt>
      <trkpt lat="44.92931" lon="6.71886">
        <ele>1836</ele>
        <time>2019-04-18T19:34:40Z</time>
      </trkpt>
      <trkpt lat="44.92927" lon="6.71876">
        <ele>1835</ele>
        <time>2019-04-18T19:35:40Z</time>
      </trkpt>
      <trkpt lat="44.92923" lon="6.71869">
        <ele>1834</ele>
        <time>2019-04-18T19:36:40Z</time>
      </trkpt>
      <trkpt lat="44.92917" lon="6.71847">
        <ele>1831</ele>
        <time>2019-04-18T19:37:40Z</time>
      </trkpt>
      <trkpt lat="44.92914" lon="6.71813">
        <ele>1829</ele>
        <time>2019-04-18T19:38:40Z</time>
      </trkpt>
      <trkpt lat="44.9292" lon="6.71722">
        <ele>1824</ele>
        <time>2019-04-18T19:39:40Z</time>
      </trkpt>
      <trkpt lat="44.92918" lon="6.71705">
        <ele>1823</ele>
        <time>2019-04-18T19:40:40Z</time>
      </trkpt>
      <trkpt lat="44.92877" lon="6.7143">
        <ele>1807</ele>
        <time>2019-04-18T19:41:40Z</time>
      </trkpt>
      <trkpt lat="44.92842" lon="6.71284">
        <ele>1800</ele>
        <time>2019-04-18T19:42:40Z</time>
      </trkpt>
      <trkpt lat="44.92781" lon="6.71109">
        <ele>1793</ele>
        <time>2019-04-18T19:43:40Z</time>
      </trkpt>
      <trkpt lat="44.92766" lon="6.71033">
        <ele>1786</ele>
        <time>2019-04-18T19:44:40Z</time>
      </trkpt>
      <trkpt lat="44.92758" lon="6.71007">
        <ele>1782</ele>
        <time>2019-04-18T19:45:40Z</time>
      </trkpt>
      <trkpt lat="44.92747" lon="6.70977">
        <ele>1780</ele>
        <time>2019-04-18T19:46:40Z</time>
      </trkpt>
      <trkpt lat="44.9272" lon="6.7092">
        <ele>1778</ele>
        <time>2019-04-18T19:47:40Z</time>
      </trkpt>
      <trkpt lat="44.92714" lon="6.70896">
        <ele>1776</ele>
        <time>2019-04-18T19:48:40Z</time>
      </trkpt>
      <trkpt lat="44.92711" lon="6.70877">
        <ele>1775</ele>
        <time>2019-04-18T19:49:40Z</time>
      </trkpt>
      <trkpt lat="44.92714" lon="6.70856">
        <ele>1775</ele>
        <time>2019-04-18T19:50:40Z</time>
      </trkpt>
      <trkpt lat="44.92712" lon="6.70834">
        <ele>1774</ele>
        <time>2019-04-18T19:51:40Z</time>
      </trkpt>
      <trkpt lat="44.92706" lon="6.7081">
        <ele>1771</ele>
        <time>2019-04-18T19:52:40Z</time>
      </trkpt>
      <trkpt lat="44.92689" lon="6.70769">
        <ele>1763</ele>
        <time>2019-04-18T19:53:40Z</time>
      </trkpt>
      <trkpt lat="44.92682" lon="6.70747">
        <ele>1760</ele>
        <time>2019-04-18T19:54:40Z</time>
      </trkpt>
      <trkpt lat="44.92678" lon="6.70724">
        <ele>1757</ele>
        <time>2019-04-18T19:55:40Z</time>
      </trkpt>
      <trkpt lat="44.92676" lon="6.70699">
        <ele>1754</ele>
        <time>2019-04-18T19:56:40Z</time>
      </trkpt>
      <trkpt lat="44.92677" lon="6.70675">
        <ele>1752</ele>
        <time>2019-04-18T19:57:40Z</time>
      </trkpt>
      <trkpt lat="44.92682" lon="6.70645">
        <ele>1752</ele>
        <time>2019-04-18T19:58:40Z</time>
      </trkpt>
      <trkpt lat="44.92721" lon="6.70461">
        <ele>1748</ele>
        <time>2019-04-18T19:59:40Z</time>
      </trkpt>
      <trkpt lat="44.92727" lon="6.70443">
        <ele>1747</ele>
        <time>2019-04-18T20:00:40Z</time>
      </trkpt>
      <trkpt lat="44.92736" lon="6.70425">
        <ele>1748</ele>
        <time>2019-04-18T20:01:40Z</time>
      </trkpt>
      <trkpt lat="44.92739" lon="6.7041">
        <ele>1748</ele>
        <time>2019-04-18T20:02:40Z</time>
      </trkpt>
      <trkpt lat="44.92738" lon="6.70392">
        <ele>1750</ele>
        <time>2019-04-18T20:03:40Z</time>
      </trkpt>
      <trkpt lat="44.9273" lon="6.70372">
        <ele>1748</ele>
        <time>2019-04-18T20:04:40Z</time>
      </trkpt>
      <trkpt lat="44.92702" lon="6.70331">
        <ele>1738</ele>
        <time>2019-04-18T20:05:40Z</time>
      </trkpt>
      <trkpt lat="44.92694" lon="6.70314">
        <ele>1735</ele>
        <time>2019-04-18T20:06:40Z</time>
      </trkpt>
      <trkpt lat="44.92689" lon="6.70295">
        <ele>1734</ele>
        <time>2019-04-18T20:07:40Z</time>
      </trkpt>
      <trkpt lat="44.92686" lon="6.70276">
        <ele>1733</ele>
        <time>2019-04-18T20:08:40Z</time>
      </trkpt>
      <trkpt lat="44.92689" lon="6.70257">
        <ele>1736</ele>
        <time>2019-04-18T20:09:40Z</time>
      </trkpt>
      <trkpt lat="44.92686" lon="6.70238">
        <ele>1735</ele>
        <time>2019-04-18T20:10:40Z</time>
      </trkpt>
      <trkpt lat="44.9268" lon="6.70223">
        <ele>1732</ele>
        <time>2019-04-18T20:11:40Z</time>
      </trkpt>
      <trkpt lat="44.9267" lon="6.70209">
        <ele>1727</ele>
        <time>2019-04-18T20:12:40Z</time>
      </trkpt>
      <trkpt lat="44.92662" lon="6.70194">
        <ele>1724</ele>
        <time>2019-04-18T20:13:40Z</time>
      </trkpt>
      <trkpt lat="44.92659" lon="6.70175">
        <ele>1723</ele>
        <time>2019-04-18T20:14:40Z</time>
      </trkpt>
      <trkpt lat="44.92664" lon="6.70113">
        <ele>1724</ele>
        <time>2019-04-18T20:15:40Z</time>
      </trkpt>
      <trkpt lat="44.92664" lon="6.70092">
        <ele>1723</ele>
        <time>2019-04-18T20:16:40Z</time>
      </trkpt>
      <trkpt lat="44.92655" lon="6.70059">
        <ele>1717</ele>
        <time>2019-04-18T20:17:40Z</time>
      </trkpt>
      <trkpt lat="44.92655" lon="6.70034">
        <ele>1716</ele>
        <time>2019-04-18T20:18:40Z</time>
      </trkpt>
      <trkpt lat="44.92673" lon="6.69942">
        <ele>1720</ele>
        <time>2019-04-18T20:19:40Z</time>
      </trkpt>
      <trkpt lat="44.9267" lon="6.69909">
        <ele>1715</ele>
        <time>2019-04-18T20:20:40Z</time>
      </trkpt>
      <trkpt lat="44.92665" lon="6.69876">
        <ele>1709</ele>
        <time>2019-04-18T20:21:40Z</time>
      </trkpt>
      <trkpt lat="44.92663" lon="6.69848">
        <ele>1705</ele>
        <time>2019-04-18T20:22:40Z</time>
      </trkpt>
      <trkpt lat="44.92669" lon="6.69824">
        <ele>1704</ele>
        <time>2019-04-18T20:23:40Z</time>
      </trkpt>
      <trkpt lat="44.92688" lon="6.6981">
        <ele>1711</ele>
        <time>2019-04-18T20:24:40Z</time>
      </trkpt>
      <trkpt lat="44.927" lon="6.69798">
        <ele>1715</ele>
        <time>2019-04-18T20:25:40Z</time>
      </trkpt>
      <trkpt lat="44.92708" lon="6.69772">
        <ele>1715</ele>
        <time>2019-04-18T20:26:40Z</time>
      </trkpt>
      <trkpt lat="44.92707" lon="6.69741">
        <ele>1710</ele>
        <time>2019-04-18T20:27:40Z</time>
      </trkpt>
      <trkpt lat="44.92694" lon="6.69684">
        <ele>1699</ele>
        <time>2019-04-18T20:28:40Z</time>
      </trkpt>
      <trkpt lat="44.92695" lon="6.69662">
        <ele>1698</ele>
        <time>2019-04-18T20:29:40Z</time>
      </trkpt>
      <trkpt lat="44.92717" lon="6.69538">
        <ele>1686</ele>
        <time>2019-04-18T20:30:40Z</time>
      </trkpt>
      <trkpt lat="44.92725" lon="6.69524">
        <ele>1686</ele>
        <time>2019-04-18T20:31:40Z</time>
      </trkpt>
      <trkpt lat="44.92742" lon="6.69516">
        <ele>1690</ele>
        <time>2019-04-18T20:32:40Z</time>
      </trkpt>
      <trkpt lat="44.9278" lon="6.69484">
        <ele>1686</ele>
        <time>2019-04-18T20:33:40Z</time>
      </trkpt>
      <trkpt lat="44.92793" lon="6.69483">
        <ele>1686</ele>
        <time>2019-04-18T20:34:40Z</time>
      </trkpt>
      <trkpt lat="44.92841" lon="6.69497">
        <ele>1692</ele>
        <time>2019-04-18T20:35:40Z</time>
      </trkpt>
      <trkpt lat="44.92862" lon="6.69496">
        <ele>1691</ele>
        <time>2019-04-18T20:36:40Z</time>
      </trkpt>
      <trkpt lat="44.92943" lon="6.69461">
        <ele>1675</ele>
        <time>2019-04-18T20:37:40Z</time>
      </trkpt>
      <trkpt lat="44.92959" lon="6.69459">
        <ele>1674</ele>
        <time>2019-04-18T20:38:40Z</time>
      </trkpt>
      <trkpt lat="44.93002" lon="6.69457">
        <ele>1673</ele>
        <time>2019-04-18T20:39:40Z</time>
      </trkpt>
      <trkpt lat="44.93038" lon="6.69462">
        <ele>1675</ele>
        <time>2019-04-18T20:40:40Z</time>
      </trkpt>
      <trkpt lat="44.93044" lon="6.6946">
        <ele>1674</ele>
        <time>2019-04-18T20:41:40Z</time>
      </trkpt>
      <trkpt lat="44.93045" lon="6.69452">
        <ele>1670</ele>
        <time>2019-04-18T20:42:40Z</time>
      </trkpt>
      <trkpt lat="44.93042" lon="6.69447">
        <ele>1668</ele>
        <time>2019-04-18T20:43:40Z</time>
      </trkpt>
      <trkpt lat="44.93035" lon="6.69444">
        <ele>1667</ele>
        <time>2019-04-18T20:44:40Z</time>
      </trkpt>
      <trkpt lat="44.92988" lon="6.69441">
        <ele>1666</ele>
        <time>2019-04-18T20:45:40Z</time>
      </trkpt>
      <trkpt lat="44.92945" lon="6.69431">
        <ele>1663</ele>
        <time>2019-04-18T20:46:40Z</time>
      </trkpt>
      <trkpt lat="44.9293" lon="6.69431">
        <ele>1663</ele>
        <time>2019-04-18T20:47:40Z</time>
      </trkpt>
      <trkpt lat="44.92899" lon="6.69445">
        <ele>1671</ele>
        <time>2019-04-18T20:48:40Z</time>
      </trkpt>
      <trkpt lat="44.92889" lon="6.69447">
        <ele>1672</ele>
        <time>2019-04-18T20:49:40Z</time>
      </trkpt>
      <trkpt lat="44.92881" lon="6.69445">
        <ele>1673</ele>
        <time>2019-04-18T20:50:40Z</time>
      </trkpt>
      <trkpt lat="44.92873" lon="6.69439">
        <ele>1671</ele>
        <time>2019-04-18T20:51:40Z</time>
      </trkpt>
      <trkpt lat="44.92866" lon="6.69406">
        <ele>1661</ele>
        <time>2019-04-18T20:52:40Z</time>
      </trkpt>
      <trkpt lat="44.92859" lon="6.69388">
        <ele>1656</ele>
        <time>2019-04-18T20:53:40Z</time>
      </trkpt>
      <trkpt lat="44.92846" lon="6.6937">
        <ele>1651</ele>
        <time>2019-04-18T20:54:40Z</time>
      </trkpt>
      <trkpt lat="44.92832" lon="6.69357">
        <ele>1648</ele>
        <time>2019-04-18T20:55:40Z</time>
      </trkpt>
      <trkpt lat="44.92817" lon="6.69348">
        <ele>1647</ele>
        <time>2019-04-18T20:56:40Z</time>
      </trkpt>
      <trkpt lat="44.92801" lon="6.69334">
        <ele>1646</ele>
        <time>2019-04-18T20:57:40Z</time>
      </trkpt>
      <trkpt lat="44.92751" lon="6.69274">
        <ele>1635</ele>
        <time>2019-04-18T20:58:40Z</time>
      </trkpt>
      <trkpt lat="44.92737" lon="6.69262">
        <ele>1628</ele>
        <time>2019-04-18T20:59:40Z</time>
      </trkpt>
      <trkpt lat="44.92728" lon="6.69258">
        <ele>1625</ele>
        <time>2019-04-18T21:00:40Z</time>
      </trkpt>
      <trkpt lat="44.92713" lon="6.69258">
        <ele>1622</ele>
        <time>2019-04-18T21:01:40Z</time>
      </trkpt>
      <trkpt lat="44.927" lon="6.6927">
        <ele>1622</ele>
        <time>2019-04-18T21:02:40Z</time>
      </trkpt>
      <trkpt lat="44.9269" lon="6.69284">
        <ele>1622</ele>
        <time>2019-04-18T21:03:40Z</time>
      </trkpt>
      <trkpt lat="44.92686" lon="6.69305">
        <ele>1624</ele>
        <time>2019-04-18T21:04:40Z</time>
      </trkpt>
      <trkpt lat="44.92688" lon="6.69327">
        <ele>1629</ele>
        <time>2019-04-18T21:05:40Z</time>
      </trkpt>
      <trkpt lat="44.92696" lon="6.69362">
        <ele>1638</ele>
        <time>2019-04-18T21:06:40Z</time>
      </trkpt>
      <trkpt lat="44.92696" lon="6.69378">
        <ele>1641</ele>
        <time>2019-04-18T21:07:40Z</time>
      </trkpt>
      <trkpt lat="44.9269" lon="6.69397">
        <ele>1642</ele>
        <time>2019-04-18T21:08:40Z</time>
      </trkpt>
      <trkpt lat="44.9263" lon="6.69447">
        <ele>1627</ele>
        <time>2019-04-18T21:09:40Z</time>
      </trkpt>
      <trkpt lat="44.92603" lon="6.6946">
        <ele>1617</ele>
        <time>2019-04-18T21:10:40Z</time>
      </trkpt>
      <trkpt lat="44.92594" lon="6.69467">
        <ele>1615</ele>
        <time>2019-04-18T21:11:40Z</time>
      </trkpt>
      <trkpt lat="44.92585" lon="6.69483">
        <ele>1615</ele>
        <time>2019-04-18T21:12:40Z</time>
      </trkpt>
      <trkpt lat="44.92581" lon="6.69501">
        <ele>1618</ele>
        <time>2019-04-18T21:13:40Z</time>
      </trkpt>
      <trkpt lat="44.9258" lon="6.6952">
        <ele>1619</ele>
        <time>2019-04-18T21:14:40Z</time>
      </trkpt>
      <trkpt lat="44.92581" lon="6.6954">
        <ele>1622</ele>
        <time>2019-04-18T21:15:40Z</time>
      </trkpt>
      <trkpt lat="44.92577" lon="6.69553">
        <ele>1621</ele>
        <time>2019-04-18T21:16:40Z</time>
      </trkpt>
      <trkpt lat="44.92568" lon="6.69572">
        <ele>1619</ele>
        <time>2019-04-18T21:17:40Z</time>
      </trkpt>
      <trkpt lat="44.92563" lon="6.69591">
        <ele>1618</ele>
        <time>2019-04-18T21:18:40Z</time>
      </trkpt>
      <trkpt lat="44.92561" lon="6.69615">
        <ele>1620</ele>
        <time>2019-04-18T21:19:40Z</time>
      </trkpt>
      <trkpt lat="44.92561" lon="6.69639">
        <ele>1622</ele>
        <time>2019-04-18T21:20:40Z</time>
      </trkpt>
      <trkpt lat="44.92558" lon="6.69654">
        <ele>1622</ele>
        <time>2019-04-18T21:21:40Z</time>
      </trkpt>
      <trkpt lat="44.92551" lon="6.69663">
        <ele>1620</ele>
        <time>2019-04-18T21:22:40Z</time>
      </trkpt>
      <trkpt lat="44.92542" lon="6.69665">
        <ele>1616</ele>
        <time>2019-04-18T21:23:40Z</time>
      </trkpt>
      <trkpt lat="44.92533" lon="6.69661">
        <ele>1612</ele>
        <time>2019-04-18T21:24:40Z</time>
      </trkpt>
      <trkpt lat="44.9253" lon="6.69647">
        <ele>1609</ele>
        <time>2019-04-18T21:25:40Z</time>
      </trkpt>
      <trkpt lat="44.92542" lon="6.6957">
        <ele>1605</ele>
        <time>2019-04-18T21:26:40Z</time>
      </trkpt>
      <trkpt lat="44.9255" lon="6.69544">
        <ele>1606</ele>
        <time>2019-04-18T21:27:40Z</time>
      </trkpt>
      <trkpt lat="44.92554" lon="6.69524">
        <ele>1606</ele>
        <time>2019-04-18T21:28:40Z</time>
      </trkpt>
      <trkpt lat="44.92553" lon="6.69501">
        <ele>1603</ele>
        <time>2019-04-18T21:29:40Z</time>
      </trkpt>
      <trkpt lat="44.92549" lon="6.69481">
        <ele>1596</ele>
        <time>2019-04-18T21:30:40Z</time>
      </trkpt>
      <trkpt lat="44.92543" lon="6.6947">
        <ele>1591</ele>
        <time>2019-04-18T21:31:40Z</time>
      </trkpt>
      <trkpt lat="44.92542" lon="6.69454">
        <ele>1586</ele>
        <time>2019-04-18T21:32:40Z</time>
      </trkpt>
      <trkpt lat="44.92545" lon="6.69441">
        <ele>1585</ele>
        <time>2019-04-18T21:33:40Z</time>
      </trkpt>
      <trkpt lat="44.92559" lon="6.69435">
        <ele>1590</ele>
        <time>2019-04-18T21:34:40Z</time>
      </trkpt>
      <trkpt lat="44.92618" lon="6.69395">
        <ele>1608</ele>
        <time>2019-04-18T21:35:40Z</time>
      </trkpt>
      <trkpt lat="44.92625" lon="6.69379">
        <ele>1607</ele>
        <time>2019-04-18T21:36:40Z</time>
      </trkpt>
      <trkpt lat="44.9263" lon="6.69362">
        <ele>1606</ele>
        <time>2019-04-18T21:37:40Z</time>
      </trkpt>
      <trkpt lat="44.92627" lon="6.69281">
        <ele>1593</ele>
        <time>2019-04-18T21:38:40Z</time>
      </trkpt>
      <trkpt lat="44.92623" lon="6.69257">
        <ele>1589</ele>
        <time>2019-04-18T21:39:40Z</time>
      </trkpt>
      <trkpt lat="44.92616" lon="6.69242">
        <ele>1583</ele>
        <time>2019-04-18T21:40:40Z</time>
      </trkpt>
      <trkpt lat="44.92612" lon="6.69224">
        <ele>1578</ele>
        <time>2019-04-18T21:41:40Z</time>
      </trkpt>
      <trkpt lat="44.92618" lon="6.6921">
        <ele>1578</ele>
        <time>2019-04-18T21:42:40Z</time>
      </trkpt>
      <trkpt lat="44.92629" lon="6.69195">
        <ele>1580</ele>
        <time>2019-04-18T21:43:40Z</time>
      </trkpt>
      <trkpt lat="44.92651" lon="6.69154">
        <ele>1578</ele>
        <time>2019-04-18T21:44:40Z</time>
      </trkpt>
      <trkpt lat="44.92662" lon="6.69143">
        <ele>1577</ele>
        <time>2019-04-18T21:45:40Z</time>
      </trkpt>
      <trkpt lat="44.92675" lon="6.69143">
        <ele>1577</ele>
        <time>2019-04-18T21:46:40Z</time>
      </trkpt>
      <trkpt lat="44.92685" lon="6.69148">
        <ele>1578</ele>
        <time>2019-04-18T21:47:40Z</time>
      </trkpt>
      <trkpt lat="44.927" lon="6.69161">
        <ele>1580</ele>
        <time>2019-04-18T21:48:40Z</time>
      </trkpt>
      <trkpt lat="44.9272" lon="6.69173">
        <ele>1582</ele>
        <time>2019-04-18T21:49:40Z</time>
      </trkpt>
      <trkpt lat="44.92801" lon="6.69214">
        <ele>1594</ele>
        <time>2019-04-18T21:50:40Z</time>
      </trkpt>
      <trkpt lat="44.92819" lon="6.69219">
        <ele>1593</ele>
        <time>2019-04-18T21:51:40Z</time>
      </trkpt>
      <trkpt lat="44.92836" lon="6.6922">
        <ele>1591</ele>
        <time>2019-04-18T21:52:40Z</time>
      </trkpt>
      <trkpt lat="44.92853" lon="6.69216">
        <ele>1593</ele>
        <time>2019-04-18T21:53:40Z</time>
      </trkpt>
      <trkpt lat="44.92866" lon="6.69204">
        <ele>1591</ele>
        <time>2019-04-18T21:54:40Z</time>
      </trkpt>
      <trkpt lat="44.92877" lon="6.69179">
        <ele>1585</ele>
        <time>2019-04-18T21:55:40Z</time>
      </trkpt>
      <trkpt lat="44.92882" lon="6.69152">
        <ele>1577</ele>
        <time>2019-04-18T21:56:40Z</time>
      </trkpt>
      <trkpt lat="44.92885" lon="6.69087">
        <ele>1559</ele>
        <time>2019-04-18T21:57:40Z</time>
      </trkpt>
      <trkpt lat="44.92885" lon="6.69069">
        <ele>1554</ele>
        <time>2019-04-18T21:58:40Z</time>
      </trkpt>
      <trkpt lat="44.9289" lon="6.69056">
        <ele>1553</ele>
        <time>2019-04-18T21:59:40Z</time>
      </trkpt>
      <trkpt lat="44.92896" lon="6.69047">
        <ele>1553</ele>
        <time>2019-04-18T22:00:40Z</time>
      </trkpt>
      <trkpt lat="44.92906" lon="6.69042">
        <ele>1555</ele>
        <time>2019-04-18T22:01:40Z</time>
      </trkpt>
      <trkpt lat="44.92915" lon="6.69041">
        <ele>1558</ele>
        <time>2019-04-18T22:02:40Z</time>
      </trkpt>
      <trkpt lat="44.9292" lon="6.69037">
        <ele>1557</ele>
        <time>2019-04-18T22:03:40Z</time>
      </trkpt>
      <trkpt lat="44.9292" lon="6.69029">
        <ele>1555</ele>
        <time>2019-04-18T22:04:40Z</time>
      </trkpt>
      <trkpt lat="44.92917" lon="6.69023">
        <ele>1554</ele>
        <time>2019-04-18T22:05:40Z</time>
      </trkpt>
      <trkpt lat="44.92895" lon="6.69016">
        <ele>1545</ele>
        <time>2019-04-18T22:06:40Z</time>
      </trkpt>
      <trkpt lat="44.92884" lon="6.6902">
        <ele>1543</ele>
        <time>2019-04-18T22:07:40Z</time>
      </trkpt>
      <trkpt lat="44.92877" lon="6.69026">
        <ele>1542</ele>
        <time>2019-04-18T22:08:40Z</time>
      </trkpt>
      <trkpt lat="44.92871" lon="6.69105">
        <ele>1559</ele>
        <time>2019-04-18T22:09:40Z</time>
      </trkpt>
      <trkpt lat="44.92865" lon="6.69128">
        <ele>1564</ele>
        <time>2019-04-18T22:10:40Z</time>
      </trkpt>
      <trkpt lat="44.92859" lon="6.69145">
        <ele>1568</ele>
        <time>2019-04-18T22:11:40Z</time>
      </trkpt>
      <trkpt lat="44.92847" lon="6.69158">
        <ele>1568</ele>
        <time>2019-04-18T22:12:40Z</time>
      </trkpt>
      <trkpt lat="44.92832" lon="6.69161">
        <ele>1565</ele>
        <time>2019-04-18T22:13:40Z</time>
      </trkpt>
      <trkpt lat="44.92814" lon="6.69155">
        <ele>1565</ele>
        <time>2019-04-18T22:14:40Z</time>
      </trkpt>
      <trkpt lat="44.92761" lon="6.69107">
        <ele>1549</ele>
        <time>2019-04-18T22:15:40Z</time>
      </trkpt>
      <trkpt lat="44.92748" lon="6.69093">
        <ele>1544</ele>
        <time>2019-04-18T22:16:40Z</time>
      </trkpt>
      <trkpt lat="44.9271" lon="6.69068">
        <ele>1542</ele>
        <time>2019-04-18T22:17:40Z</time>
      </trkpt>
      <trkpt lat="44.92699" lon="6.69048">
        <ele>1536</ele>
        <time>2019-04-18T22:18:40Z</time>
      </trkpt>
      <trkpt lat="44.92686" lon="6.69037">
        <ele>1534</ele>
        <time>2019-04-18T22:19:40Z</time>
      </trkpt>
      <trkpt lat="44.92671" lon="6.69035">
        <ele>1535</ele>
        <time>2019-04-18T22:20:40Z</time>
      </trkpt>
      <trkpt lat="44.92652" lon="6.69028">
        <ele>1531</ele>
        <time>2019-04-18T22:21:40Z</time>
      </trkpt>
      <trkpt lat="44.92636" lon="6.69027">
        <ele>1528</ele>
        <time>2019-04-18T22:22:40Z</time>
      </trkpt>
      <trkpt lat="44.92606" lon="6.69037">
        <ele>1527</ele>
        <time>2019-04-18T22:23:40Z</time>
      </trkpt>
      <trkpt lat="44.92585" lon="6.69032">
        <ele>1522</ele>
        <time>2019-04-18T22:24:40Z</time>
      </trkpt>
      <trkpt lat="44.9255" lon="6.69012">
        <ele>1505</ele>
        <time>2019-04-18T22:25:40Z</time>
      </trkpt>
      <trkpt lat="44.92542" lon="6.69013">
        <ele>1503</ele>
        <time>2019-04-18T22:26:40Z</time>
      </trkpt>
      <trkpt lat="44.92533" lon="6.69024">
        <ele>1503</ele>
        <time>2019-04-18T22:27:40Z</time>
      </trkpt>
      <trkpt lat="44.92528" lon="6.69046">
        <ele>1506</ele>
        <time>2019-04-18T22:28:40Z</time>
      </trkpt>
      <trkpt lat="44.92525" lon="6.69065">
        <ele>1509</ele>
        <time>2019-04-18T22:29:40Z</time>
      </trkpt>
      <trkpt lat="44.92524" lon="6.69084">
        <ele>1513</ele>
        <time>2019-04-18T22:30:40Z</time>
      </trkpt>
      <trkpt lat="44.9252" lon="6.69097">
        <ele>1514</ele>
        <time>2019-04-18T22:31:40Z</time>
      </trkpt>
      <trkpt lat="44.92515" lon="6.69105">
        <ele>1513</ele>
        <time>2019-04-18T22:32:40Z</time>
      </trkpt>
      <trkpt lat="44.9251" lon="6.69108">
        <ele>1511</ele>
        <time>2019-04-18T22:33:40Z</time>
      </trkpt>
      <trkpt lat="44.92503" lon="6.69104">
        <ele>1507</ele>
        <time>2019-04-18T22:34:40Z</time>
      </trkpt>
      <trkpt lat="44.92499" lon="6.69096">
        <ele>1504</ele>
        <time>2019-04-18T22:35:40Z</time>
      </trkpt>
      <trkpt lat="44.92515" lon="6.6902">
        <ele>1497</ele>
        <time>2019-04-18T22:36:40Z</time>
      </trkpt>
      <trkpt lat="44.92517" lon="6.68997">
        <ele>1493</ele>
        <time>2019-04-18T22:37:40Z</time>
      </trkpt>
      <trkpt lat="44.92521" lon="6.68983">
        <ele>1490</ele>
        <time>2019-04-18T22:38:40Z</time>
      </trkpt>
      <trkpt lat="44.92529" lon="6.68975">
        <ele>1490</ele>
        <time>2019-04-18T22:39:40Z</time>
      </trkpt>
      <trkpt lat="44.92539" lon="6.68975">
        <ele>1492</ele>
        <time>2019-04-18T22:40:40Z</time>
      </trkpt>
      <trkpt lat="44.92583" lon="6.68992">
        <ele>1508</ele>
        <time>2019-04-18T22:41:40Z</time>
      </trkpt>
      <trkpt lat="44.926" lon="6.68989">
        <ele>1508</ele>
        <time>2019-04-18T22:42:40Z</time>
      </trkpt>
      <trkpt lat="44.9262" lon="6.68977">
        <ele>1505</ele>
        <time>2019-04-18T22:43:40Z</time>
      </trkpt>
      <trkpt lat="44.92644" lon="6.6895">
        <ele>1496</ele>
        <time>2019-04-18T22:44:40Z</time>
      </trkpt>
      <trkpt lat="44.92673" lon="6.6895">
        <ele>1498</ele>
        <time>2019-04-18T22:45:40Z</time>
      </trkpt>
      <trkpt lat="44.92709" lon="6.68955">
        <ele>1496</ele>
        <time>2019-04-18T22:46:40Z</time>
      </trkpt>
      <trkpt lat="44.92737" lon="6.68967">
        <ele>1499</ele>
        <time>2019-04-18T22:47:40Z</time>
      </trkpt>
      <trkpt lat="44.92763" lon="6.68993">
        <ele>1510</ele>
        <time>2019-04-18T22:48:40Z</time>
      </trkpt>
      <trkpt lat="44.92774" lon="6.68997">
        <ele>1513</ele>
        <time>2019-04-18T22:49:40Z</time>
      </trkpt>
      <trkpt lat="44.92783" lon="6.68993">
        <ele>1513</ele>
        <time>2019-04-18T22:50:40Z</time>
      </trkpt>
      <trkpt lat="44.92785" lon="6.68983">
        <ele>1510</ele>
        <time>2019-04-18T22:51:40Z</time>
      </trkpt>
      <trkpt lat="44.92781" lon="6.68971">
        <ele>1505</ele>
        <time>2019-04-18T22:52:40Z</time>
      </trkpt>
      <trkpt lat="44.92775" lon="6.68965">
        <ele>1502</ele>
        <time>2019-04-18T22:53:40Z</time>
      </trkpt>
      <trkpt lat="44.92749" lon="6.68957">
        <ele>1493</ele>
        <time>2019-04-18T22:54:40Z</time>
      </trkpt>
      <trkpt lat="44.92709" lon="6.68928">
        <ele>1484</ele>
        <time>2019-04-18T22:55:40Z</time>
      </trkpt>
      <trkpt lat="44.92696" lon="6.68928">
        <ele>1486</ele>
        <time>2019-04-18T22:56:40Z</time>
      </trkpt>
      <trkpt lat="44.92677" lon="6.68923">
        <ele>1485</ele>
        <time>2019-04-18T22:57:40Z</time>
      </trkpt>
      <trkpt lat="44.92646" lon="6.68905">
        <ele>1476</ele>
        <time>2019-04-18T22:58:40Z</time>
      </trkpt>
      <trkpt lat="44.92636" lon="6.68905">
        <ele>1476</ele>
        <time>2019-04-18T22:59:40Z</time>
      </trkpt>
      <trkpt lat="44.92595" lon="6.68928">
        <ele>1482</ele>
        <time>2019-04-18T23:00:40Z</time>
      </trkpt>
      <trkpt lat="44.9258" lon="6.68924">
        <ele>1479</ele>
        <time>2019-04-18T23:01:40Z</time>
      </trkpt>
      <trkpt lat="44.92566" lon="6.68912">
        <ele>1474</ele>
        <time>2019-04-18T23:02:40Z</time>
      </trkpt>
      <trkpt lat="44.92549" lon="6.68893">
        <ele>1467</ele>
        <time>2019-04-18T23:03:40Z</time>
      </trkpt>
      <trkpt lat="44.92541" lon="6.68879">
        <ele>1463</ele>
        <time>2019-04-18T23:04:40Z</time>
      </trkpt>
      <trkpt lat="44.92532" lon="6.68868">
        <ele>1460</ele>
        <time>2019-04-18T23:05:40Z</time>
      </trkpt>
      <trkpt lat="44.92519" lon="6.68864">
        <ele>1460</ele>
        <time>2019-04-18T23:06:40Z</time>
      </trkpt>
      <trkpt lat="44.9248" lon="6.68861">
        <ele>1455</ele>
        <time>2019-04-18T23:07:40Z</time>
      </trkpt>
      <trkpt lat="44.92469" lon="6.68869">
        <ele>1454</ele>
        <time>2019-04-18T23:08:40Z</time>
      </trkpt>
      <trkpt lat="44.92462" lon="6.68882">
        <ele>1455</ele>
        <time>2019-04-18T23:09:40Z</time>
      </trkpt>
      <trkpt lat="44.92456" lon="6.68901">
        <ele>1457</ele>
        <time>2019-04-18T23:10:40Z</time>
      </trkpt>
      <trkpt lat="44.92451" lon="6.68941">
        <ele>1461</ele>
        <time>2019-04-18T23:11:40Z</time>
      </trkpt>
      <trkpt lat="44.92447" lon="6.68998">
        <ele>1467</ele>
        <time>2019-04-18T23:12:40Z</time>
      </trkpt>
      <trkpt lat="44.92437" lon="6.69056">
        <ele>1473</ele>
        <time>2019-04-18T23:13:40Z</time>
      </trkpt>
      <trkpt lat="44.92431" lon="6.69073">
        <ele>1473</ele>
        <time>2019-04-18T23:14:40Z</time>
      </trkpt>
      <trkpt lat="44.92423" lon="6.69085">
        <ele>1472</ele>
        <time>2019-04-18T23:15:40Z</time>
      </trkpt>
      <trkpt lat="44.92414" lon="6.69087">
        <ele>1470</ele>
        <time>2019-04-18T23:16:40Z</time>
      </trkpt>
      <trkpt lat="44.92401" lon="6.69081">
        <ele>1474</ele>
        <time>2019-04-18T23:17:40Z</time>
      </trkpt>
      <trkpt lat="44.92389" lon="6.69072">
        <ele>1475</ele>
        <time>2019-04-18T23:18:40Z</time>
      </trkpt>
      <trkpt lat="44.92376" lon="6.69056">
        <ele>1475</ele>
        <time>2019-04-18T23:19:40Z</time>
      </trkpt>
      <trkpt lat="44.92367" lon="6.69034">
        <ele>1470</ele>
        <time>2019-04-18T23:20:40Z</time>
      </trkpt>
      <trkpt lat="44.92339" lon="6.68976">
        <ele>1456</ele>
        <time>2019-04-18T23:21:40Z</time>
      </trkpt>
      <trkpt lat="44.92309" lon="6.68929">
        <ele>1456</ele>
        <time>2019-04-18T23:22:40Z</time>
      </trkpt>
      <trkpt lat="44.92299" lon="6.68906">
        <ele>1454</ele>
        <time>2019-04-18T23:23:40Z</time>
      </trkpt>
      <trkpt lat="44.92288" lon="6.68874">
        <ele>1452</ele>
        <time>2019-04-18T23:24:40Z</time>
      </trkpt>
      <trkpt lat="44.9227" lon="6.68809">
        <ele>1444</ele>
        <time>2019-04-18T23:25:40Z</time>
      </trkpt>
      <trkpt lat="44.92253" lon="6.68732">
        <ele>1435</ele>
        <time>2019-04-18T23:26:40Z</time>
      </trkpt>
      <trkpt lat="44.9224" lon="6.68713">
        <ele>1433</ele>
        <time>2019-04-18T23:27:40Z</time>
      </trkpt>
      <trkpt lat="44.92225" lon="6.68702">
        <ele>1433</ele>
        <time>2019-04-18T23:28:40Z</time>
      </trkpt>
      <trkpt lat="44.92191" lon="6.68703">
        <ele>1441</ele>
        <time>2019-04-18T23:29:40Z</time>
      </trkpt>
      <trkpt lat="44.92176" lon="6.687">
        <ele>1443</ele>
        <time>2019-04-18T23:30:40Z</time>
      </trkpt>
      <trkpt lat="44.92168" lon="6.68686">
        <ele>1441</ele>
        <time>2019-04-18T23:31:40Z</time>
      </trkpt>
      <trkpt lat="44.92165" lon="6.68666">
        <ele>1435</ele>
        <time>2019-04-18T23:32:40Z</time>
      </trkpt>
      <trkpt lat="44.92156" lon="6.68638">
        <ele>1432</ele>
        <time>2019-04-18T23:33:40Z</time>
      </trkpt>
      <trkpt lat="44.92137" lon="6.68609">
        <ele>1430</ele>
        <time>2019-04-18T23:34:40Z</time>
      </trkpt>
      <trkpt lat="44.92113" lon="6.68579">
        <ele>1428</ele>
        <time>2019-04-18T23:35:40Z</time>
      </trkpt>
      <trkpt lat="44.92099" lon="6.68548">
        <ele>1427</ele>
        <time>2019-04-18T23:36:40Z</time>
      </trkpt>
      <trkpt lat="44.92095" lon="6.68523">
        <ele>1424</ele>
        <time>2019-04-18T23:37:40Z</time>
      </trkpt>
      <trkpt lat="44.92099" lon="6.68492">
        <ele>1419</ele>
        <time>2019-04-18T23:38:40Z</time>
      </trkpt>
      <trkpt lat="44.92106" lon="6.6846">
        <ele>1416</ele>
        <time>2019-04-18T23:39:40Z</time>
      </trkpt>
      <trkpt lat="44.9212" lon="6.68418">
        <ele>1411</ele>
        <time>2019-04-18T23:40:40Z</time>
      </trkpt>
      <trkpt lat="44.92125" lon="6.68386">
        <ele>1409</ele>
        <time>2019-04-18T23:41:40Z</time>
      </trkpt>
      <trkpt lat="44.92126" lon="6.68352">
        <ele>1408</ele>
        <time>2019-04-18T23:42:40Z</time>
      </trkpt>
      <trkpt lat="44.92114" lon="6.68286">
        <ele>1405</ele>
        <time>2019-04-18T23:43:40Z</time>
      </trkpt>
      <trkpt lat="44.92106" lon="6.68218">
        <ele>1401</ele>
        <time>2019-04-18T23:44:40Z</time>
      </trkpt>
      <trkpt lat="44.92092" lon="6.68155">
        <ele>1401</ele>
        <time>2019-04-18T23:45:40Z</time>
      </trkpt>
      <trkpt lat="44.92081" lon="6.68096">
        <ele>1397</ele>
        <time>2019-04-18T23:46:40Z</time>
      </trkpt>
      <trkpt lat="44.92057" lon="6.68013">
        <ele>1392</ele>
        <time>2019-04-18T23:47:40Z</time>
      </trkpt>
      <trkpt lat="44.92007" lon="6.67916">
        <ele>1386</ele>
        <time>2019-04-18T23:48:40Z</time>
      </trkpt>
      <trkpt lat="44.91976" lon="6.67866">
        <ele>1382</ele>
        <time>2019-04-18T23:49:40Z</time>
      </trkpt>
      <trkpt lat="44.91942" lon="6.6782">
        <ele>1379</ele>
        <time>2019-04-18T23:50:40Z</time>
      </trkpt>
      <trkpt lat="44.91907" lon="6.67785">
        <ele>1378</ele>
        <time>2019-04-18T23:51:40Z</time>
      </trkpt>
      <trkpt lat="44.91872" lon="6.67758">
        <ele>1377</ele>
        <time>2019-04-18T23:52:40Z</time>
      </trkpt>
      <trkpt lat="44.91842" lon="6.67738">
        <ele>1376</ele>
        <time>2019-04-18T23:53:40Z</time>
      </trkpt>
      <trkpt lat="44.91779" lon="6.67701">
        <ele>1374</ele>
        <time>2019-04-18T23:54:40Z</time>
      </trkpt>
      <trkpt lat="44.91709" lon="6.6765">
        <ele>1371</ele>
        <time>2019-04-18T23:55:40Z</time>
      </trkpt>
      <trkpt lat="44.91594" lon="6.67563">
        <ele>1370</ele>
        <time>2019-04-18T23:56:40Z</time>
      </trkpt>
      <trkpt lat="44.91448" lon="6.67449">
        <ele>1359</ele>
        <time>2019-04-18T23:57:40Z</time>
      </trkpt>
      <trkpt lat="44.91409" lon="6.67415">
        <ele>1353</ele>
        <time>2019-04-18T23:58:40Z</time>
      </trkpt>
      <trkpt lat="44.9139" lon="6.67395">
        <ele>1354</ele>
        <time>2019-04-18T23:59:40Z</time>
      </trkpt>
      <trkpt lat="44.91368" lon="6.67363">
        <ele>1356</ele>
        <time>2019-04-19T00:00:40Z</time>
      </trkpt>
      <trkpt lat="44.91228" lon="6.6713">
        <ele>1365</ele>
        <time>2019-04-19T00:01:40Z</time>
      </trkpt>
      <trkpt lat="44.91202" lon="6.67085">
        <ele>1366</ele>
        <time>2019-04-19T00:02:40Z</time>
      </trkpt>
      <trkpt lat="44.90994" lon="6.66649">
        <ele>1347</ele>
        <time>2019-04-19T00:03:40Z</time>
      </trkpt>
      <trkpt lat="44.90977" lon="6.66574">
        <ele>1347</ele>
        <time>2019-04-19T00:04:40Z</time>
      </trkpt>
      <trkpt lat="44.90975" lon="6.66541">
        <ele>1345</ele>
        <time>2019-04-19T00:05:40Z</time>
      </trkpt>
      <trkpt lat="44.90975" lon="6.66406">
        <ele>1340</ele>
        <time>2019-04-19T00:06:40Z</time>
      </trkpt>
      <trkpt lat="44.90958" lon="6.66296">
        <ele>1344</ele>
        <time>2019-04-19T00:07:40Z</time>
      </trkpt>
      <trkpt lat="44.90942" lon="6.66269">
        <ele>1346</ele>
        <time>2019-04-19T00:08:40Z</time>
      </trkpt>
      <trkpt lat="44.90906" lon="6.66234">
        <ele>1352</ele>
        <time>2019-04-19T00:09:40Z</time>
      </trkpt>
      <trkpt lat="44.90884" lon="6.66225">
        <ele>1353</ele>
        <time>2019-04-19T00:10:40Z</time>
      </trkpt>
      <trkpt lat="44.90836" lon="6.66223">
        <ele>1344</ele>
        <time>2019-04-19T00:11:40Z</time>
      </trkpt>
      <trkpt lat="44.90811" lon="6.66217">
        <ele>1339</ele>
        <time>2019-04-19T00:12:40Z</time>
      </trkpt>
      <trkpt lat="44.90768" lon="6.66197">
        <ele>1332</ele>
        <time>2019-04-19T00:13:40Z</time>
      </trkpt>
      <trkpt lat="44.9075" lon="6.66172">
        <ele>1333</ele>
        <time>2019-04-19T00:14:40Z</time>
      </trkpt>
      <trkpt lat="44.90739" lon="6.66148">
        <ele>1333</ele>
        <time>2019-04-19T00:15:40Z</time>
      </trkpt>
      <trkpt lat="44.90736" lon="6.66119">
        <ele>1335</ele>
        <time>2019-04-19T00:16:40Z</time>
      </trkpt>
      <trkpt lat="44.90741" lon="6.66098">
        <ele>1340</ele>
        <time>2019-04-19T00:17:40Z</time>
      </trkpt>
      <trkpt lat="44.90742" lon="6.66071">
        <ele>1344</ele>
        <time>2019-04-19T00:18:40Z</time>
      </trkpt>
      <trkpt lat="44.90738" lon="6.66043">
        <ele>1347</ele>
        <time>2019-04-19T00:19:40Z</time>
      </trkpt>
      <trkpt lat="44.90729" lon="6.66016">
        <ele>1348</ele>
        <time>2019-04-19T00:20:40Z</time>
      </trkpt>
      <trkpt lat="44.9072" lon="6.65998">
        <ele>1347</ele>
        <time>2019-04-19T00:21:40Z</time>
      </trkpt>
      <trkpt lat="44.90704" lon="6.65983">
        <ele>1346</ele>
        <time>2019-04-19T00:22:40Z</time>
      </trkpt>
      <trkpt lat="44.90601" lon="6.65907">
        <ele>1334</ele>
        <time>2019-04-19T00:23:40Z</time>
      </trkpt>
      <trkpt lat="44.90582" lon="6.65888">
        <ele>1331</ele>
        <time>2019-04-19T00:24:40Z</time>
      </trkpt>
      <trkpt lat="44.90498" lon="6.65754">
        <ele>1332</ele>
        <time>2019-04-19T00:25:40Z</time>
      </trkpt>
      <trkpt lat="44.90489" lon="6.6573">
        <ele>1330</ele>
        <time>2019-04-19T00:26:40Z</time>
      </trkpt>
      <trkpt lat="44.90485" lon="6.65708">
        <ele>1330</ele>
        <time>2019-04-19T00:27:40Z</time>
      </trkpt>
      <trkpt lat="44.90482" lon="6.65683">
        <ele>1330</ele>
        <time>2019-04-19T00:28:40Z</time>
      </trkpt>
      <trkpt lat="44.90479" lon="6.65608">
        <ele>1337</ele>
        <time>2019-04-19T00:29:40Z</time>
      </trkpt>
      <trkpt lat="44.90476" lon="6.6557">
        <ele>1340</ele>
        <time>2019-04-19T00:30:40Z</time>
      </trkpt>
      <trkpt lat="44.9047" lon="6.65533">
        <ele>1341</ele>
        <time>2019-04-19T00:31:40Z</time>
      </trkpt>
      <trkpt lat="44.90434" lon="6.65411">
        <ele>1340</ele>
        <time>2019-04-19T00:32:40Z</time>
      </trkpt>
      <trkpt lat="44.90391" lon="6.65297">
        <ele>1341</ele>
        <time>2019-04-19T00:33:40Z</time>
      </trkpt>
      <trkpt lat="44.90344" lon="6.65202">
        <ele>1341</ele>
        <time>2019-04-19T00:34:40Z</time>
      </trkpt>
      <trkpt lat="44.90304" lon="6.65113">
        <ele>1340</ele>
        <time>2019-04-19T00:35:40Z</time>
      </trkpt>
      <trkpt lat="44.9028" lon="6.65059">
        <ele>1329</ele>
        <time>2019-04-19T00:36:40Z</time>
      </trkpt>
      <trkpt lat="44.90276" lon="6.65039">
        <ele>1326</ele>
        <time>2019-04-19T00:37:40Z</time>
      </trkpt>
      <trkpt lat="44.90277" lon="6.6502">
        <ele>1327</ele>
        <time>2019-04-19T00:38:40Z</time>
      </trkpt>
      <trkpt lat="44.90284" lon="6.64994">
        <ele>1331</ele>
        <time>2019-04-19T00:39:40Z</time>
      </trkpt>
      <trkpt lat="44.90299" lon="6.6497">
        <ele>1337</ele>
        <time>2019-04-19T00:40:40Z</time>
      </trkpt>
      <trkpt lat="44.90309" lon="6.64945">
        <ele>1340</ele>
        <time>2019-04-19T00:41:40Z</time>
      </trkpt>
      <trkpt lat="44.90311" lon="6.64931">
        <ele>1339</ele>
        <time>2019-04-19T00:42:40Z</time>
      </trkpt>
      <trkpt lat="44.90312" lon="6.64912">
        <ele>1338</ele>
        <time>2019-04-19T00:43:40Z</time>
      </trkpt>
      <trkpt lat="44.90311" lon="6.64886">
        <ele>1340</ele>
        <time>2019-04-19T00:44:40Z</time>
      </trkpt>
      <trkpt lat="44.90305" lon="6.64841">
        <ele>1341</ele>
        <time>2019-04-19T00:45:40Z</time>
      </trkpt>
      <trkpt lat="44.90294" lon="6.64797">
        <ele>1340</ele>
        <time>2019-04-19T00:46:40Z</time>
      </trkpt>
      <trkpt lat="44.90283" lon="6.64773">
        <ele>1339</ele>
        <time>2019-04-19T00:47:40Z</time>
      </trkpt>
      <trkpt lat="44.90234" lon="6.64696">
        <ele>1336</ele>
        <time>2019-04-19T00:48:40Z</time>
      </trkpt>
      <trkpt lat="44.90186" lon="6.64611">
        <ele>1336</ele>
        <time>2019-04-19T00:49:40Z</time>
      </trkpt>
      <trkpt lat="44.90164" lon="6.64561">
        <ele>1335</ele>
        <time>2019-04-19T00:50:40Z</time>
      </trkpt>
      <trkpt lat="44.90157" lon="6.64536">
        <ele>1335</ele>
        <time>2019-04-19T00:51:40Z</time>
      </trkpt>
      <trkpt lat="44.9015" lon="6.64488">
        <ele>1335</ele>
        <time>2019-04-19T00:52:40Z</time>
      </trkpt>
      <trkpt lat="44.90152" lon="6.64401">
        <ele>1334</ele>
        <time>2019-04-19T00:53:40Z</time>
      </trkpt>
      <trkpt lat="44.90149" lon="6.64389">
        <ele>1333</ele>
        <time>2019-04-19T00:54:40Z</time>
      </trkpt>
      <trkpt lat="44.90154" lon="6.6438">
        <ele>1333</ele>
        <time>2019-04-19T00:55:40Z</time>
      </trkpt>
      <trkpt lat="44.90153" lon="6.6437">
        <ele>1332</ele>
        <time>2019-04-19T00:56:40Z</time>
      </trkpt>
      <trkpt lat="44.90149" lon="6.64364">
        <ele>1332</ele>
        <time>2019-04-19T00:57:40Z</time>
      </trkpt>
      <trkpt lat="44.90148" lon="6.64339">
        <ele>1330</ele>
        <time>2019-04-19T00:58:40Z</time>
      </trkpt>
      <trkpt lat="44.90157" lon="6.64311">
        <ele>1329</ele>
        <time>2019-04-19T00:59:40Z</time>
      </trkpt>
      <trkpt lat="44.90168" lon="6.64256">
        <ele>1326</ele>
        <time>2019-04-19T01:00:40Z</time>
      </trkpt>
      <trkpt lat="44.90162" lon="6.64245">
        <ele>1325</ele>
        <time>2019-04-19T01:01:40Z</time>
      </trkpt>
      <trkpt lat="44.90152" lon="6.64235">
        <ele>1324</ele>
        <time>2019-04-19T01:02:40Z</time>
      </trkpt>
      <trkpt lat="44.90128" lon="6.64223">
        <ele>1320</ele>
        <time>2019-04-19T01:03:40Z</time>
      </trkpt>
      <trkpt lat="44.90075" lon="6.64179">
        <ele>1309</ele>
        <time>2019-04-19T01:04:40Z</time>
      </trkpt>
      <trkpt lat="44.90064" lon="6.64156">
        <ele>1306</ele>
        <time>2019-04-19T01:05:40Z</time>
      </trkpt>
      <trkpt lat="44.90055" lon="6.64124">
        <ele>1302</ele>
        <time>2019-04-19T01:06:40Z</time>
      </trkpt>
      <trkpt lat="44.90002" lon="6.64115">
        <ele>1295</ele>
        <time>2019-04-19T01:07:40Z</time>
      </trkpt>
      <trkpt lat="44.89998" lon="6.64112">
        <ele>1294</ele>
        <time>2019-04-19T01:08:40Z</time>
      </trkpt>
      <trkpt lat="44.89995" lon="6.64102">
        <ele>1293</ele>
        <time>2019-04-19T01:09:40Z</time>
      </trkpt>
      <trkpt lat="44.89942" lon="6.6413">
        <ele>1292</ele>
        <time>2019-04-19T01:10:40Z</time>
      </trkpt>
      <trkpt lat="44.8992" lon="6.64131">
        <ele>1291</ele>
        <time>2019-04-19T01:11:40Z</time>
      </trkpt>
      <trkpt lat="44.89907" lon="6.64123">
        <ele>1289</ele>
        <time>2019-04-19T01:12:40Z</time>
      </trkpt>
      <trkpt lat="44.89902" lon="6.64114">
        <ele>1287</ele>
        <time>2019-04-19T01:13:40Z</time>
      </trkpt>
      <trkpt lat="44.89789" lon="6.6382">
        <ele>1256</ele>
        <time>2019-04-19T01:14:40Z</time>
      </trkpt>
      <trkpt lat="44.8966" lon="6.63471">
        <ele>1218</ele>
        <time>2019-04-19T01:15:40Z</time>
      </trkpt>
      <trkpt lat="44.89666" lon="6.63468">
        <ele>1218</ele>
        <time>2019-04-19T01:16:40Z</time>
      </trkpt>
      <trkpt lat="44.89669" lon="6.63463">
        <ele>1218</ele>
        <time>2019-04-19T01:17:40Z</time>
      </trkpt>
      <trkpt lat="44.8967" lon="6.63456">
        <ele>1218</ele>
        <time>2019-04-19T01:18:40Z</time>
      </trkpt>
      <trkpt lat="44.89667" lon="6.63449">
        <ele>1218</ele>
        <time>2019-04-19T01:19:40Z</time>
      </trkpt>
      <trkpt lat="44.89665" lon="6.63446">
        <ele>1218</ele>
        <time>2019-04-19T01:20:40Z</time>
      </trkpt>
      <trkpt lat="44.89659" lon="6.63444">
        <ele>1217</ele>
        <time>2019-04-19T01:21:40Z</time>
      </trkpt>
      <trkpt lat="44.89656" lon="6.63446">
        <ele>1217</ele>
        <time>2019-04-19T01:22:40Z</time>
      </trkpt>
      <trkpt lat="44.89625" lon="6.63372">
        <ele>1215</ele>
        <time>2019-04-19T01:23:40Z</time>
      </trkpt>
      <trkpt lat="44.89601" lon="6.63306">
        <ele>1213</ele>
        <time>2019-04-19T01:24:40Z</time>
      </trkpt>
      <trkpt lat="44.89593" lon="6.6329">
        <ele>1212</ele>
        <time>2019-04-19T01:25:40Z</time>
      </trkpt>
      <trkpt lat="44.89588" lon="6.63286">
        <ele>1212</ele>
        <time>2019-04-19T01:26:40Z</time>
      </trkpt>
      <trkpt lat="44.89588" lon="6.63282">
        <ele>1212</ele>
        <time>2019-04-19T01:27:40Z</time>
      </trkpt>
      <trkpt lat="44.89585" lon="6.63276">
        <ele>1212</ele>
        <time>2019-04-19T01:28:40Z</time>
      </trkpt>
      <trkpt lat="44.89579" lon="6.63273">
        <ele>1211</ele>
        <time>2019-04-19T01:29:40Z</time>
      </trkpt>
      <trkpt lat="44.89576" lon="6.63274">
        <ele>1211</ele>
        <time>2019-04-19T01:30:40Z</time>
      </trkpt>
      <trkpt lat="44.89572" lon="6.63282">
        <ele>1212</ele>
        <time>2019-04-19T01:31:40Z</time>
      </trkpt>
      <trkpt lat="44.89553" lon="6.63298">
        <ele>1212</ele>
        <time>2019-04-19T01:32:40Z</time>
      </trkpt>
      <trkpt lat="44.89523" lon="6.63301">
        <ele>1211</ele>
        <time>2019-04-19T01:33:40Z</time>
      </trkpt>
      <trkpt lat="44.89496" lon="6.63309">
        <ele>1211</ele>
        <time>2019-04-19T01:34:40Z</time>
      </trkpt>
      <trkpt lat="44.89432" lon="6.63332">
        <ele>1208</ele>
        <time>2019-04-19T01:35:40Z</time>
      </trkpt>
      <trkpt lat="44.89411" lon="6.63343">
        <ele>1207</ele>
        <time>2019-04-19T01:36:40Z</time>
      </trkpt>
      <trkpt lat="44.89407" lon="6.63338">
        <ele>1207</ele>
        <time>2019-04-19T01:37:40Z</time>
      </trkpt>
      <trkpt lat="44.89403" lon="6.63338">
        <ele>1207</ele>
        <time>2019-04-19T01:38:40Z</time>
      </trkpt>
      <trkpt lat="44.89403" lon="6.63325">
        <ele>1207</ele>
        <time>2019-04-19T01:39:40Z</time>
      </trkpt>
      <trkpt lat="44.89401" lon="6.63316">
        <ele>1207</ele>
        <time>2019-04-19T01:40:40Z</time>
      </trkpt>
      <trkpt lat="44.89333" lon="6.63167">
        <ele>1202</ele>
        <time>2019-04-19T01:41:40Z</time>
      </trkpt>
      <trkpt lat="44.89278" lon="6.63032">
        <ele>1200</ele>
        <time>2019-04-19T01:42:40Z</time>
      </trkpt>
      <trkpt lat="44.89264" lon="6.63007">
        <ele>1200</ele>
        <time>2019-04-19T01:43:40Z</time>
      </trkpt>
      <trkpt lat="44.89256" lon="6.62997">
        <ele>1200</ele>
        <time>2019-04-19T01:44:40Z</time>
      </trkpt>
      <trkpt lat="44.89241" lon="6.62983">
        <ele>1201</ele>
        <time>2019-04-19T01:45:40Z</time>
      </trkpt>
      <trkpt lat="44.89187" lon="6.6296">
        <ele>1201</ele>
        <time>2019-04-19T01:46:40Z</time>
      </trkpt>
      <trkpt lat="44.89147" lon="6.62936">
        <ele>1200</ele>
        <time>2019-04-19T01:47:40Z</time>
      </trkpt>
      <trkpt lat="44.8905" lon="6.62852">
        <ele>1197</ele>
        <time>2019-04-19T01:48:40Z</time>
      </trkpt>
      <trkpt lat="44.89002" lon="6.62807">
        <ele>1196</ele>
        <time>2019-04-19T01:49:40Z</time>
      </trkpt>
      <trkpt lat="44.88955" lon="6.62767">
        <ele>1196</ele>
        <time>2019-04-19T01:50:40Z</time>
      </trkpt>
      <trkpt lat="44.88933" lon="6.62752">
        <ele>1196</ele>
        <time>2019-04-19T01:51:40Z</time>
      </trkpt>
      <trkpt lat="44.88767" lon="6.6265">
        <ele>1195</ele>
        <time>2019-04-19T01:52:40Z</time>
      </trkpt>
      <trkpt lat="44.8871" lon="6.62612">
        <ele>1193</ele>
        <time>2019-04-19T01:53:40Z</time>
      </trkpt>
      <trkpt lat="44.88631" lon="6.62564">
        <ele>1192</ele>
        <time>2019-04-19T01:54:40Z</time>
      </trkpt>
      <trkpt lat="44.88612" lon="6.62551">
        <ele>1192</ele>
        <time>2019-04-19T01:55:40Z</time>
      </trkpt>
      <trkpt lat="44.88454" lon="6.62403">
        <ele>1191</ele>
        <time>2019-04-19T01:56:40Z</time>
      </trkpt>
      <trkpt lat="44.88428" lon="6.6238">
        <ele>1190</ele>
        <time>2019-04-19T01:57:40Z</time>
      </trkpt>
      <trkpt lat="44.88399" lon="6.62359">
        <ele>1189</ele>
        <time>2019-04-19T01:58:40Z</time>
      </trkpt>
      <trkpt lat="44.88365" lon="6.62339">
        <ele>1188</ele>
        <time>2019-04-19T01:59:40Z</time>
      </trkpt>
      <trkpt lat="44.88325" lon="6.62321">
        <ele>1188</ele>
        <time>2019-04-19T02:00:40Z</time>
      </trkpt>
      <trkpt lat="44.88222" lon="6.6229">
        <ele>1186</ele>
        <time>2019-04-19T02:01:40Z</time>
      </trkpt>
      <trkpt lat="44.88208" lon="6.62277">
        <ele>1186</ele>
        <time>2019-04-19T02:02:40Z</time>
      </trkpt>
      <trkpt lat="44.88205" lon="6.62271">
        <ele>1186</ele>
        <time>2019-04-19T02:03:40Z</time>
      </trkpt>
      <trkpt lat="44.88201" lon="6.62267">
        <ele>1186</ele>
        <time>2019-04-19T02:04:40Z</time>
      </trkpt>
      <trkpt lat="44.88168" lon="6.62264">
        <ele>1185</ele>
        <time>2019-04-19T02:05:40Z</time>
      </trkpt>
      <trkpt lat="44.88149" lon="6.62255">
        <ele>1185</ele>
        <time>2019-04-19T02:06:40Z</time>
      </trkpt>
      <trkpt lat="44.88108" lon="6.62232">
        <ele>1184</ele>
        <time>2019-04-19T02:07:40Z</time>
      </trkpt>
      <trkpt lat="44.88094" lon="6.6222">
        <ele>1183</ele>
        <time>2019-04-19T02:08:40Z</time>
      </trkpt>
      <trkpt lat="44.8808" lon="6.62195">
        <ele>1183</ele>
        <time>2019-04-19T02:09:40Z</time>
      </trkpt>
      <trkpt lat="44.88084" lon="6.6217">
        <ele>1183</ele>
        <time>2019-04-19T02:10:40Z</time>
      </trkpt>
      <trkpt lat="44.88107" lon="6.62119">
        <ele>1185</ele>
        <time>2019-04-19T02:11:40Z</time>
      </trkpt>
      <trkpt lat="44.88113" lon="6.621">
        <ele>1186</ele>
        <time>2019-04-19T02:12:40Z</time>
      </trkpt>
      <trkpt lat="44.88117" lon="6.62103">
        <ele>1186</ele>
        <time>2019-04-19T02:13:40Z</time>
      </trkpt>
      <trkpt lat="44.88126" lon="6.62104">
        <ele>1186</ele>
        <time>2019-04-19T02:14:40Z</time>
      </trkpt>
      <trkpt lat="44.88133" lon="6.62098">
        <ele>1187</ele>
        <time>2019-04-19T02:15:40Z</time>
      </trkpt>
      <trkpt lat="44.88137" lon="6.62088">
        <ele>1187</ele>
        <time>2019-04-19T02:16:40Z</time>
      </trkpt>
      <trkpt lat="44.88136" lon="6.62076">
        <ele>1187</ele>
        <time>2019-04-19T02:17:40Z</time>
      </trkpt>
      <trkpt lat="44.88133" lon="6.6207">
        <ele>1187</ele>
        <time>2019-04-19T02:18:40Z</time>
      </trkpt>
      <trkpt lat="44.88135" lon="6.62064">
        <ele>1188</ele>
        <time>2019-04-19T02:19:40Z</time>
      </trkpt>
      <trkpt lat="44.88136" lon="6.62049">
        <ele>1188</ele>
        <time>2019-04-19T02:20:40Z</time>
      </trkpt>
      <trkpt lat="44.88134" lon="6.62035">
        <ele>1189</ele>
        <time>2019-04-19T02:21:40Z</time>
      </trkpt>
      <trkpt lat="44.88111" lon="6.62">
        <ele>1187</ele>
        <time>2019-04-19T02:22:40Z</time>
      </trkpt>
      <trkpt lat="44.88096" lon="6.61969">
        <ele>1186</ele>
        <time>2019-04-19T02:23:40Z</time>
      </trkpt>
      <trkpt lat="44.88054" lon="6.61864">
        <ele>1186</ele>
        <time>2019-04-19T02:24:40Z</time>
      </trkpt>
      <trkpt lat="44.88041" lon="6.61844">
        <ele>1186</ele>
        <time>2019-04-19T02:25:40Z</time>
      </trkpt>
      <trkpt lat="44.87981" lon="6.61761">
        <ele>1187</ele>
        <time>2019-04-19T02:26:40Z</time>
      </trkpt>
      <trkpt lat="44.87935" lon="6.61716">
        <ele>1185</ele>
        <time>2019-04-19T02:27:40Z</time>
      </trkpt>
      <trkpt lat="44.87794" lon="6.61582">
        <ele>1187</ele>
        <time>2019-04-19T02:28:40Z</time>
      </trkpt>
      <trkpt lat="44.87699" lon="6.61487">
        <ele>1188</ele>
        <time>2019-04-19T02:29:40Z</time>
      </trkpt>
      <trkpt lat="44.87598" lon="6.61394">
        <ele>1185</ele>
        <time>2019-04-19T02:30:40Z</time>
      </trkpt>
      <trkpt lat="44.87569" lon="6.61364">
        <ele>1185</ele>
        <time>2019-04-19T02:31:40Z</time>
      </trkpt>
      <trkpt lat="44.87521" lon="6.61307">
        <ele>1185</ele>
        <time>2019-04-19T02:32:40Z</time>
      </trkpt>
      <trkpt lat="44.87485" lon="6.61276">
        <ele>1182</ele>
        <time>2019-04-19T02:33:40Z</time>
      </trkpt>
      <trkpt lat="44.87461" lon="6.61249">
        <ele>1181</ele>
        <time>2019-04-19T02:34:40Z</time>
      </trkpt>
      <trkpt lat="44.87404" lon="6.6118">
        <ele>1175</ele>
        <time>2019-04-19T02:35:40Z</time>
      </trkpt>
      <trkpt lat="44.87384" lon="6.6115">
        <ele>1174</ele>
        <time>2019-04-19T02:36:40Z</time>
      </trkpt>
      <trkpt lat="44.87358" lon="6.61107">
        <ele>1174</ele>
        <time>2019-04-19T02:37:40Z</time>
      </trkpt>
      <trkpt lat="44.87326" lon="6.61047">
        <ele>1173</ele>
        <time>2019-04-19T02:38:40Z</time>
      </trkpt>
      <trkpt lat="44.87257" lon="6.60928">
        <ele>1173</ele>
        <time>2019-04-19T02:39:40Z</time>
      </trkpt>
      <trkpt lat="44.87252" lon="6.60921">
        <ele>1173</ele>
        <time>2019-04-19T02:40:40Z</time>
      </trkpt>
      <trkpt lat="44.87245" lon="6.60918">
        <ele>1173</ele>
        <time>2019-04-19T02:41:40Z</time>
      </trkpt>
      <trkpt lat="44.87214" lon="6.60927">
        <ele>1173</ele>
        <time>2019-04-19T02:42:40Z</time>
      </trkpt>
      <trkpt lat="44.87203" lon="6.60889">
        <ele>1173</ele>
        <time>2019-04-19T02:43:40Z</time>
      </trkpt>
      <trkpt lat="44.87167" lon="6.60782">
        <ele>1170</ele>
        <time>2019-04-19T02:44:40Z</time>
      </trkpt>
      <trkpt lat="44.87145" lon="6.60729">
        <ele>1170</ele>
        <time>2019-04-19T02:45:40Z</time>
      </trkpt>
      <trkpt lat="44.8712" lon="6.60679">
        <ele>1170</ele>
        <time>2019-04-19T02:46:40Z</time>
      </trkpt>
      <trkpt lat="44.87031" lon="6.60523">
        <ele>1170</ele>
        <time>2019-04-19T02:47:40Z</time>
      </trkpt>
      <trkpt lat="44.86936" lon="6.60337">
        <ele>1171</ele>
        <time>2019-04-19T02:48:40Z</time>
      </trkpt>
      <trkpt lat="44.86898" lon="6.6027">
        <ele>1172</ele>
        <time>2019-04-19T02:49:40Z</time>
      </trkpt>
      <trkpt lat="44.86847" lon="6.60206">
        <ele>1174</ele>
        <time>2019-04-19T02:50:40Z</time>
      </trkpt>
      <trkpt lat="44.86806" lon="6.60165">
        <ele>1174</ele>
        <time>2019-04-19T02:51:40Z</time>
      </trkpt>
      <trkpt lat="44.86748" lon="6.60118">
        <ele>1172</ele>
        <time>2019-04-19T02:52:40Z</time>
      </trkpt>
      <trkpt lat="44.86663" lon="6.60057">
        <ele>1175</ele>
        <time>2019-04-19T02:53:40Z</time>
      </trkpt>
      <trkpt lat="44.86581" lon="6.60002">
        <ele>1177</ele>
        <time>2019-04-19T02:54:40Z</time>
      </trkpt>
      <trkpt lat="44.86523" lon="6.59948">
        <ele>1176</ele>
        <time>2019-04-19T02:55:40Z</time>
      </trkpt>
      <trkpt lat="44.86476" lon="6.59889">
        <ele>1177</ele>
        <time>2019-04-19T02:56:40Z</time>
      </trkpt>
      <trkpt lat="44.86456" lon="6.59857">
        <ele>1177</ele>
        <time>2019-04-19T02:57:40Z</time>
      </trkpt>
      <trkpt lat="44.86423" lon="6.59796">
        <ele>1176</ele>
        <time>2019-04-19T02:58:40Z</time>
      </trkpt>
      <trkpt lat="44.8637" lon="6.59678">
        <ele>1173</ele>
        <time>2019-04-19T02:59:40Z</time>
      </trkpt>
      <trkpt lat="44.86289" lon="6.59523">
        <ele>1168</ele>
        <time>2019-04-19T03:00:40Z</time>
      </trkpt>
      <trkpt lat="44.86268" lon="6.5949">
        <ele>1167</ele>
        <time>2019-04-19T03:01:40Z</time>
      </trkpt>
      <trkpt lat="44.86079" lon="6.59117">
        <ele>1155</ele>
        <time>2019-04-19T03:02:40Z</time>
      </trkpt>
      <trkpt lat="44.86046" lon="6.5906">
        <ele>1154</ele>
        <time>2019-04-19T03:03:40Z</time>
      </trkpt>
      <trkpt lat="44.85985" lon="6.58982">
        <ele>1150</ele>
        <time>2019-04-19T03:04:40Z</time>
      </trkpt>
      <trkpt lat="44.85649" lon="6.58626">
        <ele>1160</ele>
        <time>2019-04-19T03:05:40Z</time>
      </trkpt>
      <trkpt lat="44.85406" lon="6.58361">
        <ele>1169</ele>
        <time>2019-04-19T03:06:40Z</time>
      </trkpt>
      <trkpt lat="44.85299" lon="6.58253">
        <ele>1165</ele>
        <time>2019-04-19T03:07:40Z</time>
      </trkpt>
      <trkpt lat="44.85242" lon="6.58215">
        <ele>1162</ele>
        <time>2019-04-19T03:08:40Z</time>
      </trkpt>
      <trkpt lat="44.85205" lon="6.58199">
        <ele>1159</ele>
        <time>2019-04-19T03:09:40Z</time>
      </trkpt>
      <trkpt lat="44.85183" lon="6.58195">
        <ele>1157</ele>
        <time>2019-04-19T03:10:40Z</time>
      </trkpt>
      <trkpt lat="44.85148" lon="6.58199">
        <ele>1152</ele>
        <time>2019-04-19T03:11:40Z</time>
      </trkpt>
      <trkpt lat="44.85116" lon="6.58209">
        <ele>1149</ele>
        <time>2019-04-19T03:12:40Z</time>
      </trkpt>
      <trkpt lat="44.85021" lon="6.58249">
        <ele>1153</ele>
        <time>2019-04-19T03:13:40Z</time>
      </trkpt>
      <trkpt lat="44.8499" lon="6.58258">
        <ele>1159</ele>
        <time>2019-04-19T03:14:40Z</time>
      </trkpt>
      <trkpt lat="44.84848" lon="6.58287">
        <ele>1165</ele>
        <time>2019-04-19T03:15:40Z</time>
      </trkpt>
      <trkpt lat="44.84703" lon="6.58314">
        <ele>1158</ele>
        <time>2019-04-19T03:16:40Z</time>
      </trkpt>
      <trkpt lat="44.84614" lon="6.58324">
        <ele>1153</ele>
        <time>2019-04-19T03:17:40Z</time>
      </trkpt>
      <trkpt lat="44.84587" lon="6.58322">
        <ele>1151</ele>
        <time>2019-04-19T03:18:40Z</time>
      </trkpt>
      <trkpt lat="44.8456" lon="6.58314">
        <ele>1149</ele>
        <time>2019-04-19T03:19:40Z</time>
      </trkpt>
      <trkpt lat="44.84503" lon="6.58291">
        <ele>1149</ele>
        <time>2019-04-19T03:20:40Z</time>
      </trkpt>
      <trkpt lat="44.84476" lon="6.58276">
        <ele>1150</ele>
        <time>2019-04-19T03:21:40Z</time>
      </trkpt>
      <trkpt lat="44.84443" lon="6.58263">
        <ele>1152</ele>
        <time>2019-04-19T03:22:40Z</time>
      </trkpt>
      <trkpt lat="44.84415" lon="6.58255">
        <ele>1153</ele>
        <time>2019-04-19T03:23:40Z</time>
      </trkpt>
      <trkpt lat="44.8437" lon="6.5825">
        <ele>1153</ele>
        <time>2019-04-19T03:24:40Z</time>
      </trkpt>
      <trkpt lat="44.84328" lon="6.58258">
        <ele>1153</ele>
        <time>2019-04-19T03:25:40Z</time>
      </trkpt>
      <trkpt lat="44.84305" lon="6.58267">
        <ele>1151</ele>
        <time>2019-04-19T03:26:40Z</time>
      </trkpt>
      <trkpt lat="44.84277" lon="6.58281">
        <ele>1150</ele>
        <time>2019-04-19T03:27:40Z</time>
      </trkpt>
      <trkpt lat="44.84253" lon="6.58298">
        <ele>1149</ele>
        <time>2019-04-19T03:28:40Z</time>
      </trkpt>
      <trkpt lat="44.84188" lon="6.58352">
        <ele>1147</ele>
        <time>2019-04-19T03:29:40Z</time>
      </trkpt>
      <trkpt lat="44.84138" lon="6.58387">
        <ele>1149</ele>
        <time>2019-04-19T03:30:40Z</time>
      </trkpt>
      <trkpt lat="44.84074" lon="6.58414">
        <ele>1145</ele>
        <time>2019-04-19T03:31:40Z</time>
      </trkpt>
      <trkpt lat="44.84005" lon="6.5843">
        <ele>1146</ele>
        <time>2019-04-19T03:32:40Z</time>
      </trkpt>
      <trkpt lat="44.83969" lon="6.58431">
        <ele>1146</ele>
        <time>2019-04-19T03:33:40Z</time>
      </trkpt>
      <trkpt lat="44.83847" lon="6.58425">
        <ele>1146</ele>
        <time>2019-04-19T03:34:40Z</time>
      </trkpt>
      <trkpt lat="44.83641" lon="6.58435">
        <ele>1168</ele>
        <time>2019-04-19T03:35:40Z</time>
      </trkpt>
      <trkpt lat="44.83576" lon="6.58424">
        <ele>1174</ele>
        <time>2019-04-19T03:36:40Z</time>
      </trkpt>
      <trkpt lat="44.83444" lon="6.58373">
        <ele>1179</ele>
        <time>2019-04-19T03:37:40Z</time>
      </trkpt>
      <trkpt lat="44.83339" lon="6.5833">
        <ele>1180</ele>
        <time>2019-04-19T03:38:40Z</time>
      </trkpt>
      <trkpt lat="44.8331" lon="6.58322">
        <ele>1183</ele>
        <time>2019-04-19T03:39:40Z</time>
      </trkpt>
      <trkpt lat="44.83249" lon="6.58313">
        <ele>1191</ele>
        <time>2019-04-19T03:40:40Z</time>
      </trkpt>
      <trkpt lat="44.83149" lon="6.58317">
        <ele>1200</ele>
        <time>2019-04-19T03:41:40Z</time>
      </trkpt>
      <trkpt lat="44.831" lon="6.58316">
        <ele>1204</ele>
        <time>2019-04-19T03:42:40Z</time>
      </trkpt>
      <trkpt lat="44.8308" lon="6.58309">
        <ele>1204</ele>
        <time>2019-04-19T03:43:40Z</time>
      </trkpt>
      <trkpt lat="44.8306" lon="6.58299">
        <ele>1203</ele>
        <time>2019-04-19T03:44:40Z</time>
      </trkpt>
      <trkpt lat="44.83034" lon="6.58271">
        <ele>1202</ele>
        <time>2019-04-19T03:45:40Z</time>
      </trkpt>
      <trkpt lat="44.83012" lon="6.58231">
        <ele>1204</ele>
        <time>2019-04-19T03:46:40Z</time>
      </trkpt>
      <trkpt lat="44.82992" lon="6.58156">
        <ele>1210</ele>
        <time>2019-04-19T03:47:40Z</time>
      </trkpt>
      <trkpt lat="44.82982" lon="6.58129">
        <ele>1209</ele>
        <time>2019-04-19T03:48:40Z</time>
      </trkpt>
      <trkpt lat="44.8296" lon="6.58095">
        <ele>1209</ele>
        <time>2019-04-19T03:49:40Z</time>
      </trkpt>
      <trkpt lat="44.82938" lon="6.58071">
        <ele>1210</ele>
        <time>2019-04-19T03:50:40Z</time>
      </trkpt>
      <trkpt lat="44.82913" lon="6.58055">
        <ele>1212</ele>
        <time>2019-04-19T03:51:40Z</time>
      </trkpt>
      <trkpt lat="44.82838" lon="6.58017">
        <ele>1216</ele>
        <time>2019-04-19T03:52:40Z</time>
      </trkpt>
      <trkpt lat="44.82784" lon="6.57997">
        <ele>1219</ele>
        <time>2019-04-19T03:53:40Z</time>
      </trkpt>
      <trkpt lat="44.82731" lon="6.57973">
        <ele>1221</ele>
        <time>2019-04-19T03:54:40Z</time>
      </trkpt>
      <trkpt lat="44.8271" lon="6.57967">
        <ele>1223</ele>
        <time>2019-04-19T03:55:40Z</time>
      </trkpt>
      <trkpt lat="44.82684" lon="6.5797">
        <ele>1225</ele>
        <time>2019-04-19T03:56:40Z</time>
      </trkpt>
      <trkpt lat="44.82616" lon="6.57985">
        <ele>1228</ele>
        <time>2019-04-19T03:57:40Z</time>
      </trkpt>
      <trkpt lat="44.82566" lon="6.58">
        <ele>1226</ele>
        <time>2019-04-19T03:58:40Z</time>
      </trkpt>
      <trkpt lat="44.82542" lon="6.58004">
        <ele>1227</ele>
        <time>2019-04-19T03:59:40Z</time>
      </trkpt>
      <trkpt lat="44.82517" lon="6.58005">
        <ele>1227</ele>
        <time>2019-04-19T04:00:40Z</time>
      </trkpt>
      <trkpt lat="44.82496" lon="6.58002">
        <ele>1227</ele>
        <time>2019-04-19T04:01:40Z</time>
      </trkpt>
      <trkpt lat="44.82477" lon="6.57994">
        <ele>1227</ele>
        <time>2019-04-19T04:02:40Z</time>
      </trkpt>
      <trkpt lat="44.8242" lon="6.57967">
        <ele>1228</ele>
        <time>2019-04-19T04:03:40Z</time>
      </trkpt>
      <trkpt lat="44.82322" lon="6.57912">
        <ele>1223</ele>
        <time>2019-04-19T04:04:40Z</time>
      </trkpt>
      <trkpt lat="44.82275" lon="6.57891">
        <ele>1216</ele>
        <time>2019-04-19T04:05:40Z</time>
      </trkpt>
      <trkpt lat="44.82241" lon="6.57887">
        <ele>1213</ele>
        <time>2019-04-19T04:06:40Z</time>
      </trkpt>
      <trkpt lat="44.82145" lon="6.57891">
        <ele>1212</ele>
        <time>2019-04-19T04:07:40Z</time>
      </trkpt>
      <trkpt lat="44.82115" lon="6.57887">
        <ele>1213</ele>
        <time>2019-04-19T04:08:40Z</time>
      </trkpt>
      <trkpt lat="44.82091" lon="6.57885">
        <ele>1214</ele>
        <time>2019-04-19T04:09:40Z</time>
      </trkpt>
      <trkpt lat="44.82042" lon="6.57888">
        <ele>1219</ele>
        <time>2019-04-19T04:10:40Z</time>
      </trkpt>
      <trkpt lat="44.82013" lon="6.57883">
        <ele>1220</ele>
        <time>2019-04-19T04:11:40Z</time>
      </trkpt>
      <trkpt lat="44.81992" lon="6.57863">
        <ele>1216</ele>
        <time>2019-04-19T04:12:40Z</time>
      </trkpt>
      <trkpt lat="44.81972" lon="6.57852">
        <ele>1215</ele>
        <time>2019-04-19T04:13:40Z</time>
      </trkpt>
      <trkpt lat="44.81952" lon="6.57844">
        <ele>1214</ele>
        <time>2019-04-19T04:14:40Z</time>
      </trkpt>
      <trkpt lat="44.81917" lon="6.57834">
        <ele>1214</ele>
        <time>2019-04-19T04:15:40Z</time>
      </trkpt>
      <trkpt lat="44.81898" lon="6.57825">
        <ele>1214</ele>
        <time>2019-04-19T04:16:40Z</time>
      </trkpt>
      <trkpt lat="44.81864" lon="6.57798">
        <ele>1208</ele>
        <time>2019-04-19T04:17:40Z</time>
      </trkpt>
      <trkpt lat="44.81826" lon="6.57773">
        <ele>1202</ele>
        <time>2019-04-19T04:18:40Z</time>
      </trkpt>
      <trkpt lat="44.8169" lon="6.57728">
        <ele>1209</ele>
        <time>2019-04-19T04:19:40Z</time>
      </trkpt>
      <trkpt lat="44.81631" lon="6.57716">
        <ele>1211</ele>
        <time>2019-04-19T04:20:40Z</time>
      </trkpt>
      <trkpt lat="44.8157" lon="6.57708">
        <ele>1216</ele>
        <time>2019-04-19T04:21:40Z</time>
      </trkpt>
      <trkpt lat="44.81526" lon="6.57699">
        <ele>1219</ele>
        <time>2019-04-19T04:22:40Z</time>
      </trkpt>
      <trkpt lat="44.81506" lon="6.57693">
        <ele>1220</ele>
        <time>2019-04-19T04:23:40Z</time>
      </trkpt>
      <trkpt lat="44.81489" lon="6.5768">
        <ele>1220</ele>
        <time>2019-04-19T04:24:40Z</time>
      </trkpt>
      <trkpt lat="44.81474" lon="6.57661">
        <ele>1218</ele>
        <time>2019-04-19T04:25:40Z</time>
      </trkpt>
      <trkpt lat="44.81442" lon="6.576">
        <ele>1208</ele>
        <time>2019-04-19T04:26:40Z</time>
      </trkpt>
      <trkpt lat="44.81416" lon="6.57571">
        <ele>1206</ele>
        <time>2019-04-19T04:27:40Z</time>
      </trkpt>
      <trkpt lat="44.81395" lon="6.5756">
        <ele>1202</ele>
        <time>2019-04-19T04:28:40Z</time>
      </trkpt>
      <trkpt lat="44.81281" lon="6.57546">
        <ele>1207</ele>
        <time>2019-04-19T04:29:40Z</time>
      </trkpt>
      <trkpt lat="44.81233" lon="6.57526">
        <ele>1208</ele>
        <time>2019-04-19T04:30:40Z</time>
      </trkpt>
      <trkpt lat="44.81172" lon="6.57463">
        <ele>1200</ele>
        <time>2019-04-19T04:31:40Z</time>
      </trkpt>
      <trkpt lat="44.81147" lon="6.57447">
        <ele>1198</ele>
        <time>2019-04-19T04:32:40Z</time>
      </trkpt>
      <trkpt lat="44.81043" lon="6.5741">
        <ele>1195</ele>
        <time>2019-04-19T04:33:40Z</time>
      </trkpt>
      <trkpt lat="44.8101" lon="6.57407">
        <ele>1196</ele>
        <time>2019-04-19T04:34:40Z</time>
      </trkpt>
      <trkpt lat="44.80908" lon="6.57417">
        <ele>1197</ele>
        <time>2019-04-19T04:35:40Z</time>
      </trkpt>
      <trkpt lat="44.8089" lon="6.57416">
        <ele>1197</ele>
        <time>2019-04-19T04:36:40Z</time>
      </trkpt>
      <trkpt lat="44.80873" lon="6.57411">
        <ele>1195</ele>
        <time>2019-04-19T04:37:40Z</time>
      </trkpt>
      <trkpt lat="44.80854" lon="6.57398">
        <ele>1193</ele>
        <time>2019-04-19T04:38:40Z</time>
      </trkpt>
      <trkpt lat="44.80839" lon="6.57383">
        <ele>1191</ele>
        <time>2019-04-19T04:39:40Z</time>
      </trkpt>
      <trkpt lat="44.80822" lon="6.57358">
        <ele>1189</ele>
        <time>2019-04-19T04:40:40Z</time>
      </trkpt>
      <trkpt lat="44.80805" lon="6.57323">
        <ele>1187</ele>
        <time>2019-04-19T04:41:40Z</time>
      </trkpt>
      <trkpt lat="44.80677" lon="6.56988">
        <ele>1160</ele>
        <time>2019-04-19T04:42:40Z</time>
      </trkpt>
      <trkpt lat="44.80656" lon="6.56943">
        <ele>1159</ele>
        <time>2019-04-19T04:43:40Z</time>
      </trkpt>
      <trkpt lat="44.80636" lon="6.56907">
        <ele>1157</ele>
        <time>2019-04-19T04:44:40Z</time>
      </trkpt>
      <trkpt lat="44.80588" lon="6.56835">
        <ele>1151</ele>
        <time>2019-04-19T04:45:40Z</time>
      </trkpt>
      <trkpt lat="44.80543" lon="6.56791">
        <ele>1144</ele>
        <time>2019-04-19T04:46:40Z</time>
      </trkpt>
      <trkpt lat="44.80496" lon="6.56773">
        <ele>1140</ele>
        <time>2019-04-19T04:47:40Z</time>
      </trkpt>
      <trkpt lat="44.80477" lon="6.56773">
        <ele>1138</ele>
        <time>2019-04-19T04:48:40Z</time>
      </trkpt>
      <trkpt lat="44.80425" lon="6.56781">
        <ele>1134</ele>
        <time>2019-04-19T04:49:40Z</time>
      </trkpt>
      <trkpt lat="44.80404" lon="6.56792">
        <ele>1134</ele>
        <time>2019-04-19T04:50:40Z</time>
      </trkpt>
      <trkpt lat="44.80363" lon="6.56818">
        <ele>1133</ele>
        <time>2019-04-19T04:51:40Z</time>
      </trkpt>
      <trkpt lat="44.80355" lon="6.5682">
        <ele>1132</ele>
        <time>2019-04-19T04:52:40Z</time>
      </trkpt>
      <trkpt lat="44.80348" lon="6.56819">
        <ele>1131</ele>
        <time>2019-04-19T04:53:40Z</time>
      </trkpt>
      <trkpt lat="44.8034" lon="6.5681">
        <ele>1127</ele>
        <time>2019-04-19T04:54:40Z</time>
      </trkpt>
      <trkpt lat="44.80336" lon="6.56798">
        <ele>1124</ele>
        <time>2019-04-19T04:55:40Z</time>
      </trkpt>
      <trkpt lat="44.80343" lon="6.5678">
        <ele>1121</ele>
        <time>2019-04-19T04:56:40Z</time>
      </trkpt>
      <trkpt lat="44.80348" lon="6.56776">
        <ele>1121</ele>
        <time>2019-04-19T04:57:40Z</time>
      </trkpt>
      <trkpt lat="44.80371" lon="6.56767">
        <ele>1123</ele>
        <time>2019-04-19T04:58:40Z</time>
      </trkpt>
      <trkpt lat="44.8041" lon="6.5676">
        <ele>1128</ele>
        <time>2019-04-19T04:59:40Z</time>
      </trkpt>
      <trkpt lat="44.80463" lon="6.56747">
        <ele>1132</ele>
        <time>2019-04-19T05:00:40Z</time>
      </trkpt>
      <trkpt lat="44.8048" lon="6.5674">
        <ele>1132</ele>
        <time>2019-04-19T05:01:40Z</time>
      </trkpt>
      <trkpt lat="44.80505" lon="6.56724">
        <ele>1131</ele>
        <time>2019-04-19T05:02:40Z</time>
      </trkpt>
      <trkpt lat="44.80519" lon="6.56711">
        <ele>1129</ele>
        <time>2019-04-19T05:03:40Z</time>
      </trkpt>
      <trkpt lat="44.80534" lon="6.56692">
        <ele>1125</ele>
        <time>2019-04-19T05:04:40Z</time>
      </trkpt>
      <trkpt lat="44.8055" lon="6.56665">
        <ele>1119</ele>
        <time>2019-04-19T05:05:40Z</time>
      </trkpt>
      <trkpt lat="44.80572" lon="6.56637">
        <ele>1113</ele>
        <time>2019-04-19T05:06:40Z</time>
      </trkpt>
      <trkpt lat="44.80591" lon="6.56626">
        <ele>1112</ele>
        <time>2019-04-19T05:07:40Z</time>
      </trkpt>
      <trkpt lat="44.80655" lon="6.56613">
        <ele>1117</ele>
        <time>2019-04-19T05:08:40Z</time>
      </trkpt>
      <trkpt lat="44.80665" lon="6.56607">
        <ele>1117</ele>
        <time>2019-04-19T05:09:40Z</time>
      </trkpt>
      <trkpt lat="44.80672" lon="6.56593">
        <ele>1114</ele>
        <time>2019-04-19T05:10:40Z</time>
      </trkpt>
      <trkpt lat="44.80672" lon="6.56579">
        <ele>1110</ele>
        <time>2019-04-19T05:11:40Z</time>
      </trkpt>
      <trkpt lat="44.80668" lon="6.56568">
        <ele>1107</ele>
        <time>2019-04-19T05:12:40Z</time>
      </trkpt>
      <trkpt lat="44.80658" lon="6.56563">
        <ele>1104</ele>
        <time>2019-04-19T05:13:40Z</time>
      </trkpt>
      <trkpt lat="44.80615" lon="6.56571">
        <ele>1101</ele>
        <time>2019-04-19T05:14:40Z</time>
      </trkpt>
      <trkpt lat="44.80599" lon="6.56572">
        <ele>1100</ele>
        <time>2019-04-19T05:15:40Z</time>
      </trkpt>
      <trkpt lat="44.80551" lon="6.56563">
        <ele>1095</ele>
        <time>2019-04-19T05:16:40Z</time>
      </trkpt>
      <trkpt lat="44.80527" lon="6.56552">
        <ele>1091</ele>
        <time>2019-04-19T05:17:40Z</time>
      </trkpt>
      <trkpt lat="44.80494" lon="6.56542">
        <ele>1088</ele>
        <time>2019-04-19T05:18:40Z</time>
      </trkpt>
      <trkpt lat="44.80429" lon="6.5653">
        <ele>1084</ele>
        <time>2019-04-19T05:19:40Z</time>
      </trkpt>
      <trkpt lat="44.80413" lon="6.56531">
        <ele>1084</ele>
        <time>2019-04-19T05:20:40Z</time>
      </trkpt>
      <trkpt lat="44.80399" lon="6.56534">
        <ele>1083</ele>
        <time>2019-04-19T05:21:40Z</time>
      </trkpt>
      <trkpt lat="44.80385" lon="6.56541">
        <ele>1083</ele>
        <time>2019-04-19T05:22:40Z</time>
      </trkpt>
      <trkpt lat="44.80326" lon="6.56577">
        <ele>1082</ele>
        <time>2019-04-19T05:23:40Z</time>
      </trkpt>
      <trkpt lat="44.80298" lon="6.56592">
        <ele>1080</ele>
        <time>2019-04-19T05:24:40Z</time>
      </trkpt>
      <trkpt lat="44.80274" lon="6.56601">
        <ele>1077</ele>
        <time>2019-04-19T05:25:40Z</time>
      </trkpt>
      <trkpt lat="44.8025" lon="6.56607">
        <ele>1073</ele>
        <time>2019-04-19T05:26:40Z</time>
      </trkpt>
      <trkpt lat="44.80203" lon="6.56607">
        <ele>1070</ele>
        <time>2019-04-19T05:27:40Z</time>
      </trkpt>
      <trkpt lat="44.80144" lon="6.56603">
        <ele>1066</ele>
        <time>2019-04-19T05:28:40Z</time>
      </trkpt>
      <trkpt lat="44.80088" lon="6.56604">
        <ele>1063</ele>
        <time>2019-04-19T05:29:40Z</time>
      </trkpt>
      <trkpt lat="44.80015" lon="6.56597">
        <ele>1057</ele>
        <time>2019-04-19T05:30:40Z</time>
      </trkpt>
      <trkpt lat="44.79967" lon="6.5659">
        <ele>1054</ele>
        <time>2019-04-19T05:31:40Z</time>
      </trkpt>
      <trkpt lat="44.79933" lon="6.56577">
        <ele>1052</ele>
        <time>2019-04-19T05:32:40Z</time>
      </trkpt>
      <trkpt lat="44.79905" lon="6.56556">
        <ele>1051</ele>
        <time>2019-04-19T05:33:40Z</time>
      </trkpt>
      <trkpt lat="44.79876" lon="6.56524">
        <ele>1050</ele>
        <time>2019-04-19T05:34:40Z</time>
      </trkpt>
      <trkpt lat="44.79848" lon="6.56488">
        <ele>1046</ele>
        <time>2019-04-19T05:35:40Z</time>
      </trkpt>
      <trkpt lat="44.79815" lon="6.56434">
        <ele>1040</ele>
        <time>2019-04-19T05:36:40Z</time>
      </trkpt>
      <trkpt lat="44.79777" lon="6.56385">
        <ele>1034</ele>
        <time>2019-04-19T05:37:40Z</time>
      </trkpt>
      <trkpt lat="44.79765" lon="6.56373">
        <ele>1033</ele>
        <time>2019-04-19T05:38:40Z</time>
      </trkpt>
      <trkpt lat="44.79699" lon="6.56322">
        <ele>1026</ele>
        <time>2019-04-19T05:39:40Z</time>
      </trkpt>
      <trkpt lat="44.79671" lon="6.56303">
        <ele>1023</ele>
        <time>2019-04-19T05:40:40Z</time>
      </trkpt>
      <trkpt lat="44.79642" lon="6.56287">
        <ele>1020</ele>
        <time>2019-04-19T05:41:40Z</time>
      </trkpt>
      <trkpt lat="44.79611" lon="6.56277">
        <ele>1018</ele>
        <time>2019-04-19T05:42:40Z</time>
      </trkpt>
      <trkpt lat="44.79532" lon="6.56261">
        <ele>1011</ele>
        <time>2019-04-19T05:43:40Z</time>
      </trkpt>
      <trkpt lat="44.79476" lon="6.56255">
        <ele>1006</ele>
        <time>2019-04-19T05:44:40Z</time>
      </trkpt>
      <trkpt lat="44.79419" lon="6.56252">
        <ele>1001</ele>
        <time>2019-04-19T05:45:40Z</time>
      </trkpt>
      <trkpt lat="44.79065" lon="6.56182">
        <ele>981</ele>
        <time>2019-04-19T05:46:40Z</time>
      </trkpt>
      <trkpt lat="44.79014" lon="6.56165">
        <ele>977</ele>
        <time>2019-04-19T05:47:40Z</time>
      </trkpt>
      <trkpt lat="44.7899" lon="6.56159">
        <ele>977</ele>
        <time>2019-04-19T05:48:40Z</time>
      </trkpt>
      <trkpt lat="44.78797" lon="6.56121">
        <ele>978</ele>
        <time>2019-04-19T05:49:40Z</time>
      </trkpt>
      <trkpt lat="44.78713" lon="6.56112">
        <ele>981</ele>
        <time>2019-04-19T05:50:40Z</time>
      </trkpt>
      <trkpt lat="44.78422" lon="6.5606">
        <ele>994</ele>
        <time>2019-04-19T05:51:40Z</time>
      </trkpt>
      <trkpt lat="44.7838" lon="6.56055">
        <ele>993</ele>
        <time>2019-04-19T05:52:40Z</time>
      </trkpt>
      <trkpt lat="44.78339" lon="6.56055">
        <ele>991</ele>
        <time>2019-04-19T05:53:40Z</time>
      </trkpt>
      <trkpt lat="44.78299" lon="6.56059">
        <ele>989</ele>
        <time>2019-04-19T05:54:40Z</time>
      </trkpt>
      <trkpt lat="44.78235" lon="6.56072">
        <ele>985</ele>
        <time>2019-04-19T05:55:40Z</time>
      </trkpt>
      <trkpt lat="44.78123" lon="6.56111">
        <ele>985</ele>
        <time>2019-04-19T05:56:40Z</time>
      </trkpt>
      <trkpt lat="44.78083" lon="6.56112">
        <ele>983</ele>
        <time>2019-04-19T05:57:40Z</time>
      </trkpt>
      <trkpt lat="44.78044" lon="6.56106">
        <ele>983</ele>
        <time>2019-04-19T05:58:40Z</time>
      </trkpt>
      <trkpt lat="44.77975" lon="6.56088">
        <ele>979</ele>
        <time>2019-04-19T05:59:40Z</time>
      </trkpt>
      <trkpt lat="44.77762" lon="6.56003">
        <ele>964</ele>
        <time>2019-04-19T06:00:40Z</time>
      </trkpt>
      <trkpt lat="44.77743" lon="6.55998">
        <ele>964</ele>
        <time>2019-04-19T06:01:40Z</time>
      </trkpt>
      <trkpt lat="44.77572" lon="6.55976">
        <ele>969</ele>
        <time>2019-04-19T06:02:40Z</time>
      </trkpt>
      <trkpt lat="44.77543" lon="6.55973">
        <ele>969</ele>
        <time>2019-04-19T06:03:40Z</time>
      </trkpt>
      <trkpt lat="44.77508" lon="6.55976">
        <ele>971</ele>
        <time>2019-04-19T06:04:40Z</time>
      </trkpt>
      <trkpt lat="44.7728" lon="6.5602">
        <ele>964</ele>
        <time>2019-04-19T06:05:40Z</time>
      </trkpt>
      <trkpt lat="44.77253" lon="6.5603">
        <ele>964</ele>
        <time>2019-04-19T06:06:40Z</time>
      </trkpt>
      <trkpt lat="44.77228" lon="6.56042">
        <ele>964</ele>
        <time>2019-04-19T06:07:40Z</time>
      </trkpt>
      <trkpt lat="44.77186" lon="6.56071">
        <ele>960</ele>
        <time>2019-04-19T06:08:40Z</time>
      </trkpt>
      <trkpt lat="44.77148" lon="6.56107">
        <ele>962</ele>
        <time>2019-04-19T06:09:40Z</time>
      </trkpt>
      <trkpt lat="44.77111" lon="6.56137">
        <ele>966</ele>
        <time>2019-04-19T06:10:40Z</time>
      </trkpt>
      <trkpt lat="44.76824" lon="6.56341">
        <ele>959</ele>
        <time>2019-04-19T06:11:40Z</time>
      </trkpt>
      <trkpt lat="44.76767" lon="6.56391">
        <ele>956</ele>
        <time>2019-04-19T06:12:40Z</time>
      </trkpt>
      <trkpt lat="44.76533" lon="6.56645">
        <ele>952</ele>
        <time>2019-04-19T06:13:40Z</time>
      </trkpt>
      <trkpt lat="44.76215" lon="6.56975">
        <ele>946</ele>
        <time>2019-04-19T06:14:40Z</time>
      </trkpt>
      <trkpt lat="44.7618" lon="6.57006">
        <ele>947</ele>
        <time>2019-04-19T06:15:40Z</time>
      </trkpt>
      <trkpt lat="44.76091" lon="6.57095">
        <ele>946</ele>
        <time>2019-04-19T06:16:40Z</time>
      </trkpt>
      <trkpt lat="44.76011" lon="6.57178">
        <ele>946</ele>
        <time>2019-04-19T06:17:40Z</time>
      </trkpt>
      <trkpt lat="44.75969" lon="6.57218">
        <ele>948</ele>
        <time>2019-04-19T06:18:40Z</time>
      </trkpt>
      <trkpt lat="44.75936" lon="6.57245">
        <ele>948</ele>
        <time>2019-04-19T06:19:40Z</time>
      </trkpt>
      <trkpt lat="44.75807" lon="6.57326">
        <ele>943</ele>
        <time>2019-04-19T06:20:40Z</time>
      </trkpt>
      <trkpt lat="44.75626" lon="6.57448">
        <ele>941</ele>
        <time>2019-04-19T06:21:40Z</time>
      </trkpt>
      <trkpt lat="44.75522" lon="6.57508">
        <ele>940</ele>
        <time>2019-04-19T06:22:40Z</time>
      </trkpt>
      <trkpt lat="44.75448" lon="6.57556">
        <ele>939</ele>
        <time>2019-04-19T06:23:40Z</time>
      </trkpt>
      <trkpt lat="44.75402" lon="6.57589">
        <ele>939</ele>
        <time>2019-04-19T06:24:40Z</time>
      </trkpt>
      <trkpt lat="44.75378" lon="6.57605">
        <ele>939</ele>
        <time>2019-04-19T06:25:40Z</time>
      </trkpt>
      <trkpt lat="44.75352" lon="6.57626">
        <ele>939</ele>
        <time>2019-04-19T06:26:40Z</time>
      </trkpt>
      <trkpt lat="44.75196" lon="6.57725">
        <ele>937</ele>
        <time>2019-04-19T06:27:40Z</time>
      </trkpt>
      <trkpt lat="44.75018" lon="6.57844">
        <ele>945</ele>
        <time>2019-04-19T06:28:40Z</time>
      </trkpt>
      <trkpt lat="44.7495" lon="6.57886">
        <ele>945</ele>
        <time>2019-04-19T06:29:40Z</time>
      </trkpt>
      <trkpt lat="44.74845" lon="6.57954">
        <ele>947</ele>
        <time>2019-04-19T06:30:40Z</time>
      </trkpt>
      <trkpt lat="44.74801" lon="6.57964">
        <ele>945</ele>
        <time>2019-04-19T06:31:40Z</time>
      </trkpt>
      <trkpt lat="44.7477" lon="6.5799">
        <ele>945</ele>
        <time>2019-04-19T06:32:40Z</time>
      </trkpt>
      <trkpt lat="44.74732" lon="6.58019">
        <ele>944</ele>
        <time>2019-04-19T06:33:40Z</time>
      </trkpt>
      <trkpt lat="44.74657" lon="6.5806">
        <ele>944</ele>
        <time>2019-04-19T06:34:40Z</time>
      </trkpt>
      <trkpt lat="44.74618" lon="6.58085">
        <ele>949</ele>
        <time>2019-04-19T06:35:40Z</time>
      </trkpt>
      <trkpt lat="44.7457" lon="6.58122">
        <ele>950</ele>
        <time>2019-04-19T06:36:40Z</time>
      </trkpt>
      <trkpt lat="44.7443" lon="6.58219">
        <ele>953</ele>
        <time>2019-04-19T06:37:40Z</time>
      </trkpt>
      <trkpt lat="44.74408" lon="6.58228">
        <ele>954</ele>
        <time>2019-04-19T06:38:40Z</time>
      </trkpt>
      <trkpt lat="44.74363" lon="6.58237">
        <ele>953</ele>
        <time>2019-04-19T06:39:40Z</time>
      </trkpt>
      <trkpt lat="44.74268" lon="6.58253">
        <ele>950</ele>
        <time>2019-04-19T06:40:40Z</time>
      </trkpt>
      <trkpt lat="44.7424" lon="6.5826">
        <ele>950</ele>
        <time>2019-04-19T06:41:40Z</time>
      </trkpt>
      <trkpt lat="44.74206" lon="6.58271">
        <ele>950</ele>
        <time>2019-04-19T06:42:40Z</time>
      </trkpt>
      <trkpt lat="44.74146" lon="6.58288">
        <ele>950</ele>
        <time>2019-04-19T06:43:40Z</time>
      </trkpt>
      <trkpt lat="44.74012" lon="6.58331">
        <ele>941</ele>
        <time>2019-04-19T06:44:40Z</time>
      </trkpt>
      <trkpt lat="44.73942" lon="6.58348">
        <ele>936</ele>
        <time>2019-04-19T06:45:40Z</time>
      </trkpt>
      <trkpt lat="44.73638" lon="6.58389">
        <ele>929</ele>
        <time>2019-04-19T06:46:40Z</time>
      </trkpt>
      <trkpt lat="44.73359" lon="6.58421">
        <ele>928</ele>
        <time>2019-04-19T06:47:40Z</time>
      </trkpt>
      <trkpt lat="44.73264" lon="6.58443">
        <ele>934</ele>
        <time>2019-04-19T06:48:40Z</time>
      </trkpt>
      <trkpt lat="44.72831" lon="6.58581">
        <ele>925</ele>
        <time>2019-04-19T06:49:40Z</time>
      </trkpt>
      <trkpt lat="44.72757" lon="6.58611">
        <ele>922</ele>
        <time>2019-04-19T06:50:40Z</time>
      </trkpt>
      <trkpt lat="44.72684" lon="6.58662">
        <ele>920</ele>
        <time>2019-04-19T06:51:40Z</time>
      </trkpt>
      <trkpt lat="44.72642" lon="6.58701">
        <ele>921</ele>
        <time>2019-04-19T06:52:40Z</time>
      </trkpt>
      <trkpt lat="44.72466" lon="6.58876">
        <ele>921</ele>
        <time>2019-04-19T06:53:40Z</time>
      </trkpt>
      <trkpt lat="44.7243" lon="6.58915">
        <ele>919</ele>
        <time>2019-04-19T06:54:40Z</time>
      </trkpt>
      <trkpt lat="44.72391" lon="6.58953">
        <ele>919</ele>
        <time>2019-04-19T06:55:40Z</time>
      </trkpt>
      <trkpt lat="44.72354" lon="6.58995">
        <ele>918</ele>
        <time>2019-04-19T06:56:40Z</time>
      </trkpt>
      <trkpt lat="44.72136" lon="6.59217">
        <ele>917</ele>
        <time>2019-04-19T06:57:40Z</time>
      </trkpt>
      <trkpt lat="44.71912" lon="6.59442">
        <ele>923</ele>
        <time>2019-04-19T06:58:40Z</time>
      </trkpt>
      <trkpt lat="44.71745" lon="6.59617">
        <ele>917</ele>
        <time>2019-04-19T06:59:40Z</time>
      </trkpt>
      <trkpt lat="44.71207" lon="6.60162">
        <ele>916</ele>
        <time>2019-04-19T07:00:40Z</time>
      </trkpt>
      <trkpt lat="44.71161" lon="6.60201">
        <ele>915</ele>
        <time>2019-04-19T07:01:40Z</time>
      </trkpt>
      <trkpt lat="44.71121" lon="6.6023">
        <ele>913</ele>
        <time>2019-04-19T07:02:40Z</time>
      </trkpt>
      <trkpt lat="44.71065" lon="6.60256">
        <ele>910</ele>
        <time>2019-04-19T07:03:40Z</time>
      </trkpt>
      <trkpt lat="44.70888" lon="6.6032">
        <ele>904</ele>
        <time>2019-04-19T07:04:40Z</time>
      </trkpt>
      <trkpt lat="44.70785" lon="6.60368">
        <ele>904</ele>
        <time>2019-04-19T07:05:40Z</time>
      </trkpt>
      <trkpt lat="44.70685" lon="6.60423">
        <ele>903</ele>
        <time>2019-04-19T07:06:40Z</time>
      </trkpt>
      <trkpt lat="44.70584" lon="6.60484">
        <ele>901</ele>
        <time>2019-04-19T07:07:40Z</time>
      </trkpt>
      <trkpt lat="44.70402" lon="6.6063">
        <ele>906</ele>
        <time>2019-04-19T07:08:40Z</time>
      </trkpt>
      <trkpt lat="44.70163" lon="6.60839">
        <ele>904</ele>
        <time>2019-04-19T07:09:40Z</time>
      </trkpt>
      <trkpt lat="44.701" lon="6.60889">
        <ele>903</ele>
        <time>2019-04-19T07:10:40Z</time>
      </trkpt>
      <trkpt lat="44.70053" lon="6.6093">
        <ele>902</ele>
        <time>2019-04-19T07:11:40Z</time>
      </trkpt>
      <trkpt lat="44.6998" lon="6.60977">
        <ele>902</ele>
        <time>2019-04-19T07:12:40Z</time>
      </trkpt>
      <trkpt lat="44.69946" lon="6.60994">
        <ele>901</ele>
        <time>2019-04-19T07:13:40Z</time>
      </trkpt>
      <trkpt lat="44.6993" lon="6.61">
        <ele>901</ele>
        <time>2019-04-19T07:14:40Z</time>
      </trkpt>
      <trkpt lat="44.69919" lon="6.61007">
        <ele>901</ele>
        <time>2019-04-19T07:15:40Z</time>
      </trkpt>
      <trkpt lat="44.69777" lon="6.61051">
        <ele>904</ele>
        <time>2019-04-19T07:16:40Z</time>
      </trkpt>
      <trkpt lat="44.67728" lon="6.61644">
        <ele>889</ele>
        <time>2019-04-19T07:17:40Z</time>
      </trkpt>
      <trkpt lat="44.67672" lon="6.61654">
        <ele>888</ele>
        <time>2019-04-19T07:18:40Z</time>
      </trkpt>
      <trkpt lat="44.67596" lon="6.61666">
        <ele>887</ele>
        <time>2019-04-19T07:19:40Z</time>
      </trkpt>
      <trkpt lat="44.67568" lon="6.61678">
        <ele>887</ele>
        <time>2019-04-19T07:20:40Z</time>
      </trkpt>
      <trkpt lat="44.67538" lon="6.61695">
        <ele>888</ele>
        <time>2019-04-19T07:21:40Z</time>
      </trkpt>
      <trkpt lat="44.67456" lon="6.61721">
        <ele>888</ele>
        <time>2019-04-19T07:22:40Z</time>
      </trkpt>
      <trkpt lat="44.67276" lon="6.61769">
        <ele>887</ele>
        <time>2019-04-19T07:23:40Z</time>
      </trkpt>
      <trkpt lat="44.6717" lon="6.61801">
        <ele>890</ele>
        <time>2019-04-19T07:24:40Z</time>
      </trkpt>
      <trkpt lat="44.67134" lon="6.61816">
        <ele>890</ele>
        <time>2019-04-19T07:25:40Z</time>
      </trkpt>
      <trkpt lat="44.67116" lon="6.61817">
        <ele>890</ele>
        <time>2019-04-19T07:26:40Z</time>
      </trkpt>
      <trkpt lat="44.67037" lon="6.61833">
        <ele>888</ele>
        <time>2019-04-19T07:27:40Z</time>
      </trkpt>
      <trkpt lat="44.67012" lon="6.61842">
        <ele>889</ele>
        <time>2019-04-19T07:28:40Z</time>
      </trkpt>
      <trkpt lat="44.66952" lon="6.61845">
        <ele>889</ele>
        <time>2019-04-19T07:29:40Z</time>
      </trkpt>
      <trkpt lat="44.66904" lon="6.61838">
        <ele>889</ele>
        <time>2019-04-19T07:30:40Z</time>
      </trkpt>
      <trkpt lat="44.66846" lon="6.61818">
        <ele>888</ele>
        <time>2019-04-19T07:31:40Z</time>
      </trkpt>
      <trkpt lat="44.66811" lon="6.61799">
        <ele>889</ele>
        <time>2019-04-19T07:32:40Z</time>
      </trkpt>
      <trkpt lat="44.66765" lon="6.61768">
        <ele>890</ele>
        <time>2019-04-19T07:33:40Z</time>
      </trkpt>
      <trkpt lat="44.66717" lon="6.61719">
        <ele>891</ele>
        <time>2019-04-19T07:34:40Z</time>
      </trkpt>
      <trkpt lat="44.66692" lon="6.61689">
        <ele>891</ele>
        <time>2019-04-19T07:35:40Z</time>
      </trkpt>
      <trkpt lat="44.66663" lon="6.61644">
        <ele>891</ele>
        <time>2019-04-19T07:36:40Z</time>
      </trkpt>
      <trkpt lat="44.66635" lon="6.61593">
        <ele>891</ele>
        <time>2019-04-19T07:37:40Z</time>
      </trkpt>
      <trkpt lat="44.66594" lon="6.61515">
        <ele>891</ele>
        <time>2019-04-19T07:38:40Z</time>
      </trkpt>
      <trkpt lat="44.66583" lon="6.61466">
        <ele>891</ele>
        <time>2019-04-19T07:39:40Z</time>
      </trkpt>
      <trkpt lat="44.66583" lon="6.61459">
        <ele>891</ele>
        <time>2019-04-19T07:40:40Z</time>
      </trkpt>
      <trkpt lat="44.6658" lon="6.61444">
        <ele>891</ele>
        <time>2019-04-19T07:41:40Z</time>
      </trkpt>
      <trkpt lat="44.66576" lon="6.61439">
        <ele>891</ele>
        <time>2019-04-19T07:42:40Z</time>
      </trkpt>
      <trkpt lat="44.66565" lon="6.61434">
        <ele>891</ele>
        <time>2019-04-19T07:43:40Z</time>
      </trkpt>
      <trkpt lat="44.66555" lon="6.61424">
        <ele>891</ele>
        <time>2019-04-19T07:44:40Z</time>
      </trkpt>
      <trkpt lat="44.66506" lon="6.61345">
        <ele>890</ele>
        <time>2019-04-19T07:45:40Z</time>
      </trkpt>
      <trkpt lat="44.65997" lon="6.60339">
        <ele>884</ele>
        <time>2019-04-19T07:46:40Z</time>
      </trkpt>
      <trkpt lat="44.659" lon="6.60154">
        <ele>882</ele>
        <time>2019-04-19T07:47:40Z</time>
      </trkpt>
      <trkpt lat="44.6558" lon="6.59522">
        <ele>882</ele>
        <time>2019-04-19T07:48:40Z</time>
      </trkpt>
      <trkpt lat="44.6548" lon="6.59329">
        <ele>878</ele>
        <time>2019-04-19T07:49:40Z</time>
      </trkpt>
      <trkpt lat="44.65194" lon="6.58768">
        <ele>882</ele>
        <time>2019-04-19T07:50:40Z</time>
      </trkpt>
      <trkpt lat="44.65141" lon="6.58659">
        <ele>877</ele>
        <time>2019-04-19T07:51:40Z</time>
      </trkpt>
      <trkpt lat="44.65125" lon="6.58632">
        <ele>878</ele>
        <time>2019-04-19T07:52:40Z</time>
      </trkpt>
      <trkpt lat="44.65074" lon="6.58558">
        <ele>879</ele>
        <time>2019-04-19T07:53:40Z</time>
      </trkpt>
      <trkpt lat="44.65061" lon="6.58528">
        <ele>877</ele>
        <time>2019-04-19T07:54:40Z</time>
      </trkpt>
      <trkpt lat="44.65054" lon="6.58505">
        <ele>876</ele>
        <time>2019-04-19T07:55:40Z</time>
      </trkpt>
      <trkpt lat="44.65047" lon="6.5847">
        <ele>875</ele>
        <time>2019-04-19T07:56:40Z</time>
      </trkpt>
      <trkpt lat="44.65044" lon="6.58422">
        <ele>875</ele>
        <time>2019-04-19T07:57:40Z</time>
      </trkpt>
      <trkpt lat="44.65047" lon="6.58293">
        <ele>874</ele>
        <time>2019-04-19T07:58:40Z</time>
      </trkpt>
      <trkpt lat="44.65027" lon="6.58184">
        <ele>873</ele>
        <time>2019-04-19T07:59:40Z</time>
      </trkpt>
      <trkpt lat="44.65019" lon="6.58127">
        <ele>873</ele>
        <time>2019-04-19T08:00:40Z</time>
      </trkpt>
      <trkpt lat="44.65001" lon="6.58082">
        <ele>872</ele>
        <time>2019-04-19T08:01:40Z</time>
      </trkpt>
      <trkpt lat="44.64921" lon="6.57989">
        <ele>875</ele>
        <time>2019-04-19T08:02:40Z</time>
      </trkpt>
      <trkpt lat="44.64872" lon="6.57881">
        <ele>876</ele>
        <time>2019-04-19T08:03:40Z</time>
      </trkpt>
      <trkpt lat="44.64852" lon="6.57856">
        <ele>876</ele>
        <time>2019-04-19T08:04:40Z</time>
      </trkpt>
      <trkpt lat="44.64752" lon="6.57742">
        <ele>872</ele>
        <time>2019-04-19T08:05:40Z</time>
      </trkpt>
      <trkpt lat="44.64447" lon="6.57401">
        <ele>871</ele>
        <time>2019-04-19T08:06:40Z</time>
      </trkpt>
      <trkpt lat="44.63905" lon="6.56789">
        <ele>896</ele>
        <time>2019-04-19T08:07:40Z</time>
      </trkpt>
      <trkpt lat="44.63802" lon="6.56669">
        <ele>894</ele>
        <time>2019-04-19T08:08:40Z</time>
      </trkpt>
      <trkpt lat="44.63753" lon="6.5661">
        <ele>903</ele>
        <time>2019-04-19T08:09:40Z</time>
      </trkpt>
      <trkpt lat="44.63733" lon="6.56595">
        <ele>905</ele>
        <time>2019-04-19T08:10:40Z</time>
      </trkpt>
      <trkpt lat="44.63532" lon="6.56515">
        <ele>910</ele>
        <time>2019-04-19T08:11:40Z</time>
      </trkpt>
      <trkpt lat="44.63513" lon="6.56501">
        <ele>912</ele>
        <time>2019-04-19T08:12:40Z</time>
      </trkpt>
      <trkpt lat="44.6348" lon="6.56461">
        <ele>919</ele>
        <time>2019-04-19T08:13:40Z</time>
      </trkpt>
      <trkpt lat="44.63466" lon="6.56449">
        <ele>920</ele>
        <time>2019-04-19T08:14:40Z</time>
      </trkpt>
      <trkpt lat="44.63448" lon="6.56443">
        <ele>919</ele>
        <time>2019-04-19T08:15:40Z</time>
      </trkpt>
      <trkpt lat="44.63405" lon="6.5644">
        <ele>913</ele>
        <time>2019-04-19T08:16:40Z</time>
      </trkpt>
      <trkpt lat="44.63377" lon="6.56429">
        <ele>911</ele>
        <time>2019-04-19T08:17:40Z</time>
      </trkpt>
      <trkpt lat="44.63363" lon="6.56419">
        <ele>912</ele>
        <time>2019-04-19T08:18:40Z</time>
      </trkpt>
      <trkpt lat="44.6335" lon="6.56404">
        <ele>914</ele>
        <time>2019-04-19T08:19:40Z</time>
      </trkpt>
      <trkpt lat="44.6333" lon="6.56368">
        <ele>920</ele>
        <time>2019-04-19T08:20:40Z</time>
      </trkpt>
      <trkpt lat="44.63252" lon="6.56204">
        <ele>922</ele>
        <time>2019-04-19T08:21:40Z</time>
      </trkpt>
      <trkpt lat="44.63242" lon="6.5617">
        <ele>924</ele>
        <time>2019-04-19T08:22:40Z</time>
      </trkpt>
      <trkpt lat="44.6324" lon="6.56142">
        <ele>925</ele>
        <time>2019-04-19T08:23:40Z</time>
      </trkpt>
      <trkpt lat="44.63245" lon="6.56116">
        <ele>930</ele>
        <time>2019-04-19T08:24:40Z</time>
      </trkpt>
      <trkpt lat="44.63246" lon="6.56089">
        <ele>933</ele>
        <time>2019-04-19T08:25:40Z</time>
      </trkpt>
      <trkpt lat="44.63241" lon="6.56054">
        <ele>933</ele>
        <time>2019-04-19T08:26:40Z</time>
      </trkpt>
      <trkpt lat="44.63218" lon="6.5596">
        <ele>925</ele>
        <time>2019-04-19T08:27:40Z</time>
      </trkpt>
      <trkpt lat="44.63214" lon="6.55931">
        <ele>924</ele>
        <time>2019-04-19T08:28:40Z</time>
      </trkpt>
      <trkpt lat="44.63215" lon="6.55899">
        <ele>923</ele>
        <time>2019-04-19T08:29:40Z</time>
      </trkpt>
      <trkpt lat="44.63221" lon="6.55857">
        <ele>922</ele>
        <time>2019-04-19T08:30:40Z</time>
      </trkpt>
      <trkpt lat="44.63236" lon="6.55813">
        <ele>924</ele>
        <time>2019-04-19T08:31:40Z</time>
      </trkpt>
      <trkpt lat="44.63265" lon="6.55761">
        <ele>933</ele>
        <time>2019-04-19T08:32:40Z</time>
      </trkpt>
      <trkpt lat="44.63285" lon="6.5568">
        <ele>928</ele>
        <time>2019-04-19T08:33:40Z</time>
      </trkpt>
      <trkpt lat="44.63291" lon="6.55632">
        <ele>927</ele>
        <time>2019-04-19T08:34:40Z</time>
      </trkpt>
      <trkpt lat="44.63296" lon="6.55464">
        <ele>930</ele>
        <time>2019-04-19T08:35:40Z</time>
      </trkpt>
      <trkpt lat="44.63292" lon="6.55419">
        <ele>929</ele>
        <time>2019-04-19T08:36:40Z</time>
      </trkpt>
      <trkpt lat="44.6327" lon="6.5529">
        <ele>927</ele>
        <time>2019-04-19T08:37:40Z</time>
      </trkpt>
      <trkpt lat="44.63264" lon="6.55165">
        <ele>926</ele>
        <time>2019-04-19T08:38:40Z</time>
      </trkpt>
      <trkpt lat="44.63246" lon="6.55077">
        <ele>919</ele>
        <time>2019-04-19T08:39:40Z</time>
      </trkpt>
      <trkpt lat="44.63227" lon="6.54962">
        <ele>927</ele>
        <time>2019-04-19T08:40:40Z</time>
      </trkpt>
      <trkpt lat="44.63216" lon="6.54921">
        <ele>931</ele>
        <time>2019-04-19T08:41:40Z</time>
      </trkpt>
      <trkpt lat="44.6319" lon="6.54882">
        <ele>929</ele>
        <time>2019-04-19T08:42:40Z</time>
      </trkpt>
      <trkpt lat="44.63098" lon="6.54781">
        <ele>924</ele>
        <time>2019-04-19T08:43:40Z</time>
      </trkpt>
      <trkpt lat="44.63085" lon="6.54772">
        <ele>922</ele>
        <time>2019-04-19T08:44:40Z</time>
      </trkpt>
      <trkpt lat="44.63062" lon="6.54763">
        <ele>921</ele>
        <time>2019-04-19T08:45:40Z</time>
      </trkpt>
      <trkpt lat="44.62992" lon="6.54749">
        <ele>918</ele>
        <time>2019-04-19T08:46:40Z</time>
      </trkpt>
      <trkpt lat="44.62953" lon="6.54725">
        <ele>915</ele>
        <time>2019-04-19T08:47:40Z</time>
      </trkpt>
      <trkpt lat="44.62752" lon="6.54546">
        <ele>915</ele>
        <time>2019-04-19T08:48:40Z</time>
      </trkpt>
      <trkpt lat="44.6262" lon="6.54426">
        <ele>925</ele>
        <time>2019-04-19T08:49:40Z</time>
      </trkpt>
      <trkpt lat="44.6259" lon="6.54391">
        <ele>928</ele>
        <time>2019-04-19T08:50:40Z</time>
      </trkpt>
      <trkpt lat="44.62571" lon="6.54361">
        <ele>928</ele>
        <time>2019-04-19T08:51:40Z</time>
      </trkpt>
      <trkpt lat="44.62556" lon="6.54333">
        <ele>927</ele>
        <time>2019-04-19T08:52:40Z</time>
      </trkpt>
      <trkpt lat="44.62533" lon="6.54277">
        <ele>926</ele>
        <time>2019-04-19T08:53:40Z</time>
      </trkpt>
      <trkpt lat="44.62425" lon="6.53973">
        <ele>936</ele>
        <time>2019-04-19T08:54:40Z</time>
      </trkpt>
      <trkpt lat="44.6242" lon="6.53923">
        <ele>940</ele>
        <time>2019-04-19T08:55:40Z</time>
      </trkpt>
      <trkpt lat="44.62413" lon="6.5389">
        <ele>940</ele>
        <time>2019-04-19T08:56:40Z</time>
      </trkpt>
      <trkpt lat="44.62401" lon="6.53857">
        <ele>939</ele>
        <time>2019-04-19T08:57:40Z</time>
      </trkpt>
      <trkpt lat="44.62383" lon="6.53789">
        <ele>941</ele>
        <time>2019-04-19T08:58:40Z</time>
      </trkpt>
      <trkpt lat="44.6237" lon="6.53753">
        <ele>943</ele>
        <time>2019-04-19T08:59:40Z</time>
      </trkpt>
      <trkpt lat="44.6236" lon="6.5373">
        <ele>943</ele>
        <time>2019-04-19T09:00:40Z</time>
      </trkpt>
      <trkpt lat="44.6229" lon="6.5358">
        <ele>950</ele>
        <time>2019-04-19T09:01:40Z</time>
      </trkpt>
      <trkpt lat="44.62194" lon="6.53383">
        <ele>952</ele>
        <time>2019-04-19T09:02:40Z</time>
      </trkpt>
      <trkpt lat="44.62126" lon="6.53225">
        <ele>958</ele>
        <time>2019-04-19T09:03:40Z</time>
      </trkpt>
      <trkpt lat="44.62106" lon="6.53187">
        <ele>965</ele>
        <time>2019-04-19T09:04:40Z</time>
      </trkpt>
      <trkpt lat="44.62077" lon="6.53161">
        <ele>964</ele>
        <time>2019-04-19T09:05:40Z</time>
      </trkpt>
      <trkpt lat="44.6205" lon="6.53133">
        <ele>960</ele>
        <time>2019-04-19T09:06:40Z</time>
      </trkpt>
      <trkpt lat="44.62035" lon="6.53103">
        <ele>962</ele>
        <time>2019-04-19T09:07:40Z</time>
      </trkpt>
      <trkpt lat="44.61983" lon="6.52932">
        <ele>968</ele>
        <time>2019-04-19T09:08:40Z</time>
      </trkpt>
      <trkpt lat="44.61963" lon="6.52881">
        <ele>968</ele>
        <time>2019-04-19T09:09:40Z</time>
      </trkpt>
      <trkpt lat="44.61947" lon="6.52848">
        <ele>968</ele>
        <time>2019-04-19T09:10:40Z</time>
      </trkpt>
      <trkpt lat="44.61859" lon="6.52722">
        <ele>974</ele>
        <time>2019-04-19T09:11:40Z</time>
      </trkpt>
      <trkpt lat="44.6179" lon="6.52635">
        <ele>973</ele>
        <time>2019-04-19T09:12:40Z</time>
      </trkpt>
      <trkpt lat="44.61773" lon="6.52591">
        <ele>974</ele>
        <time>2019-04-19T09:13:40Z</time>
      </trkpt>
      <trkpt lat="44.61755" lon="6.52472">
        <ele>983</ele>
        <time>2019-04-19T09:14:40Z</time>
      </trkpt>
      <trkpt lat="44.61734" lon="6.52431">
        <ele>984</ele>
        <time>2019-04-19T09:15:40Z</time>
      </trkpt>
      <trkpt lat="44.61684" lon="6.52357">
        <ele>982</ele>
        <time>2019-04-19T09:16:40Z</time>
      </trkpt>
      <trkpt lat="44.61642" lon="6.52306">
        <ele>975</ele>
        <time>2019-04-19T09:17:40Z</time>
      </trkpt>
      <trkpt lat="44.61637" lon="6.52296">
        <ele>974</ele>
        <time>2019-04-19T09:18:40Z</time>
      </trkpt>
      <trkpt lat="44.61634" lon="6.52285">
        <ele>974</ele>
        <time>2019-04-19T09:19:40Z</time>
      </trkpt>
      <trkpt lat="44.61636" lon="6.52273">
        <ele>975</ele>
        <time>2019-04-19T09:20:40Z</time>
      </trkpt>
      <trkpt lat="44.61642" lon="6.52263">
        <ele>976</ele>
        <time>2019-04-19T09:21:40Z</time>
      </trkpt>
      <trkpt lat="44.61679" lon="6.5222">
        <ele>983</ele>
        <time>2019-04-19T09:22:40Z</time>
      </trkpt>
      <trkpt lat="44.61688" lon="6.52203">
        <ele>984</ele>
        <time>2019-04-19T09:23:40Z</time>
      </trkpt>
      <trkpt lat="44.61694" lon="6.52178">
        <ele>983</ele>
        <time>2019-04-19T09:24:40Z</time>
      </trkpt>
      <trkpt lat="44.61692" lon="6.52155">
        <ele>981</ele>
        <time>2019-04-19T09:25:40Z</time>
      </trkpt>
      <trkpt lat="44.61686" lon="6.52137">
        <ele>980</ele>
        <time>2019-04-19T09:26:40Z</time>
      </trkpt>
      <trkpt lat="44.61674" lon="6.52116">
        <ele>978</ele>
        <time>2019-04-19T09:27:40Z</time>
      </trkpt>
      <trkpt lat="44.61653" lon="6.52096">
        <ele>981</ele>
        <time>2019-04-19T09:28:40Z</time>
      </trkpt>
      <trkpt lat="44.61642" lon="6.5209">
        <ele>984</ele>
        <time>2019-04-19T09:29:40Z</time>
      </trkpt>
      <trkpt lat="44.61628" lon="6.52091">
        <ele>988</ele>
        <time>2019-04-19T09:30:40Z</time>
      </trkpt>
      <trkpt lat="44.61608" lon="6.52101">
        <ele>990</ele>
        <time>2019-04-19T09:31:40Z</time>
      </trkpt>
      <trkpt lat="44.6153" lon="6.52154">
        <ele>987</ele>
        <time>2019-04-19T09:32:40Z</time>
      </trkpt>
      <trkpt lat="44.61517" lon="6.52173">
        <ele>986</ele>
        <time>2019-04-19T09:33:40Z</time>
      </trkpt>
      <trkpt lat="44.61503" lon="6.52206">
        <ele>985</ele>
        <time>2019-04-19T09:34:40Z</time>
      </trkpt>
      <trkpt lat="44.61497" lon="6.52211">
        <ele>985</ele>
        <time>2019-04-19T09:35:40Z</time>
      </trkpt>
      <trkpt lat="44.6149" lon="6.52211">
        <ele>986</ele>
        <time>2019-04-19T09:36:40Z</time>
      </trkpt>
      <trkpt lat="44.61453" lon="6.52199">
        <ele>988</ele>
        <time>2019-04-19T09:37:40Z</time>
      </trkpt>
      <trkpt lat="44.61413" lon="6.52162">
        <ele>990</ele>
        <time>2019-04-19T09:38:40Z</time>
      </trkpt>
      <trkpt lat="44.61396" lon="6.52103">
        <ele>990</ele>
        <time>2019-04-19T09:39:40Z</time>
      </trkpt>
      <trkpt lat="44.61383" lon="6.52079">
        <ele>991</ele>
        <time>2019-04-19T09:40:40Z</time>
      </trkpt>
      <trkpt lat="44.61272" lon="6.51974">
        <ele>992</ele>
        <time>2019-04-19T09:41:40Z</time>
      </trkpt>
      <trkpt lat="44.61256" lon="6.51969">
        <ele>992</ele>
        <time>2019-04-19T09:42:40Z</time>
      </trkpt>
      <trkpt lat="44.61205" lon="6.51976">
        <ele>991</ele>
        <time>2019-04-19T09:43:40Z</time>
      </trkpt>
      <trkpt lat="44.61188" lon="6.51975">
        <ele>992</ele>
        <time>2019-04-19T09:44:40Z</time>
      </trkpt>
      <trkpt lat="44.61138" lon="6.51952">
        <ele>994</ele>
        <time>2019-04-19T09:45:40Z</time>
      </trkpt>
      <trkpt lat="44.61116" lon="6.5195">
        <ele>994</ele>
        <time>2019-04-19T09:46:40Z</time>
      </trkpt>
      <trkpt lat="44.6105" lon="6.51967">
        <ele>991</ele>
        <time>2019-04-19T09:47:40Z</time>
      </trkpt>
      <trkpt lat="44.61023" lon="6.51971">
        <ele>990</ele>
        <time>2019-04-19T09:48:40Z</time>
      </trkpt>
      <trkpt lat="44.60831" lon="6.51975">
        <ele>990</ele>
        <time>2019-04-19T09:49:40Z</time>
      </trkpt>
      <trkpt lat="44.60756" lon="6.51971">
        <ele>991</ele>
        <time>2019-04-19T09:50:40Z</time>
      </trkpt>
      <trkpt lat="44.60662" lon="6.51982">
        <ele>987</ele>
        <time>2019-04-19T09:51:40Z</time>
      </trkpt>
      <trkpt lat="44.60605" lon="6.51981">
        <ele>986</ele>
        <time>2019-04-19T09:52:40Z</time>
      </trkpt>
      <trkpt lat="44.60534" lon="6.51971">
        <ele>986</ele>
        <time>2019-04-19T09:53:40Z</time>
      </trkpt>
      <trkpt lat="44.60416" lon="6.51973">
        <ele>984</ele>
        <time>2019-04-19T09:54:40Z</time>
      </trkpt>
      <trkpt lat="44.60362" lon="6.51964">
        <ele>983</ele>
        <time>2019-04-19T09:55:40Z</time>
      </trkpt>
      <trkpt lat="44.60221" lon="6.51929">
        <ele>984</ele>
        <time>2019-04-19T09:56:40Z</time>
      </trkpt>
      <trkpt lat="44.60115" lon="6.5191">
        <ele>985</ele>
        <time>2019-04-19T09:57:40Z</time>
      </trkpt>
      <trkpt lat="44.60078" lon="6.51896">
        <ele>987</ele>
        <time>2019-04-19T09:58:40Z</time>
      </trkpt>
      <trkpt lat="44.59885" lon="6.51774">
        <ele>976</ele>
        <time>2019-04-19T09:59:40Z</time>
      </trkpt>
      <trkpt lat="44.59861" lon="6.51764">
        <ele>974</ele>
        <time>2019-04-19T10:00:40Z</time>
      </trkpt>
      <trkpt lat="44.59844" lon="6.51767">
        <ele>972</ele>
        <time>2019-04-19T10:01:40Z</time>
      </trkpt>
      <trkpt lat="44.59829" lon="6.51779">
        <ele>970</ele>
        <time>2019-04-19T10:02:40Z</time>
      </trkpt>
      <trkpt lat="44.59795" lon="6.5182">
        <ele>965</ele>
        <time>2019-04-19T10:03:40Z</time>
      </trkpt>
      <trkpt lat="44.59781" lon="6.51829">
        <ele>964</ele>
        <time>2019-04-19T10:04:40Z</time>
      </trkpt>
      <trkpt lat="44.59763" lon="6.5183">
        <ele>963</ele>
        <time>2019-04-19T10:05:40Z</time>
      </trkpt>
      <trkpt lat="44.59747" lon="6.51819">
        <ele>962</ele>
        <time>2019-04-19T10:06:40Z</time>
      </trkpt>
      <trkpt lat="44.59734" lon="6.51795">
        <ele>962</ele>
        <time>2019-04-19T10:07:40Z</time>
      </trkpt>
      <trkpt lat="44.59733" lon="6.5176">
        <ele>963</ele>
        <time>2019-04-19T10:08:40Z</time>
      </trkpt>
      <trkpt lat="44.59744" lon="6.51667">
        <ele>962</ele>
        <time>2019-04-19T10:09:40Z</time>
      </trkpt>
      <trkpt lat="44.59744" lon="6.51637">
        <ele>962</ele>
        <time>2019-04-19T10:10:40Z</time>
      </trkpt>
      <trkpt lat="44.59741" lon="6.51615">
        <ele>962</ele>
        <time>2019-04-19T10:11:40Z</time>
      </trkpt>
      <trkpt lat="44.59735" lon="6.51597">
        <ele>962</ele>
        <time>2019-04-19T10:12:40Z</time>
      </trkpt>
      <trkpt lat="44.59723" lon="6.51582">
        <ele>961</ele>
        <time>2019-04-19T10:13:40Z</time>
      </trkpt>
      <trkpt lat="44.5971" lon="6.51573">
        <ele>961</ele>
        <time>2019-04-19T10:14:40Z</time>
      </trkpt>
      <trkpt lat="44.59507" lon="6.51512">
        <ele>948</ele>
        <time>2019-04-19T10:15:40Z</time>
      </trkpt>
      <trkpt lat="44.59485" lon="6.515">
        <ele>947</ele>
        <time>2019-04-19T10:16:40Z</time>
      </trkpt>
      <trkpt lat="44.59461" lon="6.51484">
        <ele>946</ele>
        <time>2019-04-19T10:17:40Z</time>
      </trkpt>
      <trkpt lat="44.59396" lon="6.51418">
        <ele>943</ele>
        <time>2019-04-19T10:18:40Z</time>
      </trkpt>
      <trkpt lat="44.59264" lon="6.51272">
        <ele>938</ele>
        <time>2019-04-19T10:19:40Z</time>
      </trkpt>
      <trkpt lat="44.59247" lon="6.51247">
        <ele>939</ele>
        <time>2019-04-19T10:20:40Z</time>
      </trkpt>
      <trkpt lat="44.59236" lon="6.51221">
        <ele>938</ele>
        <time>2019-04-19T10:21:40Z</time>
      </trkpt>
      <trkpt lat="44.59219" lon="6.51172">
        <ele>938</ele>
        <time>2019-04-19T10:22:40Z</time>
      </trkpt>
      <trkpt lat="44.59203" lon="6.51149">
        <ele>937</ele>
        <time>2019-04-19T10:23:40Z</time>
      </trkpt>
      <trkpt lat="44.59177" lon="6.5113">
        <ele>936</ele>
        <time>2019-04-19T10:24:40Z</time>
      </trkpt>
      <trkpt lat="44.59158" lon="6.51125">
        <ele>935</ele>
        <time>2019-04-19T10:25:40Z</time>
      </trkpt>
      <trkpt lat="44.59132" lon="6.5113">
        <ele>934</ele>
        <time>2019-04-19T10:26:40Z</time>
      </trkpt>
      <trkpt lat="44.59108" lon="6.51145">
        <ele>932</ele>
        <time>2019-04-19T10:27:40Z</time>
      </trkpt>
      <trkpt lat="44.59092" lon="6.51168">
        <ele>928</ele>
        <time>2019-04-19T10:28:40Z</time>
      </trkpt>
      <trkpt lat="44.59082" lon="6.51196">
        <ele>926</ele>
        <time>2019-04-19T10:29:40Z</time>
      </trkpt>
      <trkpt lat="44.59057" lon="6.51288">
        <ele>921</ele>
        <time>2019-04-19T10:30:40Z</time>
      </trkpt>
      <trkpt lat="44.59044" lon="6.51316">
        <ele>920</ele>
        <time>2019-04-19T10:31:40Z</time>
      </trkpt>
      <trkpt lat="44.5903" lon="6.51335">
        <ele>919</ele>
        <time>2019-04-19T10:32:40Z</time>
      </trkpt>
      <trkpt lat="44.59014" lon="6.5135">
        <ele>917</ele>
        <time>2019-04-19T10:33:40Z</time>
      </trkpt>
      <trkpt lat="44.58989" lon="6.51362">
        <ele>915</ele>
        <time>2019-04-19T10:34:40Z</time>
      </trkpt>
      <trkpt lat="44.58954" lon="6.51364">
        <ele>914</ele>
        <time>2019-04-19T10:35:40Z</time>
      </trkpt>
      <trkpt lat="44.58834" lon="6.51345">
        <ele>910</ele>
        <time>2019-04-19T10:36:40Z</time>
      </trkpt>
      <trkpt lat="44.58799" lon="6.51335">
        <ele>909</ele>
        <time>2019-04-19T10:37:40Z</time>
      </trkpt>
      <trkpt lat="44.58754" lon="6.51312">
        <ele>907</ele>
        <time>2019-04-19T10:38:40Z</time>
      </trkpt>
      <trkpt lat="44.58706" lon="6.51279">
        <ele>904</ele>
        <time>2019-04-19T10:39:40Z</time>
      </trkpt>
      <trkpt lat="44.58691" lon="6.51266">
        <ele>904</ele>
        <time>2019-04-19T10:40:40Z</time>
      </trkpt>
      <trkpt lat="44.58683" lon="6.51261">
        <ele>903</ele>
        <time>2019-04-19T10:41:40Z</time>
      </trkpt>
      <trkpt lat="44.58676" lon="6.51263">
        <ele>902</ele>
        <time>2019-04-19T10:42:40Z</time>
      </trkpt>
      <trkpt lat="44.58671" lon="6.51254">
        <ele>902</ele>
        <time>2019-04-19T10:43:40Z</time>
      </trkpt>
      <trkpt lat="44.58663" lon="6.51247">
        <ele>902</ele>
        <time>2019-04-19T10:44:40Z</time>
      </trkpt>
      <trkpt lat="44.58652" lon="6.51244">
        <ele>902</ele>
        <time>2019-04-19T10:45:40Z</time>
      </trkpt>
      <trkpt lat="44.58641" lon="6.51246">
        <ele>902</ele>
        <time>2019-04-19T10:46:40Z</time>
      </trkpt>
      <trkpt lat="44.58606" lon="6.51242">
        <ele>902</ele>
        <time>2019-04-19T10:47:40Z</time>
      </trkpt>
      <trkpt lat="44.58463" lon="6.51245">
        <ele>898</ele>
        <time>2019-04-19T10:48:40Z</time>
      </trkpt>
      <trkpt lat="44.58137" lon="6.5116">
        <ele>892</ele>
        <time>2019-04-19T10:49:40Z</time>
      </trkpt>
      <trkpt lat="44.58055" lon="6.51107">
        <ele>892</ele>
        <time>2019-04-19T10:50:40Z</time>
      </trkpt>
      <trkpt lat="44.57991" lon="6.51088">
        <ele>889</ele>
        <time>2019-04-19T10:51:40Z</time>
      </trkpt>
      <trkpt lat="44.5789" lon="6.51066">
        <ele>889</ele>
        <time>2019-04-19T10:52:40Z</time>
      </trkpt>
      <trkpt lat="44.5781" lon="6.51072">
        <ele>888</ele>
        <time>2019-04-19T10:53:40Z</time>
      </trkpt>
      <trkpt lat="44.57418" lon="6.50973">
        <ele>882</ele>
        <time>2019-04-19T10:54:40Z</time>
      </trkpt>
      <trkpt lat="44.57388" lon="6.50959">
        <ele>880</ele>
        <time>2019-04-19T10:55:40Z</time>
      </trkpt>
      <trkpt lat="44.57135" lon="6.50771">
        <ele>878</ele>
        <time>2019-04-19T10:56:40Z</time>
      </trkpt>
      <trkpt lat="44.57121" lon="6.5076">
        <ele>878</ele>
        <time>2019-04-19T10:57:40Z</time>
      </trkpt>
      <trkpt lat="44.57113" lon="6.50748">
        <ele>879</ele>
        <time>2019-04-19T10:58:40Z</time>
      </trkpt>
      <trkpt lat="44.57001" lon="6.50581">
        <ele>870</ele>
        <time>2019-04-19T10:59:40Z</time>
      </trkpt>
      <trkpt lat="44.5699" lon="6.5056">
        <ele>868</ele>
        <time>2019-04-19T11:00:40Z</time>
      </trkpt>
      <trkpt lat="44.56987" lon="6.50541">
        <ele>867</ele>
        <time>2019-04-19T11:01:40Z</time>
      </trkpt>
      <trkpt lat="44.56997" lon="6.50439">
        <ele>866</ele>
        <time>2019-04-19T11:02:40Z</time>
      </trkpt>
      <trkpt lat="44.56998" lon="6.50396">
        <ele>865</ele>
        <time>2019-04-19T11:03:40Z</time>
      </trkpt>
      <trkpt lat="44.56984" lon="6.50284">
        <ele>863</ele>
        <time>2019-04-19T11:04:40Z</time>
      </trkpt>
      <trkpt lat="44.56985" lon="6.50222">
        <ele>865</ele>
        <time>2019-04-19T11:05:40Z</time>
      </trkpt>
      <trkpt lat="44.5698" lon="6.50202">
        <ele>865</ele>
        <time>2019-04-19T11:06:40Z</time>
      </trkpt>
      <trkpt lat="44.56971" lon="6.50187">
        <ele>865</ele>
        <time>2019-04-19T11:07:40Z</time>
      </trkpt>
      <trkpt lat="44.56687" lon="6.49846">
        <ele>871</ele>
        <time>2019-04-19T11:08:40Z</time>
      </trkpt>
      <trkpt lat="44.56628" lon="6.49778">
        <ele>872</ele>
        <time>2019-04-19T11:09:40Z</time>
      </trkpt>
      <trkpt lat="44.56622" lon="6.49763">
        <ele>872</ele>
        <time>2019-04-19T11:10:40Z</time>
      </trkpt>
      <trkpt lat="44.56612" lon="6.4976">
        <ele>872</ele>
        <time>2019-04-19T11:11:40Z</time>
      </trkpt>
      <trkpt lat="44.56604" lon="6.49756">
        <ele>871</ele>
        <time>2019-04-19T11:12:40Z</time>
      </trkpt>
      <trkpt lat="44.5656" lon="6.49713">
        <ele>871</ele>
        <time>2019-04-19T11:13:40Z</time>
      </trkpt>
      <trkpt lat="44.56556" lon="6.49707">
        <ele>871</ele>
        <time>2019-04-19T11:14:40Z</time>
      </trkpt>
      <trkpt lat="44.56553" lon="6.49695">
        <ele>872</ele>
        <time>2019-04-19T11:15:40Z</time>
      </trkpt>
      <trkpt lat="44.56547" lon="6.49613">
        <ele>873</ele>
        <time>2019-04-19T11:16:40Z</time>
      </trkpt>
      <trkpt lat="44.56559" lon="6.49602">
        <ele>873</ele>
        <time>2019-04-19T11:17:40Z</time>
      </trkpt>
      <trkpt lat="44.56566" lon="6.49614">
        <ele>873</ele>
        <time>2019-04-19T11:18:40Z</time>
      </trkpt>
      <trkpt lat="44.56561" lon="6.4962">
        <ele>873</ele>
        <time>2019-04-19T11:19:40Z</time>
      </trkpt>
      <trkpt lat="44.56562" lon="6.49638">
        <ele>872</ele>
        <time>2019-04-19T11:20:40Z</time>
      </trkpt>
      <trkpt lat="44.56561" lon="6.4962">
        <ele>873</ele>
        <time>2019-04-19T11:21:40Z</time>
      </trkpt>
      <trkpt lat="44.56566" lon="6.49614">
        <ele>873</ele>
        <time>2019-04-19T11:22:40Z</time>
      </trkpt>
      <trkpt lat="44.56559" lon="6.49602">
        <ele>873</ele>
        <time>2019-04-19T11:23:40Z</time>
      </trkpt>
      <trkpt lat="44.56547" lon="6.49613">
        <ele>873</ele>
        <time>2019-04-19T11:24:40Z</time>
      </trkpt>
      <trkpt lat="44.56545" lon="6.49591">
        <ele>873</ele>
        <time>2019-04-19T11:25:40Z</time>
      </trkpt>
      <trkpt lat="44.56538" lon="6.49551">
        <ele>872</ele>
        <time>2019-04-19T11:26:40Z</time>
      </trkpt>
      <trkpt lat="44.56526" lon="6.49521">
        <ele>871</ele>
        <time>2019-04-19T11:27:40Z</time>
      </trkpt>
      <trkpt lat="44.56415" lon="6.49323">
        <ele>861</ele>
        <time>2019-04-19T11:28:40Z</time>
      </trkpt>
      <trkpt lat="44.56391" lon="6.49284">
        <ele>860</ele>
        <time>2019-04-19T11:29:40Z</time>
      </trkpt>
      <trkpt lat="44.56385" lon="6.49275">
        <ele>859</ele>
        <time>2019-04-19T11:30:40Z</time>
      </trkpt>
      <trkpt lat="44.56366" lon="6.49255">
        <ele>857</ele>
        <time>2019-04-19T11:31:40Z</time>
      </trkpt>
      <trkpt lat="44.56339" lon="6.49241">
        <ele>855</ele>
        <time>2019-04-19T11:32:40Z</time>
      </trkpt>
      <trkpt lat="44.56322" lon="6.49226">
        <ele>854</ele>
        <time>2019-04-19T11:33:40Z</time>
      </trkpt>
      <trkpt lat="44.56294" lon="6.49188">
        <ele>853</ele>
        <time>2019-04-19T11:34:40Z</time>
      </trkpt>
      <trkpt lat="44.56024" lon="6.48771">
        <ele>845</ele>
        <time>2019-04-19T11:35:40Z</time>
      </trkpt>
      <trkpt lat="44.56005" lon="6.48733">
        <ele>843</ele>
        <time>2019-04-19T11:36:40Z</time>
      </trkpt>
      <trkpt lat="44.55989" lon="6.48691">
        <ele>842</ele>
        <time>2019-04-19T11:37:40Z</time>
      </trkpt>
      <trkpt lat="44.55964" lon="6.48603">
        <ele>840</ele>
        <time>2019-04-19T11:38:40Z</time>
      </trkpt>
      <trkpt lat="44.5594" lon="6.48529">
        <ele>837</ele>
        <time>2019-04-19T11:39:40Z</time>
      </trkpt>
      <trkpt lat="44.55923" lon="6.48487">
        <ele>836</ele>
        <time>2019-04-19T11:40:40Z</time>
      </trkpt>
      <trkpt lat="44.55898" lon="6.48455">
        <ele>836</ele>
        <time>2019-04-19T11:41:40Z</time>
      </trkpt>
      <trkpt lat="44.55877" lon="6.48441">
        <ele>834</ele>
        <time>2019-04-19T11:42:40Z</time>
      </trkpt>
      <trkpt lat="44.55838" lon="6.4843">
        <ele>829</ele>
        <time>2019-04-19T11:43:40Z</time>
      </trkpt>
      <trkpt lat="44.55808" lon="6.48419">
        <ele>825</ele>
        <time>2019-04-19T11:44:40Z</time>
      </trkpt>
      <trkpt lat="44.55766" lon="6.48387">
        <ele>821</ele>
        <time>2019-04-19T11:45:40Z</time>
      </trkpt>
      <trkpt lat="44.55738" lon="6.48356">
        <ele>821</ele>
        <time>2019-04-19T11:46:40Z</time>
      </trkpt>
      <trkpt lat="44.5573" lon="6.48344">
        <ele>822</ele>
        <time>2019-04-19T11:47:40Z</time>
      </trkpt>
      <trkpt lat="44.55697" lon="6.48319">
        <ele>820</ele>
        <time>2019-04-19T11:48:40Z</time>
      </trkpt>
      <trkpt lat="44.55671" lon="6.48308">
        <ele>817</ele>
        <time>2019-04-19T11:49:40Z</time>
      </trkpt>
      <trkpt lat="44.55655" lon="6.48306">
        <ele>816</ele>
        <time>2019-04-19T11:50:40Z</time>
      </trkpt>
      <trkpt lat="44.55615" lon="6.48311">
        <ele>814</ele>
        <time>2019-04-19T11:51:40Z</time>
      </trkpt>
      <trkpt lat="44.5561" lon="6.48305">
        <ele>814</ele>
        <time>2019-04-19T11:52:40Z</time>
      </trkpt>
      <trkpt lat="44.55603" lon="6.48305">
        <ele>814</ele>
        <time>2019-04-19T11:53:40Z</time>
      </trkpt>
      <trkpt lat="44.55586" lon="6.48318">
        <ele>812</ele>
        <time>2019-04-19T11:54:40Z</time>
      </trkpt>
      <trkpt lat="44.55535" lon="6.48328">
        <ele>810</ele>
        <time>2019-04-19T11:55:40Z</time>
      </trkpt>
      <trkpt lat="44.55356" lon="6.48375">
        <ele>799</ele>
        <time>2019-04-19T11:56:40Z</time>
      </trkpt>
      <trkpt lat="44.5521" lon="6.48408">
        <ele>791</ele>
        <time>2019-04-19T11:57:40Z</time>
      </trkpt>
      <trkpt lat="44.55184" lon="6.48403">
        <ele>791</ele>
        <time>2019-04-19T11:58:40Z</time>
      </trkpt>
      <trkpt lat="44.55177" lon="6.48397">
        <ele>791</ele>
        <time>2019-04-19T11:59:40Z</time>
      </trkpt>
      <trkpt lat="44.55169" lon="6.48386">
        <ele>790</ele>
        <time>2019-04-19T12:00:40Z</time>
      </trkpt>
      <trkpt lat="44.55142" lon="6.48268">
        <ele>787</ele>
        <time>2019-04-19T12:01:40Z</time>
      </trkpt>
      <trkpt lat="44.55177" lon="6.48271">
        <ele>790</ele>
        <time>2019-04-19T12:02:40Z</time>
      </trkpt>
      <trkpt lat="44.55186" lon="6.48265">
        <ele>790</ele>
        <time>2019-04-19T12:03:40Z</time>
      </trkpt>
      <trkpt lat="44.55205" lon="6.4823">
        <ele>791</ele>
        <time>2019-04-19T12:04:40Z</time>
      </trkpt>
    </trkseg>
  </trk>
  <trk>
    <name><![CDATA[J12]]></name>
    <trkseg>
      <trkpt lat="44.88331" lon="7.3312">
        <ele>376</ele>
        <time>2019-04-17T17:44:16Z</time>
      </trkpt>
      <trkpt lat="44.88327" lon="7.33107">
        <ele>376</ele>
        <time>2019-04-17T17:45:16Z</time>
      </trkpt>
      <trkpt lat="44.88097" lon="7.33145">
        <ele>371</ele>
        <time>2019-04-17T17:46:16Z</time>
      </trkpt>
      <trkpt lat="44.87913" lon="7.33246">
        <ele>370</ele>
        <time>2019-04-17T17:47:16Z</time>
      </trkpt>
      <trkpt lat="44.87853" lon="7.3327">
        <ele>369</ele>
        <time>2019-04-17T17:48:16Z</time>
      </trkpt>
      <trkpt lat="44.87638" lon="7.33318">
        <ele>366</ele>
        <time>2019-04-17T17:49:16Z</time>
      </trkpt>
      <trkpt lat="44.87636" lon="7.33313">
        <ele>366</ele>
        <time>2019-04-17T17:50:16Z</time>
      </trkpt>
      <trkpt lat="44.87633" lon="7.3331">
        <ele>366</ele>
        <time>2019-04-17T17:51:16Z</time>
      </trkpt>
      <trkpt lat="44.87629" lon="7.3331">
        <ele>365</ele>
        <time>2019-04-17T17:52:16Z</time>
      </trkpt>
      <trkpt lat="44.87624" lon="7.33314">
        <ele>365</ele>
        <time>2019-04-17T17:53:16Z</time>
      </trkpt>
      <trkpt lat="44.87622" lon="7.33323">
        <ele>365</ele>
        <time>2019-04-17T17:54:16Z</time>
      </trkpt>
      <trkpt lat="44.87479" lon="7.33356">
        <ele>364</ele>
        <time>2019-04-17T17:55:16Z</time>
      </trkpt>
      <trkpt lat="44.87434" lon="7.33369">
        <ele>364</ele>
        <time>2019-04-17T17:56:16Z</time>
      </trkpt>
      <trkpt lat="44.87053" lon="7.3346">
        <ele>361</ele>
        <time>2019-04-17T17:57:16Z</time>
      </trkpt>
      <trkpt lat="44.86871" lon="7.335">
        <ele>359</ele>
        <time>2019-04-17T17:58:16Z</time>
      </trkpt>
      <trkpt lat="44.86822" lon="7.33507">
        <ele>357</ele>
        <time>2019-04-17T17:59:16Z</time>
      </trkpt>
      <trkpt lat="44.86803" lon="7.33506">
        <ele>357</ele>
        <time>2019-04-17T18:00:16Z</time>
      </trkpt>
      <trkpt lat="44.86769" lon="7.33493">
        <ele>355</ele>
        <time>2019-04-17T18:01:16Z</time>
      </trkpt>
      <trkpt lat="44.86728" lon="7.33467">
        <ele>355</ele>
        <time>2019-04-17T18:02:16Z</time>
      </trkpt>
      <trkpt lat="44.86699" lon="7.33443">
        <ele>355</ele>
        <time>2019-04-17T18:03:16Z</time>
      </trkpt>
      <trkpt lat="44.8665" lon="7.33388">
        <ele>356</ele>
        <time>2019-04-17T18:04:16Z</time>
      </trkpt>
      <trkpt lat="44.86627" lon="7.33366">
        <ele>357</ele>
        <time>2019-04-17T18:05:16Z</time>
      </trkpt>
      <trkpt lat="44.86612" lon="7.33358">
        <ele>357</ele>
        <time>2019-04-17T18:06:16Z</time>
      </trkpt>
      <trkpt lat="44.86552" lon="7.33338">
        <ele>359</ele>
        <time>2019-04-17T18:07:16Z</time>
      </trkpt>
      <trkpt lat="44.86536" lon="7.33311">
        <ele>359</ele>
        <time>2019-04-17T18:08:16Z</time>
      </trkpt>
      <trkpt lat="44.86534" lon="7.33296">
        <ele>359</ele>
        <time>2019-04-17T18:09:16Z</time>
      </trkpt>
      <trkpt lat="44.8653" lon="7.3329">
        <ele>359</ele>
        <time>2019-04-17T18:10:16Z</time>
      </trkpt>
      <trkpt lat="44.86523" lon="7.33284">
        <ele>359</ele>
        <time>2019-04-17T18:11:16Z</time>
      </trkpt>
      <trkpt lat="44.86518" lon="7.33283">
        <ele>359</ele>
        <time>2019-04-17T18:12:16Z</time>
      </trkpt>
      <trkpt lat="44.86507" lon="7.33288">
        <ele>360</ele>
        <time>2019-04-17T18:13:16Z</time>
      </trkpt>
      <trkpt lat="44.86503" lon="7.33293">
        <ele>360</ele>
        <time>2019-04-17T18:14:16Z</time>
      </trkpt>
      <trkpt lat="44.865" lon="7.333">
        <ele>360</ele>
        <time>2019-04-17T18:15:16Z</time>
      </trkpt>
      <trkpt lat="44.86499" lon="7.33309">
        <ele>360</ele>
        <time>2019-04-17T18:16:16Z</time>
      </trkpt>
      <trkpt lat="44.8648" lon="7.33331">
        <ele>360</ele>
        <time>2019-04-17T18:17:16Z</time>
      </trkpt>
      <trkpt lat="44.86428" lon="7.33355">
        <ele>358</ele>
        <time>2019-04-17T18:18:16Z</time>
      </trkpt>
      <trkpt lat="44.86333" lon="7.33392">
        <ele>354</ele>
        <time>2019-04-17T18:19:16Z</time>
      </trkpt>
      <trkpt lat="44.86266" lon="7.3341">
        <ele>355</ele>
        <time>2019-04-17T18:20:16Z</time>
      </trkpt>
      <trkpt lat="44.85559" lon="7.3365">
        <ele>347</ele>
        <time>2019-04-17T18:21:16Z</time>
      </trkpt>
      <trkpt lat="44.85533" lon="7.33646">
        <ele>347</ele>
        <time>2019-04-17T18:22:16Z</time>
      </trkpt>
      <trkpt lat="44.8552" lon="7.33648">
        <ele>347</ele>
        <time>2019-04-17T18:23:16Z</time>
      </trkpt>
      <trkpt lat="44.85502" lon="7.33646">
        <ele>347</ele>
        <time>2019-04-17T18:24:16Z</time>
      </trkpt>
      <trkpt lat="44.85496" lon="7.33642">
        <ele>347</ele>
        <time>2019-04-17T18:25:16Z</time>
      </trkpt>
      <trkpt lat="44.85489" lon="7.33642">
        <ele>347</ele>
        <time>2019-04-17T18:26:16Z</time>
      </trkpt>
      <trkpt lat="44.85483" lon="7.33648">
        <ele>347</ele>
        <time>2019-04-17T18:27:16Z</time>
      </trkpt>
      <trkpt lat="44.85476" lon="7.3366">
        <ele>346</ele>
        <time>2019-04-17T18:28:16Z</time>
      </trkpt>
      <trkpt lat="44.85462" lon="7.33672">
        <ele>346</ele>
        <time>2019-04-17T18:29:16Z</time>
      </trkpt>
      <trkpt lat="44.85449" lon="7.33679">
        <ele>346</ele>
        <time>2019-04-17T18:30:16Z</time>
      </trkpt>
      <trkpt lat="44.85411" lon="7.33697">
        <ele>345</ele>
        <time>2019-04-17T18:31:16Z</time>
      </trkpt>
      <trkpt lat="44.85221" lon="7.33767">
        <ele>348</ele>
        <time>2019-04-17T18:32:16Z</time>
      </trkpt>
      <trkpt lat="44.85167" lon="7.33792">
        <ele>348</ele>
        <time>2019-04-17T18:33:16Z</time>
      </trkpt>
      <trkpt lat="44.85134" lon="7.33815">
        <ele>347</ele>
        <time>2019-04-17T18:34:16Z</time>
      </trkpt>
      <trkpt lat="44.85117" lon="7.33812">
        <ele>347</ele>
        <time>2019-04-17T18:35:16Z</time>
      </trkpt>
      <trkpt lat="44.85101" lon="7.33805">
        <ele>346</ele>
        <time>2019-04-17T18:36:16Z</time>
      </trkpt>
      <trkpt lat="44.85092" lon="7.33799">
        <ele>346</ele>
        <time>2019-04-17T18:37:16Z</time>
      </trkpt>
      <trkpt lat="44.85081" lon="7.338">
        <ele>346</ele>
        <time>2019-04-17T18:38:16Z</time>
      </trkpt>
      <trkpt lat="44.85076" lon="7.33805">
        <ele>346</ele>
        <time>2019-04-17T18:39:16Z</time>
      </trkpt>
      <trkpt lat="44.8507" lon="7.33818">
        <ele>346</ele>
        <time>2019-04-17T18:40:16Z</time>
      </trkpt>
      <trkpt lat="44.8507" lon="7.33826">
        <ele>346</ele>
        <time>2019-04-17T18:41:16Z</time>
      </trkpt>
      <trkpt lat="44.85072" lon="7.33839">
        <ele>346</ele>
        <time>2019-04-17T18:42:16Z</time>
      </trkpt>
      <trkpt lat="44.85071" lon="7.33857">
        <ele>346</ele>
        <time>2019-04-17T18:43:16Z</time>
      </trkpt>
      <trkpt lat="44.85064" lon="7.33893">
        <ele>346</ele>
        <time>2019-04-17T18:44:16Z</time>
      </trkpt>
      <trkpt lat="44.85053" lon="7.33933">
        <ele>346</ele>
        <time>2019-04-17T18:45:16Z</time>
      </trkpt>
      <trkpt lat="44.85029" lon="7.34">
        <ele>347</ele>
        <time>2019-04-17T18:46:16Z</time>
      </trkpt>
      <trkpt lat="44.84992" lon="7.3412">
        <ele>348</ele>
        <time>2019-04-17T18:47:16Z</time>
      </trkpt>
      <trkpt lat="44.84981" lon="7.34146">
        <ele>347</ele>
        <time>2019-04-17T18:48:16Z</time>
      </trkpt>
      <trkpt lat="44.84958" lon="7.34183">
        <ele>346</ele>
        <time>2019-04-17T18:49:16Z</time>
      </trkpt>
      <trkpt lat="44.84944" lon="7.34209">
        <ele>346</ele>
        <time>2019-04-17T18:50:16Z</time>
      </trkpt>
      <trkpt lat="44.84927" lon="7.34246">
        <ele>346</ele>
        <time>2019-04-17T18:51:16Z</time>
      </trkpt>
      <trkpt lat="44.84915" lon="7.34275">
        <ele>346</ele>
        <time>2019-04-17T18:52:16Z</time>
      </trkpt>
      <trkpt lat="44.84875" lon="7.3439">
        <ele>344</ele>
        <time>2019-04-17T18:53:16Z</time>
      </trkpt>
      <trkpt lat="44.84857" lon="7.34432">
        <ele>344</ele>
        <time>2019-04-17T18:54:16Z</time>
      </trkpt>
      <trkpt lat="44.84836" lon="7.34472">
        <ele>343</ele>
        <time>2019-04-17T18:55:16Z</time>
      </trkpt>
      <trkpt lat="44.84822" lon="7.34506">
        <ele>342</ele>
        <time>2019-04-17T18:56:16Z</time>
      </trkpt>
      <trkpt lat="44.848" lon="7.34569">
        <ele>341</ele>
        <time>2019-04-17T18:57:16Z</time>
      </trkpt>
      <trkpt lat="44.84789" lon="7.34593">
        <ele>340</ele>
        <time>2019-04-17T18:58:16Z</time>
      </trkpt>
      <trkpt lat="44.84777" lon="7.34615">
        <ele>340</ele>
        <time>2019-04-17T18:59:16Z</time>
      </trkpt>
      <trkpt lat="44.84652" lon="7.34757">
        <ele>337</ele>
        <time>2019-04-17T19:00:16Z</time>
      </trkpt>
      <trkpt lat="44.84485" lon="7.34961">
        <ele>335</ele>
        <time>2019-04-17T19:01:16Z</time>
      </trkpt>
      <trkpt lat="44.84441" lon="7.35006">
        <ele>334</ele>
        <time>2019-04-17T19:02:16Z</time>
      </trkpt>
      <trkpt lat="44.84418" lon="7.35034">
        <ele>333</ele>
        <time>2019-04-17T19:03:16Z</time>
      </trkpt>
      <trkpt lat="44.84403" lon="7.35059">
        <ele>332</ele>
        <time>2019-04-17T19:04:16Z</time>
      </trkpt>
      <trkpt lat="44.84382" lon="7.35114">
        <ele>332</ele>
        <time>2019-04-17T19:05:16Z</time>
      </trkpt>
      <trkpt lat="44.84377" lon="7.35122">
        <ele>332</ele>
        <time>2019-04-17T19:06:16Z</time>
      </trkpt>
      <trkpt lat="44.84372" lon="7.35127">
        <ele>332</ele>
        <time>2019-04-17T19:07:16Z</time>
      </trkpt>
      <trkpt lat="44.84363" lon="7.35124">
        <ele>332</ele>
        <time>2019-04-17T19:08:16Z</time>
      </trkpt>
      <trkpt lat="44.84352" lon="7.35119">
        <ele>331</ele>
        <time>2019-04-17T19:09:16Z</time>
      </trkpt>
      <trkpt lat="44.84347" lon="7.35108">
        <ele>331</ele>
        <time>2019-04-17T19:10:16Z</time>
      </trkpt>
      <trkpt lat="44.84342" lon="7.35104">
        <ele>331</ele>
        <time>2019-04-17T19:11:16Z</time>
      </trkpt>
      <trkpt lat="44.84336" lon="7.35102">
        <ele>331</ele>
        <time>2019-04-17T19:12:16Z</time>
      </trkpt>
      <trkpt lat="44.84325" lon="7.35104">
        <ele>331</ele>
        <time>2019-04-17T19:13:16Z</time>
      </trkpt>
      <trkpt lat="44.84318" lon="7.35115">
        <ele>331</ele>
        <time>2019-04-17T19:14:16Z</time>
      </trkpt>
      <trkpt lat="44.84315" lon="7.35129">
        <ele>331</ele>
        <time>2019-04-17T19:15:16Z</time>
      </trkpt>
      <trkpt lat="44.84288" lon="7.35182">
        <ele>331</ele>
        <time>2019-04-17T19:16:16Z</time>
      </trkpt>
      <trkpt lat="44.84187" lon="7.35301">
        <ele>330</ele>
        <time>2019-04-17T19:17:16Z</time>
      </trkpt>
      <trkpt lat="44.84081" lon="7.35421">
        <ele>329</ele>
        <time>2019-04-17T19:18:16Z</time>
      </trkpt>
      <trkpt lat="44.84072" lon="7.35419">
        <ele>329</ele>
        <time>2019-04-17T19:19:16Z</time>
      </trkpt>
      <trkpt lat="44.84065" lon="7.35424">
        <ele>329</ele>
        <time>2019-04-17T19:20:16Z</time>
      </trkpt>
      <trkpt lat="44.84062" lon="7.35434">
        <ele>329</ele>
        <time>2019-04-17T19:21:16Z</time>
      </trkpt>
      <trkpt lat="44.84062" lon="7.35444">
        <ele>329</ele>
        <time>2019-04-17T19:22:16Z</time>
      </trkpt>
      <trkpt lat="44.84053" lon="7.35456">
        <ele>328</ele>
        <time>2019-04-17T19:23:16Z</time>
      </trkpt>
      <trkpt lat="44.83858" lon="7.3568">
        <ele>323</ele>
        <time>2019-04-17T19:24:16Z</time>
      </trkpt>
      <trkpt lat="44.83609" lon="7.3598">
        <ele>319</ele>
        <time>2019-04-17T19:25:16Z</time>
      </trkpt>
      <trkpt lat="44.83036" lon="7.36714">
        <ele>315</ele>
        <time>2019-04-17T19:26:16Z</time>
      </trkpt>
      <trkpt lat="44.83022" lon="7.36729">
        <ele>315</ele>
        <time>2019-04-17T19:27:16Z</time>
      </trkpt>
      <trkpt lat="44.82992" lon="7.3675">
        <ele>316</ele>
        <time>2019-04-17T19:28:16Z</time>
      </trkpt>
      <trkpt lat="44.82956" lon="7.36767">
        <ele>313</ele>
        <time>2019-04-17T19:29:16Z</time>
      </trkpt>
      <trkpt lat="44.82764" lon="7.36844">
        <ele>313</ele>
        <time>2019-04-17T19:30:16Z</time>
      </trkpt>
      <trkpt lat="44.82337" lon="7.37012">
        <ele>312</ele>
        <time>2019-04-17T19:31:16Z</time>
      </trkpt>
      <trkpt lat="44.82156" lon="7.37046">
        <ele>313</ele>
        <time>2019-04-17T19:32:16Z</time>
      </trkpt>
      <trkpt lat="44.81749" lon="7.37109">
        <ele>312</ele>
        <time>2019-04-17T19:33:16Z</time>
      </trkpt>
      <trkpt lat="44.81688" lon="7.37116">
        <ele>312</ele>
        <time>2019-04-17T19:34:16Z</time>
      </trkpt>
      <trkpt lat="44.81686" lon="7.37107">
        <ele>312</ele>
        <time>2019-04-17T19:35:16Z</time>
      </trkpt>
      <trkpt lat="44.81682" lon="7.371">
        <ele>312</ele>
        <time>2019-04-17T19:36:16Z</time>
      </trkpt>
      <trkpt lat="44.81676" lon="7.37096">
        <ele>312</ele>
        <time>2019-04-17T19:37:16Z</time>
      </trkpt>
      <trkpt lat="44.8167" lon="7.37095">
        <ele>313</ele>
        <time>2019-04-17T19:38:16Z</time>
      </trkpt>
      <trkpt lat="44.81664" lon="7.37098">
        <ele>312</ele>
        <time>2019-04-17T19:39:16Z</time>
      </trkpt>
      <trkpt lat="44.81659" lon="7.37104">
        <ele>312</ele>
        <time>2019-04-17T19:40:16Z</time>
      </trkpt>
      <trkpt lat="44.81657" lon="7.37112">
        <ele>312</ele>
        <time>2019-04-17T19:41:16Z</time>
      </trkpt>
      <trkpt lat="44.81656" lon="7.37121">
        <ele>312</ele>
        <time>2019-04-17T19:42:16Z</time>
      </trkpt>
      <trkpt lat="44.81187" lon="7.37197">
        <ele>311</ele>
        <time>2019-04-17T19:43:16Z</time>
      </trkpt>
      <trkpt lat="44.80913" lon="7.37237">
        <ele>311</ele>
        <time>2019-04-17T19:44:16Z</time>
      </trkpt>
      <trkpt lat="44.80673" lon="7.37276">
        <ele>311</ele>
        <time>2019-04-17T19:45:16Z</time>
      </trkpt>
      <trkpt lat="44.79958" lon="7.37386">
        <ele>309</ele>
        <time>2019-04-17T19:46:16Z</time>
      </trkpt>
      <trkpt lat="44.79751" lon="7.37423">
        <ele>309</ele>
        <time>2019-04-17T19:47:16Z</time>
      </trkpt>
      <trkpt lat="44.79499" lon="7.37457">
        <ele>305</ele>
        <time>2019-04-17T19:48:16Z</time>
      </trkpt>
      <trkpt lat="44.79288" lon="7.37492">
        <ele>307</ele>
        <time>2019-04-17T19:49:16Z</time>
      </trkpt>
      <trkpt lat="44.78891" lon="7.37551">
        <ele>304</ele>
        <time>2019-04-17T19:50:16Z</time>
      </trkpt>
      <trkpt lat="44.78829" lon="7.37543">
        <ele>304</ele>
        <time>2019-04-17T19:51:16Z</time>
      </trkpt>
      <trkpt lat="44.78647" lon="7.37507">
        <ele>305</ele>
        <time>2019-04-17T19:52:16Z</time>
      </trkpt>
      <trkpt lat="44.78631" lon="7.37585">
        <ele>304</ele>
        <time>2019-04-17T19:53:16Z</time>
      </trkpt>
      <trkpt lat="44.78616" lon="7.37613">
        <ele>304</ele>
        <time>2019-04-17T19:54:16Z</time>
      </trkpt>
      <trkpt lat="44.78595" lon="7.3764">
        <ele>303</ele>
        <time>2019-04-17T19:55:16Z</time>
      </trkpt>
      <trkpt lat="44.78459" lon="7.37702">
        <ele>302</ele>
        <time>2019-04-17T19:56:16Z</time>
      </trkpt>
      <trkpt lat="44.78438" lon="7.37709">
        <ele>302</ele>
        <time>2019-04-17T19:57:16Z</time>
      </trkpt>
      <trkpt lat="44.78422" lon="7.37726">
        <ele>302</ele>
        <time>2019-04-17T19:58:16Z</time>
      </trkpt>
      <trkpt lat="44.78413" lon="7.3776">
        <ele>301</ele>
        <time>2019-04-17T19:59:16Z</time>
      </trkpt>
      <trkpt lat="44.78399" lon="7.37853">
        <ele>303</ele>
        <time>2019-04-17T20:00:16Z</time>
      </trkpt>
      <trkpt lat="44.78352" lon="7.37989">
        <ele>299</ele>
        <time>2019-04-17T20:01:16Z</time>
      </trkpt>
      <trkpt lat="44.78299" lon="7.3809">
        <ele>298</ele>
        <time>2019-04-17T20:02:16Z</time>
      </trkpt>
      <trkpt lat="44.78255" lon="7.38162">
        <ele>298</ele>
        <time>2019-04-17T20:03:16Z</time>
      </trkpt>
      <trkpt lat="44.78242" lon="7.38177">
        <ele>297</ele>
        <time>2019-04-17T20:04:16Z</time>
      </trkpt>
      <trkpt lat="44.78226" lon="7.3819">
        <ele>297</ele>
        <time>2019-04-17T20:05:16Z</time>
      </trkpt>
      <trkpt lat="44.78214" lon="7.38194">
        <ele>296</ele>
        <time>2019-04-17T20:06:16Z</time>
      </trkpt>
      <trkpt lat="44.78209" lon="7.38199">
        <ele>296</ele>
        <time>2019-04-17T20:07:16Z</time>
      </trkpt>
      <trkpt lat="44.78205" lon="7.38206">
        <ele>296</ele>
        <time>2019-04-17T20:08:16Z</time>
      </trkpt>
      <trkpt lat="44.78203" lon="7.38222">
        <ele>296</ele>
        <time>2019-04-17T20:09:16Z</time>
      </trkpt>
      <trkpt lat="44.78193" lon="7.38243">
        <ele>296</ele>
        <time>2019-04-17T20:10:16Z</time>
      </trkpt>
      <trkpt lat="44.78176" lon="7.3827">
        <ele>296</ele>
        <time>2019-04-17T20:11:16Z</time>
      </trkpt>
      <trkpt lat="44.78147" lon="7.38309">
        <ele>296</ele>
        <time>2019-04-17T20:12:16Z</time>
      </trkpt>
      <trkpt lat="44.75022" lon="7.40694">
        <ele>271</ele>
        <time>2019-04-17T20:13:16Z</time>
      </trkpt>
      <trkpt lat="44.74768" lon="7.40889">
        <ele>272</ele>
        <time>2019-04-17T20:14:16Z</time>
      </trkpt>
      <trkpt lat="44.74665" lon="7.40967">
        <ele>272</ele>
        <time>2019-04-17T20:15:16Z</time>
      </trkpt>
      <trkpt lat="44.74659" lon="7.40969">
        <ele>272</ele>
        <time>2019-04-17T20:16:16Z</time>
      </trkpt>
      <trkpt lat="44.74646" lon="7.40978">
        <ele>271</ele>
        <time>2019-04-17T20:17:16Z</time>
      </trkpt>
      <trkpt lat="44.74639" lon="7.40978">
        <ele>271</ele>
        <time>2019-04-17T20:18:16Z</time>
      </trkpt>
      <trkpt lat="44.74631" lon="7.40976">
        <ele>271</ele>
        <time>2019-04-17T20:19:16Z</time>
      </trkpt>
      <trkpt lat="44.74615" lon="7.40956">
        <ele>271</ele>
        <time>2019-04-17T20:20:16Z</time>
      </trkpt>
      <trkpt lat="44.74609" lon="7.40953">
        <ele>271</ele>
        <time>2019-04-17T20:21:16Z</time>
      </trkpt>
      <trkpt lat="44.74602" lon="7.40953">
        <ele>271</ele>
        <time>2019-04-17T20:22:16Z</time>
      </trkpt>
      <trkpt lat="44.74595" lon="7.40956">
        <ele>271</ele>
        <time>2019-04-17T20:23:16Z</time>
      </trkpt>
      <trkpt lat="44.74589" lon="7.40962">
        <ele>271</ele>
        <time>2019-04-17T20:24:16Z</time>
      </trkpt>
      <trkpt lat="44.74584" lon="7.40971">
        <ele>271</ele>
        <time>2019-04-17T20:25:16Z</time>
      </trkpt>
      <trkpt lat="44.74582" lon="7.40982">
        <ele>270</ele>
        <time>2019-04-17T20:26:16Z</time>
      </trkpt>
      <trkpt lat="44.74584" lon="7.40996">
        <ele>270</ele>
        <time>2019-04-17T20:27:16Z</time>
      </trkpt>
      <trkpt lat="44.7458" lon="7.41008">
        <ele>270</ele>
        <time>2019-04-17T20:28:16Z</time>
      </trkpt>
      <trkpt lat="44.74549" lon="7.41051">
        <ele>271</ele>
        <time>2019-04-17T20:29:16Z</time>
      </trkpt>
      <trkpt lat="44.74541" lon="7.4106">
        <ele>271</ele>
        <time>2019-04-17T20:30:16Z</time>
      </trkpt>
      <trkpt lat="44.74462" lon="7.41125">
        <ele>270</ele>
        <time>2019-04-17T20:31:16Z</time>
      </trkpt>
      <trkpt lat="44.74169" lon="7.41349">
        <ele>269</ele>
        <time>2019-04-17T20:32:16Z</time>
      </trkpt>
      <trkpt lat="44.7391" lon="7.41543">
        <ele>267</ele>
        <time>2019-04-17T20:33:16Z</time>
      </trkpt>
      <trkpt lat="44.73854" lon="7.41593">
        <ele>267</ele>
        <time>2019-04-17T20:34:16Z</time>
      </trkpt>
      <trkpt lat="44.73809" lon="7.41644">
        <ele>266</ele>
        <time>2019-04-17T20:35:16Z</time>
      </trkpt>
      <trkpt lat="44.73684" lon="7.41814">
        <ele>265</ele>
        <time>2019-04-17T20:36:16Z</time>
      </trkpt>
      <trkpt lat="44.73464" lon="7.42134">
        <ele>265</ele>
        <time>2019-04-17T20:37:16Z</time>
      </trkpt>
      <trkpt lat="44.73454" lon="7.42142">
        <ele>265</ele>
        <time>2019-04-17T20:38:16Z</time>
      </trkpt>
      <trkpt lat="44.73448" lon="7.42156">
        <ele>265</ele>
        <time>2019-04-17T20:39:16Z</time>
      </trkpt>
      <trkpt lat="44.73321" lon="7.42321">
        <ele>264</ele>
        <time>2019-04-17T20:40:16Z</time>
      </trkpt>
      <trkpt lat="44.72311" lon="7.43715">
        <ele>263</ele>
        <time>2019-04-17T20:41:16Z</time>
      </trkpt>
      <trkpt lat="44.72274" lon="7.43763">
        <ele>264</ele>
        <time>2019-04-17T20:42:16Z</time>
      </trkpt>
      <trkpt lat="44.72042" lon="7.44089">
        <ele>263</ele>
        <time>2019-04-17T20:43:16Z</time>
      </trkpt>
      <trkpt lat="44.71993" lon="7.44118">
        <ele>264</ele>
        <time>2019-04-17T20:44:16Z</time>
      </trkpt>
      <trkpt lat="44.71979" lon="7.44123">
        <ele>263</ele>
        <time>2019-04-17T20:45:16Z</time>
      </trkpt>
      <trkpt lat="44.71977" lon="7.44139">
        <ele>263</ele>
        <time>2019-04-17T20:46:16Z</time>
      </trkpt>
      <trkpt lat="44.71979" lon="7.44176">
        <ele>262</ele>
        <time>2019-04-17T20:47:16Z</time>
      </trkpt>
      <trkpt lat="44.70679" lon="7.45968">
        <ele>267</ele>
        <time>2019-04-17T20:48:16Z</time>
      </trkpt>
      <trkpt lat="44.7065" lon="7.46006">
        <ele>267</ele>
        <time>2019-04-17T20:49:16Z</time>
      </trkpt>
      <trkpt lat="44.7062" lon="7.46038">
        <ele>269</ele>
        <time>2019-04-17T20:50:16Z</time>
      </trkpt>
      <trkpt lat="44.70592" lon="7.46063">
        <ele>270</ele>
        <time>2019-04-17T20:51:16Z</time>
      </trkpt>
      <trkpt lat="44.70562" lon="7.46083">
        <ele>270</ele>
        <time>2019-04-17T20:52:16Z</time>
      </trkpt>
      <trkpt lat="44.70475" lon="7.46129">
        <ele>269</ele>
        <time>2019-04-17T20:53:16Z</time>
      </trkpt>
      <trkpt lat="44.68882" lon="7.46938">
        <ele>276</ele>
        <time>2019-04-17T20:54:16Z</time>
      </trkpt>
      <trkpt lat="44.6834" lon="7.47218">
        <ele>279</ele>
        <time>2019-04-17T20:55:16Z</time>
      </trkpt>
      <trkpt lat="44.66961" lon="7.47919">
        <ele>296</ele>
        <time>2019-04-17T20:56:16Z</time>
      </trkpt>
      <trkpt lat="44.66858" lon="7.47974">
        <ele>296</ele>
        <time>2019-04-17T20:57:16Z</time>
      </trkpt>
      <trkpt lat="44.66812" lon="7.47989">
        <ele>295</ele>
        <time>2019-04-17T20:58:16Z</time>
      </trkpt>
      <trkpt lat="44.66799" lon="7.4799">
        <ele>295</ele>
        <time>2019-04-17T20:59:16Z</time>
      </trkpt>
      <trkpt lat="44.66793" lon="7.47984">
        <ele>295</ele>
        <time>2019-04-17T21:00:16Z</time>
      </trkpt>
      <trkpt lat="44.66787" lon="7.4798">
        <ele>295</ele>
        <time>2019-04-17T21:01:16Z</time>
      </trkpt>
      <trkpt lat="44.6678" lon="7.4798">
        <ele>294</ele>
        <time>2019-04-17T21:02:16Z</time>
      </trkpt>
      <trkpt lat="44.66773" lon="7.47982">
        <ele>294</ele>
        <time>2019-04-17T21:03:16Z</time>
      </trkpt>
      <trkpt lat="44.66768" lon="7.47988">
        <ele>294</ele>
        <time>2019-04-17T21:04:16Z</time>
      </trkpt>
      <trkpt lat="44.66763" lon="7.47995">
        <ele>294</ele>
        <time>2019-04-17T21:05:16Z</time>
      </trkpt>
      <trkpt lat="44.66761" lon="7.48004">
        <ele>294</ele>
        <time>2019-04-17T21:06:16Z</time>
      </trkpt>
      <trkpt lat="44.66752" lon="7.48016">
        <ele>294</ele>
        <time>2019-04-17T21:07:16Z</time>
      </trkpt>
      <trkpt lat="44.66745" lon="7.48023">
        <ele>294</ele>
        <time>2019-04-17T21:08:16Z</time>
      </trkpt>
      <trkpt lat="44.66711" lon="7.48048">
        <ele>294</ele>
        <time>2019-04-17T21:09:16Z</time>
      </trkpt>
      <trkpt lat="44.66506" lon="7.48149">
        <ele>303</ele>
        <time>2019-04-17T21:10:16Z</time>
      </trkpt>
      <trkpt lat="44.66148" lon="7.48332">
        <ele>314</ele>
        <time>2019-04-17T21:11:16Z</time>
      </trkpt>
      <trkpt lat="44.66113" lon="7.48351">
        <ele>314</ele>
        <time>2019-04-17T21:12:16Z</time>
      </trkpt>
      <trkpt lat="44.66077" lon="7.48376">
        <ele>313</ele>
        <time>2019-04-17T21:13:16Z</time>
      </trkpt>
      <trkpt lat="44.66038" lon="7.48406">
        <ele>314</ele>
        <time>2019-04-17T21:14:16Z</time>
      </trkpt>
      <trkpt lat="44.65638" lon="7.48719">
        <ele>324</ele>
        <time>2019-04-17T21:15:16Z</time>
      </trkpt>
      <trkpt lat="44.65605" lon="7.48731">
        <ele>324</ele>
        <time>2019-04-17T21:16:16Z</time>
      </trkpt>
      <trkpt lat="44.65596" lon="7.48725">
        <ele>324</ele>
        <time>2019-04-17T21:17:16Z</time>
      </trkpt>
      <trkpt lat="44.6559" lon="7.48724">
        <ele>323</ele>
        <time>2019-04-17T21:18:16Z</time>
      </trkpt>
      <trkpt lat="44.65579" lon="7.4873">
        <ele>324</ele>
        <time>2019-04-17T21:19:16Z</time>
      </trkpt>
      <trkpt lat="44.65574" lon="7.48737">
        <ele>324</ele>
        <time>2019-04-17T21:20:16Z</time>
      </trkpt>
      <trkpt lat="44.65571" lon="7.48747">
        <ele>324</ele>
        <time>2019-04-17T21:21:16Z</time>
      </trkpt>
      <trkpt lat="44.6557" lon="7.48758">
        <ele>324</ele>
        <time>2019-04-17T21:22:16Z</time>
      </trkpt>
      <trkpt lat="44.65548" lon="7.48788">
        <ele>325</ele>
        <time>2019-04-17T21:23:16Z</time>
      </trkpt>
      <trkpt lat="44.65222" lon="7.49038">
        <ele>334</ele>
        <time>2019-04-17T21:24:16Z</time>
      </trkpt>
      <trkpt lat="44.65133" lon="7.49111">
        <ele>336</ele>
        <time>2019-04-17T21:25:16Z</time>
      </trkpt>
      <trkpt lat="44.65115" lon="7.49113">
        <ele>336</ele>
        <time>2019-04-17T21:26:16Z</time>
      </trkpt>
      <trkpt lat="44.6511" lon="7.49109">
        <ele>336</ele>
        <time>2019-04-17T21:27:16Z</time>
      </trkpt>
      <trkpt lat="44.65105" lon="7.49107">
        <ele>337</ele>
        <time>2019-04-17T21:28:16Z</time>
      </trkpt>
      <trkpt lat="44.651" lon="7.49107">
        <ele>337</ele>
        <time>2019-04-17T21:29:16Z</time>
      </trkpt>
      <trkpt lat="44.65095" lon="7.4911">
        <ele>337</ele>
        <time>2019-04-17T21:30:16Z</time>
      </trkpt>
      <trkpt lat="44.6509" lon="7.49117">
        <ele>337</ele>
        <time>2019-04-17T21:31:16Z</time>
      </trkpt>
      <trkpt lat="44.65088" lon="7.49125">
        <ele>337</ele>
        <time>2019-04-17T21:32:16Z</time>
      </trkpt>
      <trkpt lat="44.65088" lon="7.49132">
        <ele>337</ele>
        <time>2019-04-17T21:33:16Z</time>
      </trkpt>
      <trkpt lat="44.65075" lon="7.49155">
        <ele>338</ele>
        <time>2019-04-17T21:34:16Z</time>
      </trkpt>
      <trkpt lat="44.65021" lon="7.49199">
        <ele>337</ele>
        <time>2019-04-17T21:35:16Z</time>
      </trkpt>
      <trkpt lat="44.65018" lon="7.49194">
        <ele>337</ele>
        <time>2019-04-17T21:36:16Z</time>
      </trkpt>
      <trkpt lat="44.65009" lon="7.49191">
        <ele>337</ele>
        <time>2019-04-17T21:37:16Z</time>
      </trkpt>
      <trkpt lat="44.65001" lon="7.49195">
        <ele>337</ele>
        <time>2019-04-17T21:38:16Z</time>
      </trkpt>
      <trkpt lat="44.64997" lon="7.49207">
        <ele>338</ele>
        <time>2019-04-17T21:39:16Z</time>
      </trkpt>
      <trkpt lat="44.64997" lon="7.49215">
        <ele>338</ele>
        <time>2019-04-17T21:40:16Z</time>
      </trkpt>
      <trkpt lat="44.65" lon="7.49221">
        <ele>338</ele>
        <time>2019-04-17T21:41:16Z</time>
      </trkpt>
      <trkpt lat="44.65004" lon="7.49226">
        <ele>338</ele>
        <time>2019-04-17T21:42:16Z</time>
      </trkpt>
      <trkpt lat="44.64945" lon="7.49331">
        <ele>345</ele>
        <time>2019-04-17T21:43:16Z</time>
      </trkpt>
      <trkpt lat="44.64874" lon="7.49468">
        <ele>341</ele>
        <time>2019-04-17T21:44:16Z</time>
      </trkpt>
      <trkpt lat="44.64854" lon="7.49491">
        <ele>340</ele>
        <time>2019-04-17T21:45:16Z</time>
      </trkpt>
      <trkpt lat="44.64834" lon="7.49503">
        <ele>340</ele>
        <time>2019-04-17T21:46:16Z</time>
      </trkpt>
      <trkpt lat="44.64713" lon="7.49538">
        <ele>344</ele>
        <time>2019-04-17T21:47:16Z</time>
      </trkpt>
      <trkpt lat="44.64712" lon="7.49536">
        <ele>344</ele>
        <time>2019-04-17T21:48:16Z</time>
      </trkpt>
      <trkpt lat="44.64707" lon="7.49534">
        <ele>345</ele>
        <time>2019-04-17T21:49:16Z</time>
      </trkpt>
      <trkpt lat="44.64704" lon="7.49537">
        <ele>345</ele>
        <time>2019-04-17T21:50:16Z</time>
      </trkpt>
      <trkpt lat="44.64703" lon="7.49541">
        <ele>345</ele>
        <time>2019-04-17T21:51:16Z</time>
      </trkpt>
      <trkpt lat="44.64563" lon="7.49583">
        <ele>350</ele>
        <time>2019-04-17T21:52:16Z</time>
      </trkpt>
      <trkpt lat="44.64559" lon="7.49577">
        <ele>350</ele>
        <time>2019-04-17T21:53:16Z</time>
      </trkpt>
      <trkpt lat="44.64554" lon="7.49575">
        <ele>350</ele>
        <time>2019-04-17T21:54:16Z</time>
      </trkpt>
      <trkpt lat="44.64549" lon="7.49575">
        <ele>350</ele>
        <time>2019-04-17T21:55:16Z</time>
      </trkpt>
      <trkpt lat="44.64545" lon="7.49577">
        <ele>351</ele>
        <time>2019-04-17T21:56:16Z</time>
      </trkpt>
      <trkpt lat="44.6454" lon="7.49585">
        <ele>351</ele>
        <time>2019-04-17T21:57:16Z</time>
      </trkpt>
      <trkpt lat="44.64539" lon="7.4959">
        <ele>351</ele>
        <time>2019-04-17T21:58:16Z</time>
      </trkpt>
      <trkpt lat="44.64413" lon="7.49651">
        <ele>354</ele>
        <time>2019-04-17T21:59:16Z</time>
      </trkpt>
      <trkpt lat="44.64233" lon="7.49744">
        <ele>353</ele>
        <time>2019-04-17T22:00:16Z</time>
      </trkpt>
      <trkpt lat="44.64214" lon="7.49751">
        <ele>353</ele>
        <time>2019-04-17T22:01:16Z</time>
      </trkpt>
      <trkpt lat="44.64208" lon="7.49743">
        <ele>353</ele>
        <time>2019-04-17T22:02:16Z</time>
      </trkpt>
      <trkpt lat="44.64199" lon="7.49744">
        <ele>354</ele>
        <time>2019-04-17T22:03:16Z</time>
      </trkpt>
      <trkpt lat="44.64196" lon="7.49749">
        <ele>354</ele>
        <time>2019-04-17T22:04:16Z</time>
      </trkpt>
      <trkpt lat="44.64195" lon="7.49759">
        <ele>353</ele>
        <time>2019-04-17T22:05:16Z</time>
      </trkpt>
      <trkpt lat="44.64185" lon="7.49771">
        <ele>353</ele>
        <time>2019-04-17T22:06:16Z</time>
      </trkpt>
      <trkpt lat="44.64118" lon="7.49794">
        <ele>354</ele>
        <time>2019-04-17T22:07:16Z</time>
      </trkpt>
      <trkpt lat="44.64081" lon="7.49812">
        <ele>355</ele>
        <time>2019-04-17T22:08:16Z</time>
      </trkpt>
      <trkpt lat="44.64037" lon="7.49845">
        <ele>355</ele>
        <time>2019-04-17T22:09:16Z</time>
      </trkpt>
      <trkpt lat="44.64027" lon="7.49855">
        <ele>355</ele>
        <time>2019-04-17T22:10:16Z</time>
      </trkpt>
      <trkpt lat="44.63996" lon="7.49874">
        <ele>356</ele>
        <time>2019-04-17T22:11:16Z</time>
      </trkpt>
      <trkpt lat="44.63993" lon="7.49874">
        <ele>356</ele>
        <time>2019-04-17T22:12:16Z</time>
      </trkpt>
      <trkpt lat="44.63985" lon="7.49877">
        <ele>356</ele>
        <time>2019-04-17T22:13:16Z</time>
      </trkpt>
      <trkpt lat="44.63983" lon="7.4988">
        <ele>356</ele>
        <time>2019-04-17T22:14:16Z</time>
      </trkpt>
      <trkpt lat="44.6395" lon="7.49881">
        <ele>356</ele>
        <time>2019-04-17T22:15:16Z</time>
      </trkpt>
      <trkpt lat="44.63897" lon="7.49858">
        <ele>356</ele>
        <time>2019-04-17T22:16:16Z</time>
      </trkpt>
      <trkpt lat="44.62936" lon="7.49432">
        <ele>373</ele>
        <time>2019-04-17T22:17:16Z</time>
      </trkpt>
      <trkpt lat="44.62169" lon="7.49091">
        <ele>387</ele>
        <time>2019-04-17T22:18:16Z</time>
      </trkpt>
      <trkpt lat="44.62148" lon="7.4908">
        <ele>387</ele>
        <time>2019-04-17T22:19:16Z</time>
      </trkpt>
      <trkpt lat="44.62142" lon="7.49072">
        <ele>387</ele>
        <time>2019-04-17T22:20:16Z</time>
      </trkpt>
      <trkpt lat="44.62136" lon="7.49073">
        <ele>387</ele>
        <time>2019-04-17T22:21:16Z</time>
      </trkpt>
      <trkpt lat="44.62113" lon="7.49066">
        <ele>388</ele>
        <time>2019-04-17T22:22:16Z</time>
      </trkpt>
      <trkpt lat="44.61172" lon="7.48649">
        <ele>400</ele>
        <time>2019-04-17T22:23:16Z</time>
      </trkpt>
      <trkpt lat="44.61172" lon="7.4864">
        <ele>400</ele>
        <time>2019-04-17T22:24:16Z</time>
      </trkpt>
      <trkpt lat="44.61169" lon="7.48632">
        <ele>400</ele>
        <time>2019-04-17T22:25:16Z</time>
      </trkpt>
      <trkpt lat="44.61162" lon="7.48628">
        <ele>400</ele>
        <time>2019-04-17T22:26:16Z</time>
      </trkpt>
      <trkpt lat="44.61158" lon="7.48628">
        <ele>400</ele>
        <time>2019-04-17T22:27:16Z</time>
      </trkpt>
      <trkpt lat="44.61151" lon="7.48633">
        <ele>400</ele>
        <time>2019-04-17T22:28:16Z</time>
      </trkpt>
      <trkpt lat="44.61149" lon="7.48638">
        <ele>400</ele>
        <time>2019-04-17T22:29:16Z</time>
      </trkpt>
      <trkpt lat="44.60594" lon="7.48394">
        <ele>414</ele>
        <time>2019-04-17T22:30:16Z</time>
      </trkpt>
      <trkpt lat="44.60562" lon="7.48383">
        <ele>415</ele>
        <time>2019-04-17T22:31:16Z</time>
      </trkpt>
      <trkpt lat="44.60425" lon="7.48356">
        <ele>420</ele>
        <time>2019-04-17T22:32:16Z</time>
      </trkpt>
      <trkpt lat="44.60148" lon="7.48307">
        <ele>422</ele>
        <time>2019-04-17T22:33:16Z</time>
      </trkpt>
      <trkpt lat="44.60067" lon="7.48291">
        <ele>422</ele>
        <time>2019-04-17T22:34:16Z</time>
      </trkpt>
      <trkpt lat="44.5998" lon="7.48279">
        <ele>423</ele>
        <time>2019-04-17T22:35:16Z</time>
      </trkpt>
      <trkpt lat="44.59871" lon="7.48285">
        <ele>425</ele>
        <time>2019-04-17T22:36:16Z</time>
      </trkpt>
      <trkpt lat="44.59857" lon="7.48289">
        <ele>425</ele>
        <time>2019-04-17T22:37:16Z</time>
      </trkpt>
      <trkpt lat="44.59828" lon="7.4831">
        <ele>424</ele>
        <time>2019-04-17T22:38:16Z</time>
      </trkpt>
      <trkpt lat="44.59793" lon="7.48312">
        <ele>425</ele>
        <time>2019-04-17T22:39:16Z</time>
      </trkpt>
      <trkpt lat="44.59545" lon="7.48298">
        <ele>428</ele>
        <time>2019-04-17T22:40:16Z</time>
      </trkpt>
      <trkpt lat="44.59479" lon="7.48303">
        <ele>426</ele>
        <time>2019-04-17T22:41:16Z</time>
      </trkpt>
      <trkpt lat="44.5939" lon="7.48299">
        <ele>426</ele>
        <time>2019-04-17T22:42:16Z</time>
      </trkpt>
      <trkpt lat="44.59373" lon="7.48302">
        <ele>426</ele>
        <time>2019-04-17T22:43:16Z</time>
      </trkpt>
      <trkpt lat="44.59357" lon="7.48317">
        <ele>426</ele>
        <time>2019-04-17T22:44:16Z</time>
      </trkpt>
      <trkpt lat="44.5935" lon="7.48332">
        <ele>426</ele>
        <time>2019-04-17T22:45:16Z</time>
      </trkpt>
      <trkpt lat="44.59334" lon="7.48417">
        <ele>426</ele>
        <time>2019-04-17T22:46:16Z</time>
      </trkpt>
      <trkpt lat="44.59326" lon="7.4843">
        <ele>426</ele>
        <time>2019-04-17T22:47:16Z</time>
      </trkpt>
      <trkpt lat="44.59315" lon="7.48442">
        <ele>426</ele>
        <time>2019-04-17T22:48:16Z</time>
      </trkpt>
      <trkpt lat="44.59299" lon="7.48449">
        <ele>426</ele>
        <time>2019-04-17T22:49:16Z</time>
      </trkpt>
      <trkpt lat="44.59283" lon="7.48449">
        <ele>427</ele>
        <time>2019-04-17T22:50:16Z</time>
      </trkpt>
      <trkpt lat="44.58495" lon="7.48342">
        <ele>436</ele>
        <time>2019-04-17T22:51:16Z</time>
      </trkpt>
      <trkpt lat="44.58456" lon="7.48329">
        <ele>436</ele>
        <time>2019-04-17T22:52:16Z</time>
      </trkpt>
      <trkpt lat="44.58446" lon="7.48319">
        <ele>436</ele>
        <time>2019-04-17T22:53:16Z</time>
      </trkpt>
      <trkpt lat="44.58423" lon="7.48289">
        <ele>436</ele>
        <time>2019-04-17T22:54:16Z</time>
      </trkpt>
      <trkpt lat="44.58387" lon="7.48234">
        <ele>437</ele>
        <time>2019-04-17T22:55:16Z</time>
      </trkpt>
      <trkpt lat="44.58365" lon="7.48181">
        <ele>438</ele>
        <time>2019-04-17T22:56:16Z</time>
      </trkpt>
      <trkpt lat="44.5836" lon="7.48161">
        <ele>438</ele>
        <time>2019-04-17T22:57:16Z</time>
      </trkpt>
      <trkpt lat="44.58336" lon="7.48002">
        <ele>440</ele>
        <time>2019-04-17T22:58:16Z</time>
      </trkpt>
      <trkpt lat="44.58284" lon="7.47594">
        <ele>446</ele>
        <time>2019-04-17T22:59:16Z</time>
      </trkpt>
      <trkpt lat="44.5829" lon="7.47591">
        <ele>446</ele>
        <time>2019-04-17T23:00:16Z</time>
      </trkpt>
      <trkpt lat="44.58295" lon="7.47584">
        <ele>447</ele>
        <time>2019-04-17T23:01:16Z</time>
      </trkpt>
      <trkpt lat="44.58297" lon="7.47574">
        <ele>447</ele>
        <time>2019-04-17T23:02:16Z</time>
      </trkpt>
      <trkpt lat="44.58296" lon="7.47564">
        <ele>447</ele>
        <time>2019-04-17T23:03:16Z</time>
      </trkpt>
      <trkpt lat="44.58292" lon="7.47556">
        <ele>447</ele>
        <time>2019-04-17T23:04:16Z</time>
      </trkpt>
      <trkpt lat="44.58286" lon="7.47551">
        <ele>447</ele>
        <time>2019-04-17T23:05:16Z</time>
      </trkpt>
      <trkpt lat="44.58279" lon="7.4755">
        <ele>447</ele>
        <time>2019-04-17T23:06:16Z</time>
      </trkpt>
      <trkpt lat="44.58263" lon="7.47493">
        <ele>448</ele>
        <time>2019-04-17T23:07:16Z</time>
      </trkpt>
      <trkpt lat="44.58234" lon="7.47412">
        <ele>449</ele>
        <time>2019-04-17T23:08:16Z</time>
      </trkpt>
      <trkpt lat="44.58006" lon="7.46786">
        <ele>464</ele>
        <time>2019-04-17T23:09:16Z</time>
      </trkpt>
      <trkpt lat="44.57985" lon="7.46738">
        <ele>466</ele>
        <time>2019-04-17T23:10:16Z</time>
      </trkpt>
      <trkpt lat="44.5796" lon="7.46695">
        <ele>467</ele>
        <time>2019-04-17T23:11:16Z</time>
      </trkpt>
      <trkpt lat="44.57937" lon="7.46661">
        <ele>466</ele>
        <time>2019-04-17T23:12:16Z</time>
      </trkpt>
      <trkpt lat="44.57907" lon="7.46627">
        <ele>464</ele>
        <time>2019-04-17T23:13:16Z</time>
      </trkpt>
      <trkpt lat="44.57572" lon="7.46315">
        <ele>468</ele>
        <time>2019-04-17T23:14:16Z</time>
      </trkpt>
      <trkpt lat="44.57506" lon="7.46257">
        <ele>468</ele>
        <time>2019-04-17T23:15:16Z</time>
      </trkpt>
      <trkpt lat="44.57476" lon="7.46236">
        <ele>469</ele>
        <time>2019-04-17T23:16:16Z</time>
      </trkpt>
      <trkpt lat="44.57477" lon="7.46228">
        <ele>470</ele>
        <time>2019-04-17T23:17:16Z</time>
      </trkpt>
      <trkpt lat="44.57475" lon="7.4622">
        <ele>471</ele>
        <time>2019-04-17T23:18:16Z</time>
      </trkpt>
      <trkpt lat="44.57471" lon="7.46215">
        <ele>471</ele>
        <time>2019-04-17T23:19:16Z</time>
      </trkpt>
      <trkpt lat="44.57467" lon="7.46212">
        <ele>471</ele>
        <time>2019-04-17T23:20:16Z</time>
      </trkpt>
      <trkpt lat="44.57459" lon="7.46212">
        <ele>471</ele>
        <time>2019-04-17T23:21:16Z</time>
      </trkpt>
      <trkpt lat="44.57455" lon="7.46215">
        <ele>471</ele>
        <time>2019-04-17T23:22:16Z</time>
      </trkpt>
      <trkpt lat="44.57446" lon="7.46204">
        <ele>471</ele>
        <time>2019-04-17T23:23:16Z</time>
      </trkpt>
      <trkpt lat="44.57422" lon="7.46183">
        <ele>472</ele>
        <time>2019-04-17T23:24:16Z</time>
      </trkpt>
      <trkpt lat="44.57406" lon="7.46173">
        <ele>472</ele>
        <time>2019-04-17T23:25:16Z</time>
      </trkpt>
      <trkpt lat="44.57373" lon="7.46159">
        <ele>472</ele>
        <time>2019-04-17T23:26:16Z</time>
      </trkpt>
      <trkpt lat="44.57329" lon="7.46153">
        <ele>470</ele>
        <time>2019-04-17T23:27:16Z</time>
      </trkpt>
      <trkpt lat="44.57312" lon="7.46152">
        <ele>470</ele>
        <time>2019-04-17T23:28:16Z</time>
      </trkpt>
      <trkpt lat="44.57186" lon="7.46164">
        <ele>470</ele>
        <time>2019-04-17T23:29:16Z</time>
      </trkpt>
      <trkpt lat="44.57167" lon="7.46164">
        <ele>470</ele>
        <time>2019-04-17T23:30:16Z</time>
      </trkpt>
      <trkpt lat="44.57123" lon="7.46159">
        <ele>470</ele>
        <time>2019-04-17T23:31:16Z</time>
      </trkpt>
      <trkpt lat="44.57096" lon="7.46151">
        <ele>470</ele>
        <time>2019-04-17T23:32:16Z</time>
      </trkpt>
      <trkpt lat="44.56911" lon="7.46076">
        <ele>471</ele>
        <time>2019-04-17T23:33:16Z</time>
      </trkpt>
      <trkpt lat="44.56841" lon="7.46047">
        <ele>474</ele>
        <time>2019-04-17T23:34:16Z</time>
      </trkpt>
      <trkpt lat="44.56835" lon="7.46041">
        <ele>474</ele>
        <time>2019-04-17T23:35:16Z</time>
      </trkpt>
      <trkpt lat="44.56821" lon="7.46035">
        <ele>474</ele>
        <time>2019-04-17T23:36:16Z</time>
      </trkpt>
      <trkpt lat="44.56806" lon="7.46033">
        <ele>474</ele>
        <time>2019-04-17T23:37:16Z</time>
      </trkpt>
      <trkpt lat="44.56804" lon="7.46022">
        <ele>474</ele>
        <time>2019-04-17T23:38:16Z</time>
      </trkpt>
      <trkpt lat="44.56799" lon="7.46014">
        <ele>474</ele>
        <time>2019-04-17T23:39:16Z</time>
      </trkpt>
      <trkpt lat="44.5679" lon="7.46008">
        <ele>474</ele>
        <time>2019-04-17T23:40:16Z</time>
      </trkpt>
      <trkpt lat="44.56749" lon="7.45967">
        <ele>474</ele>
        <time>2019-04-17T23:41:16Z</time>
      </trkpt>
      <trkpt lat="44.56579" lon="7.45735">
        <ele>477</ele>
        <time>2019-04-17T23:42:16Z</time>
      </trkpt>
      <trkpt lat="44.56447" lon="7.45597">
        <ele>481</ele>
        <time>2019-04-17T23:43:16Z</time>
      </trkpt>
      <trkpt lat="44.56217" lon="7.45367">
        <ele>485</ele>
        <time>2019-04-17T23:44:16Z</time>
      </trkpt>
      <trkpt lat="44.56105" lon="7.45253">
        <ele>486</ele>
        <time>2019-04-17T23:45:16Z</time>
      </trkpt>
      <trkpt lat="44.55783" lon="7.44934">
        <ele>487</ele>
        <time>2019-04-17T23:46:16Z</time>
      </trkpt>
      <trkpt lat="44.55768" lon="7.44909">
        <ele>487</ele>
        <time>2019-04-17T23:47:16Z</time>
      </trkpt>
      <trkpt lat="44.55764" lon="7.44893">
        <ele>487</ele>
        <time>2019-04-17T23:48:16Z</time>
      </trkpt>
      <trkpt lat="44.55765" lon="7.44886">
        <ele>488</ele>
        <time>2019-04-17T23:49:16Z</time>
      </trkpt>
      <trkpt lat="44.55764" lon="7.4488">
        <ele>488</ele>
        <time>2019-04-17T23:50:16Z</time>
      </trkpt>
      <trkpt lat="44.5576" lon="7.44873">
        <ele>488</ele>
        <time>2019-04-17T23:51:16Z</time>
      </trkpt>
      <trkpt lat="44.55753" lon="7.44869">
        <ele>488</ele>
        <time>2019-04-17T23:52:16Z</time>
      </trkpt>
      <trkpt lat="44.55747" lon="7.44871">
        <ele>488</ele>
        <time>2019-04-17T23:53:16Z</time>
      </trkpt>
      <trkpt lat="44.55743" lon="7.44874">
        <ele>487</ele>
        <time>2019-04-17T23:54:16Z</time>
      </trkpt>
      <trkpt lat="44.55734" lon="7.44872">
        <ele>487</ele>
        <time>2019-04-17T23:55:16Z</time>
      </trkpt>
      <trkpt lat="44.55713" lon="7.44861">
        <ele>487</ele>
        <time>2019-04-17T23:56:16Z</time>
      </trkpt>
      <trkpt lat="44.55666" lon="7.44816">
        <ele>487</ele>
        <time>2019-04-17T23:57:16Z</time>
      </trkpt>
      <trkpt lat="44.55633" lon="7.44781">
        <ele>487</ele>
        <time>2019-04-17T23:58:16Z</time>
      </trkpt>
      <trkpt lat="44.55608" lon="7.44742">
        <ele>488</ele>
        <time>2019-04-17T23:59:16Z</time>
      </trkpt>
      <trkpt lat="44.55578" lon="7.44689">
        <ele>489</ele>
        <time>2019-04-18T00:00:16Z</time>
      </trkpt>
      <trkpt lat="44.55558" lon="7.44632">
        <ele>489</ele>
        <time>2019-04-18T00:01:16Z</time>
      </trkpt>
      <trkpt lat="44.55547" lon="7.44577">
        <ele>489</ele>
        <time>2019-04-18T00:02:16Z</time>
      </trkpt>
      <trkpt lat="44.5554" lon="7.44509">
        <ele>491</ele>
        <time>2019-04-18T00:03:16Z</time>
      </trkpt>
      <trkpt lat="44.5554" lon="7.44453">
        <ele>492</ele>
        <time>2019-04-18T00:04:16Z</time>
      </trkpt>
      <trkpt lat="44.55546" lon="7.44395">
        <ele>492</ele>
        <time>2019-04-18T00:05:16Z</time>
      </trkpt>
      <trkpt lat="44.55583" lon="7.44247">
        <ele>494</ele>
        <time>2019-04-18T00:06:16Z</time>
      </trkpt>
      <trkpt lat="44.55594" lon="7.44234">
        <ele>494</ele>
        <time>2019-04-18T00:07:16Z</time>
      </trkpt>
      <trkpt lat="44.55611" lon="7.44223">
        <ele>494</ele>
        <time>2019-04-18T00:08:16Z</time>
      </trkpt>
      <trkpt lat="44.55616" lon="7.4421">
        <ele>494</ele>
        <time>2019-04-18T00:09:16Z</time>
      </trkpt>
      <trkpt lat="44.55616" lon="7.44202">
        <ele>494</ele>
        <time>2019-04-18T00:10:16Z</time>
      </trkpt>
      <trkpt lat="44.55615" lon="7.44194">
        <ele>494</ele>
        <time>2019-04-18T00:11:16Z</time>
      </trkpt>
      <trkpt lat="44.55607" lon="7.44175">
        <ele>493</ele>
        <time>2019-04-18T00:12:16Z</time>
      </trkpt>
      <trkpt lat="44.55605" lon="7.44165">
        <ele>493</ele>
        <time>2019-04-18T00:13:16Z</time>
      </trkpt>
      <trkpt lat="44.55918" lon="7.42983">
        <ele>510</ele>
        <time>2019-04-18T00:14:16Z</time>
      </trkpt>
      <trkpt lat="44.56046" lon="7.42486">
        <ele>517</ele>
        <time>2019-04-18T00:15:16Z</time>
      </trkpt>
      <trkpt lat="44.56071" lon="7.424">
        <ele>519</ele>
        <time>2019-04-18T00:16:16Z</time>
      </trkpt>
      <trkpt lat="44.56106" lon="7.42296">
        <ele>521</ele>
        <time>2019-04-18T00:17:16Z</time>
      </trkpt>
      <trkpt lat="44.56181" lon="7.42086">
        <ele>527</ele>
        <time>2019-04-18T00:18:16Z</time>
      </trkpt>
      <trkpt lat="44.56203" lon="7.42043">
        <ele>527</ele>
        <time>2019-04-18T00:19:16Z</time>
      </trkpt>
      <trkpt lat="44.56315" lon="7.41875">
        <ele>537</ele>
        <time>2019-04-18T00:20:16Z</time>
      </trkpt>
      <trkpt lat="44.56328" lon="7.41842">
        <ele>535</ele>
        <time>2019-04-18T00:21:16Z</time>
      </trkpt>
      <trkpt lat="44.56335" lon="7.41805">
        <ele>533</ele>
        <time>2019-04-18T00:22:16Z</time>
      </trkpt>
      <trkpt lat="44.56387" lon="7.41424">
        <ele>534</ele>
        <time>2019-04-18T00:23:16Z</time>
      </trkpt>
      <trkpt lat="44.5647" lon="7.40806">
        <ele>544</ele>
        <time>2019-04-18T00:24:16Z</time>
      </trkpt>
      <trkpt lat="44.56476" lon="7.40745">
        <ele>545</ele>
        <time>2019-04-18T00:25:16Z</time>
      </trkpt>
      <trkpt lat="44.56476" lon="7.40683">
        <ele>545</ele>
        <time>2019-04-18T00:26:16Z</time>
      </trkpt>
      <trkpt lat="44.56469" lon="7.40622">
        <ele>547</ele>
        <time>2019-04-18T00:27:16Z</time>
      </trkpt>
      <trkpt lat="44.5638" lon="7.40292">
        <ele>545</ele>
        <time>2019-04-18T00:28:16Z</time>
      </trkpt>
      <trkpt lat="44.56364" lon="7.40224">
        <ele>545</ele>
        <time>2019-04-18T00:29:16Z</time>
      </trkpt>
      <trkpt lat="44.56361" lon="7.40187">
        <ele>544</ele>
        <time>2019-04-18T00:30:16Z</time>
      </trkpt>
      <trkpt lat="44.56365" lon="7.40095">
        <ele>548</ele>
        <time>2019-04-18T00:31:16Z</time>
      </trkpt>
      <trkpt lat="44.56376" lon="7.3996">
        <ele>557</ele>
        <time>2019-04-18T00:32:16Z</time>
      </trkpt>
      <trkpt lat="44.56381" lon="7.39871">
        <ele>561</ele>
        <time>2019-04-18T00:33:16Z</time>
      </trkpt>
      <trkpt lat="44.56385" lon="7.39863">
        <ele>562</ele>
        <time>2019-04-18T00:34:16Z</time>
      </trkpt>
      <trkpt lat="44.56391" lon="7.39821">
        <ele>562</ele>
        <time>2019-04-18T00:35:16Z</time>
      </trkpt>
      <trkpt lat="44.56411" lon="7.39764">
        <ele>562</ele>
        <time>2019-04-18T00:36:16Z</time>
      </trkpt>
      <trkpt lat="44.56466" lon="7.39632">
        <ele>568</ele>
        <time>2019-04-18T00:37:16Z</time>
      </trkpt>
      <trkpt lat="44.56646" lon="7.39288">
        <ele>565</ele>
        <time>2019-04-18T00:38:16Z</time>
      </trkpt>
      <trkpt lat="44.56757" lon="7.3908">
        <ele>564</ele>
        <time>2019-04-18T00:39:16Z</time>
      </trkpt>
      <trkpt lat="44.56783" lon="7.39017">
        <ele>573</ele>
        <time>2019-04-18T00:40:16Z</time>
      </trkpt>
      <trkpt lat="44.56808" lon="7.38916">
        <ele>574</ele>
        <time>2019-04-18T00:41:16Z</time>
      </trkpt>
      <trkpt lat="44.56816" lon="7.38829">
        <ele>571</ele>
        <time>2019-04-18T00:42:16Z</time>
      </trkpt>
      <trkpt lat="44.56818" lon="7.38724">
        <ele>565</ele>
        <time>2019-04-18T00:43:16Z</time>
      </trkpt>
      <trkpt lat="44.56828" lon="7.38699">
        <ele>566</ele>
        <time>2019-04-18T00:44:16Z</time>
      </trkpt>
      <trkpt lat="44.56845" lon="7.38666">
        <ele>567</ele>
        <time>2019-04-18T00:45:16Z</time>
      </trkpt>
      <trkpt lat="44.56878" lon="7.38638">
        <ele>572</ele>
        <time>2019-04-18T00:46:16Z</time>
      </trkpt>
      <trkpt lat="44.56855" lon="7.38633">
        <ele>571</ele>
        <time>2019-04-18T00:47:16Z</time>
      </trkpt>
      <trkpt lat="44.56836" lon="7.3862">
        <ele>571</ele>
        <time>2019-04-18T00:48:16Z</time>
      </trkpt>
      <trkpt lat="44.56816" lon="7.38583">
        <ele>572</ele>
        <time>2019-04-18T00:49:16Z</time>
      </trkpt>
      <trkpt lat="44.56813" lon="7.38461">
        <ele>575</ele>
        <time>2019-04-18T00:50:16Z</time>
      </trkpt>
      <trkpt lat="44.56803" lon="7.37563">
        <ele>580</ele>
        <time>2019-04-18T00:51:16Z</time>
      </trkpt>
      <trkpt lat="44.56798" lon="7.37338">
        <ele>580</ele>
        <time>2019-04-18T00:52:16Z</time>
      </trkpt>
      <trkpt lat="44.56795" lon="7.37287">
        <ele>579</ele>
        <time>2019-04-18T00:53:16Z</time>
      </trkpt>
      <trkpt lat="44.56781" lon="7.37067">
        <ele>582</ele>
        <time>2019-04-18T00:54:16Z</time>
      </trkpt>
      <trkpt lat="44.56765" lon="7.36858">
        <ele>584</ele>
        <time>2019-04-18T00:55:16Z</time>
      </trkpt>
      <trkpt lat="44.56764" lon="7.36815">
        <ele>585</ele>
        <time>2019-04-18T00:56:16Z</time>
      </trkpt>
      <trkpt lat="44.56772" lon="7.36766">
        <ele>586</ele>
        <time>2019-04-18T00:57:16Z</time>
      </trkpt>
      <trkpt lat="44.56782" lon="7.36729">
        <ele>587</ele>
        <time>2019-04-18T00:58:16Z</time>
      </trkpt>
      <trkpt lat="44.56797" lon="7.3669">
        <ele>588</ele>
        <time>2019-04-18T00:59:16Z</time>
      </trkpt>
      <trkpt lat="44.56861" lon="7.36557">
        <ele>589</ele>
        <time>2019-04-18T01:00:16Z</time>
      </trkpt>
      <trkpt lat="44.56906" lon="7.36457">
        <ele>592</ele>
        <time>2019-04-18T01:01:16Z</time>
      </trkpt>
      <trkpt lat="44.56919" lon="7.36419">
        <ele>593</ele>
        <time>2019-04-18T01:02:16Z</time>
      </trkpt>
      <trkpt lat="44.56922" lon="7.36406">
        <ele>593</ele>
        <time>2019-04-18T01:03:16Z</time>
      </trkpt>
      <trkpt lat="44.5692" lon="7.36361">
        <ele>594</ele>
        <time>2019-04-18T01:04:16Z</time>
      </trkpt>
      <trkpt lat="44.5689" lon="7.35991">
        <ele>599</ele>
        <time>2019-04-18T01:05:16Z</time>
      </trkpt>
      <trkpt lat="44.56885" lon="7.35958">
        <ele>600</ele>
        <time>2019-04-18T01:06:16Z</time>
      </trkpt>
      <trkpt lat="44.5684" lon="7.35854">
        <ele>604</ele>
        <time>2019-04-18T01:07:16Z</time>
      </trkpt>
      <trkpt lat="44.56774" lon="7.35714">
        <ele>602</ele>
        <time>2019-04-18T01:08:16Z</time>
      </trkpt>
      <trkpt lat="44.56731" lon="7.35629">
        <ele>602</ele>
        <time>2019-04-18T01:09:16Z</time>
      </trkpt>
      <trkpt lat="44.56647" lon="7.35453">
        <ele>608</ele>
        <time>2019-04-18T01:10:16Z</time>
      </trkpt>
      <trkpt lat="44.56623" lon="7.35401">
        <ele>609</ele>
        <time>2019-04-18T01:11:16Z</time>
      </trkpt>
      <trkpt lat="44.56607" lon="7.35369">
        <ele>609</ele>
        <time>2019-04-18T01:12:16Z</time>
      </trkpt>
      <trkpt lat="44.56571" lon="7.35317">
        <ele>611</ele>
        <time>2019-04-18T01:13:16Z</time>
      </trkpt>
      <trkpt lat="44.56494" lon="7.35246">
        <ele>612</ele>
        <time>2019-04-18T01:14:16Z</time>
      </trkpt>
      <trkpt lat="44.56329" lon="7.35027">
        <ele>624</ele>
        <time>2019-04-18T01:15:16Z</time>
      </trkpt>
      <trkpt lat="44.56314" lon="7.35011">
        <ele>624</ele>
        <time>2019-04-18T01:16:16Z</time>
      </trkpt>
      <trkpt lat="44.56287" lon="7.34996">
        <ele>623</ele>
        <time>2019-04-18T01:17:16Z</time>
      </trkpt>
      <trkpt lat="44.56253" lon="7.34981">
        <ele>622</ele>
        <time>2019-04-18T01:18:16Z</time>
      </trkpt>
      <trkpt lat="44.56232" lon="7.34968">
        <ele>623</ele>
        <time>2019-04-18T01:19:16Z</time>
      </trkpt>
      <trkpt lat="44.56182" lon="7.34919">
        <ele>625</ele>
        <time>2019-04-18T01:20:16Z</time>
      </trkpt>
      <trkpt lat="44.56117" lon="7.34829">
        <ele>632</ele>
        <time>2019-04-18T01:21:16Z</time>
      </trkpt>
      <trkpt lat="44.55862" lon="7.34662">
        <ele>641</ele>
        <time>2019-04-18T01:22:16Z</time>
      </trkpt>
      <trkpt lat="44.5583" lon="7.34645">
        <ele>637</ele>
        <time>2019-04-18T01:23:16Z</time>
      </trkpt>
      <trkpt lat="44.55816" lon="7.34624">
        <ele>639</ele>
        <time>2019-04-18T01:24:16Z</time>
      </trkpt>
      <trkpt lat="44.55803" lon="7.34594">
        <ele>642</ele>
        <time>2019-04-18T01:25:16Z</time>
      </trkpt>
      <trkpt lat="44.55782" lon="7.3452">
        <ele>646</ele>
        <time>2019-04-18T01:26:16Z</time>
      </trkpt>
      <trkpt lat="44.55739" lon="7.34316">
        <ele>651</ele>
        <time>2019-04-18T01:27:16Z</time>
      </trkpt>
      <trkpt lat="44.55703" lon="7.34134">
        <ele>655</ele>
        <time>2019-04-18T01:28:16Z</time>
      </trkpt>
      <trkpt lat="44.5569" lon="7.3403">
        <ele>652</ele>
        <time>2019-04-18T01:29:16Z</time>
      </trkpt>
      <trkpt lat="44.55685" lon="7.33969">
        <ele>649</ele>
        <time>2019-04-18T01:30:16Z</time>
      </trkpt>
      <trkpt lat="44.55684" lon="7.33925">
        <ele>649</ele>
        <time>2019-04-18T01:31:16Z</time>
      </trkpt>
      <trkpt lat="44.55689" lon="7.33865">
        <ele>651</ele>
        <time>2019-04-18T01:32:16Z</time>
      </trkpt>
      <trkpt lat="44.55688" lon="7.33797">
        <ele>652</ele>
        <time>2019-04-18T01:33:16Z</time>
      </trkpt>
      <trkpt lat="44.55683" lon="7.33749">
        <ele>653</ele>
        <time>2019-04-18T01:34:16Z</time>
      </trkpt>
      <trkpt lat="44.55675" lon="7.3371">
        <ele>652</ele>
        <time>2019-04-18T01:35:16Z</time>
      </trkpt>
      <trkpt lat="44.55652" lon="7.33657">
        <ele>649</ele>
        <time>2019-04-18T01:36:16Z</time>
      </trkpt>
      <trkpt lat="44.55644" lon="7.33604">
        <ele>645</ele>
        <time>2019-04-18T01:37:16Z</time>
      </trkpt>
      <trkpt lat="44.55642" lon="7.33598">
        <ele>645</ele>
        <time>2019-04-18T01:38:16Z</time>
      </trkpt>
      <trkpt lat="44.55595" lon="7.33544">
        <ele>639</ele>
        <time>2019-04-18T01:39:16Z</time>
      </trkpt>
      <trkpt lat="44.55584" lon="7.33525">
        <ele>640</ele>
        <time>2019-04-18T01:40:16Z</time>
      </trkpt>
      <trkpt lat="44.55583" lon="7.33497">
        <ele>642</ele>
        <time>2019-04-18T01:41:16Z</time>
      </trkpt>
      <trkpt lat="44.55589" lon="7.33479">
        <ele>644</ele>
        <time>2019-04-18T01:42:16Z</time>
      </trkpt>
      <trkpt lat="44.55603" lon="7.33441">
        <ele>645</ele>
        <time>2019-04-18T01:43:16Z</time>
      </trkpt>
      <trkpt lat="44.55785" lon="7.33055">
        <ele>645</ele>
        <time>2019-04-18T01:44:16Z</time>
      </trkpt>
      <trkpt lat="44.558" lon="7.33029">
        <ele>645</ele>
        <time>2019-04-18T01:45:16Z</time>
      </trkpt>
      <trkpt lat="44.55893" lon="7.32882">
        <ele>648</ele>
        <time>2019-04-18T01:46:16Z</time>
      </trkpt>
      <trkpt lat="44.56297" lon="7.3234">
        <ele>667</ele>
        <time>2019-04-18T01:47:16Z</time>
      </trkpt>
      <trkpt lat="44.56326" lon="7.32282">
        <ele>666</ele>
        <time>2019-04-18T01:48:16Z</time>
      </trkpt>
      <trkpt lat="44.56336" lon="7.32229">
        <ele>666</ele>
        <time>2019-04-18T01:49:16Z</time>
      </trkpt>
      <trkpt lat="44.56339" lon="7.32186">
        <ele>665</ele>
        <time>2019-04-18T01:50:16Z</time>
      </trkpt>
      <trkpt lat="44.5634" lon="7.3216">
        <ele>665</ele>
        <time>2019-04-18T01:51:16Z</time>
      </trkpt>
      <trkpt lat="44.56338" lon="7.32118">
        <ele>666</ele>
        <time>2019-04-18T01:52:16Z</time>
      </trkpt>
      <trkpt lat="44.56334" lon="7.32083">
        <ele>666</ele>
        <time>2019-04-18T01:53:16Z</time>
      </trkpt>
      <trkpt lat="44.56313" lon="7.31989">
        <ele>670</ele>
        <time>2019-04-18T01:54:16Z</time>
      </trkpt>
      <trkpt lat="44.56304" lon="7.31965">
        <ele>670</ele>
        <time>2019-04-18T01:55:16Z</time>
      </trkpt>
      <trkpt lat="44.56291" lon="7.31938">
        <ele>670</ele>
        <time>2019-04-18T01:56:16Z</time>
      </trkpt>
      <trkpt lat="44.56252" lon="7.31878">
        <ele>672</ele>
        <time>2019-04-18T01:57:16Z</time>
      </trkpt>
      <trkpt lat="44.56216" lon="7.31811">
        <ele>680</ele>
        <time>2019-04-18T01:58:16Z</time>
      </trkpt>
      <trkpt lat="44.56173" lon="7.31688">
        <ele>682</ele>
        <time>2019-04-18T01:59:16Z</time>
      </trkpt>
      <trkpt lat="44.5616" lon="7.31644">
        <ele>684</ele>
        <time>2019-04-18T02:00:16Z</time>
      </trkpt>
      <trkpt lat="44.56149" lon="7.31579">
        <ele>685</ele>
        <time>2019-04-18T02:01:16Z</time>
      </trkpt>
      <trkpt lat="44.56115" lon="7.31316">
        <ele>690</ele>
        <time>2019-04-18T02:02:16Z</time>
      </trkpt>
      <trkpt lat="44.56112" lon="7.31272">
        <ele>692</ele>
        <time>2019-04-18T02:03:16Z</time>
      </trkpt>
      <trkpt lat="44.56115" lon="7.31228">
        <ele>693</ele>
        <time>2019-04-18T02:04:16Z</time>
      </trkpt>
      <trkpt lat="44.56148" lon="7.31069">
        <ele>686</ele>
        <time>2019-04-18T02:05:16Z</time>
      </trkpt>
      <trkpt lat="44.56181" lon="7.3089">
        <ele>690</ele>
        <time>2019-04-18T02:06:16Z</time>
      </trkpt>
      <trkpt lat="44.56191" lon="7.30858">
        <ele>690</ele>
        <time>2019-04-18T02:07:16Z</time>
      </trkpt>
      <trkpt lat="44.56226" lon="7.30802">
        <ele>688</ele>
        <time>2019-04-18T02:08:16Z</time>
      </trkpt>
      <trkpt lat="44.56294" lon="7.30683">
        <ele>686</ele>
        <time>2019-04-18T02:09:16Z</time>
      </trkpt>
      <trkpt lat="44.56342" lon="7.30606">
        <ele>687</ele>
        <time>2019-04-18T02:10:16Z</time>
      </trkpt>
      <trkpt lat="44.56357" lon="7.30585">
        <ele>688</ele>
        <time>2019-04-18T02:11:16Z</time>
      </trkpt>
      <trkpt lat="44.5638" lon="7.3056">
        <ele>689</ele>
        <time>2019-04-18T02:12:16Z</time>
      </trkpt>
      <trkpt lat="44.56574" lon="7.30402">
        <ele>693</ele>
        <time>2019-04-18T02:13:16Z</time>
      </trkpt>
      <trkpt lat="44.56632" lon="7.30358">
        <ele>695</ele>
        <time>2019-04-18T02:14:16Z</time>
      </trkpt>
      <trkpt lat="44.56749" lon="7.30264">
        <ele>698</ele>
        <time>2019-04-18T02:15:16Z</time>
      </trkpt>
      <trkpt lat="44.56762" lon="7.3025">
        <ele>699</ele>
        <time>2019-04-18T02:16:16Z</time>
      </trkpt>
      <trkpt lat="44.56782" lon="7.30224">
        <ele>700</ele>
        <time>2019-04-18T02:17:16Z</time>
      </trkpt>
      <trkpt lat="44.56828" lon="7.30132">
        <ele>700</ele>
        <time>2019-04-18T02:18:16Z</time>
      </trkpt>
      <trkpt lat="44.56865" lon="7.30042">
        <ele>709</ele>
        <time>2019-04-18T02:19:16Z</time>
      </trkpt>
      <trkpt lat="44.56887" lon="7.3">
        <ele>709</ele>
        <time>2019-04-18T02:20:16Z</time>
      </trkpt>
      <trkpt lat="44.56945" lon="7.29863">
        <ele>717</ele>
        <time>2019-04-18T02:21:16Z</time>
      </trkpt>
      <trkpt lat="44.56966" lon="7.29782">
        <ele>717</ele>
        <time>2019-04-18T02:22:16Z</time>
      </trkpt>
      <trkpt lat="44.56982" lon="7.29711">
        <ele>716</ele>
        <time>2019-04-18T02:23:16Z</time>
      </trkpt>
      <trkpt lat="44.56981" lon="7.2966">
        <ele>716</ele>
        <time>2019-04-18T02:24:16Z</time>
      </trkpt>
      <trkpt lat="44.5691" lon="7.29335">
        <ele>712</ele>
        <time>2019-04-18T02:25:16Z</time>
      </trkpt>
      <trkpt lat="44.56893" lon="7.2913">
        <ele>717</ele>
        <time>2019-04-18T02:26:16Z</time>
      </trkpt>
      <trkpt lat="44.56878" lon="7.28921">
        <ele>727</ele>
        <time>2019-04-18T02:27:16Z</time>
      </trkpt>
      <trkpt lat="44.56875" lon="7.28835">
        <ele>735</ele>
        <time>2019-04-18T02:28:16Z</time>
      </trkpt>
      <trkpt lat="44.56896" lon="7.28701">
        <ele>742</ele>
        <time>2019-04-18T02:29:16Z</time>
      </trkpt>
      <trkpt lat="44.56913" lon="7.28572">
        <ele>744</ele>
        <time>2019-04-18T02:30:16Z</time>
      </trkpt>
      <trkpt lat="44.5692" lon="7.28559">
        <ele>741</ele>
        <time>2019-04-18T02:31:16Z</time>
      </trkpt>
      <trkpt lat="44.56932" lon="7.28551">
        <ele>739</ele>
        <time>2019-04-18T02:32:16Z</time>
      </trkpt>
      <trkpt lat="44.56956" lon="7.2855">
        <ele>734</ele>
        <time>2019-04-18T02:33:16Z</time>
      </trkpt>
      <trkpt lat="44.57042" lon="7.28555">
        <ele>726</ele>
        <time>2019-04-18T02:34:16Z</time>
      </trkpt>
      <trkpt lat="44.57063" lon="7.28555">
        <ele>727</ele>
        <time>2019-04-18T02:35:16Z</time>
      </trkpt>
      <trkpt lat="44.57099" lon="7.28538">
        <ele>732</ele>
        <time>2019-04-18T02:36:16Z</time>
      </trkpt>
      <trkpt lat="44.57124" lon="7.28516">
        <ele>739</ele>
        <time>2019-04-18T02:37:16Z</time>
      </trkpt>
      <trkpt lat="44.57136" lon="7.28492">
        <ele>741</ele>
        <time>2019-04-18T02:38:16Z</time>
      </trkpt>
      <trkpt lat="44.57143" lon="7.2847">
        <ele>743</ele>
        <time>2019-04-18T02:39:16Z</time>
      </trkpt>
      <trkpt lat="44.57171" lon="7.28237">
        <ele>742</ele>
        <time>2019-04-18T02:40:16Z</time>
      </trkpt>
      <trkpt lat="44.57194" lon="7.281">
        <ele>745</ele>
        <time>2019-04-18T02:41:16Z</time>
      </trkpt>
      <trkpt lat="44.57195" lon="7.27956">
        <ele>748</ele>
        <time>2019-04-18T02:42:16Z</time>
      </trkpt>
      <trkpt lat="44.57193" lon="7.27933">
        <ele>749</ele>
        <time>2019-04-18T02:43:16Z</time>
      </trkpt>
      <trkpt lat="44.57183" lon="7.27896">
        <ele>749</ele>
        <time>2019-04-18T02:44:16Z</time>
      </trkpt>
      <trkpt lat="44.57156" lon="7.27809">
        <ele>750</ele>
        <time>2019-04-18T02:45:16Z</time>
      </trkpt>
      <trkpt lat="44.57153" lon="7.27792">
        <ele>751</ele>
        <time>2019-04-18T02:46:16Z</time>
      </trkpt>
      <trkpt lat="44.57144" lon="7.27701">
        <ele>752</ele>
        <time>2019-04-18T02:47:16Z</time>
      </trkpt>
      <trkpt lat="44.57138" lon="7.27666">
        <ele>752</ele>
        <time>2019-04-18T02:48:16Z</time>
      </trkpt>
      <trkpt lat="44.57131" lon="7.27641">
        <ele>752</ele>
        <time>2019-04-18T02:49:16Z</time>
      </trkpt>
      <trkpt lat="44.57119" lon="7.27617">
        <ele>752</ele>
        <time>2019-04-18T02:50:16Z</time>
      </trkpt>
      <trkpt lat="44.57058" lon="7.27525">
        <ele>751</ele>
        <time>2019-04-18T02:51:16Z</time>
      </trkpt>
      <trkpt lat="44.57049" lon="7.27508">
        <ele>751</ele>
        <time>2019-04-18T02:52:16Z</time>
      </trkpt>
      <trkpt lat="44.57044" lon="7.2749">
        <ele>751</ele>
        <time>2019-04-18T02:53:16Z</time>
      </trkpt>
      <trkpt lat="44.57042" lon="7.27465">
        <ele>751</ele>
        <time>2019-04-18T02:54:16Z</time>
      </trkpt>
      <trkpt lat="44.57046" lon="7.27356">
        <ele>753</ele>
        <time>2019-04-18T02:55:16Z</time>
      </trkpt>
      <trkpt lat="44.57054" lon="7.27235">
        <ele>758</ele>
        <time>2019-04-18T02:56:16Z</time>
      </trkpt>
      <trkpt lat="44.57061" lon="7.27213">
        <ele>758</ele>
        <time>2019-04-18T02:57:16Z</time>
      </trkpt>
      <trkpt lat="44.57114" lon="7.27106">
        <ele>763</ele>
        <time>2019-04-18T02:58:16Z</time>
      </trkpt>
      <trkpt lat="44.57131" lon="7.27054">
        <ele>764</ele>
        <time>2019-04-18T02:59:16Z</time>
      </trkpt>
      <trkpt lat="44.57147" lon="7.26982">
        <ele>764</ele>
        <time>2019-04-18T03:00:16Z</time>
      </trkpt>
      <trkpt lat="44.57158" lon="7.26923">
        <ele>763</ele>
        <time>2019-04-18T03:01:16Z</time>
      </trkpt>
      <trkpt lat="44.5716" lon="7.26901">
        <ele>763</ele>
        <time>2019-04-18T03:02:16Z</time>
      </trkpt>
      <trkpt lat="44.5716" lon="7.26882">
        <ele>763</ele>
        <time>2019-04-18T03:03:16Z</time>
      </trkpt>
      <trkpt lat="44.57156" lon="7.26844">
        <ele>762</ele>
        <time>2019-04-18T03:04:16Z</time>
      </trkpt>
      <trkpt lat="44.57131" lon="7.26641">
        <ele>768</ele>
        <time>2019-04-18T03:05:16Z</time>
      </trkpt>
      <trkpt lat="44.57112" lon="7.26516">
        <ele>774</ele>
        <time>2019-04-18T03:06:16Z</time>
      </trkpt>
      <trkpt lat="44.57109" lon="7.26478">
        <ele>774</ele>
        <time>2019-04-18T03:07:16Z</time>
      </trkpt>
      <trkpt lat="44.57108" lon="7.26418">
        <ele>773</ele>
        <time>2019-04-18T03:08:16Z</time>
      </trkpt>
      <trkpt lat="44.57135" lon="7.26181">
        <ele>779</ele>
        <time>2019-04-18T03:09:16Z</time>
      </trkpt>
      <trkpt lat="44.57155" lon="7.26003">
        <ele>775</ele>
        <time>2019-04-18T03:10:16Z</time>
      </trkpt>
      <trkpt lat="44.57155" lon="7.2598">
        <ele>776</ele>
        <time>2019-04-18T03:11:16Z</time>
      </trkpt>
      <trkpt lat="44.57153" lon="7.2595">
        <ele>778</ele>
        <time>2019-04-18T03:12:16Z</time>
      </trkpt>
      <trkpt lat="44.5714" lon="7.25908">
        <ele>780</ele>
        <time>2019-04-18T03:13:16Z</time>
      </trkpt>
      <trkpt lat="44.5703" lon="7.25731">
        <ele>784</ele>
        <time>2019-04-18T03:14:16Z</time>
      </trkpt>
      <trkpt lat="44.56979" lon="7.25653">
        <ele>784</ele>
        <time>2019-04-18T03:15:16Z</time>
      </trkpt>
      <trkpt lat="44.5697" lon="7.25636">
        <ele>784</ele>
        <time>2019-04-18T03:16:16Z</time>
      </trkpt>
      <trkpt lat="44.5696" lon="7.25608">
        <ele>784</ele>
        <time>2019-04-18T03:17:16Z</time>
      </trkpt>
      <trkpt lat="44.56951" lon="7.25567">
        <ele>785</ele>
        <time>2019-04-18T03:18:16Z</time>
      </trkpt>
      <trkpt lat="44.5695" lon="7.25549">
        <ele>785</ele>
        <time>2019-04-18T03:19:16Z</time>
      </trkpt>
      <trkpt lat="44.56951" lon="7.25527">
        <ele>786</ele>
        <time>2019-04-18T03:20:16Z</time>
      </trkpt>
      <trkpt lat="44.56957" lon="7.25509">
        <ele>787</ele>
        <time>2019-04-18T03:21:16Z</time>
      </trkpt>
      <trkpt lat="44.56999" lon="7.25424">
        <ele>786</ele>
        <time>2019-04-18T03:22:16Z</time>
      </trkpt>
      <trkpt lat="44.571" lon="7.25229">
        <ele>798</ele>
        <time>2019-04-18T03:23:16Z</time>
      </trkpt>
      <trkpt lat="44.5722" lon="7.24923">
        <ele>803</ele>
        <time>2019-04-18T03:24:16Z</time>
      </trkpt>
      <trkpt lat="44.57266" lon="7.24796">
        <ele>808</ele>
        <time>2019-04-18T03:25:16Z</time>
      </trkpt>
      <trkpt lat="44.57286" lon="7.24708">
        <ele>810</ele>
        <time>2019-04-18T03:26:16Z</time>
      </trkpt>
      <trkpt lat="44.57347" lon="7.24317">
        <ele>821</ele>
        <time>2019-04-18T03:27:16Z</time>
      </trkpt>
      <trkpt lat="44.57351" lon="7.24265">
        <ele>824</ele>
        <time>2019-04-18T03:28:16Z</time>
      </trkpt>
      <trkpt lat="44.5735" lon="7.23713">
        <ele>820</ele>
        <time>2019-04-18T03:29:16Z</time>
      </trkpt>
      <trkpt lat="44.57334" lon="7.23392">
        <ele>825</ele>
        <time>2019-04-18T03:30:16Z</time>
      </trkpt>
      <trkpt lat="44.57338" lon="7.23236">
        <ele>824</ele>
        <time>2019-04-18T03:31:16Z</time>
      </trkpt>
      <trkpt lat="44.57335" lon="7.23174">
        <ele>826</ele>
        <time>2019-04-18T03:32:16Z</time>
      </trkpt>
      <trkpt lat="44.57328" lon="7.23125">
        <ele>826</ele>
        <time>2019-04-18T03:33:16Z</time>
      </trkpt>
      <trkpt lat="44.57267" lon="7.22795">
        <ele>836</ele>
        <time>2019-04-18T03:34:16Z</time>
      </trkpt>
      <trkpt lat="44.57265" lon="7.22723">
        <ele>840</ele>
        <time>2019-04-18T03:35:16Z</time>
      </trkpt>
      <trkpt lat="44.57273" lon="7.22625">
        <ele>844</ele>
        <time>2019-04-18T03:36:16Z</time>
      </trkpt>
      <trkpt lat="44.57291" lon="7.22521">
        <ele>848</ele>
        <time>2019-04-18T03:37:16Z</time>
      </trkpt>
      <trkpt lat="44.57306" lon="7.22484">
        <ele>849</ele>
        <time>2019-04-18T03:38:16Z</time>
      </trkpt>
      <trkpt lat="44.57322" lon="7.22449">
        <ele>848</ele>
        <time>2019-04-18T03:39:16Z</time>
      </trkpt>
      <trkpt lat="44.57467" lon="7.22196">
        <ele>857</ele>
        <time>2019-04-18T03:40:16Z</time>
      </trkpt>
      <trkpt lat="44.576" lon="7.21941">
        <ele>859</ele>
        <time>2019-04-18T03:41:16Z</time>
      </trkpt>
      <trkpt lat="44.57653" lon="7.21847">
        <ele>871</ele>
        <time>2019-04-18T03:42:16Z</time>
      </trkpt>
      <trkpt lat="44.5766" lon="7.21833">
        <ele>872</ele>
        <time>2019-04-18T03:43:16Z</time>
      </trkpt>
      <trkpt lat="44.57683" lon="7.21758">
        <ele>879</ele>
        <time>2019-04-18T03:44:16Z</time>
      </trkpt>
      <trkpt lat="44.57692" lon="7.21716">
        <ele>879</ele>
        <time>2019-04-18T03:45:16Z</time>
      </trkpt>
      <trkpt lat="44.57698" lon="7.21636">
        <ele>878</ele>
        <time>2019-04-18T03:46:16Z</time>
      </trkpt>
      <trkpt lat="44.5769" lon="7.21497">
        <ele>879</ele>
        <time>2019-04-18T03:47:16Z</time>
      </trkpt>
      <trkpt lat="44.57688" lon="7.21433">
        <ele>881</ele>
        <time>2019-04-18T03:48:16Z</time>
      </trkpt>
      <trkpt lat="44.57696" lon="7.21303">
        <ele>888</ele>
        <time>2019-04-18T03:49:16Z</time>
      </trkpt>
      <trkpt lat="44.57732" lon="7.2096">
        <ele>906</ele>
        <time>2019-04-18T03:50:16Z</time>
      </trkpt>
      <trkpt lat="44.57771" lon="7.20757">
        <ele>914</ele>
        <time>2019-04-18T03:51:16Z</time>
      </trkpt>
      <trkpt lat="44.57782" lon="7.20648">
        <ele>918</ele>
        <time>2019-04-18T03:52:16Z</time>
      </trkpt>
      <trkpt lat="44.57785" lon="7.20377">
        <ele>922</ele>
        <time>2019-04-18T03:53:16Z</time>
      </trkpt>
      <trkpt lat="44.57782" lon="7.20328">
        <ele>923</ele>
        <time>2019-04-18T03:54:16Z</time>
      </trkpt>
      <trkpt lat="44.57748" lon="7.20114">
        <ele>928</ele>
        <time>2019-04-18T03:55:16Z</time>
      </trkpt>
      <trkpt lat="44.57711" lon="7.19863">
        <ele>938</ele>
        <time>2019-04-18T03:56:16Z</time>
      </trkpt>
      <trkpt lat="44.57708" lon="7.19849">
        <ele>938</ele>
        <time>2019-04-18T03:57:16Z</time>
      </trkpt>
      <trkpt lat="44.57699" lon="7.19834">
        <ele>938</ele>
        <time>2019-04-18T03:58:16Z</time>
      </trkpt>
      <trkpt lat="44.57688" lon="7.19824">
        <ele>937</ele>
        <time>2019-04-18T03:59:16Z</time>
      </trkpt>
      <trkpt lat="44.57627" lon="7.19782">
        <ele>933</ele>
        <time>2019-04-18T04:00:16Z</time>
      </trkpt>
      <trkpt lat="44.57611" lon="7.19764">
        <ele>932</ele>
        <time>2019-04-18T04:01:16Z</time>
      </trkpt>
      <trkpt lat="44.57575" lon="7.19711">
        <ele>931</ele>
        <time>2019-04-18T04:02:16Z</time>
      </trkpt>
      <trkpt lat="44.57563" lon="7.1969">
        <ele>931</ele>
        <time>2019-04-18T04:03:16Z</time>
      </trkpt>
      <trkpt lat="44.57556" lon="7.19666">
        <ele>932</ele>
        <time>2019-04-18T04:04:16Z</time>
      </trkpt>
      <trkpt lat="44.57553" lon="7.19637">
        <ele>932</ele>
        <time>2019-04-18T04:05:16Z</time>
      </trkpt>
      <trkpt lat="44.57557" lon="7.19572">
        <ele>933</ele>
        <time>2019-04-18T04:06:16Z</time>
      </trkpt>
      <trkpt lat="44.57566" lon="7.19484">
        <ele>937</ele>
        <time>2019-04-18T04:07:16Z</time>
      </trkpt>
      <trkpt lat="44.57568" lon="7.19413">
        <ele>943</ele>
        <time>2019-04-18T04:08:16Z</time>
      </trkpt>
      <trkpt lat="44.57594" lon="7.19276">
        <ele>943</ele>
        <time>2019-04-18T04:09:16Z</time>
      </trkpt>
      <trkpt lat="44.57606" lon="7.19226">
        <ele>945</ele>
        <time>2019-04-18T04:10:16Z</time>
      </trkpt>
      <trkpt lat="44.57619" lon="7.19197">
        <ele>946</ele>
        <time>2019-04-18T04:11:16Z</time>
      </trkpt>
      <trkpt lat="44.57679" lon="7.1909">
        <ele>951</ele>
        <time>2019-04-18T04:12:16Z</time>
      </trkpt>
      <trkpt lat="44.5773" lon="7.19003">
        <ele>956</ele>
        <time>2019-04-18T04:13:16Z</time>
      </trkpt>
      <trkpt lat="44.57765" lon="7.18936">
        <ele>955</ele>
        <time>2019-04-18T04:14:16Z</time>
      </trkpt>
      <trkpt lat="44.57783" lon="7.18886">
        <ele>957</ele>
        <time>2019-04-18T04:15:16Z</time>
      </trkpt>
      <trkpt lat="44.57884" lon="7.18501">
        <ele>972</ele>
        <time>2019-04-18T04:16:16Z</time>
      </trkpt>
      <trkpt lat="44.57895" lon="7.18464">
        <ele>973</ele>
        <time>2019-04-18T04:17:16Z</time>
      </trkpt>
      <trkpt lat="44.57929" lon="7.1838">
        <ele>977</ele>
        <time>2019-04-18T04:18:16Z</time>
      </trkpt>
      <trkpt lat="44.57988" lon="7.18247">
        <ele>980</ele>
        <time>2019-04-18T04:19:16Z</time>
      </trkpt>
      <trkpt lat="44.57995" lon="7.18237">
        <ele>980</ele>
        <time>2019-04-18T04:20:16Z</time>
      </trkpt>
      <trkpt lat="44.57998" lon="7.18237">
        <ele>981</ele>
        <time>2019-04-18T04:21:16Z</time>
      </trkpt>
      <trkpt lat="44.58" lon="7.18236">
        <ele>981</ele>
        <time>2019-04-18T04:22:16Z</time>
      </trkpt>
      <trkpt lat="44.58" lon="7.1823">
        <ele>981</ele>
        <time>2019-04-18T04:23:16Z</time>
      </trkpt>
      <trkpt lat="44.57998" lon="7.18228">
        <ele>981</ele>
        <time>2019-04-18T04:24:16Z</time>
      </trkpt>
      <trkpt lat="44.58002" lon="7.18215">
        <ele>981</ele>
        <time>2019-04-18T04:25:16Z</time>
      </trkpt>
      <trkpt lat="44.58043" lon="7.18106">
        <ele>989</ele>
        <time>2019-04-18T04:26:16Z</time>
      </trkpt>
      <trkpt lat="44.5805" lon="7.1808">
        <ele>992</ele>
        <time>2019-04-18T04:27:16Z</time>
      </trkpt>
      <trkpt lat="44.58054" lon="7.18054">
        <ele>993</ele>
        <time>2019-04-18T04:28:16Z</time>
      </trkpt>
      <trkpt lat="44.58064" lon="7.17934">
        <ele>994</ele>
        <time>2019-04-18T04:29:16Z</time>
      </trkpt>
      <trkpt lat="44.58075" lon="7.17755">
        <ele>988</ele>
        <time>2019-04-18T04:30:16Z</time>
      </trkpt>
      <trkpt lat="44.5808" lon="7.17719">
        <ele>986</ele>
        <time>2019-04-18T04:31:16Z</time>
      </trkpt>
      <trkpt lat="44.58095" lon="7.17638">
        <ele>985</ele>
        <time>2019-04-18T04:32:16Z</time>
      </trkpt>
      <trkpt lat="44.58177" lon="7.17271">
        <ele>991</ele>
        <time>2019-04-18T04:33:16Z</time>
      </trkpt>
      <trkpt lat="44.58187" lon="7.17208">
        <ele>993</ele>
        <time>2019-04-18T04:34:16Z</time>
      </trkpt>
      <trkpt lat="44.58191" lon="7.17147">
        <ele>993</ele>
        <time>2019-04-18T04:35:16Z</time>
      </trkpt>
      <trkpt lat="44.58179" lon="7.17044">
        <ele>990</ele>
        <time>2019-04-18T04:36:16Z</time>
      </trkpt>
      <trkpt lat="44.58189" lon="7.16908">
        <ele>992</ele>
        <time>2019-04-18T04:37:16Z</time>
      </trkpt>
      <trkpt lat="44.5819" lon="7.16868">
        <ele>993</ele>
        <time>2019-04-18T04:38:16Z</time>
      </trkpt>
      <trkpt lat="44.58176" lon="7.16812">
        <ele>993</ele>
        <time>2019-04-18T04:39:16Z</time>
      </trkpt>
      <trkpt lat="44.58099" lon="7.16553">
        <ele>996</ele>
        <time>2019-04-18T04:40:16Z</time>
      </trkpt>
      <trkpt lat="44.58064" lon="7.16464">
        <ele>1003</ele>
        <time>2019-04-18T04:41:16Z</time>
      </trkpt>
      <trkpt lat="44.5804" lon="7.1642">
        <ele>1005</ele>
        <time>2019-04-18T04:42:16Z</time>
      </trkpt>
      <trkpt lat="44.58011" lon="7.16378">
        <ele>1008</ele>
        <time>2019-04-18T04:43:16Z</time>
      </trkpt>
      <trkpt lat="44.57977" lon="7.16336">
        <ele>1011</ele>
        <time>2019-04-18T04:44:16Z</time>
      </trkpt>
      <trkpt lat="44.57968" lon="7.16319">
        <ele>1011</ele>
        <time>2019-04-18T04:45:16Z</time>
      </trkpt>
      <trkpt lat="44.57957" lon="7.16285">
        <ele>1013</ele>
        <time>2019-04-18T04:46:16Z</time>
      </trkpt>
      <trkpt lat="44.57944" lon="7.16218">
        <ele>1015</ele>
        <time>2019-04-18T04:47:16Z</time>
      </trkpt>
      <trkpt lat="44.57941" lon="7.16113">
        <ele>1017</ele>
        <time>2019-04-18T04:48:16Z</time>
      </trkpt>
      <trkpt lat="44.57935" lon="7.16039">
        <ele>1017</ele>
        <time>2019-04-18T04:49:16Z</time>
      </trkpt>
      <trkpt lat="44.57912" lon="7.15931">
        <ele>1018</ele>
        <time>2019-04-18T04:50:16Z</time>
      </trkpt>
      <trkpt lat="44.57911" lon="7.15878">
        <ele>1020</ele>
        <time>2019-04-18T04:51:16Z</time>
      </trkpt>
      <trkpt lat="44.57917" lon="7.15832">
        <ele>1020</ele>
        <time>2019-04-18T04:52:16Z</time>
      </trkpt>
      <trkpt lat="44.57938" lon="7.1572">
        <ele>1022</ele>
        <time>2019-04-18T04:53:16Z</time>
      </trkpt>
      <trkpt lat="44.57979" lon="7.15528">
        <ele>1029</ele>
        <time>2019-04-18T04:54:16Z</time>
      </trkpt>
      <trkpt lat="44.58055" lon="7.15113">
        <ele>1034</ele>
        <time>2019-04-18T04:55:16Z</time>
      </trkpt>
      <trkpt lat="44.58056" lon="7.15089">
        <ele>1035</ele>
        <time>2019-04-18T04:56:16Z</time>
      </trkpt>
      <trkpt lat="44.58056" lon="7.15064">
        <ele>1036</ele>
        <time>2019-04-18T04:57:16Z</time>
      </trkpt>
      <trkpt lat="44.58048" lon="7.14958">
        <ele>1040</ele>
        <time>2019-04-18T04:58:16Z</time>
      </trkpt>
      <trkpt lat="44.58049" lon="7.14907">
        <ele>1043</ele>
        <time>2019-04-18T04:59:16Z</time>
      </trkpt>
      <trkpt lat="44.58058" lon="7.14842">
        <ele>1048</ele>
        <time>2019-04-18T05:00:16Z</time>
      </trkpt>
      <trkpt lat="44.58073" lon="7.14795">
        <ele>1046</ele>
        <time>2019-04-18T05:01:16Z</time>
      </trkpt>
      <trkpt lat="44.58161" lon="7.14635">
        <ele>1049</ele>
        <time>2019-04-18T05:02:16Z</time>
      </trkpt>
      <trkpt lat="44.5817" lon="7.14614">
        <ele>1049</ele>
        <time>2019-04-18T05:03:16Z</time>
      </trkpt>
      <trkpt lat="44.58243" lon="7.14364">
        <ele>1060</ele>
        <time>2019-04-18T05:04:16Z</time>
      </trkpt>
      <trkpt lat="44.58271" lon="7.14261">
        <ele>1069</ele>
        <time>2019-04-18T05:05:16Z</time>
      </trkpt>
      <trkpt lat="44.58275" lon="7.14231">
        <ele>1071</ele>
        <time>2019-04-18T05:06:16Z</time>
      </trkpt>
      <trkpt lat="44.58273" lon="7.14203">
        <ele>1072</ele>
        <time>2019-04-18T05:07:16Z</time>
      </trkpt>
      <trkpt lat="44.58197" lon="7.13962">
        <ele>1079</ele>
        <time>2019-04-18T05:08:16Z</time>
      </trkpt>
      <trkpt lat="44.58166" lon="7.13733">
        <ele>1094</ele>
        <time>2019-04-18T05:09:16Z</time>
      </trkpt>
      <trkpt lat="44.58161" lon="7.13711">
        <ele>1099</ele>
        <time>2019-04-18T05:10:16Z</time>
      </trkpt>
      <trkpt lat="44.58144" lon="7.13654">
        <ele>1106</ele>
        <time>2019-04-18T05:11:16Z</time>
      </trkpt>
      <trkpt lat="44.58139" lon="7.13604">
        <ele>1105</ele>
        <time>2019-04-18T05:12:16Z</time>
      </trkpt>
      <trkpt lat="44.58142" lon="7.13529">
        <ele>1105</ele>
        <time>2019-04-18T05:13:16Z</time>
      </trkpt>
      <trkpt lat="44.58146" lon="7.1348">
        <ele>1105</ele>
        <time>2019-04-18T05:14:16Z</time>
      </trkpt>
      <trkpt lat="44.58153" lon="7.13454">
        <ele>1104</ele>
        <time>2019-04-18T05:15:16Z</time>
      </trkpt>
      <trkpt lat="44.58166" lon="7.13427">
        <ele>1101</ele>
        <time>2019-04-18T05:16:16Z</time>
      </trkpt>
      <trkpt lat="44.58219" lon="7.13338">
        <ele>1110</ele>
        <time>2019-04-18T05:17:16Z</time>
      </trkpt>
      <trkpt lat="44.58225" lon="7.13324">
        <ele>1111</ele>
        <time>2019-04-18T05:18:16Z</time>
      </trkpt>
      <trkpt lat="44.58234" lon="7.13295">
        <ele>1113</ele>
        <time>2019-04-18T05:19:16Z</time>
      </trkpt>
      <trkpt lat="44.58236" lon="7.13267">
        <ele>1113</ele>
        <time>2019-04-18T05:20:16Z</time>
      </trkpt>
      <trkpt lat="44.58229" lon="7.13214">
        <ele>1115</ele>
        <time>2019-04-18T05:21:16Z</time>
      </trkpt>
      <trkpt lat="44.58224" lon="7.13152">
        <ele>1119</ele>
        <time>2019-04-18T05:22:16Z</time>
      </trkpt>
      <trkpt lat="44.58228" lon="7.13106">
        <ele>1122</ele>
        <time>2019-04-18T05:23:16Z</time>
      </trkpt>
      <trkpt lat="44.58247" lon="7.13047">
        <ele>1122</ele>
        <time>2019-04-18T05:24:16Z</time>
      </trkpt>
      <trkpt lat="44.58248" lon="7.13015">
        <ele>1122</ele>
        <time>2019-04-18T05:25:16Z</time>
      </trkpt>
      <trkpt lat="44.58245" lon="7.1298">
        <ele>1124</ele>
        <time>2019-04-18T05:26:16Z</time>
      </trkpt>
      <trkpt lat="44.58235" lon="7.12923">
        <ele>1129</ele>
        <time>2019-04-18T05:27:16Z</time>
      </trkpt>
      <trkpt lat="44.58234" lon="7.12901">
        <ele>1129</ele>
        <time>2019-04-18T05:28:16Z</time>
      </trkpt>
      <trkpt lat="44.58238" lon="7.12876">
        <ele>1127</ele>
        <time>2019-04-18T05:29:16Z</time>
      </trkpt>
      <trkpt lat="44.58262" lon="7.12811">
        <ele>1124</ele>
        <time>2019-04-18T05:30:16Z</time>
      </trkpt>
      <trkpt lat="44.58276" lon="7.12762">
        <ele>1124</ele>
        <time>2019-04-18T05:31:16Z</time>
      </trkpt>
      <trkpt lat="44.58286" lon="7.12681">
        <ele>1125</ele>
        <time>2019-04-18T05:32:16Z</time>
      </trkpt>
      <trkpt lat="44.58308" lon="7.1247">
        <ele>1128</ele>
        <time>2019-04-18T05:33:16Z</time>
      </trkpt>
      <trkpt lat="44.58319" lon="7.12418">
        <ele>1127</ele>
        <time>2019-04-18T05:34:16Z</time>
      </trkpt>
      <trkpt lat="44.58366" lon="7.12246">
        <ele>1130</ele>
        <time>2019-04-18T05:35:16Z</time>
      </trkpt>
      <trkpt lat="44.58378" lon="7.12194">
        <ele>1133</ele>
        <time>2019-04-18T05:36:16Z</time>
      </trkpt>
      <trkpt lat="44.58382" lon="7.12148">
        <ele>1133</ele>
        <time>2019-04-18T05:37:16Z</time>
      </trkpt>
      <trkpt lat="44.58383" lon="7.12097">
        <ele>1134</ele>
        <time>2019-04-18T05:38:16Z</time>
      </trkpt>
      <trkpt lat="44.58376" lon="7.12045">
        <ele>1135</ele>
        <time>2019-04-18T05:39:16Z</time>
      </trkpt>
      <trkpt lat="44.58334" lon="7.11845">
        <ele>1132</ele>
        <time>2019-04-18T05:40:16Z</time>
      </trkpt>
      <trkpt lat="44.58317" lon="7.1175">
        <ele>1134</ele>
        <time>2019-04-18T05:41:16Z</time>
      </trkpt>
      <trkpt lat="44.58311" lon="7.11685">
        <ele>1136</ele>
        <time>2019-04-18T05:42:16Z</time>
      </trkpt>
      <trkpt lat="44.58312" lon="7.11623">
        <ele>1138</ele>
        <time>2019-04-18T05:43:16Z</time>
      </trkpt>
      <trkpt lat="44.58318" lon="7.11529">
        <ele>1137</ele>
        <time>2019-04-18T05:44:16Z</time>
      </trkpt>
      <trkpt lat="44.58331" lon="7.11381">
        <ele>1135</ele>
        <time>2019-04-18T05:45:16Z</time>
      </trkpt>
      <trkpt lat="44.58375" lon="7.10871">
        <ele>1150</ele>
        <time>2019-04-18T05:46:16Z</time>
      </trkpt>
      <trkpt lat="44.58384" lon="7.10781">
        <ele>1150</ele>
        <time>2019-04-18T05:47:16Z</time>
      </trkpt>
      <trkpt lat="44.58397" lon="7.10614">
        <ele>1154</ele>
        <time>2019-04-18T05:48:16Z</time>
      </trkpt>
      <trkpt lat="44.58398" lon="7.10562">
        <ele>1155</ele>
        <time>2019-04-18T05:49:16Z</time>
      </trkpt>
      <trkpt lat="44.58396" lon="7.10523">
        <ele>1154</ele>
        <time>2019-04-18T05:50:16Z</time>
      </trkpt>
      <trkpt lat="44.58343" lon="7.0997">
        <ele>1184</ele>
        <time>2019-04-18T05:51:16Z</time>
      </trkpt>
      <trkpt lat="44.58337" lon="7.09896">
        <ele>1181</ele>
        <time>2019-04-18T05:52:16Z</time>
      </trkpt>
      <trkpt lat="44.5834" lon="7.09795">
        <ele>1179</ele>
        <time>2019-04-18T05:53:16Z</time>
      </trkpt>
      <trkpt lat="44.58372" lon="7.09286">
        <ele>1198</ele>
        <time>2019-04-18T05:54:16Z</time>
      </trkpt>
      <trkpt lat="44.5837" lon="7.0924">
        <ele>1199</ele>
        <time>2019-04-18T05:55:16Z</time>
      </trkpt>
      <trkpt lat="44.58341" lon="7.09053">
        <ele>1195</ele>
        <time>2019-04-18T05:56:16Z</time>
      </trkpt>
      <trkpt lat="44.58339" lon="7.0899">
        <ele>1196</ele>
        <time>2019-04-18T05:57:16Z</time>
      </trkpt>
      <trkpt lat="44.58342" lon="7.08953">
        <ele>1197</ele>
        <time>2019-04-18T05:58:16Z</time>
      </trkpt>
      <trkpt lat="44.58353" lon="7.0892">
        <ele>1199</ele>
        <time>2019-04-18T05:59:16Z</time>
      </trkpt>
      <trkpt lat="44.58368" lon="7.08883">
        <ele>1201</ele>
        <time>2019-04-18T06:00:16Z</time>
      </trkpt>
      <trkpt lat="44.58476" lon="7.08755">
        <ele>1219</ele>
        <time>2019-04-18T06:01:16Z</time>
      </trkpt>
      <trkpt lat="44.58485" lon="7.0875">
        <ele>1221</ele>
        <time>2019-04-18T06:02:16Z</time>
      </trkpt>
      <trkpt lat="44.58495" lon="7.08751">
        <ele>1224</ele>
        <time>2019-04-18T06:03:16Z</time>
      </trkpt>
      <trkpt lat="44.58501" lon="7.08761">
        <ele>1226</ele>
        <time>2019-04-18T06:04:16Z</time>
      </trkpt>
      <trkpt lat="44.58498" lon="7.08782">
        <ele>1225</ele>
        <time>2019-04-18T06:05:16Z</time>
      </trkpt>
      <trkpt lat="44.58476" lon="7.08826">
        <ele>1219</ele>
        <time>2019-04-18T06:06:16Z</time>
      </trkpt>
      <trkpt lat="44.58464" lon="7.08854">
        <ele>1217</ele>
        <time>2019-04-18T06:07:16Z</time>
      </trkpt>
      <trkpt lat="44.58459" lon="7.0887">
        <ele>1217</ele>
        <time>2019-04-18T06:08:16Z</time>
      </trkpt>
      <trkpt lat="44.58456" lon="7.08919">
        <ele>1218</ele>
        <time>2019-04-18T06:09:16Z</time>
      </trkpt>
      <trkpt lat="44.58457" lon="7.08951">
        <ele>1221</ele>
        <time>2019-04-18T06:10:16Z</time>
      </trkpt>
      <trkpt lat="44.5846" lon="7.08982">
        <ele>1224</ele>
        <time>2019-04-18T06:11:16Z</time>
      </trkpt>
      <trkpt lat="44.58463" lon="7.08994">
        <ele>1225</ele>
        <time>2019-04-18T06:12:16Z</time>
      </trkpt>
      <trkpt lat="44.58467" lon="7.09">
        <ele>1226</ele>
        <time>2019-04-18T06:13:16Z</time>
      </trkpt>
      <trkpt lat="44.58477" lon="7.09004">
        <ele>1229</ele>
        <time>2019-04-18T06:14:16Z</time>
      </trkpt>
      <trkpt lat="44.58484" lon="7.09001">
        <ele>1230</ele>
        <time>2019-04-18T06:15:16Z</time>
      </trkpt>
      <trkpt lat="44.58488" lon="7.08996">
        <ele>1231</ele>
        <time>2019-04-18T06:16:16Z</time>
      </trkpt>
      <trkpt lat="44.58491" lon="7.08987">
        <ele>1231</ele>
        <time>2019-04-18T06:17:16Z</time>
      </trkpt>
      <trkpt lat="44.58498" lon="7.08944">
        <ele>1229</ele>
        <time>2019-04-18T06:18:16Z</time>
      </trkpt>
      <trkpt lat="44.58504" lon="7.08919">
        <ele>1229</ele>
        <time>2019-04-18T06:19:16Z</time>
      </trkpt>
      <trkpt lat="44.5853" lon="7.0885">
        <ele>1240</ele>
        <time>2019-04-18T06:20:16Z</time>
      </trkpt>
      <trkpt lat="44.58534" lon="7.08845">
        <ele>1241</ele>
        <time>2019-04-18T06:21:16Z</time>
      </trkpt>
      <trkpt lat="44.58544" lon="7.08844">
        <ele>1246</ele>
        <time>2019-04-18T06:22:16Z</time>
      </trkpt>
      <trkpt lat="44.58552" lon="7.08851">
        <ele>1250</ele>
        <time>2019-04-18T06:23:16Z</time>
      </trkpt>
      <trkpt lat="44.58553" lon="7.08856">
        <ele>1250</ele>
        <time>2019-04-18T06:24:16Z</time>
      </trkpt>
      <trkpt lat="44.58552" lon="7.0887">
        <ele>1250</ele>
        <time>2019-04-18T06:25:16Z</time>
      </trkpt>
      <trkpt lat="44.58535" lon="7.08939">
        <ele>1244</ele>
        <time>2019-04-18T06:26:16Z</time>
      </trkpt>
      <trkpt lat="44.58533" lon="7.08953">
        <ele>1244</ele>
        <time>2019-04-18T06:27:16Z</time>
      </trkpt>
      <trkpt lat="44.58535" lon="7.08962">
        <ele>1245</ele>
        <time>2019-04-18T06:28:16Z</time>
      </trkpt>
      <trkpt lat="44.5854" lon="7.08966">
        <ele>1247</ele>
        <time>2019-04-18T06:29:16Z</time>
      </trkpt>
      <trkpt lat="44.58547" lon="7.08967">
        <ele>1250</ele>
        <time>2019-04-18T06:30:16Z</time>
      </trkpt>
      <trkpt lat="44.58553" lon="7.08963">
        <ele>1252</ele>
        <time>2019-04-18T06:31:16Z</time>
      </trkpt>
      <trkpt lat="44.58559" lon="7.08952">
        <ele>1254</ele>
        <time>2019-04-18T06:32:16Z</time>
      </trkpt>
      <trkpt lat="44.58563" lon="7.08936">
        <ele>1256</ele>
        <time>2019-04-18T06:33:16Z</time>
      </trkpt>
      <trkpt lat="44.5857" lon="7.08871">
        <ele>1258</ele>
        <time>2019-04-18T06:34:16Z</time>
      </trkpt>
      <trkpt lat="44.58571" lon="7.088">
        <ele>1264</ele>
        <time>2019-04-18T06:35:16Z</time>
      </trkpt>
      <trkpt lat="44.58533" lon="7.08565">
        <ele>1270</ele>
        <time>2019-04-18T06:36:16Z</time>
      </trkpt>
      <trkpt lat="44.58518" lon="7.08514">
        <ele>1262</ele>
        <time>2019-04-18T06:37:16Z</time>
      </trkpt>
      <trkpt lat="44.58515" lon="7.08473">
        <ele>1261</ele>
        <time>2019-04-18T06:38:16Z</time>
      </trkpt>
      <trkpt lat="44.58517" lon="7.08451">
        <ele>1261</ele>
        <time>2019-04-18T06:39:16Z</time>
      </trkpt>
      <trkpt lat="44.58539" lon="7.08372">
        <ele>1271</ele>
        <time>2019-04-18T06:40:16Z</time>
      </trkpt>
      <trkpt lat="44.58547" lon="7.0834">
        <ele>1275</ele>
        <time>2019-04-18T06:41:16Z</time>
      </trkpt>
      <trkpt lat="44.58551" lon="7.08313">
        <ele>1278</ele>
        <time>2019-04-18T06:42:16Z</time>
      </trkpt>
      <trkpt lat="44.58554" lon="7.0828">
        <ele>1281</ele>
        <time>2019-04-18T06:43:16Z</time>
      </trkpt>
      <trkpt lat="44.58552" lon="7.08247">
        <ele>1282</ele>
        <time>2019-04-18T06:44:16Z</time>
      </trkpt>
      <trkpt lat="44.58541" lon="7.08199">
        <ele>1279</ele>
        <time>2019-04-18T06:45:16Z</time>
      </trkpt>
      <trkpt lat="44.5854" lon="7.08187">
        <ele>1279</ele>
        <time>2019-04-18T06:46:16Z</time>
      </trkpt>
      <trkpt lat="44.58543" lon="7.08168">
        <ele>1282</ele>
        <time>2019-04-18T06:47:16Z</time>
      </trkpt>
      <trkpt lat="44.5856" lon="7.0811">
        <ele>1293</ele>
        <time>2019-04-18T06:48:16Z</time>
      </trkpt>
      <trkpt lat="44.58562" lon="7.08079">
        <ele>1295</ele>
        <time>2019-04-18T06:49:16Z</time>
      </trkpt>
      <trkpt lat="44.58559" lon="7.08056">
        <ele>1296</ele>
        <time>2019-04-18T06:50:16Z</time>
      </trkpt>
      <trkpt lat="44.58537" lon="7.07976">
        <ele>1294</ele>
        <time>2019-04-18T06:51:16Z</time>
      </trkpt>
      <trkpt lat="44.58509" lon="7.07898">
        <ele>1288</ele>
        <time>2019-04-18T06:52:16Z</time>
      </trkpt>
      <trkpt lat="44.58501" lon="7.07865">
        <ele>1285</ele>
        <time>2019-04-18T06:53:16Z</time>
      </trkpt>
      <trkpt lat="44.58504" lon="7.07844">
        <ele>1285</ele>
        <time>2019-04-18T06:54:16Z</time>
      </trkpt>
      <trkpt lat="44.58528" lon="7.07777">
        <ele>1287</ele>
        <time>2019-04-18T06:55:16Z</time>
      </trkpt>
      <trkpt lat="44.58541" lon="7.07755">
        <ele>1288</ele>
        <time>2019-04-18T06:56:16Z</time>
      </trkpt>
      <trkpt lat="44.58565" lon="7.07734">
        <ele>1291</ele>
        <time>2019-04-18T06:57:16Z</time>
      </trkpt>
      <trkpt lat="44.58706" lon="7.07646">
        <ele>1296</ele>
        <time>2019-04-18T06:58:16Z</time>
      </trkpt>
      <trkpt lat="44.58725" lon="7.07627">
        <ele>1296</ele>
        <time>2019-04-18T06:59:16Z</time>
      </trkpt>
      <trkpt lat="44.58743" lon="7.07603">
        <ele>1295</ele>
        <time>2019-04-18T07:00:16Z</time>
      </trkpt>
      <trkpt lat="44.58761" lon="7.07568">
        <ele>1296</ele>
        <time>2019-04-18T07:01:16Z</time>
      </trkpt>
      <trkpt lat="44.58848" lon="7.07379">
        <ele>1294</ele>
        <time>2019-04-18T07:02:16Z</time>
      </trkpt>
      <trkpt lat="44.5886" lon="7.07342">
        <ele>1293</ele>
        <time>2019-04-18T07:03:16Z</time>
      </trkpt>
      <trkpt lat="44.58876" lon="7.07276">
        <ele>1297</ele>
        <time>2019-04-18T07:04:16Z</time>
      </trkpt>
      <trkpt lat="44.58879" lon="7.07258">
        <ele>1298</ele>
        <time>2019-04-18T07:05:16Z</time>
      </trkpt>
      <trkpt lat="44.58879" lon="7.07243">
        <ele>1298</ele>
        <time>2019-04-18T07:06:16Z</time>
      </trkpt>
      <trkpt lat="44.58875" lon="7.07212">
        <ele>1296</ele>
        <time>2019-04-18T07:07:16Z</time>
      </trkpt>
      <trkpt lat="44.58872" lon="7.07156">
        <ele>1293</ele>
        <time>2019-04-18T07:08:16Z</time>
      </trkpt>
      <trkpt lat="44.58876" lon="7.07127">
        <ele>1293</ele>
        <time>2019-04-18T07:09:16Z</time>
      </trkpt>
      <trkpt lat="44.58882" lon="7.07106">
        <ele>1293</ele>
        <time>2019-04-18T07:10:16Z</time>
      </trkpt>
      <trkpt lat="44.58912" lon="7.07012">
        <ele>1293</ele>
        <time>2019-04-18T07:11:16Z</time>
      </trkpt>
      <trkpt lat="44.58927" lon="7.06973">
        <ele>1293</ele>
        <time>2019-04-18T07:12:16Z</time>
      </trkpt>
      <trkpt lat="44.58935" lon="7.06958">
        <ele>1293</ele>
        <time>2019-04-18T07:13:16Z</time>
      </trkpt>
      <trkpt lat="44.58963" lon="7.06918">
        <ele>1294</ele>
        <time>2019-04-18T07:14:16Z</time>
      </trkpt>
      <trkpt lat="44.58972" lon="7.06909">
        <ele>1295</ele>
        <time>2019-04-18T07:15:16Z</time>
      </trkpt>
      <trkpt lat="44.58997" lon="7.06892">
        <ele>1298</ele>
        <time>2019-04-18T07:16:16Z</time>
      </trkpt>
      <trkpt lat="44.59068" lon="7.06853">
        <ele>1303</ele>
        <time>2019-04-18T07:17:16Z</time>
      </trkpt>
      <trkpt lat="44.5908" lon="7.06842">
        <ele>1302</ele>
        <time>2019-04-18T07:18:16Z</time>
      </trkpt>
      <trkpt lat="44.59106" lon="7.06806">
        <ele>1303</ele>
        <time>2019-04-18T07:19:16Z</time>
      </trkpt>
      <trkpt lat="44.59121" lon="7.06788">
        <ele>1303</ele>
        <time>2019-04-18T07:20:16Z</time>
      </trkpt>
      <trkpt lat="44.59133" lon="7.06778">
        <ele>1304</ele>
        <time>2019-04-18T07:21:16Z</time>
      </trkpt>
      <trkpt lat="44.59144" lon="7.06773">
        <ele>1304</ele>
        <time>2019-04-18T07:22:16Z</time>
      </trkpt>
      <trkpt lat="44.59156" lon="7.06772">
        <ele>1305</ele>
        <time>2019-04-18T07:23:16Z</time>
      </trkpt>
      <trkpt lat="44.59212" lon="7.06775">
        <ele>1314</ele>
        <time>2019-04-18T07:24:16Z</time>
      </trkpt>
      <trkpt lat="44.59226" lon="7.06774">
        <ele>1316</ele>
        <time>2019-04-18T07:25:16Z</time>
      </trkpt>
      <trkpt lat="44.5925" lon="7.06759">
        <ele>1316</ele>
        <time>2019-04-18T07:26:16Z</time>
      </trkpt>
      <trkpt lat="44.59274" lon="7.06742">
        <ele>1319</ele>
        <time>2019-04-18T07:27:16Z</time>
      </trkpt>
      <trkpt lat="44.59365" lon="7.06661">
        <ele>1329</ele>
        <time>2019-04-18T07:28:16Z</time>
      </trkpt>
      <trkpt lat="44.59375" lon="7.06659">
        <ele>1332</ele>
        <time>2019-04-18T07:29:16Z</time>
      </trkpt>
      <trkpt lat="44.59381" lon="7.06662">
        <ele>1332</ele>
        <time>2019-04-18T07:30:16Z</time>
      </trkpt>
      <trkpt lat="44.59387" lon="7.06671">
        <ele>1332</ele>
        <time>2019-04-18T07:31:16Z</time>
      </trkpt>
      <trkpt lat="44.5939" lon="7.0668">
        <ele>1334</ele>
        <time>2019-04-18T07:32:16Z</time>
      </trkpt>
      <trkpt lat="44.59387" lon="7.06693">
        <ele>1336</ele>
        <time>2019-04-18T07:33:16Z</time>
      </trkpt>
      <trkpt lat="44.59383" lon="7.06702">
        <ele>1337</ele>
        <time>2019-04-18T07:34:16Z</time>
      </trkpt>
      <trkpt lat="44.59255" lon="7.06787">
        <ele>1325</ele>
        <time>2019-04-18T07:35:16Z</time>
      </trkpt>
      <trkpt lat="44.59211" lon="7.06835">
        <ele>1327</ele>
        <time>2019-04-18T07:36:16Z</time>
      </trkpt>
      <trkpt lat="44.59201" lon="7.06852">
        <ele>1329</ele>
        <time>2019-04-18T07:37:16Z</time>
      </trkpt>
      <trkpt lat="44.59173" lon="7.06894">
        <ele>1333</ele>
        <time>2019-04-18T07:38:16Z</time>
      </trkpt>
      <trkpt lat="44.59137" lon="7.06947">
        <ele>1337</ele>
        <time>2019-04-18T07:39:16Z</time>
      </trkpt>
      <trkpt lat="44.5911" lon="7.06982">
        <ele>1340</ele>
        <time>2019-04-18T07:40:16Z</time>
      </trkpt>
      <trkpt lat="44.5906" lon="7.07031">
        <ele>1337</ele>
        <time>2019-04-18T07:41:16Z</time>
      </trkpt>
      <trkpt lat="44.59053" lon="7.07047">
        <ele>1337</ele>
        <time>2019-04-18T07:42:16Z</time>
      </trkpt>
      <trkpt lat="44.59049" lon="7.07063">
        <ele>1339</ele>
        <time>2019-04-18T07:43:16Z</time>
      </trkpt>
      <trkpt lat="44.59054" lon="7.07141">
        <ele>1349</ele>
        <time>2019-04-18T07:44:16Z</time>
      </trkpt>
      <trkpt lat="44.59051" lon="7.07174">
        <ele>1351</ele>
        <time>2019-04-18T07:45:16Z</time>
      </trkpt>
      <trkpt lat="44.59042" lon="7.07205">
        <ele>1354</ele>
        <time>2019-04-18T07:46:16Z</time>
      </trkpt>
      <trkpt lat="44.59015" lon="7.07268">
        <ele>1351</ele>
        <time>2019-04-18T07:47:16Z</time>
      </trkpt>
      <trkpt lat="44.59006" lon="7.07303">
        <ele>1350</ele>
        <time>2019-04-18T07:48:16Z</time>
      </trkpt>
      <trkpt lat="44.59007" lon="7.07309">
        <ele>1351</ele>
        <time>2019-04-18T07:49:16Z</time>
      </trkpt>
      <trkpt lat="44.5901" lon="7.07313">
        <ele>1353</ele>
        <time>2019-04-18T07:50:16Z</time>
      </trkpt>
      <trkpt lat="44.59018" lon="7.07315">
        <ele>1358</ele>
        <time>2019-04-18T07:51:16Z</time>
      </trkpt>
      <trkpt lat="44.59021" lon="7.07311">
        <ele>1359</ele>
        <time>2019-04-18T07:52:16Z</time>
      </trkpt>
      <trkpt lat="44.59022" lon="7.07304">
        <ele>1359</ele>
        <time>2019-04-18T07:53:16Z</time>
      </trkpt>
      <trkpt lat="44.59022" lon="7.07277">
        <ele>1356</ele>
        <time>2019-04-18T07:54:16Z</time>
      </trkpt>
      <trkpt lat="44.59026" lon="7.07263">
        <ele>1356</ele>
        <time>2019-04-18T07:55:16Z</time>
      </trkpt>
      <trkpt lat="44.59079" lon="7.07177">
        <ele>1364</ele>
        <time>2019-04-18T07:56:16Z</time>
      </trkpt>
      <trkpt lat="44.59091" lon="7.07161">
        <ele>1366</ele>
        <time>2019-04-18T07:57:16Z</time>
      </trkpt>
      <trkpt lat="44.59122" lon="7.07137">
        <ele>1373</ele>
        <time>2019-04-18T07:58:16Z</time>
      </trkpt>
      <trkpt lat="44.59292" lon="7.07041">
        <ele>1395</ele>
        <time>2019-04-18T07:59:16Z</time>
      </trkpt>
      <trkpt lat="44.59318" lon="7.07023">
        <ele>1396</ele>
        <time>2019-04-18T08:00:16Z</time>
      </trkpt>
      <trkpt lat="44.59337" lon="7.07007">
        <ele>1397</ele>
        <time>2019-04-18T08:01:16Z</time>
      </trkpt>
      <trkpt lat="44.59395" lon="7.06938">
        <ele>1401</ele>
        <time>2019-04-18T08:02:16Z</time>
      </trkpt>
      <trkpt lat="44.59419" lon="7.06906">
        <ele>1401</ele>
        <time>2019-04-18T08:03:16Z</time>
      </trkpt>
      <trkpt lat="44.59432" lon="7.06895">
        <ele>1401</ele>
        <time>2019-04-18T08:04:16Z</time>
      </trkpt>
      <trkpt lat="44.59463" lon="7.06885">
        <ele>1406</ele>
        <time>2019-04-18T08:05:16Z</time>
      </trkpt>
      <trkpt lat="44.59518" lon="7.06877">
        <ele>1415</ele>
        <time>2019-04-18T08:06:16Z</time>
      </trkpt>
      <trkpt lat="44.5961" lon="7.0687">
        <ele>1424</ele>
        <time>2019-04-18T08:07:16Z</time>
      </trkpt>
      <trkpt lat="44.5962" lon="7.06872">
        <ele>1424</ele>
        <time>2019-04-18T08:08:16Z</time>
      </trkpt>
      <trkpt lat="44.59689" lon="7.06908">
        <ele>1440</ele>
        <time>2019-04-18T08:09:16Z</time>
      </trkpt>
      <trkpt lat="44.59701" lon="7.0691">
        <ele>1442</ele>
        <time>2019-04-18T08:10:16Z</time>
      </trkpt>
      <trkpt lat="44.59716" lon="7.06906">
        <ele>1443</ele>
        <time>2019-04-18T08:11:16Z</time>
      </trkpt>
      <trkpt lat="44.59728" lon="7.06897">
        <ele>1442</ele>
        <time>2019-04-18T08:12:16Z</time>
      </trkpt>
      <trkpt lat="44.59743" lon="7.06873">
        <ele>1439</ele>
        <time>2019-04-18T08:13:16Z</time>
      </trkpt>
      <trkpt lat="44.59761" lon="7.06852">
        <ele>1440</ele>
        <time>2019-04-18T08:14:16Z</time>
      </trkpt>
      <trkpt lat="44.59793" lon="7.06836">
        <ele>1448</ele>
        <time>2019-04-18T08:15:16Z</time>
      </trkpt>
      <trkpt lat="44.59831" lon="7.068">
        <ele>1447</ele>
        <time>2019-04-18T08:16:16Z</time>
      </trkpt>
      <trkpt lat="44.59841" lon="7.06793">
        <ele>1446</ele>
        <time>2019-04-18T08:17:16Z</time>
      </trkpt>
      <trkpt lat="44.59851" lon="7.06791">
        <ele>1448</ele>
        <time>2019-04-18T08:18:16Z</time>
      </trkpt>
      <trkpt lat="44.59875" lon="7.06793">
        <ele>1455</ele>
        <time>2019-04-18T08:19:16Z</time>
      </trkpt>
      <trkpt lat="44.59889" lon="7.0679">
        <ele>1457</ele>
        <time>2019-04-18T08:20:16Z</time>
      </trkpt>
      <trkpt lat="44.59903" lon="7.06779">
        <ele>1456</ele>
        <time>2019-04-18T08:21:16Z</time>
      </trkpt>
      <trkpt lat="44.59919" lon="7.06771">
        <ele>1457</ele>
        <time>2019-04-18T08:22:16Z</time>
      </trkpt>
      <trkpt lat="44.5994" lon="7.06767">
        <ele>1463</ele>
        <time>2019-04-18T08:23:16Z</time>
      </trkpt>
      <trkpt lat="44.59954" lon="7.06761">
        <ele>1466</ele>
        <time>2019-04-18T08:24:16Z</time>
      </trkpt>
      <trkpt lat="44.59969" lon="7.0675">
        <ele>1467</ele>
        <time>2019-04-18T08:25:16Z</time>
      </trkpt>
      <trkpt lat="44.59998" lon="7.06694">
        <ele>1459</ele>
        <time>2019-04-18T08:26:16Z</time>
      </trkpt>
      <trkpt lat="44.60031" lon="7.06669">
        <ele>1467</ele>
        <time>2019-04-18T08:27:16Z</time>
      </trkpt>
      <trkpt lat="44.60054" lon="7.06631">
        <ele>1468</ele>
        <time>2019-04-18T08:28:16Z</time>
      </trkpt>
      <trkpt lat="44.60116" lon="7.06565">
        <ele>1477</ele>
        <time>2019-04-18T08:29:16Z</time>
      </trkpt>
      <trkpt lat="44.60193" lon="7.06502">
        <ele>1484</ele>
        <time>2019-04-18T08:30:16Z</time>
      </trkpt>
      <trkpt lat="44.60216" lon="7.06487">
        <ele>1489</ele>
        <time>2019-04-18T08:31:16Z</time>
      </trkpt>
      <trkpt lat="44.6024" lon="7.06466">
        <ele>1490</ele>
        <time>2019-04-18T08:32:16Z</time>
      </trkpt>
      <trkpt lat="44.60268" lon="7.06436">
        <ele>1489</ele>
        <time>2019-04-18T08:33:16Z</time>
      </trkpt>
      <trkpt lat="44.60286" lon="7.06414">
        <ele>1489</ele>
        <time>2019-04-18T08:34:16Z</time>
      </trkpt>
      <trkpt lat="44.603" lon="7.06401">
        <ele>1491</ele>
        <time>2019-04-18T08:35:16Z</time>
      </trkpt>
      <trkpt lat="44.60342" lon="7.06375">
        <ele>1498</ele>
        <time>2019-04-18T08:36:16Z</time>
      </trkpt>
      <trkpt lat="44.60385" lon="7.06327">
        <ele>1497</ele>
        <time>2019-04-18T08:37:16Z</time>
      </trkpt>
      <trkpt lat="44.60407" lon="7.06308">
        <ele>1499</ele>
        <time>2019-04-18T08:38:16Z</time>
      </trkpt>
      <trkpt lat="44.6042" lon="7.06302">
        <ele>1501</ele>
        <time>2019-04-18T08:39:16Z</time>
      </trkpt>
      <trkpt lat="44.60453" lon="7.06291">
        <ele>1510</ele>
        <time>2019-04-18T08:40:16Z</time>
      </trkpt>
      <trkpt lat="44.60492" lon="7.06266">
        <ele>1517</ele>
        <time>2019-04-18T08:41:16Z</time>
      </trkpt>
      <trkpt lat="44.60526" lon="7.06251">
        <ele>1520</ele>
        <time>2019-04-18T08:42:16Z</time>
      </trkpt>
      <trkpt lat="44.60583" lon="7.06203">
        <ele>1519</ele>
        <time>2019-04-18T08:43:16Z</time>
      </trkpt>
      <trkpt lat="44.60656" lon="7.06138">
        <ele>1522</ele>
        <time>2019-04-18T08:44:16Z</time>
      </trkpt>
      <trkpt lat="44.60701" lon="7.06086">
        <ele>1522</ele>
        <time>2019-04-18T08:45:16Z</time>
      </trkpt>
      <trkpt lat="44.60717" lon="7.06077">
        <ele>1524</ele>
        <time>2019-04-18T08:46:16Z</time>
      </trkpt>
      <trkpt lat="44.60739" lon="7.0608">
        <ele>1530</ele>
        <time>2019-04-18T08:47:16Z</time>
      </trkpt>
      <trkpt lat="44.60761" lon="7.06079">
        <ele>1535</ele>
        <time>2019-04-18T08:48:16Z</time>
      </trkpt>
      <trkpt lat="44.60779" lon="7.06063">
        <ele>1536</ele>
        <time>2019-04-18T08:49:16Z</time>
      </trkpt>
      <trkpt lat="44.60807" lon="7.06028">
        <ele>1534</ele>
        <time>2019-04-18T08:50:16Z</time>
      </trkpt>
      <trkpt lat="44.60825" lon="7.06011">
        <ele>1533</ele>
        <time>2019-04-18T08:51:16Z</time>
      </trkpt>
      <trkpt lat="44.60845" lon="7.06">
        <ele>1536</ele>
        <time>2019-04-18T08:52:16Z</time>
      </trkpt>
      <trkpt lat="44.60877" lon="7.05994">
        <ele>1549</ele>
        <time>2019-04-18T08:53:16Z</time>
      </trkpt>
      <trkpt lat="44.609" lon="7.05985">
        <ele>1557</ele>
        <time>2019-04-18T08:54:16Z</time>
      </trkpt>
      <trkpt lat="44.60911" lon="7.05973">
        <ele>1559</ele>
        <time>2019-04-18T08:55:16Z</time>
      </trkpt>
      <trkpt lat="44.60922" lon="7.05949">
        <ele>1558</ele>
        <time>2019-04-18T08:56:16Z</time>
      </trkpt>
      <trkpt lat="44.60967" lon="7.05812">
        <ele>1556</ele>
        <time>2019-04-18T08:57:16Z</time>
      </trkpt>
      <trkpt lat="44.60984" lon="7.0577">
        <ele>1555</ele>
        <time>2019-04-18T08:58:16Z</time>
      </trkpt>
      <trkpt lat="44.61045" lon="7.05716">
        <ele>1569</ele>
        <time>2019-04-18T08:59:16Z</time>
      </trkpt>
      <trkpt lat="44.61057" lon="7.05698">
        <ele>1571</ele>
        <time>2019-04-18T09:00:16Z</time>
      </trkpt>
      <trkpt lat="44.61064" lon="7.05679">
        <ele>1570</ele>
        <time>2019-04-18T09:01:16Z</time>
      </trkpt>
      <trkpt lat="44.61067" lon="7.05654">
        <ele>1569</ele>
        <time>2019-04-18T09:02:16Z</time>
      </trkpt>
      <trkpt lat="44.61067" lon="7.05614">
        <ele>1566</ele>
        <time>2019-04-18T09:03:16Z</time>
      </trkpt>
      <trkpt lat="44.61061" lon="7.05555">
        <ele>1558</ele>
        <time>2019-04-18T09:04:16Z</time>
      </trkpt>
      <trkpt lat="44.6106" lon="7.05533">
        <ele>1555</ele>
        <time>2019-04-18T09:05:16Z</time>
      </trkpt>
      <trkpt lat="44.61063" lon="7.05517">
        <ele>1555</ele>
        <time>2019-04-18T09:06:16Z</time>
      </trkpt>
      <trkpt lat="44.61096" lon="7.05466">
        <ele>1561</ele>
        <time>2019-04-18T09:07:16Z</time>
      </trkpt>
      <trkpt lat="44.61129" lon="7.05432">
        <ele>1567</ele>
        <time>2019-04-18T09:08:16Z</time>
      </trkpt>
      <trkpt lat="44.61158" lon="7.05411">
        <ele>1574</ele>
        <time>2019-04-18T09:09:16Z</time>
      </trkpt>
      <trkpt lat="44.61188" lon="7.05394">
        <ele>1580</ele>
        <time>2019-04-18T09:10:16Z</time>
      </trkpt>
      <trkpt lat="44.61235" lon="7.05352">
        <ele>1582</ele>
        <time>2019-04-18T09:11:16Z</time>
      </trkpt>
      <trkpt lat="44.61322" lon="7.05294">
        <ele>1584</ele>
        <time>2019-04-18T09:12:16Z</time>
      </trkpt>
      <trkpt lat="44.61336" lon="7.05289">
        <ele>1585</ele>
        <time>2019-04-18T09:13:16Z</time>
      </trkpt>
      <trkpt lat="44.61369" lon="7.05281">
        <ele>1586</ele>
        <time>2019-04-18T09:14:16Z</time>
      </trkpt>
      <trkpt lat="44.61389" lon="7.0528">
        <ele>1587</ele>
        <time>2019-04-18T09:15:16Z</time>
      </trkpt>
      <trkpt lat="44.61446" lon="7.05264">
        <ele>1587</ele>
        <time>2019-04-18T09:16:16Z</time>
      </trkpt>
      <trkpt lat="44.61467" lon="7.05263">
        <ele>1588</ele>
        <time>2019-04-18T09:17:16Z</time>
      </trkpt>
      <trkpt lat="44.61494" lon="7.05273">
        <ele>1594</ele>
        <time>2019-04-18T09:18:16Z</time>
      </trkpt>
      <trkpt lat="44.61508" lon="7.05271">
        <ele>1595</ele>
        <time>2019-04-18T09:19:16Z</time>
      </trkpt>
      <trkpt lat="44.61513" lon="7.05267">
        <ele>1595</ele>
        <time>2019-04-18T09:20:16Z</time>
      </trkpt>
      <trkpt lat="44.61526" lon="7.0525">
        <ele>1593</ele>
        <time>2019-04-18T09:21:16Z</time>
      </trkpt>
      <trkpt lat="44.61534" lon="7.0523">
        <ele>1596</ele>
        <time>2019-04-18T09:22:16Z</time>
      </trkpt>
      <trkpt lat="44.61534" lon="7.05221">
        <ele>1597</ele>
        <time>2019-04-18T09:23:16Z</time>
      </trkpt>
      <trkpt lat="44.61533" lon="7.05206">
        <ele>1597</ele>
        <time>2019-04-18T09:24:16Z</time>
      </trkpt>
      <trkpt lat="44.61509" lon="7.051">
        <ele>1591</ele>
        <time>2019-04-18T09:25:16Z</time>
      </trkpt>
      <trkpt lat="44.615" lon="7.05077">
        <ele>1589</ele>
        <time>2019-04-18T09:26:16Z</time>
      </trkpt>
      <trkpt lat="44.61482" lon="7.05046">
        <ele>1590</ele>
        <time>2019-04-18T09:27:16Z</time>
      </trkpt>
      <trkpt lat="44.61475" lon="7.05029">
        <ele>1592</ele>
        <time>2019-04-18T09:28:16Z</time>
      </trkpt>
      <trkpt lat="44.61473" lon="7.05019">
        <ele>1593</ele>
        <time>2019-04-18T09:29:16Z</time>
      </trkpt>
      <trkpt lat="44.61471" lon="7.04976">
        <ele>1594</ele>
        <time>2019-04-18T09:30:16Z</time>
      </trkpt>
      <trkpt lat="44.61459" lon="7.04918">
        <ele>1590</ele>
        <time>2019-04-18T09:31:16Z</time>
      </trkpt>
      <trkpt lat="44.61456" lon="7.04895">
        <ele>1586</ele>
        <time>2019-04-18T09:32:16Z</time>
      </trkpt>
      <trkpt lat="44.6146" lon="7.04879">
        <ele>1585</ele>
        <time>2019-04-18T09:33:16Z</time>
      </trkpt>
      <trkpt lat="44.61474" lon="7.0486">
        <ele>1583</ele>
        <time>2019-04-18T09:34:16Z</time>
      </trkpt>
      <trkpt lat="44.615" lon="7.0485">
        <ele>1585</ele>
        <time>2019-04-18T09:35:16Z</time>
      </trkpt>
      <trkpt lat="44.6152" lon="7.04839">
        <ele>1591</ele>
        <time>2019-04-18T09:36:16Z</time>
      </trkpt>
      <trkpt lat="44.6153" lon="7.04827">
        <ele>1594</ele>
        <time>2019-04-18T09:37:16Z</time>
      </trkpt>
      <trkpt lat="44.6154" lon="7.04805">
        <ele>1596</ele>
        <time>2019-04-18T09:38:16Z</time>
      </trkpt>
      <trkpt lat="44.61549" lon="7.04777">
        <ele>1598</ele>
        <time>2019-04-18T09:39:16Z</time>
      </trkpt>
      <trkpt lat="44.61564" lon="7.04713">
        <ele>1599</ele>
        <time>2019-04-18T09:40:16Z</time>
      </trkpt>
      <trkpt lat="44.61578" lon="7.04634">
        <ele>1597</ele>
        <time>2019-04-18T09:41:16Z</time>
      </trkpt>
      <trkpt lat="44.61601" lon="7.04572">
        <ele>1603</ele>
        <time>2019-04-18T09:42:16Z</time>
      </trkpt>
      <trkpt lat="44.61694" lon="7.0424">
        <ele>1599</ele>
        <time>2019-04-18T09:43:16Z</time>
      </trkpt>
      <trkpt lat="44.61741" lon="7.04079">
        <ele>1595</ele>
        <time>2019-04-18T09:44:16Z</time>
      </trkpt>
      <trkpt lat="44.61763" lon="7.0399">
        <ele>1598</ele>
        <time>2019-04-18T09:45:16Z</time>
      </trkpt>
      <trkpt lat="44.6178" lon="7.03899">
        <ele>1597</ele>
        <time>2019-04-18T09:46:16Z</time>
      </trkpt>
      <trkpt lat="44.61791" lon="7.03857">
        <ele>1596</ele>
        <time>2019-04-18T09:47:16Z</time>
      </trkpt>
      <trkpt lat="44.61808" lon="7.03824">
        <ele>1598</ele>
        <time>2019-04-18T09:48:16Z</time>
      </trkpt>
      <trkpt lat="44.61868" lon="7.03721">
        <ele>1597</ele>
        <time>2019-04-18T09:49:16Z</time>
      </trkpt>
      <trkpt lat="44.61951" lon="7.03623">
        <ele>1605</ele>
        <time>2019-04-18T09:50:16Z</time>
      </trkpt>
      <trkpt lat="44.61981" lon="7.03557">
        <ele>1604</ele>
        <time>2019-04-18T09:51:16Z</time>
      </trkpt>
      <trkpt lat="44.62021" lon="7.03455">
        <ele>1601</ele>
        <time>2019-04-18T09:52:16Z</time>
      </trkpt>
      <trkpt lat="44.6203" lon="7.03424">
        <ele>1600</ele>
        <time>2019-04-18T09:53:16Z</time>
      </trkpt>
      <trkpt lat="44.62036" lon="7.03395">
        <ele>1599</ele>
        <time>2019-04-18T09:54:16Z</time>
      </trkpt>
      <trkpt lat="44.62048" lon="7.03321">
        <ele>1598</ele>
        <time>2019-04-18T09:55:16Z</time>
      </trkpt>
      <trkpt lat="44.62056" lon="7.03292">
        <ele>1599</ele>
        <time>2019-04-18T09:56:16Z</time>
      </trkpt>
      <trkpt lat="44.62077" lon="7.03236">
        <ele>1600</ele>
        <time>2019-04-18T09:57:16Z</time>
      </trkpt>
      <trkpt lat="44.62124" lon="7.03172">
        <ele>1604</ele>
        <time>2019-04-18T09:58:16Z</time>
      </trkpt>
      <trkpt lat="44.62142" lon="7.03158">
        <ele>1605</ele>
        <time>2019-04-18T09:59:16Z</time>
      </trkpt>
      <trkpt lat="44.62165" lon="7.03144">
        <ele>1607</ele>
        <time>2019-04-18T10:00:16Z</time>
      </trkpt>
      <trkpt lat="44.62197" lon="7.03141">
        <ele>1610</ele>
        <time>2019-04-18T10:01:16Z</time>
      </trkpt>
      <trkpt lat="44.62212" lon="7.03134">
        <ele>1611</ele>
        <time>2019-04-18T10:02:16Z</time>
      </trkpt>
      <trkpt lat="44.62229" lon="7.03127">
        <ele>1613</ele>
        <time>2019-04-18T10:03:16Z</time>
      </trkpt>
      <trkpt lat="44.62252" lon="7.0311">
        <ele>1614</ele>
        <time>2019-04-18T10:04:16Z</time>
      </trkpt>
      <trkpt lat="44.62299" lon="7.03059">
        <ele>1622</ele>
        <time>2019-04-18T10:05:16Z</time>
      </trkpt>
      <trkpt lat="44.62317" lon="7.03028">
        <ele>1624</ele>
        <time>2019-04-18T10:06:16Z</time>
      </trkpt>
      <trkpt lat="44.62355" lon="7.02942">
        <ele>1630</ele>
        <time>2019-04-18T10:07:16Z</time>
      </trkpt>
      <trkpt lat="44.6243" lon="7.02751">
        <ele>1643</ele>
        <time>2019-04-18T10:08:16Z</time>
      </trkpt>
      <trkpt lat="44.62439" lon="7.02721">
        <ele>1646</ele>
        <time>2019-04-18T10:09:16Z</time>
      </trkpt>
      <trkpt lat="44.62448" lon="7.02683">
        <ele>1647</ele>
        <time>2019-04-18T10:10:16Z</time>
      </trkpt>
      <trkpt lat="44.62456" lon="7.02621">
        <ele>1647</ele>
        <time>2019-04-18T10:11:16Z</time>
      </trkpt>
      <trkpt lat="44.62459" lon="7.02574">
        <ele>1646</ele>
        <time>2019-04-18T10:12:16Z</time>
      </trkpt>
      <trkpt lat="44.62457" lon="7.02546">
        <ele>1647</ele>
        <time>2019-04-18T10:13:16Z</time>
      </trkpt>
      <trkpt lat="44.62443" lon="7.02418">
        <ele>1652</ele>
        <time>2019-04-18T10:14:16Z</time>
      </trkpt>
      <trkpt lat="44.62433" lon="7.02344">
        <ele>1655</ele>
        <time>2019-04-18T10:15:16Z</time>
      </trkpt>
      <trkpt lat="44.62438" lon="7.02328">
        <ele>1655</ele>
        <time>2019-04-18T10:16:16Z</time>
      </trkpt>
      <trkpt lat="44.62443" lon="7.0232">
        <ele>1655</ele>
        <time>2019-04-18T10:17:16Z</time>
      </trkpt>
      <trkpt lat="44.6245" lon="7.02314">
        <ele>1655</ele>
        <time>2019-04-18T10:18:16Z</time>
      </trkpt>
      <trkpt lat="44.62472" lon="7.02302">
        <ele>1657</ele>
        <time>2019-04-18T10:19:16Z</time>
      </trkpt>
      <trkpt lat="44.6254" lon="7.02328">
        <ele>1666</ele>
        <time>2019-04-18T10:20:16Z</time>
      </trkpt>
      <trkpt lat="44.62556" lon="7.02327">
        <ele>1668</ele>
        <time>2019-04-18T10:21:16Z</time>
      </trkpt>
      <trkpt lat="44.62567" lon="7.02322">
        <ele>1669</ele>
        <time>2019-04-18T10:22:16Z</time>
      </trkpt>
      <trkpt lat="44.6261" lon="7.02294">
        <ele>1674</ele>
        <time>2019-04-18T10:23:16Z</time>
      </trkpt>
      <trkpt lat="44.6268" lon="7.02244">
        <ele>1683</ele>
        <time>2019-04-18T10:24:16Z</time>
      </trkpt>
      <trkpt lat="44.62786" lon="7.02179">
        <ele>1704</ele>
        <time>2019-04-18T10:25:16Z</time>
      </trkpt>
      <trkpt lat="44.62818" lon="7.02151">
        <ele>1709</ele>
        <time>2019-04-18T10:26:16Z</time>
      </trkpt>
      <trkpt lat="44.6285" lon="7.02114">
        <ele>1708</ele>
        <time>2019-04-18T10:27:16Z</time>
      </trkpt>
      <trkpt lat="44.62882" lon="7.02059">
        <ele>1707</ele>
        <time>2019-04-18T10:28:16Z</time>
      </trkpt>
      <trkpt lat="44.62937" lon="7.01988">
        <ele>1710</ele>
        <time>2019-04-18T10:29:16Z</time>
      </trkpt>
      <trkpt lat="44.6298" lon="7.01944">
        <ele>1713</ele>
        <time>2019-04-18T10:30:16Z</time>
      </trkpt>
      <trkpt lat="44.63093" lon="7.01837">
        <ele>1710</ele>
        <time>2019-04-18T10:31:16Z</time>
      </trkpt>
      <trkpt lat="44.63138" lon="7.01783">
        <ele>1711</ele>
        <time>2019-04-18T10:32:16Z</time>
      </trkpt>
      <trkpt lat="44.63188" lon="7.01729">
        <ele>1710</ele>
        <time>2019-04-18T10:33:16Z</time>
      </trkpt>
      <trkpt lat="44.6322" lon="7.01712">
        <ele>1713</ele>
        <time>2019-04-18T10:34:16Z</time>
      </trkpt>
      <trkpt lat="44.63324" lon="7.0167">
        <ele>1725</ele>
        <time>2019-04-18T10:35:16Z</time>
      </trkpt>
      <trkpt lat="44.63379" lon="7.01627">
        <ele>1731</ele>
        <time>2019-04-18T10:36:16Z</time>
      </trkpt>
      <trkpt lat="44.63428" lon="7.01576">
        <ele>1734</ele>
        <time>2019-04-18T10:37:16Z</time>
      </trkpt>
      <trkpt lat="44.6351" lon="7.01434">
        <ele>1726</ele>
        <time>2019-04-18T10:38:16Z</time>
      </trkpt>
      <trkpt lat="44.63553" lon="7.01375">
        <ele>1732</ele>
        <time>2019-04-18T10:39:16Z</time>
      </trkpt>
      <trkpt lat="44.63621" lon="7.01307">
        <ele>1742</ele>
        <time>2019-04-18T10:40:16Z</time>
      </trkpt>
      <trkpt lat="44.63736" lon="7.01224">
        <ele>1750</ele>
        <time>2019-04-18T10:41:16Z</time>
      </trkpt>
      <trkpt lat="44.63855" lon="7.01147">
        <ele>1754</ele>
        <time>2019-04-18T10:42:16Z</time>
      </trkpt>
      <trkpt lat="44.63915" lon="7.01099">
        <ele>1746</ele>
        <time>2019-04-18T10:43:16Z</time>
      </trkpt>
      <trkpt lat="44.64005" lon="7.0104">
        <ele>1754</ele>
        <time>2019-04-18T10:44:16Z</time>
      </trkpt>
      <trkpt lat="44.64049" lon="7.01002">
        <ele>1756</ele>
        <time>2019-04-18T10:45:16Z</time>
      </trkpt>
      <trkpt lat="44.64068" lon="7.00983">
        <ele>1759</ele>
        <time>2019-04-18T10:46:16Z</time>
      </trkpt>
      <trkpt lat="44.64084" lon="7.00959">
        <ele>1759</ele>
        <time>2019-04-18T10:47:16Z</time>
      </trkpt>
      <trkpt lat="44.64162" lon="7.00787">
        <ele>1763</ele>
        <time>2019-04-18T10:48:16Z</time>
      </trkpt>
      <trkpt lat="44.64181" lon="7.00752">
        <ele>1763</ele>
        <time>2019-04-18T10:49:16Z</time>
      </trkpt>
      <trkpt lat="44.64209" lon="7.00721">
        <ele>1764</ele>
        <time>2019-04-18T10:50:16Z</time>
      </trkpt>
      <trkpt lat="44.64267" lon="7.00671">
        <ele>1768</ele>
        <time>2019-04-18T10:51:16Z</time>
      </trkpt>
      <trkpt lat="44.64277" lon="7.00658">
        <ele>1769</ele>
        <time>2019-04-18T10:52:16Z</time>
      </trkpt>
      <trkpt lat="44.64318" lon="7.00593">
        <ele>1773</ele>
        <time>2019-04-18T10:53:16Z</time>
      </trkpt>
      <trkpt lat="44.64354" lon="7.00541">
        <ele>1774</ele>
        <time>2019-04-18T10:54:16Z</time>
      </trkpt>
      <trkpt lat="44.64389" lon="7.00503">
        <ele>1778</ele>
        <time>2019-04-18T10:55:16Z</time>
      </trkpt>
      <trkpt lat="44.64427" lon="7.00453">
        <ele>1780</ele>
        <time>2019-04-18T10:56:16Z</time>
      </trkpt>
      <trkpt lat="44.64501" lon="7.00336">
        <ele>1782</ele>
        <time>2019-04-18T10:57:16Z</time>
      </trkpt>
      <trkpt lat="44.64524" lon="7.00297">
        <ele>1786</ele>
        <time>2019-04-18T10:58:16Z</time>
      </trkpt>
      <trkpt lat="44.64559" lon="7.00206">
        <ele>1787</ele>
        <time>2019-04-18T10:59:16Z</time>
      </trkpt>
      <trkpt lat="44.64594" lon="7.00132">
        <ele>1787</ele>
        <time>2019-04-18T11:00:16Z</time>
      </trkpt>
      <trkpt lat="44.64633" lon="7.00058">
        <ele>1791</ele>
        <time>2019-04-18T11:01:16Z</time>
      </trkpt>
      <trkpt lat="44.64645" lon="7.00043">
        <ele>1792</ele>
        <time>2019-04-18T11:02:16Z</time>
      </trkpt>
      <trkpt lat="44.64706" lon="6.99993">
        <ele>1798</ele>
        <time>2019-04-18T11:03:16Z</time>
      </trkpt>
      <trkpt lat="44.64721" lon="6.99973">
        <ele>1799</ele>
        <time>2019-04-18T11:04:16Z</time>
      </trkpt>
      <trkpt lat="44.6476" lon="6.99903">
        <ele>1798</ele>
        <time>2019-04-18T11:05:16Z</time>
      </trkpt>
      <trkpt lat="44.64832" lon="6.99756">
        <ele>1808</ele>
        <time>2019-04-18T11:06:16Z</time>
      </trkpt>
      <trkpt lat="44.6489" lon="6.99648">
        <ele>1808</ele>
        <time>2019-04-18T11:07:16Z</time>
      </trkpt>
      <trkpt lat="44.65053" lon="6.99462">
        <ele>1818</ele>
        <time>2019-04-18T11:08:16Z</time>
      </trkpt>
      <trkpt lat="44.65147" lon="6.99358">
        <ele>1823</ele>
        <time>2019-04-18T11:09:16Z</time>
      </trkpt>
      <trkpt lat="44.65304" lon="6.99201">
        <ele>1835</ele>
        <time>2019-04-18T11:10:16Z</time>
      </trkpt>
      <trkpt lat="44.65348" lon="6.99164">
        <ele>1839</ele>
        <time>2019-04-18T11:11:16Z</time>
      </trkpt>
      <trkpt lat="44.65435" lon="6.99104">
        <ele>1862</ele>
        <time>2019-04-18T11:12:16Z</time>
      </trkpt>
      <trkpt lat="44.65489" lon="6.9908">
        <ele>1871</ele>
        <time>2019-04-18T11:13:16Z</time>
      </trkpt>
      <trkpt lat="44.65492" lon="6.99068">
        <ele>1874</ele>
        <time>2019-04-18T11:14:16Z</time>
      </trkpt>
      <trkpt lat="44.65492" lon="6.99057">
        <ele>1877</ele>
        <time>2019-04-18T11:15:16Z</time>
      </trkpt>
      <trkpt lat="44.65491" lon="6.99053">
        <ele>1877</ele>
        <time>2019-04-18T11:16:16Z</time>
      </trkpt>
      <trkpt lat="44.65478" lon="6.99042">
        <ele>1878</ele>
        <time>2019-04-18T11:17:16Z</time>
      </trkpt>
      <trkpt lat="44.65464" lon="6.99041">
        <ele>1877</ele>
        <time>2019-04-18T11:18:16Z</time>
      </trkpt>
      <trkpt lat="44.65416" lon="6.99046">
        <ele>1870</ele>
        <time>2019-04-18T11:19:16Z</time>
      </trkpt>
      <trkpt lat="44.65382" lon="6.99041">
        <ele>1865</ele>
        <time>2019-04-18T11:20:16Z</time>
      </trkpt>
      <trkpt lat="44.65364" lon="6.99037">
        <ele>1863</ele>
        <time>2019-04-18T11:21:16Z</time>
      </trkpt>
      <trkpt lat="44.6535" lon="6.9903">
        <ele>1863</ele>
        <time>2019-04-18T11:22:16Z</time>
      </trkpt>
      <trkpt lat="44.65339" lon="6.99018">
        <ele>1865</ele>
        <time>2019-04-18T11:23:16Z</time>
      </trkpt>
      <trkpt lat="44.65318" lon="6.98977">
        <ele>1867</ele>
        <time>2019-04-18T11:24:16Z</time>
      </trkpt>
      <trkpt lat="44.65309" lon="6.98949">
        <ele>1867</ele>
        <time>2019-04-18T11:25:16Z</time>
      </trkpt>
      <trkpt lat="44.65308" lon="6.98934">
        <ele>1868</ele>
        <time>2019-04-18T11:26:16Z</time>
      </trkpt>
      <trkpt lat="44.65313" lon="6.98887">
        <ele>1874</ele>
        <time>2019-04-18T11:27:16Z</time>
      </trkpt>
      <trkpt lat="44.65308" lon="6.98842">
        <ele>1878</ele>
        <time>2019-04-18T11:28:16Z</time>
      </trkpt>
      <trkpt lat="44.65298" lon="6.98781">
        <ele>1889</ele>
        <time>2019-04-18T11:29:16Z</time>
      </trkpt>
      <trkpt lat="44.65285" lon="6.98726">
        <ele>1896</ele>
        <time>2019-04-18T11:30:16Z</time>
      </trkpt>
      <trkpt lat="44.65288" lon="6.98718">
        <ele>1900</ele>
        <time>2019-04-18T11:31:16Z</time>
      </trkpt>
      <trkpt lat="44.65295" lon="6.98716">
        <ele>1904</ele>
        <time>2019-04-18T11:32:16Z</time>
      </trkpt>
      <trkpt lat="44.653" lon="6.98719">
        <ele>1906</ele>
        <time>2019-04-18T11:33:16Z</time>
      </trkpt>
      <trkpt lat="44.65305" lon="6.98728">
        <ele>1906</ele>
        <time>2019-04-18T11:34:16Z</time>
      </trkpt>
      <trkpt lat="44.65307" lon="6.98743">
        <ele>1904</ele>
        <time>2019-04-18T11:35:16Z</time>
      </trkpt>
      <trkpt lat="44.65338" lon="6.98817">
        <ele>1896</ele>
        <time>2019-04-18T11:36:16Z</time>
      </trkpt>
      <trkpt lat="44.65363" lon="6.98861">
        <ele>1897</ele>
        <time>2019-04-18T11:37:16Z</time>
      </trkpt>
      <trkpt lat="44.65375" lon="6.98871">
        <ele>1901</ele>
        <time>2019-04-18T11:38:16Z</time>
      </trkpt>
      <trkpt lat="44.65423" lon="6.98895">
        <ele>1913</ele>
        <time>2019-04-18T11:39:16Z</time>
      </trkpt>
      <trkpt lat="44.65456" lon="6.98905">
        <ele>1917</ele>
        <time>2019-04-18T11:40:16Z</time>
      </trkpt>
      <trkpt lat="44.65527" lon="6.98912">
        <ele>1930</ele>
        <time>2019-04-18T11:41:16Z</time>
      </trkpt>
      <trkpt lat="44.65567" lon="6.98921">
        <ele>1936</ele>
        <time>2019-04-18T11:42:16Z</time>
      </trkpt>
      <trkpt lat="44.6563" lon="6.98948">
        <ele>1943</ele>
        <time>2019-04-18T11:43:16Z</time>
      </trkpt>
      <trkpt lat="44.65701" lon="6.98968">
        <ele>1954</ele>
        <time>2019-04-18T11:44:16Z</time>
      </trkpt>
      <trkpt lat="44.65745" lon="6.98976">
        <ele>1960</ele>
        <time>2019-04-18T11:45:16Z</time>
      </trkpt>
      <trkpt lat="44.65836" lon="6.98981">
        <ele>1971</ele>
        <time>2019-04-18T11:46:16Z</time>
      </trkpt>
      <trkpt lat="44.65856" lon="6.98988">
        <ele>1975</ele>
        <time>2019-04-18T11:47:16Z</time>
      </trkpt>
      <trkpt lat="44.6587" lon="6.98996">
        <ele>1977</ele>
        <time>2019-04-18T11:48:16Z</time>
      </trkpt>
      <trkpt lat="44.65883" lon="6.99008">
        <ele>1980</ele>
        <time>2019-04-18T11:49:16Z</time>
      </trkpt>
      <trkpt lat="44.65914" lon="6.99048">
        <ele>1986</ele>
        <time>2019-04-18T11:50:16Z</time>
      </trkpt>
      <trkpt lat="44.65937" lon="6.99071">
        <ele>1989</ele>
        <time>2019-04-18T11:51:16Z</time>
      </trkpt>
      <trkpt lat="44.65965" lon="6.99095">
        <ele>1992</ele>
        <time>2019-04-18T11:52:16Z</time>
      </trkpt>
      <trkpt lat="44.65989" lon="6.99112">
        <ele>1995</ele>
        <time>2019-04-18T11:53:16Z</time>
      </trkpt>
      <trkpt lat="44.66001" lon="6.99117">
        <ele>1997</ele>
        <time>2019-04-18T11:54:16Z</time>
      </trkpt>
      <trkpt lat="44.6603" lon="6.99126">
        <ele>2001</ele>
        <time>2019-04-18T11:55:16Z</time>
      </trkpt>
      <trkpt lat="44.66079" lon="6.99136">
        <ele>2009</ele>
        <time>2019-04-18T11:56:16Z</time>
      </trkpt>
      <trkpt lat="44.66093" lon="6.99141">
        <ele>2011</ele>
        <time>2019-04-18T11:57:16Z</time>
      </trkpt>
      <trkpt lat="44.66107" lon="6.9915">
        <ele>2013</ele>
        <time>2019-04-18T11:58:16Z</time>
      </trkpt>
      <trkpt lat="44.66125" lon="6.99165">
        <ele>2015</ele>
        <time>2019-04-18T11:59:16Z</time>
      </trkpt>
      <trkpt lat="44.66138" lon="6.99179">
        <ele>2017</ele>
        <time>2019-04-18T12:00:16Z</time>
      </trkpt>
      <trkpt lat="44.66173" lon="6.99231">
        <ele>2019</ele>
        <time>2019-04-18T12:01:16Z</time>
      </trkpt>
      <trkpt lat="44.6619" lon="6.99253">
        <ele>2022</ele>
        <time>2019-04-18T12:02:16Z</time>
      </trkpt>
      <trkpt lat="44.66196" lon="6.99254">
        <ele>2023</ele>
        <time>2019-04-18T12:03:16Z</time>
      </trkpt>
      <trkpt lat="44.66203" lon="6.99253">
        <ele>2025</ele>
        <time>2019-04-18T12:04:16Z</time>
      </trkpt>
      <trkpt lat="44.66207" lon="6.99248">
        <ele>2027</ele>
        <time>2019-04-18T12:05:16Z</time>
      </trkpt>
      <trkpt lat="44.66211" lon="6.99235">
        <ele>2030</ele>
        <time>2019-04-18T12:06:16Z</time>
      </trkpt>
      <trkpt lat="44.6621" lon="6.99224">
        <ele>2031</ele>
        <time>2019-04-18T12:07:16Z</time>
      </trkpt>
      <trkpt lat="44.66206" lon="6.99211">
        <ele>2031</ele>
        <time>2019-04-18T12:08:16Z</time>
      </trkpt>
      <trkpt lat="44.66194" lon="6.99186">
        <ele>2031</ele>
        <time>2019-04-18T12:09:16Z</time>
      </trkpt>
      <trkpt lat="44.66125" lon="6.99068">
        <ele>2034</ele>
        <time>2019-04-18T12:10:16Z</time>
      </trkpt>
      <trkpt lat="44.66071" lon="6.98987">
        <ele>2036</ele>
        <time>2019-04-18T12:11:16Z</time>
      </trkpt>
      <trkpt lat="44.66052" lon="6.98943">
        <ele>2040</ele>
        <time>2019-04-18T12:12:16Z</time>
      </trkpt>
      <trkpt lat="44.66034" lon="6.98871">
        <ele>2053</ele>
        <time>2019-04-18T12:13:16Z</time>
      </trkpt>
      <trkpt lat="44.66027" lon="6.98824">
        <ele>2064</ele>
        <time>2019-04-18T12:14:16Z</time>
      </trkpt>
      <trkpt lat="44.66023" lon="6.98813">
        <ele>2067</ele>
        <time>2019-04-18T12:15:16Z</time>
      </trkpt>
      <trkpt lat="44.66015" lon="6.98798">
        <ele>2069</ele>
        <time>2019-04-18T12:16:16Z</time>
      </trkpt>
      <trkpt lat="44.66007" lon="6.98787">
        <ele>2069</ele>
        <time>2019-04-18T12:17:16Z</time>
      </trkpt>
      <trkpt lat="44.65995" lon="6.98777">
        <ele>2068</ele>
        <time>2019-04-18T12:18:16Z</time>
      </trkpt>
      <trkpt lat="44.65965" lon="6.98764">
        <ele>2068</ele>
        <time>2019-04-18T12:19:16Z</time>
      </trkpt>
      <trkpt lat="44.65942" lon="6.98744">
        <ele>2071</ele>
        <time>2019-04-18T12:20:16Z</time>
      </trkpt>
      <trkpt lat="44.65879" lon="6.98733">
        <ele>2070</ele>
        <time>2019-04-18T12:21:16Z</time>
      </trkpt>
      <trkpt lat="44.65818" lon="6.98709">
        <ele>2081</ele>
        <time>2019-04-18T12:22:16Z</time>
      </trkpt>
      <trkpt lat="44.65804" lon="6.98708">
        <ele>2084</ele>
        <time>2019-04-18T12:23:16Z</time>
      </trkpt>
      <trkpt lat="44.65789" lon="6.98711">
        <ele>2085</ele>
        <time>2019-04-18T12:24:16Z</time>
      </trkpt>
      <trkpt lat="44.65765" lon="6.9872">
        <ele>2085</ele>
        <time>2019-04-18T12:25:16Z</time>
      </trkpt>
      <trkpt lat="44.65704" lon="6.98754">
        <ele>2067</ele>
        <time>2019-04-18T12:26:16Z</time>
      </trkpt>
      <trkpt lat="44.65692" lon="6.98754">
        <ele>2066</ele>
        <time>2019-04-18T12:27:16Z</time>
      </trkpt>
      <trkpt lat="44.65685" lon="6.9875">
        <ele>2067</ele>
        <time>2019-04-18T12:28:16Z</time>
      </trkpt>
      <trkpt lat="44.65676" lon="6.98731">
        <ele>2076</ele>
        <time>2019-04-18T12:29:16Z</time>
      </trkpt>
      <trkpt lat="44.65674" lon="6.98712">
        <ele>2085</ele>
        <time>2019-04-18T12:30:16Z</time>
      </trkpt>
      <trkpt lat="44.65678" lon="6.98702">
        <ele>2090</ele>
        <time>2019-04-18T12:31:16Z</time>
      </trkpt>
      <trkpt lat="44.65685" lon="6.98693">
        <ele>2095</ele>
        <time>2019-04-18T12:32:16Z</time>
      </trkpt>
      <trkpt lat="44.65733" lon="6.9867">
        <ele>2107</ele>
        <time>2019-04-18T12:33:16Z</time>
      </trkpt>
      <trkpt lat="44.65781" lon="6.98645">
        <ele>2113</ele>
        <time>2019-04-18T12:34:16Z</time>
      </trkpt>
      <trkpt lat="44.65826" lon="6.98634">
        <ele>2110</ele>
        <time>2019-04-18T12:35:16Z</time>
      </trkpt>
      <trkpt lat="44.65879" lon="6.98614">
        <ele>2119</ele>
        <time>2019-04-18T12:36:16Z</time>
      </trkpt>
      <trkpt lat="44.66011" lon="6.98613">
        <ele>2134</ele>
        <time>2019-04-18T12:37:16Z</time>
      </trkpt>
      <trkpt lat="44.66137" lon="6.986">
        <ele>2156</ele>
        <time>2019-04-18T12:38:16Z</time>
      </trkpt>
      <trkpt lat="44.66184" lon="6.986">
        <ele>2163</ele>
        <time>2019-04-18T12:39:16Z</time>
      </trkpt>
      <trkpt lat="44.66229" lon="6.98618">
        <ele>2170</ele>
        <time>2019-04-18T12:40:16Z</time>
      </trkpt>
      <trkpt lat="44.66264" lon="6.98637">
        <ele>2175</ele>
        <time>2019-04-18T12:41:16Z</time>
      </trkpt>
      <trkpt lat="44.66269" lon="6.98643">
        <ele>2177</ele>
        <time>2019-04-18T12:42:16Z</time>
      </trkpt>
      <trkpt lat="44.66269" lon="6.98649">
        <ele>2177</ele>
        <time>2019-04-18T12:43:16Z</time>
      </trkpt>
      <trkpt lat="44.66267" lon="6.98654">
        <ele>2177</ele>
        <time>2019-04-18T12:44:16Z</time>
      </trkpt>
      <trkpt lat="44.66263" lon="6.98658">
        <ele>2177</ele>
        <time>2019-04-18T12:45:16Z</time>
      </trkpt>
      <trkpt lat="44.66241" lon="6.98656">
        <ele>2174</ele>
        <time>2019-04-18T12:46:16Z</time>
      </trkpt>
      <trkpt lat="44.66179" lon="6.98692">
        <ele>2176</ele>
        <time>2019-04-18T12:47:16Z</time>
      </trkpt>
      <trkpt lat="44.66174" lon="6.987">
        <ele>2177</ele>
        <time>2019-04-18T12:48:16Z</time>
      </trkpt>
      <trkpt lat="44.66172" lon="6.9871">
        <ele>2178</ele>
        <time>2019-04-18T12:49:16Z</time>
      </trkpt>
      <trkpt lat="44.66174" lon="6.98718">
        <ele>2180</ele>
        <time>2019-04-18T12:50:16Z</time>
      </trkpt>
      <trkpt lat="44.66181" lon="6.98722">
        <ele>2182</ele>
        <time>2019-04-18T12:51:16Z</time>
      </trkpt>
      <trkpt lat="44.66187" lon="6.98723">
        <ele>2183</ele>
        <time>2019-04-18T12:52:16Z</time>
      </trkpt>
      <trkpt lat="44.66211" lon="6.98711">
        <ele>2184</ele>
        <time>2019-04-18T12:53:16Z</time>
      </trkpt>
      <trkpt lat="44.66238" lon="6.98709">
        <ele>2187</ele>
        <time>2019-04-18T12:54:16Z</time>
      </trkpt>
      <trkpt lat="44.66286" lon="6.98714">
        <ele>2194</ele>
        <time>2019-04-18T12:55:16Z</time>
      </trkpt>
      <trkpt lat="44.66303" lon="6.98714">
        <ele>2196</ele>
        <time>2019-04-18T12:56:16Z</time>
      </trkpt>
      <trkpt lat="44.66348" lon="6.98704">
        <ele>2200</ele>
        <time>2019-04-18T12:57:16Z</time>
      </trkpt>
      <trkpt lat="44.66436" lon="6.98701">
        <ele>2212</ele>
        <time>2019-04-18T12:58:16Z</time>
      </trkpt>
      <trkpt lat="44.66523" lon="6.98694">
        <ele>2220</ele>
        <time>2019-04-18T12:59:16Z</time>
      </trkpt>
      <trkpt lat="44.66549" lon="6.98697">
        <ele>2224</ele>
        <time>2019-04-18T13:00:16Z</time>
      </trkpt>
      <trkpt lat="44.6657" lon="6.98697">
        <ele>2226</ele>
        <time>2019-04-18T13:01:16Z</time>
      </trkpt>
      <trkpt lat="44.66618" lon="6.98689">
        <ele>2230</ele>
        <time>2019-04-18T13:02:16Z</time>
      </trkpt>
      <trkpt lat="44.66688" lon="6.98685">
        <ele>2239</ele>
        <time>2019-04-18T13:03:16Z</time>
      </trkpt>
      <trkpt lat="44.66775" lon="6.98684">
        <ele>2249</ele>
        <time>2019-04-18T13:04:16Z</time>
      </trkpt>
      <trkpt lat="44.66813" lon="6.98692">
        <ele>2255</ele>
        <time>2019-04-18T13:05:16Z</time>
      </trkpt>
      <trkpt lat="44.66909" lon="6.98719">
        <ele>2269</ele>
        <time>2019-04-18T13:06:16Z</time>
      </trkpt>
      <trkpt lat="44.66932" lon="6.98722">
        <ele>2272</ele>
        <time>2019-04-18T13:07:16Z</time>
      </trkpt>
      <trkpt lat="44.66972" lon="6.98721">
        <ele>2278</ele>
        <time>2019-04-18T13:08:16Z</time>
      </trkpt>
      <trkpt lat="44.66994" lon="6.98718">
        <ele>2280</ele>
        <time>2019-04-18T13:09:16Z</time>
      </trkpt>
      <trkpt lat="44.6703" lon="6.98707">
        <ele>2284</ele>
        <time>2019-04-18T13:10:16Z</time>
      </trkpt>
      <trkpt lat="44.6711" lon="6.98668">
        <ele>2290</ele>
        <time>2019-04-18T13:11:16Z</time>
      </trkpt>
      <trkpt lat="44.67134" lon="6.98662">
        <ele>2294</ele>
        <time>2019-04-18T13:12:16Z</time>
      </trkpt>
      <trkpt lat="44.67162" lon="6.98659">
        <ele>2300</ele>
        <time>2019-04-18T13:13:16Z</time>
      </trkpt>
      <trkpt lat="44.67197" lon="6.98665">
        <ele>2306</ele>
        <time>2019-04-18T13:14:16Z</time>
      </trkpt>
      <trkpt lat="44.67211" lon="6.98671">
        <ele>2309</ele>
        <time>2019-04-18T13:15:16Z</time>
      </trkpt>
      <trkpt lat="44.67215" lon="6.98676">
        <ele>2310</ele>
        <time>2019-04-18T13:16:16Z</time>
      </trkpt>
      <trkpt lat="44.67215" lon="6.98683">
        <ele>2312</ele>
        <time>2019-04-18T13:17:16Z</time>
      </trkpt>
      <trkpt lat="44.67214" lon="6.98688">
        <ele>2312</ele>
        <time>2019-04-18T13:18:16Z</time>
      </trkpt>
      <trkpt lat="44.67205" lon="6.98693">
        <ele>2312</ele>
        <time>2019-04-18T13:19:16Z</time>
      </trkpt>
      <trkpt lat="44.67193" lon="6.98693">
        <ele>2310</ele>
        <time>2019-04-18T13:20:16Z</time>
      </trkpt>
      <trkpt lat="44.67183" lon="6.98698">
        <ele>2310</ele>
        <time>2019-04-18T13:21:16Z</time>
      </trkpt>
      <trkpt lat="44.67173" lon="6.98707">
        <ele>2310</ele>
        <time>2019-04-18T13:22:16Z</time>
      </trkpt>
      <trkpt lat="44.6716" lon="6.98722">
        <ele>2311</ele>
        <time>2019-04-18T13:23:16Z</time>
      </trkpt>
      <trkpt lat="44.6714" lon="6.98756">
        <ele>2316</ele>
        <time>2019-04-18T13:24:16Z</time>
      </trkpt>
      <trkpt lat="44.67109" lon="6.98795">
        <ele>2323</ele>
        <time>2019-04-18T13:25:16Z</time>
      </trkpt>
      <trkpt lat="44.67107" lon="6.98803">
        <ele>2325</ele>
        <time>2019-04-18T13:26:16Z</time>
      </trkpt>
      <trkpt lat="44.67107" lon="6.98811">
        <ele>2328</ele>
        <time>2019-04-18T13:27:16Z</time>
      </trkpt>
      <trkpt lat="44.6711" lon="6.98817">
        <ele>2329</ele>
        <time>2019-04-18T13:28:16Z</time>
      </trkpt>
      <trkpt lat="44.67149" lon="6.98825">
        <ele>2333</ele>
        <time>2019-04-18T13:29:16Z</time>
      </trkpt>
      <trkpt lat="44.67182" lon="6.98829">
        <ele>2337</ele>
        <time>2019-04-18T13:30:16Z</time>
      </trkpt>
      <trkpt lat="44.67225" lon="6.98829">
        <ele>2341</ele>
        <time>2019-04-18T13:31:16Z</time>
      </trkpt>
      <trkpt lat="44.67239" lon="6.98827">
        <ele>2342</ele>
        <time>2019-04-18T13:32:16Z</time>
      </trkpt>
      <trkpt lat="44.67254" lon="6.98818">
        <ele>2342</ele>
        <time>2019-04-18T13:33:16Z</time>
      </trkpt>
      <trkpt lat="44.67259" lon="6.98818">
        <ele>2344</ele>
        <time>2019-04-18T13:34:16Z</time>
      </trkpt>
      <trkpt lat="44.67262" lon="6.9882">
        <ele>2345</ele>
        <time>2019-04-18T13:35:16Z</time>
      </trkpt>
      <trkpt lat="44.67264" lon="6.98828">
        <ele>2347</ele>
        <time>2019-04-18T13:36:16Z</time>
      </trkpt>
      <trkpt lat="44.67262" lon="6.98834">
        <ele>2347</ele>
        <time>2019-04-18T13:37:16Z</time>
      </trkpt>
      <trkpt lat="44.67258" lon="6.98839">
        <ele>2347</ele>
        <time>2019-04-18T13:38:16Z</time>
      </trkpt>
      <trkpt lat="44.67236" lon="6.98857">
        <ele>2347</ele>
        <time>2019-04-18T13:39:16Z</time>
      </trkpt>
      <trkpt lat="44.67217" lon="6.98869">
        <ele>2349</ele>
        <time>2019-04-18T13:40:16Z</time>
      </trkpt>
      <trkpt lat="44.672" lon="6.98875">
        <ele>2349</ele>
        <time>2019-04-18T13:41:16Z</time>
      </trkpt>
      <trkpt lat="44.67196" lon="6.9888">
        <ele>2350</ele>
        <time>2019-04-18T13:42:16Z</time>
      </trkpt>
      <trkpt lat="44.67194" lon="6.98885">
        <ele>2351</ele>
        <time>2019-04-18T13:43:16Z</time>
      </trkpt>
      <trkpt lat="44.67195" lon="6.98889">
        <ele>2352</ele>
        <time>2019-04-18T13:44:16Z</time>
      </trkpt>
      <trkpt lat="44.67199" lon="6.98893">
        <ele>2353</ele>
        <time>2019-04-18T13:45:16Z</time>
      </trkpt>
      <trkpt lat="44.67241" lon="6.98898">
        <ele>2356</ele>
        <time>2019-04-18T13:46:16Z</time>
      </trkpt>
      <trkpt lat="44.67254" lon="6.98894">
        <ele>2356</ele>
        <time>2019-04-18T13:47:16Z</time>
      </trkpt>
      <trkpt lat="44.67283" lon="6.98869">
        <ele>2358</ele>
        <time>2019-04-18T13:48:16Z</time>
      </trkpt>
      <trkpt lat="44.67296" lon="6.98867">
        <ele>2361</ele>
        <time>2019-04-18T13:49:16Z</time>
      </trkpt>
      <trkpt lat="44.67317" lon="6.98872">
        <ele>2366</ele>
        <time>2019-04-18T13:50:16Z</time>
      </trkpt>
      <trkpt lat="44.67331" lon="6.98886">
        <ele>2370</ele>
        <time>2019-04-18T13:51:16Z</time>
      </trkpt>
      <trkpt lat="44.6734" lon="6.98907">
        <ele>2374</ele>
        <time>2019-04-18T13:52:16Z</time>
      </trkpt>
      <trkpt lat="44.67344" lon="6.98932">
        <ele>2378</ele>
        <time>2019-04-18T13:53:16Z</time>
      </trkpt>
      <trkpt lat="44.67342" lon="6.98958">
        <ele>2379</ele>
        <time>2019-04-18T13:54:16Z</time>
      </trkpt>
      <trkpt lat="44.67336" lon="6.98984">
        <ele>2380</ele>
        <time>2019-04-18T13:55:16Z</time>
      </trkpt>
      <trkpt lat="44.67325" lon="6.99003">
        <ele>2381</ele>
        <time>2019-04-18T13:56:16Z</time>
      </trkpt>
      <trkpt lat="44.67309" lon="6.99017">
        <ele>2382</ele>
        <time>2019-04-18T13:57:16Z</time>
      </trkpt>
      <trkpt lat="44.67286" lon="6.99027">
        <ele>2383</ele>
        <time>2019-04-18T13:58:16Z</time>
      </trkpt>
      <trkpt lat="44.67258" lon="6.99033">
        <ele>2382</ele>
        <time>2019-04-18T13:59:16Z</time>
      </trkpt>
      <trkpt lat="44.67237" lon="6.99034">
        <ele>2383</ele>
        <time>2019-04-18T14:00:16Z</time>
      </trkpt>
      <trkpt lat="44.67188" lon="6.99028">
        <ele>2383</ele>
        <time>2019-04-18T14:01:16Z</time>
      </trkpt>
      <trkpt lat="44.67175" lon="6.9903">
        <ele>2384</ele>
        <time>2019-04-18T14:02:16Z</time>
      </trkpt>
      <trkpt lat="44.67169" lon="6.99034">
        <ele>2385</ele>
        <time>2019-04-18T14:03:16Z</time>
      </trkpt>
      <trkpt lat="44.67168" lon="6.99042">
        <ele>2388</ele>
        <time>2019-04-18T14:04:16Z</time>
      </trkpt>
      <trkpt lat="44.67169" lon="6.99048">
        <ele>2389</ele>
        <time>2019-04-18T14:05:16Z</time>
      </trkpt>
      <trkpt lat="44.67174" lon="6.99056">
        <ele>2391</ele>
        <time>2019-04-18T14:06:16Z</time>
      </trkpt>
      <trkpt lat="44.67208" lon="6.99068">
        <ele>2393</ele>
        <time>2019-04-18T14:07:16Z</time>
      </trkpt>
      <trkpt lat="44.67256" lon="6.99081">
        <ele>2395</ele>
        <time>2019-04-18T14:08:16Z</time>
      </trkpt>
      <trkpt lat="44.67324" lon="6.99119">
        <ele>2407</ele>
        <time>2019-04-18T14:09:16Z</time>
      </trkpt>
      <trkpt lat="44.67339" lon="6.99121">
        <ele>2409</ele>
        <time>2019-04-18T14:10:16Z</time>
      </trkpt>
      <trkpt lat="44.67356" lon="6.99118">
        <ele>2412</ele>
        <time>2019-04-18T14:11:16Z</time>
      </trkpt>
      <trkpt lat="44.67378" lon="6.99113">
        <ele>2416</ele>
        <time>2019-04-18T14:12:16Z</time>
      </trkpt>
      <trkpt lat="44.67402" lon="6.99099">
        <ele>2417</ele>
        <time>2019-04-18T14:13:16Z</time>
      </trkpt>
      <trkpt lat="44.67426" lon="6.9908">
        <ele>2420</ele>
        <time>2019-04-18T14:14:16Z</time>
      </trkpt>
      <trkpt lat="44.67447" lon="6.99059">
        <ele>2426</ele>
        <time>2019-04-18T14:15:16Z</time>
      </trkpt>
      <trkpt lat="44.67457" lon="6.99044">
        <ele>2428</ele>
        <time>2019-04-18T14:16:16Z</time>
      </trkpt>
      <trkpt lat="44.6749" lon="6.98983">
        <ele>2435</ele>
        <time>2019-04-18T14:17:16Z</time>
      </trkpt>
      <trkpt lat="44.67494" lon="6.9898">
        <ele>2437</ele>
        <time>2019-04-18T14:18:16Z</time>
      </trkpt>
      <trkpt lat="44.67499" lon="6.98981">
        <ele>2440</ele>
        <time>2019-04-18T14:19:16Z</time>
      </trkpt>
      <trkpt lat="44.67501" lon="6.98985">
        <ele>2440</ele>
        <time>2019-04-18T14:20:16Z</time>
      </trkpt>
      <trkpt lat="44.67502" lon="6.98992">
        <ele>2441</ele>
        <time>2019-04-18T14:21:16Z</time>
      </trkpt>
      <trkpt lat="44.67499" lon="6.99011">
        <ele>2442</ele>
        <time>2019-04-18T14:22:16Z</time>
      </trkpt>
      <trkpt lat="44.67462" lon="6.99121">
        <ele>2447</ele>
        <time>2019-04-18T14:23:16Z</time>
      </trkpt>
      <trkpt lat="44.67441" lon="6.99169">
        <ele>2451</ele>
        <time>2019-04-18T14:24:16Z</time>
      </trkpt>
      <trkpt lat="44.67423" lon="6.99199">
        <ele>2453</ele>
        <time>2019-04-18T14:25:16Z</time>
      </trkpt>
      <trkpt lat="44.67403" lon="6.99225">
        <ele>2458</ele>
        <time>2019-04-18T14:26:16Z</time>
      </trkpt>
      <trkpt lat="44.67371" lon="6.99255">
        <ele>2469</ele>
        <time>2019-04-18T14:27:16Z</time>
      </trkpt>
      <trkpt lat="44.67368" lon="6.99266">
        <ele>2476</ele>
        <time>2019-04-18T14:28:16Z</time>
      </trkpt>
      <trkpt lat="44.6737" lon="6.99269">
        <ele>2478</ele>
        <time>2019-04-18T14:29:16Z</time>
      </trkpt>
      <trkpt lat="44.67375" lon="6.99272">
        <ele>2480</ele>
        <time>2019-04-18T14:30:16Z</time>
      </trkpt>
      <trkpt lat="44.6738" lon="6.99271">
        <ele>2480</ele>
        <time>2019-04-18T14:31:16Z</time>
      </trkpt>
      <trkpt lat="44.67401" lon="6.99256">
        <ele>2471</ele>
        <time>2019-04-18T14:32:16Z</time>
      </trkpt>
      <trkpt lat="44.67431" lon="6.99239">
        <ele>2470</ele>
        <time>2019-04-18T14:33:16Z</time>
      </trkpt>
      <trkpt lat="44.67496" lon="6.99196">
        <ele>2483</ele>
        <time>2019-04-18T14:34:16Z</time>
      </trkpt>
      <trkpt lat="44.67518" lon="6.99171">
        <ele>2484</ele>
        <time>2019-04-18T14:35:16Z</time>
      </trkpt>
      <trkpt lat="44.67548" lon="6.99115">
        <ele>2483</ele>
        <time>2019-04-18T14:36:16Z</time>
      </trkpt>
      <trkpt lat="44.67562" lon="6.991">
        <ele>2486</ele>
        <time>2019-04-18T14:37:16Z</time>
      </trkpt>
      <trkpt lat="44.676" lon="6.99078">
        <ele>2496</ele>
        <time>2019-04-18T14:38:16Z</time>
      </trkpt>
      <trkpt lat="44.67613" lon="6.99065">
        <ele>2497</ele>
        <time>2019-04-18T14:39:16Z</time>
      </trkpt>
      <trkpt lat="44.67638" lon="6.99033">
        <ele>2501</ele>
        <time>2019-04-18T14:40:16Z</time>
      </trkpt>
      <trkpt lat="44.67668" lon="6.99009">
        <ele>2508</ele>
        <time>2019-04-18T14:41:16Z</time>
      </trkpt>
      <trkpt lat="44.67696" lon="6.9898">
        <ele>2513</ele>
        <time>2019-04-18T14:42:16Z</time>
      </trkpt>
      <trkpt lat="44.67725" lon="6.98958">
        <ele>2517</ele>
        <time>2019-04-18T14:43:16Z</time>
      </trkpt>
      <trkpt lat="44.67757" lon="6.98948">
        <ele>2521</ele>
        <time>2019-04-18T14:44:16Z</time>
      </trkpt>
      <trkpt lat="44.67811" lon="6.98936">
        <ele>2530</ele>
        <time>2019-04-18T14:45:16Z</time>
      </trkpt>
      <trkpt lat="44.67831" lon="6.98929">
        <ele>2533</ele>
        <time>2019-04-18T14:46:16Z</time>
      </trkpt>
      <trkpt lat="44.6785" lon="6.98917">
        <ele>2537</ele>
        <time>2019-04-18T14:47:16Z</time>
      </trkpt>
      <trkpt lat="44.67862" lon="6.98898">
        <ele>2539</ele>
        <time>2019-04-18T14:48:16Z</time>
      </trkpt>
      <trkpt lat="44.67876" lon="6.98871">
        <ele>2540</ele>
        <time>2019-04-18T14:49:16Z</time>
      </trkpt>
      <trkpt lat="44.67909" lon="6.98822">
        <ele>2544</ele>
        <time>2019-04-18T14:50:16Z</time>
      </trkpt>
      <trkpt lat="44.67914" lon="6.98802">
        <ele>2546</ele>
        <time>2019-04-18T14:51:16Z</time>
      </trkpt>
      <trkpt lat="44.67915" lon="6.98777">
        <ele>2547</ele>
        <time>2019-04-18T14:52:16Z</time>
      </trkpt>
      <trkpt lat="44.67911" lon="6.98666">
        <ele>2548</ele>
        <time>2019-04-18T14:53:16Z</time>
      </trkpt>
      <trkpt lat="44.67911" lon="6.98639">
        <ele>2551</ele>
        <time>2019-04-18T14:54:16Z</time>
      </trkpt>
      <trkpt lat="44.6792" lon="6.98611">
        <ele>2555</ele>
        <time>2019-04-18T14:55:16Z</time>
      </trkpt>
      <trkpt lat="44.67935" lon="6.98583">
        <ele>2559</ele>
        <time>2019-04-18T14:56:16Z</time>
      </trkpt>
      <trkpt lat="44.68009" lon="6.98432">
        <ele>2568</ele>
        <time>2019-04-18T14:57:16Z</time>
      </trkpt>
      <trkpt lat="44.68024" lon="6.98394">
        <ele>2571</ele>
        <time>2019-04-18T14:58:16Z</time>
      </trkpt>
      <trkpt lat="44.68035" lon="6.98359">
        <ele>2573</ele>
        <time>2019-04-18T14:59:16Z</time>
      </trkpt>
      <trkpt lat="44.68049" lon="6.98327">
        <ele>2577</ele>
        <time>2019-04-18T15:00:16Z</time>
      </trkpt>
      <trkpt lat="44.68052" lon="6.98315">
        <ele>2580</ele>
        <time>2019-04-18T15:01:16Z</time>
      </trkpt>
      <trkpt lat="44.68051" lon="6.98294">
        <ele>2583</ele>
        <time>2019-04-18T15:02:16Z</time>
      </trkpt>
      <trkpt lat="44.68044" lon="6.98277">
        <ele>2583</ele>
        <time>2019-04-18T15:03:16Z</time>
      </trkpt>
      <trkpt lat="44.68026" lon="6.98249">
        <ele>2581</ele>
        <time>2019-04-18T15:04:16Z</time>
      </trkpt>
      <trkpt lat="44.68005" lon="6.98207">
        <ele>2593</ele>
        <time>2019-04-18T15:05:16Z</time>
      </trkpt>
      <trkpt lat="44.67979" lon="6.98165">
        <ele>2600</ele>
        <time>2019-04-18T15:06:16Z</time>
      </trkpt>
      <trkpt lat="44.6796" lon="6.98126">
        <ele>2603</ele>
        <time>2019-04-18T15:07:16Z</time>
      </trkpt>
      <trkpt lat="44.67952" lon="6.98118">
        <ele>2602</ele>
        <time>2019-04-18T15:08:16Z</time>
      </trkpt>
      <trkpt lat="44.67933" lon="6.98106">
        <ele>2597</ele>
        <time>2019-04-18T15:09:16Z</time>
      </trkpt>
      <trkpt lat="44.67928" lon="6.98098">
        <ele>2598</ele>
        <time>2019-04-18T15:10:16Z</time>
      </trkpt>
      <trkpt lat="44.67923" lon="6.98085">
        <ele>2601</ele>
        <time>2019-04-18T15:11:16Z</time>
      </trkpt>
      <trkpt lat="44.6792" lon="6.98041">
        <ele>2609</ele>
        <time>2019-04-18T15:12:16Z</time>
      </trkpt>
      <trkpt lat="44.67914" lon="6.98023">
        <ele>2611</ele>
        <time>2019-04-18T15:13:16Z</time>
      </trkpt>
      <trkpt lat="44.67885" lon="6.97982">
        <ele>2614</ele>
        <time>2019-04-18T15:14:16Z</time>
      </trkpt>
      <trkpt lat="44.67875" lon="6.97972">
        <ele>2615</ele>
        <time>2019-04-18T15:15:16Z</time>
      </trkpt>
      <trkpt lat="44.67852" lon="6.97958">
        <ele>2614</ele>
        <time>2019-04-18T15:16:16Z</time>
      </trkpt>
      <trkpt lat="44.67834" lon="6.97939">
        <ele>2617</ele>
        <time>2019-04-18T15:17:16Z</time>
      </trkpt>
      <trkpt lat="44.67824" lon="6.97924">
        <ele>2621</ele>
        <time>2019-04-18T15:18:16Z</time>
      </trkpt>
      <trkpt lat="44.67802" lon="6.97881">
        <ele>2625</ele>
        <time>2019-04-18T15:19:16Z</time>
      </trkpt>
      <trkpt lat="44.67774" lon="6.97842">
        <ele>2625</ele>
        <time>2019-04-18T15:20:16Z</time>
      </trkpt>
      <trkpt lat="44.6775" lon="6.97796">
        <ele>2628</ele>
        <time>2019-04-18T15:21:16Z</time>
      </trkpt>
      <trkpt lat="44.67736" lon="6.97775">
        <ele>2628</ele>
        <time>2019-04-18T15:22:16Z</time>
      </trkpt>
      <trkpt lat="44.67712" lon="6.97747">
        <ele>2628</ele>
        <time>2019-04-18T15:23:16Z</time>
      </trkpt>
      <trkpt lat="44.67708" lon="6.97739">
        <ele>2629</ele>
        <time>2019-04-18T15:24:16Z</time>
      </trkpt>
      <trkpt lat="44.67708" lon="6.97735">
        <ele>2631</ele>
        <time>2019-04-18T15:25:16Z</time>
      </trkpt>
      <trkpt lat="44.67711" lon="6.97731">
        <ele>2633</ele>
        <time>2019-04-18T15:26:16Z</time>
      </trkpt>
      <trkpt lat="44.67715" lon="6.9773">
        <ele>2634</ele>
        <time>2019-04-18T15:27:16Z</time>
      </trkpt>
      <trkpt lat="44.6772" lon="6.97731">
        <ele>2635</ele>
        <time>2019-04-18T15:28:16Z</time>
      </trkpt>
      <trkpt lat="44.67741" lon="6.9775">
        <ele>2635</ele>
        <time>2019-04-18T15:29:16Z</time>
      </trkpt>
      <trkpt lat="44.67774" lon="6.97766">
        <ele>2642</ele>
        <time>2019-04-18T15:30:16Z</time>
      </trkpt>
      <trkpt lat="44.67789" lon="6.97776">
        <ele>2645</ele>
        <time>2019-04-18T15:31:16Z</time>
      </trkpt>
      <trkpt lat="44.67816" lon="6.97802">
        <ele>2648</ele>
        <time>2019-04-18T15:32:16Z</time>
      </trkpt>
      <trkpt lat="44.67855" lon="6.97829">
        <ele>2651</ele>
        <time>2019-04-18T15:33:16Z</time>
      </trkpt>
      <trkpt lat="44.67866" lon="6.97835">
        <ele>2652</ele>
        <time>2019-04-18T15:34:16Z</time>
      </trkpt>
      <trkpt lat="44.67887" lon="6.97838">
        <ele>2655</ele>
        <time>2019-04-18T15:35:16Z</time>
      </trkpt>
      <trkpt lat="44.6792" lon="6.97829">
        <ele>2664</ele>
        <time>2019-04-18T15:36:16Z</time>
      </trkpt>
      <trkpt lat="44.67959" lon="6.9783">
        <ele>2669</ele>
        <time>2019-04-18T15:37:16Z</time>
      </trkpt>
      <trkpt lat="44.67991" lon="6.97842">
        <ele>2671</ele>
        <time>2019-04-18T15:38:16Z</time>
      </trkpt>
      <trkpt lat="44.68033" lon="6.9785">
        <ele>2677</ele>
        <time>2019-04-18T15:39:16Z</time>
      </trkpt>
      <trkpt lat="44.68074" lon="6.97866">
        <ele>2681</ele>
        <time>2019-04-18T15:40:16Z</time>
      </trkpt>
      <trkpt lat="44.68109" lon="6.97876">
        <ele>2685</ele>
        <time>2019-04-18T15:41:16Z</time>
      </trkpt>
      <trkpt lat="44.68126" lon="6.97879">
        <ele>2688</ele>
        <time>2019-04-18T15:42:16Z</time>
      </trkpt>
      <trkpt lat="44.68149" lon="6.97879">
        <ele>2692</ele>
        <time>2019-04-18T15:43:16Z</time>
      </trkpt>
      <trkpt lat="44.68224" lon="6.97895">
        <ele>2705</ele>
        <time>2019-04-18T15:44:16Z</time>
      </trkpt>
      <trkpt lat="44.68235" lon="6.97902">
        <ele>2706</ele>
        <time>2019-04-18T15:45:16Z</time>
      </trkpt>
      <trkpt lat="44.6826" lon="6.97927">
        <ele>2707</ele>
        <time>2019-04-18T15:46:16Z</time>
      </trkpt>
      <trkpt lat="44.68322" lon="6.97967">
        <ele>2723</ele>
        <time>2019-04-18T15:47:16Z</time>
      </trkpt>
      <trkpt lat="44.68327" lon="6.97974">
        <ele>2724</ele>
        <time>2019-04-18T15:48:16Z</time>
      </trkpt>
      <trkpt lat="44.68331" lon="6.97985">
        <ele>2724</ele>
        <time>2019-04-18T15:49:16Z</time>
      </trkpt>
      <trkpt lat="44.68334" lon="6.98016">
        <ele>2725</ele>
        <time>2019-04-18T15:50:16Z</time>
      </trkpt>
      <trkpt lat="44.68326" lon="6.98058">
        <ele>2725</ele>
        <time>2019-04-18T15:51:16Z</time>
      </trkpt>
      <trkpt lat="44.68321" lon="6.98101">
        <ele>2726</ele>
        <time>2019-04-18T15:52:16Z</time>
      </trkpt>
      <trkpt lat="44.68307" lon="6.98159">
        <ele>2727</ele>
        <time>2019-04-18T15:53:16Z</time>
      </trkpt>
      <trkpt lat="44.68306" lon="6.98167">
        <ele>2727</ele>
        <time>2019-04-18T15:54:16Z</time>
      </trkpt>
      <trkpt lat="44.68307" lon="6.98172">
        <ele>2726</ele>
        <time>2019-04-18T15:55:16Z</time>
      </trkpt>
      <trkpt lat="44.68311" lon="6.98174">
        <ele>2727</ele>
        <time>2019-04-18T15:56:16Z</time>
      </trkpt>
      <trkpt lat="44.68314" lon="6.98172">
        <ele>2729</ele>
        <time>2019-04-18T15:57:16Z</time>
      </trkpt>
      <trkpt lat="44.68327" lon="6.98133">
        <ele>2732</ele>
        <time>2019-04-18T15:58:16Z</time>
      </trkpt>
      <trkpt lat="44.68345" lon="6.98097">
        <ele>2734</ele>
        <time>2019-04-18T15:59:16Z</time>
      </trkpt>
      <trkpt lat="44.68363" lon="6.98054">
        <ele>2735</ele>
        <time>2019-04-18T16:00:16Z</time>
      </trkpt>
      <trkpt lat="44.68381" lon="6.97965">
        <ele>2732</ele>
        <time>2019-04-18T16:01:16Z</time>
      </trkpt>
      <trkpt lat="44.68387" lon="6.97958">
        <ele>2732</ele>
        <time>2019-04-18T16:02:16Z</time>
      </trkpt>
      <trkpt lat="44.68391" lon="6.97957">
        <ele>2733</ele>
        <time>2019-04-18T16:03:16Z</time>
      </trkpt>
      <trkpt lat="44.68399" lon="6.97958">
        <ele>2734</ele>
        <time>2019-04-18T16:04:16Z</time>
      </trkpt>
      <trkpt lat="44.68417" lon="6.97998">
        <ele>2740</ele>
        <time>2019-04-18T16:05:16Z</time>
      </trkpt>
      <trkpt lat="44.68425" lon="6.98009">
        <ele>2740</ele>
        <time>2019-04-18T16:06:16Z</time>
      </trkpt>
      <trkpt lat="44.68443" lon="6.98028">
        <ele>2740</ele>
        <time>2019-04-18T16:07:16Z</time>
      </trkpt>
      <trkpt lat="44.68454" lon="6.98037">
        <ele>2740</ele>
        <time>2019-04-18T16:08:16Z</time>
      </trkpt>
      <trkpt lat="44.68475" lon="6.98044">
        <ele>2738</ele>
        <time>2019-04-18T16:09:16Z</time>
      </trkpt>
      <trkpt lat="44.68486" lon="6.98044">
        <ele>2736</ele>
        <time>2019-04-18T16:10:16Z</time>
      </trkpt>
      <trkpt lat="44.68501" lon="6.9804">
        <ele>2733</ele>
        <time>2019-04-18T16:11:16Z</time>
      </trkpt>
      <trkpt lat="44.6851" lon="6.98033">
        <ele>2731</ele>
        <time>2019-04-18T16:12:16Z</time>
      </trkpt>
      <trkpt lat="44.68528" lon="6.98007">
        <ele>2727</ele>
        <time>2019-04-18T16:13:16Z</time>
      </trkpt>
      <trkpt lat="44.68534" lon="6.98002">
        <ele>2726</ele>
        <time>2019-04-18T16:14:16Z</time>
      </trkpt>
      <trkpt lat="44.68542" lon="6.98">
        <ele>2726</ele>
        <time>2019-04-18T16:15:16Z</time>
      </trkpt>
      <trkpt lat="44.6859" lon="6.98002">
        <ele>2726</ele>
        <time>2019-04-18T16:16:16Z</time>
      </trkpt>
      <trkpt lat="44.68597" lon="6.97998">
        <ele>2725</ele>
        <time>2019-04-18T16:17:16Z</time>
      </trkpt>
      <trkpt lat="44.68598" lon="6.97993">
        <ele>2724</ele>
        <time>2019-04-18T16:18:16Z</time>
      </trkpt>
      <trkpt lat="44.68597" lon="6.97988">
        <ele>2722</ele>
        <time>2019-04-18T16:19:16Z</time>
      </trkpt>
      <trkpt lat="44.6857" lon="6.97982">
        <ele>2721</ele>
        <time>2019-04-18T16:20:16Z</time>
      </trkpt>
      <trkpt lat="44.68536" lon="6.97968">
        <ele>2718</ele>
        <time>2019-04-18T16:21:16Z</time>
      </trkpt>
      <trkpt lat="44.68518" lon="6.97966">
        <ele>2718</ele>
        <time>2019-04-18T16:22:16Z</time>
      </trkpt>
      <trkpt lat="44.68502" lon="6.97957">
        <ele>2717</ele>
        <time>2019-04-18T16:23:16Z</time>
      </trkpt>
      <trkpt lat="44.68483" lon="6.97942">
        <ele>2718</ele>
        <time>2019-04-18T16:24:16Z</time>
      </trkpt>
      <trkpt lat="44.68474" lon="6.97929">
        <ele>2718</ele>
        <time>2019-04-18T16:25:16Z</time>
      </trkpt>
      <trkpt lat="44.68471" lon="6.97908">
        <ele>2717</ele>
        <time>2019-04-18T16:26:16Z</time>
      </trkpt>
      <trkpt lat="44.68472" lon="6.9789">
        <ele>2715</ele>
        <time>2019-04-18T16:27:16Z</time>
      </trkpt>
      <trkpt lat="44.68489" lon="6.97804">
        <ele>2705</ele>
        <time>2019-04-18T16:28:16Z</time>
      </trkpt>
      <trkpt lat="44.68495" lon="6.97799">
        <ele>2702</ele>
        <time>2019-04-18T16:29:16Z</time>
      </trkpt>
      <trkpt lat="44.685" lon="6.97799">
        <ele>2700</ele>
        <time>2019-04-18T16:30:16Z</time>
      </trkpt>
      <trkpt lat="44.68504" lon="6.97803">
        <ele>2700</ele>
        <time>2019-04-18T16:31:16Z</time>
      </trkpt>
      <trkpt lat="44.68507" lon="6.9781">
        <ele>2700</ele>
        <time>2019-04-18T16:32:16Z</time>
      </trkpt>
      <trkpt lat="44.68511" lon="6.97831">
        <ele>2700</ele>
        <time>2019-04-18T16:33:16Z</time>
      </trkpt>
      <trkpt lat="44.68516" lon="6.97849">
        <ele>2701</ele>
        <time>2019-04-18T16:34:16Z</time>
      </trkpt>
      <trkpt lat="44.68532" lon="6.97878">
        <ele>2702</ele>
        <time>2019-04-18T16:35:16Z</time>
      </trkpt>
      <trkpt lat="44.68538" lon="6.97886">
        <ele>2702</ele>
        <time>2019-04-18T16:36:16Z</time>
      </trkpt>
      <trkpt lat="44.68544" lon="6.97891">
        <ele>2702</ele>
        <time>2019-04-18T16:37:16Z</time>
      </trkpt>
      <trkpt lat="44.68551" lon="6.97891">
        <ele>2701</ele>
        <time>2019-04-18T16:38:16Z</time>
      </trkpt>
      <trkpt lat="44.68569" lon="6.97887">
        <ele>2698</ele>
        <time>2019-04-18T16:39:16Z</time>
      </trkpt>
      <trkpt lat="44.68586" lon="6.97876">
        <ele>2694</ele>
        <time>2019-04-18T16:40:16Z</time>
      </trkpt>
      <trkpt lat="44.68605" lon="6.97857">
        <ele>2688</ele>
        <time>2019-04-18T16:41:16Z</time>
      </trkpt>
      <trkpt lat="44.68617" lon="6.9785">
        <ele>2685</ele>
        <time>2019-04-18T16:42:16Z</time>
      </trkpt>
      <trkpt lat="44.68623" lon="6.97851">
        <ele>2684</ele>
        <time>2019-04-18T16:43:16Z</time>
      </trkpt>
      <trkpt lat="44.68639" lon="6.97863">
        <ele>2684</ele>
        <time>2019-04-18T16:44:16Z</time>
      </trkpt>
      <trkpt lat="44.68652" lon="6.97868">
        <ele>2684</ele>
        <time>2019-04-18T16:45:16Z</time>
      </trkpt>
      <trkpt lat="44.68716" lon="6.9788">
        <ele>2679</ele>
        <time>2019-04-18T16:46:16Z</time>
      </trkpt>
      <trkpt lat="44.68728" lon="6.97881">
        <ele>2678</ele>
        <time>2019-04-18T16:47:16Z</time>
      </trkpt>
      <trkpt lat="44.6879" lon="6.97873">
        <ele>2673</ele>
        <time>2019-04-18T16:48:16Z</time>
      </trkpt>
      <trkpt lat="44.68796" lon="6.9787">
        <ele>2672</ele>
        <time>2019-04-18T16:49:16Z</time>
      </trkpt>
      <trkpt lat="44.68804" lon="6.97861">
        <ele>2670</ele>
        <time>2019-04-18T16:50:16Z</time>
      </trkpt>
      <trkpt lat="44.68809" lon="6.97853">
        <ele>2668</ele>
        <time>2019-04-18T16:51:16Z</time>
      </trkpt>
      <trkpt lat="44.68814" lon="6.97836">
        <ele>2663</ele>
        <time>2019-04-18T16:52:16Z</time>
      </trkpt>
      <trkpt lat="44.68821" lon="6.97787">
        <ele>2655</ele>
        <time>2019-04-18T16:53:16Z</time>
      </trkpt>
      <trkpt lat="44.68825" lon="6.97767">
        <ele>2652</ele>
        <time>2019-04-18T16:54:16Z</time>
      </trkpt>
      <trkpt lat="44.68834" lon="6.97753">
        <ele>2649</ele>
        <time>2019-04-18T16:55:16Z</time>
      </trkpt>
      <trkpt lat="44.68845" lon="6.97752">
        <ele>2649</ele>
        <time>2019-04-18T16:56:16Z</time>
      </trkpt>
      <trkpt lat="44.68856" lon="6.97757">
        <ele>2649</ele>
        <time>2019-04-18T16:57:16Z</time>
      </trkpt>
      <trkpt lat="44.68866" lon="6.97764">
        <ele>2650</ele>
        <time>2019-04-18T16:58:16Z</time>
      </trkpt>
      <trkpt lat="44.68874" lon="6.97767">
        <ele>2650</ele>
        <time>2019-04-18T16:59:16Z</time>
      </trkpt>
      <trkpt lat="44.68956" lon="6.97765">
        <ele>2647</ele>
        <time>2019-04-18T17:00:16Z</time>
      </trkpt>
      <trkpt lat="44.68986" lon="6.97769">
        <ele>2647</ele>
        <time>2019-04-18T17:01:16Z</time>
      </trkpt>
      <trkpt lat="44.69008" lon="6.97769">
        <ele>2648</ele>
        <time>2019-04-18T17:02:16Z</time>
      </trkpt>
      <trkpt lat="44.6902" lon="6.97764">
        <ele>2648</ele>
        <time>2019-04-18T17:03:16Z</time>
      </trkpt>
      <trkpt lat="44.69045" lon="6.97743">
        <ele>2646</ele>
        <time>2019-04-18T17:04:16Z</time>
      </trkpt>
      <trkpt lat="44.69051" lon="6.97731">
        <ele>2644</ele>
        <time>2019-04-18T17:05:16Z</time>
      </trkpt>
      <trkpt lat="44.69054" lon="6.97716">
        <ele>2642</ele>
        <time>2019-04-18T17:06:16Z</time>
      </trkpt>
      <trkpt lat="44.69055" lon="6.97684">
        <ele>2637</ele>
        <time>2019-04-18T17:07:16Z</time>
      </trkpt>
      <trkpt lat="44.69053" lon="6.97671">
        <ele>2634</ele>
        <time>2019-04-18T17:08:16Z</time>
      </trkpt>
      <trkpt lat="44.69045" lon="6.97647">
        <ele>2632</ele>
        <time>2019-04-18T17:09:16Z</time>
      </trkpt>
      <trkpt lat="44.6901" lon="6.97568">
        <ele>2623</ele>
        <time>2019-04-18T17:10:16Z</time>
      </trkpt>
      <trkpt lat="44.69008" lon="6.97557">
        <ele>2622</ele>
        <time>2019-04-18T17:11:16Z</time>
      </trkpt>
      <trkpt lat="44.69008" lon="6.97547">
        <ele>2620</ele>
        <time>2019-04-18T17:12:16Z</time>
      </trkpt>
      <trkpt lat="44.69012" lon="6.97518">
        <ele>2618</ele>
        <time>2019-04-18T17:13:16Z</time>
      </trkpt>
      <trkpt lat="44.69012" lon="6.97505">
        <ele>2616</ele>
        <time>2019-04-18T17:14:16Z</time>
      </trkpt>
      <trkpt lat="44.69006" lon="6.9745">
        <ele>2608</ele>
        <time>2019-04-18T17:15:16Z</time>
      </trkpt>
      <trkpt lat="44.69013" lon="6.9743">
        <ele>2606</ele>
        <time>2019-04-18T17:16:16Z</time>
      </trkpt>
      <trkpt lat="44.69032" lon="6.97406">
        <ele>2604</ele>
        <time>2019-04-18T17:17:16Z</time>
      </trkpt>
      <trkpt lat="44.69063" lon="6.97379">
        <ele>2601</ele>
        <time>2019-04-18T17:18:16Z</time>
      </trkpt>
      <trkpt lat="44.69092" lon="6.97358">
        <ele>2599</ele>
        <time>2019-04-18T17:19:16Z</time>
      </trkpt>
      <trkpt lat="44.69132" lon="6.9734">
        <ele>2601</ele>
        <time>2019-04-18T17:20:16Z</time>
      </trkpt>
      <trkpt lat="44.69144" lon="6.97327">
        <ele>2600</ele>
        <time>2019-04-18T17:21:16Z</time>
      </trkpt>
      <trkpt lat="44.69149" lon="6.97313">
        <ele>2599</ele>
        <time>2019-04-18T17:22:16Z</time>
      </trkpt>
      <trkpt lat="44.69149" lon="6.97305">
        <ele>2598</ele>
        <time>2019-04-18T17:23:16Z</time>
      </trkpt>
      <trkpt lat="44.69143" lon="6.97286">
        <ele>2594</ele>
        <time>2019-04-18T17:24:16Z</time>
      </trkpt>
      <trkpt lat="44.69142" lon="6.97274">
        <ele>2593</ele>
        <time>2019-04-18T17:25:16Z</time>
      </trkpt>
      <trkpt lat="44.69142" lon="6.97264">
        <ele>2591</ele>
        <time>2019-04-18T17:26:16Z</time>
      </trkpt>
      <trkpt lat="44.69154" lon="6.97198">
        <ele>2585</ele>
        <time>2019-04-18T17:27:16Z</time>
      </trkpt>
      <trkpt lat="44.69164" lon="6.97168">
        <ele>2582</ele>
        <time>2019-04-18T17:28:16Z</time>
      </trkpt>
      <trkpt lat="44.69174" lon="6.97154">
        <ele>2582</ele>
        <time>2019-04-18T17:29:16Z</time>
      </trkpt>
      <trkpt lat="44.69187" lon="6.97141">
        <ele>2583</ele>
        <time>2019-04-18T17:30:16Z</time>
      </trkpt>
      <trkpt lat="44.69192" lon="6.97135">
        <ele>2584</ele>
        <time>2019-04-18T17:31:16Z</time>
      </trkpt>
      <trkpt lat="44.69193" lon="6.97129">
        <ele>2583</ele>
        <time>2019-04-18T17:32:16Z</time>
      </trkpt>
      <trkpt lat="44.69192" lon="6.97125">
        <ele>2582</ele>
        <time>2019-04-18T17:33:16Z</time>
      </trkpt>
      <trkpt lat="44.69188" lon="6.97122">
        <ele>2581</ele>
        <time>2019-04-18T17:34:16Z</time>
      </trkpt>
      <trkpt lat="44.6918" lon="6.97126">
        <ele>2580</ele>
        <time>2019-04-18T17:35:16Z</time>
      </trkpt>
      <trkpt lat="44.69168" lon="6.97136">
        <ele>2578</ele>
        <time>2019-04-18T17:36:16Z</time>
      </trkpt>
      <trkpt lat="44.69157" lon="6.97142">
        <ele>2578</ele>
        <time>2019-04-18T17:37:16Z</time>
      </trkpt>
      <trkpt lat="44.69145" lon="6.97142">
        <ele>2576</ele>
        <time>2019-04-18T17:38:16Z</time>
      </trkpt>
      <trkpt lat="44.6914" lon="6.97139">
        <ele>2576</ele>
        <time>2019-04-18T17:39:16Z</time>
      </trkpt>
      <trkpt lat="44.69138" lon="6.97134">
        <ele>2575</ele>
        <time>2019-04-18T17:40:16Z</time>
      </trkpt>
      <trkpt lat="44.69139" lon="6.97128">
        <ele>2574</ele>
        <time>2019-04-18T17:41:16Z</time>
      </trkpt>
      <trkpt lat="44.69143" lon="6.97119">
        <ele>2574</ele>
        <time>2019-04-18T17:42:16Z</time>
      </trkpt>
      <trkpt lat="44.69173" lon="6.9708">
        <ele>2572</ele>
        <time>2019-04-18T17:43:16Z</time>
      </trkpt>
      <trkpt lat="44.69191" lon="6.97045">
        <ele>2571</ele>
        <time>2019-04-18T17:44:16Z</time>
      </trkpt>
      <trkpt lat="44.69193" lon="6.97033">
        <ele>2570</ele>
        <time>2019-04-18T17:45:16Z</time>
      </trkpt>
      <trkpt lat="44.69199" lon="6.96969">
        <ele>2561</ele>
        <time>2019-04-18T17:46:16Z</time>
      </trkpt>
      <trkpt lat="44.69204" lon="6.96939">
        <ele>2558</ele>
        <time>2019-04-18T17:47:16Z</time>
      </trkpt>
      <trkpt lat="44.69231" lon="6.96877">
        <ele>2556</ele>
        <time>2019-04-18T17:48:16Z</time>
      </trkpt>
      <trkpt lat="44.69233" lon="6.96859">
        <ele>2554</ele>
        <time>2019-04-18T17:49:16Z</time>
      </trkpt>
      <trkpt lat="44.69232" lon="6.96845">
        <ele>2552</ele>
        <time>2019-04-18T17:50:16Z</time>
      </trkpt>
      <trkpt lat="44.69222" lon="6.96799">
        <ele>2544</ele>
        <time>2019-04-18T17:51:16Z</time>
      </trkpt>
      <trkpt lat="44.6922" lon="6.96778">
        <ele>2541</ele>
        <time>2019-04-18T17:52:16Z</time>
      </trkpt>
      <trkpt lat="44.69222" lon="6.96766">
        <ele>2541</ele>
        <time>2019-04-18T17:53:16Z</time>
      </trkpt>
      <trkpt lat="44.69225" lon="6.96754">
        <ele>2541</ele>
        <time>2019-04-18T17:54:16Z</time>
      </trkpt>
      <trkpt lat="44.69234" lon="6.96735">
        <ele>2542</ele>
        <time>2019-04-18T17:55:16Z</time>
      </trkpt>
      <trkpt lat="44.69237" lon="6.96724">
        <ele>2542</ele>
        <time>2019-04-18T17:56:16Z</time>
      </trkpt>
      <trkpt lat="44.6924" lon="6.96671">
        <ele>2539</ele>
        <time>2019-04-18T17:57:16Z</time>
      </trkpt>
      <trkpt lat="44.6925" lon="6.9659">
        <ele>2531</ele>
        <time>2019-04-18T17:58:16Z</time>
      </trkpt>
      <trkpt lat="44.69253" lon="6.96572">
        <ele>2529</ele>
        <time>2019-04-18T17:59:16Z</time>
      </trkpt>
      <trkpt lat="44.69272" lon="6.96504">
        <ele>2526</ele>
        <time>2019-04-18T18:00:16Z</time>
      </trkpt>
      <trkpt lat="44.69288" lon="6.96457">
        <ele>2524</ele>
        <time>2019-04-18T18:01:16Z</time>
      </trkpt>
      <trkpt lat="44.69288" lon="6.96452">
        <ele>2523</ele>
        <time>2019-04-18T18:02:16Z</time>
      </trkpt>
      <trkpt lat="44.69284" lon="6.96446">
        <ele>2521</ele>
        <time>2019-04-18T18:03:16Z</time>
      </trkpt>
      <trkpt lat="44.6928" lon="6.96448">
        <ele>2520</ele>
        <time>2019-04-18T18:04:16Z</time>
      </trkpt>
      <trkpt lat="44.69273" lon="6.96458">
        <ele>2519</ele>
        <time>2019-04-18T18:05:16Z</time>
      </trkpt>
      <trkpt lat="44.69259" lon="6.96487">
        <ele>2519</ele>
        <time>2019-04-18T18:06:16Z</time>
      </trkpt>
      <trkpt lat="44.69203" lon="6.96579">
        <ele>2517</ele>
        <time>2019-04-18T18:07:16Z</time>
      </trkpt>
      <trkpt lat="44.69191" lon="6.96595">
        <ele>2516</ele>
        <time>2019-04-18T18:08:16Z</time>
      </trkpt>
      <trkpt lat="44.69184" lon="6.96596">
        <ele>2514</ele>
        <time>2019-04-18T18:09:16Z</time>
      </trkpt>
      <trkpt lat="44.69182" lon="6.96588">
        <ele>2513</ele>
        <time>2019-04-18T18:10:16Z</time>
      </trkpt>
      <trkpt lat="44.69193" lon="6.96557">
        <ele>2510</ele>
        <time>2019-04-18T18:11:16Z</time>
      </trkpt>
      <trkpt lat="44.69203" lon="6.96523">
        <ele>2507</ele>
        <time>2019-04-18T18:12:16Z</time>
      </trkpt>
      <trkpt lat="44.69226" lon="6.96422">
        <ele>2497</ele>
        <time>2019-04-18T18:13:16Z</time>
      </trkpt>
      <trkpt lat="44.69234" lon="6.96396">
        <ele>2494</ele>
        <time>2019-04-18T18:14:16Z</time>
      </trkpt>
      <trkpt lat="44.69258" lon="6.96333">
        <ele>2486</ele>
        <time>2019-04-18T18:15:16Z</time>
      </trkpt>
      <trkpt lat="44.69305" lon="6.96222">
        <ele>2479</ele>
        <time>2019-04-18T18:16:16Z</time>
      </trkpt>
      <trkpt lat="44.69315" lon="6.96201">
        <ele>2477</ele>
        <time>2019-04-18T18:17:16Z</time>
      </trkpt>
      <trkpt lat="44.69336" lon="6.96172">
        <ele>2477</ele>
        <time>2019-04-18T18:18:16Z</time>
      </trkpt>
      <trkpt lat="44.69367" lon="6.9612">
        <ele>2468</ele>
        <time>2019-04-18T18:19:16Z</time>
      </trkpt>
      <trkpt lat="44.69382" lon="6.96098">
        <ele>2465</ele>
        <time>2019-04-18T18:20:16Z</time>
      </trkpt>
      <trkpt lat="44.69398" lon="6.96077">
        <ele>2463</ele>
        <time>2019-04-18T18:21:16Z</time>
      </trkpt>
      <trkpt lat="44.69411" lon="6.96056">
        <ele>2461</ele>
        <time>2019-04-18T18:22:16Z</time>
      </trkpt>
      <trkpt lat="44.69424" lon="6.96034">
        <ele>2459</ele>
        <time>2019-04-18T18:23:16Z</time>
      </trkpt>
      <trkpt lat="44.69433" lon="6.96013">
        <ele>2456</ele>
        <time>2019-04-18T18:24:16Z</time>
      </trkpt>
      <trkpt lat="44.69439" lon="6.95993">
        <ele>2454</ele>
        <time>2019-04-18T18:25:16Z</time>
      </trkpt>
      <trkpt lat="44.69442" lon="6.95975">
        <ele>2452</ele>
        <time>2019-04-18T18:26:16Z</time>
      </trkpt>
      <trkpt lat="44.69441" lon="6.95929">
        <ele>2445</ele>
        <time>2019-04-18T18:27:16Z</time>
      </trkpt>
      <trkpt lat="44.69445" lon="6.95896">
        <ele>2442</ele>
        <time>2019-04-18T18:28:16Z</time>
      </trkpt>
      <trkpt lat="44.69465" lon="6.95813">
        <ele>2439</ele>
        <time>2019-04-18T18:29:16Z</time>
      </trkpt>
      <trkpt lat="44.6947" lon="6.95799">
        <ele>2439</ele>
        <time>2019-04-18T18:30:16Z</time>
      </trkpt>
      <trkpt lat="44.69502" lon="6.95738">
        <ele>2437</ele>
        <time>2019-04-18T18:31:16Z</time>
      </trkpt>
      <trkpt lat="44.69555" lon="6.95681">
        <ele>2433</ele>
        <time>2019-04-18T18:32:16Z</time>
      </trkpt>
      <trkpt lat="44.69571" lon="6.95661">
        <ele>2430</ele>
        <time>2019-04-18T18:33:16Z</time>
      </trkpt>
      <trkpt lat="44.6958" lon="6.95645">
        <ele>2428</ele>
        <time>2019-04-18T18:34:16Z</time>
      </trkpt>
      <trkpt lat="44.69589" lon="6.95618">
        <ele>2424</ele>
        <time>2019-04-18T18:35:16Z</time>
      </trkpt>
      <trkpt lat="44.69596" lon="6.95602">
        <ele>2423</ele>
        <time>2019-04-18T18:36:16Z</time>
      </trkpt>
      <trkpt lat="44.69607" lon="6.95582">
        <ele>2422</ele>
        <time>2019-04-18T18:37:16Z</time>
      </trkpt>
      <trkpt lat="44.6963" lon="6.95549">
        <ele>2423</ele>
        <time>2019-04-18T18:38:16Z</time>
      </trkpt>
      <trkpt lat="44.69636" lon="6.95536">
        <ele>2422</ele>
        <time>2019-04-18T18:39:16Z</time>
      </trkpt>
      <trkpt lat="44.69644" lon="6.95513">
        <ele>2420</ele>
        <time>2019-04-18T18:40:16Z</time>
      </trkpt>
      <trkpt lat="44.69653" lon="6.95457">
        <ele>2413</ele>
        <time>2019-04-18T18:41:16Z</time>
      </trkpt>
      <trkpt lat="44.69656" lon="6.95444">
        <ele>2412</ele>
        <time>2019-04-18T18:42:16Z</time>
      </trkpt>
      <trkpt lat="44.69675" lon="6.95405">
        <ele>2413</ele>
        <time>2019-04-18T18:43:16Z</time>
      </trkpt>
      <trkpt lat="44.69683" lon="6.95373">
        <ele>2411</ele>
        <time>2019-04-18T18:44:16Z</time>
      </trkpt>
      <trkpt lat="44.69714" lon="6.95247">
        <ele>2400</ele>
        <time>2019-04-18T18:45:16Z</time>
      </trkpt>
      <trkpt lat="44.6972" lon="6.95213">
        <ele>2396</ele>
        <time>2019-04-18T18:46:16Z</time>
      </trkpt>
      <trkpt lat="44.69727" lon="6.95158">
        <ele>2388</ele>
        <time>2019-04-18T18:47:16Z</time>
      </trkpt>
      <trkpt lat="44.69736" lon="6.95114">
        <ele>2384</ele>
        <time>2019-04-18T18:48:16Z</time>
      </trkpt>
      <trkpt lat="44.69761" lon="6.95027">
        <ele>2378</ele>
        <time>2019-04-18T18:49:16Z</time>
      </trkpt>
      <trkpt lat="44.69778" lon="6.94997">
        <ele>2376</ele>
        <time>2019-04-18T18:50:16Z</time>
      </trkpt>
      <trkpt lat="44.69808" lon="6.94954">
        <ele>2374</ele>
        <time>2019-04-18T18:51:16Z</time>
      </trkpt>
      <trkpt lat="44.69837" lon="6.9493">
        <ele>2375</ele>
        <time>2019-04-18T18:52:16Z</time>
      </trkpt>
      <trkpt lat="44.69841" lon="6.94921">
        <ele>2373</ele>
        <time>2019-04-18T18:53:16Z</time>
      </trkpt>
      <trkpt lat="44.6984" lon="6.94916">
        <ele>2371</ele>
        <time>2019-04-18T18:54:16Z</time>
      </trkpt>
      <trkpt lat="44.69837" lon="6.94913">
        <ele>2370</ele>
        <time>2019-04-18T18:55:16Z</time>
      </trkpt>
      <trkpt lat="44.69827" lon="6.94913">
        <ele>2368</ele>
        <time>2019-04-18T18:56:16Z</time>
      </trkpt>
      <trkpt lat="44.69766" lon="6.94951">
        <ele>2363</ele>
        <time>2019-04-18T18:57:16Z</time>
      </trkpt>
      <trkpt lat="44.69714" lon="6.95015">
        <ele>2359</ele>
        <time>2019-04-18T18:58:16Z</time>
      </trkpt>
      <trkpt lat="44.69694" lon="6.95043">
        <ele>2356</ele>
        <time>2019-04-18T18:59:16Z</time>
      </trkpt>
      <trkpt lat="44.69675" lon="6.95074">
        <ele>2351</ele>
        <time>2019-04-18T19:00:16Z</time>
      </trkpt>
      <trkpt lat="44.69664" lon="6.95095">
        <ele>2349</ele>
        <time>2019-04-18T19:01:16Z</time>
      </trkpt>
      <trkpt lat="44.69644" lon="6.95144">
        <ele>2352</ele>
        <time>2019-04-18T19:02:16Z</time>
      </trkpt>
      <trkpt lat="44.69633" lon="6.95162">
        <ele>2351</ele>
        <time>2019-04-18T19:03:16Z</time>
      </trkpt>
      <trkpt lat="44.69617" lon="6.95175">
        <ele>2348</ele>
        <time>2019-04-18T19:04:16Z</time>
      </trkpt>
      <trkpt lat="44.69608" lon="6.95179">
        <ele>2346</ele>
        <time>2019-04-18T19:05:16Z</time>
      </trkpt>
      <trkpt lat="44.69596" lon="6.95176">
        <ele>2341</ele>
        <time>2019-04-18T19:06:16Z</time>
      </trkpt>
      <trkpt lat="44.69592" lon="6.95171">
        <ele>2339</ele>
        <time>2019-04-18T19:07:16Z</time>
      </trkpt>
      <trkpt lat="44.69589" lon="6.95163">
        <ele>2337</ele>
        <time>2019-04-18T19:08:16Z</time>
      </trkpt>
      <trkpt lat="44.69586" lon="6.95075">
        <ele>2327</ele>
        <time>2019-04-18T19:09:16Z</time>
      </trkpt>
      <trkpt lat="44.69587" lon="6.95039">
        <ele>2325</ele>
        <time>2019-04-18T19:10:16Z</time>
      </trkpt>
      <trkpt lat="44.69599" lon="6.94981">
        <ele>2323</ele>
        <time>2019-04-18T19:11:16Z</time>
      </trkpt>
      <trkpt lat="44.69599" lon="6.94946">
        <ele>2319</ele>
        <time>2019-04-18T19:12:16Z</time>
      </trkpt>
      <trkpt lat="44.69602" lon="6.94925">
        <ele>2317</ele>
        <time>2019-04-18T19:13:16Z</time>
      </trkpt>
      <trkpt lat="44.69612" lon="6.94907">
        <ele>2317</ele>
        <time>2019-04-18T19:14:16Z</time>
      </trkpt>
      <trkpt lat="44.69628" lon="6.94894">
        <ele>2317</ele>
        <time>2019-04-18T19:15:16Z</time>
      </trkpt>
      <trkpt lat="44.69637" lon="6.94882">
        <ele>2317</ele>
        <time>2019-04-18T19:16:16Z</time>
      </trkpt>
      <trkpt lat="44.69681" lon="6.94784">
        <ele>2302</ele>
        <time>2019-04-18T19:17:16Z</time>
      </trkpt>
      <trkpt lat="44.69689" lon="6.94769">
        <ele>2300</ele>
        <time>2019-04-18T19:18:16Z</time>
      </trkpt>
      <trkpt lat="44.69699" lon="6.94762">
        <ele>2299</ele>
        <time>2019-04-18T19:19:16Z</time>
      </trkpt>
      <trkpt lat="44.69705" lon="6.94762">
        <ele>2299</ele>
        <time>2019-04-18T19:20:16Z</time>
      </trkpt>
      <trkpt lat="44.69734" lon="6.94773">
        <ele>2304</ele>
        <time>2019-04-18T19:21:16Z</time>
      </trkpt>
      <trkpt lat="44.69744" lon="6.94775">
        <ele>2305</ele>
        <time>2019-04-18T19:22:16Z</time>
      </trkpt>
      <trkpt lat="44.69755" lon="6.94774">
        <ele>2306</ele>
        <time>2019-04-18T19:23:16Z</time>
      </trkpt>
      <trkpt lat="44.69762" lon="6.94771">
        <ele>2307</ele>
        <time>2019-04-18T19:24:16Z</time>
      </trkpt>
      <trkpt lat="44.6977" lon="6.94764">
        <ele>2306</ele>
        <time>2019-04-18T19:25:16Z</time>
      </trkpt>
      <trkpt lat="44.69776" lon="6.94755">
        <ele>2305</ele>
        <time>2019-04-18T19:26:16Z</time>
      </trkpt>
      <trkpt lat="44.69808" lon="6.94692">
        <ele>2295</ele>
        <time>2019-04-18T19:27:16Z</time>
      </trkpt>
      <trkpt lat="44.69825" lon="6.94653">
        <ele>2287</ele>
        <time>2019-04-18T19:28:16Z</time>
      </trkpt>
      <trkpt lat="44.6984" lon="6.94624">
        <ele>2282</ele>
        <time>2019-04-18T19:29:16Z</time>
      </trkpt>
      <trkpt lat="44.69847" lon="6.94616">
        <ele>2281</ele>
        <time>2019-04-18T19:30:16Z</time>
      </trkpt>
      <trkpt lat="44.69859" lon="6.94608">
        <ele>2280</ele>
        <time>2019-04-18T19:31:16Z</time>
      </trkpt>
      <trkpt lat="44.69888" lon="6.94592">
        <ele>2279</ele>
        <time>2019-04-18T19:32:16Z</time>
      </trkpt>
      <trkpt lat="44.69925" lon="6.94576">
        <ele>2281</ele>
        <time>2019-04-18T19:33:16Z</time>
      </trkpt>
      <trkpt lat="44.69929" lon="6.94564">
        <ele>2280</ele>
        <time>2019-04-18T19:34:16Z</time>
      </trkpt>
      <trkpt lat="44.69928" lon="6.94512">
        <ele>2274</ele>
        <time>2019-04-18T19:35:16Z</time>
      </trkpt>
      <trkpt lat="44.69942" lon="6.94449">
        <ele>2271</ele>
        <time>2019-04-18T19:36:16Z</time>
      </trkpt>
      <trkpt lat="44.69946" lon="6.94388">
        <ele>2266</ele>
        <time>2019-04-18T19:37:16Z</time>
      </trkpt>
      <trkpt lat="44.69975" lon="6.94321">
        <ele>2264</ele>
        <time>2019-04-18T19:38:16Z</time>
      </trkpt>
      <trkpt lat="44.69995" lon="6.94191">
        <ele>2253</ele>
        <time>2019-04-18T19:39:16Z</time>
      </trkpt>
      <trkpt lat="44.70004" lon="6.94157">
        <ele>2251</ele>
        <time>2019-04-18T19:40:16Z</time>
      </trkpt>
      <trkpt lat="44.70043" lon="6.94065">
        <ele>2249</ele>
        <time>2019-04-18T19:41:16Z</time>
      </trkpt>
      <trkpt lat="44.70071" lon="6.93989">
        <ele>2242</ele>
        <time>2019-04-18T19:42:16Z</time>
      </trkpt>
      <trkpt lat="44.70093" lon="6.93945">
        <ele>2235</ele>
        <time>2019-04-18T19:43:16Z</time>
      </trkpt>
      <trkpt lat="44.70149" lon="6.93884">
        <ele>2234</ele>
        <time>2019-04-18T19:44:16Z</time>
      </trkpt>
      <trkpt lat="44.70176" lon="6.9383">
        <ele>2227</ele>
        <time>2019-04-18T19:45:16Z</time>
      </trkpt>
      <trkpt lat="44.70244" lon="6.93739">
        <ele>2221</ele>
        <time>2019-04-18T19:46:16Z</time>
      </trkpt>
      <trkpt lat="44.70296" lon="6.93666">
        <ele>2220</ele>
        <time>2019-04-18T19:47:16Z</time>
      </trkpt>
      <trkpt lat="44.70305" lon="6.93652">
        <ele>2219</ele>
        <time>2019-04-18T19:48:16Z</time>
      </trkpt>
      <trkpt lat="44.70334" lon="6.93575">
        <ele>2209</ele>
        <time>2019-04-18T19:49:16Z</time>
      </trkpt>
      <trkpt lat="44.70349" lon="6.93513">
        <ele>2204</ele>
        <time>2019-04-18T19:50:16Z</time>
      </trkpt>
      <trkpt lat="44.70356" lon="6.93492">
        <ele>2203</ele>
        <time>2019-04-18T19:51:16Z</time>
      </trkpt>
      <trkpt lat="44.70394" lon="6.93422">
        <ele>2202</ele>
        <time>2019-04-18T19:52:16Z</time>
      </trkpt>
      <trkpt lat="44.70407" lon="6.93392">
        <ele>2199</ele>
        <time>2019-04-18T19:53:16Z</time>
      </trkpt>
      <trkpt lat="44.70421" lon="6.93345">
        <ele>2192</ele>
        <time>2019-04-18T19:54:16Z</time>
      </trkpt>
      <trkpt lat="44.70432" lon="6.9332">
        <ele>2190</ele>
        <time>2019-04-18T19:55:16Z</time>
      </trkpt>
      <trkpt lat="44.7045" lon="6.93287">
        <ele>2189</ele>
        <time>2019-04-18T19:56:16Z</time>
      </trkpt>
      <trkpt lat="44.70477" lon="6.93226">
        <ele>2184</ele>
        <time>2019-04-18T19:57:16Z</time>
      </trkpt>
      <trkpt lat="44.70484" lon="6.93214">
        <ele>2182</ele>
        <time>2019-04-18T19:58:16Z</time>
      </trkpt>
      <trkpt lat="44.70492" lon="6.93204">
        <ele>2181</ele>
        <time>2019-04-18T19:59:16Z</time>
      </trkpt>
      <trkpt lat="44.70519" lon="6.93182">
        <ele>2179</ele>
        <time>2019-04-18T20:00:16Z</time>
      </trkpt>
      <trkpt lat="44.70528" lon="6.93171">
        <ele>2178</ele>
        <time>2019-04-18T20:01:16Z</time>
      </trkpt>
      <trkpt lat="44.70536" lon="6.93153">
        <ele>2178</ele>
        <time>2019-04-18T20:02:16Z</time>
      </trkpt>
      <trkpt lat="44.70564" lon="6.93058">
        <ele>2174</ele>
        <time>2019-04-18T20:03:16Z</time>
      </trkpt>
      <trkpt lat="44.70577" lon="6.93025">
        <ele>2172</ele>
        <time>2019-04-18T20:04:16Z</time>
      </trkpt>
      <trkpt lat="44.70586" lon="6.93006">
        <ele>2171</ele>
        <time>2019-04-18T20:05:16Z</time>
      </trkpt>
      <trkpt lat="44.7063" lon="6.92938">
        <ele>2173</ele>
        <time>2019-04-18T20:06:16Z</time>
      </trkpt>
      <trkpt lat="44.70665" lon="6.92899">
        <ele>2172</ele>
        <time>2019-04-18T20:07:16Z</time>
      </trkpt>
      <trkpt lat="44.7067" lon="6.92889">
        <ele>2171</ele>
        <time>2019-04-18T20:08:16Z</time>
      </trkpt>
      <trkpt lat="44.70676" lon="6.92871">
        <ele>2171</ele>
        <time>2019-04-18T20:09:16Z</time>
      </trkpt>
      <trkpt lat="44.70691" lon="6.92805">
        <ele>2169</ele>
        <time>2019-04-18T20:10:16Z</time>
      </trkpt>
      <trkpt lat="44.70711" lon="6.92736">
        <ele>2169</ele>
        <time>2019-04-18T20:11:16Z</time>
      </trkpt>
      <trkpt lat="44.70718" lon="6.92693">
        <ele>2166</ele>
        <time>2019-04-18T20:12:16Z</time>
      </trkpt>
      <trkpt lat="44.70722" lon="6.92675">
        <ele>2165</ele>
        <time>2019-04-18T20:13:16Z</time>
      </trkpt>
      <trkpt lat="44.70745" lon="6.92612">
        <ele>2157</ele>
        <time>2019-04-18T20:14:16Z</time>
      </trkpt>
      <trkpt lat="44.7078" lon="6.92531">
        <ele>2156</ele>
        <time>2019-04-18T20:15:16Z</time>
      </trkpt>
      <trkpt lat="44.7082" lon="6.92447">
        <ele>2147</ele>
        <time>2019-04-18T20:16:16Z</time>
      </trkpt>
      <trkpt lat="44.70854" lon="6.92397">
        <ele>2140</ele>
        <time>2019-04-18T20:17:16Z</time>
      </trkpt>
      <trkpt lat="44.70878" lon="6.92347">
        <ele>2134</ele>
        <time>2019-04-18T20:18:16Z</time>
      </trkpt>
      <trkpt lat="44.70893" lon="6.92325">
        <ele>2131</ele>
        <time>2019-04-18T20:19:16Z</time>
      </trkpt>
      <trkpt lat="44.7091" lon="6.92308">
        <ele>2128</ele>
        <time>2019-04-18T20:20:16Z</time>
      </trkpt>
      <trkpt lat="44.70921" lon="6.923">
        <ele>2126</ele>
        <time>2019-04-18T20:21:16Z</time>
      </trkpt>
      <trkpt lat="44.70947" lon="6.92289">
        <ele>2124</ele>
        <time>2019-04-18T20:22:16Z</time>
      </trkpt>
      <trkpt lat="44.71002" lon="6.92276">
        <ele>2119</ele>
        <time>2019-04-18T20:23:16Z</time>
      </trkpt>
      <trkpt lat="44.71031" lon="6.92261">
        <ele>2116</ele>
        <time>2019-04-18T20:24:16Z</time>
      </trkpt>
      <trkpt lat="44.71044" lon="6.9225">
        <ele>2114</ele>
        <time>2019-04-18T20:25:16Z</time>
      </trkpt>
      <trkpt lat="44.71057" lon="6.92234">
        <ele>2113</ele>
        <time>2019-04-18T20:26:16Z</time>
      </trkpt>
      <trkpt lat="44.71096" lon="6.92177">
        <ele>2107</ele>
        <time>2019-04-18T20:27:16Z</time>
      </trkpt>
      <trkpt lat="44.71152" lon="6.92114">
        <ele>2103</ele>
        <time>2019-04-18T20:28:16Z</time>
      </trkpt>
      <trkpt lat="44.71183" lon="6.92069">
        <ele>2102</ele>
        <time>2019-04-18T20:29:16Z</time>
      </trkpt>
      <trkpt lat="44.71214" lon="6.92016">
        <ele>2102</ele>
        <time>2019-04-18T20:30:16Z</time>
      </trkpt>
      <trkpt lat="44.71228" lon="6.91983">
        <ele>2100</ele>
        <time>2019-04-18T20:31:16Z</time>
      </trkpt>
      <trkpt lat="44.71242" lon="6.91941">
        <ele>2095</ele>
        <time>2019-04-18T20:32:16Z</time>
      </trkpt>
      <trkpt lat="44.71253" lon="6.91918">
        <ele>2093</ele>
        <time>2019-04-18T20:33:16Z</time>
      </trkpt>
      <trkpt lat="44.71267" lon="6.91896">
        <ele>2093</ele>
        <time>2019-04-18T20:34:16Z</time>
      </trkpt>
      <trkpt lat="44.71291" lon="6.91869">
        <ele>2093</ele>
        <time>2019-04-18T20:35:16Z</time>
      </trkpt>
      <trkpt lat="44.71332" lon="6.91828">
        <ele>2089</ele>
        <time>2019-04-18T20:36:16Z</time>
      </trkpt>
      <trkpt lat="44.71365" lon="6.91786">
        <ele>2091</ele>
        <time>2019-04-18T20:37:16Z</time>
      </trkpt>
      <trkpt lat="44.71414" lon="6.9172">
        <ele>2087</ele>
        <time>2019-04-18T20:38:16Z</time>
      </trkpt>
      <trkpt lat="44.71472" lon="6.91655">
        <ele>2089</ele>
        <time>2019-04-18T20:39:16Z</time>
      </trkpt>
      <trkpt lat="44.71479" lon="6.91645">
        <ele>2089</ele>
        <time>2019-04-18T20:40:16Z</time>
      </trkpt>
      <trkpt lat="44.71491" lon="6.91618">
        <ele>2087</ele>
        <time>2019-04-18T20:41:16Z</time>
      </trkpt>
      <trkpt lat="44.71498" lon="6.91596">
        <ele>2085</ele>
        <time>2019-04-18T20:42:16Z</time>
      </trkpt>
      <trkpt lat="44.7151" lon="6.91535">
        <ele>2084</ele>
        <time>2019-04-18T20:43:16Z</time>
      </trkpt>
      <trkpt lat="44.71518" lon="6.91513">
        <ele>2084</ele>
        <time>2019-04-18T20:44:16Z</time>
      </trkpt>
      <trkpt lat="44.71538" lon="6.9147">
        <ele>2083</ele>
        <time>2019-04-18T20:45:16Z</time>
      </trkpt>
      <trkpt lat="44.71556" lon="6.91439">
        <ele>2079</ele>
        <time>2019-04-18T20:46:16Z</time>
      </trkpt>
      <trkpt lat="44.71569" lon="6.91422">
        <ele>2075</ele>
        <time>2019-04-18T20:47:16Z</time>
      </trkpt>
      <trkpt lat="44.71594" lon="6.91397">
        <ele>2072</ele>
        <time>2019-04-18T20:48:16Z</time>
      </trkpt>
      <trkpt lat="44.71605" lon="6.91382">
        <ele>2072</ele>
        <time>2019-04-18T20:49:16Z</time>
      </trkpt>
      <trkpt lat="44.71612" lon="6.91369">
        <ele>2072</ele>
        <time>2019-04-18T20:50:16Z</time>
      </trkpt>
      <trkpt lat="44.7164" lon="6.91292">
        <ele>2067</ele>
        <time>2019-04-18T20:51:16Z</time>
      </trkpt>
      <trkpt lat="44.71646" lon="6.91273">
        <ele>2065</ele>
        <time>2019-04-18T20:52:16Z</time>
      </trkpt>
      <trkpt lat="44.71669" lon="6.91183">
        <ele>2059</ele>
        <time>2019-04-18T20:53:16Z</time>
      </trkpt>
      <trkpt lat="44.71682" lon="6.91147">
        <ele>2058</ele>
        <time>2019-04-18T20:54:16Z</time>
      </trkpt>
      <trkpt lat="44.71699" lon="6.91117">
        <ele>2057</ele>
        <time>2019-04-18T20:55:16Z</time>
      </trkpt>
      <trkpt lat="44.71752" lon="6.91035">
        <ele>2053</ele>
        <time>2019-04-18T20:56:16Z</time>
      </trkpt>
      <trkpt lat="44.71759" lon="6.91014">
        <ele>2053</ele>
        <time>2019-04-18T20:57:16Z</time>
      </trkpt>
      <trkpt lat="44.71774" lon="6.90938">
        <ele>2052</ele>
        <time>2019-04-18T20:58:16Z</time>
      </trkpt>
      <trkpt lat="44.71795" lon="6.90845">
        <ele>2046</ele>
        <time>2019-04-18T20:59:16Z</time>
      </trkpt>
      <trkpt lat="44.71811" lon="6.9071">
        <ele>2038</ele>
        <time>2019-04-18T21:00:16Z</time>
      </trkpt>
      <trkpt lat="44.71817" lon="6.90672">
        <ele>2035</ele>
        <time>2019-04-18T21:01:16Z</time>
      </trkpt>
      <trkpt lat="44.71824" lon="6.90641">
        <ele>2034</ele>
        <time>2019-04-18T21:02:16Z</time>
      </trkpt>
      <trkpt lat="44.71845" lon="6.90586">
        <ele>2032</ele>
        <time>2019-04-18T21:03:16Z</time>
      </trkpt>
      <trkpt lat="44.71892" lon="6.90478">
        <ele>2030</ele>
        <time>2019-04-18T21:04:16Z</time>
      </trkpt>
      <trkpt lat="44.71912" lon="6.90428">
        <ele>2027</ele>
        <time>2019-04-18T21:05:16Z</time>
      </trkpt>
      <trkpt lat="44.71931" lon="6.90372">
        <ele>2026</ele>
        <time>2019-04-18T21:06:16Z</time>
      </trkpt>
      <trkpt lat="44.71937" lon="6.90336">
        <ele>2026</ele>
        <time>2019-04-18T21:07:16Z</time>
      </trkpt>
      <trkpt lat="44.71937" lon="6.90273">
        <ele>2026</ele>
        <time>2019-04-18T21:08:16Z</time>
      </trkpt>
      <trkpt lat="44.71935" lon="6.90245">
        <ele>2026</ele>
        <time>2019-04-18T21:09:16Z</time>
      </trkpt>
      <trkpt lat="44.71939" lon="6.90217">
        <ele>2026</ele>
        <time>2019-04-18T21:10:16Z</time>
      </trkpt>
      <trkpt lat="44.7196" lon="6.90109">
        <ele>2025</ele>
        <time>2019-04-18T21:11:16Z</time>
      </trkpt>
      <trkpt lat="44.71964" lon="6.90044">
        <ele>2021</ele>
        <time>2019-04-18T21:12:16Z</time>
      </trkpt>
      <trkpt lat="44.71971" lon="6.90001">
        <ele>2018</ele>
        <time>2019-04-18T21:13:16Z</time>
      </trkpt>
      <trkpt lat="44.72" lon="6.899">
        <ele>2012</ele>
        <time>2019-04-18T21:14:16Z</time>
      </trkpt>
      <trkpt lat="44.72012" lon="6.89819">
        <ele>2013</ele>
        <time>2019-04-18T21:15:16Z</time>
      </trkpt>
      <trkpt lat="44.72015" lon="6.89721">
        <ele>2016</ele>
        <time>2019-04-18T21:16:16Z</time>
      </trkpt>
      <trkpt lat="44.72021" lon="6.89642">
        <ele>2019</ele>
        <time>2019-04-18T21:17:16Z</time>
      </trkpt>
      <trkpt lat="44.72019" lon="6.89599">
        <ele>2017</ele>
        <time>2019-04-18T21:18:16Z</time>
      </trkpt>
      <trkpt lat="44.7201" lon="6.89537">
        <ele>2014</ele>
        <time>2019-04-18T21:19:16Z</time>
      </trkpt>
      <trkpt lat="44.7201" lon="6.89522">
        <ele>2013</ele>
        <time>2019-04-18T21:20:16Z</time>
      </trkpt>
      <trkpt lat="44.72015" lon="6.89493">
        <ele>2014</ele>
        <time>2019-04-18T21:21:16Z</time>
      </trkpt>
      <trkpt lat="44.72019" lon="6.89479">
        <ele>2015</ele>
        <time>2019-04-18T21:22:16Z</time>
      </trkpt>
      <trkpt lat="44.72044" lon="6.89418">
        <ele>2020</ele>
        <time>2019-04-18T21:23:16Z</time>
      </trkpt>
      <trkpt lat="44.72061" lon="6.89342">
        <ele>2017</ele>
        <time>2019-04-18T21:24:16Z</time>
      </trkpt>
      <trkpt lat="44.72094" lon="6.89227">
        <ele>2015</ele>
        <time>2019-04-18T21:25:16Z</time>
      </trkpt>
      <trkpt lat="44.72112" lon="6.89136">
        <ele>2012</ele>
        <time>2019-04-18T21:26:16Z</time>
      </trkpt>
      <trkpt lat="44.72124" lon="6.89049">
        <ele>2008</ele>
        <time>2019-04-18T21:27:16Z</time>
      </trkpt>
      <trkpt lat="44.72124" lon="6.89015">
        <ele>2007</ele>
        <time>2019-04-18T21:28:16Z</time>
      </trkpt>
      <trkpt lat="44.72122" lon="6.88972">
        <ele>2004</ele>
        <time>2019-04-18T21:29:16Z</time>
      </trkpt>
      <trkpt lat="44.72123" lon="6.88954">
        <ele>2003</ele>
        <time>2019-04-18T21:30:16Z</time>
      </trkpt>
      <trkpt lat="44.72127" lon="6.8894">
        <ele>2003</ele>
        <time>2019-04-18T21:31:16Z</time>
      </trkpt>
      <trkpt lat="44.72133" lon="6.88928">
        <ele>2004</ele>
        <time>2019-04-18T21:32:16Z</time>
      </trkpt>
      <trkpt lat="44.72161" lon="6.88896">
        <ele>2007</ele>
        <time>2019-04-18T21:33:16Z</time>
      </trkpt>
      <trkpt lat="44.7219" lon="6.88835">
        <ele>2003</ele>
        <time>2019-04-18T21:34:16Z</time>
      </trkpt>
      <trkpt lat="44.7226" lon="6.88604">
        <ele>1999</ele>
        <time>2019-04-18T21:35:16Z</time>
      </trkpt>
      <trkpt lat="44.72268" lon="6.88584">
        <ele>1998</ele>
        <time>2019-04-18T21:36:16Z</time>
      </trkpt>
      <trkpt lat="44.72303" lon="6.88545">
        <ele>1996</ele>
        <time>2019-04-18T21:37:16Z</time>
      </trkpt>
      <trkpt lat="44.7231" lon="6.88533">
        <ele>1995</ele>
        <time>2019-04-18T21:38:16Z</time>
      </trkpt>
      <trkpt lat="44.72316" lon="6.88518">
        <ele>1994</ele>
        <time>2019-04-18T21:39:16Z</time>
      </trkpt>
      <trkpt lat="44.72321" lon="6.88502">
        <ele>1994</ele>
        <time>2019-04-18T21:40:16Z</time>
      </trkpt>
      <trkpt lat="44.72324" lon="6.88482">
        <ele>1992</ele>
        <time>2019-04-18T21:41:16Z</time>
      </trkpt>
      <trkpt lat="44.72329" lon="6.88431">
        <ele>1987</ele>
        <time>2019-04-18T21:42:16Z</time>
      </trkpt>
      <trkpt lat="44.72337" lon="6.88367">
        <ele>1985</ele>
        <time>2019-04-18T21:43:16Z</time>
      </trkpt>
      <trkpt lat="44.72348" lon="6.88306">
        <ele>1985</ele>
        <time>2019-04-18T21:44:16Z</time>
      </trkpt>
      <trkpt lat="44.72362" lon="6.88257">
        <ele>1985</ele>
        <time>2019-04-18T21:45:16Z</time>
      </trkpt>
      <trkpt lat="44.7238" lon="6.8821">
        <ele>1983</ele>
        <time>2019-04-18T21:46:16Z</time>
      </trkpt>
      <trkpt lat="44.72424" lon="6.88133">
        <ele>1981</ele>
        <time>2019-04-18T21:47:16Z</time>
      </trkpt>
      <trkpt lat="44.72437" lon="6.88092">
        <ele>1981</ele>
        <time>2019-04-18T21:48:16Z</time>
      </trkpt>
      <trkpt lat="44.72455" lon="6.87982">
        <ele>1978</ele>
        <time>2019-04-18T21:49:16Z</time>
      </trkpt>
      <trkpt lat="44.72458" lon="6.8794">
        <ele>1976</ele>
        <time>2019-04-18T21:50:16Z</time>
      </trkpt>
      <trkpt lat="44.72458" lon="6.87887">
        <ele>1973</ele>
        <time>2019-04-18T21:51:16Z</time>
      </trkpt>
      <trkpt lat="44.72433" lon="6.87745">
        <ele>1961</ele>
        <time>2019-04-18T21:52:16Z</time>
      </trkpt>
      <trkpt lat="44.72436" lon="6.87697">
        <ele>1959</ele>
        <time>2019-04-18T21:53:16Z</time>
      </trkpt>
      <trkpt lat="44.72448" lon="6.87641">
        <ele>1959</ele>
        <time>2019-04-18T21:54:16Z</time>
      </trkpt>
      <trkpt lat="44.72449" lon="6.8762">
        <ele>1957</ele>
        <time>2019-04-18T21:55:16Z</time>
      </trkpt>
      <trkpt lat="44.72445" lon="6.87558">
        <ele>1953</ele>
        <time>2019-04-18T21:56:16Z</time>
      </trkpt>
      <trkpt lat="44.7245" lon="6.87514">
        <ele>1953</ele>
        <time>2019-04-18T21:57:16Z</time>
      </trkpt>
      <trkpt lat="44.72462" lon="6.87475">
        <ele>1952</ele>
        <time>2019-04-18T21:58:16Z</time>
      </trkpt>
      <trkpt lat="44.72498" lon="6.87409">
        <ele>1949</ele>
        <time>2019-04-18T21:59:16Z</time>
      </trkpt>
      <trkpt lat="44.72514" lon="6.87366">
        <ele>1950</ele>
        <time>2019-04-18T22:00:16Z</time>
      </trkpt>
      <trkpt lat="44.72519" lon="6.87299">
        <ele>1944</ele>
        <time>2019-04-18T22:01:16Z</time>
      </trkpt>
      <trkpt lat="44.72531" lon="6.8725">
        <ele>1942</ele>
        <time>2019-04-18T22:02:16Z</time>
      </trkpt>
      <trkpt lat="44.72553" lon="6.87168">
        <ele>1940</ele>
        <time>2019-04-18T22:03:16Z</time>
      </trkpt>
      <trkpt lat="44.72559" lon="6.87134">
        <ele>1939</ele>
        <time>2019-04-18T22:04:16Z</time>
      </trkpt>
      <trkpt lat="44.72562" lon="6.87059">
        <ele>1934</ele>
        <time>2019-04-18T22:05:16Z</time>
      </trkpt>
      <trkpt lat="44.72557" lon="6.86977">
        <ele>1931</ele>
        <time>2019-04-18T22:06:16Z</time>
      </trkpt>
      <trkpt lat="44.72542" lon="6.86918">
        <ele>1928</ele>
        <time>2019-04-18T22:07:16Z</time>
      </trkpt>
      <trkpt lat="44.72533" lon="6.8684">
        <ele>1926</ele>
        <time>2019-04-18T22:08:16Z</time>
      </trkpt>
      <trkpt lat="44.7252" lon="6.86691">
        <ele>1918</ele>
        <time>2019-04-18T22:09:16Z</time>
      </trkpt>
      <trkpt lat="44.72508" lon="6.86636">
        <ele>1916</ele>
        <time>2019-04-18T22:10:16Z</time>
      </trkpt>
      <trkpt lat="44.72482" lon="6.86543">
        <ele>1913</ele>
        <time>2019-04-18T22:11:16Z</time>
      </trkpt>
      <trkpt lat="44.72483" lon="6.86509">
        <ele>1914</ele>
        <time>2019-04-18T22:12:16Z</time>
      </trkpt>
      <trkpt lat="44.72493" lon="6.86452">
        <ele>1915</ele>
        <time>2019-04-18T22:13:16Z</time>
      </trkpt>
      <trkpt lat="44.72491" lon="6.86423">
        <ele>1914</ele>
        <time>2019-04-18T22:14:16Z</time>
      </trkpt>
      <trkpt lat="44.72506" lon="6.86285">
        <ele>1917</ele>
        <time>2019-04-18T22:15:16Z</time>
      </trkpt>
      <trkpt lat="44.72506" lon="6.8627">
        <ele>1917</ele>
        <time>2019-04-18T22:16:16Z</time>
      </trkpt>
      <trkpt lat="44.72495" lon="6.86233">
        <ele>1915</ele>
        <time>2019-04-18T22:17:16Z</time>
      </trkpt>
      <trkpt lat="44.72492" lon="6.8621">
        <ele>1914</ele>
        <time>2019-04-18T22:18:16Z</time>
      </trkpt>
      <trkpt lat="44.7249" lon="6.86171">
        <ele>1914</ele>
        <time>2019-04-18T22:19:16Z</time>
      </trkpt>
      <trkpt lat="44.72487" lon="6.86137">
        <ele>1912</ele>
        <time>2019-04-18T22:20:16Z</time>
      </trkpt>
      <trkpt lat="44.72462" lon="6.86023">
        <ele>1902</ele>
        <time>2019-04-18T22:21:16Z</time>
      </trkpt>
      <trkpt lat="44.72454" lon="6.85993">
        <ele>1900</ele>
        <time>2019-04-18T22:22:16Z</time>
      </trkpt>
      <trkpt lat="44.72445" lon="6.85933">
        <ele>1898</ele>
        <time>2019-04-18T22:23:16Z</time>
      </trkpt>
      <trkpt lat="44.72434" lon="6.85886">
        <ele>1897</ele>
        <time>2019-04-18T22:24:16Z</time>
      </trkpt>
      <trkpt lat="44.72402" lon="6.85789">
        <ele>1890</ele>
        <time>2019-04-18T22:25:16Z</time>
      </trkpt>
      <trkpt lat="44.72388" lon="6.85739">
        <ele>1885</ele>
        <time>2019-04-18T22:26:16Z</time>
      </trkpt>
      <trkpt lat="44.72373" lon="6.85698">
        <ele>1878</ele>
        <time>2019-04-18T22:27:16Z</time>
      </trkpt>
      <trkpt lat="44.72368" lon="6.85669">
        <ele>1875</ele>
        <time>2019-04-18T22:28:16Z</time>
      </trkpt>
      <trkpt lat="44.72366" lon="6.85642">
        <ele>1870</ele>
        <time>2019-04-18T22:29:16Z</time>
      </trkpt>
      <trkpt lat="44.72385" lon="6.8558">
        <ele>1867</ele>
        <time>2019-04-18T22:30:16Z</time>
      </trkpt>
      <trkpt lat="44.72414" lon="6.85523">
        <ele>1866</ele>
        <time>2019-04-18T22:31:16Z</time>
      </trkpt>
      <trkpt lat="44.72476" lon="6.85415">
        <ele>1859</ele>
        <time>2019-04-18T22:32:16Z</time>
      </trkpt>
      <trkpt lat="44.72594" lon="6.8522">
        <ele>1842</ele>
        <time>2019-04-18T22:33:16Z</time>
      </trkpt>
      <trkpt lat="44.72629" lon="6.8517">
        <ele>1840</ele>
        <time>2019-04-18T22:34:16Z</time>
      </trkpt>
      <trkpt lat="44.72655" lon="6.85129">
        <ele>1838</ele>
        <time>2019-04-18T22:35:16Z</time>
      </trkpt>
      <trkpt lat="44.72685" lon="6.8506">
        <ele>1830</ele>
        <time>2019-04-18T22:36:16Z</time>
      </trkpt>
      <trkpt lat="44.72691" lon="6.85039">
        <ele>1827</ele>
        <time>2019-04-18T22:37:16Z</time>
      </trkpt>
      <trkpt lat="44.72801" lon="6.84895">
        <ele>1816</ele>
        <time>2019-04-18T22:38:16Z</time>
      </trkpt>
      <trkpt lat="44.72909" lon="6.84743">
        <ele>1807</ele>
        <time>2019-04-18T22:39:16Z</time>
      </trkpt>
      <trkpt lat="44.72983" lon="6.84621">
        <ele>1798</ele>
        <time>2019-04-18T22:40:16Z</time>
      </trkpt>
      <trkpt lat="44.72985" lon="6.84614">
        <ele>1797</ele>
        <time>2019-04-18T22:41:16Z</time>
      </trkpt>
      <trkpt lat="44.72983" lon="6.84607">
        <ele>1795</ele>
        <time>2019-04-18T22:42:16Z</time>
      </trkpt>
      <trkpt lat="44.72979" lon="6.84603">
        <ele>1794</ele>
        <time>2019-04-18T22:43:16Z</time>
      </trkpt>
      <trkpt lat="44.72973" lon="6.84604">
        <ele>1794</ele>
        <time>2019-04-18T22:44:16Z</time>
      </trkpt>
      <trkpt lat="44.72964" lon="6.84608">
        <ele>1793</ele>
        <time>2019-04-18T22:45:16Z</time>
      </trkpt>
      <trkpt lat="44.72937" lon="6.84631">
        <ele>1793</ele>
        <time>2019-04-18T22:46:16Z</time>
      </trkpt>
      <trkpt lat="44.72905" lon="6.84653">
        <ele>1790</ele>
        <time>2019-04-18T22:47:16Z</time>
      </trkpt>
      <trkpt lat="44.72883" lon="6.84674">
        <ele>1788</ele>
        <time>2019-04-18T22:48:16Z</time>
      </trkpt>
      <trkpt lat="44.72874" lon="6.8468">
        <ele>1787</ele>
        <time>2019-04-18T22:49:16Z</time>
      </trkpt>
      <trkpt lat="44.7287" lon="6.84679">
        <ele>1786</ele>
        <time>2019-04-18T22:50:16Z</time>
      </trkpt>
      <trkpt lat="44.72867" lon="6.84673">
        <ele>1784</ele>
        <time>2019-04-18T22:51:16Z</time>
      </trkpt>
      <trkpt lat="44.72867" lon="6.84666">
        <ele>1783</ele>
        <time>2019-04-18T22:52:16Z</time>
      </trkpt>
      <trkpt lat="44.72869" lon="6.84656">
        <ele>1782</ele>
        <time>2019-04-18T22:53:16Z</time>
      </trkpt>
      <trkpt lat="44.72904" lon="6.8458">
        <ele>1781</ele>
        <time>2019-04-18T22:54:16Z</time>
      </trkpt>
      <trkpt lat="44.72918" lon="6.8456">
        <ele>1780</ele>
        <time>2019-04-18T22:55:16Z</time>
      </trkpt>
      <trkpt lat="44.72948" lon="6.84527">
        <ele>1777</ele>
        <time>2019-04-18T22:56:16Z</time>
      </trkpt>
      <trkpt lat="44.72965" lon="6.84501">
        <ele>1774</ele>
        <time>2019-04-18T22:57:16Z</time>
      </trkpt>
      <trkpt lat="44.72981" lon="6.84464">
        <ele>1771</ele>
        <time>2019-04-18T22:58:16Z</time>
      </trkpt>
      <trkpt lat="44.72995" lon="6.84438">
        <ele>1770</ele>
        <time>2019-04-18T22:59:16Z</time>
      </trkpt>
      <trkpt lat="44.7301" lon="6.84425">
        <ele>1770</ele>
        <time>2019-04-18T23:00:16Z</time>
      </trkpt>
      <trkpt lat="44.73031" lon="6.84405">
        <ele>1769</ele>
        <time>2019-04-18T23:01:16Z</time>
      </trkpt>
      <trkpt lat="44.73042" lon="6.8438">
        <ele>1767</ele>
        <time>2019-04-18T23:02:16Z</time>
      </trkpt>
      <trkpt lat="44.73058" lon="6.84329">
        <ele>1762</ele>
        <time>2019-04-18T23:03:16Z</time>
      </trkpt>
      <trkpt lat="44.73066" lon="6.84289">
        <ele>1758</ele>
        <time>2019-04-18T23:04:16Z</time>
      </trkpt>
      <trkpt lat="44.73096" lon="6.84215">
        <ele>1755</ele>
        <time>2019-04-18T23:05:16Z</time>
      </trkpt>
      <trkpt lat="44.731" lon="6.84193">
        <ele>1754</ele>
        <time>2019-04-18T23:06:16Z</time>
      </trkpt>
      <trkpt lat="44.73098" lon="6.84158">
        <ele>1750</ele>
        <time>2019-04-18T23:07:16Z</time>
      </trkpt>
      <trkpt lat="44.731" lon="6.84125">
        <ele>1746</ele>
        <time>2019-04-18T23:08:16Z</time>
      </trkpt>
      <trkpt lat="44.7312" lon="6.84041">
        <ele>1737</ele>
        <time>2019-04-18T23:09:16Z</time>
      </trkpt>
      <trkpt lat="44.73124" lon="6.84013">
        <ele>1733</ele>
        <time>2019-04-18T23:10:16Z</time>
      </trkpt>
      <trkpt lat="44.73139" lon="6.83996">
        <ele>1732</ele>
        <time>2019-04-18T23:11:16Z</time>
      </trkpt>
      <trkpt lat="44.73274" lon="6.83877">
        <ele>1732</ele>
        <time>2019-04-18T23:12:16Z</time>
      </trkpt>
      <trkpt lat="44.73298" lon="6.83846">
        <ele>1731</ele>
        <time>2019-04-18T23:13:16Z</time>
      </trkpt>
      <trkpt lat="44.73316" lon="6.83821">
        <ele>1730</ele>
        <time>2019-04-18T23:14:16Z</time>
      </trkpt>
      <trkpt lat="44.73332" lon="6.83791">
        <ele>1727</ele>
        <time>2019-04-18T23:15:16Z</time>
      </trkpt>
      <trkpt lat="44.73366" lon="6.83695">
        <ele>1723</ele>
        <time>2019-04-18T23:16:16Z</time>
      </trkpt>
      <trkpt lat="44.7338" lon="6.83659">
        <ele>1721</ele>
        <time>2019-04-18T23:17:16Z</time>
      </trkpt>
      <trkpt lat="44.73397" lon="6.83629">
        <ele>1719</ele>
        <time>2019-04-18T23:18:16Z</time>
      </trkpt>
      <trkpt lat="44.7344" lon="6.83578">
        <ele>1716</ele>
        <time>2019-04-18T23:19:16Z</time>
      </trkpt>
      <trkpt lat="44.73503" lon="6.83527">
        <ele>1712</ele>
        <time>2019-04-18T23:20:16Z</time>
      </trkpt>
      <trkpt lat="44.7362" lon="6.83441">
        <ele>1705</ele>
        <time>2019-04-18T23:21:16Z</time>
      </trkpt>
      <trkpt lat="44.73709" lon="6.83371">
        <ele>1698</ele>
        <time>2019-04-18T23:22:16Z</time>
      </trkpt>
      <trkpt lat="44.73749" lon="6.83346">
        <ele>1696</ele>
        <time>2019-04-18T23:23:16Z</time>
      </trkpt>
      <trkpt lat="44.73776" lon="6.83333">
        <ele>1696</ele>
        <time>2019-04-18T23:24:16Z</time>
      </trkpt>
      <trkpt lat="44.73805" lon="6.83313">
        <ele>1694</ele>
        <time>2019-04-18T23:25:16Z</time>
      </trkpt>
      <trkpt lat="44.73817" lon="6.83297">
        <ele>1692</ele>
        <time>2019-04-18T23:26:16Z</time>
      </trkpt>
      <trkpt lat="44.73844" lon="6.83245">
        <ele>1681</ele>
        <time>2019-04-18T23:27:16Z</time>
      </trkpt>
      <trkpt lat="44.73849" lon="6.83228">
        <ele>1677</ele>
        <time>2019-04-18T23:28:16Z</time>
      </trkpt>
      <trkpt lat="44.73858" lon="6.83218">
        <ele>1675</ele>
        <time>2019-04-18T23:29:16Z</time>
      </trkpt>
      <trkpt lat="44.73867" lon="6.83202">
        <ele>1671</ele>
        <time>2019-04-18T23:30:16Z</time>
      </trkpt>
      <trkpt lat="44.73887" lon="6.83194">
        <ele>1670</ele>
        <time>2019-04-18T23:31:16Z</time>
      </trkpt>
      <trkpt lat="44.73916" lon="6.83195">
        <ele>1672</ele>
        <time>2019-04-18T23:32:16Z</time>
      </trkpt>
      <trkpt lat="44.73966" lon="6.8318">
        <ele>1673</ele>
        <time>2019-04-18T23:33:16Z</time>
      </trkpt>
      <trkpt lat="44.73999" lon="6.83149">
        <ele>1666</ele>
        <time>2019-04-18T23:34:16Z</time>
      </trkpt>
      <trkpt lat="44.74029" lon="6.831">
        <ele>1656</ele>
        <time>2019-04-18T23:35:16Z</time>
      </trkpt>
      <trkpt lat="44.74073" lon="6.8307">
        <ele>1656</ele>
        <time>2019-04-18T23:36:16Z</time>
      </trkpt>
      <trkpt lat="44.74144" lon="6.83073">
        <ele>1657</ele>
        <time>2019-04-18T23:37:16Z</time>
      </trkpt>
      <trkpt lat="44.74245" lon="6.83042">
        <ele>1645</ele>
        <time>2019-04-18T23:38:16Z</time>
      </trkpt>
      <trkpt lat="44.74303" lon="6.83018">
        <ele>1640</ele>
        <time>2019-04-18T23:39:16Z</time>
      </trkpt>
      <trkpt lat="44.74336" lon="6.83009">
        <ele>1638</ele>
        <time>2019-04-18T23:40:16Z</time>
      </trkpt>
      <trkpt lat="44.7439" lon="6.83014">
        <ele>1636</ele>
        <time>2019-04-18T23:41:16Z</time>
      </trkpt>
      <trkpt lat="44.74516" lon="6.83115">
        <ele>1638</ele>
        <time>2019-04-18T23:42:16Z</time>
      </trkpt>
      <trkpt lat="44.7454" lon="6.83135">
        <ele>1638</ele>
        <time>2019-04-18T23:43:16Z</time>
      </trkpt>
      <trkpt lat="44.7455" lon="6.83137">
        <ele>1637</ele>
        <time>2019-04-18T23:44:16Z</time>
      </trkpt>
      <trkpt lat="44.74572" lon="6.83133">
        <ele>1630</ele>
        <time>2019-04-18T23:45:16Z</time>
      </trkpt>
      <trkpt lat="44.74616" lon="6.83121">
        <ele>1620</ele>
        <time>2019-04-18T23:46:16Z</time>
      </trkpt>
      <trkpt lat="44.74703" lon="6.83114">
        <ele>1611</ele>
        <time>2019-04-18T23:47:16Z</time>
      </trkpt>
      <trkpt lat="44.74745" lon="6.83098">
        <ele>1605</ele>
        <time>2019-04-18T23:48:16Z</time>
      </trkpt>
      <trkpt lat="44.74765" lon="6.8308">
        <ele>1601</ele>
        <time>2019-04-18T23:49:16Z</time>
      </trkpt>
      <trkpt lat="44.7478" lon="6.83057">
        <ele>1594</ele>
        <time>2019-04-18T23:50:16Z</time>
      </trkpt>
      <trkpt lat="44.74787" lon="6.83029">
        <ele>1586</ele>
        <time>2019-04-18T23:51:16Z</time>
      </trkpt>
      <trkpt lat="44.74796" lon="6.83016">
        <ele>1583</ele>
        <time>2019-04-18T23:52:16Z</time>
      </trkpt>
      <trkpt lat="44.74821" lon="6.83002">
        <ele>1583</ele>
        <time>2019-04-18T23:53:16Z</time>
      </trkpt>
      <trkpt lat="44.74845" lon="6.82993">
        <ele>1578</ele>
        <time>2019-04-18T23:54:16Z</time>
      </trkpt>
      <trkpt lat="44.74856" lon="6.83002">
        <ele>1577</ele>
        <time>2019-04-18T23:55:16Z</time>
      </trkpt>
      <trkpt lat="44.74862" lon="6.83022">
        <ele>1580</ele>
        <time>2019-04-18T23:56:16Z</time>
      </trkpt>
      <trkpt lat="44.74862" lon="6.83054">
        <ele>1587</ele>
        <time>2019-04-18T23:57:16Z</time>
      </trkpt>
      <trkpt lat="44.74873" lon="6.83084">
        <ele>1590</ele>
        <time>2019-04-18T23:58:16Z</time>
      </trkpt>
      <trkpt lat="44.74904" lon="6.83116">
        <ele>1581</ele>
        <time>2019-04-18T23:59:16Z</time>
      </trkpt>
      <trkpt lat="44.74924" lon="6.83149">
        <ele>1577</ele>
        <time>2019-04-19T00:00:16Z</time>
      </trkpt>
      <trkpt lat="44.74912" lon="6.83184">
        <ele>1582</ele>
        <time>2019-04-19T00:01:16Z</time>
      </trkpt>
      <trkpt lat="44.74901" lon="6.83201">
        <ele>1584</ele>
        <time>2019-04-19T00:02:16Z</time>
      </trkpt>
      <trkpt lat="44.74892" lon="6.8322">
        <ele>1585</ele>
        <time>2019-04-19T00:03:16Z</time>
      </trkpt>
      <trkpt lat="44.74892" lon="6.83234">
        <ele>1584</ele>
        <time>2019-04-19T00:04:16Z</time>
      </trkpt>
      <trkpt lat="44.74898" lon="6.83247">
        <ele>1581</ele>
        <time>2019-04-19T00:05:16Z</time>
      </trkpt>
      <trkpt lat="44.74915" lon="6.83256">
        <ele>1577</ele>
        <time>2019-04-19T00:06:16Z</time>
      </trkpt>
      <trkpt lat="44.74926" lon="6.83258">
        <ele>1576</ele>
        <time>2019-04-19T00:07:16Z</time>
      </trkpt>
      <trkpt lat="44.74965" lon="6.83251">
        <ele>1570</ele>
        <time>2019-04-19T00:08:16Z</time>
      </trkpt>
      <trkpt lat="44.74991" lon="6.83253">
        <ele>1567</ele>
        <time>2019-04-19T00:09:16Z</time>
      </trkpt>
      <trkpt lat="44.75013" lon="6.83259">
        <ele>1566</ele>
        <time>2019-04-19T00:10:16Z</time>
      </trkpt>
      <trkpt lat="44.75061" lon="6.83279">
        <ele>1565</ele>
        <time>2019-04-19T00:11:16Z</time>
      </trkpt>
      <trkpt lat="44.75069" lon="6.8328">
        <ele>1564</ele>
        <time>2019-04-19T00:12:16Z</time>
      </trkpt>
      <trkpt lat="44.75079" lon="6.83277">
        <ele>1563</ele>
        <time>2019-04-19T00:13:16Z</time>
      </trkpt>
      <trkpt lat="44.75084" lon="6.83272">
        <ele>1562</ele>
        <time>2019-04-19T00:14:16Z</time>
      </trkpt>
      <trkpt lat="44.75088" lon="6.83261">
        <ele>1561</ele>
        <time>2019-04-19T00:15:16Z</time>
      </trkpt>
      <trkpt lat="44.75089" lon="6.83231">
        <ele>1558</ele>
        <time>2019-04-19T00:16:16Z</time>
      </trkpt>
      <trkpt lat="44.75089" lon="6.83162">
        <ele>1550</ele>
        <time>2019-04-19T00:17:16Z</time>
      </trkpt>
      <trkpt lat="44.75098" lon="6.8312">
        <ele>1547</ele>
        <time>2019-04-19T00:18:16Z</time>
      </trkpt>
      <trkpt lat="44.75125" lon="6.83055">
        <ele>1542</ele>
        <time>2019-04-19T00:19:16Z</time>
      </trkpt>
      <trkpt lat="44.75179" lon="6.8296">
        <ele>1535</ele>
        <time>2019-04-19T00:20:16Z</time>
      </trkpt>
      <trkpt lat="44.75195" lon="6.82937">
        <ele>1533</ele>
        <time>2019-04-19T00:21:16Z</time>
      </trkpt>
      <trkpt lat="44.75238" lon="6.829">
        <ele>1533</ele>
        <time>2019-04-19T00:22:16Z</time>
      </trkpt>
      <trkpt lat="44.75254" lon="6.82879">
        <ele>1531</ele>
        <time>2019-04-19T00:23:16Z</time>
      </trkpt>
      <trkpt lat="44.75266" lon="6.82855">
        <ele>1528</ele>
        <time>2019-04-19T00:24:16Z</time>
      </trkpt>
      <trkpt lat="44.75277" lon="6.82827">
        <ele>1525</ele>
        <time>2019-04-19T00:25:16Z</time>
      </trkpt>
      <trkpt lat="44.75285" lon="6.82794">
        <ele>1524</ele>
        <time>2019-04-19T00:26:16Z</time>
      </trkpt>
      <trkpt lat="44.75289" lon="6.82767">
        <ele>1523</ele>
        <time>2019-04-19T00:27:16Z</time>
      </trkpt>
      <trkpt lat="44.7529" lon="6.8267">
        <ele>1514</ele>
        <time>2019-04-19T00:28:16Z</time>
      </trkpt>
      <trkpt lat="44.75295" lon="6.82638">
        <ele>1510</ele>
        <time>2019-04-19T00:29:16Z</time>
      </trkpt>
      <trkpt lat="44.75307" lon="6.82609">
        <ele>1509</ele>
        <time>2019-04-19T00:30:16Z</time>
      </trkpt>
      <trkpt lat="44.75427" lon="6.82405">
        <ele>1499</ele>
        <time>2019-04-19T00:31:16Z</time>
      </trkpt>
      <trkpt lat="44.75461" lon="6.82389">
        <ele>1498</ele>
        <time>2019-04-19T00:32:16Z</time>
      </trkpt>
      <trkpt lat="44.75488" lon="6.82385">
        <ele>1501</ele>
        <time>2019-04-19T00:33:16Z</time>
      </trkpt>
      <trkpt lat="44.75523" lon="6.82409">
        <ele>1503</ele>
        <time>2019-04-19T00:34:16Z</time>
      </trkpt>
      <trkpt lat="44.75579" lon="6.82425">
        <ele>1497</ele>
        <time>2019-04-19T00:35:16Z</time>
      </trkpt>
      <trkpt lat="44.75621" lon="6.82427">
        <ele>1493</ele>
        <time>2019-04-19T00:36:16Z</time>
      </trkpt>
      <trkpt lat="44.75651" lon="6.82437">
        <ele>1492</ele>
        <time>2019-04-19T00:37:16Z</time>
      </trkpt>
      <trkpt lat="44.75706" lon="6.82468">
        <ele>1494</ele>
        <time>2019-04-19T00:38:16Z</time>
      </trkpt>
      <trkpt lat="44.75736" lon="6.82472">
        <ele>1490</ele>
        <time>2019-04-19T00:39:16Z</time>
      </trkpt>
      <trkpt lat="44.75816" lon="6.82459">
        <ele>1478</ele>
        <time>2019-04-19T00:40:16Z</time>
      </trkpt>
      <trkpt lat="44.75926" lon="6.82417">
        <ele>1463</ele>
        <time>2019-04-19T00:41:16Z</time>
      </trkpt>
      <trkpt lat="44.75944" lon="6.82418">
        <ele>1459</ele>
        <time>2019-04-19T00:42:16Z</time>
      </trkpt>
      <trkpt lat="44.75964" lon="6.82425">
        <ele>1457</ele>
        <time>2019-04-19T00:43:16Z</time>
      </trkpt>
      <trkpt lat="44.75979" lon="6.82438">
        <ele>1457</ele>
        <time>2019-04-19T00:44:16Z</time>
      </trkpt>
      <trkpt lat="44.75991" lon="6.82464">
        <ele>1461</ele>
        <time>2019-04-19T00:45:16Z</time>
      </trkpt>
      <trkpt lat="44.76005" lon="6.82481">
        <ele>1462</ele>
        <time>2019-04-19T00:46:16Z</time>
      </trkpt>
      <trkpt lat="44.76056" lon="6.82521">
        <ele>1457</ele>
        <time>2019-04-19T00:47:16Z</time>
      </trkpt>
      <trkpt lat="44.76105" lon="6.82551">
        <ele>1453</ele>
        <time>2019-04-19T00:48:16Z</time>
      </trkpt>
      <trkpt lat="44.76142" lon="6.82567">
        <ele>1447</ele>
        <time>2019-04-19T00:49:16Z</time>
      </trkpt>
      <trkpt lat="44.76156" lon="6.82567">
        <ele>1443</ele>
        <time>2019-04-19T00:50:16Z</time>
      </trkpt>
      <trkpt lat="44.76182" lon="6.82563">
        <ele>1435</ele>
        <time>2019-04-19T00:51:16Z</time>
      </trkpt>
      <trkpt lat="44.76192" lon="6.82565">
        <ele>1433</ele>
        <time>2019-04-19T00:52:16Z</time>
      </trkpt>
      <trkpt lat="44.76203" lon="6.8257">
        <ele>1431</ele>
        <time>2019-04-19T00:53:16Z</time>
      </trkpt>
      <trkpt lat="44.76219" lon="6.82591">
        <ele>1433</ele>
        <time>2019-04-19T00:54:16Z</time>
      </trkpt>
      <trkpt lat="44.76235" lon="6.82625">
        <ele>1437</ele>
        <time>2019-04-19T00:55:16Z</time>
      </trkpt>
      <trkpt lat="44.76241" lon="6.82632">
        <ele>1437</ele>
        <time>2019-04-19T00:56:16Z</time>
      </trkpt>
      <trkpt lat="44.76248" lon="6.82634">
        <ele>1436</ele>
        <time>2019-04-19T00:57:16Z</time>
      </trkpt>
      <trkpt lat="44.76254" lon="6.8263">
        <ele>1433</ele>
        <time>2019-04-19T00:58:16Z</time>
      </trkpt>
      <trkpt lat="44.76256" lon="6.82622">
        <ele>1431</ele>
        <time>2019-04-19T00:59:16Z</time>
      </trkpt>
      <trkpt lat="44.76252" lon="6.82607">
        <ele>1428</ele>
        <time>2019-04-19T01:00:16Z</time>
      </trkpt>
      <trkpt lat="44.76192" lon="6.82517">
        <ele>1417</ele>
        <time>2019-04-19T01:01:16Z</time>
      </trkpt>
      <trkpt lat="44.76173" lon="6.82498">
        <ele>1417</ele>
        <time>2019-04-19T01:02:16Z</time>
      </trkpt>
      <trkpt lat="44.76149" lon="6.82481">
        <ele>1418</ele>
        <time>2019-04-19T01:03:16Z</time>
      </trkpt>
      <trkpt lat="44.76094" lon="6.82468">
        <ele>1428</ele>
        <time>2019-04-19T01:04:16Z</time>
      </trkpt>
      <trkpt lat="44.76073" lon="6.82447">
        <ele>1427</ele>
        <time>2019-04-19T01:05:16Z</time>
      </trkpt>
      <trkpt lat="44.76025" lon="6.82359">
        <ele>1419</ele>
        <time>2019-04-19T01:06:16Z</time>
      </trkpt>
      <trkpt lat="44.7599" lon="6.82286">
        <ele>1410</ele>
        <time>2019-04-19T01:07:16Z</time>
      </trkpt>
      <trkpt lat="44.75959" lon="6.82201">
        <ele>1404</ele>
        <time>2019-04-19T01:08:16Z</time>
      </trkpt>
      <trkpt lat="44.75956" lon="6.82177">
        <ele>1401</ele>
        <time>2019-04-19T01:09:16Z</time>
      </trkpt>
      <trkpt lat="44.75957" lon="6.82156">
        <ele>1398</ele>
        <time>2019-04-19T01:10:16Z</time>
      </trkpt>
      <trkpt lat="44.75964" lon="6.82138">
        <ele>1396</ele>
        <time>2019-04-19T01:11:16Z</time>
      </trkpt>
      <trkpt lat="44.7598" lon="6.82123">
        <ele>1392</ele>
        <time>2019-04-19T01:12:16Z</time>
      </trkpt>
      <trkpt lat="44.75995" lon="6.82116">
        <ele>1390</ele>
        <time>2019-04-19T01:13:16Z</time>
      </trkpt>
      <trkpt lat="44.76238" lon="6.82094">
        <ele>1377</ele>
        <time>2019-04-19T01:14:16Z</time>
      </trkpt>
      <trkpt lat="44.7624" lon="6.82103">
        <ele>1377</ele>
        <time>2019-04-19T01:15:16Z</time>
      </trkpt>
      <trkpt lat="44.76244" lon="6.82107">
        <ele>1377</ele>
        <time>2019-04-19T01:16:16Z</time>
      </trkpt>
      <trkpt lat="44.76249" lon="6.8211">
        <ele>1377</ele>
        <time>2019-04-19T01:17:16Z</time>
      </trkpt>
      <trkpt lat="44.76255" lon="6.82109">
        <ele>1379</ele>
        <time>2019-04-19T01:18:16Z</time>
      </trkpt>
      <trkpt lat="44.76259" lon="6.82105">
        <ele>1380</ele>
        <time>2019-04-19T01:19:16Z</time>
      </trkpt>
      <trkpt lat="44.76262" lon="6.82097">
        <ele>1382</ele>
        <time>2019-04-19T01:20:16Z</time>
      </trkpt>
      <trkpt lat="44.76262" lon="6.82087">
        <ele>1381</ele>
        <time>2019-04-19T01:21:16Z</time>
      </trkpt>
      <trkpt lat="44.76259" lon="6.82081">
        <ele>1380</ele>
        <time>2019-04-19T01:22:16Z</time>
      </trkpt>
      <trkpt lat="44.76256" lon="6.82077">
        <ele>1379</ele>
        <time>2019-04-19T01:23:16Z</time>
      </trkpt>
      <trkpt lat="44.76251" lon="6.82075">
        <ele>1377</ele>
        <time>2019-04-19T01:24:16Z</time>
      </trkpt>
      <trkpt lat="44.76255" lon="6.82047">
        <ele>1382</ele>
        <time>2019-04-19T01:25:16Z</time>
      </trkpt>
      <trkpt lat="44.76255" lon="6.82">
        <ele>1388</ele>
        <time>2019-04-19T01:26:16Z</time>
      </trkpt>
      <trkpt lat="44.76251" lon="6.81946">
        <ele>1387</ele>
        <time>2019-04-19T01:27:16Z</time>
      </trkpt>
      <trkpt lat="44.76245" lon="6.819">
        <ele>1388</ele>
        <time>2019-04-19T01:28:16Z</time>
      </trkpt>
      <trkpt lat="44.76237" lon="6.81859">
        <ele>1387</ele>
        <time>2019-04-19T01:29:16Z</time>
      </trkpt>
      <trkpt lat="44.76224" lon="6.81805">
        <ele>1388</ele>
        <time>2019-04-19T01:30:16Z</time>
      </trkpt>
      <trkpt lat="44.76203" lon="6.81736">
        <ele>1387</ele>
        <time>2019-04-19T01:31:16Z</time>
      </trkpt>
      <trkpt lat="44.76165" lon="6.81632">
        <ele>1382</ele>
        <time>2019-04-19T01:32:16Z</time>
      </trkpt>
      <trkpt lat="44.75986" lon="6.81173">
        <ele>1370</ele>
        <time>2019-04-19T01:33:16Z</time>
      </trkpt>
      <trkpt lat="44.75953" lon="6.81083">
        <ele>1371</ele>
        <time>2019-04-19T01:34:16Z</time>
      </trkpt>
      <trkpt lat="44.75939" lon="6.81042">
        <ele>1369</ele>
        <time>2019-04-19T01:35:16Z</time>
      </trkpt>
      <trkpt lat="44.75926" lon="6.80997">
        <ele>1366</ele>
        <time>2019-04-19T01:36:16Z</time>
      </trkpt>
      <trkpt lat="44.75915" lon="6.80931">
        <ele>1364</ele>
        <time>2019-04-19T01:37:16Z</time>
      </trkpt>
      <trkpt lat="44.759" lon="6.80814">
        <ele>1366</ele>
        <time>2019-04-19T01:38:16Z</time>
      </trkpt>
      <trkpt lat="44.75881" lon="6.80585">
        <ele>1372</ele>
        <time>2019-04-19T01:39:16Z</time>
      </trkpt>
      <trkpt lat="44.75855" lon="6.80421">
        <ele>1367</ele>
        <time>2019-04-19T01:40:16Z</time>
      </trkpt>
      <trkpt lat="44.75797" lon="6.80139">
        <ele>1354</ele>
        <time>2019-04-19T01:41:16Z</time>
      </trkpt>
      <trkpt lat="44.75785" lon="6.80067">
        <ele>1351</ele>
        <time>2019-04-19T01:42:16Z</time>
      </trkpt>
      <trkpt lat="44.75784" lon="6.80015">
        <ele>1352</ele>
        <time>2019-04-19T01:43:16Z</time>
      </trkpt>
      <trkpt lat="44.75786" lon="6.79971">
        <ele>1352</ele>
        <time>2019-04-19T01:44:16Z</time>
      </trkpt>
      <trkpt lat="44.75791" lon="6.79926">
        <ele>1353</ele>
        <time>2019-04-19T01:45:16Z</time>
      </trkpt>
      <trkpt lat="44.758" lon="6.79874">
        <ele>1354</ele>
        <time>2019-04-19T01:46:16Z</time>
      </trkpt>
      <trkpt lat="44.75835" lon="6.79721">
        <ele>1358</ele>
        <time>2019-04-19T01:47:16Z</time>
      </trkpt>
      <trkpt lat="44.75836" lon="6.79702">
        <ele>1359</ele>
        <time>2019-04-19T01:48:16Z</time>
      </trkpt>
      <trkpt lat="44.75834" lon="6.79688">
        <ele>1359</ele>
        <time>2019-04-19T01:49:16Z</time>
      </trkpt>
      <trkpt lat="44.75795" lon="6.79536">
        <ele>1363</ele>
        <time>2019-04-19T01:50:16Z</time>
      </trkpt>
      <trkpt lat="44.75787" lon="6.79496">
        <ele>1362</ele>
        <time>2019-04-19T01:51:16Z</time>
      </trkpt>
      <trkpt lat="44.75785" lon="6.79478">
        <ele>1362</ele>
        <time>2019-04-19T01:52:16Z</time>
      </trkpt>
      <trkpt lat="44.75788" lon="6.79456">
        <ele>1365</ele>
        <time>2019-04-19T01:53:16Z</time>
      </trkpt>
      <trkpt lat="44.75803" lon="6.79414">
        <ele>1373</ele>
        <time>2019-04-19T01:54:16Z</time>
      </trkpt>
      <trkpt lat="44.75804" lon="6.79393">
        <ele>1376</ele>
        <time>2019-04-19T01:55:16Z</time>
      </trkpt>
      <trkpt lat="44.75786" lon="6.79291">
        <ele>1384</ele>
        <time>2019-04-19T01:56:16Z</time>
      </trkpt>
      <trkpt lat="44.75776" lon="6.79259">
        <ele>1383</ele>
        <time>2019-04-19T01:57:16Z</time>
      </trkpt>
      <trkpt lat="44.75758" lon="6.79219">
        <ele>1382</ele>
        <time>2019-04-19T01:58:16Z</time>
      </trkpt>
      <trkpt lat="44.75726" lon="6.79164">
        <ele>1388</ele>
        <time>2019-04-19T01:59:16Z</time>
      </trkpt>
      <trkpt lat="44.75697" lon="6.79074">
        <ele>1395</ele>
        <time>2019-04-19T02:00:16Z</time>
      </trkpt>
      <trkpt lat="44.75688" lon="6.79051">
        <ele>1394</ele>
        <time>2019-04-19T02:01:16Z</time>
      </trkpt>
      <trkpt lat="44.75669" lon="6.79021">
        <ele>1389</ele>
        <time>2019-04-19T02:02:16Z</time>
      </trkpt>
      <trkpt lat="44.75648" lon="6.79008">
        <ele>1391</ele>
        <time>2019-04-19T02:03:16Z</time>
      </trkpt>
      <trkpt lat="44.75642" lon="6.78999">
        <ele>1393</ele>
        <time>2019-04-19T02:04:16Z</time>
      </trkpt>
      <trkpt lat="44.75643" lon="6.78923">
        <ele>1395</ele>
        <time>2019-04-19T02:05:16Z</time>
      </trkpt>
      <trkpt lat="44.75648" lon="6.78914">
        <ele>1395</ele>
        <time>2019-04-19T02:06:16Z</time>
      </trkpt>
      <trkpt lat="44.75661" lon="6.789">
        <ele>1395</ele>
        <time>2019-04-19T02:07:16Z</time>
      </trkpt>
      <trkpt lat="44.75697" lon="6.78872">
        <ele>1402</ele>
        <time>2019-04-19T02:08:16Z</time>
      </trkpt>
      <trkpt lat="44.75707" lon="6.78861">
        <ele>1403</ele>
        <time>2019-04-19T02:09:16Z</time>
      </trkpt>
      <trkpt lat="44.7571" lon="6.7885">
        <ele>1402</ele>
        <time>2019-04-19T02:10:16Z</time>
      </trkpt>
      <trkpt lat="44.75708" lon="6.78843">
        <ele>1401</ele>
        <time>2019-04-19T02:11:16Z</time>
      </trkpt>
      <trkpt lat="44.75705" lon="6.78834">
        <ele>1400</ele>
        <time>2019-04-19T02:12:16Z</time>
      </trkpt>
      <trkpt lat="44.75698" lon="6.78829">
        <ele>1400</ele>
        <time>2019-04-19T02:13:16Z</time>
      </trkpt>
      <trkpt lat="44.75658" lon="6.78821">
        <ele>1398</ele>
        <time>2019-04-19T02:14:16Z</time>
      </trkpt>
      <trkpt lat="44.75634" lon="6.78811">
        <ele>1394</ele>
        <time>2019-04-19T02:15:16Z</time>
      </trkpt>
      <trkpt lat="44.75618" lon="6.78794">
        <ele>1393</ele>
        <time>2019-04-19T02:16:16Z</time>
      </trkpt>
      <trkpt lat="44.75606" lon="6.78776">
        <ele>1391</ele>
        <time>2019-04-19T02:17:16Z</time>
      </trkpt>
      <trkpt lat="44.75593" lon="6.78773">
        <ele>1386</ele>
        <time>2019-04-19T02:18:16Z</time>
      </trkpt>
      <trkpt lat="44.7558" lon="6.78772">
        <ele>1380</ele>
        <time>2019-04-19T02:19:16Z</time>
      </trkpt>
      <trkpt lat="44.75573" lon="6.78765">
        <ele>1378</ele>
        <time>2019-04-19T02:20:16Z</time>
      </trkpt>
      <trkpt lat="44.75564" lon="6.78741">
        <ele>1377</ele>
        <time>2019-04-19T02:21:16Z</time>
      </trkpt>
      <trkpt lat="44.75542" lon="6.78688">
        <ele>1375</ele>
        <time>2019-04-19T02:22:16Z</time>
      </trkpt>
      <trkpt lat="44.75535" lon="6.7866">
        <ele>1374</ele>
        <time>2019-04-19T02:23:16Z</time>
      </trkpt>
      <trkpt lat="44.75538" lon="6.78617">
        <ele>1375</ele>
        <time>2019-04-19T02:24:16Z</time>
      </trkpt>
      <trkpt lat="44.75544" lon="6.78578">
        <ele>1378</ele>
        <time>2019-04-19T02:25:16Z</time>
      </trkpt>
      <trkpt lat="44.75544" lon="6.78533">
        <ele>1381</ele>
        <time>2019-04-19T02:26:16Z</time>
      </trkpt>
      <trkpt lat="44.75538" lon="6.78489">
        <ele>1380</ele>
        <time>2019-04-19T02:27:16Z</time>
      </trkpt>
      <trkpt lat="44.75524" lon="6.78428">
        <ele>1376</ele>
        <time>2019-04-19T02:28:16Z</time>
      </trkpt>
      <trkpt lat="44.75508" lon="6.78366">
        <ele>1373</ele>
        <time>2019-04-19T02:29:16Z</time>
      </trkpt>
      <trkpt lat="44.75441" lon="6.78156">
        <ele>1363</ele>
        <time>2019-04-19T02:30:16Z</time>
      </trkpt>
      <trkpt lat="44.7543" lon="6.78133">
        <ele>1362</ele>
        <time>2019-04-19T02:31:16Z</time>
      </trkpt>
      <trkpt lat="44.75404" lon="6.7809">
        <ele>1359</ele>
        <time>2019-04-19T02:32:16Z</time>
      </trkpt>
      <trkpt lat="44.7535" lon="6.78028">
        <ele>1354</ele>
        <time>2019-04-19T02:33:16Z</time>
      </trkpt>
      <trkpt lat="44.75308" lon="6.77977">
        <ele>1348</ele>
        <time>2019-04-19T02:34:16Z</time>
      </trkpt>
      <trkpt lat="44.75286" lon="6.77934">
        <ele>1348</ele>
        <time>2019-04-19T02:35:16Z</time>
      </trkpt>
      <trkpt lat="44.75243" lon="6.77872">
        <ele>1348</ele>
        <time>2019-04-19T02:36:16Z</time>
      </trkpt>
      <trkpt lat="44.75187" lon="6.77778">
        <ele>1355</ele>
        <time>2019-04-19T02:37:16Z</time>
      </trkpt>
      <trkpt lat="44.75159" lon="6.77738">
        <ele>1357</ele>
        <time>2019-04-19T02:38:16Z</time>
      </trkpt>
      <trkpt lat="44.75119" lon="6.77698">
        <ele>1355</ele>
        <time>2019-04-19T02:39:16Z</time>
      </trkpt>
      <trkpt lat="44.75104" lon="6.77674">
        <ele>1355</ele>
        <time>2019-04-19T02:40:16Z</time>
      </trkpt>
      <trkpt lat="44.75088" lon="6.7764">
        <ele>1355</ele>
        <time>2019-04-19T02:41:16Z</time>
      </trkpt>
      <trkpt lat="44.75049" lon="6.7757">
        <ele>1358</ele>
        <time>2019-04-19T02:42:16Z</time>
      </trkpt>
      <trkpt lat="44.74991" lon="6.77499">
        <ele>1356</ele>
        <time>2019-04-19T02:43:16Z</time>
      </trkpt>
      <trkpt lat="44.74971" lon="6.77465">
        <ele>1358</ele>
        <time>2019-04-19T02:44:16Z</time>
      </trkpt>
      <trkpt lat="44.74904" lon="6.77365">
        <ele>1359</ele>
        <time>2019-04-19T02:45:16Z</time>
      </trkpt>
      <trkpt lat="44.74885" lon="6.77341">
        <ele>1361</ele>
        <time>2019-04-19T02:46:16Z</time>
      </trkpt>
      <trkpt lat="44.74853" lon="6.77306">
        <ele>1360</ele>
        <time>2019-04-19T02:47:16Z</time>
      </trkpt>
      <trkpt lat="44.74815" lon="6.77259">
        <ele>1360</ele>
        <time>2019-04-19T02:48:16Z</time>
      </trkpt>
      <trkpt lat="44.74805" lon="6.77246">
        <ele>1360</ele>
        <time>2019-04-19T02:49:16Z</time>
      </trkpt>
      <trkpt lat="44.74787" lon="6.77225">
        <ele>1359</ele>
        <time>2019-04-19T02:50:16Z</time>
      </trkpt>
      <trkpt lat="44.74746" lon="6.77158">
        <ele>1357</ele>
        <time>2019-04-19T02:51:16Z</time>
      </trkpt>
      <trkpt lat="44.7469" lon="6.7709">
        <ele>1356</ele>
        <time>2019-04-19T02:52:16Z</time>
      </trkpt>
      <trkpt lat="44.74673" lon="6.77074">
        <ele>1355</ele>
        <time>2019-04-19T02:53:16Z</time>
      </trkpt>
      <trkpt lat="44.74649" lon="6.77056">
        <ele>1357</ele>
        <time>2019-04-19T02:54:16Z</time>
      </trkpt>
      <trkpt lat="44.74607" lon="6.77037">
        <ele>1357</ele>
        <time>2019-04-19T02:55:16Z</time>
      </trkpt>
      <trkpt lat="44.74552" lon="6.77016">
        <ele>1358</ele>
        <time>2019-04-19T02:56:16Z</time>
      </trkpt>
      <trkpt lat="44.74487" lon="6.76995">
        <ele>1359</ele>
        <time>2019-04-19T02:57:16Z</time>
      </trkpt>
      <trkpt lat="44.7446" lon="6.76976">
        <ele>1365</ele>
        <time>2019-04-19T02:58:16Z</time>
      </trkpt>
      <trkpt lat="44.74445" lon="6.76957">
        <ele>1367</ele>
        <time>2019-04-19T02:59:16Z</time>
      </trkpt>
      <trkpt lat="44.74437" lon="6.76931">
        <ele>1368</ele>
        <time>2019-04-19T03:00:16Z</time>
      </trkpt>
      <trkpt lat="44.74432" lon="6.76893">
        <ele>1365</ele>
        <time>2019-04-19T03:01:16Z</time>
      </trkpt>
      <trkpt lat="44.74432" lon="6.76848">
        <ele>1360</ele>
        <time>2019-04-19T03:02:16Z</time>
      </trkpt>
      <trkpt lat="44.74442" lon="6.76806">
        <ele>1355</ele>
        <time>2019-04-19T03:03:16Z</time>
      </trkpt>
      <trkpt lat="44.74454" lon="6.76766">
        <ele>1350</ele>
        <time>2019-04-19T03:04:16Z</time>
      </trkpt>
      <trkpt lat="44.74456" lon="6.76747">
        <ele>1346</ele>
        <time>2019-04-19T03:05:16Z</time>
      </trkpt>
      <trkpt lat="44.74452" lon="6.76729">
        <ele>1344</ele>
        <time>2019-04-19T03:06:16Z</time>
      </trkpt>
      <trkpt lat="44.74445" lon="6.76718">
        <ele>1342</ele>
        <time>2019-04-19T03:07:16Z</time>
      </trkpt>
      <trkpt lat="44.74436" lon="6.76715">
        <ele>1339</ele>
        <time>2019-04-19T03:08:16Z</time>
      </trkpt>
      <trkpt lat="44.74425" lon="6.7672">
        <ele>1335</ele>
        <time>2019-04-19T03:09:16Z</time>
      </trkpt>
      <trkpt lat="44.74416" lon="6.76731">
        <ele>1332</ele>
        <time>2019-04-19T03:10:16Z</time>
      </trkpt>
      <trkpt lat="44.74409" lon="6.76749">
        <ele>1330</ele>
        <time>2019-04-19T03:11:16Z</time>
      </trkpt>
      <trkpt lat="44.74409" lon="6.76768">
        <ele>1335</ele>
        <time>2019-04-19T03:12:16Z</time>
      </trkpt>
      <trkpt lat="44.74412" lon="6.76786">
        <ele>1340</ele>
        <time>2019-04-19T03:13:16Z</time>
      </trkpt>
      <trkpt lat="44.74414" lon="6.76803">
        <ele>1344</ele>
        <time>2019-04-19T03:14:16Z</time>
      </trkpt>
      <trkpt lat="44.74412" lon="6.76809">
        <ele>1346</ele>
        <time>2019-04-19T03:15:16Z</time>
      </trkpt>
      <trkpt lat="44.74407" lon="6.76818">
        <ele>1349</ele>
        <time>2019-04-19T03:16:16Z</time>
      </trkpt>
      <trkpt lat="44.74396" lon="6.76819">
        <ele>1350</ele>
        <time>2019-04-19T03:17:16Z</time>
      </trkpt>
      <trkpt lat="44.74391" lon="6.76815">
        <ele>1349</ele>
        <time>2019-04-19T03:18:16Z</time>
      </trkpt>
      <trkpt lat="44.74386" lon="6.76808">
        <ele>1347</ele>
        <time>2019-04-19T03:19:16Z</time>
      </trkpt>
      <trkpt lat="44.74375" lon="6.76777">
        <ele>1337</ele>
        <time>2019-04-19T03:20:16Z</time>
      </trkpt>
      <trkpt lat="44.74363" lon="6.76757">
        <ele>1330</ele>
        <time>2019-04-19T03:21:16Z</time>
      </trkpt>
      <trkpt lat="44.74351" lon="6.76748">
        <ele>1326</ele>
        <time>2019-04-19T03:22:16Z</time>
      </trkpt>
      <trkpt lat="44.74322" lon="6.76746">
        <ele>1328</ele>
        <time>2019-04-19T03:23:16Z</time>
      </trkpt>
      <trkpt lat="44.74308" lon="6.76738">
        <ele>1331</ele>
        <time>2019-04-19T03:24:16Z</time>
      </trkpt>
      <trkpt lat="44.74287" lon="6.76706">
        <ele>1327</ele>
        <time>2019-04-19T03:25:16Z</time>
      </trkpt>
      <trkpt lat="44.74271" lon="6.76693">
        <ele>1325</ele>
        <time>2019-04-19T03:26:16Z</time>
      </trkpt>
      <trkpt lat="44.74244" lon="6.7668">
        <ele>1322</ele>
        <time>2019-04-19T03:27:16Z</time>
      </trkpt>
      <trkpt lat="44.74198" lon="6.76671">
        <ele>1317</ele>
        <time>2019-04-19T03:28:16Z</time>
      </trkpt>
      <trkpt lat="44.74157" lon="6.7665">
        <ele>1313</ele>
        <time>2019-04-19T03:29:16Z</time>
      </trkpt>
      <trkpt lat="44.74136" lon="6.76641">
        <ele>1312</ele>
        <time>2019-04-19T03:30:16Z</time>
      </trkpt>
      <trkpt lat="44.74119" lon="6.76638">
        <ele>1311</ele>
        <time>2019-04-19T03:31:16Z</time>
      </trkpt>
      <trkpt lat="44.74105" lon="6.76639">
        <ele>1310</ele>
        <time>2019-04-19T03:32:16Z</time>
      </trkpt>
      <trkpt lat="44.74043" lon="6.76666">
        <ele>1306</ele>
        <time>2019-04-19T03:33:16Z</time>
      </trkpt>
      <trkpt lat="44.74019" lon="6.76667">
        <ele>1304</ele>
        <time>2019-04-19T03:34:16Z</time>
      </trkpt>
      <trkpt lat="44.73998" lon="6.76662">
        <ele>1303</ele>
        <time>2019-04-19T03:35:16Z</time>
      </trkpt>
      <trkpt lat="44.73981" lon="6.76662">
        <ele>1302</ele>
        <time>2019-04-19T03:36:16Z</time>
      </trkpt>
      <trkpt lat="44.73952" lon="6.76676">
        <ele>1301</ele>
        <time>2019-04-19T03:37:16Z</time>
      </trkpt>
      <trkpt lat="44.73919" lon="6.76713">
        <ele>1299</ele>
        <time>2019-04-19T03:38:16Z</time>
      </trkpt>
      <trkpt lat="44.73885" lon="6.76747">
        <ele>1295</ele>
        <time>2019-04-19T03:39:16Z</time>
      </trkpt>
      <trkpt lat="44.73822" lon="6.76828">
        <ele>1288</ele>
        <time>2019-04-19T03:40:16Z</time>
      </trkpt>
      <trkpt lat="44.73801" lon="6.76847">
        <ele>1285</ele>
        <time>2019-04-19T03:41:16Z</time>
      </trkpt>
      <trkpt lat="44.73791" lon="6.7685">
        <ele>1284</ele>
        <time>2019-04-19T03:42:16Z</time>
      </trkpt>
      <trkpt lat="44.73769" lon="6.76851">
        <ele>1279</ele>
        <time>2019-04-19T03:43:16Z</time>
      </trkpt>
      <trkpt lat="44.73683" lon="6.7683">
        <ele>1272</ele>
        <time>2019-04-19T03:44:16Z</time>
      </trkpt>
      <trkpt lat="44.73632" lon="6.7682">
        <ele>1275</ele>
        <time>2019-04-19T03:45:16Z</time>
      </trkpt>
      <trkpt lat="44.73552" lon="6.76819">
        <ele>1273</ele>
        <time>2019-04-19T03:46:16Z</time>
      </trkpt>
      <trkpt lat="44.73522" lon="6.76815">
        <ele>1273</ele>
        <time>2019-04-19T03:47:16Z</time>
      </trkpt>
      <trkpt lat="44.73495" lon="6.76806">
        <ele>1274</ele>
        <time>2019-04-19T03:48:16Z</time>
      </trkpt>
      <trkpt lat="44.73303" lon="6.76724">
        <ele>1276</ele>
        <time>2019-04-19T03:49:16Z</time>
      </trkpt>
      <trkpt lat="44.73186" lon="6.76704">
        <ele>1268</ele>
        <time>2019-04-19T03:50:16Z</time>
      </trkpt>
      <trkpt lat="44.73156" lon="6.76695">
        <ele>1267</ele>
        <time>2019-04-19T03:51:16Z</time>
      </trkpt>
      <trkpt lat="44.73131" lon="6.76669">
        <ele>1268</ele>
        <time>2019-04-19T03:52:16Z</time>
      </trkpt>
      <trkpt lat="44.73083" lon="6.76574">
        <ele>1267</ele>
        <time>2019-04-19T03:53:16Z</time>
      </trkpt>
      <trkpt lat="44.73025" lon="6.76475">
        <ele>1283</ele>
        <time>2019-04-19T03:54:16Z</time>
      </trkpt>
      <trkpt lat="44.72997" lon="6.76441">
        <ele>1277</ele>
        <time>2019-04-19T03:55:16Z</time>
      </trkpt>
      <trkpt lat="44.72974" lon="6.7642">
        <ele>1282</ele>
        <time>2019-04-19T03:56:16Z</time>
      </trkpt>
      <trkpt lat="44.72958" lon="6.76409">
        <ele>1292</ele>
        <time>2019-04-19T03:57:16Z</time>
      </trkpt>
      <trkpt lat="44.72938" lon="6.76399">
        <ele>1303</ele>
        <time>2019-04-19T03:58:16Z</time>
      </trkpt>
      <trkpt lat="44.72918" lon="6.76393">
        <ele>1308</ele>
        <time>2019-04-19T03:59:16Z</time>
      </trkpt>
      <trkpt lat="44.72895" lon="6.76393">
        <ele>1312</ele>
        <time>2019-04-19T04:00:16Z</time>
      </trkpt>
      <trkpt lat="44.72872" lon="6.76397">
        <ele>1313</ele>
        <time>2019-04-19T04:01:16Z</time>
      </trkpt>
      <trkpt lat="44.7281" lon="6.76419">
        <ele>1313</ele>
        <time>2019-04-19T04:02:16Z</time>
      </trkpt>
      <trkpt lat="44.72737" lon="6.76415">
        <ele>1312</ele>
        <time>2019-04-19T04:03:16Z</time>
      </trkpt>
      <trkpt lat="44.726" lon="6.76386">
        <ele>1308</ele>
        <time>2019-04-19T04:04:16Z</time>
      </trkpt>
      <trkpt lat="44.7253" lon="6.76363">
        <ele>1320</ele>
        <time>2019-04-19T04:05:16Z</time>
      </trkpt>
      <trkpt lat="44.72447" lon="6.76285">
        <ele>1327</ele>
        <time>2019-04-19T04:06:16Z</time>
      </trkpt>
      <trkpt lat="44.72419" lon="6.76263">
        <ele>1324</ele>
        <time>2019-04-19T04:07:16Z</time>
      </trkpt>
      <trkpt lat="44.72389" lon="6.76249">
        <ele>1317</ele>
        <time>2019-04-19T04:08:16Z</time>
      </trkpt>
      <trkpt lat="44.72335" lon="6.76244">
        <ele>1309</ele>
        <time>2019-04-19T04:09:16Z</time>
      </trkpt>
      <trkpt lat="44.72249" lon="6.7625">
        <ele>1289</ele>
        <time>2019-04-19T04:10:16Z</time>
      </trkpt>
      <trkpt lat="44.72218" lon="6.76248">
        <ele>1284</ele>
        <time>2019-04-19T04:11:16Z</time>
      </trkpt>
      <trkpt lat="44.72171" lon="6.76236">
        <ele>1275</ele>
        <time>2019-04-19T04:12:16Z</time>
      </trkpt>
      <trkpt lat="44.72107" lon="6.7621">
        <ele>1245</ele>
        <time>2019-04-19T04:13:16Z</time>
      </trkpt>
      <trkpt lat="44.71924" lon="6.76148">
        <ele>1223</ele>
        <time>2019-04-19T04:14:16Z</time>
      </trkpt>
      <trkpt lat="44.7186" lon="6.76119">
        <ele>1225</ele>
        <time>2019-04-19T04:15:16Z</time>
      </trkpt>
      <trkpt lat="44.71807" lon="6.76077">
        <ele>1223</ele>
        <time>2019-04-19T04:16:16Z</time>
      </trkpt>
      <trkpt lat="44.71776" lon="6.76046">
        <ele>1221</ele>
        <time>2019-04-19T04:17:16Z</time>
      </trkpt>
      <trkpt lat="44.7175" lon="6.76013">
        <ele>1217</ele>
        <time>2019-04-19T04:18:16Z</time>
      </trkpt>
      <trkpt lat="44.71674" lon="6.7585">
        <ele>1217</ele>
        <time>2019-04-19T04:19:16Z</time>
      </trkpt>
      <trkpt lat="44.71607" lon="6.75694">
        <ele>1224</ele>
        <time>2019-04-19T04:20:16Z</time>
      </trkpt>
      <trkpt lat="44.71587" lon="6.75611">
        <ele>1216</ele>
        <time>2019-04-19T04:21:16Z</time>
      </trkpt>
      <trkpt lat="44.71576" lon="6.75463">
        <ele>1222</ele>
        <time>2019-04-19T04:22:16Z</time>
      </trkpt>
      <trkpt lat="44.71568" lon="6.75287">
        <ele>1222</ele>
        <time>2019-04-19T04:23:16Z</time>
      </trkpt>
      <trkpt lat="44.71543" lon="6.75075">
        <ele>1210</ele>
        <time>2019-04-19T04:24:16Z</time>
      </trkpt>
      <trkpt lat="44.71521" lon="6.75001">
        <ele>1204</ele>
        <time>2019-04-19T04:25:16Z</time>
      </trkpt>
      <trkpt lat="44.71493" lon="6.7492">
        <ele>1208</ele>
        <time>2019-04-19T04:26:16Z</time>
      </trkpt>
      <trkpt lat="44.71232" lon="6.7441">
        <ele>1205</ele>
        <time>2019-04-19T04:27:16Z</time>
      </trkpt>
      <trkpt lat="44.71215" lon="6.74366">
        <ele>1206</ele>
        <time>2019-04-19T04:28:16Z</time>
      </trkpt>
      <trkpt lat="44.71201" lon="6.74313">
        <ele>1208</ele>
        <time>2019-04-19T04:29:16Z</time>
      </trkpt>
      <trkpt lat="44.71196" lon="6.74284">
        <ele>1212</ele>
        <time>2019-04-19T04:30:16Z</time>
      </trkpt>
      <trkpt lat="44.71178" lon="6.74233">
        <ele>1211</ele>
        <time>2019-04-19T04:31:16Z</time>
      </trkpt>
      <trkpt lat="44.71164" lon="6.74209">
        <ele>1210</ele>
        <time>2019-04-19T04:32:16Z</time>
      </trkpt>
      <trkpt lat="44.71137" lon="6.74177">
        <ele>1209</ele>
        <time>2019-04-19T04:33:16Z</time>
      </trkpt>
      <trkpt lat="44.71057" lon="6.74069">
        <ele>1206</ele>
        <time>2019-04-19T04:34:16Z</time>
      </trkpt>
      <trkpt lat="44.70856" lon="6.73664">
        <ele>1191</ele>
        <time>2019-04-19T04:35:16Z</time>
      </trkpt>
      <trkpt lat="44.70829" lon="6.73543">
        <ele>1188</ele>
        <time>2019-04-19T04:36:16Z</time>
      </trkpt>
      <trkpt lat="44.70825" lon="6.73511">
        <ele>1190</ele>
        <time>2019-04-19T04:37:16Z</time>
      </trkpt>
      <trkpt lat="44.70825" lon="6.73465">
        <ele>1184</ele>
        <time>2019-04-19T04:38:16Z</time>
      </trkpt>
      <trkpt lat="44.70835" lon="6.73424">
        <ele>1177</ele>
        <time>2019-04-19T04:39:16Z</time>
      </trkpt>
      <trkpt lat="44.70844" lon="6.73375">
        <ele>1176</ele>
        <time>2019-04-19T04:40:16Z</time>
      </trkpt>
      <trkpt lat="44.70854" lon="6.7334">
        <ele>1175</ele>
        <time>2019-04-19T04:41:16Z</time>
      </trkpt>
      <trkpt lat="44.7088" lon="6.73287">
        <ele>1180</ele>
        <time>2019-04-19T04:42:16Z</time>
      </trkpt>
      <trkpt lat="44.70892" lon="6.73256">
        <ele>1180</ele>
        <time>2019-04-19T04:43:16Z</time>
      </trkpt>
      <trkpt lat="44.70901" lon="6.73207">
        <ele>1182</ele>
        <time>2019-04-19T04:44:16Z</time>
      </trkpt>
      <trkpt lat="44.70895" lon="6.73129">
        <ele>1190</ele>
        <time>2019-04-19T04:45:16Z</time>
      </trkpt>
      <trkpt lat="44.70885" lon="6.73088">
        <ele>1194</ele>
        <time>2019-04-19T04:46:16Z</time>
      </trkpt>
      <trkpt lat="44.70867" lon="6.73024">
        <ele>1189</ele>
        <time>2019-04-19T04:47:16Z</time>
      </trkpt>
      <trkpt lat="44.70841" lon="6.72946">
        <ele>1177</ele>
        <time>2019-04-19T04:48:16Z</time>
      </trkpt>
      <trkpt lat="44.70825" lon="6.72906">
        <ele>1176</ele>
        <time>2019-04-19T04:49:16Z</time>
      </trkpt>
      <trkpt lat="44.70653" lon="6.72545">
        <ele>1167</ele>
        <time>2019-04-19T04:50:16Z</time>
      </trkpt>
      <trkpt lat="44.70571" lon="6.72408">
        <ele>1168</ele>
        <time>2019-04-19T04:51:16Z</time>
      </trkpt>
      <trkpt lat="44.70551" lon="6.72371">
        <ele>1167</ele>
        <time>2019-04-19T04:52:16Z</time>
      </trkpt>
      <trkpt lat="44.70535" lon="6.72321">
        <ele>1165</ele>
        <time>2019-04-19T04:53:16Z</time>
      </trkpt>
      <trkpt lat="44.70524" lon="6.72267">
        <ele>1163</ele>
        <time>2019-04-19T04:54:16Z</time>
      </trkpt>
      <trkpt lat="44.70523" lon="6.72226">
        <ele>1164</ele>
        <time>2019-04-19T04:55:16Z</time>
      </trkpt>
      <trkpt lat="44.70522" lon="6.72127">
        <ele>1171</ele>
        <time>2019-04-19T04:56:16Z</time>
      </trkpt>
      <trkpt lat="44.70521" lon="6.72097">
        <ele>1174</ele>
        <time>2019-04-19T04:57:16Z</time>
      </trkpt>
      <trkpt lat="44.70518" lon="6.72067">
        <ele>1178</ele>
        <time>2019-04-19T04:58:16Z</time>
      </trkpt>
      <trkpt lat="44.70506" lon="6.72025">
        <ele>1178</ele>
        <time>2019-04-19T04:59:16Z</time>
      </trkpt>
      <trkpt lat="44.70493" lon="6.71996">
        <ele>1176</ele>
        <time>2019-04-19T05:00:16Z</time>
      </trkpt>
      <trkpt lat="44.70472" lon="6.71966">
        <ele>1185</ele>
        <time>2019-04-19T05:01:16Z</time>
      </trkpt>
      <trkpt lat="44.70455" lon="6.71951">
        <ele>1183</ele>
        <time>2019-04-19T05:02:16Z</time>
      </trkpt>
      <trkpt lat="44.70436" lon="6.71939">
        <ele>1175</ele>
        <time>2019-04-19T05:03:16Z</time>
      </trkpt>
      <trkpt lat="44.70356" lon="6.71897">
        <ele>1160</ele>
        <time>2019-04-19T05:04:16Z</time>
      </trkpt>
      <trkpt lat="44.70329" lon="6.71877">
        <ele>1158</ele>
        <time>2019-04-19T05:05:16Z</time>
      </trkpt>
      <trkpt lat="44.70303" lon="6.71846">
        <ele>1158</ele>
        <time>2019-04-19T05:06:16Z</time>
      </trkpt>
      <trkpt lat="44.70279" lon="6.71793">
        <ele>1154</ele>
        <time>2019-04-19T05:07:16Z</time>
      </trkpt>
      <trkpt lat="44.70265" lon="6.71744">
        <ele>1154</ele>
        <time>2019-04-19T05:08:16Z</time>
      </trkpt>
      <trkpt lat="44.70242" lon="6.71702">
        <ele>1155</ele>
        <time>2019-04-19T05:09:16Z</time>
      </trkpt>
      <trkpt lat="44.70213" lon="6.71658">
        <ele>1155</ele>
        <time>2019-04-19T05:10:16Z</time>
      </trkpt>
      <trkpt lat="44.7017" lon="6.71619">
        <ele>1151</ele>
        <time>2019-04-19T05:11:16Z</time>
      </trkpt>
      <trkpt lat="44.70135" lon="6.7158">
        <ele>1154</ele>
        <time>2019-04-19T05:12:16Z</time>
      </trkpt>
      <trkpt lat="44.70123" lon="6.7156">
        <ele>1154</ele>
        <time>2019-04-19T05:13:16Z</time>
      </trkpt>
      <trkpt lat="44.70108" lon="6.71527">
        <ele>1151</ele>
        <time>2019-04-19T05:14:16Z</time>
      </trkpt>
      <trkpt lat="44.70088" lon="6.71466">
        <ele>1148</ele>
        <time>2019-04-19T05:15:16Z</time>
      </trkpt>
      <trkpt lat="44.70079" lon="6.71442">
        <ele>1150</ele>
        <time>2019-04-19T05:16:16Z</time>
      </trkpt>
      <trkpt lat="44.70026" lon="6.71331">
        <ele>1154</ele>
        <time>2019-04-19T05:17:16Z</time>
      </trkpt>
      <trkpt lat="44.7001" lon="6.71286">
        <ele>1151</ele>
        <time>2019-04-19T05:18:16Z</time>
      </trkpt>
      <trkpt lat="44.69989" lon="6.71215">
        <ele>1154</ele>
        <time>2019-04-19T05:19:16Z</time>
      </trkpt>
      <trkpt lat="44.69969" lon="6.71167">
        <ele>1152</ele>
        <time>2019-04-19T05:20:16Z</time>
      </trkpt>
      <trkpt lat="44.69885" lon="6.71022">
        <ele>1143</ele>
        <time>2019-04-19T05:21:16Z</time>
      </trkpt>
      <trkpt lat="44.69866" lon="6.70986">
        <ele>1136</ele>
        <time>2019-04-19T05:22:16Z</time>
      </trkpt>
      <trkpt lat="44.69816" lon="6.70901">
        <ele>1128</ele>
        <time>2019-04-19T05:23:16Z</time>
      </trkpt>
      <trkpt lat="44.69712" lon="6.70778">
        <ele>1127</ele>
        <time>2019-04-19T05:24:16Z</time>
      </trkpt>
      <trkpt lat="44.69591" lon="6.70642">
        <ele>1117</ele>
        <time>2019-04-19T05:25:16Z</time>
      </trkpt>
      <trkpt lat="44.69543" lon="6.70605">
        <ele>1117</ele>
        <time>2019-04-19T05:26:16Z</time>
      </trkpt>
      <trkpt lat="44.69413" lon="6.7054">
        <ele>1110</ele>
        <time>2019-04-19T05:27:16Z</time>
      </trkpt>
      <trkpt lat="44.69348" lon="6.705">
        <ele>1104</ele>
        <time>2019-04-19T05:28:16Z</time>
      </trkpt>
      <trkpt lat="44.69292" lon="6.70445">
        <ele>1107</ele>
        <time>2019-04-19T05:29:16Z</time>
      </trkpt>
      <trkpt lat="44.69234" lon="6.70333">
        <ele>1103</ele>
        <time>2019-04-19T05:30:16Z</time>
      </trkpt>
      <trkpt lat="44.69198" lon="6.70281">
        <ele>1105</ele>
        <time>2019-04-19T05:31:16Z</time>
      </trkpt>
      <trkpt lat="44.69135" lon="6.70213">
        <ele>1103</ele>
        <time>2019-04-19T05:32:16Z</time>
      </trkpt>
      <trkpt lat="44.68753" lon="6.699">
        <ele>1088</ele>
        <time>2019-04-19T05:33:16Z</time>
      </trkpt>
      <trkpt lat="44.68669" lon="6.69851">
        <ele>1084</ele>
        <time>2019-04-19T05:34:16Z</time>
      </trkpt>
      <trkpt lat="44.68631" lon="6.69844">
        <ele>1083</ele>
        <time>2019-04-19T05:35:16Z</time>
      </trkpt>
      <trkpt lat="44.68579" lon="6.69841">
        <ele>1080</ele>
        <time>2019-04-19T05:36:16Z</time>
      </trkpt>
      <trkpt lat="44.6847" lon="6.6983">
        <ele>1083</ele>
        <time>2019-04-19T05:37:16Z</time>
      </trkpt>
      <trkpt lat="44.6845" lon="6.69826">
        <ele>1084</ele>
        <time>2019-04-19T05:38:16Z</time>
      </trkpt>
      <trkpt lat="44.68432" lon="6.69816">
        <ele>1086</ele>
        <time>2019-04-19T05:39:16Z</time>
      </trkpt>
      <trkpt lat="44.68388" lon="6.69772">
        <ele>1088</ele>
        <time>2019-04-19T05:40:16Z</time>
      </trkpt>
      <trkpt lat="44.68342" lon="6.69757">
        <ele>1075</ele>
        <time>2019-04-19T05:41:16Z</time>
      </trkpt>
      <trkpt lat="44.68182" lon="6.69733">
        <ele>1078</ele>
        <time>2019-04-19T05:42:16Z</time>
      </trkpt>
      <trkpt lat="44.68075" lon="6.69614">
        <ele>1081</ele>
        <time>2019-04-19T05:43:16Z</time>
      </trkpt>
      <trkpt lat="44.68051" lon="6.69598">
        <ele>1080</ele>
        <time>2019-04-19T05:44:16Z</time>
      </trkpt>
      <trkpt lat="44.68016" lon="6.69578">
        <ele>1076</ele>
        <time>2019-04-19T05:45:16Z</time>
      </trkpt>
      <trkpt lat="44.67925" lon="6.69554">
        <ele>1076</ele>
        <time>2019-04-19T05:46:16Z</time>
      </trkpt>
      <trkpt lat="44.67908" lon="6.69544">
        <ele>1077</ele>
        <time>2019-04-19T05:47:16Z</time>
      </trkpt>
      <trkpt lat="44.67884" lon="6.69521">
        <ele>1077</ele>
        <time>2019-04-19T05:48:16Z</time>
      </trkpt>
      <trkpt lat="44.67871" lon="6.69514">
        <ele>1075</ele>
        <time>2019-04-19T05:49:16Z</time>
      </trkpt>
      <trkpt lat="44.67823" lon="6.69499">
        <ele>1069</ele>
        <time>2019-04-19T05:50:16Z</time>
      </trkpt>
      <trkpt lat="44.67804" lon="6.69487">
        <ele>1072</ele>
        <time>2019-04-19T05:51:16Z</time>
      </trkpt>
      <trkpt lat="44.67755" lon="6.69407">
        <ele>1067</ele>
        <time>2019-04-19T05:52:16Z</time>
      </trkpt>
      <trkpt lat="44.67731" lon="6.69374">
        <ele>1063</ele>
        <time>2019-04-19T05:53:16Z</time>
      </trkpt>
      <trkpt lat="44.67719" lon="6.6937">
        <ele>1062</ele>
        <time>2019-04-19T05:54:16Z</time>
      </trkpt>
      <trkpt lat="44.67707" lon="6.69373">
        <ele>1062</ele>
        <time>2019-04-19T05:55:16Z</time>
      </trkpt>
      <trkpt lat="44.67689" lon="6.69389">
        <ele>1062</ele>
        <time>2019-04-19T05:56:16Z</time>
      </trkpt>
      <trkpt lat="44.67681" lon="6.69388">
        <ele>1062</ele>
        <time>2019-04-19T05:57:16Z</time>
      </trkpt>
      <trkpt lat="44.67663" lon="6.6937">
        <ele>1062</ele>
        <time>2019-04-19T05:58:16Z</time>
      </trkpt>
      <trkpt lat="44.67643" lon="6.69319">
        <ele>1066</ele>
        <time>2019-04-19T05:59:16Z</time>
      </trkpt>
      <trkpt lat="44.67631" lon="6.69309">
        <ele>1070</ele>
        <time>2019-04-19T06:00:16Z</time>
      </trkpt>
      <trkpt lat="44.67609" lon="6.69284">
        <ele>1074</ele>
        <time>2019-04-19T06:01:16Z</time>
      </trkpt>
      <trkpt lat="44.67596" lon="6.69261">
        <ele>1072</ele>
        <time>2019-04-19T06:02:16Z</time>
      </trkpt>
      <trkpt lat="44.67588" lon="6.69238">
        <ele>1068</ele>
        <time>2019-04-19T06:03:16Z</time>
      </trkpt>
      <trkpt lat="44.67558" lon="6.69195">
        <ele>1072</ele>
        <time>2019-04-19T06:04:16Z</time>
      </trkpt>
      <trkpt lat="44.67555" lon="6.6917">
        <ele>1067</ele>
        <time>2019-04-19T06:05:16Z</time>
      </trkpt>
      <trkpt lat="44.67553" lon="6.69136">
        <ele>1063</ele>
        <time>2019-04-19T06:06:16Z</time>
      </trkpt>
      <trkpt lat="44.67549" lon="6.6911">
        <ele>1061</ele>
        <time>2019-04-19T06:07:16Z</time>
      </trkpt>
      <trkpt lat="44.67536" lon="6.69081">
        <ele>1062</ele>
        <time>2019-04-19T06:08:16Z</time>
      </trkpt>
      <trkpt lat="44.67533" lon="6.69068">
        <ele>1064</ele>
        <time>2019-04-19T06:09:16Z</time>
      </trkpt>
      <trkpt lat="44.67527" lon="6.69023">
        <ele>1067</ele>
        <time>2019-04-19T06:10:16Z</time>
      </trkpt>
      <trkpt lat="44.67511" lon="6.68974">
        <ele>1065</ele>
        <time>2019-04-19T06:11:16Z</time>
      </trkpt>
      <trkpt lat="44.67486" lon="6.68934">
        <ele>1065</ele>
        <time>2019-04-19T06:12:16Z</time>
      </trkpt>
      <trkpt lat="44.67472" lon="6.6892">
        <ele>1073</ele>
        <time>2019-04-19T06:13:16Z</time>
      </trkpt>
      <trkpt lat="44.6746" lon="6.689">
        <ele>1077</ele>
        <time>2019-04-19T06:14:16Z</time>
      </trkpt>
      <trkpt lat="44.67434" lon="6.68835">
        <ele>1077</ele>
        <time>2019-04-19T06:15:16Z</time>
      </trkpt>
      <trkpt lat="44.67416" lon="6.68768">
        <ele>1072</ele>
        <time>2019-04-19T06:16:16Z</time>
      </trkpt>
      <trkpt lat="44.67401" lon="6.68692">
        <ele>1082</ele>
        <time>2019-04-19T06:17:16Z</time>
      </trkpt>
      <trkpt lat="44.67404" lon="6.68647">
        <ele>1081</ele>
        <time>2019-04-19T06:18:16Z</time>
      </trkpt>
      <trkpt lat="44.67416" lon="6.6859">
        <ele>1076</ele>
        <time>2019-04-19T06:19:16Z</time>
      </trkpt>
      <trkpt lat="44.67424" lon="6.68564">
        <ele>1071</ele>
        <time>2019-04-19T06:20:16Z</time>
      </trkpt>
      <trkpt lat="44.67443" lon="6.68545">
        <ele>1063</ele>
        <time>2019-04-19T06:21:16Z</time>
      </trkpt>
      <trkpt lat="44.67453" lon="6.68529">
        <ele>1057</ele>
        <time>2019-04-19T06:22:16Z</time>
      </trkpt>
      <trkpt lat="44.67455" lon="6.68508">
        <ele>1054</ele>
        <time>2019-04-19T06:23:16Z</time>
      </trkpt>
      <trkpt lat="44.67451" lon="6.68495">
        <ele>1055</ele>
        <time>2019-04-19T06:24:16Z</time>
      </trkpt>
      <trkpt lat="44.67418" lon="6.68448">
        <ele>1052</ele>
        <time>2019-04-19T06:25:16Z</time>
      </trkpt>
      <trkpt lat="44.67403" lon="6.68439">
        <ele>1059</ele>
        <time>2019-04-19T06:26:16Z</time>
      </trkpt>
      <trkpt lat="44.67382" lon="6.68429">
        <ele>1070</ele>
        <time>2019-04-19T06:27:16Z</time>
      </trkpt>
      <trkpt lat="44.6737" lon="6.68418">
        <ele>1074</ele>
        <time>2019-04-19T06:28:16Z</time>
      </trkpt>
      <trkpt lat="44.67356" lon="6.68394">
        <ele>1075</ele>
        <time>2019-04-19T06:29:16Z</time>
      </trkpt>
      <trkpt lat="44.67337" lon="6.68377">
        <ele>1074</ele>
        <time>2019-04-19T06:30:16Z</time>
      </trkpt>
      <trkpt lat="44.67317" lon="6.68351">
        <ele>1072</ele>
        <time>2019-04-19T06:31:16Z</time>
      </trkpt>
      <trkpt lat="44.67279" lon="6.6831">
        <ele>1080</ele>
        <time>2019-04-19T06:32:16Z</time>
      </trkpt>
      <trkpt lat="44.67273" lon="6.683">
        <ele>1079</ele>
        <time>2019-04-19T06:33:16Z</time>
      </trkpt>
      <trkpt lat="44.67264" lon="6.68273">
        <ele>1071</ele>
        <time>2019-04-19T06:34:16Z</time>
      </trkpt>
      <trkpt lat="44.67253" lon="6.68253">
        <ele>1065</ele>
        <time>2019-04-19T06:35:16Z</time>
      </trkpt>
      <trkpt lat="44.67235" lon="6.68235">
        <ele>1069</ele>
        <time>2019-04-19T06:36:16Z</time>
      </trkpt>
      <trkpt lat="44.67222" lon="6.68206">
        <ele>1063</ele>
        <time>2019-04-19T06:37:16Z</time>
      </trkpt>
      <trkpt lat="44.67203" lon="6.6819">
        <ele>1065</ele>
        <time>2019-04-19T06:38:16Z</time>
      </trkpt>
      <trkpt lat="44.67114" lon="6.68162">
        <ele>1094</ele>
        <time>2019-04-19T06:39:16Z</time>
      </trkpt>
      <trkpt lat="44.67091" lon="6.68152">
        <ele>1101</ele>
        <time>2019-04-19T06:40:16Z</time>
      </trkpt>
      <trkpt lat="44.6707" lon="6.68138">
        <ele>1103</ele>
        <time>2019-04-19T06:41:16Z</time>
      </trkpt>
      <trkpt lat="44.6699" lon="6.68066">
        <ele>1117</ele>
        <time>2019-04-19T06:42:16Z</time>
      </trkpt>
      <trkpt lat="44.66935" lon="6.68038">
        <ele>1148</ele>
        <time>2019-04-19T06:43:16Z</time>
      </trkpt>
      <trkpt lat="44.66902" lon="6.67974">
        <ele>1142</ele>
        <time>2019-04-19T06:44:16Z</time>
      </trkpt>
      <trkpt lat="44.66886" lon="6.67905">
        <ele>1121</ele>
        <time>2019-04-19T06:45:16Z</time>
      </trkpt>
      <trkpt lat="44.66895" lon="6.67842">
        <ele>1091</ele>
        <time>2019-04-19T06:46:16Z</time>
      </trkpt>
      <trkpt lat="44.66893" lon="6.67815">
        <ele>1087</ele>
        <time>2019-04-19T06:47:16Z</time>
      </trkpt>
      <trkpt lat="44.66881" lon="6.67775">
        <ele>1091</ele>
        <time>2019-04-19T06:48:16Z</time>
      </trkpt>
      <trkpt lat="44.66883" lon="6.67756">
        <ele>1086</ele>
        <time>2019-04-19T06:49:16Z</time>
      </trkpt>
      <trkpt lat="44.66887" lon="6.67733">
        <ele>1080</ele>
        <time>2019-04-19T06:50:16Z</time>
      </trkpt>
      <trkpt lat="44.66877" lon="6.67684">
        <ele>1085</ele>
        <time>2019-04-19T06:51:16Z</time>
      </trkpt>
      <trkpt lat="44.66877" lon="6.67671">
        <ele>1084</ele>
        <time>2019-04-19T06:52:16Z</time>
      </trkpt>
      <trkpt lat="44.66894" lon="6.67647">
        <ele>1070</ele>
        <time>2019-04-19T06:53:16Z</time>
      </trkpt>
      <trkpt lat="44.66889" lon="6.67618">
        <ele>1073</ele>
        <time>2019-04-19T06:54:16Z</time>
      </trkpt>
      <trkpt lat="44.66887" lon="6.67574">
        <ele>1073</ele>
        <time>2019-04-19T06:55:16Z</time>
      </trkpt>
      <trkpt lat="44.66877" lon="6.67541">
        <ele>1075</ele>
        <time>2019-04-19T06:56:16Z</time>
      </trkpt>
      <trkpt lat="44.66861" lon="6.67506">
        <ele>1078</ele>
        <time>2019-04-19T06:57:16Z</time>
      </trkpt>
      <trkpt lat="44.66852" lon="6.67492">
        <ele>1080</ele>
        <time>2019-04-19T06:58:16Z</time>
      </trkpt>
      <trkpt lat="44.66786" lon="6.6742">
        <ele>1089</ele>
        <time>2019-04-19T06:59:16Z</time>
      </trkpt>
      <trkpt lat="44.66771" lon="6.67391">
        <ele>1089</ele>
        <time>2019-04-19T07:00:16Z</time>
      </trkpt>
      <trkpt lat="44.66762" lon="6.67371">
        <ele>1090</ele>
        <time>2019-04-19T07:01:16Z</time>
      </trkpt>
      <trkpt lat="44.66741" lon="6.67259">
        <ele>1088</ele>
        <time>2019-04-19T07:02:16Z</time>
      </trkpt>
      <trkpt lat="44.6673" lon="6.6721">
        <ele>1089</ele>
        <time>2019-04-19T07:03:16Z</time>
      </trkpt>
      <trkpt lat="44.66725" lon="6.67151">
        <ele>1086</ele>
        <time>2019-04-19T07:04:16Z</time>
      </trkpt>
      <trkpt lat="44.66702" lon="6.6703">
        <ele>1083</ele>
        <time>2019-04-19T07:05:16Z</time>
      </trkpt>
      <trkpt lat="44.66684" lon="6.67">
        <ele>1093</ele>
        <time>2019-04-19T07:06:16Z</time>
      </trkpt>
      <trkpt lat="44.66681" lon="6.66977">
        <ele>1093</ele>
        <time>2019-04-19T07:07:16Z</time>
      </trkpt>
      <trkpt lat="44.66685" lon="6.66924">
        <ele>1084</ele>
        <time>2019-04-19T07:08:16Z</time>
      </trkpt>
      <trkpt lat="44.66683" lon="6.66909">
        <ele>1085</ele>
        <time>2019-04-19T07:09:16Z</time>
      </trkpt>
      <trkpt lat="44.66673" lon="6.66897">
        <ele>1096</ele>
        <time>2019-04-19T07:10:16Z</time>
      </trkpt>
      <trkpt lat="44.66629" lon="6.66873">
        <ele>1128</ele>
        <time>2019-04-19T07:11:16Z</time>
      </trkpt>
      <trkpt lat="44.66625" lon="6.66867">
        <ele>1130</ele>
        <time>2019-04-19T07:12:16Z</time>
      </trkpt>
      <trkpt lat="44.66622" lon="6.66859">
        <ele>1132</ele>
        <time>2019-04-19T07:13:16Z</time>
      </trkpt>
      <trkpt lat="44.66625" lon="6.66842">
        <ele>1129</ele>
        <time>2019-04-19T07:14:16Z</time>
      </trkpt>
      <trkpt lat="44.66637" lon="6.66819">
        <ele>1120</ele>
        <time>2019-04-19T07:15:16Z</time>
      </trkpt>
      <trkpt lat="44.66649" lon="6.66789">
        <ele>1111</ele>
        <time>2019-04-19T07:16:16Z</time>
      </trkpt>
      <trkpt lat="44.66666" lon="6.66736">
        <ele>1099</ele>
        <time>2019-04-19T07:17:16Z</time>
      </trkpt>
      <trkpt lat="44.66666" lon="6.66709">
        <ele>1089</ele>
        <time>2019-04-19T07:18:16Z</time>
      </trkpt>
      <trkpt lat="44.66656" lon="6.66688">
        <ele>1086</ele>
        <time>2019-04-19T07:19:16Z</time>
      </trkpt>
      <trkpt lat="44.66587" lon="6.66656">
        <ele>1101</ele>
        <time>2019-04-19T07:20:16Z</time>
      </trkpt>
      <trkpt lat="44.6657" lon="6.66633">
        <ele>1100</ele>
        <time>2019-04-19T07:21:16Z</time>
      </trkpt>
      <trkpt lat="44.66541" lon="6.66583">
        <ele>1098</ele>
        <time>2019-04-19T07:22:16Z</time>
      </trkpt>
      <trkpt lat="44.66533" lon="6.66562">
        <ele>1099</ele>
        <time>2019-04-19T07:23:16Z</time>
      </trkpt>
      <trkpt lat="44.6653" lon="6.66545">
        <ele>1099</ele>
        <time>2019-04-19T07:24:16Z</time>
      </trkpt>
      <trkpt lat="44.66522" lon="6.66391">
        <ele>1102</ele>
        <time>2019-04-19T07:25:16Z</time>
      </trkpt>
      <trkpt lat="44.66519" lon="6.66378">
        <ele>1103</ele>
        <time>2019-04-19T07:26:16Z</time>
      </trkpt>
      <trkpt lat="44.66514" lon="6.66367">
        <ele>1104</ele>
        <time>2019-04-19T07:27:16Z</time>
      </trkpt>
      <trkpt lat="44.665" lon="6.66352">
        <ele>1105</ele>
        <time>2019-04-19T07:28:16Z</time>
      </trkpt>
      <trkpt lat="44.66491" lon="6.66348">
        <ele>1105</ele>
        <time>2019-04-19T07:29:16Z</time>
      </trkpt>
      <trkpt lat="44.66458" lon="6.66344">
        <ele>1102</ele>
        <time>2019-04-19T07:30:16Z</time>
      </trkpt>
      <trkpt lat="44.66441" lon="6.66335">
        <ele>1100</ele>
        <time>2019-04-19T07:31:16Z</time>
      </trkpt>
      <trkpt lat="44.66432" lon="6.66326">
        <ele>1099</ele>
        <time>2019-04-19T07:32:16Z</time>
      </trkpt>
      <trkpt lat="44.66339" lon="6.66185">
        <ele>1092</ele>
        <time>2019-04-19T07:33:16Z</time>
      </trkpt>
      <trkpt lat="44.66318" lon="6.66163">
        <ele>1092</ele>
        <time>2019-04-19T07:34:16Z</time>
      </trkpt>
      <trkpt lat="44.66235" lon="6.66114">
        <ele>1086</ele>
        <time>2019-04-19T07:35:16Z</time>
      </trkpt>
      <trkpt lat="44.66225" lon="6.66106">
        <ele>1084</ele>
        <time>2019-04-19T07:36:16Z</time>
      </trkpt>
      <trkpt lat="44.66201" lon="6.66074">
        <ele>1081</ele>
        <time>2019-04-19T07:37:16Z</time>
      </trkpt>
      <trkpt lat="44.66127" lon="6.65964">
        <ele>1078</ele>
        <time>2019-04-19T07:38:16Z</time>
      </trkpt>
      <trkpt lat="44.6608" lon="6.6591">
        <ele>1076</ele>
        <time>2019-04-19T07:39:16Z</time>
      </trkpt>
      <trkpt lat="44.66062" lon="6.65817">
        <ele>1068</ele>
        <time>2019-04-19T07:40:16Z</time>
      </trkpt>
      <trkpt lat="44.66072" lon="6.65735">
        <ele>1062</ele>
        <time>2019-04-19T07:41:16Z</time>
      </trkpt>
      <trkpt lat="44.6606" lon="6.65669">
        <ele>1057</ele>
        <time>2019-04-19T07:42:16Z</time>
      </trkpt>
      <trkpt lat="44.66061" lon="6.65618">
        <ele>1052</ele>
        <time>2019-04-19T07:43:16Z</time>
      </trkpt>
      <trkpt lat="44.66059" lon="6.65588">
        <ele>1049</ele>
        <time>2019-04-19T07:44:16Z</time>
      </trkpt>
      <trkpt lat="44.66046" lon="6.65516">
        <ele>1044</ele>
        <time>2019-04-19T07:45:16Z</time>
      </trkpt>
      <trkpt lat="44.66045" lon="6.65506">
        <ele>1043</ele>
        <time>2019-04-19T07:46:16Z</time>
      </trkpt>
      <trkpt lat="44.66045" lon="6.65473">
        <ele>1041</ele>
        <time>2019-04-19T07:47:16Z</time>
      </trkpt>
      <trkpt lat="44.66042" lon="6.65436">
        <ele>1039</ele>
        <time>2019-04-19T07:48:16Z</time>
      </trkpt>
      <trkpt lat="44.66032" lon="6.65343">
        <ele>1032</ele>
        <time>2019-04-19T07:49:16Z</time>
      </trkpt>
      <trkpt lat="44.66006" lon="6.65232">
        <ele>1023</ele>
        <time>2019-04-19T07:50:16Z</time>
      </trkpt>
      <trkpt lat="44.66003" lon="6.65213">
        <ele>1021</ele>
        <time>2019-04-19T07:51:16Z</time>
      </trkpt>
      <trkpt lat="44.66004" lon="6.65195">
        <ele>1019</ele>
        <time>2019-04-19T07:52:16Z</time>
      </trkpt>
      <trkpt lat="44.66008" lon="6.65174">
        <ele>1017</ele>
        <time>2019-04-19T07:53:16Z</time>
      </trkpt>
      <trkpt lat="44.66038" lon="6.65109">
        <ele>1016</ele>
        <time>2019-04-19T07:54:16Z</time>
      </trkpt>
      <trkpt lat="44.66021" lon="6.65069">
        <ele>1013</ele>
        <time>2019-04-19T07:55:16Z</time>
      </trkpt>
      <trkpt lat="44.66039" lon="6.65064">
        <ele>1015</ele>
        <time>2019-04-19T07:56:16Z</time>
      </trkpt>
      <trkpt lat="44.66026" lon="6.65">
        <ele>1012</ele>
        <time>2019-04-19T07:57:16Z</time>
      </trkpt>
      <trkpt lat="44.66045" lon="6.64993">
        <ele>1014</ele>
        <time>2019-04-19T07:58:16Z</time>
      </trkpt>
      <trkpt lat="44.66025" lon="6.64887">
        <ele>1008</ele>
        <time>2019-04-19T07:59:16Z</time>
      </trkpt>
      <trkpt lat="44.66008" lon="6.64886">
        <ele>1006</ele>
        <time>2019-04-19T08:00:16Z</time>
      </trkpt>
      <trkpt lat="44.66007" lon="6.64856">
        <ele>1004</ele>
        <time>2019-04-19T08:01:16Z</time>
      </trkpt>
      <trkpt lat="44.6599" lon="6.6485">
        <ele>1002</ele>
        <time>2019-04-19T08:02:16Z</time>
      </trkpt>
      <trkpt lat="44.65984" lon="6.6485">
        <ele>1001</ele>
        <time>2019-04-19T08:03:16Z</time>
      </trkpt>
      <trkpt lat="44.65986" lon="6.64827">
        <ele>1000</ele>
        <time>2019-04-19T08:04:16Z</time>
      </trkpt>
      <trkpt lat="44.66007" lon="6.64727">
        <ele>995</ele>
        <time>2019-04-19T08:05:16Z</time>
      </trkpt>
      <trkpt lat="44.66011" lon="6.64699">
        <ele>994</ele>
        <time>2019-04-19T08:06:16Z</time>
      </trkpt>
      <trkpt lat="44.66013" lon="6.64681">
        <ele>994</ele>
        <time>2019-04-19T08:07:16Z</time>
      </trkpt>
      <trkpt lat="44.66006" lon="6.64515">
        <ele>992</ele>
        <time>2019-04-19T08:08:16Z</time>
      </trkpt>
      <trkpt lat="44.66003" lon="6.64496">
        <ele>993</ele>
        <time>2019-04-19T08:09:16Z</time>
      </trkpt>
      <trkpt lat="44.65994" lon="6.64472">
        <ele>991</ele>
        <time>2019-04-19T08:10:16Z</time>
      </trkpt>
      <trkpt lat="44.65962" lon="6.64416">
        <ele>986</ele>
        <time>2019-04-19T08:11:16Z</time>
      </trkpt>
      <trkpt lat="44.65943" lon="6.64373">
        <ele>981</ele>
        <time>2019-04-19T08:12:16Z</time>
      </trkpt>
      <trkpt lat="44.65937" lon="6.64311">
        <ele>979</ele>
        <time>2019-04-19T08:13:16Z</time>
      </trkpt>
      <trkpt lat="44.65937" lon="6.64264">
        <ele>978</ele>
        <time>2019-04-19T08:14:16Z</time>
      </trkpt>
      <trkpt lat="44.65939" lon="6.64221">
        <ele>976</ele>
        <time>2019-04-19T08:15:16Z</time>
      </trkpt>
      <trkpt lat="44.65945" lon="6.64198">
        <ele>976</ele>
        <time>2019-04-19T08:16:16Z</time>
      </trkpt>
      <trkpt lat="44.65947" lon="6.64194">
        <ele>976</ele>
        <time>2019-04-19T08:17:16Z</time>
      </trkpt>
      <trkpt lat="44.6595" lon="6.64185">
        <ele>976</ele>
        <time>2019-04-19T08:18:16Z</time>
      </trkpt>
      <trkpt lat="44.65952" lon="6.6415">
        <ele>974</ele>
        <time>2019-04-19T08:19:16Z</time>
      </trkpt>
      <trkpt lat="44.65959" lon="6.64133">
        <ele>974</ele>
        <time>2019-04-19T08:20:16Z</time>
      </trkpt>
      <trkpt lat="44.65979" lon="6.64092">
        <ele>973</ele>
        <time>2019-04-19T08:21:16Z</time>
      </trkpt>
      <trkpt lat="44.6599" lon="6.64064">
        <ele>973</ele>
        <time>2019-04-19T08:22:16Z</time>
      </trkpt>
      <trkpt lat="44.65993" lon="6.64033">
        <ele>972</ele>
        <time>2019-04-19T08:23:16Z</time>
      </trkpt>
      <trkpt lat="44.65993" lon="6.64007">
        <ele>970</ele>
        <time>2019-04-19T08:24:16Z</time>
      </trkpt>
      <trkpt lat="44.65977" lon="6.63893">
        <ele>965</ele>
        <time>2019-04-19T08:25:16Z</time>
      </trkpt>
      <trkpt lat="44.65975" lon="6.63868">
        <ele>964</ele>
        <time>2019-04-19T08:26:16Z</time>
      </trkpt>
      <trkpt lat="44.65977" lon="6.63844">
        <ele>964</ele>
        <time>2019-04-19T08:27:16Z</time>
      </trkpt>
      <trkpt lat="44.65988" lon="6.63774">
        <ele>963</ele>
        <time>2019-04-19T08:28:16Z</time>
      </trkpt>
      <trkpt lat="44.65989" lon="6.63752">
        <ele>962</ele>
        <time>2019-04-19T08:29:16Z</time>
      </trkpt>
      <trkpt lat="44.65988" lon="6.63731">
        <ele>962</ele>
        <time>2019-04-19T08:30:16Z</time>
      </trkpt>
      <trkpt lat="44.65981" lon="6.63701">
        <ele>960</ele>
        <time>2019-04-19T08:31:16Z</time>
      </trkpt>
      <trkpt lat="44.65855" lon="6.63408">
        <ele>946</ele>
        <time>2019-04-19T08:32:16Z</time>
      </trkpt>
      <trkpt lat="44.65844" lon="6.63375">
        <ele>945</ele>
        <time>2019-04-19T08:33:16Z</time>
      </trkpt>
      <trkpt lat="44.65841" lon="6.63358">
        <ele>944</ele>
        <time>2019-04-19T08:34:16Z</time>
      </trkpt>
      <trkpt lat="44.6584" lon="6.63341">
        <ele>944</ele>
        <time>2019-04-19T08:35:16Z</time>
      </trkpt>
      <trkpt lat="44.65842" lon="6.6332">
        <ele>943</ele>
        <time>2019-04-19T08:36:16Z</time>
      </trkpt>
      <trkpt lat="44.65846" lon="6.633">
        <ele>942</ele>
        <time>2019-04-19T08:37:16Z</time>
      </trkpt>
      <trkpt lat="44.65853" lon="6.63284">
        <ele>941</ele>
        <time>2019-04-19T08:38:16Z</time>
      </trkpt>
      <trkpt lat="44.65897" lon="6.63221">
        <ele>939</ele>
        <time>2019-04-19T08:39:16Z</time>
      </trkpt>
      <trkpt lat="44.65926" lon="6.63175">
        <ele>936</ele>
        <time>2019-04-19T08:40:16Z</time>
      </trkpt>
      <trkpt lat="44.65943" lon="6.63136">
        <ele>936</ele>
        <time>2019-04-19T08:41:16Z</time>
      </trkpt>
      <trkpt lat="44.65957" lon="6.63098">
        <ele>934</ele>
        <time>2019-04-19T08:42:16Z</time>
      </trkpt>
      <trkpt lat="44.65971" lon="6.63045">
        <ele>933</ele>
        <time>2019-04-19T08:43:16Z</time>
      </trkpt>
      <trkpt lat="44.65977" lon="6.63002">
        <ele>931</ele>
        <time>2019-04-19T08:44:16Z</time>
      </trkpt>
      <trkpt lat="44.65978" lon="6.62962">
        <ele>928</ele>
        <time>2019-04-19T08:45:16Z</time>
      </trkpt>
      <trkpt lat="44.65976" lon="6.62874">
        <ele>924</ele>
        <time>2019-04-19T08:46:16Z</time>
      </trkpt>
      <trkpt lat="44.65942" lon="6.6228">
        <ele>912</ele>
        <time>2019-04-19T08:47:16Z</time>
      </trkpt>
      <trkpt lat="44.65945" lon="6.62223">
        <ele>912</ele>
        <time>2019-04-19T08:48:16Z</time>
      </trkpt>
      <trkpt lat="44.65952" lon="6.62178">
        <ele>912</ele>
        <time>2019-04-19T08:49:16Z</time>
      </trkpt>
      <trkpt lat="44.65962" lon="6.62135">
        <ele>912</ele>
        <time>2019-04-19T08:50:16Z</time>
      </trkpt>
      <trkpt lat="44.65975" lon="6.62096">
        <ele>911</ele>
        <time>2019-04-19T08:51:16Z</time>
      </trkpt>
      <trkpt lat="44.66002" lon="6.62041">
        <ele>909</ele>
        <time>2019-04-19T08:52:16Z</time>
      </trkpt>
      <trkpt lat="44.66013" lon="6.62024">
        <ele>909</ele>
        <time>2019-04-19T08:53:16Z</time>
      </trkpt>
      <trkpt lat="44.66046" lon="6.6198">
        <ele>908</ele>
        <time>2019-04-19T08:54:16Z</time>
      </trkpt>
      <trkpt lat="44.66166" lon="6.61859">
        <ele>904</ele>
        <time>2019-04-19T08:55:16Z</time>
      </trkpt>
      <trkpt lat="44.66184" lon="6.61848">
        <ele>904</ele>
        <time>2019-04-19T08:56:16Z</time>
      </trkpt>
      <trkpt lat="44.66189" lon="6.6185">
        <ele>903</ele>
        <time>2019-04-19T08:57:16Z</time>
      </trkpt>
      <trkpt lat="44.66194" lon="6.61851">
        <ele>903</ele>
        <time>2019-04-19T08:58:16Z</time>
      </trkpt>
      <trkpt lat="44.66199" lon="6.61848">
        <ele>903</ele>
        <time>2019-04-19T08:59:16Z</time>
      </trkpt>
      <trkpt lat="44.66202" lon="6.61843">
        <ele>903</ele>
        <time>2019-04-19T09:00:16Z</time>
      </trkpt>
      <trkpt lat="44.66204" lon="6.61837">
        <ele>903</ele>
        <time>2019-04-19T09:01:16Z</time>
      </trkpt>
      <trkpt lat="44.66204" lon="6.6183">
        <ele>903</ele>
        <time>2019-04-19T09:02:16Z</time>
      </trkpt>
      <trkpt lat="44.66201" lon="6.6182">
        <ele>903</ele>
        <time>2019-04-19T09:03:16Z</time>
      </trkpt>
      <trkpt lat="44.66193" lon="6.61815">
        <ele>903</ele>
        <time>2019-04-19T09:04:16Z</time>
      </trkpt>
      <trkpt lat="44.66188" lon="6.61815">
        <ele>903</ele>
        <time>2019-04-19T09:05:16Z</time>
      </trkpt>
      <trkpt lat="44.66174" lon="6.61798">
        <ele>903</ele>
        <time>2019-04-19T09:06:16Z</time>
      </trkpt>
      <trkpt lat="44.66118" lon="6.61693">
        <ele>906</ele>
        <time>2019-04-19T09:07:16Z</time>
      </trkpt>
      <trkpt lat="44.66107" lon="6.61658">
        <ele>907</ele>
        <time>2019-04-19T09:08:16Z</time>
      </trkpt>
      <trkpt lat="44.66103" lon="6.61502">
        <ele>903</ele>
        <time>2019-04-19T09:09:16Z</time>
      </trkpt>
      <trkpt lat="44.66064" lon="6.61194">
        <ele>902</ele>
        <time>2019-04-19T09:10:16Z</time>
      </trkpt>
      <trkpt lat="44.66059" lon="6.61121">
        <ele>899</ele>
        <time>2019-04-19T09:11:16Z</time>
      </trkpt>
      <trkpt lat="44.66059" lon="6.61041">
        <ele>895</ele>
        <time>2019-04-19T09:12:16Z</time>
      </trkpt>
      <trkpt lat="44.66036" lon="6.60885">
        <ele>893</ele>
        <time>2019-04-19T09:13:16Z</time>
      </trkpt>
      <trkpt lat="44.66033" lon="6.60846">
        <ele>892</ele>
        <time>2019-04-19T09:14:16Z</time>
      </trkpt>
      <trkpt lat="44.6604" lon="6.60656">
        <ele>882</ele>
        <time>2019-04-19T09:15:16Z</time>
      </trkpt>
      <trkpt lat="44.66039" lon="6.60608">
        <ele>882</ele>
        <time>2019-04-19T09:16:16Z</time>
      </trkpt>
      <trkpt lat="44.66019" lon="6.60463">
        <ele>882</ele>
        <time>2019-04-19T09:17:16Z</time>
      </trkpt>
      <trkpt lat="44.66008" lon="6.60363">
        <ele>884</ele>
        <time>2019-04-19T09:18:16Z</time>
      </trkpt>
      <trkpt lat="44.659" lon="6.60154">
        <ele>882</ele>
        <time>2019-04-19T09:19:16Z</time>
      </trkpt>
      <trkpt lat="44.6558" lon="6.59522">
        <ele>882</ele>
        <time>2019-04-19T09:20:16Z</time>
      </trkpt>
      <trkpt lat="44.6548" lon="6.59329">
        <ele>878</ele>
        <time>2019-04-19T09:21:16Z</time>
      </trkpt>
      <trkpt lat="44.65194" lon="6.58768">
        <ele>882</ele>
        <time>2019-04-19T09:22:16Z</time>
      </trkpt>
      <trkpt lat="44.65141" lon="6.58659">
        <ele>877</ele>
        <time>2019-04-19T09:23:16Z</time>
      </trkpt>
      <trkpt lat="44.65125" lon="6.58632">
        <ele>878</ele>
        <time>2019-04-19T09:24:16Z</time>
      </trkpt>
      <trkpt lat="44.65074" lon="6.58558">
        <ele>879</ele>
        <time>2019-04-19T09:25:16Z</time>
      </trkpt>
      <trkpt lat="44.65061" lon="6.58528">
        <ele>877</ele>
        <time>2019-04-19T09:26:16Z</time>
      </trkpt>
      <trkpt lat="44.65054" lon="6.58505">
        <ele>876</ele>
        <time>2019-04-19T09:27:16Z</time>
      </trkpt>
      <trkpt lat="44.65047" lon="6.5847">
        <ele>875</ele>
        <time>2019-04-19T09:28:16Z</time>
      </trkpt>
      <trkpt lat="44.65044" lon="6.58422">
        <ele>875</ele>
        <time>2019-04-19T09:29:16Z</time>
      </trkpt>
      <trkpt lat="44.65047" lon="6.58293">
        <ele>874</ele>
        <time>2019-04-19T09:30:16Z</time>
      </trkpt>
      <trkpt lat="44.65027" lon="6.58184">
        <ele>873</ele>
        <time>2019-04-19T09:31:16Z</time>
      </trkpt>
      <trkpt lat="44.65019" lon="6.58127">
        <ele>873</ele>
        <time>2019-04-19T09:32:16Z</time>
      </trkpt>
      <trkpt lat="44.65001" lon="6.58082">
        <ele>872</ele>
        <time>2019-04-19T09:33:16Z</time>
      </trkpt>
      <trkpt lat="44.64921" lon="6.57989">
        <ele>875</ele>
        <time>2019-04-19T09:34:16Z</time>
      </trkpt>
      <trkpt lat="44.64872" lon="6.57881">
        <ele>876</ele>
        <time>2019-04-19T09:35:16Z</time>
      </trkpt>
      <trkpt lat="44.64852" lon="6.57856">
        <ele>876</ele>
        <time>2019-04-19T09:36:16Z</time>
      </trkpt>
      <trkpt lat="44.64752" lon="6.57742">
        <ele>872</ele>
        <time>2019-04-19T09:37:16Z</time>
      </trkpt>
      <trkpt lat="44.64447" lon="6.57401">
        <ele>871</ele>
        <time>2019-04-19T09:38:16Z</time>
      </trkpt>
      <trkpt lat="44.63905" lon="6.56789">
        <ele>896</ele>
        <time>2019-04-19T09:39:16Z</time>
      </trkpt>
      <trkpt lat="44.63802" lon="6.56669">
        <ele>894</ele>
        <time>2019-04-19T09:40:16Z</time>
      </trkpt>
      <trkpt lat="44.63753" lon="6.5661">
        <ele>903</ele>
        <time>2019-04-19T09:41:16Z</time>
      </trkpt>
      <trkpt lat="44.63733" lon="6.56595">
        <ele>905</ele>
        <time>2019-04-19T09:42:16Z</time>
      </trkpt>
      <trkpt lat="44.63532" lon="6.56515">
        <ele>910</ele>
        <time>2019-04-19T09:43:16Z</time>
      </trkpt>
      <trkpt lat="44.63513" lon="6.56501">
        <ele>912</ele>
        <time>2019-04-19T09:44:16Z</time>
      </trkpt>
      <trkpt lat="44.6348" lon="6.56461">
        <ele>919</ele>
        <time>2019-04-19T09:45:16Z</time>
      </trkpt>
      <trkpt lat="44.63466" lon="6.56449">
        <ele>920</ele>
        <time>2019-04-19T09:46:16Z</time>
      </trkpt>
      <trkpt lat="44.63448" lon="6.56443">
        <ele>919</ele>
        <time>2019-04-19T09:47:16Z</time>
      </trkpt>
      <trkpt lat="44.63405" lon="6.5644">
        <ele>913</ele>
        <time>2019-04-19T09:48:16Z</time>
      </trkpt>
      <trkpt lat="44.63377" lon="6.56429">
        <ele>911</ele>
        <time>2019-04-19T09:49:16Z</time>
      </trkpt>
      <trkpt lat="44.63363" lon="6.56419">
        <ele>912</ele>
        <time>2019-04-19T09:50:16Z</time>
      </trkpt>
      <trkpt lat="44.6335" lon="6.56404">
        <ele>914</ele>
        <time>2019-04-19T09:51:16Z</time>
      </trkpt>
      <trkpt lat="44.6333" lon="6.56368">
        <ele>920</ele>
        <time>2019-04-19T09:52:16Z</time>
      </trkpt>
      <trkpt lat="44.63252" lon="6.56204">
        <ele>922</ele>
        <time>2019-04-19T09:53:16Z</time>
      </trkpt>
      <trkpt lat="44.63242" lon="6.5617">
        <ele>924</ele>
        <time>2019-04-19T09:54:16Z</time>
      </trkpt>
      <trkpt lat="44.6324" lon="6.56142">
        <ele>925</ele>
        <time>2019-04-19T09:55:16Z</time>
      </trkpt>
      <trkpt lat="44.63245" lon="6.56116">
        <ele>930</ele>
        <time>2019-04-19T09:56:16Z</time>
      </trkpt>
      <trkpt lat="44.63246" lon="6.56089">
        <ele>933</ele>
        <time>2019-04-19T09:57:16Z</time>
      </trkpt>
      <trkpt lat="44.63241" lon="6.56054">
        <ele>933</ele>
        <time>2019-04-19T09:58:16Z</time>
      </trkpt>
      <trkpt lat="44.63218" lon="6.5596">
        <ele>925</ele>
        <time>2019-04-19T09:59:16Z</time>
      </trkpt>
      <trkpt lat="44.63214" lon="6.55931">
        <ele>924</ele>
        <time>2019-04-19T10:00:16Z</time>
      </trkpt>
      <trkpt lat="44.63215" lon="6.55899">
        <ele>923</ele>
        <time>2019-04-19T10:01:16Z</time>
      </trkpt>
      <trkpt lat="44.63221" lon="6.55857">
        <ele>922</ele>
        <time>2019-04-19T10:02:16Z</time>
      </trkpt>
      <trkpt lat="44.63236" lon="6.55813">
        <ele>924</ele>
        <time>2019-04-19T10:03:16Z</time>
      </trkpt>
      <trkpt lat="44.63265" lon="6.55761">
        <ele>933</ele>
        <time>2019-04-19T10:04:16Z</time>
      </trkpt>
      <trkpt lat="44.63285" lon="6.5568">
        <ele>928</ele>
        <time>2019-04-19T10:05:16Z</time>
      </trkpt>
      <trkpt lat="44.63291" lon="6.55632">
        <ele>927</ele>
        <time>2019-04-19T10:06:16Z</time>
      </trkpt>
      <trkpt lat="44.63296" lon="6.55464">
        <ele>930</ele>
        <time>2019-04-19T10:07:16Z</time>
      </trkpt>
      <trkpt lat="44.63292" lon="6.55419">
        <ele>929</ele>
        <time>2019-04-19T10:08:16Z</time>
      </trkpt>
      <trkpt lat="44.6327" lon="6.5529">
        <ele>927</ele>
        <time>2019-04-19T10:09:16Z</time>
      </trkpt>
      <trkpt lat="44.63264" lon="6.55165">
        <ele>926</ele>
        <time>2019-04-19T10:10:16Z</time>
      </trkpt>
      <trkpt lat="44.63246" lon="6.55077">
        <ele>919</ele>
        <time>2019-04-19T10:11:16Z</time>
      </trkpt>
      <trkpt lat="44.63227" lon="6.54962">
        <ele>927</ele>
        <time>2019-04-19T10:12:16Z</time>
      </trkpt>
      <trkpt lat="44.63216" lon="6.54921">
        <ele>931</ele>
        <time>2019-04-19T10:13:16Z</time>
      </trkpt>
      <trkpt lat="44.6319" lon="6.54882">
        <ele>929</ele>
        <time>2019-04-19T10:14:16Z</time>
      </trkpt>
      <trkpt lat="44.63098" lon="6.54781">
        <ele>924</ele>
        <time>2019-04-19T10:15:16Z</time>
      </trkpt>
      <trkpt lat="44.63085" lon="6.54772">
        <ele>922</ele>
        <time>2019-04-19T10:16:16Z</time>
      </trkpt>
      <trkpt lat="44.63062" lon="6.54763">
        <ele>921</ele>
        <time>2019-04-19T10:17:16Z</time>
      </trkpt>
      <trkpt lat="44.62992" lon="6.54749">
        <ele>918</ele>
        <time>2019-04-19T10:18:16Z</time>
      </trkpt>
      <trkpt lat="44.62953" lon="6.54725">
        <ele>915</ele>
        <time>2019-04-19T10:19:16Z</time>
      </trkpt>
      <trkpt lat="44.62752" lon="6.54546">
        <ele>915</ele>
        <time>2019-04-19T10:20:16Z</time>
      </trkpt>
      <trkpt lat="44.6262" lon="6.54426">
        <ele>925</ele>
        <time>2019-04-19T10:21:16Z</time>
      </trkpt>
      <trkpt lat="44.6259" lon="6.54391">
        <ele>928</ele>
        <time>2019-04-19T10:22:16Z</time>
      </trkpt>
      <trkpt lat="44.62571" lon="6.54361">
        <ele>928</ele>
        <time>2019-04-19T10:23:16Z</time>
      </trkpt>
      <trkpt lat="44.62556" lon="6.54333">
        <ele>927</ele>
        <time>2019-04-19T10:24:16Z</time>
      </trkpt>
      <trkpt lat="44.62533" lon="6.54277">
        <ele>926</ele>
        <time>2019-04-19T10:25:16Z</time>
      </trkpt>
      <trkpt lat="44.62425" lon="6.53973">
        <ele>936</ele>
        <time>2019-04-19T10:26:16Z</time>
      </trkpt>
      <trkpt lat="44.6242" lon="6.53923">
        <ele>940</ele>
        <time>2019-04-19T10:27:16Z</time>
      </trkpt>
      <trkpt lat="44.62413" lon="6.5389">
        <ele>940</ele>
        <time>2019-04-19T10:28:16Z</time>
      </trkpt>
      <trkpt lat="44.62401" lon="6.53857">
        <ele>939</ele>
        <time>2019-04-19T10:29:16Z</time>
      </trkpt>
      <trkpt lat="44.62383" lon="6.53789">
        <ele>941</ele>
        <time>2019-04-19T10:30:16Z</time>
      </trkpt>
      <trkpt lat="44.6237" lon="6.53753">
        <ele>943</ele>
        <time>2019-04-19T10:31:16Z</time>
      </trkpt>
      <trkpt lat="44.6236" lon="6.5373">
        <ele>943</ele>
        <time>2019-04-19T10:32:16Z</time>
      </trkpt>
      <trkpt lat="44.6229" lon="6.5358">
        <ele>950</ele>
        <time>2019-04-19T10:33:16Z</time>
      </trkpt>
      <trkpt lat="44.62194" lon="6.53383">
        <ele>952</ele>
        <time>2019-04-19T10:34:16Z</time>
      </trkpt>
      <trkpt lat="44.62126" lon="6.53225">
        <ele>958</ele>
        <time>2019-04-19T10:35:16Z</time>
      </trkpt>
      <trkpt lat="44.62106" lon="6.53187">
        <ele>965</ele>
        <time>2019-04-19T10:36:16Z</time>
      </trkpt>
      <trkpt lat="44.62077" lon="6.53161">
        <ele>964</ele>
        <time>2019-04-19T10:37:16Z</time>
      </trkpt>
      <trkpt lat="44.6205" lon="6.53133">
        <ele>960</ele>
        <time>2019-04-19T10:38:16Z</time>
      </trkpt>
      <trkpt lat="44.62035" lon="6.53103">
        <ele>962</ele>
        <time>2019-04-19T10:39:16Z</time>
      </trkpt>
      <trkpt lat="44.61983" lon="6.52932">
        <ele>968</ele>
        <time>2019-04-19T10:40:16Z</time>
      </trkpt>
      <trkpt lat="44.61963" lon="6.52881">
        <ele>968</ele>
        <time>2019-04-19T10:41:16Z</time>
      </trkpt>
      <trkpt lat="44.61947" lon="6.52848">
        <ele>968</ele>
        <time>2019-04-19T10:42:16Z</time>
      </trkpt>
      <trkpt lat="44.61859" lon="6.52722">
        <ele>974</ele>
        <time>2019-04-19T10:43:16Z</time>
      </trkpt>
      <trkpt lat="44.6179" lon="6.52635">
        <ele>973</ele>
        <time>2019-04-19T10:44:16Z</time>
      </trkpt>
      <trkpt lat="44.61773" lon="6.52591">
        <ele>974</ele>
        <time>2019-04-19T10:45:16Z</time>
      </trkpt>
      <trkpt lat="44.61755" lon="6.52472">
        <ele>983</ele>
        <time>2019-04-19T10:46:16Z</time>
      </trkpt>
      <trkpt lat="44.61734" lon="6.52431">
        <ele>984</ele>
        <time>2019-04-19T10:47:16Z</time>
      </trkpt>
      <trkpt lat="44.61684" lon="6.52357">
        <ele>982</ele>
        <time>2019-04-19T10:48:16Z</time>
      </trkpt>
      <trkpt lat="44.61642" lon="6.52306">
        <ele>975</ele>
        <time>2019-04-19T10:49:16Z</time>
      </trkpt>
      <trkpt lat="44.61637" lon="6.52296">
        <ele>974</ele>
        <time>2019-04-19T10:50:16Z</time>
      </trkpt>
      <trkpt lat="44.61634" lon="6.52285">
        <ele>974</ele>
        <time>2019-04-19T10:51:16Z</time>
      </trkpt>
      <trkpt lat="44.61636" lon="6.52273">
        <ele>975</ele>
        <time>2019-04-19T10:52:16Z</time>
      </trkpt>
      <trkpt lat="44.61642" lon="6.52263">
        <ele>976</ele>
        <time>2019-04-19T10:53:16Z</time>
      </trkpt>
      <trkpt lat="44.61679" lon="6.5222">
        <ele>983</ele>
        <time>2019-04-19T10:54:16Z</time>
      </trkpt>
      <trkpt lat="44.61688" lon="6.52203">
        <ele>984</ele>
        <time>2019-04-19T10:55:16Z</time>
      </trkpt>
      <trkpt lat="44.61694" lon="6.52178">
        <ele>983</ele>
        <time>2019-04-19T10:56:16Z</time>
      </trkpt>
      <trkpt lat="44.61692" lon="6.52155">
        <ele>981</ele>
        <time>2019-04-19T10:57:16Z</time>
      </trkpt>
      <trkpt lat="44.61686" lon="6.52137">
        <ele>980</ele>
        <time>2019-04-19T10:58:16Z</time>
      </trkpt>
      <trkpt lat="44.61674" lon="6.52116">
        <ele>978</ele>
        <time>2019-04-19T10:59:16Z</time>
      </trkpt>
      <trkpt lat="44.61653" lon="6.52096">
        <ele>981</ele>
        <time>2019-04-19T11:00:16Z</time>
      </trkpt>
      <trkpt lat="44.61642" lon="6.5209">
        <ele>984</ele>
        <time>2019-04-19T11:01:16Z</time>
      </trkpt>
      <trkpt lat="44.61628" lon="6.52091">
        <ele>988</ele>
        <time>2019-04-19T11:02:16Z</time>
      </trkpt>
      <trkpt lat="44.61608" lon="6.52101">
        <ele>990</ele>
        <time>2019-04-19T11:03:16Z</time>
      </trkpt>
      <trkpt lat="44.6153" lon="6.52154">
        <ele>987</ele>
        <time>2019-04-19T11:04:16Z</time>
      </trkpt>
      <trkpt lat="44.61517" lon="6.52173">
        <ele>986</ele>
        <time>2019-04-19T11:05:16Z</time>
      </trkpt>
      <trkpt lat="44.61503" lon="6.52206">
        <ele>985</ele>
        <time>2019-04-19T11:06:16Z</time>
      </trkpt>
      <trkpt lat="44.61497" lon="6.52211">
        <ele>985</ele>
        <time>2019-04-19T11:07:16Z</time>
      </trkpt>
      <trkpt lat="44.6149" lon="6.52211">
        <ele>986</ele>
        <time>2019-04-19T11:08:16Z</time>
      </trkpt>
      <trkpt lat="44.61453" lon="6.52199">
        <ele>988</ele>
        <time>2019-04-19T11:09:16Z</time>
      </trkpt>
      <trkpt lat="44.61413" lon="6.52162">
        <ele>990</ele>
        <time>2019-04-19T11:10:16Z</time>
      </trkpt>
      <trkpt lat="44.61396" lon="6.52103">
        <ele>990</ele>
        <time>2019-04-19T11:11:16Z</time>
      </trkpt>
      <trkpt lat="44.61383" lon="6.52079">
        <ele>991</ele>
        <time>2019-04-19T11:12:16Z</time>
      </trkpt>
      <trkpt lat="44.61272" lon="6.51974">
        <ele>992</ele>
        <time>2019-04-19T11:13:16Z</time>
      </trkpt>
      <trkpt lat="44.61256" lon="6.51969">
        <ele>992</ele>
        <time>2019-04-19T11:14:16Z</time>
      </trkpt>
      <trkpt lat="44.61205" lon="6.51976">
        <ele>991</ele>
        <time>2019-04-19T11:15:16Z</time>
      </trkpt>
      <trkpt lat="44.61188" lon="6.51975">
        <ele>992</ele>
        <time>2019-04-19T11:16:16Z</time>
      </trkpt>
      <trkpt lat="44.61138" lon="6.51952">
        <ele>994</ele>
        <time>2019-04-19T11:17:16Z</time>
      </trkpt>
      <trkpt lat="44.61116" lon="6.5195">
        <ele>994</ele>
        <time>2019-04-19T11:18:16Z</time>
      </trkpt>
      <trkpt lat="44.6105" lon="6.51967">
        <ele>991</ele>
        <time>2019-04-19T11:19:16Z</time>
      </trkpt>
      <trkpt lat="44.61023" lon="6.51971">
        <ele>990</ele>
        <time>2019-04-19T11:20:16Z</time>
      </trkpt>
      <trkpt lat="44.60831" lon="6.51975">
        <ele>990</ele>
        <time>2019-04-19T11:21:16Z</time>
      </trkpt>
      <trkpt lat="44.60756" lon="6.51971">
        <ele>991</ele>
        <time>2019-04-19T11:22:16Z</time>
      </trkpt>
      <trkpt lat="44.60662" lon="6.51982">
        <ele>987</ele>
        <time>2019-04-19T11:23:16Z</time>
      </trkpt>
      <trkpt lat="44.60605" lon="6.51981">
        <ele>986</ele>
        <time>2019-04-19T11:24:16Z</time>
      </trkpt>
      <trkpt lat="44.60534" lon="6.51971">
        <ele>986</ele>
        <time>2019-04-19T11:25:16Z</time>
      </trkpt>
      <trkpt lat="44.60416" lon="6.51973">
        <ele>984</ele>
        <time>2019-04-19T11:26:16Z</time>
      </trkpt>
      <trkpt lat="44.60362" lon="6.51964">
        <ele>983</ele>
        <time>2019-04-19T11:27:16Z</time>
      </trkpt>
      <trkpt lat="44.60221" lon="6.51929">
        <ele>984</ele>
        <time>2019-04-19T11:28:16Z</time>
      </trkpt>
      <trkpt lat="44.60115" lon="6.5191">
        <ele>985</ele>
        <time>2019-04-19T11:29:16Z</time>
      </trkpt>
      <trkpt lat="44.60078" lon="6.51896">
        <ele>987</ele>
        <time>2019-04-19T11:30:16Z</time>
      </trkpt>
      <trkpt lat="44.59885" lon="6.51774">
        <ele>976</ele>
        <time>2019-04-19T11:31:16Z</time>
      </trkpt>
      <trkpt lat="44.59861" lon="6.51764">
        <ele>974</ele>
        <time>2019-04-19T11:32:16Z</time>
      </trkpt>
      <trkpt lat="44.59844" lon="6.51767">
        <ele>972</ele>
        <time>2019-04-19T11:33:16Z</time>
      </trkpt>
      <trkpt lat="44.59829" lon="6.51779">
        <ele>970</ele>
        <time>2019-04-19T11:34:16Z</time>
      </trkpt>
      <trkpt lat="44.59795" lon="6.5182">
        <ele>965</ele>
        <time>2019-04-19T11:35:16Z</time>
      </trkpt>
      <trkpt lat="44.59781" lon="6.51829">
        <ele>964</ele>
        <time>2019-04-19T11:36:16Z</time>
      </trkpt>
      <trkpt lat="44.59763" lon="6.5183">
        <ele>963</ele>
        <time>2019-04-19T11:37:16Z</time>
      </trkpt>
      <trkpt lat="44.59747" lon="6.51819">
        <ele>962</ele>
        <time>2019-04-19T11:38:16Z</time>
      </trkpt>
      <trkpt lat="44.59734" lon="6.51795">
        <ele>962</ele>
        <time>2019-04-19T11:39:16Z</time>
      </trkpt>
      <trkpt lat="44.59733" lon="6.5176">
        <ele>963</ele>
        <time>2019-04-19T11:40:16Z</time>
      </trkpt>
      <trkpt lat="44.59744" lon="6.51667">
        <ele>962</ele>
        <time>2019-04-19T11:41:16Z</time>
      </trkpt>
      <trkpt lat="44.59744" lon="6.51637">
        <ele>962</ele>
        <time>2019-04-19T11:42:16Z</time>
      </trkpt>
      <trkpt lat="44.59741" lon="6.51615">
        <ele>962</ele>
        <time>2019-04-19T11:43:16Z</time>
      </trkpt>
      <trkpt lat="44.59735" lon="6.51597">
        <ele>962</ele>
        <time>2019-04-19T11:44:16Z</time>
      </trkpt>
      <trkpt lat="44.59723" lon="6.51582">
        <ele>961</ele>
        <time>2019-04-19T11:45:16Z</time>
      </trkpt>
      <trkpt lat="44.5971" lon="6.51573">
        <ele>961</ele>
        <time>2019-04-19T11:46:16Z</time>
      </trkpt>
      <trkpt lat="44.59507" lon="6.51512">
        <ele>948</ele>
        <time>2019-04-19T11:47:16Z</time>
      </trkpt>
      <trkpt lat="44.59485" lon="6.515">
        <ele>947</ele>
        <time>2019-04-19T11:48:16Z</time>
      </trkpt>
      <trkpt lat="44.59461" lon="6.51484">
        <ele>946</ele>
        <time>2019-04-19T11:49:16Z</time>
      </trkpt>
      <trkpt lat="44.59396" lon="6.51418">
        <ele>943</ele>
        <time>2019-04-19T11:50:16Z</time>
      </trkpt>
      <trkpt lat="44.59264" lon="6.51272">
        <ele>938</ele>
        <time>2019-04-19T11:51:16Z</time>
      </trkpt>
      <trkpt lat="44.59247" lon="6.51247">
        <ele>939</ele>
        <time>2019-04-19T11:52:16Z</time>
      </trkpt>
      <trkpt lat="44.59236" lon="6.51221">
        <ele>938</ele>
        <time>2019-04-19T11:53:16Z</time>
      </trkpt>
      <trkpt lat="44.59219" lon="6.51172">
        <ele>938</ele>
        <time>2019-04-19T11:54:16Z</time>
      </trkpt>
      <trkpt lat="44.59203" lon="6.51149">
        <ele>937</ele>
        <time>2019-04-19T11:55:16Z</time>
      </trkpt>
      <trkpt lat="44.59177" lon="6.5113">
        <ele>936</ele>
        <time>2019-04-19T11:56:16Z</time>
      </trkpt>
      <trkpt lat="44.59158" lon="6.51125">
        <ele>935</ele>
        <time>2019-04-19T11:57:16Z</time>
      </trkpt>
      <trkpt lat="44.59132" lon="6.5113">
        <ele>934</ele>
        <time>2019-04-19T11:58:16Z</time>
      </trkpt>
      <trkpt lat="44.59108" lon="6.51145">
        <ele>932</ele>
        <time>2019-04-19T11:59:16Z</time>
      </trkpt>
      <trkpt lat="44.59092" lon="6.51168">
        <ele>928</ele>
        <time>2019-04-19T12:00:16Z</time>
      </trkpt>
      <trkpt lat="44.59082" lon="6.51196">
        <ele>926</ele>
        <time>2019-04-19T12:01:16Z</time>
      </trkpt>
      <trkpt lat="44.59057" lon="6.51288">
        <ele>921</ele>
        <time>2019-04-19T12:02:16Z</time>
      </trkpt>
      <trkpt lat="44.59044" lon="6.51316">
        <ele>920</ele>
        <time>2019-04-19T12:03:16Z</time>
      </trkpt>
      <trkpt lat="44.5903" lon="6.51335">
        <ele>919</ele>
        <time>2019-04-19T12:04:16Z</time>
      </trkpt>
      <trkpt lat="44.59014" lon="6.5135">
        <ele>917</ele>
        <time>2019-04-19T12:05:16Z</time>
      </trkpt>
      <trkpt lat="44.58989" lon="6.51362">
        <ele>915</ele>
        <time>2019-04-19T12:06:16Z</time>
      </trkpt>
      <trkpt lat="44.58954" lon="6.51364">
        <ele>914</ele>
        <time>2019-04-19T12:07:16Z</time>
      </trkpt>
      <trkpt lat="44.58834" lon="6.51345">
        <ele>910</ele>
        <time>2019-04-19T12:08:16Z</time>
      </trkpt>
      <trkpt lat="44.58799" lon="6.51335">
        <ele>909</ele>
        <time>2019-04-19T12:09:16Z</time>
      </trkpt>
      <trkpt lat="44.58754" lon="6.51312">
        <ele>907</ele>
        <time>2019-04-19T12:10:16Z</time>
      </trkpt>
      <trkpt lat="44.58706" lon="6.51279">
        <ele>904</ele>
        <time>2019-04-19T12:11:16Z</time>
      </trkpt>
      <trkpt lat="44.58691" lon="6.51266">
        <ele>904</ele>
        <time>2019-04-19T12:12:16Z</time>
      </trkpt>
      <trkpt lat="44.58683" lon="6.51261">
        <ele>903</ele>
        <time>2019-04-19T12:13:16Z</time>
      </trkpt>
      <trkpt lat="44.58676" lon="6.51263">
        <ele>902</ele>
        <time>2019-04-19T12:14:16Z</time>
      </trkpt>
      <trkpt lat="44.58671" lon="6.51254">
        <ele>902</ele>
        <time>2019-04-19T12:15:16Z</time>
      </trkpt>
      <trkpt lat="44.58663" lon="6.51247">
        <ele>902</ele>
        <time>2019-04-19T12:16:16Z</time>
      </trkpt>
      <trkpt lat="44.58652" lon="6.51244">
        <ele>902</ele>
        <time>2019-04-19T12:17:16Z</time>
      </trkpt>
      <trkpt lat="44.58641" lon="6.51246">
        <ele>902</ele>
        <time>2019-04-19T12:18:16Z</time>
      </trkpt>
      <trkpt lat="44.58606" lon="6.51242">
        <ele>902</ele>
        <time>2019-04-19T12:19:16Z</time>
      </trkpt>
      <trkpt lat="44.58463" lon="6.51245">
        <ele>898</ele>
        <time>2019-04-19T12:20:16Z</time>
      </trkpt>
      <trkpt lat="44.58137" lon="6.5116">
        <ele>892</ele>
        <time>2019-04-19T12:21:16Z</time>
      </trkpt>
      <trkpt lat="44.58055" lon="6.51107">
        <ele>892</ele>
        <time>2019-04-19T12:22:16Z</time>
      </trkpt>
      <trkpt lat="44.57991" lon="6.51088">
        <ele>889</ele>
        <time>2019-04-19T12:23:16Z</time>
      </trkpt>
      <trkpt lat="44.5789" lon="6.51066">
        <ele>889</ele>
        <time>2019-04-19T12:24:16Z</time>
      </trkpt>
      <trkpt lat="44.5781" lon="6.51072">
        <ele>888</ele>
        <time>2019-04-19T12:25:16Z</time>
      </trkpt>
      <trkpt lat="44.57418" lon="6.50973">
        <ele>882</ele>
        <time>2019-04-19T12:26:16Z</time>
      </trkpt>
      <trkpt lat="44.57388" lon="6.50959">
        <ele>880</ele>
        <time>2019-04-19T12:27:16Z</time>
      </trkpt>
      <trkpt lat="44.57135" lon="6.50771">
        <ele>878</ele>
        <time>2019-04-19T12:28:16Z</time>
      </trkpt>
      <trkpt lat="44.57121" lon="6.5076">
        <ele>878</ele>
        <time>2019-04-19T12:29:16Z</time>
      </trkpt>
      <trkpt lat="44.57113" lon="6.50748">
        <ele>879</ele>
        <time>2019-04-19T12:30:16Z</time>
      </trkpt>
      <trkpt lat="44.57001" lon="6.50581">
        <ele>870</ele>
        <time>2019-04-19T12:31:16Z</time>
      </trkpt>
      <trkpt lat="44.5699" lon="6.5056">
        <ele>868</ele>
        <time>2019-04-19T12:32:16Z</time>
      </trkpt>
      <trkpt lat="44.56987" lon="6.50541">
        <ele>867</ele>
        <time>2019-04-19T12:33:16Z</time>
      </trkpt>
      <trkpt lat="44.56997" lon="6.50439">
        <ele>866</ele>
        <time>2019-04-19T12:34:16Z</time>
      </trkpt>
      <trkpt lat="44.56998" lon="6.50396">
        <ele>865</ele>
        <time>2019-04-19T12:35:16Z</time>
      </trkpt>
      <trkpt lat="44.56984" lon="6.50284">
        <ele>863</ele>
        <time>2019-04-19T12:36:16Z</time>
      </trkpt>
      <trkpt lat="44.56985" lon="6.50222">
        <ele>865</ele>
        <time>2019-04-19T12:37:16Z</time>
      </trkpt>
      <trkpt lat="44.5698" lon="6.50202">
        <ele>865</ele>
        <time>2019-04-19T12:38:16Z</time>
      </trkpt>
      <trkpt lat="44.56971" lon="6.50187">
        <ele>865</ele>
        <time>2019-04-19T12:39:16Z</time>
      </trkpt>
      <trkpt lat="44.56687" lon="6.49846">
        <ele>871</ele>
        <time>2019-04-19T12:40:16Z</time>
      </trkpt>
      <trkpt lat="44.56628" lon="6.49778">
        <ele>872</ele>
        <time>2019-04-19T12:41:16Z</time>
      </trkpt>
      <trkpt lat="44.56622" lon="6.49763">
        <ele>872</ele>
        <time>2019-04-19T12:42:16Z</time>
      </trkpt>
      <trkpt lat="44.56612" lon="6.4976">
        <ele>872</ele>
        <time>2019-04-19T12:43:16Z</time>
      </trkpt>
      <trkpt lat="44.56604" lon="6.49756">
        <ele>871</ele>
        <time>2019-04-19T12:44:16Z</time>
      </trkpt>
      <trkpt lat="44.5656" lon="6.49713">
        <ele>871</ele>
        <time>2019-04-19T12:45:16Z</time>
      </trkpt>
      <trkpt lat="44.56556" lon="6.49707">
        <ele>871</ele>
        <time>2019-04-19T12:46:16Z</time>
      </trkpt>
      <trkpt lat="44.56553" lon="6.49695">
        <ele>872</ele>
        <time>2019-04-19T12:47:16Z</time>
      </trkpt>
      <trkpt lat="44.56545" lon="6.49591">
        <ele>873</ele>
        <time>2019-04-19T12:48:16Z</time>
      </trkpt>
      <trkpt lat="44.56538" lon="6.49551">
        <ele>872</ele>
        <time>2019-04-19T12:49:16Z</time>
      </trkpt>
      <trkpt lat="44.56526" lon="6.49521">
        <ele>871</ele>
        <time>2019-04-19T12:50:16Z</time>
      </trkpt>
      <trkpt lat="44.56415" lon="6.49323">
        <ele>861</ele>
        <time>2019-04-19T12:51:16Z</time>
      </trkpt>
      <trkpt lat="44.56391" lon="6.49284">
        <ele>860</ele>
        <time>2019-04-19T12:52:16Z</time>
      </trkpt>
      <trkpt lat="44.56385" lon="6.49275">
        <ele>859</ele>
        <time>2019-04-19T12:53:16Z</time>
      </trkpt>
      <trkpt lat="44.56366" lon="6.49255">
        <ele>857</ele>
        <time>2019-04-19T12:54:16Z</time>
      </trkpt>
      <trkpt lat="44.56339" lon="6.49241">
        <ele>855</ele>
        <time>2019-04-19T12:55:16Z</time>
      </trkpt>
      <trkpt lat="44.56322" lon="6.49226">
        <ele>854</ele>
        <time>2019-04-19T12:56:16Z</time>
      </trkpt>
      <trkpt lat="44.56294" lon="6.49188">
        <ele>853</ele>
        <time>2019-04-19T12:57:16Z</time>
      </trkpt>
      <trkpt lat="44.56024" lon="6.48771">
        <ele>845</ele>
        <time>2019-04-19T12:58:16Z</time>
      </trkpt>
      <trkpt lat="44.56005" lon="6.48733">
        <ele>843</ele>
        <time>2019-04-19T12:59:16Z</time>
      </trkpt>
      <trkpt lat="44.55989" lon="6.48691">
        <ele>842</ele>
        <time>2019-04-19T13:00:16Z</time>
      </trkpt>
      <trkpt lat="44.55964" lon="6.48603">
        <ele>840</ele>
        <time>2019-04-19T13:01:16Z</time>
      </trkpt>
      <trkpt lat="44.5594" lon="6.48529">
        <ele>837</ele>
        <time>2019-04-19T13:02:16Z</time>
      </trkpt>
      <trkpt lat="44.55923" lon="6.48487">
        <ele>836</ele>
        <time>2019-04-19T13:03:16Z</time>
      </trkpt>
      <trkpt lat="44.55898" lon="6.48455">
        <ele>836</ele>
        <time>2019-04-19T13:04:16Z</time>
      </trkpt>
      <trkpt lat="44.55877" lon="6.48441">
        <ele>834</ele>
        <time>2019-04-19T13:05:16Z</time>
      </trkpt>
      <trkpt lat="44.55838" lon="6.4843">
        <ele>829</ele>
        <time>2019-04-19T13:06:16Z</time>
      </trkpt>
      <trkpt lat="44.55808" lon="6.48419">
        <ele>825</ele>
        <time>2019-04-19T13:07:16Z</time>
      </trkpt>
      <trkpt lat="44.55766" lon="6.48387">
        <ele>821</ele>
        <time>2019-04-19T13:08:16Z</time>
      </trkpt>
      <trkpt lat="44.55738" lon="6.48356">
        <ele>821</ele>
        <time>2019-04-19T13:09:16Z</time>
      </trkpt>
      <trkpt lat="44.5573" lon="6.48344">
        <ele>822</ele>
        <time>2019-04-19T13:10:16Z</time>
      </trkpt>
      <trkpt lat="44.55697" lon="6.48319">
        <ele>820</ele>
        <time>2019-04-19T13:11:16Z</time>
      </trkpt>
      <trkpt lat="44.55671" lon="6.48308">
        <ele>817</ele>
        <time>2019-04-19T13:12:16Z</time>
      </trkpt>
      <trkpt lat="44.55655" lon="6.48306">
        <ele>816</ele>
        <time>2019-04-19T13:13:16Z</time>
      </trkpt>
      <trkpt lat="44.55615" lon="6.48311">
        <ele>814</ele>
        <time>2019-04-19T13:14:16Z</time>
      </trkpt>
      <trkpt lat="44.5561" lon="6.48305">
        <ele>814</ele>
        <time>2019-04-19T13:15:16Z</time>
      </trkpt>
      <trkpt lat="44.55607" lon="6.48304">
        <ele>814</ele>
        <time>2019-04-19T13:16:16Z</time>
      </trkpt>
      <trkpt lat="44.55597" lon="6.48291">
        <ele>815</ele>
        <time>2019-04-19T13:17:16Z</time>
      </trkpt>
      <trkpt lat="44.55574" lon="6.48265">
        <ele>816</ele>
        <time>2019-04-19T13:18:16Z</time>
      </trkpt>
      <trkpt lat="44.55563" lon="6.48241">
        <ele>818</ele>
        <time>2019-04-19T13:19:16Z</time>
      </trkpt>
      <trkpt lat="44.55545" lon="6.48158">
        <ele>825</ele>
        <time>2019-04-19T13:20:16Z</time>
      </trkpt>
      <trkpt lat="44.5552" lon="6.48114">
        <ele>825</ele>
        <time>2019-04-19T13:21:16Z</time>
      </trkpt>
      <trkpt lat="44.55435" lon="6.4801">
        <ele>813</ele>
        <time>2019-04-19T13:22:16Z</time>
      </trkpt>
      <trkpt lat="44.55418" lon="6.4803">
        <ele>811</ele>
        <time>2019-04-19T13:23:16Z</time>
      </trkpt>
      <trkpt lat="44.55406" lon="6.48034">
        <ele>810</ele>
        <time>2019-04-19T13:24:16Z</time>
      </trkpt>
      <trkpt lat="44.55306" lon="6.4799">
        <ele>800</ele>
        <time>2019-04-19T13:25:16Z</time>
      </trkpt>
      <trkpt lat="44.55313" lon="6.48097">
        <ele>801</ele>
        <time>2019-04-19T13:26:16Z</time>
      </trkpt>
      <trkpt lat="44.55288" lon="6.481">
        <ele>798</ele>
        <time>2019-04-19T13:27:16Z</time>
      </trkpt>
    </trkseg>
  </trk>
  <trk>
    <name><![CDATA[J13]]></name>
    <trkseg>
      <trkpt lat="44.55131" lon="6.48212">
        <ele>786</ele>
        <time>2019-04-18T09:45:45Z</time>
      </trkpt>
      <trkpt lat="44.55157" lon="6.48335">
        <ele>790</ele>
        <time>2019-04-18T09:46:45Z</time>
      </trkpt>
      <trkpt lat="44.55243" lon="6.48319">
        <ele>795</ele>
        <time>2019-04-18T09:47:45Z</time>
      </trkpt>
      <trkpt lat="44.55275" lon="6.48309">
        <ele>797</ele>
        <time>2019-04-18T09:48:45Z</time>
      </trkpt>
      <trkpt lat="44.55381" lon="6.4826">
        <ele>807</ele>
        <time>2019-04-18T09:49:45Z</time>
      </trkpt>
      <trkpt lat="44.55414" lon="6.48243">
        <ele>811</ele>
        <time>2019-04-18T09:50:45Z</time>
      </trkpt>
      <trkpt lat="44.55431" lon="6.48229">
        <ele>813</ele>
        <time>2019-04-18T09:51:45Z</time>
      </trkpt>
      <trkpt lat="44.5545" lon="6.48206">
        <ele>815</ele>
        <time>2019-04-18T09:52:45Z</time>
      </trkpt>
      <trkpt lat="44.55506" lon="6.48128">
        <ele>824</ele>
        <time>2019-04-18T09:53:45Z</time>
      </trkpt>
      <trkpt lat="44.55537" lon="6.48099">
        <ele>827</ele>
        <time>2019-04-18T09:54:45Z</time>
      </trkpt>
      <trkpt lat="44.55628" lon="6.48059">
        <ele>833</ele>
        <time>2019-04-18T09:55:45Z</time>
      </trkpt>
      <trkpt lat="44.5567" lon="6.48037">
        <ele>835</ele>
        <time>2019-04-18T09:56:45Z</time>
      </trkpt>
      <trkpt lat="44.55678" lon="6.48035">
        <ele>836</ele>
        <time>2019-04-18T09:57:45Z</time>
      </trkpt>
      <trkpt lat="44.55686" lon="6.4804">
        <ele>837</ele>
        <time>2019-04-18T09:58:45Z</time>
      </trkpt>
      <trkpt lat="44.55774" lon="6.48213">
        <ele>842</ele>
        <time>2019-04-18T09:59:45Z</time>
      </trkpt>
      <trkpt lat="44.55778" lon="6.48216">
        <ele>842</ele>
        <time>2019-04-18T10:00:45Z</time>
      </trkpt>
      <trkpt lat="44.55783" lon="6.48216">
        <ele>843</ele>
        <time>2019-04-18T10:01:45Z</time>
      </trkpt>
      <trkpt lat="44.55803" lon="6.48191">
        <ele>846</ele>
        <time>2019-04-18T10:02:45Z</time>
      </trkpt>
      <trkpt lat="44.55815" lon="6.48199">
        <ele>847</ele>
        <time>2019-04-18T10:03:45Z</time>
      </trkpt>
      <trkpt lat="44.55871" lon="6.48268">
        <ele>848</ele>
        <time>2019-04-18T10:04:45Z</time>
      </trkpt>
      <trkpt lat="44.55902" lon="6.483">
        <ele>849</ele>
        <time>2019-04-18T10:05:45Z</time>
      </trkpt>
      <trkpt lat="44.55924" lon="6.48315">
        <ele>851</ele>
        <time>2019-04-18T10:06:45Z</time>
      </trkpt>
      <trkpt lat="44.55937" lon="6.48294">
        <ele>855</ele>
        <time>2019-04-18T10:07:45Z</time>
      </trkpt>
      <trkpt lat="44.55948" lon="6.48269">
        <ele>858</ele>
        <time>2019-04-18T10:08:45Z</time>
      </trkpt>
      <trkpt lat="44.55955" lon="6.4814">
        <ele>867</ele>
        <time>2019-04-18T10:09:45Z</time>
      </trkpt>
      <trkpt lat="44.55961" lon="6.48114">
        <ele>868</ele>
        <time>2019-04-18T10:10:45Z</time>
      </trkpt>
      <trkpt lat="44.56006" lon="6.48016">
        <ele>874</ele>
        <time>2019-04-18T10:11:45Z</time>
      </trkpt>
      <trkpt lat="44.56013" lon="6.48009">
        <ele>875</ele>
        <time>2019-04-18T10:12:45Z</time>
      </trkpt>
      <trkpt lat="44.56045" lon="6.47992">
        <ele>880</ele>
        <time>2019-04-18T10:13:45Z</time>
      </trkpt>
      <trkpt lat="44.56053" lon="6.47979">
        <ele>881</ele>
        <time>2019-04-18T10:14:45Z</time>
      </trkpt>
      <trkpt lat="44.56057" lon="6.47964">
        <ele>882</ele>
        <time>2019-04-18T10:15:45Z</time>
      </trkpt>
      <trkpt lat="44.56057" lon="6.47947">
        <ele>883</ele>
        <time>2019-04-18T10:16:45Z</time>
      </trkpt>
      <trkpt lat="44.56053" lon="6.47934">
        <ele>883</ele>
        <time>2019-04-18T10:17:45Z</time>
      </trkpt>
      <trkpt lat="44.56046" lon="6.47923">
        <ele>883</ele>
        <time>2019-04-18T10:18:45Z</time>
      </trkpt>
      <trkpt lat="44.56037" lon="6.47914">
        <ele>883</ele>
        <time>2019-04-18T10:19:45Z</time>
      </trkpt>
      <trkpt lat="44.55995" lon="6.47899">
        <ele>883</ele>
        <time>2019-04-18T10:20:45Z</time>
      </trkpt>
      <trkpt lat="44.55964" lon="6.47893">
        <ele>881</ele>
        <time>2019-04-18T10:21:45Z</time>
      </trkpt>
      <trkpt lat="44.55903" lon="6.47892">
        <ele>874</ele>
        <time>2019-04-18T10:22:45Z</time>
      </trkpt>
      <trkpt lat="44.55894" lon="6.47887">
        <ele>874</ele>
        <time>2019-04-18T10:23:45Z</time>
      </trkpt>
      <trkpt lat="44.55887" lon="6.47872">
        <ele>877</ele>
        <time>2019-04-18T10:24:45Z</time>
      </trkpt>
      <trkpt lat="44.5588" lon="6.47847">
        <ele>881</ele>
        <time>2019-04-18T10:25:45Z</time>
      </trkpt>
      <trkpt lat="44.55876" lon="6.47824">
        <ele>885</ele>
        <time>2019-04-18T10:26:45Z</time>
      </trkpt>
      <trkpt lat="44.55881" lon="6.47775">
        <ele>893</ele>
        <time>2019-04-18T10:27:45Z</time>
      </trkpt>
      <trkpt lat="44.55877" lon="6.47763">
        <ele>895</ele>
        <time>2019-04-18T10:28:45Z</time>
      </trkpt>
      <trkpt lat="44.55868" lon="6.47755">
        <ele>895</ele>
        <time>2019-04-18T10:29:45Z</time>
      </trkpt>
      <trkpt lat="44.55858" lon="6.47754">
        <ele>895</ele>
        <time>2019-04-18T10:30:45Z</time>
      </trkpt>
      <trkpt lat="44.55842" lon="6.47758">
        <ele>893</ele>
        <time>2019-04-18T10:31:45Z</time>
      </trkpt>
      <trkpt lat="44.55833" lon="6.47756">
        <ele>893</ele>
        <time>2019-04-18T10:32:45Z</time>
      </trkpt>
      <trkpt lat="44.55786" lon="6.47724">
        <ele>891</ele>
        <time>2019-04-18T10:33:45Z</time>
      </trkpt>
      <trkpt lat="44.55779" lon="6.47715">
        <ele>892</ele>
        <time>2019-04-18T10:34:45Z</time>
      </trkpt>
      <trkpt lat="44.55772" lon="6.47699">
        <ele>893</ele>
        <time>2019-04-18T10:35:45Z</time>
      </trkpt>
      <trkpt lat="44.5575" lon="6.4761">
        <ele>903</ele>
        <time>2019-04-18T10:36:45Z</time>
      </trkpt>
      <trkpt lat="44.55731" lon="6.47585">
        <ele>903</ele>
        <time>2019-04-18T10:37:45Z</time>
      </trkpt>
      <trkpt lat="44.55719" lon="6.47565">
        <ele>904</ele>
        <time>2019-04-18T10:38:45Z</time>
      </trkpt>
      <trkpt lat="44.55714" lon="6.47551">
        <ele>905</ele>
        <time>2019-04-18T10:39:45Z</time>
      </trkpt>
      <trkpt lat="44.55713" lon="6.4754">
        <ele>907</ele>
        <time>2019-04-18T10:40:45Z</time>
      </trkpt>
      <trkpt lat="44.55717" lon="6.47513">
        <ele>912</ele>
        <time>2019-04-18T10:41:45Z</time>
      </trkpt>
      <trkpt lat="44.55718" lon="6.47499">
        <ele>915</ele>
        <time>2019-04-18T10:42:45Z</time>
      </trkpt>
      <trkpt lat="44.55717" lon="6.47486">
        <ele>916</ele>
        <time>2019-04-18T10:43:45Z</time>
      </trkpt>
      <trkpt lat="44.55694" lon="6.47433">
        <ele>918</ele>
        <time>2019-04-18T10:44:45Z</time>
      </trkpt>
      <trkpt lat="44.55689" lon="6.47416">
        <ele>919</ele>
        <time>2019-04-18T10:45:45Z</time>
      </trkpt>
      <trkpt lat="44.5569" lon="6.47405">
        <ele>920</ele>
        <time>2019-04-18T10:46:45Z</time>
      </trkpt>
      <trkpt lat="44.55694" lon="6.47387">
        <ele>922</ele>
        <time>2019-04-18T10:47:45Z</time>
      </trkpt>
      <trkpt lat="44.55696" lon="6.47373">
        <ele>923</ele>
        <time>2019-04-18T10:48:45Z</time>
      </trkpt>
      <trkpt lat="44.55696" lon="6.47355">
        <ele>924</ele>
        <time>2019-04-18T10:49:45Z</time>
      </trkpt>
      <trkpt lat="44.55692" lon="6.47339">
        <ele>924</ele>
        <time>2019-04-18T10:50:45Z</time>
      </trkpt>
      <trkpt lat="44.55671" lon="6.47287">
        <ele>925</ele>
        <time>2019-04-18T10:51:45Z</time>
      </trkpt>
      <trkpt lat="44.55655" lon="6.47232">
        <ele>925</ele>
        <time>2019-04-18T10:52:45Z</time>
      </trkpt>
      <trkpt lat="44.55647" lon="6.47194">
        <ele>925</ele>
        <time>2019-04-18T10:53:45Z</time>
      </trkpt>
      <trkpt lat="44.55645" lon="6.47177">
        <ele>925</ele>
        <time>2019-04-18T10:54:45Z</time>
      </trkpt>
      <trkpt lat="44.55647" lon="6.47158">
        <ele>926</ele>
        <time>2019-04-18T10:55:45Z</time>
      </trkpt>
      <trkpt lat="44.55655" lon="6.47138">
        <ele>929</ele>
        <time>2019-04-18T10:56:45Z</time>
      </trkpt>
      <trkpt lat="44.55671" lon="6.47107">
        <ele>933</ele>
        <time>2019-04-18T10:57:45Z</time>
      </trkpt>
      <trkpt lat="44.55691" lon="6.47057">
        <ele>937</ele>
        <time>2019-04-18T10:58:45Z</time>
      </trkpt>
      <trkpt lat="44.55727" lon="6.46957">
        <ele>945</ele>
        <time>2019-04-18T10:59:45Z</time>
      </trkpt>
      <trkpt lat="44.55739" lon="6.46881">
        <ele>948</ele>
        <time>2019-04-18T11:00:45Z</time>
      </trkpt>
      <trkpt lat="44.55745" lon="6.46858">
        <ele>950</ele>
        <time>2019-04-18T11:01:45Z</time>
      </trkpt>
      <trkpt lat="44.55753" lon="6.46843">
        <ele>951</ele>
        <time>2019-04-18T11:02:45Z</time>
      </trkpt>
      <trkpt lat="44.55812" lon="6.46776">
        <ele>965</ele>
        <time>2019-04-18T11:03:45Z</time>
      </trkpt>
      <trkpt lat="44.55815" lon="6.46764">
        <ele>965</ele>
        <time>2019-04-18T11:04:45Z</time>
      </trkpt>
      <trkpt lat="44.55815" lon="6.4675">
        <ele>965</ele>
        <time>2019-04-18T11:05:45Z</time>
      </trkpt>
      <trkpt lat="44.55807" lon="6.46717">
        <ele>967</ele>
        <time>2019-04-18T11:06:45Z</time>
      </trkpt>
      <trkpt lat="44.55803" lon="6.46666">
        <ele>972</ele>
        <time>2019-04-18T11:07:45Z</time>
      </trkpt>
      <trkpt lat="44.55799" lon="6.46652">
        <ele>973</ele>
        <time>2019-04-18T11:08:45Z</time>
      </trkpt>
      <trkpt lat="44.55795" lon="6.46645">
        <ele>974</ele>
        <time>2019-04-18T11:09:45Z</time>
      </trkpt>
      <trkpt lat="44.55762" lon="6.46617">
        <ele>973</ele>
        <time>2019-04-18T11:10:45Z</time>
      </trkpt>
      <trkpt lat="44.55754" lon="6.46606">
        <ele>973</ele>
        <time>2019-04-18T11:11:45Z</time>
      </trkpt>
      <trkpt lat="44.5574" lon="6.46579">
        <ele>973</ele>
        <time>2019-04-18T11:12:45Z</time>
      </trkpt>
      <trkpt lat="44.55731" lon="6.46549">
        <ele>974</ele>
        <time>2019-04-18T11:13:45Z</time>
      </trkpt>
      <trkpt lat="44.55729" lon="6.46534">
        <ele>974</ele>
        <time>2019-04-18T11:14:45Z</time>
      </trkpt>
      <trkpt lat="44.5573" lon="6.46515">
        <ele>976</ele>
        <time>2019-04-18T11:15:45Z</time>
      </trkpt>
      <trkpt lat="44.55735" lon="6.46491">
        <ele>979</ele>
        <time>2019-04-18T11:16:45Z</time>
      </trkpt>
      <trkpt lat="44.55754" lon="6.46435">
        <ele>989</ele>
        <time>2019-04-18T11:17:45Z</time>
      </trkpt>
      <trkpt lat="44.5576" lon="6.46401">
        <ele>992</ele>
        <time>2019-04-18T11:18:45Z</time>
      </trkpt>
      <trkpt lat="44.55762" lon="6.46366">
        <ele>994</ele>
        <time>2019-04-18T11:19:45Z</time>
      </trkpt>
      <trkpt lat="44.5576" lon="6.46328">
        <ele>995</ele>
        <time>2019-04-18T11:20:45Z</time>
      </trkpt>
      <trkpt lat="44.55765" lon="6.46303">
        <ele>999</ele>
        <time>2019-04-18T11:21:45Z</time>
      </trkpt>
      <trkpt lat="44.55765" lon="6.46286">
        <ele>1001</ele>
        <time>2019-04-18T11:22:45Z</time>
      </trkpt>
      <trkpt lat="44.55744" lon="6.46195">
        <ele>1004</ele>
        <time>2019-04-18T11:23:45Z</time>
      </trkpt>
      <trkpt lat="44.55737" lon="6.46156">
        <ele>1005</ele>
        <time>2019-04-18T11:24:45Z</time>
      </trkpt>
      <trkpt lat="44.55736" lon="6.46136">
        <ele>1004</ele>
        <time>2019-04-18T11:25:45Z</time>
      </trkpt>
      <trkpt lat="44.55737" lon="6.46116">
        <ele>1004</ele>
        <time>2019-04-18T11:26:45Z</time>
      </trkpt>
      <trkpt lat="44.55742" lon="6.46097">
        <ele>1006</ele>
        <time>2019-04-18T11:27:45Z</time>
      </trkpt>
      <trkpt lat="44.55758" lon="6.4606">
        <ele>1013</ele>
        <time>2019-04-18T11:28:45Z</time>
      </trkpt>
      <trkpt lat="44.55777" lon="6.46039">
        <ele>1022</ele>
        <time>2019-04-18T11:29:45Z</time>
      </trkpt>
      <trkpt lat="44.5578" lon="6.4603">
        <ele>1024</ele>
        <time>2019-04-18T11:30:45Z</time>
      </trkpt>
      <trkpt lat="44.55781" lon="6.4602">
        <ele>1024</ele>
        <time>2019-04-18T11:31:45Z</time>
      </trkpt>
      <trkpt lat="44.55779" lon="6.46005">
        <ele>1024</ele>
        <time>2019-04-18T11:32:45Z</time>
      </trkpt>
      <trkpt lat="44.55782" lon="6.45987">
        <ele>1027</ele>
        <time>2019-04-18T11:33:45Z</time>
      </trkpt>
      <trkpt lat="44.55782" lon="6.45977">
        <ele>1028</ele>
        <time>2019-04-18T11:34:45Z</time>
      </trkpt>
      <trkpt lat="44.5578" lon="6.45969">
        <ele>1028</ele>
        <time>2019-04-18T11:35:45Z</time>
      </trkpt>
      <trkpt lat="44.55774" lon="6.45963">
        <ele>1026</ele>
        <time>2019-04-18T11:36:45Z</time>
      </trkpt>
      <trkpt lat="44.55765" lon="6.45959">
        <ele>1022</ele>
        <time>2019-04-18T11:37:45Z</time>
      </trkpt>
      <trkpt lat="44.55757" lon="6.45945">
        <ele>1021</ele>
        <time>2019-04-18T11:38:45Z</time>
      </trkpt>
      <trkpt lat="44.55755" lon="6.45935">
        <ele>1021</ele>
        <time>2019-04-18T11:39:45Z</time>
      </trkpt>
      <trkpt lat="44.55759" lon="6.45916">
        <ele>1025</ele>
        <time>2019-04-18T11:40:45Z</time>
      </trkpt>
      <trkpt lat="44.55766" lon="6.45907">
        <ele>1027</ele>
        <time>2019-04-18T11:41:45Z</time>
      </trkpt>
      <trkpt lat="44.55781" lon="6.45897">
        <ele>1032</ele>
        <time>2019-04-18T11:42:45Z</time>
      </trkpt>
      <trkpt lat="44.55786" lon="6.4589">
        <ele>1033</ele>
        <time>2019-04-18T11:43:45Z</time>
      </trkpt>
      <trkpt lat="44.55792" lon="6.45868">
        <ele>1032</ele>
        <time>2019-04-18T11:44:45Z</time>
      </trkpt>
      <trkpt lat="44.558" lon="6.45855">
        <ele>1033</ele>
        <time>2019-04-18T11:45:45Z</time>
      </trkpt>
      <trkpt lat="44.55821" lon="6.45835">
        <ele>1038</ele>
        <time>2019-04-18T11:46:45Z</time>
      </trkpt>
      <trkpt lat="44.55835" lon="6.45805">
        <ele>1038</ele>
        <time>2019-04-18T11:47:45Z</time>
      </trkpt>
      <trkpt lat="44.55854" lon="6.45788">
        <ele>1041</ele>
        <time>2019-04-18T11:48:45Z</time>
      </trkpt>
      <trkpt lat="44.55869" lon="6.45771">
        <ele>1043</ele>
        <time>2019-04-18T11:49:45Z</time>
      </trkpt>
      <trkpt lat="44.55884" lon="6.45744">
        <ele>1042</ele>
        <time>2019-04-18T11:50:45Z</time>
      </trkpt>
      <trkpt lat="44.55891" lon="6.45736">
        <ele>1043</ele>
        <time>2019-04-18T11:51:45Z</time>
      </trkpt>
      <trkpt lat="44.55898" lon="6.45731">
        <ele>1044</ele>
        <time>2019-04-18T11:52:45Z</time>
      </trkpt>
      <trkpt lat="44.55923" lon="6.45724">
        <ele>1051</ele>
        <time>2019-04-18T11:53:45Z</time>
      </trkpt>
      <trkpt lat="44.55931" lon="6.45719">
        <ele>1053</ele>
        <time>2019-04-18T11:54:45Z</time>
      </trkpt>
      <trkpt lat="44.5594" lon="6.45707">
        <ele>1055</ele>
        <time>2019-04-18T11:55:45Z</time>
      </trkpt>
      <trkpt lat="44.55951" lon="6.45696">
        <ele>1058</ele>
        <time>2019-04-18T11:56:45Z</time>
      </trkpt>
      <trkpt lat="44.55981" lon="6.45652">
        <ele>1063</ele>
        <time>2019-04-18T11:57:45Z</time>
      </trkpt>
      <trkpt lat="44.55987" lon="6.45639">
        <ele>1064</ele>
        <time>2019-04-18T11:58:45Z</time>
      </trkpt>
      <trkpt lat="44.55989" lon="6.45624">
        <ele>1063</ele>
        <time>2019-04-18T11:59:45Z</time>
      </trkpt>
      <trkpt lat="44.55988" lon="6.45612">
        <ele>1062</ele>
        <time>2019-04-18T12:00:45Z</time>
      </trkpt>
      <trkpt lat="44.55969" lon="6.45565">
        <ele>1055</ele>
        <time>2019-04-18T12:01:45Z</time>
      </trkpt>
      <trkpt lat="44.55957" lon="6.45522">
        <ele>1056</ele>
        <time>2019-04-18T12:02:45Z</time>
      </trkpt>
      <trkpt lat="44.55939" lon="6.45492">
        <ele>1056</ele>
        <time>2019-04-18T12:03:45Z</time>
      </trkpt>
      <trkpt lat="44.55917" lon="6.45442">
        <ele>1064</ele>
        <time>2019-04-18T12:04:45Z</time>
      </trkpt>
      <trkpt lat="44.55894" lon="6.45381">
        <ele>1075</ele>
        <time>2019-04-18T12:05:45Z</time>
      </trkpt>
      <trkpt lat="44.55835" lon="6.45271">
        <ele>1079</ele>
        <time>2019-04-18T12:06:45Z</time>
      </trkpt>
      <trkpt lat="44.55812" lon="6.45219">
        <ele>1088</ele>
        <time>2019-04-18T12:07:45Z</time>
      </trkpt>
      <trkpt lat="44.55807" lon="6.45213">
        <ele>1089</ele>
        <time>2019-04-18T12:08:45Z</time>
      </trkpt>
      <trkpt lat="44.55775" lon="6.45195">
        <ele>1088</ele>
        <time>2019-04-18T12:09:45Z</time>
      </trkpt>
      <trkpt lat="44.55722" lon="6.45156">
        <ele>1093</ele>
        <time>2019-04-18T12:10:45Z</time>
      </trkpt>
      <trkpt lat="44.55661" lon="6.45127">
        <ele>1095</ele>
        <time>2019-04-18T12:11:45Z</time>
      </trkpt>
      <trkpt lat="44.55641" lon="6.45121">
        <ele>1097</ele>
        <time>2019-04-18T12:12:45Z</time>
      </trkpt>
      <trkpt lat="44.55625" lon="6.45122">
        <ele>1096</ele>
        <time>2019-04-18T12:13:45Z</time>
      </trkpt>
      <trkpt lat="44.55613" lon="6.45126">
        <ele>1094</ele>
        <time>2019-04-18T12:14:45Z</time>
      </trkpt>
      <trkpt lat="44.55595" lon="6.45139">
        <ele>1089</ele>
        <time>2019-04-18T12:15:45Z</time>
      </trkpt>
      <trkpt lat="44.55576" lon="6.4514">
        <ele>1088</ele>
        <time>2019-04-18T12:16:45Z</time>
      </trkpt>
      <trkpt lat="44.55556" lon="6.45136">
        <ele>1087</ele>
        <time>2019-04-18T12:17:45Z</time>
      </trkpt>
      <trkpt lat="44.55542" lon="6.45129">
        <ele>1087</ele>
        <time>2019-04-18T12:18:45Z</time>
      </trkpt>
      <trkpt lat="44.55536" lon="6.45121">
        <ele>1089</ele>
        <time>2019-04-18T12:19:45Z</time>
      </trkpt>
      <trkpt lat="44.55533" lon="6.45109">
        <ele>1091</ele>
        <time>2019-04-18T12:20:45Z</time>
      </trkpt>
      <trkpt lat="44.55528" lon="6.44897">
        <ele>1112</ele>
        <time>2019-04-18T12:21:45Z</time>
      </trkpt>
      <trkpt lat="44.55529" lon="6.44876">
        <ele>1113</ele>
        <time>2019-04-18T12:22:45Z</time>
      </trkpt>
      <trkpt lat="44.55548" lon="6.44789">
        <ele>1123</ele>
        <time>2019-04-18T12:23:45Z</time>
      </trkpt>
      <trkpt lat="44.55548" lon="6.44771">
        <ele>1124</ele>
        <time>2019-04-18T12:24:45Z</time>
      </trkpt>
      <trkpt lat="44.55543" lon="6.44732">
        <ele>1125</ele>
        <time>2019-04-18T12:25:45Z</time>
      </trkpt>
      <trkpt lat="44.55542" lon="6.44701">
        <ele>1126</ele>
        <time>2019-04-18T12:26:45Z</time>
      </trkpt>
      <trkpt lat="44.55553" lon="6.44624">
        <ele>1134</ele>
        <time>2019-04-18T12:27:45Z</time>
      </trkpt>
      <trkpt lat="44.55551" lon="6.44587">
        <ele>1136</ele>
        <time>2019-04-18T12:28:45Z</time>
      </trkpt>
      <trkpt lat="44.55541" lon="6.44506">
        <ele>1139</ele>
        <time>2019-04-18T12:29:45Z</time>
      </trkpt>
      <trkpt lat="44.55538" lon="6.44462">
        <ele>1142</ele>
        <time>2019-04-18T12:30:45Z</time>
      </trkpt>
      <trkpt lat="44.55537" lon="6.44409">
        <ele>1145</ele>
        <time>2019-04-18T12:31:45Z</time>
      </trkpt>
      <trkpt lat="44.55544" lon="6.44362">
        <ele>1148</ele>
        <time>2019-04-18T12:32:45Z</time>
      </trkpt>
      <trkpt lat="44.55577" lon="6.44214">
        <ele>1159</ele>
        <time>2019-04-18T12:33:45Z</time>
      </trkpt>
      <trkpt lat="44.55582" lon="6.44162">
        <ele>1161</ele>
        <time>2019-04-18T12:34:45Z</time>
      </trkpt>
      <trkpt lat="44.55583" lon="6.44122">
        <ele>1160</ele>
        <time>2019-04-18T12:35:45Z</time>
      </trkpt>
      <trkpt lat="44.55579" lon="6.44066">
        <ele>1160</ele>
        <time>2019-04-18T12:36:45Z</time>
      </trkpt>
      <trkpt lat="44.5557" lon="6.44002">
        <ele>1160</ele>
        <time>2019-04-18T12:37:45Z</time>
      </trkpt>
      <trkpt lat="44.55562" lon="6.43912">
        <ele>1158</ele>
        <time>2019-04-18T12:38:45Z</time>
      </trkpt>
      <trkpt lat="44.55559" lon="6.43858">
        <ele>1158</ele>
        <time>2019-04-18T12:39:45Z</time>
      </trkpt>
      <trkpt lat="44.55562" lon="6.43836">
        <ele>1159</ele>
        <time>2019-04-18T12:40:45Z</time>
      </trkpt>
      <trkpt lat="44.55586" lon="6.4379">
        <ele>1162</ele>
        <time>2019-04-18T12:41:45Z</time>
      </trkpt>
      <trkpt lat="44.55629" lon="6.43728">
        <ele>1167</ele>
        <time>2019-04-18T12:42:45Z</time>
      </trkpt>
      <trkpt lat="44.55652" lon="6.43689">
        <ele>1169</ele>
        <time>2019-04-18T12:43:45Z</time>
      </trkpt>
      <trkpt lat="44.55668" lon="6.4365">
        <ele>1169</ele>
        <time>2019-04-18T12:44:45Z</time>
      </trkpt>
      <trkpt lat="44.55684" lon="6.43602">
        <ele>1169</ele>
        <time>2019-04-18T12:45:45Z</time>
      </trkpt>
      <trkpt lat="44.55696" lon="6.43582">
        <ele>1169</ele>
        <time>2019-04-18T12:46:45Z</time>
      </trkpt>
      <trkpt lat="44.55758" lon="6.43488">
        <ele>1172</ele>
        <time>2019-04-18T12:47:45Z</time>
      </trkpt>
      <trkpt lat="44.55766" lon="6.4347">
        <ele>1174</ele>
        <time>2019-04-18T12:48:45Z</time>
      </trkpt>
      <trkpt lat="44.55779" lon="6.43409">
        <ele>1176</ele>
        <time>2019-04-18T12:49:45Z</time>
      </trkpt>
      <trkpt lat="44.55782" lon="6.434">
        <ele>1176</ele>
        <time>2019-04-18T12:50:45Z</time>
      </trkpt>
      <trkpt lat="44.55815" lon="6.43361">
        <ele>1180</ele>
        <time>2019-04-18T12:51:45Z</time>
      </trkpt>
      <trkpt lat="44.5582" lon="6.43351">
        <ele>1180</ele>
        <time>2019-04-18T12:52:45Z</time>
      </trkpt>
      <trkpt lat="44.55824" lon="6.43339">
        <ele>1180</ele>
        <time>2019-04-18T12:53:45Z</time>
      </trkpt>
      <trkpt lat="44.55833" lon="6.43285">
        <ele>1179</ele>
        <time>2019-04-18T12:54:45Z</time>
      </trkpt>
      <trkpt lat="44.55839" lon="6.43244">
        <ele>1179</ele>
        <time>2019-04-18T12:55:45Z</time>
      </trkpt>
      <trkpt lat="44.55839" lon="6.43219">
        <ele>1179</ele>
        <time>2019-04-18T12:56:45Z</time>
      </trkpt>
      <trkpt lat="44.55819" lon="6.43092">
        <ele>1179</ele>
        <time>2019-04-18T12:57:45Z</time>
      </trkpt>
      <trkpt lat="44.55821" lon="6.43022">
        <ele>1179</ele>
        <time>2019-04-18T12:58:45Z</time>
      </trkpt>
      <trkpt lat="44.55821" lon="6.42937">
        <ele>1180</ele>
        <time>2019-04-18T12:59:45Z</time>
      </trkpt>
      <trkpt lat="44.55839" lon="6.42863">
        <ele>1184</ele>
        <time>2019-04-18T13:00:45Z</time>
      </trkpt>
      <trkpt lat="44.55853" lon="6.42786">
        <ele>1190</ele>
        <time>2019-04-18T13:01:45Z</time>
      </trkpt>
      <trkpt lat="44.55855" lon="6.42769">
        <ele>1191</ele>
        <time>2019-04-18T13:02:45Z</time>
      </trkpt>
      <trkpt lat="44.55855" lon="6.42753">
        <ele>1192</ele>
        <time>2019-04-18T13:03:45Z</time>
      </trkpt>
      <trkpt lat="44.55848" lon="6.42707">
        <ele>1193</ele>
        <time>2019-04-18T13:04:45Z</time>
      </trkpt>
      <trkpt lat="44.55847" lon="6.42685">
        <ele>1194</ele>
        <time>2019-04-18T13:05:45Z</time>
      </trkpt>
      <trkpt lat="44.55847" lon="6.42653">
        <ele>1195</ele>
        <time>2019-04-18T13:06:45Z</time>
      </trkpt>
      <trkpt lat="44.5585" lon="6.42625">
        <ele>1197</ele>
        <time>2019-04-18T13:07:45Z</time>
      </trkpt>
      <trkpt lat="44.55867" lon="6.42576">
        <ele>1200</ele>
        <time>2019-04-18T13:08:45Z</time>
      </trkpt>
      <trkpt lat="44.55875" lon="6.4256">
        <ele>1201</ele>
        <time>2019-04-18T13:09:45Z</time>
      </trkpt>
      <trkpt lat="44.55888" lon="6.42543">
        <ele>1202</ele>
        <time>2019-04-18T13:10:45Z</time>
      </trkpt>
      <trkpt lat="44.55919" lon="6.42519">
        <ele>1206</ele>
        <time>2019-04-18T13:11:45Z</time>
      </trkpt>
      <trkpt lat="44.55955" lon="6.42512">
        <ele>1211</ele>
        <time>2019-04-18T13:12:45Z</time>
      </trkpt>
      <trkpt lat="44.55972" lon="6.42505">
        <ele>1214</ele>
        <time>2019-04-18T13:13:45Z</time>
      </trkpt>
      <trkpt lat="44.55999" lon="6.42487">
        <ele>1217</ele>
        <time>2019-04-18T13:14:45Z</time>
      </trkpt>
      <trkpt lat="44.56011" lon="6.42476">
        <ele>1220</ele>
        <time>2019-04-18T13:15:45Z</time>
      </trkpt>
      <trkpt lat="44.5602" lon="6.42459">
        <ele>1221</ele>
        <time>2019-04-18T13:16:45Z</time>
      </trkpt>
      <trkpt lat="44.56026" lon="6.42438">
        <ele>1221</ele>
        <time>2019-04-18T13:17:45Z</time>
      </trkpt>
      <trkpt lat="44.56031" lon="6.42416">
        <ele>1220</ele>
        <time>2019-04-18T13:18:45Z</time>
      </trkpt>
      <trkpt lat="44.56032" lon="6.42395">
        <ele>1221</ele>
        <time>2019-04-18T13:19:45Z</time>
      </trkpt>
      <trkpt lat="44.56031" lon="6.42369">
        <ele>1221</ele>
        <time>2019-04-18T13:20:45Z</time>
      </trkpt>
      <trkpt lat="44.56027" lon="6.42339">
        <ele>1220</ele>
        <time>2019-04-18T13:21:45Z</time>
      </trkpt>
      <trkpt lat="44.5602" lon="6.42304">
        <ele>1219</ele>
        <time>2019-04-18T13:22:45Z</time>
      </trkpt>
      <trkpt lat="44.56012" lon="6.4228">
        <ele>1218</ele>
        <time>2019-04-18T13:23:45Z</time>
      </trkpt>
      <trkpt lat="44.55997" lon="6.42244">
        <ele>1216</ele>
        <time>2019-04-18T13:24:45Z</time>
      </trkpt>
      <trkpt lat="44.55992" lon="6.42225">
        <ele>1215</ele>
        <time>2019-04-18T13:25:45Z</time>
      </trkpt>
      <trkpt lat="44.55992" lon="6.42192">
        <ele>1215</ele>
        <time>2019-04-18T13:26:45Z</time>
      </trkpt>
      <trkpt lat="44.5601" lon="6.42098">
        <ele>1213</ele>
        <time>2019-04-18T13:27:45Z</time>
      </trkpt>
      <trkpt lat="44.56035" lon="6.42045">
        <ele>1212</ele>
        <time>2019-04-18T13:28:45Z</time>
      </trkpt>
      <trkpt lat="44.56042" lon="6.42022">
        <ele>1211</ele>
        <time>2019-04-18T13:29:45Z</time>
      </trkpt>
      <trkpt lat="44.56099" lon="6.41778">
        <ele>1199</ele>
        <time>2019-04-18T13:30:45Z</time>
      </trkpt>
      <trkpt lat="44.56109" lon="6.4171">
        <ele>1195</ele>
        <time>2019-04-18T13:31:45Z</time>
      </trkpt>
      <trkpt lat="44.56122" lon="6.4151">
        <ele>1187</ele>
        <time>2019-04-18T13:32:45Z</time>
      </trkpt>
      <trkpt lat="44.56132" lon="6.41427">
        <ele>1186</ele>
        <time>2019-04-18T13:33:45Z</time>
      </trkpt>
      <trkpt lat="44.56139" lon="6.41394">
        <ele>1186</ele>
        <time>2019-04-18T13:34:45Z</time>
      </trkpt>
      <trkpt lat="44.56155" lon="6.41346">
        <ele>1187</ele>
        <time>2019-04-18T13:35:45Z</time>
      </trkpt>
      <trkpt lat="44.56167" lon="6.41303">
        <ele>1186</ele>
        <time>2019-04-18T13:36:45Z</time>
      </trkpt>
      <trkpt lat="44.56182" lon="6.41263">
        <ele>1186</ele>
        <time>2019-04-18T13:37:45Z</time>
      </trkpt>
      <trkpt lat="44.56201" lon="6.41222">
        <ele>1186</ele>
        <time>2019-04-18T13:38:45Z</time>
      </trkpt>
      <trkpt lat="44.5626" lon="6.4111">
        <ele>1188</ele>
        <time>2019-04-18T13:39:45Z</time>
      </trkpt>
      <trkpt lat="44.563" lon="6.41046">
        <ele>1192</ele>
        <time>2019-04-18T13:40:45Z</time>
      </trkpt>
      <trkpt lat="44.56305" lon="6.41031">
        <ele>1193</ele>
        <time>2019-04-18T13:41:45Z</time>
      </trkpt>
      <trkpt lat="44.56318" lon="6.40905">
        <ele>1188</ele>
        <time>2019-04-18T13:42:45Z</time>
      </trkpt>
      <trkpt lat="44.56321" lon="6.40885">
        <ele>1187</ele>
        <time>2019-04-18T13:43:45Z</time>
      </trkpt>
      <trkpt lat="44.56328" lon="6.40868">
        <ele>1187</ele>
        <time>2019-04-18T13:44:45Z</time>
      </trkpt>
      <trkpt lat="44.56338" lon="6.40853">
        <ele>1187</ele>
        <time>2019-04-18T13:45:45Z</time>
      </trkpt>
      <trkpt lat="44.56369" lon="6.40832">
        <ele>1190</ele>
        <time>2019-04-18T13:46:45Z</time>
      </trkpt>
      <trkpt lat="44.56381" lon="6.40819">
        <ele>1190</ele>
        <time>2019-04-18T13:47:45Z</time>
      </trkpt>
      <trkpt lat="44.56387" lon="6.40805">
        <ele>1190</ele>
        <time>2019-04-18T13:48:45Z</time>
      </trkpt>
      <trkpt lat="44.56388" lon="6.4079">
        <ele>1190</ele>
        <time>2019-04-18T13:49:45Z</time>
      </trkpt>
      <trkpt lat="44.56388" lon="6.40764">
        <ele>1188</ele>
        <time>2019-04-18T13:50:45Z</time>
      </trkpt>
      <trkpt lat="44.56367" lon="6.40615">
        <ele>1174</ele>
        <time>2019-04-18T13:51:45Z</time>
      </trkpt>
      <trkpt lat="44.56371" lon="6.40563">
        <ele>1171</ele>
        <time>2019-04-18T13:52:45Z</time>
      </trkpt>
      <trkpt lat="44.56373" lon="6.4052">
        <ele>1168</ele>
        <time>2019-04-18T13:53:45Z</time>
      </trkpt>
      <trkpt lat="44.56379" lon="6.40493">
        <ele>1167</ele>
        <time>2019-04-18T13:54:45Z</time>
      </trkpt>
      <trkpt lat="44.56387" lon="6.40478">
        <ele>1167</ele>
        <time>2019-04-18T13:55:45Z</time>
      </trkpt>
      <trkpt lat="44.56395" lon="6.40469">
        <ele>1168</ele>
        <time>2019-04-18T13:56:45Z</time>
      </trkpt>
      <trkpt lat="44.56406" lon="6.40464">
        <ele>1170</ele>
        <time>2019-04-18T13:57:45Z</time>
      </trkpt>
      <trkpt lat="44.5645" lon="6.40464">
        <ele>1176</ele>
        <time>2019-04-18T13:58:45Z</time>
      </trkpt>
      <trkpt lat="44.56459" lon="6.40459">
        <ele>1176</ele>
        <time>2019-04-18T13:59:45Z</time>
      </trkpt>
      <trkpt lat="44.56466" lon="6.4045">
        <ele>1175</ele>
        <time>2019-04-18T14:00:45Z</time>
      </trkpt>
      <trkpt lat="44.56473" lon="6.40435">
        <ele>1174</ele>
        <time>2019-04-18T14:01:45Z</time>
      </trkpt>
      <trkpt lat="44.56495" lon="6.40334">
        <ele>1168</ele>
        <time>2019-04-18T14:02:45Z</time>
      </trkpt>
      <trkpt lat="44.565" lon="6.40319">
        <ele>1167</ele>
        <time>2019-04-18T14:03:45Z</time>
      </trkpt>
      <trkpt lat="44.56527" lon="6.40276">
        <ele>1164</ele>
        <time>2019-04-18T14:04:45Z</time>
      </trkpt>
      <trkpt lat="44.56537" lon="6.40267">
        <ele>1164</ele>
        <time>2019-04-18T14:05:45Z</time>
      </trkpt>
      <trkpt lat="44.56546" lon="6.40263">
        <ele>1164</ele>
        <time>2019-04-18T14:06:45Z</time>
      </trkpt>
      <trkpt lat="44.56555" lon="6.40262">
        <ele>1164</ele>
        <time>2019-04-18T14:07:45Z</time>
      </trkpt>
      <trkpt lat="44.56583" lon="6.4027">
        <ele>1167</ele>
        <time>2019-04-18T14:08:45Z</time>
      </trkpt>
      <trkpt lat="44.56601" lon="6.4027">
        <ele>1167</ele>
        <time>2019-04-18T14:09:45Z</time>
      </trkpt>
      <trkpt lat="44.56624" lon="6.40263">
        <ele>1166</ele>
        <time>2019-04-18T14:10:45Z</time>
      </trkpt>
      <trkpt lat="44.56637" lon="6.40256">
        <ele>1165</ele>
        <time>2019-04-18T14:11:45Z</time>
      </trkpt>
      <trkpt lat="44.56649" lon="6.40242">
        <ele>1164</ele>
        <time>2019-04-18T14:12:45Z</time>
      </trkpt>
      <trkpt lat="44.56672" lon="6.40181">
        <ele>1161</ele>
        <time>2019-04-18T14:13:45Z</time>
      </trkpt>
      <trkpt lat="44.5669" lon="6.40122">
        <ele>1161</ele>
        <time>2019-04-18T14:14:45Z</time>
      </trkpt>
      <trkpt lat="44.56701" lon="6.40118">
        <ele>1162</ele>
        <time>2019-04-18T14:15:45Z</time>
      </trkpt>
      <trkpt lat="44.56726" lon="6.40118">
        <ele>1162</ele>
        <time>2019-04-18T14:16:45Z</time>
      </trkpt>
      <trkpt lat="44.5674" lon="6.4012">
        <ele>1163</ele>
        <time>2019-04-18T14:17:45Z</time>
      </trkpt>
      <trkpt lat="44.56771" lon="6.40131">
        <ele>1162</ele>
        <time>2019-04-18T14:18:45Z</time>
      </trkpt>
      <trkpt lat="44.56807" lon="6.4013">
        <ele>1161</ele>
        <time>2019-04-18T14:19:45Z</time>
      </trkpt>
      <trkpt lat="44.56844" lon="6.40146">
        <ele>1161</ele>
        <time>2019-04-18T14:20:45Z</time>
      </trkpt>
      <trkpt lat="44.56866" lon="6.40153">
        <ele>1160</ele>
        <time>2019-04-18T14:21:45Z</time>
      </trkpt>
      <trkpt lat="44.56896" lon="6.40167">
        <ele>1160</ele>
        <time>2019-04-18T14:22:45Z</time>
      </trkpt>
      <trkpt lat="44.56903" lon="6.40169">
        <ele>1160</ele>
        <time>2019-04-18T14:23:45Z</time>
      </trkpt>
      <trkpt lat="44.56937" lon="6.40168">
        <ele>1160</ele>
        <time>2019-04-18T14:24:45Z</time>
      </trkpt>
      <trkpt lat="44.57007" lon="6.40194">
        <ele>1166</ele>
        <time>2019-04-18T14:25:45Z</time>
      </trkpt>
      <trkpt lat="44.57062" lon="6.40194">
        <ele>1167</ele>
        <time>2019-04-18T14:26:45Z</time>
      </trkpt>
      <trkpt lat="44.57144" lon="6.40181">
        <ele>1164</ele>
        <time>2019-04-18T14:27:45Z</time>
      </trkpt>
      <trkpt lat="44.5716" lon="6.40176">
        <ele>1163</ele>
        <time>2019-04-18T14:28:45Z</time>
      </trkpt>
      <trkpt lat="44.57173" lon="6.40164">
        <ele>1161</ele>
        <time>2019-04-18T14:29:45Z</time>
      </trkpt>
      <trkpt lat="44.57191" lon="6.40138">
        <ele>1157</ele>
        <time>2019-04-18T14:30:45Z</time>
      </trkpt>
      <trkpt lat="44.57197" lon="6.40132">
        <ele>1156</ele>
        <time>2019-04-18T14:31:45Z</time>
      </trkpt>
      <trkpt lat="44.57205" lon="6.40128">
        <ele>1156</ele>
        <time>2019-04-18T14:32:45Z</time>
      </trkpt>
      <trkpt lat="44.57213" lon="6.40128">
        <ele>1157</ele>
        <time>2019-04-18T14:33:45Z</time>
      </trkpt>
      <trkpt lat="44.57249" lon="6.40146">
        <ele>1163</ele>
        <time>2019-04-18T14:34:45Z</time>
      </trkpt>
      <trkpt lat="44.57264" lon="6.40151">
        <ele>1165</ele>
        <time>2019-04-18T14:35:45Z</time>
      </trkpt>
      <trkpt lat="44.57326" lon="6.40149">
        <ele>1169</ele>
        <time>2019-04-18T14:36:45Z</time>
      </trkpt>
      <trkpt lat="44.57376" lon="6.40141">
        <ele>1174</ele>
        <time>2019-04-18T14:37:45Z</time>
      </trkpt>
      <trkpt lat="44.57389" lon="6.4013">
        <ele>1174</ele>
        <time>2019-04-18T14:38:45Z</time>
      </trkpt>
      <trkpt lat="44.57411" lon="6.40098">
        <ele>1170</ele>
        <time>2019-04-18T14:39:45Z</time>
      </trkpt>
      <trkpt lat="44.57424" lon="6.40088">
        <ele>1169</ele>
        <time>2019-04-18T14:40:45Z</time>
      </trkpt>
      <trkpt lat="44.57474" lon="6.4007">
        <ele>1170</ele>
        <time>2019-04-18T14:41:45Z</time>
      </trkpt>
      <trkpt lat="44.57493" lon="6.40055">
        <ele>1169</ele>
        <time>2019-04-18T14:42:45Z</time>
      </trkpt>
      <trkpt lat="44.57509" lon="6.40046">
        <ele>1169</ele>
        <time>2019-04-18T14:43:45Z</time>
      </trkpt>
      <trkpt lat="44.57551" lon="6.4004">
        <ele>1171</ele>
        <time>2019-04-18T14:44:45Z</time>
      </trkpt>
      <trkpt lat="44.57579" lon="6.40045">
        <ele>1174</ele>
        <time>2019-04-18T14:45:45Z</time>
      </trkpt>
      <trkpt lat="44.57612" lon="6.40069">
        <ele>1182</ele>
        <time>2019-04-18T14:46:45Z</time>
      </trkpt>
      <trkpt lat="44.57623" lon="6.40082">
        <ele>1185</ele>
        <time>2019-04-18T14:47:45Z</time>
      </trkpt>
      <trkpt lat="44.57635" lon="6.40108">
        <ele>1191</ele>
        <time>2019-04-18T14:48:45Z</time>
      </trkpt>
      <trkpt lat="44.57649" lon="6.40134">
        <ele>1198</ele>
        <time>2019-04-18T14:49:45Z</time>
      </trkpt>
      <trkpt lat="44.57654" lon="6.4014">
        <ele>1200</ele>
        <time>2019-04-18T14:50:45Z</time>
      </trkpt>
      <trkpt lat="44.57659" lon="6.40141">
        <ele>1200</ele>
        <time>2019-04-18T14:51:45Z</time>
      </trkpt>
      <trkpt lat="44.57664" lon="6.40136">
        <ele>1200</ele>
        <time>2019-04-18T14:52:45Z</time>
      </trkpt>
      <trkpt lat="44.57669" lon="6.40125">
        <ele>1199</ele>
        <time>2019-04-18T14:53:45Z</time>
      </trkpt>
      <trkpt lat="44.57676" lon="6.4006">
        <ele>1190</ele>
        <time>2019-04-18T14:54:45Z</time>
      </trkpt>
      <trkpt lat="44.5768" lon="6.4005">
        <ele>1190</ele>
        <time>2019-04-18T14:55:45Z</time>
      </trkpt>
      <trkpt lat="44.57734" lon="6.39974">
        <ele>1196</ele>
        <time>2019-04-18T14:56:45Z</time>
      </trkpt>
      <trkpt lat="44.57748" lon="6.39948">
        <ele>1197</ele>
        <time>2019-04-18T14:57:45Z</time>
      </trkpt>
      <trkpt lat="44.5776" lon="6.39937">
        <ele>1198</ele>
        <time>2019-04-18T14:58:45Z</time>
      </trkpt>
      <trkpt lat="44.57789" lon="6.3993">
        <ele>1203</ele>
        <time>2019-04-18T14:59:45Z</time>
      </trkpt>
      <trkpt lat="44.57803" lon="6.39924">
        <ele>1205</ele>
        <time>2019-04-18T15:00:45Z</time>
      </trkpt>
      <trkpt lat="44.57815" lon="6.39912">
        <ele>1206</ele>
        <time>2019-04-18T15:01:45Z</time>
      </trkpt>
      <trkpt lat="44.57829" lon="6.39888">
        <ele>1208</ele>
        <time>2019-04-18T15:02:45Z</time>
      </trkpt>
      <trkpt lat="44.57842" lon="6.39863">
        <ele>1212</ele>
        <time>2019-04-18T15:03:45Z</time>
      </trkpt>
      <trkpt lat="44.57851" lon="6.3983">
        <ele>1214</ele>
        <time>2019-04-18T15:04:45Z</time>
      </trkpt>
      <trkpt lat="44.57854" lon="6.39789">
        <ele>1210</ele>
        <time>2019-04-18T15:05:45Z</time>
      </trkpt>
      <trkpt lat="44.57853" lon="6.39749">
        <ele>1205</ele>
        <time>2019-04-18T15:06:45Z</time>
      </trkpt>
      <trkpt lat="44.57855" lon="6.39741">
        <ele>1203</ele>
        <time>2019-04-18T15:07:45Z</time>
      </trkpt>
      <trkpt lat="44.57859" lon="6.39734">
        <ele>1202</ele>
        <time>2019-04-18T15:08:45Z</time>
      </trkpt>
      <trkpt lat="44.5787" lon="6.39723">
        <ele>1199</ele>
        <time>2019-04-18T15:09:45Z</time>
      </trkpt>
      <trkpt lat="44.57883" lon="6.39719">
        <ele>1199</ele>
        <time>2019-04-18T15:10:45Z</time>
      </trkpt>
      <trkpt lat="44.57932" lon="6.39722">
        <ele>1203</ele>
        <time>2019-04-18T15:11:45Z</time>
      </trkpt>
      <trkpt lat="44.57966" lon="6.39728">
        <ele>1205</ele>
        <time>2019-04-18T15:12:45Z</time>
      </trkpt>
      <trkpt lat="44.57983" lon="6.39734">
        <ele>1208</ele>
        <time>2019-04-18T15:13:45Z</time>
      </trkpt>
      <trkpt lat="44.58007" lon="6.39748">
        <ele>1213</ele>
        <time>2019-04-18T15:14:45Z</time>
      </trkpt>
      <trkpt lat="44.58022" lon="6.39759">
        <ele>1212</ele>
        <time>2019-04-18T15:15:45Z</time>
      </trkpt>
      <trkpt lat="44.58037" lon="6.39773">
        <ele>1211</ele>
        <time>2019-04-18T15:16:45Z</time>
      </trkpt>
      <trkpt lat="44.58057" lon="6.39798">
        <ele>1213</ele>
        <time>2019-04-18T15:17:45Z</time>
      </trkpt>
      <trkpt lat="44.58065" lon="6.39805">
        <ele>1213</ele>
        <time>2019-04-18T15:18:45Z</time>
      </trkpt>
      <trkpt lat="44.58073" lon="6.3981">
        <ele>1213</ele>
        <time>2019-04-18T15:19:45Z</time>
      </trkpt>
      <trkpt lat="44.58115" lon="6.39822">
        <ele>1206</ele>
        <time>2019-04-18T15:20:45Z</time>
      </trkpt>
      <trkpt lat="44.58124" lon="6.39831">
        <ele>1207</ele>
        <time>2019-04-18T15:21:45Z</time>
      </trkpt>
      <trkpt lat="44.58135" lon="6.39848">
        <ele>1208</ele>
        <time>2019-04-18T15:22:45Z</time>
      </trkpt>
      <trkpt lat="44.58143" lon="6.39894">
        <ele>1218</ele>
        <time>2019-04-18T15:23:45Z</time>
      </trkpt>
      <trkpt lat="44.58154" lon="6.39919">
        <ele>1222</ele>
        <time>2019-04-18T15:24:45Z</time>
      </trkpt>
      <trkpt lat="44.58163" lon="6.39934">
        <ele>1226</ele>
        <time>2019-04-18T15:25:45Z</time>
      </trkpt>
      <trkpt lat="44.58182" lon="6.39948">
        <ele>1228</ele>
        <time>2019-04-18T15:26:45Z</time>
      </trkpt>
      <trkpt lat="44.58191" lon="6.39951">
        <ele>1228</ele>
        <time>2019-04-18T15:27:45Z</time>
      </trkpt>
      <trkpt lat="44.58212" lon="6.39951">
        <ele>1225</ele>
        <time>2019-04-18T15:28:45Z</time>
      </trkpt>
      <trkpt lat="44.58249" lon="6.39946">
        <ele>1216</ele>
        <time>2019-04-18T15:29:45Z</time>
      </trkpt>
      <trkpt lat="44.58256" lon="6.39947">
        <ele>1216</ele>
        <time>2019-04-18T15:30:45Z</time>
      </trkpt>
      <trkpt lat="44.58277" lon="6.39964">
        <ele>1221</ele>
        <time>2019-04-18T15:31:45Z</time>
      </trkpt>
      <trkpt lat="44.58289" lon="6.3997">
        <ele>1221</ele>
        <time>2019-04-18T15:32:45Z</time>
      </trkpt>
      <trkpt lat="44.58302" lon="6.39966">
        <ele>1218</ele>
        <time>2019-04-18T15:33:45Z</time>
      </trkpt>
      <trkpt lat="44.58325" lon="6.39941">
        <ele>1206</ele>
        <time>2019-04-18T15:34:45Z</time>
      </trkpt>
      <trkpt lat="44.58335" lon="6.39938">
        <ele>1204</ele>
        <time>2019-04-18T15:35:45Z</time>
      </trkpt>
      <trkpt lat="44.58339" lon="6.39939">
        <ele>1204</ele>
        <time>2019-04-18T15:36:45Z</time>
      </trkpt>
      <trkpt lat="44.58355" lon="6.39952">
        <ele>1208</ele>
        <time>2019-04-18T15:37:45Z</time>
      </trkpt>
      <trkpt lat="44.58402" lon="6.39978">
        <ele>1210</ele>
        <time>2019-04-18T15:38:45Z</time>
      </trkpt>
      <trkpt lat="44.58407" lon="6.39976">
        <ele>1209</ele>
        <time>2019-04-18T15:39:45Z</time>
      </trkpt>
      <trkpt lat="44.58425" lon="6.39962">
        <ele>1211</ele>
        <time>2019-04-18T15:40:45Z</time>
      </trkpt>
      <trkpt lat="44.58429" lon="6.39955">
        <ele>1213</ele>
        <time>2019-04-18T15:41:45Z</time>
      </trkpt>
      <trkpt lat="44.58432" lon="6.39942">
        <ele>1215</ele>
        <time>2019-04-18T15:42:45Z</time>
      </trkpt>
      <trkpt lat="44.58407" lon="6.39859">
        <ele>1216</ele>
        <time>2019-04-18T15:43:45Z</time>
      </trkpt>
      <trkpt lat="44.58392" lon="6.3983">
        <ele>1215</ele>
        <time>2019-04-18T15:44:45Z</time>
      </trkpt>
      <trkpt lat="44.58376" lon="6.39808">
        <ele>1214</ele>
        <time>2019-04-18T15:45:45Z</time>
      </trkpt>
      <trkpt lat="44.58358" lon="6.39795">
        <ele>1209</ele>
        <time>2019-04-18T15:46:45Z</time>
      </trkpt>
      <trkpt lat="44.58343" lon="6.39776">
        <ele>1205</ele>
        <time>2019-04-18T15:47:45Z</time>
      </trkpt>
      <trkpt lat="44.58333" lon="6.39746">
        <ele>1206</ele>
        <time>2019-04-18T15:48:45Z</time>
      </trkpt>
      <trkpt lat="44.58326" lon="6.39719">
        <ele>1207</ele>
        <time>2019-04-18T15:49:45Z</time>
      </trkpt>
      <trkpt lat="44.58324" lon="6.39699">
        <ele>1208</ele>
        <time>2019-04-18T15:50:45Z</time>
      </trkpt>
      <trkpt lat="44.58326" lon="6.39687">
        <ele>1211</ele>
        <time>2019-04-18T15:51:45Z</time>
      </trkpt>
      <trkpt lat="44.58333" lon="6.3967">
        <ele>1216</ele>
        <time>2019-04-18T15:52:45Z</time>
      </trkpt>
      <trkpt lat="44.58347" lon="6.39645">
        <ele>1227</ele>
        <time>2019-04-18T15:53:45Z</time>
      </trkpt>
      <trkpt lat="44.58354" lon="6.39624">
        <ele>1234</ele>
        <time>2019-04-18T15:54:45Z</time>
      </trkpt>
      <trkpt lat="44.58346" lon="6.39603">
        <ele>1233</ele>
        <time>2019-04-18T15:55:45Z</time>
      </trkpt>
      <trkpt lat="44.58339" lon="6.39597">
        <ele>1231</ele>
        <time>2019-04-18T15:56:45Z</time>
      </trkpt>
      <trkpt lat="44.58316" lon="6.39584">
        <ele>1223</ele>
        <time>2019-04-18T15:57:45Z</time>
      </trkpt>
      <trkpt lat="44.58307" lon="6.39571">
        <ele>1223</ele>
        <time>2019-04-18T15:58:45Z</time>
      </trkpt>
      <trkpt lat="44.58284" lon="6.39528">
        <ele>1221</ele>
        <time>2019-04-18T15:59:45Z</time>
      </trkpt>
      <trkpt lat="44.58278" lon="6.39497">
        <ele>1224</ele>
        <time>2019-04-18T16:00:45Z</time>
      </trkpt>
      <trkpt lat="44.58276" lon="6.39473">
        <ele>1227</ele>
        <time>2019-04-18T16:01:45Z</time>
      </trkpt>
      <trkpt lat="44.58276" lon="6.39456">
        <ele>1230</ele>
        <time>2019-04-18T16:02:45Z</time>
      </trkpt>
      <trkpt lat="44.58275" lon="6.39446">
        <ele>1231</ele>
        <time>2019-04-18T16:03:45Z</time>
      </trkpt>
      <trkpt lat="44.58269" lon="6.39434">
        <ele>1230</ele>
        <time>2019-04-18T16:04:45Z</time>
      </trkpt>
      <trkpt lat="44.58264" lon="6.39426">
        <ele>1228</ele>
        <time>2019-04-18T16:05:45Z</time>
      </trkpt>
      <trkpt lat="44.58259" lon="6.39413">
        <ele>1227</ele>
        <time>2019-04-18T16:06:45Z</time>
      </trkpt>
      <trkpt lat="44.58254" lon="6.39386">
        <ele>1230</ele>
        <time>2019-04-18T16:07:45Z</time>
      </trkpt>
      <trkpt lat="44.58251" lon="6.39353">
        <ele>1235</ele>
        <time>2019-04-18T16:08:45Z</time>
      </trkpt>
      <trkpt lat="44.58238" lon="6.3929">
        <ele>1241</ele>
        <time>2019-04-18T16:09:45Z</time>
      </trkpt>
      <trkpt lat="44.58233" lon="6.39276">
        <ele>1242</ele>
        <time>2019-04-18T16:10:45Z</time>
      </trkpt>
      <trkpt lat="44.58219" lon="6.39252">
        <ele>1241</ele>
        <time>2019-04-18T16:11:45Z</time>
      </trkpt>
      <trkpt lat="44.58208" lon="6.39243">
        <ele>1239</ele>
        <time>2019-04-18T16:12:45Z</time>
      </trkpt>
      <trkpt lat="44.58189" lon="6.39236">
        <ele>1234</ele>
        <time>2019-04-18T16:13:45Z</time>
      </trkpt>
      <trkpt lat="44.58179" lon="6.39229">
        <ele>1233</ele>
        <time>2019-04-18T16:14:45Z</time>
      </trkpt>
      <trkpt lat="44.58171" lon="6.39219">
        <ele>1232</ele>
        <time>2019-04-18T16:15:45Z</time>
      </trkpt>
      <trkpt lat="44.58166" lon="6.39207">
        <ele>1233</ele>
        <time>2019-04-18T16:16:45Z</time>
      </trkpt>
      <trkpt lat="44.58161" lon="6.39186">
        <ele>1236</ele>
        <time>2019-04-18T16:17:45Z</time>
      </trkpt>
      <trkpt lat="44.58154" lon="6.39137">
        <ele>1241</ele>
        <time>2019-04-18T16:18:45Z</time>
      </trkpt>
      <trkpt lat="44.58133" lon="6.391">
        <ele>1238</ele>
        <time>2019-04-18T16:19:45Z</time>
      </trkpt>
      <trkpt lat="44.58131" lon="6.39086">
        <ele>1239</ele>
        <time>2019-04-18T16:20:45Z</time>
      </trkpt>
      <trkpt lat="44.58131" lon="6.39068">
        <ele>1239</ele>
        <time>2019-04-18T16:21:45Z</time>
      </trkpt>
      <trkpt lat="44.58138" lon="6.39041">
        <ele>1239</ele>
        <time>2019-04-18T16:22:45Z</time>
      </trkpt>
      <trkpt lat="44.58186" lon="6.38929">
        <ele>1249</ele>
        <time>2019-04-18T16:23:45Z</time>
      </trkpt>
      <trkpt lat="44.58192" lon="6.38907">
        <ele>1250</ele>
        <time>2019-04-18T16:24:45Z</time>
      </trkpt>
      <trkpt lat="44.58199" lon="6.38832">
        <ele>1247</ele>
        <time>2019-04-18T16:25:45Z</time>
      </trkpt>
      <trkpt lat="44.58203" lon="6.38805">
        <ele>1248</ele>
        <time>2019-04-18T16:26:45Z</time>
      </trkpt>
      <trkpt lat="44.58214" lon="6.38777">
        <ele>1251</ele>
        <time>2019-04-18T16:27:45Z</time>
      </trkpt>
      <trkpt lat="44.58338" lon="6.38589">
        <ele>1270</ele>
        <time>2019-04-18T16:28:45Z</time>
      </trkpt>
      <trkpt lat="44.58355" lon="6.38574">
        <ele>1271</ele>
        <time>2019-04-18T16:29:45Z</time>
      </trkpt>
      <trkpt lat="44.58407" lon="6.38538">
        <ele>1276</ele>
        <time>2019-04-18T16:30:45Z</time>
      </trkpt>
      <trkpt lat="44.5843" lon="6.38505">
        <ele>1278</ele>
        <time>2019-04-18T16:31:45Z</time>
      </trkpt>
      <trkpt lat="44.58436" lon="6.3849">
        <ele>1278</ele>
        <time>2019-04-18T16:32:45Z</time>
      </trkpt>
      <trkpt lat="44.5844" lon="6.38418">
        <ele>1273</ele>
        <time>2019-04-18T16:33:45Z</time>
      </trkpt>
      <trkpt lat="44.58446" lon="6.38393">
        <ele>1269</ele>
        <time>2019-04-18T16:34:45Z</time>
      </trkpt>
      <trkpt lat="44.58476" lon="6.38342">
        <ele>1267</ele>
        <time>2019-04-18T16:35:45Z</time>
      </trkpt>
      <trkpt lat="44.58522" lon="6.38288">
        <ele>1271</ele>
        <time>2019-04-18T16:36:45Z</time>
      </trkpt>
      <trkpt lat="44.58526" lon="6.38279">
        <ele>1270</ele>
        <time>2019-04-18T16:37:45Z</time>
      </trkpt>
      <trkpt lat="44.58528" lon="6.38263">
        <ele>1268</ele>
        <time>2019-04-18T16:38:45Z</time>
      </trkpt>
      <trkpt lat="44.58528" lon="6.38246">
        <ele>1266</ele>
        <time>2019-04-18T16:39:45Z</time>
      </trkpt>
      <trkpt lat="44.58518" lon="6.38194">
        <ele>1260</ele>
        <time>2019-04-18T16:40:45Z</time>
      </trkpt>
      <trkpt lat="44.58515" lon="6.38183">
        <ele>1259</ele>
        <time>2019-04-18T16:41:45Z</time>
      </trkpt>
      <trkpt lat="44.58509" lon="6.38169">
        <ele>1256</ele>
        <time>2019-04-18T16:42:45Z</time>
      </trkpt>
      <trkpt lat="44.58481" lon="6.38146">
        <ele>1249</ele>
        <time>2019-04-18T16:43:45Z</time>
      </trkpt>
      <trkpt lat="44.58471" lon="6.38132">
        <ele>1248</ele>
        <time>2019-04-18T16:44:45Z</time>
      </trkpt>
      <trkpt lat="44.58445" lon="6.38081">
        <ele>1246</ele>
        <time>2019-04-18T16:45:45Z</time>
      </trkpt>
      <trkpt lat="44.5841" lon="6.3803">
        <ele>1242</ele>
        <time>2019-04-18T16:46:45Z</time>
      </trkpt>
      <trkpt lat="44.58397" lon="6.38006">
        <ele>1239</ele>
        <time>2019-04-18T16:47:45Z</time>
      </trkpt>
      <trkpt lat="44.58391" lon="6.37988">
        <ele>1237</ele>
        <time>2019-04-18T16:48:45Z</time>
      </trkpt>
      <trkpt lat="44.58387" lon="6.37971">
        <ele>1233</ele>
        <time>2019-04-18T16:49:45Z</time>
      </trkpt>
      <trkpt lat="44.58388" lon="6.37952">
        <ele>1231</ele>
        <time>2019-04-18T16:50:45Z</time>
      </trkpt>
      <trkpt lat="44.58395" lon="6.37928">
        <ele>1230</ele>
        <time>2019-04-18T16:51:45Z</time>
      </trkpt>
      <trkpt lat="44.58406" lon="6.37906">
        <ele>1230</ele>
        <time>2019-04-18T16:52:45Z</time>
      </trkpt>
      <trkpt lat="44.58457" lon="6.37849">
        <ele>1228</ele>
        <time>2019-04-18T16:53:45Z</time>
      </trkpt>
      <trkpt lat="44.58543" lon="6.37783">
        <ele>1237</ele>
        <time>2019-04-18T16:54:45Z</time>
      </trkpt>
      <trkpt lat="44.58577" lon="6.37744">
        <ele>1239</ele>
        <time>2019-04-18T16:55:45Z</time>
      </trkpt>
      <trkpt lat="44.58597" lon="6.377">
        <ele>1237</ele>
        <time>2019-04-18T16:56:45Z</time>
      </trkpt>
      <trkpt lat="44.58612" lon="6.37653">
        <ele>1234</ele>
        <time>2019-04-18T16:57:45Z</time>
      </trkpt>
      <trkpt lat="44.58628" lon="6.37582">
        <ele>1231</ele>
        <time>2019-04-18T16:58:45Z</time>
      </trkpt>
      <trkpt lat="44.58636" lon="6.37552">
        <ele>1233</ele>
        <time>2019-04-18T16:59:45Z</time>
      </trkpt>
      <trkpt lat="44.58654" lon="6.37507">
        <ele>1238</ele>
        <time>2019-04-18T17:00:45Z</time>
      </trkpt>
      <trkpt lat="44.58657" lon="6.37492">
        <ele>1239</ele>
        <time>2019-04-18T17:01:45Z</time>
      </trkpt>
      <trkpt lat="44.58658" lon="6.37479">
        <ele>1238</ele>
        <time>2019-04-18T17:02:45Z</time>
      </trkpt>
      <trkpt lat="44.58651" lon="6.37464">
        <ele>1236</ele>
        <time>2019-04-18T17:03:45Z</time>
      </trkpt>
      <trkpt lat="44.58643" lon="6.37455">
        <ele>1234</ele>
        <time>2019-04-18T17:04:45Z</time>
      </trkpt>
      <trkpt lat="44.58622" lon="6.37448">
        <ele>1228</ele>
        <time>2019-04-18T17:05:45Z</time>
      </trkpt>
      <trkpt lat="44.58583" lon="6.37437">
        <ele>1220</ele>
        <time>2019-04-18T17:06:45Z</time>
      </trkpt>
      <trkpt lat="44.58572" lon="6.37439">
        <ele>1222</ele>
        <time>2019-04-18T17:07:45Z</time>
      </trkpt>
      <trkpt lat="44.58559" lon="6.37448">
        <ele>1224</ele>
        <time>2019-04-18T17:08:45Z</time>
      </trkpt>
      <trkpt lat="44.58546" lon="6.37467">
        <ele>1225</ele>
        <time>2019-04-18T17:09:45Z</time>
      </trkpt>
      <trkpt lat="44.58536" lon="6.37493">
        <ele>1224</ele>
        <time>2019-04-18T17:10:45Z</time>
      </trkpt>
      <trkpt lat="44.58525" lon="6.37528">
        <ele>1223</ele>
        <time>2019-04-18T17:11:45Z</time>
      </trkpt>
      <trkpt lat="44.58495" lon="6.37593">
        <ele>1219</ele>
        <time>2019-04-18T17:12:45Z</time>
      </trkpt>
      <trkpt lat="44.58474" lon="6.37631">
        <ele>1218</ele>
        <time>2019-04-18T17:13:45Z</time>
      </trkpt>
      <trkpt lat="44.58464" lon="6.37644">
        <ele>1217</ele>
        <time>2019-04-18T17:14:45Z</time>
      </trkpt>
      <trkpt lat="44.58447" lon="6.37655">
        <ele>1217</ele>
        <time>2019-04-18T17:15:45Z</time>
      </trkpt>
      <trkpt lat="44.58433" lon="6.37661">
        <ele>1217</ele>
        <time>2019-04-18T17:16:45Z</time>
      </trkpt>
      <trkpt lat="44.58409" lon="6.37662">
        <ele>1219</ele>
        <time>2019-04-18T17:17:45Z</time>
      </trkpt>
      <trkpt lat="44.58382" lon="6.37658">
        <ele>1222</ele>
        <time>2019-04-18T17:18:45Z</time>
      </trkpt>
      <trkpt lat="44.58352" lon="6.37645">
        <ele>1228</ele>
        <time>2019-04-18T17:19:45Z</time>
      </trkpt>
      <trkpt lat="44.58337" lon="6.3764">
        <ele>1231</ele>
        <time>2019-04-18T17:20:45Z</time>
      </trkpt>
      <trkpt lat="44.58323" lon="6.37639">
        <ele>1232</ele>
        <time>2019-04-18T17:21:45Z</time>
      </trkpt>
      <trkpt lat="44.58307" lon="6.37644">
        <ele>1231</ele>
        <time>2019-04-18T17:22:45Z</time>
      </trkpt>
      <trkpt lat="44.58273" lon="6.37668">
        <ele>1225</ele>
        <time>2019-04-18T17:23:45Z</time>
      </trkpt>
      <trkpt lat="44.58257" lon="6.37672">
        <ele>1225</ele>
        <time>2019-04-18T17:24:45Z</time>
      </trkpt>
      <trkpt lat="44.58197" lon="6.37674">
        <ele>1231</ele>
        <time>2019-04-18T17:25:45Z</time>
      </trkpt>
      <trkpt lat="44.58182" lon="6.37676">
        <ele>1232</ele>
        <time>2019-04-18T17:26:45Z</time>
      </trkpt>
      <trkpt lat="44.5813" lon="6.37702">
        <ele>1236</ele>
        <time>2019-04-18T17:27:45Z</time>
      </trkpt>
      <trkpt lat="44.58111" lon="6.37709">
        <ele>1237</ele>
        <time>2019-04-18T17:28:45Z</time>
      </trkpt>
      <trkpt lat="44.58099" lon="6.3771">
        <ele>1238</ele>
        <time>2019-04-18T17:29:45Z</time>
      </trkpt>
      <trkpt lat="44.58056" lon="6.37703">
        <ele>1244</ele>
        <time>2019-04-18T17:30:45Z</time>
      </trkpt>
      <trkpt lat="44.58033" lon="6.37705">
        <ele>1246</ele>
        <time>2019-04-18T17:31:45Z</time>
      </trkpt>
      <trkpt lat="44.58002" lon="6.37715">
        <ele>1249</ele>
        <time>2019-04-18T17:32:45Z</time>
      </trkpt>
      <trkpt lat="44.5799" lon="6.37724">
        <ele>1249</ele>
        <time>2019-04-18T17:33:45Z</time>
      </trkpt>
      <trkpt lat="44.5797" lon="6.37749">
        <ele>1248</ele>
        <time>2019-04-18T17:34:45Z</time>
      </trkpt>
      <trkpt lat="44.57945" lon="6.37773">
        <ele>1247</ele>
        <time>2019-04-18T17:35:45Z</time>
      </trkpt>
      <trkpt lat="44.5793" lon="6.37784">
        <ele>1247</ele>
        <time>2019-04-18T17:36:45Z</time>
      </trkpt>
      <trkpt lat="44.57911" lon="6.37791">
        <ele>1247</ele>
        <time>2019-04-18T17:37:45Z</time>
      </trkpt>
      <trkpt lat="44.57871" lon="6.37795">
        <ele>1246</ele>
        <time>2019-04-18T17:38:45Z</time>
      </trkpt>
      <trkpt lat="44.57853" lon="6.37795">
        <ele>1246</ele>
        <time>2019-04-18T17:39:45Z</time>
      </trkpt>
      <trkpt lat="44.57811" lon="6.37778">
        <ele>1246</ele>
        <time>2019-04-18T17:40:45Z</time>
      </trkpt>
      <trkpt lat="44.57774" lon="6.37766">
        <ele>1247</ele>
        <time>2019-04-18T17:41:45Z</time>
      </trkpt>
      <trkpt lat="44.57752" lon="6.37757">
        <ele>1248</ele>
        <time>2019-04-18T17:42:45Z</time>
      </trkpt>
      <trkpt lat="44.5773" lon="6.37744">
        <ele>1251</ele>
        <time>2019-04-18T17:43:45Z</time>
      </trkpt>
      <trkpt lat="44.57707" lon="6.37733">
        <ele>1255</ele>
        <time>2019-04-18T17:44:45Z</time>
      </trkpt>
      <trkpt lat="44.57687" lon="6.37727">
        <ele>1258</ele>
        <time>2019-04-18T17:45:45Z</time>
      </trkpt>
      <trkpt lat="44.5767" lon="6.37733">
        <ele>1258</ele>
        <time>2019-04-18T17:46:45Z</time>
      </trkpt>
      <trkpt lat="44.57649" lon="6.37753">
        <ele>1256</ele>
        <time>2019-04-18T17:47:45Z</time>
      </trkpt>
      <trkpt lat="44.5764" lon="6.37768">
        <ele>1254</ele>
        <time>2019-04-18T17:48:45Z</time>
      </trkpt>
      <trkpt lat="44.57635" lon="6.37787">
        <ele>1250</ele>
        <time>2019-04-18T17:49:45Z</time>
      </trkpt>
      <trkpt lat="44.5762" lon="6.37816">
        <ele>1244</ele>
        <time>2019-04-18T17:50:45Z</time>
      </trkpt>
      <trkpt lat="44.57604" lon="6.37833">
        <ele>1242</ele>
        <time>2019-04-18T17:51:45Z</time>
      </trkpt>
      <trkpt lat="44.57547" lon="6.37864">
        <ele>1240</ele>
        <time>2019-04-18T17:52:45Z</time>
      </trkpt>
      <trkpt lat="44.5753" lon="6.3787">
        <ele>1239</ele>
        <time>2019-04-18T17:53:45Z</time>
      </trkpt>
      <trkpt lat="44.57473" lon="6.37858">
        <ele>1243</ele>
        <time>2019-04-18T17:54:45Z</time>
      </trkpt>
      <trkpt lat="44.57454" lon="6.37862">
        <ele>1243</ele>
        <time>2019-04-18T17:55:45Z</time>
      </trkpt>
      <trkpt lat="44.57439" lon="6.37871">
        <ele>1242</ele>
        <time>2019-04-18T17:56:45Z</time>
      </trkpt>
      <trkpt lat="44.57388" lon="6.37923">
        <ele>1237</ele>
        <time>2019-04-18T17:57:45Z</time>
      </trkpt>
      <trkpt lat="44.57369" lon="6.37938">
        <ele>1236</ele>
        <time>2019-04-18T17:58:45Z</time>
      </trkpt>
      <trkpt lat="44.57315" lon="6.37963">
        <ele>1233</ele>
        <time>2019-04-18T17:59:45Z</time>
      </trkpt>
      <trkpt lat="44.57292" lon="6.37965">
        <ele>1233</ele>
        <time>2019-04-18T18:00:45Z</time>
      </trkpt>
      <trkpt lat="44.5728" lon="6.37962">
        <ele>1232</ele>
        <time>2019-04-18T18:01:45Z</time>
      </trkpt>
      <trkpt lat="44.5727" lon="6.37954">
        <ele>1233</ele>
        <time>2019-04-18T18:02:45Z</time>
      </trkpt>
      <trkpt lat="44.57269" lon="6.37943">
        <ele>1235</ele>
        <time>2019-04-18T18:03:45Z</time>
      </trkpt>
      <trkpt lat="44.57264" lon="6.37933">
        <ele>1236</ele>
        <time>2019-04-18T18:04:45Z</time>
      </trkpt>
      <trkpt lat="44.57254" lon="6.3793">
        <ele>1236</ele>
        <time>2019-04-18T18:05:45Z</time>
      </trkpt>
      <trkpt lat="44.57246" lon="6.37934">
        <ele>1236</ele>
        <time>2019-04-18T18:06:45Z</time>
      </trkpt>
      <trkpt lat="44.57241" lon="6.37944">
        <ele>1234</ele>
        <time>2019-04-18T18:07:45Z</time>
      </trkpt>
      <trkpt lat="44.57241" lon="6.37953">
        <ele>1233</ele>
        <time>2019-04-18T18:08:45Z</time>
      </trkpt>
      <trkpt lat="44.57234" lon="6.37956">
        <ele>1233</ele>
        <time>2019-04-18T18:09:45Z</time>
      </trkpt>
      <trkpt lat="44.57167" lon="6.37971">
        <ele>1232</ele>
        <time>2019-04-18T18:10:45Z</time>
      </trkpt>
      <trkpt lat="44.57154" lon="6.37971">
        <ele>1230</ele>
        <time>2019-04-18T18:11:45Z</time>
      </trkpt>
      <trkpt lat="44.57142" lon="6.37967">
        <ele>1229</ele>
        <time>2019-04-18T18:12:45Z</time>
      </trkpt>
      <trkpt lat="44.57119" lon="6.37952">
        <ele>1230</ele>
        <time>2019-04-18T18:13:45Z</time>
      </trkpt>
      <trkpt lat="44.57046" lon="6.37873">
        <ele>1241</ele>
        <time>2019-04-18T18:14:45Z</time>
      </trkpt>
      <trkpt lat="44.57035" lon="6.37866">
        <ele>1242</ele>
        <time>2019-04-18T18:15:45Z</time>
      </trkpt>
      <trkpt lat="44.57022" lon="6.37864">
        <ele>1242</ele>
        <time>2019-04-18T18:16:45Z</time>
      </trkpt>
      <trkpt lat="44.5701" lon="6.37866">
        <ele>1242</ele>
        <time>2019-04-18T18:17:45Z</time>
      </trkpt>
      <trkpt lat="44.56903" lon="6.37905">
        <ele>1233</ele>
        <time>2019-04-18T18:18:45Z</time>
      </trkpt>
      <trkpt lat="44.56835" lon="6.37941">
        <ele>1231</ele>
        <time>2019-04-18T18:19:45Z</time>
      </trkpt>
      <trkpt lat="44.568" lon="6.37949">
        <ele>1229</ele>
        <time>2019-04-18T18:20:45Z</time>
      </trkpt>
      <trkpt lat="44.56753" lon="6.3797">
        <ele>1225</ele>
        <time>2019-04-18T18:21:45Z</time>
      </trkpt>
      <trkpt lat="44.56729" lon="6.37974">
        <ele>1225</ele>
        <time>2019-04-18T18:22:45Z</time>
      </trkpt>
      <trkpt lat="44.56705" lon="6.37969">
        <ele>1226</ele>
        <time>2019-04-18T18:23:45Z</time>
      </trkpt>
      <trkpt lat="44.56681" lon="6.3796">
        <ele>1227</ele>
        <time>2019-04-18T18:24:45Z</time>
      </trkpt>
      <trkpt lat="44.56651" lon="6.37943">
        <ele>1227</ele>
        <time>2019-04-18T18:25:45Z</time>
      </trkpt>
      <trkpt lat="44.56626" lon="6.37919">
        <ele>1228</ele>
        <time>2019-04-18T18:26:45Z</time>
      </trkpt>
      <trkpt lat="44.56616" lon="6.37914">
        <ele>1228</ele>
        <time>2019-04-18T18:27:45Z</time>
      </trkpt>
      <trkpt lat="44.56605" lon="6.37911">
        <ele>1228</ele>
        <time>2019-04-18T18:28:45Z</time>
      </trkpt>
      <trkpt lat="44.56594" lon="6.37911">
        <ele>1228</ele>
        <time>2019-04-18T18:29:45Z</time>
      </trkpt>
      <trkpt lat="44.56561" lon="6.37917">
        <ele>1225</ele>
        <time>2019-04-18T18:30:45Z</time>
      </trkpt>
      <trkpt lat="44.56528" lon="6.37916">
        <ele>1225</ele>
        <time>2019-04-18T18:31:45Z</time>
      </trkpt>
      <trkpt lat="44.56492" lon="6.37905">
        <ele>1226</ele>
        <time>2019-04-18T18:32:45Z</time>
      </trkpt>
      <trkpt lat="44.56402" lon="6.3787">
        <ele>1226</ele>
        <time>2019-04-18T18:33:45Z</time>
      </trkpt>
      <trkpt lat="44.56334" lon="6.37825">
        <ele>1226</ele>
        <time>2019-04-18T18:34:45Z</time>
      </trkpt>
      <trkpt lat="44.5629" lon="6.37789">
        <ele>1224</ele>
        <time>2019-04-18T18:35:45Z</time>
      </trkpt>
      <trkpt lat="44.5626" lon="6.3776">
        <ele>1224</ele>
        <time>2019-04-18T18:36:45Z</time>
      </trkpt>
      <trkpt lat="44.56244" lon="6.37737">
        <ele>1225</ele>
        <time>2019-04-18T18:37:45Z</time>
      </trkpt>
      <trkpt lat="44.56232" lon="6.37713">
        <ele>1228</ele>
        <time>2019-04-18T18:38:45Z</time>
      </trkpt>
      <trkpt lat="44.56216" lon="6.37691">
        <ele>1229</ele>
        <time>2019-04-18T18:39:45Z</time>
      </trkpt>
      <trkpt lat="44.562" lon="6.37678">
        <ele>1228</ele>
        <time>2019-04-18T18:40:45Z</time>
      </trkpt>
      <trkpt lat="44.56174" lon="6.37665">
        <ele>1225</ele>
        <time>2019-04-18T18:41:45Z</time>
      </trkpt>
      <trkpt lat="44.56152" lon="6.37651">
        <ele>1223</ele>
        <time>2019-04-18T18:42:45Z</time>
      </trkpt>
      <trkpt lat="44.56086" lon="6.37594">
        <ele>1226</ele>
        <time>2019-04-18T18:43:45Z</time>
      </trkpt>
      <trkpt lat="44.56043" lon="6.37567">
        <ele>1222</ele>
        <time>2019-04-18T18:44:45Z</time>
      </trkpt>
      <trkpt lat="44.56029" lon="6.3755">
        <ele>1222</ele>
        <time>2019-04-18T18:45:45Z</time>
      </trkpt>
      <trkpt lat="44.56016" lon="6.37491">
        <ele>1229</ele>
        <time>2019-04-18T18:46:45Z</time>
      </trkpt>
      <trkpt lat="44.56001" lon="6.37437">
        <ele>1231</ele>
        <time>2019-04-18T18:47:45Z</time>
      </trkpt>
      <trkpt lat="44.55995" lon="6.37319">
        <ele>1239</ele>
        <time>2019-04-18T18:48:45Z</time>
      </trkpt>
      <trkpt lat="44.5599" lon="6.37261">
        <ele>1243</ele>
        <time>2019-04-18T18:49:45Z</time>
      </trkpt>
      <trkpt lat="44.55968" lon="6.3717">
        <ele>1248</ele>
        <time>2019-04-18T18:50:45Z</time>
      </trkpt>
      <trkpt lat="44.5596" lon="6.37142">
        <ele>1249</ele>
        <time>2019-04-18T18:51:45Z</time>
      </trkpt>
      <trkpt lat="44.55953" lon="6.37126">
        <ele>1249</ele>
        <time>2019-04-18T18:52:45Z</time>
      </trkpt>
      <trkpt lat="44.55944" lon="6.37114">
        <ele>1248</ele>
        <time>2019-04-18T18:53:45Z</time>
      </trkpt>
      <trkpt lat="44.55935" lon="6.37107">
        <ele>1246</ele>
        <time>2019-04-18T18:54:45Z</time>
      </trkpt>
      <trkpt lat="44.55919" lon="6.37102">
        <ele>1243</ele>
        <time>2019-04-18T18:55:45Z</time>
      </trkpt>
      <trkpt lat="44.55897" lon="6.37104">
        <ele>1241</ele>
        <time>2019-04-18T18:56:45Z</time>
      </trkpt>
      <trkpt lat="44.55877" lon="6.37103">
        <ele>1240</ele>
        <time>2019-04-18T18:57:45Z</time>
      </trkpt>
      <trkpt lat="44.55866" lon="6.37098">
        <ele>1240</ele>
        <time>2019-04-18T18:58:45Z</time>
      </trkpt>
      <trkpt lat="44.55855" lon="6.37088">
        <ele>1241</ele>
        <time>2019-04-18T18:59:45Z</time>
      </trkpt>
      <trkpt lat="44.55847" lon="6.37077">
        <ele>1242</ele>
        <time>2019-04-18T19:00:45Z</time>
      </trkpt>
      <trkpt lat="44.55842" lon="6.37062">
        <ele>1243</ele>
        <time>2019-04-18T19:01:45Z</time>
      </trkpt>
      <trkpt lat="44.55837" lon="6.37035">
        <ele>1244</ele>
        <time>2019-04-18T19:02:45Z</time>
      </trkpt>
      <trkpt lat="44.55832" lon="6.36972">
        <ele>1249</ele>
        <time>2019-04-18T19:03:45Z</time>
      </trkpt>
      <trkpt lat="44.55828" lon="6.36955">
        <ele>1251</ele>
        <time>2019-04-18T19:04:45Z</time>
      </trkpt>
      <trkpt lat="44.55815" lon="6.36924">
        <ele>1253</ele>
        <time>2019-04-18T19:05:45Z</time>
      </trkpt>
      <trkpt lat="44.55797" lon="6.36898">
        <ele>1256</ele>
        <time>2019-04-18T19:06:45Z</time>
      </trkpt>
      <trkpt lat="44.55759" lon="6.36853">
        <ele>1258</ele>
        <time>2019-04-18T19:07:45Z</time>
      </trkpt>
      <trkpt lat="44.55718" lon="6.36825">
        <ele>1257</ele>
        <time>2019-04-18T19:08:45Z</time>
      </trkpt>
      <trkpt lat="44.55699" lon="6.36809">
        <ele>1257</ele>
        <time>2019-04-18T19:09:45Z</time>
      </trkpt>
      <trkpt lat="44.55677" lon="6.36778">
        <ele>1258</ele>
        <time>2019-04-18T19:10:45Z</time>
      </trkpt>
      <trkpt lat="44.55675" lon="6.36769">
        <ele>1258</ele>
        <time>2019-04-18T19:11:45Z</time>
      </trkpt>
      <trkpt lat="44.55657" lon="6.36729">
        <ele>1257</ele>
        <time>2019-04-18T19:12:45Z</time>
      </trkpt>
      <trkpt lat="44.5565" lon="6.36704">
        <ele>1256</ele>
        <time>2019-04-18T19:13:45Z</time>
      </trkpt>
      <trkpt lat="44.55646" lon="6.36677">
        <ele>1256</ele>
        <time>2019-04-18T19:14:45Z</time>
      </trkpt>
      <trkpt lat="44.55643" lon="6.36608">
        <ele>1255</ele>
        <time>2019-04-18T19:15:45Z</time>
      </trkpt>
      <trkpt lat="44.55647" lon="6.36585">
        <ele>1256</ele>
        <time>2019-04-18T19:16:45Z</time>
      </trkpt>
      <trkpt lat="44.55651" lon="6.36575">
        <ele>1258</ele>
        <time>2019-04-18T19:17:45Z</time>
      </trkpt>
      <trkpt lat="44.55657" lon="6.36567">
        <ele>1260</ele>
        <time>2019-04-18T19:18:45Z</time>
      </trkpt>
      <trkpt lat="44.55708" lon="6.36525">
        <ele>1272</ele>
        <time>2019-04-18T19:19:45Z</time>
      </trkpt>
      <trkpt lat="44.55714" lon="6.36517">
        <ele>1273</ele>
        <time>2019-04-18T19:20:45Z</time>
      </trkpt>
      <trkpt lat="44.55719" lon="6.36509">
        <ele>1273</ele>
        <time>2019-04-18T19:21:45Z</time>
      </trkpt>
      <trkpt lat="44.55721" lon="6.36498">
        <ele>1274</ele>
        <time>2019-04-18T19:22:45Z</time>
      </trkpt>
      <trkpt lat="44.5572" lon="6.36488">
        <ele>1275</ele>
        <time>2019-04-18T19:23:45Z</time>
      </trkpt>
      <trkpt lat="44.55717" lon="6.36479">
        <ele>1275</ele>
        <time>2019-04-18T19:24:45Z</time>
      </trkpt>
      <trkpt lat="44.5571" lon="6.36471">
        <ele>1274</ele>
        <time>2019-04-18T19:25:45Z</time>
      </trkpt>
      <trkpt lat="44.55685" lon="6.36453">
        <ele>1270</ele>
        <time>2019-04-18T19:26:45Z</time>
      </trkpt>
      <trkpt lat="44.55672" lon="6.36435">
        <ele>1270</ele>
        <time>2019-04-18T19:27:45Z</time>
      </trkpt>
      <trkpt lat="44.55669" lon="6.36423">
        <ele>1271</ele>
        <time>2019-04-18T19:28:45Z</time>
      </trkpt>
      <trkpt lat="44.55668" lon="6.3639">
        <ele>1274</ele>
        <time>2019-04-18T19:29:45Z</time>
      </trkpt>
      <trkpt lat="44.55667" lon="6.36377">
        <ele>1275</ele>
        <time>2019-04-18T19:30:45Z</time>
      </trkpt>
      <trkpt lat="44.55663" lon="6.36369">
        <ele>1275</ele>
        <time>2019-04-18T19:31:45Z</time>
      </trkpt>
      <trkpt lat="44.55657" lon="6.36361">
        <ele>1275</ele>
        <time>2019-04-18T19:32:45Z</time>
      </trkpt>
      <trkpt lat="44.55633" lon="6.36344">
        <ele>1273</ele>
        <time>2019-04-18T19:33:45Z</time>
      </trkpt>
      <trkpt lat="44.55627" lon="6.36337">
        <ele>1273</ele>
        <time>2019-04-18T19:34:45Z</time>
      </trkpt>
      <trkpt lat="44.55609" lon="6.36306">
        <ele>1276</ele>
        <time>2019-04-18T19:35:45Z</time>
      </trkpt>
      <trkpt lat="44.55579" lon="6.36264">
        <ele>1279</ele>
        <time>2019-04-18T19:36:45Z</time>
      </trkpt>
      <trkpt lat="44.55556" lon="6.36236">
        <ele>1278</ele>
        <time>2019-04-18T19:37:45Z</time>
      </trkpt>
      <trkpt lat="44.55539" lon="6.3622">
        <ele>1275</ele>
        <time>2019-04-18T19:38:45Z</time>
      </trkpt>
      <trkpt lat="44.55533" lon="6.362">
        <ele>1275</ele>
        <time>2019-04-18T19:39:45Z</time>
      </trkpt>
      <trkpt lat="44.5553" lon="6.36178">
        <ele>1276</ele>
        <time>2019-04-18T19:40:45Z</time>
      </trkpt>
      <trkpt lat="44.5553" lon="6.36164">
        <ele>1277</ele>
        <time>2019-04-18T19:41:45Z</time>
      </trkpt>
      <trkpt lat="44.55537" lon="6.36094">
        <ele>1279</ele>
        <time>2019-04-18T19:42:45Z</time>
      </trkpt>
      <trkpt lat="44.55546" lon="6.36059">
        <ele>1281</ele>
        <time>2019-04-18T19:43:45Z</time>
      </trkpt>
      <trkpt lat="44.55564" lon="6.36015">
        <ele>1283</ele>
        <time>2019-04-18T19:44:45Z</time>
      </trkpt>
      <trkpt lat="44.55569" lon="6.35991">
        <ele>1283</ele>
        <time>2019-04-18T19:45:45Z</time>
      </trkpt>
      <trkpt lat="44.55571" lon="6.35957">
        <ele>1281</ele>
        <time>2019-04-18T19:46:45Z</time>
      </trkpt>
      <trkpt lat="44.55574" lon="6.35943">
        <ele>1281</ele>
        <time>2019-04-18T19:47:45Z</time>
      </trkpt>
      <trkpt lat="44.55582" lon="6.35921">
        <ele>1281</ele>
        <time>2019-04-18T19:48:45Z</time>
      </trkpt>
      <trkpt lat="44.55593" lon="6.35901">
        <ele>1283</ele>
        <time>2019-04-18T19:49:45Z</time>
      </trkpt>
      <trkpt lat="44.55598" lon="6.35879">
        <ele>1283</ele>
        <time>2019-04-18T19:50:45Z</time>
      </trkpt>
      <trkpt lat="44.55598" lon="6.35854">
        <ele>1282</ele>
        <time>2019-04-18T19:51:45Z</time>
      </trkpt>
      <trkpt lat="44.55596" lon="6.35841">
        <ele>1281</ele>
        <time>2019-04-18T19:52:45Z</time>
      </trkpt>
      <trkpt lat="44.55589" lon="6.35817">
        <ele>1279</ele>
        <time>2019-04-18T19:53:45Z</time>
      </trkpt>
      <trkpt lat="44.55573" lon="6.3577">
        <ele>1278</ele>
        <time>2019-04-18T19:54:45Z</time>
      </trkpt>
      <trkpt lat="44.55571" lon="6.35752">
        <ele>1278</ele>
        <time>2019-04-18T19:55:45Z</time>
      </trkpt>
      <trkpt lat="44.55578" lon="6.3568">
        <ele>1277</ele>
        <time>2019-04-18T19:56:45Z</time>
      </trkpt>
      <trkpt lat="44.55575" lon="6.35656">
        <ele>1277</ele>
        <time>2019-04-18T19:57:45Z</time>
      </trkpt>
      <trkpt lat="44.55555" lon="6.35587">
        <ele>1274</ele>
        <time>2019-04-18T19:58:45Z</time>
      </trkpt>
      <trkpt lat="44.55545" lon="6.35543">
        <ele>1274</ele>
        <time>2019-04-18T19:59:45Z</time>
      </trkpt>
      <trkpt lat="44.55526" lon="6.35413">
        <ele>1274</ele>
        <time>2019-04-18T20:00:45Z</time>
      </trkpt>
      <trkpt lat="44.55524" lon="6.35386">
        <ele>1273</ele>
        <time>2019-04-18T20:01:45Z</time>
      </trkpt>
      <trkpt lat="44.55524" lon="6.35353">
        <ele>1272</ele>
        <time>2019-04-18T20:02:45Z</time>
      </trkpt>
      <trkpt lat="44.55528" lon="6.35321">
        <ele>1272</ele>
        <time>2019-04-18T20:03:45Z</time>
      </trkpt>
      <trkpt lat="44.55536" lon="6.3529">
        <ele>1272</ele>
        <time>2019-04-18T20:04:45Z</time>
      </trkpt>
      <trkpt lat="44.55549" lon="6.35263">
        <ele>1274</ele>
        <time>2019-04-18T20:05:45Z</time>
      </trkpt>
      <trkpt lat="44.55588" lon="6.3522">
        <ele>1283</ele>
        <time>2019-04-18T20:06:45Z</time>
      </trkpt>
      <trkpt lat="44.55595" lon="6.35207">
        <ele>1284</ele>
        <time>2019-04-18T20:07:45Z</time>
      </trkpt>
      <trkpt lat="44.55599" lon="6.35193">
        <ele>1283</ele>
        <time>2019-04-18T20:08:45Z</time>
      </trkpt>
      <trkpt lat="44.55599" lon="6.35178">
        <ele>1282</ele>
        <time>2019-04-18T20:09:45Z</time>
      </trkpt>
      <trkpt lat="44.55592" lon="6.35145">
        <ele>1279</ele>
        <time>2019-04-18T20:10:45Z</time>
      </trkpt>
      <trkpt lat="44.55585" lon="6.35132">
        <ele>1277</ele>
        <time>2019-04-18T20:11:45Z</time>
      </trkpt>
      <trkpt lat="44.55545" lon="6.35074">
        <ele>1273</ele>
        <time>2019-04-18T20:12:45Z</time>
      </trkpt>
      <trkpt lat="44.55517" lon="6.35031">
        <ele>1273</ele>
        <time>2019-04-18T20:13:45Z</time>
      </trkpt>
      <trkpt lat="44.55497" lon="6.35003">
        <ele>1272</ele>
        <time>2019-04-18T20:14:45Z</time>
      </trkpt>
      <trkpt lat="44.55439" lon="6.34935">
        <ele>1265</ele>
        <time>2019-04-18T20:15:45Z</time>
      </trkpt>
      <trkpt lat="44.5543" lon="6.3492">
        <ele>1264</ele>
        <time>2019-04-18T20:16:45Z</time>
      </trkpt>
      <trkpt lat="44.55418" lon="6.34888">
        <ele>1261</ele>
        <time>2019-04-18T20:17:45Z</time>
      </trkpt>
      <trkpt lat="44.55411" lon="6.34854">
        <ele>1259</ele>
        <time>2019-04-18T20:18:45Z</time>
      </trkpt>
      <trkpt lat="44.55411" lon="6.34821">
        <ele>1259</ele>
        <time>2019-04-18T20:19:45Z</time>
      </trkpt>
      <trkpt lat="44.55432" lon="6.34682">
        <ele>1254</ele>
        <time>2019-04-18T20:20:45Z</time>
      </trkpt>
      <trkpt lat="44.5545" lon="6.34582">
        <ele>1250</ele>
        <time>2019-04-18T20:21:45Z</time>
      </trkpt>
      <trkpt lat="44.55452" lon="6.34564">
        <ele>1249</ele>
        <time>2019-04-18T20:22:45Z</time>
      </trkpt>
      <trkpt lat="44.55456" lon="6.34392">
        <ele>1236</ele>
        <time>2019-04-18T20:23:45Z</time>
      </trkpt>
      <trkpt lat="44.55461" lon="6.34358">
        <ele>1235</ele>
        <time>2019-04-18T20:24:45Z</time>
      </trkpt>
      <trkpt lat="44.55471" lon="6.34309">
        <ele>1235</ele>
        <time>2019-04-18T20:25:45Z</time>
      </trkpt>
      <trkpt lat="44.55487" lon="6.34275">
        <ele>1239</ele>
        <time>2019-04-18T20:26:45Z</time>
      </trkpt>
      <trkpt lat="44.5549" lon="6.34263">
        <ele>1239</ele>
        <time>2019-04-18T20:27:45Z</time>
      </trkpt>
      <trkpt lat="44.55488" lon="6.34251">
        <ele>1238</ele>
        <time>2019-04-18T20:28:45Z</time>
      </trkpt>
      <trkpt lat="44.55485" lon="6.34242">
        <ele>1237</ele>
        <time>2019-04-18T20:29:45Z</time>
      </trkpt>
      <trkpt lat="44.55464" lon="6.34221">
        <ele>1230</ele>
        <time>2019-04-18T20:30:45Z</time>
      </trkpt>
      <trkpt lat="44.55457" lon="6.3421">
        <ele>1227</ele>
        <time>2019-04-18T20:31:45Z</time>
      </trkpt>
      <trkpt lat="44.55448" lon="6.34181">
        <ele>1224</ele>
        <time>2019-04-18T20:32:45Z</time>
      </trkpt>
      <trkpt lat="44.55438" lon="6.34125">
        <ele>1221</ele>
        <time>2019-04-18T20:33:45Z</time>
      </trkpt>
      <trkpt lat="44.55432" lon="6.34066">
        <ele>1219</ele>
        <time>2019-04-18T20:34:45Z</time>
      </trkpt>
      <trkpt lat="44.55423" lon="6.34007">
        <ele>1218</ele>
        <time>2019-04-18T20:35:45Z</time>
      </trkpt>
      <trkpt lat="44.55421" lon="6.3397">
        <ele>1217</ele>
        <time>2019-04-18T20:36:45Z</time>
      </trkpt>
      <trkpt lat="44.55422" lon="6.33953">
        <ele>1217</ele>
        <time>2019-04-18T20:37:45Z</time>
      </trkpt>
      <trkpt lat="44.55432" lon="6.33904">
        <ele>1218</ele>
        <time>2019-04-18T20:38:45Z</time>
      </trkpt>
      <trkpt lat="44.55435" lon="6.33853">
        <ele>1217</ele>
        <time>2019-04-18T20:39:45Z</time>
      </trkpt>
      <trkpt lat="44.55438" lon="6.33837">
        <ele>1217</ele>
        <time>2019-04-18T20:40:45Z</time>
      </trkpt>
      <trkpt lat="44.55448" lon="6.33805">
        <ele>1219</ele>
        <time>2019-04-18T20:41:45Z</time>
      </trkpt>
      <trkpt lat="44.55452" lon="6.33789">
        <ele>1219</ele>
        <time>2019-04-18T20:42:45Z</time>
      </trkpt>
      <trkpt lat="44.55452" lon="6.33774">
        <ele>1218</ele>
        <time>2019-04-18T20:43:45Z</time>
      </trkpt>
      <trkpt lat="44.55446" lon="6.33726">
        <ele>1214</ele>
        <time>2019-04-18T20:44:45Z</time>
      </trkpt>
      <trkpt lat="44.55447" lon="6.33712">
        <ele>1213</ele>
        <time>2019-04-18T20:45:45Z</time>
      </trkpt>
      <trkpt lat="44.55451" lon="6.33699">
        <ele>1213</ele>
        <time>2019-04-18T20:46:45Z</time>
      </trkpt>
      <trkpt lat="44.55456" lon="6.33689">
        <ele>1214</ele>
        <time>2019-04-18T20:47:45Z</time>
      </trkpt>
      <trkpt lat="44.5548" lon="6.33672">
        <ele>1217</ele>
        <time>2019-04-18T20:48:45Z</time>
      </trkpt>
      <trkpt lat="44.55486" lon="6.33664">
        <ele>1218</ele>
        <time>2019-04-18T20:49:45Z</time>
      </trkpt>
      <trkpt lat="44.55487" lon="6.33631">
        <ele>1223</ele>
        <time>2019-04-18T20:50:45Z</time>
      </trkpt>
      <trkpt lat="44.55482" lon="6.33624">
        <ele>1222</ele>
        <time>2019-04-18T20:51:45Z</time>
      </trkpt>
      <trkpt lat="44.55475" lon="6.33619">
        <ele>1222</ele>
        <time>2019-04-18T20:52:45Z</time>
      </trkpt>
      <trkpt lat="44.55442" lon="6.33617">
        <ele>1215</ele>
        <time>2019-04-18T20:53:45Z</time>
      </trkpt>
      <trkpt lat="44.5543" lon="6.33613">
        <ele>1213</ele>
        <time>2019-04-18T20:54:45Z</time>
      </trkpt>
      <trkpt lat="44.55393" lon="6.33591">
        <ele>1206</ele>
        <time>2019-04-18T20:55:45Z</time>
      </trkpt>
      <trkpt lat="44.55371" lon="6.3357">
        <ele>1201</ele>
        <time>2019-04-18T20:56:45Z</time>
      </trkpt>
      <trkpt lat="44.55361" lon="6.33557">
        <ele>1199</ele>
        <time>2019-04-18T20:57:45Z</time>
      </trkpt>
      <trkpt lat="44.55355" lon="6.33542">
        <ele>1198</ele>
        <time>2019-04-18T20:58:45Z</time>
      </trkpt>
      <trkpt lat="44.5535" lon="6.33526">
        <ele>1199</ele>
        <time>2019-04-18T20:59:45Z</time>
      </trkpt>
      <trkpt lat="44.55342" lon="6.33475">
        <ele>1199</ele>
        <time>2019-04-18T21:00:45Z</time>
      </trkpt>
      <trkpt lat="44.55341" lon="6.33458">
        <ele>1199</ele>
        <time>2019-04-18T21:01:45Z</time>
      </trkpt>
      <trkpt lat="44.55343" lon="6.33423">
        <ele>1200</ele>
        <time>2019-04-18T21:02:45Z</time>
      </trkpt>
      <trkpt lat="44.55345" lon="6.33407">
        <ele>1200</ele>
        <time>2019-04-18T21:03:45Z</time>
      </trkpt>
      <trkpt lat="44.55349" lon="6.3339">
        <ele>1201</ele>
        <time>2019-04-18T21:04:45Z</time>
      </trkpt>
      <trkpt lat="44.55355" lon="6.33376">
        <ele>1202</ele>
        <time>2019-04-18T21:05:45Z</time>
      </trkpt>
      <trkpt lat="44.55369" lon="6.33351">
        <ele>1205</ele>
        <time>2019-04-18T21:06:45Z</time>
      </trkpt>
      <trkpt lat="44.55375" lon="6.33337">
        <ele>1206</ele>
        <time>2019-04-18T21:07:45Z</time>
      </trkpt>
      <trkpt lat="44.55379" lon="6.33322">
        <ele>1207</ele>
        <time>2019-04-18T21:08:45Z</time>
      </trkpt>
      <trkpt lat="44.55382" lon="6.33306">
        <ele>1209</ele>
        <time>2019-04-18T21:09:45Z</time>
      </trkpt>
      <trkpt lat="44.55382" lon="6.33291">
        <ele>1209</ele>
        <time>2019-04-18T21:10:45Z</time>
      </trkpt>
      <trkpt lat="44.5538" lon="6.33276">
        <ele>1209</ele>
        <time>2019-04-18T21:11:45Z</time>
      </trkpt>
      <trkpt lat="44.55376" lon="6.33264">
        <ele>1209</ele>
        <time>2019-04-18T21:12:45Z</time>
      </trkpt>
      <trkpt lat="44.55369" lon="6.33256">
        <ele>1208</ele>
        <time>2019-04-18T21:13:45Z</time>
      </trkpt>
      <trkpt lat="44.55361" lon="6.33253">
        <ele>1207</ele>
        <time>2019-04-18T21:14:45Z</time>
      </trkpt>
      <trkpt lat="44.55352" lon="6.33254">
        <ele>1205</ele>
        <time>2019-04-18T21:15:45Z</time>
      </trkpt>
      <trkpt lat="44.55322" lon="6.33266">
        <ele>1200</ele>
        <time>2019-04-18T21:16:45Z</time>
      </trkpt>
      <trkpt lat="44.5526" lon="6.33287">
        <ele>1193</ele>
        <time>2019-04-18T21:17:45Z</time>
      </trkpt>
      <trkpt lat="44.55206" lon="6.33301">
        <ele>1190</ele>
        <time>2019-04-18T21:18:45Z</time>
      </trkpt>
      <trkpt lat="44.55192" lon="6.333">
        <ele>1190</ele>
        <time>2019-04-18T21:19:45Z</time>
      </trkpt>
      <trkpt lat="44.55181" lon="6.33294">
        <ele>1190</ele>
        <time>2019-04-18T21:20:45Z</time>
      </trkpt>
      <trkpt lat="44.5517" lon="6.33285">
        <ele>1191</ele>
        <time>2019-04-18T21:21:45Z</time>
      </trkpt>
      <trkpt lat="44.55119" lon="6.3323">
        <ele>1190</ele>
        <time>2019-04-18T21:22:45Z</time>
      </trkpt>
      <trkpt lat="44.55106" lon="6.33215">
        <ele>1190</ele>
        <time>2019-04-18T21:23:45Z</time>
      </trkpt>
      <trkpt lat="44.551" lon="6.33206">
        <ele>1190</ele>
        <time>2019-04-18T21:24:45Z</time>
      </trkpt>
      <trkpt lat="44.55095" lon="6.33193">
        <ele>1190</ele>
        <time>2019-04-18T21:25:45Z</time>
      </trkpt>
      <trkpt lat="44.55078" lon="6.33142">
        <ele>1191</ele>
        <time>2019-04-18T21:26:45Z</time>
      </trkpt>
      <trkpt lat="44.55071" lon="6.33124">
        <ele>1191</ele>
        <time>2019-04-18T21:27:45Z</time>
      </trkpt>
      <trkpt lat="44.55053" lon="6.3309">
        <ele>1191</ele>
        <time>2019-04-18T21:28:45Z</time>
      </trkpt>
      <trkpt lat="44.55013" lon="6.33029">
        <ele>1187</ele>
        <time>2019-04-18T21:29:45Z</time>
      </trkpt>
      <trkpt lat="44.5495" lon="6.32895">
        <ele>1174</ele>
        <time>2019-04-18T21:30:45Z</time>
      </trkpt>
      <trkpt lat="44.54946" lon="6.3286">
        <ele>1169</ele>
        <time>2019-04-18T21:31:45Z</time>
      </trkpt>
      <trkpt lat="44.54958" lon="6.32733">
        <ele>1161</ele>
        <time>2019-04-18T21:32:45Z</time>
      </trkpt>
      <trkpt lat="44.54967" lon="6.32666">
        <ele>1158</ele>
        <time>2019-04-18T21:33:45Z</time>
      </trkpt>
      <trkpt lat="44.54978" lon="6.32571">
        <ele>1154</ele>
        <time>2019-04-18T21:34:45Z</time>
      </trkpt>
      <trkpt lat="44.54995" lon="6.32484">
        <ele>1154</ele>
        <time>2019-04-18T21:35:45Z</time>
      </trkpt>
      <trkpt lat="44.54995" lon="6.32466">
        <ele>1156</ele>
        <time>2019-04-18T21:36:45Z</time>
      </trkpt>
      <trkpt lat="44.54991" lon="6.32459">
        <ele>1155</ele>
        <time>2019-04-18T21:37:45Z</time>
      </trkpt>
      <trkpt lat="44.54985" lon="6.32453">
        <ele>1154</ele>
        <time>2019-04-18T21:38:45Z</time>
      </trkpt>
      <trkpt lat="44.54957" lon="6.3243">
        <ele>1145</ele>
        <time>2019-04-18T21:39:45Z</time>
      </trkpt>
      <trkpt lat="44.54947" lon="6.32419">
        <ele>1142</ele>
        <time>2019-04-18T21:40:45Z</time>
      </trkpt>
      <trkpt lat="44.54939" lon="6.32407">
        <ele>1139</ele>
        <time>2019-04-18T21:41:45Z</time>
      </trkpt>
      <trkpt lat="44.54932" lon="6.32394">
        <ele>1137</ele>
        <time>2019-04-18T21:42:45Z</time>
      </trkpt>
      <trkpt lat="44.54922" lon="6.32362">
        <ele>1134</ele>
        <time>2019-04-18T21:43:45Z</time>
      </trkpt>
      <trkpt lat="44.54915" lon="6.32324">
        <ele>1131</ele>
        <time>2019-04-18T21:44:45Z</time>
      </trkpt>
      <trkpt lat="44.54913" lon="6.32304">
        <ele>1130</ele>
        <time>2019-04-18T21:45:45Z</time>
      </trkpt>
      <trkpt lat="44.54912" lon="6.32212">
        <ele>1126</ele>
        <time>2019-04-18T21:46:45Z</time>
      </trkpt>
      <trkpt lat="44.54914" lon="6.32141">
        <ele>1121</ele>
        <time>2019-04-18T21:47:45Z</time>
      </trkpt>
      <trkpt lat="44.54922" lon="6.3202">
        <ele>1111</ele>
        <time>2019-04-18T21:48:45Z</time>
      </trkpt>
      <trkpt lat="44.54928" lon="6.31973">
        <ele>1108</ele>
        <time>2019-04-18T21:49:45Z</time>
      </trkpt>
      <trkpt lat="44.54946" lon="6.31858">
        <ele>1101</ele>
        <time>2019-04-18T21:50:45Z</time>
      </trkpt>
      <trkpt lat="44.54962" lon="6.31798">
        <ele>1099</ele>
        <time>2019-04-18T21:51:45Z</time>
      </trkpt>
      <trkpt lat="44.54975" lon="6.31719">
        <ele>1093</ele>
        <time>2019-04-18T21:52:45Z</time>
      </trkpt>
      <trkpt lat="44.54989" lon="6.31672">
        <ele>1091</ele>
        <time>2019-04-18T21:53:45Z</time>
      </trkpt>
      <trkpt lat="44.54991" lon="6.31656">
        <ele>1090</ele>
        <time>2019-04-18T21:54:45Z</time>
      </trkpt>
      <trkpt lat="44.54989" lon="6.3164">
        <ele>1088</ele>
        <time>2019-04-18T21:55:45Z</time>
      </trkpt>
      <trkpt lat="44.54984" lon="6.31624">
        <ele>1086</ele>
        <time>2019-04-18T21:56:45Z</time>
      </trkpt>
      <trkpt lat="44.54964" lon="6.31581">
        <ele>1077</ele>
        <time>2019-04-18T21:57:45Z</time>
      </trkpt>
      <trkpt lat="44.54959" lon="6.31562">
        <ele>1075</ele>
        <time>2019-04-18T21:58:45Z</time>
      </trkpt>
      <trkpt lat="44.54956" lon="6.31541">
        <ele>1075</ele>
        <time>2019-04-18T21:59:45Z</time>
      </trkpt>
      <trkpt lat="44.54954" lon="6.31499">
        <ele>1074</ele>
        <time>2019-04-18T22:00:45Z</time>
      </trkpt>
      <trkpt lat="44.54952" lon="6.31391">
        <ele>1066</ele>
        <time>2019-04-18T22:01:45Z</time>
      </trkpt>
      <trkpt lat="44.54954" lon="6.31336">
        <ele>1062</ele>
        <time>2019-04-18T22:02:45Z</time>
      </trkpt>
      <trkpt lat="44.54958" lon="6.3132">
        <ele>1062</ele>
        <time>2019-04-18T22:03:45Z</time>
      </trkpt>
      <trkpt lat="44.54963" lon="6.31307">
        <ele>1063</ele>
        <time>2019-04-18T22:04:45Z</time>
      </trkpt>
      <trkpt lat="44.54975" lon="6.31287">
        <ele>1066</ele>
        <time>2019-04-18T22:05:45Z</time>
      </trkpt>
      <trkpt lat="44.54979" lon="6.31275">
        <ele>1066</ele>
        <time>2019-04-18T22:06:45Z</time>
      </trkpt>
      <trkpt lat="44.54978" lon="6.31263">
        <ele>1066</ele>
        <time>2019-04-18T22:07:45Z</time>
      </trkpt>
      <trkpt lat="44.54975" lon="6.31252">
        <ele>1065</ele>
        <time>2019-04-18T22:08:45Z</time>
      </trkpt>
      <trkpt lat="44.54968" lon="6.31244">
        <ele>1063</ele>
        <time>2019-04-18T22:09:45Z</time>
      </trkpt>
      <trkpt lat="44.54922" lon="6.31216">
        <ele>1054</ele>
        <time>2019-04-18T22:10:45Z</time>
      </trkpt>
      <trkpt lat="44.5491" lon="6.31205">
        <ele>1052</ele>
        <time>2019-04-18T22:11:45Z</time>
      </trkpt>
      <trkpt lat="44.54898" lon="6.31189">
        <ele>1051</ele>
        <time>2019-04-18T22:12:45Z</time>
      </trkpt>
      <trkpt lat="44.54877" lon="6.31154">
        <ele>1049</ele>
        <time>2019-04-18T22:13:45Z</time>
      </trkpt>
      <trkpt lat="44.54849" lon="6.31093">
        <ele>1047</ele>
        <time>2019-04-18T22:14:45Z</time>
      </trkpt>
      <trkpt lat="44.54821" lon="6.31015">
        <ele>1043</ele>
        <time>2019-04-18T22:15:45Z</time>
      </trkpt>
      <trkpt lat="44.54816" lon="6.30994">
        <ele>1043</ele>
        <time>2019-04-18T22:16:45Z</time>
      </trkpt>
      <trkpt lat="44.54807" lon="6.30939">
        <ele>1040</ele>
        <time>2019-04-18T22:17:45Z</time>
      </trkpt>
      <trkpt lat="44.5481" lon="6.309">
        <ele>1040</ele>
        <time>2019-04-18T22:18:45Z</time>
      </trkpt>
      <trkpt lat="44.5483" lon="6.30745">
        <ele>1034</ele>
        <time>2019-04-18T22:19:45Z</time>
      </trkpt>
      <trkpt lat="44.54836" lon="6.30643">
        <ele>1032</ele>
        <time>2019-04-18T22:20:45Z</time>
      </trkpt>
      <trkpt lat="44.54836" lon="6.3058">
        <ele>1029</ele>
        <time>2019-04-18T22:21:45Z</time>
      </trkpt>
      <trkpt lat="44.54839" lon="6.30553">
        <ele>1028</ele>
        <time>2019-04-18T22:22:45Z</time>
      </trkpt>
      <trkpt lat="44.54849" lon="6.30503">
        <ele>1027</ele>
        <time>2019-04-18T22:23:45Z</time>
      </trkpt>
      <trkpt lat="44.54873" lon="6.30433">
        <ele>1027</ele>
        <time>2019-04-18T22:24:45Z</time>
      </trkpt>
      <trkpt lat="44.54885" lon="6.30384">
        <ele>1026</ele>
        <time>2019-04-18T22:25:45Z</time>
      </trkpt>
      <trkpt lat="44.54889" lon="6.30358">
        <ele>1025</ele>
        <time>2019-04-18T22:26:45Z</time>
      </trkpt>
      <trkpt lat="44.54891" lon="6.3029">
        <ele>1023</ele>
        <time>2019-04-18T22:27:45Z</time>
      </trkpt>
      <trkpt lat="44.5488" lon="6.30179">
        <ele>1019</ele>
        <time>2019-04-18T22:28:45Z</time>
      </trkpt>
      <trkpt lat="44.54878" lon="6.30154">
        <ele>1019</ele>
        <time>2019-04-18T22:29:45Z</time>
      </trkpt>
      <trkpt lat="44.54879" lon="6.3013">
        <ele>1018</ele>
        <time>2019-04-18T22:30:45Z</time>
      </trkpt>
      <trkpt lat="44.54883" lon="6.30106">
        <ele>1018</ele>
        <time>2019-04-18T22:31:45Z</time>
      </trkpt>
      <trkpt lat="44.54889" lon="6.30082">
        <ele>1018</ele>
        <time>2019-04-18T22:32:45Z</time>
      </trkpt>
      <trkpt lat="44.54897" lon="6.30058">
        <ele>1018</ele>
        <time>2019-04-18T22:33:45Z</time>
      </trkpt>
      <trkpt lat="44.54952" lon="6.29945">
        <ele>1014</ele>
        <time>2019-04-18T22:34:45Z</time>
      </trkpt>
      <trkpt lat="44.54983" lon="6.29876">
        <ele>1010</ele>
        <time>2019-04-18T22:35:45Z</time>
      </trkpt>
      <trkpt lat="44.5499" lon="6.29852">
        <ele>1008</ele>
        <time>2019-04-18T22:36:45Z</time>
      </trkpt>
      <trkpt lat="44.54994" lon="6.29828">
        <ele>1005</ele>
        <time>2019-04-18T22:37:45Z</time>
      </trkpt>
      <trkpt lat="44.54996" lon="6.29805">
        <ele>1003</ele>
        <time>2019-04-18T22:38:45Z</time>
      </trkpt>
      <trkpt lat="44.54995" lon="6.29782">
        <ele>1002</ele>
        <time>2019-04-18T22:39:45Z</time>
      </trkpt>
      <trkpt lat="44.5498" lon="6.29714">
        <ele>999</ele>
        <time>2019-04-18T22:40:45Z</time>
      </trkpt>
      <trkpt lat="44.54976" lon="6.2969">
        <ele>998</ele>
        <time>2019-04-18T22:41:45Z</time>
      </trkpt>
      <trkpt lat="44.54976" lon="6.29667">
        <ele>997</ele>
        <time>2019-04-18T22:42:45Z</time>
      </trkpt>
      <trkpt lat="44.54978" lon="6.29643">
        <ele>996</ele>
        <time>2019-04-18T22:43:45Z</time>
      </trkpt>
      <trkpt lat="44.54983" lon="6.2962">
        <ele>994</ele>
        <time>2019-04-18T22:44:45Z</time>
      </trkpt>
      <trkpt lat="44.54991" lon="6.29599">
        <ele>992</ele>
        <time>2019-04-18T22:45:45Z</time>
      </trkpt>
      <trkpt lat="44.5502" lon="6.29547">
        <ele>992</ele>
        <time>2019-04-18T22:46:45Z</time>
      </trkpt>
      <trkpt lat="44.55028" lon="6.29529">
        <ele>992</ele>
        <time>2019-04-18T22:47:45Z</time>
      </trkpt>
      <trkpt lat="44.55041" lon="6.29485">
        <ele>990</ele>
        <time>2019-04-18T22:48:45Z</time>
      </trkpt>
      <trkpt lat="44.55057" lon="6.29443">
        <ele>987</ele>
        <time>2019-04-18T22:49:45Z</time>
      </trkpt>
      <trkpt lat="44.55083" lon="6.29398">
        <ele>984</ele>
        <time>2019-04-18T22:50:45Z</time>
      </trkpt>
      <trkpt lat="44.5509" lon="6.29375">
        <ele>984</ele>
        <time>2019-04-18T22:51:45Z</time>
      </trkpt>
      <trkpt lat="44.55092" lon="6.29355">
        <ele>982</ele>
        <time>2019-04-18T22:52:45Z</time>
      </trkpt>
      <trkpt lat="44.55089" lon="6.29334">
        <ele>979</ele>
        <time>2019-04-18T22:53:45Z</time>
      </trkpt>
      <trkpt lat="44.55081" lon="6.29312">
        <ele>978</ele>
        <time>2019-04-18T22:54:45Z</time>
      </trkpt>
      <trkpt lat="44.5506" lon="6.29269">
        <ele>976</ele>
        <time>2019-04-18T22:55:45Z</time>
      </trkpt>
      <trkpt lat="44.55026" lon="6.29212">
        <ele>971</ele>
        <time>2019-04-18T22:56:45Z</time>
      </trkpt>
      <trkpt lat="44.55007" lon="6.29192">
        <ele>968</ele>
        <time>2019-04-18T22:57:45Z</time>
      </trkpt>
      <trkpt lat="44.54991" lon="6.2918">
        <ele>966</ele>
        <time>2019-04-18T22:58:45Z</time>
      </trkpt>
      <trkpt lat="44.54975" lon="6.2917">
        <ele>964</ele>
        <time>2019-04-18T22:59:45Z</time>
      </trkpt>
      <trkpt lat="44.54957" lon="6.29164">
        <ele>962</ele>
        <time>2019-04-18T23:00:45Z</time>
      </trkpt>
      <trkpt lat="44.54928" lon="6.29159">
        <ele>959</ele>
        <time>2019-04-18T23:01:45Z</time>
      </trkpt>
      <trkpt lat="44.549" lon="6.29162">
        <ele>957</ele>
        <time>2019-04-18T23:02:45Z</time>
      </trkpt>
      <trkpt lat="44.54841" lon="6.29174">
        <ele>952</ele>
        <time>2019-04-18T23:03:45Z</time>
      </trkpt>
      <trkpt lat="44.5482" lon="6.29175">
        <ele>950</ele>
        <time>2019-04-18T23:04:45Z</time>
      </trkpt>
      <trkpt lat="44.54799" lon="6.29173">
        <ele>947</ele>
        <time>2019-04-18T23:05:45Z</time>
      </trkpt>
      <trkpt lat="44.54779" lon="6.29168">
        <ele>945</ele>
        <time>2019-04-18T23:06:45Z</time>
      </trkpt>
      <trkpt lat="44.5474" lon="6.29155">
        <ele>941</ele>
        <time>2019-04-18T23:07:45Z</time>
      </trkpt>
      <trkpt lat="44.54703" lon="6.29136">
        <ele>938</ele>
        <time>2019-04-18T23:08:45Z</time>
      </trkpt>
      <trkpt lat="44.54686" lon="6.29125">
        <ele>936</ele>
        <time>2019-04-18T23:09:45Z</time>
      </trkpt>
      <trkpt lat="44.5467" lon="6.29111">
        <ele>935</ele>
        <time>2019-04-18T23:10:45Z</time>
      </trkpt>
      <trkpt lat="44.54656" lon="6.29093">
        <ele>934</ele>
        <time>2019-04-18T23:11:45Z</time>
      </trkpt>
      <trkpt lat="44.54647" lon="6.29072">
        <ele>934</ele>
        <time>2019-04-18T23:12:45Z</time>
      </trkpt>
      <trkpt lat="44.54638" lon="6.29049">
        <ele>932</ele>
        <time>2019-04-18T23:13:45Z</time>
      </trkpt>
      <trkpt lat="44.54608" lon="6.2895">
        <ele>927</ele>
        <time>2019-04-18T23:14:45Z</time>
      </trkpt>
      <trkpt lat="44.54599" lon="6.28927">
        <ele>925</ele>
        <time>2019-04-18T23:15:45Z</time>
      </trkpt>
      <trkpt lat="44.54588" lon="6.28906">
        <ele>923</ele>
        <time>2019-04-18T23:16:45Z</time>
      </trkpt>
      <trkpt lat="44.54574" lon="6.28889">
        <ele>922</ele>
        <time>2019-04-18T23:17:45Z</time>
      </trkpt>
      <trkpt lat="44.54558" lon="6.28877">
        <ele>920</ele>
        <time>2019-04-18T23:18:45Z</time>
      </trkpt>
      <trkpt lat="44.54523" lon="6.2886">
        <ele>917</ele>
        <time>2019-04-18T23:19:45Z</time>
      </trkpt>
      <trkpt lat="44.54337" lon="6.28795">
        <ele>905</ele>
        <time>2019-04-18T23:20:45Z</time>
      </trkpt>
      <trkpt lat="44.5432" lon="6.28786">
        <ele>904</ele>
        <time>2019-04-18T23:21:45Z</time>
      </trkpt>
      <trkpt lat="44.54304" lon="6.28775">
        <ele>904</ele>
        <time>2019-04-18T23:22:45Z</time>
      </trkpt>
      <trkpt lat="44.54291" lon="6.2876">
        <ele>903</ele>
        <time>2019-04-18T23:23:45Z</time>
      </trkpt>
      <trkpt lat="44.54279" lon="6.28742">
        <ele>902</ele>
        <time>2019-04-18T23:24:45Z</time>
      </trkpt>
      <trkpt lat="44.54272" lon="6.28723">
        <ele>900</ele>
        <time>2019-04-18T23:25:45Z</time>
      </trkpt>
      <trkpt lat="44.54266" lon="6.28701">
        <ele>899</ele>
        <time>2019-04-18T23:26:45Z</time>
      </trkpt>
      <trkpt lat="44.54262" lon="6.28677">
        <ele>897</ele>
        <time>2019-04-18T23:27:45Z</time>
      </trkpt>
      <trkpt lat="44.54257" lon="6.28604">
        <ele>892</ele>
        <time>2019-04-18T23:28:45Z</time>
      </trkpt>
      <trkpt lat="44.54244" lon="6.28506">
        <ele>886</ele>
        <time>2019-04-18T23:29:45Z</time>
      </trkpt>
      <trkpt lat="44.54238" lon="6.28395">
        <ele>882</ele>
        <time>2019-04-18T23:30:45Z</time>
      </trkpt>
      <trkpt lat="44.5423" lon="6.28371">
        <ele>880</ele>
        <time>2019-04-18T23:31:45Z</time>
      </trkpt>
      <trkpt lat="44.54299" lon="6.28246">
        <ele>874</ele>
        <time>2019-04-18T23:32:45Z</time>
      </trkpt>
      <trkpt lat="44.5431" lon="6.2823">
        <ele>873</ele>
        <time>2019-04-18T23:33:45Z</time>
      </trkpt>
      <trkpt lat="44.54327" lon="6.28211">
        <ele>871</ele>
        <time>2019-04-18T23:34:45Z</time>
      </trkpt>
      <trkpt lat="44.54373" lon="6.28176">
        <ele>869</ele>
        <time>2019-04-18T23:35:45Z</time>
      </trkpt>
      <trkpt lat="44.5439" lon="6.28157">
        <ele>867</ele>
        <time>2019-04-18T23:36:45Z</time>
      </trkpt>
      <trkpt lat="44.54406" lon="6.28121">
        <ele>867</ele>
        <time>2019-04-18T23:37:45Z</time>
      </trkpt>
      <trkpt lat="44.54502" lon="6.27807">
        <ele>868</ele>
        <time>2019-04-18T23:38:45Z</time>
      </trkpt>
      <trkpt lat="44.54584" lon="6.27838">
        <ele>869</ele>
        <time>2019-04-18T23:39:45Z</time>
      </trkpt>
      <trkpt lat="44.54653" lon="6.27876">
        <ele>874</ele>
        <time>2019-04-18T23:40:45Z</time>
      </trkpt>
      <trkpt lat="44.54706" lon="6.27888">
        <ele>877</ele>
        <time>2019-04-18T23:41:45Z</time>
      </trkpt>
      <trkpt lat="44.5471" lon="6.27838">
        <ele>876</ele>
        <time>2019-04-18T23:42:45Z</time>
      </trkpt>
      <trkpt lat="44.54727" lon="6.2778">
        <ele>875</ele>
        <time>2019-04-18T23:43:45Z</time>
      </trkpt>
      <trkpt lat="44.54729" lon="6.27766">
        <ele>874</ele>
        <time>2019-04-18T23:44:45Z</time>
      </trkpt>
      <trkpt lat="44.54738" lon="6.2776">
        <ele>874</ele>
        <time>2019-04-18T23:45:45Z</time>
      </trkpt>
      <trkpt lat="44.54767" lon="6.27728">
        <ele>874</ele>
        <time>2019-04-18T23:46:45Z</time>
      </trkpt>
      <trkpt lat="44.548" lon="6.27722">
        <ele>875</ele>
        <time>2019-04-18T23:47:45Z</time>
      </trkpt>
      <trkpt lat="44.54833" lon="6.27662">
        <ele>876</ele>
        <time>2019-04-18T23:48:45Z</time>
      </trkpt>
      <trkpt lat="44.54898" lon="6.27554">
        <ele>876</ele>
        <time>2019-04-18T23:49:45Z</time>
      </trkpt>
      <trkpt lat="44.54939" lon="6.27496">
        <ele>876</ele>
        <time>2019-04-18T23:50:45Z</time>
      </trkpt>
      <trkpt lat="44.54976" lon="6.27439">
        <ele>875</ele>
        <time>2019-04-18T23:51:45Z</time>
      </trkpt>
      <trkpt lat="44.55015" lon="6.27384">
        <ele>875</ele>
        <time>2019-04-18T23:52:45Z</time>
      </trkpt>
      <trkpt lat="44.55039" lon="6.27344">
        <ele>874</ele>
        <time>2019-04-18T23:53:45Z</time>
      </trkpt>
      <trkpt lat="44.55074" lon="6.27273">
        <ele>872</ele>
        <time>2019-04-18T23:54:45Z</time>
      </trkpt>
      <trkpt lat="44.55095" lon="6.27247">
        <ele>871</ele>
        <time>2019-04-18T23:55:45Z</time>
      </trkpt>
      <trkpt lat="44.55156" lon="6.2719">
        <ele>871</ele>
        <time>2019-04-18T23:56:45Z</time>
      </trkpt>
      <trkpt lat="44.5522" lon="6.27136">
        <ele>870</ele>
        <time>2019-04-18T23:57:45Z</time>
      </trkpt>
      <trkpt lat="44.55247" lon="6.27109">
        <ele>870</ele>
        <time>2019-04-18T23:58:45Z</time>
      </trkpt>
      <trkpt lat="44.55259" lon="6.27086">
        <ele>869</ele>
        <time>2019-04-18T23:59:45Z</time>
      </trkpt>
      <trkpt lat="44.55314" lon="6.26972">
        <ele>868</ele>
        <time>2019-04-19T00:00:45Z</time>
      </trkpt>
      <trkpt lat="44.5532" lon="6.26946">
        <ele>867</ele>
        <time>2019-04-19T00:01:45Z</time>
      </trkpt>
      <trkpt lat="44.55324" lon="6.26923">
        <ele>867</ele>
        <time>2019-04-19T00:02:45Z</time>
      </trkpt>
      <trkpt lat="44.55333" lon="6.26818">
        <ele>865</ele>
        <time>2019-04-19T00:03:45Z</time>
      </trkpt>
      <trkpt lat="44.55334" lon="6.26694">
        <ele>864</ele>
        <time>2019-04-19T00:04:45Z</time>
      </trkpt>
      <trkpt lat="44.55336" lon="6.2667">
        <ele>864</ele>
        <time>2019-04-19T00:05:45Z</time>
      </trkpt>
      <trkpt lat="44.55369" lon="6.26553">
        <ele>868</ele>
        <time>2019-04-19T00:06:45Z</time>
      </trkpt>
      <trkpt lat="44.55412" lon="6.26434">
        <ele>872</ele>
        <time>2019-04-19T00:07:45Z</time>
      </trkpt>
      <trkpt lat="44.5542" lon="6.26314">
        <ele>871</ele>
        <time>2019-04-19T00:08:45Z</time>
      </trkpt>
      <trkpt lat="44.55419" lon="6.26234">
        <ele>873</ele>
        <time>2019-04-19T00:09:45Z</time>
      </trkpt>
      <trkpt lat="44.55421" lon="6.26195">
        <ele>874</ele>
        <time>2019-04-19T00:10:45Z</time>
      </trkpt>
      <trkpt lat="44.55425" lon="6.26156">
        <ele>876</ele>
        <time>2019-04-19T00:11:45Z</time>
      </trkpt>
      <trkpt lat="44.5543" lon="6.26134">
        <ele>877</ele>
        <time>2019-04-19T00:12:45Z</time>
      </trkpt>
      <trkpt lat="44.55435" lon="6.26125">
        <ele>878</ele>
        <time>2019-04-19T00:13:45Z</time>
      </trkpt>
      <trkpt lat="44.5545" lon="6.26113">
        <ele>879</ele>
        <time>2019-04-19T00:14:45Z</time>
      </trkpt>
      <trkpt lat="44.55461" lon="6.26102">
        <ele>880</ele>
        <time>2019-04-19T00:15:45Z</time>
      </trkpt>
      <trkpt lat="44.55474" lon="6.26076">
        <ele>881</ele>
        <time>2019-04-19T00:16:45Z</time>
      </trkpt>
      <trkpt lat="44.55493" lon="6.26055">
        <ele>883</ele>
        <time>2019-04-19T00:17:45Z</time>
      </trkpt>
      <trkpt lat="44.55524" lon="6.26">
        <ele>887</ele>
        <time>2019-04-19T00:18:45Z</time>
      </trkpt>
      <trkpt lat="44.55541" lon="6.25984">
        <ele>888</ele>
        <time>2019-04-19T00:19:45Z</time>
      </trkpt>
      <trkpt lat="44.55634" lon="6.25919">
        <ele>896</ele>
        <time>2019-04-19T00:20:45Z</time>
      </trkpt>
      <trkpt lat="44.55652" lon="6.25889">
        <ele>898</ele>
        <time>2019-04-19T00:21:45Z</time>
      </trkpt>
      <trkpt lat="44.55671" lon="6.25842">
        <ele>901</ele>
        <time>2019-04-19T00:22:45Z</time>
      </trkpt>
      <trkpt lat="44.55678" lon="6.25824">
        <ele>902</ele>
        <time>2019-04-19T00:23:45Z</time>
      </trkpt>
      <trkpt lat="44.55682" lon="6.25794">
        <ele>902</ele>
        <time>2019-04-19T00:24:45Z</time>
      </trkpt>
      <trkpt lat="44.55702" lon="6.25745">
        <ele>904</ele>
        <time>2019-04-19T00:25:45Z</time>
      </trkpt>
      <trkpt lat="44.55727" lon="6.257">
        <ele>906</ele>
        <time>2019-04-19T00:26:45Z</time>
      </trkpt>
      <trkpt lat="44.55765" lon="6.25639">
        <ele>909</ele>
        <time>2019-04-19T00:27:45Z</time>
      </trkpt>
      <trkpt lat="44.55776" lon="6.25629">
        <ele>911</ele>
        <time>2019-04-19T00:28:45Z</time>
      </trkpt>
      <trkpt lat="44.558" lon="6.25597">
        <ele>913</ele>
        <time>2019-04-19T00:29:45Z</time>
      </trkpt>
      <trkpt lat="44.55837" lon="6.25498">
        <ele>919</ele>
        <time>2019-04-19T00:30:45Z</time>
      </trkpt>
      <trkpt lat="44.55855" lon="6.25431">
        <ele>921</ele>
        <time>2019-04-19T00:31:45Z</time>
      </trkpt>
      <trkpt lat="44.5587" lon="6.25393">
        <ele>924</ele>
        <time>2019-04-19T00:32:45Z</time>
      </trkpt>
      <trkpt lat="44.55936" lon="6.25322">
        <ele>931</ele>
        <time>2019-04-19T00:33:45Z</time>
      </trkpt>
      <trkpt lat="44.55943" lon="6.25289">
        <ele>930</ele>
        <time>2019-04-19T00:34:45Z</time>
      </trkpt>
      <trkpt lat="44.55947" lon="6.25278">
        <ele>930</ele>
        <time>2019-04-19T00:35:45Z</time>
      </trkpt>
      <trkpt lat="44.55956" lon="6.25271">
        <ele>931</ele>
        <time>2019-04-19T00:36:45Z</time>
      </trkpt>
      <trkpt lat="44.55988" lon="6.25266">
        <ele>933</ele>
        <time>2019-04-19T00:37:45Z</time>
      </trkpt>
      <trkpt lat="44.56011" lon="6.25256">
        <ele>935</ele>
        <time>2019-04-19T00:38:45Z</time>
      </trkpt>
      <trkpt lat="44.56067" lon="6.25241">
        <ele>942</ele>
        <time>2019-04-19T00:39:45Z</time>
      </trkpt>
      <trkpt lat="44.56072" lon="6.25237">
        <ele>943</ele>
        <time>2019-04-19T00:40:45Z</time>
      </trkpt>
      <trkpt lat="44.56075" lon="6.25228">
        <ele>943</ele>
        <time>2019-04-19T00:41:45Z</time>
      </trkpt>
      <trkpt lat="44.56067" lon="6.25193">
        <ele>942</ele>
        <time>2019-04-19T00:42:45Z</time>
      </trkpt>
      <trkpt lat="44.5607" lon="6.25151">
        <ele>942</ele>
        <time>2019-04-19T00:43:45Z</time>
      </trkpt>
      <trkpt lat="44.56091" lon="6.25104">
        <ele>946</ele>
        <time>2019-04-19T00:44:45Z</time>
      </trkpt>
      <trkpt lat="44.56113" lon="6.25078">
        <ele>950</ele>
        <time>2019-04-19T00:45:45Z</time>
      </trkpt>
      <trkpt lat="44.56128" lon="6.25053">
        <ele>952</ele>
        <time>2019-04-19T00:46:45Z</time>
      </trkpt>
      <trkpt lat="44.56145" lon="6.25043">
        <ele>955</ele>
        <time>2019-04-19T00:47:45Z</time>
      </trkpt>
      <trkpt lat="44.56171" lon="6.25018">
        <ele>960</ele>
        <time>2019-04-19T00:48:45Z</time>
      </trkpt>
      <trkpt lat="44.56192" lon="6.2498">
        <ele>961</ele>
        <time>2019-04-19T00:49:45Z</time>
      </trkpt>
      <trkpt lat="44.56217" lon="6.24932">
        <ele>964</ele>
        <time>2019-04-19T00:50:45Z</time>
      </trkpt>
      <trkpt lat="44.56241" lon="6.24853">
        <ele>967</ele>
        <time>2019-04-19T00:51:45Z</time>
      </trkpt>
      <trkpt lat="44.56249" lon="6.2481">
        <ele>968</ele>
        <time>2019-04-19T00:52:45Z</time>
      </trkpt>
      <trkpt lat="44.56273" lon="6.24784">
        <ele>971</ele>
        <time>2019-04-19T00:53:45Z</time>
      </trkpt>
      <trkpt lat="44.56322" lon="6.24761">
        <ele>979</ele>
        <time>2019-04-19T00:54:45Z</time>
      </trkpt>
      <trkpt lat="44.56398" lon="6.24709">
        <ele>985</ele>
        <time>2019-04-19T00:55:45Z</time>
      </trkpt>
      <trkpt lat="44.56449" lon="6.24669">
        <ele>985</ele>
        <time>2019-04-19T00:56:45Z</time>
      </trkpt>
      <trkpt lat="44.5649" lon="6.24641">
        <ele>986</ele>
        <time>2019-04-19T00:57:45Z</time>
      </trkpt>
      <trkpt lat="44.56531" lon="6.2462">
        <ele>987</ele>
        <time>2019-04-19T00:58:45Z</time>
      </trkpt>
      <trkpt lat="44.56571" lon="6.24609">
        <ele>990</ele>
        <time>2019-04-19T00:59:45Z</time>
      </trkpt>
      <trkpt lat="44.56636" lon="6.24578">
        <ele>991</ele>
        <time>2019-04-19T01:00:45Z</time>
      </trkpt>
      <trkpt lat="44.56731" lon="6.24515">
        <ele>995</ele>
        <time>2019-04-19T01:01:45Z</time>
      </trkpt>
      <trkpt lat="44.56765" lon="6.24464">
        <ele>997</ele>
        <time>2019-04-19T01:02:45Z</time>
      </trkpt>
      <trkpt lat="44.56804" lon="6.24409">
        <ele>1000</ele>
        <time>2019-04-19T01:03:45Z</time>
      </trkpt>
      <trkpt lat="44.56862" lon="6.24353">
        <ele>1002</ele>
        <time>2019-04-19T01:04:45Z</time>
      </trkpt>
      <trkpt lat="44.56912" lon="6.2433">
        <ele>1003</ele>
        <time>2019-04-19T01:05:45Z</time>
      </trkpt>
      <trkpt lat="44.56925" lon="6.2431">
        <ele>1002</ele>
        <time>2019-04-19T01:06:45Z</time>
      </trkpt>
      <trkpt lat="44.56957" lon="6.24247">
        <ele>1000</ele>
        <time>2019-04-19T01:07:45Z</time>
      </trkpt>
      <trkpt lat="44.56985" lon="6.24183">
        <ele>996</ele>
        <time>2019-04-19T01:08:45Z</time>
      </trkpt>
      <trkpt lat="44.57002" lon="6.24116">
        <ele>996</ele>
        <time>2019-04-19T01:09:45Z</time>
      </trkpt>
      <trkpt lat="44.57009" lon="6.24027">
        <ele>1000</ele>
        <time>2019-04-19T01:10:45Z</time>
      </trkpt>
      <trkpt lat="44.57009" lon="6.23954">
        <ele>1002</ele>
        <time>2019-04-19T01:11:45Z</time>
      </trkpt>
      <trkpt lat="44.57006" lon="6.23875">
        <ele>1004</ele>
        <time>2019-04-19T01:12:45Z</time>
      </trkpt>
      <trkpt lat="44.56989" lon="6.23827">
        <ele>1003</ele>
        <time>2019-04-19T01:13:45Z</time>
      </trkpt>
      <trkpt lat="44.56985" lon="6.2379">
        <ele>1003</ele>
        <time>2019-04-19T01:14:45Z</time>
      </trkpt>
      <trkpt lat="44.5699" lon="6.23759">
        <ele>1006</ele>
        <time>2019-04-19T01:15:45Z</time>
      </trkpt>
      <trkpt lat="44.56996" lon="6.23739">
        <ele>1007</ele>
        <time>2019-04-19T01:16:45Z</time>
      </trkpt>
      <trkpt lat="44.56999" lon="6.23647">
        <ele>1006</ele>
        <time>2019-04-19T01:17:45Z</time>
      </trkpt>
      <trkpt lat="44.57015" lon="6.23594">
        <ele>1006</ele>
        <time>2019-04-19T01:18:45Z</time>
      </trkpt>
      <trkpt lat="44.5702" lon="6.23567">
        <ele>1005</ele>
        <time>2019-04-19T01:19:45Z</time>
      </trkpt>
      <trkpt lat="44.57019" lon="6.23531">
        <ele>1002</ele>
        <time>2019-04-19T01:20:45Z</time>
      </trkpt>
      <trkpt lat="44.57025" lon="6.23478">
        <ele>1000</ele>
        <time>2019-04-19T01:21:45Z</time>
      </trkpt>
      <trkpt lat="44.57037" lon="6.23446">
        <ele>1001</ele>
        <time>2019-04-19T01:22:45Z</time>
      </trkpt>
      <trkpt lat="44.57079" lon="6.23379">
        <ele>1007</ele>
        <time>2019-04-19T01:23:45Z</time>
      </trkpt>
      <trkpt lat="44.57097" lon="6.23319">
        <ele>1006</ele>
        <time>2019-04-19T01:24:45Z</time>
      </trkpt>
      <trkpt lat="44.57158" lon="6.23169">
        <ele>1009</ele>
        <time>2019-04-19T01:25:45Z</time>
      </trkpt>
      <trkpt lat="44.57171" lon="6.23151">
        <ele>1009</ele>
        <time>2019-04-19T01:26:45Z</time>
      </trkpt>
      <trkpt lat="44.57204" lon="6.23125">
        <ele>1011</ele>
        <time>2019-04-19T01:27:45Z</time>
      </trkpt>
      <trkpt lat="44.57243" lon="6.23076">
        <ele>1011</ele>
        <time>2019-04-19T01:28:45Z</time>
      </trkpt>
      <trkpt lat="44.57279" lon="6.23011">
        <ele>1010</ele>
        <time>2019-04-19T01:29:45Z</time>
      </trkpt>
      <trkpt lat="44.57291" lon="6.22984">
        <ele>1009</ele>
        <time>2019-04-19T01:30:45Z</time>
      </trkpt>
      <trkpt lat="44.57321" lon="6.22871">
        <ele>1004</ele>
        <time>2019-04-19T01:31:45Z</time>
      </trkpt>
      <trkpt lat="44.57341" lon="6.22832">
        <ele>1002</ele>
        <time>2019-04-19T01:32:45Z</time>
      </trkpt>
      <trkpt lat="44.57344" lon="6.22799">
        <ele>1001</ele>
        <time>2019-04-19T01:33:45Z</time>
      </trkpt>
      <trkpt lat="44.57336" lon="6.22764">
        <ele>998</ele>
        <time>2019-04-19T01:34:45Z</time>
      </trkpt>
      <trkpt lat="44.57313" lon="6.22726">
        <ele>992</ele>
        <time>2019-04-19T01:35:45Z</time>
      </trkpt>
      <trkpt lat="44.57309" lon="6.22694">
        <ele>989</ele>
        <time>2019-04-19T01:36:45Z</time>
      </trkpt>
      <trkpt lat="44.57324" lon="6.22606">
        <ele>984</ele>
        <time>2019-04-19T01:37:45Z</time>
      </trkpt>
      <trkpt lat="44.5732" lon="6.22557">
        <ele>981</ele>
        <time>2019-04-19T01:38:45Z</time>
      </trkpt>
      <trkpt lat="44.57322" lon="6.22475">
        <ele>976</ele>
        <time>2019-04-19T01:39:45Z</time>
      </trkpt>
      <trkpt lat="44.5732" lon="6.22456">
        <ele>973</ele>
        <time>2019-04-19T01:40:45Z</time>
      </trkpt>
      <trkpt lat="44.57324" lon="6.22434">
        <ele>971</ele>
        <time>2019-04-19T01:41:45Z</time>
      </trkpt>
      <trkpt lat="44.57344" lon="6.22401">
        <ele>970</ele>
        <time>2019-04-19T01:42:45Z</time>
      </trkpt>
      <trkpt lat="44.57366" lon="6.2238">
        <ele>973</ele>
        <time>2019-04-19T01:43:45Z</time>
      </trkpt>
      <trkpt lat="44.57301" lon="6.22339">
        <ele>962</ele>
        <time>2019-04-19T01:44:45Z</time>
      </trkpt>
      <trkpt lat="44.57247" lon="6.22329">
        <ele>956</ele>
        <time>2019-04-19T01:45:45Z</time>
      </trkpt>
      <trkpt lat="44.57232" lon="6.2231">
        <ele>954</ele>
        <time>2019-04-19T01:46:45Z</time>
      </trkpt>
      <trkpt lat="44.57186" lon="6.22065">
        <ele>941</ele>
        <time>2019-04-19T01:47:45Z</time>
      </trkpt>
      <trkpt lat="44.57112" lon="6.21965">
        <ele>930</ele>
        <time>2019-04-19T01:48:45Z</time>
      </trkpt>
      <trkpt lat="44.57066" lon="6.21893">
        <ele>923</ele>
        <time>2019-04-19T01:49:45Z</time>
      </trkpt>
      <trkpt lat="44.5704" lon="6.2184">
        <ele>917</ele>
        <time>2019-04-19T01:50:45Z</time>
      </trkpt>
      <trkpt lat="44.5702" lon="6.21773">
        <ele>911</ele>
        <time>2019-04-19T01:51:45Z</time>
      </trkpt>
      <trkpt lat="44.57014" lon="6.21732">
        <ele>908</ele>
        <time>2019-04-19T01:52:45Z</time>
      </trkpt>
      <trkpt lat="44.57016" lon="6.21486">
        <ele>902</ele>
        <time>2019-04-19T01:53:45Z</time>
      </trkpt>
      <trkpt lat="44.57007" lon="6.21424">
        <ele>899</ele>
        <time>2019-04-19T01:54:45Z</time>
      </trkpt>
      <trkpt lat="44.56989" lon="6.21364">
        <ele>893</ele>
        <time>2019-04-19T01:55:45Z</time>
      </trkpt>
      <trkpt lat="44.56875" lon="6.21061">
        <ele>875</ele>
        <time>2019-04-19T01:56:45Z</time>
      </trkpt>
      <trkpt lat="44.56809" lon="6.20919">
        <ele>869</ele>
        <time>2019-04-19T01:57:45Z</time>
      </trkpt>
      <trkpt lat="44.5678" lon="6.2084">
        <ele>868</ele>
        <time>2019-04-19T01:58:45Z</time>
      </trkpt>
      <trkpt lat="44.56697" lon="6.20491">
        <ele>865</ele>
        <time>2019-04-19T01:59:45Z</time>
      </trkpt>
      <trkpt lat="44.56678" lon="6.20433">
        <ele>864</ele>
        <time>2019-04-19T02:00:45Z</time>
      </trkpt>
      <trkpt lat="44.56664" lon="6.20397">
        <ele>863</ele>
        <time>2019-04-19T02:01:45Z</time>
      </trkpt>
      <trkpt lat="44.56631" lon="6.20329">
        <ele>860</ele>
        <time>2019-04-19T02:02:45Z</time>
      </trkpt>
      <trkpt lat="44.56579" lon="6.20235">
        <ele>860</ele>
        <time>2019-04-19T02:03:45Z</time>
      </trkpt>
      <trkpt lat="44.56539" lon="6.20156">
        <ele>860</ele>
        <time>2019-04-19T02:04:45Z</time>
      </trkpt>
      <trkpt lat="44.56481" lon="6.20005">
        <ele>860</ele>
        <time>2019-04-19T02:05:45Z</time>
      </trkpt>
      <trkpt lat="44.5647" lon="6.19992">
        <ele>860</ele>
        <time>2019-04-19T02:06:45Z</time>
      </trkpt>
      <trkpt lat="44.56468" lon="6.19986">
        <ele>860</ele>
        <time>2019-04-19T02:07:45Z</time>
      </trkpt>
      <trkpt lat="44.56464" lon="6.19981">
        <ele>860</ele>
        <time>2019-04-19T02:08:45Z</time>
      </trkpt>
      <trkpt lat="44.56462" lon="6.19944">
        <ele>859</ele>
        <time>2019-04-19T02:09:45Z</time>
      </trkpt>
      <trkpt lat="44.56479" lon="6.19809">
        <ele>857</ele>
        <time>2019-04-19T02:10:45Z</time>
      </trkpt>
      <trkpt lat="44.56485" lon="6.19783">
        <ele>857</ele>
        <time>2019-04-19T02:11:45Z</time>
      </trkpt>
      <trkpt lat="44.56502" lon="6.19751">
        <ele>857</ele>
        <time>2019-04-19T02:12:45Z</time>
      </trkpt>
      <trkpt lat="44.56593" lon="6.19614">
        <ele>857</ele>
        <time>2019-04-19T02:13:45Z</time>
      </trkpt>
      <trkpt lat="44.56604" lon="6.19586">
        <ele>857</ele>
        <time>2019-04-19T02:14:45Z</time>
      </trkpt>
      <trkpt lat="44.56605" lon="6.1958">
        <ele>857</ele>
        <time>2019-04-19T02:15:45Z</time>
      </trkpt>
      <trkpt lat="44.56625" lon="6.19574">
        <ele>856</ele>
        <time>2019-04-19T02:16:45Z</time>
      </trkpt>
      <trkpt lat="44.56668" lon="6.19591">
        <ele>856</ele>
        <time>2019-04-19T02:17:45Z</time>
      </trkpt>
      <trkpt lat="44.56681" lon="6.19594">
        <ele>856</ele>
        <time>2019-04-19T02:18:45Z</time>
      </trkpt>
      <trkpt lat="44.56693" lon="6.19593">
        <ele>857</ele>
        <time>2019-04-19T02:19:45Z</time>
      </trkpt>
      <trkpt lat="44.56714" lon="6.19586">
        <ele>857</ele>
        <time>2019-04-19T02:20:45Z</time>
      </trkpt>
      <trkpt lat="44.56723" lon="6.19578">
        <ele>857</ele>
        <time>2019-04-19T02:21:45Z</time>
      </trkpt>
      <trkpt lat="44.56737" lon="6.19558">
        <ele>857</ele>
        <time>2019-04-19T02:22:45Z</time>
      </trkpt>
      <trkpt lat="44.56744" lon="6.19543">
        <ele>857</ele>
        <time>2019-04-19T02:23:45Z</time>
      </trkpt>
      <trkpt lat="44.5681" lon="6.19388">
        <ele>857</ele>
        <time>2019-04-19T02:24:45Z</time>
      </trkpt>
      <trkpt lat="44.56885" lon="6.19204">
        <ele>855</ele>
        <time>2019-04-19T02:25:45Z</time>
      </trkpt>
      <trkpt lat="44.56948" lon="6.1909">
        <ele>853</ele>
        <time>2019-04-19T02:26:45Z</time>
      </trkpt>
      <trkpt lat="44.56957" lon="6.19075">
        <ele>853</ele>
        <time>2019-04-19T02:27:45Z</time>
      </trkpt>
      <trkpt lat="44.56979" lon="6.19048">
        <ele>852</ele>
        <time>2019-04-19T02:28:45Z</time>
      </trkpt>
      <trkpt lat="44.57019" lon="6.19012">
        <ele>853</ele>
        <time>2019-04-19T02:29:45Z</time>
      </trkpt>
      <trkpt lat="44.57043" lon="6.18982">
        <ele>853</ele>
        <time>2019-04-19T02:30:45Z</time>
      </trkpt>
      <trkpt lat="44.57064" lon="6.18948">
        <ele>853</ele>
        <time>2019-04-19T02:31:45Z</time>
      </trkpt>
      <trkpt lat="44.57093" lon="6.18894">
        <ele>853</ele>
        <time>2019-04-19T02:32:45Z</time>
      </trkpt>
      <trkpt lat="44.57115" lon="6.18863">
        <ele>853</ele>
        <time>2019-04-19T02:33:45Z</time>
      </trkpt>
      <trkpt lat="44.57128" lon="6.1885">
        <ele>853</ele>
        <time>2019-04-19T02:34:45Z</time>
      </trkpt>
      <trkpt lat="44.57199" lon="6.18808">
        <ele>856</ele>
        <time>2019-04-19T02:35:45Z</time>
      </trkpt>
      <trkpt lat="44.57212" lon="6.18796">
        <ele>856</ele>
        <time>2019-04-19T02:36:45Z</time>
      </trkpt>
      <trkpt lat="44.57222" lon="6.18782">
        <ele>857</ele>
        <time>2019-04-19T02:37:45Z</time>
      </trkpt>
      <trkpt lat="44.57229" lon="6.18765">
        <ele>857</ele>
        <time>2019-04-19T02:38:45Z</time>
      </trkpt>
      <trkpt lat="44.57235" lon="6.1873">
        <ele>856</ele>
        <time>2019-04-19T02:39:45Z</time>
      </trkpt>
      <trkpt lat="44.57233" lon="6.18691">
        <ele>855</ele>
        <time>2019-04-19T02:40:45Z</time>
      </trkpt>
      <trkpt lat="44.57237" lon="6.18668">
        <ele>855</ele>
        <time>2019-04-19T02:41:45Z</time>
      </trkpt>
      <trkpt lat="44.57246" lon="6.18633">
        <ele>856</ele>
        <time>2019-04-19T02:42:45Z</time>
      </trkpt>
      <trkpt lat="44.57273" lon="6.18558">
        <ele>860</ele>
        <time>2019-04-19T02:43:45Z</time>
      </trkpt>
      <trkpt lat="44.57298" lon="6.18462">
        <ele>863</ele>
        <time>2019-04-19T02:44:45Z</time>
      </trkpt>
      <trkpt lat="44.57324" lon="6.18352">
        <ele>865</ele>
        <time>2019-04-19T02:45:45Z</time>
      </trkpt>
      <trkpt lat="44.57332" lon="6.18332">
        <ele>866</ele>
        <time>2019-04-19T02:46:45Z</time>
      </trkpt>
      <trkpt lat="44.57341" lon="6.18316">
        <ele>867</ele>
        <time>2019-04-19T02:47:45Z</time>
      </trkpt>
      <trkpt lat="44.57387" lon="6.18267">
        <ele>873</ele>
        <time>2019-04-19T02:48:45Z</time>
      </trkpt>
      <trkpt lat="44.57429" lon="6.18231">
        <ele>878</ele>
        <time>2019-04-19T02:49:45Z</time>
      </trkpt>
      <trkpt lat="44.57441" lon="6.18217">
        <ele>879</ele>
        <time>2019-04-19T02:50:45Z</time>
      </trkpt>
      <trkpt lat="44.57501" lon="6.18115">
        <ele>885</ele>
        <time>2019-04-19T02:51:45Z</time>
      </trkpt>
      <trkpt lat="44.57513" lon="6.18101">
        <ele>885</ele>
        <time>2019-04-19T02:52:45Z</time>
      </trkpt>
      <trkpt lat="44.57553" lon="6.18071">
        <ele>887</ele>
        <time>2019-04-19T02:53:45Z</time>
      </trkpt>
      <trkpt lat="44.57582" lon="6.18033">
        <ele>888</ele>
        <time>2019-04-19T02:54:45Z</time>
      </trkpt>
      <trkpt lat="44.5761" lon="6.18001">
        <ele>890</ele>
        <time>2019-04-19T02:55:45Z</time>
      </trkpt>
      <trkpt lat="44.57631" lon="6.17983">
        <ele>892</ele>
        <time>2019-04-19T02:56:45Z</time>
      </trkpt>
      <trkpt lat="44.57687" lon="6.17949">
        <ele>895</ele>
        <time>2019-04-19T02:57:45Z</time>
      </trkpt>
      <trkpt lat="44.57703" lon="6.17945">
        <ele>896</ele>
        <time>2019-04-19T02:58:45Z</time>
      </trkpt>
      <trkpt lat="44.57747" lon="6.17937">
        <ele>899</ele>
        <time>2019-04-19T02:59:45Z</time>
      </trkpt>
      <trkpt lat="44.57777" lon="6.17935">
        <ele>902</ele>
        <time>2019-04-19T03:00:45Z</time>
      </trkpt>
      <trkpt lat="44.57789" lon="6.17931">
        <ele>903</ele>
        <time>2019-04-19T03:01:45Z</time>
      </trkpt>
      <trkpt lat="44.57799" lon="6.17923">
        <ele>903</ele>
        <time>2019-04-19T03:02:45Z</time>
      </trkpt>
      <trkpt lat="44.57819" lon="6.17894">
        <ele>904</ele>
        <time>2019-04-19T03:03:45Z</time>
      </trkpt>
      <trkpt lat="44.57827" lon="6.17879">
        <ele>905</ele>
        <time>2019-04-19T03:04:45Z</time>
      </trkpt>
      <trkpt lat="44.57832" lon="6.1786">
        <ele>905</ele>
        <time>2019-04-19T03:05:45Z</time>
      </trkpt>
      <trkpt lat="44.57846" lon="6.17782">
        <ele>908</ele>
        <time>2019-04-19T03:06:45Z</time>
      </trkpt>
      <trkpt lat="44.57851" lon="6.17761">
        <ele>910</ele>
        <time>2019-04-19T03:07:45Z</time>
      </trkpt>
      <trkpt lat="44.57887" lon="6.17662">
        <ele>914</ele>
        <time>2019-04-19T03:08:45Z</time>
      </trkpt>
      <trkpt lat="44.57895" lon="6.17645">
        <ele>914</ele>
        <time>2019-04-19T03:09:45Z</time>
      </trkpt>
      <trkpt lat="44.57905" lon="6.1763">
        <ele>915</ele>
        <time>2019-04-19T03:10:45Z</time>
      </trkpt>
      <trkpt lat="44.57916" lon="6.17617">
        <ele>916</ele>
        <time>2019-04-19T03:11:45Z</time>
      </trkpt>
      <trkpt lat="44.57929" lon="6.17607">
        <ele>917</ele>
        <time>2019-04-19T03:12:45Z</time>
      </trkpt>
      <trkpt lat="44.57941" lon="6.176">
        <ele>918</ele>
        <time>2019-04-19T03:13:45Z</time>
      </trkpt>
      <trkpt lat="44.57952" lon="6.17596">
        <ele>919</ele>
        <time>2019-04-19T03:14:45Z</time>
      </trkpt>
      <trkpt lat="44.57962" lon="6.17597">
        <ele>921</ele>
        <time>2019-04-19T03:15:45Z</time>
      </trkpt>
      <trkpt lat="44.57972" lon="6.17602">
        <ele>923</ele>
        <time>2019-04-19T03:16:45Z</time>
      </trkpt>
      <trkpt lat="44.57988" lon="6.17619">
        <ele>927</ele>
        <time>2019-04-19T03:17:45Z</time>
      </trkpt>
      <trkpt lat="44.57996" lon="6.17622">
        <ele>929</ele>
        <time>2019-04-19T03:18:45Z</time>
      </trkpt>
      <trkpt lat="44.58003" lon="6.17621">
        <ele>931</ele>
        <time>2019-04-19T03:19:45Z</time>
      </trkpt>
      <trkpt lat="44.58009" lon="6.17614">
        <ele>932</ele>
        <time>2019-04-19T03:20:45Z</time>
      </trkpt>
      <trkpt lat="44.58013" lon="6.17604">
        <ele>933</ele>
        <time>2019-04-19T03:21:45Z</time>
      </trkpt>
      <trkpt lat="44.58015" lon="6.17594">
        <ele>933</ele>
        <time>2019-04-19T03:22:45Z</time>
      </trkpt>
      <trkpt lat="44.58015" lon="6.17553">
        <ele>928</ele>
        <time>2019-04-19T03:23:45Z</time>
      </trkpt>
      <trkpt lat="44.58019" lon="6.17539">
        <ele>927</ele>
        <time>2019-04-19T03:24:45Z</time>
      </trkpt>
      <trkpt lat="44.58025" lon="6.17529">
        <ele>928</ele>
        <time>2019-04-19T03:25:45Z</time>
      </trkpt>
      <trkpt lat="44.58033" lon="6.17521">
        <ele>930</ele>
        <time>2019-04-19T03:26:45Z</time>
      </trkpt>
      <trkpt lat="44.58043" lon="6.17517">
        <ele>933</ele>
        <time>2019-04-19T03:27:45Z</time>
      </trkpt>
      <trkpt lat="44.58054" lon="6.17514">
        <ele>936</ele>
        <time>2019-04-19T03:28:45Z</time>
      </trkpt>
      <trkpt lat="44.58082" lon="6.17516">
        <ele>946</ele>
        <time>2019-04-19T03:29:45Z</time>
      </trkpt>
      <trkpt lat="44.58089" lon="6.17515">
        <ele>949</ele>
        <time>2019-04-19T03:30:45Z</time>
      </trkpt>
      <trkpt lat="44.58094" lon="6.1751">
        <ele>950</ele>
        <time>2019-04-19T03:31:45Z</time>
      </trkpt>
      <trkpt lat="44.58097" lon="6.17501">
        <ele>950</ele>
        <time>2019-04-19T03:32:45Z</time>
      </trkpt>
      <trkpt lat="44.58095" lon="6.17491">
        <ele>948</ele>
        <time>2019-04-19T03:33:45Z</time>
      </trkpt>
      <trkpt lat="44.58071" lon="6.17452">
        <ele>937</ele>
        <time>2019-04-19T03:34:45Z</time>
      </trkpt>
      <trkpt lat="44.58067" lon="6.1744">
        <ele>935</ele>
        <time>2019-04-19T03:35:45Z</time>
      </trkpt>
      <trkpt lat="44.58066" lon="6.17428">
        <ele>934</ele>
        <time>2019-04-19T03:36:45Z</time>
      </trkpt>
      <trkpt lat="44.58067" lon="6.17417">
        <ele>934</ele>
        <time>2019-04-19T03:37:45Z</time>
      </trkpt>
      <trkpt lat="44.58072" lon="6.17408">
        <ele>934</ele>
        <time>2019-04-19T03:38:45Z</time>
      </trkpt>
      <trkpt lat="44.58079" lon="6.17401">
        <ele>935</ele>
        <time>2019-04-19T03:39:45Z</time>
      </trkpt>
      <trkpt lat="44.58109" lon="6.17384">
        <ele>940</ele>
        <time>2019-04-19T03:40:45Z</time>
      </trkpt>
      <trkpt lat="44.58132" lon="6.17379">
        <ele>945</ele>
        <time>2019-04-19T03:41:45Z</time>
      </trkpt>
      <trkpt lat="44.58204" lon="6.17387">
        <ele>966</ele>
        <time>2019-04-19T03:42:45Z</time>
      </trkpt>
      <trkpt lat="44.58232" lon="6.17394">
        <ele>974</ele>
        <time>2019-04-19T03:43:45Z</time>
      </trkpt>
      <trkpt lat="44.58237" lon="6.1739">
        <ele>974</ele>
        <time>2019-04-19T03:44:45Z</time>
      </trkpt>
      <trkpt lat="44.58241" lon="6.17382">
        <ele>975</ele>
        <time>2019-04-19T03:45:45Z</time>
      </trkpt>
      <trkpt lat="44.58242" lon="6.17372">
        <ele>974</ele>
        <time>2019-04-19T03:46:45Z</time>
      </trkpt>
      <trkpt lat="44.58241" lon="6.17359">
        <ele>973</ele>
        <time>2019-04-19T03:47:45Z</time>
      </trkpt>
      <trkpt lat="44.58238" lon="6.1735">
        <ele>972</ele>
        <time>2019-04-19T03:48:45Z</time>
      </trkpt>
      <trkpt lat="44.58223" lon="6.17322">
        <ele>964</ele>
        <time>2019-04-19T03:49:45Z</time>
      </trkpt>
      <trkpt lat="44.58206" lon="6.17299">
        <ele>956</ele>
        <time>2019-04-19T03:50:45Z</time>
      </trkpt>
      <trkpt lat="44.582" lon="6.17287">
        <ele>954</ele>
        <time>2019-04-19T03:51:45Z</time>
      </trkpt>
      <trkpt lat="44.58199" lon="6.1728">
        <ele>953</ele>
        <time>2019-04-19T03:52:45Z</time>
      </trkpt>
      <trkpt lat="44.582" lon="6.17273">
        <ele>953</ele>
        <time>2019-04-19T03:53:45Z</time>
      </trkpt>
      <trkpt lat="44.58205" lon="6.17267">
        <ele>954</ele>
        <time>2019-04-19T03:54:45Z</time>
      </trkpt>
      <trkpt lat="44.58212" lon="6.1726">
        <ele>956</ele>
        <time>2019-04-19T03:55:45Z</time>
      </trkpt>
      <trkpt lat="44.58231" lon="6.17254">
        <ele>961</ele>
        <time>2019-04-19T03:56:45Z</time>
      </trkpt>
      <trkpt lat="44.58252" lon="6.17253">
        <ele>967</ele>
        <time>2019-04-19T03:57:45Z</time>
      </trkpt>
      <trkpt lat="44.58268" lon="6.17249">
        <ele>973</ele>
        <time>2019-04-19T03:58:45Z</time>
      </trkpt>
      <trkpt lat="44.58303" lon="6.17231">
        <ele>985</ele>
        <time>2019-04-19T03:59:45Z</time>
      </trkpt>
      <trkpt lat="44.58331" lon="6.17219">
        <ele>994</ele>
        <time>2019-04-19T04:00:45Z</time>
      </trkpt>
      <trkpt lat="44.5834" lon="6.17214">
        <ele>997</ele>
        <time>2019-04-19T04:01:45Z</time>
      </trkpt>
      <trkpt lat="44.58346" lon="6.17207">
        <ele>998</ele>
        <time>2019-04-19T04:02:45Z</time>
      </trkpt>
      <trkpt lat="44.58348" lon="6.17199">
        <ele>998</ele>
        <time>2019-04-19T04:03:45Z</time>
      </trkpt>
      <trkpt lat="44.58347" lon="6.17183">
        <ele>997</ele>
        <time>2019-04-19T04:04:45Z</time>
      </trkpt>
      <trkpt lat="44.58345" lon="6.17177">
        <ele>996</ele>
        <time>2019-04-19T04:05:45Z</time>
      </trkpt>
      <trkpt lat="44.58342" lon="6.17171">
        <ele>995</ele>
        <time>2019-04-19T04:06:45Z</time>
      </trkpt>
      <trkpt lat="44.58258" lon="6.17148">
        <ele>979</ele>
        <time>2019-04-19T04:07:45Z</time>
      </trkpt>
      <trkpt lat="44.58251" lon="6.17142">
        <ele>978</ele>
        <time>2019-04-19T04:08:45Z</time>
      </trkpt>
      <trkpt lat="44.58226" lon="6.17107">
        <ele>978</ele>
        <time>2019-04-19T04:09:45Z</time>
      </trkpt>
      <trkpt lat="44.58223" lon="6.17099">
        <ele>979</ele>
        <time>2019-04-19T04:10:45Z</time>
      </trkpt>
      <trkpt lat="44.58222" lon="6.17089">
        <ele>981</ele>
        <time>2019-04-19T04:11:45Z</time>
      </trkpt>
      <trkpt lat="44.58224" lon="6.17075">
        <ele>983</ele>
        <time>2019-04-19T04:12:45Z</time>
      </trkpt>
      <trkpt lat="44.58228" lon="6.17057">
        <ele>984</ele>
        <time>2019-04-19T04:13:45Z</time>
      </trkpt>
      <trkpt lat="44.58262" lon="6.16928">
        <ele>993</ele>
        <time>2019-04-19T04:14:45Z</time>
      </trkpt>
      <trkpt lat="44.58273" lon="6.16888">
        <ele>994</ele>
        <time>2019-04-19T04:15:45Z</time>
      </trkpt>
      <trkpt lat="44.58281" lon="6.1687">
        <ele>995</ele>
        <time>2019-04-19T04:16:45Z</time>
      </trkpt>
      <trkpt lat="44.58289" lon="6.16861">
        <ele>997</ele>
        <time>2019-04-19T04:17:45Z</time>
      </trkpt>
      <trkpt lat="44.58319" lon="6.16847">
        <ele>1005</ele>
        <time>2019-04-19T04:18:45Z</time>
      </trkpt>
      <trkpt lat="44.58346" lon="6.16816">
        <ele>1011</ele>
        <time>2019-04-19T04:19:45Z</time>
      </trkpt>
      <trkpt lat="44.58352" lon="6.16805">
        <ele>1013</ele>
        <time>2019-04-19T04:20:45Z</time>
      </trkpt>
      <trkpt lat="44.58354" lon="6.1679">
        <ele>1012</ele>
        <time>2019-04-19T04:21:45Z</time>
      </trkpt>
      <trkpt lat="44.58352" lon="6.16771">
        <ele>1010</ele>
        <time>2019-04-19T04:22:45Z</time>
      </trkpt>
      <trkpt lat="44.58356" lon="6.16744">
        <ele>1010</ele>
        <time>2019-04-19T04:23:45Z</time>
      </trkpt>
      <trkpt lat="44.58388" lon="6.16656">
        <ele>1019</ele>
        <time>2019-04-19T04:24:45Z</time>
      </trkpt>
      <trkpt lat="44.58402" lon="6.1661">
        <ele>1023</ele>
        <time>2019-04-19T04:25:45Z</time>
      </trkpt>
      <trkpt lat="44.58414" lon="6.16581">
        <ele>1026</ele>
        <time>2019-04-19T04:26:45Z</time>
      </trkpt>
      <trkpt lat="44.58421" lon="6.16572">
        <ele>1028</ele>
        <time>2019-04-19T04:27:45Z</time>
      </trkpt>
      <trkpt lat="44.58431" lon="6.16567">
        <ele>1031</ele>
        <time>2019-04-19T04:28:45Z</time>
      </trkpt>
      <trkpt lat="44.58443" lon="6.16566">
        <ele>1035</ele>
        <time>2019-04-19T04:29:45Z</time>
      </trkpt>
      <trkpt lat="44.58449" lon="6.16562">
        <ele>1036</ele>
        <time>2019-04-19T04:30:45Z</time>
      </trkpt>
      <trkpt lat="44.58451" lon="6.16557">
        <ele>1037</ele>
        <time>2019-04-19T04:31:45Z</time>
      </trkpt>
      <trkpt lat="44.58451" lon="6.1655">
        <ele>1036</ele>
        <time>2019-04-19T04:32:45Z</time>
      </trkpt>
      <trkpt lat="44.5845" lon="6.16543">
        <ele>1035</ele>
        <time>2019-04-19T04:33:45Z</time>
      </trkpt>
      <trkpt lat="44.58444" lon="6.1653">
        <ele>1032</ele>
        <time>2019-04-19T04:34:45Z</time>
      </trkpt>
      <trkpt lat="44.58442" lon="6.16519">
        <ele>1031</ele>
        <time>2019-04-19T04:35:45Z</time>
      </trkpt>
      <trkpt lat="44.58442" lon="6.16509">
        <ele>1030</ele>
        <time>2019-04-19T04:36:45Z</time>
      </trkpt>
      <trkpt lat="44.58446" lon="6.16491">
        <ele>1030</ele>
        <time>2019-04-19T04:37:45Z</time>
      </trkpt>
      <trkpt lat="44.58477" lon="6.16398">
        <ele>1028</ele>
        <time>2019-04-19T04:38:45Z</time>
      </trkpt>
      <trkpt lat="44.58488" lon="6.16383">
        <ele>1029</ele>
        <time>2019-04-19T04:39:45Z</time>
      </trkpt>
      <trkpt lat="44.58495" lon="6.1638">
        <ele>1030</ele>
        <time>2019-04-19T04:40:45Z</time>
      </trkpt>
      <trkpt lat="44.58509" lon="6.1638">
        <ele>1036</ele>
        <time>2019-04-19T04:41:45Z</time>
      </trkpt>
      <trkpt lat="44.5854" lon="6.1637">
        <ele>1047</ele>
        <time>2019-04-19T04:42:45Z</time>
      </trkpt>
      <trkpt lat="44.58557" lon="6.16361">
        <ele>1053</ele>
        <time>2019-04-19T04:43:45Z</time>
      </trkpt>
      <trkpt lat="44.58561" lon="6.16355">
        <ele>1054</ele>
        <time>2019-04-19T04:44:45Z</time>
      </trkpt>
      <trkpt lat="44.58562" lon="6.16349">
        <ele>1053</ele>
        <time>2019-04-19T04:45:45Z</time>
      </trkpt>
      <trkpt lat="44.58562" lon="6.16341">
        <ele>1052</ele>
        <time>2019-04-19T04:46:45Z</time>
      </trkpt>
      <trkpt lat="44.58559" lon="6.16333">
        <ele>1050</ele>
        <time>2019-04-19T04:47:45Z</time>
      </trkpt>
      <trkpt lat="44.58542" lon="6.1632">
        <ele>1039</ele>
        <time>2019-04-19T04:48:45Z</time>
      </trkpt>
      <trkpt lat="44.58531" lon="6.16308">
        <ele>1032</ele>
        <time>2019-04-19T04:49:45Z</time>
      </trkpt>
      <trkpt lat="44.58529" lon="6.16295">
        <ele>1029</ele>
        <time>2019-04-19T04:50:45Z</time>
      </trkpt>
      <trkpt lat="44.58537" lon="6.16276">
        <ele>1029</ele>
        <time>2019-04-19T04:51:45Z</time>
      </trkpt>
      <trkpt lat="44.58546" lon="6.16266">
        <ele>1031</ele>
        <time>2019-04-19T04:52:45Z</time>
      </trkpt>
      <trkpt lat="44.58559" lon="6.16259">
        <ele>1036</ele>
        <time>2019-04-19T04:53:45Z</time>
      </trkpt>
      <trkpt lat="44.58568" lon="6.16255">
        <ele>1039</ele>
        <time>2019-04-19T04:54:45Z</time>
      </trkpt>
      <trkpt lat="44.58618" lon="6.16261">
        <ele>1058</ele>
        <time>2019-04-19T04:55:45Z</time>
      </trkpt>
      <trkpt lat="44.58625" lon="6.16258">
        <ele>1060</ele>
        <time>2019-04-19T04:56:45Z</time>
      </trkpt>
      <trkpt lat="44.58645" lon="6.1624">
        <ele>1064</ele>
        <time>2019-04-19T04:57:45Z</time>
      </trkpt>
      <trkpt lat="44.58652" lon="6.16236">
        <ele>1066</ele>
        <time>2019-04-19T04:58:45Z</time>
      </trkpt>
      <trkpt lat="44.58672" lon="6.16237">
        <ele>1073</ele>
        <time>2019-04-19T04:59:45Z</time>
      </trkpt>
      <trkpt lat="44.58676" lon="6.16233">
        <ele>1074</ele>
        <time>2019-04-19T05:00:45Z</time>
      </trkpt>
      <trkpt lat="44.5868" lon="6.1622">
        <ele>1076</ele>
        <time>2019-04-19T05:01:45Z</time>
      </trkpt>
      <trkpt lat="44.58677" lon="6.16205">
        <ele>1075</ele>
        <time>2019-04-19T05:02:45Z</time>
      </trkpt>
      <trkpt lat="44.58673" lon="6.16199">
        <ele>1074</ele>
        <time>2019-04-19T05:03:45Z</time>
      </trkpt>
      <trkpt lat="44.58649" lon="6.16181">
        <ele>1066</ele>
        <time>2019-04-19T05:04:45Z</time>
      </trkpt>
      <trkpt lat="44.58639" lon="6.1617">
        <ele>1061</ele>
        <time>2019-04-19T05:05:45Z</time>
      </trkpt>
      <trkpt lat="44.58631" lon="6.16153">
        <ele>1059</ele>
        <time>2019-04-19T05:06:45Z</time>
      </trkpt>
      <trkpt lat="44.58627" lon="6.16141">
        <ele>1058</ele>
        <time>2019-04-19T05:07:45Z</time>
      </trkpt>
      <trkpt lat="44.58627" lon="6.16132">
        <ele>1059</ele>
        <time>2019-04-19T05:08:45Z</time>
      </trkpt>
      <trkpt lat="44.5863" lon="6.16123">
        <ele>1061</ele>
        <time>2019-04-19T05:09:45Z</time>
      </trkpt>
      <trkpt lat="44.58635" lon="6.16114">
        <ele>1064</ele>
        <time>2019-04-19T05:10:45Z</time>
      </trkpt>
      <trkpt lat="44.58649" lon="6.16095">
        <ele>1070</ele>
        <time>2019-04-19T05:11:45Z</time>
      </trkpt>
      <trkpt lat="44.58663" lon="6.16072">
        <ele>1074</ele>
        <time>2019-04-19T05:12:45Z</time>
      </trkpt>
      <trkpt lat="44.58697" lon="6.15991">
        <ele>1077</ele>
        <time>2019-04-19T05:13:45Z</time>
      </trkpt>
      <trkpt lat="44.58703" lon="6.1598">
        <ele>1078</ele>
        <time>2019-04-19T05:14:45Z</time>
      </trkpt>
      <trkpt lat="44.58711" lon="6.15974">
        <ele>1079</ele>
        <time>2019-04-19T05:15:45Z</time>
      </trkpt>
      <trkpt lat="44.58719" lon="6.15973">
        <ele>1081</ele>
        <time>2019-04-19T05:16:45Z</time>
      </trkpt>
      <trkpt lat="44.58732" lon="6.15975">
        <ele>1085</ele>
        <time>2019-04-19T05:17:45Z</time>
      </trkpt>
      <trkpt lat="44.58736" lon="6.15974">
        <ele>1086</ele>
        <time>2019-04-19T05:18:45Z</time>
      </trkpt>
      <trkpt lat="44.58739" lon="6.15969">
        <ele>1086</ele>
        <time>2019-04-19T05:19:45Z</time>
      </trkpt>
      <trkpt lat="44.58741" lon="6.15954">
        <ele>1086</ele>
        <time>2019-04-19T05:20:45Z</time>
      </trkpt>
      <trkpt lat="44.58735" lon="6.15924">
        <ele>1082</ele>
        <time>2019-04-19T05:21:45Z</time>
      </trkpt>
      <trkpt lat="44.58735" lon="6.15913">
        <ele>1082</ele>
        <time>2019-04-19T05:22:45Z</time>
      </trkpt>
      <trkpt lat="44.58738" lon="6.15904">
        <ele>1082</ele>
        <time>2019-04-19T05:23:45Z</time>
      </trkpt>
      <trkpt lat="44.58758" lon="6.15876">
        <ele>1086</ele>
        <time>2019-04-19T05:24:45Z</time>
      </trkpt>
      <trkpt lat="44.58768" lon="6.15857">
        <ele>1088</ele>
        <time>2019-04-19T05:25:45Z</time>
      </trkpt>
      <trkpt lat="44.58779" lon="6.15817">
        <ele>1088</ele>
        <time>2019-04-19T05:26:45Z</time>
      </trkpt>
      <trkpt lat="44.5879" lon="6.15803">
        <ele>1090</ele>
        <time>2019-04-19T05:27:45Z</time>
      </trkpt>
      <trkpt lat="44.58798" lon="6.15798">
        <ele>1091</ele>
        <time>2019-04-19T05:28:45Z</time>
      </trkpt>
      <trkpt lat="44.58808" lon="6.15796">
        <ele>1093</ele>
        <time>2019-04-19T05:29:45Z</time>
      </trkpt>
      <trkpt lat="44.58839" lon="6.15796">
        <ele>1101</ele>
        <time>2019-04-19T05:30:45Z</time>
      </trkpt>
      <trkpt lat="44.58851" lon="6.15789">
        <ele>1103</ele>
        <time>2019-04-19T05:31:45Z</time>
      </trkpt>
      <trkpt lat="44.58854" lon="6.15779">
        <ele>1103</ele>
        <time>2019-04-19T05:32:45Z</time>
      </trkpt>
      <trkpt lat="44.58851" lon="6.15758">
        <ele>1101</ele>
        <time>2019-04-19T05:33:45Z</time>
      </trkpt>
      <trkpt lat="44.58851" lon="6.15748">
        <ele>1100</ele>
        <time>2019-04-19T05:34:45Z</time>
      </trkpt>
      <trkpt lat="44.58852" lon="6.1574">
        <ele>1100</ele>
        <time>2019-04-19T05:35:45Z</time>
      </trkpt>
      <trkpt lat="44.58854" lon="6.15733">
        <ele>1100</ele>
        <time>2019-04-19T05:36:45Z</time>
      </trkpt>
      <trkpt lat="44.58858" lon="6.15728">
        <ele>1100</ele>
        <time>2019-04-19T05:37:45Z</time>
      </trkpt>
      <trkpt lat="44.5888" lon="6.15708">
        <ele>1104</ele>
        <time>2019-04-19T05:38:45Z</time>
      </trkpt>
      <trkpt lat="44.58893" lon="6.15701">
        <ele>1107</ele>
        <time>2019-04-19T05:39:45Z</time>
      </trkpt>
      <trkpt lat="44.58907" lon="6.15697">
        <ele>1110</ele>
        <time>2019-04-19T05:40:45Z</time>
      </trkpt>
      <trkpt lat="44.58914" lon="6.15691">
        <ele>1112</ele>
        <time>2019-04-19T05:41:45Z</time>
      </trkpt>
      <trkpt lat="44.5892" lon="6.15679">
        <ele>1112</ele>
        <time>2019-04-19T05:42:45Z</time>
      </trkpt>
      <trkpt lat="44.58931" lon="6.15637">
        <ele>1112</ele>
        <time>2019-04-19T05:43:45Z</time>
      </trkpt>
      <trkpt lat="44.58943" lon="6.1561">
        <ele>1112</ele>
        <time>2019-04-19T05:44:45Z</time>
      </trkpt>
      <trkpt lat="44.58958" lon="6.1559">
        <ele>1114</ele>
        <time>2019-04-19T05:45:45Z</time>
      </trkpt>
      <trkpt lat="44.58965" lon="6.15583">
        <ele>1115</ele>
        <time>2019-04-19T05:46:45Z</time>
      </trkpt>
      <trkpt lat="44.5899" lon="6.15577">
        <ele>1120</ele>
        <time>2019-04-19T05:47:45Z</time>
      </trkpt>
      <trkpt lat="44.58992" lon="6.15572">
        <ele>1120</ele>
        <time>2019-04-19T05:48:45Z</time>
      </trkpt>
      <trkpt lat="44.59003" lon="6.15517">
        <ele>1118</ele>
        <time>2019-04-19T05:49:45Z</time>
      </trkpt>
      <trkpt lat="44.59008" lon="6.15506">
        <ele>1118</ele>
        <time>2019-04-19T05:50:45Z</time>
      </trkpt>
      <trkpt lat="44.59014" lon="6.15495">
        <ele>1119</ele>
        <time>2019-04-19T05:51:45Z</time>
      </trkpt>
      <trkpt lat="44.59039" lon="6.15469">
        <ele>1122</ele>
        <time>2019-04-19T05:52:45Z</time>
      </trkpt>
      <trkpt lat="44.59076" lon="6.1544">
        <ele>1127</ele>
        <time>2019-04-19T05:53:45Z</time>
      </trkpt>
      <trkpt lat="44.59098" lon="6.15415">
        <ele>1130</ele>
        <time>2019-04-19T05:54:45Z</time>
      </trkpt>
      <trkpt lat="44.59109" lon="6.15405">
        <ele>1131</ele>
        <time>2019-04-19T05:55:45Z</time>
      </trkpt>
      <trkpt lat="44.5914" lon="6.15387">
        <ele>1134</ele>
        <time>2019-04-19T05:56:45Z</time>
      </trkpt>
      <trkpt lat="44.59151" lon="6.15375">
        <ele>1136</ele>
        <time>2019-04-19T05:57:45Z</time>
      </trkpt>
      <trkpt lat="44.59177" lon="6.15335">
        <ele>1139</ele>
        <time>2019-04-19T05:58:45Z</time>
      </trkpt>
      <trkpt lat="44.59191" lon="6.15325">
        <ele>1140</ele>
        <time>2019-04-19T05:59:45Z</time>
      </trkpt>
      <trkpt lat="44.59234" lon="6.15317">
        <ele>1145</ele>
        <time>2019-04-19T06:00:45Z</time>
      </trkpt>
      <trkpt lat="44.59255" lon="6.15311">
        <ele>1147</ele>
        <time>2019-04-19T06:01:45Z</time>
      </trkpt>
      <trkpt lat="44.59299" lon="6.15274">
        <ele>1151</ele>
        <time>2019-04-19T06:02:45Z</time>
      </trkpt>
      <trkpt lat="44.59334" lon="6.15233">
        <ele>1154</ele>
        <time>2019-04-19T06:03:45Z</time>
      </trkpt>
      <trkpt lat="44.59353" lon="6.15218">
        <ele>1156</ele>
        <time>2019-04-19T06:04:45Z</time>
      </trkpt>
      <trkpt lat="44.59376" lon="6.15204">
        <ele>1159</ele>
        <time>2019-04-19T06:05:45Z</time>
      </trkpt>
      <trkpt lat="44.59407" lon="6.1517">
        <ele>1161</ele>
        <time>2019-04-19T06:06:45Z</time>
      </trkpt>
      <trkpt lat="44.59414" lon="6.15165">
        <ele>1162</ele>
        <time>2019-04-19T06:07:45Z</time>
      </trkpt>
      <trkpt lat="44.59446" lon="6.15162">
        <ele>1166</ele>
        <time>2019-04-19T06:08:45Z</time>
      </trkpt>
      <trkpt lat="44.59514" lon="6.15126">
        <ele>1173</ele>
        <time>2019-04-19T06:09:45Z</time>
      </trkpt>
      <trkpt lat="44.59529" lon="6.15115">
        <ele>1175</ele>
        <time>2019-04-19T06:10:45Z</time>
      </trkpt>
      <trkpt lat="44.59581" lon="6.15071">
        <ele>1177</ele>
        <time>2019-04-19T06:11:45Z</time>
      </trkpt>
      <trkpt lat="44.59606" lon="6.15048">
        <ele>1182</ele>
        <time>2019-04-19T06:12:45Z</time>
      </trkpt>
      <trkpt lat="44.59664" lon="6.14973">
        <ele>1187</ele>
        <time>2019-04-19T06:13:45Z</time>
      </trkpt>
      <trkpt lat="44.59671" lon="6.14961">
        <ele>1188</ele>
        <time>2019-04-19T06:14:45Z</time>
      </trkpt>
      <trkpt lat="44.59677" lon="6.14947">
        <ele>1189</ele>
        <time>2019-04-19T06:15:45Z</time>
      </trkpt>
      <trkpt lat="44.59686" lon="6.14913">
        <ele>1189</ele>
        <time>2019-04-19T06:16:45Z</time>
      </trkpt>
      <trkpt lat="44.59694" lon="6.14893">
        <ele>1189</ele>
        <time>2019-04-19T06:17:45Z</time>
      </trkpt>
      <trkpt lat="44.59734" lon="6.14815">
        <ele>1192</ele>
        <time>2019-04-19T06:18:45Z</time>
      </trkpt>
      <trkpt lat="44.59816" lon="6.14697">
        <ele>1197</ele>
        <time>2019-04-19T06:19:45Z</time>
      </trkpt>
      <trkpt lat="44.5986" lon="6.14638">
        <ele>1196</ele>
        <time>2019-04-19T06:20:45Z</time>
      </trkpt>
      <trkpt lat="44.59901" lon="6.14591">
        <ele>1196</ele>
        <time>2019-04-19T06:21:45Z</time>
      </trkpt>
      <trkpt lat="44.59932" lon="6.14566">
        <ele>1196</ele>
        <time>2019-04-19T06:22:45Z</time>
      </trkpt>
      <trkpt lat="44.59943" lon="6.14563">
        <ele>1196</ele>
        <time>2019-04-19T06:23:45Z</time>
      </trkpt>
      <trkpt lat="44.59954" lon="6.14564">
        <ele>1197</ele>
        <time>2019-04-19T06:24:45Z</time>
      </trkpt>
      <trkpt lat="44.59963" lon="6.14572">
        <ele>1199</ele>
        <time>2019-04-19T06:25:45Z</time>
      </trkpt>
      <trkpt lat="44.59979" lon="6.14601">
        <ele>1204</ele>
        <time>2019-04-19T06:26:45Z</time>
      </trkpt>
      <trkpt lat="44.59985" lon="6.14607">
        <ele>1205</ele>
        <time>2019-04-19T06:27:45Z</time>
      </trkpt>
      <trkpt lat="44.59994" lon="6.14608">
        <ele>1206</ele>
        <time>2019-04-19T06:28:45Z</time>
      </trkpt>
      <trkpt lat="44.60051" lon="6.1459">
        <ele>1213</ele>
        <time>2019-04-19T06:29:45Z</time>
      </trkpt>
      <trkpt lat="44.6006" lon="6.14582">
        <ele>1214</ele>
        <time>2019-04-19T06:30:45Z</time>
      </trkpt>
      <trkpt lat="44.60066" lon="6.14569">
        <ele>1212</ele>
        <time>2019-04-19T06:31:45Z</time>
      </trkpt>
      <trkpt lat="44.60072" lon="6.14548">
        <ele>1210</ele>
        <time>2019-04-19T06:32:45Z</time>
      </trkpt>
      <trkpt lat="44.60078" lon="6.14533">
        <ele>1209</ele>
        <time>2019-04-19T06:33:45Z</time>
      </trkpt>
      <trkpt lat="44.60086" lon="6.14522">
        <ele>1208</ele>
        <time>2019-04-19T06:34:45Z</time>
      </trkpt>
      <trkpt lat="44.60172" lon="6.14447">
        <ele>1219</ele>
        <time>2019-04-19T06:35:45Z</time>
      </trkpt>
      <trkpt lat="44.60198" lon="6.14415">
        <ele>1220</ele>
        <time>2019-04-19T06:36:45Z</time>
      </trkpt>
      <trkpt lat="44.60253" lon="6.14334">
        <ele>1221</ele>
        <time>2019-04-19T06:37:45Z</time>
      </trkpt>
      <trkpt lat="44.60266" lon="6.14326">
        <ele>1222</ele>
        <time>2019-04-19T06:38:45Z</time>
      </trkpt>
      <trkpt lat="44.60294" lon="6.14322">
        <ele>1225</ele>
        <time>2019-04-19T06:39:45Z</time>
      </trkpt>
      <trkpt lat="44.60304" lon="6.14318">
        <ele>1226</ele>
        <time>2019-04-19T06:40:45Z</time>
      </trkpt>
      <trkpt lat="44.60316" lon="6.14308">
        <ele>1227</ele>
        <time>2019-04-19T06:41:45Z</time>
      </trkpt>
      <trkpt lat="44.60351" lon="6.14262">
        <ele>1227</ele>
        <time>2019-04-19T06:42:45Z</time>
      </trkpt>
      <trkpt lat="44.60359" lon="6.14256">
        <ele>1228</ele>
        <time>2019-04-19T06:43:45Z</time>
      </trkpt>
      <trkpt lat="44.60402" lon="6.1424">
        <ele>1232</ele>
        <time>2019-04-19T06:44:45Z</time>
      </trkpt>
      <trkpt lat="44.6045" lon="6.14217">
        <ele>1236</ele>
        <time>2019-04-19T06:45:45Z</time>
      </trkpt>
      <trkpt lat="44.60468" lon="6.14214">
        <ele>1237</ele>
        <time>2019-04-19T06:46:45Z</time>
      </trkpt>
      <trkpt lat="44.60564" lon="6.14206">
        <ele>1246</ele>
        <time>2019-04-19T06:47:45Z</time>
      </trkpt>
      <trkpt lat="44.60636" lon="6.1419">
        <ele>1251</ele>
        <time>2019-04-19T06:48:45Z</time>
      </trkpt>
      <trkpt lat="44.60677" lon="6.14179">
        <ele>1254</ele>
        <time>2019-04-19T06:49:45Z</time>
      </trkpt>
      <trkpt lat="44.60699" lon="6.1417">
        <ele>1255</ele>
        <time>2019-04-19T06:50:45Z</time>
      </trkpt>
      <trkpt lat="44.60817" lon="6.14105">
        <ele>1258</ele>
        <time>2019-04-19T06:51:45Z</time>
      </trkpt>
      <trkpt lat="44.60837" lon="6.14098">
        <ele>1259</ele>
        <time>2019-04-19T06:52:45Z</time>
      </trkpt>
      <trkpt lat="44.60883" lon="6.14087">
        <ele>1262</ele>
        <time>2019-04-19T06:53:45Z</time>
      </trkpt>
      <trkpt lat="44.6091" lon="6.14077">
        <ele>1264</ele>
        <time>2019-04-19T06:54:45Z</time>
      </trkpt>
      <trkpt lat="44.60936" lon="6.14063">
        <ele>1266</ele>
        <time>2019-04-19T06:55:45Z</time>
      </trkpt>
      <trkpt lat="44.60961" lon="6.14047">
        <ele>1267</ele>
        <time>2019-04-19T06:56:45Z</time>
      </trkpt>
      <trkpt lat="44.61041" lon="6.13976">
        <ele>1270</ele>
        <time>2019-04-19T06:57:45Z</time>
      </trkpt>
      <trkpt lat="44.61055" lon="6.1396">
        <ele>1271</ele>
        <time>2019-04-19T06:58:45Z</time>
      </trkpt>
      <trkpt lat="44.61074" lon="6.13928">
        <ele>1272</ele>
        <time>2019-04-19T06:59:45Z</time>
      </trkpt>
      <trkpt lat="44.61087" lon="6.13914">
        <ele>1272</ele>
        <time>2019-04-19T07:00:45Z</time>
      </trkpt>
      <trkpt lat="44.611" lon="6.13905">
        <ele>1272</ele>
        <time>2019-04-19T07:01:45Z</time>
      </trkpt>
      <trkpt lat="44.61113" lon="6.13902">
        <ele>1272</ele>
        <time>2019-04-19T07:02:45Z</time>
      </trkpt>
      <trkpt lat="44.61152" lon="6.139">
        <ele>1271</ele>
        <time>2019-04-19T07:03:45Z</time>
      </trkpt>
      <trkpt lat="44.61224" lon="6.13891">
        <ele>1270</ele>
        <time>2019-04-19T07:04:45Z</time>
      </trkpt>
      <trkpt lat="44.61294" lon="6.13871">
        <ele>1268</ele>
        <time>2019-04-19T07:05:45Z</time>
      </trkpt>
      <trkpt lat="44.61317" lon="6.13861">
        <ele>1267</ele>
        <time>2019-04-19T07:06:45Z</time>
      </trkpt>
      <trkpt lat="44.61358" lon="6.13838">
        <ele>1266</ele>
        <time>2019-04-19T07:07:45Z</time>
      </trkpt>
      <trkpt lat="44.61416" lon="6.13793">
        <ele>1265</ele>
        <time>2019-04-19T07:08:45Z</time>
      </trkpt>
      <trkpt lat="44.61442" lon="6.13782">
        <ele>1263</ele>
        <time>2019-04-19T07:09:45Z</time>
      </trkpt>
      <trkpt lat="44.61455" lon="6.13786">
        <ele>1263</ele>
        <time>2019-04-19T07:10:45Z</time>
      </trkpt>
      <trkpt lat="44.6146" lon="6.13785">
        <ele>1262</ele>
        <time>2019-04-19T07:11:45Z</time>
      </trkpt>
      <trkpt lat="44.61468" lon="6.13777">
        <ele>1262</ele>
        <time>2019-04-19T07:12:45Z</time>
      </trkpt>
      <trkpt lat="44.61471" lon="6.13767">
        <ele>1262</ele>
        <time>2019-04-19T07:13:45Z</time>
      </trkpt>
      <trkpt lat="44.61469" lon="6.13755">
        <ele>1262</ele>
        <time>2019-04-19T07:14:45Z</time>
      </trkpt>
      <trkpt lat="44.61467" lon="6.1375">
        <ele>1263</ele>
        <time>2019-04-19T07:15:45Z</time>
      </trkpt>
      <trkpt lat="44.6146" lon="6.13743">
        <ele>1263</ele>
        <time>2019-04-19T07:16:45Z</time>
      </trkpt>
      <trkpt lat="44.61453" lon="6.13742">
        <ele>1263</ele>
        <time>2019-04-19T07:17:45Z</time>
      </trkpt>
      <trkpt lat="44.61448" lon="6.13744">
        <ele>1264</ele>
        <time>2019-04-19T07:18:45Z</time>
      </trkpt>
      <trkpt lat="44.61442" lon="6.13751">
        <ele>1264</ele>
        <time>2019-04-19T07:19:45Z</time>
      </trkpt>
      <trkpt lat="44.6144" lon="6.13763">
        <ele>1264</ele>
        <time>2019-04-19T07:20:45Z</time>
      </trkpt>
      <trkpt lat="44.61441" lon="6.13772">
        <ele>1264</ele>
        <time>2019-04-19T07:21:45Z</time>
      </trkpt>
      <trkpt lat="44.61444" lon="6.1378">
        <ele>1263</ele>
        <time>2019-04-19T07:22:45Z</time>
      </trkpt>
      <trkpt lat="44.61448" lon="6.13783">
        <ele>1263</ele>
        <time>2019-04-19T07:23:45Z</time>
      </trkpt>
      <trkpt lat="44.61455" lon="6.13786">
        <ele>1263</ele>
        <time>2019-04-19T07:24:45Z</time>
      </trkpt>
      <trkpt lat="44.6146" lon="6.13785">
        <ele>1262</ele>
        <time>2019-04-19T07:25:45Z</time>
      </trkpt>
      <trkpt lat="44.61468" lon="6.13777">
        <ele>1262</ele>
        <time>2019-04-19T07:26:45Z</time>
      </trkpt>
      <trkpt lat="44.6147" lon="6.13771">
        <ele>1262</ele>
        <time>2019-04-19T07:27:45Z</time>
      </trkpt>
      <trkpt lat="44.61471" lon="6.13761">
        <ele>1262</ele>
        <time>2019-04-19T07:28:45Z</time>
      </trkpt>
      <trkpt lat="44.61467" lon="6.1375">
        <ele>1263</ele>
        <time>2019-04-19T07:29:45Z</time>
      </trkpt>
      <trkpt lat="44.6146" lon="6.13743">
        <ele>1263</ele>
        <time>2019-04-19T07:30:45Z</time>
      </trkpt>
      <trkpt lat="44.61453" lon="6.13742">
        <ele>1263</ele>
        <time>2019-04-19T07:31:45Z</time>
      </trkpt>
      <trkpt lat="44.61442" lon="6.13735">
        <ele>1264</ele>
        <time>2019-04-19T07:32:45Z</time>
      </trkpt>
      <trkpt lat="44.61421" lon="6.13709">
        <ele>1265</ele>
        <time>2019-04-19T07:33:45Z</time>
      </trkpt>
      <trkpt lat="44.61297" lon="6.13509">
        <ele>1271</ele>
        <time>2019-04-19T07:34:45Z</time>
      </trkpt>
      <trkpt lat="44.6128" lon="6.13484">
        <ele>1272</ele>
        <time>2019-04-19T07:35:45Z</time>
      </trkpt>
      <trkpt lat="44.61264" lon="6.13466">
        <ele>1272</ele>
        <time>2019-04-19T07:36:45Z</time>
      </trkpt>
      <trkpt lat="44.61205" lon="6.13411">
        <ele>1271</ele>
        <time>2019-04-19T07:37:45Z</time>
      </trkpt>
      <trkpt lat="44.61194" lon="6.13395">
        <ele>1272</ele>
        <time>2019-04-19T07:38:45Z</time>
      </trkpt>
      <trkpt lat="44.61179" lon="6.13367">
        <ele>1273</ele>
        <time>2019-04-19T07:39:45Z</time>
      </trkpt>
      <trkpt lat="44.61174" lon="6.13344">
        <ele>1274</ele>
        <time>2019-04-19T07:40:45Z</time>
      </trkpt>
      <trkpt lat="44.61171" lon="6.13316">
        <ele>1275</ele>
        <time>2019-04-19T07:41:45Z</time>
      </trkpt>
      <trkpt lat="44.61173" lon="6.13209">
        <ele>1272</ele>
        <time>2019-04-19T07:42:45Z</time>
      </trkpt>
      <trkpt lat="44.61167" lon="6.13164">
        <ele>1271</ele>
        <time>2019-04-19T07:43:45Z</time>
      </trkpt>
      <trkpt lat="44.61162" lon="6.13148">
        <ele>1270</ele>
        <time>2019-04-19T07:44:45Z</time>
      </trkpt>
      <trkpt lat="44.61148" lon="6.13117">
        <ele>1268</ele>
        <time>2019-04-19T07:45:45Z</time>
      </trkpt>
      <trkpt lat="44.61092" lon="6.1302">
        <ele>1264</ele>
        <time>2019-04-19T07:46:45Z</time>
      </trkpt>
      <trkpt lat="44.61081" lon="6.12995">
        <ele>1264</ele>
        <time>2019-04-19T07:47:45Z</time>
      </trkpt>
      <trkpt lat="44.61066" lon="6.1295">
        <ele>1261</ele>
        <time>2019-04-19T07:48:45Z</time>
      </trkpt>
      <trkpt lat="44.61063" lon="6.12934">
        <ele>1260</ele>
        <time>2019-04-19T07:49:45Z</time>
      </trkpt>
      <trkpt lat="44.61058" lon="6.12887">
        <ele>1258</ele>
        <time>2019-04-19T07:50:45Z</time>
      </trkpt>
      <trkpt lat="44.61051" lon="6.1279">
        <ele>1256</ele>
        <time>2019-04-19T07:51:45Z</time>
      </trkpt>
      <trkpt lat="44.61047" lon="6.12695">
        <ele>1255</ele>
        <time>2019-04-19T07:52:45Z</time>
      </trkpt>
      <trkpt lat="44.61049" lon="6.12664">
        <ele>1255</ele>
        <time>2019-04-19T07:53:45Z</time>
      </trkpt>
      <trkpt lat="44.61052" lon="6.12651">
        <ele>1254</ele>
        <time>2019-04-19T07:54:45Z</time>
      </trkpt>
      <trkpt lat="44.61057" lon="6.12642">
        <ele>1254</ele>
        <time>2019-04-19T07:55:45Z</time>
      </trkpt>
      <trkpt lat="44.61067" lon="6.12628">
        <ele>1253</ele>
        <time>2019-04-19T07:56:45Z</time>
      </trkpt>
      <trkpt lat="44.61102" lon="6.12601">
        <ele>1254</ele>
        <time>2019-04-19T07:57:45Z</time>
      </trkpt>
      <trkpt lat="44.61124" lon="6.12577">
        <ele>1254</ele>
        <time>2019-04-19T07:58:45Z</time>
      </trkpt>
      <trkpt lat="44.61133" lon="6.12562">
        <ele>1254</ele>
        <time>2019-04-19T07:59:45Z</time>
      </trkpt>
      <trkpt lat="44.61145" lon="6.12534">
        <ele>1254</ele>
        <time>2019-04-19T08:00:45Z</time>
      </trkpt>
      <trkpt lat="44.61153" lon="6.12505">
        <ele>1253</ele>
        <time>2019-04-19T08:01:45Z</time>
      </trkpt>
      <trkpt lat="44.61155" lon="6.12439">
        <ele>1249</ele>
        <time>2019-04-19T08:02:45Z</time>
      </trkpt>
      <trkpt lat="44.61146" lon="6.12244">
        <ele>1244</ele>
        <time>2019-04-19T08:03:45Z</time>
      </trkpt>
      <trkpt lat="44.61141" lon="6.12206">
        <ele>1243</ele>
        <time>2019-04-19T08:04:45Z</time>
      </trkpt>
      <trkpt lat="44.61136" lon="6.12183">
        <ele>1243</ele>
        <time>2019-04-19T08:05:45Z</time>
      </trkpt>
      <trkpt lat="44.61059" lon="6.11994">
        <ele>1233</ele>
        <time>2019-04-19T08:06:45Z</time>
      </trkpt>
      <trkpt lat="44.61048" lon="6.11977">
        <ele>1232</ele>
        <time>2019-04-19T08:07:45Z</time>
      </trkpt>
      <trkpt lat="44.61038" lon="6.11964">
        <ele>1231</ele>
        <time>2019-04-19T08:08:45Z</time>
      </trkpt>
      <trkpt lat="44.61021" lon="6.11948">
        <ele>1229</ele>
        <time>2019-04-19T08:09:45Z</time>
      </trkpt>
      <trkpt lat="44.60919" lon="6.11876">
        <ele>1221</ele>
        <time>2019-04-19T08:10:45Z</time>
      </trkpt>
      <trkpt lat="44.60878" lon="6.11851">
        <ele>1218</ele>
        <time>2019-04-19T08:11:45Z</time>
      </trkpt>
      <trkpt lat="44.60862" lon="6.11845">
        <ele>1217</ele>
        <time>2019-04-19T08:12:45Z</time>
      </trkpt>
      <trkpt lat="44.60839" lon="6.11839">
        <ele>1215</ele>
        <time>2019-04-19T08:13:45Z</time>
      </trkpt>
      <trkpt lat="44.60714" lon="6.11819">
        <ele>1206</ele>
        <time>2019-04-19T08:14:45Z</time>
      </trkpt>
      <trkpt lat="44.60649" lon="6.11807">
        <ele>1200</ele>
        <time>2019-04-19T08:15:45Z</time>
      </trkpt>
      <trkpt lat="44.60638" lon="6.11803">
        <ele>1199</ele>
        <time>2019-04-19T08:16:45Z</time>
      </trkpt>
      <trkpt lat="44.60618" lon="6.11788">
        <ele>1199</ele>
        <time>2019-04-19T08:17:45Z</time>
      </trkpt>
      <trkpt lat="44.60605" lon="6.11774">
        <ele>1198</ele>
        <time>2019-04-19T08:18:45Z</time>
      </trkpt>
      <trkpt lat="44.60548" lon="6.11695">
        <ele>1197</ele>
        <time>2019-04-19T08:19:45Z</time>
      </trkpt>
      <trkpt lat="44.60526" lon="6.1167">
        <ele>1196</ele>
        <time>2019-04-19T08:20:45Z</time>
      </trkpt>
      <trkpt lat="44.60499" lon="6.1165">
        <ele>1193</ele>
        <time>2019-04-19T08:21:45Z</time>
      </trkpt>
      <trkpt lat="44.60446" lon="6.11621">
        <ele>1187</ele>
        <time>2019-04-19T08:22:45Z</time>
      </trkpt>
      <trkpt lat="44.60419" lon="6.116">
        <ele>1185</ele>
        <time>2019-04-19T08:23:45Z</time>
      </trkpt>
      <trkpt lat="44.60402" lon="6.11578">
        <ele>1183</ele>
        <time>2019-04-19T08:24:45Z</time>
      </trkpt>
      <trkpt lat="44.60395" lon="6.11565">
        <ele>1182</ele>
        <time>2019-04-19T08:25:45Z</time>
      </trkpt>
      <trkpt lat="44.60383" lon="6.1153">
        <ele>1180</ele>
        <time>2019-04-19T08:26:45Z</time>
      </trkpt>
      <trkpt lat="44.60362" lon="6.11421">
        <ele>1174</ele>
        <time>2019-04-19T08:27:45Z</time>
      </trkpt>
      <trkpt lat="44.60352" lon="6.11381">
        <ele>1171</ele>
        <time>2019-04-19T08:28:45Z</time>
      </trkpt>
      <trkpt lat="44.6034" lon="6.11351">
        <ele>1168</ele>
        <time>2019-04-19T08:29:45Z</time>
      </trkpt>
      <trkpt lat="44.60324" lon="6.11327">
        <ele>1165</ele>
        <time>2019-04-19T08:30:45Z</time>
      </trkpt>
      <trkpt lat="44.60311" lon="6.11313">
        <ele>1163</ele>
        <time>2019-04-19T08:31:45Z</time>
      </trkpt>
      <trkpt lat="44.60285" lon="6.11295">
        <ele>1159</ele>
        <time>2019-04-19T08:32:45Z</time>
      </trkpt>
      <trkpt lat="44.60236" lon="6.11267">
        <ele>1155</ele>
        <time>2019-04-19T08:33:45Z</time>
      </trkpt>
      <trkpt lat="44.60205" lon="6.11247">
        <ele>1153</ele>
        <time>2019-04-19T08:34:45Z</time>
      </trkpt>
      <trkpt lat="44.6019" lon="6.11231">
        <ele>1151</ele>
        <time>2019-04-19T08:35:45Z</time>
      </trkpt>
      <trkpt lat="44.60184" lon="6.11221">
        <ele>1150</ele>
        <time>2019-04-19T08:36:45Z</time>
      </trkpt>
      <trkpt lat="44.60179" lon="6.11203">
        <ele>1149</ele>
        <time>2019-04-19T08:37:45Z</time>
      </trkpt>
      <trkpt lat="44.60179" lon="6.11178">
        <ele>1148</ele>
        <time>2019-04-19T08:38:45Z</time>
      </trkpt>
      <trkpt lat="44.60181" lon="6.11165">
        <ele>1148</ele>
        <time>2019-04-19T08:39:45Z</time>
      </trkpt>
      <trkpt lat="44.60186" lon="6.11151">
        <ele>1148</ele>
        <time>2019-04-19T08:40:45Z</time>
      </trkpt>
      <trkpt lat="44.60199" lon="6.11135">
        <ele>1149</ele>
        <time>2019-04-19T08:41:45Z</time>
      </trkpt>
      <trkpt lat="44.60217" lon="6.11118">
        <ele>1150</ele>
        <time>2019-04-19T08:42:45Z</time>
      </trkpt>
      <trkpt lat="44.60223" lon="6.11104">
        <ele>1150</ele>
        <time>2019-04-19T08:43:45Z</time>
      </trkpt>
      <trkpt lat="44.60222" lon="6.11086">
        <ele>1149</ele>
        <time>2019-04-19T08:44:45Z</time>
      </trkpt>
      <trkpt lat="44.60216" lon="6.11072">
        <ele>1150</ele>
        <time>2019-04-19T08:45:45Z</time>
      </trkpt>
      <trkpt lat="44.60208" lon="6.11066">
        <ele>1149</ele>
        <time>2019-04-19T08:46:45Z</time>
      </trkpt>
      <trkpt lat="44.60204" lon="6.11065">
        <ele>1149</ele>
        <time>2019-04-19T08:47:45Z</time>
      </trkpt>
      <trkpt lat="44.60153" lon="6.11074">
        <ele>1146</ele>
        <time>2019-04-19T08:48:45Z</time>
      </trkpt>
      <trkpt lat="44.60118" lon="6.11077">
        <ele>1142</ele>
        <time>2019-04-19T08:49:45Z</time>
      </trkpt>
      <trkpt lat="44.60111" lon="6.11075">
        <ele>1141</ele>
        <time>2019-04-19T08:50:45Z</time>
      </trkpt>
      <trkpt lat="44.60101" lon="6.11068">
        <ele>1141</ele>
        <time>2019-04-19T08:51:45Z</time>
      </trkpt>
      <trkpt lat="44.59958" lon="6.10903">
        <ele>1134</ele>
        <time>2019-04-19T08:52:45Z</time>
      </trkpt>
      <trkpt lat="44.59919" lon="6.10865">
        <ele>1131</ele>
        <time>2019-04-19T08:53:45Z</time>
      </trkpt>
      <trkpt lat="44.59872" lon="6.10829">
        <ele>1125</ele>
        <time>2019-04-19T08:54:45Z</time>
      </trkpt>
      <trkpt lat="44.59861" lon="6.10818">
        <ele>1124</ele>
        <time>2019-04-19T08:55:45Z</time>
      </trkpt>
      <trkpt lat="44.59851" lon="6.10803">
        <ele>1122</ele>
        <time>2019-04-19T08:56:45Z</time>
      </trkpt>
      <trkpt lat="44.59838" lon="6.10773">
        <ele>1120</ele>
        <time>2019-04-19T08:57:45Z</time>
      </trkpt>
      <trkpt lat="44.59813" lon="6.10664">
        <ele>1117</ele>
        <time>2019-04-19T08:58:45Z</time>
      </trkpt>
      <trkpt lat="44.59795" lon="6.10579">
        <ele>1111</ele>
        <time>2019-04-19T08:59:45Z</time>
      </trkpt>
      <trkpt lat="44.59775" lon="6.10435">
        <ele>1107</ele>
        <time>2019-04-19T09:00:45Z</time>
      </trkpt>
      <trkpt lat="44.5977" lon="6.10416">
        <ele>1106</ele>
        <time>2019-04-19T09:01:45Z</time>
      </trkpt>
      <trkpt lat="44.59691" lon="6.10154">
        <ele>1095</ele>
        <time>2019-04-19T09:02:45Z</time>
      </trkpt>
      <trkpt lat="44.59682" lon="6.1013">
        <ele>1093</ele>
        <time>2019-04-19T09:03:45Z</time>
      </trkpt>
      <trkpt lat="44.59675" lon="6.10119">
        <ele>1092</ele>
        <time>2019-04-19T09:04:45Z</time>
      </trkpt>
      <trkpt lat="44.5964" lon="6.10082">
        <ele>1086</ele>
        <time>2019-04-19T09:05:45Z</time>
      </trkpt>
      <trkpt lat="44.59632" lon="6.10068">
        <ele>1086</ele>
        <time>2019-04-19T09:06:45Z</time>
      </trkpt>
      <trkpt lat="44.5961" lon="6.09968">
        <ele>1085</ele>
        <time>2019-04-19T09:07:45Z</time>
      </trkpt>
      <trkpt lat="44.59605" lon="6.09939">
        <ele>1085</ele>
        <time>2019-04-19T09:08:45Z</time>
      </trkpt>
      <trkpt lat="44.59606" lon="6.09917">
        <ele>1085</ele>
        <time>2019-04-19T09:09:45Z</time>
      </trkpt>
      <trkpt lat="44.59611" lon="6.09895">
        <ele>1084</ele>
        <time>2019-04-19T09:10:45Z</time>
      </trkpt>
      <trkpt lat="44.59635" lon="6.09837">
        <ele>1085</ele>
        <time>2019-04-19T09:11:45Z</time>
      </trkpt>
      <trkpt lat="44.59641" lon="6.09816">
        <ele>1084</ele>
        <time>2019-04-19T09:12:45Z</time>
      </trkpt>
      <trkpt lat="44.59647" lon="6.0978">
        <ele>1080</ele>
        <time>2019-04-19T09:13:45Z</time>
      </trkpt>
      <trkpt lat="44.59655" lon="6.09757">
        <ele>1078</ele>
        <time>2019-04-19T09:14:45Z</time>
      </trkpt>
      <trkpt lat="44.59669" lon="6.09741">
        <ele>1081</ele>
        <time>2019-04-19T09:15:45Z</time>
      </trkpt>
      <trkpt lat="44.59699" lon="6.09718">
        <ele>1086</ele>
        <time>2019-04-19T09:16:45Z</time>
      </trkpt>
      <trkpt lat="44.59714" lon="6.09702">
        <ele>1087</ele>
        <time>2019-04-19T09:17:45Z</time>
      </trkpt>
      <trkpt lat="44.59739" lon="6.09652">
        <ele>1089</ele>
        <time>2019-04-19T09:18:45Z</time>
      </trkpt>
      <trkpt lat="44.59743" lon="6.09633">
        <ele>1094</ele>
        <time>2019-04-19T09:19:45Z</time>
      </trkpt>
      <trkpt lat="44.59742" lon="6.09624">
        <ele>1095</ele>
        <time>2019-04-19T09:20:45Z</time>
      </trkpt>
      <trkpt lat="44.5974" lon="6.09619">
        <ele>1096</ele>
        <time>2019-04-19T09:21:45Z</time>
      </trkpt>
      <trkpt lat="44.59734" lon="6.09612">
        <ele>1096</ele>
        <time>2019-04-19T09:22:45Z</time>
      </trkpt>
      <trkpt lat="44.5973" lon="6.0961">
        <ele>1096</ele>
        <time>2019-04-19T09:23:45Z</time>
      </trkpt>
      <trkpt lat="44.59719" lon="6.0961">
        <ele>1095</ele>
        <time>2019-04-19T09:24:45Z</time>
      </trkpt>
      <trkpt lat="44.59696" lon="6.09618">
        <ele>1090</ele>
        <time>2019-04-19T09:25:45Z</time>
      </trkpt>
      <trkpt lat="44.59686" lon="6.09619">
        <ele>1088</ele>
        <time>2019-04-19T09:26:45Z</time>
      </trkpt>
      <trkpt lat="44.59647" lon="6.09609">
        <ele>1086</ele>
        <time>2019-04-19T09:27:45Z</time>
      </trkpt>
      <trkpt lat="44.5957" lon="6.09603">
        <ele>1080</ele>
        <time>2019-04-19T09:28:45Z</time>
      </trkpt>
      <trkpt lat="44.59562" lon="6.09604">
        <ele>1079</ele>
        <time>2019-04-19T09:29:45Z</time>
      </trkpt>
      <trkpt lat="44.59531" lon="6.09617">
        <ele>1074</ele>
        <time>2019-04-19T09:30:45Z</time>
      </trkpt>
      <trkpt lat="44.59514" lon="6.09616">
        <ele>1073</ele>
        <time>2019-04-19T09:31:45Z</time>
      </trkpt>
      <trkpt lat="44.59499" lon="6.09607">
        <ele>1073</ele>
        <time>2019-04-19T09:32:45Z</time>
      </trkpt>
      <trkpt lat="44.59477" lon="6.09576">
        <ele>1074</ele>
        <time>2019-04-19T09:33:45Z</time>
      </trkpt>
      <trkpt lat="44.59348" lon="6.09378">
        <ele>1065</ele>
        <time>2019-04-19T09:34:45Z</time>
      </trkpt>
      <trkpt lat="44.59337" lon="6.09356">
        <ele>1063</ele>
        <time>2019-04-19T09:35:45Z</time>
      </trkpt>
      <trkpt lat="44.5933" lon="6.09335">
        <ele>1063</ele>
        <time>2019-04-19T09:36:45Z</time>
      </trkpt>
      <trkpt lat="44.59322" lon="6.09298">
        <ele>1061</ele>
        <time>2019-04-19T09:37:45Z</time>
      </trkpt>
      <trkpt lat="44.59315" lon="6.09227">
        <ele>1058</ele>
        <time>2019-04-19T09:38:45Z</time>
      </trkpt>
      <trkpt lat="44.59314" lon="6.09181">
        <ele>1056</ele>
        <time>2019-04-19T09:39:45Z</time>
      </trkpt>
      <trkpt lat="44.59318" lon="6.09129">
        <ele>1055</ele>
        <time>2019-04-19T09:40:45Z</time>
      </trkpt>
      <trkpt lat="44.59318" lon="6.09101">
        <ele>1054</ele>
        <time>2019-04-19T09:41:45Z</time>
      </trkpt>
      <trkpt lat="44.59316" lon="6.09074">
        <ele>1054</ele>
        <time>2019-04-19T09:42:45Z</time>
      </trkpt>
      <trkpt lat="44.59308" lon="6.09047">
        <ele>1052</ele>
        <time>2019-04-19T09:43:45Z</time>
      </trkpt>
      <trkpt lat="44.59297" lon="6.09024">
        <ele>1050</ele>
        <time>2019-04-19T09:44:45Z</time>
      </trkpt>
      <trkpt lat="44.59185" lon="6.08821">
        <ele>1040</ele>
        <time>2019-04-19T09:45:45Z</time>
      </trkpt>
      <trkpt lat="44.59161" lon="6.08771">
        <ele>1038</ele>
        <time>2019-04-19T09:46:45Z</time>
      </trkpt>
      <trkpt lat="44.59141" lon="6.08725">
        <ele>1037</ele>
        <time>2019-04-19T09:47:45Z</time>
      </trkpt>
      <trkpt lat="44.59113" lon="6.08649">
        <ele>1036</ele>
        <time>2019-04-19T09:48:45Z</time>
      </trkpt>
      <trkpt lat="44.5903" lon="6.0839">
        <ele>1025</ele>
        <time>2019-04-19T09:49:45Z</time>
      </trkpt>
      <trkpt lat="44.58907" lon="6.08129">
        <ele>1015</ele>
        <time>2019-04-19T09:50:45Z</time>
      </trkpt>
      <trkpt lat="44.58907" lon="6.08109">
        <ele>1015</ele>
        <time>2019-04-19T09:51:45Z</time>
      </trkpt>
      <trkpt lat="44.5892" lon="6.08088">
        <ele>1017</ele>
        <time>2019-04-19T09:52:45Z</time>
      </trkpt>
      <trkpt lat="44.58937" lon="6.08042">
        <ele>1022</ele>
        <time>2019-04-19T09:53:45Z</time>
      </trkpt>
      <trkpt lat="44.58941" lon="6.08036">
        <ele>1023</ele>
        <time>2019-04-19T09:54:45Z</time>
      </trkpt>
      <trkpt lat="44.58947" lon="6.08031">
        <ele>1024</ele>
        <time>2019-04-19T09:55:45Z</time>
      </trkpt>
      <trkpt lat="44.58954" lon="6.0803">
        <ele>1025</ele>
        <time>2019-04-19T09:56:45Z</time>
      </trkpt>
      <trkpt lat="44.58961" lon="6.08034">
        <ele>1027</ele>
        <time>2019-04-19T09:57:45Z</time>
      </trkpt>
      <trkpt lat="44.58968" lon="6.08044">
        <ele>1027</ele>
        <time>2019-04-19T09:58:45Z</time>
      </trkpt>
      <trkpt lat="44.58982" lon="6.08082">
        <ele>1029</ele>
        <time>2019-04-19T09:59:45Z</time>
      </trkpt>
      <trkpt lat="44.59031" lon="6.08191">
        <ele>1035</ele>
        <time>2019-04-19T10:00:45Z</time>
      </trkpt>
      <trkpt lat="44.59041" lon="6.08199">
        <ele>1037</ele>
        <time>2019-04-19T10:01:45Z</time>
      </trkpt>
      <trkpt lat="44.59049" lon="6.08198">
        <ele>1038</ele>
        <time>2019-04-19T10:02:45Z</time>
      </trkpt>
      <trkpt lat="44.59057" lon="6.08191">
        <ele>1040</ele>
        <time>2019-04-19T10:03:45Z</time>
      </trkpt>
      <trkpt lat="44.5906" lon="6.08185">
        <ele>1041</ele>
        <time>2019-04-19T10:04:45Z</time>
      </trkpt>
      <trkpt lat="44.59064" lon="6.08171">
        <ele>1041</ele>
        <time>2019-04-19T10:05:45Z</time>
      </trkpt>
      <trkpt lat="44.59082" lon="6.0803">
        <ele>1048</ele>
        <time>2019-04-19T10:06:45Z</time>
      </trkpt>
      <trkpt lat="44.59087" lon="6.08019">
        <ele>1050</ele>
        <time>2019-04-19T10:07:45Z</time>
      </trkpt>
      <trkpt lat="44.59094" lon="6.08013">
        <ele>1051</ele>
        <time>2019-04-19T10:08:45Z</time>
      </trkpt>
      <trkpt lat="44.59102" lon="6.08013">
        <ele>1053</ele>
        <time>2019-04-19T10:09:45Z</time>
      </trkpt>
      <trkpt lat="44.5911" lon="6.08018">
        <ele>1055</ele>
        <time>2019-04-19T10:10:45Z</time>
      </trkpt>
      <trkpt lat="44.59115" lon="6.08025">
        <ele>1056</ele>
        <time>2019-04-19T10:11:45Z</time>
      </trkpt>
      <trkpt lat="44.59192" lon="6.08174">
        <ele>1065</ele>
        <time>2019-04-19T10:12:45Z</time>
      </trkpt>
      <trkpt lat="44.59201" lon="6.08186">
        <ele>1066</ele>
        <time>2019-04-19T10:13:45Z</time>
      </trkpt>
      <trkpt lat="44.59206" lon="6.0819">
        <ele>1067</ele>
        <time>2019-04-19T10:14:45Z</time>
      </trkpt>
      <trkpt lat="44.59214" lon="6.08191">
        <ele>1068</ele>
        <time>2019-04-19T10:15:45Z</time>
      </trkpt>
      <trkpt lat="44.59222" lon="6.08185">
        <ele>1070</ele>
        <time>2019-04-19T10:16:45Z</time>
      </trkpt>
      <trkpt lat="44.59226" lon="6.08169">
        <ele>1071</ele>
        <time>2019-04-19T10:17:45Z</time>
      </trkpt>
      <trkpt lat="44.59226" lon="6.08124">
        <ele>1073</ele>
        <time>2019-04-19T10:18:45Z</time>
      </trkpt>
      <trkpt lat="44.59227" lon="6.08115">
        <ele>1073</ele>
        <time>2019-04-19T10:19:45Z</time>
      </trkpt>
      <trkpt lat="44.59233" lon="6.08097">
        <ele>1075</ele>
        <time>2019-04-19T10:20:45Z</time>
      </trkpt>
      <trkpt lat="44.5924" lon="6.08085">
        <ele>1076</ele>
        <time>2019-04-19T10:21:45Z</time>
      </trkpt>
      <trkpt lat="44.59246" lon="6.0808">
        <ele>1077</ele>
        <time>2019-04-19T10:22:45Z</time>
      </trkpt>
      <trkpt lat="44.59252" lon="6.08076">
        <ele>1077</ele>
        <time>2019-04-19T10:23:45Z</time>
      </trkpt>
      <trkpt lat="44.59264" lon="6.08074">
        <ele>1078</ele>
        <time>2019-04-19T10:24:45Z</time>
      </trkpt>
      <trkpt lat="44.59284" lon="6.08073">
        <ele>1080</ele>
        <time>2019-04-19T10:25:45Z</time>
      </trkpt>
      <trkpt lat="44.59299" lon="6.08054">
        <ele>1078</ele>
        <time>2019-04-19T10:26:45Z</time>
      </trkpt>
      <trkpt lat="44.59311" lon="6.08043">
        <ele>1076</ele>
        <time>2019-04-19T10:27:45Z</time>
      </trkpt>
      <trkpt lat="44.59367" lon="6.08033">
        <ele>1079</ele>
        <time>2019-04-19T10:28:45Z</time>
      </trkpt>
      <trkpt lat="44.59399" lon="6.08021">
        <ele>1081</ele>
        <time>2019-04-19T10:29:45Z</time>
      </trkpt>
      <trkpt lat="44.59471" lon="6.07988">
        <ele>1086</ele>
        <time>2019-04-19T10:30:45Z</time>
      </trkpt>
      <trkpt lat="44.59507" lon="6.07988">
        <ele>1090</ele>
        <time>2019-04-19T10:31:45Z</time>
      </trkpt>
      <trkpt lat="44.59514" lon="6.07985">
        <ele>1091</ele>
        <time>2019-04-19T10:32:45Z</time>
      </trkpt>
      <trkpt lat="44.59521" lon="6.0798">
        <ele>1092</ele>
        <time>2019-04-19T10:33:45Z</time>
      </trkpt>
      <trkpt lat="44.59526" lon="6.07973">
        <ele>1092</ele>
        <time>2019-04-19T10:34:45Z</time>
      </trkpt>
      <trkpt lat="44.59534" lon="6.07956">
        <ele>1092</ele>
        <time>2019-04-19T10:35:45Z</time>
      </trkpt>
      <trkpt lat="44.59536" lon="6.07948">
        <ele>1092</ele>
        <time>2019-04-19T10:36:45Z</time>
      </trkpt>
      <trkpt lat="44.59538" lon="6.07926">
        <ele>1090</ele>
        <time>2019-04-19T10:37:45Z</time>
      </trkpt>
      <trkpt lat="44.59533" lon="6.07911">
        <ele>1090</ele>
        <time>2019-04-19T10:38:45Z</time>
      </trkpt>
      <trkpt lat="44.59529" lon="6.07904">
        <ele>1090</ele>
        <time>2019-04-19T10:39:45Z</time>
      </trkpt>
      <trkpt lat="44.59522" lon="6.079">
        <ele>1090</ele>
        <time>2019-04-19T10:40:45Z</time>
      </trkpt>
      <trkpt lat="44.59473" lon="6.07878">
        <ele>1091</ele>
        <time>2019-04-19T10:41:45Z</time>
      </trkpt>
      <trkpt lat="44.59449" lon="6.0787">
        <ele>1093</ele>
        <time>2019-04-19T10:42:45Z</time>
      </trkpt>
      <trkpt lat="44.5944" lon="6.07873">
        <ele>1092</ele>
        <time>2019-04-19T10:43:45Z</time>
      </trkpt>
      <trkpt lat="44.59428" lon="6.0788">
        <ele>1090</ele>
        <time>2019-04-19T10:44:45Z</time>
      </trkpt>
      <trkpt lat="44.59419" lon="6.07877">
        <ele>1090</ele>
        <time>2019-04-19T10:45:45Z</time>
      </trkpt>
      <trkpt lat="44.59417" lon="6.07873">
        <ele>1092</ele>
        <time>2019-04-19T10:46:45Z</time>
      </trkpt>
      <trkpt lat="44.59417" lon="6.07864">
        <ele>1094</ele>
        <time>2019-04-19T10:47:45Z</time>
      </trkpt>
      <trkpt lat="44.59421" lon="6.07858">
        <ele>1096</ele>
        <time>2019-04-19T10:48:45Z</time>
      </trkpt>
      <trkpt lat="44.59425" lon="6.07857">
        <ele>1096</ele>
        <time>2019-04-19T10:49:45Z</time>
      </trkpt>
      <trkpt lat="44.59431" lon="6.07856">
        <ele>1097</ele>
        <time>2019-04-19T10:50:45Z</time>
      </trkpt>
      <trkpt lat="44.59448" lon="6.07859">
        <ele>1096</ele>
        <time>2019-04-19T10:51:45Z</time>
      </trkpt>
      <trkpt lat="44.59486" lon="6.07857">
        <ele>1097</ele>
        <time>2019-04-19T10:52:45Z</time>
      </trkpt>
      <trkpt lat="44.59501" lon="6.0785">
        <ele>1098</ele>
        <time>2019-04-19T10:53:45Z</time>
      </trkpt>
      <trkpt lat="44.5951" lon="6.07838">
        <ele>1102</ele>
        <time>2019-04-19T10:54:45Z</time>
      </trkpt>
      <trkpt lat="44.59513" lon="6.07829">
        <ele>1104</ele>
        <time>2019-04-19T10:55:45Z</time>
      </trkpt>
      <trkpt lat="44.59515" lon="6.0779">
        <ele>1109</ele>
        <time>2019-04-19T10:56:45Z</time>
      </trkpt>
      <trkpt lat="44.5951" lon="6.07752">
        <ele>1115</ele>
        <time>2019-04-19T10:57:45Z</time>
      </trkpt>
      <trkpt lat="44.59501" lon="6.07648">
        <ele>1118</ele>
        <time>2019-04-19T10:58:45Z</time>
      </trkpt>
      <trkpt lat="44.59502" lon="6.07628">
        <ele>1118</ele>
        <time>2019-04-19T10:59:45Z</time>
      </trkpt>
      <trkpt lat="44.59507" lon="6.0761">
        <ele>1118</ele>
        <time>2019-04-19T11:00:45Z</time>
      </trkpt>
      <trkpt lat="44.59511" lon="6.07602">
        <ele>1118</ele>
        <time>2019-04-19T11:01:45Z</time>
      </trkpt>
      <trkpt lat="44.59526" lon="6.07586">
        <ele>1119</ele>
        <time>2019-04-19T11:02:45Z</time>
      </trkpt>
      <trkpt lat="44.59542" lon="6.07576">
        <ele>1119</ele>
        <time>2019-04-19T11:03:45Z</time>
      </trkpt>
      <trkpt lat="44.59587" lon="6.07555">
        <ele>1122</ele>
        <time>2019-04-19T11:04:45Z</time>
      </trkpt>
      <trkpt lat="44.59608" lon="6.07552">
        <ele>1123</ele>
        <time>2019-04-19T11:05:45Z</time>
      </trkpt>
      <trkpt lat="44.59648" lon="6.07552">
        <ele>1125</ele>
        <time>2019-04-19T11:06:45Z</time>
      </trkpt>
      <trkpt lat="44.59663" lon="6.07549">
        <ele>1126</ele>
        <time>2019-04-19T11:07:45Z</time>
      </trkpt>
      <trkpt lat="44.59801" lon="6.07465">
        <ele>1146</ele>
        <time>2019-04-19T11:08:45Z</time>
      </trkpt>
      <trkpt lat="44.59807" lon="6.07458">
        <ele>1148</ele>
        <time>2019-04-19T11:09:45Z</time>
      </trkpt>
      <trkpt lat="44.5981" lon="6.07451">
        <ele>1148</ele>
        <time>2019-04-19T11:10:45Z</time>
      </trkpt>
      <trkpt lat="44.59811" lon="6.07437">
        <ele>1149</ele>
        <time>2019-04-19T11:11:45Z</time>
      </trkpt>
      <trkpt lat="44.59805" lon="6.07422">
        <ele>1150</ele>
        <time>2019-04-19T11:12:45Z</time>
      </trkpt>
      <trkpt lat="44.59802" lon="6.07417">
        <ele>1150</ele>
        <time>2019-04-19T11:13:45Z</time>
      </trkpt>
      <trkpt lat="44.59796" lon="6.07415">
        <ele>1150</ele>
        <time>2019-04-19T11:14:45Z</time>
      </trkpt>
      <trkpt lat="44.59786" lon="6.07414">
        <ele>1149</ele>
        <time>2019-04-19T11:15:45Z</time>
      </trkpt>
      <trkpt lat="44.5975" lon="6.07418">
        <ele>1145</ele>
        <time>2019-04-19T11:16:45Z</time>
      </trkpt>
      <trkpt lat="44.59748" lon="6.07415">
        <ele>1145</ele>
        <time>2019-04-19T11:17:45Z</time>
      </trkpt>
      <trkpt lat="44.59708" lon="6.07415">
        <ele>1143</ele>
        <time>2019-04-19T11:18:45Z</time>
      </trkpt>
      <trkpt lat="44.59665" lon="6.07399">
        <ele>1144</ele>
        <time>2019-04-19T11:19:45Z</time>
      </trkpt>
      <trkpt lat="44.59618" lon="6.07397">
        <ele>1142</ele>
        <time>2019-04-19T11:20:45Z</time>
      </trkpt>
      <trkpt lat="44.59597" lon="6.07391">
        <ele>1142</ele>
        <time>2019-04-19T11:21:45Z</time>
      </trkpt>
      <trkpt lat="44.59581" lon="6.07382">
        <ele>1143</ele>
        <time>2019-04-19T11:22:45Z</time>
      </trkpt>
      <trkpt lat="44.59566" lon="6.0737">
        <ele>1143</ele>
        <time>2019-04-19T11:23:45Z</time>
      </trkpt>
      <trkpt lat="44.59551" lon="6.07347">
        <ele>1146</ele>
        <time>2019-04-19T11:24:45Z</time>
      </trkpt>
      <trkpt lat="44.59424" lon="6.07305">
        <ele>1139</ele>
        <time>2019-04-19T11:25:45Z</time>
      </trkpt>
      <trkpt lat="44.5941" lon="6.07294">
        <ele>1138</ele>
        <time>2019-04-19T11:26:45Z</time>
      </trkpt>
      <trkpt lat="44.59392" lon="6.0725">
        <ele>1139</ele>
        <time>2019-04-19T11:27:45Z</time>
      </trkpt>
      <trkpt lat="44.59379" lon="6.07227">
        <ele>1136</ele>
        <time>2019-04-19T11:28:45Z</time>
      </trkpt>
      <trkpt lat="44.59373" lon="6.07205">
        <ele>1134</ele>
        <time>2019-04-19T11:29:45Z</time>
      </trkpt>
      <trkpt lat="44.59374" lon="6.07189">
        <ele>1134</ele>
        <time>2019-04-19T11:30:45Z</time>
      </trkpt>
      <trkpt lat="44.59402" lon="6.07105">
        <ele>1135</ele>
        <time>2019-04-19T11:31:45Z</time>
      </trkpt>
      <trkpt lat="44.5943" lon="6.07037">
        <ele>1139</ele>
        <time>2019-04-19T11:32:45Z</time>
      </trkpt>
      <trkpt lat="44.59442" lon="6.07021">
        <ele>1142</ele>
        <time>2019-04-19T11:33:45Z</time>
      </trkpt>
      <trkpt lat="44.59474" lon="6.06996">
        <ele>1149</ele>
        <time>2019-04-19T11:34:45Z</time>
      </trkpt>
      <trkpt lat="44.5947" lon="6.06988">
        <ele>1150</ele>
        <time>2019-04-19T11:35:45Z</time>
      </trkpt>
      <trkpt lat="44.59442" lon="6.06973">
        <ele>1146</ele>
        <time>2019-04-19T11:36:45Z</time>
      </trkpt>
      <trkpt lat="44.59405" lon="6.06957">
        <ele>1142</ele>
        <time>2019-04-19T11:37:45Z</time>
      </trkpt>
      <trkpt lat="44.59349" lon="6.06953">
        <ele>1134</ele>
        <time>2019-04-19T11:38:45Z</time>
      </trkpt>
      <trkpt lat="44.59323" lon="6.06933">
        <ele>1134</ele>
        <time>2019-04-19T11:39:45Z</time>
      </trkpt>
      <trkpt lat="44.59324" lon="6.06905">
        <ele>1140</ele>
        <time>2019-04-19T11:40:45Z</time>
      </trkpt>
      <trkpt lat="44.59359" lon="6.06862">
        <ele>1153</ele>
        <time>2019-04-19T11:41:45Z</time>
      </trkpt>
      <trkpt lat="44.59317" lon="6.06841">
        <ele>1151</ele>
        <time>2019-04-19T11:42:45Z</time>
      </trkpt>
      <trkpt lat="44.59281" lon="6.06841">
        <ele>1147</ele>
        <time>2019-04-19T11:43:45Z</time>
      </trkpt>
      <trkpt lat="44.59257" lon="6.06857">
        <ele>1141</ele>
        <time>2019-04-19T11:44:45Z</time>
      </trkpt>
      <trkpt lat="44.59223" lon="6.0686">
        <ele>1132</ele>
        <time>2019-04-19T11:45:45Z</time>
      </trkpt>
      <trkpt lat="44.5921" lon="6.06836">
        <ele>1133</ele>
        <time>2019-04-19T11:46:45Z</time>
      </trkpt>
      <trkpt lat="44.59205" lon="6.06823">
        <ele>1133</ele>
        <time>2019-04-19T11:47:45Z</time>
      </trkpt>
      <trkpt lat="44.59197" lon="6.06752">
        <ele>1138</ele>
        <time>2019-04-19T11:48:45Z</time>
      </trkpt>
      <trkpt lat="44.59185" lon="6.06695">
        <ele>1138</ele>
        <time>2019-04-19T11:49:45Z</time>
      </trkpt>
      <trkpt lat="44.59182" lon="6.0666">
        <ele>1139</ele>
        <time>2019-04-19T11:50:45Z</time>
      </trkpt>
      <trkpt lat="44.59184" lon="6.06563">
        <ele>1146</ele>
        <time>2019-04-19T11:51:45Z</time>
      </trkpt>
      <trkpt lat="44.5918" lon="6.06542">
        <ele>1148</ele>
        <time>2019-04-19T11:52:45Z</time>
      </trkpt>
      <trkpt lat="44.59164" lon="6.06518">
        <ele>1146</ele>
        <time>2019-04-19T11:53:45Z</time>
      </trkpt>
      <trkpt lat="44.59154" lon="6.06476">
        <ele>1153</ele>
        <time>2019-04-19T11:54:45Z</time>
      </trkpt>
      <trkpt lat="44.59129" lon="6.06459">
        <ele>1153</ele>
        <time>2019-04-19T11:55:45Z</time>
      </trkpt>
      <trkpt lat="44.59097" lon="6.0646">
        <ele>1148</ele>
        <time>2019-04-19T11:56:45Z</time>
      </trkpt>
      <trkpt lat="44.59063" lon="6.06505">
        <ele>1137</ele>
        <time>2019-04-19T11:57:45Z</time>
      </trkpt>
      <trkpt lat="44.59021" lon="6.06528">
        <ele>1136</ele>
        <time>2019-04-19T11:58:45Z</time>
      </trkpt>
      <trkpt lat="44.5899" lon="6.06542">
        <ele>1135</ele>
        <time>2019-04-19T11:59:45Z</time>
      </trkpt>
      <trkpt lat="44.58975" lon="6.06543">
        <ele>1133</ele>
        <time>2019-04-19T12:00:45Z</time>
      </trkpt>
      <trkpt lat="44.58957" lon="6.06532">
        <ele>1133</ele>
        <time>2019-04-19T12:01:45Z</time>
      </trkpt>
      <trkpt lat="44.58916" lon="6.06477">
        <ele>1136</ele>
        <time>2019-04-19T12:02:45Z</time>
      </trkpt>
      <trkpt lat="44.58913" lon="6.06458">
        <ele>1137</ele>
        <time>2019-04-19T12:03:45Z</time>
      </trkpt>
      <trkpt lat="44.589" lon="6.06415">
        <ele>1139</ele>
        <time>2019-04-19T12:04:45Z</time>
      </trkpt>
      <trkpt lat="44.58847" lon="6.06327">
        <ele>1138</ele>
        <time>2019-04-19T12:05:45Z</time>
      </trkpt>
      <trkpt lat="44.58839" lon="6.06286">
        <ele>1139</ele>
        <time>2019-04-19T12:06:45Z</time>
      </trkpt>
      <trkpt lat="44.58834" lon="6.06269">
        <ele>1140</ele>
        <time>2019-04-19T12:07:45Z</time>
      </trkpt>
      <trkpt lat="44.58787" lon="6.06154">
        <ele>1141</ele>
        <time>2019-04-19T12:08:45Z</time>
      </trkpt>
      <trkpt lat="44.58779" lon="6.06133">
        <ele>1142</ele>
        <time>2019-04-19T12:09:45Z</time>
      </trkpt>
      <trkpt lat="44.58771" lon="6.06102">
        <ele>1145</ele>
        <time>2019-04-19T12:10:45Z</time>
      </trkpt>
      <trkpt lat="44.58764" lon="6.06093">
        <ele>1145</ele>
        <time>2019-04-19T12:11:45Z</time>
      </trkpt>
      <trkpt lat="44.58697" lon="6.06048">
        <ele>1138</ele>
        <time>2019-04-19T12:12:45Z</time>
      </trkpt>
      <trkpt lat="44.5869" lon="6.0604">
        <ele>1138</ele>
        <time>2019-04-19T12:13:45Z</time>
      </trkpt>
      <trkpt lat="44.58663" lon="6.05972">
        <ele>1145</ele>
        <time>2019-04-19T12:14:45Z</time>
      </trkpt>
      <trkpt lat="44.58649" lon="6.05951">
        <ele>1145</ele>
        <time>2019-04-19T12:15:45Z</time>
      </trkpt>
      <trkpt lat="44.58605" lon="6.0591">
        <ele>1140</ele>
        <time>2019-04-19T12:16:45Z</time>
      </trkpt>
      <trkpt lat="44.58597" lon="6.05898">
        <ele>1140</ele>
        <time>2019-04-19T12:17:45Z</time>
      </trkpt>
      <trkpt lat="44.58591" lon="6.05876">
        <ele>1142</ele>
        <time>2019-04-19T12:18:45Z</time>
      </trkpt>
      <trkpt lat="44.58587" lon="6.05854">
        <ele>1145</ele>
        <time>2019-04-19T12:19:45Z</time>
      </trkpt>
      <trkpt lat="44.58561" lon="6.05813">
        <ele>1148</ele>
        <time>2019-04-19T12:20:45Z</time>
      </trkpt>
      <trkpt lat="44.58544" lon="6.05807">
        <ele>1147</ele>
        <time>2019-04-19T12:21:45Z</time>
      </trkpt>
      <trkpt lat="44.58521" lon="6.05814">
        <ele>1143</ele>
        <time>2019-04-19T12:22:45Z</time>
      </trkpt>
      <trkpt lat="44.58487" lon="6.05795">
        <ele>1140</ele>
        <time>2019-04-19T12:23:45Z</time>
      </trkpt>
      <trkpt lat="44.58475" lon="6.05782">
        <ele>1139</ele>
        <time>2019-04-19T12:24:45Z</time>
      </trkpt>
      <trkpt lat="44.5844" lon="6.05721">
        <ele>1140</ele>
        <time>2019-04-19T12:25:45Z</time>
      </trkpt>
      <trkpt lat="44.58399" lon="6.05668">
        <ele>1142</ele>
        <time>2019-04-19T12:26:45Z</time>
      </trkpt>
      <trkpt lat="44.5839" lon="6.05647">
        <ele>1143</ele>
        <time>2019-04-19T12:27:45Z</time>
      </trkpt>
      <trkpt lat="44.58352" lon="6.05597">
        <ele>1141</ele>
        <time>2019-04-19T12:28:45Z</time>
      </trkpt>
      <trkpt lat="44.58327" lon="6.05543">
        <ele>1143</ele>
        <time>2019-04-19T12:29:45Z</time>
      </trkpt>
      <trkpt lat="44.58294" lon="6.05455">
        <ele>1147</ele>
        <time>2019-04-19T12:30:45Z</time>
      </trkpt>
      <trkpt lat="44.5828" lon="6.05424">
        <ele>1146</ele>
        <time>2019-04-19T12:31:45Z</time>
      </trkpt>
      <trkpt lat="44.58242" lon="6.05378">
        <ele>1142</ele>
        <time>2019-04-19T12:32:45Z</time>
      </trkpt>
      <trkpt lat="44.58163" lon="6.05239">
        <ele>1145</ele>
        <time>2019-04-19T12:33:45Z</time>
      </trkpt>
      <trkpt lat="44.58111" lon="6.05173">
        <ele>1142</ele>
        <time>2019-04-19T12:34:45Z</time>
      </trkpt>
      <trkpt lat="44.58086" lon="6.05135">
        <ele>1144</ele>
        <time>2019-04-19T12:35:45Z</time>
      </trkpt>
      <trkpt lat="44.58059" lon="6.05109">
        <ele>1142</ele>
        <time>2019-04-19T12:36:45Z</time>
      </trkpt>
      <trkpt lat="44.58037" lon="6.05067">
        <ele>1146</ele>
        <time>2019-04-19T12:37:45Z</time>
      </trkpt>
      <trkpt lat="44.58019" lon="6.0506">
        <ele>1142</ele>
        <time>2019-04-19T12:38:45Z</time>
      </trkpt>
      <trkpt lat="44.57981" lon="6.04987">
        <ele>1144</ele>
        <time>2019-04-19T12:39:45Z</time>
      </trkpt>
      <trkpt lat="44.57954" lon="6.04965">
        <ele>1140</ele>
        <time>2019-04-19T12:40:45Z</time>
      </trkpt>
      <trkpt lat="44.57934" lon="6.04932">
        <ele>1140</ele>
        <time>2019-04-19T12:41:45Z</time>
      </trkpt>
      <trkpt lat="44.57909" lon="6.04863">
        <ele>1144</ele>
        <time>2019-04-19T12:42:45Z</time>
      </trkpt>
      <trkpt lat="44.57896" lon="6.04838">
        <ele>1146</ele>
        <time>2019-04-19T12:43:45Z</time>
      </trkpt>
      <trkpt lat="44.57841" lon="6.04776">
        <ele>1147</ele>
        <time>2019-04-19T12:44:45Z</time>
      </trkpt>
      <trkpt lat="44.57811" lon="6.04758">
        <ele>1144</ele>
        <time>2019-04-19T12:45:45Z</time>
      </trkpt>
      <trkpt lat="44.57793" lon="6.04706">
        <ele>1153</ele>
        <time>2019-04-19T12:46:45Z</time>
      </trkpt>
      <trkpt lat="44.57757" lon="6.04697">
        <ele>1148</ele>
        <time>2019-04-19T12:47:45Z</time>
      </trkpt>
      <trkpt lat="44.57707" lon="6.04678">
        <ele>1141</ele>
        <time>2019-04-19T12:48:45Z</time>
      </trkpt>
      <trkpt lat="44.57701" lon="6.04662">
        <ele>1143</ele>
        <time>2019-04-19T12:49:45Z</time>
      </trkpt>
      <trkpt lat="44.57683" lon="6.04586">
        <ele>1149</ele>
        <time>2019-04-19T12:50:45Z</time>
      </trkpt>
      <trkpt lat="44.57675" lon="6.04572">
        <ele>1149</ele>
        <time>2019-04-19T12:51:45Z</time>
      </trkpt>
      <trkpt lat="44.57623" lon="6.04555">
        <ele>1142</ele>
        <time>2019-04-19T12:52:45Z</time>
      </trkpt>
      <trkpt lat="44.57615" lon="6.04547">
        <ele>1142</ele>
        <time>2019-04-19T12:53:45Z</time>
      </trkpt>
      <trkpt lat="44.57611" lon="6.04526">
        <ele>1144</ele>
        <time>2019-04-19T12:54:45Z</time>
      </trkpt>
      <trkpt lat="44.5757" lon="6.04456">
        <ele>1143</ele>
        <time>2019-04-19T12:55:45Z</time>
      </trkpt>
      <trkpt lat="44.57526" lon="6.04374">
        <ele>1144</ele>
        <time>2019-04-19T12:56:45Z</time>
      </trkpt>
      <trkpt lat="44.57515" lon="6.04317">
        <ele>1150</ele>
        <time>2019-04-19T12:57:45Z</time>
      </trkpt>
      <trkpt lat="44.57493" lon="6.04247">
        <ele>1150</ele>
        <time>2019-04-19T12:58:45Z</time>
      </trkpt>
      <trkpt lat="44.57465" lon="6.04206">
        <ele>1145</ele>
        <time>2019-04-19T12:59:45Z</time>
      </trkpt>
      <trkpt lat="44.57455" lon="6.04195">
        <ele>1143</ele>
        <time>2019-04-19T13:00:45Z</time>
      </trkpt>
      <trkpt lat="44.57445" lon="6.04178">
        <ele>1142</ele>
        <time>2019-04-19T13:01:45Z</time>
      </trkpt>
      <trkpt lat="44.57392" lon="6.04055">
        <ele>1143</ele>
        <time>2019-04-19T13:02:45Z</time>
      </trkpt>
      <trkpt lat="44.57372" lon="6.04014">
        <ele>1143</ele>
        <time>2019-04-19T13:03:45Z</time>
      </trkpt>
      <trkpt lat="44.57367" lon="6.03987">
        <ele>1146</ele>
        <time>2019-04-19T13:04:45Z</time>
      </trkpt>
      <trkpt lat="44.57337" lon="6.03937">
        <ele>1145</ele>
        <time>2019-04-19T13:05:45Z</time>
      </trkpt>
      <trkpt lat="44.5732" lon="6.03921">
        <ele>1143</ele>
        <time>2019-04-19T13:06:45Z</time>
      </trkpt>
      <trkpt lat="44.57288" lon="6.03873">
        <ele>1144</ele>
        <time>2019-04-19T13:07:45Z</time>
      </trkpt>
      <trkpt lat="44.57259" lon="6.03844">
        <ele>1141</ele>
        <time>2019-04-19T13:08:45Z</time>
      </trkpt>
      <trkpt lat="44.57214" lon="6.03818">
        <ele>1132</ele>
        <time>2019-04-19T13:09:45Z</time>
      </trkpt>
      <trkpt lat="44.57203" lon="6.03802">
        <ele>1129</ele>
        <time>2019-04-19T13:10:45Z</time>
      </trkpt>
      <trkpt lat="44.57201" lon="6.03787">
        <ele>1128</ele>
        <time>2019-04-19T13:11:45Z</time>
      </trkpt>
      <trkpt lat="44.57235" lon="6.03759">
        <ele>1137</ele>
        <time>2019-04-19T13:12:45Z</time>
      </trkpt>
      <trkpt lat="44.57247" lon="6.03736">
        <ele>1139</ele>
        <time>2019-04-19T13:13:45Z</time>
      </trkpt>
      <trkpt lat="44.5726" lon="6.0372">
        <ele>1142</ele>
        <time>2019-04-19T13:14:45Z</time>
      </trkpt>
      <trkpt lat="44.57308" lon="6.03692">
        <ele>1155</ele>
        <time>2019-04-19T13:15:45Z</time>
      </trkpt>
      <trkpt lat="44.57308" lon="6.03685">
        <ele>1154</ele>
        <time>2019-04-19T13:16:45Z</time>
      </trkpt>
      <trkpt lat="44.57294" lon="6.03661">
        <ele>1150</ele>
        <time>2019-04-19T13:17:45Z</time>
      </trkpt>
      <trkpt lat="44.57278" lon="6.03627">
        <ele>1149</ele>
        <time>2019-04-19T13:18:45Z</time>
      </trkpt>
      <trkpt lat="44.57271" lon="6.0362">
        <ele>1147</ele>
        <time>2019-04-19T13:19:45Z</time>
      </trkpt>
      <trkpt lat="44.57242" lon="6.03609">
        <ele>1141</ele>
        <time>2019-04-19T13:20:45Z</time>
      </trkpt>
      <trkpt lat="44.57236" lon="6.03602">
        <ele>1140</ele>
        <time>2019-04-19T13:21:45Z</time>
      </trkpt>
      <trkpt lat="44.57232" lon="6.03592">
        <ele>1140</ele>
        <time>2019-04-19T13:22:45Z</time>
      </trkpt>
      <trkpt lat="44.57221" lon="6.03549">
        <ele>1146</ele>
        <time>2019-04-19T13:23:45Z</time>
      </trkpt>
      <trkpt lat="44.57208" lon="6.03504">
        <ele>1154</ele>
        <time>2019-04-19T13:24:45Z</time>
      </trkpt>
      <trkpt lat="44.57173" lon="6.03506">
        <ele>1154</ele>
        <time>2019-04-19T13:25:45Z</time>
      </trkpt>
      <trkpt lat="44.57136" lon="6.03547">
        <ele>1141</ele>
        <time>2019-04-19T13:26:45Z</time>
      </trkpt>
      <trkpt lat="44.57086" lon="6.03554">
        <ele>1138</ele>
        <time>2019-04-19T13:27:45Z</time>
      </trkpt>
      <trkpt lat="44.57075" lon="6.03552">
        <ele>1137</ele>
        <time>2019-04-19T13:28:45Z</time>
      </trkpt>
      <trkpt lat="44.5705" lon="6.03514">
        <ele>1141</ele>
        <time>2019-04-19T13:29:45Z</time>
      </trkpt>
      <trkpt lat="44.57024" lon="6.03454">
        <ele>1147</ele>
        <time>2019-04-19T13:30:45Z</time>
      </trkpt>
      <trkpt lat="44.57015" lon="6.03442">
        <ele>1147</ele>
        <time>2019-04-19T13:31:45Z</time>
      </trkpt>
      <trkpt lat="44.56981" lon="6.0342">
        <ele>1142</ele>
        <time>2019-04-19T13:32:45Z</time>
      </trkpt>
      <trkpt lat="44.56936" lon="6.03355">
        <ele>1146</ele>
        <time>2019-04-19T13:33:45Z</time>
      </trkpt>
      <trkpt lat="44.56907" lon="6.03336">
        <ele>1144</ele>
        <time>2019-04-19T13:34:45Z</time>
      </trkpt>
      <trkpt lat="44.56852" lon="6.03275">
        <ele>1141</ele>
        <time>2019-04-19T13:35:45Z</time>
      </trkpt>
      <trkpt lat="44.56845" lon="6.03261">
        <ele>1140</ele>
        <time>2019-04-19T13:36:45Z</time>
      </trkpt>
      <trkpt lat="44.56834" lon="6.03201">
        <ele>1148</ele>
        <time>2019-04-19T13:37:45Z</time>
      </trkpt>
      <trkpt lat="44.56803" lon="6.03159">
        <ele>1148</ele>
        <time>2019-04-19T13:38:45Z</time>
      </trkpt>
      <trkpt lat="44.56785" lon="6.03139">
        <ele>1149</ele>
        <time>2019-04-19T13:39:45Z</time>
      </trkpt>
      <trkpt lat="44.56744" lon="6.03108">
        <ele>1148</ele>
        <time>2019-04-19T13:40:45Z</time>
      </trkpt>
      <trkpt lat="44.5669" lon="6.03037">
        <ele>1152</ele>
        <time>2019-04-19T13:41:45Z</time>
      </trkpt>
      <trkpt lat="44.56652" lon="6.03025">
        <ele>1146</ele>
        <time>2019-04-19T13:42:45Z</time>
      </trkpt>
      <trkpt lat="44.56648" lon="6.03008">
        <ele>1150</ele>
        <time>2019-04-19T13:43:45Z</time>
      </trkpt>
      <trkpt lat="44.56626" lon="6.03016">
        <ele>1144</ele>
        <time>2019-04-19T13:44:45Z</time>
      </trkpt>
      <trkpt lat="44.56601" lon="6.02985">
        <ele>1148</ele>
        <time>2019-04-19T13:45:45Z</time>
      </trkpt>
      <trkpt lat="44.5656" lon="6.02944">
        <ele>1149</ele>
        <time>2019-04-19T13:46:45Z</time>
      </trkpt>
      <trkpt lat="44.56554" lon="6.02935">
        <ele>1150</ele>
        <time>2019-04-19T13:47:45Z</time>
      </trkpt>
      <trkpt lat="44.56548" lon="6.02908">
        <ele>1155</ele>
        <time>2019-04-19T13:48:45Z</time>
      </trkpt>
      <trkpt lat="44.56499" lon="6.02913">
        <ele>1144</ele>
        <time>2019-04-19T13:49:45Z</time>
      </trkpt>
      <trkpt lat="44.56478" lon="6.02902">
        <ele>1143</ele>
        <time>2019-04-19T13:50:45Z</time>
      </trkpt>
      <trkpt lat="44.56432" lon="6.02858">
        <ele>1145</ele>
        <time>2019-04-19T13:51:45Z</time>
      </trkpt>
      <trkpt lat="44.56325" lon="6.02737">
        <ele>1143</ele>
        <time>2019-04-19T13:52:45Z</time>
      </trkpt>
      <trkpt lat="44.56312" lon="6.02693">
        <ele>1146</ele>
        <time>2019-04-19T13:53:45Z</time>
      </trkpt>
      <trkpt lat="44.56305" lon="6.02657">
        <ele>1151</ele>
        <time>2019-04-19T13:54:45Z</time>
      </trkpt>
      <trkpt lat="44.56279" lon="6.02628">
        <ele>1149</ele>
        <time>2019-04-19T13:55:45Z</time>
      </trkpt>
      <trkpt lat="44.56255" lon="6.02634">
        <ele>1142</ele>
        <time>2019-04-19T13:56:45Z</time>
      </trkpt>
      <trkpt lat="44.56242" lon="6.02631">
        <ele>1139</ele>
        <time>2019-04-19T13:57:45Z</time>
      </trkpt>
      <trkpt lat="44.56227" lon="6.02625">
        <ele>1137</ele>
        <time>2019-04-19T13:58:45Z</time>
      </trkpt>
      <trkpt lat="44.56178" lon="6.02534">
        <ele>1139</ele>
        <time>2019-04-19T13:59:45Z</time>
      </trkpt>
      <trkpt lat="44.56164" lon="6.02497">
        <ele>1140</ele>
        <time>2019-04-19T14:00:45Z</time>
      </trkpt>
      <trkpt lat="44.56147" lon="6.02462">
        <ele>1140</ele>
        <time>2019-04-19T14:01:45Z</time>
      </trkpt>
      <trkpt lat="44.56102" lon="6.02378">
        <ele>1138</ele>
        <time>2019-04-19T14:02:45Z</time>
      </trkpt>
      <trkpt lat="44.56061" lon="6.02273">
        <ele>1137</ele>
        <time>2019-04-19T14:03:45Z</time>
      </trkpt>
      <trkpt lat="44.56023" lon="6.02159">
        <ele>1137</ele>
        <time>2019-04-19T14:04:45Z</time>
      </trkpt>
      <trkpt lat="44.5601" lon="6.02089">
        <ele>1135</ele>
        <time>2019-04-19T14:05:45Z</time>
      </trkpt>
      <trkpt lat="44.56008" lon="6.02049">
        <ele>1136</ele>
        <time>2019-04-19T14:06:45Z</time>
      </trkpt>
      <trkpt lat="44.55986" lon="6.01882">
        <ele>1136</ele>
        <time>2019-04-19T14:07:45Z</time>
      </trkpt>
      <trkpt lat="44.55982" lon="6.0184">
        <ele>1136</ele>
        <time>2019-04-19T14:08:45Z</time>
      </trkpt>
      <trkpt lat="44.55986" lon="6.01791">
        <ele>1138</ele>
        <time>2019-04-19T14:09:45Z</time>
      </trkpt>
      <trkpt lat="44.55981" lon="6.01786">
        <ele>1137</ele>
        <time>2019-04-19T14:10:45Z</time>
      </trkpt>
      <trkpt lat="44.56013" lon="6.01644">
        <ele>1145</ele>
        <time>2019-04-19T14:11:45Z</time>
      </trkpt>
      <trkpt lat="44.56024" lon="6.01579">
        <ele>1150</ele>
        <time>2019-04-19T14:12:45Z</time>
      </trkpt>
      <trkpt lat="44.56043" lon="6.01385">
        <ele>1162</ele>
        <time>2019-04-19T14:13:45Z</time>
      </trkpt>
      <trkpt lat="44.5605" lon="6.01331">
        <ele>1166</ele>
        <time>2019-04-19T14:14:45Z</time>
      </trkpt>
      <trkpt lat="44.56056" lon="6.01275">
        <ele>1169</ele>
        <time>2019-04-19T14:15:45Z</time>
      </trkpt>
      <trkpt lat="44.56057" lon="6.01258">
        <ele>1169</ele>
        <time>2019-04-19T14:16:45Z</time>
      </trkpt>
      <trkpt lat="44.56052" lon="6.01165">
        <ele>1170</ele>
        <time>2019-04-19T14:17:45Z</time>
      </trkpt>
      <trkpt lat="44.56038" lon="6.0109">
        <ele>1171</ele>
        <time>2019-04-19T14:18:45Z</time>
      </trkpt>
      <trkpt lat="44.56031" lon="6.01031">
        <ele>1171</ele>
        <time>2019-04-19T14:19:45Z</time>
      </trkpt>
      <trkpt lat="44.56024" lon="6.00948">
        <ele>1170</ele>
        <time>2019-04-19T14:20:45Z</time>
      </trkpt>
      <trkpt lat="44.56022" lon="6.00905">
        <ele>1170</ele>
        <time>2019-04-19T14:21:45Z</time>
      </trkpt>
      <trkpt lat="44.56022" lon="6.00797">
        <ele>1168</ele>
        <time>2019-04-19T14:22:45Z</time>
      </trkpt>
      <trkpt lat="44.56024" lon="6.00762">
        <ele>1168</ele>
        <time>2019-04-19T14:23:45Z</time>
      </trkpt>
      <trkpt lat="44.56052" lon="6.00653">
        <ele>1172</ele>
        <time>2019-04-19T14:24:45Z</time>
      </trkpt>
      <trkpt lat="44.56092" lon="6.00524">
        <ele>1173</ele>
        <time>2019-04-19T14:25:45Z</time>
      </trkpt>
      <trkpt lat="44.56104" lon="6.00504">
        <ele>1174</ele>
        <time>2019-04-19T14:26:45Z</time>
      </trkpt>
      <trkpt lat="44.56113" lon="6.00496">
        <ele>1175</ele>
        <time>2019-04-19T14:27:45Z</time>
      </trkpt>
      <trkpt lat="44.5616" lon="6.00462">
        <ele>1181</ele>
        <time>2019-04-19T14:28:45Z</time>
      </trkpt>
      <trkpt lat="44.5617" lon="6.00451">
        <ele>1182</ele>
        <time>2019-04-19T14:29:45Z</time>
      </trkpt>
      <trkpt lat="44.56167" lon="6.0044">
        <ele>1181</ele>
        <time>2019-04-19T14:30:45Z</time>
      </trkpt>
      <trkpt lat="44.56164" lon="6.00422">
        <ele>1180</ele>
        <time>2019-04-19T14:31:45Z</time>
      </trkpt>
      <trkpt lat="44.56163" lon="6.004">
        <ele>1179</ele>
        <time>2019-04-19T14:32:45Z</time>
      </trkpt>
      <trkpt lat="44.56164" lon="6.00385">
        <ele>1179</ele>
        <time>2019-04-19T14:33:45Z</time>
      </trkpt>
      <trkpt lat="44.56172" lon="6.00355">
        <ele>1180</ele>
        <time>2019-04-19T14:34:45Z</time>
      </trkpt>
      <trkpt lat="44.56184" lon="6.00316">
        <ele>1180</ele>
        <time>2019-04-19T14:35:45Z</time>
      </trkpt>
      <trkpt lat="44.56192" lon="6.00281">
        <ele>1180</ele>
        <time>2019-04-19T14:36:45Z</time>
      </trkpt>
      <trkpt lat="44.56213" lon="6.00148">
        <ele>1179</ele>
        <time>2019-04-19T14:37:45Z</time>
      </trkpt>
      <trkpt lat="44.56215" lon="6.00062">
        <ele>1177</ele>
        <time>2019-04-19T14:38:45Z</time>
      </trkpt>
      <trkpt lat="44.5622" lon="6.00021">
        <ele>1174</ele>
        <time>2019-04-19T14:39:45Z</time>
      </trkpt>
      <trkpt lat="44.56229" lon="5.99993">
        <ele>1173</ele>
        <time>2019-04-19T14:40:45Z</time>
      </trkpt>
      <trkpt lat="44.56289" lon="5.99872">
        <ele>1171</ele>
        <time>2019-04-19T14:41:45Z</time>
      </trkpt>
      <trkpt lat="44.56295" lon="5.99851">
        <ele>1171</ele>
        <time>2019-04-19T14:42:45Z</time>
      </trkpt>
      <trkpt lat="44.56294" lon="5.99843">
        <ele>1170</ele>
        <time>2019-04-19T14:43:45Z</time>
      </trkpt>
      <trkpt lat="44.56292" lon="5.99836">
        <ele>1170</ele>
        <time>2019-04-19T14:44:45Z</time>
      </trkpt>
      <trkpt lat="44.56281" lon="5.99829">
        <ele>1170</ele>
        <time>2019-04-19T14:45:45Z</time>
      </trkpt>
      <trkpt lat="44.56188" lon="5.99797">
        <ele>1165</ele>
        <time>2019-04-19T14:46:45Z</time>
      </trkpt>
      <trkpt lat="44.56142" lon="5.99768">
        <ele>1162</ele>
        <time>2019-04-19T14:47:45Z</time>
      </trkpt>
      <trkpt lat="44.56101" lon="5.99735">
        <ele>1160</ele>
        <time>2019-04-19T14:48:45Z</time>
      </trkpt>
      <trkpt lat="44.56057" lon="5.99691">
        <ele>1157</ele>
        <time>2019-04-19T14:49:45Z</time>
      </trkpt>
      <trkpt lat="44.56032" lon="5.99669">
        <ele>1155</ele>
        <time>2019-04-19T14:50:45Z</time>
      </trkpt>
      <trkpt lat="44.55968" lon="5.99622">
        <ele>1151</ele>
        <time>2019-04-19T14:51:45Z</time>
      </trkpt>
      <trkpt lat="44.55926" lon="5.996">
        <ele>1148</ele>
        <time>2019-04-19T14:52:45Z</time>
      </trkpt>
      <trkpt lat="44.55916" lon="5.99596">
        <ele>1147</ele>
        <time>2019-04-19T14:53:45Z</time>
      </trkpt>
      <trkpt lat="44.55876" lon="5.9959">
        <ele>1143</ele>
        <time>2019-04-19T14:54:45Z</time>
      </trkpt>
      <trkpt lat="44.55856" lon="5.99584">
        <ele>1140</ele>
        <time>2019-04-19T14:55:45Z</time>
      </trkpt>
      <trkpt lat="44.55848" lon="5.99579">
        <ele>1139</ele>
        <time>2019-04-19T14:56:45Z</time>
      </trkpt>
      <trkpt lat="44.55841" lon="5.9957">
        <ele>1138</ele>
        <time>2019-04-19T14:57:45Z</time>
      </trkpt>
      <trkpt lat="44.5583" lon="5.99546">
        <ele>1136</ele>
        <time>2019-04-19T14:58:45Z</time>
      </trkpt>
      <trkpt lat="44.55765" lon="5.99047">
        <ele>1121</ele>
        <time>2019-04-19T14:59:45Z</time>
      </trkpt>
      <trkpt lat="44.55761" lon="5.99006">
        <ele>1119</ele>
        <time>2019-04-19T15:00:45Z</time>
      </trkpt>
      <trkpt lat="44.55762" lon="5.98954">
        <ele>1119</ele>
        <time>2019-04-19T15:01:45Z</time>
      </trkpt>
      <trkpt lat="44.55774" lon="5.98862">
        <ele>1120</ele>
        <time>2019-04-19T15:02:45Z</time>
      </trkpt>
      <trkpt lat="44.55775" lon="5.98813">
        <ele>1119</ele>
        <time>2019-04-19T15:03:45Z</time>
      </trkpt>
      <trkpt lat="44.55762" lon="5.98558">
        <ele>1111</ele>
        <time>2019-04-19T15:04:45Z</time>
      </trkpt>
      <trkpt lat="44.55763" lon="5.9848">
        <ele>1109</ele>
        <time>2019-04-19T15:05:45Z</time>
      </trkpt>
      <trkpt lat="44.55785" lon="5.98176">
        <ele>1101</ele>
        <time>2019-04-19T15:06:45Z</time>
      </trkpt>
      <trkpt lat="44.55781" lon="5.98156">
        <ele>1101</ele>
        <time>2019-04-19T15:07:45Z</time>
      </trkpt>
      <trkpt lat="44.55725" lon="5.98015">
        <ele>1093</ele>
        <time>2019-04-19T15:08:45Z</time>
      </trkpt>
      <trkpt lat="44.55719" lon="5.97994">
        <ele>1092</ele>
        <time>2019-04-19T15:09:45Z</time>
      </trkpt>
      <trkpt lat="44.55708" lon="5.97918">
        <ele>1088</ele>
        <time>2019-04-19T15:10:45Z</time>
      </trkpt>
      <trkpt lat="44.55692" lon="5.97852">
        <ele>1085</ele>
        <time>2019-04-19T15:11:45Z</time>
      </trkpt>
      <trkpt lat="44.55685" lon="5.97815">
        <ele>1083</ele>
        <time>2019-04-19T15:12:45Z</time>
      </trkpt>
      <trkpt lat="44.55673" lon="5.9769">
        <ele>1074</ele>
        <time>2019-04-19T15:13:45Z</time>
      </trkpt>
      <trkpt lat="44.55673" lon="5.97673">
        <ele>1073</ele>
        <time>2019-04-19T15:14:45Z</time>
      </trkpt>
      <trkpt lat="44.55677" lon="5.97642">
        <ele>1071</ele>
        <time>2019-04-19T15:15:45Z</time>
      </trkpt>
      <trkpt lat="44.55687" lon="5.97595">
        <ele>1069</ele>
        <time>2019-04-19T15:16:45Z</time>
      </trkpt>
      <trkpt lat="44.55692" lon="5.97549">
        <ele>1068</ele>
        <time>2019-04-19T15:17:45Z</time>
      </trkpt>
      <trkpt lat="44.55693" lon="5.97506">
        <ele>1067</ele>
        <time>2019-04-19T15:18:45Z</time>
      </trkpt>
      <trkpt lat="44.5566" lon="5.97419">
        <ele>1058</ele>
        <time>2019-04-19T15:19:45Z</time>
      </trkpt>
      <trkpt lat="44.55655" lon="5.97402">
        <ele>1057</ele>
        <time>2019-04-19T15:20:45Z</time>
      </trkpt>
      <trkpt lat="44.55653" lon="5.97391">
        <ele>1057</ele>
        <time>2019-04-19T15:21:45Z</time>
      </trkpt>
      <trkpt lat="44.55655" lon="5.97373">
        <ele>1056</ele>
        <time>2019-04-19T15:22:45Z</time>
      </trkpt>
      <trkpt lat="44.55664" lon="5.97324">
        <ele>1054</ele>
        <time>2019-04-19T15:23:45Z</time>
      </trkpt>
      <trkpt lat="44.55671" lon="5.97306">
        <ele>1054</ele>
        <time>2019-04-19T15:24:45Z</time>
      </trkpt>
      <trkpt lat="44.55691" lon="5.97275">
        <ele>1053</ele>
        <time>2019-04-19T15:25:45Z</time>
      </trkpt>
      <trkpt lat="44.55712" lon="5.97232">
        <ele>1050</ele>
        <time>2019-04-19T15:26:45Z</time>
      </trkpt>
      <trkpt lat="44.5573" lon="5.97193">
        <ele>1048</ele>
        <time>2019-04-19T15:27:45Z</time>
      </trkpt>
      <trkpt lat="44.55744" lon="5.97145">
        <ele>1044</ele>
        <time>2019-04-19T15:28:45Z</time>
      </trkpt>
      <trkpt lat="44.55754" lon="5.97125">
        <ele>1043</ele>
        <time>2019-04-19T15:29:45Z</time>
      </trkpt>
      <trkpt lat="44.55771" lon="5.97098">
        <ele>1041</ele>
        <time>2019-04-19T15:30:45Z</time>
      </trkpt>
      <trkpt lat="44.558" lon="5.97069">
        <ele>1038</ele>
        <time>2019-04-19T15:31:45Z</time>
      </trkpt>
      <trkpt lat="44.55824" lon="5.97051">
        <ele>1037</ele>
        <time>2019-04-19T15:32:45Z</time>
      </trkpt>
      <trkpt lat="44.55836" lon="5.97035">
        <ele>1037</ele>
        <time>2019-04-19T15:33:45Z</time>
      </trkpt>
      <trkpt lat="44.55841" lon="5.97008">
        <ele>1036</ele>
        <time>2019-04-19T15:34:45Z</time>
      </trkpt>
      <trkpt lat="44.55847" lon="5.96933">
        <ele>1033</ele>
        <time>2019-04-19T15:35:45Z</time>
      </trkpt>
      <trkpt lat="44.55846" lon="5.96847">
        <ele>1028</ele>
        <time>2019-04-19T15:36:45Z</time>
      </trkpt>
      <trkpt lat="44.55849" lon="5.96805">
        <ele>1025</ele>
        <time>2019-04-19T15:37:45Z</time>
      </trkpt>
      <trkpt lat="44.55826" lon="5.96673">
        <ele>1016</ele>
        <time>2019-04-19T15:38:45Z</time>
      </trkpt>
      <trkpt lat="44.55823" lon="5.96641">
        <ele>1014</ele>
        <time>2019-04-19T15:39:45Z</time>
      </trkpt>
      <trkpt lat="44.55821" lon="5.96586">
        <ele>1010</ele>
        <time>2019-04-19T15:40:45Z</time>
      </trkpt>
      <trkpt lat="44.55823" lon="5.96558">
        <ele>1007</ele>
        <time>2019-04-19T15:41:45Z</time>
      </trkpt>
      <trkpt lat="44.5583" lon="5.96521">
        <ele>1003</ele>
        <time>2019-04-19T15:42:45Z</time>
      </trkpt>
      <trkpt lat="44.55842" lon="5.96479">
        <ele>1000</ele>
        <time>2019-04-19T15:43:45Z</time>
      </trkpt>
      <trkpt lat="44.55894" lon="5.9638">
        <ele>997</ele>
        <time>2019-04-19T15:44:45Z</time>
      </trkpt>
      <trkpt lat="44.55897" lon="5.96361">
        <ele>996</ele>
        <time>2019-04-19T15:45:45Z</time>
      </trkpt>
      <trkpt lat="44.55896" lon="5.96341">
        <ele>994</ele>
        <time>2019-04-19T15:46:45Z</time>
      </trkpt>
      <trkpt lat="44.55891" lon="5.96325">
        <ele>992</ele>
        <time>2019-04-19T15:47:45Z</time>
      </trkpt>
      <trkpt lat="44.5587" lon="5.96286">
        <ele>987</ele>
        <time>2019-04-19T15:48:45Z</time>
      </trkpt>
      <trkpt lat="44.55851" lon="5.96259">
        <ele>983</ele>
        <time>2019-04-19T15:49:45Z</time>
      </trkpt>
      <trkpt lat="44.5584" lon="5.9625">
        <ele>982</ele>
        <time>2019-04-19T15:50:45Z</time>
      </trkpt>
      <trkpt lat="44.5582" lon="5.96244">
        <ele>979</ele>
        <time>2019-04-19T15:51:45Z</time>
      </trkpt>
      <trkpt lat="44.55812" lon="5.96236">
        <ele>977</ele>
        <time>2019-04-19T15:52:45Z</time>
      </trkpt>
      <trkpt lat="44.55806" lon="5.96222">
        <ele>974</ele>
        <time>2019-04-19T15:53:45Z</time>
      </trkpt>
      <trkpt lat="44.55804" lon="5.96205">
        <ele>972</ele>
        <time>2019-04-19T15:54:45Z</time>
      </trkpt>
      <trkpt lat="44.55807" lon="5.96189">
        <ele>971</ele>
        <time>2019-04-19T15:55:45Z</time>
      </trkpt>
      <trkpt lat="44.55822" lon="5.9616">
        <ele>970</ele>
        <time>2019-04-19T15:56:45Z</time>
      </trkpt>
      <trkpt lat="44.55889" lon="5.96044">
        <ele>966</ele>
        <time>2019-04-19T15:57:45Z</time>
      </trkpt>
      <trkpt lat="44.55933" lon="5.95988">
        <ele>962</ele>
        <time>2019-04-19T15:58:45Z</time>
      </trkpt>
      <trkpt lat="44.56026" lon="5.95831">
        <ele>946</ele>
        <time>2019-04-19T15:59:45Z</time>
      </trkpt>
      <trkpt lat="44.56042" lon="5.9581">
        <ele>944</ele>
        <time>2019-04-19T16:00:45Z</time>
      </trkpt>
      <trkpt lat="44.56066" lon="5.95788">
        <ele>942</ele>
        <time>2019-04-19T16:01:45Z</time>
      </trkpt>
      <trkpt lat="44.56075" lon="5.95711">
        <ele>938</ele>
        <time>2019-04-19T16:02:45Z</time>
      </trkpt>
      <trkpt lat="44.5609" lon="5.95656">
        <ele>937</ele>
        <time>2019-04-19T16:03:45Z</time>
      </trkpt>
      <trkpt lat="44.56091" lon="5.95621">
        <ele>936</ele>
        <time>2019-04-19T16:04:45Z</time>
      </trkpt>
      <trkpt lat="44.5616" lon="5.95587">
        <ele>935</ele>
        <time>2019-04-19T16:05:45Z</time>
      </trkpt>
      <trkpt lat="44.56172" lon="5.95577">
        <ele>935</ele>
        <time>2019-04-19T16:06:45Z</time>
      </trkpt>
      <trkpt lat="44.56184" lon="5.95554">
        <ele>935</ele>
        <time>2019-04-19T16:07:45Z</time>
      </trkpt>
      <trkpt lat="44.56188" lon="5.95534">
        <ele>935</ele>
        <time>2019-04-19T16:08:45Z</time>
      </trkpt>
      <trkpt lat="44.56189" lon="5.95471">
        <ele>934</ele>
        <time>2019-04-19T16:09:45Z</time>
      </trkpt>
      <trkpt lat="44.56188" lon="5.95247">
        <ele>931</ele>
        <time>2019-04-19T16:10:45Z</time>
      </trkpt>
      <trkpt lat="44.5619" lon="5.95213">
        <ele>930</ele>
        <time>2019-04-19T16:11:45Z</time>
      </trkpt>
      <trkpt lat="44.56189" lon="5.94799">
        <ele>925</ele>
        <time>2019-04-19T16:12:45Z</time>
      </trkpt>
      <trkpt lat="44.56186" lon="5.947">
        <ele>923</ele>
        <time>2019-04-19T16:13:45Z</time>
      </trkpt>
      <trkpt lat="44.56189" lon="5.92161">
        <ele>906</ele>
        <time>2019-04-19T16:14:45Z</time>
      </trkpt>
      <trkpt lat="44.56189" lon="5.90411">
        <ele>879</ele>
        <time>2019-04-19T16:15:45Z</time>
      </trkpt>
      <trkpt lat="44.56191" lon="5.90278">
        <ele>879</ele>
        <time>2019-04-19T16:16:45Z</time>
      </trkpt>
      <trkpt lat="44.56192" lon="5.89133">
        <ele>873</ele>
        <time>2019-04-19T16:17:45Z</time>
      </trkpt>
      <trkpt lat="44.5619" lon="5.89094">
        <ele>873</ele>
        <time>2019-04-19T16:18:45Z</time>
      </trkpt>
      <trkpt lat="44.56186" lon="5.89049">
        <ele>874</ele>
        <time>2019-04-19T16:19:45Z</time>
      </trkpt>
      <trkpt lat="44.56179" lon="5.89002">
        <ele>874</ele>
        <time>2019-04-19T16:20:45Z</time>
      </trkpt>
      <trkpt lat="44.56167" lon="5.88942">
        <ele>875</ele>
        <time>2019-04-19T16:21:45Z</time>
      </trkpt>
      <trkpt lat="44.56149" lon="5.88881">
        <ele>876</ele>
        <time>2019-04-19T16:22:45Z</time>
      </trkpt>
      <trkpt lat="44.56125" lon="5.88815">
        <ele>878</ele>
        <time>2019-04-19T16:23:45Z</time>
      </trkpt>
      <trkpt lat="44.56097" lon="5.88753">
        <ele>879</ele>
        <time>2019-04-19T16:24:45Z</time>
      </trkpt>
      <trkpt lat="44.55794" lon="5.87993">
        <ele>866</ele>
        <time>2019-04-19T16:25:45Z</time>
      </trkpt>
      <trkpt lat="44.55244" lon="5.86622">
        <ele>857</ele>
        <time>2019-04-19T16:26:45Z</time>
      </trkpt>
      <trkpt lat="44.55214" lon="5.86537">
        <ele>858</ele>
        <time>2019-04-19T16:27:45Z</time>
      </trkpt>
      <trkpt lat="44.55186" lon="5.86466">
        <ele>858</ele>
        <time>2019-04-19T16:28:45Z</time>
      </trkpt>
      <trkpt lat="44.55124" lon="5.8632">
        <ele>856</ele>
        <time>2019-04-19T16:29:45Z</time>
      </trkpt>
      <trkpt lat="44.5493" lon="5.8584">
        <ele>852</ele>
        <time>2019-04-19T16:30:45Z</time>
      </trkpt>
      <trkpt lat="44.54827" lon="5.85579">
        <ele>852</ele>
        <time>2019-04-19T16:31:45Z</time>
      </trkpt>
      <trkpt lat="44.54806" lon="5.85532">
        <ele>853</ele>
        <time>2019-04-19T16:32:45Z</time>
      </trkpt>
      <trkpt lat="44.54643" lon="5.85216">
        <ele>853</ele>
        <time>2019-04-19T16:33:45Z</time>
      </trkpt>
      <trkpt lat="44.54411" lon="5.84773">
        <ele>845</ele>
        <time>2019-04-19T16:34:45Z</time>
      </trkpt>
      <trkpt lat="44.54371" lon="5.84685">
        <ele>846</ele>
        <time>2019-04-19T16:35:45Z</time>
      </trkpt>
      <trkpt lat="44.5431" lon="5.84564">
        <ele>849</ele>
        <time>2019-04-19T16:36:45Z</time>
      </trkpt>
      <trkpt lat="44.54275" lon="5.84509">
        <ele>849</ele>
        <time>2019-04-19T16:37:45Z</time>
      </trkpt>
      <trkpt lat="44.54255" lon="5.84469">
        <ele>849</ele>
        <time>2019-04-19T16:38:45Z</time>
      </trkpt>
      <trkpt lat="44.54223" lon="5.84412">
        <ele>848</ele>
        <time>2019-04-19T16:39:45Z</time>
      </trkpt>
      <trkpt lat="44.53998" lon="5.83974">
        <ele>837</ele>
        <time>2019-04-19T16:40:45Z</time>
      </trkpt>
      <trkpt lat="44.53775" lon="5.83555">
        <ele>824</ele>
        <time>2019-04-19T16:41:45Z</time>
      </trkpt>
      <trkpt lat="44.53755" lon="5.83508">
        <ele>823</ele>
        <time>2019-04-19T16:42:45Z</time>
      </trkpt>
      <trkpt lat="44.53739" lon="5.83462">
        <ele>822</ele>
        <time>2019-04-19T16:43:45Z</time>
      </trkpt>
      <trkpt lat="44.53683" lon="5.83239">
        <ele>824</ele>
        <time>2019-04-19T16:44:45Z</time>
      </trkpt>
      <trkpt lat="44.53679" lon="5.83215">
        <ele>825</ele>
        <time>2019-04-19T16:45:45Z</time>
      </trkpt>
      <trkpt lat="44.5366" lon="5.83139">
        <ele>825</ele>
        <time>2019-04-19T16:46:45Z</time>
      </trkpt>
      <trkpt lat="44.53652" lon="5.83116">
        <ele>826</ele>
        <time>2019-04-19T16:47:45Z</time>
      </trkpt>
      <trkpt lat="44.53623" lon="5.83004">
        <ele>832</ele>
        <time>2019-04-19T16:48:45Z</time>
      </trkpt>
      <trkpt lat="44.53618" lon="5.82988">
        <ele>832</ele>
        <time>2019-04-19T16:49:45Z</time>
      </trkpt>
      <trkpt lat="44.53605" lon="5.82957">
        <ele>831</ele>
        <time>2019-04-19T16:50:45Z</time>
      </trkpt>
      <trkpt lat="44.53538" lon="5.82848">
        <ele>828</ele>
        <time>2019-04-19T16:51:45Z</time>
      </trkpt>
      <trkpt lat="44.53494" lon="5.82766">
        <ele>826</ele>
        <time>2019-04-19T16:52:45Z</time>
      </trkpt>
      <trkpt lat="44.53479" lon="5.82728">
        <ele>826</ele>
        <time>2019-04-19T16:53:45Z</time>
      </trkpt>
      <trkpt lat="44.53453" lon="5.82654">
        <ele>825</ele>
        <time>2019-04-19T16:54:45Z</time>
      </trkpt>
      <trkpt lat="44.53404" lon="5.82522">
        <ele>825</ele>
        <time>2019-04-19T16:55:45Z</time>
      </trkpt>
      <trkpt lat="44.53361" lon="5.82403">
        <ele>827</ele>
        <time>2019-04-19T16:56:45Z</time>
      </trkpt>
      <trkpt lat="44.53345" lon="5.8235">
        <ele>825</ele>
        <time>2019-04-19T16:57:45Z</time>
      </trkpt>
      <trkpt lat="44.53341" lon="5.82334">
        <ele>824</ele>
        <time>2019-04-19T16:58:45Z</time>
      </trkpt>
      <trkpt lat="44.53343" lon="5.82332">
        <ele>824</ele>
        <time>2019-04-19T16:59:45Z</time>
      </trkpt>
      <trkpt lat="44.53345" lon="5.82323">
        <ele>825</ele>
        <time>2019-04-19T17:00:45Z</time>
      </trkpt>
      <trkpt lat="44.53342" lon="5.82318">
        <ele>824</ele>
        <time>2019-04-19T17:01:45Z</time>
      </trkpt>
      <trkpt lat="44.53339" lon="5.82317">
        <ele>824</ele>
        <time>2019-04-19T17:02:45Z</time>
      </trkpt>
      <trkpt lat="44.53316" lon="5.82174">
        <ele>823</ele>
        <time>2019-04-19T17:03:45Z</time>
      </trkpt>
      <trkpt lat="44.53315" lon="5.82152">
        <ele>824</ele>
        <time>2019-04-19T17:04:45Z</time>
      </trkpt>
      <trkpt lat="44.53315" lon="5.82134">
        <ele>824</ele>
        <time>2019-04-19T17:05:45Z</time>
      </trkpt>
      <trkpt lat="44.5332" lon="5.821">
        <ele>825</ele>
        <time>2019-04-19T17:06:45Z</time>
      </trkpt>
      <trkpt lat="44.53322" lon="5.82093">
        <ele>825</ele>
        <time>2019-04-19T17:07:45Z</time>
      </trkpt>
      <trkpt lat="44.53328" lon="5.82084">
        <ele>826</ele>
        <time>2019-04-19T17:08:45Z</time>
      </trkpt>
      <trkpt lat="44.53336" lon="5.82077">
        <ele>826</ele>
        <time>2019-04-19T17:09:45Z</time>
      </trkpt>
      <trkpt lat="44.5334" lon="5.82071">
        <ele>826</ele>
        <time>2019-04-19T17:10:45Z</time>
      </trkpt>
      <trkpt lat="44.53339" lon="5.82061">
        <ele>826</ele>
        <time>2019-04-19T17:11:45Z</time>
      </trkpt>
      <trkpt lat="44.53323" lon="5.82045">
        <ele>824</ele>
        <time>2019-04-19T17:12:45Z</time>
      </trkpt>
      <trkpt lat="44.53297" lon="5.81995">
        <ele>821</ele>
        <time>2019-04-19T17:13:45Z</time>
      </trkpt>
      <trkpt lat="44.53285" lon="5.81978">
        <ele>820</ele>
        <time>2019-04-19T17:14:45Z</time>
      </trkpt>
      <trkpt lat="44.53241" lon="5.81928">
        <ele>818</ele>
        <time>2019-04-19T17:15:45Z</time>
      </trkpt>
      <trkpt lat="44.53225" lon="5.81901">
        <ele>817</ele>
        <time>2019-04-19T17:16:45Z</time>
      </trkpt>
      <trkpt lat="44.53218" lon="5.81882">
        <ele>816</ele>
        <time>2019-04-19T17:17:45Z</time>
      </trkpt>
      <trkpt lat="44.53186" lon="5.81783">
        <ele>815</ele>
        <time>2019-04-19T17:18:45Z</time>
      </trkpt>
      <trkpt lat="44.53177" lon="5.81762">
        <ele>814</ele>
        <time>2019-04-19T17:19:45Z</time>
      </trkpt>
      <trkpt lat="44.53155" lon="5.81718">
        <ele>815</ele>
        <time>2019-04-19T17:20:45Z</time>
      </trkpt>
      <trkpt lat="44.53049" lon="5.81521">
        <ele>813</ele>
        <time>2019-04-19T17:21:45Z</time>
      </trkpt>
      <trkpt lat="44.5301" lon="5.81444">
        <ele>812</ele>
        <time>2019-04-19T17:22:45Z</time>
      </trkpt>
      <trkpt lat="44.52971" lon="5.81372">
        <ele>812</ele>
        <time>2019-04-19T17:23:45Z</time>
      </trkpt>
      <trkpt lat="44.52495" lon="5.80452">
        <ele>801</ele>
        <time>2019-04-19T17:24:45Z</time>
      </trkpt>
      <trkpt lat="44.52432" lon="5.80338">
        <ele>802</ele>
        <time>2019-04-19T17:25:45Z</time>
      </trkpt>
      <trkpt lat="44.52392" lon="5.80257">
        <ele>801</ele>
        <time>2019-04-19T17:26:45Z</time>
      </trkpt>
      <trkpt lat="44.52135" lon="5.79756">
        <ele>790</ele>
        <time>2019-04-19T17:27:45Z</time>
      </trkpt>
      <trkpt lat="44.51882" lon="5.79249">
        <ele>788</ele>
        <time>2019-04-19T17:28:45Z</time>
      </trkpt>
      <trkpt lat="44.5174" lon="5.78971">
        <ele>787</ele>
        <time>2019-04-19T17:29:45Z</time>
      </trkpt>
      <trkpt lat="44.5166" lon="5.78826">
        <ele>786</ele>
        <time>2019-04-19T17:30:45Z</time>
      </trkpt>
      <trkpt lat="44.51513" lon="5.78571">
        <ele>778</ele>
        <time>2019-04-19T17:31:45Z</time>
      </trkpt>
      <trkpt lat="44.51437" lon="5.78446">
        <ele>775</ele>
        <time>2019-04-19T17:32:45Z</time>
      </trkpt>
      <trkpt lat="44.51354" lon="5.78295">
        <ele>774</ele>
        <time>2019-04-19T17:33:45Z</time>
      </trkpt>
      <trkpt lat="44.51254" lon="5.78118">
        <ele>774</ele>
        <time>2019-04-19T17:34:45Z</time>
      </trkpt>
      <trkpt lat="44.51202" lon="5.78033">
        <ele>774</ele>
        <time>2019-04-19T17:35:45Z</time>
      </trkpt>
      <trkpt lat="44.51195" lon="5.78017">
        <ele>774</ele>
        <time>2019-04-19T17:36:45Z</time>
      </trkpt>
      <trkpt lat="44.51106" lon="5.77877">
        <ele>775</ele>
        <time>2019-04-19T17:37:45Z</time>
      </trkpt>
      <trkpt lat="44.51075" lon="5.7782">
        <ele>775</ele>
        <time>2019-04-19T17:38:45Z</time>
      </trkpt>
      <trkpt lat="44.51082" lon="5.77809">
        <ele>774</ele>
        <time>2019-04-19T17:39:45Z</time>
      </trkpt>
      <trkpt lat="44.51085" lon="5.77798">
        <ele>774</ele>
        <time>2019-04-19T17:40:45Z</time>
      </trkpt>
      <trkpt lat="44.51101" lon="5.77766">
        <ele>774</ele>
        <time>2019-04-19T17:41:45Z</time>
      </trkpt>
      <trkpt lat="44.51175" lon="5.7762">
        <ele>778</ele>
        <time>2019-04-19T17:42:45Z</time>
      </trkpt>
      <trkpt lat="44.51184" lon="5.77596">
        <ele>779</ele>
        <time>2019-04-19T17:43:45Z</time>
      </trkpt>
      <trkpt lat="44.5119" lon="5.77571">
        <ele>780</ele>
        <time>2019-04-19T17:44:45Z</time>
      </trkpt>
      <trkpt lat="44.51193" lon="5.77546">
        <ele>781</ele>
        <time>2019-04-19T17:45:45Z</time>
      </trkpt>
      <trkpt lat="44.51192" lon="5.7752">
        <ele>781</ele>
        <time>2019-04-19T17:46:45Z</time>
      </trkpt>
      <trkpt lat="44.51189" lon="5.77495">
        <ele>781</ele>
        <time>2019-04-19T17:47:45Z</time>
      </trkpt>
      <trkpt lat="44.51174" lon="5.77445">
        <ele>782</ele>
        <time>2019-04-19T17:48:45Z</time>
      </trkpt>
      <trkpt lat="44.51106" lon="5.77247">
        <ele>790</ele>
        <time>2019-04-19T17:49:45Z</time>
      </trkpt>
      <trkpt lat="44.51055" lon="5.77093">
        <ele>797</ele>
        <time>2019-04-19T17:50:45Z</time>
      </trkpt>
      <trkpt lat="44.51032" lon="5.76995">
        <ele>803</ele>
        <time>2019-04-19T17:51:45Z</time>
      </trkpt>
      <trkpt lat="44.51024" lon="5.76972">
        <ele>804</ele>
        <time>2019-04-19T17:52:45Z</time>
      </trkpt>
      <trkpt lat="44.51005" lon="5.76929">
        <ele>803</ele>
        <time>2019-04-19T17:53:45Z</time>
      </trkpt>
      <trkpt lat="44.50997" lon="5.76907">
        <ele>803</ele>
        <time>2019-04-19T17:54:45Z</time>
      </trkpt>
      <trkpt lat="44.50992" lon="5.76883">
        <ele>804</ele>
        <time>2019-04-19T17:55:45Z</time>
      </trkpt>
      <trkpt lat="44.50989" lon="5.76859">
        <ele>805</ele>
        <time>2019-04-19T17:56:45Z</time>
      </trkpt>
      <trkpt lat="44.50989" lon="5.76835">
        <ele>807</ele>
        <time>2019-04-19T17:57:45Z</time>
      </trkpt>
      <trkpt lat="44.50992" lon="5.76786">
        <ele>809</ele>
        <time>2019-04-19T17:58:45Z</time>
      </trkpt>
      <trkpt lat="44.50987" lon="5.76737">
        <ele>811</ele>
        <time>2019-04-19T17:59:45Z</time>
      </trkpt>
      <trkpt lat="44.50967" lon="5.76648">
        <ele>814</ele>
        <time>2019-04-19T18:00:45Z</time>
      </trkpt>
      <trkpt lat="44.50952" lon="5.76566">
        <ele>816</ele>
        <time>2019-04-19T18:01:45Z</time>
      </trkpt>
      <trkpt lat="44.50941" lon="5.76533">
        <ele>818</ele>
        <time>2019-04-19T18:02:45Z</time>
      </trkpt>
      <trkpt lat="44.50935" lon="5.76518">
        <ele>820</ele>
        <time>2019-04-19T18:03:45Z</time>
      </trkpt>
      <trkpt lat="44.50926" lon="5.76505">
        <ele>820</ele>
        <time>2019-04-19T18:04:45Z</time>
      </trkpt>
      <trkpt lat="44.50915" lon="5.76494">
        <ele>821</ele>
        <time>2019-04-19T18:05:45Z</time>
      </trkpt>
      <trkpt lat="44.5089" lon="5.76477">
        <ele>821</ele>
        <time>2019-04-19T18:06:45Z</time>
      </trkpt>
      <trkpt lat="44.50851" lon="5.76459">
        <ele>820</ele>
        <time>2019-04-19T18:07:45Z</time>
      </trkpt>
      <trkpt lat="44.50839" lon="5.76451">
        <ele>821</ele>
        <time>2019-04-19T18:08:45Z</time>
      </trkpt>
      <trkpt lat="44.50829" lon="5.76441">
        <ele>821</ele>
        <time>2019-04-19T18:09:45Z</time>
      </trkpt>
      <trkpt lat="44.50814" lon="5.76415">
        <ele>823</ele>
        <time>2019-04-19T18:10:45Z</time>
      </trkpt>
      <trkpt lat="44.50791" lon="5.76347">
        <ele>822</ele>
        <time>2019-04-19T18:11:45Z</time>
      </trkpt>
      <trkpt lat="44.50774" lon="5.76324">
        <ele>821</ele>
        <time>2019-04-19T18:12:45Z</time>
      </trkpt>
      <trkpt lat="44.50594" lon="5.76149">
        <ele>819</ele>
        <time>2019-04-19T18:13:45Z</time>
      </trkpt>
      <trkpt lat="44.50584" lon="5.76134">
        <ele>819</ele>
        <time>2019-04-19T18:14:45Z</time>
      </trkpt>
      <trkpt lat="44.50575" lon="5.76117">
        <ele>818</ele>
        <time>2019-04-19T18:15:45Z</time>
      </trkpt>
      <trkpt lat="44.50569" lon="5.76099">
        <ele>817</ele>
        <time>2019-04-19T18:16:45Z</time>
      </trkpt>
      <trkpt lat="44.50565" lon="5.76079">
        <ele>815</ele>
        <time>2019-04-19T18:17:45Z</time>
      </trkpt>
      <trkpt lat="44.50563" lon="5.7606">
        <ele>814</ele>
        <time>2019-04-19T18:18:45Z</time>
      </trkpt>
      <trkpt lat="44.50563" lon="5.7604">
        <ele>813</ele>
        <time>2019-04-19T18:19:45Z</time>
      </trkpt>
      <trkpt lat="44.50565" lon="5.76022">
        <ele>811</ele>
        <time>2019-04-19T18:20:45Z</time>
      </trkpt>
      <trkpt lat="44.50575" lon="5.75989">
        <ele>809</ele>
        <time>2019-04-19T18:21:45Z</time>
      </trkpt>
      <trkpt lat="44.50592" lon="5.7596">
        <ele>809</ele>
        <time>2019-04-19T18:22:45Z</time>
      </trkpt>
      <trkpt lat="44.50637" lon="5.75902">
        <ele>805</ele>
        <time>2019-04-19T18:23:45Z</time>
      </trkpt>
      <trkpt lat="44.50661" lon="5.75874">
        <ele>803</ele>
        <time>2019-04-19T18:24:45Z</time>
      </trkpt>
      <trkpt lat="44.50682" lon="5.75853">
        <ele>802</ele>
        <time>2019-04-19T18:25:45Z</time>
      </trkpt>
      <trkpt lat="44.50724" lon="5.75824">
        <ele>801</ele>
        <time>2019-04-19T18:26:45Z</time>
      </trkpt>
      <trkpt lat="44.50756" lon="5.75808">
        <ele>799</ele>
        <time>2019-04-19T18:27:45Z</time>
      </trkpt>
      <trkpt lat="44.50789" lon="5.75797">
        <ele>796</ele>
        <time>2019-04-19T18:28:45Z</time>
      </trkpt>
      <trkpt lat="44.50823" lon="5.75791">
        <ele>792</ele>
        <time>2019-04-19T18:29:45Z</time>
      </trkpt>
      <trkpt lat="44.51145" lon="5.75814">
        <ele>779</ele>
        <time>2019-04-19T18:30:45Z</time>
      </trkpt>
      <trkpt lat="44.51181" lon="5.75815">
        <ele>778</ele>
        <time>2019-04-19T18:31:45Z</time>
      </trkpt>
      <trkpt lat="44.51199" lon="5.75813">
        <ele>778</ele>
        <time>2019-04-19T18:32:45Z</time>
      </trkpt>
      <trkpt lat="44.51247" lon="5.75797">
        <ele>778</ele>
        <time>2019-04-19T18:33:45Z</time>
      </trkpt>
      <trkpt lat="44.51287" lon="5.75779">
        <ele>777</ele>
        <time>2019-04-19T18:34:45Z</time>
      </trkpt>
      <trkpt lat="44.5131" lon="5.75763">
        <ele>776</ele>
        <time>2019-04-19T18:35:45Z</time>
      </trkpt>
      <trkpt lat="44.51319" lon="5.75751">
        <ele>775</ele>
        <time>2019-04-19T18:36:45Z</time>
      </trkpt>
      <trkpt lat="44.51351" lon="5.757">
        <ele>777</ele>
        <time>2019-04-19T18:37:45Z</time>
      </trkpt>
      <trkpt lat="44.51361" lon="5.75689">
        <ele>776</ele>
        <time>2019-04-19T18:38:45Z</time>
      </trkpt>
      <trkpt lat="44.51372" lon="5.7568">
        <ele>776</ele>
        <time>2019-04-19T18:39:45Z</time>
      </trkpt>
      <trkpt lat="44.51413" lon="5.7566">
        <ele>772</ele>
        <time>2019-04-19T18:40:45Z</time>
      </trkpt>
      <trkpt lat="44.51471" lon="5.75612">
        <ele>766</ele>
        <time>2019-04-19T18:41:45Z</time>
      </trkpt>
      <trkpt lat="44.5148" lon="5.75607">
        <ele>764</ele>
        <time>2019-04-19T18:42:45Z</time>
      </trkpt>
      <trkpt lat="44.51489" lon="5.75605">
        <ele>763</ele>
        <time>2019-04-19T18:43:45Z</time>
      </trkpt>
      <trkpt lat="44.51498" lon="5.75606">
        <ele>762</ele>
        <time>2019-04-19T18:44:45Z</time>
      </trkpt>
      <trkpt lat="44.51524" lon="5.75617">
        <ele>762</ele>
        <time>2019-04-19T18:45:45Z</time>
      </trkpt>
      <trkpt lat="44.51535" lon="5.75616">
        <ele>761</ele>
        <time>2019-04-19T18:46:45Z</time>
      </trkpt>
      <trkpt lat="44.51568" lon="5.75596">
        <ele>757</ele>
        <time>2019-04-19T18:47:45Z</time>
      </trkpt>
      <trkpt lat="44.51583" lon="5.75584">
        <ele>755</ele>
        <time>2019-04-19T18:48:45Z</time>
      </trkpt>
      <trkpt lat="44.51611" lon="5.75538">
        <ele>755</ele>
        <time>2019-04-19T18:49:45Z</time>
      </trkpt>
      <trkpt lat="44.51638" lon="5.75506">
        <ele>755</ele>
        <time>2019-04-19T18:50:45Z</time>
      </trkpt>
      <trkpt lat="44.51663" lon="5.75488">
        <ele>755</ele>
        <time>2019-04-19T18:51:45Z</time>
      </trkpt>
      <trkpt lat="44.51717" lon="5.75455">
        <ele>756</ele>
        <time>2019-04-19T18:52:45Z</time>
      </trkpt>
      <trkpt lat="44.51901" lon="5.75345">
        <ele>758</ele>
        <time>2019-04-19T18:53:45Z</time>
      </trkpt>
      <trkpt lat="44.52038" lon="5.75257">
        <ele>764</ele>
        <time>2019-04-19T18:54:45Z</time>
      </trkpt>
      <trkpt lat="44.52046" lon="5.75244">
        <ele>765</ele>
        <time>2019-04-19T18:55:45Z</time>
      </trkpt>
      <trkpt lat="44.52049" lon="5.75234">
        <ele>765</ele>
        <time>2019-04-19T18:56:45Z</time>
      </trkpt>
      <trkpt lat="44.52053" lon="5.75214">
        <ele>766</ele>
        <time>2019-04-19T18:57:45Z</time>
      </trkpt>
      <trkpt lat="44.52057" lon="5.7515">
        <ele>767</ele>
        <time>2019-04-19T18:58:45Z</time>
      </trkpt>
      <trkpt lat="44.52064" lon="5.7513">
        <ele>767</ele>
        <time>2019-04-19T18:59:45Z</time>
      </trkpt>
      <trkpt lat="44.52074" lon="5.75113">
        <ele>768</ele>
        <time>2019-04-19T19:00:45Z</time>
      </trkpt>
      <trkpt lat="44.52066" lon="5.75099">
        <ele>767</ele>
        <time>2019-04-19T19:01:45Z</time>
      </trkpt>
      <trkpt lat="44.52049" lon="5.7505">
        <ele>767</ele>
        <time>2019-04-19T19:02:45Z</time>
      </trkpt>
      <trkpt lat="44.52041" lon="5.75033">
        <ele>767</ele>
        <time>2019-04-19T19:03:45Z</time>
      </trkpt>
      <trkpt lat="44.52107" lon="5.74937">
        <ele>772</ele>
        <time>2019-04-19T19:04:45Z</time>
      </trkpt>
      <trkpt lat="44.52124" lon="5.74917">
        <ele>773</ele>
        <time>2019-04-19T19:05:45Z</time>
      </trkpt>
      <trkpt lat="44.52165" lon="5.74886">
        <ele>776</ele>
        <time>2019-04-19T19:06:45Z</time>
      </trkpt>
      <trkpt lat="44.5237" lon="5.7478">
        <ele>785</ele>
        <time>2019-04-19T19:07:45Z</time>
      </trkpt>
      <trkpt lat="44.5238" lon="5.74773">
        <ele>785</ele>
        <time>2019-04-19T19:08:45Z</time>
      </trkpt>
      <trkpt lat="44.5239" lon="5.74761">
        <ele>786</ele>
        <time>2019-04-19T19:09:45Z</time>
      </trkpt>
      <trkpt lat="44.524" lon="5.74743">
        <ele>786</ele>
        <time>2019-04-19T19:10:45Z</time>
      </trkpt>
      <trkpt lat="44.52422" lon="5.74693">
        <ele>787</ele>
        <time>2019-04-19T19:11:45Z</time>
      </trkpt>
      <trkpt lat="44.52426" lon="5.74673">
        <ele>787</ele>
        <time>2019-04-19T19:12:45Z</time>
      </trkpt>
      <trkpt lat="44.52427" lon="5.74657">
        <ele>788</ele>
        <time>2019-04-19T19:13:45Z</time>
      </trkpt>
      <trkpt lat="44.52288" lon="5.72983">
        <ele>820</ele>
        <time>2019-04-19T19:14:45Z</time>
      </trkpt>
      <trkpt lat="44.52284" lon="5.72961">
        <ele>820</ele>
        <time>2019-04-19T19:15:45Z</time>
      </trkpt>
      <trkpt lat="44.52277" lon="5.7294">
        <ele>820</ele>
        <time>2019-04-19T19:16:45Z</time>
      </trkpt>
      <trkpt lat="44.52268" lon="5.72923">
        <ele>820</ele>
        <time>2019-04-19T19:17:45Z</time>
      </trkpt>
      <trkpt lat="44.52258" lon="5.72908">
        <ele>821</ele>
        <time>2019-04-19T19:18:45Z</time>
      </trkpt>
      <trkpt lat="44.52246" lon="5.72896">
        <ele>821</ele>
        <time>2019-04-19T19:19:45Z</time>
      </trkpt>
      <trkpt lat="44.52232" lon="5.72887">
        <ele>820</ele>
        <time>2019-04-19T19:20:45Z</time>
      </trkpt>
      <trkpt lat="44.52214" lon="5.7288">
        <ele>819</ele>
        <time>2019-04-19T19:21:45Z</time>
      </trkpt>
      <trkpt lat="44.52214" lon="5.72971">
        <ele>820</ele>
        <time>2019-04-19T19:22:45Z</time>
      </trkpt>
      <trkpt lat="44.52207" lon="5.73027">
        <ele>821</ele>
        <time>2019-04-19T19:23:45Z</time>
      </trkpt>
      <trkpt lat="44.52198" lon="5.73168">
        <ele>823</ele>
        <time>2019-04-19T19:24:45Z</time>
      </trkpt>
      <trkpt lat="44.52151" lon="5.73247">
        <ele>829</ele>
        <time>2019-04-19T19:25:45Z</time>
      </trkpt>
      <trkpt lat="44.52124" lon="5.73403">
        <ele>832</ele>
        <time>2019-04-19T19:26:45Z</time>
      </trkpt>
      <trkpt lat="44.52119" lon="5.73421">
        <ele>833</ele>
        <time>2019-04-19T19:27:45Z</time>
      </trkpt>
    </trkseg>
  </trk>
  <trk>
    <name><![CDATA[J14]]></name>
    <trkseg>
      <trkpt lat="44.52118" lon="5.73463">
        <ele>832</ele>
        <time>2019-04-18T09:50:05Z</time>
      </trkpt>
      <trkpt lat="44.52118" lon="5.73425">
        <ele>833</ele>
        <time>2019-04-18T09:51:05Z</time>
      </trkpt>
      <trkpt lat="44.52124" lon="5.73403">
        <ele>832</ele>
        <time>2019-04-18T09:52:05Z</time>
      </trkpt>
      <trkpt lat="44.52151" lon="5.73247">
        <ele>829</ele>
        <time>2019-04-18T09:53:05Z</time>
      </trkpt>
      <trkpt lat="44.52198" lon="5.73168">
        <ele>823</ele>
        <time>2019-04-18T09:54:05Z</time>
      </trkpt>
      <trkpt lat="44.52207" lon="5.73027">
        <ele>821</ele>
        <time>2019-04-18T09:55:05Z</time>
      </trkpt>
      <trkpt lat="44.52214" lon="5.72971">
        <ele>820</ele>
        <time>2019-04-18T09:56:05Z</time>
      </trkpt>
      <trkpt lat="44.52214" lon="5.7288">
        <ele>819</ele>
        <time>2019-04-18T09:57:05Z</time>
      </trkpt>
      <trkpt lat="44.52191" lon="5.72877">
        <ele>818</ele>
        <time>2019-04-18T09:58:05Z</time>
      </trkpt>
      <trkpt lat="44.52106" lon="5.72883">
        <ele>814</ele>
        <time>2019-04-18T09:59:05Z</time>
      </trkpt>
      <trkpt lat="44.51983" lon="5.72894">
        <ele>806</ele>
        <time>2019-04-18T10:00:05Z</time>
      </trkpt>
      <trkpt lat="44.5197" lon="5.72895">
        <ele>805</ele>
        <time>2019-04-18T10:01:05Z</time>
      </trkpt>
      <trkpt lat="44.51957" lon="5.72892">
        <ele>804</ele>
        <time>2019-04-18T10:02:05Z</time>
      </trkpt>
      <trkpt lat="44.51945" lon="5.72886">
        <ele>803</ele>
        <time>2019-04-18T10:03:05Z</time>
      </trkpt>
      <trkpt lat="44.51935" lon="5.72875">
        <ele>802</ele>
        <time>2019-04-18T10:04:05Z</time>
      </trkpt>
      <trkpt lat="44.51925" lon="5.72861">
        <ele>800</ele>
        <time>2019-04-18T10:05:05Z</time>
      </trkpt>
      <trkpt lat="44.51888" lon="5.72793">
        <ele>798</ele>
        <time>2019-04-18T10:06:05Z</time>
      </trkpt>
      <trkpt lat="44.51878" lon="5.72778">
        <ele>799</ele>
        <time>2019-04-18T10:07:05Z</time>
      </trkpt>
      <trkpt lat="44.51855" lon="5.72755">
        <ele>799</ele>
        <time>2019-04-18T10:08:05Z</time>
      </trkpt>
      <trkpt lat="44.51715" lon="5.72657">
        <ele>802</ele>
        <time>2019-04-18T10:09:05Z</time>
      </trkpt>
      <trkpt lat="44.5169" lon="5.72644">
        <ele>803</ele>
        <time>2019-04-18T10:10:05Z</time>
      </trkpt>
      <trkpt lat="44.51677" lon="5.72642">
        <ele>803</ele>
        <time>2019-04-18T10:11:05Z</time>
      </trkpt>
      <trkpt lat="44.51617" lon="5.72645">
        <ele>802</ele>
        <time>2019-04-18T10:12:05Z</time>
      </trkpt>
      <trkpt lat="44.51606" lon="5.72644">
        <ele>802</ele>
        <time>2019-04-18T10:13:05Z</time>
      </trkpt>
      <trkpt lat="44.51562" lon="5.72631">
        <ele>801</ele>
        <time>2019-04-18T10:14:05Z</time>
      </trkpt>
      <trkpt lat="44.51543" lon="5.72614">
        <ele>801</ele>
        <time>2019-04-18T10:15:05Z</time>
      </trkpt>
      <trkpt lat="44.51538" lon="5.72593">
        <ele>802</ele>
        <time>2019-04-18T10:16:05Z</time>
      </trkpt>
      <trkpt lat="44.51538" lon="5.72581">
        <ele>802</ele>
        <time>2019-04-18T10:17:05Z</time>
      </trkpt>
      <trkpt lat="44.51545" lon="5.72553">
        <ele>800</ele>
        <time>2019-04-18T10:18:05Z</time>
      </trkpt>
      <trkpt lat="44.516" lon="5.72466">
        <ele>799</ele>
        <time>2019-04-18T10:19:05Z</time>
      </trkpt>
      <trkpt lat="44.51618" lon="5.72433">
        <ele>797</ele>
        <time>2019-04-18T10:20:05Z</time>
      </trkpt>
      <trkpt lat="44.51625" lon="5.72415">
        <ele>796</ele>
        <time>2019-04-18T10:21:05Z</time>
      </trkpt>
      <trkpt lat="44.51633" lon="5.72376">
        <ele>794</ele>
        <time>2019-04-18T10:22:05Z</time>
      </trkpt>
      <trkpt lat="44.51636" lon="5.72319">
        <ele>789</ele>
        <time>2019-04-18T10:23:05Z</time>
      </trkpt>
      <trkpt lat="44.51639" lon="5.72301">
        <ele>789</ele>
        <time>2019-04-18T10:24:05Z</time>
      </trkpt>
      <trkpt lat="44.51651" lon="5.72248">
        <ele>786</ele>
        <time>2019-04-18T10:25:05Z</time>
      </trkpt>
      <trkpt lat="44.51653" lon="5.72229">
        <ele>786</ele>
        <time>2019-04-18T10:26:05Z</time>
      </trkpt>
      <trkpt lat="44.51652" lon="5.72211">
        <ele>786</ele>
        <time>2019-04-18T10:27:05Z</time>
      </trkpt>
      <trkpt lat="44.51647" lon="5.72193">
        <ele>786</ele>
        <time>2019-04-18T10:28:05Z</time>
      </trkpt>
      <trkpt lat="44.51641" lon="5.72175">
        <ele>785</ele>
        <time>2019-04-18T10:29:05Z</time>
      </trkpt>
      <trkpt lat="44.51633" lon="5.72159">
        <ele>786</ele>
        <time>2019-04-18T10:30:05Z</time>
      </trkpt>
      <trkpt lat="44.51624" lon="5.72145">
        <ele>787</ele>
        <time>2019-04-18T10:31:05Z</time>
      </trkpt>
      <trkpt lat="44.51593" lon="5.72114">
        <ele>790</ele>
        <time>2019-04-18T10:32:05Z</time>
      </trkpt>
      <trkpt lat="44.51584" lon="5.72102">
        <ele>791</ele>
        <time>2019-04-18T10:33:05Z</time>
      </trkpt>
      <trkpt lat="44.51579" lon="5.7209">
        <ele>792</ele>
        <time>2019-04-18T10:34:05Z</time>
      </trkpt>
      <trkpt lat="44.51573" lon="5.72061">
        <ele>795</ele>
        <time>2019-04-18T10:35:05Z</time>
      </trkpt>
      <trkpt lat="44.51572" lon="5.72027">
        <ele>797</ele>
        <time>2019-04-18T10:36:05Z</time>
      </trkpt>
      <trkpt lat="44.51573" lon="5.71962">
        <ele>800</ele>
        <time>2019-04-18T10:37:05Z</time>
      </trkpt>
      <trkpt lat="44.51577" lon="5.71918">
        <ele>802</ele>
        <time>2019-04-18T10:38:05Z</time>
      </trkpt>
      <trkpt lat="44.51581" lon="5.71898">
        <ele>802</ele>
        <time>2019-04-18T10:39:05Z</time>
      </trkpt>
      <trkpt lat="44.5173" lon="5.71422">
        <ele>801</ele>
        <time>2019-04-18T10:40:05Z</time>
      </trkpt>
      <trkpt lat="44.51924" lon="5.70822">
        <ele>799</ele>
        <time>2019-04-18T10:41:05Z</time>
      </trkpt>
      <trkpt lat="44.51931" lon="5.70805">
        <ele>798</ele>
        <time>2019-04-18T10:42:05Z</time>
      </trkpt>
      <trkpt lat="44.51939" lon="5.70792">
        <ele>798</ele>
        <time>2019-04-18T10:43:05Z</time>
      </trkpt>
      <trkpt lat="44.51948" lon="5.70781">
        <ele>797</ele>
        <time>2019-04-18T10:44:05Z</time>
      </trkpt>
      <trkpt lat="44.51968" lon="5.70768">
        <ele>796</ele>
        <time>2019-04-18T10:45:05Z</time>
      </trkpt>
      <trkpt lat="44.5199" lon="5.70758">
        <ele>795</ele>
        <time>2019-04-18T10:46:05Z</time>
      </trkpt>
      <trkpt lat="44.52" lon="5.70728">
        <ele>794</ele>
        <time>2019-04-18T10:47:05Z</time>
      </trkpt>
      <trkpt lat="44.52001" lon="5.707">
        <ele>793</ele>
        <time>2019-04-18T10:48:05Z</time>
      </trkpt>
      <trkpt lat="44.51988" lon="5.70386">
        <ele>783</ele>
        <time>2019-04-18T10:49:05Z</time>
      </trkpt>
      <trkpt lat="44.51988" lon="5.70339">
        <ele>782</ele>
        <time>2019-04-18T10:50:05Z</time>
      </trkpt>
      <trkpt lat="44.51991" lon="5.70316">
        <ele>782</ele>
        <time>2019-04-18T10:51:05Z</time>
      </trkpt>
      <trkpt lat="44.51995" lon="5.70295">
        <ele>781</ele>
        <time>2019-04-18T10:52:05Z</time>
      </trkpt>
      <trkpt lat="44.52006" lon="5.70253">
        <ele>781</ele>
        <time>2019-04-18T10:53:05Z</time>
      </trkpt>
      <trkpt lat="44.52026" lon="5.70194">
        <ele>780</ele>
        <time>2019-04-18T10:54:05Z</time>
      </trkpt>
      <trkpt lat="44.52042" lon="5.70159">
        <ele>779</ele>
        <time>2019-04-18T10:55:05Z</time>
      </trkpt>
      <trkpt lat="44.5248" lon="5.69382">
        <ele>779</ele>
        <time>2019-04-18T10:56:05Z</time>
      </trkpt>
      <trkpt lat="44.52975" lon="5.68489">
        <ele>789</ele>
        <time>2019-04-18T10:57:05Z</time>
      </trkpt>
      <trkpt lat="44.53047" lon="5.68356">
        <ele>786</ele>
        <time>2019-04-18T10:58:05Z</time>
      </trkpt>
      <trkpt lat="44.53071" lon="5.6832">
        <ele>786</ele>
        <time>2019-04-18T10:59:05Z</time>
      </trkpt>
      <trkpt lat="44.53226" lon="5.68146">
        <ele>787</ele>
        <time>2019-04-18T11:00:05Z</time>
      </trkpt>
      <trkpt lat="44.53292" lon="5.68087">
        <ele>787</ele>
        <time>2019-04-18T11:01:05Z</time>
      </trkpt>
      <trkpt lat="44.53318" lon="5.68058">
        <ele>787</ele>
        <time>2019-04-18T11:02:05Z</time>
      </trkpt>
      <trkpt lat="44.53329" lon="5.68031">
        <ele>787</ele>
        <time>2019-04-18T11:03:05Z</time>
      </trkpt>
      <trkpt lat="44.53331" lon="5.68002">
        <ele>787</ele>
        <time>2019-04-18T11:04:05Z</time>
      </trkpt>
      <trkpt lat="44.53328" lon="5.67974">
        <ele>787</ele>
        <time>2019-04-18T11:05:05Z</time>
      </trkpt>
      <trkpt lat="44.53315" lon="5.67938">
        <ele>787</ele>
        <time>2019-04-18T11:06:05Z</time>
      </trkpt>
      <trkpt lat="44.53311" lon="5.67908">
        <ele>788</ele>
        <time>2019-04-18T11:07:05Z</time>
      </trkpt>
      <trkpt lat="44.53315" lon="5.67882">
        <ele>788</ele>
        <time>2019-04-18T11:08:05Z</time>
      </trkpt>
      <trkpt lat="44.53324" lon="5.67863">
        <ele>788</ele>
        <time>2019-04-18T11:09:05Z</time>
      </trkpt>
      <trkpt lat="44.53452" lon="5.67628">
        <ele>789</ele>
        <time>2019-04-18T11:10:05Z</time>
      </trkpt>
      <trkpt lat="44.5367" lon="5.67236">
        <ele>797</ele>
        <time>2019-04-18T11:11:05Z</time>
      </trkpt>
      <trkpt lat="44.53931" lon="5.66772">
        <ele>813</ele>
        <time>2019-04-18T11:12:05Z</time>
      </trkpt>
      <trkpt lat="44.53966" lon="5.66719">
        <ele>813</ele>
        <time>2019-04-18T11:13:05Z</time>
      </trkpt>
      <trkpt lat="44.53984" lon="5.66697">
        <ele>814</ele>
        <time>2019-04-18T11:14:05Z</time>
      </trkpt>
      <trkpt lat="44.54119" lon="5.66559">
        <ele>817</ele>
        <time>2019-04-18T11:15:05Z</time>
      </trkpt>
      <trkpt lat="44.54428" lon="5.66261">
        <ele>826</ele>
        <time>2019-04-18T11:16:05Z</time>
      </trkpt>
      <trkpt lat="44.54468" lon="5.66221">
        <ele>826</ele>
        <time>2019-04-18T11:17:05Z</time>
      </trkpt>
      <trkpt lat="44.54505" lon="5.66179">
        <ele>826</ele>
        <time>2019-04-18T11:18:05Z</time>
      </trkpt>
      <trkpt lat="44.54525" lon="5.66152">
        <ele>827</ele>
        <time>2019-04-18T11:19:05Z</time>
      </trkpt>
      <trkpt lat="44.54536" lon="5.66132">
        <ele>828</ele>
        <time>2019-04-18T11:20:05Z</time>
      </trkpt>
      <trkpt lat="44.54571" lon="5.66032">
        <ele>831</ele>
        <time>2019-04-18T11:21:05Z</time>
      </trkpt>
      <trkpt lat="44.54583" lon="5.65991">
        <ele>832</ele>
        <time>2019-04-18T11:22:05Z</time>
      </trkpt>
      <trkpt lat="44.54586" lon="5.65967">
        <ele>833</ele>
        <time>2019-04-18T11:23:05Z</time>
      </trkpt>
      <trkpt lat="44.54581" lon="5.65865">
        <ele>836</ele>
        <time>2019-04-18T11:24:05Z</time>
      </trkpt>
      <trkpt lat="44.54587" lon="5.65846">
        <ele>837</ele>
        <time>2019-04-18T11:25:05Z</time>
      </trkpt>
      <trkpt lat="44.54592" lon="5.65838">
        <ele>836</ele>
        <time>2019-04-18T11:26:05Z</time>
      </trkpt>
      <trkpt lat="44.54607" lon="5.65825">
        <ele>836</ele>
        <time>2019-04-18T11:27:05Z</time>
      </trkpt>
      <trkpt lat="44.54618" lon="5.65804">
        <ele>836</ele>
        <time>2019-04-18T11:28:05Z</time>
      </trkpt>
      <trkpt lat="44.5465" lon="5.65677">
        <ele>838</ele>
        <time>2019-04-18T11:29:05Z</time>
      </trkpt>
      <trkpt lat="44.54762" lon="5.65197">
        <ele>847</ele>
        <time>2019-04-18T11:30:05Z</time>
      </trkpt>
      <trkpt lat="44.54807" lon="5.6501">
        <ele>847</ele>
        <time>2019-04-18T11:31:05Z</time>
      </trkpt>
      <trkpt lat="44.54961" lon="5.64318">
        <ele>863</ele>
        <time>2019-04-18T11:32:05Z</time>
      </trkpt>
      <trkpt lat="44.55024" lon="5.64021">
        <ele>869</ele>
        <time>2019-04-18T11:33:05Z</time>
      </trkpt>
      <trkpt lat="44.55037" lon="5.63969">
        <ele>870</ele>
        <time>2019-04-18T11:34:05Z</time>
      </trkpt>
      <trkpt lat="44.55049" lon="5.63928">
        <ele>870</ele>
        <time>2019-04-18T11:35:05Z</time>
      </trkpt>
      <trkpt lat="44.55057" lon="5.63912">
        <ele>870</ele>
        <time>2019-04-18T11:36:05Z</time>
      </trkpt>
      <trkpt lat="44.55139" lon="5.63763">
        <ele>875</ele>
        <time>2019-04-18T11:37:05Z</time>
      </trkpt>
      <trkpt lat="44.55156" lon="5.63739">
        <ele>875</ele>
        <time>2019-04-18T11:38:05Z</time>
      </trkpt>
      <trkpt lat="44.55182" lon="5.63709">
        <ele>877</ele>
        <time>2019-04-18T11:39:05Z</time>
      </trkpt>
      <trkpt lat="44.55263" lon="5.63627">
        <ele>884</ele>
        <time>2019-04-18T11:40:05Z</time>
      </trkpt>
      <trkpt lat="44.55281" lon="5.63601">
        <ele>886</ele>
        <time>2019-04-18T11:41:05Z</time>
      </trkpt>
      <trkpt lat="44.55288" lon="5.63582">
        <ele>888</ele>
        <time>2019-04-18T11:42:05Z</time>
      </trkpt>
      <trkpt lat="44.55292" lon="5.63565">
        <ele>889</ele>
        <time>2019-04-18T11:43:05Z</time>
      </trkpt>
      <trkpt lat="44.5531" lon="5.63355">
        <ele>897</ele>
        <time>2019-04-18T11:44:05Z</time>
      </trkpt>
      <trkpt lat="44.55313" lon="5.63297">
        <ele>897</ele>
        <time>2019-04-18T11:45:05Z</time>
      </trkpt>
      <trkpt lat="44.55317" lon="5.63279">
        <ele>898</ele>
        <time>2019-04-18T11:46:05Z</time>
      </trkpt>
      <trkpt lat="44.55323" lon="5.63276">
        <ele>898</ele>
        <time>2019-04-18T11:47:05Z</time>
      </trkpt>
      <trkpt lat="44.55325" lon="5.63276">
        <ele>898</ele>
        <time>2019-04-18T11:48:05Z</time>
      </trkpt>
      <trkpt lat="44.5533" lon="5.63281">
        <ele>899</ele>
        <time>2019-04-18T11:49:05Z</time>
      </trkpt>
      <trkpt lat="44.55337" lon="5.63329">
        <ele>903</ele>
        <time>2019-04-18T11:50:05Z</time>
      </trkpt>
      <trkpt lat="44.55346" lon="5.63379">
        <ele>908</ele>
        <time>2019-04-18T11:51:05Z</time>
      </trkpt>
      <trkpt lat="44.55351" lon="5.63389">
        <ele>911</ele>
        <time>2019-04-18T11:52:05Z</time>
      </trkpt>
      <trkpt lat="44.55357" lon="5.63389">
        <ele>914</ele>
        <time>2019-04-18T11:53:05Z</time>
      </trkpt>
      <trkpt lat="44.55361" lon="5.63385">
        <ele>917</ele>
        <time>2019-04-18T11:54:05Z</time>
      </trkpt>
      <trkpt lat="44.55362" lon="5.63374">
        <ele>917</ele>
        <time>2019-04-18T11:55:05Z</time>
      </trkpt>
      <trkpt lat="44.55358" lon="5.63346">
        <ele>914</ele>
        <time>2019-04-18T11:56:05Z</time>
      </trkpt>
      <trkpt lat="44.55357" lon="5.63326">
        <ele>913</ele>
        <time>2019-04-18T11:57:05Z</time>
      </trkpt>
      <trkpt lat="44.55359" lon="5.63314">
        <ele>913</ele>
        <time>2019-04-18T11:58:05Z</time>
      </trkpt>
      <trkpt lat="44.55384" lon="5.63221">
        <ele>919</ele>
        <time>2019-04-18T11:59:05Z</time>
      </trkpt>
      <trkpt lat="44.55388" lon="5.63161">
        <ele>919</ele>
        <time>2019-04-18T12:00:05Z</time>
      </trkpt>
      <trkpt lat="44.55394" lon="5.63128">
        <ele>921</ele>
        <time>2019-04-18T12:01:05Z</time>
      </trkpt>
      <trkpt lat="44.55408" lon="5.63082">
        <ele>924</ele>
        <time>2019-04-18T12:02:05Z</time>
      </trkpt>
      <trkpt lat="44.55412" lon="5.63062">
        <ele>926</ele>
        <time>2019-04-18T12:03:05Z</time>
      </trkpt>
      <trkpt lat="44.55408" lon="5.62998">
        <ele>927</ele>
        <time>2019-04-18T12:04:05Z</time>
      </trkpt>
      <trkpt lat="44.55413" lon="5.62943">
        <ele>931</ele>
        <time>2019-04-18T12:05:05Z</time>
      </trkpt>
      <trkpt lat="44.55414" lon="5.62918">
        <ele>933</ele>
        <time>2019-04-18T12:06:05Z</time>
      </trkpt>
      <trkpt lat="44.5541" lon="5.62849">
        <ele>936</ele>
        <time>2019-04-18T12:07:05Z</time>
      </trkpt>
      <trkpt lat="44.55413" lon="5.62807">
        <ele>939</ele>
        <time>2019-04-18T12:08:05Z</time>
      </trkpt>
      <trkpt lat="44.55415" lon="5.628">
        <ele>939</ele>
        <time>2019-04-18T12:09:05Z</time>
      </trkpt>
      <trkpt lat="44.5542" lon="5.62795">
        <ele>941</ele>
        <time>2019-04-18T12:10:05Z</time>
      </trkpt>
      <trkpt lat="44.55427" lon="5.62795">
        <ele>944</ele>
        <time>2019-04-18T12:11:05Z</time>
      </trkpt>
      <trkpt lat="44.55433" lon="5.62797">
        <ele>946</ele>
        <time>2019-04-18T12:12:05Z</time>
      </trkpt>
      <trkpt lat="44.55436" lon="5.62805">
        <ele>946</ele>
        <time>2019-04-18T12:13:05Z</time>
      </trkpt>
      <trkpt lat="44.55438" lon="5.62855">
        <ele>943</ele>
        <time>2019-04-18T12:14:05Z</time>
      </trkpt>
      <trkpt lat="44.55444" lon="5.62888">
        <ele>944</ele>
        <time>2019-04-18T12:15:05Z</time>
      </trkpt>
      <trkpt lat="44.5546" lon="5.62949">
        <ele>948</ele>
        <time>2019-04-18T12:16:05Z</time>
      </trkpt>
      <trkpt lat="44.55466" lon="5.63002">
        <ele>948</ele>
        <time>2019-04-18T12:17:05Z</time>
      </trkpt>
      <trkpt lat="44.55471" lon="5.63013">
        <ele>950</ele>
        <time>2019-04-18T12:18:05Z</time>
      </trkpt>
      <trkpt lat="44.5548" lon="5.63016">
        <ele>954</ele>
        <time>2019-04-18T12:19:05Z</time>
      </trkpt>
      <trkpt lat="44.55485" lon="5.63012">
        <ele>956</ele>
        <time>2019-04-18T12:20:05Z</time>
      </trkpt>
      <trkpt lat="44.55488" lon="5.63008">
        <ele>957</ele>
        <time>2019-04-18T12:21:05Z</time>
      </trkpt>
      <trkpt lat="44.5549" lon="5.62994">
        <ele>958</ele>
        <time>2019-04-18T12:22:05Z</time>
      </trkpt>
      <trkpt lat="44.55488" lon="5.62962">
        <ele>958</ele>
        <time>2019-04-18T12:23:05Z</time>
      </trkpt>
      <trkpt lat="44.55489" lon="5.62947">
        <ele>959</ele>
        <time>2019-04-18T12:24:05Z</time>
      </trkpt>
      <trkpt lat="44.5549" lon="5.62927">
        <ele>960</ele>
        <time>2019-04-18T12:25:05Z</time>
      </trkpt>
      <trkpt lat="44.55497" lon="5.62892">
        <ele>964</ele>
        <time>2019-04-18T12:26:05Z</time>
      </trkpt>
      <trkpt lat="44.55499" lon="5.62864">
        <ele>966</ele>
        <time>2019-04-18T12:27:05Z</time>
      </trkpt>
      <trkpt lat="44.55494" lon="5.6284">
        <ele>965</ele>
        <time>2019-04-18T12:28:05Z</time>
      </trkpt>
      <trkpt lat="44.55475" lon="5.62775">
        <ele>964</ele>
        <time>2019-04-18T12:29:05Z</time>
      </trkpt>
      <trkpt lat="44.55473" lon="5.62761">
        <ele>964</ele>
        <time>2019-04-18T12:30:05Z</time>
      </trkpt>
      <trkpt lat="44.55472" lon="5.62745">
        <ele>965</ele>
        <time>2019-04-18T12:31:05Z</time>
      </trkpt>
      <trkpt lat="44.55477" lon="5.6268">
        <ele>971</ele>
        <time>2019-04-18T12:32:05Z</time>
      </trkpt>
      <trkpt lat="44.55476" lon="5.62654">
        <ele>973</ele>
        <time>2019-04-18T12:33:05Z</time>
      </trkpt>
      <trkpt lat="44.5546" lon="5.6255">
        <ele>977</ele>
        <time>2019-04-18T12:34:05Z</time>
      </trkpt>
      <trkpt lat="44.55461" lon="5.62538">
        <ele>979</ele>
        <time>2019-04-18T12:35:05Z</time>
      </trkpt>
      <trkpt lat="44.55469" lon="5.62484">
        <ele>985</ele>
        <time>2019-04-18T12:36:05Z</time>
      </trkpt>
      <trkpt lat="44.55471" lon="5.62461">
        <ele>987</ele>
        <time>2019-04-18T12:37:05Z</time>
      </trkpt>
      <trkpt lat="44.55474" lon="5.62398">
        <ele>989</ele>
        <time>2019-04-18T12:38:05Z</time>
      </trkpt>
      <trkpt lat="44.55477" lon="5.62379">
        <ele>989</ele>
        <time>2019-04-18T12:39:05Z</time>
      </trkpt>
      <trkpt lat="44.55512" lon="5.62223">
        <ele>999</ele>
        <time>2019-04-18T12:40:05Z</time>
      </trkpt>
      <trkpt lat="44.55516" lon="5.62189">
        <ele>1000</ele>
        <time>2019-04-18T12:41:05Z</time>
      </trkpt>
      <trkpt lat="44.55516" lon="5.62178">
        <ele>999</ele>
        <time>2019-04-18T12:42:05Z</time>
      </trkpt>
      <trkpt lat="44.55512" lon="5.62158">
        <ele>1000</ele>
        <time>2019-04-18T12:43:05Z</time>
      </trkpt>
      <trkpt lat="44.55502" lon="5.62137">
        <ele>1004</ele>
        <time>2019-04-18T12:44:05Z</time>
      </trkpt>
      <trkpt lat="44.55468" lon="5.62089">
        <ele>1005</ele>
        <time>2019-04-18T12:45:05Z</time>
      </trkpt>
      <trkpt lat="44.55463" lon="5.62078">
        <ele>1006</ele>
        <time>2019-04-18T12:46:05Z</time>
      </trkpt>
      <trkpt lat="44.55449" lon="5.62029">
        <ele>1013</ele>
        <time>2019-04-18T12:47:05Z</time>
      </trkpt>
      <trkpt lat="44.55424" lon="5.61983">
        <ele>1006</ele>
        <time>2019-04-18T12:48:05Z</time>
      </trkpt>
      <trkpt lat="44.55422" lon="5.61969">
        <ele>1005</ele>
        <time>2019-04-18T12:49:05Z</time>
      </trkpt>
      <trkpt lat="44.55422" lon="5.61961">
        <ele>1005</ele>
        <time>2019-04-18T12:50:05Z</time>
      </trkpt>
      <trkpt lat="44.55426" lon="5.61947">
        <ele>1008</ele>
        <time>2019-04-18T12:51:05Z</time>
      </trkpt>
      <trkpt lat="44.55432" lon="5.61938">
        <ele>1012</ele>
        <time>2019-04-18T12:52:05Z</time>
      </trkpt>
      <trkpt lat="44.55441" lon="5.6192">
        <ele>1019</ele>
        <time>2019-04-18T12:53:05Z</time>
      </trkpt>
      <trkpt lat="44.5545" lon="5.61888">
        <ele>1024</ele>
        <time>2019-04-18T12:54:05Z</time>
      </trkpt>
      <trkpt lat="44.55451" lon="5.61877">
        <ele>1025</ele>
        <time>2019-04-18T12:55:05Z</time>
      </trkpt>
      <trkpt lat="44.55449" lon="5.61838">
        <ele>1023</ele>
        <time>2019-04-18T12:56:05Z</time>
      </trkpt>
      <trkpt lat="44.5545" lon="5.61821">
        <ele>1023</ele>
        <time>2019-04-18T12:57:05Z</time>
      </trkpt>
      <trkpt lat="44.55455" lon="5.61801">
        <ele>1025</ele>
        <time>2019-04-18T12:58:05Z</time>
      </trkpt>
      <trkpt lat="44.55462" lon="5.61743">
        <ele>1026</ele>
        <time>2019-04-18T12:59:05Z</time>
      </trkpt>
      <trkpt lat="44.55466" lon="5.61722">
        <ele>1027</ele>
        <time>2019-04-18T13:00:05Z</time>
      </trkpt>
      <trkpt lat="44.55481" lon="5.61674">
        <ele>1030</ele>
        <time>2019-04-18T13:01:05Z</time>
      </trkpt>
      <trkpt lat="44.55484" lon="5.61656">
        <ele>1029</ele>
        <time>2019-04-18T13:02:05Z</time>
      </trkpt>
      <trkpt lat="44.55506" lon="5.61567">
        <ele>1031</ele>
        <time>2019-04-18T13:03:05Z</time>
      </trkpt>
      <trkpt lat="44.55544" lon="5.61421">
        <ele>1040</ele>
        <time>2019-04-18T13:04:05Z</time>
      </trkpt>
      <trkpt lat="44.5557" lon="5.61376">
        <ele>1044</ele>
        <time>2019-04-18T13:05:05Z</time>
      </trkpt>
      <trkpt lat="44.556" lon="5.61337">
        <ele>1048</ele>
        <time>2019-04-18T13:06:05Z</time>
      </trkpt>
      <trkpt lat="44.5569" lon="5.6124">
        <ele>1060</ele>
        <time>2019-04-18T13:07:05Z</time>
      </trkpt>
      <trkpt lat="44.55701" lon="5.6122">
        <ele>1060</ele>
        <time>2019-04-18T13:08:05Z</time>
      </trkpt>
      <trkpt lat="44.55711" lon="5.61177">
        <ele>1057</ele>
        <time>2019-04-18T13:09:05Z</time>
      </trkpt>
      <trkpt lat="44.5572" lon="5.61161">
        <ele>1057</ele>
        <time>2019-04-18T13:10:05Z</time>
      </trkpt>
      <trkpt lat="44.5573" lon="5.61148">
        <ele>1058</ele>
        <time>2019-04-18T13:11:05Z</time>
      </trkpt>
      <trkpt lat="44.55743" lon="5.61137">
        <ele>1060</ele>
        <time>2019-04-18T13:12:05Z</time>
      </trkpt>
      <trkpt lat="44.55753" lon="5.61131">
        <ele>1061</ele>
        <time>2019-04-18T13:13:05Z</time>
      </trkpt>
      <trkpt lat="44.55798" lon="5.61117">
        <ele>1068</ele>
        <time>2019-04-18T13:14:05Z</time>
      </trkpt>
      <trkpt lat="44.5582" lon="5.61107">
        <ele>1071</ele>
        <time>2019-04-18T13:15:05Z</time>
      </trkpt>
      <trkpt lat="44.55833" lon="5.61094">
        <ele>1072</ele>
        <time>2019-04-18T13:16:05Z</time>
      </trkpt>
      <trkpt lat="44.55839" lon="5.61085">
        <ele>1073</ele>
        <time>2019-04-18T13:17:05Z</time>
      </trkpt>
      <trkpt lat="44.55845" lon="5.61072">
        <ele>1074</ele>
        <time>2019-04-18T13:18:05Z</time>
      </trkpt>
      <trkpt lat="44.55851" lon="5.61049">
        <ele>1077</ele>
        <time>2019-04-18T13:19:05Z</time>
      </trkpt>
      <trkpt lat="44.55852" lon="5.61037">
        <ele>1078</ele>
        <time>2019-04-18T13:20:05Z</time>
      </trkpt>
      <trkpt lat="44.5585" lon="5.61014">
        <ele>1079</ele>
        <time>2019-04-18T13:21:05Z</time>
      </trkpt>
      <trkpt lat="44.55846" lon="5.61001">
        <ele>1079</ele>
        <time>2019-04-18T13:22:05Z</time>
      </trkpt>
      <trkpt lat="44.55831" lon="5.60968">
        <ele>1081</ele>
        <time>2019-04-18T13:23:05Z</time>
      </trkpt>
      <trkpt lat="44.55817" lon="5.60945">
        <ele>1084</ele>
        <time>2019-04-18T13:24:05Z</time>
      </trkpt>
      <trkpt lat="44.55764" lon="5.60911">
        <ele>1089</ele>
        <time>2019-04-18T13:25:05Z</time>
      </trkpt>
      <trkpt lat="44.55754" lon="5.60909">
        <ele>1089</ele>
        <time>2019-04-18T13:26:05Z</time>
      </trkpt>
      <trkpt lat="44.55676" lon="5.60909">
        <ele>1094</ele>
        <time>2019-04-18T13:27:05Z</time>
      </trkpt>
      <trkpt lat="44.55653" lon="5.60915">
        <ele>1096</ele>
        <time>2019-04-18T13:28:05Z</time>
      </trkpt>
      <trkpt lat="44.55605" lon="5.60932">
        <ele>1100</ele>
        <time>2019-04-18T13:29:05Z</time>
      </trkpt>
      <trkpt lat="44.55516" lon="5.60959">
        <ele>1095</ele>
        <time>2019-04-18T13:30:05Z</time>
      </trkpt>
      <trkpt lat="44.55496" lon="5.60956">
        <ele>1095</ele>
        <time>2019-04-18T13:31:05Z</time>
      </trkpt>
      <trkpt lat="44.55485" lon="5.60948">
        <ele>1094</ele>
        <time>2019-04-18T13:32:05Z</time>
      </trkpt>
      <trkpt lat="44.55481" lon="5.60942">
        <ele>1095</ele>
        <time>2019-04-18T13:33:05Z</time>
      </trkpt>
      <trkpt lat="44.55475" lon="5.60926">
        <ele>1097</ele>
        <time>2019-04-18T13:34:05Z</time>
      </trkpt>
      <trkpt lat="44.55466" lon="5.60878">
        <ele>1101</ele>
        <time>2019-04-18T13:35:05Z</time>
      </trkpt>
      <trkpt lat="44.55465" lon="5.60841">
        <ele>1105</ele>
        <time>2019-04-18T13:36:05Z</time>
      </trkpt>
      <trkpt lat="44.55475" lon="5.60773">
        <ele>1117</ele>
        <time>2019-04-18T13:37:05Z</time>
      </trkpt>
      <trkpt lat="44.55474" lon="5.60753">
        <ele>1119</ele>
        <time>2019-04-18T13:38:05Z</time>
      </trkpt>
      <trkpt lat="44.55464" lon="5.60722">
        <ele>1121</ele>
        <time>2019-04-18T13:39:05Z</time>
      </trkpt>
      <trkpt lat="44.55454" lon="5.60699">
        <ele>1121</ele>
        <time>2019-04-18T13:40:05Z</time>
      </trkpt>
      <trkpt lat="44.55391" lon="5.60599">
        <ele>1125</ele>
        <time>2019-04-18T13:41:05Z</time>
      </trkpt>
      <trkpt lat="44.55381" lon="5.60586">
        <ele>1126</ele>
        <time>2019-04-18T13:42:05Z</time>
      </trkpt>
      <trkpt lat="44.55374" lon="5.60581">
        <ele>1125</ele>
        <time>2019-04-18T13:43:05Z</time>
      </trkpt>
      <trkpt lat="44.5536" lon="5.60574">
        <ele>1123</ele>
        <time>2019-04-18T13:44:05Z</time>
      </trkpt>
      <trkpt lat="44.55342" lon="5.60562">
        <ele>1122</ele>
        <time>2019-04-18T13:45:05Z</time>
      </trkpt>
      <trkpt lat="44.55335" lon="5.60555">
        <ele>1122</ele>
        <time>2019-04-18T13:46:05Z</time>
      </trkpt>
      <trkpt lat="44.5532" lon="5.60535">
        <ele>1128</ele>
        <time>2019-04-18T13:47:05Z</time>
      </trkpt>
      <trkpt lat="44.55307" lon="5.60528">
        <ele>1131</ele>
        <time>2019-04-18T13:48:05Z</time>
      </trkpt>
      <trkpt lat="44.55292" lon="5.60525">
        <ele>1132</ele>
        <time>2019-04-18T13:49:05Z</time>
      </trkpt>
      <trkpt lat="44.55252" lon="5.60523">
        <ele>1133</ele>
        <time>2019-04-18T13:50:05Z</time>
      </trkpt>
      <trkpt lat="44.55245" lon="5.60524">
        <ele>1134</ele>
        <time>2019-04-18T13:51:05Z</time>
      </trkpt>
      <trkpt lat="44.55228" lon="5.60532">
        <ele>1137</ele>
        <time>2019-04-18T13:52:05Z</time>
      </trkpt>
      <trkpt lat="44.55199" lon="5.60553">
        <ele>1140</ele>
        <time>2019-04-18T13:53:05Z</time>
      </trkpt>
      <trkpt lat="44.55188" lon="5.60568">
        <ele>1139</ele>
        <time>2019-04-18T13:54:05Z</time>
      </trkpt>
      <trkpt lat="44.55171" lon="5.60594">
        <ele>1137</ele>
        <time>2019-04-18T13:55:05Z</time>
      </trkpt>
      <trkpt lat="44.55164" lon="5.60608">
        <ele>1135</ele>
        <time>2019-04-18T13:56:05Z</time>
      </trkpt>
      <trkpt lat="44.55145" lon="5.60656">
        <ele>1125</ele>
        <time>2019-04-18T13:57:05Z</time>
      </trkpt>
      <trkpt lat="44.55137" lon="5.60668">
        <ele>1122</ele>
        <time>2019-04-18T13:58:05Z</time>
      </trkpt>
      <trkpt lat="44.5513" lon="5.60674">
        <ele>1121</ele>
        <time>2019-04-18T13:59:05Z</time>
      </trkpt>
      <trkpt lat="44.55123" lon="5.60675">
        <ele>1121</ele>
        <time>2019-04-18T14:00:05Z</time>
      </trkpt>
      <trkpt lat="44.55113" lon="5.6067">
        <ele>1123</ele>
        <time>2019-04-18T14:01:05Z</time>
      </trkpt>
      <trkpt lat="44.55104" lon="5.6066">
        <ele>1126</ele>
        <time>2019-04-18T14:02:05Z</time>
      </trkpt>
      <trkpt lat="44.55092" lon="5.60632">
        <ele>1134</ele>
        <time>2019-04-18T14:03:05Z</time>
      </trkpt>
      <trkpt lat="44.55073" lon="5.606">
        <ele>1139</ele>
        <time>2019-04-18T14:04:05Z</time>
      </trkpt>
      <trkpt lat="44.55065" lon="5.60582">
        <ele>1140</ele>
        <time>2019-04-18T14:05:05Z</time>
      </trkpt>
      <trkpt lat="44.55052" lon="5.60545">
        <ele>1143</ele>
        <time>2019-04-18T14:06:05Z</time>
      </trkpt>
      <trkpt lat="44.55039" lon="5.60514">
        <ele>1144</ele>
        <time>2019-04-18T14:07:05Z</time>
      </trkpt>
      <trkpt lat="44.55037" lon="5.60508">
        <ele>1144</ele>
        <time>2019-04-18T14:08:05Z</time>
      </trkpt>
      <trkpt lat="44.55038" lon="5.60496">
        <ele>1147</ele>
        <time>2019-04-18T14:09:05Z</time>
      </trkpt>
      <trkpt lat="44.55046" lon="5.6047">
        <ele>1154</ele>
        <time>2019-04-18T14:10:05Z</time>
      </trkpt>
      <trkpt lat="44.55048" lon="5.60455">
        <ele>1157</ele>
        <time>2019-04-18T14:11:05Z</time>
      </trkpt>
      <trkpt lat="44.55048" lon="5.60433">
        <ele>1159</ele>
        <time>2019-04-18T14:12:05Z</time>
      </trkpt>
      <trkpt lat="44.55047" lon="5.6042">
        <ele>1160</ele>
        <time>2019-04-18T14:13:05Z</time>
      </trkpt>
      <trkpt lat="44.5504" lon="5.60399">
        <ele>1160</ele>
        <time>2019-04-18T14:14:05Z</time>
      </trkpt>
      <trkpt lat="44.55036" lon="5.6039">
        <ele>1160</ele>
        <time>2019-04-18T14:15:05Z</time>
      </trkpt>
      <trkpt lat="44.5501" lon="5.60356">
        <ele>1154</ele>
        <time>2019-04-18T14:16:05Z</time>
      </trkpt>
      <trkpt lat="44.55002" lon="5.6033">
        <ele>1154</ele>
        <time>2019-04-18T14:17:05Z</time>
      </trkpt>
      <trkpt lat="44.55001" lon="5.60317">
        <ele>1153</ele>
        <time>2019-04-18T14:18:05Z</time>
      </trkpt>
      <trkpt lat="44.55004" lon="5.60305">
        <ele>1154</ele>
        <time>2019-04-18T14:19:05Z</time>
      </trkpt>
      <trkpt lat="44.55029" lon="5.60268">
        <ele>1164</ele>
        <time>2019-04-18T14:20:05Z</time>
      </trkpt>
      <trkpt lat="44.55037" lon="5.6025">
        <ele>1167</ele>
        <time>2019-04-18T14:21:05Z</time>
      </trkpt>
      <trkpt lat="44.55039" lon="5.60226">
        <ele>1167</ele>
        <time>2019-04-18T14:22:05Z</time>
      </trkpt>
      <trkpt lat="44.55039" lon="5.60195">
        <ele>1167</ele>
        <time>2019-04-18T14:23:05Z</time>
      </trkpt>
      <trkpt lat="44.55041" lon="5.60181">
        <ele>1167</ele>
        <time>2019-04-18T14:24:05Z</time>
      </trkpt>
      <trkpt lat="44.55054" lon="5.60126">
        <ele>1174</ele>
        <time>2019-04-18T14:25:05Z</time>
      </trkpt>
      <trkpt lat="44.55054" lon="5.60114">
        <ele>1175</ele>
        <time>2019-04-18T14:26:05Z</time>
      </trkpt>
      <trkpt lat="44.5505" lon="5.60092">
        <ele>1176</ele>
        <time>2019-04-18T14:27:05Z</time>
      </trkpt>
      <trkpt lat="44.55043" lon="5.60077">
        <ele>1175</ele>
        <time>2019-04-18T14:28:05Z</time>
      </trkpt>
      <trkpt lat="44.55024" lon="5.60054">
        <ele>1173</ele>
        <time>2019-04-18T14:29:05Z</time>
      </trkpt>
      <trkpt lat="44.55005" lon="5.60021">
        <ele>1172</ele>
        <time>2019-04-18T14:30:05Z</time>
      </trkpt>
      <trkpt lat="44.55002" lon="5.60006">
        <ele>1174</ele>
        <time>2019-04-18T14:31:05Z</time>
      </trkpt>
      <trkpt lat="44.54982" lon="5.59883">
        <ele>1184</ele>
        <time>2019-04-18T14:32:05Z</time>
      </trkpt>
      <trkpt lat="44.54978" lon="5.59869">
        <ele>1185</ele>
        <time>2019-04-18T14:33:05Z</time>
      </trkpt>
      <trkpt lat="44.54968" lon="5.59847">
        <ele>1185</ele>
        <time>2019-04-18T14:34:05Z</time>
      </trkpt>
      <trkpt lat="44.54959" lon="5.59832">
        <ele>1184</ele>
        <time>2019-04-18T14:35:05Z</time>
      </trkpt>
      <trkpt lat="44.5495" lon="5.59819">
        <ele>1182</ele>
        <time>2019-04-18T14:36:05Z</time>
      </trkpt>
      <trkpt lat="44.54937" lon="5.59812">
        <ele>1179</ele>
        <time>2019-04-18T14:37:05Z</time>
      </trkpt>
      <trkpt lat="44.54925" lon="5.59808">
        <ele>1177</ele>
        <time>2019-04-18T14:38:05Z</time>
      </trkpt>
      <trkpt lat="44.54901" lon="5.59806">
        <ele>1177</ele>
        <time>2019-04-18T14:39:05Z</time>
      </trkpt>
      <trkpt lat="44.54879" lon="5.59812">
        <ele>1179</ele>
        <time>2019-04-18T14:40:05Z</time>
      </trkpt>
      <trkpt lat="44.54869" lon="5.59814">
        <ele>1180</ele>
        <time>2019-04-18T14:41:05Z</time>
      </trkpt>
      <trkpt lat="44.54861" lon="5.59812">
        <ele>1181</ele>
        <time>2019-04-18T14:42:05Z</time>
      </trkpt>
      <trkpt lat="44.5485" lon="5.59804">
        <ele>1181</ele>
        <time>2019-04-18T14:43:05Z</time>
      </trkpt>
      <trkpt lat="44.54842" lon="5.59784">
        <ele>1181</ele>
        <time>2019-04-18T14:44:05Z</time>
      </trkpt>
      <trkpt lat="44.54839" lon="5.59761">
        <ele>1181</ele>
        <time>2019-04-18T14:45:05Z</time>
      </trkpt>
      <trkpt lat="44.5484" lon="5.59749">
        <ele>1180</ele>
        <time>2019-04-18T14:46:05Z</time>
      </trkpt>
      <trkpt lat="44.54852" lon="5.59703">
        <ele>1178</ele>
        <time>2019-04-18T14:47:05Z</time>
      </trkpt>
      <trkpt lat="44.54855" lon="5.59688">
        <ele>1177</ele>
        <time>2019-04-18T14:48:05Z</time>
      </trkpt>
      <trkpt lat="44.54858" lon="5.59604">
        <ele>1175</ele>
        <time>2019-04-18T14:49:05Z</time>
      </trkpt>
      <trkpt lat="44.54862" lon="5.59569">
        <ele>1174</ele>
        <time>2019-04-18T14:50:05Z</time>
      </trkpt>
      <trkpt lat="44.5488" lon="5.59469">
        <ele>1168</ele>
        <time>2019-04-18T14:51:05Z</time>
      </trkpt>
      <trkpt lat="44.54886" lon="5.59424">
        <ele>1167</ele>
        <time>2019-04-18T14:52:05Z</time>
      </trkpt>
      <trkpt lat="44.54885" lon="5.59379">
        <ele>1168</ele>
        <time>2019-04-18T14:53:05Z</time>
      </trkpt>
      <trkpt lat="44.54877" lon="5.59334">
        <ele>1173</ele>
        <time>2019-04-18T14:54:05Z</time>
      </trkpt>
      <trkpt lat="44.54879" lon="5.59325">
        <ele>1172</ele>
        <time>2019-04-18T14:55:05Z</time>
      </trkpt>
      <trkpt lat="44.54885" lon="5.59319">
        <ele>1170</ele>
        <time>2019-04-18T14:56:05Z</time>
      </trkpt>
      <trkpt lat="44.54892" lon="5.59319">
        <ele>1166</ele>
        <time>2019-04-18T14:57:05Z</time>
      </trkpt>
      <trkpt lat="44.54898" lon="5.59323">
        <ele>1164</ele>
        <time>2019-04-18T14:58:05Z</time>
      </trkpt>
      <trkpt lat="44.54903" lon="5.59334">
        <ele>1161</ele>
        <time>2019-04-18T14:59:05Z</time>
      </trkpt>
      <trkpt lat="44.54903" lon="5.59349">
        <ele>1161</ele>
        <time>2019-04-18T15:00:05Z</time>
      </trkpt>
      <trkpt lat="44.54899" lon="5.59372">
        <ele>1162</ele>
        <time>2019-04-18T15:01:05Z</time>
      </trkpt>
      <trkpt lat="44.54898" lon="5.59393">
        <ele>1162</ele>
        <time>2019-04-18T15:02:05Z</time>
      </trkpt>
      <trkpt lat="44.549" lon="5.59434">
        <ele>1160</ele>
        <time>2019-04-18T15:03:05Z</time>
      </trkpt>
      <trkpt lat="44.54896" lon="5.5949">
        <ele>1160</ele>
        <time>2019-04-18T15:04:05Z</time>
      </trkpt>
      <trkpt lat="44.54896" lon="5.59518">
        <ele>1159</ele>
        <time>2019-04-18T15:05:05Z</time>
      </trkpt>
      <trkpt lat="44.54898" lon="5.59544">
        <ele>1158</ele>
        <time>2019-04-18T15:06:05Z</time>
      </trkpt>
      <trkpt lat="44.54911" lon="5.59621">
        <ele>1155</ele>
        <time>2019-04-18T15:07:05Z</time>
      </trkpt>
      <trkpt lat="44.54917" lon="5.59638">
        <ele>1154</ele>
        <time>2019-04-18T15:08:05Z</time>
      </trkpt>
      <trkpt lat="44.54926" lon="5.59648">
        <ele>1156</ele>
        <time>2019-04-18T15:09:05Z</time>
      </trkpt>
      <trkpt lat="44.54933" lon="5.59649">
        <ele>1157</ele>
        <time>2019-04-18T15:10:05Z</time>
      </trkpt>
      <trkpt lat="44.54942" lon="5.59647">
        <ele>1158</ele>
        <time>2019-04-18T15:11:05Z</time>
      </trkpt>
      <trkpt lat="44.54964" lon="5.59618">
        <ele>1156</ele>
        <time>2019-04-18T15:12:05Z</time>
      </trkpt>
      <trkpt lat="44.54992" lon="5.59588">
        <ele>1152</ele>
        <time>2019-04-18T15:13:05Z</time>
      </trkpt>
      <trkpt lat="44.55008" lon="5.59566">
        <ele>1150</ele>
        <time>2019-04-18T15:14:05Z</time>
      </trkpt>
      <trkpt lat="44.55036" lon="5.59511">
        <ele>1145</ele>
        <time>2019-04-18T15:15:05Z</time>
      </trkpt>
      <trkpt lat="44.55061" lon="5.59475">
        <ele>1144</ele>
        <time>2019-04-18T15:16:05Z</time>
      </trkpt>
      <trkpt lat="44.55066" lon="5.59462">
        <ele>1142</ele>
        <time>2019-04-18T15:17:05Z</time>
      </trkpt>
      <trkpt lat="44.55074" lon="5.59434">
        <ele>1137</ele>
        <time>2019-04-18T15:18:05Z</time>
      </trkpt>
      <trkpt lat="44.55085" lon="5.59418">
        <ele>1135</ele>
        <time>2019-04-18T15:19:05Z</time>
      </trkpt>
      <trkpt lat="44.55094" lon="5.59409">
        <ele>1134</ele>
        <time>2019-04-18T15:20:05Z</time>
      </trkpt>
      <trkpt lat="44.55106" lon="5.59402">
        <ele>1134</ele>
        <time>2019-04-18T15:21:05Z</time>
      </trkpt>
      <trkpt lat="44.55143" lon="5.59393">
        <ele>1138</ele>
        <time>2019-04-18T15:22:05Z</time>
      </trkpt>
      <trkpt lat="44.55157" lon="5.59386">
        <ele>1138</ele>
        <time>2019-04-18T15:23:05Z</time>
      </trkpt>
      <trkpt lat="44.55164" lon="5.59379">
        <ele>1137</ele>
        <time>2019-04-18T15:24:05Z</time>
      </trkpt>
      <trkpt lat="44.55178" lon="5.59357">
        <ele>1134</ele>
        <time>2019-04-18T15:25:05Z</time>
      </trkpt>
      <trkpt lat="44.55191" lon="5.59341">
        <ele>1133</ele>
        <time>2019-04-18T15:26:05Z</time>
      </trkpt>
      <trkpt lat="44.55212" lon="5.59325">
        <ele>1137</ele>
        <time>2019-04-18T15:27:05Z</time>
      </trkpt>
      <trkpt lat="44.55217" lon="5.59318">
        <ele>1138</ele>
        <time>2019-04-18T15:28:05Z</time>
      </trkpt>
      <trkpt lat="44.55221" lon="5.5931">
        <ele>1137</ele>
        <time>2019-04-18T15:29:05Z</time>
      </trkpt>
      <trkpt lat="44.55222" lon="5.59301">
        <ele>1136</ele>
        <time>2019-04-18T15:30:05Z</time>
      </trkpt>
      <trkpt lat="44.55222" lon="5.59253">
        <ele>1126</ele>
        <time>2019-04-18T15:31:05Z</time>
      </trkpt>
      <trkpt lat="44.55223" lon="5.59233">
        <ele>1123</ele>
        <time>2019-04-18T15:32:05Z</time>
      </trkpt>
      <trkpt lat="44.55227" lon="5.59205">
        <ele>1120</ele>
        <time>2019-04-18T15:33:05Z</time>
      </trkpt>
      <trkpt lat="44.55232" lon="5.59184">
        <ele>1118</ele>
        <time>2019-04-18T15:34:05Z</time>
      </trkpt>
      <trkpt lat="44.55247" lon="5.59163">
        <ele>1119</ele>
        <time>2019-04-18T15:35:05Z</time>
      </trkpt>
      <trkpt lat="44.55257" lon="5.59156">
        <ele>1120</ele>
        <time>2019-04-18T15:36:05Z</time>
      </trkpt>
      <trkpt lat="44.55281" lon="5.59148">
        <ele>1122</ele>
        <time>2019-04-18T15:37:05Z</time>
      </trkpt>
      <trkpt lat="44.5529" lon="5.59136">
        <ele>1120</ele>
        <time>2019-04-18T15:38:05Z</time>
      </trkpt>
      <trkpt lat="44.55292" lon="5.59127">
        <ele>1118</ele>
        <time>2019-04-18T15:39:05Z</time>
      </trkpt>
      <trkpt lat="44.55291" lon="5.5912">
        <ele>1116</ele>
        <time>2019-04-18T15:40:05Z</time>
      </trkpt>
      <trkpt lat="44.55285" lon="5.59109">
        <ele>1113</ele>
        <time>2019-04-18T15:41:05Z</time>
      </trkpt>
      <trkpt lat="44.55279" lon="5.59106">
        <ele>1112</ele>
        <time>2019-04-18T15:42:05Z</time>
      </trkpt>
      <trkpt lat="44.55271" lon="5.59106">
        <ele>1111</ele>
        <time>2019-04-18T15:43:05Z</time>
      </trkpt>
      <trkpt lat="44.55264" lon="5.59109">
        <ele>1111</ele>
        <time>2019-04-18T15:44:05Z</time>
      </trkpt>
      <trkpt lat="44.5524" lon="5.59129">
        <ele>1111</ele>
        <time>2019-04-18T15:45:05Z</time>
      </trkpt>
      <trkpt lat="44.55226" lon="5.59152">
        <ele>1111</ele>
        <time>2019-04-18T15:46:05Z</time>
      </trkpt>
      <trkpt lat="44.55221" lon="5.59163">
        <ele>1111</ele>
        <time>2019-04-18T15:47:05Z</time>
      </trkpt>
      <trkpt lat="44.55199" lon="5.59229">
        <ele>1113</ele>
        <time>2019-04-18T15:48:05Z</time>
      </trkpt>
      <trkpt lat="44.55196" lon="5.59246">
        <ele>1114</ele>
        <time>2019-04-18T15:49:05Z</time>
      </trkpt>
      <trkpt lat="44.55195" lon="5.59271">
        <ele>1119</ele>
        <time>2019-04-18T15:50:05Z</time>
      </trkpt>
      <trkpt lat="44.55192" lon="5.5928">
        <ele>1120</ele>
        <time>2019-04-18T15:51:05Z</time>
      </trkpt>
      <trkpt lat="44.55152" lon="5.59323">
        <ele>1116</ele>
        <time>2019-04-18T15:52:05Z</time>
      </trkpt>
      <trkpt lat="44.55139" lon="5.5933">
        <ele>1116</ele>
        <time>2019-04-18T15:53:05Z</time>
      </trkpt>
      <trkpt lat="44.55125" lon="5.59335">
        <ele>1115</ele>
        <time>2019-04-18T15:54:05Z</time>
      </trkpt>
      <trkpt lat="44.55068" lon="5.59341">
        <ele>1111</ele>
        <time>2019-04-18T15:55:05Z</time>
      </trkpt>
      <trkpt lat="44.55048" lon="5.59354">
        <ele>1115</ele>
        <time>2019-04-18T15:56:05Z</time>
      </trkpt>
      <trkpt lat="44.55037" lon="5.59365">
        <ele>1117</ele>
        <time>2019-04-18T15:57:05Z</time>
      </trkpt>
      <trkpt lat="44.55028" lon="5.59371">
        <ele>1118</ele>
        <time>2019-04-18T15:58:05Z</time>
      </trkpt>
      <trkpt lat="44.55018" lon="5.5937">
        <ele>1118</ele>
        <time>2019-04-18T15:59:05Z</time>
      </trkpt>
      <trkpt lat="44.55013" lon="5.59366">
        <ele>1117</ele>
        <time>2019-04-18T16:00:05Z</time>
      </trkpt>
      <trkpt lat="44.55008" lon="5.59355">
        <ele>1116</ele>
        <time>2019-04-18T16:01:05Z</time>
      </trkpt>
      <trkpt lat="44.55007" lon="5.59344">
        <ele>1115</ele>
        <time>2019-04-18T16:02:05Z</time>
      </trkpt>
      <trkpt lat="44.55008" lon="5.59332">
        <ele>1113</ele>
        <time>2019-04-18T16:03:05Z</time>
      </trkpt>
      <trkpt lat="44.55041" lon="5.59174">
        <ele>1099</ele>
        <time>2019-04-18T16:04:05Z</time>
      </trkpt>
      <trkpt lat="44.55043" lon="5.59147">
        <ele>1098</ele>
        <time>2019-04-18T16:05:05Z</time>
      </trkpt>
      <trkpt lat="44.55047" lon="5.59065">
        <ele>1095</ele>
        <time>2019-04-18T16:06:05Z</time>
      </trkpt>
      <trkpt lat="44.55049" lon="5.58952">
        <ele>1093</ele>
        <time>2019-04-18T16:07:05Z</time>
      </trkpt>
      <trkpt lat="44.55052" lon="5.58892">
        <ele>1095</ele>
        <time>2019-04-18T16:08:05Z</time>
      </trkpt>
      <trkpt lat="44.55062" lon="5.58821">
        <ele>1096</ele>
        <time>2019-04-18T16:09:05Z</time>
      </trkpt>
      <trkpt lat="44.55073" lon="5.58779">
        <ele>1094</ele>
        <time>2019-04-18T16:10:05Z</time>
      </trkpt>
      <trkpt lat="44.55089" lon="5.58704">
        <ele>1093</ele>
        <time>2019-04-18T16:11:05Z</time>
      </trkpt>
      <trkpt lat="44.55102" lon="5.58667">
        <ele>1092</ele>
        <time>2019-04-18T16:12:05Z</time>
      </trkpt>
      <trkpt lat="44.55112" lon="5.5865">
        <ele>1090</ele>
        <time>2019-04-18T16:13:05Z</time>
      </trkpt>
      <trkpt lat="44.5517" lon="5.58581">
        <ele>1077</ele>
        <time>2019-04-18T16:14:05Z</time>
      </trkpt>
      <trkpt lat="44.5522" lon="5.58538">
        <ele>1066</ele>
        <time>2019-04-18T16:15:05Z</time>
      </trkpt>
      <trkpt lat="44.55238" lon="5.58516">
        <ele>1064</ele>
        <time>2019-04-18T16:16:05Z</time>
      </trkpt>
      <trkpt lat="44.55245" lon="5.58502">
        <ele>1064</ele>
        <time>2019-04-18T16:17:05Z</time>
      </trkpt>
      <trkpt lat="44.5526" lon="5.58472">
        <ele>1062</ele>
        <time>2019-04-18T16:18:05Z</time>
      </trkpt>
      <trkpt lat="44.55274" lon="5.58439">
        <ele>1061</ele>
        <time>2019-04-18T16:19:05Z</time>
      </trkpt>
      <trkpt lat="44.55294" lon="5.58385">
        <ele>1060</ele>
        <time>2019-04-18T16:20:05Z</time>
      </trkpt>
      <trkpt lat="44.55301" lon="5.5836">
        <ele>1059</ele>
        <time>2019-04-18T16:21:05Z</time>
      </trkpt>
      <trkpt lat="44.55306" lon="5.5832">
        <ele>1059</ele>
        <time>2019-04-18T16:22:05Z</time>
      </trkpt>
      <trkpt lat="44.55306" lon="5.5828">
        <ele>1061</ele>
        <time>2019-04-18T16:23:05Z</time>
      </trkpt>
      <trkpt lat="44.55309" lon="5.58252">
        <ele>1062</ele>
        <time>2019-04-18T16:24:05Z</time>
      </trkpt>
      <trkpt lat="44.55328" lon="5.58192">
        <ele>1063</ele>
        <time>2019-04-18T16:25:05Z</time>
      </trkpt>
      <trkpt lat="44.55342" lon="5.58167">
        <ele>1061</ele>
        <time>2019-04-18T16:26:05Z</time>
      </trkpt>
      <trkpt lat="44.55349" lon="5.5816">
        <ele>1060</ele>
        <time>2019-04-18T16:27:05Z</time>
      </trkpt>
      <trkpt lat="44.55376" lon="5.5814">
        <ele>1051</ele>
        <time>2019-04-18T16:28:05Z</time>
      </trkpt>
      <trkpt lat="44.55388" lon="5.58124">
        <ele>1049</ele>
        <time>2019-04-18T16:29:05Z</time>
      </trkpt>
      <trkpt lat="44.55408" lon="5.58069">
        <ele>1049</ele>
        <time>2019-04-18T16:30:05Z</time>
      </trkpt>
      <trkpt lat="44.55433" lon="5.58009">
        <ele>1048</ele>
        <time>2019-04-18T16:31:05Z</time>
      </trkpt>
      <trkpt lat="44.55443" lon="5.57991">
        <ele>1047</ele>
        <time>2019-04-18T16:32:05Z</time>
      </trkpt>
      <trkpt lat="44.5546" lon="5.57969">
        <ele>1045</ele>
        <time>2019-04-18T16:33:05Z</time>
      </trkpt>
      <trkpt lat="44.55474" lon="5.57945">
        <ele>1045</ele>
        <time>2019-04-18T16:34:05Z</time>
      </trkpt>
      <trkpt lat="44.55486" lon="5.57922">
        <ele>1046</ele>
        <time>2019-04-18T16:35:05Z</time>
      </trkpt>
      <trkpt lat="44.55503" lon="5.57908">
        <ele>1045</ele>
        <time>2019-04-18T16:36:05Z</time>
      </trkpt>
      <trkpt lat="44.55518" lon="5.57907">
        <ele>1045</ele>
        <time>2019-04-18T16:37:05Z</time>
      </trkpt>
      <trkpt lat="44.5556" lon="5.57923">
        <ele>1037</ele>
        <time>2019-04-18T16:38:05Z</time>
      </trkpt>
      <trkpt lat="44.55583" lon="5.57927">
        <ele>1034</ele>
        <time>2019-04-18T16:39:05Z</time>
      </trkpt>
      <trkpt lat="44.55618" lon="5.57926">
        <ele>1034</ele>
        <time>2019-04-18T16:40:05Z</time>
      </trkpt>
      <trkpt lat="44.55672" lon="5.57943">
        <ele>1025</ele>
        <time>2019-04-18T16:41:05Z</time>
      </trkpt>
      <trkpt lat="44.55688" lon="5.57941">
        <ele>1023</ele>
        <time>2019-04-18T16:42:05Z</time>
      </trkpt>
      <trkpt lat="44.55704" lon="5.57932">
        <ele>1022</ele>
        <time>2019-04-18T16:43:05Z</time>
      </trkpt>
      <trkpt lat="44.55727" lon="5.57909">
        <ele>1023</ele>
        <time>2019-04-18T16:44:05Z</time>
      </trkpt>
      <trkpt lat="44.5579" lon="5.57831">
        <ele>1020</ele>
        <time>2019-04-18T16:45:05Z</time>
      </trkpt>
      <trkpt lat="44.55806" lon="5.57804">
        <ele>1018</ele>
        <time>2019-04-18T16:46:05Z</time>
      </trkpt>
      <trkpt lat="44.55818" lon="5.57781">
        <ele>1016</ele>
        <time>2019-04-18T16:47:05Z</time>
      </trkpt>
      <trkpt lat="44.5583" lon="5.5775">
        <ele>1014</ele>
        <time>2019-04-18T16:48:05Z</time>
      </trkpt>
      <trkpt lat="44.55836" lon="5.57723">
        <ele>1014</ele>
        <time>2019-04-18T16:49:05Z</time>
      </trkpt>
      <trkpt lat="44.55848" lon="5.57652">
        <ele>1016</ele>
        <time>2019-04-18T16:50:05Z</time>
      </trkpt>
      <trkpt lat="44.55854" lon="5.576">
        <ele>1017</ele>
        <time>2019-04-18T16:51:05Z</time>
      </trkpt>
      <trkpt lat="44.55858" lon="5.57586">
        <ele>1015</ele>
        <time>2019-04-18T16:52:05Z</time>
      </trkpt>
      <trkpt lat="44.5588" lon="5.57517">
        <ele>1009</ele>
        <time>2019-04-18T16:53:05Z</time>
      </trkpt>
      <trkpt lat="44.55902" lon="5.57432">
        <ele>1004</ele>
        <time>2019-04-18T16:54:05Z</time>
      </trkpt>
      <trkpt lat="44.55908" lon="5.57398">
        <ele>1003</ele>
        <time>2019-04-18T16:55:05Z</time>
      </trkpt>
      <trkpt lat="44.55911" lon="5.57347">
        <ele>1004</ele>
        <time>2019-04-18T16:56:05Z</time>
      </trkpt>
      <trkpt lat="44.55913" lon="5.57339">
        <ele>1003</ele>
        <time>2019-04-18T16:57:05Z</time>
      </trkpt>
      <trkpt lat="44.55918" lon="5.57329">
        <ele>1000</ele>
        <time>2019-04-18T16:58:05Z</time>
      </trkpt>
      <trkpt lat="44.55926" lon="5.57327">
        <ele>996</ele>
        <time>2019-04-18T16:59:05Z</time>
      </trkpt>
      <trkpt lat="44.55931" lon="5.57329">
        <ele>993</ele>
        <time>2019-04-18T17:00:05Z</time>
      </trkpt>
      <trkpt lat="44.55938" lon="5.57339">
        <ele>990</ele>
        <time>2019-04-18T17:01:05Z</time>
      </trkpt>
      <trkpt lat="44.55937" lon="5.57349">
        <ele>990</ele>
        <time>2019-04-18T17:02:05Z</time>
      </trkpt>
      <trkpt lat="44.5593" lon="5.57385">
        <ele>992</ele>
        <time>2019-04-18T17:03:05Z</time>
      </trkpt>
      <trkpt lat="44.55925" lon="5.57432">
        <ele>992</ele>
        <time>2019-04-18T17:04:05Z</time>
      </trkpt>
      <trkpt lat="44.55918" lon="5.57537">
        <ele>988</ele>
        <time>2019-04-18T17:05:05Z</time>
      </trkpt>
      <trkpt lat="44.55909" lon="5.57596">
        <ele>989</ele>
        <time>2019-04-18T17:06:05Z</time>
      </trkpt>
      <trkpt lat="44.55894" lon="5.57877">
        <ele>975</ele>
        <time>2019-04-18T17:07:05Z</time>
      </trkpt>
      <trkpt lat="44.5588" lon="5.57982">
        <ele>970</ele>
        <time>2019-04-18T17:08:05Z</time>
      </trkpt>
      <trkpt lat="44.55871" lon="5.58023">
        <ele>967</ele>
        <time>2019-04-18T17:09:05Z</time>
      </trkpt>
      <trkpt lat="44.55854" lon="5.5808">
        <ele>963</ele>
        <time>2019-04-18T17:10:05Z</time>
      </trkpt>
      <trkpt lat="44.55845" lon="5.58097">
        <ele>963</ele>
        <time>2019-04-18T17:11:05Z</time>
      </trkpt>
      <trkpt lat="44.55832" lon="5.58111">
        <ele>962</ele>
        <time>2019-04-18T17:12:05Z</time>
      </trkpt>
      <trkpt lat="44.55823" lon="5.58124">
        <ele>960</ele>
        <time>2019-04-18T17:13:05Z</time>
      </trkpt>
      <trkpt lat="44.5582" lon="5.58136">
        <ele>957</ele>
        <time>2019-04-18T17:14:05Z</time>
      </trkpt>
      <trkpt lat="44.55823" lon="5.58151">
        <ele>955</ele>
        <time>2019-04-18T17:15:05Z</time>
      </trkpt>
      <trkpt lat="44.55827" lon="5.58156">
        <ele>954</ele>
        <time>2019-04-18T17:16:05Z</time>
      </trkpt>
      <trkpt lat="44.55837" lon="5.58156">
        <ele>954</ele>
        <time>2019-04-18T17:17:05Z</time>
      </trkpt>
      <trkpt lat="44.55842" lon="5.58152">
        <ele>954</ele>
        <time>2019-04-18T17:18:05Z</time>
      </trkpt>
      <trkpt lat="44.55849" lon="5.58143">
        <ele>954</ele>
        <time>2019-04-18T17:19:05Z</time>
      </trkpt>
      <trkpt lat="44.55858" lon="5.58122">
        <ele>956</ele>
        <time>2019-04-18T17:20:05Z</time>
      </trkpt>
      <trkpt lat="44.55877" lon="5.58088">
        <ele>958</ele>
        <time>2019-04-18T17:21:05Z</time>
      </trkpt>
      <trkpt lat="44.5591" lon="5.58035">
        <ele>958</ele>
        <time>2019-04-18T17:22:05Z</time>
      </trkpt>
      <trkpt lat="44.55924" lon="5.58002">
        <ele>957</ele>
        <time>2019-04-18T17:23:05Z</time>
      </trkpt>
      <trkpt lat="44.55944" lon="5.57934">
        <ele>953</ele>
        <time>2019-04-18T17:24:05Z</time>
      </trkpt>
      <trkpt lat="44.55955" lon="5.57885">
        <ele>951</ele>
        <time>2019-04-18T17:25:05Z</time>
      </trkpt>
      <trkpt lat="44.55963" lon="5.57806">
        <ele>950</ele>
        <time>2019-04-18T17:26:05Z</time>
      </trkpt>
      <trkpt lat="44.55967" lon="5.57785">
        <ele>950</ele>
        <time>2019-04-18T17:27:05Z</time>
      </trkpt>
      <trkpt lat="44.55975" lon="5.57756">
        <ele>950</ele>
        <time>2019-04-18T17:28:05Z</time>
      </trkpt>
      <trkpt lat="44.55993" lon="5.57712">
        <ele>946</ele>
        <time>2019-04-18T17:29:05Z</time>
      </trkpt>
      <trkpt lat="44.56003" lon="5.57668">
        <ele>944</ele>
        <time>2019-04-18T17:30:05Z</time>
      </trkpt>
      <trkpt lat="44.56011" lon="5.57643">
        <ele>943</ele>
        <time>2019-04-18T17:31:05Z</time>
      </trkpt>
      <trkpt lat="44.56027" lon="5.57603">
        <ele>938</ele>
        <time>2019-04-18T17:32:05Z</time>
      </trkpt>
      <trkpt lat="44.56036" lon="5.57565">
        <ele>937</ele>
        <time>2019-04-18T17:33:05Z</time>
      </trkpt>
      <trkpt lat="44.56046" lon="5.57537">
        <ele>936</ele>
        <time>2019-04-18T17:34:05Z</time>
      </trkpt>
      <trkpt lat="44.56083" lon="5.57452">
        <ele>932</ele>
        <time>2019-04-18T17:35:05Z</time>
      </trkpt>
      <trkpt lat="44.56092" lon="5.5743">
        <ele>929</ele>
        <time>2019-04-18T17:36:05Z</time>
      </trkpt>
      <trkpt lat="44.561" lon="5.57402">
        <ele>924</ele>
        <time>2019-04-18T17:37:05Z</time>
      </trkpt>
      <trkpt lat="44.56101" lon="5.57376">
        <ele>920</ele>
        <time>2019-04-18T17:38:05Z</time>
      </trkpt>
      <trkpt lat="44.56093" lon="5.57355">
        <ele>922</ele>
        <time>2019-04-18T17:39:05Z</time>
      </trkpt>
      <trkpt lat="44.56083" lon="5.57342">
        <ele>924</ele>
        <time>2019-04-18T17:40:05Z</time>
      </trkpt>
      <trkpt lat="44.56051" lon="5.57323">
        <ele>934</ele>
        <time>2019-04-18T17:41:05Z</time>
      </trkpt>
      <trkpt lat="44.56036" lon="5.57309">
        <ele>937</ele>
        <time>2019-04-18T17:42:05Z</time>
      </trkpt>
      <trkpt lat="44.56027" lon="5.57289">
        <ele>936</ele>
        <time>2019-04-18T17:43:05Z</time>
      </trkpt>
      <trkpt lat="44.56011" lon="5.57233">
        <ele>934</ele>
        <time>2019-04-18T17:44:05Z</time>
      </trkpt>
      <trkpt lat="44.56005" lon="5.57195">
        <ele>934</ele>
        <time>2019-04-18T17:45:05Z</time>
      </trkpt>
      <trkpt lat="44.56007" lon="5.57175">
        <ele>932</ele>
        <time>2019-04-18T17:46:05Z</time>
      </trkpt>
      <trkpt lat="44.56032" lon="5.57098">
        <ele>929</ele>
        <time>2019-04-18T17:47:05Z</time>
      </trkpt>
      <trkpt lat="44.56043" lon="5.5708">
        <ele>927</ele>
        <time>2019-04-18T17:48:05Z</time>
      </trkpt>
      <trkpt lat="44.56057" lon="5.57068">
        <ele>925</ele>
        <time>2019-04-18T17:49:05Z</time>
      </trkpt>
      <trkpt lat="44.56119" lon="5.57025">
        <ele>917</ele>
        <time>2019-04-18T17:50:05Z</time>
      </trkpt>
      <trkpt lat="44.56134" lon="5.5701">
        <ele>916</ele>
        <time>2019-04-18T17:51:05Z</time>
      </trkpt>
      <trkpt lat="44.56147" lon="5.56994">
        <ele>916</ele>
        <time>2019-04-18T17:52:05Z</time>
      </trkpt>
      <trkpt lat="44.56163" lon="5.56979">
        <ele>914</ele>
        <time>2019-04-18T17:53:05Z</time>
      </trkpt>
      <trkpt lat="44.56212" lon="5.56953">
        <ele>903</ele>
        <time>2019-04-18T17:54:05Z</time>
      </trkpt>
      <trkpt lat="44.56221" lon="5.56946">
        <ele>901</ele>
        <time>2019-04-18T17:55:05Z</time>
      </trkpt>
      <trkpt lat="44.56232" lon="5.56932">
        <ele>900</ele>
        <time>2019-04-18T17:56:05Z</time>
      </trkpt>
      <trkpt lat="44.56242" lon="5.56909">
        <ele>899</ele>
        <time>2019-04-18T17:57:05Z</time>
      </trkpt>
      <trkpt lat="44.56249" lon="5.56882">
        <ele>899</ele>
        <time>2019-04-18T17:58:05Z</time>
      </trkpt>
      <trkpt lat="44.5625" lon="5.56826">
        <ele>905</ele>
        <time>2019-04-18T17:59:05Z</time>
      </trkpt>
      <trkpt lat="44.56252" lon="5.56809">
        <ele>905</ele>
        <time>2019-04-18T18:00:05Z</time>
      </trkpt>
      <trkpt lat="44.56258" lon="5.56793">
        <ele>904</ele>
        <time>2019-04-18T18:01:05Z</time>
      </trkpt>
      <trkpt lat="44.5628" lon="5.56748">
        <ele>900</ele>
        <time>2019-04-18T18:02:05Z</time>
      </trkpt>
      <trkpt lat="44.56295" lon="5.56701">
        <ele>894</ele>
        <time>2019-04-18T18:03:05Z</time>
      </trkpt>
      <trkpt lat="44.56299" lon="5.56685">
        <ele>892</ele>
        <time>2019-04-18T18:04:05Z</time>
      </trkpt>
      <trkpt lat="44.56301" lon="5.56649">
        <ele>888</ele>
        <time>2019-04-18T18:05:05Z</time>
      </trkpt>
      <trkpt lat="44.56296" lon="5.56621">
        <ele>884</ele>
        <time>2019-04-18T18:06:05Z</time>
      </trkpt>
      <trkpt lat="44.56284" lon="5.5659">
        <ele>882</ele>
        <time>2019-04-18T18:07:05Z</time>
      </trkpt>
      <trkpt lat="44.56277" lon="5.56579">
        <ele>882</ele>
        <time>2019-04-18T18:08:05Z</time>
      </trkpt>
      <trkpt lat="44.56253" lon="5.56552">
        <ele>884</ele>
        <time>2019-04-18T18:09:05Z</time>
      </trkpt>
      <trkpt lat="44.56233" lon="5.56525">
        <ele>889</ele>
        <time>2019-04-18T18:10:05Z</time>
      </trkpt>
      <trkpt lat="44.56228" lon="5.56508">
        <ele>889</ele>
        <time>2019-04-18T18:11:05Z</time>
      </trkpt>
      <trkpt lat="44.56226" lon="5.56482">
        <ele>890</ele>
        <time>2019-04-18T18:12:05Z</time>
      </trkpt>
      <trkpt lat="44.56227" lon="5.56464">
        <ele>891</ele>
        <time>2019-04-18T18:13:05Z</time>
      </trkpt>
      <trkpt lat="44.56229" lon="5.56442">
        <ele>891</ele>
        <time>2019-04-18T18:14:05Z</time>
      </trkpt>
      <trkpt lat="44.56237" lon="5.56425">
        <ele>888</ele>
        <time>2019-04-18T18:15:05Z</time>
      </trkpt>
      <trkpt lat="44.56266" lon="5.56388">
        <ele>886</ele>
        <time>2019-04-18T18:16:05Z</time>
      </trkpt>
      <trkpt lat="44.56282" lon="5.56372">
        <ele>885</ele>
        <time>2019-04-18T18:17:05Z</time>
      </trkpt>
      <trkpt lat="44.56319" lon="5.56347">
        <ele>876</ele>
        <time>2019-04-18T18:18:05Z</time>
      </trkpt>
      <trkpt lat="44.56324" lon="5.56341">
        <ele>875</ele>
        <time>2019-04-18T18:19:05Z</time>
      </trkpt>
      <trkpt lat="44.56333" lon="5.56325">
        <ele>873</ele>
        <time>2019-04-18T18:20:05Z</time>
      </trkpt>
      <trkpt lat="44.56351" lon="5.56256">
        <ele>871</ele>
        <time>2019-04-18T18:21:05Z</time>
      </trkpt>
      <trkpt lat="44.56354" lon="5.56201">
        <ele>872</ele>
        <time>2019-04-18T18:22:05Z</time>
      </trkpt>
      <trkpt lat="44.56367" lon="5.5615">
        <ele>870</ele>
        <time>2019-04-18T18:23:05Z</time>
      </trkpt>
      <trkpt lat="44.56374" lon="5.56094">
        <ele>874</ele>
        <time>2019-04-18T18:24:05Z</time>
      </trkpt>
      <trkpt lat="44.56378" lon="5.56087">
        <ele>874</ele>
        <time>2019-04-18T18:25:05Z</time>
      </trkpt>
      <trkpt lat="44.56388" lon="5.56075">
        <ele>872</ele>
        <time>2019-04-18T18:26:05Z</time>
      </trkpt>
      <trkpt lat="44.56409" lon="5.56064">
        <ele>867</ele>
        <time>2019-04-18T18:27:05Z</time>
      </trkpt>
      <trkpt lat="44.56427" lon="5.56061">
        <ele>864</ele>
        <time>2019-04-18T18:28:05Z</time>
      </trkpt>
      <trkpt lat="44.5646" lon="5.56067">
        <ele>858</ele>
        <time>2019-04-18T18:29:05Z</time>
      </trkpt>
      <trkpt lat="44.56466" lon="5.56066">
        <ele>857</ele>
        <time>2019-04-18T18:30:05Z</time>
      </trkpt>
      <trkpt lat="44.56477" lon="5.56059">
        <ele>856</ele>
        <time>2019-04-18T18:31:05Z</time>
      </trkpt>
      <trkpt lat="44.56481" lon="5.56051">
        <ele>856</ele>
        <time>2019-04-18T18:32:05Z</time>
      </trkpt>
      <trkpt lat="44.56484" lon="5.56042">
        <ele>856</ele>
        <time>2019-04-18T18:33:05Z</time>
      </trkpt>
      <trkpt lat="44.56485" lon="5.56032">
        <ele>857</ele>
        <time>2019-04-18T18:34:05Z</time>
      </trkpt>
      <trkpt lat="44.56481" lon="5.56011">
        <ele>859</ele>
        <time>2019-04-18T18:35:05Z</time>
      </trkpt>
      <trkpt lat="44.56479" lon="5.55991">
        <ele>861</ele>
        <time>2019-04-18T18:36:05Z</time>
      </trkpt>
      <trkpt lat="44.56483" lon="5.55973">
        <ele>862</ele>
        <time>2019-04-18T18:37:05Z</time>
      </trkpt>
      <trkpt lat="44.56497" lon="5.55954">
        <ele>860</ele>
        <time>2019-04-18T18:38:05Z</time>
      </trkpt>
      <trkpt lat="44.56519" lon="5.55933">
        <ele>855</ele>
        <time>2019-04-18T18:39:05Z</time>
      </trkpt>
      <trkpt lat="44.56529" lon="5.55923">
        <ele>853</ele>
        <time>2019-04-18T18:40:05Z</time>
      </trkpt>
      <trkpt lat="44.56536" lon="5.55912">
        <ele>852</ele>
        <time>2019-04-18T18:41:05Z</time>
      </trkpt>
      <trkpt lat="44.56545" lon="5.55895">
        <ele>850</ele>
        <time>2019-04-18T18:42:05Z</time>
      </trkpt>
      <trkpt lat="44.56551" lon="5.55877">
        <ele>848</ele>
        <time>2019-04-18T18:43:05Z</time>
      </trkpt>
      <trkpt lat="44.56553" lon="5.55857">
        <ele>848</ele>
        <time>2019-04-18T18:44:05Z</time>
      </trkpt>
      <trkpt lat="44.56552" lon="5.55838">
        <ele>848</ele>
        <time>2019-04-18T18:45:05Z</time>
      </trkpt>
      <trkpt lat="44.56547" lon="5.55811">
        <ele>845</ele>
        <time>2019-04-18T18:46:05Z</time>
      </trkpt>
      <trkpt lat="44.56547" lon="5.55797">
        <ele>842</ele>
        <time>2019-04-18T18:47:05Z</time>
      </trkpt>
      <trkpt lat="44.5655" lon="5.55791">
        <ele>841</ele>
        <time>2019-04-18T18:48:05Z</time>
      </trkpt>
      <trkpt lat="44.56557" lon="5.55785">
        <ele>838</ele>
        <time>2019-04-18T18:49:05Z</time>
      </trkpt>
      <trkpt lat="44.56567" lon="5.55788">
        <ele>836</ele>
        <time>2019-04-18T18:50:05Z</time>
      </trkpt>
      <trkpt lat="44.56571" lon="5.55795">
        <ele>836</ele>
        <time>2019-04-18T18:51:05Z</time>
      </trkpt>
      <trkpt lat="44.56573" lon="5.55807">
        <ele>838</ele>
        <time>2019-04-18T18:52:05Z</time>
      </trkpt>
      <trkpt lat="44.56575" lon="5.5585">
        <ele>843</ele>
        <time>2019-04-18T18:53:05Z</time>
      </trkpt>
      <trkpt lat="44.56581" lon="5.55895">
        <ele>841</ele>
        <time>2019-04-18T18:54:05Z</time>
      </trkpt>
      <trkpt lat="44.56581" lon="5.55909">
        <ele>841</ele>
        <time>2019-04-18T18:55:05Z</time>
      </trkpt>
      <trkpt lat="44.56577" lon="5.55926">
        <ele>841</ele>
        <time>2019-04-18T18:56:05Z</time>
      </trkpt>
      <trkpt lat="44.5656" lon="5.55964">
        <ele>843</ele>
        <time>2019-04-18T18:57:05Z</time>
      </trkpt>
      <trkpt lat="44.56559" lon="5.5598">
        <ele>842</ele>
        <time>2019-04-18T18:58:05Z</time>
      </trkpt>
      <trkpt lat="44.56564" lon="5.55994">
        <ele>840</ele>
        <time>2019-04-18T18:59:05Z</time>
      </trkpt>
      <trkpt lat="44.56592" lon="5.56023">
        <ele>832</ele>
        <time>2019-04-18T19:00:05Z</time>
      </trkpt>
      <trkpt lat="44.56606" lon="5.56045">
        <ele>830</ele>
        <time>2019-04-18T19:01:05Z</time>
      </trkpt>
      <trkpt lat="44.56609" lon="5.56056">
        <ele>830</ele>
        <time>2019-04-18T19:02:05Z</time>
      </trkpt>
      <trkpt lat="44.56612" lon="5.56085">
        <ele>829</ele>
        <time>2019-04-18T19:03:05Z</time>
      </trkpt>
      <trkpt lat="44.56609" lon="5.56128">
        <ele>827</ele>
        <time>2019-04-18T19:04:05Z</time>
      </trkpt>
      <trkpt lat="44.56605" lon="5.5614">
        <ele>827</ele>
        <time>2019-04-18T19:05:05Z</time>
      </trkpt>
      <trkpt lat="44.56596" lon="5.56157">
        <ele>826</ele>
        <time>2019-04-18T19:06:05Z</time>
      </trkpt>
      <trkpt lat="44.56584" lon="5.56167">
        <ele>827</ele>
        <time>2019-04-18T19:07:05Z</time>
      </trkpt>
      <trkpt lat="44.56576" lon="5.5617">
        <ele>827</ele>
        <time>2019-04-18T19:08:05Z</time>
      </trkpt>
      <trkpt lat="44.56498" lon="5.56184">
        <ele>828</ele>
        <time>2019-04-18T19:09:05Z</time>
      </trkpt>
      <trkpt lat="44.56486" lon="5.56194">
        <ele>829</ele>
        <time>2019-04-18T19:10:05Z</time>
      </trkpt>
      <trkpt lat="44.5648" lon="5.56206">
        <ele>829</ele>
        <time>2019-04-18T19:11:05Z</time>
      </trkpt>
      <trkpt lat="44.56477" lon="5.56215">
        <ele>828</ele>
        <time>2019-04-18T19:12:05Z</time>
      </trkpt>
      <trkpt lat="44.56473" lon="5.56234">
        <ele>826</ele>
        <time>2019-04-18T19:13:05Z</time>
      </trkpt>
      <trkpt lat="44.56473" lon="5.56252">
        <ele>824</ele>
        <time>2019-04-18T19:14:05Z</time>
      </trkpt>
      <trkpt lat="44.56479" lon="5.5633">
        <ele>819</ele>
        <time>2019-04-18T19:15:05Z</time>
      </trkpt>
      <trkpt lat="44.5648" lon="5.56369">
        <ele>817</ele>
        <time>2019-04-18T19:16:05Z</time>
      </trkpt>
      <trkpt lat="44.56478" lon="5.56435">
        <ele>813</ele>
        <time>2019-04-18T19:17:05Z</time>
      </trkpt>
      <trkpt lat="44.56475" lon="5.56462">
        <ele>812</ele>
        <time>2019-04-18T19:18:05Z</time>
      </trkpt>
      <trkpt lat="44.56466" lon="5.56511">
        <ele>813</ele>
        <time>2019-04-18T19:19:05Z</time>
      </trkpt>
      <trkpt lat="44.56468" lon="5.56527">
        <ele>814</ele>
        <time>2019-04-18T19:20:05Z</time>
      </trkpt>
      <trkpt lat="44.56474" lon="5.56538">
        <ele>813</ele>
        <time>2019-04-18T19:21:05Z</time>
      </trkpt>
      <trkpt lat="44.56493" lon="5.56555">
        <ele>809</ele>
        <time>2019-04-18T19:22:05Z</time>
      </trkpt>
      <trkpt lat="44.56511" lon="5.56577">
        <ele>805</ele>
        <time>2019-04-18T19:23:05Z</time>
      </trkpt>
      <trkpt lat="44.56518" lon="5.56591">
        <ele>804</ele>
        <time>2019-04-18T19:24:05Z</time>
      </trkpt>
      <trkpt lat="44.56525" lon="5.56606">
        <ele>804</ele>
        <time>2019-04-18T19:25:05Z</time>
      </trkpt>
      <trkpt lat="44.56541" lon="5.56657">
        <ele>802</ele>
        <time>2019-04-18T19:26:05Z</time>
      </trkpt>
      <trkpt lat="44.56554" lon="5.56787">
        <ele>797</ele>
        <time>2019-04-18T19:27:05Z</time>
      </trkpt>
      <trkpt lat="44.56555" lon="5.5682">
        <ele>795</ele>
        <time>2019-04-18T19:28:05Z</time>
      </trkpt>
      <trkpt lat="44.5654" lon="5.56902">
        <ele>795</ele>
        <time>2019-04-18T19:29:05Z</time>
      </trkpt>
      <trkpt lat="44.56537" lon="5.56929">
        <ele>794</ele>
        <time>2019-04-18T19:30:05Z</time>
      </trkpt>
      <trkpt lat="44.56535" lon="5.5694">
        <ele>794</ele>
        <time>2019-04-18T19:31:05Z</time>
      </trkpt>
      <trkpt lat="44.5652" lon="5.56976">
        <ele>795</ele>
        <time>2019-04-18T19:32:05Z</time>
      </trkpt>
      <trkpt lat="44.56519" lon="5.56982">
        <ele>795</ele>
        <time>2019-04-18T19:33:05Z</time>
      </trkpt>
      <trkpt lat="44.5652" lon="5.56994">
        <ele>794</ele>
        <time>2019-04-18T19:34:05Z</time>
      </trkpt>
      <trkpt lat="44.56527" lon="5.57002">
        <ele>792</ele>
        <time>2019-04-18T19:35:05Z</time>
      </trkpt>
      <trkpt lat="44.5653" lon="5.57004">
        <ele>791</ele>
        <time>2019-04-18T19:36:05Z</time>
      </trkpt>
      <trkpt lat="44.5654" lon="5.57">
        <ele>789</ele>
        <time>2019-04-18T19:37:05Z</time>
      </trkpt>
      <trkpt lat="44.56544" lon="5.56993">
        <ele>788</ele>
        <time>2019-04-18T19:38:05Z</time>
      </trkpt>
      <trkpt lat="44.56546" lon="5.56984">
        <ele>788</ele>
        <time>2019-04-18T19:39:05Z</time>
      </trkpt>
      <trkpt lat="44.56553" lon="5.56937">
        <ele>789</ele>
        <time>2019-04-18T19:40:05Z</time>
      </trkpt>
      <trkpt lat="44.56558" lon="5.56915">
        <ele>788</ele>
        <time>2019-04-18T19:41:05Z</time>
      </trkpt>
      <trkpt lat="44.56567" lon="5.5689">
        <ele>787</ele>
        <time>2019-04-18T19:42:05Z</time>
      </trkpt>
      <trkpt lat="44.56597" lon="5.56829">
        <ele>783</ele>
        <time>2019-04-18T19:43:05Z</time>
      </trkpt>
      <trkpt lat="44.56614" lon="5.5678">
        <ele>780</ele>
        <time>2019-04-18T19:44:05Z</time>
      </trkpt>
      <trkpt lat="44.56636" lon="5.56736">
        <ele>776</ele>
        <time>2019-04-18T19:45:05Z</time>
      </trkpt>
      <trkpt lat="44.56667" lon="5.56632">
        <ele>772</ele>
        <time>2019-04-18T19:46:05Z</time>
      </trkpt>
      <trkpt lat="44.56684" lon="5.56591">
        <ele>770</ele>
        <time>2019-04-18T19:47:05Z</time>
      </trkpt>
      <trkpt lat="44.56719" lon="5.56499">
        <ele>764</ele>
        <time>2019-04-18T19:48:05Z</time>
      </trkpt>
      <trkpt lat="44.56735" lon="5.56475">
        <ele>763</ele>
        <time>2019-04-18T19:49:05Z</time>
      </trkpt>
      <trkpt lat="44.56744" lon="5.56466">
        <ele>763</ele>
        <time>2019-04-18T19:50:05Z</time>
      </trkpt>
      <trkpt lat="44.56793" lon="5.56431">
        <ele>760</ele>
        <time>2019-04-18T19:51:05Z</time>
      </trkpt>
      <trkpt lat="44.56876" lon="5.56355">
        <ele>759</ele>
        <time>2019-04-18T19:52:05Z</time>
      </trkpt>
      <trkpt lat="44.5689" lon="5.5634">
        <ele>758</ele>
        <time>2019-04-18T19:53:05Z</time>
      </trkpt>
      <trkpt lat="44.56907" lon="5.56318">
        <ele>756</ele>
        <time>2019-04-18T19:54:05Z</time>
      </trkpt>
      <trkpt lat="44.56934" lon="5.56277">
        <ele>757</ele>
        <time>2019-04-18T19:55:05Z</time>
      </trkpt>
      <trkpt lat="44.5695" lon="5.56265">
        <ele>757</ele>
        <time>2019-04-18T19:56:05Z</time>
      </trkpt>
      <trkpt lat="44.56965" lon="5.56265">
        <ele>757</ele>
        <time>2019-04-18T19:57:05Z</time>
      </trkpt>
      <trkpt lat="44.56976" lon="5.56264">
        <ele>756</ele>
        <time>2019-04-18T19:58:05Z</time>
      </trkpt>
      <trkpt lat="44.56984" lon="5.56257">
        <ele>756</ele>
        <time>2019-04-18T19:59:05Z</time>
      </trkpt>
      <trkpt lat="44.56992" lon="5.5624">
        <ele>755</ele>
        <time>2019-04-18T20:00:05Z</time>
      </trkpt>
      <trkpt lat="44.57031" lon="5.5605">
        <ele>748</ele>
        <time>2019-04-18T20:01:05Z</time>
      </trkpt>
      <trkpt lat="44.57035" lon="5.56009">
        <ele>745</ele>
        <time>2019-04-18T20:02:05Z</time>
      </trkpt>
      <trkpt lat="44.57036" lon="5.55986">
        <ele>744</ele>
        <time>2019-04-18T20:03:05Z</time>
      </trkpt>
      <trkpt lat="44.57033" lon="5.55896">
        <ele>740</ele>
        <time>2019-04-18T20:04:05Z</time>
      </trkpt>
      <trkpt lat="44.57031" lon="5.55762">
        <ele>741</ele>
        <time>2019-04-18T20:05:05Z</time>
      </trkpt>
      <trkpt lat="44.57029" lon="5.55745">
        <ele>741</ele>
        <time>2019-04-18T20:06:05Z</time>
      </trkpt>
      <trkpt lat="44.57021" lon="5.55716">
        <ele>742</ele>
        <time>2019-04-18T20:07:05Z</time>
      </trkpt>
      <trkpt lat="44.57013" lon="5.557">
        <ele>742</ele>
        <time>2019-04-18T20:08:05Z</time>
      </trkpt>
      <trkpt lat="44.56988" lon="5.55663">
        <ele>740</ele>
        <time>2019-04-18T20:09:05Z</time>
      </trkpt>
      <trkpt lat="44.56964" lon="5.55605">
        <ele>740</ele>
        <time>2019-04-18T20:10:05Z</time>
      </trkpt>
      <trkpt lat="44.56683" lon="5.54752">
        <ele>726</ele>
        <time>2019-04-18T20:11:05Z</time>
      </trkpt>
      <trkpt lat="44.56673" lon="5.54733">
        <ele>726</ele>
        <time>2019-04-18T20:12:05Z</time>
      </trkpt>
      <trkpt lat="44.56652" lon="5.54702">
        <ele>727</ele>
        <time>2019-04-18T20:13:05Z</time>
      </trkpt>
      <trkpt lat="44.56349" lon="5.54296">
        <ele>719</ele>
        <time>2019-04-18T20:14:05Z</time>
      </trkpt>
      <trkpt lat="44.56333" lon="5.54279">
        <ele>722</ele>
        <time>2019-04-18T20:15:05Z</time>
      </trkpt>
      <trkpt lat="44.56311" lon="5.54266">
        <ele>722</ele>
        <time>2019-04-18T20:16:05Z</time>
      </trkpt>
      <trkpt lat="44.5626" lon="5.54251">
        <ele>719</ele>
        <time>2019-04-18T20:17:05Z</time>
      </trkpt>
      <trkpt lat="44.56239" lon="5.54248">
        <ele>717</ele>
        <time>2019-04-18T20:18:05Z</time>
      </trkpt>
      <trkpt lat="44.56205" lon="5.54247">
        <ele>714</ele>
        <time>2019-04-18T20:19:05Z</time>
      </trkpt>
      <trkpt lat="44.5618" lon="5.54249">
        <ele>711</ele>
        <time>2019-04-18T20:20:05Z</time>
      </trkpt>
      <trkpt lat="44.56155" lon="5.54247">
        <ele>709</ele>
        <time>2019-04-18T20:21:05Z</time>
      </trkpt>
      <trkpt lat="44.5593" lon="5.5411">
        <ele>706</ele>
        <time>2019-04-18T20:22:05Z</time>
      </trkpt>
      <trkpt lat="44.55917" lon="5.54105">
        <ele>706</ele>
        <time>2019-04-18T20:23:05Z</time>
      </trkpt>
      <trkpt lat="44.55901" lon="5.54101">
        <ele>706</ele>
        <time>2019-04-18T20:24:05Z</time>
      </trkpt>
      <trkpt lat="44.5587" lon="5.54105">
        <ele>706</ele>
        <time>2019-04-18T20:25:05Z</time>
      </trkpt>
      <trkpt lat="44.55853" lon="5.54112">
        <ele>706</ele>
        <time>2019-04-18T20:26:05Z</time>
      </trkpt>
      <trkpt lat="44.55723" lon="5.54198">
        <ele>703</ele>
        <time>2019-04-18T20:27:05Z</time>
      </trkpt>
      <trkpt lat="44.55695" lon="5.54207">
        <ele>704</ele>
        <time>2019-04-18T20:28:05Z</time>
      </trkpt>
      <trkpt lat="44.55682" lon="5.54207">
        <ele>705</ele>
        <time>2019-04-18T20:29:05Z</time>
      </trkpt>
      <trkpt lat="44.55666" lon="5.54201">
        <ele>706</ele>
        <time>2019-04-18T20:30:05Z</time>
      </trkpt>
      <trkpt lat="44.55644" lon="5.54186">
        <ele>705</ele>
        <time>2019-04-18T20:31:05Z</time>
      </trkpt>
      <trkpt lat="44.55388" lon="5.53961">
        <ele>700</ele>
        <time>2019-04-18T20:32:05Z</time>
      </trkpt>
      <trkpt lat="44.55336" lon="5.53916">
        <ele>699</ele>
        <time>2019-04-18T20:33:05Z</time>
      </trkpt>
      <trkpt lat="44.55312" lon="5.53898">
        <ele>703</ele>
        <time>2019-04-18T20:34:05Z</time>
      </trkpt>
      <trkpt lat="44.55283" lon="5.53882">
        <ele>703</ele>
        <time>2019-04-18T20:35:05Z</time>
      </trkpt>
      <trkpt lat="44.54986" lon="5.53739">
        <ele>689</ele>
        <time>2019-04-18T20:36:05Z</time>
      </trkpt>
      <trkpt lat="44.54973" lon="5.53728">
        <ele>689</ele>
        <time>2019-04-18T20:37:05Z</time>
      </trkpt>
      <trkpt lat="44.54963" lon="5.53715">
        <ele>688</ele>
        <time>2019-04-18T20:38:05Z</time>
      </trkpt>
      <trkpt lat="44.54958" lon="5.53702">
        <ele>688</ele>
        <time>2019-04-18T20:39:05Z</time>
      </trkpt>
      <trkpt lat="44.54953" lon="5.53677">
        <ele>688</ele>
        <time>2019-04-18T20:40:05Z</time>
      </trkpt>
      <trkpt lat="44.54952" lon="5.53663">
        <ele>688</ele>
        <time>2019-04-18T20:41:05Z</time>
      </trkpt>
      <trkpt lat="44.54954" lon="5.53648">
        <ele>688</ele>
        <time>2019-04-18T20:42:05Z</time>
      </trkpt>
      <trkpt lat="44.5496" lon="5.53625">
        <ele>688</ele>
        <time>2019-04-18T20:43:05Z</time>
      </trkpt>
      <trkpt lat="44.55076" lon="5.53458">
        <ele>688</ele>
        <time>2019-04-18T20:44:05Z</time>
      </trkpt>
      <trkpt lat="44.55102" lon="5.53416">
        <ele>687</ele>
        <time>2019-04-18T20:45:05Z</time>
      </trkpt>
      <trkpt lat="44.55142" lon="5.5334">
        <ele>691</ele>
        <time>2019-04-18T20:46:05Z</time>
      </trkpt>
      <trkpt lat="44.55163" lon="5.53292">
        <ele>686</ele>
        <time>2019-04-18T20:47:05Z</time>
      </trkpt>
      <trkpt lat="44.55222" lon="5.5312">
        <ele>689</ele>
        <time>2019-04-18T20:48:05Z</time>
      </trkpt>
      <trkpt lat="44.55242" lon="5.53051">
        <ele>687</ele>
        <time>2019-04-18T20:49:05Z</time>
      </trkpt>
      <trkpt lat="44.55249" lon="5.52999">
        <ele>686</ele>
        <time>2019-04-18T20:50:05Z</time>
      </trkpt>
      <trkpt lat="44.55254" lon="5.52896">
        <ele>684</ele>
        <time>2019-04-18T20:51:05Z</time>
      </trkpt>
      <trkpt lat="44.55253" lon="5.52709">
        <ele>681</ele>
        <time>2019-04-18T20:52:05Z</time>
      </trkpt>
      <trkpt lat="44.55257" lon="5.52643">
        <ele>679</ele>
        <time>2019-04-18T20:53:05Z</time>
      </trkpt>
      <trkpt lat="44.55265" lon="5.52603">
        <ele>679</ele>
        <time>2019-04-18T20:54:05Z</time>
      </trkpt>
      <trkpt lat="44.55285" lon="5.52551">
        <ele>678</ele>
        <time>2019-04-18T20:55:05Z</time>
      </trkpt>
      <trkpt lat="44.55315" lon="5.5251">
        <ele>676</ele>
        <time>2019-04-18T20:56:05Z</time>
      </trkpt>
      <trkpt lat="44.55352" lon="5.52478">
        <ele>676</ele>
        <time>2019-04-18T20:57:05Z</time>
      </trkpt>
      <trkpt lat="44.55477" lon="5.52381">
        <ele>674</ele>
        <time>2019-04-18T20:58:05Z</time>
      </trkpt>
      <trkpt lat="44.55594" lon="5.52283">
        <ele>672</ele>
        <time>2019-04-18T20:59:05Z</time>
      </trkpt>
      <trkpt lat="44.56225" lon="5.51499">
        <ele>658</ele>
        <time>2019-04-18T21:00:05Z</time>
      </trkpt>
      <trkpt lat="44.56294" lon="5.51396">
        <ele>657</ele>
        <time>2019-04-18T21:01:05Z</time>
      </trkpt>
      <trkpt lat="44.56496" lon="5.51056">
        <ele>654</ele>
        <time>2019-04-18T21:02:05Z</time>
      </trkpt>
      <trkpt lat="44.56661" lon="5.50767">
        <ele>654</ele>
        <time>2019-04-18T21:03:05Z</time>
      </trkpt>
      <trkpt lat="44.56708" lon="5.50652">
        <ele>654</ele>
        <time>2019-04-18T21:04:05Z</time>
      </trkpt>
      <trkpt lat="44.56723" lon="5.5061">
        <ele>653</ele>
        <time>2019-04-18T21:05:05Z</time>
      </trkpt>
      <trkpt lat="44.56734" lon="5.50573">
        <ele>652</ele>
        <time>2019-04-18T21:06:05Z</time>
      </trkpt>
      <trkpt lat="44.56751" lon="5.50495">
        <ele>652</ele>
        <time>2019-04-18T21:07:05Z</time>
      </trkpt>
      <trkpt lat="44.56762" lon="5.50432">
        <ele>657</ele>
        <time>2019-04-18T21:08:05Z</time>
      </trkpt>
      <trkpt lat="44.56776" lon="5.50358">
        <ele>656</ele>
        <time>2019-04-18T21:09:05Z</time>
      </trkpt>
      <trkpt lat="44.56782" lon="5.5034">
        <ele>656</ele>
        <time>2019-04-18T21:10:05Z</time>
      </trkpt>
      <trkpt lat="44.56794" lon="5.50315">
        <ele>655</ele>
        <time>2019-04-18T21:11:05Z</time>
      </trkpt>
      <trkpt lat="44.56799" lon="5.50308">
        <ele>654</ele>
        <time>2019-04-18T21:12:05Z</time>
      </trkpt>
      <trkpt lat="44.56806" lon="5.50301">
        <ele>654</ele>
        <time>2019-04-18T21:13:05Z</time>
      </trkpt>
      <trkpt lat="44.56822" lon="5.50291">
        <ele>654</ele>
        <time>2019-04-18T21:14:05Z</time>
      </trkpt>
      <trkpt lat="44.56838" lon="5.50287">
        <ele>654</ele>
        <time>2019-04-18T21:15:05Z</time>
      </trkpt>
      <trkpt lat="44.5699" lon="5.50268">
        <ele>649</ele>
        <time>2019-04-18T21:16:05Z</time>
      </trkpt>
      <trkpt lat="44.57027" lon="5.50262">
        <ele>648</ele>
        <time>2019-04-18T21:17:05Z</time>
      </trkpt>
      <trkpt lat="44.5707" lon="5.50249">
        <ele>646</ele>
        <time>2019-04-18T21:18:05Z</time>
      </trkpt>
      <trkpt lat="44.57133" lon="5.50218">
        <ele>646</ele>
        <time>2019-04-18T21:19:05Z</time>
      </trkpt>
      <trkpt lat="44.57213" lon="5.50162">
        <ele>646</ele>
        <time>2019-04-18T21:20:05Z</time>
      </trkpt>
      <trkpt lat="44.57278" lon="5.50096">
        <ele>646</ele>
        <time>2019-04-18T21:21:05Z</time>
      </trkpt>
      <trkpt lat="44.5732" lon="5.50044">
        <ele>645</ele>
        <time>2019-04-18T21:22:05Z</time>
      </trkpt>
      <trkpt lat="44.57367" lon="5.49952">
        <ele>644</ele>
        <time>2019-04-18T21:23:05Z</time>
      </trkpt>
      <trkpt lat="44.57761" lon="5.48939">
        <ele>644</ele>
        <time>2019-04-18T21:24:05Z</time>
      </trkpt>
      <trkpt lat="44.57887" lon="5.48606">
        <ele>644</ele>
        <time>2019-04-18T21:25:05Z</time>
      </trkpt>
      <trkpt lat="44.57933" lon="5.48497">
        <ele>646</ele>
        <time>2019-04-18T21:26:05Z</time>
      </trkpt>
      <trkpt lat="44.57963" lon="5.48448">
        <ele>646</ele>
        <time>2019-04-18T21:27:05Z</time>
      </trkpt>
      <trkpt lat="44.57992" lon="5.48407">
        <ele>644</ele>
        <time>2019-04-18T21:28:05Z</time>
      </trkpt>
      <trkpt lat="44.58055" lon="5.48338">
        <ele>642</ele>
        <time>2019-04-18T21:29:05Z</time>
      </trkpt>
      <trkpt lat="44.58159" lon="5.48244">
        <ele>638</ele>
        <time>2019-04-18T21:30:05Z</time>
      </trkpt>
      <trkpt lat="44.58212" lon="5.48203">
        <ele>639</ele>
        <time>2019-04-18T21:31:05Z</time>
      </trkpt>
      <trkpt lat="44.58313" lon="5.48154">
        <ele>638</ele>
        <time>2019-04-18T21:32:05Z</time>
      </trkpt>
      <trkpt lat="44.58362" lon="5.48123">
        <ele>638</ele>
        <time>2019-04-18T21:33:05Z</time>
      </trkpt>
      <trkpt lat="44.59048" lon="5.47568">
        <ele>635</ele>
        <time>2019-04-18T21:34:05Z</time>
      </trkpt>
      <trkpt lat="44.59337" lon="5.47313">
        <ele>634</ele>
        <time>2019-04-18T21:35:05Z</time>
      </trkpt>
      <trkpt lat="44.59392" lon="5.47262">
        <ele>633</ele>
        <time>2019-04-18T21:36:05Z</time>
      </trkpt>
      <trkpt lat="44.59468" lon="5.47168">
        <ele>636</ele>
        <time>2019-04-18T21:37:05Z</time>
      </trkpt>
      <trkpt lat="44.59532" lon="5.47133">
        <ele>636</ele>
        <time>2019-04-18T21:38:05Z</time>
      </trkpt>
      <trkpt lat="44.59557" lon="5.47116">
        <ele>635</ele>
        <time>2019-04-18T21:39:05Z</time>
      </trkpt>
      <trkpt lat="44.59853" lon="5.46853">
        <ele>633</ele>
        <time>2019-04-18T21:40:05Z</time>
      </trkpt>
      <trkpt lat="44.60193" lon="5.46548">
        <ele>638</ele>
        <time>2019-04-18T21:41:05Z</time>
      </trkpt>
      <trkpt lat="44.60226" lon="5.46514">
        <ele>641</ele>
        <time>2019-04-18T21:42:05Z</time>
      </trkpt>
      <trkpt lat="44.60254" lon="5.4648">
        <ele>644</ele>
        <time>2019-04-18T21:43:05Z</time>
      </trkpt>
      <trkpt lat="44.60265" lon="5.46461">
        <ele>647</ele>
        <time>2019-04-18T21:44:05Z</time>
      </trkpt>
      <trkpt lat="44.60276" lon="5.46434">
        <ele>648</ele>
        <time>2019-04-18T21:45:05Z</time>
      </trkpt>
      <trkpt lat="44.60281" lon="5.46412">
        <ele>647</ele>
        <time>2019-04-18T21:46:05Z</time>
      </trkpt>
      <trkpt lat="44.60285" lon="5.46383">
        <ele>647</ele>
        <time>2019-04-18T21:47:05Z</time>
      </trkpt>
      <trkpt lat="44.60286" lon="5.46351">
        <ele>646</ele>
        <time>2019-04-18T21:48:05Z</time>
      </trkpt>
      <trkpt lat="44.60278" lon="5.46318">
        <ele>644</ele>
        <time>2019-04-18T21:49:05Z</time>
      </trkpt>
      <trkpt lat="44.60263" lon="5.46284">
        <ele>644</ele>
        <time>2019-04-18T21:50:05Z</time>
      </trkpt>
      <trkpt lat="44.60249" lon="5.46266">
        <ele>642</ele>
        <time>2019-04-18T21:51:05Z</time>
      </trkpt>
      <trkpt lat="44.60229" lon="5.46248">
        <ele>643</ele>
        <time>2019-04-18T21:52:05Z</time>
      </trkpt>
      <trkpt lat="44.60206" lon="5.46236">
        <ele>644</ele>
        <time>2019-04-18T21:53:05Z</time>
      </trkpt>
      <trkpt lat="44.60154" lon="5.4622">
        <ele>637</ele>
        <time>2019-04-18T21:54:05Z</time>
      </trkpt>
      <trkpt lat="44.60143" lon="5.46218">
        <ele>634</ele>
        <time>2019-04-18T21:55:05Z</time>
      </trkpt>
      <trkpt lat="44.6013" lon="5.46221">
        <ele>631</ele>
        <time>2019-04-18T21:56:05Z</time>
      </trkpt>
      <trkpt lat="44.60082" lon="5.46256">
        <ele>627</ele>
        <time>2019-04-18T21:57:05Z</time>
      </trkpt>
      <trkpt lat="44.60062" lon="5.46273">
        <ele>627</ele>
        <time>2019-04-18T21:58:05Z</time>
      </trkpt>
      <trkpt lat="44.60042" lon="5.46301">
        <ele>630</ele>
        <time>2019-04-18T21:59:05Z</time>
      </trkpt>
      <trkpt lat="44.59996" lon="5.46338">
        <ele>629</ele>
        <time>2019-04-18T22:00:05Z</time>
      </trkpt>
      <trkpt lat="44.59962" lon="5.46351">
        <ele>631</ele>
        <time>2019-04-18T22:01:05Z</time>
      </trkpt>
      <trkpt lat="44.59925" lon="5.46355">
        <ele>630</ele>
        <time>2019-04-18T22:02:05Z</time>
      </trkpt>
      <trkpt lat="44.59902" lon="5.46346">
        <ele>629</ele>
        <time>2019-04-18T22:03:05Z</time>
      </trkpt>
      <trkpt lat="44.59877" lon="5.46327">
        <ele>628</ele>
        <time>2019-04-18T22:04:05Z</time>
      </trkpt>
      <trkpt lat="44.59837" lon="5.46286">
        <ele>627</ele>
        <time>2019-04-18T22:05:05Z</time>
      </trkpt>
      <trkpt lat="44.59812" lon="5.46234">
        <ele>625</ele>
        <time>2019-04-18T22:06:05Z</time>
      </trkpt>
      <trkpt lat="44.59795" lon="5.46187">
        <ele>626</ele>
        <time>2019-04-18T22:07:05Z</time>
      </trkpt>
      <trkpt lat="44.5979" lon="5.46146">
        <ele>625</ele>
        <time>2019-04-18T22:08:05Z</time>
      </trkpt>
      <trkpt lat="44.59788" lon="5.46097">
        <ele>623</ele>
        <time>2019-04-18T22:09:05Z</time>
      </trkpt>
      <trkpt lat="44.59794" lon="5.45991">
        <ele>620</ele>
        <time>2019-04-18T22:10:05Z</time>
      </trkpt>
      <trkpt lat="44.598" lon="5.45956">
        <ele>617</ele>
        <time>2019-04-18T22:11:05Z</time>
      </trkpt>
      <trkpt lat="44.59811" lon="5.45934">
        <ele>612</ele>
        <time>2019-04-18T22:12:05Z</time>
      </trkpt>
      <trkpt lat="44.59823" lon="5.45916">
        <ele>608</ele>
        <time>2019-04-18T22:13:05Z</time>
      </trkpt>
      <trkpt lat="44.5985" lon="5.459">
        <ele>605</ele>
        <time>2019-04-18T22:14:05Z</time>
      </trkpt>
      <trkpt lat="44.59877" lon="5.45896">
        <ele>607</ele>
        <time>2019-04-18T22:15:05Z</time>
      </trkpt>
      <trkpt lat="44.59903" lon="5.45896">
        <ele>609</ele>
        <time>2019-04-18T22:16:05Z</time>
      </trkpt>
      <trkpt lat="44.59929" lon="5.45902">
        <ele>608</ele>
        <time>2019-04-18T22:17:05Z</time>
      </trkpt>
      <trkpt lat="44.59965" lon="5.459">
        <ele>609</ele>
        <time>2019-04-18T22:18:05Z</time>
      </trkpt>
      <trkpt lat="44.59992" lon="5.4589">
        <ele>612</ele>
        <time>2019-04-18T22:19:05Z</time>
      </trkpt>
      <trkpt lat="44.60026" lon="5.45862">
        <ele>615</ele>
        <time>2019-04-18T22:20:05Z</time>
      </trkpt>
      <trkpt lat="44.60066" lon="5.45842">
        <ele>613</ele>
        <time>2019-04-18T22:21:05Z</time>
      </trkpt>
      <trkpt lat="44.60091" lon="5.45838">
        <ele>610</ele>
        <time>2019-04-18T22:22:05Z</time>
      </trkpt>
      <trkpt lat="44.60113" lon="5.45843">
        <ele>607</ele>
        <time>2019-04-18T22:23:05Z</time>
      </trkpt>
      <trkpt lat="44.60126" lon="5.45854">
        <ele>604</ele>
        <time>2019-04-18T22:24:05Z</time>
      </trkpt>
      <trkpt lat="44.60156" lon="5.45892">
        <ele>599</ele>
        <time>2019-04-18T22:25:05Z</time>
      </trkpt>
      <trkpt lat="44.6017" lon="5.45898">
        <ele>599</ele>
        <time>2019-04-18T22:26:05Z</time>
      </trkpt>
      <trkpt lat="44.6019" lon="5.45896">
        <ele>603</ele>
        <time>2019-04-18T22:27:05Z</time>
      </trkpt>
      <trkpt lat="44.60231" lon="5.45868">
        <ele>606</ele>
        <time>2019-04-18T22:28:05Z</time>
      </trkpt>
      <trkpt lat="44.6024" lon="5.4586">
        <ele>605</ele>
        <time>2019-04-18T22:29:05Z</time>
      </trkpt>
      <trkpt lat="44.60246" lon="5.4585">
        <ele>603</ele>
        <time>2019-04-18T22:30:05Z</time>
      </trkpt>
      <trkpt lat="44.60251" lon="5.45833">
        <ele>599</ele>
        <time>2019-04-18T22:31:05Z</time>
      </trkpt>
      <trkpt lat="44.60257" lon="5.45822">
        <ele>598</ele>
        <time>2019-04-18T22:32:05Z</time>
      </trkpt>
      <trkpt lat="44.60266" lon="5.45811">
        <ele>598</ele>
        <time>2019-04-18T22:33:05Z</time>
      </trkpt>
      <trkpt lat="44.60298" lon="5.45794">
        <ele>598</ele>
        <time>2019-04-18T22:34:05Z</time>
      </trkpt>
      <trkpt lat="44.60322" lon="5.45769">
        <ele>593</ele>
        <time>2019-04-18T22:35:05Z</time>
      </trkpt>
      <trkpt lat="44.60382" lon="5.45698">
        <ele>595</ele>
        <time>2019-04-18T22:36:05Z</time>
      </trkpt>
      <trkpt lat="44.6048" lon="5.45574">
        <ele>581</ele>
        <time>2019-04-18T22:37:05Z</time>
      </trkpt>
      <trkpt lat="44.60512" lon="5.45543">
        <ele>578</ele>
        <time>2019-04-18T22:38:05Z</time>
      </trkpt>
      <trkpt lat="44.60577" lon="5.45511">
        <ele>580</ele>
        <time>2019-04-18T22:39:05Z</time>
      </trkpt>
      <trkpt lat="44.60623" lon="5.45493">
        <ele>581</ele>
        <time>2019-04-18T22:40:05Z</time>
      </trkpt>
      <trkpt lat="44.6064" lon="5.45479">
        <ele>579</ele>
        <time>2019-04-18T22:41:05Z</time>
      </trkpt>
      <trkpt lat="44.60703" lon="5.4541">
        <ele>570</ele>
        <time>2019-04-18T22:42:05Z</time>
      </trkpt>
      <trkpt lat="44.60745" lon="5.45381">
        <ele>569</ele>
        <time>2019-04-18T22:43:05Z</time>
      </trkpt>
      <trkpt lat="44.60794" lon="5.45364">
        <ele>569</ele>
        <time>2019-04-18T22:44:05Z</time>
      </trkpt>
      <trkpt lat="44.60822" lon="5.45365">
        <ele>571</ele>
        <time>2019-04-18T22:45:05Z</time>
      </trkpt>
      <trkpt lat="44.60856" lon="5.45379">
        <ele>576</ele>
        <time>2019-04-18T22:46:05Z</time>
      </trkpt>
      <trkpt lat="44.60893" lon="5.45374">
        <ele>575</ele>
        <time>2019-04-18T22:47:05Z</time>
      </trkpt>
      <trkpt lat="44.60944" lon="5.45344">
        <ele>570</ele>
        <time>2019-04-18T22:48:05Z</time>
      </trkpt>
      <trkpt lat="44.60964" lon="5.45319">
        <ele>567</ele>
        <time>2019-04-18T22:49:05Z</time>
      </trkpt>
      <trkpt lat="44.60978" lon="5.45284">
        <ele>563</ele>
        <time>2019-04-18T22:50:05Z</time>
      </trkpt>
      <trkpt lat="44.60996" lon="5.45245">
        <ele>559</ele>
        <time>2019-04-18T22:51:05Z</time>
      </trkpt>
      <trkpt lat="44.61014" lon="5.45229">
        <ele>559</ele>
        <time>2019-04-18T22:52:05Z</time>
      </trkpt>
      <trkpt lat="44.61042" lon="5.45218">
        <ele>559</ele>
        <time>2019-04-18T22:53:05Z</time>
      </trkpt>
      <trkpt lat="44.61068" lon="5.45222">
        <ele>561</ele>
        <time>2019-04-18T22:54:05Z</time>
      </trkpt>
      <trkpt lat="44.61111" lon="5.45239">
        <ele>563</ele>
        <time>2019-04-18T22:55:05Z</time>
      </trkpt>
      <trkpt lat="44.61137" lon="5.45257">
        <ele>564</ele>
        <time>2019-04-18T22:56:05Z</time>
      </trkpt>
      <trkpt lat="44.61172" lon="5.45274">
        <ele>565</ele>
        <time>2019-04-18T22:57:05Z</time>
      </trkpt>
      <trkpt lat="44.61248" lon="5.45297">
        <ele>565</ele>
        <time>2019-04-18T22:58:05Z</time>
      </trkpt>
      <trkpt lat="44.61271" lon="5.45301">
        <ele>565</ele>
        <time>2019-04-18T22:59:05Z</time>
      </trkpt>
      <trkpt lat="44.61314" lon="5.45303">
        <ele>565</ele>
        <time>2019-04-18T23:00:05Z</time>
      </trkpt>
      <trkpt lat="44.61418" lon="5.45287">
        <ele>568</ele>
        <time>2019-04-18T23:01:05Z</time>
      </trkpt>
      <trkpt lat="44.61443" lon="5.45281">
        <ele>568</ele>
        <time>2019-04-18T23:02:05Z</time>
      </trkpt>
      <trkpt lat="44.61499" lon="5.45259">
        <ele>568</ele>
        <time>2019-04-18T23:03:05Z</time>
      </trkpt>
      <trkpt lat="44.61512" lon="5.45245">
        <ele>568</ele>
        <time>2019-04-18T23:04:05Z</time>
      </trkpt>
      <trkpt lat="44.61586" lon="5.45152">
        <ele>563</ele>
        <time>2019-04-18T23:05:05Z</time>
      </trkpt>
      <trkpt lat="44.61597" lon="5.45138">
        <ele>563</ele>
        <time>2019-04-18T23:06:05Z</time>
      </trkpt>
      <trkpt lat="44.6162" lon="5.45095">
        <ele>562</ele>
        <time>2019-04-18T23:07:05Z</time>
      </trkpt>
      <trkpt lat="44.61681" lon="5.44953">
        <ele>557</ele>
        <time>2019-04-18T23:08:05Z</time>
      </trkpt>
      <trkpt lat="44.61688" lon="5.44935">
        <ele>556</ele>
        <time>2019-04-18T23:09:05Z</time>
      </trkpt>
      <trkpt lat="44.61857" lon="5.44527">
        <ele>543</ele>
        <time>2019-04-18T23:10:05Z</time>
      </trkpt>
      <trkpt lat="44.61868" lon="5.44496">
        <ele>542</ele>
        <time>2019-04-18T23:11:05Z</time>
      </trkpt>
      <trkpt lat="44.61875" lon="5.44463">
        <ele>542</ele>
        <time>2019-04-18T23:12:05Z</time>
      </trkpt>
      <trkpt lat="44.61881" lon="5.44409">
        <ele>542</ele>
        <time>2019-04-18T23:13:05Z</time>
      </trkpt>
      <trkpt lat="44.61891" lon="5.44373">
        <ele>543</ele>
        <time>2019-04-18T23:14:05Z</time>
      </trkpt>
      <trkpt lat="44.61914" lon="5.44333">
        <ele>544</ele>
        <time>2019-04-18T23:15:05Z</time>
      </trkpt>
      <trkpt lat="44.62044" lon="5.44201">
        <ele>542</ele>
        <time>2019-04-18T23:16:05Z</time>
      </trkpt>
      <trkpt lat="44.62278" lon="5.43945">
        <ele>541</ele>
        <time>2019-04-18T23:17:05Z</time>
      </trkpt>
      <trkpt lat="44.62547" lon="5.43662">
        <ele>537</ele>
        <time>2019-04-18T23:18:05Z</time>
      </trkpt>
      <trkpt lat="44.63194" lon="5.42962">
        <ele>528</ele>
        <time>2019-04-18T23:19:05Z</time>
      </trkpt>
      <trkpt lat="44.63326" lon="5.42849">
        <ele>526</ele>
        <time>2019-04-18T23:20:05Z</time>
      </trkpt>
      <trkpt lat="44.6352" lon="5.4271">
        <ele>522</ele>
        <time>2019-04-18T23:21:05Z</time>
      </trkpt>
      <trkpt lat="44.63691" lon="5.42604">
        <ele>517</ele>
        <time>2019-04-18T23:22:05Z</time>
      </trkpt>
      <trkpt lat="44.63834" lon="5.42501">
        <ele>515</ele>
        <time>2019-04-18T23:23:05Z</time>
      </trkpt>
      <trkpt lat="44.63907" lon="5.4244">
        <ele>514</ele>
        <time>2019-04-18T23:24:05Z</time>
      </trkpt>
      <trkpt lat="44.63957" lon="5.42386">
        <ele>514</ele>
        <time>2019-04-18T23:25:05Z</time>
      </trkpt>
      <trkpt lat="44.64115" lon="5.42209">
        <ele>512</ele>
        <time>2019-04-18T23:26:05Z</time>
      </trkpt>
      <trkpt lat="44.6414" lon="5.42187">
        <ele>511</ele>
        <time>2019-04-18T23:27:05Z</time>
      </trkpt>
      <trkpt lat="44.6444" lon="5.41978">
        <ele>513</ele>
        <time>2019-04-18T23:28:05Z</time>
      </trkpt>
      <trkpt lat="44.64642" lon="5.41827">
        <ele>516</ele>
        <time>2019-04-18T23:29:05Z</time>
      </trkpt>
      <trkpt lat="44.64743" lon="5.41768">
        <ele>518</ele>
        <time>2019-04-18T23:30:05Z</time>
      </trkpt>
      <trkpt lat="44.64864" lon="5.4168">
        <ele>527</ele>
        <time>2019-04-18T23:31:05Z</time>
      </trkpt>
      <trkpt lat="44.64972" lon="5.41629">
        <ele>517</ele>
        <time>2019-04-18T23:32:05Z</time>
      </trkpt>
      <trkpt lat="44.65004" lon="5.41598">
        <ele>515</ele>
        <time>2019-04-18T23:33:05Z</time>
      </trkpt>
      <trkpt lat="44.65105" lon="5.41465">
        <ele>518</ele>
        <time>2019-04-18T23:34:05Z</time>
      </trkpt>
      <trkpt lat="44.65185" lon="5.41377">
        <ele>516</ele>
        <time>2019-04-18T23:35:05Z</time>
      </trkpt>
      <trkpt lat="44.65203" lon="5.41363">
        <ele>515</ele>
        <time>2019-04-18T23:36:05Z</time>
      </trkpt>
      <trkpt lat="44.65311" lon="5.4131">
        <ele>510</ele>
        <time>2019-04-18T23:37:05Z</time>
      </trkpt>
      <trkpt lat="44.65319" lon="5.41308">
        <ele>510</ele>
        <time>2019-04-18T23:38:05Z</time>
      </trkpt>
      <trkpt lat="44.65501" lon="5.41221">
        <ele>500</ele>
        <time>2019-04-18T23:39:05Z</time>
      </trkpt>
      <trkpt lat="44.65522" lon="5.41221">
        <ele>499</ele>
        <time>2019-04-18T23:40:05Z</time>
      </trkpt>
      <trkpt lat="44.65527" lon="5.41225">
        <ele>499</ele>
        <time>2019-04-18T23:41:05Z</time>
      </trkpt>
      <trkpt lat="44.65537" lon="5.41226">
        <ele>499</ele>
        <time>2019-04-18T23:42:05Z</time>
      </trkpt>
      <trkpt lat="44.65541" lon="5.41223">
        <ele>499</ele>
        <time>2019-04-18T23:43:05Z</time>
      </trkpt>
      <trkpt lat="44.65545" lon="5.41218">
        <ele>498</ele>
        <time>2019-04-18T23:44:05Z</time>
      </trkpt>
      <trkpt lat="44.65547" lon="5.41211">
        <ele>498</ele>
        <time>2019-04-18T23:45:05Z</time>
      </trkpt>
      <trkpt lat="44.65571" lon="5.4119">
        <ele>498</ele>
        <time>2019-04-18T23:46:05Z</time>
      </trkpt>
      <trkpt lat="44.6564" lon="5.41156">
        <ele>498</ele>
        <time>2019-04-18T23:47:05Z</time>
      </trkpt>
      <trkpt lat="44.65737" lon="5.41114">
        <ele>497</ele>
        <time>2019-04-18T23:48:05Z</time>
      </trkpt>
      <trkpt lat="44.65796" lon="5.41077">
        <ele>497</ele>
        <time>2019-04-18T23:49:05Z</time>
      </trkpt>
      <trkpt lat="44.66617" lon="5.40453">
        <ele>482</ele>
        <time>2019-04-18T23:50:05Z</time>
      </trkpt>
      <trkpt lat="44.66664" lon="5.40434">
        <ele>481</ele>
        <time>2019-04-18T23:51:05Z</time>
      </trkpt>
      <trkpt lat="44.6718" lon="5.40278">
        <ele>483</ele>
        <time>2019-04-18T23:52:05Z</time>
      </trkpt>
      <trkpt lat="44.67259" lon="5.40247">
        <ele>483</ele>
        <time>2019-04-18T23:53:05Z</time>
      </trkpt>
      <trkpt lat="44.67285" lon="5.40228">
        <ele>482</ele>
        <time>2019-04-18T23:54:05Z</time>
      </trkpt>
      <trkpt lat="44.67306" lon="5.40198">
        <ele>480</ele>
        <time>2019-04-18T23:55:05Z</time>
      </trkpt>
      <trkpt lat="44.67397" lon="5.39971">
        <ele>475</ele>
        <time>2019-04-18T23:56:05Z</time>
      </trkpt>
      <trkpt lat="44.67599" lon="5.39507">
        <ele>470</ele>
        <time>2019-04-18T23:57:05Z</time>
      </trkpt>
      <trkpt lat="44.67636" lon="5.39451">
        <ele>472</ele>
        <time>2019-04-18T23:58:05Z</time>
      </trkpt>
      <trkpt lat="44.67658" lon="5.39429">
        <ele>472</ele>
        <time>2019-04-18T23:59:05Z</time>
      </trkpt>
      <trkpt lat="44.67699" lon="5.39395">
        <ele>473</ele>
        <time>2019-04-19T00:00:05Z</time>
      </trkpt>
      <trkpt lat="44.67738" lon="5.39374">
        <ele>474</ele>
        <time>2019-04-19T00:01:05Z</time>
      </trkpt>
      <trkpt lat="44.67765" lon="5.39357">
        <ele>474</ele>
        <time>2019-04-19T00:02:05Z</time>
      </trkpt>
      <trkpt lat="44.67816" lon="5.3933">
        <ele>473</ele>
        <time>2019-04-19T00:03:05Z</time>
      </trkpt>
      <trkpt lat="44.67867" lon="5.393">
        <ele>473</ele>
        <time>2019-04-19T00:04:05Z</time>
      </trkpt>
      <trkpt lat="44.67923" lon="5.39278">
        <ele>473</ele>
        <time>2019-04-19T00:05:05Z</time>
      </trkpt>
      <trkpt lat="44.6809" lon="5.39236">
        <ele>470</ele>
        <time>2019-04-19T00:06:05Z</time>
      </trkpt>
      <trkpt lat="44.68497" lon="5.39147">
        <ele>461</ele>
        <time>2019-04-19T00:07:05Z</time>
      </trkpt>
      <trkpt lat="44.68751" lon="5.39105">
        <ele>463</ele>
        <time>2019-04-19T00:08:05Z</time>
      </trkpt>
      <trkpt lat="44.68938" lon="5.3913">
        <ele>459</ele>
        <time>2019-04-19T00:09:05Z</time>
      </trkpt>
      <trkpt lat="44.69329" lon="5.39288">
        <ele>465</ele>
        <time>2019-04-19T00:10:05Z</time>
      </trkpt>
      <trkpt lat="44.69378" lon="5.3931">
        <ele>465</ele>
        <time>2019-04-19T00:11:05Z</time>
      </trkpt>
      <trkpt lat="44.69437" lon="5.39339">
        <ele>464</ele>
        <time>2019-04-19T00:12:05Z</time>
      </trkpt>
      <trkpt lat="44.69816" lon="5.39578">
        <ele>460</ele>
        <time>2019-04-19T00:13:05Z</time>
      </trkpt>
      <trkpt lat="44.70071" lon="5.39671">
        <ele>453</ele>
        <time>2019-04-19T00:14:05Z</time>
      </trkpt>
      <trkpt lat="44.70144" lon="5.39694">
        <ele>453</ele>
        <time>2019-04-19T00:15:05Z</time>
      </trkpt>
      <trkpt lat="44.7019" lon="5.39723">
        <ele>452</ele>
        <time>2019-04-19T00:16:05Z</time>
      </trkpt>
      <trkpt lat="44.70377" lon="5.39867">
        <ele>445</ele>
        <time>2019-04-19T00:17:05Z</time>
      </trkpt>
      <trkpt lat="44.70437" lon="5.39894">
        <ele>444</ele>
        <time>2019-04-19T00:18:05Z</time>
      </trkpt>
      <trkpt lat="44.70769" lon="5.40009">
        <ele>439</ele>
        <time>2019-04-19T00:19:05Z</time>
      </trkpt>
      <trkpt lat="44.70787" lon="5.40025">
        <ele>439</ele>
        <time>2019-04-19T00:20:05Z</time>
      </trkpt>
      <trkpt lat="44.70796" lon="5.40042">
        <ele>439</ele>
        <time>2019-04-19T00:21:05Z</time>
      </trkpt>
      <trkpt lat="44.70815" lon="5.40095">
        <ele>442</ele>
        <time>2019-04-19T00:22:05Z</time>
      </trkpt>
      <trkpt lat="44.70823" lon="5.40108">
        <ele>443</ele>
        <time>2019-04-19T00:23:05Z</time>
      </trkpt>
      <trkpt lat="44.70839" lon="5.40122">
        <ele>444</ele>
        <time>2019-04-19T00:24:05Z</time>
      </trkpt>
      <trkpt lat="44.70931" lon="5.40163">
        <ele>444</ele>
        <time>2019-04-19T00:25:05Z</time>
      </trkpt>
      <trkpt lat="44.71009" lon="5.40181">
        <ele>443</ele>
        <time>2019-04-19T00:26:05Z</time>
      </trkpt>
      <trkpt lat="44.71038" lon="5.4019">
        <ele>443</ele>
        <time>2019-04-19T00:27:05Z</time>
      </trkpt>
      <trkpt lat="44.71082" lon="5.40198">
        <ele>443</ele>
        <time>2019-04-19T00:28:05Z</time>
      </trkpt>
      <trkpt lat="44.71117" lon="5.40198">
        <ele>443</ele>
        <time>2019-04-19T00:29:05Z</time>
      </trkpt>
      <trkpt lat="44.71217" lon="5.40177">
        <ele>444</ele>
        <time>2019-04-19T00:30:05Z</time>
      </trkpt>
      <trkpt lat="44.7122" lon="5.40181">
        <ele>445</ele>
        <time>2019-04-19T00:31:05Z</time>
      </trkpt>
      <trkpt lat="44.71224" lon="5.40182">
        <ele>445</ele>
        <time>2019-04-19T00:32:05Z</time>
      </trkpt>
      <trkpt lat="44.71226" lon="5.40181">
        <ele>445</ele>
        <time>2019-04-19T00:33:05Z</time>
      </trkpt>
      <trkpt lat="44.71229" lon="5.40174">
        <ele>445</ele>
        <time>2019-04-19T00:34:05Z</time>
      </trkpt>
      <trkpt lat="44.71241" lon="5.40169">
        <ele>445</ele>
        <time>2019-04-19T00:35:05Z</time>
      </trkpt>
      <trkpt lat="44.71386" lon="5.40123">
        <ele>442</ele>
        <time>2019-04-19T00:36:05Z</time>
      </trkpt>
      <trkpt lat="44.71604" lon="5.40049">
        <ele>441</ele>
        <time>2019-04-19T00:37:05Z</time>
      </trkpt>
      <trkpt lat="44.71692" lon="5.40023">
        <ele>441</ele>
        <time>2019-04-19T00:38:05Z</time>
      </trkpt>
      <trkpt lat="44.71749" lon="5.40002">
        <ele>439</ele>
        <time>2019-04-19T00:39:05Z</time>
      </trkpt>
      <trkpt lat="44.72128" lon="5.3988">
        <ele>432</ele>
        <time>2019-04-19T00:40:05Z</time>
      </trkpt>
      <trkpt lat="44.72397" lon="5.39814">
        <ele>428</ele>
        <time>2019-04-19T00:41:05Z</time>
      </trkpt>
      <trkpt lat="44.72451" lon="5.39792">
        <ele>428</ele>
        <time>2019-04-19T00:42:05Z</time>
      </trkpt>
      <trkpt lat="44.72491" lon="5.39769">
        <ele>428</ele>
        <time>2019-04-19T00:43:05Z</time>
      </trkpt>
      <trkpt lat="44.72533" lon="5.39728">
        <ele>429</ele>
        <time>2019-04-19T00:44:05Z</time>
      </trkpt>
      <trkpt lat="44.7256" lon="5.39692">
        <ele>429</ele>
        <time>2019-04-19T00:45:05Z</time>
      </trkpt>
      <trkpt lat="44.72599" lon="5.39627">
        <ele>430</ele>
        <time>2019-04-19T00:46:05Z</time>
      </trkpt>
      <trkpt lat="44.72637" lon="5.39557">
        <ele>431</ele>
        <time>2019-04-19T00:47:05Z</time>
      </trkpt>
      <trkpt lat="44.72654" lon="5.39536">
        <ele>430</ele>
        <time>2019-04-19T00:48:05Z</time>
      </trkpt>
      <trkpt lat="44.72679" lon="5.39529">
        <ele>432</ele>
        <time>2019-04-19T00:49:05Z</time>
      </trkpt>
      <trkpt lat="44.72691" lon="5.3951">
        <ele>431</ele>
        <time>2019-04-19T00:50:05Z</time>
      </trkpt>
      <trkpt lat="44.72702" lon="5.39448">
        <ele>429</ele>
        <time>2019-04-19T00:51:05Z</time>
      </trkpt>
      <trkpt lat="44.72713" lon="5.39423">
        <ele>429</ele>
        <time>2019-04-19T00:52:05Z</time>
      </trkpt>
      <trkpt lat="44.72819" lon="5.3923">
        <ele>426</ele>
        <time>2019-04-19T00:53:05Z</time>
      </trkpt>
      <trkpt lat="44.72832" lon="5.39217">
        <ele>426</ele>
        <time>2019-04-19T00:54:05Z</time>
      </trkpt>
      <trkpt lat="44.72845" lon="5.39206">
        <ele>425</ele>
        <time>2019-04-19T00:55:05Z</time>
      </trkpt>
      <trkpt lat="44.72862" lon="5.39199">
        <ele>425</ele>
        <time>2019-04-19T00:56:05Z</time>
      </trkpt>
      <trkpt lat="44.72882" lon="5.39199">
        <ele>426</ele>
        <time>2019-04-19T00:57:05Z</time>
      </trkpt>
      <trkpt lat="44.72969" lon="5.39216">
        <ele>427</ele>
        <time>2019-04-19T00:58:05Z</time>
      </trkpt>
      <trkpt lat="44.72985" lon="5.39217">
        <ele>426</ele>
        <time>2019-04-19T00:59:05Z</time>
      </trkpt>
      <trkpt lat="44.7301" lon="5.39212">
        <ele>426</ele>
        <time>2019-04-19T01:00:05Z</time>
      </trkpt>
      <trkpt lat="44.73038" lon="5.392">
        <ele>425</ele>
        <time>2019-04-19T01:01:05Z</time>
      </trkpt>
      <trkpt lat="44.73165" lon="5.39134">
        <ele>423</ele>
        <time>2019-04-19T01:02:05Z</time>
      </trkpt>
      <trkpt lat="44.73394" lon="5.39006">
        <ele>423</ele>
        <time>2019-04-19T01:03:05Z</time>
      </trkpt>
      <trkpt lat="44.73998" lon="5.38677">
        <ele>418</ele>
        <time>2019-04-19T01:04:05Z</time>
      </trkpt>
      <trkpt lat="44.74062" lon="5.3865">
        <ele>416</ele>
        <time>2019-04-19T01:05:05Z</time>
      </trkpt>
      <trkpt lat="44.74429" lon="5.38553">
        <ele>408</ele>
        <time>2019-04-19T01:06:05Z</time>
      </trkpt>
      <trkpt lat="44.74498" lon="5.38524">
        <ele>408</ele>
        <time>2019-04-19T01:07:05Z</time>
      </trkpt>
      <trkpt lat="44.74561" lon="5.38478">
        <ele>408</ele>
        <time>2019-04-19T01:08:05Z</time>
      </trkpt>
      <trkpt lat="44.74604" lon="5.38437">
        <ele>408</ele>
        <time>2019-04-19T01:09:05Z</time>
      </trkpt>
      <trkpt lat="44.74645" lon="5.38384">
        <ele>406</ele>
        <time>2019-04-19T01:10:05Z</time>
      </trkpt>
      <trkpt lat="44.74821" lon="5.38078">
        <ele>407</ele>
        <time>2019-04-19T01:11:05Z</time>
      </trkpt>
      <trkpt lat="44.7483" lon="5.38055">
        <ele>406</ele>
        <time>2019-04-19T01:12:05Z</time>
      </trkpt>
      <trkpt lat="44.74834" lon="5.38033">
        <ele>406</ele>
        <time>2019-04-19T01:13:05Z</time>
      </trkpt>
      <trkpt lat="44.74836" lon="5.37993">
        <ele>405</ele>
        <time>2019-04-19T01:14:05Z</time>
      </trkpt>
      <trkpt lat="44.7484" lon="5.37976">
        <ele>405</ele>
        <time>2019-04-19T01:15:05Z</time>
      </trkpt>
      <trkpt lat="44.74846" lon="5.37973">
        <ele>405</ele>
        <time>2019-04-19T01:16:05Z</time>
      </trkpt>
      <trkpt lat="44.74853" lon="5.37964">
        <ele>405</ele>
        <time>2019-04-19T01:17:05Z</time>
      </trkpt>
      <trkpt lat="44.74861" lon="5.37957">
        <ele>405</ele>
        <time>2019-04-19T01:18:05Z</time>
      </trkpt>
      <trkpt lat="44.74879" lon="5.37953">
        <ele>405</ele>
        <time>2019-04-19T01:19:05Z</time>
      </trkpt>
      <trkpt lat="44.74897" lon="5.37944">
        <ele>406</ele>
        <time>2019-04-19T01:20:05Z</time>
      </trkpt>
      <trkpt lat="44.74943" lon="5.37871">
        <ele>408</ele>
        <time>2019-04-19T01:21:05Z</time>
      </trkpt>
      <trkpt lat="44.75015" lon="5.37744">
        <ele>414</ele>
        <time>2019-04-19T01:22:05Z</time>
      </trkpt>
      <trkpt lat="44.7507" lon="5.37654">
        <ele>415</ele>
        <time>2019-04-19T01:23:05Z</time>
      </trkpt>
      <trkpt lat="44.75191" lon="5.37502">
        <ele>414</ele>
        <time>2019-04-19T01:24:05Z</time>
      </trkpt>
      <trkpt lat="44.75198" lon="5.37494">
        <ele>414</ele>
        <time>2019-04-19T01:25:05Z</time>
      </trkpt>
      <trkpt lat="44.75201" lon="5.37497">
        <ele>414</ele>
        <time>2019-04-19T01:26:05Z</time>
      </trkpt>
      <trkpt lat="44.75206" lon="5.37498">
        <ele>414</ele>
        <time>2019-04-19T01:27:05Z</time>
      </trkpt>
      <trkpt lat="44.75211" lon="5.37491">
        <ele>413</ele>
        <time>2019-04-19T01:28:05Z</time>
      </trkpt>
      <trkpt lat="44.75211" lon="5.37483">
        <ele>413</ele>
        <time>2019-04-19T01:29:05Z</time>
      </trkpt>
      <trkpt lat="44.75208" lon="5.37479">
        <ele>413</ele>
        <time>2019-04-19T01:30:05Z</time>
      </trkpt>
      <trkpt lat="44.75214" lon="5.3747">
        <ele>413</ele>
        <time>2019-04-19T01:31:05Z</time>
      </trkpt>
      <trkpt lat="44.75337" lon="5.37311">
        <ele>421</ele>
        <time>2019-04-19T01:32:05Z</time>
      </trkpt>
      <trkpt lat="44.75355" lon="5.37261">
        <ele>425</ele>
        <time>2019-04-19T01:33:05Z</time>
      </trkpt>
      <trkpt lat="44.75362" lon="5.37229">
        <ele>425</ele>
        <time>2019-04-19T01:34:05Z</time>
      </trkpt>
      <trkpt lat="44.75387" lon="5.37173">
        <ele>423</ele>
        <time>2019-04-19T01:35:05Z</time>
      </trkpt>
      <trkpt lat="44.75392" lon="5.37159">
        <ele>422</ele>
        <time>2019-04-19T01:36:05Z</time>
      </trkpt>
      <trkpt lat="44.75401" lon="5.3714">
        <ele>422</ele>
        <time>2019-04-19T01:37:05Z</time>
      </trkpt>
      <trkpt lat="44.75478" lon="5.37015">
        <ele>420</ele>
        <time>2019-04-19T01:38:05Z</time>
      </trkpt>
      <trkpt lat="44.75517" lon="5.3694">
        <ele>419</ele>
        <time>2019-04-19T01:39:05Z</time>
      </trkpt>
      <trkpt lat="44.75556" lon="5.36877">
        <ele>415</ele>
        <time>2019-04-19T01:40:05Z</time>
      </trkpt>
      <trkpt lat="44.7562" lon="5.3676">
        <ele>408</ele>
        <time>2019-04-19T01:41:05Z</time>
      </trkpt>
      <trkpt lat="44.75798" lon="5.36456">
        <ele>399</ele>
        <time>2019-04-19T01:42:05Z</time>
      </trkpt>
      <trkpt lat="44.7589" lon="5.36289">
        <ele>397</ele>
        <time>2019-04-19T01:43:05Z</time>
      </trkpt>
      <trkpt lat="44.75941" lon="5.36183">
        <ele>397</ele>
        <time>2019-04-19T01:44:05Z</time>
      </trkpt>
      <trkpt lat="44.75985" lon="5.36039">
        <ele>398</ele>
        <time>2019-04-19T01:45:05Z</time>
      </trkpt>
      <trkpt lat="44.76041" lon="5.35801">
        <ele>396</ele>
        <time>2019-04-19T01:46:05Z</time>
      </trkpt>
      <trkpt lat="44.76154" lon="5.35343">
        <ele>390</ele>
        <time>2019-04-19T01:47:05Z</time>
      </trkpt>
      <trkpt lat="44.7616" lon="5.35342">
        <ele>390</ele>
        <time>2019-04-19T01:48:05Z</time>
      </trkpt>
      <trkpt lat="44.76163" lon="5.35338">
        <ele>390</ele>
        <time>2019-04-19T01:49:05Z</time>
      </trkpt>
      <trkpt lat="44.76163" lon="5.35332">
        <ele>390</ele>
        <time>2019-04-19T01:50:05Z</time>
      </trkpt>
      <trkpt lat="44.76161" lon="5.35328">
        <ele>390</ele>
        <time>2019-04-19T01:51:05Z</time>
      </trkpt>
      <trkpt lat="44.76158" lon="5.35325">
        <ele>390</ele>
        <time>2019-04-19T01:52:05Z</time>
      </trkpt>
      <trkpt lat="44.76246" lon="5.34964">
        <ele>383</ele>
        <time>2019-04-19T01:53:05Z</time>
      </trkpt>
      <trkpt lat="44.76264" lon="5.34916">
        <ele>381</ele>
        <time>2019-04-19T01:54:05Z</time>
      </trkpt>
      <trkpt lat="44.76272" lon="5.34913">
        <ele>381</ele>
        <time>2019-04-19T01:55:05Z</time>
      </trkpt>
      <trkpt lat="44.76278" lon="5.34907">
        <ele>381</ele>
        <time>2019-04-19T01:56:05Z</time>
      </trkpt>
      <trkpt lat="44.76282" lon="5.34899">
        <ele>380</ele>
        <time>2019-04-19T01:57:05Z</time>
      </trkpt>
      <trkpt lat="44.76284" lon="5.34886">
        <ele>380</ele>
        <time>2019-04-19T01:58:05Z</time>
      </trkpt>
      <trkpt lat="44.76282" lon="5.34874">
        <ele>380</ele>
        <time>2019-04-19T01:59:05Z</time>
      </trkpt>
      <trkpt lat="44.76277" lon="5.34864">
        <ele>380</ele>
        <time>2019-04-19T02:00:05Z</time>
      </trkpt>
      <trkpt lat="44.76279" lon="5.34844">
        <ele>380</ele>
        <time>2019-04-19T02:01:05Z</time>
      </trkpt>
      <trkpt lat="44.76291" lon="5.34786">
        <ele>380</ele>
        <time>2019-04-19T02:02:05Z</time>
      </trkpt>
      <trkpt lat="44.76315" lon="5.34696">
        <ele>380</ele>
        <time>2019-04-19T02:03:05Z</time>
      </trkpt>
      <trkpt lat="44.76443" lon="5.34178">
        <ele>378</ele>
        <time>2019-04-19T02:04:05Z</time>
      </trkpt>
      <trkpt lat="44.76458" lon="5.34115">
        <ele>377</ele>
        <time>2019-04-19T02:05:05Z</time>
      </trkpt>
      <trkpt lat="44.76475" lon="5.34027">
        <ele>376</ele>
        <time>2019-04-19T02:06:05Z</time>
      </trkpt>
      <trkpt lat="44.76485" lon="5.33923">
        <ele>376</ele>
        <time>2019-04-19T02:07:05Z</time>
      </trkpt>
      <trkpt lat="44.76506" lon="5.33671">
        <ele>375</ele>
        <time>2019-04-19T02:08:05Z</time>
      </trkpt>
      <trkpt lat="44.76516" lon="5.33608">
        <ele>375</ele>
        <time>2019-04-19T02:09:05Z</time>
      </trkpt>
      <trkpt lat="44.76529" lon="5.33548">
        <ele>375</ele>
        <time>2019-04-19T02:10:05Z</time>
      </trkpt>
      <trkpt lat="44.76623" lon="5.33234">
        <ele>374</ele>
        <time>2019-04-19T02:11:05Z</time>
      </trkpt>
      <trkpt lat="44.76639" lon="5.33172">
        <ele>377</ele>
        <time>2019-04-19T02:12:05Z</time>
      </trkpt>
      <trkpt lat="44.76648" lon="5.33114">
        <ele>376</ele>
        <time>2019-04-19T02:13:05Z</time>
      </trkpt>
      <trkpt lat="44.76653" lon="5.33059">
        <ele>375</ele>
        <time>2019-04-19T02:14:05Z</time>
      </trkpt>
      <trkpt lat="44.76654" lon="5.33001">
        <ele>375</ele>
        <time>2019-04-19T02:15:05Z</time>
      </trkpt>
      <trkpt lat="44.76647" lon="5.32855">
        <ele>375</ele>
        <time>2019-04-19T02:16:05Z</time>
      </trkpt>
      <trkpt lat="44.76648" lon="5.3273">
        <ele>373</ele>
        <time>2019-04-19T02:17:05Z</time>
      </trkpt>
      <trkpt lat="44.76654" lon="5.3257">
        <ele>371</ele>
        <time>2019-04-19T02:18:05Z</time>
      </trkpt>
      <trkpt lat="44.76658" lon="5.32507">
        <ele>369</ele>
        <time>2019-04-19T02:19:05Z</time>
      </trkpt>
      <trkpt lat="44.76678" lon="5.32359">
        <ele>371</ele>
        <time>2019-04-19T02:20:05Z</time>
      </trkpt>
      <trkpt lat="44.76767" lon="5.3186">
        <ele>373</ele>
        <time>2019-04-19T02:21:05Z</time>
      </trkpt>
      <trkpt lat="44.76779" lon="5.31767">
        <ele>371</ele>
        <time>2019-04-19T02:22:05Z</time>
      </trkpt>
      <trkpt lat="44.76774" lon="5.31715">
        <ele>370</ele>
        <time>2019-04-19T02:23:05Z</time>
      </trkpt>
      <trkpt lat="44.76763" lon="5.31664">
        <ele>369</ele>
        <time>2019-04-19T02:24:05Z</time>
      </trkpt>
      <trkpt lat="44.7672" lon="5.31534">
        <ele>368</ele>
        <time>2019-04-19T02:25:05Z</time>
      </trkpt>
      <trkpt lat="44.76683" lon="5.31441">
        <ele>366</ele>
        <time>2019-04-19T02:26:05Z</time>
      </trkpt>
      <trkpt lat="44.76654" lon="5.31382">
        <ele>366</ele>
        <time>2019-04-19T02:27:05Z</time>
      </trkpt>
      <trkpt lat="44.76593" lon="5.31279">
        <ele>365</ele>
        <time>2019-04-19T02:28:05Z</time>
      </trkpt>
      <trkpt lat="44.76453" lon="5.31056">
        <ele>364</ele>
        <time>2019-04-19T02:29:05Z</time>
      </trkpt>
      <trkpt lat="44.76403" lon="5.30969">
        <ele>365</ele>
        <time>2019-04-19T02:30:05Z</time>
      </trkpt>
      <trkpt lat="44.7629" lon="5.30635">
        <ele>373</ele>
        <time>2019-04-19T02:31:05Z</time>
      </trkpt>
      <trkpt lat="44.76275" lon="5.30564">
        <ele>372</ele>
        <time>2019-04-19T02:32:05Z</time>
      </trkpt>
      <trkpt lat="44.76265" lon="5.30478">
        <ele>371</ele>
        <time>2019-04-19T02:33:05Z</time>
      </trkpt>
      <trkpt lat="44.76261" lon="5.30338">
        <ele>371</ele>
        <time>2019-04-19T02:34:05Z</time>
      </trkpt>
      <trkpt lat="44.76267" lon="5.30244">
        <ele>370</ele>
        <time>2019-04-19T02:35:05Z</time>
      </trkpt>
      <trkpt lat="44.76276" lon="5.30196">
        <ele>372</ele>
        <time>2019-04-19T02:36:05Z</time>
      </trkpt>
      <trkpt lat="44.76313" lon="5.3007">
        <ele>370</ele>
        <time>2019-04-19T02:37:05Z</time>
      </trkpt>
      <trkpt lat="44.76322" lon="5.3003">
        <ele>368</ele>
        <time>2019-04-19T02:38:05Z</time>
      </trkpt>
      <trkpt lat="44.76326" lon="5.30001">
        <ele>368</ele>
        <time>2019-04-19T02:39:05Z</time>
      </trkpt>
      <trkpt lat="44.76326" lon="5.29965">
        <ele>368</ele>
        <time>2019-04-19T02:40:05Z</time>
      </trkpt>
      <trkpt lat="44.76321" lon="5.29892">
        <ele>370</ele>
        <time>2019-04-19T02:41:05Z</time>
      </trkpt>
      <trkpt lat="44.76287" lon="5.2971">
        <ele>375</ele>
        <time>2019-04-19T02:42:05Z</time>
      </trkpt>
      <trkpt lat="44.76262" lon="5.29632">
        <ele>375</ele>
        <time>2019-04-19T02:43:05Z</time>
      </trkpt>
      <trkpt lat="44.76253" lon="5.29599">
        <ele>373</ele>
        <time>2019-04-19T02:44:05Z</time>
      </trkpt>
      <trkpt lat="44.76247" lon="5.29547">
        <ele>370</ele>
        <time>2019-04-19T02:45:05Z</time>
      </trkpt>
      <trkpt lat="44.76245" lon="5.29496">
        <ele>367</ele>
        <time>2019-04-19T02:46:05Z</time>
      </trkpt>
      <trkpt lat="44.7624" lon="5.29465">
        <ele>367</ele>
        <time>2019-04-19T02:47:05Z</time>
      </trkpt>
      <trkpt lat="44.7622" lon="5.294">
        <ele>369</ele>
        <time>2019-04-19T02:48:05Z</time>
      </trkpt>
      <trkpt lat="44.76183" lon="5.293">
        <ele>375</ele>
        <time>2019-04-19T02:49:05Z</time>
      </trkpt>
      <trkpt lat="44.76175" lon="5.29273">
        <ele>375</ele>
        <time>2019-04-19T02:50:05Z</time>
      </trkpt>
      <trkpt lat="44.7617" lon="5.2924">
        <ele>373</ele>
        <time>2019-04-19T02:51:05Z</time>
      </trkpt>
      <trkpt lat="44.76172" lon="5.29144">
        <ele>374</ele>
        <time>2019-04-19T02:52:05Z</time>
      </trkpt>
      <trkpt lat="44.76177" lon="5.29107">
        <ele>374</ele>
        <time>2019-04-19T02:53:05Z</time>
      </trkpt>
      <trkpt lat="44.76195" lon="5.29038">
        <ele>373</ele>
        <time>2019-04-19T02:54:05Z</time>
      </trkpt>
      <trkpt lat="44.76207" lon="5.28973">
        <ele>373</ele>
        <time>2019-04-19T02:55:05Z</time>
      </trkpt>
      <trkpt lat="44.76289" lon="5.28729">
        <ele>376</ele>
        <time>2019-04-19T02:56:05Z</time>
      </trkpt>
      <trkpt lat="44.76345" lon="5.28466">
        <ele>364</ele>
        <time>2019-04-19T02:57:05Z</time>
      </trkpt>
      <trkpt lat="44.76373" lon="5.28367">
        <ele>364</ele>
        <time>2019-04-19T02:58:05Z</time>
      </trkpt>
      <trkpt lat="44.76438" lon="5.28162">
        <ele>361</ele>
        <time>2019-04-19T02:59:05Z</time>
      </trkpt>
      <trkpt lat="44.76455" lon="5.28106">
        <ele>360</ele>
        <time>2019-04-19T03:00:05Z</time>
      </trkpt>
      <trkpt lat="44.76464" lon="5.28062">
        <ele>359</ele>
        <time>2019-04-19T03:01:05Z</time>
      </trkpt>
      <trkpt lat="44.76467" lon="5.28009">
        <ele>358</ele>
        <time>2019-04-19T03:02:05Z</time>
      </trkpt>
      <trkpt lat="44.76465" lon="5.27963">
        <ele>357</ele>
        <time>2019-04-19T03:03:05Z</time>
      </trkpt>
      <trkpt lat="44.76457" lon="5.27921">
        <ele>357</ele>
        <time>2019-04-19T03:04:05Z</time>
      </trkpt>
      <trkpt lat="44.7642" lon="5.27788">
        <ele>360</ele>
        <time>2019-04-19T03:05:05Z</time>
      </trkpt>
      <trkpt lat="44.76407" lon="5.27725">
        <ele>358</ele>
        <time>2019-04-19T03:06:05Z</time>
      </trkpt>
      <trkpt lat="44.76392" lon="5.27614">
        <ele>357</ele>
        <time>2019-04-19T03:07:05Z</time>
      </trkpt>
      <trkpt lat="44.76384" lon="5.27542">
        <ele>358</ele>
        <time>2019-04-19T03:08:05Z</time>
      </trkpt>
      <trkpt lat="44.76382" lon="5.27493">
        <ele>358</ele>
        <time>2019-04-19T03:09:05Z</time>
      </trkpt>
      <trkpt lat="44.76382" lon="5.27347">
        <ele>352</ele>
        <time>2019-04-19T03:10:05Z</time>
      </trkpt>
      <trkpt lat="44.76377" lon="5.27277">
        <ele>351</ele>
        <time>2019-04-19T03:11:05Z</time>
      </trkpt>
      <trkpt lat="44.76369" lon="5.27241">
        <ele>350</ele>
        <time>2019-04-19T03:12:05Z</time>
      </trkpt>
      <trkpt lat="44.76356" lon="5.27199">
        <ele>348</ele>
        <time>2019-04-19T03:13:05Z</time>
      </trkpt>
      <trkpt lat="44.76339" lon="5.27161">
        <ele>346</ele>
        <time>2019-04-19T03:14:05Z</time>
      </trkpt>
      <trkpt lat="44.76323" lon="5.27133">
        <ele>344</ele>
        <time>2019-04-19T03:15:05Z</time>
      </trkpt>
      <trkpt lat="44.76304" lon="5.27111">
        <ele>343</ele>
        <time>2019-04-19T03:16:05Z</time>
      </trkpt>
      <trkpt lat="44.76283" lon="5.27093">
        <ele>342</ele>
        <time>2019-04-19T03:17:05Z</time>
      </trkpt>
      <trkpt lat="44.76254" lon="5.27074">
        <ele>342</ele>
        <time>2019-04-19T03:18:05Z</time>
      </trkpt>
      <trkpt lat="44.76226" lon="5.27062">
        <ele>343</ele>
        <time>2019-04-19T03:19:05Z</time>
      </trkpt>
      <trkpt lat="44.76132" lon="5.2705">
        <ele>345</ele>
        <time>2019-04-19T03:20:05Z</time>
      </trkpt>
      <trkpt lat="44.75896" lon="5.2697">
        <ele>347</ele>
        <time>2019-04-19T03:21:05Z</time>
      </trkpt>
      <trkpt lat="44.75822" lon="5.26955">
        <ele>350</ele>
        <time>2019-04-19T03:22:05Z</time>
      </trkpt>
      <trkpt lat="44.75774" lon="5.26931">
        <ele>348</ele>
        <time>2019-04-19T03:23:05Z</time>
      </trkpt>
      <trkpt lat="44.75692" lon="5.26856">
        <ele>346</ele>
        <time>2019-04-19T03:24:05Z</time>
      </trkpt>
      <trkpt lat="44.75651" lon="5.26827">
        <ele>346</ele>
        <time>2019-04-19T03:25:05Z</time>
      </trkpt>
      <trkpt lat="44.75605" lon="5.26813">
        <ele>346</ele>
        <time>2019-04-19T03:26:05Z</time>
      </trkpt>
      <trkpt lat="44.75484" lon="5.26807">
        <ele>347</ele>
        <time>2019-04-19T03:27:05Z</time>
      </trkpt>
      <trkpt lat="44.75426" lon="5.26795">
        <ele>348</ele>
        <time>2019-04-19T03:28:05Z</time>
      </trkpt>
      <trkpt lat="44.75261" lon="5.26723">
        <ele>344</ele>
        <time>2019-04-19T03:29:05Z</time>
      </trkpt>
      <trkpt lat="44.75181" lon="5.26667">
        <ele>344</ele>
        <time>2019-04-19T03:30:05Z</time>
      </trkpt>
      <trkpt lat="44.75112" lon="5.26556">
        <ele>341</ele>
        <time>2019-04-19T03:31:05Z</time>
      </trkpt>
      <trkpt lat="44.75061" lon="5.26506">
        <ele>340</ele>
        <time>2019-04-19T03:32:05Z</time>
      </trkpt>
      <trkpt lat="44.75013" lon="5.26474">
        <ele>345</ele>
        <time>2019-04-19T03:33:05Z</time>
      </trkpt>
      <trkpt lat="44.74993" lon="5.26456">
        <ele>345</ele>
        <time>2019-04-19T03:34:05Z</time>
      </trkpt>
      <trkpt lat="44.7499" lon="5.26459">
        <ele>346</ele>
        <time>2019-04-19T03:35:05Z</time>
      </trkpt>
      <trkpt lat="44.74968" lon="5.26451">
        <ele>346</ele>
        <time>2019-04-19T03:36:05Z</time>
      </trkpt>
      <trkpt lat="44.74945" lon="5.26436">
        <ele>344</ele>
        <time>2019-04-19T03:37:05Z</time>
      </trkpt>
      <trkpt lat="44.74932" lon="5.26433">
        <ele>343</ele>
        <time>2019-04-19T03:38:05Z</time>
      </trkpt>
      <trkpt lat="44.74853" lon="5.26428">
        <ele>339</ele>
        <time>2019-04-19T03:39:05Z</time>
      </trkpt>
      <trkpt lat="44.74824" lon="5.26453">
        <ele>345</ele>
        <time>2019-04-19T03:40:05Z</time>
      </trkpt>
      <trkpt lat="44.74797" lon="5.26468">
        <ele>348</ele>
        <time>2019-04-19T03:41:05Z</time>
      </trkpt>
      <trkpt lat="44.74759" lon="5.26482">
        <ele>347</ele>
        <time>2019-04-19T03:42:05Z</time>
      </trkpt>
      <trkpt lat="44.7473" lon="5.26489">
        <ele>344</ele>
        <time>2019-04-19T03:43:05Z</time>
      </trkpt>
      <trkpt lat="44.7468" lon="5.26485">
        <ele>337</ele>
        <time>2019-04-19T03:44:05Z</time>
      </trkpt>
      <trkpt lat="44.74662" lon="5.26495">
        <ele>335</ele>
        <time>2019-04-19T03:45:05Z</time>
      </trkpt>
      <trkpt lat="44.74605" lon="5.26565">
        <ele>347</ele>
        <time>2019-04-19T03:46:05Z</time>
      </trkpt>
      <trkpt lat="44.74588" lon="5.2658">
        <ele>347</ele>
        <time>2019-04-19T03:47:05Z</time>
      </trkpt>
      <trkpt lat="44.74551" lon="5.26597">
        <ele>348</ele>
        <time>2019-04-19T03:48:05Z</time>
      </trkpt>
      <trkpt lat="44.74519" lon="5.26601">
        <ele>344</ele>
        <time>2019-04-19T03:49:05Z</time>
      </trkpt>
      <trkpt lat="44.74497" lon="5.2661">
        <ele>344</ele>
        <time>2019-04-19T03:50:05Z</time>
      </trkpt>
      <trkpt lat="44.74414" lon="5.26656">
        <ele>342</ele>
        <time>2019-04-19T03:51:05Z</time>
      </trkpt>
      <trkpt lat="44.74394" lon="5.26678">
        <ele>344</ele>
        <time>2019-04-19T03:52:05Z</time>
      </trkpt>
      <trkpt lat="44.74366" lon="5.26728">
        <ele>351</ele>
        <time>2019-04-19T03:53:05Z</time>
      </trkpt>
      <trkpt lat="44.74307" lon="5.26799">
        <ele>352</ele>
        <time>2019-04-19T03:54:05Z</time>
      </trkpt>
      <trkpt lat="44.74268" lon="5.26834">
        <ele>350</ele>
        <time>2019-04-19T03:55:05Z</time>
      </trkpt>
      <trkpt lat="44.74097" lon="5.26965">
        <ele>349</ele>
        <time>2019-04-19T03:56:05Z</time>
      </trkpt>
      <trkpt lat="44.74075" lon="5.26979">
        <ele>349</ele>
        <time>2019-04-19T03:57:05Z</time>
      </trkpt>
      <trkpt lat="44.74036" lon="5.27026">
        <ele>353</ele>
        <time>2019-04-19T03:58:05Z</time>
      </trkpt>
      <trkpt lat="44.74022" lon="5.27039">
        <ele>353</ele>
        <time>2019-04-19T03:59:05Z</time>
      </trkpt>
      <trkpt lat="44.73984" lon="5.27054">
        <ele>350</ele>
        <time>2019-04-19T04:00:05Z</time>
      </trkpt>
      <trkpt lat="44.73967" lon="5.27076">
        <ele>349</ele>
        <time>2019-04-19T04:01:05Z</time>
      </trkpt>
      <trkpt lat="44.73949" lon="5.2712">
        <ele>357</ele>
        <time>2019-04-19T04:02:05Z</time>
      </trkpt>
      <trkpt lat="44.73943" lon="5.27129">
        <ele>359</ele>
        <time>2019-04-19T04:03:05Z</time>
      </trkpt>
      <trkpt lat="44.73923" lon="5.27145">
        <ele>362</ele>
        <time>2019-04-19T04:04:05Z</time>
      </trkpt>
      <trkpt lat="44.73906" lon="5.27143">
        <ele>360</ele>
        <time>2019-04-19T04:05:05Z</time>
      </trkpt>
      <trkpt lat="44.73884" lon="5.27137">
        <ele>355</ele>
        <time>2019-04-19T04:06:05Z</time>
      </trkpt>
      <trkpt lat="44.73778" lon="5.2715">
        <ele>347</ele>
        <time>2019-04-19T04:07:05Z</time>
      </trkpt>
      <trkpt lat="44.7375" lon="5.27161">
        <ele>346</ele>
        <time>2019-04-19T04:08:05Z</time>
      </trkpt>
      <trkpt lat="44.73722" lon="5.27184">
        <ele>346</ele>
        <time>2019-04-19T04:09:05Z</time>
      </trkpt>
      <trkpt lat="44.7368" lon="5.27234">
        <ele>345</ele>
        <time>2019-04-19T04:10:05Z</time>
      </trkpt>
      <trkpt lat="44.73668" lon="5.27258">
        <ele>344</ele>
        <time>2019-04-19T04:11:05Z</time>
      </trkpt>
      <trkpt lat="44.73649" lon="5.27275">
        <ele>343</ele>
        <time>2019-04-19T04:12:05Z</time>
      </trkpt>
      <trkpt lat="44.73629" lon="5.27278">
        <ele>341</ele>
        <time>2019-04-19T04:13:05Z</time>
      </trkpt>
      <trkpt lat="44.73558" lon="5.2725">
        <ele>334</ele>
        <time>2019-04-19T04:14:05Z</time>
      </trkpt>
      <trkpt lat="44.73441" lon="5.27228">
        <ele>331</ele>
        <time>2019-04-19T04:15:05Z</time>
      </trkpt>
      <trkpt lat="44.73425" lon="5.27231">
        <ele>331</ele>
        <time>2019-04-19T04:16:05Z</time>
      </trkpt>
      <trkpt lat="44.73374" lon="5.27261">
        <ele>330</ele>
        <time>2019-04-19T04:17:05Z</time>
      </trkpt>
      <trkpt lat="44.7326" lon="5.27389">
        <ele>334</ele>
        <time>2019-04-19T04:18:05Z</time>
      </trkpt>
      <trkpt lat="44.73242" lon="5.27402">
        <ele>334</ele>
        <time>2019-04-19T04:19:05Z</time>
      </trkpt>
      <trkpt lat="44.73219" lon="5.27413">
        <ele>333</ele>
        <time>2019-04-19T04:20:05Z</time>
      </trkpt>
      <trkpt lat="44.73126" lon="5.27435">
        <ele>327</ele>
        <time>2019-04-19T04:21:05Z</time>
      </trkpt>
      <trkpt lat="44.72954" lon="5.27448">
        <ele>327</ele>
        <time>2019-04-19T04:22:05Z</time>
      </trkpt>
      <trkpt lat="44.72912" lon="5.27446">
        <ele>327</ele>
        <time>2019-04-19T04:23:05Z</time>
      </trkpt>
      <trkpt lat="44.72835" lon="5.2748">
        <ele>326</ele>
        <time>2019-04-19T04:24:05Z</time>
      </trkpt>
      <trkpt lat="44.72811" lon="5.27485">
        <ele>326</ele>
        <time>2019-04-19T04:25:05Z</time>
      </trkpt>
      <trkpt lat="44.72721" lon="5.27484">
        <ele>326</ele>
        <time>2019-04-19T04:26:05Z</time>
      </trkpt>
      <trkpt lat="44.72698" lon="5.27473">
        <ele>325</ele>
        <time>2019-04-19T04:27:05Z</time>
      </trkpt>
      <trkpt lat="44.72636" lon="5.27415">
        <ele>325</ele>
        <time>2019-04-19T04:28:05Z</time>
      </trkpt>
      <trkpt lat="44.72622" lon="5.27411">
        <ele>325</ele>
        <time>2019-04-19T04:29:05Z</time>
      </trkpt>
      <trkpt lat="44.72608" lon="5.27412">
        <ele>325</ele>
        <time>2019-04-19T04:30:05Z</time>
      </trkpt>
      <trkpt lat="44.72561" lon="5.27426">
        <ele>331</ele>
        <time>2019-04-19T04:31:05Z</time>
      </trkpt>
      <trkpt lat="44.72543" lon="5.27398">
        <ele>333</ele>
        <time>2019-04-19T04:32:05Z</time>
      </trkpt>
      <trkpt lat="44.72526" lon="5.27321">
        <ele>327</ele>
        <time>2019-04-19T04:33:05Z</time>
      </trkpt>
      <trkpt lat="44.72515" lon="5.27301">
        <ele>327</ele>
        <time>2019-04-19T04:34:05Z</time>
      </trkpt>
      <trkpt lat="44.72499" lon="5.27281">
        <ele>326</ele>
        <time>2019-04-19T04:35:05Z</time>
      </trkpt>
      <trkpt lat="44.72347" lon="5.27203">
        <ele>319</ele>
        <time>2019-04-19T04:36:05Z</time>
      </trkpt>
      <trkpt lat="44.72327" lon="5.27202">
        <ele>319</ele>
        <time>2019-04-19T04:37:05Z</time>
      </trkpt>
      <trkpt lat="44.72304" lon="5.27215">
        <ele>319</ele>
        <time>2019-04-19T04:38:05Z</time>
      </trkpt>
      <trkpt lat="44.72272" lon="5.27238">
        <ele>320</ele>
        <time>2019-04-19T04:39:05Z</time>
      </trkpt>
      <trkpt lat="44.72255" lon="5.27245">
        <ele>319</ele>
        <time>2019-04-19T04:40:05Z</time>
      </trkpt>
      <trkpt lat="44.72192" lon="5.27257">
        <ele>316</ele>
        <time>2019-04-19T04:41:05Z</time>
      </trkpt>
      <trkpt lat="44.72162" lon="5.27267">
        <ele>315</ele>
        <time>2019-04-19T04:42:05Z</time>
      </trkpt>
      <trkpt lat="44.72106" lon="5.27295">
        <ele>315</ele>
        <time>2019-04-19T04:43:05Z</time>
      </trkpt>
      <trkpt lat="44.72069" lon="5.27301">
        <ele>316</ele>
        <time>2019-04-19T04:44:05Z</time>
      </trkpt>
      <trkpt lat="44.71798" lon="5.27307">
        <ele>318</ele>
        <time>2019-04-19T04:45:05Z</time>
      </trkpt>
      <trkpt lat="44.71721" lon="5.27296">
        <ele>316</ele>
        <time>2019-04-19T04:46:05Z</time>
      </trkpt>
      <trkpt lat="44.71685" lon="5.27298">
        <ele>316</ele>
        <time>2019-04-19T04:47:05Z</time>
      </trkpt>
      <trkpt lat="44.71555" lon="5.27338">
        <ele>316</ele>
        <time>2019-04-19T04:48:05Z</time>
      </trkpt>
      <trkpt lat="44.71416" lon="5.27356">
        <ele>314</ele>
        <time>2019-04-19T04:49:05Z</time>
      </trkpt>
      <trkpt lat="44.71385" lon="5.27364">
        <ele>314</ele>
        <time>2019-04-19T04:50:05Z</time>
      </trkpt>
      <trkpt lat="44.71364" lon="5.27367">
        <ele>314</ele>
        <time>2019-04-19T04:51:05Z</time>
      </trkpt>
      <trkpt lat="44.71355" lon="5.27365">
        <ele>313</ele>
        <time>2019-04-19T04:52:05Z</time>
      </trkpt>
      <trkpt lat="44.71341" lon="5.27357">
        <ele>313</ele>
        <time>2019-04-19T04:53:05Z</time>
      </trkpt>
      <trkpt lat="44.71309" lon="5.27325">
        <ele>311</ele>
        <time>2019-04-19T04:54:05Z</time>
      </trkpt>
      <trkpt lat="44.71209" lon="5.27281">
        <ele>310</ele>
        <time>2019-04-19T04:55:05Z</time>
      </trkpt>
      <trkpt lat="44.71157" lon="5.27239">
        <ele>308</ele>
        <time>2019-04-19T04:56:05Z</time>
      </trkpt>
      <trkpt lat="44.71129" lon="5.2722">
        <ele>307</ele>
        <time>2019-04-19T04:57:05Z</time>
      </trkpt>
      <trkpt lat="44.70969" lon="5.2715">
        <ele>308</ele>
        <time>2019-04-19T04:58:05Z</time>
      </trkpt>
      <trkpt lat="44.70921" lon="5.27151">
        <ele>309</ele>
        <time>2019-04-19T04:59:05Z</time>
      </trkpt>
      <trkpt lat="44.70857" lon="5.27144">
        <ele>312</ele>
        <time>2019-04-19T05:00:05Z</time>
      </trkpt>
      <trkpt lat="44.70803" lon="5.27104">
        <ele>311</ele>
        <time>2019-04-19T05:01:05Z</time>
      </trkpt>
      <trkpt lat="44.70753" lon="5.2706">
        <ele>306</ele>
        <time>2019-04-19T05:02:05Z</time>
      </trkpt>
      <trkpt lat="44.70708" lon="5.27032">
        <ele>307</ele>
        <time>2019-04-19T05:03:05Z</time>
      </trkpt>
      <trkpt lat="44.70505" lon="5.26965">
        <ele>306</ele>
        <time>2019-04-19T05:04:05Z</time>
      </trkpt>
      <trkpt lat="44.70399" lon="5.26865">
        <ele>309</ele>
        <time>2019-04-19T05:05:05Z</time>
      </trkpt>
      <trkpt lat="44.70316" lon="5.2678">
        <ele>309</ele>
        <time>2019-04-19T05:06:05Z</time>
      </trkpt>
      <trkpt lat="44.70255" lon="5.26686">
        <ele>304</ele>
        <time>2019-04-19T05:07:05Z</time>
      </trkpt>
      <trkpt lat="44.70181" lon="5.26568">
        <ele>302</ele>
        <time>2019-04-19T05:08:05Z</time>
      </trkpt>
      <trkpt lat="44.70151" lon="5.26531">
        <ele>300</ele>
        <time>2019-04-19T05:09:05Z</time>
      </trkpt>
      <trkpt lat="44.70133" lon="5.26521">
        <ele>299</ele>
        <time>2019-04-19T05:10:05Z</time>
      </trkpt>
      <trkpt lat="44.70093" lon="5.2653">
        <ele>300</ele>
        <time>2019-04-19T05:11:05Z</time>
      </trkpt>
      <trkpt lat="44.70049" lon="5.26557">
        <ele>303</ele>
        <time>2019-04-19T05:12:05Z</time>
      </trkpt>
      <trkpt lat="44.70032" lon="5.26561">
        <ele>303</ele>
        <time>2019-04-19T05:13:05Z</time>
      </trkpt>
      <trkpt lat="44.69958" lon="5.26517">
        <ele>305</ele>
        <time>2019-04-19T05:14:05Z</time>
      </trkpt>
      <trkpt lat="44.69922" lon="5.26486">
        <ele>306</ele>
        <time>2019-04-19T05:15:05Z</time>
      </trkpt>
      <trkpt lat="44.69899" lon="5.26447">
        <ele>310</ele>
        <time>2019-04-19T05:16:05Z</time>
      </trkpt>
      <trkpt lat="44.69885" lon="5.26371">
        <ele>308</ele>
        <time>2019-04-19T05:17:05Z</time>
      </trkpt>
      <trkpt lat="44.6985" lon="5.26263">
        <ele>304</ele>
        <time>2019-04-19T05:18:05Z</time>
      </trkpt>
      <trkpt lat="44.69819" lon="5.26198">
        <ele>301</ele>
        <time>2019-04-19T05:19:05Z</time>
      </trkpt>
      <trkpt lat="44.69794" lon="5.26162">
        <ele>299</ele>
        <time>2019-04-19T05:20:05Z</time>
      </trkpt>
      <trkpt lat="44.69738" lon="5.26123">
        <ele>300</ele>
        <time>2019-04-19T05:21:05Z</time>
      </trkpt>
      <trkpt lat="44.69699" lon="5.261">
        <ele>299</ele>
        <time>2019-04-19T05:22:05Z</time>
      </trkpt>
      <trkpt lat="44.6964" lon="5.26097">
        <ele>298</ele>
        <time>2019-04-19T05:23:05Z</time>
      </trkpt>
      <trkpt lat="44.69571" lon="5.26131">
        <ele>297</ele>
        <time>2019-04-19T05:24:05Z</time>
      </trkpt>
      <trkpt lat="44.69463" lon="5.25869">
        <ele>299</ele>
        <time>2019-04-19T05:25:05Z</time>
      </trkpt>
      <trkpt lat="44.69456" lon="5.25822">
        <ele>303</ele>
        <time>2019-04-19T05:26:05Z</time>
      </trkpt>
      <trkpt lat="44.69477" lon="5.25702">
        <ele>306</ele>
        <time>2019-04-19T05:27:05Z</time>
      </trkpt>
      <trkpt lat="44.69493" lon="5.25664">
        <ele>303</ele>
        <time>2019-04-19T05:28:05Z</time>
      </trkpt>
      <trkpt lat="44.69531" lon="5.25595">
        <ele>303</ele>
        <time>2019-04-19T05:29:05Z</time>
      </trkpt>
      <trkpt lat="44.69574" lon="5.25527">
        <ele>303</ele>
        <time>2019-04-19T05:30:05Z</time>
      </trkpt>
      <trkpt lat="44.69587" lon="5.2545">
        <ele>307</ele>
        <time>2019-04-19T05:31:05Z</time>
      </trkpt>
      <trkpt lat="44.69602" lon="5.25393">
        <ele>307</ele>
        <time>2019-04-19T05:32:05Z</time>
      </trkpt>
      <trkpt lat="44.69633" lon="5.25288">
        <ele>300</ele>
        <time>2019-04-19T05:33:05Z</time>
      </trkpt>
      <trkpt lat="44.69635" lon="5.25227">
        <ele>298</ele>
        <time>2019-04-19T05:34:05Z</time>
      </trkpt>
      <trkpt lat="44.69618" lon="5.25043">
        <ele>300</ele>
        <time>2019-04-19T05:35:05Z</time>
      </trkpt>
      <trkpt lat="44.69627" lon="5.24909">
        <ele>298</ele>
        <time>2019-04-19T05:36:05Z</time>
      </trkpt>
      <trkpt lat="44.69614" lon="5.24779">
        <ele>296</ele>
        <time>2019-04-19T05:37:05Z</time>
      </trkpt>
      <trkpt lat="44.69575" lon="5.24595">
        <ele>292</ele>
        <time>2019-04-19T05:38:05Z</time>
      </trkpt>
      <trkpt lat="44.69529" lon="5.24432">
        <ele>291</ele>
        <time>2019-04-19T05:39:05Z</time>
      </trkpt>
      <trkpt lat="44.69459" lon="5.24294">
        <ele>293</ele>
        <time>2019-04-19T05:40:05Z</time>
      </trkpt>
      <trkpt lat="44.6938" lon="5.24155">
        <ele>294</ele>
        <time>2019-04-19T05:41:05Z</time>
      </trkpt>
      <trkpt lat="44.69311" lon="5.24037">
        <ele>289</ele>
        <time>2019-04-19T05:42:05Z</time>
      </trkpt>
      <trkpt lat="44.69254" lon="5.23986">
        <ele>291</ele>
        <time>2019-04-19T05:43:05Z</time>
      </trkpt>
      <trkpt lat="44.69196" lon="5.23957">
        <ele>292</ele>
        <time>2019-04-19T05:44:05Z</time>
      </trkpt>
      <trkpt lat="44.69114" lon="5.23926">
        <ele>292</ele>
        <time>2019-04-19T05:45:05Z</time>
      </trkpt>
      <trkpt lat="44.69045" lon="5.2388">
        <ele>295</ele>
        <time>2019-04-19T05:46:05Z</time>
      </trkpt>
      <trkpt lat="44.68966" lon="5.23821">
        <ele>290</ele>
        <time>2019-04-19T05:47:05Z</time>
      </trkpt>
      <trkpt lat="44.68996" lon="5.23763">
        <ele>292</ele>
        <time>2019-04-19T05:48:05Z</time>
      </trkpt>
      <trkpt lat="44.68922" lon="5.23635">
        <ele>291</ele>
        <time>2019-04-19T05:49:05Z</time>
      </trkpt>
      <trkpt lat="44.68905" lon="5.2358">
        <ele>294</ele>
        <time>2019-04-19T05:50:05Z</time>
      </trkpt>
      <trkpt lat="44.68891" lon="5.2352">
        <ele>294</ele>
        <time>2019-04-19T05:51:05Z</time>
      </trkpt>
      <trkpt lat="44.68882" lon="5.2345">
        <ele>294</ele>
        <time>2019-04-19T05:52:05Z</time>
      </trkpt>
      <trkpt lat="44.68883" lon="5.23176">
        <ele>294</ele>
        <time>2019-04-19T05:53:05Z</time>
      </trkpt>
      <trkpt lat="44.68878" lon="5.23109">
        <ele>296</ele>
        <time>2019-04-19T05:54:05Z</time>
      </trkpt>
      <trkpt lat="44.68862" lon="5.23012">
        <ele>290</ele>
        <time>2019-04-19T05:55:05Z</time>
      </trkpt>
      <trkpt lat="44.6886" lon="5.22927">
        <ele>286</ele>
        <time>2019-04-19T05:56:05Z</time>
      </trkpt>
      <trkpt lat="44.68873" lon="5.22839">
        <ele>283</ele>
        <time>2019-04-19T05:57:05Z</time>
      </trkpt>
      <trkpt lat="44.69026" lon="5.22002">
        <ele>277</ele>
        <time>2019-04-19T05:58:05Z</time>
      </trkpt>
      <trkpt lat="44.69038" lon="5.21909">
        <ele>278</ele>
        <time>2019-04-19T05:59:05Z</time>
      </trkpt>
      <trkpt lat="44.69052" lon="5.21824">
        <ele>280</ele>
        <time>2019-04-19T06:00:05Z</time>
      </trkpt>
      <trkpt lat="44.69081" lon="5.21747">
        <ele>276</ele>
        <time>2019-04-19T06:01:05Z</time>
      </trkpt>
      <trkpt lat="44.69119" lon="5.21685">
        <ele>286</ele>
        <time>2019-04-19T06:02:05Z</time>
      </trkpt>
      <trkpt lat="44.69147" lon="5.21633">
        <ele>290</ele>
        <time>2019-04-19T06:03:05Z</time>
      </trkpt>
      <trkpt lat="44.69169" lon="5.21577">
        <ele>290</ele>
        <time>2019-04-19T06:04:05Z</time>
      </trkpt>
      <trkpt lat="44.69177" lon="5.21518">
        <ele>295</ele>
        <time>2019-04-19T06:05:05Z</time>
      </trkpt>
      <trkpt lat="44.6917" lon="5.21472">
        <ele>293</ele>
        <time>2019-04-19T06:06:05Z</time>
      </trkpt>
      <trkpt lat="44.69156" lon="5.21433">
        <ele>292</ele>
        <time>2019-04-19T06:07:05Z</time>
      </trkpt>
      <trkpt lat="44.69136" lon="5.21396">
        <ele>294</ele>
        <time>2019-04-19T06:08:05Z</time>
      </trkpt>
      <trkpt lat="44.69088" lon="5.21337">
        <ele>281</ele>
        <time>2019-04-19T06:09:05Z</time>
      </trkpt>
      <trkpt lat="44.68989" lon="5.21224">
        <ele>283</ele>
        <time>2019-04-19T06:10:05Z</time>
      </trkpt>
      <trkpt lat="44.68979" lon="5.2119">
        <ele>287</ele>
        <time>2019-04-19T06:11:05Z</time>
      </trkpt>
      <trkpt lat="44.6898" lon="5.21157">
        <ele>289</ele>
        <time>2019-04-19T06:12:05Z</time>
      </trkpt>
      <trkpt lat="44.68994" lon="5.21115">
        <ele>286</ele>
        <time>2019-04-19T06:13:05Z</time>
      </trkpt>
      <trkpt lat="44.69018" lon="5.21065">
        <ele>290</ele>
        <time>2019-04-19T06:14:05Z</time>
      </trkpt>
      <trkpt lat="44.69022" lon="5.21018">
        <ele>288</ele>
        <time>2019-04-19T06:15:05Z</time>
      </trkpt>
      <trkpt lat="44.69024" lon="5.20956">
        <ele>284</ele>
        <time>2019-04-19T06:16:05Z</time>
      </trkpt>
      <trkpt lat="44.69034" lon="5.20907">
        <ele>284</ele>
        <time>2019-04-19T06:17:05Z</time>
      </trkpt>
      <trkpt lat="44.69058" lon="5.20853">
        <ele>283</ele>
        <time>2019-04-19T06:18:05Z</time>
      </trkpt>
      <trkpt lat="44.69101" lon="5.2079">
        <ele>282</ele>
        <time>2019-04-19T06:19:05Z</time>
      </trkpt>
      <trkpt lat="44.69191" lon="5.20672">
        <ele>280</ele>
        <time>2019-04-19T06:20:05Z</time>
      </trkpt>
      <trkpt lat="44.69258" lon="5.20569">
        <ele>277</ele>
        <time>2019-04-19T06:21:05Z</time>
      </trkpt>
      <trkpt lat="44.69292" lon="5.20505">
        <ele>272</ele>
        <time>2019-04-19T06:22:05Z</time>
      </trkpt>
      <trkpt lat="44.69377" lon="5.20327">
        <ele>271</ele>
        <time>2019-04-19T06:23:05Z</time>
      </trkpt>
      <trkpt lat="44.69406" lon="5.20264">
        <ele>275</ele>
        <time>2019-04-19T06:24:05Z</time>
      </trkpt>
      <trkpt lat="44.69455" lon="5.20118">
        <ele>277</ele>
        <time>2019-04-19T06:25:05Z</time>
      </trkpt>
      <trkpt lat="44.69466" lon="5.2009">
        <ele>276</ele>
        <time>2019-04-19T06:26:05Z</time>
      </trkpt>
      <trkpt lat="44.69497" lon="5.19991">
        <ele>273</ele>
        <time>2019-04-19T06:27:05Z</time>
      </trkpt>
      <trkpt lat="44.69502" lon="5.19946">
        <ele>271</ele>
        <time>2019-04-19T06:28:05Z</time>
      </trkpt>
      <trkpt lat="44.69505" lon="5.19895">
        <ele>271</ele>
        <time>2019-04-19T06:29:05Z</time>
      </trkpt>
      <trkpt lat="44.69503" lon="5.19792">
        <ele>270</ele>
        <time>2019-04-19T06:30:05Z</time>
      </trkpt>
      <trkpt lat="44.69481" lon="5.19529">
        <ele>270</ele>
        <time>2019-04-19T06:31:05Z</time>
      </trkpt>
      <trkpt lat="44.69434" lon="5.19171">
        <ele>266</ele>
        <time>2019-04-19T06:32:05Z</time>
      </trkpt>
      <trkpt lat="44.69419" lon="5.19099">
        <ele>261</ele>
        <time>2019-04-19T06:33:05Z</time>
      </trkpt>
      <trkpt lat="44.69397" lon="5.19022">
        <ele>259</ele>
        <time>2019-04-19T06:34:05Z</time>
      </trkpt>
      <trkpt lat="44.6937" lon="5.1895">
        <ele>258</ele>
        <time>2019-04-19T06:35:05Z</time>
      </trkpt>
      <trkpt lat="44.69322" lon="5.18844">
        <ele>257</ele>
        <time>2019-04-19T06:36:05Z</time>
      </trkpt>
      <trkpt lat="44.6929" lon="5.18761">
        <ele>258</ele>
        <time>2019-04-19T06:37:05Z</time>
      </trkpt>
      <trkpt lat="44.69272" lon="5.18704">
        <ele>258</ele>
        <time>2019-04-19T06:38:05Z</time>
      </trkpt>
      <trkpt lat="44.69215" lon="5.18377">
        <ele>255</ele>
        <time>2019-04-19T06:39:05Z</time>
      </trkpt>
      <trkpt lat="44.69203" lon="5.18279">
        <ele>255</ele>
        <time>2019-04-19T06:40:05Z</time>
      </trkpt>
      <trkpt lat="44.69202" lon="5.18196">
        <ele>255</ele>
        <time>2019-04-19T06:41:05Z</time>
      </trkpt>
      <trkpt lat="44.69256" lon="5.17809">
        <ele>253</ele>
        <time>2019-04-19T06:42:05Z</time>
      </trkpt>
      <trkpt lat="44.69264" lon="5.17713">
        <ele>251</ele>
        <time>2019-04-19T06:43:05Z</time>
      </trkpt>
      <trkpt lat="44.69266" lon="5.17593">
        <ele>250</ele>
        <time>2019-04-19T06:44:05Z</time>
      </trkpt>
      <trkpt lat="44.69255" lon="5.1759">
        <ele>250</ele>
        <time>2019-04-19T06:45:05Z</time>
      </trkpt>
      <trkpt lat="44.69238" lon="5.17579">
        <ele>252</ele>
        <time>2019-04-19T06:46:05Z</time>
      </trkpt>
      <trkpt lat="44.69238" lon="5.17556">
        <ele>253</ele>
        <time>2019-04-19T06:47:05Z</time>
      </trkpt>
      <trkpt lat="44.69245" lon="5.17538">
        <ele>252</ele>
        <time>2019-04-19T06:48:05Z</time>
      </trkpt>
      <trkpt lat="44.69248" lon="5.1752">
        <ele>252</ele>
        <time>2019-04-19T06:49:05Z</time>
      </trkpt>
      <trkpt lat="44.69246" lon="5.17501">
        <ele>253</ele>
        <time>2019-04-19T06:50:05Z</time>
      </trkpt>
      <trkpt lat="44.69232" lon="5.17428">
        <ele>254</ele>
        <time>2019-04-19T06:51:05Z</time>
      </trkpt>
      <trkpt lat="44.69226" lon="5.17367">
        <ele>254</ele>
        <time>2019-04-19T06:52:05Z</time>
      </trkpt>
      <trkpt lat="44.69212" lon="5.17323">
        <ele>255</ele>
        <time>2019-04-19T06:53:05Z</time>
      </trkpt>
      <trkpt lat="44.69219" lon="5.17265">
        <ele>253</ele>
        <time>2019-04-19T06:54:05Z</time>
      </trkpt>
      <trkpt lat="44.6921" lon="5.17129">
        <ele>259</ele>
        <time>2019-04-19T06:55:05Z</time>
      </trkpt>
      <trkpt lat="44.69211" lon="5.1708">
        <ele>262</ele>
        <time>2019-04-19T06:56:05Z</time>
      </trkpt>
      <trkpt lat="44.69228" lon="5.16983">
        <ele>260</ele>
        <time>2019-04-19T06:57:05Z</time>
      </trkpt>
      <trkpt lat="44.69242" lon="5.16884">
        <ele>258</ele>
        <time>2019-04-19T06:58:05Z</time>
      </trkpt>
      <trkpt lat="44.69251" lon="5.16855">
        <ele>256</ele>
        <time>2019-04-19T06:59:05Z</time>
      </trkpt>
      <trkpt lat="44.69264" lon="5.16828">
        <ele>255</ele>
        <time>2019-04-19T07:00:05Z</time>
      </trkpt>
      <trkpt lat="44.6931" lon="5.16773">
        <ele>250</ele>
        <time>2019-04-19T07:01:05Z</time>
      </trkpt>
      <trkpt lat="44.69332" lon="5.16737">
        <ele>248</ele>
        <time>2019-04-19T07:02:05Z</time>
      </trkpt>
      <trkpt lat="44.69367" lon="5.16635">
        <ele>248</ele>
        <time>2019-04-19T07:03:05Z</time>
      </trkpt>
      <trkpt lat="44.69386" lon="5.16502">
        <ele>248</ele>
        <time>2019-04-19T07:04:05Z</time>
      </trkpt>
      <trkpt lat="44.69391" lon="5.16431">
        <ele>246</ele>
        <time>2019-04-19T07:05:05Z</time>
      </trkpt>
      <trkpt lat="44.69388" lon="5.16354">
        <ele>247</ele>
        <time>2019-04-19T07:06:05Z</time>
      </trkpt>
      <trkpt lat="44.69388" lon="5.16307">
        <ele>247</ele>
        <time>2019-04-19T07:07:05Z</time>
      </trkpt>
      <trkpt lat="44.69393" lon="5.16268">
        <ele>247</ele>
        <time>2019-04-19T07:08:05Z</time>
      </trkpt>
      <trkpt lat="44.69403" lon="5.16211">
        <ele>247</ele>
        <time>2019-04-19T07:09:05Z</time>
      </trkpt>
      <trkpt lat="44.69411" lon="5.16153">
        <ele>247</ele>
        <time>2019-04-19T07:10:05Z</time>
      </trkpt>
      <trkpt lat="44.69414" lon="5.1608">
        <ele>247</ele>
        <time>2019-04-19T07:11:05Z</time>
      </trkpt>
      <trkpt lat="44.69444" lon="5.15966">
        <ele>249</ele>
        <time>2019-04-19T07:12:05Z</time>
      </trkpt>
      <trkpt lat="44.69447" lon="5.15891">
        <ele>251</ele>
        <time>2019-04-19T07:13:05Z</time>
      </trkpt>
      <trkpt lat="44.69462" lon="5.15833">
        <ele>250</ele>
        <time>2019-04-19T07:14:05Z</time>
      </trkpt>
      <trkpt lat="44.69465" lon="5.15773">
        <ele>249</ele>
        <time>2019-04-19T07:15:05Z</time>
      </trkpt>
      <trkpt lat="44.69445" lon="5.15748">
        <ele>251</ele>
        <time>2019-04-19T07:16:05Z</time>
      </trkpt>
      <trkpt lat="44.69416" lon="5.15706">
        <ele>253</ele>
        <time>2019-04-19T07:17:05Z</time>
      </trkpt>
      <trkpt lat="44.69377" lon="5.1563">
        <ele>259</ele>
        <time>2019-04-19T07:18:05Z</time>
      </trkpt>
      <trkpt lat="44.69359" lon="5.15597">
        <ele>260</ele>
        <time>2019-04-19T07:19:05Z</time>
      </trkpt>
      <trkpt lat="44.69322" lon="5.15525">
        <ele>259</ele>
        <time>2019-04-19T07:20:05Z</time>
      </trkpt>
      <trkpt lat="44.69297" lon="5.15428">
        <ele>256</ele>
        <time>2019-04-19T07:21:05Z</time>
      </trkpt>
      <trkpt lat="44.69293" lon="5.15393">
        <ele>255</ele>
        <time>2019-04-19T07:22:05Z</time>
      </trkpt>
      <trkpt lat="44.69291" lon="5.15334">
        <ele>256</ele>
        <time>2019-04-19T07:23:05Z</time>
      </trkpt>
      <trkpt lat="44.69285" lon="5.15274">
        <ele>254</ele>
        <time>2019-04-19T07:24:05Z</time>
      </trkpt>
      <trkpt lat="44.69245" lon="5.15163">
        <ele>254</ele>
        <time>2019-04-19T07:25:05Z</time>
      </trkpt>
      <trkpt lat="44.69223" lon="5.15087">
        <ele>256</ele>
        <time>2019-04-19T07:26:05Z</time>
      </trkpt>
      <trkpt lat="44.69235" lon="5.14886">
        <ele>255</ele>
        <time>2019-04-19T07:27:05Z</time>
      </trkpt>
      <trkpt lat="44.69238" lon="5.14807">
        <ele>254</ele>
        <time>2019-04-19T07:28:05Z</time>
      </trkpt>
      <trkpt lat="44.69261" lon="5.14648">
        <ele>251</ele>
        <time>2019-04-19T07:29:05Z</time>
      </trkpt>
      <trkpt lat="44.6926" lon="5.14574">
        <ele>255</ele>
        <time>2019-04-19T07:30:05Z</time>
      </trkpt>
      <trkpt lat="44.6926" lon="5.14496">
        <ele>253</ele>
        <time>2019-04-19T07:31:05Z</time>
      </trkpt>
      <trkpt lat="44.69272" lon="5.14308">
        <ele>259</ele>
        <time>2019-04-19T07:32:05Z</time>
      </trkpt>
      <trkpt lat="44.69268" lon="5.14066">
        <ele>258</ele>
        <time>2019-04-19T07:33:05Z</time>
      </trkpt>
      <trkpt lat="44.6927" lon="5.14019">
        <ele>254</ele>
        <time>2019-04-19T07:34:05Z</time>
      </trkpt>
      <trkpt lat="44.69276" lon="5.13993">
        <ele>252</ele>
        <time>2019-04-19T07:35:05Z</time>
      </trkpt>
      <trkpt lat="44.69298" lon="5.13928">
        <ele>248</ele>
        <time>2019-04-19T07:36:05Z</time>
      </trkpt>
      <trkpt lat="44.69334" lon="5.13855">
        <ele>243</ele>
        <time>2019-04-19T07:37:05Z</time>
      </trkpt>
      <trkpt lat="44.69351" lon="5.13843">
        <ele>242</ele>
        <time>2019-04-19T07:38:05Z</time>
      </trkpt>
      <trkpt lat="44.69372" lon="5.13831">
        <ele>240</ele>
        <time>2019-04-19T07:39:05Z</time>
      </trkpt>
      <trkpt lat="44.69375" lon="5.13817">
        <ele>240</ele>
        <time>2019-04-19T07:40:05Z</time>
      </trkpt>
      <trkpt lat="44.69368" lon="5.13768">
        <ele>240</ele>
        <time>2019-04-19T07:41:05Z</time>
      </trkpt>
      <trkpt lat="44.69375" lon="5.13706">
        <ele>239</ele>
        <time>2019-04-19T07:42:05Z</time>
      </trkpt>
      <trkpt lat="44.694" lon="5.13532">
        <ele>238</ele>
        <time>2019-04-19T07:43:05Z</time>
      </trkpt>
      <trkpt lat="44.69435" lon="5.13272">
        <ele>237</ele>
        <time>2019-04-19T07:44:05Z</time>
      </trkpt>
      <trkpt lat="44.69488" lon="5.1304">
        <ele>236</ele>
        <time>2019-04-19T07:45:05Z</time>
      </trkpt>
      <trkpt lat="44.69502" lon="5.12984">
        <ele>236</ele>
        <time>2019-04-19T07:46:05Z</time>
      </trkpt>
      <trkpt lat="44.69516" lon="5.12823">
        <ele>234</ele>
        <time>2019-04-19T07:47:05Z</time>
      </trkpt>
      <trkpt lat="44.69523" lon="5.12692">
        <ele>237</ele>
        <time>2019-04-19T07:48:05Z</time>
      </trkpt>
      <trkpt lat="44.69511" lon="5.12546">
        <ele>235</ele>
        <time>2019-04-19T07:49:05Z</time>
      </trkpt>
      <trkpt lat="44.69509" lon="5.125">
        <ele>235</ele>
        <time>2019-04-19T07:50:05Z</time>
      </trkpt>
      <trkpt lat="44.69512" lon="5.12307">
        <ele>236</ele>
        <time>2019-04-19T07:51:05Z</time>
      </trkpt>
      <trkpt lat="44.69518" lon="5.12212">
        <ele>235</ele>
        <time>2019-04-19T07:52:05Z</time>
      </trkpt>
      <trkpt lat="44.69521" lon="5.1218">
        <ele>235</ele>
        <time>2019-04-19T07:53:05Z</time>
      </trkpt>
      <trkpt lat="44.69538" lon="5.12125">
        <ele>234</ele>
        <time>2019-04-19T07:54:05Z</time>
      </trkpt>
      <trkpt lat="44.69576" lon="5.12018">
        <ele>231</ele>
        <time>2019-04-19T07:55:05Z</time>
      </trkpt>
      <trkpt lat="44.69725" lon="5.11742">
        <ele>233</ele>
        <time>2019-04-19T07:56:05Z</time>
      </trkpt>
      <trkpt lat="44.6978" lon="5.1163">
        <ele>232</ele>
        <time>2019-04-19T07:57:05Z</time>
      </trkpt>
      <trkpt lat="44.69816" lon="5.1155">
        <ele>232</ele>
        <time>2019-04-19T07:58:05Z</time>
      </trkpt>
      <trkpt lat="44.69853" lon="5.11442">
        <ele>231</ele>
        <time>2019-04-19T07:59:05Z</time>
      </trkpt>
      <trkpt lat="44.69864" lon="5.11404">
        <ele>231</ele>
        <time>2019-04-19T08:00:05Z</time>
      </trkpt>
      <trkpt lat="44.69876" lon="5.11275">
        <ele>229</ele>
        <time>2019-04-19T08:01:05Z</time>
      </trkpt>
      <trkpt lat="44.69886" lon="5.11199">
        <ele>229</ele>
        <time>2019-04-19T08:02:05Z</time>
      </trkpt>
      <trkpt lat="44.69894" lon="5.11167">
        <ele>230</ele>
        <time>2019-04-19T08:03:05Z</time>
      </trkpt>
      <trkpt lat="44.69943" lon="5.11044">
        <ele>231</ele>
        <time>2019-04-19T08:04:05Z</time>
      </trkpt>
      <trkpt lat="44.70006" lon="5.10861">
        <ele>230</ele>
        <time>2019-04-19T08:05:05Z</time>
      </trkpt>
      <trkpt lat="44.70018" lon="5.10812">
        <ele>229</ele>
        <time>2019-04-19T08:06:05Z</time>
      </trkpt>
      <trkpt lat="44.70111" lon="5.10366">
        <ele>225</ele>
        <time>2019-04-19T08:07:05Z</time>
      </trkpt>
      <trkpt lat="44.70137" lon="5.10283">
        <ele>225</ele>
        <time>2019-04-19T08:08:05Z</time>
      </trkpt>
      <trkpt lat="44.70181" lon="5.10154">
        <ele>224</ele>
        <time>2019-04-19T08:09:05Z</time>
      </trkpt>
      <trkpt lat="44.70203" lon="5.10073">
        <ele>224</ele>
        <time>2019-04-19T08:10:05Z</time>
      </trkpt>
      <trkpt lat="44.70214" lon="5.09964">
        <ele>224</ele>
        <time>2019-04-19T08:11:05Z</time>
      </trkpt>
      <trkpt lat="44.70223" lon="5.0993">
        <ele>224</ele>
        <time>2019-04-19T08:12:05Z</time>
      </trkpt>
      <trkpt lat="44.70206" lon="5.09883">
        <ele>224</ele>
        <time>2019-04-19T08:13:05Z</time>
      </trkpt>
      <trkpt lat="44.70202" lon="5.09844">
        <ele>224</ele>
        <time>2019-04-19T08:14:05Z</time>
      </trkpt>
      <trkpt lat="44.70228" lon="5.09725">
        <ele>223</ele>
        <time>2019-04-19T08:15:05Z</time>
      </trkpt>
      <trkpt lat="44.70243" lon="5.09699">
        <ele>222</ele>
        <time>2019-04-19T08:16:05Z</time>
      </trkpt>
      <trkpt lat="44.70308" lon="5.09554">
        <ele>220</ele>
        <time>2019-04-19T08:17:05Z</time>
      </trkpt>
      <trkpt lat="44.70334" lon="5.0951">
        <ele>220</ele>
        <time>2019-04-19T08:18:05Z</time>
      </trkpt>
      <trkpt lat="44.70348" lon="5.09465">
        <ele>220</ele>
        <time>2019-04-19T08:19:05Z</time>
      </trkpt>
      <trkpt lat="44.70355" lon="5.09435">
        <ele>220</ele>
        <time>2019-04-19T08:20:05Z</time>
      </trkpt>
      <trkpt lat="44.70357" lon="5.09404">
        <ele>220</ele>
        <time>2019-04-19T08:21:05Z</time>
      </trkpt>
      <trkpt lat="44.70366" lon="5.0916">
        <ele>219</ele>
        <time>2019-04-19T08:22:05Z</time>
      </trkpt>
      <trkpt lat="44.70371" lon="5.09128">
        <ele>219</ele>
        <time>2019-04-19T08:23:05Z</time>
      </trkpt>
      <trkpt lat="44.70439" lon="5.08893">
        <ele>219</ele>
        <time>2019-04-19T08:24:05Z</time>
      </trkpt>
      <trkpt lat="44.70445" lon="5.08868">
        <ele>218</ele>
        <time>2019-04-19T08:25:05Z</time>
      </trkpt>
      <trkpt lat="44.70455" lon="5.08862">
        <ele>218</ele>
        <time>2019-04-19T08:26:05Z</time>
      </trkpt>
      <trkpt lat="44.70467" lon="5.08862">
        <ele>218</ele>
        <time>2019-04-19T08:27:05Z</time>
      </trkpt>
      <trkpt lat="44.70467" lon="5.08874">
        <ele>218</ele>
        <time>2019-04-19T08:28:05Z</time>
      </trkpt>
      <trkpt lat="44.70472" lon="5.08885">
        <ele>218</ele>
        <time>2019-04-19T08:29:05Z</time>
      </trkpt>
      <trkpt lat="44.70476" lon="5.08888">
        <ele>218</ele>
        <time>2019-04-19T08:30:05Z</time>
      </trkpt>
      <trkpt lat="44.70486" lon="5.08889">
        <ele>218</ele>
        <time>2019-04-19T08:31:05Z</time>
      </trkpt>
      <trkpt lat="44.70494" lon="5.08882">
        <ele>217</ele>
        <time>2019-04-19T08:32:05Z</time>
      </trkpt>
      <trkpt lat="44.70496" lon="5.08876">
        <ele>217</ele>
        <time>2019-04-19T08:33:05Z</time>
      </trkpt>
      <trkpt lat="44.70524" lon="5.08891">
        <ele>217</ele>
        <time>2019-04-19T08:34:05Z</time>
      </trkpt>
      <trkpt lat="44.70619" lon="5.08915">
        <ele>217</ele>
        <time>2019-04-19T08:35:05Z</time>
      </trkpt>
      <trkpt lat="44.70673" lon="5.08934">
        <ele>215</ele>
        <time>2019-04-19T08:36:05Z</time>
      </trkpt>
      <trkpt lat="44.70922" lon="5.09067">
        <ele>219</ele>
        <time>2019-04-19T08:37:05Z</time>
      </trkpt>
      <trkpt lat="44.70934" lon="5.0908">
        <ele>220</ele>
        <time>2019-04-19T08:38:05Z</time>
      </trkpt>
      <trkpt lat="44.70946" lon="5.09097">
        <ele>221</ele>
        <time>2019-04-19T08:39:05Z</time>
      </trkpt>
      <trkpt lat="44.70947" lon="5.09101">
        <ele>221</ele>
        <time>2019-04-19T08:40:05Z</time>
      </trkpt>
      <trkpt lat="44.70952" lon="5.09108">
        <ele>222</ele>
        <time>2019-04-19T08:41:05Z</time>
      </trkpt>
      <trkpt lat="44.70954" lon="5.09108">
        <ele>222</ele>
        <time>2019-04-19T08:42:05Z</time>
      </trkpt>
      <trkpt lat="44.71035" lon="5.09065">
        <ele>221</ele>
        <time>2019-04-19T08:43:05Z</time>
      </trkpt>
      <trkpt lat="44.71045" lon="5.09053">
        <ele>220</ele>
        <time>2019-04-19T08:44:05Z</time>
      </trkpt>
      <trkpt lat="44.71054" lon="5.09042">
        <ele>219</ele>
        <time>2019-04-19T08:45:05Z</time>
      </trkpt>
      <trkpt lat="44.71141" lon="5.08883">
        <ele>219</ele>
        <time>2019-04-19T08:46:05Z</time>
      </trkpt>
      <trkpt lat="44.7115" lon="5.08864">
        <ele>219</ele>
        <time>2019-04-19T08:47:05Z</time>
      </trkpt>
      <trkpt lat="44.71156" lon="5.08847">
        <ele>219</ele>
        <time>2019-04-19T08:48:05Z</time>
      </trkpt>
      <trkpt lat="44.71193" lon="5.08708">
        <ele>219</ele>
        <time>2019-04-19T08:49:05Z</time>
      </trkpt>
      <trkpt lat="44.71236" lon="5.08529">
        <ele>222</ele>
        <time>2019-04-19T08:50:05Z</time>
      </trkpt>
      <trkpt lat="44.71243" lon="5.08487">
        <ele>223</ele>
        <time>2019-04-19T08:51:05Z</time>
      </trkpt>
      <trkpt lat="44.71243" lon="5.08459">
        <ele>223</ele>
        <time>2019-04-19T08:52:05Z</time>
      </trkpt>
      <trkpt lat="44.71234" lon="5.08411">
        <ele>222</ele>
        <time>2019-04-19T08:53:05Z</time>
      </trkpt>
      <trkpt lat="44.71212" lon="5.08313">
        <ele>219</ele>
        <time>2019-04-19T08:54:05Z</time>
      </trkpt>
      <trkpt lat="44.71212" lon="5.08292">
        <ele>218</ele>
        <time>2019-04-19T08:55:05Z</time>
      </trkpt>
      <trkpt lat="44.71222" lon="5.08216">
        <ele>216</ele>
        <time>2019-04-19T08:56:05Z</time>
      </trkpt>
      <trkpt lat="44.71227" lon="5.08185">
        <ele>215</ele>
        <time>2019-04-19T08:57:05Z</time>
      </trkpt>
      <trkpt lat="44.71236" lon="5.08153">
        <ele>215</ele>
        <time>2019-04-19T08:58:05Z</time>
      </trkpt>
      <trkpt lat="44.71251" lon="5.08113">
        <ele>215</ele>
        <time>2019-04-19T08:59:05Z</time>
      </trkpt>
      <trkpt lat="44.7145" lon="5.07793">
        <ele>217</ele>
        <time>2019-04-19T09:00:05Z</time>
      </trkpt>
      <trkpt lat="44.7152" lon="5.0771">
        <ele>219</ele>
        <time>2019-04-19T09:01:05Z</time>
      </trkpt>
      <trkpt lat="44.7153" lon="5.07655">
        <ele>216</ele>
        <time>2019-04-19T09:02:05Z</time>
      </trkpt>
      <trkpt lat="44.71529" lon="5.07386">
        <ele>207</ele>
        <time>2019-04-19T09:03:05Z</time>
      </trkpt>
      <trkpt lat="44.71527" lon="5.07307">
        <ele>206</ele>
        <time>2019-04-19T09:04:05Z</time>
      </trkpt>
      <trkpt lat="44.71517" lon="5.07192">
        <ele>205</ele>
        <time>2019-04-19T09:05:05Z</time>
      </trkpt>
      <trkpt lat="44.71494" lon="5.0698">
        <ele>207</ele>
        <time>2019-04-19T09:06:05Z</time>
      </trkpt>
      <trkpt lat="44.71489" lon="5.06926">
        <ele>206</ele>
        <time>2019-04-19T09:07:05Z</time>
      </trkpt>
      <trkpt lat="44.71488" lon="5.0687">
        <ele>206</ele>
        <time>2019-04-19T09:08:05Z</time>
      </trkpt>
      <trkpt lat="44.71495" lon="5.06685">
        <ele>207</ele>
        <time>2019-04-19T09:09:05Z</time>
      </trkpt>
      <trkpt lat="44.71506" lon="5.06453">
        <ele>208</ele>
        <time>2019-04-19T09:10:05Z</time>
      </trkpt>
      <trkpt lat="44.71524" lon="5.06117">
        <ele>210</ele>
        <time>2019-04-19T09:11:05Z</time>
      </trkpt>
      <trkpt lat="44.7153" lon="5.06079">
        <ele>209</ele>
        <time>2019-04-19T09:12:05Z</time>
      </trkpt>
      <trkpt lat="44.71535" lon="5.06081">
        <ele>210</ele>
        <time>2019-04-19T09:13:05Z</time>
      </trkpt>
      <trkpt lat="44.71539" lon="5.06079">
        <ele>210</ele>
        <time>2019-04-19T09:14:05Z</time>
      </trkpt>
      <trkpt lat="44.71544" lon="5.06072">
        <ele>211</ele>
        <time>2019-04-19T09:15:05Z</time>
      </trkpt>
      <trkpt lat="44.71543" lon="5.06061">
        <ele>210</ele>
        <time>2019-04-19T09:16:05Z</time>
      </trkpt>
      <trkpt lat="44.71586" lon="5.05949">
        <ele>209</ele>
        <time>2019-04-19T09:17:05Z</time>
      </trkpt>
      <trkpt lat="44.71595" lon="5.05931">
        <ele>208</ele>
        <time>2019-04-19T09:18:05Z</time>
      </trkpt>
      <trkpt lat="44.71612" lon="5.05908">
        <ele>208</ele>
        <time>2019-04-19T09:19:05Z</time>
      </trkpt>
      <trkpt lat="44.71642" lon="5.05882">
        <ele>209</ele>
        <time>2019-04-19T09:20:05Z</time>
      </trkpt>
      <trkpt lat="44.71659" lon="5.0587">
        <ele>209</ele>
        <time>2019-04-19T09:21:05Z</time>
      </trkpt>
      <trkpt lat="44.71665" lon="5.05844">
        <ele>210</ele>
        <time>2019-04-19T09:22:05Z</time>
      </trkpt>
      <trkpt lat="44.71666" lon="5.05825">
        <ele>210</ele>
        <time>2019-04-19T09:23:05Z</time>
      </trkpt>
      <trkpt lat="44.71672" lon="5.05807">
        <ele>211</ele>
        <time>2019-04-19T09:24:05Z</time>
      </trkpt>
      <trkpt lat="44.71678" lon="5.05799">
        <ele>211</ele>
        <time>2019-04-19T09:25:05Z</time>
      </trkpt>
      <trkpt lat="44.71678" lon="5.05794">
        <ele>211</ele>
        <time>2019-04-19T09:26:05Z</time>
      </trkpt>
      <trkpt lat="44.71673" lon="5.05773">
        <ele>211</ele>
        <time>2019-04-19T09:27:05Z</time>
      </trkpt>
      <trkpt lat="44.71683" lon="5.05671">
        <ele>213</ele>
        <time>2019-04-19T09:28:05Z</time>
      </trkpt>
      <trkpt lat="44.71684" lon="5.05635">
        <ele>214</ele>
        <time>2019-04-19T09:29:05Z</time>
      </trkpt>
      <trkpt lat="44.71682" lon="5.05613">
        <ele>214</ele>
        <time>2019-04-19T09:30:05Z</time>
      </trkpt>
      <trkpt lat="44.71672" lon="5.05566">
        <ele>213</ele>
        <time>2019-04-19T09:31:05Z</time>
      </trkpt>
      <trkpt lat="44.71668" lon="5.05537">
        <ele>213</ele>
        <time>2019-04-19T09:32:05Z</time>
      </trkpt>
      <trkpt lat="44.7167" lon="5.05505">
        <ele>213</ele>
        <time>2019-04-19T09:33:05Z</time>
      </trkpt>
      <trkpt lat="44.71676" lon="5.05461">
        <ele>214</ele>
        <time>2019-04-19T09:34:05Z</time>
      </trkpt>
      <trkpt lat="44.71677" lon="5.05408">
        <ele>214</ele>
        <time>2019-04-19T09:35:05Z</time>
      </trkpt>
      <trkpt lat="44.71671" lon="5.0537">
        <ele>213</ele>
        <time>2019-04-19T09:36:05Z</time>
      </trkpt>
      <trkpt lat="44.71671" lon="5.05346">
        <ele>213</ele>
        <time>2019-04-19T09:37:05Z</time>
      </trkpt>
      <trkpt lat="44.71674" lon="5.05303">
        <ele>212</ele>
        <time>2019-04-19T09:38:05Z</time>
      </trkpt>
      <trkpt lat="44.71684" lon="5.05196">
        <ele>208</ele>
        <time>2019-04-19T09:39:05Z</time>
      </trkpt>
      <trkpt lat="44.7169" lon="5.05162">
        <ele>207</ele>
        <time>2019-04-19T09:40:05Z</time>
      </trkpt>
      <trkpt lat="44.71712" lon="5.05088">
        <ele>204</ele>
        <time>2019-04-19T09:41:05Z</time>
      </trkpt>
      <trkpt lat="44.71727" lon="5.05021">
        <ele>202</ele>
        <time>2019-04-19T09:42:05Z</time>
      </trkpt>
      <trkpt lat="44.71735" lon="5.04963">
        <ele>199</ele>
        <time>2019-04-19T09:43:05Z</time>
      </trkpt>
      <trkpt lat="44.71736" lon="5.04941">
        <ele>199</ele>
        <time>2019-04-19T09:44:05Z</time>
      </trkpt>
      <trkpt lat="44.71734" lon="5.04927">
        <ele>198</ele>
        <time>2019-04-19T09:45:05Z</time>
      </trkpt>
      <trkpt lat="44.71728" lon="5.04913">
        <ele>198</ele>
        <time>2019-04-19T09:46:05Z</time>
      </trkpt>
      <trkpt lat="44.71711" lon="5.0489">
        <ele>198</ele>
        <time>2019-04-19T09:47:05Z</time>
      </trkpt>
      <trkpt lat="44.71709" lon="5.04875">
        <ele>197</ele>
        <time>2019-04-19T09:48:05Z</time>
      </trkpt>
      <trkpt lat="44.71711" lon="5.04864">
        <ele>197</ele>
        <time>2019-04-19T09:49:05Z</time>
      </trkpt>
      <trkpt lat="44.71717" lon="5.04841">
        <ele>197</ele>
        <time>2019-04-19T09:50:05Z</time>
      </trkpt>
      <trkpt lat="44.71881" lon="5.04486">
        <ele>196</ele>
        <time>2019-04-19T09:51:05Z</time>
      </trkpt>
      <trkpt lat="44.72205" lon="5.03796">
        <ele>194</ele>
        <time>2019-04-19T09:52:05Z</time>
      </trkpt>
      <trkpt lat="44.72224" lon="5.03772">
        <ele>194</ele>
        <time>2019-04-19T09:53:05Z</time>
      </trkpt>
      <trkpt lat="44.72234" lon="5.03768">
        <ele>194</ele>
        <time>2019-04-19T09:54:05Z</time>
      </trkpt>
      <trkpt lat="44.72238" lon="5.03762">
        <ele>195</ele>
        <time>2019-04-19T09:55:05Z</time>
      </trkpt>
      <trkpt lat="44.7224" lon="5.03755">
        <ele>195</ele>
        <time>2019-04-19T09:56:05Z</time>
      </trkpt>
      <trkpt lat="44.72238" lon="5.03741">
        <ele>195</ele>
        <time>2019-04-19T09:57:05Z</time>
      </trkpt>
      <trkpt lat="44.72254" lon="5.03692">
        <ele>194</ele>
        <time>2019-04-19T09:58:05Z</time>
      </trkpt>
      <trkpt lat="44.7231" lon="5.03574">
        <ele>193</ele>
        <time>2019-04-19T09:59:05Z</time>
      </trkpt>
      <trkpt lat="44.7237" lon="5.03441">
        <ele>193</ele>
        <time>2019-04-19T10:00:05Z</time>
      </trkpt>
      <trkpt lat="44.72392" lon="5.034">
        <ele>194</ele>
        <time>2019-04-19T10:01:05Z</time>
      </trkpt>
      <trkpt lat="44.72552" lon="5.03181">
        <ele>191</ele>
        <time>2019-04-19T10:02:05Z</time>
      </trkpt>
      <trkpt lat="44.72578" lon="5.03126">
        <ele>190</ele>
        <time>2019-04-19T10:03:05Z</time>
      </trkpt>
      <trkpt lat="44.72592" lon="5.03075">
        <ele>189</ele>
        <time>2019-04-19T10:04:05Z</time>
      </trkpt>
      <trkpt lat="44.72646" lon="5.02823">
        <ele>189</ele>
        <time>2019-04-19T10:05:05Z</time>
      </trkpt>
      <trkpt lat="44.72677" lon="5.02644">
        <ele>188</ele>
        <time>2019-04-19T10:06:05Z</time>
      </trkpt>
      <trkpt lat="44.72693" lon="5.02536">
        <ele>188</ele>
        <time>2019-04-19T10:07:05Z</time>
      </trkpt>
      <trkpt lat="44.72708" lon="5.02433">
        <ele>188</ele>
        <time>2019-04-19T10:08:05Z</time>
      </trkpt>
      <trkpt lat="44.72709" lon="5.02401">
        <ele>188</ele>
        <time>2019-04-19T10:09:05Z</time>
      </trkpt>
      <trkpt lat="44.72712" lon="5.02376">
        <ele>188</ele>
        <time>2019-04-19T10:10:05Z</time>
      </trkpt>
      <trkpt lat="44.72754" lon="5.0216">
        <ele>189</ele>
        <time>2019-04-19T10:11:05Z</time>
      </trkpt>
    </trkseg>
  </trk>
  <trk>
    <name><![CDATA[J15]]></name>
    <trkseg>
      <trkpt lat="44.72762" lon="5.02121">
        <ele>189</ele>
        <time>2019-04-18T09:52:52Z</time>
      </trkpt>
      <trkpt lat="44.72786" lon="5.02002">
        <ele>186</ele>
        <time>2019-04-18T09:53:52Z</time>
      </trkpt>
      <trkpt lat="44.72815" lon="5.01831">
        <ele>184</ele>
        <time>2019-04-18T09:54:52Z</time>
      </trkpt>
      <trkpt lat="44.72835" lon="5.01799">
        <ele>183</ele>
        <time>2019-04-18T09:55:52Z</time>
      </trkpt>
      <trkpt lat="44.72847" lon="5.01787">
        <ele>183</ele>
        <time>2019-04-18T09:56:52Z</time>
      </trkpt>
      <trkpt lat="44.73007" lon="5.01655">
        <ele>186</ele>
        <time>2019-04-18T09:57:52Z</time>
      </trkpt>
      <trkpt lat="44.73028" lon="5.01635">
        <ele>186</ele>
        <time>2019-04-18T09:58:52Z</time>
      </trkpt>
      <trkpt lat="44.73125" lon="5.01506">
        <ele>185</ele>
        <time>2019-04-18T09:59:52Z</time>
      </trkpt>
      <trkpt lat="44.73292" lon="5.01291">
        <ele>184</ele>
        <time>2019-04-18T10:00:52Z</time>
      </trkpt>
      <trkpt lat="44.73334" lon="5.01247">
        <ele>185</ele>
        <time>2019-04-18T10:01:52Z</time>
      </trkpt>
      <trkpt lat="44.73356" lon="5.01233">
        <ele>185</ele>
        <time>2019-04-18T10:02:52Z</time>
      </trkpt>
      <trkpt lat="44.73372" lon="5.01226">
        <ele>186</ele>
        <time>2019-04-18T10:03:52Z</time>
      </trkpt>
      <trkpt lat="44.73388" lon="5.01214">
        <ele>186</ele>
        <time>2019-04-18T10:04:52Z</time>
      </trkpt>
      <trkpt lat="44.73396" lon="5.01206">
        <ele>187</ele>
        <time>2019-04-18T10:05:52Z</time>
      </trkpt>
      <trkpt lat="44.7343" lon="5.01144">
        <ele>186</ele>
        <time>2019-04-18T10:06:52Z</time>
      </trkpt>
      <trkpt lat="44.73344" lon="5.01058">
        <ele>182</ele>
        <time>2019-04-18T10:07:52Z</time>
      </trkpt>
      <trkpt lat="44.73338" lon="5.01028">
        <ele>181</ele>
        <time>2019-04-18T10:08:52Z</time>
      </trkpt>
      <trkpt lat="44.73333" lon="5.0094">
        <ele>179</ele>
        <time>2019-04-18T10:09:52Z</time>
      </trkpt>
      <trkpt lat="44.73333" lon="5.00906">
        <ele>179</ele>
        <time>2019-04-18T10:10:52Z</time>
      </trkpt>
      <trkpt lat="44.73331" lon="5.00881">
        <ele>179</ele>
        <time>2019-04-18T10:11:52Z</time>
      </trkpt>
      <trkpt lat="44.73314" lon="5.00789">
        <ele>178</ele>
        <time>2019-04-18T10:12:52Z</time>
      </trkpt>
      <trkpt lat="44.73313" lon="5.00748">
        <ele>178</ele>
        <time>2019-04-18T10:13:52Z</time>
      </trkpt>
      <trkpt lat="44.73321" lon="5.00537">
        <ele>178</ele>
        <time>2019-04-18T10:14:52Z</time>
      </trkpt>
      <trkpt lat="44.73322" lon="5.00457">
        <ele>178</ele>
        <time>2019-04-18T10:15:52Z</time>
      </trkpt>
      <trkpt lat="44.7332" lon="5.00359">
        <ele>177</ele>
        <time>2019-04-18T10:16:52Z</time>
      </trkpt>
      <trkpt lat="44.73321" lon="5.00343">
        <ele>177</ele>
        <time>2019-04-18T10:17:52Z</time>
      </trkpt>
      <trkpt lat="44.73331" lon="5.00292">
        <ele>176</ele>
        <time>2019-04-18T10:18:52Z</time>
      </trkpt>
      <trkpt lat="44.73336" lon="5.00249">
        <ele>175</ele>
        <time>2019-04-18T10:19:52Z</time>
      </trkpt>
      <trkpt lat="44.73341" lon="5.00185">
        <ele>176</ele>
        <time>2019-04-18T10:20:52Z</time>
      </trkpt>
      <trkpt lat="44.73342" lon="5.00139">
        <ele>177</ele>
        <time>2019-04-18T10:21:52Z</time>
      </trkpt>
      <trkpt lat="44.7334" lon="5.00103">
        <ele>177</ele>
        <time>2019-04-18T10:22:52Z</time>
      </trkpt>
      <trkpt lat="44.73341" lon="5.00092">
        <ele>177</ele>
        <time>2019-04-18T10:23:52Z</time>
      </trkpt>
      <trkpt lat="44.73344" lon="5.00085">
        <ele>177</ele>
        <time>2019-04-18T10:24:52Z</time>
      </trkpt>
      <trkpt lat="44.73346" lon="5.00076">
        <ele>177</ele>
        <time>2019-04-18T10:25:52Z</time>
      </trkpt>
      <trkpt lat="44.73344" lon="5.00069">
        <ele>178</ele>
        <time>2019-04-18T10:26:52Z</time>
      </trkpt>
      <trkpt lat="44.73338" lon="5.00059">
        <ele>178</ele>
        <time>2019-04-18T10:27:52Z</time>
      </trkpt>
      <trkpt lat="44.73329" lon="5.00056">
        <ele>178</ele>
        <time>2019-04-18T10:28:52Z</time>
      </trkpt>
      <trkpt lat="44.73322" lon="5.00052">
        <ele>178</ele>
        <time>2019-04-18T10:29:52Z</time>
      </trkpt>
      <trkpt lat="44.73305" lon="5.00037">
        <ele>178</ele>
        <time>2019-04-18T10:30:52Z</time>
      </trkpt>
      <trkpt lat="44.73298" lon="5.00024">
        <ele>178</ele>
        <time>2019-04-18T10:31:52Z</time>
      </trkpt>
      <trkpt lat="44.73294" lon="4.99998">
        <ele>178</ele>
        <time>2019-04-18T10:32:52Z</time>
      </trkpt>
      <trkpt lat="44.73296" lon="4.99984">
        <ele>178</ele>
        <time>2019-04-18T10:33:52Z</time>
      </trkpt>
      <trkpt lat="44.73307" lon="4.99957">
        <ele>178</ele>
        <time>2019-04-18T10:34:52Z</time>
      </trkpt>
      <trkpt lat="44.73197" lon="4.99865">
        <ele>177</ele>
        <time>2019-04-18T10:35:52Z</time>
      </trkpt>
      <trkpt lat="44.73125" lon="4.99799">
        <ele>176</ele>
        <time>2019-04-18T10:36:52Z</time>
      </trkpt>
      <trkpt lat="44.73113" lon="4.99786">
        <ele>175</ele>
        <time>2019-04-18T10:37:52Z</time>
      </trkpt>
      <trkpt lat="44.7311" lon="4.99762">
        <ele>174</ele>
        <time>2019-04-18T10:38:52Z</time>
      </trkpt>
      <trkpt lat="44.73116" lon="4.99729">
        <ele>174</ele>
        <time>2019-04-18T10:39:52Z</time>
      </trkpt>
      <trkpt lat="44.73126" lon="4.99708">
        <ele>174</ele>
        <time>2019-04-18T10:40:52Z</time>
      </trkpt>
      <trkpt lat="44.73135" lon="4.99645">
        <ele>172</ele>
        <time>2019-04-18T10:41:52Z</time>
      </trkpt>
      <trkpt lat="44.73145" lon="4.99625">
        <ele>172</ele>
        <time>2019-04-18T10:42:52Z</time>
      </trkpt>
      <trkpt lat="44.73141" lon="4.99601">
        <ele>172</ele>
        <time>2019-04-18T10:43:52Z</time>
      </trkpt>
      <trkpt lat="44.73141" lon="4.99589">
        <ele>172</ele>
        <time>2019-04-18T10:44:52Z</time>
      </trkpt>
      <trkpt lat="44.73168" lon="4.99348">
        <ele>170</ele>
        <time>2019-04-18T10:45:52Z</time>
      </trkpt>
      <trkpt lat="44.7318" lon="4.99267">
        <ele>170</ele>
        <time>2019-04-18T10:46:52Z</time>
      </trkpt>
      <trkpt lat="44.73182" lon="4.99229">
        <ele>170</ele>
        <time>2019-04-18T10:47:52Z</time>
      </trkpt>
      <trkpt lat="44.7319" lon="4.99154">
        <ele>170</ele>
        <time>2019-04-18T10:48:52Z</time>
      </trkpt>
      <trkpt lat="44.73216" lon="4.98929">
        <ele>170</ele>
        <time>2019-04-18T10:49:52Z</time>
      </trkpt>
      <trkpt lat="44.73239" lon="4.98737">
        <ele>169</ele>
        <time>2019-04-18T10:50:52Z</time>
      </trkpt>
      <trkpt lat="44.73256" lon="4.98605">
        <ele>168</ele>
        <time>2019-04-18T10:51:52Z</time>
      </trkpt>
      <trkpt lat="44.73283" lon="4.98347">
        <ele>171</ele>
        <time>2019-04-18T10:52:52Z</time>
      </trkpt>
      <trkpt lat="44.73303" lon="4.98182">
        <ele>168</ele>
        <time>2019-04-18T10:53:52Z</time>
      </trkpt>
      <trkpt lat="44.73308" lon="4.98157">
        <ele>167</ele>
        <time>2019-04-18T10:54:52Z</time>
      </trkpt>
      <trkpt lat="44.73314" lon="4.98144">
        <ele>167</ele>
        <time>2019-04-18T10:55:52Z</time>
      </trkpt>
      <trkpt lat="44.73321" lon="4.98135">
        <ele>167</ele>
        <time>2019-04-18T10:56:52Z</time>
      </trkpt>
      <trkpt lat="44.73414" lon="4.98216">
        <ele>167</ele>
        <time>2019-04-18T10:57:52Z</time>
      </trkpt>
      <trkpt lat="44.73503" lon="4.98283">
        <ele>170</ele>
        <time>2019-04-18T10:58:52Z</time>
      </trkpt>
      <trkpt lat="44.73538" lon="4.98166">
        <ele>168</ele>
        <time>2019-04-18T10:59:52Z</time>
      </trkpt>
      <trkpt lat="44.73697" lon="4.97801">
        <ele>164</ele>
        <time>2019-04-18T11:00:52Z</time>
      </trkpt>
      <trkpt lat="44.73772" lon="4.97639">
        <ele>163</ele>
        <time>2019-04-18T11:01:52Z</time>
      </trkpt>
      <trkpt lat="44.73826" lon="4.97505">
        <ele>162</ele>
        <time>2019-04-18T11:02:52Z</time>
      </trkpt>
      <trkpt lat="44.74122" lon="4.96834">
        <ele>158</ele>
        <time>2019-04-18T11:03:52Z</time>
      </trkpt>
      <trkpt lat="44.74242" lon="4.96569">
        <ele>156</ele>
        <time>2019-04-18T11:04:52Z</time>
      </trkpt>
      <trkpt lat="44.74309" lon="4.96425">
        <ele>155</ele>
        <time>2019-04-18T11:05:52Z</time>
      </trkpt>
      <trkpt lat="44.74404" lon="4.96214">
        <ele>156</ele>
        <time>2019-04-18T11:06:52Z</time>
      </trkpt>
      <trkpt lat="44.74412" lon="4.96188">
        <ele>156</ele>
        <time>2019-04-18T11:07:52Z</time>
      </trkpt>
      <trkpt lat="44.74441" lon="4.96065">
        <ele>156</ele>
        <time>2019-04-18T11:08:52Z</time>
      </trkpt>
      <trkpt lat="44.74445" lon="4.96054">
        <ele>156</ele>
        <time>2019-04-18T11:09:52Z</time>
      </trkpt>
      <trkpt lat="44.74457" lon="4.96031">
        <ele>156</ele>
        <time>2019-04-18T11:10:52Z</time>
      </trkpt>
      <trkpt lat="44.74467" lon="4.95988">
        <ele>156</ele>
        <time>2019-04-18T11:11:52Z</time>
      </trkpt>
      <trkpt lat="44.74476" lon="4.95961">
        <ele>156</ele>
        <time>2019-04-18T11:12:52Z</time>
      </trkpt>
      <trkpt lat="44.74484" lon="4.95948">
        <ele>156</ele>
        <time>2019-04-18T11:13:52Z</time>
      </trkpt>
      <trkpt lat="44.74524" lon="4.95892">
        <ele>157</ele>
        <time>2019-04-18T11:14:52Z</time>
      </trkpt>
      <trkpt lat="44.74527" lon="4.95884">
        <ele>157</ele>
        <time>2019-04-18T11:15:52Z</time>
      </trkpt>
      <trkpt lat="44.74529" lon="4.95861">
        <ele>157</ele>
        <time>2019-04-18T11:16:52Z</time>
      </trkpt>
      <trkpt lat="44.74556" lon="4.95666">
        <ele>155</ele>
        <time>2019-04-18T11:17:52Z</time>
      </trkpt>
      <trkpt lat="44.74577" lon="4.95545">
        <ele>152</ele>
        <time>2019-04-18T11:18:52Z</time>
      </trkpt>
      <trkpt lat="44.74594" lon="4.95461">
        <ele>151</ele>
        <time>2019-04-18T11:19:52Z</time>
      </trkpt>
      <trkpt lat="44.74648" lon="4.95163">
        <ele>150</ele>
        <time>2019-04-18T11:20:52Z</time>
      </trkpt>
      <trkpt lat="44.74682" lon="4.94965">
        <ele>149</ele>
        <time>2019-04-18T11:21:52Z</time>
      </trkpt>
      <trkpt lat="44.74719" lon="4.94764">
        <ele>151</ele>
        <time>2019-04-18T11:22:52Z</time>
      </trkpt>
      <trkpt lat="44.74722" lon="4.94735">
        <ele>151</ele>
        <time>2019-04-18T11:23:52Z</time>
      </trkpt>
      <trkpt lat="44.74786" lon="4.9437">
        <ele>150</ele>
        <time>2019-04-18T11:24:52Z</time>
      </trkpt>
      <trkpt lat="44.74729" lon="4.94354">
        <ele>150</ele>
        <time>2019-04-18T11:25:52Z</time>
      </trkpt>
      <trkpt lat="44.74729" lon="4.94354">
        <ele>150</ele>
        <time>2019-04-18T11:26:52Z</time>
      </trkpt>
      <trkpt lat="44.7479" lon="4.93925">
        <ele>148</ele>
        <time>2019-04-18T11:27:52Z</time>
      </trkpt>
      <trkpt lat="44.7479" lon="4.93925">
        <ele>148</ele>
        <time>2019-04-18T11:28:52Z</time>
      </trkpt>
      <trkpt lat="44.74813" lon="4.93729">
        <ele>145</ele>
        <time>2019-04-18T11:29:52Z</time>
      </trkpt>
      <trkpt lat="44.74813" lon="4.93729">
        <ele>145</ele>
        <time>2019-04-18T11:30:52Z</time>
      </trkpt>
      <trkpt lat="44.74906" lon="4.93045">
        <ele>144</ele>
        <time>2019-04-18T11:31:52Z</time>
      </trkpt>
      <trkpt lat="44.74908" lon="4.93046">
        <ele>144</ele>
        <time>2019-04-18T11:32:52Z</time>
      </trkpt>
      <trkpt lat="44.7494" lon="4.92775">
        <ele>143</ele>
        <time>2019-04-18T11:33:52Z</time>
      </trkpt>
      <trkpt lat="44.74956" lon="4.92599">
        <ele>142</ele>
        <time>2019-04-18T11:34:52Z</time>
      </trkpt>
      <trkpt lat="44.75015" lon="4.92007">
        <ele>138</ele>
        <time>2019-04-18T11:35:52Z</time>
      </trkpt>
      <trkpt lat="44.74889" lon="4.91982">
        <ele>141</ele>
        <time>2019-04-18T11:36:52Z</time>
      </trkpt>
      <trkpt lat="44.74922" lon="4.91678">
        <ele>142</ele>
        <time>2019-04-18T11:37:52Z</time>
      </trkpt>
      <trkpt lat="44.74937" lon="4.91605">
        <ele>142</ele>
        <time>2019-04-18T11:38:52Z</time>
      </trkpt>
      <trkpt lat="44.74955" lon="4.91595">
        <ele>141</ele>
        <time>2019-04-18T11:39:52Z</time>
      </trkpt>
      <trkpt lat="44.75053" lon="4.91615">
        <ele>138</ele>
        <time>2019-04-18T11:40:52Z</time>
      </trkpt>
      <trkpt lat="44.75205" lon="4.91648">
        <ele>137</ele>
        <time>2019-04-18T11:41:52Z</time>
      </trkpt>
      <trkpt lat="44.753" lon="4.91686">
        <ele>137</ele>
        <time>2019-04-18T11:42:52Z</time>
      </trkpt>
      <trkpt lat="44.75433" lon="4.9171">
        <ele>138</ele>
        <time>2019-04-18T11:43:52Z</time>
      </trkpt>
      <trkpt lat="44.75754" lon="4.91621">
        <ele>137</ele>
        <time>2019-04-18T11:44:52Z</time>
      </trkpt>
      <trkpt lat="44.75844" lon="4.916">
        <ele>136</ele>
        <time>2019-04-18T11:45:52Z</time>
      </trkpt>
      <trkpt lat="44.75922" lon="4.91583">
        <ele>138</ele>
        <time>2019-04-18T11:46:52Z</time>
      </trkpt>
      <trkpt lat="44.75961" lon="4.91586">
        <ele>138</ele>
        <time>2019-04-18T11:47:52Z</time>
      </trkpt>
      <trkpt lat="44.75987" lon="4.916">
        <ele>138</ele>
        <time>2019-04-18T11:48:52Z</time>
      </trkpt>
      <trkpt lat="44.76007" lon="4.9162">
        <ele>137</ele>
        <time>2019-04-18T11:49:52Z</time>
      </trkpt>
      <trkpt lat="44.7606" lon="4.91655">
        <ele>137</ele>
        <time>2019-04-18T11:50:52Z</time>
      </trkpt>
      <trkpt lat="44.76129" lon="4.9169">
        <ele>139</ele>
        <time>2019-04-18T11:51:52Z</time>
      </trkpt>
      <trkpt lat="44.76173" lon="4.91714">
        <ele>141</ele>
        <time>2019-04-18T11:52:52Z</time>
      </trkpt>
      <trkpt lat="44.76176" lon="4.91686">
        <ele>141</ele>
        <time>2019-04-18T11:53:52Z</time>
      </trkpt>
      <trkpt lat="44.76196" lon="4.91574">
        <ele>139</ele>
        <time>2019-04-18T11:54:52Z</time>
      </trkpt>
      <trkpt lat="44.76215" lon="4.91526">
        <ele>139</ele>
        <time>2019-04-18T11:55:52Z</time>
      </trkpt>
      <trkpt lat="44.7626" lon="4.91462">
        <ele>142</ele>
        <time>2019-04-18T11:56:52Z</time>
      </trkpt>
      <trkpt lat="44.76324" lon="4.91401">
        <ele>146</ele>
        <time>2019-04-18T11:57:52Z</time>
      </trkpt>
      <trkpt lat="44.76359" lon="4.91377">
        <ele>145</ele>
        <time>2019-04-18T11:58:52Z</time>
      </trkpt>
      <trkpt lat="44.764" lon="4.91341">
        <ele>143</ele>
        <time>2019-04-18T11:59:52Z</time>
      </trkpt>
      <trkpt lat="44.76454" lon="4.91281">
        <ele>146</ele>
        <time>2019-04-18T12:00:52Z</time>
      </trkpt>
      <trkpt lat="44.76474" lon="4.91262">
        <ele>148</ele>
        <time>2019-04-18T12:01:52Z</time>
      </trkpt>
      <trkpt lat="44.76476" lon="4.91267">
        <ele>148</ele>
        <time>2019-04-18T12:02:52Z</time>
      </trkpt>
      <trkpt lat="44.76483" lon="4.91272">
        <ele>149</ele>
        <time>2019-04-18T12:03:52Z</time>
      </trkpt>
      <trkpt lat="44.76492" lon="4.91269">
        <ele>149</ele>
        <time>2019-04-18T12:04:52Z</time>
      </trkpt>
      <trkpt lat="44.76495" lon="4.91266">
        <ele>150</ele>
        <time>2019-04-18T12:05:52Z</time>
      </trkpt>
      <trkpt lat="44.76497" lon="4.91256">
        <ele>150</ele>
        <time>2019-04-18T12:06:52Z</time>
      </trkpt>
      <trkpt lat="44.76496" lon="4.91246">
        <ele>149</ele>
        <time>2019-04-18T12:07:52Z</time>
      </trkpt>
      <trkpt lat="44.76493" lon="4.91242">
        <ele>149</ele>
        <time>2019-04-18T12:08:52Z</time>
      </trkpt>
      <trkpt lat="44.76505" lon="4.91229">
        <ele>150</ele>
        <time>2019-04-18T12:09:52Z</time>
      </trkpt>
      <trkpt lat="44.76515" lon="4.91212">
        <ele>151</ele>
        <time>2019-04-18T12:10:52Z</time>
      </trkpt>
      <trkpt lat="44.76554" lon="4.91165">
        <ele>155</ele>
        <time>2019-04-18T12:11:52Z</time>
      </trkpt>
      <trkpt lat="44.76603" lon="4.91098">
        <ele>158</ele>
        <time>2019-04-18T12:12:52Z</time>
      </trkpt>
      <trkpt lat="44.76621" lon="4.9107">
        <ele>158</ele>
        <time>2019-04-18T12:13:52Z</time>
      </trkpt>
      <trkpt lat="44.76669" lon="4.91035">
        <ele>161</ele>
        <time>2019-04-18T12:14:52Z</time>
      </trkpt>
      <trkpt lat="44.76701" lon="4.91025">
        <ele>162</ele>
        <time>2019-04-18T12:15:52Z</time>
      </trkpt>
      <trkpt lat="44.76709" lon="4.90985">
        <ele>159</ele>
        <time>2019-04-18T12:16:52Z</time>
      </trkpt>
      <trkpt lat="44.76729" lon="4.90917">
        <ele>154</ele>
        <time>2019-04-18T12:17:52Z</time>
      </trkpt>
      <trkpt lat="44.76773" lon="4.90813">
        <ele>148</ele>
        <time>2019-04-18T12:18:52Z</time>
      </trkpt>
      <trkpt lat="44.76809" lon="4.9072">
        <ele>148</ele>
        <time>2019-04-18T12:19:52Z</time>
      </trkpt>
      <trkpt lat="44.76823" lon="4.90672">
        <ele>146</ele>
        <time>2019-04-18T12:20:52Z</time>
      </trkpt>
      <trkpt lat="44.76827" lon="4.90655">
        <ele>147</ele>
        <time>2019-04-18T12:21:52Z</time>
      </trkpt>
      <trkpt lat="44.76829" lon="4.9063">
        <ele>147</ele>
        <time>2019-04-18T12:22:52Z</time>
      </trkpt>
      <trkpt lat="44.76827" lon="4.90563">
        <ele>148</ele>
        <time>2019-04-18T12:23:52Z</time>
      </trkpt>
      <trkpt lat="44.76829" lon="4.90543">
        <ele>149</ele>
        <time>2019-04-18T12:24:52Z</time>
      </trkpt>
      <trkpt lat="44.76844" lon="4.90506">
        <ele>152</ele>
        <time>2019-04-18T12:25:52Z</time>
      </trkpt>
      <trkpt lat="44.76872" lon="4.90462">
        <ele>155</ele>
        <time>2019-04-18T12:26:52Z</time>
      </trkpt>
      <trkpt lat="44.76886" lon="4.90427">
        <ele>155</ele>
        <time>2019-04-18T12:27:52Z</time>
      </trkpt>
      <trkpt lat="44.76903" lon="4.90379">
        <ele>157</ele>
        <time>2019-04-18T12:28:52Z</time>
      </trkpt>
      <trkpt lat="44.76917" lon="4.90354">
        <ele>158</ele>
        <time>2019-04-18T12:29:52Z</time>
      </trkpt>
      <trkpt lat="44.76945" lon="4.90321">
        <ele>158</ele>
        <time>2019-04-18T12:30:52Z</time>
      </trkpt>
      <trkpt lat="44.76945" lon="4.90285">
        <ele>158</ele>
        <time>2019-04-18T12:31:52Z</time>
      </trkpt>
      <trkpt lat="44.76955" lon="4.90191">
        <ele>157</ele>
        <time>2019-04-18T12:32:52Z</time>
      </trkpt>
      <trkpt lat="44.76948" lon="4.90051">
        <ele>156</ele>
        <time>2019-04-18T12:33:52Z</time>
      </trkpt>
      <trkpt lat="44.76961" lon="4.89937">
        <ele>154</ele>
        <time>2019-04-18T12:34:52Z</time>
      </trkpt>
      <trkpt lat="44.76969" lon="4.89892">
        <ele>152</ele>
        <time>2019-04-18T12:35:52Z</time>
      </trkpt>
      <trkpt lat="44.76991" lon="4.89806">
        <ele>147</ele>
        <time>2019-04-18T12:36:52Z</time>
      </trkpt>
      <trkpt lat="44.77009" lon="4.89765">
        <ele>145</ele>
        <time>2019-04-18T12:37:52Z</time>
      </trkpt>
      <trkpt lat="44.77045" lon="4.89692">
        <ele>144</ele>
        <time>2019-04-18T12:38:52Z</time>
      </trkpt>
      <trkpt lat="44.77106" lon="4.89602">
        <ele>143</ele>
        <time>2019-04-18T12:39:52Z</time>
      </trkpt>
      <trkpt lat="44.77143" lon="4.8956">
        <ele>141</ele>
        <time>2019-04-18T12:40:52Z</time>
      </trkpt>
      <trkpt lat="44.77165" lon="4.89527">
        <ele>139</ele>
        <time>2019-04-18T12:41:52Z</time>
      </trkpt>
      <trkpt lat="44.77183" lon="4.89491">
        <ele>138</ele>
        <time>2019-04-18T12:42:52Z</time>
      </trkpt>
      <trkpt lat="44.77199" lon="4.89447">
        <ele>137</ele>
        <time>2019-04-18T12:43:52Z</time>
      </trkpt>
      <trkpt lat="44.7721" lon="4.89386">
        <ele>136</ele>
        <time>2019-04-18T12:44:52Z</time>
      </trkpt>
      <trkpt lat="44.77238" lon="4.89311">
        <ele>135</ele>
        <time>2019-04-18T12:45:52Z</time>
      </trkpt>
      <trkpt lat="44.77301" lon="4.89159">
        <ele>132</ele>
        <time>2019-04-18T12:46:52Z</time>
      </trkpt>
      <trkpt lat="44.77315" lon="4.89139">
        <ele>132</ele>
        <time>2019-04-18T12:47:52Z</time>
      </trkpt>
      <trkpt lat="44.77355" lon="4.89091">
        <ele>134</ele>
        <time>2019-04-18T12:48:52Z</time>
      </trkpt>
      <trkpt lat="44.77396" lon="4.89047">
        <ele>134</ele>
        <time>2019-04-18T12:49:52Z</time>
      </trkpt>
      <trkpt lat="44.77406" lon="4.89033">
        <ele>134</ele>
        <time>2019-04-18T12:50:52Z</time>
      </trkpt>
      <trkpt lat="44.77351" lon="4.88994">
        <ele>134</ele>
        <time>2019-04-18T12:51:52Z</time>
      </trkpt>
      <trkpt lat="44.77303" lon="4.88943">
        <ele>132</ele>
        <time>2019-04-18T12:52:52Z</time>
      </trkpt>
      <trkpt lat="44.77171" lon="4.8881">
        <ele>130</ele>
        <time>2019-04-18T12:53:52Z</time>
      </trkpt>
      <trkpt lat="44.77093" lon="4.88744">
        <ele>132</ele>
        <time>2019-04-18T12:54:52Z</time>
      </trkpt>
      <trkpt lat="44.76819" lon="4.88538">
        <ele>138</ele>
        <time>2019-04-18T12:55:52Z</time>
      </trkpt>
      <trkpt lat="44.76834" lon="4.88474">
        <ele>134</ele>
        <time>2019-04-18T12:56:52Z</time>
      </trkpt>
      <trkpt lat="44.76858" lon="4.88347">
        <ele>129</ele>
        <time>2019-04-18T12:57:52Z</time>
      </trkpt>
      <trkpt lat="44.76834" lon="4.88042">
        <ele>125</ele>
        <time>2019-04-18T12:58:52Z</time>
      </trkpt>
      <trkpt lat="44.76855" lon="4.87886">
        <ele>127</ele>
        <time>2019-04-18T12:59:52Z</time>
      </trkpt>
      <trkpt lat="44.76913" lon="4.8749">
        <ele>136</ele>
        <time>2019-04-18T13:00:52Z</time>
      </trkpt>
      <trkpt lat="44.76932" lon="4.87381">
        <ele>138</ele>
        <time>2019-04-18T13:01:52Z</time>
      </trkpt>
      <trkpt lat="44.76981" lon="4.8713">
        <ele>142</ele>
        <time>2019-04-18T13:02:52Z</time>
      </trkpt>
      <trkpt lat="44.77093" lon="4.86699">
        <ele>159</ele>
        <time>2019-04-18T13:03:52Z</time>
      </trkpt>
      <trkpt lat="44.77102" lon="4.86639">
        <ele>162</ele>
        <time>2019-04-18T13:04:52Z</time>
      </trkpt>
      <trkpt lat="44.77101" lon="4.86585">
        <ele>166</ele>
        <time>2019-04-18T13:05:52Z</time>
      </trkpt>
      <trkpt lat="44.77101" lon="4.86431">
        <ele>167</ele>
        <time>2019-04-18T13:06:52Z</time>
      </trkpt>
      <trkpt lat="44.7711" lon="4.8622">
        <ele>165</ele>
        <time>2019-04-18T13:07:52Z</time>
      </trkpt>
      <trkpt lat="44.77095" lon="4.86166">
        <ele>164</ele>
        <time>2019-04-18T13:08:52Z</time>
      </trkpt>
      <trkpt lat="44.77078" lon="4.8613">
        <ele>164</ele>
        <time>2019-04-18T13:09:52Z</time>
      </trkpt>
      <trkpt lat="44.77076" lon="4.86105">
        <ele>164</ele>
        <time>2019-04-18T13:10:52Z</time>
      </trkpt>
      <trkpt lat="44.77085" lon="4.86027">
        <ele>166</ele>
        <time>2019-04-18T13:11:52Z</time>
      </trkpt>
      <trkpt lat="44.77102" lon="4.85937">
        <ele>169</ele>
        <time>2019-04-18T13:12:52Z</time>
      </trkpt>
      <trkpt lat="44.77104" lon="4.85836">
        <ele>171</ele>
        <time>2019-04-18T13:13:52Z</time>
      </trkpt>
      <trkpt lat="44.77126" lon="4.8579">
        <ele>171</ele>
        <time>2019-04-18T13:14:52Z</time>
      </trkpt>
      <trkpt lat="44.7718" lon="4.85557">
        <ele>170</ele>
        <time>2019-04-18T13:15:52Z</time>
      </trkpt>
      <trkpt lat="44.77187" lon="4.85488">
        <ele>168</ele>
        <time>2019-04-18T13:16:52Z</time>
      </trkpt>
      <trkpt lat="44.77175" lon="4.85362">
        <ele>168</ele>
        <time>2019-04-18T13:17:52Z</time>
      </trkpt>
      <trkpt lat="44.77134" lon="4.85265">
        <ele>165</ele>
        <time>2019-04-18T13:18:52Z</time>
      </trkpt>
      <trkpt lat="44.77134" lon="4.85248">
        <ele>164</ele>
        <time>2019-04-18T13:19:52Z</time>
      </trkpt>
      <trkpt lat="44.77142" lon="4.85234">
        <ele>164</ele>
        <time>2019-04-18T13:20:52Z</time>
      </trkpt>
      <trkpt lat="44.77155" lon="4.8522">
        <ele>164</ele>
        <time>2019-04-18T13:21:52Z</time>
      </trkpt>
      <trkpt lat="44.77168" lon="4.85202">
        <ele>164</ele>
        <time>2019-04-18T13:22:52Z</time>
      </trkpt>
      <trkpt lat="44.77177" lon="4.85177">
        <ele>163</ele>
        <time>2019-04-18T13:23:52Z</time>
      </trkpt>
      <trkpt lat="44.77181" lon="4.85142">
        <ele>164</ele>
        <time>2019-04-18T13:24:52Z</time>
      </trkpt>
      <trkpt lat="44.77188" lon="4.85065">
        <ele>164</ele>
        <time>2019-04-18T13:25:52Z</time>
      </trkpt>
      <trkpt lat="44.77188" lon="4.85026">
        <ele>165</ele>
        <time>2019-04-18T13:26:52Z</time>
      </trkpt>
      <trkpt lat="44.77178" lon="4.84955">
        <ele>163</ele>
        <time>2019-04-18T13:27:52Z</time>
      </trkpt>
      <trkpt lat="44.7717" lon="4.84933">
        <ele>163</ele>
        <time>2019-04-18T13:28:52Z</time>
      </trkpt>
      <trkpt lat="44.77133" lon="4.84887">
        <ele>167</ele>
        <time>2019-04-18T13:29:52Z</time>
      </trkpt>
      <trkpt lat="44.77121" lon="4.84864">
        <ele>167</ele>
        <time>2019-04-18T13:30:52Z</time>
      </trkpt>
      <trkpt lat="44.77109" lon="4.84807">
        <ele>167</ele>
        <time>2019-04-18T13:31:52Z</time>
      </trkpt>
      <trkpt lat="44.77109" lon="4.84799">
        <ele>167</ele>
        <time>2019-04-18T13:32:52Z</time>
      </trkpt>
      <trkpt lat="44.77111" lon="4.84789">
        <ele>167</ele>
        <time>2019-04-18T13:33:52Z</time>
      </trkpt>
      <trkpt lat="44.77117" lon="4.84779">
        <ele>167</ele>
        <time>2019-04-18T13:34:52Z</time>
      </trkpt>
      <trkpt lat="44.77105" lon="4.84686">
        <ele>169</ele>
        <time>2019-04-18T13:35:52Z</time>
      </trkpt>
      <trkpt lat="44.77107" lon="4.84669">
        <ele>168</ele>
        <time>2019-04-18T13:36:52Z</time>
      </trkpt>
      <trkpt lat="44.77105" lon="4.8466">
        <ele>169</ele>
        <time>2019-04-18T13:37:52Z</time>
      </trkpt>
      <trkpt lat="44.77099" lon="4.84651">
        <ele>169</ele>
        <time>2019-04-18T13:38:52Z</time>
      </trkpt>
      <trkpt lat="44.77092" lon="4.84649">
        <ele>170</ele>
        <time>2019-04-18T13:39:52Z</time>
      </trkpt>
      <trkpt lat="44.77081" lon="4.8464">
        <ele>172</ele>
        <time>2019-04-18T13:40:52Z</time>
      </trkpt>
      <trkpt lat="44.7709" lon="4.8461">
        <ele>170</ele>
        <time>2019-04-18T13:41:52Z</time>
      </trkpt>
      <trkpt lat="44.77084" lon="4.84609">
        <ele>171</ele>
        <time>2019-04-18T13:42:52Z</time>
      </trkpt>
      <trkpt lat="44.7708" lon="4.84606">
        <ele>172</ele>
        <time>2019-04-18T13:43:52Z</time>
      </trkpt>
      <trkpt lat="44.77094" lon="4.84545">
        <ele>166</ele>
        <time>2019-04-18T13:44:52Z</time>
      </trkpt>
      <trkpt lat="44.77106" lon="4.84512">
        <ele>162</ele>
        <time>2019-04-18T13:45:52Z</time>
      </trkpt>
      <trkpt lat="44.77119" lon="4.84485">
        <ele>158</ele>
        <time>2019-04-18T13:46:52Z</time>
      </trkpt>
      <trkpt lat="44.77101" lon="4.84465">
        <ele>158</ele>
        <time>2019-04-18T13:47:52Z</time>
      </trkpt>
      <trkpt lat="44.77051" lon="4.84427">
        <ele>162</ele>
        <time>2019-04-18T13:48:52Z</time>
      </trkpt>
      <trkpt lat="44.77032" lon="4.84401">
        <ele>162</ele>
        <time>2019-04-18T13:49:52Z</time>
      </trkpt>
      <trkpt lat="44.77011" lon="4.84344">
        <ele>159</ele>
        <time>2019-04-18T13:50:52Z</time>
      </trkpt>
      <trkpt lat="44.77005" lon="4.84334">
        <ele>159</ele>
        <time>2019-04-18T13:51:52Z</time>
      </trkpt>
      <trkpt lat="44.76992" lon="4.84319">
        <ele>156</ele>
        <time>2019-04-18T13:52:52Z</time>
      </trkpt>
      <trkpt lat="44.76993" lon="4.84291">
        <ele>149</ele>
        <time>2019-04-18T13:53:52Z</time>
      </trkpt>
      <trkpt lat="44.76928" lon="4.84246">
        <ele>142</ele>
        <time>2019-04-18T13:54:52Z</time>
      </trkpt>
      <trkpt lat="44.76896" lon="4.84232">
        <ele>138</ele>
        <time>2019-04-18T13:55:52Z</time>
      </trkpt>
      <trkpt lat="44.76759" lon="4.84216">
        <ele>122</ele>
        <time>2019-04-18T13:56:52Z</time>
      </trkpt>
      <trkpt lat="44.76754" lon="4.84175">
        <ele>119</ele>
        <time>2019-04-18T13:57:52Z</time>
      </trkpt>
      <trkpt lat="44.76771" lon="4.84063">
        <ele>117</ele>
        <time>2019-04-18T13:58:52Z</time>
      </trkpt>
      <trkpt lat="44.7677" lon="4.8403">
        <ele>116</ele>
        <time>2019-04-18T13:59:52Z</time>
      </trkpt>
      <trkpt lat="44.76941" lon="4.83488">
        <ele>109</ele>
        <time>2019-04-18T14:00:52Z</time>
      </trkpt>
      <trkpt lat="44.77" lon="4.83307">
        <ele>109</ele>
        <time>2019-04-18T14:01:52Z</time>
      </trkpt>
      <trkpt lat="44.77017" lon="4.83268">
        <ele>109</ele>
        <time>2019-04-18T14:02:52Z</time>
      </trkpt>
      <trkpt lat="44.77065" lon="4.83205">
        <ele>107</ele>
        <time>2019-04-18T14:03:52Z</time>
      </trkpt>
      <trkpt lat="44.77074" lon="4.83179">
        <ele>106</ele>
        <time>2019-04-18T14:04:52Z</time>
      </trkpt>
      <trkpt lat="44.77083" lon="4.83093">
        <ele>108</ele>
        <time>2019-04-18T14:05:52Z</time>
      </trkpt>
      <trkpt lat="44.77091" lon="4.8305">
        <ele>108</ele>
        <time>2019-04-18T14:06:52Z</time>
      </trkpt>
      <trkpt lat="44.771" lon="4.8301">
        <ele>109</ele>
        <time>2019-04-18T14:07:52Z</time>
      </trkpt>
      <trkpt lat="44.77105" lon="4.82975">
        <ele>109</ele>
        <time>2019-04-18T14:08:52Z</time>
      </trkpt>
      <trkpt lat="44.77074" lon="4.82931">
        <ele>108</ele>
        <time>2019-04-18T14:09:52Z</time>
      </trkpt>
      <trkpt lat="44.77057" lon="4.82895">
        <ele>109</ele>
        <time>2019-04-18T14:10:52Z</time>
      </trkpt>
      <trkpt lat="44.77051" lon="4.82871">
        <ele>108</ele>
        <time>2019-04-18T14:11:52Z</time>
      </trkpt>
      <trkpt lat="44.77051" lon="4.82852">
        <ele>108</ele>
        <time>2019-04-18T14:12:52Z</time>
      </trkpt>
      <trkpt lat="44.77052" lon="4.82841">
        <ele>108</ele>
        <time>2019-04-18T14:13:52Z</time>
      </trkpt>
      <trkpt lat="44.77044" lon="4.82834">
        <ele>107</ele>
        <time>2019-04-18T14:14:52Z</time>
      </trkpt>
      <trkpt lat="44.77034" lon="4.82809">
        <ele>107</ele>
        <time>2019-04-18T14:15:52Z</time>
      </trkpt>
      <trkpt lat="44.7703" lon="4.82747">
        <ele>107</ele>
        <time>2019-04-18T14:16:52Z</time>
      </trkpt>
      <trkpt lat="44.77035" lon="4.8272">
        <ele>106</ele>
        <time>2019-04-18T14:17:52Z</time>
      </trkpt>
      <trkpt lat="44.77054" lon="4.8268">
        <ele>106</ele>
        <time>2019-04-18T14:18:52Z</time>
      </trkpt>
      <trkpt lat="44.77093" lon="4.82616">
        <ele>106</ele>
        <time>2019-04-18T14:19:52Z</time>
      </trkpt>
      <trkpt lat="44.77109" lon="4.8258">
        <ele>106</ele>
        <time>2019-04-18T14:20:52Z</time>
      </trkpt>
      <trkpt lat="44.77112" lon="4.82538">
        <ele>107</ele>
        <time>2019-04-18T14:21:52Z</time>
      </trkpt>
      <trkpt lat="44.77126" lon="4.82488">
        <ele>107</ele>
        <time>2019-04-18T14:22:52Z</time>
      </trkpt>
      <trkpt lat="44.77135" lon="4.82478">
        <ele>107</ele>
        <time>2019-04-18T14:23:52Z</time>
      </trkpt>
      <trkpt lat="44.77149" lon="4.82477">
        <ele>107</ele>
        <time>2019-04-18T14:24:52Z</time>
      </trkpt>
      <trkpt lat="44.77269" lon="4.82527">
        <ele>106</ele>
        <time>2019-04-18T14:25:52Z</time>
      </trkpt>
      <trkpt lat="44.77283" lon="4.82529">
        <ele>106</ele>
        <time>2019-04-18T14:26:52Z</time>
      </trkpt>
      <trkpt lat="44.77293" lon="4.82434">
        <ele>106</ele>
        <time>2019-04-18T14:27:52Z</time>
      </trkpt>
      <trkpt lat="44.77292" lon="4.82262">
        <ele>105</ele>
        <time>2019-04-18T14:28:52Z</time>
      </trkpt>
      <trkpt lat="44.77285" lon="4.8205">
        <ele>105</ele>
        <time>2019-04-18T14:29:52Z</time>
      </trkpt>
      <trkpt lat="44.77272" lon="4.8198">
        <ele>105</ele>
        <time>2019-04-18T14:30:52Z</time>
      </trkpt>
      <trkpt lat="44.77246" lon="4.81912">
        <ele>104</ele>
        <time>2019-04-18T14:31:52Z</time>
      </trkpt>
      <trkpt lat="44.77237" lon="4.81879">
        <ele>103</ele>
        <time>2019-04-18T14:32:52Z</time>
      </trkpt>
      <trkpt lat="44.77241" lon="4.81839">
        <ele>103</ele>
        <time>2019-04-18T14:33:52Z</time>
      </trkpt>
      <trkpt lat="44.77255" lon="4.81788">
        <ele>103</ele>
        <time>2019-04-18T14:34:52Z</time>
      </trkpt>
      <trkpt lat="44.77306" lon="4.81666">
        <ele>102</ele>
        <time>2019-04-18T14:35:52Z</time>
      </trkpt>
      <trkpt lat="44.77321" lon="4.8161">
        <ele>103</ele>
        <time>2019-04-18T14:36:52Z</time>
      </trkpt>
      <trkpt lat="44.77322" lon="4.8156">
        <ele>103</ele>
        <time>2019-04-18T14:37:52Z</time>
      </trkpt>
      <trkpt lat="44.77318" lon="4.81525">
        <ele>103</ele>
        <time>2019-04-18T14:38:52Z</time>
      </trkpt>
      <trkpt lat="44.77365" lon="4.81274">
        <ele>102</ele>
        <time>2019-04-18T14:39:52Z</time>
      </trkpt>
      <trkpt lat="44.77427" lon="4.8107">
        <ele>102</ele>
        <time>2019-04-18T14:40:52Z</time>
      </trkpt>
      <trkpt lat="44.77704" lon="4.80227">
        <ele>98</ele>
        <time>2019-04-18T14:41:52Z</time>
      </trkpt>
      <trkpt lat="44.77844" lon="4.7953">
        <ele>97</ele>
        <time>2019-04-18T14:42:52Z</time>
      </trkpt>
      <trkpt lat="44.77813" lon="4.7952">
        <ele>97</ele>
        <time>2019-04-18T14:43:52Z</time>
      </trkpt>
      <trkpt lat="44.77737" lon="4.79506">
        <ele>96</ele>
        <time>2019-04-18T14:44:52Z</time>
      </trkpt>
      <trkpt lat="44.77578" lon="4.79462">
        <ele>96</ele>
        <time>2019-04-18T14:45:52Z</time>
      </trkpt>
      <trkpt lat="44.77562" lon="4.79456">
        <ele>96</ele>
        <time>2019-04-18T14:46:52Z</time>
      </trkpt>
      <trkpt lat="44.77557" lon="4.79443">
        <ele>96</ele>
        <time>2019-04-18T14:47:52Z</time>
      </trkpt>
      <trkpt lat="44.77536" lon="4.79381">
        <ele>97</ele>
        <time>2019-04-18T14:48:52Z</time>
      </trkpt>
      <trkpt lat="44.77514" lon="4.79303">
        <ele>97</ele>
        <time>2019-04-18T14:49:52Z</time>
      </trkpt>
      <trkpt lat="44.77498" lon="4.79202">
        <ele>95</ele>
        <time>2019-04-18T14:50:52Z</time>
      </trkpt>
      <trkpt lat="44.77486" lon="4.79005">
        <ele>95</ele>
        <time>2019-04-18T14:51:52Z</time>
      </trkpt>
      <trkpt lat="44.77477" lon="4.7897">
        <ele>95</ele>
        <time>2019-04-18T14:52:52Z</time>
      </trkpt>
      <trkpt lat="44.77437" lon="4.78898">
        <ele>95</ele>
        <time>2019-04-18T14:53:52Z</time>
      </trkpt>
      <trkpt lat="44.77428" lon="4.78884">
        <ele>95</ele>
        <time>2019-04-18T14:54:52Z</time>
      </trkpt>
      <trkpt lat="44.77421" lon="4.78866">
        <ele>95</ele>
        <time>2019-04-18T14:55:52Z</time>
      </trkpt>
      <trkpt lat="44.77417" lon="4.78847">
        <ele>94</ele>
        <time>2019-04-18T14:56:52Z</time>
      </trkpt>
      <trkpt lat="44.77415" lon="4.78812">
        <ele>94</ele>
        <time>2019-04-18T14:57:52Z</time>
      </trkpt>
      <trkpt lat="44.7742" lon="4.7878">
        <ele>95</ele>
        <time>2019-04-18T14:58:52Z</time>
      </trkpt>
      <trkpt lat="44.77421" lon="4.78765">
        <ele>95</ele>
        <time>2019-04-18T14:59:52Z</time>
      </trkpt>
      <trkpt lat="44.77424" lon="4.78748">
        <ele>95</ele>
        <time>2019-04-18T15:00:52Z</time>
      </trkpt>
      <trkpt lat="44.7743" lon="4.78733">
        <ele>95</ele>
        <time>2019-04-18T15:01:52Z</time>
      </trkpt>
      <trkpt lat="44.77446" lon="4.7871">
        <ele>94</ele>
        <time>2019-04-18T15:02:52Z</time>
      </trkpt>
      <trkpt lat="44.77506" lon="4.78629">
        <ele>93</ele>
        <time>2019-04-18T15:03:52Z</time>
      </trkpt>
      <trkpt lat="44.77523" lon="4.78598">
        <ele>94</ele>
        <time>2019-04-18T15:04:52Z</time>
      </trkpt>
      <trkpt lat="44.77529" lon="4.7858">
        <ele>94</ele>
        <time>2019-04-18T15:05:52Z</time>
      </trkpt>
      <trkpt lat="44.77607" lon="4.78281">
        <ele>92</ele>
        <time>2019-04-18T15:06:52Z</time>
      </trkpt>
      <trkpt lat="44.77617" lon="4.78241">
        <ele>92</ele>
        <time>2019-04-18T15:07:52Z</time>
      </trkpt>
      <trkpt lat="44.77622" lon="4.78203">
        <ele>92</ele>
        <time>2019-04-18T15:08:52Z</time>
      </trkpt>
      <trkpt lat="44.77642" lon="4.78124">
        <ele>91</ele>
        <time>2019-04-18T15:09:52Z</time>
      </trkpt>
      <trkpt lat="44.77682" lon="4.77899">
        <ele>92</ele>
        <time>2019-04-18T15:10:52Z</time>
      </trkpt>
      <trkpt lat="44.77687" lon="4.77885">
        <ele>92</ele>
        <time>2019-04-18T15:11:52Z</time>
      </trkpt>
      <trkpt lat="44.77695" lon="4.77756">
        <ele>91</ele>
        <time>2019-04-18T15:12:52Z</time>
      </trkpt>
      <trkpt lat="44.77699" lon="4.77741">
        <ele>91</ele>
        <time>2019-04-18T15:13:52Z</time>
      </trkpt>
      <trkpt lat="44.77709" lon="4.77725">
        <ele>91</ele>
        <time>2019-04-18T15:14:52Z</time>
      </trkpt>
      <trkpt lat="44.77752" lon="4.77684">
        <ele>90</ele>
        <time>2019-04-18T15:15:52Z</time>
      </trkpt>
      <trkpt lat="44.7776" lon="4.7768">
        <ele>90</ele>
        <time>2019-04-18T15:16:52Z</time>
      </trkpt>
      <trkpt lat="44.77767" lon="4.7768">
        <ele>90</ele>
        <time>2019-04-18T15:17:52Z</time>
      </trkpt>
      <trkpt lat="44.77779" lon="4.77684">
        <ele>90</ele>
        <time>2019-04-18T15:18:52Z</time>
      </trkpt>
      <trkpt lat="44.77811" lon="4.77703">
        <ele>91</ele>
        <time>2019-04-18T15:19:52Z</time>
      </trkpt>
      <trkpt lat="44.77885" lon="4.77741">
        <ele>91</ele>
        <time>2019-04-18T15:20:52Z</time>
      </trkpt>
      <trkpt lat="44.77892" lon="4.77742">
        <ele>91</ele>
        <time>2019-04-18T15:21:52Z</time>
      </trkpt>
      <trkpt lat="44.779" lon="4.77738">
        <ele>91</ele>
        <time>2019-04-18T15:22:52Z</time>
      </trkpt>
      <trkpt lat="44.77905" lon="4.7773">
        <ele>91</ele>
        <time>2019-04-18T15:23:52Z</time>
      </trkpt>
      <trkpt lat="44.77943" lon="4.77627">
        <ele>91</ele>
        <time>2019-04-18T15:24:52Z</time>
      </trkpt>
      <trkpt lat="44.77979" lon="4.77538">
        <ele>90</ele>
        <time>2019-04-18T15:25:52Z</time>
      </trkpt>
      <trkpt lat="44.78021" lon="4.77428">
        <ele>91</ele>
        <time>2019-04-18T15:26:52Z</time>
      </trkpt>
      <trkpt lat="44.78026" lon="4.77421">
        <ele>91</ele>
        <time>2019-04-18T15:27:52Z</time>
      </trkpt>
      <trkpt lat="44.78034" lon="4.77419">
        <ele>91</ele>
        <time>2019-04-18T15:28:52Z</time>
      </trkpt>
      <trkpt lat="44.78044" lon="4.77419">
        <ele>91</ele>
        <time>2019-04-18T15:29:52Z</time>
      </trkpt>
      <trkpt lat="44.781" lon="4.77436">
        <ele>92</ele>
        <time>2019-04-18T15:30:52Z</time>
      </trkpt>
      <trkpt lat="44.78107" lon="4.77433">
        <ele>92</ele>
        <time>2019-04-18T15:31:52Z</time>
      </trkpt>
      <trkpt lat="44.78128" lon="4.77414">
        <ele>92</ele>
        <time>2019-04-18T15:32:52Z</time>
      </trkpt>
      <trkpt lat="44.78133" lon="4.77413">
        <ele>92</ele>
        <time>2019-04-18T15:33:52Z</time>
      </trkpt>
      <trkpt lat="44.7814" lon="4.77413">
        <ele>92</ele>
        <time>2019-04-18T15:34:52Z</time>
      </trkpt>
      <trkpt lat="44.7815" lon="4.77427">
        <ele>92</ele>
        <time>2019-04-18T15:35:52Z</time>
      </trkpt>
      <trkpt lat="44.78156" lon="4.77427">
        <ele>92</ele>
        <time>2019-04-18T15:36:52Z</time>
      </trkpt>
      <trkpt lat="44.78159" lon="4.7742">
        <ele>92</ele>
        <time>2019-04-18T15:37:52Z</time>
      </trkpt>
      <trkpt lat="44.78159" lon="4.77414">
        <ele>92</ele>
        <time>2019-04-18T15:38:52Z</time>
      </trkpt>
      <trkpt lat="44.78152" lon="4.77391">
        <ele>91</ele>
        <time>2019-04-18T15:39:52Z</time>
      </trkpt>
      <trkpt lat="44.78151" lon="4.7738">
        <ele>91</ele>
        <time>2019-04-18T15:40:52Z</time>
      </trkpt>
      <trkpt lat="44.78154" lon="4.77372">
        <ele>90</ele>
        <time>2019-04-18T15:41:52Z</time>
      </trkpt>
      <trkpt lat="44.78159" lon="4.77367">
        <ele>90</ele>
        <time>2019-04-18T15:42:52Z</time>
      </trkpt>
      <trkpt lat="44.78166" lon="4.77365">
        <ele>90</ele>
        <time>2019-04-18T15:43:52Z</time>
      </trkpt>
      <trkpt lat="44.78175" lon="4.77368">
        <ele>90</ele>
        <time>2019-04-18T15:44:52Z</time>
      </trkpt>
      <trkpt lat="44.7819" lon="4.77385">
        <ele>91</ele>
        <time>2019-04-18T15:45:52Z</time>
      </trkpt>
      <trkpt lat="44.78209" lon="4.77398">
        <ele>91</ele>
        <time>2019-04-18T15:46:52Z</time>
      </trkpt>
      <trkpt lat="44.78218" lon="4.77411">
        <ele>91</ele>
        <time>2019-04-18T15:47:52Z</time>
      </trkpt>
      <trkpt lat="44.78235" lon="4.77418">
        <ele>91</ele>
        <time>2019-04-18T15:48:52Z</time>
      </trkpt>
      <trkpt lat="44.78398" lon="4.77478">
        <ele>92</ele>
        <time>2019-04-18T15:49:52Z</time>
      </trkpt>
      <trkpt lat="44.78564" lon="4.77532">
        <ele>92</ele>
        <time>2019-04-18T15:50:52Z</time>
      </trkpt>
      <trkpt lat="44.78589" lon="4.77544">
        <ele>92</ele>
        <time>2019-04-18T15:51:52Z</time>
      </trkpt>
      <trkpt lat="44.78629" lon="4.77569">
        <ele>92</ele>
        <time>2019-04-18T15:52:52Z</time>
      </trkpt>
      <trkpt lat="44.78703" lon="4.77621">
        <ele>92</ele>
        <time>2019-04-18T15:53:52Z</time>
      </trkpt>
      <trkpt lat="44.78772" lon="4.77664">
        <ele>93</ele>
        <time>2019-04-18T15:54:52Z</time>
      </trkpt>
      <trkpt lat="44.78814" lon="4.77695">
        <ele>92</ele>
        <time>2019-04-18T15:55:52Z</time>
      </trkpt>
      <trkpt lat="44.78899" lon="4.77767">
        <ele>91</ele>
        <time>2019-04-18T15:56:52Z</time>
      </trkpt>
      <trkpt lat="44.79003" lon="4.77863">
        <ele>91</ele>
        <time>2019-04-18T15:57:52Z</time>
      </trkpt>
      <trkpt lat="44.79073" lon="4.77924">
        <ele>91</ele>
        <time>2019-04-18T15:58:52Z</time>
      </trkpt>
      <trkpt lat="44.79154" lon="4.7799">
        <ele>93</ele>
        <time>2019-04-18T15:59:52Z</time>
      </trkpt>
      <trkpt lat="44.79213" lon="4.7804">
        <ele>92</ele>
        <time>2019-04-18T16:00:52Z</time>
      </trkpt>
      <trkpt lat="44.79236" lon="4.78057">
        <ele>92</ele>
        <time>2019-04-18T16:01:52Z</time>
      </trkpt>
      <trkpt lat="44.79283" lon="4.78085">
        <ele>92</ele>
        <time>2019-04-18T16:02:52Z</time>
      </trkpt>
      <trkpt lat="44.79328" lon="4.78123">
        <ele>92</ele>
        <time>2019-04-18T16:03:52Z</time>
      </trkpt>
      <trkpt lat="44.79338" lon="4.78136">
        <ele>92</ele>
        <time>2019-04-18T16:04:52Z</time>
      </trkpt>
      <trkpt lat="44.79356" lon="4.7815">
        <ele>93</ele>
        <time>2019-04-18T16:05:52Z</time>
      </trkpt>
      <trkpt lat="44.79361" lon="4.78152">
        <ele>93</ele>
        <time>2019-04-18T16:06:52Z</time>
      </trkpt>
      <trkpt lat="44.79434" lon="4.78196">
        <ele>95</ele>
        <time>2019-04-18T16:07:52Z</time>
      </trkpt>
      <trkpt lat="44.79478" lon="4.78253">
        <ele>94</ele>
        <time>2019-04-18T16:08:52Z</time>
      </trkpt>
      <trkpt lat="44.79503" lon="4.78278">
        <ele>93</ele>
        <time>2019-04-18T16:09:52Z</time>
      </trkpt>
      <trkpt lat="44.79586" lon="4.78322">
        <ele>94</ele>
        <time>2019-04-18T16:10:52Z</time>
      </trkpt>
      <trkpt lat="44.79655" lon="4.78367">
        <ele>95</ele>
        <time>2019-04-18T16:11:52Z</time>
      </trkpt>
      <trkpt lat="44.79827" lon="4.78515">
        <ele>92</ele>
        <time>2019-04-18T16:12:52Z</time>
      </trkpt>
      <trkpt lat="44.79847" lon="4.78531">
        <ele>93</ele>
        <time>2019-04-18T16:13:52Z</time>
      </trkpt>
      <trkpt lat="44.79889" lon="4.78571">
        <ele>93</ele>
        <time>2019-04-18T16:14:52Z</time>
      </trkpt>
      <trkpt lat="44.80121" lon="4.78325">
        <ele>94</ele>
        <time>2019-04-18T16:15:52Z</time>
      </trkpt>
      <trkpt lat="44.80102" lon="4.78319">
        <ele>94</ele>
        <time>2019-04-18T16:16:52Z</time>
      </trkpt>
      <trkpt lat="44.80062" lon="4.78266">
        <ele>94</ele>
        <time>2019-04-18T16:17:52Z</time>
      </trkpt>
      <trkpt lat="44.8006" lon="4.78269">
        <ele>94</ele>
        <time>2019-04-18T16:18:52Z</time>
      </trkpt>
      <trkpt lat="44.80051" lon="4.7829">
        <ele>93</ele>
        <time>2019-04-18T16:19:52Z</time>
      </trkpt>
      <trkpt lat="44.8005" lon="4.78289">
        <ele>93</ele>
        <time>2019-04-18T16:20:52Z</time>
      </trkpt>
      <trkpt lat="44.80093" lon="4.7835">
        <ele>93</ele>
        <time>2019-04-18T16:21:52Z</time>
      </trkpt>
      <trkpt lat="44.80134" lon="4.78401">
        <ele>94</ele>
        <time>2019-04-18T16:22:52Z</time>
      </trkpt>
      <trkpt lat="44.80182" lon="4.78477">
        <ele>94</ele>
        <time>2019-04-18T16:23:52Z</time>
      </trkpt>
      <trkpt lat="44.80227" lon="4.78592">
        <ele>94</ele>
        <time>2019-04-18T16:24:52Z</time>
      </trkpt>
      <trkpt lat="44.80295" lon="4.78779">
        <ele>95</ele>
        <time>2019-04-18T16:25:52Z</time>
      </trkpt>
      <trkpt lat="44.80304" lon="4.78835">
        <ele>94</ele>
        <time>2019-04-18T16:26:52Z</time>
      </trkpt>
      <trkpt lat="44.80332" lon="4.78918">
        <ele>97</ele>
        <time>2019-04-18T16:27:52Z</time>
      </trkpt>
      <trkpt lat="44.80345" lon="4.78966">
        <ele>95</ele>
        <time>2019-04-18T16:28:52Z</time>
      </trkpt>
      <trkpt lat="44.80391" lon="4.7908">
        <ele>94</ele>
        <time>2019-04-18T16:29:52Z</time>
      </trkpt>
      <trkpt lat="44.80414" lon="4.79146">
        <ele>93</ele>
        <time>2019-04-18T16:30:52Z</time>
      </trkpt>
      <trkpt lat="44.80424" lon="4.79203">
        <ele>92</ele>
        <time>2019-04-18T16:31:52Z</time>
      </trkpt>
      <trkpt lat="44.80435" lon="4.79229">
        <ele>92</ele>
        <time>2019-04-18T16:32:52Z</time>
      </trkpt>
      <trkpt lat="44.80442" lon="4.7924">
        <ele>92</ele>
        <time>2019-04-18T16:33:52Z</time>
      </trkpt>
      <trkpt lat="44.80451" lon="4.79247">
        <ele>92</ele>
        <time>2019-04-18T16:34:52Z</time>
      </trkpt>
      <trkpt lat="44.80455" lon="4.79254">
        <ele>92</ele>
        <time>2019-04-18T16:35:52Z</time>
      </trkpt>
      <trkpt lat="44.80456" lon="4.79283">
        <ele>92</ele>
        <time>2019-04-18T16:36:52Z</time>
      </trkpt>
      <trkpt lat="44.80462" lon="4.79307">
        <ele>93</ele>
        <time>2019-04-18T16:37:52Z</time>
      </trkpt>
      <trkpt lat="44.80491" lon="4.79345">
        <ele>94</ele>
        <time>2019-04-18T16:38:52Z</time>
      </trkpt>
      <trkpt lat="44.80505" lon="4.79381">
        <ele>93</ele>
        <time>2019-04-18T16:39:52Z</time>
      </trkpt>
      <trkpt lat="44.80512" lon="4.79405">
        <ele>93</ele>
        <time>2019-04-18T16:40:52Z</time>
      </trkpt>
      <trkpt lat="44.80524" lon="4.79417">
        <ele>93</ele>
        <time>2019-04-18T16:41:52Z</time>
      </trkpt>
      <trkpt lat="44.80526" lon="4.79421">
        <ele>93</ele>
        <time>2019-04-18T16:42:52Z</time>
      </trkpt>
      <trkpt lat="44.80525" lon="4.79441">
        <ele>93</ele>
        <time>2019-04-18T16:43:52Z</time>
      </trkpt>
      <trkpt lat="44.80539" lon="4.79492">
        <ele>94</ele>
        <time>2019-04-18T16:44:52Z</time>
      </trkpt>
      <trkpt lat="44.8055" lon="4.79573">
        <ele>94</ele>
        <time>2019-04-18T16:45:52Z</time>
      </trkpt>
      <trkpt lat="44.80574" lon="4.79651">
        <ele>93</ele>
        <time>2019-04-18T16:46:52Z</time>
      </trkpt>
      <trkpt lat="44.80589" lon="4.79686">
        <ele>93</ele>
        <time>2019-04-18T16:47:52Z</time>
      </trkpt>
      <trkpt lat="44.80602" lon="4.79704">
        <ele>94</ele>
        <time>2019-04-18T16:48:52Z</time>
      </trkpt>
      <trkpt lat="44.80684" lon="4.79785">
        <ele>97</ele>
        <time>2019-04-18T16:49:52Z</time>
      </trkpt>
      <trkpt lat="44.80706" lon="4.79813">
        <ele>98</ele>
        <time>2019-04-18T16:50:52Z</time>
      </trkpt>
      <trkpt lat="44.80736" lon="4.79842">
        <ele>99</ele>
        <time>2019-04-18T16:51:52Z</time>
      </trkpt>
      <trkpt lat="44.80745" lon="4.79861">
        <ele>98</ele>
        <time>2019-04-18T16:52:52Z</time>
      </trkpt>
      <trkpt lat="44.80751" lon="4.79869">
        <ele>98</ele>
        <time>2019-04-18T16:53:52Z</time>
      </trkpt>
      <trkpt lat="44.8077" lon="4.79885">
        <ele>97</ele>
        <time>2019-04-18T16:54:52Z</time>
      </trkpt>
      <trkpt lat="44.80786" lon="4.79892">
        <ele>97</ele>
        <time>2019-04-18T16:55:52Z</time>
      </trkpt>
      <trkpt lat="44.80849" lon="4.79944">
        <ele>95</ele>
        <time>2019-04-18T16:56:52Z</time>
      </trkpt>
      <trkpt lat="44.80877" lon="4.79975">
        <ele>94</ele>
        <time>2019-04-18T16:57:52Z</time>
      </trkpt>
      <trkpt lat="44.8098" lon="4.80039">
        <ele>96</ele>
        <time>2019-04-18T16:58:52Z</time>
      </trkpt>
      <trkpt lat="44.81015" lon="4.80055">
        <ele>96</ele>
        <time>2019-04-18T16:59:52Z</time>
      </trkpt>
      <trkpt lat="44.81108" lon="4.80078">
        <ele>97</ele>
        <time>2019-04-18T17:00:52Z</time>
      </trkpt>
      <trkpt lat="44.81222" lon="4.80097">
        <ele>93</ele>
        <time>2019-04-18T17:01:52Z</time>
      </trkpt>
      <trkpt lat="44.81254" lon="4.80098">
        <ele>92</ele>
        <time>2019-04-18T17:02:52Z</time>
      </trkpt>
      <trkpt lat="44.8131" lon="4.80092">
        <ele>94</ele>
        <time>2019-04-18T17:03:52Z</time>
      </trkpt>
      <trkpt lat="44.8136" lon="4.80112">
        <ele>95</ele>
        <time>2019-04-18T17:04:52Z</time>
      </trkpt>
      <trkpt lat="44.81413" lon="4.80117">
        <ele>98</ele>
        <time>2019-04-18T17:05:52Z</time>
      </trkpt>
      <trkpt lat="44.81496" lon="4.80129">
        <ele>97</ele>
        <time>2019-04-18T17:06:52Z</time>
      </trkpt>
      <trkpt lat="44.81549" lon="4.80139">
        <ele>96</ele>
        <time>2019-04-18T17:07:52Z</time>
      </trkpt>
      <trkpt lat="44.81608" lon="4.80145">
        <ele>94</ele>
        <time>2019-04-18T17:08:52Z</time>
      </trkpt>
      <trkpt lat="44.81701" lon="4.8015">
        <ele>94</ele>
        <time>2019-04-18T17:09:52Z</time>
      </trkpt>
      <trkpt lat="44.81818" lon="4.80136">
        <ele>93</ele>
        <time>2019-04-18T17:10:52Z</time>
      </trkpt>
      <trkpt lat="44.81943" lon="4.80116">
        <ele>95</ele>
        <time>2019-04-18T17:11:52Z</time>
      </trkpt>
      <trkpt lat="44.82022" lon="4.80109">
        <ele>95</ele>
        <time>2019-04-18T17:12:52Z</time>
      </trkpt>
      <trkpt lat="44.8208" lon="4.80101">
        <ele>94</ele>
        <time>2019-04-18T17:13:52Z</time>
      </trkpt>
      <trkpt lat="44.82109" lon="4.80094">
        <ele>94</ele>
        <time>2019-04-18T17:14:52Z</time>
      </trkpt>
      <trkpt lat="44.82137" lon="4.80082">
        <ele>94</ele>
        <time>2019-04-18T17:15:52Z</time>
      </trkpt>
      <trkpt lat="44.82186" lon="4.80049">
        <ele>95</ele>
        <time>2019-04-18T17:16:52Z</time>
      </trkpt>
      <trkpt lat="44.82192" lon="4.8004">
        <ele>95</ele>
        <time>2019-04-18T17:17:52Z</time>
      </trkpt>
      <trkpt lat="44.82206" lon="4.80006">
        <ele>96</ele>
        <time>2019-04-18T17:18:52Z</time>
      </trkpt>
      <trkpt lat="44.82213" lon="4.79997">
        <ele>97</ele>
        <time>2019-04-18T17:19:52Z</time>
      </trkpt>
      <trkpt lat="44.82231" lon="4.79983">
        <ele>97</ele>
        <time>2019-04-18T17:20:52Z</time>
      </trkpt>
      <trkpt lat="44.82263" lon="4.79963">
        <ele>98</ele>
        <time>2019-04-18T17:21:52Z</time>
      </trkpt>
      <trkpt lat="44.82288" lon="4.79956">
        <ele>97</ele>
        <time>2019-04-18T17:22:52Z</time>
      </trkpt>
      <trkpt lat="44.82299" lon="4.79943">
        <ele>97</ele>
        <time>2019-04-18T17:23:52Z</time>
      </trkpt>
      <trkpt lat="44.82322" lon="4.79922">
        <ele>97</ele>
        <time>2019-04-18T17:24:52Z</time>
      </trkpt>
      <trkpt lat="44.82347" lon="4.79885">
        <ele>96</ele>
        <time>2019-04-18T17:25:52Z</time>
      </trkpt>
      <trkpt lat="44.82363" lon="4.7985">
        <ele>96</ele>
        <time>2019-04-18T17:26:52Z</time>
      </trkpt>
      <trkpt lat="44.82372" lon="4.79822">
        <ele>97</ele>
        <time>2019-04-18T17:27:52Z</time>
      </trkpt>
      <trkpt lat="44.82385" lon="4.79807">
        <ele>97</ele>
        <time>2019-04-18T17:28:52Z</time>
      </trkpt>
      <trkpt lat="44.82387" lon="4.7981">
        <ele>97</ele>
        <time>2019-04-18T17:29:52Z</time>
      </trkpt>
      <trkpt lat="44.82479" lon="4.79992">
        <ele>96</ele>
        <time>2019-04-18T17:30:52Z</time>
      </trkpt>
      <trkpt lat="44.82478" lon="4.79996">
        <ele>96</ele>
        <time>2019-04-18T17:31:52Z</time>
      </trkpt>
      <trkpt lat="44.82464" lon="4.8">
        <ele>96</ele>
        <time>2019-04-18T17:32:52Z</time>
      </trkpt>
      <trkpt lat="44.82372" lon="4.80071">
        <ele>97</ele>
        <time>2019-04-18T17:33:52Z</time>
      </trkpt>
      <trkpt lat="44.82361" lon="4.80077">
        <ele>97</ele>
        <time>2019-04-18T17:34:52Z</time>
      </trkpt>
      <trkpt lat="44.82317" lon="4.80092">
        <ele>96</ele>
        <time>2019-04-18T17:35:52Z</time>
      </trkpt>
      <trkpt lat="44.82302" lon="4.80106">
        <ele>97</ele>
        <time>2019-04-18T17:36:52Z</time>
      </trkpt>
      <trkpt lat="44.8223" lon="4.80156">
        <ele>97</ele>
        <time>2019-04-18T17:37:52Z</time>
      </trkpt>
      <trkpt lat="44.82232" lon="4.8016">
        <ele>97</ele>
        <time>2019-04-18T17:38:52Z</time>
      </trkpt>
      <trkpt lat="44.82204" lon="4.8018">
        <ele>96</ele>
        <time>2019-04-18T17:39:52Z</time>
      </trkpt>
      <trkpt lat="44.82154" lon="4.80209">
        <ele>95</ele>
        <time>2019-04-18T17:40:52Z</time>
      </trkpt>
      <trkpt lat="44.82132" lon="4.80219">
        <ele>94</ele>
        <time>2019-04-18T17:41:52Z</time>
      </trkpt>
      <trkpt lat="44.82107" lon="4.80225">
        <ele>93</ele>
        <time>2019-04-18T17:42:52Z</time>
      </trkpt>
      <trkpt lat="44.82079" lon="4.80228">
        <ele>93</ele>
        <time>2019-04-18T17:43:52Z</time>
      </trkpt>
      <trkpt lat="44.81829" lon="4.80251">
        <ele>92</ele>
        <time>2019-04-18T17:44:52Z</time>
      </trkpt>
      <trkpt lat="44.81804" lon="4.80256">
        <ele>92</ele>
        <time>2019-04-18T17:45:52Z</time>
      </trkpt>
      <trkpt lat="44.81721" lon="4.8028">
        <ele>93</ele>
        <time>2019-04-18T17:46:52Z</time>
      </trkpt>
      <trkpt lat="44.81629" lon="4.80293">
        <ele>95</ele>
        <time>2019-04-18T17:47:52Z</time>
      </trkpt>
      <trkpt lat="44.81517" lon="4.80297">
        <ele>95</ele>
        <time>2019-04-18T17:48:52Z</time>
      </trkpt>
      <trkpt lat="44.8138" lon="4.80284">
        <ele>93</ele>
        <time>2019-04-18T17:49:52Z</time>
      </trkpt>
      <trkpt lat="44.81216" lon="4.80267">
        <ele>96</ele>
        <time>2019-04-18T17:50:52Z</time>
      </trkpt>
      <trkpt lat="44.81211" lon="4.80271">
        <ele>96</ele>
        <time>2019-04-18T17:51:52Z</time>
      </trkpt>
      <trkpt lat="44.81209" lon="4.80277">
        <ele>96</ele>
        <time>2019-04-18T17:52:52Z</time>
      </trkpt>
      <trkpt lat="44.81211" lon="4.80287">
        <ele>97</ele>
        <time>2019-04-18T17:53:52Z</time>
      </trkpt>
      <trkpt lat="44.81215" lon="4.80297">
        <ele>97</ele>
        <time>2019-04-18T17:54:52Z</time>
      </trkpt>
      <trkpt lat="44.8128" lon="4.80374">
        <ele>97</ele>
        <time>2019-04-18T17:55:52Z</time>
      </trkpt>
      <trkpt lat="44.81391" lon="4.80499">
        <ele>96</ele>
        <time>2019-04-18T17:56:52Z</time>
      </trkpt>
      <trkpt lat="44.8144" lon="4.80537">
        <ele>97</ele>
        <time>2019-04-18T17:57:52Z</time>
      </trkpt>
      <trkpt lat="44.81462" lon="4.80549">
        <ele>97</ele>
        <time>2019-04-18T17:58:52Z</time>
      </trkpt>
      <trkpt lat="44.81491" lon="4.80559">
        <ele>98</ele>
        <time>2019-04-18T17:59:52Z</time>
      </trkpt>
      <trkpt lat="44.81524" lon="4.80565">
        <ele>98</ele>
        <time>2019-04-18T18:00:52Z</time>
      </trkpt>
      <trkpt lat="44.81589" lon="4.80581">
        <ele>99</ele>
        <time>2019-04-18T18:01:52Z</time>
      </trkpt>
      <trkpt lat="44.81662" lon="4.80617">
        <ele>97</ele>
        <time>2019-04-18T18:02:52Z</time>
      </trkpt>
      <trkpt lat="44.81696" lon="4.80619">
        <ele>98</ele>
        <time>2019-04-18T18:03:52Z</time>
      </trkpt>
      <trkpt lat="44.81879" lon="4.80644">
        <ele>98</ele>
        <time>2019-04-18T18:04:52Z</time>
      </trkpt>
      <trkpt lat="44.81904" lon="4.80652">
        <ele>98</ele>
        <time>2019-04-18T18:05:52Z</time>
      </trkpt>
      <trkpt lat="44.81942" lon="4.80671">
        <ele>98</ele>
        <time>2019-04-18T18:06:52Z</time>
      </trkpt>
      <trkpt lat="44.82049" lon="4.80737">
        <ele>98</ele>
        <time>2019-04-18T18:07:52Z</time>
      </trkpt>
      <trkpt lat="44.82124" lon="4.80747">
        <ele>97</ele>
        <time>2019-04-18T18:08:52Z</time>
      </trkpt>
      <trkpt lat="44.82183" lon="4.80762">
        <ele>97</ele>
        <time>2019-04-18T18:09:52Z</time>
      </trkpt>
      <trkpt lat="44.8233" lon="4.80817">
        <ele>96</ele>
        <time>2019-04-18T18:10:52Z</time>
      </trkpt>
      <trkpt lat="44.82339" lon="4.80823">
        <ele>96</ele>
        <time>2019-04-18T18:11:52Z</time>
      </trkpt>
      <trkpt lat="44.82346" lon="4.80831">
        <ele>96</ele>
        <time>2019-04-18T18:12:52Z</time>
      </trkpt>
      <trkpt lat="44.82354" lon="4.80843">
        <ele>96</ele>
        <time>2019-04-18T18:13:52Z</time>
      </trkpt>
      <trkpt lat="44.8237" lon="4.80873">
        <ele>95</ele>
        <time>2019-04-18T18:14:52Z</time>
      </trkpt>
      <trkpt lat="44.82378" lon="4.80881">
        <ele>96</ele>
        <time>2019-04-18T18:15:52Z</time>
      </trkpt>
      <trkpt lat="44.82393" lon="4.80888">
        <ele>96</ele>
        <time>2019-04-18T18:16:52Z</time>
      </trkpt>
      <trkpt lat="44.82411" lon="4.80886">
        <ele>96</ele>
        <time>2019-04-18T18:17:52Z</time>
      </trkpt>
      <trkpt lat="44.82416" lon="4.80881">
        <ele>97</ele>
        <time>2019-04-18T18:18:52Z</time>
      </trkpt>
      <trkpt lat="44.8242" lon="4.80895">
        <ele>97</ele>
        <time>2019-04-18T18:19:52Z</time>
      </trkpt>
      <trkpt lat="44.82427" lon="4.8091">
        <ele>97</ele>
        <time>2019-04-18T18:20:52Z</time>
      </trkpt>
      <trkpt lat="44.82459" lon="4.80942">
        <ele>98</ele>
        <time>2019-04-18T18:21:52Z</time>
      </trkpt>
      <trkpt lat="44.82489" lon="4.80978">
        <ele>98</ele>
        <time>2019-04-18T18:22:52Z</time>
      </trkpt>
      <trkpt lat="44.82503" lon="4.81">
        <ele>97</ele>
        <time>2019-04-18T18:23:52Z</time>
      </trkpt>
      <trkpt lat="44.8258" lon="4.81024">
        <ele>97</ele>
        <time>2019-04-18T18:24:52Z</time>
      </trkpt>
      <trkpt lat="44.82615" lon="4.80989">
        <ele>98</ele>
        <time>2019-04-18T18:25:52Z</time>
      </trkpt>
      <trkpt lat="44.82626" lon="4.80981">
        <ele>98</ele>
        <time>2019-04-18T18:26:52Z</time>
      </trkpt>
      <trkpt lat="44.82651" lon="4.80977">
        <ele>99</ele>
        <time>2019-04-18T18:27:52Z</time>
      </trkpt>
      <trkpt lat="44.82663" lon="4.80981">
        <ele>100</ele>
        <time>2019-04-18T18:28:52Z</time>
      </trkpt>
      <trkpt lat="44.82861" lon="4.81068">
        <ele>101</ele>
        <time>2019-04-18T18:29:52Z</time>
      </trkpt>
      <trkpt lat="44.8292" lon="4.81098">
        <ele>99</ele>
        <time>2019-04-18T18:30:52Z</time>
      </trkpt>
      <trkpt lat="44.82991" lon="4.81145">
        <ele>99</ele>
        <time>2019-04-18T18:31:52Z</time>
      </trkpt>
      <trkpt lat="44.83027" lon="4.81174">
        <ele>98</ele>
        <time>2019-04-18T18:32:52Z</time>
      </trkpt>
      <trkpt lat="44.83096" lon="4.81239">
        <ele>97</ele>
        <time>2019-04-18T18:33:52Z</time>
      </trkpt>
      <trkpt lat="44.83231" lon="4.81376">
        <ele>96</ele>
        <time>2019-04-18T18:34:52Z</time>
      </trkpt>
      <trkpt lat="44.83329" lon="4.81457">
        <ele>99</ele>
        <time>2019-04-18T18:35:52Z</time>
      </trkpt>
      <trkpt lat="44.83408" lon="4.8151">
        <ele>98</ele>
        <time>2019-04-18T18:36:52Z</time>
      </trkpt>
      <trkpt lat="44.8349" lon="4.81549">
        <ele>97</ele>
        <time>2019-04-18T18:37:52Z</time>
      </trkpt>
      <trkpt lat="44.83611" lon="4.81602">
        <ele>97</ele>
        <time>2019-04-18T18:38:52Z</time>
      </trkpt>
      <trkpt lat="44.83736" lon="4.8165">
        <ele>100</ele>
        <time>2019-04-18T18:39:52Z</time>
      </trkpt>
      <trkpt lat="44.83773" lon="4.81666">
        <ele>102</ele>
        <time>2019-04-18T18:40:52Z</time>
      </trkpt>
      <trkpt lat="44.83857" lon="4.81712">
        <ele>103</ele>
        <time>2019-04-18T18:41:52Z</time>
      </trkpt>
      <trkpt lat="44.83899" lon="4.81737">
        <ele>102</ele>
        <time>2019-04-18T18:42:52Z</time>
      </trkpt>
      <trkpt lat="44.83929" lon="4.81759">
        <ele>102</ele>
        <time>2019-04-18T18:43:52Z</time>
      </trkpt>
      <trkpt lat="44.84006" lon="4.81818">
        <ele>101</ele>
        <time>2019-04-18T18:44:52Z</time>
      </trkpt>
      <trkpt lat="44.84073" lon="4.81851">
        <ele>106</ele>
        <time>2019-04-18T18:45:52Z</time>
      </trkpt>
      <trkpt lat="44.84088" lon="4.8186">
        <ele>106</ele>
        <time>2019-04-18T18:46:52Z</time>
      </trkpt>
      <trkpt lat="44.84133" lon="4.81895">
        <ele>105</ele>
        <time>2019-04-18T18:47:52Z</time>
      </trkpt>
      <trkpt lat="44.84222" lon="4.81957">
        <ele>104</ele>
        <time>2019-04-18T18:48:52Z</time>
      </trkpt>
      <trkpt lat="44.84255" lon="4.81975">
        <ele>104</ele>
        <time>2019-04-18T18:49:52Z</time>
      </trkpt>
      <trkpt lat="44.84296" lon="4.82006">
        <ele>104</ele>
        <time>2019-04-18T18:50:52Z</time>
      </trkpt>
      <trkpt lat="44.84336" lon="4.82045">
        <ele>105</ele>
        <time>2019-04-18T18:51:52Z</time>
      </trkpt>
      <trkpt lat="44.8437" lon="4.82072">
        <ele>105</ele>
        <time>2019-04-18T18:52:52Z</time>
      </trkpt>
      <trkpt lat="44.84443" lon="4.82124">
        <ele>105</ele>
        <time>2019-04-18T18:53:52Z</time>
      </trkpt>
      <trkpt lat="44.8445" lon="4.8214">
        <ele>106</ele>
        <time>2019-04-18T18:54:52Z</time>
      </trkpt>
      <trkpt lat="44.8445" lon="4.82149">
        <ele>105</ele>
        <time>2019-04-18T18:55:52Z</time>
      </trkpt>
      <trkpt lat="44.84448" lon="4.82159">
        <ele>105</ele>
        <time>2019-04-18T18:56:52Z</time>
      </trkpt>
      <trkpt lat="44.84444" lon="4.82168">
        <ele>105</ele>
        <time>2019-04-18T18:57:52Z</time>
      </trkpt>
      <trkpt lat="44.84427" lon="4.82187">
        <ele>104</ele>
        <time>2019-04-18T18:58:52Z</time>
      </trkpt>
      <trkpt lat="44.84415" lon="4.82205">
        <ele>104</ele>
        <time>2019-04-18T18:59:52Z</time>
      </trkpt>
      <trkpt lat="44.84413" lon="4.82216">
        <ele>103</ele>
        <time>2019-04-18T19:00:52Z</time>
      </trkpt>
      <trkpt lat="44.84415" lon="4.82228">
        <ele>103</ele>
        <time>2019-04-18T19:01:52Z</time>
      </trkpt>
      <trkpt lat="44.84421" lon="4.82237">
        <ele>102</ele>
        <time>2019-04-18T19:02:52Z</time>
      </trkpt>
      <trkpt lat="44.84438" lon="4.82249">
        <ele>102</ele>
        <time>2019-04-18T19:03:52Z</time>
      </trkpt>
      <trkpt lat="44.84446" lon="4.82259">
        <ele>102</ele>
        <time>2019-04-18T19:04:52Z</time>
      </trkpt>
      <trkpt lat="44.84482" lon="4.82319">
        <ele>99</ele>
        <time>2019-04-18T19:05:52Z</time>
      </trkpt>
      <trkpt lat="44.84542" lon="4.82402">
        <ele>98</ele>
        <time>2019-04-18T19:06:52Z</time>
      </trkpt>
      <trkpt lat="44.84592" lon="4.82477">
        <ele>98</ele>
        <time>2019-04-18T19:07:52Z</time>
      </trkpt>
      <trkpt lat="44.84818" lon="4.82841">
        <ele>99</ele>
        <time>2019-04-18T19:08:52Z</time>
      </trkpt>
      <trkpt lat="44.84855" lon="4.82904">
        <ele>100</ele>
        <time>2019-04-18T19:09:52Z</time>
      </trkpt>
      <trkpt lat="44.84927" lon="4.83019">
        <ele>100</ele>
        <time>2019-04-18T19:10:52Z</time>
      </trkpt>
      <trkpt lat="44.84966" lon="4.83081">
        <ele>101</ele>
        <time>2019-04-18T19:11:52Z</time>
      </trkpt>
      <trkpt lat="44.85221" lon="4.83493">
        <ele>103</ele>
        <time>2019-04-18T19:12:52Z</time>
      </trkpt>
      <trkpt lat="44.85281" lon="4.83584">
        <ele>103</ele>
        <time>2019-04-18T19:13:52Z</time>
      </trkpt>
      <trkpt lat="44.8529" lon="4.83595">
        <ele>103</ele>
        <time>2019-04-18T19:14:52Z</time>
      </trkpt>
      <trkpt lat="44.8531" lon="4.83609">
        <ele>103</ele>
        <time>2019-04-18T19:15:52Z</time>
      </trkpt>
      <trkpt lat="44.85322" lon="4.83612">
        <ele>103</ele>
        <time>2019-04-18T19:16:52Z</time>
      </trkpt>
      <trkpt lat="44.85327" lon="4.8362">
        <ele>103</ele>
        <time>2019-04-18T19:17:52Z</time>
      </trkpt>
      <trkpt lat="44.85346" lon="4.83627">
        <ele>103</ele>
        <time>2019-04-18T19:18:52Z</time>
      </trkpt>
      <trkpt lat="44.85371" lon="4.8363">
        <ele>103</ele>
        <time>2019-04-18T19:19:52Z</time>
      </trkpt>
      <trkpt lat="44.85477" lon="4.83649">
        <ele>101</ele>
        <time>2019-04-18T19:20:52Z</time>
      </trkpt>
      <trkpt lat="44.85478" lon="4.83661">
        <ele>100</ele>
        <time>2019-04-18T19:21:52Z</time>
      </trkpt>
      <trkpt lat="44.85458" lon="4.83806">
        <ele>105</ele>
        <time>2019-04-18T19:22:52Z</time>
      </trkpt>
      <trkpt lat="44.8546" lon="4.83808">
        <ele>105</ele>
        <time>2019-04-18T19:23:52Z</time>
      </trkpt>
      <trkpt lat="44.85471" lon="4.8381">
        <ele>105</ele>
        <time>2019-04-18T19:24:52Z</time>
      </trkpt>
      <trkpt lat="44.85475" lon="4.83819">
        <ele>105</ele>
        <time>2019-04-18T19:25:52Z</time>
      </trkpt>
      <trkpt lat="44.85479" lon="4.8382">
        <ele>105</ele>
        <time>2019-04-18T19:26:52Z</time>
      </trkpt>
      <trkpt lat="44.85483" lon="4.83818">
        <ele>105</ele>
        <time>2019-04-18T19:27:52Z</time>
      </trkpt>
      <trkpt lat="44.85486" lon="4.8381">
        <ele>105</ele>
        <time>2019-04-18T19:28:52Z</time>
      </trkpt>
      <trkpt lat="44.85493" lon="4.83802">
        <ele>105</ele>
        <time>2019-04-18T19:29:52Z</time>
      </trkpt>
      <trkpt lat="44.85504" lon="4.83796">
        <ele>105</ele>
        <time>2019-04-18T19:30:52Z</time>
      </trkpt>
      <trkpt lat="44.85544" lon="4.83788">
        <ele>105</ele>
        <time>2019-04-18T19:31:52Z</time>
      </trkpt>
      <trkpt lat="44.85547" lon="4.83793">
        <ele>105</ele>
        <time>2019-04-18T19:32:52Z</time>
      </trkpt>
      <trkpt lat="44.85596" lon="4.83787">
        <ele>106</ele>
        <time>2019-04-18T19:33:52Z</time>
      </trkpt>
      <trkpt lat="44.85619" lon="4.83779">
        <ele>106</ele>
        <time>2019-04-18T19:34:52Z</time>
      </trkpt>
      <trkpt lat="44.85722" lon="4.83704">
        <ele>106</ele>
        <time>2019-04-18T19:35:52Z</time>
      </trkpt>
      <trkpt lat="44.85793" lon="4.8365">
        <ele>106</ele>
        <time>2019-04-18T19:36:52Z</time>
      </trkpt>
      <trkpt lat="44.85877" lon="4.83594">
        <ele>107</ele>
        <time>2019-04-18T19:37:52Z</time>
      </trkpt>
      <trkpt lat="44.85927" lon="4.83557">
        <ele>108</ele>
        <time>2019-04-18T19:38:52Z</time>
      </trkpt>
      <trkpt lat="44.85943" lon="4.83547">
        <ele>109</ele>
        <time>2019-04-18T19:39:52Z</time>
      </trkpt>
      <trkpt lat="44.85957" lon="4.83577">
        <ele>109</ele>
        <time>2019-04-18T19:40:52Z</time>
      </trkpt>
      <trkpt lat="44.85967" lon="4.83592">
        <ele>110</ele>
        <time>2019-04-18T19:41:52Z</time>
      </trkpt>
      <trkpt lat="44.86003" lon="4.83623">
        <ele>111</ele>
        <time>2019-04-18T19:42:52Z</time>
      </trkpt>
      <trkpt lat="44.86011" lon="4.83639">
        <ele>110</ele>
        <time>2019-04-18T19:43:52Z</time>
      </trkpt>
      <trkpt lat="44.86069" lon="4.83685">
        <ele>110</ele>
        <time>2019-04-18T19:44:52Z</time>
      </trkpt>
      <trkpt lat="44.86076" lon="4.83699">
        <ele>109</ele>
        <time>2019-04-18T19:45:52Z</time>
      </trkpt>
      <trkpt lat="44.86084" lon="4.83708">
        <ele>109</ele>
        <time>2019-04-18T19:46:52Z</time>
      </trkpt>
      <trkpt lat="44.86156" lon="4.83774">
        <ele>109</ele>
        <time>2019-04-18T19:47:52Z</time>
      </trkpt>
      <trkpt lat="44.86168" lon="4.83757">
        <ele>109</ele>
        <time>2019-04-18T19:48:52Z</time>
      </trkpt>
      <trkpt lat="44.86181" lon="4.83746">
        <ele>109</ele>
        <time>2019-04-18T19:49:52Z</time>
      </trkpt>
      <trkpt lat="44.86186" lon="4.83739">
        <ele>109</ele>
        <time>2019-04-18T19:50:52Z</time>
      </trkpt>
      <trkpt lat="44.86213" lon="4.83764">
        <ele>108</ele>
        <time>2019-04-18T19:51:52Z</time>
      </trkpt>
      <trkpt lat="44.86315" lon="4.83848">
        <ele>108</ele>
        <time>2019-04-18T19:52:52Z</time>
      </trkpt>
      <trkpt lat="44.86335" lon="4.83858">
        <ele>108</ele>
        <time>2019-04-18T19:53:52Z</time>
      </trkpt>
      <trkpt lat="44.86353" lon="4.83872">
        <ele>108</ele>
        <time>2019-04-18T19:54:52Z</time>
      </trkpt>
      <trkpt lat="44.86365" lon="4.83886">
        <ele>108</ele>
        <time>2019-04-18T19:55:52Z</time>
      </trkpt>
      <trkpt lat="44.86574" lon="4.84055">
        <ele>106</ele>
        <time>2019-04-18T19:56:52Z</time>
      </trkpt>
      <trkpt lat="44.86581" lon="4.84063">
        <ele>106</ele>
        <time>2019-04-18T19:57:52Z</time>
      </trkpt>
      <trkpt lat="44.86588" lon="4.84064">
        <ele>106</ele>
        <time>2019-04-18T19:58:52Z</time>
      </trkpt>
      <trkpt lat="44.866" lon="4.8407">
        <ele>106</ele>
        <time>2019-04-18T19:59:52Z</time>
      </trkpt>
      <trkpt lat="44.86663" lon="4.84116">
        <ele>104</ele>
        <time>2019-04-18T20:00:52Z</time>
      </trkpt>
      <trkpt lat="44.86964" lon="4.84354">
        <ele>105</ele>
        <time>2019-04-18T20:01:52Z</time>
      </trkpt>
      <trkpt lat="44.87054" lon="4.84427">
        <ele>107</ele>
        <time>2019-04-18T20:02:52Z</time>
      </trkpt>
      <trkpt lat="44.87084" lon="4.84456">
        <ele>107</ele>
        <time>2019-04-18T20:03:52Z</time>
      </trkpt>
      <trkpt lat="44.87019" lon="4.84575">
        <ele>106</ele>
        <time>2019-04-18T20:04:52Z</time>
      </trkpt>
      <trkpt lat="44.86883" lon="4.84859">
        <ele>106</ele>
        <time>2019-04-18T20:05:52Z</time>
      </trkpt>
      <trkpt lat="44.86888" lon="4.84862">
        <ele>106</ele>
        <time>2019-04-18T20:06:52Z</time>
      </trkpt>
      <trkpt lat="44.86915" lon="4.84862">
        <ele>106</ele>
        <time>2019-04-18T20:07:52Z</time>
      </trkpt>
      <trkpt lat="44.8693" lon="4.84873">
        <ele>106</ele>
        <time>2019-04-18T20:08:52Z</time>
      </trkpt>
      <trkpt lat="44.86942" lon="4.8488">
        <ele>106</ele>
        <time>2019-04-18T20:09:52Z</time>
      </trkpt>
      <trkpt lat="44.87041" lon="4.84902">
        <ele>105</ele>
        <time>2019-04-18T20:10:52Z</time>
      </trkpt>
      <trkpt lat="44.87147" lon="4.84922">
        <ele>104</ele>
        <time>2019-04-18T20:11:52Z</time>
      </trkpt>
      <trkpt lat="44.87219" lon="4.84945">
        <ele>105</ele>
        <time>2019-04-18T20:12:52Z</time>
      </trkpt>
      <trkpt lat="44.87281" lon="4.84961">
        <ele>105</ele>
        <time>2019-04-18T20:13:52Z</time>
      </trkpt>
      <trkpt lat="44.87301" lon="4.84968">
        <ele>104</ele>
        <time>2019-04-18T20:14:52Z</time>
      </trkpt>
      <trkpt lat="44.87336" lon="4.85001">
        <ele>104</ele>
        <time>2019-04-18T20:15:52Z</time>
      </trkpt>
      <trkpt lat="44.87353" lon="4.85011">
        <ele>103</ele>
        <time>2019-04-18T20:16:52Z</time>
      </trkpt>
      <trkpt lat="44.875" lon="4.85054">
        <ele>103</ele>
        <time>2019-04-18T20:17:52Z</time>
      </trkpt>
      <trkpt lat="44.87521" lon="4.85059">
        <ele>103</ele>
        <time>2019-04-18T20:18:52Z</time>
      </trkpt>
      <trkpt lat="44.87606" lon="4.85059">
        <ele>104</ele>
        <time>2019-04-18T20:19:52Z</time>
      </trkpt>
      <trkpt lat="44.87639" lon="4.85054">
        <ele>104</ele>
        <time>2019-04-18T20:20:52Z</time>
      </trkpt>
      <trkpt lat="44.87667" lon="4.85043">
        <ele>104</ele>
        <time>2019-04-18T20:21:52Z</time>
      </trkpt>
      <trkpt lat="44.87757" lon="4.85002">
        <ele>104</ele>
        <time>2019-04-18T20:22:52Z</time>
      </trkpt>
      <trkpt lat="44.87783" lon="4.84998">
        <ele>104</ele>
        <time>2019-04-18T20:23:52Z</time>
      </trkpt>
      <trkpt lat="44.87806" lon="4.85">
        <ele>105</ele>
        <time>2019-04-18T20:24:52Z</time>
      </trkpt>
      <trkpt lat="44.87836" lon="4.85007">
        <ele>105</ele>
        <time>2019-04-18T20:25:52Z</time>
      </trkpt>
      <trkpt lat="44.87873" lon="4.85022">
        <ele>106</ele>
        <time>2019-04-18T20:26:52Z</time>
      </trkpt>
      <trkpt lat="44.88014" lon="4.85055">
        <ele>106</ele>
        <time>2019-04-18T20:27:52Z</time>
      </trkpt>
      <trkpt lat="44.8807" lon="4.85066">
        <ele>106</ele>
        <time>2019-04-18T20:28:52Z</time>
      </trkpt>
      <trkpt lat="44.88065" lon="4.85071">
        <ele>106</ele>
        <time>2019-04-18T20:29:52Z</time>
      </trkpt>
      <trkpt lat="44.88026" lon="4.8507">
        <ele>107</ele>
        <time>2019-04-18T20:30:52Z</time>
      </trkpt>
      <trkpt lat="44.88012" lon="4.85075">
        <ele>107</ele>
        <time>2019-04-18T20:31:52Z</time>
      </trkpt>
      <trkpt lat="44.87972" lon="4.85108">
        <ele>108</ele>
        <time>2019-04-18T20:32:52Z</time>
      </trkpt>
      <trkpt lat="44.87938" lon="4.85143">
        <ele>108</ele>
        <time>2019-04-18T20:33:52Z</time>
      </trkpt>
      <trkpt lat="44.87937" lon="4.85193">
        <ele>108</ele>
        <time>2019-04-18T20:34:52Z</time>
      </trkpt>
      <trkpt lat="44.87943" lon="4.85215">
        <ele>107</ele>
        <time>2019-04-18T20:35:52Z</time>
      </trkpt>
      <trkpt lat="44.87952" lon="4.85231">
        <ele>107</ele>
        <time>2019-04-18T20:36:52Z</time>
      </trkpt>
      <trkpt lat="44.87963" lon="4.85238">
        <ele>106</ele>
        <time>2019-04-18T20:37:52Z</time>
      </trkpt>
      <trkpt lat="44.87977" lon="4.85239">
        <ele>106</ele>
        <time>2019-04-18T20:38:52Z</time>
      </trkpt>
      <trkpt lat="44.88007" lon="4.85236">
        <ele>106</ele>
        <time>2019-04-18T20:39:52Z</time>
      </trkpt>
      <trkpt lat="44.88021" lon="4.85254">
        <ele>105</ele>
        <time>2019-04-18T20:40:52Z</time>
      </trkpt>
      <trkpt lat="44.88094" lon="4.85397">
        <ele>102</ele>
        <time>2019-04-18T20:41:52Z</time>
      </trkpt>
      <trkpt lat="44.8818" lon="4.85419">
        <ele>102</ele>
        <time>2019-04-18T20:42:52Z</time>
      </trkpt>
      <trkpt lat="44.88307" lon="4.85491">
        <ele>103</ele>
        <time>2019-04-18T20:43:52Z</time>
      </trkpt>
      <trkpt lat="44.88331" lon="4.85495">
        <ele>103</ele>
        <time>2019-04-18T20:44:52Z</time>
      </trkpt>
      <trkpt lat="44.88441" lon="4.85486">
        <ele>103</ele>
        <time>2019-04-18T20:45:52Z</time>
      </trkpt>
      <trkpt lat="44.88501" lon="4.85467">
        <ele>105</ele>
        <time>2019-04-18T20:46:52Z</time>
      </trkpt>
      <trkpt lat="44.88542" lon="4.85467">
        <ele>104</ele>
        <time>2019-04-18T20:47:52Z</time>
      </trkpt>
      <trkpt lat="44.88709" lon="4.85348">
        <ele>105</ele>
        <time>2019-04-18T20:48:52Z</time>
      </trkpt>
      <trkpt lat="44.88801" lon="4.853">
        <ele>106</ele>
        <time>2019-04-18T20:49:52Z</time>
      </trkpt>
      <trkpt lat="44.88934" lon="4.85246">
        <ele>108</ele>
        <time>2019-04-18T20:50:52Z</time>
      </trkpt>
      <trkpt lat="44.88955" lon="4.85243">
        <ele>108</ele>
        <time>2019-04-18T20:51:52Z</time>
      </trkpt>
      <trkpt lat="44.88962" lon="4.85238">
        <ele>109</ele>
        <time>2019-04-18T20:52:52Z</time>
      </trkpt>
      <trkpt lat="44.88966" lon="4.85231">
        <ele>109</ele>
        <time>2019-04-18T20:53:52Z</time>
      </trkpt>
      <trkpt lat="44.88978" lon="4.85236">
        <ele>109</ele>
        <time>2019-04-18T20:54:52Z</time>
      </trkpt>
      <trkpt lat="44.89221" lon="4.85181">
        <ele>107</ele>
        <time>2019-04-18T20:55:52Z</time>
      </trkpt>
      <trkpt lat="44.89237" lon="4.85175">
        <ele>107</ele>
        <time>2019-04-18T20:56:52Z</time>
      </trkpt>
      <trkpt lat="44.89252" lon="4.85176">
        <ele>107</ele>
        <time>2019-04-18T20:57:52Z</time>
      </trkpt>
      <trkpt lat="44.89288" lon="4.85172">
        <ele>106</ele>
        <time>2019-04-18T20:58:52Z</time>
      </trkpt>
      <trkpt lat="44.89449" lon="4.85178">
        <ele>107</ele>
        <time>2019-04-18T20:59:52Z</time>
      </trkpt>
      <trkpt lat="44.89689" lon="4.85199">
        <ele>106</ele>
        <time>2019-04-18T21:00:52Z</time>
      </trkpt>
      <trkpt lat="44.89921" lon="4.85223">
        <ele>109</ele>
        <time>2019-04-18T21:01:52Z</time>
      </trkpt>
      <trkpt lat="44.90005" lon="4.85233">
        <ele>113</ele>
        <time>2019-04-18T21:02:52Z</time>
      </trkpt>
      <trkpt lat="44.90042" lon="4.85239">
        <ele>113</ele>
        <time>2019-04-18T21:03:52Z</time>
      </trkpt>
      <trkpt lat="44.90116" lon="4.85254">
        <ele>111</ele>
        <time>2019-04-18T21:04:52Z</time>
      </trkpt>
      <trkpt lat="44.9015" lon="4.85263">
        <ele>112</ele>
        <time>2019-04-18T21:05:52Z</time>
      </trkpt>
      <trkpt lat="44.90175" lon="4.85273">
        <ele>113</ele>
        <time>2019-04-18T21:06:52Z</time>
      </trkpt>
      <trkpt lat="44.90303" lon="4.85327">
        <ele>112</ele>
        <time>2019-04-18T21:07:52Z</time>
      </trkpt>
      <trkpt lat="44.90362" lon="4.85347">
        <ele>111</ele>
        <time>2019-04-18T21:08:52Z</time>
      </trkpt>
      <trkpt lat="44.90402" lon="4.85357">
        <ele>110</ele>
        <time>2019-04-18T21:09:52Z</time>
      </trkpt>
      <trkpt lat="44.90474" lon="4.8537">
        <ele>112</ele>
        <time>2019-04-18T21:10:52Z</time>
      </trkpt>
      <trkpt lat="44.90575" lon="4.85375">
        <ele>112</ele>
        <time>2019-04-18T21:11:52Z</time>
      </trkpt>
      <trkpt lat="44.90663" lon="4.85375">
        <ele>112</ele>
        <time>2019-04-18T21:12:52Z</time>
      </trkpt>
      <trkpt lat="44.90722" lon="4.85379">
        <ele>113</ele>
        <time>2019-04-18T21:13:52Z</time>
      </trkpt>
      <trkpt lat="44.9079" lon="4.85388">
        <ele>113</ele>
        <time>2019-04-18T21:14:52Z</time>
      </trkpt>
      <trkpt lat="44.90864" lon="4.854">
        <ele>111</ele>
        <time>2019-04-18T21:15:52Z</time>
      </trkpt>
      <trkpt lat="44.90933" lon="4.85423">
        <ele>110</ele>
        <time>2019-04-18T21:16:52Z</time>
      </trkpt>
      <trkpt lat="44.91036" lon="4.85491">
        <ele>107</ele>
        <time>2019-04-18T21:17:52Z</time>
      </trkpt>
      <trkpt lat="44.91026" lon="4.85531">
        <ele>107</ele>
        <time>2019-04-18T21:18:52Z</time>
      </trkpt>
      <trkpt lat="44.91008" lon="4.8558">
        <ele>109</ele>
        <time>2019-04-18T21:19:52Z</time>
      </trkpt>
      <trkpt lat="44.91" lon="4.85616">
        <ele>109</ele>
        <time>2019-04-18T21:20:52Z</time>
      </trkpt>
      <trkpt lat="44.90994" lon="4.85692">
        <ele>109</ele>
        <time>2019-04-18T21:21:52Z</time>
      </trkpt>
      <trkpt lat="44.90977" lon="4.86022">
        <ele>108</ele>
        <time>2019-04-18T21:22:52Z</time>
      </trkpt>
      <trkpt lat="44.9097" lon="4.86194">
        <ele>108</ele>
        <time>2019-04-18T21:23:52Z</time>
      </trkpt>
      <trkpt lat="44.90979" lon="4.86253">
        <ele>108</ele>
        <time>2019-04-18T21:24:52Z</time>
      </trkpt>
      <trkpt lat="44.91015" lon="4.86347">
        <ele>105</ele>
        <time>2019-04-18T21:25:52Z</time>
      </trkpt>
      <trkpt lat="44.91062" lon="4.86451">
        <ele>105</ele>
        <time>2019-04-18T21:26:52Z</time>
      </trkpt>
      <trkpt lat="44.91076" lon="4.8645">
        <ele>105</ele>
        <time>2019-04-18T21:27:52Z</time>
      </trkpt>
      <trkpt lat="44.91111" lon="4.86438">
        <ele>106</ele>
        <time>2019-04-18T21:28:52Z</time>
      </trkpt>
      <trkpt lat="44.91126" lon="4.86418">
        <ele>107</ele>
        <time>2019-04-18T21:29:52Z</time>
      </trkpt>
      <trkpt lat="44.91141" lon="4.86388">
        <ele>107</ele>
        <time>2019-04-18T21:30:52Z</time>
      </trkpt>
      <trkpt lat="44.91153" lon="4.86336">
        <ele>106</ele>
        <time>2019-04-18T21:31:52Z</time>
      </trkpt>
      <trkpt lat="44.91162" lon="4.8633">
        <ele>106</ele>
        <time>2019-04-18T21:32:52Z</time>
      </trkpt>
      <trkpt lat="44.9129" lon="4.86343">
        <ele>106</ele>
        <time>2019-04-18T21:33:52Z</time>
      </trkpt>
      <trkpt lat="44.9131" lon="4.86348">
        <ele>106</ele>
        <time>2019-04-18T21:34:52Z</time>
      </trkpt>
      <trkpt lat="44.91335" lon="4.86366">
        <ele>106</ele>
        <time>2019-04-18T21:35:52Z</time>
      </trkpt>
      <trkpt lat="44.91347" lon="4.86377">
        <ele>106</ele>
        <time>2019-04-18T21:36:52Z</time>
      </trkpt>
      <trkpt lat="44.91359" lon="4.86386">
        <ele>106</ele>
        <time>2019-04-18T21:37:52Z</time>
      </trkpt>
      <trkpt lat="44.91366" lon="4.86388">
        <ele>106</ele>
        <time>2019-04-18T21:38:52Z</time>
      </trkpt>
      <trkpt lat="44.91392" lon="4.86386">
        <ele>105</ele>
        <time>2019-04-18T21:39:52Z</time>
      </trkpt>
      <trkpt lat="44.91419" lon="4.86389">
        <ele>105</ele>
        <time>2019-04-18T21:40:52Z</time>
      </trkpt>
      <trkpt lat="44.91437" lon="4.86396">
        <ele>105</ele>
        <time>2019-04-18T21:41:52Z</time>
      </trkpt>
      <trkpt lat="44.9147" lon="4.86411">
        <ele>104</ele>
        <time>2019-04-18T21:42:52Z</time>
      </trkpt>
      <trkpt lat="44.91481" lon="4.86409">
        <ele>104</ele>
        <time>2019-04-18T21:43:52Z</time>
      </trkpt>
      <trkpt lat="44.91513" lon="4.86382">
        <ele>103</ele>
        <time>2019-04-18T21:44:52Z</time>
      </trkpt>
      <trkpt lat="44.91534" lon="4.86373">
        <ele>104</ele>
        <time>2019-04-18T21:45:52Z</time>
      </trkpt>
      <trkpt lat="44.91545" lon="4.86282">
        <ele>105</ele>
        <time>2019-04-18T21:46:52Z</time>
      </trkpt>
      <trkpt lat="44.91549" lon="4.86272">
        <ele>105</ele>
        <time>2019-04-18T21:47:52Z</time>
      </trkpt>
      <trkpt lat="44.91553" lon="4.86274">
        <ele>105</ele>
        <time>2019-04-18T21:48:52Z</time>
      </trkpt>
      <trkpt lat="44.91571" lon="4.86301">
        <ele>105</ele>
        <time>2019-04-18T21:49:52Z</time>
      </trkpt>
      <trkpt lat="44.91582" lon="4.86309">
        <ele>105</ele>
        <time>2019-04-18T21:50:52Z</time>
      </trkpt>
      <trkpt lat="44.916" lon="4.86314">
        <ele>105</ele>
        <time>2019-04-18T21:51:52Z</time>
      </trkpt>
      <trkpt lat="44.91628" lon="4.86318">
        <ele>107</ele>
        <time>2019-04-18T21:52:52Z</time>
      </trkpt>
      <trkpt lat="44.91669" lon="4.86314">
        <ele>109</ele>
        <time>2019-04-18T21:53:52Z</time>
      </trkpt>
      <trkpt lat="44.91672" lon="4.8632">
        <ele>109</ele>
        <time>2019-04-18T21:54:52Z</time>
      </trkpt>
      <trkpt lat="44.9162" lon="4.86327">
        <ele>106</ele>
        <time>2019-04-18T21:55:52Z</time>
      </trkpt>
      <trkpt lat="44.9158" lon="4.86324">
        <ele>104</ele>
        <time>2019-04-18T21:56:52Z</time>
      </trkpt>
      <trkpt lat="44.91547" lon="4.86318">
        <ele>104</ele>
        <time>2019-04-18T21:57:52Z</time>
      </trkpt>
      <trkpt lat="44.91305" lon="4.86255">
        <ele>105</ele>
        <time>2019-04-18T21:58:52Z</time>
      </trkpt>
      <trkpt lat="44.91253" lon="4.8625">
        <ele>105</ele>
        <time>2019-04-18T21:59:52Z</time>
      </trkpt>
      <trkpt lat="44.91193" lon="4.86256">
        <ele>106</ele>
        <time>2019-04-18T22:00:52Z</time>
      </trkpt>
      <trkpt lat="44.91154" lon="4.86267">
        <ele>107</ele>
        <time>2019-04-18T22:01:52Z</time>
      </trkpt>
      <trkpt lat="44.91116" lon="4.86284">
        <ele>107</ele>
        <time>2019-04-18T22:02:52Z</time>
      </trkpt>
      <trkpt lat="44.91083" lon="4.86304">
        <ele>106</ele>
        <time>2019-04-18T22:03:52Z</time>
      </trkpt>
      <trkpt lat="44.91043" lon="4.86337">
        <ele>105</ele>
        <time>2019-04-18T22:04:52Z</time>
      </trkpt>
      <trkpt lat="44.91018" lon="4.8636">
        <ele>105</ele>
        <time>2019-04-18T22:05:52Z</time>
      </trkpt>
      <trkpt lat="44.90997" lon="4.86384">
        <ele>104</ele>
        <time>2019-04-18T22:06:52Z</time>
      </trkpt>
      <trkpt lat="44.90959" lon="4.86436">
        <ele>105</ele>
        <time>2019-04-18T22:07:52Z</time>
      </trkpt>
      <trkpt lat="44.90642" lon="4.86939">
        <ele>108</ele>
        <time>2019-04-18T22:08:52Z</time>
      </trkpt>
      <trkpt lat="44.90505" lon="4.87155">
        <ele>106</ele>
        <time>2019-04-18T22:09:52Z</time>
      </trkpt>
      <trkpt lat="44.90503" lon="4.8715">
        <ele>106</ele>
        <time>2019-04-18T22:10:52Z</time>
      </trkpt>
      <trkpt lat="44.90503" lon="4.87144">
        <ele>106</ele>
        <time>2019-04-18T22:11:52Z</time>
      </trkpt>
      <trkpt lat="44.9051" lon="4.87129">
        <ele>106</ele>
        <time>2019-04-18T22:12:52Z</time>
      </trkpt>
      <trkpt lat="44.90563" lon="4.87045">
        <ele>105</ele>
        <time>2019-04-18T22:13:52Z</time>
      </trkpt>
      <trkpt lat="44.90576" lon="4.87019">
        <ele>106</ele>
        <time>2019-04-18T22:14:52Z</time>
      </trkpt>
      <trkpt lat="44.90633" lon="4.87096">
        <ele>107</ele>
        <time>2019-04-18T22:15:52Z</time>
      </trkpt>
      <trkpt lat="44.9064" lon="4.87107">
        <ele>107</ele>
        <time>2019-04-18T22:16:52Z</time>
      </trkpt>
      <trkpt lat="44.90667" lon="4.87055">
        <ele>107</ele>
        <time>2019-04-18T22:17:52Z</time>
      </trkpt>
      <trkpt lat="44.90689" lon="4.86993">
        <ele>108</ele>
        <time>2019-04-18T22:18:52Z</time>
      </trkpt>
      <trkpt lat="44.90725" lon="4.86938">
        <ele>107</ele>
        <time>2019-04-18T22:19:52Z</time>
      </trkpt>
      <trkpt lat="44.90823" lon="4.87031">
        <ele>107</ele>
        <time>2019-04-18T22:20:52Z</time>
      </trkpt>
      <trkpt lat="44.90896" lon="4.87095">
        <ele>108</ele>
        <time>2019-04-18T22:21:52Z</time>
      </trkpt>
      <trkpt lat="44.90972" lon="4.87154">
        <ele>107</ele>
        <time>2019-04-18T22:22:52Z</time>
      </trkpt>
      <trkpt lat="44.9119" lon="4.87315">
        <ele>108</ele>
        <time>2019-04-18T22:23:52Z</time>
      </trkpt>
      <trkpt lat="44.91267" lon="4.87365">
        <ele>107</ele>
        <time>2019-04-18T22:24:52Z</time>
      </trkpt>
      <trkpt lat="44.91363" lon="4.87432">
        <ele>106</ele>
        <time>2019-04-18T22:25:52Z</time>
      </trkpt>
      <trkpt lat="44.91431" lon="4.87485">
        <ele>106</ele>
        <time>2019-04-18T22:26:52Z</time>
      </trkpt>
      <trkpt lat="44.91455" lon="4.87507">
        <ele>107</ele>
        <time>2019-04-18T22:27:52Z</time>
      </trkpt>
      <trkpt lat="44.91474" lon="4.87522">
        <ele>106</ele>
        <time>2019-04-18T22:28:52Z</time>
      </trkpt>
      <trkpt lat="44.91562" lon="4.87583">
        <ele>106</ele>
        <time>2019-04-18T22:29:52Z</time>
      </trkpt>
      <trkpt lat="44.91637" lon="4.87395">
        <ele>109</ele>
        <time>2019-04-18T22:30:52Z</time>
      </trkpt>
      <trkpt lat="44.91648" lon="4.87378">
        <ele>109</ele>
        <time>2019-04-18T22:31:52Z</time>
      </trkpt>
      <trkpt lat="44.91678" lon="4.87361">
        <ele>110</ele>
        <time>2019-04-18T22:32:52Z</time>
      </trkpt>
      <trkpt lat="44.91714" lon="4.87332">
        <ele>109</ele>
        <time>2019-04-18T22:33:52Z</time>
      </trkpt>
      <trkpt lat="44.91755" lon="4.87325">
        <ele>109</ele>
        <time>2019-04-18T22:34:52Z</time>
      </trkpt>
      <trkpt lat="44.91808" lon="4.87339">
        <ele>109</ele>
        <time>2019-04-18T22:35:52Z</time>
      </trkpt>
      <trkpt lat="44.91865" lon="4.87367">
        <ele>108</ele>
        <time>2019-04-18T22:36:52Z</time>
      </trkpt>
      <trkpt lat="44.91945" lon="4.87398">
        <ele>107</ele>
        <time>2019-04-18T22:37:52Z</time>
      </trkpt>
      <trkpt lat="44.91993" lon="4.87429">
        <ele>106</ele>
        <time>2019-04-18T22:38:52Z</time>
      </trkpt>
      <trkpt lat="44.92022" lon="4.87444">
        <ele>106</ele>
        <time>2019-04-18T22:39:52Z</time>
      </trkpt>
      <trkpt lat="44.92058" lon="4.87467">
        <ele>106</ele>
        <time>2019-04-18T22:40:52Z</time>
      </trkpt>
      <trkpt lat="44.92143" lon="4.87534">
        <ele>106</ele>
        <time>2019-04-18T22:41:52Z</time>
      </trkpt>
      <trkpt lat="44.92256" lon="4.87637">
        <ele>107</ele>
        <time>2019-04-18T22:42:52Z</time>
      </trkpt>
      <trkpt lat="44.9232" lon="4.87676">
        <ele>107</ele>
        <time>2019-04-18T22:43:52Z</time>
      </trkpt>
      <trkpt lat="44.92445" lon="4.87796">
        <ele>107</ele>
        <time>2019-04-18T22:44:52Z</time>
      </trkpt>
      <trkpt lat="44.92518" lon="4.87881">
        <ele>109</ele>
        <time>2019-04-18T22:45:52Z</time>
      </trkpt>
      <trkpt lat="44.92557" lon="4.87909">
        <ele>108</ele>
        <time>2019-04-18T22:46:52Z</time>
      </trkpt>
      <trkpt lat="44.92623" lon="4.87971">
        <ele>107</ele>
        <time>2019-04-18T22:47:52Z</time>
      </trkpt>
      <trkpt lat="44.92713" lon="4.88048">
        <ele>107</ele>
        <time>2019-04-18T22:48:52Z</time>
      </trkpt>
      <trkpt lat="44.92911" lon="4.88213">
        <ele>108</ele>
        <time>2019-04-18T22:49:52Z</time>
      </trkpt>
      <trkpt lat="44.92956" lon="4.88248">
        <ele>108</ele>
        <time>2019-04-18T22:50:52Z</time>
      </trkpt>
      <trkpt lat="44.92963" lon="4.88259">
        <ele>107</ele>
        <time>2019-04-18T22:51:52Z</time>
      </trkpt>
      <trkpt lat="44.92942" lon="4.88298">
        <ele>108</ele>
        <time>2019-04-18T22:52:52Z</time>
      </trkpt>
      <trkpt lat="44.92915" lon="4.8828">
        <ele>108</ele>
        <time>2019-04-18T22:53:52Z</time>
      </trkpt>
      <trkpt lat="44.92912" lon="4.88281">
        <ele>108</ele>
        <time>2019-04-18T22:54:52Z</time>
      </trkpt>
      <trkpt lat="44.92909" lon="4.88285">
        <ele>108</ele>
        <time>2019-04-18T22:55:52Z</time>
      </trkpt>
      <trkpt lat="44.92878" lon="4.88466">
        <ele>108</ele>
        <time>2019-04-18T22:56:52Z</time>
      </trkpt>
      <trkpt lat="44.92858" lon="4.88496">
        <ele>108</ele>
        <time>2019-04-18T22:57:52Z</time>
      </trkpt>
    </trkseg>
  </trk>
  <trk>
    <name><![CDATA[J9bis]]></name>
    <trkseg>
      <trkpt lat="45.71663" lon="6.94709">
        <ele>1454</ele>
        <time>2019-04-21T17:50:51Z</time>
      </trkpt>
      <trkpt lat="45.71674" lon="6.94662">
        <ele>1454</ele>
        <time>2019-04-21T17:51:51Z</time>
      </trkpt>
      <trkpt lat="45.71673" lon="6.94654">
        <ele>1454</ele>
        <time>2019-04-21T17:52:51Z</time>
      </trkpt>
      <trkpt lat="45.71668" lon="6.94642">
        <ele>1455</ele>
        <time>2019-04-21T17:53:51Z</time>
      </trkpt>
      <trkpt lat="45.71657" lon="6.94627">
        <ele>1456</ele>
        <time>2019-04-21T17:54:51Z</time>
      </trkpt>
      <trkpt lat="45.71531" lon="6.94521">
        <ele>1466</ele>
        <time>2019-04-21T17:55:51Z</time>
      </trkpt>
      <trkpt lat="45.71409" lon="6.94452">
        <ele>1475</ele>
        <time>2019-04-21T17:56:51Z</time>
      </trkpt>
      <trkpt lat="45.71381" lon="6.94421">
        <ele>1477</ele>
        <time>2019-04-21T17:57:51Z</time>
      </trkpt>
      <trkpt lat="45.71311" lon="6.94336">
        <ele>1485</ele>
        <time>2019-04-21T17:58:51Z</time>
      </trkpt>
      <trkpt lat="45.71309" lon="6.9433">
        <ele>1486</ele>
        <time>2019-04-21T17:59:51Z</time>
      </trkpt>
      <trkpt lat="45.7131" lon="6.94323">
        <ele>1486</ele>
        <time>2019-04-21T18:00:51Z</time>
      </trkpt>
      <trkpt lat="45.71337" lon="6.94279">
        <ele>1488</ele>
        <time>2019-04-21T18:01:51Z</time>
      </trkpt>
      <trkpt lat="45.71398" lon="6.9424">
        <ele>1493</ele>
        <time>2019-04-21T18:02:51Z</time>
      </trkpt>
      <trkpt lat="45.71412" lon="6.94236">
        <ele>1494</ele>
        <time>2019-04-21T18:03:51Z</time>
      </trkpt>
      <trkpt lat="45.71422" lon="6.94237">
        <ele>1494</ele>
        <time>2019-04-21T18:04:51Z</time>
      </trkpt>
      <trkpt lat="45.71451" lon="6.94249">
        <ele>1493</ele>
        <time>2019-04-21T18:05:51Z</time>
      </trkpt>
      <trkpt lat="45.71458" lon="6.94248">
        <ele>1493</ele>
        <time>2019-04-21T18:06:51Z</time>
      </trkpt>
      <trkpt lat="45.71474" lon="6.94235">
        <ele>1496</ele>
        <time>2019-04-21T18:07:51Z</time>
      </trkpt>
      <trkpt lat="45.71482" lon="6.94231">
        <ele>1498</ele>
        <time>2019-04-21T18:08:51Z</time>
      </trkpt>
      <trkpt lat="45.71499" lon="6.9423">
        <ele>1499</ele>
        <time>2019-04-21T18:09:51Z</time>
      </trkpt>
      <trkpt lat="45.71568" lon="6.94254">
        <ele>1495</ele>
        <time>2019-04-21T18:10:51Z</time>
      </trkpt>
      <trkpt lat="45.71574" lon="6.9425">
        <ele>1497</ele>
        <time>2019-04-21T18:11:51Z</time>
      </trkpt>
      <trkpt lat="45.71575" lon="6.94242">
        <ele>1499</ele>
        <time>2019-04-21T18:12:51Z</time>
      </trkpt>
      <trkpt lat="45.71574" lon="6.94237">
        <ele>1501</ele>
        <time>2019-04-21T18:13:51Z</time>
      </trkpt>
      <trkpt lat="45.71568" lon="6.94232">
        <ele>1502</ele>
        <time>2019-04-21T18:14:51Z</time>
      </trkpt>
      <trkpt lat="45.71554" lon="6.94229">
        <ele>1502</ele>
        <time>2019-04-21T18:15:51Z</time>
      </trkpt>
      <trkpt lat="45.71532" lon="6.94219">
        <ele>1504</ele>
        <time>2019-04-21T18:16:51Z</time>
      </trkpt>
      <trkpt lat="45.71511" lon="6.94206">
        <ele>1505</ele>
        <time>2019-04-21T18:17:51Z</time>
      </trkpt>
      <trkpt lat="45.7146" lon="6.94171">
        <ele>1508</ele>
        <time>2019-04-21T18:18:51Z</time>
      </trkpt>
      <trkpt lat="45.71405" lon="6.94152">
        <ele>1508</ele>
        <time>2019-04-21T18:19:51Z</time>
      </trkpt>
      <trkpt lat="45.71399" lon="6.94149">
        <ele>1508</ele>
        <time>2019-04-21T18:20:51Z</time>
      </trkpt>
      <trkpt lat="45.71391" lon="6.9414">
        <ele>1509</ele>
        <time>2019-04-21T18:21:51Z</time>
      </trkpt>
      <trkpt lat="45.71363" lon="6.9405">
        <ele>1519</ele>
        <time>2019-04-21T18:22:51Z</time>
      </trkpt>
      <trkpt lat="45.71357" lon="6.94034">
        <ele>1520</ele>
        <time>2019-04-21T18:23:51Z</time>
      </trkpt>
      <trkpt lat="45.71352" lon="6.94026">
        <ele>1519</ele>
        <time>2019-04-21T18:24:51Z</time>
      </trkpt>
      <trkpt lat="45.71337" lon="6.94006">
        <ele>1518</ele>
        <time>2019-04-21T18:25:51Z</time>
      </trkpt>
      <trkpt lat="45.71308" lon="6.93973">
        <ele>1519</ele>
        <time>2019-04-21T18:26:51Z</time>
      </trkpt>
      <trkpt lat="45.71303" lon="6.93961">
        <ele>1520</ele>
        <time>2019-04-21T18:27:51Z</time>
      </trkpt>
      <trkpt lat="45.71304" lon="6.93956">
        <ele>1521</ele>
        <time>2019-04-21T18:28:51Z</time>
      </trkpt>
      <trkpt lat="45.71307" lon="6.93954">
        <ele>1522</ele>
        <time>2019-04-21T18:29:51Z</time>
      </trkpt>
      <trkpt lat="45.71314" lon="6.93954">
        <ele>1524</ele>
        <time>2019-04-21T18:30:51Z</time>
      </trkpt>
      <trkpt lat="45.71368" lon="6.9399">
        <ele>1528</ele>
        <time>2019-04-21T18:31:51Z</time>
      </trkpt>
      <trkpt lat="45.71403" lon="6.94028">
        <ele>1528</ele>
        <time>2019-04-21T18:32:51Z</time>
      </trkpt>
      <trkpt lat="45.71444" lon="6.94057">
        <ele>1530</ele>
        <time>2019-04-21T18:33:51Z</time>
      </trkpt>
      <trkpt lat="45.7148" lon="6.9407">
        <ele>1533</ele>
        <time>2019-04-21T18:34:51Z</time>
      </trkpt>
      <trkpt lat="45.71492" lon="6.94078">
        <ele>1532</ele>
        <time>2019-04-21T18:35:51Z</time>
      </trkpt>
      <trkpt lat="45.71506" lon="6.94091">
        <ele>1532</ele>
        <time>2019-04-21T18:36:51Z</time>
      </trkpt>
      <trkpt lat="45.71528" lon="6.94122">
        <ele>1529</ele>
        <time>2019-04-21T18:37:51Z</time>
      </trkpt>
      <trkpt lat="45.71535" lon="6.94129">
        <ele>1529</ele>
        <time>2019-04-21T18:38:51Z</time>
      </trkpt>
      <trkpt lat="45.71543" lon="6.94131">
        <ele>1530</ele>
        <time>2019-04-21T18:39:51Z</time>
      </trkpt>
      <trkpt lat="45.7155" lon="6.94128">
        <ele>1532</ele>
        <time>2019-04-21T18:40:51Z</time>
      </trkpt>
      <trkpt lat="45.71553" lon="6.94118">
        <ele>1535</ele>
        <time>2019-04-21T18:41:51Z</time>
      </trkpt>
      <trkpt lat="45.71551" lon="6.94109">
        <ele>1537</ele>
        <time>2019-04-21T18:42:51Z</time>
      </trkpt>
      <trkpt lat="45.7151" lon="6.94047">
        <ele>1545</ele>
        <time>2019-04-21T18:43:51Z</time>
      </trkpt>
      <trkpt lat="45.71499" lon="6.94035">
        <ele>1545</ele>
        <time>2019-04-21T18:44:51Z</time>
      </trkpt>
      <trkpt lat="45.71482" lon="6.94021">
        <ele>1545</ele>
        <time>2019-04-21T18:45:51Z</time>
      </trkpt>
      <trkpt lat="45.71458" lon="6.9402">
        <ele>1541</ele>
        <time>2019-04-21T18:46:51Z</time>
      </trkpt>
      <trkpt lat="45.71448" lon="6.94016">
        <ele>1540</ele>
        <time>2019-04-21T18:47:51Z</time>
      </trkpt>
      <trkpt lat="45.71434" lon="6.93996">
        <ele>1541</ele>
        <time>2019-04-21T18:48:51Z</time>
      </trkpt>
      <trkpt lat="45.71406" lon="6.93966">
        <ele>1544</ele>
        <time>2019-04-21T18:49:51Z</time>
      </trkpt>
      <trkpt lat="45.7139" lon="6.93942">
        <ele>1547</ele>
        <time>2019-04-21T18:50:51Z</time>
      </trkpt>
      <trkpt lat="45.71376" lon="6.93918">
        <ele>1549</ele>
        <time>2019-04-21T18:51:51Z</time>
      </trkpt>
      <trkpt lat="45.71364" lon="6.93895">
        <ele>1552</ele>
        <time>2019-04-21T18:52:51Z</time>
      </trkpt>
      <trkpt lat="45.7134" lon="6.93839">
        <ele>1561</ele>
        <time>2019-04-21T18:53:51Z</time>
      </trkpt>
      <trkpt lat="45.71298" lon="6.93761">
        <ele>1566</ele>
        <time>2019-04-21T18:54:51Z</time>
      </trkpt>
      <trkpt lat="45.71283" lon="6.93741">
        <ele>1566</ele>
        <time>2019-04-21T18:55:51Z</time>
      </trkpt>
      <trkpt lat="45.71262" lon="6.93725">
        <ele>1563</ele>
        <time>2019-04-21T18:56:51Z</time>
      </trkpt>
      <trkpt lat="45.71214" lon="6.9368">
        <ele>1558</ele>
        <time>2019-04-21T18:57:51Z</time>
      </trkpt>
      <trkpt lat="45.71206" lon="6.93671">
        <ele>1557</ele>
        <time>2019-04-21T18:58:51Z</time>
      </trkpt>
      <trkpt lat="45.71203" lon="6.93664">
        <ele>1558</ele>
        <time>2019-04-21T18:59:51Z</time>
      </trkpt>
      <trkpt lat="45.71202" lon="6.93649">
        <ele>1560</ele>
        <time>2019-04-21T19:00:51Z</time>
      </trkpt>
      <trkpt lat="45.71204" lon="6.93641">
        <ele>1562</ele>
        <time>2019-04-21T19:01:51Z</time>
      </trkpt>
      <trkpt lat="45.71211" lon="6.93629">
        <ele>1566</ele>
        <time>2019-04-21T19:02:51Z</time>
      </trkpt>
      <trkpt lat="45.71223" lon="6.93626">
        <ele>1569</ele>
        <time>2019-04-21T19:03:51Z</time>
      </trkpt>
      <trkpt lat="45.71248" lon="6.93647">
        <ele>1573</ele>
        <time>2019-04-21T19:04:51Z</time>
      </trkpt>
      <trkpt lat="45.71295" lon="6.93672">
        <ele>1581</ele>
        <time>2019-04-21T19:05:51Z</time>
      </trkpt>
      <trkpt lat="45.71311" lon="6.93683">
        <ele>1583</ele>
        <time>2019-04-21T19:06:51Z</time>
      </trkpt>
      <trkpt lat="45.71316" lon="6.93689">
        <ele>1583</ele>
        <time>2019-04-21T19:07:51Z</time>
      </trkpt>
      <trkpt lat="45.71326" lon="6.93711">
        <ele>1582</ele>
        <time>2019-04-21T19:08:51Z</time>
      </trkpt>
      <trkpt lat="45.71344" lon="6.93759">
        <ele>1579</ele>
        <time>2019-04-21T19:09:51Z</time>
      </trkpt>
      <trkpt lat="45.7135" lon="6.93757">
        <ele>1581</ele>
        <time>2019-04-21T19:10:51Z</time>
      </trkpt>
      <trkpt lat="45.71351" lon="6.93752">
        <ele>1582</ele>
        <time>2019-04-21T19:11:51Z</time>
      </trkpt>
      <trkpt lat="45.71351" lon="6.93745">
        <ele>1583</ele>
        <time>2019-04-21T19:12:51Z</time>
      </trkpt>
      <trkpt lat="45.71334" lon="6.93695">
        <ele>1586</ele>
        <time>2019-04-21T19:13:51Z</time>
      </trkpt>
      <trkpt lat="45.71309" lon="6.93633">
        <ele>1589</ele>
        <time>2019-04-21T19:14:51Z</time>
      </trkpt>
      <trkpt lat="45.71296" lon="6.93591">
        <ele>1591</ele>
        <time>2019-04-21T19:15:51Z</time>
      </trkpt>
      <trkpt lat="45.71267" lon="6.93528">
        <ele>1593</ele>
        <time>2019-04-21T19:16:51Z</time>
      </trkpt>
      <trkpt lat="45.71252" lon="6.93505">
        <ele>1592</ele>
        <time>2019-04-21T19:17:51Z</time>
      </trkpt>
      <trkpt lat="45.71224" lon="6.9347">
        <ele>1588</ele>
        <time>2019-04-21T19:18:51Z</time>
      </trkpt>
      <trkpt lat="45.71202" lon="6.93432">
        <ele>1587</ele>
        <time>2019-04-21T19:19:51Z</time>
      </trkpt>
      <trkpt lat="45.71189" lon="6.93396">
        <ele>1587</ele>
        <time>2019-04-21T19:20:51Z</time>
      </trkpt>
      <trkpt lat="45.71163" lon="6.93298">
        <ele>1590</ele>
        <time>2019-04-21T19:21:51Z</time>
      </trkpt>
      <trkpt lat="45.71134" lon="6.93203">
        <ele>1602</ele>
        <time>2019-04-21T19:22:51Z</time>
      </trkpt>
      <trkpt lat="45.71129" lon="6.93193">
        <ele>1603</ele>
        <time>2019-04-21T19:23:51Z</time>
      </trkpt>
      <trkpt lat="45.711" lon="6.93158">
        <ele>1608</ele>
        <time>2019-04-21T19:24:51Z</time>
      </trkpt>
      <trkpt lat="45.71087" lon="6.93127">
        <ele>1612</ele>
        <time>2019-04-21T19:25:51Z</time>
      </trkpt>
      <trkpt lat="45.71076" lon="6.93096">
        <ele>1619</ele>
        <time>2019-04-21T19:26:51Z</time>
      </trkpt>
      <trkpt lat="45.71069" lon="6.93086">
        <ele>1622</ele>
        <time>2019-04-21T19:27:51Z</time>
      </trkpt>
      <trkpt lat="45.71059" lon="6.93085">
        <ele>1625</ele>
        <time>2019-04-21T19:28:51Z</time>
      </trkpt>
      <trkpt lat="45.71053" lon="6.93089">
        <ele>1627</ele>
        <time>2019-04-21T19:29:51Z</time>
      </trkpt>
      <trkpt lat="45.71048" lon="6.93098">
        <ele>1627</ele>
        <time>2019-04-21T19:30:51Z</time>
      </trkpt>
      <trkpt lat="45.71043" lon="6.9312">
        <ele>1627</ele>
        <time>2019-04-21T19:31:51Z</time>
      </trkpt>
      <trkpt lat="45.71041" lon="6.93179">
        <ele>1622</ele>
        <time>2019-04-21T19:32:51Z</time>
      </trkpt>
      <trkpt lat="45.71036" lon="6.93216">
        <ele>1622</ele>
        <time>2019-04-21T19:33:51Z</time>
      </trkpt>
      <trkpt lat="45.71029" lon="6.93225">
        <ele>1625</ele>
        <time>2019-04-21T19:34:51Z</time>
      </trkpt>
      <trkpt lat="45.71002" lon="6.93244">
        <ele>1635</ele>
        <time>2019-04-21T19:35:51Z</time>
      </trkpt>
      <trkpt lat="45.70996" lon="6.93256">
        <ele>1637</ele>
        <time>2019-04-21T19:36:51Z</time>
      </trkpt>
      <trkpt lat="45.70978" lon="6.93337">
        <ele>1636</ele>
        <time>2019-04-21T19:37:51Z</time>
      </trkpt>
      <trkpt lat="45.70965" lon="6.93371">
        <ele>1636</ele>
        <time>2019-04-21T19:38:51Z</time>
      </trkpt>
      <trkpt lat="45.70952" lon="6.93394">
        <ele>1638</ele>
        <time>2019-04-21T19:39:51Z</time>
      </trkpt>
      <trkpt lat="45.70942" lon="6.93416">
        <ele>1639</ele>
        <time>2019-04-21T19:40:51Z</time>
      </trkpt>
      <trkpt lat="45.70939" lon="6.93418">
        <ele>1640</ele>
        <time>2019-04-21T19:41:51Z</time>
      </trkpt>
      <trkpt lat="45.70936" lon="6.93417">
        <ele>1641</ele>
        <time>2019-04-21T19:42:51Z</time>
      </trkpt>
      <trkpt lat="45.70936" lon="6.93401">
        <ele>1643</ele>
        <time>2019-04-21T19:43:51Z</time>
      </trkpt>
      <trkpt lat="45.70966" lon="6.93304">
        <ele>1644</ele>
        <time>2019-04-21T19:44:51Z</time>
      </trkpt>
      <trkpt lat="45.70968" lon="6.93288">
        <ele>1645</ele>
        <time>2019-04-21T19:45:51Z</time>
      </trkpt>
      <trkpt lat="45.70967" lon="6.93247">
        <ele>1650</ele>
        <time>2019-04-21T19:46:51Z</time>
      </trkpt>
      <trkpt lat="45.70957" lon="6.93164">
        <ele>1658</ele>
        <time>2019-04-21T19:47:51Z</time>
      </trkpt>
      <trkpt lat="45.7096" lon="6.93143">
        <ele>1659</ele>
        <time>2019-04-21T19:48:51Z</time>
      </trkpt>
      <trkpt lat="45.7097" lon="6.9311">
        <ele>1656</ele>
        <time>2019-04-21T19:49:51Z</time>
      </trkpt>
      <trkpt lat="45.70977" lon="6.93073">
        <ele>1655</ele>
        <time>2019-04-21T19:50:51Z</time>
      </trkpt>
      <trkpt lat="45.70978" lon="6.93043">
        <ele>1656</ele>
        <time>2019-04-21T19:51:51Z</time>
      </trkpt>
      <trkpt lat="45.70979" lon="6.93026">
        <ele>1656</ele>
        <time>2019-04-21T19:52:51Z</time>
      </trkpt>
      <trkpt lat="45.70976" lon="6.93023">
        <ele>1657</ele>
        <time>2019-04-21T19:53:51Z</time>
      </trkpt>
      <trkpt lat="45.70969" lon="6.93024">
        <ele>1660</ele>
        <time>2019-04-21T19:54:51Z</time>
      </trkpt>
      <trkpt lat="45.70967" lon="6.93029">
        <ele>1661</ele>
        <time>2019-04-21T19:55:51Z</time>
      </trkpt>
      <trkpt lat="45.70965" lon="6.93039">
        <ele>1662</ele>
        <time>2019-04-21T19:56:51Z</time>
      </trkpt>
      <trkpt lat="45.70968" lon="6.93069">
        <ele>1660</ele>
        <time>2019-04-21T19:57:51Z</time>
      </trkpt>
      <trkpt lat="45.70966" lon="6.9308">
        <ele>1660</ele>
        <time>2019-04-21T19:58:51Z</time>
      </trkpt>
      <trkpt lat="45.70963" lon="6.93093">
        <ele>1661</ele>
        <time>2019-04-21T19:59:51Z</time>
      </trkpt>
      <trkpt lat="45.70945" lon="6.93134">
        <ele>1666</ele>
        <time>2019-04-21T20:00:51Z</time>
      </trkpt>
      <trkpt lat="45.70943" lon="6.93143">
        <ele>1667</ele>
        <time>2019-04-21T20:01:51Z</time>
      </trkpt>
      <trkpt lat="45.70937" lon="6.93196">
        <ele>1666</ele>
        <time>2019-04-21T20:02:51Z</time>
      </trkpt>
      <trkpt lat="45.70934" lon="6.93207">
        <ele>1666</ele>
        <time>2019-04-21T20:03:51Z</time>
      </trkpt>
      <trkpt lat="45.70926" lon="6.93226">
        <ele>1669</ele>
        <time>2019-04-21T20:04:51Z</time>
      </trkpt>
      <trkpt lat="45.70897" lon="6.93278">
        <ele>1673</ele>
        <time>2019-04-21T20:05:51Z</time>
      </trkpt>
      <trkpt lat="45.70864" lon="6.93307">
        <ele>1680</ele>
        <time>2019-04-21T20:06:51Z</time>
      </trkpt>
      <trkpt lat="45.70853" lon="6.93323">
        <ele>1683</ele>
        <time>2019-04-21T20:07:51Z</time>
      </trkpt>
      <trkpt lat="45.70847" lon="6.93338">
        <ele>1685</ele>
        <time>2019-04-21T20:08:51Z</time>
      </trkpt>
      <trkpt lat="45.70841" lon="6.93338">
        <ele>1687</ele>
        <time>2019-04-21T20:09:51Z</time>
      </trkpt>
      <trkpt lat="45.70838" lon="6.93333">
        <ele>1688</ele>
        <time>2019-04-21T20:10:51Z</time>
      </trkpt>
      <trkpt lat="45.70838" lon="6.93327">
        <ele>1688</ele>
        <time>2019-04-21T20:11:51Z</time>
      </trkpt>
      <trkpt lat="45.70847" lon="6.93297">
        <ele>1686</ele>
        <time>2019-04-21T20:12:51Z</time>
      </trkpt>
      <trkpt lat="45.70867" lon="6.93266">
        <ele>1682</ele>
        <time>2019-04-21T20:13:51Z</time>
      </trkpt>
      <trkpt lat="45.70872" lon="6.93255">
        <ele>1681</ele>
        <time>2019-04-21T20:14:51Z</time>
      </trkpt>
      <trkpt lat="45.70875" lon="6.93246">
        <ele>1681</ele>
        <time>2019-04-21T20:15:51Z</time>
      </trkpt>
      <trkpt lat="45.70885" lon="6.93196">
        <ele>1683</ele>
        <time>2019-04-21T20:16:51Z</time>
      </trkpt>
      <trkpt lat="45.70885" lon="6.93132">
        <ele>1689</ele>
        <time>2019-04-21T20:17:51Z</time>
      </trkpt>
      <trkpt lat="45.70886" lon="6.93117">
        <ele>1690</ele>
        <time>2019-04-21T20:18:51Z</time>
      </trkpt>
      <trkpt lat="45.70893" lon="6.93078">
        <ele>1691</ele>
        <time>2019-04-21T20:19:51Z</time>
      </trkpt>
      <trkpt lat="45.70894" lon="6.93045">
        <ele>1692</ele>
        <time>2019-04-21T20:20:51Z</time>
      </trkpt>
      <trkpt lat="45.70894" lon="6.9303">
        <ele>1692</ele>
        <time>2019-04-21T20:21:51Z</time>
      </trkpt>
      <trkpt lat="45.70888" lon="6.92988">
        <ele>1696</ele>
        <time>2019-04-21T20:22:51Z</time>
      </trkpt>
      <trkpt lat="45.70887" lon="6.92933">
        <ele>1697</ele>
        <time>2019-04-21T20:23:51Z</time>
      </trkpt>
      <trkpt lat="45.70887" lon="6.92929">
        <ele>1697</ele>
        <time>2019-04-21T20:24:51Z</time>
      </trkpt>
      <trkpt lat="45.70882" lon="6.92925">
        <ele>1699</ele>
        <time>2019-04-21T20:25:51Z</time>
      </trkpt>
      <trkpt lat="45.70876" lon="6.92929">
        <ele>1701</ele>
        <time>2019-04-21T20:26:51Z</time>
      </trkpt>
      <trkpt lat="45.70875" lon="6.92934">
        <ele>1701</ele>
        <time>2019-04-21T20:27:51Z</time>
      </trkpt>
      <trkpt lat="45.70872" lon="6.92991">
        <ele>1701</ele>
        <time>2019-04-21T20:28:51Z</time>
      </trkpt>
      <trkpt lat="45.70869" lon="6.93012">
        <ele>1702</ele>
        <time>2019-04-21T20:29:51Z</time>
      </trkpt>
      <trkpt lat="45.70866" lon="6.93019">
        <ele>1702</ele>
        <time>2019-04-21T20:30:51Z</time>
      </trkpt>
      <trkpt lat="45.70785" lon="6.93151">
        <ele>1724</ele>
        <time>2019-04-21T20:31:51Z</time>
      </trkpt>
      <trkpt lat="45.7078" lon="6.93165">
        <ele>1725</ele>
        <time>2019-04-21T20:32:51Z</time>
      </trkpt>
      <trkpt lat="45.70776" lon="6.93196">
        <ele>1724</ele>
        <time>2019-04-21T20:33:51Z</time>
      </trkpt>
      <trkpt lat="45.70766" lon="6.9337">
        <ele>1725</ele>
        <time>2019-04-21T20:34:51Z</time>
      </trkpt>
      <trkpt lat="45.70765" lon="6.9338">
        <ele>1725</ele>
        <time>2019-04-21T20:35:51Z</time>
      </trkpt>
      <trkpt lat="45.70762" lon="6.93387">
        <ele>1727</ele>
        <time>2019-04-21T20:36:51Z</time>
      </trkpt>
      <trkpt lat="45.70757" lon="6.93388">
        <ele>1729</ele>
        <time>2019-04-21T20:37:51Z</time>
      </trkpt>
      <trkpt lat="45.70753" lon="6.93381">
        <ele>1731</ele>
        <time>2019-04-21T20:38:51Z</time>
      </trkpt>
      <trkpt lat="45.7075" lon="6.93279">
        <ele>1733</ele>
        <time>2019-04-21T20:39:51Z</time>
      </trkpt>
      <trkpt lat="45.70743" lon="6.93167">
        <ele>1743</ele>
        <time>2019-04-21T20:40:51Z</time>
      </trkpt>
      <trkpt lat="45.70743" lon="6.93132">
        <ele>1746</ele>
        <time>2019-04-21T20:41:51Z</time>
      </trkpt>
      <trkpt lat="45.70744" lon="6.93095">
        <ele>1748</ele>
        <time>2019-04-21T20:42:51Z</time>
      </trkpt>
      <trkpt lat="45.70748" lon="6.93052">
        <ele>1750</ele>
        <time>2019-04-21T20:43:51Z</time>
      </trkpt>
      <trkpt lat="45.70758" lon="6.92986">
        <ele>1750</ele>
        <time>2019-04-21T20:44:51Z</time>
      </trkpt>
      <trkpt lat="45.7076" lon="6.92954">
        <ele>1752</ele>
        <time>2019-04-21T20:45:51Z</time>
      </trkpt>
      <trkpt lat="45.7076" lon="6.92865">
        <ele>1757</ele>
        <time>2019-04-21T20:46:51Z</time>
      </trkpt>
      <trkpt lat="45.70757" lon="6.92698">
        <ele>1772</ele>
        <time>2019-04-21T20:47:51Z</time>
      </trkpt>
      <trkpt lat="45.70755" lon="6.92654">
        <ele>1774</ele>
        <time>2019-04-21T20:48:51Z</time>
      </trkpt>
      <trkpt lat="45.70752" lon="6.92634">
        <ele>1775</ele>
        <time>2019-04-21T20:49:51Z</time>
      </trkpt>
      <trkpt lat="45.70747" lon="6.92621">
        <ele>1777</ele>
        <time>2019-04-21T20:50:51Z</time>
      </trkpt>
      <trkpt lat="45.70737" lon="6.92606">
        <ele>1780</ele>
        <time>2019-04-21T20:51:51Z</time>
      </trkpt>
      <trkpt lat="45.70734" lon="6.92597">
        <ele>1781</ele>
        <time>2019-04-21T20:52:51Z</time>
      </trkpt>
      <trkpt lat="45.70734" lon="6.92588">
        <ele>1781</ele>
        <time>2019-04-21T20:53:51Z</time>
      </trkpt>
      <trkpt lat="45.70737" lon="6.92579">
        <ele>1780</ele>
        <time>2019-04-21T20:54:51Z</time>
      </trkpt>
      <trkpt lat="45.70752" lon="6.92571">
        <ele>1774</ele>
        <time>2019-04-21T20:55:51Z</time>
      </trkpt>
      <trkpt lat="45.70758" lon="6.92565">
        <ele>1771</ele>
        <time>2019-04-21T20:56:51Z</time>
      </trkpt>
      <trkpt lat="45.70761" lon="6.92556">
        <ele>1770</ele>
        <time>2019-04-21T20:57:51Z</time>
      </trkpt>
      <trkpt lat="45.70762" lon="6.92544">
        <ele>1769</ele>
        <time>2019-04-21T20:58:51Z</time>
      </trkpt>
      <trkpt lat="45.70753" lon="6.92498">
        <ele>1771</ele>
        <time>2019-04-21T20:59:51Z</time>
      </trkpt>
      <trkpt lat="45.70736" lon="6.92424">
        <ele>1778</ele>
        <time>2019-04-21T21:00:51Z</time>
      </trkpt>
      <trkpt lat="45.70726" lon="6.92389">
        <ele>1785</ele>
        <time>2019-04-21T21:01:51Z</time>
      </trkpt>
      <trkpt lat="45.70723" lon="6.92371">
        <ele>1789</ele>
        <time>2019-04-21T21:02:51Z</time>
      </trkpt>
      <trkpt lat="45.70724" lon="6.92353">
        <ele>1791</ele>
        <time>2019-04-21T21:03:51Z</time>
      </trkpt>
      <trkpt lat="45.70727" lon="6.92321">
        <ele>1795</ele>
        <time>2019-04-21T21:04:51Z</time>
      </trkpt>
      <trkpt lat="45.7073" lon="6.92313">
        <ele>1796</ele>
        <time>2019-04-21T21:05:51Z</time>
      </trkpt>
      <trkpt lat="45.70736" lon="6.92304">
        <ele>1796</ele>
        <time>2019-04-21T21:06:51Z</time>
      </trkpt>
      <trkpt lat="45.70747" lon="6.92298">
        <ele>1793</ele>
        <time>2019-04-21T21:07:51Z</time>
      </trkpt>
      <trkpt lat="45.70753" lon="6.923">
        <ele>1791</ele>
        <time>2019-04-21T21:08:51Z</time>
      </trkpt>
      <trkpt lat="45.70761" lon="6.92311">
        <ele>1785</ele>
        <time>2019-04-21T21:09:51Z</time>
      </trkpt>
      <trkpt lat="45.70764" lon="6.92312">
        <ele>1784</ele>
        <time>2019-04-21T21:10:51Z</time>
      </trkpt>
      <trkpt lat="45.70771" lon="6.92309">
        <ele>1782</ele>
        <time>2019-04-21T21:11:51Z</time>
      </trkpt>
      <trkpt lat="45.70776" lon="6.92294">
        <ele>1783</ele>
        <time>2019-04-21T21:12:51Z</time>
      </trkpt>
      <trkpt lat="45.70777" lon="6.92283">
        <ele>1785</ele>
        <time>2019-04-21T21:13:51Z</time>
      </trkpt>
      <trkpt lat="45.70775" lon="6.92269">
        <ele>1789</ele>
        <time>2019-04-21T21:14:51Z</time>
      </trkpt>
      <trkpt lat="45.70753" lon="6.92176">
        <ele>1804</ele>
        <time>2019-04-21T21:15:51Z</time>
      </trkpt>
      <trkpt lat="45.70743" lon="6.92114">
        <ele>1804</ele>
        <time>2019-04-21T21:16:51Z</time>
      </trkpt>
      <trkpt lat="45.7074" lon="6.92107">
        <ele>1805</ele>
        <time>2019-04-21T21:17:51Z</time>
      </trkpt>
      <trkpt lat="45.70736" lon="6.92101">
        <ele>1805</ele>
        <time>2019-04-21T21:18:51Z</time>
      </trkpt>
      <trkpt lat="45.70725" lon="6.92097">
        <ele>1808</ele>
        <time>2019-04-21T21:19:51Z</time>
      </trkpt>
      <trkpt lat="45.70695" lon="6.92101">
        <ele>1816</ele>
        <time>2019-04-21T21:20:51Z</time>
      </trkpt>
      <trkpt lat="45.70684" lon="6.92099">
        <ele>1818</ele>
        <time>2019-04-21T21:21:51Z</time>
      </trkpt>
      <trkpt lat="45.70677" lon="6.92093">
        <ele>1819</ele>
        <time>2019-04-21T21:22:51Z</time>
      </trkpt>
      <trkpt lat="45.70674" lon="6.92087">
        <ele>1820</ele>
        <time>2019-04-21T21:23:51Z</time>
      </trkpt>
      <trkpt lat="45.70673" lon="6.9208">
        <ele>1820</ele>
        <time>2019-04-21T21:24:51Z</time>
      </trkpt>
      <trkpt lat="45.70675" lon="6.92072">
        <ele>1821</ele>
        <time>2019-04-21T21:25:51Z</time>
      </trkpt>
      <trkpt lat="45.70678" lon="6.92064">
        <ele>1822</ele>
        <time>2019-04-21T21:26:51Z</time>
      </trkpt>
      <trkpt lat="45.70684" lon="6.92059">
        <ele>1821</ele>
        <time>2019-04-21T21:27:51Z</time>
      </trkpt>
      <trkpt lat="45.70715" lon="6.92048">
        <ele>1815</ele>
        <time>2019-04-21T21:28:51Z</time>
      </trkpt>
      <trkpt lat="45.70726" lon="6.92038">
        <ele>1813</ele>
        <time>2019-04-21T21:29:51Z</time>
      </trkpt>
      <trkpt lat="45.70732" lon="6.92023">
        <ele>1813</ele>
        <time>2019-04-21T21:30:51Z</time>
      </trkpt>
      <trkpt lat="45.70733" lon="6.92011">
        <ele>1815</ele>
        <time>2019-04-21T21:31:51Z</time>
      </trkpt>
      <trkpt lat="45.70732" lon="6.91967">
        <ele>1821</ele>
        <time>2019-04-21T21:32:51Z</time>
      </trkpt>
      <trkpt lat="45.70739" lon="6.91921">
        <ele>1825</ele>
        <time>2019-04-21T21:33:51Z</time>
      </trkpt>
      <trkpt lat="45.7074" lon="6.91843">
        <ele>1832</ele>
        <time>2019-04-21T21:34:51Z</time>
      </trkpt>
      <trkpt lat="45.70741" lon="6.91835">
        <ele>1832</ele>
        <time>2019-04-21T21:35:51Z</time>
      </trkpt>
      <trkpt lat="45.70744" lon="6.91829">
        <ele>1832</ele>
        <time>2019-04-21T21:36:51Z</time>
      </trkpt>
      <trkpt lat="45.70749" lon="6.91826">
        <ele>1830</ele>
        <time>2019-04-21T21:37:51Z</time>
      </trkpt>
      <trkpt lat="45.70775" lon="6.9183">
        <ele>1828</ele>
        <time>2019-04-21T21:38:51Z</time>
      </trkpt>
      <trkpt lat="45.7078" lon="6.91829">
        <ele>1827</ele>
        <time>2019-04-21T21:39:51Z</time>
      </trkpt>
      <trkpt lat="45.70791" lon="6.91823">
        <ele>1827</ele>
        <time>2019-04-21T21:40:51Z</time>
      </trkpt>
      <trkpt lat="45.70813" lon="6.91799">
        <ele>1829</ele>
        <time>2019-04-21T21:41:51Z</time>
      </trkpt>
      <trkpt lat="45.70821" lon="6.91796">
        <ele>1829</ele>
        <time>2019-04-21T21:42:51Z</time>
      </trkpt>
      <trkpt lat="45.70831" lon="6.91795">
        <ele>1828</ele>
        <time>2019-04-21T21:43:51Z</time>
      </trkpt>
      <trkpt lat="45.70848" lon="6.91798">
        <ele>1827</ele>
        <time>2019-04-21T21:44:51Z</time>
      </trkpt>
      <trkpt lat="45.70857" lon="6.91797">
        <ele>1827</ele>
        <time>2019-04-21T21:45:51Z</time>
      </trkpt>
      <trkpt lat="45.70863" lon="6.91795">
        <ele>1827</ele>
        <time>2019-04-21T21:46:51Z</time>
      </trkpt>
      <trkpt lat="45.70875" lon="6.91785">
        <ele>1828</ele>
        <time>2019-04-21T21:47:51Z</time>
      </trkpt>
      <trkpt lat="45.70907" lon="6.91747">
        <ele>1831</ele>
        <time>2019-04-21T21:48:51Z</time>
      </trkpt>
      <trkpt lat="45.70911" lon="6.91739">
        <ele>1832</ele>
        <time>2019-04-21T21:49:51Z</time>
      </trkpt>
      <trkpt lat="45.70917" lon="6.91716">
        <ele>1832</ele>
        <time>2019-04-21T21:50:51Z</time>
      </trkpt>
      <trkpt lat="45.70919" lon="6.91692">
        <ele>1833</ele>
        <time>2019-04-21T21:51:51Z</time>
      </trkpt>
      <trkpt lat="45.70911" lon="6.91596">
        <ele>1840</ele>
        <time>2019-04-21T21:52:51Z</time>
      </trkpt>
      <trkpt lat="45.70974" lon="6.9137">
        <ele>1844</ele>
        <time>2019-04-21T21:53:51Z</time>
      </trkpt>
      <trkpt lat="45.70988" lon="6.91313">
        <ele>1847</ele>
        <time>2019-04-21T21:54:51Z</time>
      </trkpt>
      <trkpt lat="45.71004" lon="6.91276">
        <ele>1848</ele>
        <time>2019-04-21T21:55:51Z</time>
      </trkpt>
      <trkpt lat="45.71005" lon="6.91261">
        <ele>1849</ele>
        <time>2019-04-21T21:56:51Z</time>
      </trkpt>
      <trkpt lat="45.71004" lon="6.91252">
        <ele>1851</ele>
        <time>2019-04-21T21:57:51Z</time>
      </trkpt>
      <trkpt lat="45.71001" lon="6.91244">
        <ele>1852</ele>
        <time>2019-04-21T21:58:51Z</time>
      </trkpt>
      <trkpt lat="45.70965" lon="6.91163">
        <ele>1861</ele>
        <time>2019-04-21T21:59:51Z</time>
      </trkpt>
      <trkpt lat="45.70961" lon="6.91144">
        <ele>1863</ele>
        <time>2019-04-21T22:00:51Z</time>
      </trkpt>
      <trkpt lat="45.7096" lon="6.91123">
        <ele>1864</ele>
        <time>2019-04-21T22:01:51Z</time>
      </trkpt>
      <trkpt lat="45.70965" lon="6.91011">
        <ele>1863</ele>
        <time>2019-04-21T22:02:51Z</time>
      </trkpt>
      <trkpt lat="45.70969" lon="6.90966">
        <ele>1861</ele>
        <time>2019-04-21T22:03:51Z</time>
      </trkpt>
      <trkpt lat="45.70968" lon="6.90944">
        <ele>1860</ele>
        <time>2019-04-21T22:04:51Z</time>
      </trkpt>
      <trkpt lat="45.70963" lon="6.9093">
        <ele>1861</ele>
        <time>2019-04-21T22:05:51Z</time>
      </trkpt>
      <trkpt lat="45.70959" lon="6.90926">
        <ele>1861</ele>
        <time>2019-04-21T22:06:51Z</time>
      </trkpt>
      <trkpt lat="45.7095" lon="6.90923">
        <ele>1863</ele>
        <time>2019-04-21T22:07:51Z</time>
      </trkpt>
      <trkpt lat="45.70945" lon="6.90926">
        <ele>1864</ele>
        <time>2019-04-21T22:08:51Z</time>
      </trkpt>
      <trkpt lat="45.70941" lon="6.90936">
        <ele>1865</ele>
        <time>2019-04-21T22:09:51Z</time>
      </trkpt>
      <trkpt lat="45.70942" lon="6.90975">
        <ele>1867</ele>
        <time>2019-04-21T22:10:51Z</time>
      </trkpt>
      <trkpt lat="45.70941" lon="6.91">
        <ele>1869</ele>
        <time>2019-04-21T22:11:51Z</time>
      </trkpt>
      <trkpt lat="45.70928" lon="6.91134">
        <ele>1874</ele>
        <time>2019-04-21T22:12:51Z</time>
      </trkpt>
      <trkpt lat="45.70923" lon="6.91156">
        <ele>1875</ele>
        <time>2019-04-21T22:13:51Z</time>
      </trkpt>
      <trkpt lat="45.70919" lon="6.91165">
        <ele>1875</ele>
        <time>2019-04-21T22:14:51Z</time>
      </trkpt>
      <trkpt lat="45.70862" lon="6.91233">
        <ele>1884</ele>
        <time>2019-04-21T22:15:51Z</time>
      </trkpt>
      <trkpt lat="45.7085" lon="6.91249">
        <ele>1883</ele>
        <time>2019-04-21T22:16:51Z</time>
      </trkpt>
      <trkpt lat="45.7083" lon="6.91299">
        <ele>1881</ele>
        <time>2019-04-21T22:17:51Z</time>
      </trkpt>
      <trkpt lat="45.70821" lon="6.91314">
        <ele>1882</ele>
        <time>2019-04-21T22:18:51Z</time>
      </trkpt>
      <trkpt lat="45.70805" lon="6.91336">
        <ele>1883</ele>
        <time>2019-04-21T22:19:51Z</time>
      </trkpt>
      <trkpt lat="45.70798" lon="6.91342">
        <ele>1885</ele>
        <time>2019-04-21T22:20:51Z</time>
      </trkpt>
      <trkpt lat="45.70761" lon="6.91364">
        <ele>1894</ele>
        <time>2019-04-21T22:21:51Z</time>
      </trkpt>
      <trkpt lat="45.70744" lon="6.91385">
        <ele>1896</ele>
        <time>2019-04-21T22:22:51Z</time>
      </trkpt>
      <trkpt lat="45.70729" lon="6.91408">
        <ele>1896</ele>
        <time>2019-04-21T22:23:51Z</time>
      </trkpt>
      <trkpt lat="45.70723" lon="6.91423">
        <ele>1896</ele>
        <time>2019-04-21T22:24:51Z</time>
      </trkpt>
      <trkpt lat="45.70713" lon="6.91481">
        <ele>1893</ele>
        <time>2019-04-21T22:25:51Z</time>
      </trkpt>
      <trkpt lat="45.70707" lon="6.9149">
        <ele>1893</ele>
        <time>2019-04-21T22:26:51Z</time>
      </trkpt>
      <trkpt lat="45.70697" lon="6.91495">
        <ele>1894</ele>
        <time>2019-04-21T22:27:51Z</time>
      </trkpt>
      <trkpt lat="45.70691" lon="6.91494">
        <ele>1896</ele>
        <time>2019-04-21T22:28:51Z</time>
      </trkpt>
      <trkpt lat="45.70688" lon="6.91491">
        <ele>1897</ele>
        <time>2019-04-21T22:29:51Z</time>
      </trkpt>
      <trkpt lat="45.70684" lon="6.9148">
        <ele>1899</ele>
        <time>2019-04-21T22:30:51Z</time>
      </trkpt>
      <trkpt lat="45.70684" lon="6.91466">
        <ele>1901</ele>
        <time>2019-04-21T22:31:51Z</time>
      </trkpt>
      <trkpt lat="45.70687" lon="6.91459">
        <ele>1901</ele>
        <time>2019-04-21T22:32:51Z</time>
      </trkpt>
      <trkpt lat="45.70691" lon="6.91453">
        <ele>1901</ele>
        <time>2019-04-21T22:33:51Z</time>
      </trkpt>
      <trkpt lat="45.70704" lon="6.91441">
        <ele>1899</ele>
        <time>2019-04-21T22:34:51Z</time>
      </trkpt>
      <trkpt lat="45.70706" lon="6.91434">
        <ele>1900</ele>
        <time>2019-04-21T22:35:51Z</time>
      </trkpt>
      <trkpt lat="45.70707" lon="6.91425">
        <ele>1900</ele>
        <time>2019-04-21T22:36:51Z</time>
      </trkpt>
      <trkpt lat="45.70705" lon="6.91378">
        <ele>1907</ele>
        <time>2019-04-21T22:37:51Z</time>
      </trkpt>
      <trkpt lat="45.70707" lon="6.91362">
        <ele>1909</ele>
        <time>2019-04-21T22:38:51Z</time>
      </trkpt>
      <trkpt lat="45.7071" lon="6.91347">
        <ele>1911</ele>
        <time>2019-04-21T22:39:51Z</time>
      </trkpt>
      <trkpt lat="45.70714" lon="6.91336">
        <ele>1911</ele>
        <time>2019-04-21T22:40:51Z</time>
      </trkpt>
      <trkpt lat="45.70732" lon="6.91303">
        <ele>1915</ele>
        <time>2019-04-21T22:41:51Z</time>
      </trkpt>
      <trkpt lat="45.70738" lon="6.91295">
        <ele>1916</ele>
        <time>2019-04-21T22:42:51Z</time>
      </trkpt>
      <trkpt lat="45.70755" lon="6.91277">
        <ele>1916</ele>
        <time>2019-04-21T22:43:51Z</time>
      </trkpt>
      <trkpt lat="45.7076" lon="6.91269">
        <ele>1916</ele>
        <time>2019-04-21T22:44:51Z</time>
      </trkpt>
      <trkpt lat="45.70811" lon="6.91149">
        <ele>1924</ele>
        <time>2019-04-21T22:45:51Z</time>
      </trkpt>
      <trkpt lat="45.70834" lon="6.91063">
        <ele>1928</ele>
        <time>2019-04-21T22:46:51Z</time>
      </trkpt>
      <trkpt lat="45.70833" lon="6.91054">
        <ele>1930</ele>
        <time>2019-04-21T22:47:51Z</time>
      </trkpt>
      <trkpt lat="45.7083" lon="6.91051">
        <ele>1933</ele>
        <time>2019-04-21T22:48:51Z</time>
      </trkpt>
      <trkpt lat="45.70826" lon="6.91051">
        <ele>1936</ele>
        <time>2019-04-21T22:49:51Z</time>
      </trkpt>
      <trkpt lat="45.70824" lon="6.91054">
        <ele>1936</ele>
        <time>2019-04-21T22:50:51Z</time>
      </trkpt>
      <trkpt lat="45.70804" lon="6.9112">
        <ele>1934</ele>
        <time>2019-04-21T22:51:51Z</time>
      </trkpt>
      <trkpt lat="45.70794" lon="6.91139">
        <ele>1935</ele>
        <time>2019-04-21T22:52:51Z</time>
      </trkpt>
      <trkpt lat="45.7075" lon="6.91206">
        <ele>1939</ele>
        <time>2019-04-21T22:53:51Z</time>
      </trkpt>
      <trkpt lat="45.70728" lon="6.91218">
        <ele>1942</ele>
        <time>2019-04-21T22:54:51Z</time>
      </trkpt>
      <trkpt lat="45.70702" lon="6.91228">
        <ele>1947</ele>
        <time>2019-04-21T22:55:51Z</time>
      </trkpt>
      <trkpt lat="45.70695" lon="6.91234">
        <ele>1946</ele>
        <time>2019-04-21T22:56:51Z</time>
      </trkpt>
      <trkpt lat="45.70671" lon="6.91263">
        <ele>1943</ele>
        <time>2019-04-21T22:57:51Z</time>
      </trkpt>
      <trkpt lat="45.7065" lon="6.91265">
        <ele>1945</ele>
        <time>2019-04-21T22:58:51Z</time>
      </trkpt>
      <trkpt lat="45.70633" lon="6.91275">
        <ele>1942</ele>
        <time>2019-04-21T22:59:51Z</time>
      </trkpt>
      <trkpt lat="45.70619" lon="6.91281">
        <ele>1941</ele>
        <time>2019-04-21T23:00:51Z</time>
      </trkpt>
      <trkpt lat="45.70614" lon="6.9128">
        <ele>1942</ele>
        <time>2019-04-21T23:01:51Z</time>
      </trkpt>
      <trkpt lat="45.70576" lon="6.91247">
        <ele>1953</ele>
        <time>2019-04-21T23:02:51Z</time>
      </trkpt>
      <trkpt lat="45.70559" lon="6.9122">
        <ele>1959</ele>
        <time>2019-04-21T23:03:51Z</time>
      </trkpt>
      <trkpt lat="45.70543" lon="6.91186">
        <ele>1964</ele>
        <time>2019-04-21T23:04:51Z</time>
      </trkpt>
      <trkpt lat="45.70536" lon="6.91174">
        <ele>1965</ele>
        <time>2019-04-21T23:05:51Z</time>
      </trkpt>
      <trkpt lat="45.70529" lon="6.91166">
        <ele>1965</ele>
        <time>2019-04-21T23:06:51Z</time>
      </trkpt>
      <trkpt lat="45.70512" lon="6.91154">
        <ele>1966</ele>
        <time>2019-04-21T23:07:51Z</time>
      </trkpt>
      <trkpt lat="45.70503" lon="6.91152">
        <ele>1965</ele>
        <time>2019-04-21T23:08:51Z</time>
      </trkpt>
      <trkpt lat="45.70491" lon="6.91156">
        <ele>1962</ele>
        <time>2019-04-21T23:09:51Z</time>
      </trkpt>
      <trkpt lat="45.70479" lon="6.9117">
        <ele>1957</ele>
        <time>2019-04-21T23:10:51Z</time>
      </trkpt>
      <trkpt lat="45.70474" lon="6.91174">
        <ele>1956</ele>
        <time>2019-04-21T23:11:51Z</time>
      </trkpt>
      <trkpt lat="45.70466" lon="6.91172">
        <ele>1956</ele>
        <time>2019-04-21T23:12:51Z</time>
      </trkpt>
      <trkpt lat="45.70455" lon="6.9116">
        <ele>1958</ele>
        <time>2019-04-21T23:13:51Z</time>
      </trkpt>
      <trkpt lat="45.70426" lon="6.91106">
        <ele>1967</ele>
        <time>2019-04-21T23:14:51Z</time>
      </trkpt>
      <trkpt lat="45.70391" lon="6.91013">
        <ele>1981</ele>
        <time>2019-04-21T23:15:51Z</time>
      </trkpt>
      <trkpt lat="45.70345" lon="6.90918">
        <ele>1991</ele>
        <time>2019-04-21T23:16:51Z</time>
      </trkpt>
      <trkpt lat="45.70285" lon="6.90781">
        <ele>1998</ele>
        <time>2019-04-21T23:17:51Z</time>
      </trkpt>
      <trkpt lat="45.70266" lon="6.90752">
        <ele>1998</ele>
        <time>2019-04-21T23:18:51Z</time>
      </trkpt>
      <trkpt lat="45.70214" lon="6.90684">
        <ele>2002</ele>
        <time>2019-04-21T23:19:51Z</time>
      </trkpt>
      <trkpt lat="45.70207" lon="6.90673">
        <ele>2003</ele>
        <time>2019-04-21T23:20:51Z</time>
      </trkpt>
      <trkpt lat="45.70197" lon="6.90648">
        <ele>2004</ele>
        <time>2019-04-21T23:21:51Z</time>
      </trkpt>
      <trkpt lat="45.70193" lon="6.90642">
        <ele>2004</ele>
        <time>2019-04-21T23:22:51Z</time>
      </trkpt>
      <trkpt lat="45.70182" lon="6.90642">
        <ele>2002</ele>
        <time>2019-04-21T23:23:51Z</time>
      </trkpt>
      <trkpt lat="45.70164" lon="6.90658">
        <ele>1998</ele>
        <time>2019-04-21T23:24:51Z</time>
      </trkpt>
      <trkpt lat="45.70157" lon="6.9066">
        <ele>1999</ele>
        <time>2019-04-21T23:25:51Z</time>
      </trkpt>
      <trkpt lat="45.7014" lon="6.90658">
        <ele>2002</ele>
        <time>2019-04-21T23:26:51Z</time>
      </trkpt>
      <trkpt lat="45.70109" lon="6.90649">
        <ele>2007</ele>
        <time>2019-04-21T23:27:51Z</time>
      </trkpt>
      <trkpt lat="45.70102" lon="6.90651">
        <ele>2008</ele>
        <time>2019-04-21T23:28:51Z</time>
      </trkpt>
      <trkpt lat="45.70096" lon="6.90658">
        <ele>2008</ele>
        <time>2019-04-21T23:29:51Z</time>
      </trkpt>
      <trkpt lat="45.70077" lon="6.90699">
        <ele>2002</ele>
        <time>2019-04-21T23:30:51Z</time>
      </trkpt>
      <trkpt lat="45.70073" lon="6.90703">
        <ele>2001</ele>
        <time>2019-04-21T23:31:51Z</time>
      </trkpt>
      <trkpt lat="45.70069" lon="6.90704">
        <ele>2001</ele>
        <time>2019-04-21T23:32:51Z</time>
      </trkpt>
      <trkpt lat="45.70059" lon="6.90701">
        <ele>2002</ele>
        <time>2019-04-21T23:33:51Z</time>
      </trkpt>
      <trkpt lat="45.70052" lon="6.90693">
        <ele>2003</ele>
        <time>2019-04-21T23:34:51Z</time>
      </trkpt>
      <trkpt lat="45.70013" lon="6.90642">
        <ele>2014</ele>
        <time>2019-04-21T23:35:51Z</time>
      </trkpt>
      <trkpt lat="45.69976" lon="6.90577">
        <ele>2022</ele>
        <time>2019-04-21T23:36:51Z</time>
      </trkpt>
      <trkpt lat="45.69952" lon="6.9051">
        <ele>2027</ele>
        <time>2019-04-21T23:37:51Z</time>
      </trkpt>
      <trkpt lat="45.69936" lon="6.90455">
        <ele>2027</ele>
        <time>2019-04-21T23:38:51Z</time>
      </trkpt>
      <trkpt lat="45.69932" lon="6.90445">
        <ele>2027</ele>
        <time>2019-04-21T23:39:51Z</time>
      </trkpt>
      <trkpt lat="45.6991" lon="6.90415">
        <ele>2026</ele>
        <time>2019-04-21T23:40:51Z</time>
      </trkpt>
      <trkpt lat="45.6988" lon="6.90352">
        <ele>2033</ele>
        <time>2019-04-21T23:41:51Z</time>
      </trkpt>
      <trkpt lat="45.69874" lon="6.90342">
        <ele>2034</ele>
        <time>2019-04-21T23:42:51Z</time>
      </trkpt>
      <trkpt lat="45.69851" lon="6.90319">
        <ele>2034</ele>
        <time>2019-04-21T23:43:51Z</time>
      </trkpt>
      <trkpt lat="45.69841" lon="6.90303">
        <ele>2035</ele>
        <time>2019-04-21T23:44:51Z</time>
      </trkpt>
      <trkpt lat="45.69831" lon="6.90275">
        <ele>2040</ele>
        <time>2019-04-21T23:45:51Z</time>
      </trkpt>
      <trkpt lat="45.6982" lon="6.90229">
        <ele>2043</ele>
        <time>2019-04-21T23:46:51Z</time>
      </trkpt>
      <trkpt lat="45.69815" lon="6.9022">
        <ele>2043</ele>
        <time>2019-04-21T23:47:51Z</time>
      </trkpt>
      <trkpt lat="45.69749" lon="6.90146">
        <ele>2048</ele>
        <time>2019-04-21T23:48:51Z</time>
      </trkpt>
      <trkpt lat="45.6973" lon="6.90119">
        <ele>2044</ele>
        <time>2019-04-21T23:49:51Z</time>
      </trkpt>
      <trkpt lat="45.6965" lon="6.89986">
        <ele>2042</ele>
        <time>2019-04-21T23:50:51Z</time>
      </trkpt>
      <trkpt lat="45.69626" lon="6.8995">
        <ele>2047</ele>
        <time>2019-04-21T23:51:51Z</time>
      </trkpt>
      <trkpt lat="45.69591" lon="6.89914">
        <ele>2057</ele>
        <time>2019-04-21T23:52:51Z</time>
      </trkpt>
      <trkpt lat="45.69579" lon="6.89905">
        <ele>2059</ele>
        <time>2019-04-21T23:53:51Z</time>
      </trkpt>
      <trkpt lat="45.69536" lon="6.89882">
        <ele>2059</ele>
        <time>2019-04-21T23:54:51Z</time>
      </trkpt>
      <trkpt lat="45.69526" lon="6.8987">
        <ele>2059</ele>
        <time>2019-04-21T23:55:51Z</time>
      </trkpt>
      <trkpt lat="45.69514" lon="6.89852">
        <ele>2059</ele>
        <time>2019-04-21T23:56:51Z</time>
      </trkpt>
      <trkpt lat="45.69502" lon="6.8982">
        <ele>2059</ele>
        <time>2019-04-21T23:57:51Z</time>
      </trkpt>
      <trkpt lat="45.69469" lon="6.89695">
        <ele>2060</ele>
        <time>2019-04-21T23:58:51Z</time>
      </trkpt>
      <trkpt lat="45.69441" lon="6.89642">
        <ele>2065</ele>
        <time>2019-04-21T23:59:51Z</time>
      </trkpt>
      <trkpt lat="45.69421" lon="6.89586">
        <ele>2064</ele>
        <time>2019-04-22T00:00:51Z</time>
      </trkpt>
      <trkpt lat="45.69398" lon="6.89525">
        <ele>2070</ele>
        <time>2019-04-22T00:01:51Z</time>
      </trkpt>
      <trkpt lat="45.69395" lon="6.89506">
        <ele>2070</ele>
        <time>2019-04-22T00:02:51Z</time>
      </trkpt>
      <trkpt lat="45.69395" lon="6.89447">
        <ele>2069</ele>
        <time>2019-04-22T00:03:51Z</time>
      </trkpt>
      <trkpt lat="45.69392" lon="6.89429">
        <ele>2069</ele>
        <time>2019-04-22T00:04:51Z</time>
      </trkpt>
      <trkpt lat="45.69355" lon="6.89334">
        <ele>2071</ele>
        <time>2019-04-22T00:05:51Z</time>
      </trkpt>
      <trkpt lat="45.69349" lon="6.89316">
        <ele>2072</ele>
        <time>2019-04-22T00:06:51Z</time>
      </trkpt>
      <trkpt lat="45.69348" lon="6.89306">
        <ele>2072</ele>
        <time>2019-04-22T00:07:51Z</time>
      </trkpt>
      <trkpt lat="45.69349" lon="6.89232">
        <ele>2074</ele>
        <time>2019-04-22T00:08:51Z</time>
      </trkpt>
      <trkpt lat="45.69347" lon="6.89198">
        <ele>2076</ele>
        <time>2019-04-22T00:09:51Z</time>
      </trkpt>
      <trkpt lat="45.69345" lon="6.89191">
        <ele>2076</ele>
        <time>2019-04-22T00:10:51Z</time>
      </trkpt>
      <trkpt lat="45.69339" lon="6.89183">
        <ele>2078</ele>
        <time>2019-04-22T00:11:51Z</time>
      </trkpt>
      <trkpt lat="45.69323" lon="6.89172">
        <ele>2080</ele>
        <time>2019-04-22T00:12:51Z</time>
      </trkpt>
      <trkpt lat="45.69311" lon="6.8914">
        <ele>2085</ele>
        <time>2019-04-22T00:13:51Z</time>
      </trkpt>
      <trkpt lat="45.693" lon="6.89116">
        <ele>2089</ele>
        <time>2019-04-22T00:14:51Z</time>
      </trkpt>
      <trkpt lat="45.69285" lon="6.89088">
        <ele>2093</ele>
        <time>2019-04-22T00:15:51Z</time>
      </trkpt>
      <trkpt lat="45.69276" lon="6.89076">
        <ele>2095</ele>
        <time>2019-04-22T00:16:51Z</time>
      </trkpt>
      <trkpt lat="45.69237" lon="6.89041">
        <ele>2098</ele>
        <time>2019-04-22T00:17:51Z</time>
      </trkpt>
      <trkpt lat="45.69187" lon="6.89013">
        <ele>2101</ele>
        <time>2019-04-22T00:18:51Z</time>
      </trkpt>
      <trkpt lat="45.69174" lon="6.89012">
        <ele>2101</ele>
        <time>2019-04-22T00:19:51Z</time>
      </trkpt>
      <trkpt lat="45.69168" lon="6.89014">
        <ele>2101</ele>
        <time>2019-04-22T00:20:51Z</time>
      </trkpt>
      <trkpt lat="45.69162" lon="6.89021">
        <ele>2102</ele>
        <time>2019-04-22T00:21:51Z</time>
      </trkpt>
      <trkpt lat="45.6916" lon="6.89034">
        <ele>2103</ele>
        <time>2019-04-22T00:22:51Z</time>
      </trkpt>
      <trkpt lat="45.69166" lon="6.89066">
        <ele>2103</ele>
        <time>2019-04-22T00:23:51Z</time>
      </trkpt>
      <trkpt lat="45.69166" lon="6.89072">
        <ele>2103</ele>
        <time>2019-04-22T00:24:51Z</time>
      </trkpt>
      <trkpt lat="45.69163" lon="6.89077">
        <ele>2104</ele>
        <time>2019-04-22T00:25:51Z</time>
      </trkpt>
      <trkpt lat="45.69158" lon="6.89075">
        <ele>2105</ele>
        <time>2019-04-22T00:26:51Z</time>
      </trkpt>
      <trkpt lat="45.69151" lon="6.89056">
        <ele>2105</ele>
        <time>2019-04-22T00:27:51Z</time>
      </trkpt>
      <trkpt lat="45.69136" lon="6.89029">
        <ele>2107</ele>
        <time>2019-04-22T00:28:51Z</time>
      </trkpt>
      <trkpt lat="45.69113" lon="6.88947">
        <ele>2107</ele>
        <time>2019-04-22T00:29:51Z</time>
      </trkpt>
      <trkpt lat="45.69103" lon="6.8893">
        <ele>2107</ele>
        <time>2019-04-22T00:30:51Z</time>
      </trkpt>
      <trkpt lat="45.69088" lon="6.88915">
        <ele>2108</ele>
        <time>2019-04-22T00:31:51Z</time>
      </trkpt>
      <trkpt lat="45.69085" lon="6.88916">
        <ele>2108</ele>
        <time>2019-04-22T00:32:51Z</time>
      </trkpt>
      <trkpt lat="45.69083" lon="6.88925">
        <ele>2109</ele>
        <time>2019-04-22T00:33:51Z</time>
      </trkpt>
      <trkpt lat="45.69093" lon="6.89002">
        <ele>2112</ele>
        <time>2019-04-22T00:34:51Z</time>
      </trkpt>
      <trkpt lat="45.69091" lon="6.89042">
        <ele>2115</ele>
        <time>2019-04-22T00:35:51Z</time>
      </trkpt>
      <trkpt lat="45.69115" lon="6.89124">
        <ele>2115</ele>
        <time>2019-04-22T00:36:51Z</time>
      </trkpt>
      <trkpt lat="45.69115" lon="6.89136">
        <ele>2115</ele>
        <time>2019-04-22T00:37:51Z</time>
      </trkpt>
      <trkpt lat="45.69113" lon="6.89146">
        <ele>2116</ele>
        <time>2019-04-22T00:38:51Z</time>
      </trkpt>
      <trkpt lat="45.69105" lon="6.89155">
        <ele>2119</ele>
        <time>2019-04-22T00:39:51Z</time>
      </trkpt>
      <trkpt lat="45.69099" lon="6.89158">
        <ele>2120</ele>
        <time>2019-04-22T00:40:51Z</time>
      </trkpt>
      <trkpt lat="45.69089" lon="6.89159">
        <ele>2123</ele>
        <time>2019-04-22T00:41:51Z</time>
      </trkpt>
      <trkpt lat="45.69078" lon="6.89154">
        <ele>2125</ele>
        <time>2019-04-22T00:42:51Z</time>
      </trkpt>
      <trkpt lat="45.69045" lon="6.89129">
        <ele>2131</ele>
        <time>2019-04-22T00:43:51Z</time>
      </trkpt>
      <trkpt lat="45.69035" lon="6.89115">
        <ele>2133</ele>
        <time>2019-04-22T00:44:51Z</time>
      </trkpt>
      <trkpt lat="45.69033" lon="6.89101">
        <ele>2133</ele>
        <time>2019-04-22T00:45:51Z</time>
      </trkpt>
      <trkpt lat="45.6903" lon="6.89026">
        <ele>2131</ele>
        <time>2019-04-22T00:46:51Z</time>
      </trkpt>
      <trkpt lat="45.69025" lon="6.89001">
        <ele>2131</ele>
        <time>2019-04-22T00:47:51Z</time>
      </trkpt>
      <trkpt lat="45.69015" lon="6.88975">
        <ele>2132</ele>
        <time>2019-04-22T00:48:51Z</time>
      </trkpt>
      <trkpt lat="45.69012" lon="6.88969">
        <ele>2132</ele>
        <time>2019-04-22T00:49:51Z</time>
      </trkpt>
      <trkpt lat="45.69002" lon="6.8896">
        <ele>2135</ele>
        <time>2019-04-22T00:50:51Z</time>
      </trkpt>
      <trkpt lat="45.68852" lon="6.88871">
        <ele>2143</ele>
        <time>2019-04-22T00:51:51Z</time>
      </trkpt>
      <trkpt lat="45.6884" lon="6.88868">
        <ele>2144</ele>
        <time>2019-04-22T00:52:51Z</time>
      </trkpt>
      <trkpt lat="45.68795" lon="6.88863">
        <ele>2148</ele>
        <time>2019-04-22T00:53:51Z</time>
      </trkpt>
      <trkpt lat="45.68763" lon="6.88876">
        <ele>2154</ele>
        <time>2019-04-22T00:54:51Z</time>
      </trkpt>
      <trkpt lat="45.68753" lon="6.88878">
        <ele>2155</ele>
        <time>2019-04-22T00:55:51Z</time>
      </trkpt>
      <trkpt lat="45.6874" lon="6.88875">
        <ele>2156</ele>
        <time>2019-04-22T00:56:51Z</time>
      </trkpt>
      <trkpt lat="45.68714" lon="6.88866">
        <ele>2158</ele>
        <time>2019-04-22T00:57:51Z</time>
      </trkpt>
      <trkpt lat="45.6867" lon="6.88862">
        <ele>2164</ele>
        <time>2019-04-22T00:58:51Z</time>
      </trkpt>
      <trkpt lat="45.68621" lon="6.88827">
        <ele>2166</ele>
        <time>2019-04-22T00:59:51Z</time>
      </trkpt>
      <trkpt lat="45.6859" lon="6.88814">
        <ele>2169</ele>
        <time>2019-04-22T01:00:51Z</time>
      </trkpt>
      <trkpt lat="45.68544" lon="6.88778">
        <ele>2169</ele>
        <time>2019-04-22T01:01:51Z</time>
      </trkpt>
      <trkpt lat="45.68502" lon="6.88766">
        <ele>2174</ele>
        <time>2019-04-22T01:02:51Z</time>
      </trkpt>
      <trkpt lat="45.68491" lon="6.8876">
        <ele>2175</ele>
        <time>2019-04-22T01:03:51Z</time>
      </trkpt>
      <trkpt lat="45.68345" lon="6.8864">
        <ele>2185</ele>
        <time>2019-04-22T01:04:51Z</time>
      </trkpt>
      <trkpt lat="45.68043" lon="6.88397">
        <ele>2193</ele>
        <time>2019-04-22T01:05:51Z</time>
      </trkpt>
      <trkpt lat="45.67979" lon="6.88343">
        <ele>2191</ele>
        <time>2019-04-22T01:06:51Z</time>
      </trkpt>
      <trkpt lat="45.67929" lon="6.88297">
        <ele>2189</ele>
        <time>2019-04-22T01:07:51Z</time>
      </trkpt>
      <trkpt lat="45.67892" lon="6.88265">
        <ele>2187</ele>
        <time>2019-04-22T01:08:51Z</time>
      </trkpt>
      <trkpt lat="45.67689" lon="6.88166">
        <ele>2175</ele>
        <time>2019-04-22T01:09:51Z</time>
      </trkpt>
      <trkpt lat="45.67662" lon="6.88149">
        <ele>2174</ele>
        <time>2019-04-22T01:10:51Z</time>
      </trkpt>
      <trkpt lat="45.6721" lon="6.87645">
        <ele>2151</ele>
        <time>2019-04-22T01:11:51Z</time>
      </trkpt>
      <trkpt lat="45.66944" lon="6.87342">
        <ele>2127</ele>
        <time>2019-04-22T01:12:51Z</time>
      </trkpt>
      <trkpt lat="45.6694" lon="6.8733">
        <ele>2126</ele>
        <time>2019-04-22T01:13:51Z</time>
      </trkpt>
      <trkpt lat="45.66941" lon="6.87325">
        <ele>2126</ele>
        <time>2019-04-22T01:14:51Z</time>
      </trkpt>
      <trkpt lat="45.66943" lon="6.8732">
        <ele>2126</ele>
        <time>2019-04-22T01:15:51Z</time>
      </trkpt>
      <trkpt lat="45.6695" lon="6.87315">
        <ele>2125</ele>
        <time>2019-04-22T01:16:51Z</time>
      </trkpt>
      <trkpt lat="45.66962" lon="6.87316">
        <ele>2126</ele>
        <time>2019-04-22T01:17:51Z</time>
      </trkpt>
      <trkpt lat="45.6698" lon="6.87325">
        <ele>2127</ele>
        <time>2019-04-22T01:18:51Z</time>
      </trkpt>
      <trkpt lat="45.6702" lon="6.87361">
        <ele>2131</ele>
        <time>2019-04-22T01:19:51Z</time>
      </trkpt>
      <trkpt lat="45.67034" lon="6.87372">
        <ele>2132</ele>
        <time>2019-04-22T01:20:51Z</time>
      </trkpt>
      <trkpt lat="45.67051" lon="6.87376">
        <ele>2133</ele>
        <time>2019-04-22T01:21:51Z</time>
      </trkpt>
      <trkpt lat="45.6706" lon="6.87372">
        <ele>2133</ele>
        <time>2019-04-22T01:22:51Z</time>
      </trkpt>
      <trkpt lat="45.67064" lon="6.87367">
        <ele>2133</ele>
        <time>2019-04-22T01:23:51Z</time>
      </trkpt>
      <trkpt lat="45.67066" lon="6.87356">
        <ele>2132</ele>
        <time>2019-04-22T01:24:51Z</time>
      </trkpt>
      <trkpt lat="45.67065" lon="6.87346">
        <ele>2130</ele>
        <time>2019-04-22T01:25:51Z</time>
      </trkpt>
      <trkpt lat="45.67061" lon="6.8734">
        <ele>2130</ele>
        <time>2019-04-22T01:26:51Z</time>
      </trkpt>
      <trkpt lat="45.6701" lon="6.87293">
        <ele>2127</ele>
        <time>2019-04-22T01:27:51Z</time>
      </trkpt>
      <trkpt lat="45.66964" lon="6.87273">
        <ele>2123</ele>
        <time>2019-04-22T01:28:51Z</time>
      </trkpt>
      <trkpt lat="45.66934" lon="6.87247">
        <ele>2119</ele>
        <time>2019-04-22T01:29:51Z</time>
      </trkpt>
      <trkpt lat="45.66928" lon="6.87247">
        <ele>2119</ele>
        <time>2019-04-22T01:30:51Z</time>
      </trkpt>
      <trkpt lat="45.66919" lon="6.87251">
        <ele>2118</ele>
        <time>2019-04-22T01:31:51Z</time>
      </trkpt>
      <trkpt lat="45.6689" lon="6.8727">
        <ele>2118</ele>
        <time>2019-04-22T01:32:51Z</time>
      </trkpt>
      <trkpt lat="45.66877" lon="6.87272">
        <ele>2117</ele>
        <time>2019-04-22T01:33:51Z</time>
      </trkpt>
      <trkpt lat="45.6687" lon="6.8727">
        <ele>2116</ele>
        <time>2019-04-22T01:34:51Z</time>
      </trkpt>
      <trkpt lat="45.66864" lon="6.87266">
        <ele>2115</ele>
        <time>2019-04-22T01:35:51Z</time>
      </trkpt>
      <trkpt lat="45.66859" lon="6.8726">
        <ele>2114</ele>
        <time>2019-04-22T01:36:51Z</time>
      </trkpt>
      <trkpt lat="45.66845" lon="6.87235">
        <ele>2109</ele>
        <time>2019-04-22T01:37:51Z</time>
      </trkpt>
      <trkpt lat="45.66831" lon="6.87226">
        <ele>2106</ele>
        <time>2019-04-22T01:38:51Z</time>
      </trkpt>
      <trkpt lat="45.66815" lon="6.87226">
        <ele>2105</ele>
        <time>2019-04-22T01:39:51Z</time>
      </trkpt>
      <trkpt lat="45.66786" lon="6.87235">
        <ele>2105</ele>
        <time>2019-04-22T01:40:51Z</time>
      </trkpt>
      <trkpt lat="45.66758" lon="6.87232">
        <ele>2103</ele>
        <time>2019-04-22T01:41:51Z</time>
      </trkpt>
      <trkpt lat="45.66742" lon="6.87226">
        <ele>2102</ele>
        <time>2019-04-22T01:42:51Z</time>
      </trkpt>
      <trkpt lat="45.66719" lon="6.87211">
        <ele>2101</ele>
        <time>2019-04-22T01:43:51Z</time>
      </trkpt>
      <trkpt lat="45.66704" lon="6.87204">
        <ele>2100</ele>
        <time>2019-04-22T01:44:51Z</time>
      </trkpt>
      <trkpt lat="45.66642" lon="6.8719">
        <ele>2101</ele>
        <time>2019-04-22T01:45:51Z</time>
      </trkpt>
      <trkpt lat="45.66628" lon="6.87182">
        <ele>2099</ele>
        <time>2019-04-22T01:46:51Z</time>
      </trkpt>
      <trkpt lat="45.66601" lon="6.8716">
        <ele>2093</ele>
        <time>2019-04-22T01:47:51Z</time>
      </trkpt>
      <trkpt lat="45.66579" lon="6.87148">
        <ele>2092</ele>
        <time>2019-04-22T01:48:51Z</time>
      </trkpt>
      <trkpt lat="45.66564" lon="6.87143">
        <ele>2092</ele>
        <time>2019-04-22T01:49:51Z</time>
      </trkpt>
      <trkpt lat="45.66522" lon="6.87136">
        <ele>2094</ele>
        <time>2019-04-22T01:50:51Z</time>
      </trkpt>
      <trkpt lat="45.66502" lon="6.8713">
        <ele>2093</ele>
        <time>2019-04-22T01:51:51Z</time>
      </trkpt>
      <trkpt lat="45.66488" lon="6.8712">
        <ele>2091</ele>
        <time>2019-04-22T01:52:51Z</time>
      </trkpt>
      <trkpt lat="45.66449" lon="6.87083">
        <ele>2082</ele>
        <time>2019-04-22T01:53:51Z</time>
      </trkpt>
      <trkpt lat="45.66428" lon="6.87069">
        <ele>2080</ele>
        <time>2019-04-22T01:54:51Z</time>
      </trkpt>
      <trkpt lat="45.66395" lon="6.87053">
        <ele>2077</ele>
        <time>2019-04-22T01:55:51Z</time>
      </trkpt>
      <trkpt lat="45.6636" lon="6.87047">
        <ele>2076</ele>
        <time>2019-04-22T01:56:51Z</time>
      </trkpt>
      <trkpt lat="45.66333" lon="6.87039">
        <ele>2074</ele>
        <time>2019-04-22T01:57:51Z</time>
      </trkpt>
      <trkpt lat="45.66326" lon="6.87039">
        <ele>2074</ele>
        <time>2019-04-22T01:58:51Z</time>
      </trkpt>
      <trkpt lat="45.66304" lon="6.87045">
        <ele>2075</ele>
        <time>2019-04-22T01:59:51Z</time>
      </trkpt>
      <trkpt lat="45.66267" lon="6.87063">
        <ele>2076</ele>
        <time>2019-04-22T02:00:51Z</time>
      </trkpt>
      <trkpt lat="45.66245" lon="6.87075">
        <ele>2077</ele>
        <time>2019-04-22T02:01:51Z</time>
      </trkpt>
      <trkpt lat="45.66237" lon="6.87075">
        <ele>2078</ele>
        <time>2019-04-22T02:02:51Z</time>
      </trkpt>
      <trkpt lat="45.66231" lon="6.87069">
        <ele>2078</ele>
        <time>2019-04-22T02:03:51Z</time>
      </trkpt>
      <trkpt lat="45.66228" lon="6.87064">
        <ele>2078</ele>
        <time>2019-04-22T02:04:51Z</time>
      </trkpt>
      <trkpt lat="45.66227" lon="6.87053">
        <ele>2076</ele>
        <time>2019-04-22T02:05:51Z</time>
      </trkpt>
      <trkpt lat="45.66228" lon="6.87044">
        <ele>2075</ele>
        <time>2019-04-22T02:06:51Z</time>
      </trkpt>
      <trkpt lat="45.66238" lon="6.87012">
        <ele>2069</ele>
        <time>2019-04-22T02:07:51Z</time>
      </trkpt>
      <trkpt lat="45.66242" lon="6.8698">
        <ele>2064</ele>
        <time>2019-04-22T02:08:51Z</time>
      </trkpt>
      <trkpt lat="45.66241" lon="6.86963">
        <ele>2062</ele>
        <time>2019-04-22T02:09:51Z</time>
      </trkpt>
      <trkpt lat="45.66237" lon="6.86944">
        <ele>2060</ele>
        <time>2019-04-22T02:10:51Z</time>
      </trkpt>
      <trkpt lat="45.66233" lon="6.86931">
        <ele>2059</ele>
        <time>2019-04-22T02:11:51Z</time>
      </trkpt>
      <trkpt lat="45.66221" lon="6.86917">
        <ele>2059</ele>
        <time>2019-04-22T02:12:51Z</time>
      </trkpt>
      <trkpt lat="45.66198" lon="6.86902">
        <ele>2061</ele>
        <time>2019-04-22T02:13:51Z</time>
      </trkpt>
      <trkpt lat="45.66187" lon="6.86892">
        <ele>2062</ele>
        <time>2019-04-22T02:14:51Z</time>
      </trkpt>
      <trkpt lat="45.66175" lon="6.86873">
        <ele>2062</ele>
        <time>2019-04-22T02:15:51Z</time>
      </trkpt>
      <trkpt lat="45.66161" lon="6.86831">
        <ele>2060</ele>
        <time>2019-04-22T02:16:51Z</time>
      </trkpt>
      <trkpt lat="45.66142" lon="6.868">
        <ele>2057</ele>
        <time>2019-04-22T02:17:51Z</time>
      </trkpt>
      <trkpt lat="45.6611" lon="6.86757">
        <ele>2053</ele>
        <time>2019-04-22T02:18:51Z</time>
      </trkpt>
      <trkpt lat="45.66055" lon="6.86695">
        <ele>2049</ele>
        <time>2019-04-22T02:19:51Z</time>
      </trkpt>
      <trkpt lat="45.66011" lon="6.86626">
        <ele>2046</ele>
        <time>2019-04-22T02:20:51Z</time>
      </trkpt>
      <trkpt lat="45.65984" lon="6.86598">
        <ele>2049</ele>
        <time>2019-04-22T02:21:51Z</time>
      </trkpt>
      <trkpt lat="45.65969" lon="6.86578">
        <ele>2049</ele>
        <time>2019-04-22T02:22:51Z</time>
      </trkpt>
      <trkpt lat="45.65958" lon="6.86557">
        <ele>2047</ele>
        <time>2019-04-22T02:23:51Z</time>
      </trkpt>
      <trkpt lat="45.65916" lon="6.86454">
        <ele>2032</ele>
        <time>2019-04-22T02:24:51Z</time>
      </trkpt>
      <trkpt lat="45.65902" lon="6.86433">
        <ele>2029</ele>
        <time>2019-04-22T02:25:51Z</time>
      </trkpt>
      <trkpt lat="45.6588" lon="6.86417">
        <ele>2029</ele>
        <time>2019-04-22T02:26:51Z</time>
      </trkpt>
      <trkpt lat="45.65845" lon="6.86402">
        <ele>2035</ele>
        <time>2019-04-22T02:27:51Z</time>
      </trkpt>
      <trkpt lat="45.6583" lon="6.86392">
        <ele>2036</ele>
        <time>2019-04-22T02:28:51Z</time>
      </trkpt>
      <trkpt lat="45.6579" lon="6.86352">
        <ele>2033</ele>
        <time>2019-04-22T02:29:51Z</time>
      </trkpt>
      <trkpt lat="45.65774" lon="6.86342">
        <ele>2032</ele>
        <time>2019-04-22T02:30:51Z</time>
      </trkpt>
      <trkpt lat="45.65748" lon="6.8633">
        <ele>2032</ele>
        <time>2019-04-22T02:31:51Z</time>
      </trkpt>
      <trkpt lat="45.65728" lon="6.86313">
        <ele>2034</ele>
        <time>2019-04-22T02:32:51Z</time>
      </trkpt>
      <trkpt lat="45.65695" lon="6.86275">
        <ele>2031</ele>
        <time>2019-04-22T02:33:51Z</time>
      </trkpt>
      <trkpt lat="45.65685" lon="6.86262">
        <ele>2029</ele>
        <time>2019-04-22T02:34:51Z</time>
      </trkpt>
      <trkpt lat="45.65675" lon="6.86239">
        <ele>2025</ele>
        <time>2019-04-22T02:35:51Z</time>
      </trkpt>
      <trkpt lat="45.65664" lon="6.86197">
        <ele>2016</ele>
        <time>2019-04-22T02:36:51Z</time>
      </trkpt>
      <trkpt lat="45.65657" lon="6.86184">
        <ele>2015</ele>
        <time>2019-04-22T02:37:51Z</time>
      </trkpt>
      <trkpt lat="45.65633" lon="6.86151">
        <ele>2013</ele>
        <time>2019-04-22T02:38:51Z</time>
      </trkpt>
      <trkpt lat="45.65614" lon="6.86134">
        <ele>2012</ele>
        <time>2019-04-22T02:39:51Z</time>
      </trkpt>
      <trkpt lat="45.65602" lon="6.86129">
        <ele>2014</ele>
        <time>2019-04-22T02:40:51Z</time>
      </trkpt>
      <trkpt lat="45.65569" lon="6.86121">
        <ele>2019</ele>
        <time>2019-04-22T02:41:51Z</time>
      </trkpt>
      <trkpt lat="45.65562" lon="6.86118">
        <ele>2020</ele>
        <time>2019-04-22T02:42:51Z</time>
      </trkpt>
      <trkpt lat="45.65548" lon="6.86107">
        <ele>2019</ele>
        <time>2019-04-22T02:43:51Z</time>
      </trkpt>
      <trkpt lat="45.65539" lon="6.86095">
        <ele>2017</ele>
        <time>2019-04-22T02:44:51Z</time>
      </trkpt>
      <trkpt lat="45.65529" lon="6.86078">
        <ele>2013</ele>
        <time>2019-04-22T02:45:51Z</time>
      </trkpt>
      <trkpt lat="45.65497" lon="6.86007">
        <ele>1999</ele>
        <time>2019-04-22T02:46:51Z</time>
      </trkpt>
      <trkpt lat="45.65483" lon="6.85985">
        <ele>1996</ele>
        <time>2019-04-22T02:47:51Z</time>
      </trkpt>
      <trkpt lat="45.65467" lon="6.85972">
        <ele>1997</ele>
        <time>2019-04-22T02:48:51Z</time>
      </trkpt>
      <trkpt lat="45.65427" lon="6.8596">
        <ele>2004</ele>
        <time>2019-04-22T02:49:51Z</time>
      </trkpt>
      <trkpt lat="45.6541" lon="6.85949">
        <ele>2005</ele>
        <time>2019-04-22T02:50:51Z</time>
      </trkpt>
      <trkpt lat="45.65393" lon="6.85928">
        <ele>2003</ele>
        <time>2019-04-22T02:51:51Z</time>
      </trkpt>
      <trkpt lat="45.65357" lon="6.85873">
        <ele>1993</ele>
        <time>2019-04-22T02:52:51Z</time>
      </trkpt>
      <trkpt lat="45.65331" lon="6.85842">
        <ele>1989</ele>
        <time>2019-04-22T02:53:51Z</time>
      </trkpt>
      <trkpt lat="45.65314" lon="6.85828">
        <ele>1989</ele>
        <time>2019-04-22T02:54:51Z</time>
      </trkpt>
      <trkpt lat="45.653" lon="6.85818">
        <ele>1990</ele>
        <time>2019-04-22T02:55:51Z</time>
      </trkpt>
      <trkpt lat="45.65243" lon="6.85793">
        <ele>1999</ele>
        <time>2019-04-22T02:56:51Z</time>
      </trkpt>
      <trkpt lat="45.6522" lon="6.85773">
        <ele>1996</ele>
        <time>2019-04-22T02:57:51Z</time>
      </trkpt>
      <trkpt lat="45.65189" lon="6.85733">
        <ele>1988</ele>
        <time>2019-04-22T02:58:51Z</time>
      </trkpt>
      <trkpt lat="45.65172" lon="6.85718">
        <ele>1987</ele>
        <time>2019-04-22T02:59:51Z</time>
      </trkpt>
      <trkpt lat="45.65101" lon="6.85668">
        <ele>1984</ele>
        <time>2019-04-22T03:00:51Z</time>
      </trkpt>
      <trkpt lat="45.65062" lon="6.85647">
        <ele>1991</ele>
        <time>2019-04-22T03:01:51Z</time>
      </trkpt>
      <trkpt lat="45.65051" lon="6.85637">
        <ele>1993</ele>
        <time>2019-04-22T03:02:51Z</time>
      </trkpt>
      <trkpt lat="45.65045" lon="6.85629">
        <ele>1993</ele>
        <time>2019-04-22T03:03:51Z</time>
      </trkpt>
      <trkpt lat="45.65015" lon="6.85561">
        <ele>1983</ele>
        <time>2019-04-22T03:04:51Z</time>
      </trkpt>
      <trkpt lat="45.64993" lon="6.85526">
        <ele>1984</ele>
        <time>2019-04-22T03:05:51Z</time>
      </trkpt>
      <trkpt lat="45.64978" lon="6.85499">
        <ele>1983</ele>
        <time>2019-04-22T03:06:51Z</time>
      </trkpt>
      <trkpt lat="45.64972" lon="6.85483">
        <ele>1982</ele>
        <time>2019-04-22T03:07:51Z</time>
      </trkpt>
      <trkpt lat="45.64968" lon="6.85467">
        <ele>1981</ele>
        <time>2019-04-22T03:08:51Z</time>
      </trkpt>
      <trkpt lat="45.64963" lon="6.85437">
        <ele>1977</ele>
        <time>2019-04-22T03:09:51Z</time>
      </trkpt>
      <trkpt lat="45.64958" lon="6.85415">
        <ele>1974</ele>
        <time>2019-04-22T03:10:51Z</time>
      </trkpt>
      <trkpt lat="45.64914" lon="6.85319">
        <ele>1972</ele>
        <time>2019-04-22T03:11:51Z</time>
      </trkpt>
      <trkpt lat="45.64902" lon="6.85295">
        <ele>1968</ele>
        <time>2019-04-22T03:12:51Z</time>
      </trkpt>
      <trkpt lat="45.64894" lon="6.85286">
        <ele>1968</ele>
        <time>2019-04-22T03:13:51Z</time>
      </trkpt>
      <trkpt lat="45.64877" lon="6.85276">
        <ele>1968</ele>
        <time>2019-04-22T03:14:51Z</time>
      </trkpt>
      <trkpt lat="45.64815" lon="6.85244">
        <ele>1968</ele>
        <time>2019-04-22T03:15:51Z</time>
      </trkpt>
      <trkpt lat="45.64772" lon="6.85219">
        <ele>1967</ele>
        <time>2019-04-22T03:16:51Z</time>
      </trkpt>
      <trkpt lat="45.64754" lon="6.85211">
        <ele>1967</ele>
        <time>2019-04-22T03:17:51Z</time>
      </trkpt>
      <trkpt lat="45.64719" lon="6.85207">
        <ele>1976</ele>
        <time>2019-04-22T03:18:51Z</time>
      </trkpt>
      <trkpt lat="45.64708" lon="6.852">
        <ele>1976</ele>
        <time>2019-04-22T03:19:51Z</time>
      </trkpt>
      <trkpt lat="45.64668" lon="6.8514">
        <ele>1962</ele>
        <time>2019-04-22T03:20:51Z</time>
      </trkpt>
      <trkpt lat="45.64634" lon="6.85092">
        <ele>1957</ele>
        <time>2019-04-22T03:21:51Z</time>
      </trkpt>
      <trkpt lat="45.6457" lon="6.85014">
        <ele>1955</ele>
        <time>2019-04-22T03:22:51Z</time>
      </trkpt>
      <trkpt lat="45.64542" lon="6.84953">
        <ele>1950</ele>
        <time>2019-04-22T03:23:51Z</time>
      </trkpt>
      <trkpt lat="45.64537" lon="6.84945">
        <ele>1950</ele>
        <time>2019-04-22T03:24:51Z</time>
      </trkpt>
      <trkpt lat="45.6451" lon="6.8492">
        <ele>1956</ele>
        <time>2019-04-22T03:25:51Z</time>
      </trkpt>
      <trkpt lat="45.64496" lon="6.84902">
        <ele>1955</ele>
        <time>2019-04-22T03:26:51Z</time>
      </trkpt>
      <trkpt lat="45.64488" lon="6.84888">
        <ele>1953</ele>
        <time>2019-04-22T03:27:51Z</time>
      </trkpt>
      <trkpt lat="45.64464" lon="6.84835">
        <ele>1944</ele>
        <time>2019-04-22T03:28:51Z</time>
      </trkpt>
      <trkpt lat="45.64448" lon="6.8481">
        <ele>1943</ele>
        <time>2019-04-22T03:29:51Z</time>
      </trkpt>
      <trkpt lat="45.64434" lon="6.84794">
        <ele>1943</ele>
        <time>2019-04-22T03:30:51Z</time>
      </trkpt>
      <trkpt lat="45.64417" lon="6.84779">
        <ele>1945</ele>
        <time>2019-04-22T03:31:51Z</time>
      </trkpt>
      <trkpt lat="45.64404" lon="6.84773">
        <ele>1946</ele>
        <time>2019-04-22T03:32:51Z</time>
      </trkpt>
      <trkpt lat="45.64382" lon="6.84767">
        <ele>1948</ele>
        <time>2019-04-22T03:33:51Z</time>
      </trkpt>
      <trkpt lat="45.64372" lon="6.84763">
        <ele>1949</ele>
        <time>2019-04-22T03:34:51Z</time>
      </trkpt>
      <trkpt lat="45.64328" lon="6.84717">
        <ele>1945</ele>
        <time>2019-04-22T03:35:51Z</time>
      </trkpt>
      <trkpt lat="45.64315" lon="6.84699">
        <ele>1943</ele>
        <time>2019-04-22T03:36:51Z</time>
      </trkpt>
      <trkpt lat="45.64266" lon="6.84619">
        <ele>1935</ele>
        <time>2019-04-22T03:37:51Z</time>
      </trkpt>
      <trkpt lat="45.64219" lon="6.84554">
        <ele>1935</ele>
        <time>2019-04-22T03:38:51Z</time>
      </trkpt>
      <trkpt lat="45.64203" lon="6.84518">
        <ele>1932</ele>
        <time>2019-04-22T03:39:51Z</time>
      </trkpt>
      <trkpt lat="45.64181" lon="6.84442">
        <ele>1919</ele>
        <time>2019-04-22T03:40:51Z</time>
      </trkpt>
      <trkpt lat="45.64176" lon="6.84433">
        <ele>1919</ele>
        <time>2019-04-22T03:41:51Z</time>
      </trkpt>
      <trkpt lat="45.64166" lon="6.84428">
        <ele>1921</ele>
        <time>2019-04-22T03:42:51Z</time>
      </trkpt>
      <trkpt lat="45.64147" lon="6.84436">
        <ele>1919</ele>
        <time>2019-04-22T03:43:51Z</time>
      </trkpt>
      <trkpt lat="45.64122" lon="6.84455">
        <ele>1919</ele>
        <time>2019-04-22T03:44:51Z</time>
      </trkpt>
      <trkpt lat="45.6407" lon="6.84508">
        <ele>1924</ele>
        <time>2019-04-22T03:45:51Z</time>
      </trkpt>
      <trkpt lat="45.64051" lon="6.84524">
        <ele>1924</ele>
        <time>2019-04-22T03:46:51Z</time>
      </trkpt>
      <trkpt lat="45.64022" lon="6.84539">
        <ele>1919</ele>
        <time>2019-04-22T03:47:51Z</time>
      </trkpt>
      <trkpt lat="45.63965" lon="6.84589">
        <ele>1918</ele>
        <time>2019-04-22T03:48:51Z</time>
      </trkpt>
      <trkpt lat="45.63954" lon="6.84601">
        <ele>1919</ele>
        <time>2019-04-22T03:49:51Z</time>
      </trkpt>
      <trkpt lat="45.63936" lon="6.84632">
        <ele>1923</ele>
        <time>2019-04-22T03:50:51Z</time>
      </trkpt>
      <trkpt lat="45.63928" lon="6.8464">
        <ele>1923</ele>
        <time>2019-04-22T03:51:51Z</time>
      </trkpt>
      <trkpt lat="45.63914" lon="6.84647">
        <ele>1921</ele>
        <time>2019-04-22T03:52:51Z</time>
      </trkpt>
      <trkpt lat="45.63893" lon="6.84652">
        <ele>1916</ele>
        <time>2019-04-22T03:53:51Z</time>
      </trkpt>
      <trkpt lat="45.63867" lon="6.84664">
        <ele>1913</ele>
        <time>2019-04-22T03:54:51Z</time>
      </trkpt>
      <trkpt lat="45.63855" lon="6.84668">
        <ele>1911</ele>
        <time>2019-04-22T03:55:51Z</time>
      </trkpt>
      <trkpt lat="45.6381" lon="6.84669">
        <ele>1902</ele>
        <time>2019-04-22T03:56:51Z</time>
      </trkpt>
      <trkpt lat="45.63795" lon="6.84677">
        <ele>1902</ele>
        <time>2019-04-22T03:57:51Z</time>
      </trkpt>
      <trkpt lat="45.63783" lon="6.84687">
        <ele>1901</ele>
        <time>2019-04-22T03:58:51Z</time>
      </trkpt>
      <trkpt lat="45.63774" lon="6.84699">
        <ele>1901</ele>
        <time>2019-04-22T03:59:51Z</time>
      </trkpt>
      <trkpt lat="45.63767" lon="6.84721">
        <ele>1903</ele>
        <time>2019-04-22T04:00:51Z</time>
      </trkpt>
      <trkpt lat="45.63765" lon="6.84739">
        <ele>1904</ele>
        <time>2019-04-22T04:01:51Z</time>
      </trkpt>
      <trkpt lat="45.63762" lon="6.84808">
        <ele>1905</ele>
        <time>2019-04-22T04:02:51Z</time>
      </trkpt>
      <trkpt lat="45.63758" lon="6.84826">
        <ele>1903</ele>
        <time>2019-04-22T04:03:51Z</time>
      </trkpt>
      <trkpt lat="45.63745" lon="6.84858">
        <ele>1903</ele>
        <time>2019-04-22T04:04:51Z</time>
      </trkpt>
      <trkpt lat="45.63728" lon="6.84884">
        <ele>1903</ele>
        <time>2019-04-22T04:05:51Z</time>
      </trkpt>
      <trkpt lat="45.6371" lon="6.84925">
        <ele>1904</ele>
        <time>2019-04-22T04:06:51Z</time>
      </trkpt>
      <trkpt lat="45.63703" lon="6.84936">
        <ele>1905</ele>
        <time>2019-04-22T04:07:51Z</time>
      </trkpt>
      <trkpt lat="45.63693" lon="6.84946">
        <ele>1903</ele>
        <time>2019-04-22T04:08:51Z</time>
      </trkpt>
      <trkpt lat="45.63671" lon="6.84964">
        <ele>1897</ele>
        <time>2019-04-22T04:09:51Z</time>
      </trkpt>
      <trkpt lat="45.63597" lon="6.85047">
        <ele>1902</ele>
        <time>2019-04-22T04:10:51Z</time>
      </trkpt>
      <trkpt lat="45.63591" lon="6.85052">
        <ele>1902</ele>
        <time>2019-04-22T04:11:51Z</time>
      </trkpt>
      <trkpt lat="45.63583" lon="6.85053">
        <ele>1900</ele>
        <time>2019-04-22T04:12:51Z</time>
      </trkpt>
      <trkpt lat="45.63549" lon="6.85033">
        <ele>1895</ele>
        <time>2019-04-22T04:13:51Z</time>
      </trkpt>
      <trkpt lat="45.63507" lon="6.85019">
        <ele>1892</ele>
        <time>2019-04-22T04:14:51Z</time>
      </trkpt>
      <trkpt lat="45.63497" lon="6.85012">
        <ele>1891</ele>
        <time>2019-04-22T04:15:51Z</time>
      </trkpt>
      <trkpt lat="45.63486" lon="6.85003">
        <ele>1891</ele>
        <time>2019-04-22T04:16:51Z</time>
      </trkpt>
      <trkpt lat="45.63477" lon="6.84989">
        <ele>1889</ele>
        <time>2019-04-22T04:17:51Z</time>
      </trkpt>
      <trkpt lat="45.63462" lon="6.84951">
        <ele>1880</ele>
        <time>2019-04-22T04:18:51Z</time>
      </trkpt>
      <trkpt lat="45.63453" lon="6.84937">
        <ele>1877</ele>
        <time>2019-04-22T04:19:51Z</time>
      </trkpt>
      <trkpt lat="45.63441" lon="6.84925">
        <ele>1876</ele>
        <time>2019-04-22T04:20:51Z</time>
      </trkpt>
      <trkpt lat="45.63427" lon="6.84917">
        <ele>1876</ele>
        <time>2019-04-22T04:21:51Z</time>
      </trkpt>
      <trkpt lat="45.63402" lon="6.84911">
        <ele>1876</ele>
        <time>2019-04-22T04:22:51Z</time>
      </trkpt>
      <trkpt lat="45.63347" lon="6.84905">
        <ele>1874</ele>
        <time>2019-04-22T04:23:51Z</time>
      </trkpt>
      <trkpt lat="45.63297" lon="6.84909">
        <ele>1881</ele>
        <time>2019-04-22T04:24:51Z</time>
      </trkpt>
      <trkpt lat="45.63268" lon="6.84901">
        <ele>1882</ele>
        <time>2019-04-22T04:25:51Z</time>
      </trkpt>
      <trkpt lat="45.6325" lon="6.84892">
        <ele>1881</ele>
        <time>2019-04-22T04:26:51Z</time>
      </trkpt>
      <trkpt lat="45.6322" lon="6.84862">
        <ele>1875</ele>
        <time>2019-04-22T04:27:51Z</time>
      </trkpt>
      <trkpt lat="45.63195" lon="6.84823">
        <ele>1866</ele>
        <time>2019-04-22T04:28:51Z</time>
      </trkpt>
      <trkpt lat="45.6318" lon="6.84805">
        <ele>1863</ele>
        <time>2019-04-22T04:29:51Z</time>
      </trkpt>
      <trkpt lat="45.63164" lon="6.8479">
        <ele>1862</ele>
        <time>2019-04-22T04:30:51Z</time>
      </trkpt>
      <trkpt lat="45.63135" lon="6.84771">
        <ele>1861</ele>
        <time>2019-04-22T04:31:51Z</time>
      </trkpt>
      <trkpt lat="45.63106" lon="6.84734">
        <ele>1855</ele>
        <time>2019-04-22T04:32:51Z</time>
      </trkpt>
      <trkpt lat="45.63062" lon="6.84707">
        <ele>1855</ele>
        <time>2019-04-22T04:33:51Z</time>
      </trkpt>
      <trkpt lat="45.63047" lon="6.84693">
        <ele>1854</ele>
        <time>2019-04-22T04:34:51Z</time>
      </trkpt>
      <trkpt lat="45.63024" lon="6.84664">
        <ele>1853</ele>
        <time>2019-04-22T04:35:51Z</time>
      </trkpt>
      <trkpt lat="45.63016" lon="6.84662">
        <ele>1853</ele>
        <time>2019-04-22T04:36:51Z</time>
      </trkpt>
      <trkpt lat="45.63005" lon="6.84666">
        <ele>1856</ele>
        <time>2019-04-22T04:37:51Z</time>
      </trkpt>
      <trkpt lat="45.63" lon="6.84671">
        <ele>1857</ele>
        <time>2019-04-22T04:38:51Z</time>
      </trkpt>
      <trkpt lat="45.62976" lon="6.84704">
        <ele>1858</ele>
        <time>2019-04-22T04:39:51Z</time>
      </trkpt>
      <trkpt lat="45.62894" lon="6.848">
        <ele>1856</ele>
        <time>2019-04-22T04:40:51Z</time>
      </trkpt>
      <trkpt lat="45.62877" lon="6.84813">
        <ele>1855</ele>
        <time>2019-04-22T04:41:51Z</time>
      </trkpt>
      <trkpt lat="45.6282" lon="6.84842">
        <ele>1850</ele>
        <time>2019-04-22T04:42:51Z</time>
      </trkpt>
      <trkpt lat="45.62789" lon="6.84862">
        <ele>1847</ele>
        <time>2019-04-22T04:43:51Z</time>
      </trkpt>
      <trkpt lat="45.62775" lon="6.84875">
        <ele>1847</ele>
        <time>2019-04-22T04:44:51Z</time>
      </trkpt>
      <trkpt lat="45.62766" lon="6.84888">
        <ele>1847</ele>
        <time>2019-04-22T04:45:51Z</time>
      </trkpt>
      <trkpt lat="45.62734" lon="6.84947">
        <ele>1846</ele>
        <time>2019-04-22T04:46:51Z</time>
      </trkpt>
      <trkpt lat="45.62725" lon="6.84959">
        <ele>1845</ele>
        <time>2019-04-22T04:47:51Z</time>
      </trkpt>
      <trkpt lat="45.6271" lon="6.84968">
        <ele>1843</ele>
        <time>2019-04-22T04:48:51Z</time>
      </trkpt>
      <trkpt lat="45.62697" lon="6.8498">
        <ele>1841</ele>
        <time>2019-04-22T04:49:51Z</time>
      </trkpt>
      <trkpt lat="45.62686" lon="6.84998">
        <ele>1841</ele>
        <time>2019-04-22T04:50:51Z</time>
      </trkpt>
      <trkpt lat="45.62679" lon="6.85013">
        <ele>1841</ele>
        <time>2019-04-22T04:51:51Z</time>
      </trkpt>
      <trkpt lat="45.62669" lon="6.85048">
        <ele>1842</ele>
        <time>2019-04-22T04:52:51Z</time>
      </trkpt>
      <trkpt lat="45.62661" lon="6.85062">
        <ele>1841</ele>
        <time>2019-04-22T04:53:51Z</time>
      </trkpt>
      <trkpt lat="45.62622" lon="6.85107">
        <ele>1837</ele>
        <time>2019-04-22T04:54:51Z</time>
      </trkpt>
      <trkpt lat="45.62609" lon="6.85135">
        <ele>1838</ele>
        <time>2019-04-22T04:55:51Z</time>
      </trkpt>
      <trkpt lat="45.626" lon="6.85161">
        <ele>1839</ele>
        <time>2019-04-22T04:56:51Z</time>
      </trkpt>
      <trkpt lat="45.62584" lon="6.85222">
        <ele>1837</ele>
        <time>2019-04-22T04:57:51Z</time>
      </trkpt>
      <trkpt lat="45.62581" lon="6.85239">
        <ele>1836</ele>
        <time>2019-04-22T04:58:51Z</time>
      </trkpt>
      <trkpt lat="45.62577" lon="6.85282">
        <ele>1835</ele>
        <time>2019-04-22T04:59:51Z</time>
      </trkpt>
      <trkpt lat="45.62574" lon="6.85367">
        <ele>1833</ele>
        <time>2019-04-22T05:00:51Z</time>
      </trkpt>
      <trkpt lat="45.62565" lon="6.85428">
        <ele>1829</ele>
        <time>2019-04-22T05:01:51Z</time>
      </trkpt>
      <trkpt lat="45.62566" lon="6.85492">
        <ele>1828</ele>
        <time>2019-04-22T05:02:51Z</time>
      </trkpt>
      <trkpt lat="45.62564" lon="6.85509">
        <ele>1828</ele>
        <time>2019-04-22T05:03:51Z</time>
      </trkpt>
      <trkpt lat="45.6256" lon="6.85522">
        <ele>1828</ele>
        <time>2019-04-22T05:04:51Z</time>
      </trkpt>
      <trkpt lat="45.6254" lon="6.85556">
        <ele>1823</ele>
        <time>2019-04-22T05:05:51Z</time>
      </trkpt>
      <trkpt lat="45.62494" lon="6.85669">
        <ele>1818</ele>
        <time>2019-04-22T05:06:51Z</time>
      </trkpt>
      <trkpt lat="45.62488" lon="6.85679">
        <ele>1818</ele>
        <time>2019-04-22T05:07:51Z</time>
      </trkpt>
      <trkpt lat="45.62473" lon="6.857">
        <ele>1817</ele>
        <time>2019-04-22T05:08:51Z</time>
      </trkpt>
      <trkpt lat="45.6244" lon="6.85736">
        <ele>1813</ele>
        <time>2019-04-22T05:09:51Z</time>
      </trkpt>
      <trkpt lat="45.62422" lon="6.85763">
        <ele>1810</ele>
        <time>2019-04-22T05:10:51Z</time>
      </trkpt>
      <trkpt lat="45.62417" lon="6.85777">
        <ele>1810</ele>
        <time>2019-04-22T05:11:51Z</time>
      </trkpt>
      <trkpt lat="45.62412" lon="6.85796">
        <ele>1810</ele>
        <time>2019-04-22T05:12:51Z</time>
      </trkpt>
      <trkpt lat="45.62405" lon="6.85797">
        <ele>1807</ele>
        <time>2019-04-22T05:13:51Z</time>
      </trkpt>
      <trkpt lat="45.624" lon="6.85804">
        <ele>1806</ele>
        <time>2019-04-22T05:14:51Z</time>
      </trkpt>
      <trkpt lat="45.62399" lon="6.85809">
        <ele>1805</ele>
        <time>2019-04-22T05:15:51Z</time>
      </trkpt>
      <trkpt lat="45.62402" lon="6.85818">
        <ele>1807</ele>
        <time>2019-04-22T05:16:51Z</time>
      </trkpt>
      <trkpt lat="45.62404" lon="6.85821">
        <ele>1808</ele>
        <time>2019-04-22T05:17:51Z</time>
      </trkpt>
      <trkpt lat="45.62401" lon="6.85829">
        <ele>1808</ele>
        <time>2019-04-22T05:18:51Z</time>
      </trkpt>
      <trkpt lat="45.62399" lon="6.85844">
        <ele>1807</ele>
        <time>2019-04-22T05:19:51Z</time>
      </trkpt>
      <trkpt lat="45.62399" lon="6.86047">
        <ele>1800</ele>
        <time>2019-04-22T05:20:51Z</time>
      </trkpt>
      <trkpt lat="45.624" lon="6.86067">
        <ele>1799</ele>
        <time>2019-04-22T05:21:51Z</time>
      </trkpt>
      <trkpt lat="45.62407" lon="6.86119">
        <ele>1798</ele>
        <time>2019-04-22T05:22:51Z</time>
      </trkpt>
      <trkpt lat="45.62409" lon="6.86193">
        <ele>1794</ele>
        <time>2019-04-22T05:23:51Z</time>
      </trkpt>
      <trkpt lat="45.62414" lon="6.86252">
        <ele>1793</ele>
        <time>2019-04-22T05:24:51Z</time>
      </trkpt>
      <trkpt lat="45.62414" lon="6.86274">
        <ele>1791</ele>
        <time>2019-04-22T05:25:51Z</time>
      </trkpt>
      <trkpt lat="45.62405" lon="6.86337">
        <ele>1784</ele>
        <time>2019-04-22T05:26:51Z</time>
      </trkpt>
      <trkpt lat="45.624" lon="6.86409">
        <ele>1779</ele>
        <time>2019-04-22T05:27:51Z</time>
      </trkpt>
      <trkpt lat="45.624" lon="6.86445">
        <ele>1777</ele>
        <time>2019-04-22T05:28:51Z</time>
      </trkpt>
      <trkpt lat="45.62404" lon="6.86463">
        <ele>1777</ele>
        <time>2019-04-22T05:29:51Z</time>
      </trkpt>
      <trkpt lat="45.6242" lon="6.86496">
        <ele>1781</ele>
        <time>2019-04-22T05:30:51Z</time>
      </trkpt>
      <trkpt lat="45.62423" lon="6.8651">
        <ele>1781</ele>
        <time>2019-04-22T05:31:51Z</time>
      </trkpt>
      <trkpt lat="45.62422" lon="6.86519">
        <ele>1780</ele>
        <time>2019-04-22T05:32:51Z</time>
      </trkpt>
      <trkpt lat="45.62419" lon="6.86524">
        <ele>1779</ele>
        <time>2019-04-22T05:33:51Z</time>
      </trkpt>
      <trkpt lat="45.62414" lon="6.86526">
        <ele>1777</ele>
        <time>2019-04-22T05:34:51Z</time>
      </trkpt>
      <trkpt lat="45.62407" lon="6.86523">
        <ele>1774</ele>
        <time>2019-04-22T05:35:51Z</time>
      </trkpt>
      <trkpt lat="45.62403" lon="6.86518">
        <ele>1773</ele>
        <time>2019-04-22T05:36:51Z</time>
      </trkpt>
      <trkpt lat="45.62396" lon="6.86502">
        <ele>1771</ele>
        <time>2019-04-22T05:37:51Z</time>
      </trkpt>
      <trkpt lat="45.62386" lon="6.86456">
        <ele>1770</ele>
        <time>2019-04-22T05:38:51Z</time>
      </trkpt>
      <trkpt lat="45.62378" lon="6.86404">
        <ele>1770</ele>
        <time>2019-04-22T05:39:51Z</time>
      </trkpt>
      <trkpt lat="45.62364" lon="6.86304">
        <ele>1768</ele>
        <time>2019-04-22T05:40:51Z</time>
      </trkpt>
      <trkpt lat="45.62344" lon="6.86216">
        <ele>1766</ele>
        <time>2019-04-22T05:41:51Z</time>
      </trkpt>
      <trkpt lat="45.62329" lon="6.86131">
        <ele>1767</ele>
        <time>2019-04-22T05:42:51Z</time>
      </trkpt>
      <trkpt lat="45.62321" lon="6.86101">
        <ele>1766</ele>
        <time>2019-04-22T05:43:51Z</time>
      </trkpt>
      <trkpt lat="45.62309" lon="6.86073">
        <ele>1764</ele>
        <time>2019-04-22T05:44:51Z</time>
      </trkpt>
      <trkpt lat="45.6228" lon="6.86012">
        <ele>1758</ele>
        <time>2019-04-22T05:45:51Z</time>
      </trkpt>
      <trkpt lat="45.62273" lon="6.85991">
        <ele>1757</ele>
        <time>2019-04-22T05:46:51Z</time>
      </trkpt>
      <trkpt lat="45.62269" lon="6.85969">
        <ele>1756</ele>
        <time>2019-04-22T05:47:51Z</time>
      </trkpt>
      <trkpt lat="45.6226" lon="6.85818">
        <ele>1748</ele>
        <time>2019-04-22T05:48:51Z</time>
      </trkpt>
      <trkpt lat="45.6226" lon="6.85792">
        <ele>1747</ele>
        <time>2019-04-22T05:49:51Z</time>
      </trkpt>
      <trkpt lat="45.62262" lon="6.85784">
        <ele>1747</ele>
        <time>2019-04-22T05:50:51Z</time>
      </trkpt>
      <trkpt lat="45.6227" lon="6.85765">
        <ele>1750</ele>
        <time>2019-04-22T05:51:51Z</time>
      </trkpt>
      <trkpt lat="45.62284" lon="6.8574">
        <ele>1754</ele>
        <time>2019-04-22T05:52:51Z</time>
      </trkpt>
      <trkpt lat="45.62291" lon="6.85719">
        <ele>1755</ele>
        <time>2019-04-22T05:53:51Z</time>
      </trkpt>
      <trkpt lat="45.62294" lon="6.85699">
        <ele>1754</ele>
        <time>2019-04-22T05:54:51Z</time>
      </trkpt>
      <trkpt lat="45.62305" lon="6.85568">
        <ele>1746</ele>
        <time>2019-04-22T05:55:51Z</time>
      </trkpt>
      <trkpt lat="45.62306" lon="6.85531">
        <ele>1743</ele>
        <time>2019-04-22T05:56:51Z</time>
      </trkpt>
      <trkpt lat="45.62302" lon="6.85482">
        <ele>1738</ele>
        <time>2019-04-22T05:57:51Z</time>
      </trkpt>
      <trkpt lat="45.62285" lon="6.85358">
        <ele>1732</ele>
        <time>2019-04-22T05:58:51Z</time>
      </trkpt>
      <trkpt lat="45.62284" lon="6.85331">
        <ele>1733</ele>
        <time>2019-04-22T05:59:51Z</time>
      </trkpt>
      <trkpt lat="45.62297" lon="6.85241">
        <ele>1733</ele>
        <time>2019-04-22T06:00:51Z</time>
      </trkpt>
      <trkpt lat="45.62319" lon="6.85168">
        <ele>1730</ele>
        <time>2019-04-22T06:01:51Z</time>
      </trkpt>
      <trkpt lat="45.62333" lon="6.85101">
        <ele>1729</ele>
        <time>2019-04-22T06:02:51Z</time>
      </trkpt>
      <trkpt lat="45.62335" lon="6.85086">
        <ele>1728</ele>
        <time>2019-04-22T06:03:51Z</time>
      </trkpt>
      <trkpt lat="45.62332" lon="6.85076">
        <ele>1726</ele>
        <time>2019-04-22T06:04:51Z</time>
      </trkpt>
      <trkpt lat="45.62326" lon="6.85073">
        <ele>1724</ele>
        <time>2019-04-22T06:05:51Z</time>
      </trkpt>
      <trkpt lat="45.62322" lon="6.85075">
        <ele>1723</ele>
        <time>2019-04-22T06:06:51Z</time>
      </trkpt>
      <trkpt lat="45.62317" lon="6.85081">
        <ele>1721</ele>
        <time>2019-04-22T06:07:51Z</time>
      </trkpt>
      <trkpt lat="45.62314" lon="6.85092">
        <ele>1721</ele>
        <time>2019-04-22T06:08:51Z</time>
      </trkpt>
      <trkpt lat="45.62307" lon="6.85155">
        <ele>1725</ele>
        <time>2019-04-22T06:09:51Z</time>
      </trkpt>
      <trkpt lat="45.62288" lon="6.85214">
        <ele>1726</ele>
        <time>2019-04-22T06:10:51Z</time>
      </trkpt>
      <trkpt lat="45.6227" lon="6.85263">
        <ele>1725</ele>
        <time>2019-04-22T06:11:51Z</time>
      </trkpt>
      <trkpt lat="45.62263" lon="6.85288">
        <ele>1723</ele>
        <time>2019-04-22T06:12:51Z</time>
      </trkpt>
      <trkpt lat="45.62253" lon="6.85354">
        <ele>1719</ele>
        <time>2019-04-22T06:13:51Z</time>
      </trkpt>
      <trkpt lat="45.62253" lon="6.8539">
        <ele>1718</ele>
        <time>2019-04-22T06:14:51Z</time>
      </trkpt>
      <trkpt lat="45.62256" lon="6.85427">
        <ele>1718</ele>
        <time>2019-04-22T06:15:51Z</time>
      </trkpt>
      <trkpt lat="45.62254" lon="6.8545">
        <ele>1718</ele>
        <time>2019-04-22T06:16:51Z</time>
      </trkpt>
      <trkpt lat="45.62247" lon="6.85476">
        <ele>1715</ele>
        <time>2019-04-22T06:17:51Z</time>
      </trkpt>
      <trkpt lat="45.6224" lon="6.85527">
        <ele>1714</ele>
        <time>2019-04-22T06:18:51Z</time>
      </trkpt>
      <trkpt lat="45.62238" lon="6.85536">
        <ele>1713</ele>
        <time>2019-04-22T06:19:51Z</time>
      </trkpt>
      <trkpt lat="45.6223" lon="6.85554">
        <ele>1711</ele>
        <time>2019-04-22T06:20:51Z</time>
      </trkpt>
      <trkpt lat="45.62203" lon="6.85593">
        <ele>1704</ele>
        <time>2019-04-22T06:21:51Z</time>
      </trkpt>
      <trkpt lat="45.62197" lon="6.85611">
        <ele>1703</ele>
        <time>2019-04-22T06:22:51Z</time>
      </trkpt>
      <trkpt lat="45.62193" lon="6.85632">
        <ele>1703</ele>
        <time>2019-04-22T06:23:51Z</time>
      </trkpt>
      <trkpt lat="45.62198" lon="6.85678">
        <ele>1709</ele>
        <time>2019-04-22T06:24:51Z</time>
      </trkpt>
      <trkpt lat="45.62194" lon="6.857">
        <ele>1709</ele>
        <time>2019-04-22T06:25:51Z</time>
      </trkpt>
      <trkpt lat="45.62187" lon="6.85712">
        <ele>1707</ele>
        <time>2019-04-22T06:26:51Z</time>
      </trkpt>
      <trkpt lat="45.62164" lon="6.85738">
        <ele>1700</ele>
        <time>2019-04-22T06:27:51Z</time>
      </trkpt>
      <trkpt lat="45.62149" lon="6.85757">
        <ele>1694</ele>
        <time>2019-04-22T06:28:51Z</time>
      </trkpt>
      <trkpt lat="45.62143" lon="6.85775">
        <ele>1693</ele>
        <time>2019-04-22T06:29:51Z</time>
      </trkpt>
      <trkpt lat="45.62123" lon="6.85907">
        <ele>1695</ele>
        <time>2019-04-22T06:30:51Z</time>
      </trkpt>
      <trkpt lat="45.62117" lon="6.85966">
        <ele>1694</ele>
        <time>2019-04-22T06:31:51Z</time>
      </trkpt>
      <trkpt lat="45.62112" lon="6.85976">
        <ele>1692</ele>
        <time>2019-04-22T06:32:51Z</time>
      </trkpt>
      <trkpt lat="45.62107" lon="6.85979">
        <ele>1691</ele>
        <time>2019-04-22T06:33:51Z</time>
      </trkpt>
      <trkpt lat="45.62102" lon="6.85977">
        <ele>1689</ele>
        <time>2019-04-22T06:34:51Z</time>
      </trkpt>
      <trkpt lat="45.62099" lon="6.8597">
        <ele>1687</ele>
        <time>2019-04-22T06:35:51Z</time>
      </trkpt>
      <trkpt lat="45.62099" lon="6.85962">
        <ele>1687</ele>
        <time>2019-04-22T06:36:51Z</time>
      </trkpt>
      <trkpt lat="45.62105" lon="6.85936">
        <ele>1689</ele>
        <time>2019-04-22T06:37:51Z</time>
      </trkpt>
      <trkpt lat="45.62113" lon="6.85876">
        <ele>1688</ele>
        <time>2019-04-22T06:38:51Z</time>
      </trkpt>
      <trkpt lat="45.62119" lon="6.85777">
        <ele>1681</ele>
        <time>2019-04-22T06:39:51Z</time>
      </trkpt>
      <trkpt lat="45.62125" lon="6.85756">
        <ele>1682</ele>
        <time>2019-04-22T06:40:51Z</time>
      </trkpt>
      <trkpt lat="45.62138" lon="6.85732">
        <ele>1686</ele>
        <time>2019-04-22T06:41:51Z</time>
      </trkpt>
      <trkpt lat="45.62145" lon="6.85713">
        <ele>1688</ele>
        <time>2019-04-22T06:42:51Z</time>
      </trkpt>
      <trkpt lat="45.62145" lon="6.85693">
        <ele>1686</ele>
        <time>2019-04-22T06:43:51Z</time>
      </trkpt>
      <trkpt lat="45.62139" lon="6.85664">
        <ele>1680</ele>
        <time>2019-04-22T06:44:51Z</time>
      </trkpt>
      <trkpt lat="45.6214" lon="6.85636">
        <ele>1679</ele>
        <time>2019-04-22T06:45:51Z</time>
      </trkpt>
      <trkpt lat="45.62169" lon="6.85507">
        <ele>1680</ele>
        <time>2019-04-22T06:46:51Z</time>
      </trkpt>
      <trkpt lat="45.62171" lon="6.85491">
        <ele>1680</ele>
        <time>2019-04-22T06:47:51Z</time>
      </trkpt>
      <trkpt lat="45.6217" lon="6.85477">
        <ele>1680</ele>
        <time>2019-04-22T06:48:51Z</time>
      </trkpt>
      <trkpt lat="45.62167" lon="6.85466">
        <ele>1678</ele>
        <time>2019-04-22T06:49:51Z</time>
      </trkpt>
      <trkpt lat="45.62153" lon="6.85434">
        <ele>1673</ele>
        <time>2019-04-22T06:50:51Z</time>
      </trkpt>
      <trkpt lat="45.62148" lon="6.85408">
        <ele>1671</ele>
        <time>2019-04-22T06:51:51Z</time>
      </trkpt>
      <trkpt lat="45.62145" lon="6.8536">
        <ele>1670</ele>
        <time>2019-04-22T06:52:51Z</time>
      </trkpt>
      <trkpt lat="45.62141" lon="6.85245">
        <ele>1669</ele>
        <time>2019-04-22T06:53:51Z</time>
      </trkpt>
      <trkpt lat="45.62142" lon="6.85229">
        <ele>1668</ele>
        <time>2019-04-22T06:54:51Z</time>
      </trkpt>
      <trkpt lat="45.62153" lon="6.85138">
        <ele>1664</ele>
        <time>2019-04-22T06:55:51Z</time>
      </trkpt>
      <trkpt lat="45.62158" lon="6.85115">
        <ele>1663</ele>
        <time>2019-04-22T06:56:51Z</time>
      </trkpt>
      <trkpt lat="45.62179" lon="6.85051">
        <ele>1665</ele>
        <time>2019-04-22T06:57:51Z</time>
      </trkpt>
      <trkpt lat="45.6218" lon="6.85034">
        <ele>1663</ele>
        <time>2019-04-22T06:58:51Z</time>
      </trkpt>
      <trkpt lat="45.62173" lon="6.84922">
        <ele>1653</ele>
        <time>2019-04-22T06:59:51Z</time>
      </trkpt>
      <trkpt lat="45.62172" lon="6.84891">
        <ele>1651</ele>
        <time>2019-04-22T07:00:51Z</time>
      </trkpt>
      <trkpt lat="45.62177" lon="6.84813">
        <ele>1651</ele>
        <time>2019-04-22T07:01:51Z</time>
      </trkpt>
      <trkpt lat="45.6217" lon="6.84654">
        <ele>1644</ele>
        <time>2019-04-22T07:02:51Z</time>
      </trkpt>
      <trkpt lat="45.62173" lon="6.84636">
        <ele>1642</ele>
        <time>2019-04-22T07:03:51Z</time>
      </trkpt>
      <trkpt lat="45.62179" lon="6.84622">
        <ele>1642</ele>
        <time>2019-04-22T07:04:51Z</time>
      </trkpt>
      <trkpt lat="45.62174" lon="6.8462">
        <ele>1640</ele>
        <time>2019-04-22T07:05:51Z</time>
      </trkpt>
      <trkpt lat="45.62168" lon="6.84622">
        <ele>1639</ele>
        <time>2019-04-22T07:06:51Z</time>
      </trkpt>
      <trkpt lat="45.62165" lon="6.84629">
        <ele>1638</ele>
        <time>2019-04-22T07:07:51Z</time>
      </trkpt>
      <trkpt lat="45.62126" lon="6.84761">
        <ele>1631</ele>
        <time>2019-04-22T07:08:51Z</time>
      </trkpt>
      <trkpt lat="45.62108" lon="6.84809">
        <ele>1625</ele>
        <time>2019-04-22T07:09:51Z</time>
      </trkpt>
      <trkpt lat="45.62098" lon="6.84845">
        <ele>1622</ele>
        <time>2019-04-22T07:10:51Z</time>
      </trkpt>
      <trkpt lat="45.62091" lon="6.84862">
        <ele>1620</ele>
        <time>2019-04-22T07:11:51Z</time>
      </trkpt>
      <trkpt lat="45.62087" lon="6.84881">
        <ele>1618</ele>
        <time>2019-04-22T07:12:51Z</time>
      </trkpt>
      <trkpt lat="45.62086" lon="6.84901">
        <ele>1618</ele>
        <time>2019-04-22T07:13:51Z</time>
      </trkpt>
      <trkpt lat="45.62087" lon="6.84956">
        <ele>1619</ele>
        <time>2019-04-22T07:14:51Z</time>
      </trkpt>
      <trkpt lat="45.62077" lon="6.84995">
        <ele>1615</ele>
        <time>2019-04-22T07:15:51Z</time>
      </trkpt>
      <trkpt lat="45.62077" lon="6.85026">
        <ele>1617</ele>
        <time>2019-04-22T07:16:51Z</time>
      </trkpt>
      <trkpt lat="45.62074" lon="6.85036">
        <ele>1616</ele>
        <time>2019-04-22T07:17:51Z</time>
      </trkpt>
      <trkpt lat="45.62069" lon="6.85044">
        <ele>1615</ele>
        <time>2019-04-22T07:18:51Z</time>
      </trkpt>
      <trkpt lat="45.62061" lon="6.85051">
        <ele>1612</ele>
        <time>2019-04-22T07:19:51Z</time>
      </trkpt>
      <trkpt lat="45.62038" lon="6.8506">
        <ele>1602</ele>
        <time>2019-04-22T07:20:51Z</time>
      </trkpt>
      <trkpt lat="45.62028" lon="6.85067">
        <ele>1597</ele>
        <time>2019-04-22T07:21:51Z</time>
      </trkpt>
      <trkpt lat="45.62024" lon="6.85077">
        <ele>1596</ele>
        <time>2019-04-22T07:22:51Z</time>
      </trkpt>
      <trkpt lat="45.62019" lon="6.85137">
        <ele>1599</ele>
        <time>2019-04-22T07:23:51Z</time>
      </trkpt>
      <trkpt lat="45.62016" lon="6.85151">
        <ele>1599</ele>
        <time>2019-04-22T07:24:51Z</time>
      </trkpt>
      <trkpt lat="45.62004" lon="6.8518">
        <ele>1596</ele>
        <time>2019-04-22T07:25:51Z</time>
      </trkpt>
      <trkpt lat="45.61986" lon="6.85216">
        <ele>1590</ele>
        <time>2019-04-22T07:26:51Z</time>
      </trkpt>
      <trkpt lat="45.61975" lon="6.85246">
        <ele>1587</ele>
        <time>2019-04-22T07:27:51Z</time>
      </trkpt>
      <trkpt lat="45.61967" lon="6.85278">
        <ele>1586</ele>
        <time>2019-04-22T07:28:51Z</time>
      </trkpt>
      <trkpt lat="45.61962" lon="6.85289">
        <ele>1584</ele>
        <time>2019-04-22T07:29:51Z</time>
      </trkpt>
      <trkpt lat="45.6195" lon="6.85339">
        <ele>1581</ele>
        <time>2019-04-22T07:30:51Z</time>
      </trkpt>
      <trkpt lat="45.61942" lon="6.85363">
        <ele>1579</ele>
        <time>2019-04-22T07:31:51Z</time>
      </trkpt>
      <trkpt lat="45.61928" lon="6.85394">
        <ele>1576</ele>
        <time>2019-04-22T07:32:51Z</time>
      </trkpt>
      <trkpt lat="45.61918" lon="6.85408">
        <ele>1573</ele>
        <time>2019-04-22T07:33:51Z</time>
      </trkpt>
      <trkpt lat="45.61909" lon="6.85425">
        <ele>1570</ele>
        <time>2019-04-22T07:34:51Z</time>
      </trkpt>
      <trkpt lat="45.61901" lon="6.85451">
        <ele>1569</ele>
        <time>2019-04-22T07:35:51Z</time>
      </trkpt>
      <trkpt lat="45.61884" lon="6.85535">
        <ele>1565</ele>
        <time>2019-04-22T07:36:51Z</time>
      </trkpt>
      <trkpt lat="45.61879" lon="6.85599">
        <ele>1564</ele>
        <time>2019-04-22T07:37:51Z</time>
      </trkpt>
      <trkpt lat="45.6187" lon="6.85635">
        <ele>1563</ele>
        <time>2019-04-22T07:38:51Z</time>
      </trkpt>
      <trkpt lat="45.61856" lon="6.85654">
        <ele>1559</ele>
        <time>2019-04-22T07:39:51Z</time>
      </trkpt>
      <trkpt lat="45.61826" lon="6.85675">
        <ele>1551</ele>
        <time>2019-04-22T07:40:51Z</time>
      </trkpt>
      <trkpt lat="45.61767" lon="6.85771">
        <ele>1543</ele>
        <time>2019-04-22T07:41:51Z</time>
      </trkpt>
      <trkpt lat="45.61736" lon="6.85808">
        <ele>1538</ele>
        <time>2019-04-22T07:42:51Z</time>
      </trkpt>
      <trkpt lat="45.61721" lon="6.85845">
        <ele>1537</ele>
        <time>2019-04-22T07:43:51Z</time>
      </trkpt>
      <trkpt lat="45.61701" lon="6.85868">
        <ele>1532</ele>
        <time>2019-04-22T07:44:51Z</time>
      </trkpt>
      <trkpt lat="45.61655" lon="6.85949">
        <ele>1522</ele>
        <time>2019-04-22T07:45:51Z</time>
      </trkpt>
      <trkpt lat="45.61645" lon="6.85975">
        <ele>1520</ele>
        <time>2019-04-22T07:46:51Z</time>
      </trkpt>
      <trkpt lat="45.61635" lon="6.86032">
        <ele>1518</ele>
        <time>2019-04-22T07:47:51Z</time>
      </trkpt>
      <trkpt lat="45.61619" lon="6.86077">
        <ele>1512</ele>
        <time>2019-04-22T07:48:51Z</time>
      </trkpt>
      <trkpt lat="45.61611" lon="6.86121">
        <ele>1509</ele>
        <time>2019-04-22T07:49:51Z</time>
      </trkpt>
      <trkpt lat="45.61607" lon="6.86172">
        <ele>1508</ele>
        <time>2019-04-22T07:50:51Z</time>
      </trkpt>
      <trkpt lat="45.61611" lon="6.86205">
        <ele>1510</ele>
        <time>2019-04-22T07:51:51Z</time>
      </trkpt>
      <trkpt lat="45.6161" lon="6.86232">
        <ele>1510</ele>
        <time>2019-04-22T07:52:51Z</time>
      </trkpt>
      <trkpt lat="45.6159" lon="6.86284">
        <ele>1503</ele>
        <time>2019-04-22T07:53:51Z</time>
      </trkpt>
      <trkpt lat="45.61583" lon="6.86291">
        <ele>1501</ele>
        <time>2019-04-22T07:54:51Z</time>
      </trkpt>
      <trkpt lat="45.61576" lon="6.86288">
        <ele>1500</ele>
        <time>2019-04-22T07:55:51Z</time>
      </trkpt>
      <trkpt lat="45.61582" lon="6.86217">
        <ele>1499</ele>
        <time>2019-04-22T07:56:51Z</time>
      </trkpt>
      <trkpt lat="45.61578" lon="6.86182">
        <ele>1498</ele>
        <time>2019-04-22T07:57:51Z</time>
      </trkpt>
      <trkpt lat="45.61557" lon="6.86118">
        <ele>1492</ele>
        <time>2019-04-22T07:58:51Z</time>
      </trkpt>
      <trkpt lat="45.61551" lon="6.86065">
        <ele>1488</ele>
        <time>2019-04-22T07:59:51Z</time>
      </trkpt>
      <trkpt lat="45.6154" lon="6.86013">
        <ele>1482</ele>
        <time>2019-04-22T08:00:51Z</time>
      </trkpt>
      <trkpt lat="45.61533" lon="6.85944">
        <ele>1476</ele>
        <time>2019-04-22T08:01:51Z</time>
      </trkpt>
      <trkpt lat="45.61531" lon="6.85867">
        <ele>1466</ele>
        <time>2019-04-22T08:02:51Z</time>
      </trkpt>
      <trkpt lat="45.61532" lon="6.85853">
        <ele>1465</ele>
        <time>2019-04-22T08:03:51Z</time>
      </trkpt>
      <trkpt lat="45.61534" lon="6.85841">
        <ele>1464</ele>
        <time>2019-04-22T08:04:51Z</time>
      </trkpt>
      <trkpt lat="45.61539" lon="6.85832">
        <ele>1464</ele>
        <time>2019-04-22T08:05:51Z</time>
      </trkpt>
      <trkpt lat="45.61547" lon="6.85829">
        <ele>1467</ele>
        <time>2019-04-22T08:06:51Z</time>
      </trkpt>
      <trkpt lat="45.61554" lon="6.8583">
        <ele>1470</ele>
        <time>2019-04-22T08:07:51Z</time>
      </trkpt>
      <trkpt lat="45.61564" lon="6.85827">
        <ele>1473</ele>
        <time>2019-04-22T08:08:51Z</time>
      </trkpt>
      <trkpt lat="45.6157" lon="6.85823">
        <ele>1475</ele>
        <time>2019-04-22T08:09:51Z</time>
      </trkpt>
      <trkpt lat="45.61577" lon="6.85813">
        <ele>1476</ele>
        <time>2019-04-22T08:10:51Z</time>
      </trkpt>
      <trkpt lat="45.61582" lon="6.85795">
        <ele>1475</ele>
        <time>2019-04-22T08:11:51Z</time>
      </trkpt>
      <trkpt lat="45.61591" lon="6.85747">
        <ele>1470</ele>
        <time>2019-04-22T08:12:51Z</time>
      </trkpt>
      <trkpt lat="45.61595" lon="6.85707">
        <ele>1470</ele>
        <time>2019-04-22T08:13:51Z</time>
      </trkpt>
      <trkpt lat="45.61587" lon="6.85654">
        <ele>1463</ele>
        <time>2019-04-22T08:14:51Z</time>
      </trkpt>
      <trkpt lat="45.6159" lon="6.85617">
        <ele>1460</ele>
        <time>2019-04-22T08:15:51Z</time>
      </trkpt>
      <trkpt lat="45.61617" lon="6.85505">
        <ele>1457</ele>
        <time>2019-04-22T08:16:51Z</time>
      </trkpt>
      <trkpt lat="45.6162" lon="6.85448">
        <ele>1450</ele>
        <time>2019-04-22T08:17:51Z</time>
      </trkpt>
      <trkpt lat="45.6165" lon="6.85344">
        <ele>1443</ele>
        <time>2019-04-22T08:18:51Z</time>
      </trkpt>
      <trkpt lat="45.61672" lon="6.85302">
        <ele>1444</ele>
        <time>2019-04-22T08:19:51Z</time>
      </trkpt>
      <trkpt lat="45.61688" lon="6.85246">
        <ele>1442</ele>
        <time>2019-04-22T08:20:51Z</time>
      </trkpt>
      <trkpt lat="45.61692" lon="6.85195">
        <ele>1440</ele>
        <time>2019-04-22T08:21:51Z</time>
      </trkpt>
      <trkpt lat="45.61689" lon="6.85185">
        <ele>1438</ele>
        <time>2019-04-22T08:22:51Z</time>
      </trkpt>
      <trkpt lat="45.61681" lon="6.85192">
        <ele>1434</ele>
        <time>2019-04-22T08:23:51Z</time>
      </trkpt>
      <trkpt lat="45.61677" lon="6.8523">
        <ele>1435</ele>
        <time>2019-04-22T08:24:51Z</time>
      </trkpt>
      <trkpt lat="45.61661" lon="6.85262">
        <ele>1430</ele>
        <time>2019-04-22T08:25:51Z</time>
      </trkpt>
      <trkpt lat="45.61649" lon="6.853">
        <ele>1432</ele>
        <time>2019-04-22T08:26:51Z</time>
      </trkpt>
      <trkpt lat="45.61608" lon="6.85358">
        <ele>1426</ele>
        <time>2019-04-22T08:27:51Z</time>
      </trkpt>
      <trkpt lat="45.61591" lon="6.85385">
        <ele>1425</ele>
        <time>2019-04-22T08:28:51Z</time>
      </trkpt>
      <trkpt lat="45.61569" lon="6.85397">
        <ele>1419</ele>
        <time>2019-04-22T08:29:51Z</time>
      </trkpt>
      <trkpt lat="45.61472" lon="6.85522">
        <ele>1411</ele>
        <time>2019-04-22T08:30:51Z</time>
      </trkpt>
      <trkpt lat="45.61436" lon="6.85552">
        <ele>1407</ele>
        <time>2019-04-22T08:31:51Z</time>
      </trkpt>
      <trkpt lat="45.61414" lon="6.8558">
        <ele>1405</ele>
        <time>2019-04-22T08:32:51Z</time>
      </trkpt>
      <trkpt lat="45.6141" lon="6.85611">
        <ele>1402</ele>
        <time>2019-04-22T08:33:51Z</time>
      </trkpt>
      <trkpt lat="45.61418" lon="6.85674">
        <ele>1403</ele>
        <time>2019-04-22T08:34:51Z</time>
      </trkpt>
      <trkpt lat="45.61445" lon="6.85754">
        <ele>1408</ele>
        <time>2019-04-22T08:35:51Z</time>
      </trkpt>
      <trkpt lat="45.61434" lon="6.85778">
        <ele>1408</ele>
        <time>2019-04-22T08:36:51Z</time>
      </trkpt>
      <trkpt lat="45.61376" lon="6.85814">
        <ele>1390</ele>
        <time>2019-04-22T08:37:51Z</time>
      </trkpt>
      <trkpt lat="45.61338" lon="6.85877">
        <ele>1379</ele>
        <time>2019-04-22T08:38:51Z</time>
      </trkpt>
      <trkpt lat="45.61326" lon="6.8594">
        <ele>1382</ele>
        <time>2019-04-22T08:39:51Z</time>
      </trkpt>
      <trkpt lat="45.61311" lon="6.85981">
        <ele>1381</ele>
        <time>2019-04-22T08:40:51Z</time>
      </trkpt>
      <trkpt lat="45.61282" lon="6.86025">
        <ele>1372</ele>
        <time>2019-04-22T08:41:51Z</time>
      </trkpt>
      <trkpt lat="45.61252" lon="6.86092">
        <ele>1359</ele>
        <time>2019-04-22T08:42:51Z</time>
      </trkpt>
      <trkpt lat="45.61258" lon="6.86106">
        <ele>1363</ele>
        <time>2019-04-22T08:43:51Z</time>
      </trkpt>
      <trkpt lat="45.61272" lon="6.86158">
        <ele>1373</ele>
        <time>2019-04-22T08:44:51Z</time>
      </trkpt>
      <trkpt lat="45.61277" lon="6.86194">
        <ele>1376</ele>
        <time>2019-04-22T08:45:51Z</time>
      </trkpt>
      <trkpt lat="45.61281" lon="6.86227">
        <ele>1378</ele>
        <time>2019-04-22T08:46:51Z</time>
      </trkpt>
      <trkpt lat="45.61281" lon="6.86253">
        <ele>1377</ele>
        <time>2019-04-22T08:47:51Z</time>
      </trkpt>
      <trkpt lat="45.61278" lon="6.86269">
        <ele>1375</ele>
        <time>2019-04-22T08:48:51Z</time>
      </trkpt>
      <trkpt lat="45.61278" lon="6.86281">
        <ele>1375</ele>
        <time>2019-04-22T08:49:51Z</time>
      </trkpt>
      <trkpt lat="45.61283" lon="6.86305">
        <ele>1379</ele>
        <time>2019-04-22T08:50:51Z</time>
      </trkpt>
      <trkpt lat="45.6132" lon="6.8639">
        <ele>1392</ele>
        <time>2019-04-22T08:51:51Z</time>
      </trkpt>
      <trkpt lat="45.61346" lon="6.86431">
        <ele>1397</ele>
        <time>2019-04-22T08:52:51Z</time>
      </trkpt>
      <trkpt lat="45.61368" lon="6.86459">
        <ele>1400</ele>
        <time>2019-04-22T08:53:51Z</time>
      </trkpt>
      <trkpt lat="45.61379" lon="6.86489">
        <ele>1397</ele>
        <time>2019-04-22T08:54:51Z</time>
      </trkpt>
      <trkpt lat="45.61381" lon="6.86511">
        <ele>1395</ele>
        <time>2019-04-22T08:55:51Z</time>
      </trkpt>
      <trkpt lat="45.61379" lon="6.86532">
        <ele>1393</ele>
        <time>2019-04-22T08:56:51Z</time>
      </trkpt>
      <trkpt lat="45.61375" lon="6.8655">
        <ele>1391</ele>
        <time>2019-04-22T08:57:51Z</time>
      </trkpt>
      <trkpt lat="45.61363" lon="6.86572">
        <ele>1387</ele>
        <time>2019-04-22T08:58:51Z</time>
      </trkpt>
      <trkpt lat="45.61356" lon="6.8658">
        <ele>1385</ele>
        <time>2019-04-22T08:59:51Z</time>
      </trkpt>
      <trkpt lat="45.61212" lon="6.86668">
        <ele>1378</ele>
        <time>2019-04-22T09:00:51Z</time>
      </trkpt>
      <trkpt lat="45.61186" lon="6.86675">
        <ele>1377</ele>
        <time>2019-04-22T09:01:51Z</time>
      </trkpt>
      <trkpt lat="45.61124" lon="6.86688">
        <ele>1372</ele>
        <time>2019-04-22T09:02:51Z</time>
      </trkpt>
      <trkpt lat="45.61096" lon="6.86701">
        <ele>1371</ele>
        <time>2019-04-22T09:03:51Z</time>
      </trkpt>
      <trkpt lat="45.61062" lon="6.8673">
        <ele>1367</ele>
        <time>2019-04-22T09:04:51Z</time>
      </trkpt>
      <trkpt lat="45.61028" lon="6.86774">
        <ele>1365</ele>
        <time>2019-04-22T09:05:51Z</time>
      </trkpt>
      <trkpt lat="45.61002" lon="6.8682">
        <ele>1366</ele>
        <time>2019-04-22T09:06:51Z</time>
      </trkpt>
      <trkpt lat="45.60992" lon="6.86843">
        <ele>1367</ele>
        <time>2019-04-22T09:07:51Z</time>
      </trkpt>
      <trkpt lat="45.60953" lon="6.86897">
        <ele>1366</ele>
        <time>2019-04-22T09:08:51Z</time>
      </trkpt>
      <trkpt lat="45.60921" lon="6.86916">
        <ele>1359</ele>
        <time>2019-04-22T09:09:51Z</time>
      </trkpt>
      <trkpt lat="45.60871" lon="6.86913">
        <ele>1339</ele>
        <time>2019-04-22T09:10:51Z</time>
      </trkpt>
      <trkpt lat="45.60853" lon="6.86919">
        <ele>1334</ele>
        <time>2019-04-22T09:11:51Z</time>
      </trkpt>
      <trkpt lat="45.60818" lon="6.86977">
        <ele>1335</ele>
        <time>2019-04-22T09:12:51Z</time>
      </trkpt>
      <trkpt lat="45.60803" lon="6.87007">
        <ele>1336</ele>
        <time>2019-04-22T09:13:51Z</time>
      </trkpt>
      <trkpt lat="45.60785" lon="6.87036">
        <ele>1337</ele>
        <time>2019-04-22T09:14:51Z</time>
      </trkpt>
      <trkpt lat="45.60766" lon="6.87061">
        <ele>1337</ele>
        <time>2019-04-22T09:15:51Z</time>
      </trkpt>
      <trkpt lat="45.60751" lon="6.87092">
        <ele>1341</ele>
        <time>2019-04-22T09:16:51Z</time>
      </trkpt>
      <trkpt lat="45.60735" lon="6.87115">
        <ele>1341</ele>
        <time>2019-04-22T09:17:51Z</time>
      </trkpt>
      <trkpt lat="45.60716" lon="6.87131">
        <ele>1337</ele>
        <time>2019-04-22T09:18:51Z</time>
      </trkpt>
      <trkpt lat="45.60687" lon="6.87149">
        <ele>1330</ele>
        <time>2019-04-22T09:19:51Z</time>
      </trkpt>
      <trkpt lat="45.60658" lon="6.87184">
        <ele>1329</ele>
        <time>2019-04-22T09:20:51Z</time>
      </trkpt>
      <trkpt lat="45.60629" lon="6.87214">
        <ele>1325</ele>
        <time>2019-04-22T09:21:51Z</time>
      </trkpt>
      <trkpt lat="45.60615" lon="6.87246">
        <ele>1327</ele>
        <time>2019-04-22T09:22:51Z</time>
      </trkpt>
      <trkpt lat="45.60581" lon="6.87295">
        <ele>1318</ele>
        <time>2019-04-22T09:23:51Z</time>
      </trkpt>
      <trkpt lat="45.60558" lon="6.87371">
        <ele>1319</ele>
        <time>2019-04-22T09:24:51Z</time>
      </trkpt>
      <trkpt lat="45.60532" lon="6.87415">
        <ele>1310</ele>
        <time>2019-04-22T09:25:51Z</time>
      </trkpt>
      <trkpt lat="45.60516" lon="6.87463">
        <ele>1302</ele>
        <time>2019-04-22T09:26:51Z</time>
      </trkpt>
      <trkpt lat="45.60512" lon="6.87503">
        <ele>1301</ele>
        <time>2019-04-22T09:27:51Z</time>
      </trkpt>
      <trkpt lat="45.60517" lon="6.87528">
        <ele>1305</ele>
        <time>2019-04-22T09:28:51Z</time>
      </trkpt>
      <trkpt lat="45.60518" lon="6.87573">
        <ele>1307</ele>
        <time>2019-04-22T09:29:51Z</time>
      </trkpt>
      <trkpt lat="45.60505" lon="6.8761">
        <ele>1309</ele>
        <time>2019-04-22T09:30:51Z</time>
      </trkpt>
      <trkpt lat="45.60483" lon="6.87629">
        <ele>1307</ele>
        <time>2019-04-22T09:31:51Z</time>
      </trkpt>
      <trkpt lat="45.60451" lon="6.87647">
        <ele>1301</ele>
        <time>2019-04-22T09:32:51Z</time>
      </trkpt>
      <trkpt lat="45.60395" lon="6.87665">
        <ele>1289</ele>
        <time>2019-04-22T09:33:51Z</time>
      </trkpt>
      <trkpt lat="45.60307" lon="6.87719">
        <ele>1283</ele>
        <time>2019-04-22T09:34:51Z</time>
      </trkpt>
      <trkpt lat="45.60284" lon="6.87719">
        <ele>1273</ele>
        <time>2019-04-22T09:35:51Z</time>
      </trkpt>
      <trkpt lat="45.60265" lon="6.87729">
        <ele>1268</ele>
        <time>2019-04-22T09:36:51Z</time>
      </trkpt>
      <trkpt lat="45.60247" lon="6.8776">
        <ele>1267</ele>
        <time>2019-04-22T09:37:51Z</time>
      </trkpt>
      <trkpt lat="45.60245" lon="6.87813">
        <ele>1267</ele>
        <time>2019-04-22T09:38:51Z</time>
      </trkpt>
      <trkpt lat="45.6025" lon="6.87878">
        <ele>1269</ele>
        <time>2019-04-22T09:39:51Z</time>
      </trkpt>
      <trkpt lat="45.60259" lon="6.87934">
        <ele>1273</ele>
        <time>2019-04-22T09:40:51Z</time>
      </trkpt>
      <trkpt lat="45.60274" lon="6.88012">
        <ele>1283</ele>
        <time>2019-04-22T09:41:51Z</time>
      </trkpt>
      <trkpt lat="45.60277" lon="6.88033">
        <ele>1285</ele>
        <time>2019-04-22T09:42:51Z</time>
      </trkpt>
      <trkpt lat="45.60272" lon="6.88044">
        <ele>1282</ele>
        <time>2019-04-22T09:43:51Z</time>
      </trkpt>
      <trkpt lat="45.60267" lon="6.88048">
        <ele>1279</ele>
        <time>2019-04-22T09:44:51Z</time>
      </trkpt>
      <trkpt lat="45.6026" lon="6.88049">
        <ele>1275</ele>
        <time>2019-04-22T09:45:51Z</time>
      </trkpt>
      <trkpt lat="45.60254" lon="6.88044">
        <ele>1271</ele>
        <time>2019-04-22T09:46:51Z</time>
      </trkpt>
      <trkpt lat="45.6025" lon="6.88034">
        <ele>1268</ele>
        <time>2019-04-22T09:47:51Z</time>
      </trkpt>
      <trkpt lat="45.60249" lon="6.88027">
        <ele>1267</ele>
        <time>2019-04-22T09:48:51Z</time>
      </trkpt>
      <trkpt lat="45.60252" lon="6.8799">
        <ele>1268</ele>
        <time>2019-04-22T09:49:51Z</time>
      </trkpt>
      <trkpt lat="45.60249" lon="6.8798">
        <ele>1267</ele>
        <time>2019-04-22T09:50:51Z</time>
      </trkpt>
      <trkpt lat="45.60244" lon="6.87975">
        <ele>1264</ele>
        <time>2019-04-22T09:51:51Z</time>
      </trkpt>
      <trkpt lat="45.60238" lon="6.87974">
        <ele>1262</ele>
        <time>2019-04-22T09:52:51Z</time>
      </trkpt>
      <trkpt lat="45.60234" lon="6.87976">
        <ele>1260</ele>
        <time>2019-04-22T09:53:51Z</time>
      </trkpt>
      <trkpt lat="45.60229" lon="6.87981">
        <ele>1258</ele>
        <time>2019-04-22T09:54:51Z</time>
      </trkpt>
      <trkpt lat="45.60223" lon="6.88003">
        <ele>1256</ele>
        <time>2019-04-22T09:55:51Z</time>
      </trkpt>
      <trkpt lat="45.60194" lon="6.88129">
        <ele>1254</ele>
        <time>2019-04-22T09:56:51Z</time>
      </trkpt>
      <trkpt lat="45.60185" lon="6.88157">
        <ele>1253</ele>
        <time>2019-04-22T09:57:51Z</time>
      </trkpt>
      <trkpt lat="45.60159" lon="6.88202">
        <ele>1242</ele>
        <time>2019-04-22T09:58:51Z</time>
      </trkpt>
      <trkpt lat="45.60156" lon="6.88215">
        <ele>1240</ele>
        <time>2019-04-22T09:59:51Z</time>
      </trkpt>
      <trkpt lat="45.60153" lon="6.88288">
        <ele>1236</ele>
        <time>2019-04-22T10:00:51Z</time>
      </trkpt>
      <trkpt lat="45.6015" lon="6.88329">
        <ele>1234</ele>
        <time>2019-04-22T10:01:51Z</time>
      </trkpt>
      <trkpt lat="45.60153" lon="6.88429">
        <ele>1233</ele>
        <time>2019-04-22T10:02:51Z</time>
      </trkpt>
      <trkpt lat="45.60137" lon="6.88536">
        <ele>1223</ele>
        <time>2019-04-22T10:03:51Z</time>
      </trkpt>
      <trkpt lat="45.60135" lon="6.88571">
        <ele>1221</ele>
        <time>2019-04-22T10:04:51Z</time>
      </trkpt>
      <trkpt lat="45.60131" lon="6.88592">
        <ele>1219</ele>
        <time>2019-04-22T10:05:51Z</time>
      </trkpt>
      <trkpt lat="45.60132" lon="6.88629">
        <ele>1217</ele>
        <time>2019-04-22T10:06:51Z</time>
      </trkpt>
      <trkpt lat="45.60128" lon="6.88662">
        <ele>1214</ele>
        <time>2019-04-22T10:07:51Z</time>
      </trkpt>
      <trkpt lat="45.6013" lon="6.88681">
        <ele>1214</ele>
        <time>2019-04-22T10:08:51Z</time>
      </trkpt>
      <trkpt lat="45.60144" lon="6.88757">
        <ele>1218</ele>
        <time>2019-04-22T10:09:51Z</time>
      </trkpt>
      <trkpt lat="45.60145" lon="6.88813">
        <ele>1217</ele>
        <time>2019-04-22T10:10:51Z</time>
      </trkpt>
      <trkpt lat="45.60144" lon="6.88825">
        <ele>1217</ele>
        <time>2019-04-22T10:11:51Z</time>
      </trkpt>
      <trkpt lat="45.60135" lon="6.88843">
        <ele>1216</ele>
        <time>2019-04-22T10:12:51Z</time>
      </trkpt>
      <trkpt lat="45.60115" lon="6.88848">
        <ele>1214</ele>
        <time>2019-04-22T10:13:51Z</time>
      </trkpt>
      <trkpt lat="45.60106" lon="6.88847">
        <ele>1213</ele>
        <time>2019-04-22T10:14:51Z</time>
      </trkpt>
      <trkpt lat="45.60086" lon="6.88804">
        <ele>1208</ele>
        <time>2019-04-22T10:15:51Z</time>
      </trkpt>
      <trkpt lat="45.60065" lon="6.88744">
        <ele>1205</ele>
        <time>2019-04-22T10:16:51Z</time>
      </trkpt>
      <trkpt lat="45.60057" lon="6.88731">
        <ele>1203</ele>
        <time>2019-04-22T10:17:51Z</time>
      </trkpt>
      <trkpt lat="45.60041" lon="6.88715">
        <ele>1201</ele>
        <time>2019-04-22T10:18:51Z</time>
      </trkpt>
      <trkpt lat="45.60014" lon="6.88698">
        <ele>1196</ele>
        <time>2019-04-22T10:19:51Z</time>
      </trkpt>
      <trkpt lat="45.60006" lon="6.88696">
        <ele>1195</ele>
        <time>2019-04-22T10:20:51Z</time>
      </trkpt>
      <trkpt lat="45.59998" lon="6.88698">
        <ele>1195</ele>
        <time>2019-04-22T10:21:51Z</time>
      </trkpt>
      <trkpt lat="45.59989" lon="6.88706">
        <ele>1196</ele>
        <time>2019-04-22T10:22:51Z</time>
      </trkpt>
      <trkpt lat="45.59981" lon="6.88727">
        <ele>1199</ele>
        <time>2019-04-22T10:23:51Z</time>
      </trkpt>
      <trkpt lat="45.59974" lon="6.88737">
        <ele>1201</ele>
        <time>2019-04-22T10:24:51Z</time>
      </trkpt>
      <trkpt lat="45.59968" lon="6.88742">
        <ele>1202</ele>
        <time>2019-04-22T10:25:51Z</time>
      </trkpt>
      <trkpt lat="45.59957" lon="6.88745">
        <ele>1203</ele>
        <time>2019-04-22T10:26:51Z</time>
      </trkpt>
      <trkpt lat="45.59905" lon="6.88715">
        <ele>1194</ele>
        <time>2019-04-22T10:27:51Z</time>
      </trkpt>
      <trkpt lat="45.59868" lon="6.887">
        <ele>1184</ele>
        <time>2019-04-22T10:28:51Z</time>
      </trkpt>
      <trkpt lat="45.59853" lon="6.88698">
        <ele>1182</ele>
        <time>2019-04-22T10:29:51Z</time>
      </trkpt>
      <trkpt lat="45.59796" lon="6.8872">
        <ele>1184</ele>
        <time>2019-04-22T10:30:51Z</time>
      </trkpt>
      <trkpt lat="45.59775" lon="6.88719">
        <ele>1183</ele>
        <time>2019-04-22T10:31:51Z</time>
      </trkpt>
      <trkpt lat="45.5975" lon="6.88707">
        <ele>1178</ele>
        <time>2019-04-22T10:32:51Z</time>
      </trkpt>
      <trkpt lat="45.59719" lon="6.88681">
        <ele>1172</ele>
        <time>2019-04-22T10:33:51Z</time>
      </trkpt>
      <trkpt lat="45.59691" lon="6.88661">
        <ele>1168</ele>
        <time>2019-04-22T10:34:51Z</time>
      </trkpt>
      <trkpt lat="45.59657" lon="6.88625">
        <ele>1161</ele>
        <time>2019-04-22T10:35:51Z</time>
      </trkpt>
      <trkpt lat="45.5963" lon="6.886">
        <ele>1157</ele>
        <time>2019-04-22T10:36:51Z</time>
      </trkpt>
      <trkpt lat="45.59623" lon="6.88591">
        <ele>1155</ele>
        <time>2019-04-22T10:37:51Z</time>
      </trkpt>
      <trkpt lat="45.59615" lon="6.8857">
        <ele>1149</ele>
        <time>2019-04-22T10:38:51Z</time>
      </trkpt>
      <trkpt lat="45.59604" lon="6.88557">
        <ele>1146</ele>
        <time>2019-04-22T10:39:51Z</time>
      </trkpt>
      <trkpt lat="45.59574" lon="6.88551">
        <ele>1145</ele>
        <time>2019-04-22T10:40:51Z</time>
      </trkpt>
      <trkpt lat="45.59538" lon="6.88555">
        <ele>1140</ele>
        <time>2019-04-22T10:41:51Z</time>
      </trkpt>
      <trkpt lat="45.59506" lon="6.88569">
        <ele>1139</ele>
        <time>2019-04-22T10:42:51Z</time>
      </trkpt>
      <trkpt lat="45.59477" lon="6.88579">
        <ele>1139</ele>
        <time>2019-04-22T10:43:51Z</time>
      </trkpt>
      <trkpt lat="45.5945" lon="6.88577">
        <ele>1136</ele>
        <time>2019-04-22T10:44:51Z</time>
      </trkpt>
      <trkpt lat="45.59421" lon="6.88568">
        <ele>1129</ele>
        <time>2019-04-22T10:45:51Z</time>
      </trkpt>
      <trkpt lat="45.59396" lon="6.88564">
        <ele>1126</ele>
        <time>2019-04-22T10:46:51Z</time>
      </trkpt>
      <trkpt lat="45.59383" lon="6.88566">
        <ele>1125</ele>
        <time>2019-04-22T10:47:51Z</time>
      </trkpt>
      <trkpt lat="45.59331" lon="6.88588">
        <ele>1128</ele>
        <time>2019-04-22T10:48:51Z</time>
      </trkpt>
      <trkpt lat="45.59314" lon="6.88587">
        <ele>1125</ele>
        <time>2019-04-22T10:49:51Z</time>
      </trkpt>
      <trkpt lat="45.59259" lon="6.88567">
        <ele>1110</ele>
        <time>2019-04-22T10:50:51Z</time>
      </trkpt>
      <trkpt lat="45.59244" lon="6.88564">
        <ele>1106</ele>
        <time>2019-04-22T10:51:51Z</time>
      </trkpt>
      <trkpt lat="45.5923" lon="6.88569">
        <ele>1105</ele>
        <time>2019-04-22T10:52:51Z</time>
      </trkpt>
      <trkpt lat="45.59203" lon="6.88585">
        <ele>1105</ele>
        <time>2019-04-22T10:53:51Z</time>
      </trkpt>
      <trkpt lat="45.59154" lon="6.88598">
        <ele>1100</ele>
        <time>2019-04-22T10:54:51Z</time>
      </trkpt>
      <trkpt lat="45.59075" lon="6.88637">
        <ele>1098</ele>
        <time>2019-04-22T10:55:51Z</time>
      </trkpt>
      <trkpt lat="45.59052" lon="6.88647">
        <ele>1102</ele>
        <time>2019-04-22T10:56:51Z</time>
      </trkpt>
      <trkpt lat="45.59042" lon="6.88645">
        <ele>1102</ele>
        <time>2019-04-22T10:57:51Z</time>
      </trkpt>
      <trkpt lat="45.59035" lon="6.88639">
        <ele>1101</ele>
        <time>2019-04-22T10:58:51Z</time>
      </trkpt>
      <trkpt lat="45.59029" lon="6.88629">
        <ele>1099</ele>
        <time>2019-04-22T10:59:51Z</time>
      </trkpt>
      <trkpt lat="45.5901" lon="6.88557">
        <ele>1084</ele>
        <time>2019-04-22T11:00:51Z</time>
      </trkpt>
      <trkpt lat="45.59001" lon="6.88545">
        <ele>1081</ele>
        <time>2019-04-22T11:01:51Z</time>
      </trkpt>
      <trkpt lat="45.58992" lon="6.88538">
        <ele>1080</ele>
        <time>2019-04-22T11:02:51Z</time>
      </trkpt>
      <trkpt lat="45.58958" lon="6.88531">
        <ele>1082</ele>
        <time>2019-04-22T11:03:51Z</time>
      </trkpt>
      <trkpt lat="45.58951" lon="6.88519">
        <ele>1080</ele>
        <time>2019-04-22T11:04:51Z</time>
      </trkpt>
      <trkpt lat="45.58938" lon="6.8847">
        <ele>1071</ele>
        <time>2019-04-22T11:05:51Z</time>
      </trkpt>
      <trkpt lat="45.58925" lon="6.88452">
        <ele>1070</ele>
        <time>2019-04-22T11:06:51Z</time>
      </trkpt>
      <trkpt lat="45.58906" lon="6.88434">
        <ele>1068</ele>
        <time>2019-04-22T11:07:51Z</time>
      </trkpt>
      <trkpt lat="45.58882" lon="6.88419">
        <ele>1065</ele>
        <time>2019-04-22T11:08:51Z</time>
      </trkpt>
      <trkpt lat="45.58853" lon="6.8841">
        <ele>1064</ele>
        <time>2019-04-22T11:09:51Z</time>
      </trkpt>
      <trkpt lat="45.58847" lon="6.88439">
        <ele>1069</ele>
        <time>2019-04-22T11:10:51Z</time>
      </trkpt>
      <trkpt lat="45.58831" lon="6.88459">
        <ele>1072</ele>
        <time>2019-04-22T11:11:51Z</time>
      </trkpt>
      <trkpt lat="45.58783" lon="6.88494">
        <ele>1080</ele>
        <time>2019-04-22T11:12:51Z</time>
      </trkpt>
      <trkpt lat="45.58765" lon="6.88496">
        <ele>1081</ele>
        <time>2019-04-22T11:13:51Z</time>
      </trkpt>
      <trkpt lat="45.58651" lon="6.88442">
        <ele>1083</ele>
        <time>2019-04-22T11:14:51Z</time>
      </trkpt>
      <trkpt lat="45.5863" lon="6.88439">
        <ele>1084</ele>
        <time>2019-04-22T11:15:51Z</time>
      </trkpt>
      <trkpt lat="45.58613" lon="6.88438">
        <ele>1084</ele>
        <time>2019-04-22T11:16:51Z</time>
      </trkpt>
      <trkpt lat="45.58599" lon="6.88446">
        <ele>1086</ele>
        <time>2019-04-22T11:17:51Z</time>
      </trkpt>
      <trkpt lat="45.58532" lon="6.88501">
        <ele>1098</ele>
        <time>2019-04-22T11:18:51Z</time>
      </trkpt>
      <trkpt lat="45.58506" lon="6.88513">
        <ele>1103</ele>
        <time>2019-04-22T11:19:51Z</time>
      </trkpt>
      <trkpt lat="45.58479" lon="6.88503">
        <ele>1103</ele>
        <time>2019-04-22T11:20:51Z</time>
      </trkpt>
      <trkpt lat="45.58394" lon="6.88489">
        <ele>1113</ele>
        <time>2019-04-22T11:21:51Z</time>
      </trkpt>
      <trkpt lat="45.5834" lon="6.88471">
        <ele>1123</ele>
        <time>2019-04-22T11:22:51Z</time>
      </trkpt>
      <trkpt lat="45.58289" lon="6.88435">
        <ele>1121</ele>
        <time>2019-04-22T11:23:51Z</time>
      </trkpt>
      <trkpt lat="45.58257" lon="6.88423">
        <ele>1126</ele>
        <time>2019-04-22T11:24:51Z</time>
      </trkpt>
      <trkpt lat="45.58205" lon="6.88419">
        <ele>1131</ele>
        <time>2019-04-22T11:25:51Z</time>
      </trkpt>
      <trkpt lat="45.58129" lon="6.88396">
        <ele>1135</ele>
        <time>2019-04-22T11:26:51Z</time>
      </trkpt>
      <trkpt lat="45.58075" lon="6.88387">
        <ele>1141</ele>
        <time>2019-04-22T11:27:51Z</time>
      </trkpt>
      <trkpt lat="45.58042" lon="6.88385">
        <ele>1143</ele>
        <time>2019-04-22T11:28:51Z</time>
      </trkpt>
      <trkpt lat="45.58015" lon="6.88392">
        <ele>1147</ele>
        <time>2019-04-22T11:29:51Z</time>
      </trkpt>
      <trkpt lat="45.57984" lon="6.88396">
        <ele>1156</ele>
        <time>2019-04-22T11:30:51Z</time>
      </trkpt>
      <trkpt lat="45.5796" lon="6.8839">
        <ele>1164</ele>
        <time>2019-04-22T11:31:51Z</time>
      </trkpt>
      <trkpt lat="45.57909" lon="6.88344">
        <ele>1165</ele>
        <time>2019-04-22T11:32:51Z</time>
      </trkpt>
      <trkpt lat="45.57869" lon="6.8828">
        <ele>1163</ele>
        <time>2019-04-22T11:33:51Z</time>
      </trkpt>
      <trkpt lat="45.57859" lon="6.88256">
        <ele>1158</ele>
        <time>2019-04-22T11:34:51Z</time>
      </trkpt>
      <trkpt lat="45.57857" lon="6.88232">
        <ele>1150</ele>
        <time>2019-04-22T11:35:51Z</time>
      </trkpt>
      <trkpt lat="45.57848" lon="6.88222">
        <ele>1150</ele>
        <time>2019-04-22T11:36:51Z</time>
      </trkpt>
      <trkpt lat="45.5784" lon="6.88222">
        <ele>1152</ele>
        <time>2019-04-22T11:37:51Z</time>
      </trkpt>
      <trkpt lat="45.57833" lon="6.88229">
        <ele>1157</ele>
        <time>2019-04-22T11:38:51Z</time>
      </trkpt>
      <trkpt lat="45.57831" lon="6.88245">
        <ele>1163</ele>
        <time>2019-04-22T11:39:51Z</time>
      </trkpt>
      <trkpt lat="45.57842" lon="6.88266">
        <ele>1168</ele>
        <time>2019-04-22T11:40:51Z</time>
      </trkpt>
      <trkpt lat="45.57918" lon="6.8839">
        <ele>1181</ele>
        <time>2019-04-22T11:41:51Z</time>
      </trkpt>
      <trkpt lat="45.57952" lon="6.88436">
        <ele>1184</ele>
        <time>2019-04-22T11:42:51Z</time>
      </trkpt>
      <trkpt lat="45.57967" lon="6.88445">
        <ele>1179</ele>
        <time>2019-04-22T11:43:51Z</time>
      </trkpt>
      <trkpt lat="45.57995" lon="6.88455">
        <ele>1169</ele>
        <time>2019-04-22T11:44:51Z</time>
      </trkpt>
      <trkpt lat="45.57999" lon="6.88468">
        <ele>1171</ele>
        <time>2019-04-22T11:45:51Z</time>
      </trkpt>
      <trkpt lat="45.57998" lon="6.8848">
        <ele>1175</ele>
        <time>2019-04-22T11:46:51Z</time>
      </trkpt>
      <trkpt lat="45.5799" lon="6.88486">
        <ele>1181</ele>
        <time>2019-04-22T11:47:51Z</time>
      </trkpt>
      <trkpt lat="45.57979" lon="6.88484">
        <ele>1186</ele>
        <time>2019-04-22T11:48:51Z</time>
      </trkpt>
      <trkpt lat="45.5795" lon="6.88465">
        <ele>1195</ele>
        <time>2019-04-22T11:49:51Z</time>
      </trkpt>
      <trkpt lat="45.57927" lon="6.88432">
        <ele>1194</ele>
        <time>2019-04-22T11:50:51Z</time>
      </trkpt>
      <trkpt lat="45.57852" lon="6.88336">
        <ele>1192</ele>
        <time>2019-04-22T11:51:51Z</time>
      </trkpt>
      <trkpt lat="45.57823" lon="6.88308">
        <ele>1192</ele>
        <time>2019-04-22T11:52:51Z</time>
      </trkpt>
      <trkpt lat="45.57786" lon="6.88295">
        <ele>1194</ele>
        <time>2019-04-22T11:53:51Z</time>
      </trkpt>
      <trkpt lat="45.57735" lon="6.88291">
        <ele>1200</ele>
        <time>2019-04-22T11:54:51Z</time>
      </trkpt>
      <trkpt lat="45.57688" lon="6.88316">
        <ele>1204</ele>
        <time>2019-04-22T11:55:51Z</time>
      </trkpt>
      <trkpt lat="45.57643" lon="6.88356">
        <ele>1209</ele>
        <time>2019-04-22T11:56:51Z</time>
      </trkpt>
      <trkpt lat="45.57625" lon="6.88401">
        <ele>1218</ele>
        <time>2019-04-22T11:57:51Z</time>
      </trkpt>
      <trkpt lat="45.57597" lon="6.88424">
        <ele>1222</ele>
        <time>2019-04-22T11:58:51Z</time>
      </trkpt>
      <trkpt lat="45.57564" lon="6.88438">
        <ele>1226</ele>
        <time>2019-04-22T11:59:51Z</time>
      </trkpt>
      <trkpt lat="45.57533" lon="6.88441">
        <ele>1227</ele>
        <time>2019-04-22T12:00:51Z</time>
      </trkpt>
      <trkpt lat="45.57487" lon="6.8843">
        <ele>1225</ele>
        <time>2019-04-22T12:01:51Z</time>
      </trkpt>
      <trkpt lat="45.57476" lon="6.88431">
        <ele>1226</ele>
        <time>2019-04-22T12:02:51Z</time>
      </trkpt>
      <trkpt lat="45.57454" lon="6.88439">
        <ele>1228</ele>
        <time>2019-04-22T12:03:51Z</time>
      </trkpt>
      <trkpt lat="45.57439" lon="6.88448">
        <ele>1230</ele>
        <time>2019-04-22T12:04:51Z</time>
      </trkpt>
      <trkpt lat="45.57412" lon="6.88474">
        <ele>1234</ele>
        <time>2019-04-22T12:05:51Z</time>
      </trkpt>
      <trkpt lat="45.57379" lon="6.8851">
        <ele>1239</ele>
        <time>2019-04-22T12:06:51Z</time>
      </trkpt>
      <trkpt lat="45.57362" lon="6.88523">
        <ele>1241</ele>
        <time>2019-04-22T12:07:51Z</time>
      </trkpt>
      <trkpt lat="45.57325" lon="6.8854">
        <ele>1242</ele>
        <time>2019-04-22T12:08:51Z</time>
      </trkpt>
      <trkpt lat="45.57307" lon="6.8857">
        <ele>1246</ele>
        <time>2019-04-22T12:09:51Z</time>
      </trkpt>
      <trkpt lat="45.57292" lon="6.886">
        <ele>1250</ele>
        <time>2019-04-22T12:10:51Z</time>
      </trkpt>
      <trkpt lat="45.57268" lon="6.88621">
        <ele>1254</ele>
        <time>2019-04-22T12:11:51Z</time>
      </trkpt>
      <trkpt lat="45.57186" lon="6.88641">
        <ele>1257</ele>
        <time>2019-04-22T12:12:51Z</time>
      </trkpt>
      <trkpt lat="45.57135" lon="6.88658">
        <ele>1255</ele>
        <time>2019-04-22T12:13:51Z</time>
      </trkpt>
      <trkpt lat="45.57081" lon="6.88689">
        <ele>1258</ele>
        <time>2019-04-22T12:14:51Z</time>
      </trkpt>
      <trkpt lat="45.57041" lon="6.88717">
        <ele>1254</ele>
        <time>2019-04-22T12:15:51Z</time>
      </trkpt>
      <trkpt lat="45.57007" lon="6.88756">
        <ele>1256</ele>
        <time>2019-04-22T12:16:51Z</time>
      </trkpt>
      <trkpt lat="45.56956" lon="6.8882">
        <ele>1271</ele>
        <time>2019-04-22T12:17:51Z</time>
      </trkpt>
      <trkpt lat="45.56937" lon="6.88841">
        <ele>1276</ele>
        <time>2019-04-22T12:18:51Z</time>
      </trkpt>
      <trkpt lat="45.56915" lon="6.88859">
        <ele>1279</ele>
        <time>2019-04-22T12:19:51Z</time>
      </trkpt>
      <trkpt lat="45.56769" lon="6.88937">
        <ele>1290</ele>
        <time>2019-04-22T12:20:51Z</time>
      </trkpt>
      <trkpt lat="45.56757" lon="6.8894">
        <ele>1289</ele>
        <time>2019-04-22T12:21:51Z</time>
      </trkpt>
      <trkpt lat="45.56709" lon="6.88935">
        <ele>1276</ele>
        <time>2019-04-22T12:22:51Z</time>
      </trkpt>
      <trkpt lat="45.56699" lon="6.88936">
        <ele>1274</ele>
        <time>2019-04-22T12:23:51Z</time>
      </trkpt>
      <trkpt lat="45.56692" lon="6.88941">
        <ele>1275</ele>
        <time>2019-04-22T12:24:51Z</time>
      </trkpt>
      <trkpt lat="45.5668" lon="6.88952">
        <ele>1278</ele>
        <time>2019-04-22T12:25:51Z</time>
      </trkpt>
      <trkpt lat="45.56651" lon="6.88998">
        <ele>1290</ele>
        <time>2019-04-22T12:26:51Z</time>
      </trkpt>
      <trkpt lat="45.56605" lon="6.8906">
        <ele>1300</ele>
        <time>2019-04-22T12:27:51Z</time>
      </trkpt>
      <trkpt lat="45.56587" lon="6.89081">
        <ele>1306</ele>
        <time>2019-04-22T12:28:51Z</time>
      </trkpt>
      <trkpt lat="45.56546" lon="6.89112">
        <ele>1309</ele>
        <time>2019-04-22T12:29:51Z</time>
      </trkpt>
      <trkpt lat="45.56512" lon="6.89131">
        <ele>1309</ele>
        <time>2019-04-22T12:30:51Z</time>
      </trkpt>
      <trkpt lat="45.56497" lon="6.89144">
        <ele>1312</ele>
        <time>2019-04-22T12:31:51Z</time>
      </trkpt>
      <trkpt lat="45.5647" lon="6.89168">
        <ele>1315</ele>
        <time>2019-04-22T12:32:51Z</time>
      </trkpt>
      <trkpt lat="45.56397" lon="6.89247">
        <ele>1337</ele>
        <time>2019-04-22T12:33:51Z</time>
      </trkpt>
      <trkpt lat="45.56381" lon="6.89259">
        <ele>1340</ele>
        <time>2019-04-22T12:34:51Z</time>
      </trkpt>
      <trkpt lat="45.56364" lon="6.89265">
        <ele>1339</ele>
        <time>2019-04-22T12:35:51Z</time>
      </trkpt>
      <trkpt lat="45.56316" lon="6.89277">
        <ele>1335</ele>
        <time>2019-04-22T12:36:51Z</time>
      </trkpt>
      <trkpt lat="45.56298" lon="6.89284">
        <ele>1336</ele>
        <time>2019-04-22T12:37:51Z</time>
      </trkpt>
      <trkpt lat="45.56252" lon="6.8932">
        <ele>1344</ele>
        <time>2019-04-22T12:38:51Z</time>
      </trkpt>
      <trkpt lat="45.56137" lon="6.89422">
        <ele>1345</ele>
        <time>2019-04-22T12:39:51Z</time>
      </trkpt>
      <trkpt lat="45.56112" lon="6.89438">
        <ele>1349</ele>
        <time>2019-04-22T12:40:51Z</time>
      </trkpt>
      <trkpt lat="45.56087" lon="6.89449">
        <ele>1349</ele>
        <time>2019-04-22T12:41:51Z</time>
      </trkpt>
      <trkpt lat="45.56057" lon="6.89458">
        <ele>1345</ele>
        <time>2019-04-22T12:42:51Z</time>
      </trkpt>
      <trkpt lat="45.5602" lon="6.89463">
        <ele>1338</ele>
        <time>2019-04-22T12:43:51Z</time>
      </trkpt>
      <trkpt lat="45.55995" lon="6.8947">
        <ele>1334</ele>
        <time>2019-04-22T12:44:51Z</time>
      </trkpt>
      <trkpt lat="45.55983" lon="6.89478">
        <ele>1333</ele>
        <time>2019-04-22T12:45:51Z</time>
      </trkpt>
      <trkpt lat="45.55969" lon="6.89494">
        <ele>1332</ele>
        <time>2019-04-22T12:46:51Z</time>
      </trkpt>
      <trkpt lat="45.55958" lon="6.89516">
        <ele>1333</ele>
        <time>2019-04-22T12:47:51Z</time>
      </trkpt>
      <trkpt lat="45.55923" lon="6.89614">
        <ele>1342</ele>
        <time>2019-04-22T12:48:51Z</time>
      </trkpt>
      <trkpt lat="45.55881" lon="6.89684">
        <ele>1345</ele>
        <time>2019-04-22T12:49:51Z</time>
      </trkpt>
      <trkpt lat="45.55866" lon="6.89707">
        <ele>1346</ele>
        <time>2019-04-22T12:50:51Z</time>
      </trkpt>
      <trkpt lat="45.55852" lon="6.89723">
        <ele>1344</ele>
        <time>2019-04-22T12:51:51Z</time>
      </trkpt>
      <trkpt lat="45.55838" lon="6.89734">
        <ele>1341</ele>
        <time>2019-04-22T12:52:51Z</time>
      </trkpt>
      <trkpt lat="45.55827" lon="6.89744">
        <ele>1339</ele>
        <time>2019-04-22T12:53:51Z</time>
      </trkpt>
      <trkpt lat="45.55819" lon="6.89758">
        <ele>1341</ele>
        <time>2019-04-22T12:54:51Z</time>
      </trkpt>
      <trkpt lat="45.55799" lon="6.89806">
        <ele>1350</ele>
        <time>2019-04-22T12:55:51Z</time>
      </trkpt>
      <trkpt lat="45.5578" lon="6.89834">
        <ele>1354</ele>
        <time>2019-04-22T12:56:51Z</time>
      </trkpt>
      <trkpt lat="45.5574" lon="6.89884">
        <ele>1352</ele>
        <time>2019-04-22T12:57:51Z</time>
      </trkpt>
      <trkpt lat="45.55731" lon="6.89899">
        <ele>1352</ele>
        <time>2019-04-22T12:58:51Z</time>
      </trkpt>
      <trkpt lat="45.55725" lon="6.89913">
        <ele>1352</ele>
        <time>2019-04-22T12:59:51Z</time>
      </trkpt>
      <trkpt lat="45.5571" lon="6.89937">
        <ele>1354</ele>
        <time>2019-04-22T13:00:51Z</time>
      </trkpt>
      <trkpt lat="45.55674" lon="6.89981">
        <ele>1353</ele>
        <time>2019-04-22T13:01:51Z</time>
      </trkpt>
      <trkpt lat="45.55604" lon="6.90081">
        <ele>1371</ele>
        <time>2019-04-22T13:02:51Z</time>
      </trkpt>
      <trkpt lat="45.55584" lon="6.90099">
        <ele>1378</ele>
        <time>2019-04-22T13:03:51Z</time>
      </trkpt>
      <trkpt lat="45.55562" lon="6.90114">
        <ele>1383</ele>
        <time>2019-04-22T13:04:51Z</time>
      </trkpt>
      <trkpt lat="45.5553" lon="6.90125">
        <ele>1377</ele>
        <time>2019-04-22T13:05:51Z</time>
      </trkpt>
      <trkpt lat="45.55459" lon="6.90158">
        <ele>1369</ele>
        <time>2019-04-22T13:06:51Z</time>
      </trkpt>
      <trkpt lat="45.55434" lon="6.90164">
        <ele>1366</ele>
        <time>2019-04-22T13:07:51Z</time>
      </trkpt>
      <trkpt lat="45.55334" lon="6.90159">
        <ele>1382</ele>
        <time>2019-04-22T13:08:51Z</time>
      </trkpt>
      <trkpt lat="45.55303" lon="6.90151">
        <ele>1375</ele>
        <time>2019-04-22T13:09:51Z</time>
      </trkpt>
      <trkpt lat="45.55286" lon="6.90149">
        <ele>1373</ele>
        <time>2019-04-22T13:10:51Z</time>
      </trkpt>
      <trkpt lat="45.55269" lon="6.90153">
        <ele>1374</ele>
        <time>2019-04-22T13:11:51Z</time>
      </trkpt>
      <trkpt lat="45.55254" lon="6.9016">
        <ele>1376</ele>
        <time>2019-04-22T13:12:51Z</time>
      </trkpt>
      <trkpt lat="45.55091" lon="6.90283">
        <ele>1392</ele>
        <time>2019-04-22T13:13:51Z</time>
      </trkpt>
      <trkpt lat="45.55065" lon="6.90308">
        <ele>1393</ele>
        <time>2019-04-22T13:14:51Z</time>
      </trkpt>
      <trkpt lat="45.55035" lon="6.90346">
        <ele>1397</ele>
        <time>2019-04-22T13:15:51Z</time>
      </trkpt>
      <trkpt lat="45.55005" lon="6.90382">
        <ele>1397</ele>
        <time>2019-04-22T13:16:51Z</time>
      </trkpt>
      <trkpt lat="45.54976" lon="6.90425">
        <ele>1400</ele>
        <time>2019-04-22T13:17:51Z</time>
      </trkpt>
      <trkpt lat="45.54863" lon="6.90617">
        <ele>1416</ele>
        <time>2019-04-22T13:18:51Z</time>
      </trkpt>
      <trkpt lat="45.54843" lon="6.9064">
        <ele>1418</ele>
        <time>2019-04-22T13:19:51Z</time>
      </trkpt>
      <trkpt lat="45.54759" lon="6.90705">
        <ele>1423</ele>
        <time>2019-04-22T13:20:51Z</time>
      </trkpt>
      <trkpt lat="45.54724" lon="6.90727">
        <ele>1426</ele>
        <time>2019-04-22T13:21:51Z</time>
      </trkpt>
      <trkpt lat="45.54699" lon="6.90738">
        <ele>1426</ele>
        <time>2019-04-22T13:22:51Z</time>
      </trkpt>
      <trkpt lat="45.54627" lon="6.90759">
        <ele>1419</ele>
        <time>2019-04-22T13:23:51Z</time>
      </trkpt>
      <trkpt lat="45.54576" lon="6.90781">
        <ele>1419</ele>
        <time>2019-04-22T13:24:51Z</time>
      </trkpt>
      <trkpt lat="45.54531" lon="6.90794">
        <ele>1418</ele>
        <time>2019-04-22T13:25:51Z</time>
      </trkpt>
      <trkpt lat="45.54488" lon="6.90819">
        <ele>1423</ele>
        <time>2019-04-22T13:26:51Z</time>
      </trkpt>
      <trkpt lat="45.54462" lon="6.90838">
        <ele>1427</ele>
        <time>2019-04-22T13:27:51Z</time>
      </trkpt>
      <trkpt lat="45.54435" lon="6.90853">
        <ele>1432</ele>
        <time>2019-04-22T13:28:51Z</time>
      </trkpt>
      <trkpt lat="45.54375" lon="6.90878">
        <ele>1432</ele>
        <time>2019-04-22T13:29:51Z</time>
      </trkpt>
      <trkpt lat="45.54354" lon="6.9089">
        <ele>1432</ele>
        <time>2019-04-22T13:30:51Z</time>
      </trkpt>
      <trkpt lat="45.54319" lon="6.90916">
        <ele>1436</ele>
        <time>2019-04-22T13:31:51Z</time>
      </trkpt>
      <trkpt lat="45.54275" lon="6.90953">
        <ele>1444</ele>
        <time>2019-04-22T13:32:51Z</time>
      </trkpt>
      <trkpt lat="45.54246" lon="6.90981">
        <ele>1447</ele>
        <time>2019-04-22T13:33:51Z</time>
      </trkpt>
      <trkpt lat="45.54177" lon="6.91059">
        <ele>1456</ele>
        <time>2019-04-22T13:34:51Z</time>
      </trkpt>
      <trkpt lat="45.54157" lon="6.91073">
        <ele>1457</ele>
        <time>2019-04-22T13:35:51Z</time>
      </trkpt>
      <trkpt lat="45.54126" lon="6.91091">
        <ele>1463</ele>
        <time>2019-04-22T13:36:51Z</time>
      </trkpt>
      <trkpt lat="45.54105" lon="6.911">
        <ele>1467</ele>
        <time>2019-04-22T13:37:51Z</time>
      </trkpt>
      <trkpt lat="45.54083" lon="6.91101">
        <ele>1466</ele>
        <time>2019-04-22T13:38:51Z</time>
      </trkpt>
      <trkpt lat="45.54067" lon="6.91098">
        <ele>1464</ele>
        <time>2019-04-22T13:39:51Z</time>
      </trkpt>
      <trkpt lat="45.54047" lon="6.91088">
        <ele>1457</ele>
        <time>2019-04-22T13:40:51Z</time>
      </trkpt>
      <trkpt lat="45.54028" lon="6.91082">
        <ele>1453</ele>
        <time>2019-04-22T13:41:51Z</time>
      </trkpt>
      <trkpt lat="45.54006" lon="6.91088">
        <ele>1456</ele>
        <time>2019-04-22T13:42:51Z</time>
      </trkpt>
      <trkpt lat="45.53988" lon="6.91101">
        <ele>1462</ele>
        <time>2019-04-22T13:43:51Z</time>
      </trkpt>
      <trkpt lat="45.53949" lon="6.91125">
        <ele>1470</ele>
        <time>2019-04-22T13:44:51Z</time>
      </trkpt>
      <trkpt lat="45.5392" lon="6.91148">
        <ele>1481</ele>
        <time>2019-04-22T13:45:51Z</time>
      </trkpt>
      <trkpt lat="45.53903" lon="6.91149">
        <ele>1479</ele>
        <time>2019-04-22T13:46:51Z</time>
      </trkpt>
      <trkpt lat="45.53863" lon="6.91142">
        <ele>1469</ele>
        <time>2019-04-22T13:47:51Z</time>
      </trkpt>
      <trkpt lat="45.5384" lon="6.91148">
        <ele>1470</ele>
        <time>2019-04-22T13:48:51Z</time>
      </trkpt>
      <trkpt lat="45.53803" lon="6.91167">
        <ele>1472</ele>
        <time>2019-04-22T13:49:51Z</time>
      </trkpt>
      <trkpt lat="45.5378" lon="6.91185">
        <ele>1471</ele>
        <time>2019-04-22T13:50:51Z</time>
      </trkpt>
      <trkpt lat="45.53704" lon="6.91278">
        <ele>1473</ele>
        <time>2019-04-22T13:51:51Z</time>
      </trkpt>
      <trkpt lat="45.53689" lon="6.913">
        <ele>1473</ele>
        <time>2019-04-22T13:52:51Z</time>
      </trkpt>
      <trkpt lat="45.5368" lon="6.91323">
        <ele>1477</ele>
        <time>2019-04-22T13:53:51Z</time>
      </trkpt>
      <trkpt lat="45.53656" lon="6.91412">
        <ele>1489</ele>
        <time>2019-04-22T13:54:51Z</time>
      </trkpt>
      <trkpt lat="45.53648" lon="6.91424">
        <ele>1493</ele>
        <time>2019-04-22T13:55:51Z</time>
      </trkpt>
      <trkpt lat="45.5364" lon="6.91434">
        <ele>1497</ele>
        <time>2019-04-22T13:56:51Z</time>
      </trkpt>
      <trkpt lat="45.53629" lon="6.91438">
        <ele>1499</ele>
        <time>2019-04-22T13:57:51Z</time>
      </trkpt>
      <trkpt lat="45.53617" lon="6.91439">
        <ele>1499</ele>
        <time>2019-04-22T13:58:51Z</time>
      </trkpt>
      <trkpt lat="45.53581" lon="6.91429">
        <ele>1491</ele>
        <time>2019-04-22T13:59:51Z</time>
      </trkpt>
      <trkpt lat="45.53566" lon="6.91432">
        <ele>1492</ele>
        <time>2019-04-22T14:00:51Z</time>
      </trkpt>
      <trkpt lat="45.53515" lon="6.91462">
        <ele>1501</ele>
        <time>2019-04-22T14:01:51Z</time>
      </trkpt>
      <trkpt lat="45.53504" lon="6.91461">
        <ele>1499</ele>
        <time>2019-04-22T14:02:51Z</time>
      </trkpt>
      <trkpt lat="45.53485" lon="6.91456">
        <ele>1495</ele>
        <time>2019-04-22T14:03:51Z</time>
      </trkpt>
      <trkpt lat="45.53464" lon="6.91459">
        <ele>1495</ele>
        <time>2019-04-22T14:04:51Z</time>
      </trkpt>
      <trkpt lat="45.534" lon="6.91486">
        <ele>1507</ele>
        <time>2019-04-22T14:05:51Z</time>
      </trkpt>
      <trkpt lat="45.53375" lon="6.91495">
        <ele>1513</ele>
        <time>2019-04-22T14:06:51Z</time>
      </trkpt>
      <trkpt lat="45.53329" lon="6.915">
        <ele>1518</ele>
        <time>2019-04-22T14:07:51Z</time>
      </trkpt>
      <trkpt lat="45.53235" lon="6.91516">
        <ele>1517</ele>
        <time>2019-04-22T14:08:51Z</time>
      </trkpt>
      <trkpt lat="45.53203" lon="6.91529">
        <ele>1520</ele>
        <time>2019-04-22T14:09:51Z</time>
      </trkpt>
      <trkpt lat="45.53195" lon="6.9154">
        <ele>1524</ele>
        <time>2019-04-22T14:10:51Z</time>
      </trkpt>
      <trkpt lat="45.53177" lon="6.91584">
        <ele>1544</ele>
        <time>2019-04-22T14:11:51Z</time>
      </trkpt>
      <trkpt lat="45.53165" lon="6.9159">
        <ele>1545</ele>
        <time>2019-04-22T14:12:51Z</time>
      </trkpt>
      <trkpt lat="45.53153" lon="6.91587">
        <ele>1548</ele>
        <time>2019-04-22T14:13:51Z</time>
      </trkpt>
      <trkpt lat="45.53137" lon="6.9157">
        <ele>1545</ele>
        <time>2019-04-22T14:14:51Z</time>
      </trkpt>
      <trkpt lat="45.53109" lon="6.91526">
        <ele>1533</ele>
        <time>2019-04-22T14:15:51Z</time>
      </trkpt>
      <trkpt lat="45.53096" lon="6.91512">
        <ele>1531</ele>
        <time>2019-04-22T14:16:51Z</time>
      </trkpt>
      <trkpt lat="45.53053" lon="6.91487">
        <ele>1534</ele>
        <time>2019-04-22T14:17:51Z</time>
      </trkpt>
      <trkpt lat="45.53031" lon="6.91478">
        <ele>1537</ele>
        <time>2019-04-22T14:18:51Z</time>
      </trkpt>
      <trkpt lat="45.5301" lon="6.91463">
        <ele>1538</ele>
        <time>2019-04-22T14:19:51Z</time>
      </trkpt>
      <trkpt lat="45.52956" lon="6.91406">
        <ele>1532</ele>
        <time>2019-04-22T14:20:51Z</time>
      </trkpt>
      <trkpt lat="45.52931" lon="6.91384">
        <ele>1533</ele>
        <time>2019-04-22T14:21:51Z</time>
      </trkpt>
      <trkpt lat="45.52903" lon="6.91368">
        <ele>1538</ele>
        <time>2019-04-22T14:22:51Z</time>
      </trkpt>
      <trkpt lat="45.52719" lon="6.91311">
        <ele>1567</ele>
        <time>2019-04-22T14:23:51Z</time>
      </trkpt>
      <trkpt lat="45.52647" lon="6.91281">
        <ele>1564</ele>
        <time>2019-04-22T14:24:51Z</time>
      </trkpt>
      <trkpt lat="45.52614" lon="6.91274">
        <ele>1565</ele>
        <time>2019-04-22T14:25:51Z</time>
      </trkpt>
      <trkpt lat="45.52559" lon="6.91268">
        <ele>1566</ele>
        <time>2019-04-22T14:26:51Z</time>
      </trkpt>
      <trkpt lat="45.52498" lon="6.91264">
        <ele>1564</ele>
        <time>2019-04-22T14:27:51Z</time>
      </trkpt>
      <trkpt lat="45.52476" lon="6.91265">
        <ele>1561</ele>
        <time>2019-04-22T14:28:51Z</time>
      </trkpt>
      <trkpt lat="45.52448" lon="6.91271">
        <ele>1560</ele>
        <time>2019-04-22T14:29:51Z</time>
      </trkpt>
      <trkpt lat="45.52418" lon="6.9128">
        <ele>1560</ele>
        <time>2019-04-22T14:30:51Z</time>
      </trkpt>
      <trkpt lat="45.52395" lon="6.91291">
        <ele>1560</ele>
        <time>2019-04-22T14:31:51Z</time>
      </trkpt>
      <trkpt lat="45.52309" lon="6.91349">
        <ele>1567</ele>
        <time>2019-04-22T14:32:51Z</time>
      </trkpt>
      <trkpt lat="45.52288" lon="6.91359">
        <ele>1570</ele>
        <time>2019-04-22T14:33:51Z</time>
      </trkpt>
      <trkpt lat="45.52193" lon="6.91391">
        <ele>1577</ele>
        <time>2019-04-22T14:34:51Z</time>
      </trkpt>
      <trkpt lat="45.52179" lon="6.91393">
        <ele>1577</ele>
        <time>2019-04-22T14:35:51Z</time>
      </trkpt>
      <trkpt lat="45.52158" lon="6.91391">
        <ele>1576</ele>
        <time>2019-04-22T14:36:51Z</time>
      </trkpt>
      <trkpt lat="45.52139" lon="6.91383">
        <ele>1575</ele>
        <time>2019-04-22T14:37:51Z</time>
      </trkpt>
      <trkpt lat="45.52123" lon="6.91369">
        <ele>1572</ele>
        <time>2019-04-22T14:38:51Z</time>
      </trkpt>
      <trkpt lat="45.52089" lon="6.91335">
        <ele>1568</ele>
        <time>2019-04-22T14:39:51Z</time>
      </trkpt>
      <trkpt lat="45.52071" lon="6.9133">
        <ele>1566</ele>
        <time>2019-04-22T14:40:51Z</time>
      </trkpt>
      <trkpt lat="45.52059" lon="6.9133">
        <ele>1564</ele>
        <time>2019-04-22T14:41:51Z</time>
      </trkpt>
      <trkpt lat="45.52047" lon="6.91335">
        <ele>1564</ele>
        <time>2019-04-22T14:42:51Z</time>
      </trkpt>
      <trkpt lat="45.52024" lon="6.9136">
        <ele>1567</ele>
        <time>2019-04-22T14:43:51Z</time>
      </trkpt>
      <trkpt lat="45.52006" lon="6.91392">
        <ele>1572</ele>
        <time>2019-04-22T14:44:51Z</time>
      </trkpt>
      <trkpt lat="45.5198" lon="6.91428">
        <ele>1578</ele>
        <time>2019-04-22T14:45:51Z</time>
      </trkpt>
      <trkpt lat="45.51935" lon="6.91469">
        <ele>1584</ele>
        <time>2019-04-22T14:46:51Z</time>
      </trkpt>
      <trkpt lat="45.51895" lon="6.91493">
        <ele>1587</ele>
        <time>2019-04-22T14:47:51Z</time>
      </trkpt>
      <trkpt lat="45.51803" lon="6.91539">
        <ele>1598</ele>
        <time>2019-04-22T14:48:51Z</time>
      </trkpt>
      <trkpt lat="45.51782" lon="6.91555">
        <ele>1601</ele>
        <time>2019-04-22T14:49:51Z</time>
      </trkpt>
      <trkpt lat="45.51761" lon="6.91577">
        <ele>1602</ele>
        <time>2019-04-22T14:50:51Z</time>
      </trkpt>
      <trkpt lat="45.51733" lon="6.9161">
        <ele>1611</ele>
        <time>2019-04-22T14:51:51Z</time>
      </trkpt>
      <trkpt lat="45.51704" lon="6.91624">
        <ele>1618</ele>
        <time>2019-04-22T14:52:51Z</time>
      </trkpt>
      <trkpt lat="45.51675" lon="6.9163">
        <ele>1623</ele>
        <time>2019-04-22T14:53:51Z</time>
      </trkpt>
      <trkpt lat="45.51652" lon="6.91631">
        <ele>1622</ele>
        <time>2019-04-22T14:54:51Z</time>
      </trkpt>
      <trkpt lat="45.51601" lon="6.91641">
        <ele>1623</ele>
        <time>2019-04-22T14:55:51Z</time>
      </trkpt>
      <trkpt lat="45.51554" lon="6.91654">
        <ele>1624</ele>
        <time>2019-04-22T14:56:51Z</time>
      </trkpt>
      <trkpt lat="45.51515" lon="6.91669">
        <ele>1623</ele>
        <time>2019-04-22T14:57:51Z</time>
      </trkpt>
      <trkpt lat="45.51475" lon="6.91688">
        <ele>1628</ele>
        <time>2019-04-22T14:58:51Z</time>
      </trkpt>
      <trkpt lat="45.51432" lon="6.91714">
        <ele>1635</ele>
        <time>2019-04-22T14:59:51Z</time>
      </trkpt>
      <trkpt lat="45.51404" lon="6.91734">
        <ele>1638</ele>
        <time>2019-04-22T15:00:51Z</time>
      </trkpt>
      <trkpt lat="45.51372" lon="6.91769">
        <ele>1640</ele>
        <time>2019-04-22T15:01:51Z</time>
      </trkpt>
      <trkpt lat="45.5129" lon="6.91882">
        <ele>1648</ele>
        <time>2019-04-22T15:02:51Z</time>
      </trkpt>
      <trkpt lat="45.51144" lon="6.92069">
        <ele>1657</ele>
        <time>2019-04-22T15:03:51Z</time>
      </trkpt>
      <trkpt lat="45.51093" lon="6.92137">
        <ele>1661</ele>
        <time>2019-04-22T15:04:51Z</time>
      </trkpt>
      <trkpt lat="45.51054" lon="6.922">
        <ele>1668</ele>
        <time>2019-04-22T15:05:51Z</time>
      </trkpt>
      <trkpt lat="45.5103" lon="6.92244">
        <ele>1672</ele>
        <time>2019-04-22T15:06:51Z</time>
      </trkpt>
      <trkpt lat="45.5099" lon="6.9235">
        <ele>1690</ele>
        <time>2019-04-22T15:07:51Z</time>
      </trkpt>
      <trkpt lat="45.50969" lon="6.9239">
        <ele>1696</ele>
        <time>2019-04-22T15:08:51Z</time>
      </trkpt>
      <trkpt lat="45.50941" lon="6.92422">
        <ele>1694</ele>
        <time>2019-04-22T15:09:51Z</time>
      </trkpt>
      <trkpt lat="45.50907" lon="6.92453">
        <ele>1699</ele>
        <time>2019-04-22T15:10:51Z</time>
      </trkpt>
      <trkpt lat="45.50879" lon="6.92471">
        <ele>1702</ele>
        <time>2019-04-22T15:11:51Z</time>
      </trkpt>
      <trkpt lat="45.50842" lon="6.9249">
        <ele>1705</ele>
        <time>2019-04-22T15:12:51Z</time>
      </trkpt>
      <trkpt lat="45.50782" lon="6.92517">
        <ele>1701</ele>
        <time>2019-04-22T15:13:51Z</time>
      </trkpt>
      <trkpt lat="45.50756" lon="6.9253">
        <ele>1699</ele>
        <time>2019-04-22T15:14:51Z</time>
      </trkpt>
      <trkpt lat="45.50742" lon="6.92545">
        <ele>1701</ele>
        <time>2019-04-22T15:15:51Z</time>
      </trkpt>
      <trkpt lat="45.50726" lon="6.92569">
        <ele>1708</ele>
        <time>2019-04-22T15:16:51Z</time>
      </trkpt>
      <trkpt lat="45.50684" lon="6.92639">
        <ele>1725</ele>
        <time>2019-04-22T15:17:51Z</time>
      </trkpt>
      <trkpt lat="45.50672" lon="6.92656">
        <ele>1729</ele>
        <time>2019-04-22T15:18:51Z</time>
      </trkpt>
      <trkpt lat="45.50619" lon="6.9271">
        <ele>1732</ele>
        <time>2019-04-22T15:19:51Z</time>
      </trkpt>
      <trkpt lat="45.50526" lon="6.92825">
        <ele>1735</ele>
        <time>2019-04-22T15:20:51Z</time>
      </trkpt>
      <trkpt lat="45.50453" lon="6.92919">
        <ele>1749</ele>
        <time>2019-04-22T15:21:51Z</time>
      </trkpt>
      <trkpt lat="45.50374" lon="6.92985">
        <ele>1754</ele>
        <time>2019-04-22T15:22:51Z</time>
      </trkpt>
      <trkpt lat="45.50298" lon="6.93016">
        <ele>1756</ele>
        <time>2019-04-22T15:23:51Z</time>
      </trkpt>
      <trkpt lat="45.50259" lon="6.9302">
        <ele>1756</ele>
        <time>2019-04-22T15:24:51Z</time>
      </trkpt>
      <trkpt lat="45.50204" lon="6.93017">
        <ele>1751</ele>
        <time>2019-04-22T15:25:51Z</time>
      </trkpt>
      <trkpt lat="45.50182" lon="6.93022">
        <ele>1753</ele>
        <time>2019-04-22T15:26:51Z</time>
      </trkpt>
      <trkpt lat="45.50122" lon="6.93055">
        <ele>1768</ele>
        <time>2019-04-22T15:27:51Z</time>
      </trkpt>
      <trkpt lat="45.50043" lon="6.93086">
        <ele>1774</ele>
        <time>2019-04-22T15:28:51Z</time>
      </trkpt>
      <trkpt lat="45.49946" lon="6.93144">
        <ele>1786</ele>
        <time>2019-04-22T15:29:51Z</time>
      </trkpt>
      <trkpt lat="45.49835" lon="6.93196">
        <ele>1783</ele>
        <time>2019-04-22T15:30:51Z</time>
      </trkpt>
      <trkpt lat="45.49818" lon="6.9321">
        <ele>1782</ele>
        <time>2019-04-22T15:31:51Z</time>
      </trkpt>
      <trkpt lat="45.49791" lon="6.9324">
        <ele>1787</ele>
        <time>2019-04-22T15:32:51Z</time>
      </trkpt>
      <trkpt lat="45.49757" lon="6.93271">
        <ele>1791</ele>
        <time>2019-04-22T15:33:51Z</time>
      </trkpt>
      <trkpt lat="45.49738" lon="6.93295">
        <ele>1795</ele>
        <time>2019-04-22T15:34:51Z</time>
      </trkpt>
      <trkpt lat="45.49715" lon="6.93316">
        <ele>1796</ele>
        <time>2019-04-22T15:35:51Z</time>
      </trkpt>
      <trkpt lat="45.49672" lon="6.93352">
        <ele>1797</ele>
        <time>2019-04-22T15:36:51Z</time>
      </trkpt>
      <trkpt lat="45.49581" lon="6.93406">
        <ele>1769</ele>
        <time>2019-04-22T15:37:51Z</time>
      </trkpt>
      <trkpt lat="45.49562" lon="6.9342">
        <ele>1773</ele>
        <time>2019-04-22T15:38:51Z</time>
      </trkpt>
      <trkpt lat="45.49543" lon="6.93441">
        <ele>1779</ele>
        <time>2019-04-22T15:39:51Z</time>
      </trkpt>
      <trkpt lat="45.4953" lon="6.93466">
        <ele>1788</ele>
        <time>2019-04-22T15:40:51Z</time>
      </trkpt>
      <trkpt lat="45.49514" lon="6.93507">
        <ele>1803</ele>
        <time>2019-04-22T15:41:51Z</time>
      </trkpt>
      <trkpt lat="45.49389" lon="6.93686">
        <ele>1809</ele>
        <time>2019-04-22T15:42:51Z</time>
      </trkpt>
      <trkpt lat="45.49321" lon="6.93846">
        <ele>1830</ele>
        <time>2019-04-22T15:43:51Z</time>
      </trkpt>
      <trkpt lat="45.49233" lon="6.9401">
        <ele>1864</ele>
        <time>2019-04-22T15:44:51Z</time>
      </trkpt>
      <trkpt lat="45.49144" lon="6.94111">
        <ele>1853</ele>
        <time>2019-04-22T15:45:51Z</time>
      </trkpt>
      <trkpt lat="45.49014" lon="6.94182">
        <ele>1825</ele>
        <time>2019-04-22T15:46:51Z</time>
      </trkpt>
      <trkpt lat="45.48874" lon="6.94263">
        <ele>1822</ele>
        <time>2019-04-22T15:47:51Z</time>
      </trkpt>
      <trkpt lat="45.48727" lon="6.94331">
        <ele>1817</ele>
        <time>2019-04-22T15:48:51Z</time>
      </trkpt>
      <trkpt lat="45.48589" lon="6.94412">
        <ele>1815</ele>
        <time>2019-04-22T15:49:51Z</time>
      </trkpt>
      <trkpt lat="45.48495" lon="6.94472">
        <ele>1820</ele>
        <time>2019-04-22T15:50:51Z</time>
      </trkpt>
      <trkpt lat="45.48444" lon="6.94501">
        <ele>1822</ele>
        <time>2019-04-22T15:51:51Z</time>
      </trkpt>
      <trkpt lat="45.4834" lon="6.94519">
        <ele>1826</ele>
        <time>2019-04-22T15:52:51Z</time>
      </trkpt>
      <trkpt lat="45.48249" lon="6.9454">
        <ele>1816</ele>
        <time>2019-04-22T15:53:51Z</time>
      </trkpt>
      <trkpt lat="45.48184" lon="6.94566">
        <ele>1814</ele>
        <time>2019-04-22T15:54:51Z</time>
      </trkpt>
      <trkpt lat="45.48101" lon="6.9461">
        <ele>1815</ele>
        <time>2019-04-22T15:55:51Z</time>
      </trkpt>
      <trkpt lat="45.48037" lon="6.9465">
        <ele>1802</ele>
        <time>2019-04-22T15:56:51Z</time>
      </trkpt>
      <trkpt lat="45.48003" lon="6.94692">
        <ele>1800</ele>
        <time>2019-04-22T15:57:51Z</time>
      </trkpt>
      <trkpt lat="45.47951" lon="6.948">
        <ele>1807</ele>
        <time>2019-04-22T15:58:51Z</time>
      </trkpt>
      <trkpt lat="45.47901" lon="6.94872">
        <ele>1806</ele>
        <time>2019-04-22T15:59:51Z</time>
      </trkpt>
      <trkpt lat="45.47849" lon="6.94934">
        <ele>1807</ele>
        <time>2019-04-22T16:00:51Z</time>
      </trkpt>
      <trkpt lat="45.47793" lon="6.94986">
        <ele>1813</ele>
        <time>2019-04-22T16:01:51Z</time>
      </trkpt>
      <trkpt lat="45.47746" lon="6.95027">
        <ele>1811</ele>
        <time>2019-04-22T16:02:51Z</time>
      </trkpt>
      <trkpt lat="45.47735" lon="6.95035">
        <ele>1814</ele>
        <time>2019-04-22T16:03:51Z</time>
      </trkpt>
      <trkpt lat="45.47722" lon="6.95039">
        <ele>1815</ele>
        <time>2019-04-22T16:04:51Z</time>
      </trkpt>
      <trkpt lat="45.47709" lon="6.95037">
        <ele>1814</ele>
        <time>2019-04-22T16:05:51Z</time>
      </trkpt>
      <trkpt lat="45.47692" lon="6.95022">
        <ele>1811</ele>
        <time>2019-04-22T16:06:51Z</time>
      </trkpt>
      <trkpt lat="45.47685" lon="6.9501">
        <ele>1808</ele>
        <time>2019-04-22T16:07:51Z</time>
      </trkpt>
      <trkpt lat="45.47671" lon="6.9496">
        <ele>1800</ele>
        <time>2019-04-22T16:08:51Z</time>
      </trkpt>
      <trkpt lat="45.47664" lon="6.94945">
        <ele>1799</ele>
        <time>2019-04-22T16:09:51Z</time>
      </trkpt>
      <trkpt lat="45.4765" lon="6.9493">
        <ele>1798</ele>
        <time>2019-04-22T16:10:51Z</time>
      </trkpt>
      <trkpt lat="45.47639" lon="6.94924">
        <ele>1798</ele>
        <time>2019-04-22T16:11:51Z</time>
      </trkpt>
      <trkpt lat="45.47609" lon="6.94915">
        <ele>1799</ele>
        <time>2019-04-22T16:12:51Z</time>
      </trkpt>
      <trkpt lat="45.47584" lon="6.94914">
        <ele>1801</ele>
        <time>2019-04-22T16:13:51Z</time>
      </trkpt>
      <trkpt lat="45.47522" lon="6.94918">
        <ele>1809</ele>
        <time>2019-04-22T16:14:51Z</time>
      </trkpt>
      <trkpt lat="45.47512" lon="6.94916">
        <ele>1809</ele>
        <time>2019-04-22T16:15:51Z</time>
      </trkpt>
      <trkpt lat="45.47485" lon="6.9489">
        <ele>1800</ele>
        <time>2019-04-22T16:16:51Z</time>
      </trkpt>
      <trkpt lat="45.47463" lon="6.94861">
        <ele>1788</ele>
        <time>2019-04-22T16:17:51Z</time>
      </trkpt>
      <trkpt lat="45.47444" lon="6.94856">
        <ele>1785</ele>
        <time>2019-04-22T16:18:51Z</time>
      </trkpt>
      <trkpt lat="45.47425" lon="6.94857">
        <ele>1784</ele>
        <time>2019-04-22T16:19:51Z</time>
      </trkpt>
      <trkpt lat="45.47413" lon="6.94867">
        <ele>1785</ele>
        <time>2019-04-22T16:20:51Z</time>
      </trkpt>
      <trkpt lat="45.47402" lon="6.94884">
        <ele>1786</ele>
        <time>2019-04-22T16:21:51Z</time>
      </trkpt>
      <trkpt lat="45.47392" lon="6.94915">
        <ele>1790</ele>
        <time>2019-04-22T16:22:51Z</time>
      </trkpt>
      <trkpt lat="45.47355" lon="6.95134">
        <ele>1858</ele>
        <time>2019-04-22T16:23:51Z</time>
      </trkpt>
      <trkpt lat="45.47323" lon="6.95215">
        <ele>1856</ele>
        <time>2019-04-22T16:24:51Z</time>
      </trkpt>
      <trkpt lat="45.47242" lon="6.95302">
        <ele>1811</ele>
        <time>2019-04-22T16:25:51Z</time>
      </trkpt>
      <trkpt lat="45.47204" lon="6.95352">
        <ele>1802</ele>
        <time>2019-04-22T16:26:51Z</time>
      </trkpt>
      <trkpt lat="45.47193" lon="6.95387">
        <ele>1805</ele>
        <time>2019-04-22T16:27:51Z</time>
      </trkpt>
      <trkpt lat="45.47033" lon="6.95744">
        <ele>1841</ele>
        <time>2019-04-22T16:28:51Z</time>
      </trkpt>
      <trkpt lat="45.4693" lon="6.95884">
        <ele>1858</ele>
        <time>2019-04-22T16:29:51Z</time>
      </trkpt>
      <trkpt lat="45.46881" lon="6.95938">
        <ele>1864</ele>
        <time>2019-04-22T16:30:51Z</time>
      </trkpt>
      <trkpt lat="45.46851" lon="6.95955">
        <ele>1855</ele>
        <time>2019-04-22T16:31:51Z</time>
      </trkpt>
      <trkpt lat="45.46818" lon="6.95962">
        <ele>1842</ele>
        <time>2019-04-22T16:32:51Z</time>
      </trkpt>
      <trkpt lat="45.46776" lon="6.9596">
        <ele>1827</ele>
        <time>2019-04-22T16:33:51Z</time>
      </trkpt>
      <trkpt lat="45.46753" lon="6.95955">
        <ele>1819</ele>
        <time>2019-04-22T16:34:51Z</time>
      </trkpt>
      <trkpt lat="45.4673" lon="6.95954">
        <ele>1813</ele>
        <time>2019-04-22T16:35:51Z</time>
      </trkpt>
      <trkpt lat="45.46716" lon="6.95959">
        <ele>1811</ele>
        <time>2019-04-22T16:36:51Z</time>
      </trkpt>
      <trkpt lat="45.46701" lon="6.95969">
        <ele>1809</ele>
        <time>2019-04-22T16:37:51Z</time>
      </trkpt>
      <trkpt lat="45.46677" lon="6.95991">
        <ele>1806</ele>
        <time>2019-04-22T16:38:51Z</time>
      </trkpt>
      <trkpt lat="45.46653" lon="6.96017">
        <ele>1808</ele>
        <time>2019-04-22T16:39:51Z</time>
      </trkpt>
      <trkpt lat="45.466" lon="6.96089">
        <ele>1811</ele>
        <time>2019-04-22T16:40:51Z</time>
      </trkpt>
      <trkpt lat="45.46563" lon="6.96141">
        <ele>1811</ele>
        <time>2019-04-22T16:41:51Z</time>
      </trkpt>
      <trkpt lat="45.4651" lon="6.96195">
        <ele>1807</ele>
        <time>2019-04-22T16:42:51Z</time>
      </trkpt>
      <trkpt lat="45.46405" lon="6.96283">
        <ele>1809</ele>
        <time>2019-04-22T16:43:51Z</time>
      </trkpt>
      <trkpt lat="45.46367" lon="6.9632">
        <ele>1810</ele>
        <time>2019-04-22T16:44:51Z</time>
      </trkpt>
      <trkpt lat="45.46333" lon="6.96374">
        <ele>1807</ele>
        <time>2019-04-22T16:45:51Z</time>
      </trkpt>
      <trkpt lat="45.46294" lon="6.96414">
        <ele>1805</ele>
        <time>2019-04-22T16:46:51Z</time>
      </trkpt>
      <trkpt lat="45.46282" lon="6.96422">
        <ele>1804</ele>
        <time>2019-04-22T16:47:51Z</time>
      </trkpt>
      <trkpt lat="45.46276" lon="6.96413">
        <ele>1803</ele>
        <time>2019-04-22T16:48:51Z</time>
      </trkpt>
      <trkpt lat="45.46269" lon="6.96413">
        <ele>1802</ele>
        <time>2019-04-22T16:49:51Z</time>
      </trkpt>
      <trkpt lat="45.46263" lon="6.9642">
        <ele>1801</ele>
        <time>2019-04-22T16:50:51Z</time>
      </trkpt>
      <trkpt lat="45.46263" lon="6.9643">
        <ele>1803</ele>
        <time>2019-04-22T16:51:51Z</time>
      </trkpt>
      <trkpt lat="45.46122" lon="6.96505">
        <ele>1801</ele>
        <time>2019-04-22T16:52:51Z</time>
      </trkpt>
      <trkpt lat="45.45973" lon="6.96623">
        <ele>1800</ele>
        <time>2019-04-22T16:53:51Z</time>
      </trkpt>
      <trkpt lat="45.45967" lon="6.96617">
        <ele>1800</ele>
        <time>2019-04-22T16:54:51Z</time>
      </trkpt>
      <trkpt lat="45.4596" lon="6.96618">
        <ele>1800</ele>
        <time>2019-04-22T16:55:51Z</time>
      </trkpt>
      <trkpt lat="45.45956" lon="6.96626">
        <ele>1800</ele>
        <time>2019-04-22T16:56:51Z</time>
      </trkpt>
      <trkpt lat="45.45957" lon="6.96636">
        <ele>1800</ele>
        <time>2019-04-22T16:57:51Z</time>
      </trkpt>
      <trkpt lat="45.45545" lon="6.9696">
        <ele>1805</ele>
        <time>2019-04-22T16:58:51Z</time>
      </trkpt>
      <trkpt lat="45.45464" lon="6.97042">
        <ele>1809</ele>
        <time>2019-04-22T16:59:51Z</time>
      </trkpt>
      <trkpt lat="45.45435" lon="6.97084">
        <ele>1810</ele>
        <time>2019-04-22T17:00:51Z</time>
      </trkpt>
      <trkpt lat="45.45406" lon="6.97131">
        <ele>1810</ele>
        <time>2019-04-22T17:01:51Z</time>
      </trkpt>
      <trkpt lat="45.45351" lon="6.97234">
        <ele>1814</ele>
        <time>2019-04-22T17:02:51Z</time>
      </trkpt>
      <trkpt lat="45.45307" lon="6.97307">
        <ele>1815</ele>
        <time>2019-04-22T17:03:51Z</time>
      </trkpt>
      <trkpt lat="45.45268" lon="6.97359">
        <ele>1817</ele>
        <time>2019-04-22T17:04:51Z</time>
      </trkpt>
      <trkpt lat="45.45214" lon="6.97415">
        <ele>1820</ele>
        <time>2019-04-22T17:05:51Z</time>
      </trkpt>
      <trkpt lat="45.4518" lon="6.97458">
        <ele>1821</ele>
        <time>2019-04-22T17:06:51Z</time>
      </trkpt>
      <trkpt lat="45.45151" lon="6.9749">
        <ele>1820</ele>
        <time>2019-04-22T17:07:51Z</time>
      </trkpt>
      <trkpt lat="45.45108" lon="6.97566">
        <ele>1821</ele>
        <time>2019-04-22T17:08:51Z</time>
      </trkpt>
      <trkpt lat="45.45054" lon="6.9768">
        <ele>1824</ele>
        <time>2019-04-22T17:09:51Z</time>
      </trkpt>
      <trkpt lat="45.45039" lon="6.97707">
        <ele>1825</ele>
        <time>2019-04-22T17:10:51Z</time>
      </trkpt>
      <trkpt lat="45.4503" lon="6.97717">
        <ele>1825</ele>
        <time>2019-04-22T17:11:51Z</time>
      </trkpt>
      <trkpt lat="45.45016" lon="6.97729">
        <ele>1826</ele>
        <time>2019-04-22T17:12:51Z</time>
      </trkpt>
      <trkpt lat="45.4501" lon="6.97722">
        <ele>1826</ele>
        <time>2019-04-22T17:13:51Z</time>
      </trkpt>
      <trkpt lat="45.45006" lon="6.97721">
        <ele>1826</ele>
        <time>2019-04-22T17:14:51Z</time>
      </trkpt>
      <trkpt lat="45.44998" lon="6.97726">
        <ele>1826</ele>
        <time>2019-04-22T17:15:51Z</time>
      </trkpt>
      <trkpt lat="45.44995" lon="6.97737">
        <ele>1826</ele>
        <time>2019-04-22T17:16:51Z</time>
      </trkpt>
      <trkpt lat="45.44998" lon="6.97748">
        <ele>1826</ele>
        <time>2019-04-22T17:17:51Z</time>
      </trkpt>
      <trkpt lat="45.45" lon="6.97751">
        <ele>1826</ele>
        <time>2019-04-22T17:18:51Z</time>
      </trkpt>
      <trkpt lat="45.449" lon="6.97988">
        <ele>1837</ele>
        <time>2019-04-22T17:19:51Z</time>
      </trkpt>
      <trkpt lat="45.44892" lon="6.97987">
        <ele>1837</ele>
        <time>2019-04-22T17:20:51Z</time>
      </trkpt>
      <trkpt lat="45.44887" lon="6.97994">
        <ele>1838</ele>
        <time>2019-04-22T17:21:51Z</time>
      </trkpt>
      <trkpt lat="45.44885" lon="6.98002">
        <ele>1838</ele>
        <time>2019-04-22T17:22:51Z</time>
      </trkpt>
      <trkpt lat="45.44887" lon="6.98009">
        <ele>1838</ele>
        <time>2019-04-22T17:23:51Z</time>
      </trkpt>
      <trkpt lat="45.44892" lon="6.98014">
        <ele>1838</ele>
        <time>2019-04-22T17:24:51Z</time>
      </trkpt>
      <trkpt lat="45.44862" lon="6.98084">
        <ele>1837</ele>
        <time>2019-04-22T17:25:51Z</time>
      </trkpt>
      <trkpt lat="45.44823" lon="6.98168">
        <ele>1838</ele>
        <time>2019-04-22T17:26:51Z</time>
      </trkpt>
      <trkpt lat="45.44733" lon="6.98453">
        <ele>1843</ele>
        <time>2019-04-22T17:27:51Z</time>
      </trkpt>
      <trkpt lat="45.44696" lon="6.98563">
        <ele>1846</ele>
        <time>2019-04-22T17:28:51Z</time>
      </trkpt>
      <trkpt lat="45.44671" lon="6.98644">
        <ele>1849</ele>
        <time>2019-04-22T17:29:51Z</time>
      </trkpt>
      <trkpt lat="45.44662" lon="6.98686">
        <ele>1851</ele>
        <time>2019-04-22T17:30:51Z</time>
      </trkpt>
      <trkpt lat="45.44655" lon="6.98789">
        <ele>1853</ele>
        <time>2019-04-22T17:31:51Z</time>
      </trkpt>
      <trkpt lat="45.44649" lon="6.98792">
        <ele>1853</ele>
        <time>2019-04-22T17:32:51Z</time>
      </trkpt>
      <trkpt lat="45.44647" lon="6.98798">
        <ele>1853</ele>
        <time>2019-04-22T17:33:51Z</time>
      </trkpt>
      <trkpt lat="45.44647" lon="6.98805">
        <ele>1853</ele>
        <time>2019-04-22T17:34:51Z</time>
      </trkpt>
      <trkpt lat="45.44649" lon="6.9881">
        <ele>1853</ele>
        <time>2019-04-22T17:35:51Z</time>
      </trkpt>
      <trkpt lat="45.44654" lon="6.98814">
        <ele>1853</ele>
        <time>2019-04-22T17:36:51Z</time>
      </trkpt>
      <trkpt lat="45.44658" lon="6.98814">
        <ele>1853</ele>
        <time>2019-04-22T17:37:51Z</time>
      </trkpt>
      <trkpt lat="45.44674" lon="6.98911">
        <ele>1852</ele>
        <time>2019-04-22T17:38:51Z</time>
      </trkpt>
      <trkpt lat="45.44715" lon="6.99149">
        <ele>1856</ele>
        <time>2019-04-22T17:39:51Z</time>
      </trkpt>
      <trkpt lat="45.44736" lon="6.99306">
        <ele>1861</ele>
        <time>2019-04-22T17:40:51Z</time>
      </trkpt>
      <trkpt lat="45.44739" lon="6.99354">
        <ele>1862</ele>
        <time>2019-04-22T17:41:51Z</time>
      </trkpt>
      <trkpt lat="45.44738" lon="6.99424">
        <ele>1863</ele>
        <time>2019-04-22T17:42:51Z</time>
      </trkpt>
      <trkpt lat="45.44738" lon="6.9973">
        <ele>1873</ele>
        <time>2019-04-22T17:43:51Z</time>
      </trkpt>
      <trkpt lat="45.4475" lon="6.99881">
        <ele>1879</ele>
        <time>2019-04-22T17:44:51Z</time>
      </trkpt>
      <trkpt lat="45.44783" lon="7.0005">
        <ele>1895</ele>
        <time>2019-04-22T17:45:51Z</time>
      </trkpt>
      <trkpt lat="45.44787" lon="7.00145">
        <ele>1900</ele>
        <time>2019-04-22T17:46:51Z</time>
      </trkpt>
      <trkpt lat="45.44818" lon="7.00325">
        <ele>1903</ele>
        <time>2019-04-22T17:47:51Z</time>
      </trkpt>
      <trkpt lat="45.44827" lon="7.00586">
        <ele>1910</ele>
        <time>2019-04-22T17:48:51Z</time>
      </trkpt>
      <trkpt lat="45.4483" lon="7.00634">
        <ele>1911</ele>
        <time>2019-04-22T17:49:51Z</time>
      </trkpt>
      <trkpt lat="45.44839" lon="7.00674">
        <ele>1913</ele>
        <time>2019-04-22T17:50:51Z</time>
      </trkpt>
      <trkpt lat="45.44873" lon="7.00758">
        <ele>1923</ele>
        <time>2019-04-22T17:51:51Z</time>
      </trkpt>
      <trkpt lat="45.44963" lon="7.00959">
        <ele>1935</ele>
        <time>2019-04-22T17:52:51Z</time>
      </trkpt>
      <trkpt lat="45.44979" lon="7.00983">
        <ele>1937</ele>
        <time>2019-04-22T17:53:51Z</time>
      </trkpt>
      <trkpt lat="45.44986" lon="7.00998">
        <ele>1937</ele>
        <time>2019-04-22T17:54:51Z</time>
      </trkpt>
      <trkpt lat="45.45014" lon="7.01039">
        <ele>1940</ele>
        <time>2019-04-22T17:55:51Z</time>
      </trkpt>
      <trkpt lat="45.45029" lon="7.01064">
        <ele>1941</ele>
        <time>2019-04-22T17:56:51Z</time>
      </trkpt>
      <trkpt lat="45.45039" lon="7.01084">
        <ele>1942</ele>
        <time>2019-04-22T17:57:51Z</time>
      </trkpt>
      <trkpt lat="45.45049" lon="7.01109">
        <ele>1944</ele>
        <time>2019-04-22T17:58:51Z</time>
      </trkpt>
      <trkpt lat="45.45055" lon="7.01129">
        <ele>1945</ele>
        <time>2019-04-22T17:59:51Z</time>
      </trkpt>
      <trkpt lat="45.45055" lon="7.01147">
        <ele>1945</ele>
        <time>2019-04-22T18:00:51Z</time>
      </trkpt>
      <trkpt lat="45.45057" lon="7.01156">
        <ele>1946</ele>
        <time>2019-04-22T18:01:51Z</time>
      </trkpt>
      <trkpt lat="45.45067" lon="7.01181">
        <ele>1948</ele>
        <time>2019-04-22T18:02:51Z</time>
      </trkpt>
      <trkpt lat="45.45083" lon="7.01259">
        <ele>1952</ele>
        <time>2019-04-22T18:03:51Z</time>
      </trkpt>
      <trkpt lat="45.45111" lon="7.01336">
        <ele>1959</ele>
        <time>2019-04-22T18:04:51Z</time>
      </trkpt>
      <trkpt lat="45.45258" lon="7.01726">
        <ele>1984</ele>
        <time>2019-04-22T18:05:51Z</time>
      </trkpt>
      <trkpt lat="45.4527" lon="7.01773">
        <ele>1988</ele>
        <time>2019-04-22T18:06:51Z</time>
      </trkpt>
      <trkpt lat="45.45299" lon="7.01951">
        <ele>2000</ele>
        <time>2019-04-22T18:07:51Z</time>
      </trkpt>
      <trkpt lat="45.45302" lon="7.01979">
        <ele>2001</ele>
        <time>2019-04-22T18:08:51Z</time>
      </trkpt>
      <trkpt lat="45.453" lon="7.01998">
        <ele>2001</ele>
        <time>2019-04-22T18:09:51Z</time>
      </trkpt>
      <trkpt lat="45.45271" lon="7.02084">
        <ele>2002</ele>
        <time>2019-04-22T18:10:51Z</time>
      </trkpt>
      <trkpt lat="45.45259" lon="7.02129">
        <ele>2002</ele>
        <time>2019-04-22T18:11:51Z</time>
      </trkpt>
      <trkpt lat="45.45261" lon="7.02152">
        <ele>2004</ele>
        <time>2019-04-22T18:12:51Z</time>
      </trkpt>
      <trkpt lat="45.45266" lon="7.0217">
        <ele>2007</ele>
        <time>2019-04-22T18:13:51Z</time>
      </trkpt>
      <trkpt lat="45.45267" lon="7.02193">
        <ele>2010</ele>
        <time>2019-04-22T18:14:51Z</time>
      </trkpt>
      <trkpt lat="45.45263" lon="7.02215">
        <ele>2012</ele>
        <time>2019-04-22T18:15:51Z</time>
      </trkpt>
      <trkpt lat="45.45253" lon="7.02244">
        <ele>2014</ele>
        <time>2019-04-22T18:16:51Z</time>
      </trkpt>
      <trkpt lat="45.45226" lon="7.0228">
        <ele>2014</ele>
        <time>2019-04-22T18:17:51Z</time>
      </trkpt>
      <trkpt lat="45.45178" lon="7.02298">
        <ele>2010</ele>
        <time>2019-04-22T18:18:51Z</time>
      </trkpt>
      <trkpt lat="45.45152" lon="7.02341">
        <ele>2018</ele>
        <time>2019-04-22T18:19:51Z</time>
      </trkpt>
      <trkpt lat="45.45143" lon="7.02374">
        <ele>2023</ele>
        <time>2019-04-22T18:20:51Z</time>
      </trkpt>
      <trkpt lat="45.45143" lon="7.0241">
        <ele>2026</ele>
        <time>2019-04-22T18:21:51Z</time>
      </trkpt>
      <trkpt lat="45.45148" lon="7.02438">
        <ele>2026</ele>
        <time>2019-04-22T18:22:51Z</time>
      </trkpt>
      <trkpt lat="45.45247" lon="7.02706">
        <ele>2035</ele>
        <time>2019-04-22T18:23:51Z</time>
      </trkpt>
      <trkpt lat="45.4525" lon="7.02729">
        <ele>2035</ele>
        <time>2019-04-22T18:24:51Z</time>
      </trkpt>
      <trkpt lat="45.45258" lon="7.02833">
        <ele>2031</ele>
        <time>2019-04-22T18:25:51Z</time>
      </trkpt>
      <trkpt lat="45.45264" lon="7.02866">
        <ele>2032</ele>
        <time>2019-04-22T18:26:51Z</time>
      </trkpt>
      <trkpt lat="45.45376" lon="7.03152">
        <ele>2044</ele>
        <time>2019-04-22T18:27:51Z</time>
      </trkpt>
      <trkpt lat="45.45386" lon="7.03167">
        <ele>2045</ele>
        <time>2019-04-22T18:28:51Z</time>
      </trkpt>
      <trkpt lat="45.4539" lon="7.03189">
        <ele>2045</ele>
        <time>2019-04-22T18:29:51Z</time>
      </trkpt>
      <trkpt lat="45.45469" lon="7.03346">
        <ele>2053</ele>
        <time>2019-04-22T18:30:51Z</time>
      </trkpt>
      <trkpt lat="45.4548" lon="7.03401">
        <ele>2052</ele>
        <time>2019-04-22T18:31:51Z</time>
      </trkpt>
      <trkpt lat="45.45487" lon="7.03418">
        <ele>2051</ele>
        <time>2019-04-22T18:32:51Z</time>
      </trkpt>
      <trkpt lat="45.45487" lon="7.03436">
        <ele>2051</ele>
        <time>2019-04-22T18:33:51Z</time>
      </trkpt>
      <trkpt lat="45.45497" lon="7.0349">
        <ele>2051</ele>
        <time>2019-04-22T18:34:51Z</time>
      </trkpt>
      <trkpt lat="45.45496" lon="7.03603">
        <ele>2053</ele>
        <time>2019-04-22T18:35:51Z</time>
      </trkpt>
      <trkpt lat="45.45491" lon="7.03641">
        <ele>2053</ele>
        <time>2019-04-22T18:36:51Z</time>
      </trkpt>
      <trkpt lat="45.45482" lon="7.03658">
        <ele>2053</ele>
        <time>2019-04-22T18:37:51Z</time>
      </trkpt>
      <trkpt lat="45.45465" lon="7.03669">
        <ele>2054</ele>
        <time>2019-04-22T18:38:51Z</time>
      </trkpt>
      <trkpt lat="45.45414" lon="7.03664">
        <ele>2055</ele>
        <time>2019-04-22T18:39:51Z</time>
      </trkpt>
      <trkpt lat="45.45403" lon="7.0366">
        <ele>2059</ele>
        <time>2019-04-22T18:40:51Z</time>
      </trkpt>
      <trkpt lat="45.45394" lon="7.03651">
        <ele>2061</ele>
        <time>2019-04-22T18:41:51Z</time>
      </trkpt>
      <trkpt lat="45.45359" lon="7.03586">
        <ele>2066</ele>
        <time>2019-04-22T18:42:51Z</time>
      </trkpt>
      <trkpt lat="45.45348" lon="7.03561">
        <ele>2065</ele>
        <time>2019-04-22T18:43:51Z</time>
      </trkpt>
      <trkpt lat="45.45346" lon="7.03527">
        <ele>2062</ele>
        <time>2019-04-22T18:44:51Z</time>
      </trkpt>
      <trkpt lat="45.4534" lon="7.03516">
        <ele>2062</ele>
        <time>2019-04-22T18:45:51Z</time>
      </trkpt>
      <trkpt lat="45.45333" lon="7.03512">
        <ele>2063</ele>
        <time>2019-04-22T18:46:51Z</time>
      </trkpt>
      <trkpt lat="45.45325" lon="7.0352">
        <ele>2067</ele>
        <time>2019-04-22T18:47:51Z</time>
      </trkpt>
      <trkpt lat="45.45322" lon="7.03531">
        <ele>2069</ele>
        <time>2019-04-22T18:48:51Z</time>
      </trkpt>
      <trkpt lat="45.45327" lon="7.03545">
        <ele>2069</ele>
        <time>2019-04-22T18:49:51Z</time>
      </trkpt>
      <trkpt lat="45.45339" lon="7.03573">
        <ele>2069</ele>
        <time>2019-04-22T18:50:51Z</time>
      </trkpt>
      <trkpt lat="45.45377" lon="7.03771">
        <ele>2078</ele>
        <time>2019-04-22T18:51:51Z</time>
      </trkpt>
      <trkpt lat="45.45383" lon="7.03831">
        <ele>2080</ele>
        <time>2019-04-22T18:52:51Z</time>
      </trkpt>
      <trkpt lat="45.45379" lon="7.03922">
        <ele>2091</ele>
        <time>2019-04-22T18:53:51Z</time>
      </trkpt>
      <trkpt lat="45.45385" lon="7.03942">
        <ele>2091</ele>
        <time>2019-04-22T18:54:51Z</time>
      </trkpt>
      <trkpt lat="45.45397" lon="7.0396">
        <ele>2089</ele>
        <time>2019-04-22T18:55:51Z</time>
      </trkpt>
      <trkpt lat="45.45397" lon="7.0397">
        <ele>2091</ele>
        <time>2019-04-22T18:56:51Z</time>
      </trkpt>
      <trkpt lat="45.45391" lon="7.03981">
        <ele>2094</ele>
        <time>2019-04-22T18:57:51Z</time>
      </trkpt>
      <trkpt lat="45.45382" lon="7.03979">
        <ele>2097</ele>
        <time>2019-04-22T18:58:51Z</time>
      </trkpt>
      <trkpt lat="45.45375" lon="7.03969">
        <ele>2098</ele>
        <time>2019-04-22T18:59:51Z</time>
      </trkpt>
      <trkpt lat="45.45353" lon="7.03846">
        <ele>2093</ele>
        <time>2019-04-22T19:00:51Z</time>
      </trkpt>
      <trkpt lat="45.45316" lon="7.03742">
        <ele>2104</ele>
        <time>2019-04-22T19:01:51Z</time>
      </trkpt>
      <trkpt lat="45.45239" lon="7.03571">
        <ele>2109</ele>
        <time>2019-04-22T19:02:51Z</time>
      </trkpt>
      <trkpt lat="45.45206" lon="7.03476">
        <ele>2112</ele>
        <time>2019-04-22T19:03:51Z</time>
      </trkpt>
      <trkpt lat="45.45155" lon="7.03399">
        <ele>2128</ele>
        <time>2019-04-22T19:04:51Z</time>
      </trkpt>
      <trkpt lat="45.45103" lon="7.03233">
        <ele>2134</ele>
        <time>2019-04-22T19:05:51Z</time>
      </trkpt>
      <trkpt lat="45.45069" lon="7.0316">
        <ele>2141</ele>
        <time>2019-04-22T19:06:51Z</time>
      </trkpt>
      <trkpt lat="45.45041" lon="7.03074">
        <ele>2138</ele>
        <time>2019-04-22T19:07:51Z</time>
      </trkpt>
      <trkpt lat="45.45009" lon="7.03031">
        <ele>2151</ele>
        <time>2019-04-22T19:08:51Z</time>
      </trkpt>
      <trkpt lat="45.44974" lon="7.02939">
        <ele>2152</ele>
        <time>2019-04-22T19:09:51Z</time>
      </trkpt>
      <trkpt lat="45.44951" lon="7.0286">
        <ele>2152</ele>
        <time>2019-04-22T19:10:51Z</time>
      </trkpt>
      <trkpt lat="45.44913" lon="7.02769">
        <ele>2160</ele>
        <time>2019-04-22T19:11:51Z</time>
      </trkpt>
      <trkpt lat="45.44875" lon="7.02622">
        <ele>2169</ele>
        <time>2019-04-22T19:12:51Z</time>
      </trkpt>
      <trkpt lat="45.44842" lon="7.02519">
        <ele>2177</ele>
        <time>2019-04-22T19:13:51Z</time>
      </trkpt>
      <trkpt lat="45.44828" lon="7.02482">
        <ele>2178</ele>
        <time>2019-04-22T19:14:51Z</time>
      </trkpt>
      <trkpt lat="45.44795" lon="7.02422">
        <ele>2184</ele>
        <time>2019-04-22T19:15:51Z</time>
      </trkpt>
      <trkpt lat="45.44784" lon="7.02381">
        <ele>2183</ele>
        <time>2019-04-22T19:16:51Z</time>
      </trkpt>
      <trkpt lat="45.44698" lon="7.02208">
        <ele>2198</ele>
        <time>2019-04-22T19:17:51Z</time>
      </trkpt>
      <trkpt lat="45.44578" lon="7.02029">
        <ele>2214</ele>
        <time>2019-04-22T19:18:51Z</time>
      </trkpt>
      <trkpt lat="45.44534" lon="7.01947">
        <ele>2219</ele>
        <time>2019-04-22T19:19:51Z</time>
      </trkpt>
      <trkpt lat="45.44512" lon="7.01876">
        <ele>2215</ele>
        <time>2019-04-22T19:20:51Z</time>
      </trkpt>
      <trkpt lat="45.44502" lon="7.01856">
        <ele>2215</ele>
        <time>2019-04-22T19:21:51Z</time>
      </trkpt>
      <trkpt lat="45.44493" lon="7.01848">
        <ele>2217</ele>
        <time>2019-04-22T19:22:51Z</time>
      </trkpt>
      <trkpt lat="45.4448" lon="7.01862">
        <ele>2224</ele>
        <time>2019-04-22T19:23:51Z</time>
      </trkpt>
      <trkpt lat="45.44498" lon="7.01898">
        <ele>2226</ele>
        <time>2019-04-22T19:24:51Z</time>
      </trkpt>
      <trkpt lat="45.44522" lon="7.01981">
        <ele>2232</ele>
        <time>2019-04-22T19:25:51Z</time>
      </trkpt>
      <trkpt lat="45.44558" lon="7.02087">
        <ele>2233</ele>
        <time>2019-04-22T19:26:51Z</time>
      </trkpt>
      <trkpt lat="45.44578" lon="7.02184">
        <ele>2243</ele>
        <time>2019-04-22T19:27:51Z</time>
      </trkpt>
      <trkpt lat="45.44643" lon="7.02298">
        <ele>2242</ele>
        <time>2019-04-22T19:28:51Z</time>
      </trkpt>
      <trkpt lat="45.4468" lon="7.02401">
        <ele>2245</ele>
        <time>2019-04-22T19:29:51Z</time>
      </trkpt>
      <trkpt lat="45.44681" lon="7.0241">
        <ele>2246</ele>
        <time>2019-04-22T19:30:51Z</time>
      </trkpt>
      <trkpt lat="45.44678" lon="7.02419">
        <ele>2249</ele>
        <time>2019-04-22T19:31:51Z</time>
      </trkpt>
      <trkpt lat="45.44667" lon="7.02417">
        <ele>2255</ele>
        <time>2019-04-22T19:32:51Z</time>
      </trkpt>
      <trkpt lat="45.44626" lon="7.0232">
        <ele>2256</ele>
        <time>2019-04-22T19:33:51Z</time>
      </trkpt>
      <trkpt lat="45.44542" lon="7.02231">
        <ele>2269</ele>
        <time>2019-04-22T19:34:51Z</time>
      </trkpt>
      <trkpt lat="45.4452" lon="7.02196">
        <ele>2272</ele>
        <time>2019-04-22T19:35:51Z</time>
      </trkpt>
      <trkpt lat="45.44514" lon="7.02174">
        <ele>2271</ele>
        <time>2019-04-22T19:36:51Z</time>
      </trkpt>
      <trkpt lat="45.4448" lon="7.02104">
        <ele>2275</ele>
        <time>2019-04-22T19:37:51Z</time>
      </trkpt>
      <trkpt lat="45.44402" lon="7.01977">
        <ele>2284</ele>
        <time>2019-04-22T19:38:51Z</time>
      </trkpt>
      <trkpt lat="45.44375" lon="7.01942">
        <ele>2285</ele>
        <time>2019-04-22T19:39:51Z</time>
      </trkpt>
      <trkpt lat="45.44304" lon="7.01885">
        <ele>2300</ele>
        <time>2019-04-22T19:40:51Z</time>
      </trkpt>
      <trkpt lat="45.44276" lon="7.01849">
        <ele>2310</ele>
        <time>2019-04-22T19:41:51Z</time>
      </trkpt>
      <trkpt lat="45.44274" lon="7.01832">
        <ele>2310</ele>
        <time>2019-04-22T19:42:51Z</time>
      </trkpt>
      <trkpt lat="45.44292" lon="7.01767">
        <ele>2298</ele>
        <time>2019-04-22T19:43:51Z</time>
      </trkpt>
      <trkpt lat="45.44293" lon="7.01749">
        <ele>2296</ele>
        <time>2019-04-22T19:44:51Z</time>
      </trkpt>
      <trkpt lat="45.44283" lon="7.01711">
        <ele>2292</ele>
        <time>2019-04-22T19:45:51Z</time>
      </trkpt>
      <trkpt lat="45.44249" lon="7.01676">
        <ele>2299</ele>
        <time>2019-04-22T19:46:51Z</time>
      </trkpt>
      <trkpt lat="45.44197" lon="7.01675">
        <ele>2309</ele>
        <time>2019-04-22T19:47:51Z</time>
      </trkpt>
      <trkpt lat="45.44187" lon="7.01667">
        <ele>2310</ele>
        <time>2019-04-22T19:48:51Z</time>
      </trkpt>
      <trkpt lat="45.44178" lon="7.01648">
        <ele>2312</ele>
        <time>2019-04-22T19:49:51Z</time>
      </trkpt>
      <trkpt lat="45.44177" lon="7.01614">
        <ele>2312</ele>
        <time>2019-04-22T19:50:51Z</time>
      </trkpt>
      <trkpt lat="45.44179" lon="7.0157">
        <ele>2312</ele>
        <time>2019-04-22T19:51:51Z</time>
      </trkpt>
      <trkpt lat="45.44183" lon="7.01517">
        <ele>2311</ele>
        <time>2019-04-22T19:52:51Z</time>
      </trkpt>
      <trkpt lat="45.44197" lon="7.01461">
        <ele>2306</ele>
        <time>2019-04-22T19:53:51Z</time>
      </trkpt>
      <trkpt lat="45.44211" lon="7.01376">
        <ele>2309</ele>
        <time>2019-04-22T19:54:51Z</time>
      </trkpt>
      <trkpt lat="45.44211" lon="7.01351">
        <ele>2313</ele>
        <time>2019-04-22T19:55:51Z</time>
      </trkpt>
      <trkpt lat="45.44193" lon="7.01238">
        <ele>2329</ele>
        <time>2019-04-22T19:56:51Z</time>
      </trkpt>
      <trkpt lat="45.44193" lon="7.01214">
        <ele>2330</ele>
        <time>2019-04-22T19:57:51Z</time>
      </trkpt>
      <trkpt lat="45.44196" lon="7.01167">
        <ele>2329</ele>
        <time>2019-04-22T19:58:51Z</time>
      </trkpt>
      <trkpt lat="45.44191" lon="7.01134">
        <ele>2327</ele>
        <time>2019-04-22T19:59:51Z</time>
      </trkpt>
      <trkpt lat="45.44158" lon="7.01014">
        <ele>2324</ele>
        <time>2019-04-22T20:00:51Z</time>
      </trkpt>
      <trkpt lat="45.44146" lon="7.00955">
        <ele>2328</ele>
        <time>2019-04-22T20:01:51Z</time>
      </trkpt>
      <trkpt lat="45.44138" lon="7.00889">
        <ele>2326</ele>
        <time>2019-04-22T20:02:51Z</time>
      </trkpt>
      <trkpt lat="45.44132" lon="7.00858">
        <ele>2324</ele>
        <time>2019-04-22T20:03:51Z</time>
      </trkpt>
      <trkpt lat="45.44093" lon="7.00767">
        <ele>2327</ele>
        <time>2019-04-22T20:04:51Z</time>
      </trkpt>
      <trkpt lat="45.44037" lon="7.00664">
        <ele>2332</ele>
        <time>2019-04-22T20:05:51Z</time>
      </trkpt>
      <trkpt lat="45.44007" lon="7.00625">
        <ele>2333</ele>
        <time>2019-04-22T20:06:51Z</time>
      </trkpt>
      <trkpt lat="45.43946" lon="7.00579">
        <ele>2346</ele>
        <time>2019-04-22T20:07:51Z</time>
      </trkpt>
      <trkpt lat="45.439" lon="7.00526">
        <ele>2341</ele>
        <time>2019-04-22T20:08:51Z</time>
      </trkpt>
      <trkpt lat="45.43822" lon="7.00482">
        <ele>2346</ele>
        <time>2019-04-22T20:09:51Z</time>
      </trkpt>
      <trkpt lat="45.43751" lon="7.0043">
        <ele>2350</ele>
        <time>2019-04-22T20:10:51Z</time>
      </trkpt>
      <trkpt lat="45.43725" lon="7.00427">
        <ele>2360</ele>
        <time>2019-04-22T20:11:51Z</time>
      </trkpt>
      <trkpt lat="45.437" lon="7.00408">
        <ele>2363</ele>
        <time>2019-04-22T20:12:51Z</time>
      </trkpt>
      <trkpt lat="45.43643" lon="7.00338">
        <ele>2363</ele>
        <time>2019-04-22T20:13:51Z</time>
      </trkpt>
      <trkpt lat="45.43618" lon="7.00292">
        <ele>2361</ele>
        <time>2019-04-22T20:14:51Z</time>
      </trkpt>
      <trkpt lat="45.43523" lon="7.00229">
        <ele>2371</ele>
        <time>2019-04-22T20:15:51Z</time>
      </trkpt>
      <trkpt lat="45.4345" lon="7.0022">
        <ele>2384</ele>
        <time>2019-04-22T20:16:51Z</time>
      </trkpt>
      <trkpt lat="45.43407" lon="7.00202">
        <ele>2385</ele>
        <time>2019-04-22T20:17:51Z</time>
      </trkpt>
      <trkpt lat="45.4337" lon="7.00257">
        <ele>2402</ele>
        <time>2019-04-22T20:18:51Z</time>
      </trkpt>
      <trkpt lat="45.43352" lon="7.00259">
        <ele>2404</ele>
        <time>2019-04-22T20:19:51Z</time>
      </trkpt>
      <trkpt lat="45.433" lon="7.00229">
        <ele>2401</ele>
        <time>2019-04-22T20:20:51Z</time>
      </trkpt>
      <trkpt lat="45.43222" lon="7.00208">
        <ele>2408</ele>
        <time>2019-04-22T20:21:51Z</time>
      </trkpt>
      <trkpt lat="45.43199" lon="7.0018">
        <ele>2407</ele>
        <time>2019-04-22T20:22:51Z</time>
      </trkpt>
      <trkpt lat="45.43175" lon="7.00169">
        <ele>2410</ele>
        <time>2019-04-22T20:23:51Z</time>
      </trkpt>
      <trkpt lat="45.4315" lon="7.0017">
        <ele>2417</ele>
        <time>2019-04-22T20:24:51Z</time>
      </trkpt>
      <trkpt lat="45.43118" lon="7.0019">
        <ele>2429</ele>
        <time>2019-04-22T20:25:51Z</time>
      </trkpt>
      <trkpt lat="45.43116" lon="7.00213">
        <ele>2432</ele>
        <time>2019-04-22T20:26:51Z</time>
      </trkpt>
      <trkpt lat="45.43119" lon="7.00245">
        <ele>2433</ele>
        <time>2019-04-22T20:27:51Z</time>
      </trkpt>
      <trkpt lat="45.43126" lon="7.00269">
        <ele>2435</ele>
        <time>2019-04-22T20:28:51Z</time>
      </trkpt>
      <trkpt lat="45.43141" lon="7.00282">
        <ele>2432</ele>
        <time>2019-04-22T20:29:51Z</time>
      </trkpt>
      <trkpt lat="45.43156" lon="7.00292">
        <ele>2428</ele>
        <time>2019-04-22T20:30:51Z</time>
      </trkpt>
      <trkpt lat="45.43216" lon="7.00292">
        <ele>2423</ele>
        <time>2019-04-22T20:31:51Z</time>
      </trkpt>
      <trkpt lat="45.43286" lon="7.00336">
        <ele>2429</ele>
        <time>2019-04-22T20:32:51Z</time>
      </trkpt>
      <trkpt lat="45.43352" lon="7.0033">
        <ele>2423</ele>
        <time>2019-04-22T20:33:51Z</time>
      </trkpt>
      <trkpt lat="45.4336" lon="7.00333">
        <ele>2424</ele>
        <time>2019-04-22T20:34:51Z</time>
      </trkpt>
      <trkpt lat="45.4336" lon="7.00348">
        <ele>2427</ele>
        <time>2019-04-22T20:35:51Z</time>
      </trkpt>
      <trkpt lat="45.43366" lon="7.00365">
        <ele>2430</ele>
        <time>2019-04-22T20:36:51Z</time>
      </trkpt>
      <trkpt lat="45.43414" lon="7.00441">
        <ele>2441</ele>
        <time>2019-04-22T20:37:51Z</time>
      </trkpt>
      <trkpt lat="45.43453" lon="7.00484">
        <ele>2447</ele>
        <time>2019-04-22T20:38:51Z</time>
      </trkpt>
      <trkpt lat="45.43505" lon="7.00506">
        <ele>2450</ele>
        <time>2019-04-22T20:39:51Z</time>
      </trkpt>
      <trkpt lat="45.43571" lon="7.00517">
        <ele>2447</ele>
        <time>2019-04-22T20:40:51Z</time>
      </trkpt>
      <trkpt lat="45.43606" lon="7.00551">
        <ele>2452</ele>
        <time>2019-04-22T20:41:51Z</time>
      </trkpt>
      <trkpt lat="45.43636" lon="7.00575">
        <ele>2455</ele>
        <time>2019-04-22T20:42:51Z</time>
      </trkpt>
      <trkpt lat="45.43716" lon="7.00631">
        <ele>2450</ele>
        <time>2019-04-22T20:43:51Z</time>
      </trkpt>
      <trkpt lat="45.43719" lon="7.00639">
        <ele>2452</ele>
        <time>2019-04-22T20:44:51Z</time>
      </trkpt>
      <trkpt lat="45.43718" lon="7.00649">
        <ele>2456</ele>
        <time>2019-04-22T20:45:51Z</time>
      </trkpt>
      <trkpt lat="45.43708" lon="7.00653">
        <ele>2461</ele>
        <time>2019-04-22T20:46:51Z</time>
      </trkpt>
      <trkpt lat="45.43689" lon="7.00637">
        <ele>2462</ele>
        <time>2019-04-22T20:47:51Z</time>
      </trkpt>
      <trkpt lat="45.43569" lon="7.00574">
        <ele>2467</ele>
        <time>2019-04-22T20:48:51Z</time>
      </trkpt>
      <trkpt lat="45.43516" lon="7.00581">
        <ele>2475</ele>
        <time>2019-04-22T20:49:51Z</time>
      </trkpt>
      <trkpt lat="45.43471" lon="7.00601">
        <ele>2485</ele>
        <time>2019-04-22T20:50:51Z</time>
      </trkpt>
      <trkpt lat="45.43423" lon="7.00598">
        <ele>2485</ele>
        <time>2019-04-22T20:51:51Z</time>
      </trkpt>
      <trkpt lat="45.43419" lon="7.00607">
        <ele>2488</ele>
        <time>2019-04-22T20:52:51Z</time>
      </trkpt>
      <trkpt lat="45.43421" lon="7.00616">
        <ele>2491</ele>
        <time>2019-04-22T20:53:51Z</time>
      </trkpt>
      <trkpt lat="45.43483" lon="7.00632">
        <ele>2495</ele>
        <time>2019-04-22T20:54:51Z</time>
      </trkpt>
      <trkpt lat="45.43502" lon="7.00619">
        <ele>2490</ele>
        <time>2019-04-22T20:55:51Z</time>
      </trkpt>
      <trkpt lat="45.43533" lon="7.00618">
        <ele>2487</ele>
        <time>2019-04-22T20:56:51Z</time>
      </trkpt>
      <trkpt lat="45.43569" lon="7.00656">
        <ele>2497</ele>
        <time>2019-04-22T20:57:51Z</time>
      </trkpt>
      <trkpt lat="45.43609" lon="7.00676">
        <ele>2497</ele>
        <time>2019-04-22T20:58:51Z</time>
      </trkpt>
      <trkpt lat="45.43674" lon="7.00773">
        <ele>2510</ele>
        <time>2019-04-22T20:59:51Z</time>
      </trkpt>
      <trkpt lat="45.43712" lon="7.0084">
        <ele>2519</ele>
        <time>2019-04-22T21:00:51Z</time>
      </trkpt>
      <trkpt lat="45.43794" lon="7.00913">
        <ele>2508</ele>
        <time>2019-04-22T21:01:51Z</time>
      </trkpt>
      <trkpt lat="45.43827" lon="7.00956">
        <ele>2509</ele>
        <time>2019-04-22T21:02:51Z</time>
      </trkpt>
      <trkpt lat="45.43843" lon="7.00983">
        <ele>2513</ele>
        <time>2019-04-22T21:03:51Z</time>
      </trkpt>
      <trkpt lat="45.43858" lon="7.01019">
        <ele>2517</ele>
        <time>2019-04-22T21:04:51Z</time>
      </trkpt>
      <trkpt lat="45.43858" lon="7.01046">
        <ele>2520</ele>
        <time>2019-04-22T21:05:51Z</time>
      </trkpt>
      <trkpt lat="45.4384" lon="7.01047">
        <ele>2522</ele>
        <time>2019-04-22T21:06:51Z</time>
      </trkpt>
      <trkpt lat="45.43819" lon="7.01032">
        <ele>2526</ele>
        <time>2019-04-22T21:07:51Z</time>
      </trkpt>
      <trkpt lat="45.43805" lon="7.01029">
        <ele>2530</ele>
        <time>2019-04-22T21:08:51Z</time>
      </trkpt>
      <trkpt lat="45.4379" lon="7.01044">
        <ele>2535</ele>
        <time>2019-04-22T21:09:51Z</time>
      </trkpt>
      <trkpt lat="45.43762" lon="7.01108">
        <ele>2541</ele>
        <time>2019-04-22T21:10:51Z</time>
      </trkpt>
      <trkpt lat="45.43743" lon="7.01163">
        <ele>2540</ele>
        <time>2019-04-22T21:11:51Z</time>
      </trkpt>
      <trkpt lat="45.43722" lon="7.01186">
        <ele>2547</ele>
        <time>2019-04-22T21:12:51Z</time>
      </trkpt>
      <trkpt lat="45.43712" lon="7.01207">
        <ele>2549</ele>
        <time>2019-04-22T21:13:51Z</time>
      </trkpt>
      <trkpt lat="45.43712" lon="7.01235">
        <ele>2548</ele>
        <time>2019-04-22T21:14:51Z</time>
      </trkpt>
      <trkpt lat="45.43702" lon="7.01264">
        <ele>2548</ele>
        <time>2019-04-22T21:15:51Z</time>
      </trkpt>
      <trkpt lat="45.43687" lon="7.01283">
        <ele>2550</ele>
        <time>2019-04-22T21:16:51Z</time>
      </trkpt>
      <trkpt lat="45.43622" lon="7.01379">
        <ele>2549</ele>
        <time>2019-04-22T21:17:51Z</time>
      </trkpt>
      <trkpt lat="45.43607" lon="7.01389">
        <ele>2551</ele>
        <time>2019-04-22T21:18:51Z</time>
      </trkpt>
      <trkpt lat="45.4359" lon="7.01389">
        <ele>2554</ele>
        <time>2019-04-22T21:19:51Z</time>
      </trkpt>
      <trkpt lat="45.43557" lon="7.01379">
        <ele>2562</ele>
        <time>2019-04-22T21:20:51Z</time>
      </trkpt>
      <trkpt lat="45.43489" lon="7.01445">
        <ele>2564</ele>
        <time>2019-04-22T21:21:51Z</time>
      </trkpt>
      <trkpt lat="45.43384" lon="7.01525">
        <ele>2578</ele>
        <time>2019-04-22T21:22:51Z</time>
      </trkpt>
      <trkpt lat="45.43318" lon="7.0166">
        <ele>2578</ele>
        <time>2019-04-22T21:23:51Z</time>
      </trkpt>
      <trkpt lat="45.43298" lon="7.0171">
        <ele>2575</ele>
        <time>2019-04-22T21:24:51Z</time>
      </trkpt>
      <trkpt lat="45.4328" lon="7.01732">
        <ele>2576</ele>
        <time>2019-04-22T21:25:51Z</time>
      </trkpt>
      <trkpt lat="45.43235" lon="7.01773">
        <ele>2581</ele>
        <time>2019-04-22T21:26:51Z</time>
      </trkpt>
      <trkpt lat="45.43185" lon="7.01824">
        <ele>2582</ele>
        <time>2019-04-22T21:27:51Z</time>
      </trkpt>
      <trkpt lat="45.43153" lon="7.01841">
        <ele>2587</ele>
        <time>2019-04-22T21:28:51Z</time>
      </trkpt>
      <trkpt lat="45.43042" lon="7.01907">
        <ele>2602</ele>
        <time>2019-04-22T21:29:51Z</time>
      </trkpt>
      <trkpt lat="45.42898" lon="7.02107">
        <ele>2610</ele>
        <time>2019-04-22T21:30:51Z</time>
      </trkpt>
      <trkpt lat="45.42881" lon="7.02122">
        <ele>2611</ele>
        <time>2019-04-22T21:31:51Z</time>
      </trkpt>
      <trkpt lat="45.4286" lon="7.02133">
        <ele>2614</ele>
        <time>2019-04-22T21:32:51Z</time>
      </trkpt>
      <trkpt lat="45.4268" lon="7.02213">
        <ele>2627</ele>
        <time>2019-04-22T21:33:51Z</time>
      </trkpt>
      <trkpt lat="45.42635" lon="7.02247">
        <ele>2631</ele>
        <time>2019-04-22T21:34:51Z</time>
      </trkpt>
      <trkpt lat="45.42596" lon="7.02272">
        <ele>2634</ele>
        <time>2019-04-22T21:35:51Z</time>
      </trkpt>
      <trkpt lat="45.42523" lon="7.02265">
        <ele>2641</ele>
        <time>2019-04-22T21:36:51Z</time>
      </trkpt>
      <trkpt lat="45.42423" lon="7.02278">
        <ele>2650</ele>
        <time>2019-04-22T21:37:51Z</time>
      </trkpt>
      <trkpt lat="45.42394" lon="7.02291">
        <ele>2655</ele>
        <time>2019-04-22T21:38:51Z</time>
      </trkpt>
      <trkpt lat="45.42375" lon="7.02313">
        <ele>2657</ele>
        <time>2019-04-22T21:39:51Z</time>
      </trkpt>
      <trkpt lat="45.42363" lon="7.02333">
        <ele>2657</ele>
        <time>2019-04-22T21:40:51Z</time>
      </trkpt>
      <trkpt lat="45.42358" lon="7.02356">
        <ele>2658</ele>
        <time>2019-04-22T21:41:51Z</time>
      </trkpt>
      <trkpt lat="45.4236" lon="7.02386">
        <ele>2659</ele>
        <time>2019-04-22T21:42:51Z</time>
      </trkpt>
      <trkpt lat="45.42371" lon="7.02446">
        <ele>2658</ele>
        <time>2019-04-22T21:43:51Z</time>
      </trkpt>
      <trkpt lat="45.42371" lon="7.02473">
        <ele>2660</ele>
        <time>2019-04-22T21:44:51Z</time>
      </trkpt>
      <trkpt lat="45.42367" lon="7.02515">
        <ele>2663</ele>
        <time>2019-04-22T21:45:51Z</time>
      </trkpt>
      <trkpt lat="45.4236" lon="7.0253">
        <ele>2665</ele>
        <time>2019-04-22T21:46:51Z</time>
      </trkpt>
      <trkpt lat="45.42342" lon="7.026">
        <ele>2670</ele>
        <time>2019-04-22T21:47:51Z</time>
      </trkpt>
      <trkpt lat="45.42338" lon="7.02628">
        <ele>2674</ele>
        <time>2019-04-22T21:48:51Z</time>
      </trkpt>
      <trkpt lat="45.42345" lon="7.02659">
        <ele>2676</ele>
        <time>2019-04-22T21:49:51Z</time>
      </trkpt>
      <trkpt lat="45.42346" lon="7.02681">
        <ele>2677</ele>
        <time>2019-04-22T21:50:51Z</time>
      </trkpt>
      <trkpt lat="45.42343" lon="7.02696">
        <ele>2678</ele>
        <time>2019-04-22T21:51:51Z</time>
      </trkpt>
      <trkpt lat="45.42313" lon="7.02775">
        <ele>2684</ele>
        <time>2019-04-22T21:52:51Z</time>
      </trkpt>
      <trkpt lat="45.42282" lon="7.02832">
        <ele>2689</ele>
        <time>2019-04-22T21:53:51Z</time>
      </trkpt>
      <trkpt lat="45.42247" lon="7.02876">
        <ele>2696</ele>
        <time>2019-04-22T21:54:51Z</time>
      </trkpt>
      <trkpt lat="45.42232" lon="7.02881">
        <ele>2698</ele>
        <time>2019-04-22T21:55:51Z</time>
      </trkpt>
      <trkpt lat="45.42221" lon="7.02878">
        <ele>2698</ele>
        <time>2019-04-22T21:56:51Z</time>
      </trkpt>
      <trkpt lat="45.42215" lon="7.02874">
        <ele>2699</ele>
        <time>2019-04-22T21:57:51Z</time>
      </trkpt>
      <trkpt lat="45.4212" lon="7.02755">
        <ele>2704</ele>
        <time>2019-04-22T21:58:51Z</time>
      </trkpt>
      <trkpt lat="45.42109" lon="7.02745">
        <ele>2705</ele>
        <time>2019-04-22T21:59:51Z</time>
      </trkpt>
      <trkpt lat="45.42099" lon="7.02743">
        <ele>2705</ele>
        <time>2019-04-22T22:00:51Z</time>
      </trkpt>
      <trkpt lat="45.4209" lon="7.02745">
        <ele>2705</ele>
        <time>2019-04-22T22:01:51Z</time>
      </trkpt>
      <trkpt lat="45.42083" lon="7.02753">
        <ele>2706</ele>
        <time>2019-04-22T22:02:51Z</time>
      </trkpt>
      <trkpt lat="45.42076" lon="7.02769">
        <ele>2708</ele>
        <time>2019-04-22T22:03:51Z</time>
      </trkpt>
      <trkpt lat="45.42046" lon="7.02849">
        <ele>2714</ele>
        <time>2019-04-22T22:04:51Z</time>
      </trkpt>
      <trkpt lat="45.4204" lon="7.0286">
        <ele>2716</ele>
        <time>2019-04-22T22:05:51Z</time>
      </trkpt>
      <trkpt lat="45.4203" lon="7.02872">
        <ele>2718</ele>
        <time>2019-04-22T22:06:51Z</time>
      </trkpt>
      <trkpt lat="45.42022" lon="7.02877">
        <ele>2719</ele>
        <time>2019-04-22T22:07:51Z</time>
      </trkpt>
      <trkpt lat="45.42016" lon="7.02881">
        <ele>2719</ele>
        <time>2019-04-22T22:08:51Z</time>
      </trkpt>
      <trkpt lat="45.41996" lon="7.02883">
        <ele>2721</ele>
        <time>2019-04-22T22:09:51Z</time>
      </trkpt>
      <trkpt lat="45.41885" lon="7.0287">
        <ele>2730</ele>
        <time>2019-04-22T22:10:51Z</time>
      </trkpt>
      <trkpt lat="45.41874" lon="7.02874">
        <ele>2731</ele>
        <time>2019-04-22T22:11:51Z</time>
      </trkpt>
      <trkpt lat="45.41869" lon="7.02881">
        <ele>2732</ele>
        <time>2019-04-22T22:12:51Z</time>
      </trkpt>
      <trkpt lat="45.41869" lon="7.02888">
        <ele>2733</ele>
        <time>2019-04-22T22:13:51Z</time>
      </trkpt>
      <trkpt lat="45.41871" lon="7.02894">
        <ele>2733</ele>
        <time>2019-04-22T22:14:51Z</time>
      </trkpt>
      <trkpt lat="45.41878" lon="7.02901">
        <ele>2733</ele>
        <time>2019-04-22T22:15:51Z</time>
      </trkpt>
      <trkpt lat="45.41896" lon="7.02903">
        <ele>2732</ele>
        <time>2019-04-22T22:16:51Z</time>
      </trkpt>
      <trkpt lat="45.41902" lon="7.02908">
        <ele>2732</ele>
        <time>2019-04-22T22:17:51Z</time>
      </trkpt>
      <trkpt lat="45.41908" lon="7.02917">
        <ele>2732</ele>
        <time>2019-04-22T22:18:51Z</time>
      </trkpt>
      <trkpt lat="45.41929" lon="7.02967">
        <ele>2740</ele>
        <time>2019-04-22T22:19:51Z</time>
      </trkpt>
      <trkpt lat="45.41936" lon="7.02987">
        <ele>2743</ele>
        <time>2019-04-22T22:20:51Z</time>
      </trkpt>
      <trkpt lat="45.41939" lon="7.03005">
        <ele>2747</ele>
        <time>2019-04-22T22:21:51Z</time>
      </trkpt>
      <trkpt lat="45.41938" lon="7.03013">
        <ele>2748</ele>
        <time>2019-04-22T22:22:51Z</time>
      </trkpt>
      <trkpt lat="45.41934" lon="7.03019">
        <ele>2750</ele>
        <time>2019-04-22T22:23:51Z</time>
      </trkpt>
      <trkpt lat="45.41926" lon="7.03019">
        <ele>2750</ele>
        <time>2019-04-22T22:24:51Z</time>
      </trkpt>
      <trkpt lat="45.4192" lon="7.03009">
        <ele>2748</ele>
        <time>2019-04-22T22:25:51Z</time>
      </trkpt>
      <trkpt lat="45.41914" lon="7.02989">
        <ele>2744</ele>
        <time>2019-04-22T22:26:51Z</time>
      </trkpt>
      <trkpt lat="45.41909" lon="7.02981">
        <ele>2743</ele>
        <time>2019-04-22T22:27:51Z</time>
      </trkpt>
      <trkpt lat="45.419" lon="7.02972">
        <ele>2742</ele>
        <time>2019-04-22T22:28:51Z</time>
      </trkpt>
      <trkpt lat="45.41879" lon="7.02967">
        <ele>2743</ele>
        <time>2019-04-22T22:29:51Z</time>
      </trkpt>
      <trkpt lat="45.41867" lon="7.02972">
        <ele>2745</ele>
        <time>2019-04-22T22:30:51Z</time>
      </trkpt>
      <trkpt lat="45.41856" lon="7.02984">
        <ele>2748</ele>
        <time>2019-04-22T22:31:51Z</time>
      </trkpt>
      <trkpt lat="45.41823" lon="7.03032">
        <ele>2756</ele>
        <time>2019-04-22T22:32:51Z</time>
      </trkpt>
      <trkpt lat="45.41806" lon="7.03043">
        <ele>2758</ele>
        <time>2019-04-22T22:33:51Z</time>
      </trkpt>
      <trkpt lat="45.41739" lon="7.0306">
        <ele>2761</ele>
        <time>2019-04-22T22:34:51Z</time>
      </trkpt>
      <trkpt lat="45.41724" lon="7.03068">
        <ele>2762</ele>
        <time>2019-04-22T22:35:51Z</time>
      </trkpt>
      <trkpt lat="45.41719" lon="7.03073">
        <ele>2762</ele>
        <time>2019-04-22T22:36:51Z</time>
      </trkpt>
      <trkpt lat="45.41711" lon="7.03083">
        <ele>2762</ele>
        <time>2019-04-22T22:37:51Z</time>
      </trkpt>
      <trkpt lat="45.41704" lon="7.03098">
        <ele>2761</ele>
        <time>2019-04-22T22:38:51Z</time>
      </trkpt>
      <trkpt lat="45.41697" lon="7.03121">
        <ele>2759</ele>
        <time>2019-04-22T22:39:51Z</time>
      </trkpt>
      <trkpt lat="45.41694" lon="7.03134">
        <ele>2758</ele>
        <time>2019-04-22T22:40:51Z</time>
      </trkpt>
      <trkpt lat="45.41694" lon="7.03148">
        <ele>2757</ele>
        <time>2019-04-22T22:41:51Z</time>
      </trkpt>
      <trkpt lat="45.41695" lon="7.03164">
        <ele>2756</ele>
        <time>2019-04-22T22:42:51Z</time>
      </trkpt>
      <trkpt lat="45.417" lon="7.03176">
        <ele>2753</ele>
        <time>2019-04-22T22:43:51Z</time>
      </trkpt>
      <trkpt lat="45.41708" lon="7.03187">
        <ele>2751</ele>
        <time>2019-04-22T22:44:51Z</time>
      </trkpt>
      <trkpt lat="45.41722" lon="7.03196">
        <ele>2750</ele>
        <time>2019-04-22T22:45:51Z</time>
      </trkpt>
      <trkpt lat="45.41773" lon="7.03208">
        <ele>2753</ele>
        <time>2019-04-22T22:46:51Z</time>
      </trkpt>
      <trkpt lat="45.41785" lon="7.03216">
        <ele>2752</ele>
        <time>2019-04-22T22:47:51Z</time>
      </trkpt>
      <trkpt lat="45.41807" lon="7.03238">
        <ele>2751</ele>
        <time>2019-04-22T22:48:51Z</time>
      </trkpt>
      <trkpt lat="45.41836" lon="7.03258">
        <ele>2751</ele>
        <time>2019-04-22T22:49:51Z</time>
      </trkpt>
      <trkpt lat="45.41859" lon="7.0327">
        <ele>2752</ele>
        <time>2019-04-22T22:50:51Z</time>
      </trkpt>
      <trkpt lat="45.41873" lon="7.03283">
        <ele>2752</ele>
        <time>2019-04-22T22:51:51Z</time>
      </trkpt>
      <trkpt lat="45.41881" lon="7.03307">
        <ele>2749</ele>
        <time>2019-04-22T22:52:51Z</time>
      </trkpt>
      <trkpt lat="45.41899" lon="7.03456">
        <ele>2729</ele>
        <time>2019-04-22T22:53:51Z</time>
      </trkpt>
      <trkpt lat="45.41906" lon="7.03487">
        <ele>2724</ele>
        <time>2019-04-22T22:54:51Z</time>
      </trkpt>
      <trkpt lat="45.4191" lon="7.03498">
        <ele>2723</ele>
        <time>2019-04-22T22:55:51Z</time>
      </trkpt>
      <trkpt lat="45.41915" lon="7.03511">
        <ele>2722</ele>
        <time>2019-04-22T22:56:51Z</time>
      </trkpt>
      <trkpt lat="45.41973" lon="7.03604">
        <ele>2718</ele>
        <time>2019-04-22T22:57:51Z</time>
      </trkpt>
      <trkpt lat="45.41993" lon="7.03633">
        <ele>2716</ele>
        <time>2019-04-22T22:58:51Z</time>
      </trkpt>
      <trkpt lat="45.42043" lon="7.03693">
        <ele>2718</ele>
        <time>2019-04-22T22:59:51Z</time>
      </trkpt>
      <trkpt lat="45.4207" lon="7.03733">
        <ele>2720</ele>
        <time>2019-04-22T23:00:51Z</time>
      </trkpt>
      <trkpt lat="45.42074" lon="7.03745">
        <ele>2719</ele>
        <time>2019-04-22T23:01:51Z</time>
      </trkpt>
      <trkpt lat="45.42074" lon="7.03751">
        <ele>2717</ele>
        <time>2019-04-22T23:02:51Z</time>
      </trkpt>
      <trkpt lat="45.42072" lon="7.03754">
        <ele>2716</ele>
        <time>2019-04-22T23:03:51Z</time>
      </trkpt>
      <trkpt lat="45.42067" lon="7.03759">
        <ele>2714</ele>
        <time>2019-04-22T23:04:51Z</time>
      </trkpt>
      <trkpt lat="45.4206" lon="7.03758">
        <ele>2711</ele>
        <time>2019-04-22T23:05:51Z</time>
      </trkpt>
      <trkpt lat="45.42053" lon="7.03753">
        <ele>2709</ele>
        <time>2019-04-22T23:06:51Z</time>
      </trkpt>
      <trkpt lat="45.42035" lon="7.03719">
        <ele>2710</ele>
        <time>2019-04-22T23:07:51Z</time>
      </trkpt>
      <trkpt lat="45.42027" lon="7.03706">
        <ele>2709</ele>
        <time>2019-04-22T23:08:51Z</time>
      </trkpt>
      <trkpt lat="45.42014" lon="7.03692">
        <ele>2708</ele>
        <time>2019-04-22T23:09:51Z</time>
      </trkpt>
      <trkpt lat="45.4198" lon="7.03662">
        <ele>2703</ele>
        <time>2019-04-22T23:10:51Z</time>
      </trkpt>
      <trkpt lat="45.41966" lon="7.03653">
        <ele>2701</ele>
        <time>2019-04-22T23:11:51Z</time>
      </trkpt>
      <trkpt lat="45.41929" lon="7.03635">
        <ele>2694</ele>
        <time>2019-04-22T23:12:51Z</time>
      </trkpt>
      <trkpt lat="45.41919" lon="7.03627">
        <ele>2692</ele>
        <time>2019-04-22T23:13:51Z</time>
      </trkpt>
      <trkpt lat="45.41862" lon="7.03574">
        <ele>2687</ele>
        <time>2019-04-22T23:14:51Z</time>
      </trkpt>
      <trkpt lat="45.41844" lon="7.03552">
        <ele>2687</ele>
        <time>2019-04-22T23:15:51Z</time>
      </trkpt>
      <trkpt lat="45.41824" lon="7.03534">
        <ele>2686</ele>
        <time>2019-04-22T23:16:51Z</time>
      </trkpt>
      <trkpt lat="45.41803" lon="7.03518">
        <ele>2684</ele>
        <time>2019-04-22T23:17:51Z</time>
      </trkpt>
      <trkpt lat="45.41791" lon="7.03513">
        <ele>2682</ele>
        <time>2019-04-22T23:18:51Z</time>
      </trkpt>
      <trkpt lat="45.41758" lon="7.03514">
        <ele>2672</ele>
        <time>2019-04-22T23:19:51Z</time>
      </trkpt>
      <trkpt lat="45.41748" lon="7.03511">
        <ele>2670</ele>
        <time>2019-04-22T23:20:51Z</time>
      </trkpt>
      <trkpt lat="45.4174" lon="7.03507">
        <ele>2669</ele>
        <time>2019-04-22T23:21:51Z</time>
      </trkpt>
      <trkpt lat="45.41715" lon="7.03489">
        <ele>2665</ele>
        <time>2019-04-22T23:22:51Z</time>
      </trkpt>
      <trkpt lat="45.41705" lon="7.03479">
        <ele>2664</ele>
        <time>2019-04-22T23:23:51Z</time>
      </trkpt>
      <trkpt lat="45.41685" lon="7.03442">
        <ele>2665</ele>
        <time>2019-04-22T23:24:51Z</time>
      </trkpt>
      <trkpt lat="45.41669" lon="7.03423">
        <ele>2664</ele>
        <time>2019-04-22T23:25:51Z</time>
      </trkpt>
      <trkpt lat="45.41654" lon="7.03408">
        <ele>2663</ele>
        <time>2019-04-22T23:26:51Z</time>
      </trkpt>
      <trkpt lat="45.41617" lon="7.03392">
        <ele>2656</ele>
        <time>2019-04-22T23:27:51Z</time>
      </trkpt>
      <trkpt lat="45.41555" lon="7.03352">
        <ele>2646</ele>
        <time>2019-04-22T23:28:51Z</time>
      </trkpt>
      <trkpt lat="45.41547" lon="7.03343">
        <ele>2645</ele>
        <time>2019-04-22T23:29:51Z</time>
      </trkpt>
      <trkpt lat="45.4153" lon="7.0331">
        <ele>2651</ele>
        <time>2019-04-22T23:30:51Z</time>
      </trkpt>
      <trkpt lat="45.41523" lon="7.03302">
        <ele>2651</ele>
        <time>2019-04-22T23:31:51Z</time>
      </trkpt>
      <trkpt lat="45.41473" lon="7.03267">
        <ele>2642</ele>
        <time>2019-04-22T23:32:51Z</time>
      </trkpt>
      <trkpt lat="45.41453" lon="7.03249">
        <ele>2638</ele>
        <time>2019-04-22T23:33:51Z</time>
      </trkpt>
      <trkpt lat="45.41436" lon="7.0323">
        <ele>2634</ele>
        <time>2019-04-22T23:34:51Z</time>
      </trkpt>
      <trkpt lat="45.41417" lon="7.03201">
        <ele>2631</ele>
        <time>2019-04-22T23:35:51Z</time>
      </trkpt>
      <trkpt lat="45.41386" lon="7.03143">
        <ele>2629</ele>
        <time>2019-04-22T23:36:51Z</time>
      </trkpt>
      <trkpt lat="45.41354" lon="7.03079">
        <ele>2626</ele>
        <time>2019-04-22T23:37:51Z</time>
      </trkpt>
      <trkpt lat="45.41315" lon="7.03027">
        <ele>2619</ele>
        <time>2019-04-22T23:38:51Z</time>
      </trkpt>
      <trkpt lat="45.41267" lon="7.02985">
        <ele>2610</ele>
        <time>2019-04-22T23:39:51Z</time>
      </trkpt>
      <trkpt lat="45.41243" lon="7.0297">
        <ele>2605</ele>
        <time>2019-04-22T23:40:51Z</time>
      </trkpt>
      <trkpt lat="45.41169" lon="7.02931">
        <ele>2592</ele>
        <time>2019-04-22T23:41:51Z</time>
      </trkpt>
      <trkpt lat="45.41138" lon="7.02919">
        <ele>2587</ele>
        <time>2019-04-22T23:42:51Z</time>
      </trkpt>
      <trkpt lat="45.41122" lon="7.02911">
        <ele>2584</ele>
        <time>2019-04-22T23:43:51Z</time>
      </trkpt>
      <trkpt lat="45.41108" lon="7.02898">
        <ele>2583</ele>
        <time>2019-04-22T23:44:51Z</time>
      </trkpt>
      <trkpt lat="45.41077" lon="7.02861">
        <ele>2581</ele>
        <time>2019-04-22T23:45:51Z</time>
      </trkpt>
      <trkpt lat="45.41034" lon="7.02801">
        <ele>2577</ele>
        <time>2019-04-22T23:46:51Z</time>
      </trkpt>
      <trkpt lat="45.41019" lon="7.02784">
        <ele>2575</ele>
        <time>2019-04-22T23:47:51Z</time>
      </trkpt>
      <trkpt lat="45.41001" lon="7.0277">
        <ele>2571</ele>
        <time>2019-04-22T23:48:51Z</time>
      </trkpt>
      <trkpt lat="45.40961" lon="7.02755">
        <ele>2566</ele>
        <time>2019-04-22T23:49:51Z</time>
      </trkpt>
      <trkpt lat="45.40944" lon="7.02757">
        <ele>2562</ele>
        <time>2019-04-22T23:50:51Z</time>
      </trkpt>
      <trkpt lat="45.40928" lon="7.02763">
        <ele>2558</ele>
        <time>2019-04-22T23:51:51Z</time>
      </trkpt>
      <trkpt lat="45.40896" lon="7.02787">
        <ele>2551</ele>
        <time>2019-04-22T23:52:51Z</time>
      </trkpt>
      <trkpt lat="45.40878" lon="7.02796">
        <ele>2549</ele>
        <time>2019-04-22T23:53:51Z</time>
      </trkpt>
      <trkpt lat="45.4086" lon="7.02798">
        <ele>2547</ele>
        <time>2019-04-22T23:54:51Z</time>
      </trkpt>
      <trkpt lat="45.40843" lon="7.02795">
        <ele>2547</ele>
        <time>2019-04-22T23:55:51Z</time>
      </trkpt>
      <trkpt lat="45.40813" lon="7.02779">
        <ele>2546</ele>
        <time>2019-04-22T23:56:51Z</time>
      </trkpt>
      <trkpt lat="45.40795" lon="7.02774">
        <ele>2544</ele>
        <time>2019-04-22T23:57:51Z</time>
      </trkpt>
      <trkpt lat="45.40754" lon="7.02784">
        <ele>2536</ele>
        <time>2019-04-22T23:58:51Z</time>
      </trkpt>
      <trkpt lat="45.4074" lon="7.02783">
        <ele>2535</ele>
        <time>2019-04-22T23:59:51Z</time>
      </trkpt>
      <trkpt lat="45.40709" lon="7.0277">
        <ele>2536</ele>
        <time>2019-04-23T00:00:51Z</time>
      </trkpt>
      <trkpt lat="45.40695" lon="7.02769">
        <ele>2536</ele>
        <time>2019-04-23T00:01:51Z</time>
      </trkpt>
      <trkpt lat="45.40674" lon="7.0277">
        <ele>2535</ele>
        <time>2019-04-23T00:02:51Z</time>
      </trkpt>
      <trkpt lat="45.4065" lon="7.02783">
        <ele>2532</ele>
        <time>2019-04-23T00:03:51Z</time>
      </trkpt>
      <trkpt lat="45.40638" lon="7.02797">
        <ele>2530</ele>
        <time>2019-04-23T00:04:51Z</time>
      </trkpt>
      <trkpt lat="45.40627" lon="7.02817">
        <ele>2528</ele>
        <time>2019-04-23T00:05:51Z</time>
      </trkpt>
      <trkpt lat="45.40599" lon="7.0289">
        <ele>2530</ele>
        <time>2019-04-23T00:06:51Z</time>
      </trkpt>
      <trkpt lat="45.40593" lon="7.029">
        <ele>2530</ele>
        <time>2019-04-23T00:07:51Z</time>
      </trkpt>
      <trkpt lat="45.40584" lon="7.02906">
        <ele>2530</ele>
        <time>2019-04-23T00:08:51Z</time>
      </trkpt>
      <trkpt lat="45.40564" lon="7.02912">
        <ele>2526</ele>
        <time>2019-04-23T00:09:51Z</time>
      </trkpt>
      <trkpt lat="45.40551" lon="7.0292">
        <ele>2524</ele>
        <time>2019-04-23T00:10:51Z</time>
      </trkpt>
      <trkpt lat="45.40539" lon="7.02933">
        <ele>2523</ele>
        <time>2019-04-23T00:11:51Z</time>
      </trkpt>
      <trkpt lat="45.40519" lon="7.02959">
        <ele>2520</ele>
        <time>2019-04-23T00:12:51Z</time>
      </trkpt>
      <trkpt lat="45.40482" lon="7.03013">
        <ele>2511</ele>
        <time>2019-04-23T00:13:51Z</time>
      </trkpt>
      <trkpt lat="45.40476" lon="7.03031">
        <ele>2512</ele>
        <time>2019-04-23T00:14:51Z</time>
      </trkpt>
      <trkpt lat="45.40474" lon="7.03051">
        <ele>2514</ele>
        <time>2019-04-23T00:15:51Z</time>
      </trkpt>
      <trkpt lat="45.40476" lon="7.03066">
        <ele>2518</ele>
        <time>2019-04-23T00:16:51Z</time>
      </trkpt>
      <trkpt lat="45.40483" lon="7.03087">
        <ele>2525</ele>
        <time>2019-04-23T00:17:51Z</time>
      </trkpt>
      <trkpt lat="45.40484" lon="7.03102">
        <ele>2529</ele>
        <time>2019-04-23T00:18:51Z</time>
      </trkpt>
      <trkpt lat="45.4048" lon="7.03122">
        <ele>2531</ele>
        <time>2019-04-23T00:19:51Z</time>
      </trkpt>
      <trkpt lat="45.40468" lon="7.0315">
        <ele>2529</ele>
        <time>2019-04-23T00:20:51Z</time>
      </trkpt>
      <trkpt lat="45.40432" lon="7.03208">
        <ele>2524</ele>
        <time>2019-04-23T00:21:51Z</time>
      </trkpt>
      <trkpt lat="45.40419" lon="7.03217">
        <ele>2519</ele>
        <time>2019-04-23T00:22:51Z</time>
      </trkpt>
      <trkpt lat="45.40406" lon="7.0322">
        <ele>2514</ele>
        <time>2019-04-23T00:23:51Z</time>
      </trkpt>
      <trkpt lat="45.40387" lon="7.03229">
        <ele>2507</ele>
        <time>2019-04-23T00:24:51Z</time>
      </trkpt>
      <trkpt lat="45.40329" lon="7.03283">
        <ele>2499</ele>
        <time>2019-04-23T00:25:51Z</time>
      </trkpt>
      <trkpt lat="45.40312" lon="7.03306">
        <ele>2502</ele>
        <time>2019-04-23T00:26:51Z</time>
      </trkpt>
      <trkpt lat="45.40299" lon="7.03328">
        <ele>2504</ele>
        <time>2019-04-23T00:27:51Z</time>
      </trkpt>
      <trkpt lat="45.40292" lon="7.03353">
        <ele>2505</ele>
        <time>2019-04-23T00:28:51Z</time>
      </trkpt>
      <trkpt lat="45.40253" lon="7.03505">
        <ele>2505</ele>
        <time>2019-04-23T00:29:51Z</time>
      </trkpt>
      <trkpt lat="45.40244" lon="7.03531">
        <ele>2506</ele>
        <time>2019-04-23T00:30:51Z</time>
      </trkpt>
      <trkpt lat="45.40234" lon="7.03547">
        <ele>2503</ele>
        <time>2019-04-23T00:31:51Z</time>
      </trkpt>
      <trkpt lat="45.40221" lon="7.03562">
        <ele>2497</ele>
        <time>2019-04-23T00:32:51Z</time>
      </trkpt>
      <trkpt lat="45.40196" lon="7.03581">
        <ele>2483</ele>
        <time>2019-04-23T00:33:51Z</time>
      </trkpt>
      <trkpt lat="45.4016" lon="7.03611">
        <ele>2464</ele>
        <time>2019-04-23T00:34:51Z</time>
      </trkpt>
      <trkpt lat="45.40154" lon="7.0362">
        <ele>2462</ele>
        <time>2019-04-23T00:35:51Z</time>
      </trkpt>
      <trkpt lat="45.4015" lon="7.03631">
        <ele>2462</ele>
        <time>2019-04-23T00:36:51Z</time>
      </trkpt>
      <trkpt lat="45.40154" lon="7.03666">
        <ele>2472</ele>
        <time>2019-04-23T00:37:51Z</time>
      </trkpt>
      <trkpt lat="45.40152" lon="7.03769">
        <ele>2499</ele>
        <time>2019-04-23T00:38:51Z</time>
      </trkpt>
      <trkpt lat="45.40148" lon="7.03785">
        <ele>2500</ele>
        <time>2019-04-23T00:39:51Z</time>
      </trkpt>
      <trkpt lat="45.40138" lon="7.03797">
        <ele>2495</ele>
        <time>2019-04-23T00:40:51Z</time>
      </trkpt>
      <trkpt lat="45.40124" lon="7.0381">
        <ele>2487</ele>
        <time>2019-04-23T00:41:51Z</time>
      </trkpt>
      <trkpt lat="45.40118" lon="7.0382">
        <ele>2485</ele>
        <time>2019-04-23T00:42:51Z</time>
      </trkpt>
      <trkpt lat="45.40112" lon="7.0385">
        <ele>2486</ele>
        <time>2019-04-23T00:43:51Z</time>
      </trkpt>
      <trkpt lat="45.401" lon="7.0388">
        <ele>2480</ele>
        <time>2019-04-23T00:44:51Z</time>
      </trkpt>
      <trkpt lat="45.40098" lon="7.0389">
        <ele>2480</ele>
        <time>2019-04-23T00:45:51Z</time>
      </trkpt>
      <trkpt lat="45.40102" lon="7.03917">
        <ele>2488</ele>
        <time>2019-04-23T00:46:51Z</time>
      </trkpt>
      <trkpt lat="45.40101" lon="7.03939">
        <ele>2491</ele>
        <time>2019-04-23T00:47:51Z</time>
      </trkpt>
      <trkpt lat="45.40085" lon="7.0397">
        <ele>2481</ele>
        <time>2019-04-23T00:48:51Z</time>
      </trkpt>
      <trkpt lat="45.40077" lon="7.0401">
        <ele>2480</ele>
        <time>2019-04-23T00:49:51Z</time>
      </trkpt>
      <trkpt lat="45.40061" lon="7.04102">
        <ele>2484</ele>
        <time>2019-04-23T00:50:51Z</time>
      </trkpt>
      <trkpt lat="45.40061" lon="7.04135">
        <ele>2490</ele>
        <time>2019-04-23T00:51:51Z</time>
      </trkpt>
      <trkpt lat="45.40059" lon="7.04157">
        <ele>2493</ele>
        <time>2019-04-23T00:52:51Z</time>
      </trkpt>
      <trkpt lat="45.40053" lon="7.04185">
        <ele>2495</ele>
        <time>2019-04-23T00:53:51Z</time>
      </trkpt>
      <trkpt lat="45.40045" lon="7.04206">
        <ele>2494</ele>
        <time>2019-04-23T00:54:51Z</time>
      </trkpt>
      <trkpt lat="45.40037" lon="7.04222">
        <ele>2492</ele>
        <time>2019-04-23T00:55:51Z</time>
      </trkpt>
      <trkpt lat="45.40027" lon="7.04231">
        <ele>2488</ele>
        <time>2019-04-23T00:56:51Z</time>
      </trkpt>
      <trkpt lat="45.40011" lon="7.04242">
        <ele>2481</ele>
        <time>2019-04-23T00:57:51Z</time>
      </trkpt>
      <trkpt lat="45.39986" lon="7.04252">
        <ele>2472</ele>
        <time>2019-04-23T00:58:51Z</time>
      </trkpt>
      <trkpt lat="45.39974" lon="7.04264">
        <ele>2472</ele>
        <time>2019-04-23T00:59:51Z</time>
      </trkpt>
      <trkpt lat="45.39948" lon="7.04312">
        <ele>2476</ele>
        <time>2019-04-23T01:00:51Z</time>
      </trkpt>
      <trkpt lat="45.3993" lon="7.04335">
        <ele>2477</ele>
        <time>2019-04-23T01:01:51Z</time>
      </trkpt>
      <trkpt lat="45.39923" lon="7.0434">
        <ele>2477</ele>
        <time>2019-04-23T01:02:51Z</time>
      </trkpt>
      <trkpt lat="45.39896" lon="7.04341">
        <ele>2475</ele>
        <time>2019-04-23T01:03:51Z</time>
      </trkpt>
      <trkpt lat="45.39879" lon="7.04339">
        <ele>2475</ele>
        <time>2019-04-23T01:04:51Z</time>
      </trkpt>
      <trkpt lat="45.39865" lon="7.04335">
        <ele>2474</ele>
        <time>2019-04-23T01:05:51Z</time>
      </trkpt>
      <trkpt lat="45.39836" lon="7.04319">
        <ele>2468</ele>
        <time>2019-04-23T01:06:51Z</time>
      </trkpt>
      <trkpt lat="45.39794" lon="7.04312">
        <ele>2467</ele>
        <time>2019-04-23T01:07:51Z</time>
      </trkpt>
      <trkpt lat="45.39779" lon="7.04306">
        <ele>2465</ele>
        <time>2019-04-23T01:08:51Z</time>
      </trkpt>
      <trkpt lat="45.39744" lon="7.04281">
        <ele>2456</ele>
        <time>2019-04-23T01:09:51Z</time>
      </trkpt>
      <trkpt lat="45.39727" lon="7.04272">
        <ele>2453</ele>
        <time>2019-04-23T01:10:51Z</time>
      </trkpt>
      <trkpt lat="45.39698" lon="7.04263">
        <ele>2451</ele>
        <time>2019-04-23T01:11:51Z</time>
      </trkpt>
      <trkpt lat="45.39659" lon="7.04258">
        <ele>2449</ele>
        <time>2019-04-23T01:12:51Z</time>
      </trkpt>
      <trkpt lat="45.39629" lon="7.04257">
        <ele>2442</ele>
        <time>2019-04-23T01:13:51Z</time>
      </trkpt>
      <trkpt lat="45.39602" lon="7.0426">
        <ele>2436</ele>
        <time>2019-04-23T01:14:51Z</time>
      </trkpt>
      <trkpt lat="45.3955" lon="7.04275">
        <ele>2425</ele>
        <time>2019-04-23T01:15:51Z</time>
      </trkpt>
      <trkpt lat="45.39543" lon="7.04281">
        <ele>2425</ele>
        <time>2019-04-23T01:16:51Z</time>
      </trkpt>
      <trkpt lat="45.39476" lon="7.04379">
        <ele>2429</ele>
        <time>2019-04-23T01:17:51Z</time>
      </trkpt>
      <trkpt lat="45.39458" lon="7.04396">
        <ele>2427</ele>
        <time>2019-04-23T01:18:51Z</time>
      </trkpt>
      <trkpt lat="45.39446" lon="7.04404">
        <ele>2424</ele>
        <time>2019-04-23T01:19:51Z</time>
      </trkpt>
      <trkpt lat="45.39433" lon="7.04408">
        <ele>2420</ele>
        <time>2019-04-23T01:20:51Z</time>
      </trkpt>
      <trkpt lat="45.3941" lon="7.04407">
        <ele>2412</ele>
        <time>2019-04-23T01:21:51Z</time>
      </trkpt>
      <trkpt lat="45.39393" lon="7.04415">
        <ele>2411</ele>
        <time>2019-04-23T01:22:51Z</time>
      </trkpt>
      <trkpt lat="45.39351" lon="7.0444">
        <ele>2408</ele>
        <time>2019-04-23T01:23:51Z</time>
      </trkpt>
      <trkpt lat="45.39332" lon="7.04458">
        <ele>2408</ele>
        <time>2019-04-23T01:24:51Z</time>
      </trkpt>
      <trkpt lat="45.39309" lon="7.04489">
        <ele>2407</ele>
        <time>2019-04-23T01:25:51Z</time>
      </trkpt>
      <trkpt lat="45.39293" lon="7.04502">
        <ele>2406</ele>
        <time>2019-04-23T01:26:51Z</time>
      </trkpt>
      <trkpt lat="45.39245" lon="7.04532">
        <ele>2398</ele>
        <time>2019-04-23T01:27:51Z</time>
      </trkpt>
      <trkpt lat="45.39238" lon="7.04542">
        <ele>2398</ele>
        <time>2019-04-23T01:28:51Z</time>
      </trkpt>
      <trkpt lat="45.39211" lon="7.04591">
        <ele>2400</ele>
        <time>2019-04-23T01:29:51Z</time>
      </trkpt>
      <trkpt lat="45.39201" lon="7.04601">
        <ele>2400</ele>
        <time>2019-04-23T01:30:51Z</time>
      </trkpt>
      <trkpt lat="45.39193" lon="7.04605">
        <ele>2399</ele>
        <time>2019-04-23T01:31:51Z</time>
      </trkpt>
      <trkpt lat="45.39162" lon="7.04609">
        <ele>2390</ele>
        <time>2019-04-23T01:32:51Z</time>
      </trkpt>
      <trkpt lat="45.39136" lon="7.0462">
        <ele>2387</ele>
        <time>2019-04-23T01:33:51Z</time>
      </trkpt>
      <trkpt lat="45.39126" lon="7.04627">
        <ele>2386</ele>
        <time>2019-04-23T01:34:51Z</time>
      </trkpt>
      <trkpt lat="45.39117" lon="7.04637">
        <ele>2386</ele>
        <time>2019-04-23T01:35:51Z</time>
      </trkpt>
      <trkpt lat="45.39095" lon="7.04671">
        <ele>2388</ele>
        <time>2019-04-23T01:36:51Z</time>
      </trkpt>
      <trkpt lat="45.39084" lon="7.04685">
        <ele>2387</ele>
        <time>2019-04-23T01:37:51Z</time>
      </trkpt>
      <trkpt lat="45.39075" lon="7.047">
        <ele>2388</ele>
        <time>2019-04-23T01:38:51Z</time>
      </trkpt>
      <trkpt lat="45.39041" lon="7.04748">
        <ele>2384</ele>
        <time>2019-04-23T01:39:51Z</time>
      </trkpt>
      <trkpt lat="45.39034" lon="7.04753">
        <ele>2383</ele>
        <time>2019-04-23T01:40:51Z</time>
      </trkpt>
      <trkpt lat="45.39022" lon="7.04754">
        <ele>2378</ele>
        <time>2019-04-23T01:41:51Z</time>
      </trkpt>
      <trkpt lat="45.39011" lon="7.04753">
        <ele>2374</ele>
        <time>2019-04-23T01:42:51Z</time>
      </trkpt>
      <trkpt lat="45.38997" lon="7.04747">
        <ele>2368</ele>
        <time>2019-04-23T01:43:51Z</time>
      </trkpt>
      <trkpt lat="45.38985" lon="7.04739">
        <ele>2364</ele>
        <time>2019-04-23T01:44:51Z</time>
      </trkpt>
      <trkpt lat="45.38974" lon="7.04729">
        <ele>2361</ele>
        <time>2019-04-23T01:45:51Z</time>
      </trkpt>
      <trkpt lat="45.38965" lon="7.04714">
        <ele>2357</ele>
        <time>2019-04-23T01:46:51Z</time>
      </trkpt>
      <trkpt lat="45.38962" lon="7.04703">
        <ele>2355</ele>
        <time>2019-04-23T01:47:51Z</time>
      </trkpt>
      <trkpt lat="45.38963" lon="7.0469">
        <ele>2354</ele>
        <time>2019-04-23T01:48:51Z</time>
      </trkpt>
      <trkpt lat="45.38965" lon="7.04681">
        <ele>2353</ele>
        <time>2019-04-23T01:49:51Z</time>
      </trkpt>
      <trkpt lat="45.38971" lon="7.04669">
        <ele>2354</ele>
        <time>2019-04-23T01:50:51Z</time>
      </trkpt>
      <trkpt lat="45.38997" lon="7.04635">
        <ele>2355</ele>
        <time>2019-04-23T01:51:51Z</time>
      </trkpt>
      <trkpt lat="45.39018" lon="7.04599">
        <ele>2351</ele>
        <time>2019-04-23T01:52:51Z</time>
      </trkpt>
      <trkpt lat="45.3905" lon="7.0456">
        <ele>2348</ele>
        <time>2019-04-23T01:53:51Z</time>
      </trkpt>
      <trkpt lat="45.39076" lon="7.04522">
        <ele>2345</ele>
        <time>2019-04-23T01:54:51Z</time>
      </trkpt>
      <trkpt lat="45.39109" lon="7.0446">
        <ele>2336</ele>
        <time>2019-04-23T01:55:51Z</time>
      </trkpt>
      <trkpt lat="45.39121" lon="7.04442">
        <ele>2335</ele>
        <time>2019-04-23T01:56:51Z</time>
      </trkpt>
      <trkpt lat="45.39145" lon="7.04419">
        <ele>2338</ele>
        <time>2019-04-23T01:57:51Z</time>
      </trkpt>
      <trkpt lat="45.39155" lon="7.04407">
        <ele>2337</ele>
        <time>2019-04-23T01:58:51Z</time>
      </trkpt>
      <trkpt lat="45.39175" lon="7.04368">
        <ele>2327</ele>
        <time>2019-04-23T01:59:51Z</time>
      </trkpt>
      <trkpt lat="45.39186" lon="7.04353">
        <ele>2325</ele>
        <time>2019-04-23T02:00:51Z</time>
      </trkpt>
      <trkpt lat="45.39231" lon="7.04317">
        <ele>2325</ele>
        <time>2019-04-23T02:01:51Z</time>
      </trkpt>
      <trkpt lat="45.39271" lon="7.0428">
        <ele>2321</ele>
        <time>2019-04-23T02:02:51Z</time>
      </trkpt>
      <trkpt lat="45.3931" lon="7.04234">
        <ele>2314</ele>
        <time>2019-04-23T02:03:51Z</time>
      </trkpt>
      <trkpt lat="45.39371" lon="7.04167">
        <ele>2306</ele>
        <time>2019-04-23T02:04:51Z</time>
      </trkpt>
      <trkpt lat="45.39442" lon="7.04095">
        <ele>2294</ele>
        <time>2019-04-23T02:05:51Z</time>
      </trkpt>
      <trkpt lat="45.39486" lon="7.04055">
        <ele>2288</ele>
        <time>2019-04-23T02:06:51Z</time>
      </trkpt>
      <trkpt lat="45.39515" lon="7.04034">
        <ele>2286</ele>
        <time>2019-04-23T02:07:51Z</time>
      </trkpt>
      <trkpt lat="45.39607" lon="7.0398">
        <ele>2284</ele>
        <time>2019-04-23T02:08:51Z</time>
      </trkpt>
      <trkpt lat="45.39632" lon="7.03967">
        <ele>2284</ele>
        <time>2019-04-23T02:09:51Z</time>
      </trkpt>
      <trkpt lat="45.39666" lon="7.03961">
        <ele>2288</ele>
        <time>2019-04-23T02:10:51Z</time>
      </trkpt>
      <trkpt lat="45.39671" lon="7.03957">
        <ele>2288</ele>
        <time>2019-04-23T02:11:51Z</time>
      </trkpt>
      <trkpt lat="45.39673" lon="7.0395">
        <ele>2287</ele>
        <time>2019-04-23T02:12:51Z</time>
      </trkpt>
      <trkpt lat="45.39672" lon="7.03943">
        <ele>2285</ele>
        <time>2019-04-23T02:13:51Z</time>
      </trkpt>
      <trkpt lat="45.39665" lon="7.03936">
        <ele>2282</ele>
        <time>2019-04-23T02:14:51Z</time>
      </trkpt>
      <trkpt lat="45.39623" lon="7.03938">
        <ele>2275</ele>
        <time>2019-04-23T02:15:51Z</time>
      </trkpt>
      <trkpt lat="45.39596" lon="7.03946">
        <ele>2272</ele>
        <time>2019-04-23T02:16:51Z</time>
      </trkpt>
      <trkpt lat="45.39537" lon="7.03971">
        <ele>2270</ele>
        <time>2019-04-23T02:17:51Z</time>
      </trkpt>
      <trkpt lat="45.39488" lon="7.03987">
        <ele>2265</ele>
        <time>2019-04-23T02:18:51Z</time>
      </trkpt>
      <trkpt lat="45.39405" lon="7.04001">
        <ele>2256</ele>
        <time>2019-04-23T02:19:51Z</time>
      </trkpt>
      <trkpt lat="45.39348" lon="7.04014">
        <ele>2249</ele>
        <time>2019-04-23T02:20:51Z</time>
      </trkpt>
      <trkpt lat="45.39326" lon="7.04022">
        <ele>2246</ele>
        <time>2019-04-23T02:21:51Z</time>
      </trkpt>
      <trkpt lat="45.39313" lon="7.04037">
        <ele>2245</ele>
        <time>2019-04-23T02:22:51Z</time>
      </trkpt>
      <trkpt lat="45.39301" lon="7.04078">
        <ele>2250</ele>
        <time>2019-04-23T02:23:51Z</time>
      </trkpt>
      <trkpt lat="45.39295" lon="7.04086">
        <ele>2251</ele>
        <time>2019-04-23T02:24:51Z</time>
      </trkpt>
      <trkpt lat="45.39287" lon="7.04091">
        <ele>2251</ele>
        <time>2019-04-23T02:25:51Z</time>
      </trkpt>
      <trkpt lat="45.39206" lon="7.0413">
        <ele>2242</ele>
        <time>2019-04-23T02:26:51Z</time>
      </trkpt>
      <trkpt lat="45.3917" lon="7.04144">
        <ele>2236</ele>
        <time>2019-04-23T02:27:51Z</time>
      </trkpt>
      <trkpt lat="45.39121" lon="7.04163">
        <ele>2228</ele>
        <time>2019-04-23T02:28:51Z</time>
      </trkpt>
      <trkpt lat="45.39039" lon="7.04188">
        <ele>2215</ele>
        <time>2019-04-23T02:29:51Z</time>
      </trkpt>
      <trkpt lat="45.3901" lon="7.04201">
        <ele>2212</ele>
        <time>2019-04-23T02:30:51Z</time>
      </trkpt>
      <trkpt lat="45.39001" lon="7.04209">
        <ele>2212</ele>
        <time>2019-04-23T02:31:51Z</time>
      </trkpt>
      <trkpt lat="45.38984" lon="7.0423">
        <ele>2213</ele>
        <time>2019-04-23T02:32:51Z</time>
      </trkpt>
      <trkpt lat="45.38973" lon="7.04239">
        <ele>2212</ele>
        <time>2019-04-23T02:33:51Z</time>
      </trkpt>
      <trkpt lat="45.38938" lon="7.04257">
        <ele>2207</ele>
        <time>2019-04-23T02:34:51Z</time>
      </trkpt>
      <trkpt lat="45.38923" lon="7.04267">
        <ele>2205</ele>
        <time>2019-04-23T02:35:51Z</time>
      </trkpt>
      <trkpt lat="45.38882" lon="7.04304">
        <ele>2202</ele>
        <time>2019-04-23T02:36:51Z</time>
      </trkpt>
      <trkpt lat="45.38865" lon="7.04323">
        <ele>2201</ele>
        <time>2019-04-23T02:37:51Z</time>
      </trkpt>
      <trkpt lat="45.38782" lon="7.04392">
        <ele>2192</ele>
        <time>2019-04-23T02:38:51Z</time>
      </trkpt>
      <trkpt lat="45.38723" lon="7.04431">
        <ele>2184</ele>
        <time>2019-04-23T02:39:51Z</time>
      </trkpt>
      <trkpt lat="45.3868" lon="7.04477">
        <ele>2182</ele>
        <time>2019-04-23T02:40:51Z</time>
      </trkpt>
      <trkpt lat="45.38645" lon="7.04497">
        <ele>2176</ele>
        <time>2019-04-23T02:41:51Z</time>
      </trkpt>
      <trkpt lat="45.38626" lon="7.04513">
        <ele>2174</ele>
        <time>2019-04-23T02:42:51Z</time>
      </trkpt>
      <trkpt lat="45.38602" lon="7.04534">
        <ele>2171</ele>
        <time>2019-04-23T02:43:51Z</time>
      </trkpt>
      <trkpt lat="45.38586" lon="7.04566">
        <ele>2171</ele>
        <time>2019-04-23T02:44:51Z</time>
      </trkpt>
      <trkpt lat="45.38576" lon="7.04581">
        <ele>2171</ele>
        <time>2019-04-23T02:45:51Z</time>
      </trkpt>
      <trkpt lat="45.38562" lon="7.04592">
        <ele>2170</ele>
        <time>2019-04-23T02:46:51Z</time>
      </trkpt>
      <trkpt lat="45.38547" lon="7.046">
        <ele>2168</ele>
        <time>2019-04-23T02:47:51Z</time>
      </trkpt>
      <trkpt lat="45.38529" lon="7.04606">
        <ele>2165</ele>
        <time>2019-04-23T02:48:51Z</time>
      </trkpt>
      <trkpt lat="45.38514" lon="7.04607">
        <ele>2162</ele>
        <time>2019-04-23T02:49:51Z</time>
      </trkpt>
      <trkpt lat="45.38507" lon="7.04606">
        <ele>2160</ele>
        <time>2019-04-23T02:50:51Z</time>
      </trkpt>
      <trkpt lat="45.385" lon="7.04598">
        <ele>2157</ele>
        <time>2019-04-23T02:51:51Z</time>
      </trkpt>
      <trkpt lat="45.38497" lon="7.0459">
        <ele>2155</ele>
        <time>2019-04-23T02:52:51Z</time>
      </trkpt>
      <trkpt lat="45.38498" lon="7.0458">
        <ele>2154</ele>
        <time>2019-04-23T02:53:51Z</time>
      </trkpt>
      <trkpt lat="45.38501" lon="7.0457">
        <ele>2154</ele>
        <time>2019-04-23T02:54:51Z</time>
      </trkpt>
      <trkpt lat="45.38512" lon="7.04549">
        <ele>2154</ele>
        <time>2019-04-23T02:55:51Z</time>
      </trkpt>
      <trkpt lat="45.38523" lon="7.04515">
        <ele>2153</ele>
        <time>2019-04-23T02:56:51Z</time>
      </trkpt>
      <trkpt lat="45.38529" lon="7.04484">
        <ele>2150</ele>
        <time>2019-04-23T02:57:51Z</time>
      </trkpt>
      <trkpt lat="45.38539" lon="7.04403">
        <ele>2143</ele>
        <time>2019-04-23T02:58:51Z</time>
      </trkpt>
      <trkpt lat="45.38547" lon="7.04349">
        <ele>2141</ele>
        <time>2019-04-23T02:59:51Z</time>
      </trkpt>
      <trkpt lat="45.38547" lon="7.04335">
        <ele>2140</ele>
        <time>2019-04-23T03:00:51Z</time>
      </trkpt>
      <trkpt lat="45.38545" lon="7.04318">
        <ele>2139</ele>
        <time>2019-04-23T03:01:51Z</time>
      </trkpt>
      <trkpt lat="45.38538" lon="7.04303">
        <ele>2137</ele>
        <time>2019-04-23T03:02:51Z</time>
      </trkpt>
      <trkpt lat="45.38528" lon="7.04292">
        <ele>2136</ele>
        <time>2019-04-23T03:03:51Z</time>
      </trkpt>
      <trkpt lat="45.38509" lon="7.04279">
        <ele>2135</ele>
        <time>2019-04-23T03:04:51Z</time>
      </trkpt>
      <trkpt lat="45.38476" lon="7.04262">
        <ele>2139</ele>
        <time>2019-04-23T03:05:51Z</time>
      </trkpt>
      <trkpt lat="45.3847" lon="7.04263">
        <ele>2141</ele>
        <time>2019-04-23T03:06:51Z</time>
      </trkpt>
      <trkpt lat="45.38457" lon="7.0427">
        <ele>2143</ele>
        <time>2019-04-23T03:07:51Z</time>
      </trkpt>
      <trkpt lat="45.38449" lon="7.04282">
        <ele>2144</ele>
        <time>2019-04-23T03:08:51Z</time>
      </trkpt>
      <trkpt lat="45.38423" lon="7.04328">
        <ele>2143</ele>
        <time>2019-04-23T03:09:51Z</time>
      </trkpt>
      <trkpt lat="45.38357" lon="7.04454">
        <ele>2140</ele>
        <time>2019-04-23T03:10:51Z</time>
      </trkpt>
      <trkpt lat="45.3835" lon="7.04464">
        <ele>2139</ele>
        <time>2019-04-23T03:11:51Z</time>
      </trkpt>
      <trkpt lat="45.38322" lon="7.04494">
        <ele>2140</ele>
        <time>2019-04-23T03:12:51Z</time>
      </trkpt>
      <trkpt lat="45.38302" lon="7.04527">
        <ele>2144</ele>
        <time>2019-04-23T03:13:51Z</time>
      </trkpt>
      <trkpt lat="45.38265" lon="7.04609">
        <ele>2134</ele>
        <time>2019-04-23T03:14:51Z</time>
      </trkpt>
      <trkpt lat="45.38257" lon="7.04623">
        <ele>2132</ele>
        <time>2019-04-23T03:15:51Z</time>
      </trkpt>
      <trkpt lat="45.38249" lon="7.04633">
        <ele>2131</ele>
        <time>2019-04-23T03:16:51Z</time>
      </trkpt>
      <trkpt lat="45.3819" lon="7.04665">
        <ele>2132</ele>
        <time>2019-04-23T03:17:51Z</time>
      </trkpt>
      <trkpt lat="45.38166" lon="7.04683">
        <ele>2132</ele>
        <time>2019-04-23T03:18:51Z</time>
      </trkpt>
      <trkpt lat="45.38154" lon="7.04695">
        <ele>2136</ele>
        <time>2019-04-23T03:19:51Z</time>
      </trkpt>
      <trkpt lat="45.38145" lon="7.04708">
        <ele>2137</ele>
        <time>2019-04-23T03:20:51Z</time>
      </trkpt>
      <trkpt lat="45.38136" lon="7.04734">
        <ele>2134</ele>
        <time>2019-04-23T03:21:51Z</time>
      </trkpt>
      <trkpt lat="45.3812" lon="7.04798">
        <ele>2126</ele>
        <time>2019-04-23T03:22:51Z</time>
      </trkpt>
      <trkpt lat="45.38118" lon="7.04815">
        <ele>2123</ele>
        <time>2019-04-23T03:23:51Z</time>
      </trkpt>
      <trkpt lat="45.38118" lon="7.04851">
        <ele>2118</ele>
        <time>2019-04-23T03:24:51Z</time>
      </trkpt>
      <trkpt lat="45.38115" lon="7.04859">
        <ele>2119</ele>
        <time>2019-04-23T03:25:51Z</time>
      </trkpt>
      <trkpt lat="45.38077" lon="7.04925">
        <ele>2118</ele>
        <time>2019-04-23T03:26:51Z</time>
      </trkpt>
      <trkpt lat="45.38074" lon="7.04939">
        <ele>2117</ele>
        <time>2019-04-23T03:27:51Z</time>
      </trkpt>
      <trkpt lat="45.38073" lon="7.04968">
        <ele>2113</ele>
        <time>2019-04-23T03:28:51Z</time>
      </trkpt>
      <trkpt lat="45.38071" lon="7.04974">
        <ele>2113</ele>
        <time>2019-04-23T03:29:51Z</time>
      </trkpt>
      <trkpt lat="45.38063" lon="7.04987">
        <ele>2112</ele>
        <time>2019-04-23T03:30:51Z</time>
      </trkpt>
      <trkpt lat="45.37985" lon="7.05012">
        <ele>2115</ele>
        <time>2019-04-23T03:31:51Z</time>
      </trkpt>
      <trkpt lat="45.3796" lon="7.05011">
        <ele>2114</ele>
        <time>2019-04-23T03:32:51Z</time>
      </trkpt>
      <trkpt lat="45.37934" lon="7.05004">
        <ele>2116</ele>
        <time>2019-04-23T03:33:51Z</time>
      </trkpt>
      <trkpt lat="45.37905" lon="7.04991">
        <ele>2117</ele>
        <time>2019-04-23T03:34:51Z</time>
      </trkpt>
      <trkpt lat="45.37875" lon="7.04966">
        <ele>2114</ele>
        <time>2019-04-23T03:35:51Z</time>
      </trkpt>
      <trkpt lat="45.37867" lon="7.04956">
        <ele>2114</ele>
        <time>2019-04-23T03:36:51Z</time>
      </trkpt>
      <trkpt lat="45.37817" lon="7.04878">
        <ele>2110</ele>
        <time>2019-04-23T03:37:51Z</time>
      </trkpt>
      <trkpt lat="45.37792" lon="7.04851">
        <ele>2099</ele>
        <time>2019-04-23T03:38:51Z</time>
      </trkpt>
      <trkpt lat="45.37783" lon="7.04836">
        <ele>2096</ele>
        <time>2019-04-23T03:39:51Z</time>
      </trkpt>
      <trkpt lat="45.37777" lon="7.0482">
        <ele>2096</ele>
        <time>2019-04-23T03:40:51Z</time>
      </trkpt>
      <trkpt lat="45.37772" lon="7.04799">
        <ele>2099</ele>
        <time>2019-04-23T03:41:51Z</time>
      </trkpt>
      <trkpt lat="45.37767" lon="7.04786">
        <ele>2099</ele>
        <time>2019-04-23T03:42:51Z</time>
      </trkpt>
      <trkpt lat="45.37745" lon="7.04747">
        <ele>2092</ele>
        <time>2019-04-23T03:43:51Z</time>
      </trkpt>
      <trkpt lat="45.37741" lon="7.04735">
        <ele>2093</ele>
        <time>2019-04-23T03:44:51Z</time>
      </trkpt>
      <trkpt lat="45.37727" lon="7.04672">
        <ele>2100</ele>
        <time>2019-04-23T03:45:51Z</time>
      </trkpt>
      <trkpt lat="45.37713" lon="7.04636">
        <ele>2097</ele>
        <time>2019-04-23T03:46:51Z</time>
      </trkpt>
      <trkpt lat="45.37704" lon="7.04608">
        <ele>2096</ele>
        <time>2019-04-23T03:47:51Z</time>
      </trkpt>
      <trkpt lat="45.37695" lon="7.04561">
        <ele>2102</ele>
        <time>2019-04-23T03:48:51Z</time>
      </trkpt>
      <trkpt lat="45.37683" lon="7.04516">
        <ele>2105</ele>
        <time>2019-04-23T03:49:51Z</time>
      </trkpt>
      <trkpt lat="45.37657" lon="7.04472">
        <ele>2094</ele>
        <time>2019-04-23T03:50:51Z</time>
      </trkpt>
      <trkpt lat="45.37644" lon="7.04433">
        <ele>2091</ele>
        <time>2019-04-23T03:51:51Z</time>
      </trkpt>
      <trkpt lat="45.37614" lon="7.04357">
        <ele>2078</ele>
        <time>2019-04-23T03:52:51Z</time>
      </trkpt>
      <trkpt lat="45.37609" lon="7.0434">
        <ele>2076</ele>
        <time>2019-04-23T03:53:51Z</time>
      </trkpt>
      <trkpt lat="45.37604" lon="7.04304">
        <ele>2080</ele>
        <time>2019-04-23T03:54:51Z</time>
      </trkpt>
      <trkpt lat="45.37598" lon="7.04283">
        <ele>2080</ele>
        <time>2019-04-23T03:55:51Z</time>
      </trkpt>
      <trkpt lat="45.37581" lon="7.04248">
        <ele>2073</ele>
        <time>2019-04-23T03:56:51Z</time>
      </trkpt>
      <trkpt lat="45.37569" lon="7.0421">
        <ele>2073</ele>
        <time>2019-04-23T03:57:51Z</time>
      </trkpt>
      <trkpt lat="45.37547" lon="7.04148">
        <ele>2064</ele>
        <time>2019-04-23T03:58:51Z</time>
      </trkpt>
      <trkpt lat="45.37526" lon="7.04065">
        <ele>2053</ele>
        <time>2019-04-23T03:59:51Z</time>
      </trkpt>
      <trkpt lat="45.37519" lon="7.04044">
        <ele>2050</ele>
        <time>2019-04-23T04:00:51Z</time>
      </trkpt>
      <trkpt lat="45.37471" lon="7.03937">
        <ele>2036</ele>
        <time>2019-04-23T04:01:51Z</time>
      </trkpt>
      <trkpt lat="45.37421" lon="7.03814">
        <ele>2025</ele>
        <time>2019-04-23T04:02:51Z</time>
      </trkpt>
      <trkpt lat="45.37414" lon="7.03793">
        <ele>2023</ele>
        <time>2019-04-23T04:03:51Z</time>
      </trkpt>
      <trkpt lat="45.37394" lon="7.03749">
        <ele>2018</ele>
        <time>2019-04-23T04:04:51Z</time>
      </trkpt>
      <trkpt lat="45.37383" lon="7.03716">
        <ele>2016</ele>
        <time>2019-04-23T04:05:51Z</time>
      </trkpt>
      <trkpt lat="45.37377" lon="7.03702">
        <ele>2015</ele>
        <time>2019-04-23T04:06:51Z</time>
      </trkpt>
      <trkpt lat="45.37356" lon="7.03674">
        <ele>2008</ele>
        <time>2019-04-23T04:07:51Z</time>
      </trkpt>
      <trkpt lat="45.37354" lon="7.03658">
        <ele>2008</ele>
        <time>2019-04-23T04:08:51Z</time>
      </trkpt>
      <trkpt lat="45.37356" lon="7.03637">
        <ele>2011</ele>
        <time>2019-04-23T04:09:51Z</time>
      </trkpt>
      <trkpt lat="45.37354" lon="7.03625">
        <ele>2011</ele>
        <time>2019-04-23T04:10:51Z</time>
      </trkpt>
      <trkpt lat="45.37346" lon="7.03608">
        <ele>2008</ele>
        <time>2019-04-23T04:11:51Z</time>
      </trkpt>
      <trkpt lat="45.37336" lon="7.03577">
        <ele>2005</ele>
        <time>2019-04-23T04:12:51Z</time>
      </trkpt>
      <trkpt lat="45.37328" lon="7.03559">
        <ele>2002</ele>
        <time>2019-04-23T04:13:51Z</time>
      </trkpt>
      <trkpt lat="45.37326" lon="7.03551">
        <ele>2002</ele>
        <time>2019-04-23T04:14:51Z</time>
      </trkpt>
      <trkpt lat="45.37329" lon="7.03512">
        <ele>2007</ele>
        <time>2019-04-23T04:15:51Z</time>
      </trkpt>
      <trkpt lat="45.37328" lon="7.03504">
        <ele>2007</ele>
        <time>2019-04-23T04:16:51Z</time>
      </trkpt>
      <trkpt lat="45.37319" lon="7.0348">
        <ele>2006</ele>
        <time>2019-04-23T04:17:51Z</time>
      </trkpt>
      <trkpt lat="45.3724" lon="7.03376">
        <ele>1995</ele>
        <time>2019-04-23T04:18:51Z</time>
      </trkpt>
      <trkpt lat="45.3723" lon="7.03364">
        <ele>1994</ele>
        <time>2019-04-23T04:19:51Z</time>
      </trkpt>
      <trkpt lat="45.37217" lon="7.03355">
        <ele>1992</ele>
        <time>2019-04-23T04:20:51Z</time>
      </trkpt>
      <trkpt lat="45.3717" lon="7.0333">
        <ele>1980</ele>
        <time>2019-04-23T04:21:51Z</time>
      </trkpt>
      <trkpt lat="45.37149" lon="7.03314">
        <ele>1977</ele>
        <time>2019-04-23T04:22:51Z</time>
      </trkpt>
      <trkpt lat="45.37113" lon="7.03258">
        <ele>1980</ele>
        <time>2019-04-23T04:23:51Z</time>
      </trkpt>
      <trkpt lat="45.37102" lon="7.03245">
        <ele>1980</ele>
        <time>2019-04-23T04:24:51Z</time>
      </trkpt>
      <trkpt lat="45.37074" lon="7.03228">
        <ele>1976</ele>
        <time>2019-04-23T04:25:51Z</time>
      </trkpt>
      <trkpt lat="45.37064" lon="7.03224">
        <ele>1974</ele>
        <time>2019-04-23T04:26:51Z</time>
      </trkpt>
      <trkpt lat="45.37037" lon="7.03221">
        <ele>1966</ele>
        <time>2019-04-23T04:27:51Z</time>
      </trkpt>
      <trkpt lat="45.37027" lon="7.03217">
        <ele>1964</ele>
        <time>2019-04-23T04:28:51Z</time>
      </trkpt>
      <trkpt lat="45.36996" lon="7.0319">
        <ele>1962</ele>
        <time>2019-04-23T04:29:51Z</time>
      </trkpt>
      <trkpt lat="45.36985" lon="7.03177">
        <ele>1960</ele>
        <time>2019-04-23T04:30:51Z</time>
      </trkpt>
      <trkpt lat="45.36973" lon="7.03156">
        <ele>1961</ele>
        <time>2019-04-23T04:31:51Z</time>
      </trkpt>
      <trkpt lat="45.36969" lon="7.03153">
        <ele>1960</ele>
        <time>2019-04-23T04:32:51Z</time>
      </trkpt>
      <trkpt lat="45.36963" lon="7.03156">
        <ele>1956</ele>
        <time>2019-04-23T04:33:51Z</time>
      </trkpt>
      <trkpt lat="45.36961" lon="7.03162">
        <ele>1953</ele>
        <time>2019-04-23T04:34:51Z</time>
      </trkpt>
      <trkpt lat="45.36963" lon="7.03171">
        <ele>1951</ele>
        <time>2019-04-23T04:35:51Z</time>
      </trkpt>
      <trkpt lat="45.36971" lon="7.03184">
        <ele>1951</ele>
        <time>2019-04-23T04:36:51Z</time>
      </trkpt>
      <trkpt lat="45.37017" lon="7.03244">
        <ele>1952</ele>
        <time>2019-04-23T04:37:51Z</time>
      </trkpt>
      <trkpt lat="45.37061" lon="7.03282">
        <ele>1954</ele>
        <time>2019-04-23T04:38:51Z</time>
      </trkpt>
      <trkpt lat="45.3707" lon="7.03295">
        <ele>1953</ele>
        <time>2019-04-23T04:39:51Z</time>
      </trkpt>
      <trkpt lat="45.37078" lon="7.03312">
        <ele>1950</ele>
        <time>2019-04-23T04:40:51Z</time>
      </trkpt>
      <trkpt lat="45.37094" lon="7.03361">
        <ele>1942</ele>
        <time>2019-04-23T04:41:51Z</time>
      </trkpt>
      <trkpt lat="45.37103" lon="7.03385">
        <ele>1940</ele>
        <time>2019-04-23T04:42:51Z</time>
      </trkpt>
      <trkpt lat="45.37132" lon="7.0344">
        <ele>1937</ele>
        <time>2019-04-23T04:43:51Z</time>
      </trkpt>
      <trkpt lat="45.37147" lon="7.03467">
        <ele>1935</ele>
        <time>2019-04-23T04:44:51Z</time>
      </trkpt>
      <trkpt lat="45.37166" lon="7.03491">
        <ele>1935</ele>
        <time>2019-04-23T04:45:51Z</time>
      </trkpt>
      <trkpt lat="45.37176" lon="7.03512">
        <ele>1935</ele>
        <time>2019-04-23T04:46:51Z</time>
      </trkpt>
      <trkpt lat="45.37182" lon="7.03529">
        <ele>1934</ele>
        <time>2019-04-23T04:47:51Z</time>
      </trkpt>
      <trkpt lat="45.37185" lon="7.03547">
        <ele>1932</ele>
        <time>2019-04-23T04:48:51Z</time>
      </trkpt>
      <trkpt lat="45.37187" lon="7.03566">
        <ele>1929</ele>
        <time>2019-04-23T04:49:51Z</time>
      </trkpt>
      <trkpt lat="45.37189" lon="7.03607">
        <ele>1924</ele>
        <time>2019-04-23T04:50:51Z</time>
      </trkpt>
      <trkpt lat="45.37195" lon="7.03639">
        <ele>1923</ele>
        <time>2019-04-23T04:51:51Z</time>
      </trkpt>
      <trkpt lat="45.37196" lon="7.03654">
        <ele>1922</ele>
        <time>2019-04-23T04:52:51Z</time>
      </trkpt>
      <trkpt lat="45.37198" lon="7.03668">
        <ele>1921</ele>
        <time>2019-04-23T04:53:51Z</time>
      </trkpt>
      <trkpt lat="45.37203" lon="7.03689">
        <ele>1921</ele>
        <time>2019-04-23T04:54:51Z</time>
      </trkpt>
      <trkpt lat="45.37204" lon="7.03701">
        <ele>1920</ele>
        <time>2019-04-23T04:55:51Z</time>
      </trkpt>
      <trkpt lat="45.37201" lon="7.03727">
        <ele>1915</ele>
        <time>2019-04-23T04:56:51Z</time>
      </trkpt>
      <trkpt lat="45.37214" lon="7.0379">
        <ele>1912</ele>
        <time>2019-04-23T04:57:51Z</time>
      </trkpt>
      <trkpt lat="45.37219" lon="7.03831">
        <ele>1908</ele>
        <time>2019-04-23T04:58:51Z</time>
      </trkpt>
      <trkpt lat="45.37226" lon="7.03852">
        <ele>1907</ele>
        <time>2019-04-23T04:59:51Z</time>
      </trkpt>
      <trkpt lat="45.37238" lon="7.03868">
        <ele>1910</ele>
        <time>2019-04-23T05:00:51Z</time>
      </trkpt>
      <trkpt lat="45.37247" lon="7.03887">
        <ele>1910</ele>
        <time>2019-04-23T05:01:51Z</time>
      </trkpt>
      <trkpt lat="45.37257" lon="7.03948">
        <ele>1900</ele>
        <time>2019-04-23T05:02:51Z</time>
      </trkpt>
      <trkpt lat="45.37287" lon="7.04051">
        <ele>1896</ele>
        <time>2019-04-23T05:03:51Z</time>
      </trkpt>
      <trkpt lat="45.37291" lon="7.04088">
        <ele>1890</ele>
        <time>2019-04-23T05:04:51Z</time>
      </trkpt>
      <trkpt lat="45.37334" lon="7.04257">
        <ele>1883</ele>
        <time>2019-04-23T05:05:51Z</time>
      </trkpt>
      <trkpt lat="45.37349" lon="7.04339">
        <ele>1881</ele>
        <time>2019-04-23T05:06:51Z</time>
      </trkpt>
      <trkpt lat="45.37354" lon="7.04381">
        <ele>1879</ele>
        <time>2019-04-23T05:07:51Z</time>
      </trkpt>
      <trkpt lat="45.37368" lon="7.04442">
        <ele>1881</ele>
        <time>2019-04-23T05:08:51Z</time>
      </trkpt>
      <trkpt lat="45.37372" lon="7.04486">
        <ele>1878</ele>
        <time>2019-04-23T05:09:51Z</time>
      </trkpt>
      <trkpt lat="45.37371" lon="7.04515">
        <ele>1873</ele>
        <time>2019-04-23T05:10:51Z</time>
      </trkpt>
      <trkpt lat="45.37363" lon="7.04565">
        <ele>1862</ele>
        <time>2019-04-23T05:11:51Z</time>
      </trkpt>
      <trkpt lat="45.3736" lon="7.04608">
        <ele>1856</ele>
        <time>2019-04-23T05:12:51Z</time>
      </trkpt>
      <trkpt lat="45.3736" lon="7.04671">
        <ele>1852</ele>
        <time>2019-04-23T05:13:51Z</time>
      </trkpt>
      <trkpt lat="45.37361" lon="7.04705">
        <ele>1849</ele>
        <time>2019-04-23T05:14:51Z</time>
      </trkpt>
      <trkpt lat="45.37369" lon="7.04749">
        <ele>1850</ele>
        <time>2019-04-23T05:15:51Z</time>
      </trkpt>
      <trkpt lat="45.37371" lon="7.04786">
        <ele>1846</ele>
        <time>2019-04-23T05:16:51Z</time>
      </trkpt>
      <trkpt lat="45.37377" lon="7.04818">
        <ele>1843</ele>
        <time>2019-04-23T05:17:51Z</time>
      </trkpt>
      <trkpt lat="45.37387" lon="7.04861">
        <ele>1842</ele>
        <time>2019-04-23T05:18:51Z</time>
      </trkpt>
      <trkpt lat="45.37397" lon="7.04913">
        <ele>1838</ele>
        <time>2019-04-23T05:19:51Z</time>
      </trkpt>
      <trkpt lat="45.37429" lon="7.05109">
        <ele>1828</ele>
        <time>2019-04-23T05:20:51Z</time>
      </trkpt>
      <trkpt lat="45.3743" lon="7.05164">
        <ele>1825</ele>
        <time>2019-04-23T05:21:51Z</time>
      </trkpt>
      <trkpt lat="45.37425" lon="7.05219">
        <ele>1821</ele>
        <time>2019-04-23T05:22:51Z</time>
      </trkpt>
      <trkpt lat="45.3741" lon="7.05252">
        <ele>1817</ele>
        <time>2019-04-23T05:23:51Z</time>
      </trkpt>
      <trkpt lat="45.37386" lon="7.05277">
        <ele>1813</ele>
        <time>2019-04-23T05:24:51Z</time>
      </trkpt>
      <trkpt lat="45.37381" lon="7.05281">
        <ele>1812</ele>
        <time>2019-04-23T05:25:51Z</time>
      </trkpt>
      <trkpt lat="45.37355" lon="7.05283">
        <ele>1808</ele>
        <time>2019-04-23T05:26:51Z</time>
      </trkpt>
      <trkpt lat="45.37337" lon="7.0528">
        <ele>1804</ele>
        <time>2019-04-23T05:27:51Z</time>
      </trkpt>
      <trkpt lat="45.37325" lon="7.05273">
        <ele>1803</ele>
        <time>2019-04-23T05:28:51Z</time>
      </trkpt>
      <trkpt lat="45.37305" lon="7.05252">
        <ele>1801</ele>
        <time>2019-04-23T05:29:51Z</time>
      </trkpt>
      <trkpt lat="45.37279" lon="7.05202">
        <ele>1798</ele>
        <time>2019-04-23T05:30:51Z</time>
      </trkpt>
      <trkpt lat="45.37141" lon="7.04892">
        <ele>1790</ele>
        <time>2019-04-23T05:31:51Z</time>
      </trkpt>
      <trkpt lat="45.37053" lon="7.04679">
        <ele>1788</ele>
        <time>2019-04-23T05:32:51Z</time>
      </trkpt>
      <trkpt lat="45.3695" lon="7.04334">
        <ele>1782</ele>
        <time>2019-04-23T05:33:51Z</time>
      </trkpt>
      <trkpt lat="45.36925" lon="7.04267">
        <ele>1782</ele>
        <time>2019-04-23T05:34:51Z</time>
      </trkpt>
      <trkpt lat="45.36898" lon="7.04228">
        <ele>1782</ele>
        <time>2019-04-23T05:35:51Z</time>
      </trkpt>
      <trkpt lat="45.36733" lon="7.0401">
        <ele>1783</ele>
        <time>2019-04-23T05:36:51Z</time>
      </trkpt>
      <trkpt lat="45.36417" lon="7.03684">
        <ele>1778</ele>
        <time>2019-04-23T05:37:51Z</time>
      </trkpt>
      <trkpt lat="45.36363" lon="7.03619">
        <ele>1781</ele>
        <time>2019-04-23T05:38:51Z</time>
      </trkpt>
      <trkpt lat="45.36304" lon="7.03534">
        <ele>1777</ele>
        <time>2019-04-23T05:39:51Z</time>
      </trkpt>
      <trkpt lat="45.3628" lon="7.03505">
        <ele>1774</ele>
        <time>2019-04-23T05:40:51Z</time>
      </trkpt>
      <trkpt lat="45.36194" lon="7.03434">
        <ele>1773</ele>
        <time>2019-04-23T05:41:51Z</time>
      </trkpt>
      <trkpt lat="45.35978" lon="7.03203">
        <ele>1767</ele>
        <time>2019-04-23T05:42:51Z</time>
      </trkpt>
      <trkpt lat="45.35956" lon="7.03187">
        <ele>1767</ele>
        <time>2019-04-23T05:43:51Z</time>
      </trkpt>
      <trkpt lat="45.35767" lon="7.03065">
        <ele>1777</ele>
        <time>2019-04-23T05:44:51Z</time>
      </trkpt>
      <trkpt lat="45.35735" lon="7.03035">
        <ele>1774</ele>
        <time>2019-04-23T05:45:51Z</time>
      </trkpt>
      <trkpt lat="45.35705" lon="7.03004">
        <ele>1768</ele>
        <time>2019-04-23T05:46:51Z</time>
      </trkpt>
      <trkpt lat="45.35667" lon="7.02979">
        <ele>1769</ele>
        <time>2019-04-23T05:47:51Z</time>
      </trkpt>
      <trkpt lat="45.35632" lon="7.02963">
        <ele>1768</ele>
        <time>2019-04-23T05:48:51Z</time>
      </trkpt>
      <trkpt lat="45.35608" lon="7.02959">
        <ele>1768</ele>
        <time>2019-04-23T05:49:51Z</time>
      </trkpt>
      <trkpt lat="45.35583" lon="7.02959">
        <ele>1769</ele>
        <time>2019-04-23T05:50:51Z</time>
      </trkpt>
      <trkpt lat="45.35211" lon="7.03017">
        <ele>1757</ele>
        <time>2019-04-23T05:51:51Z</time>
      </trkpt>
      <trkpt lat="45.35156" lon="7.03016">
        <ele>1756</ele>
        <time>2019-04-23T05:52:51Z</time>
      </trkpt>
      <trkpt lat="45.35098" lon="7.03009">
        <ele>1758</ele>
        <time>2019-04-23T05:53:51Z</time>
      </trkpt>
      <trkpt lat="45.34924" lon="7.02977">
        <ele>1756</ele>
        <time>2019-04-23T05:54:51Z</time>
      </trkpt>
      <trkpt lat="45.34753" lon="7.02961">
        <ele>1754</ele>
        <time>2019-04-23T05:55:51Z</time>
      </trkpt>
      <trkpt lat="45.3467" lon="7.02948">
        <ele>1754</ele>
        <time>2019-04-23T05:56:51Z</time>
      </trkpt>
      <trkpt lat="45.34584" lon="7.02919">
        <ele>1749</ele>
        <time>2019-04-23T05:57:51Z</time>
      </trkpt>
      <trkpt lat="45.34423" lon="7.02852">
        <ele>1750</ele>
        <time>2019-04-23T05:58:51Z</time>
      </trkpt>
      <trkpt lat="45.34354" lon="7.02813">
        <ele>1748</ele>
        <time>2019-04-23T05:59:51Z</time>
      </trkpt>
      <trkpt lat="45.34081" lon="7.02614">
        <ele>1749</ele>
        <time>2019-04-23T06:00:51Z</time>
      </trkpt>
      <trkpt lat="45.34047" lon="7.02585">
        <ele>1748</ele>
        <time>2019-04-23T06:01:51Z</time>
      </trkpt>
      <trkpt lat="45.34002" lon="7.02535">
        <ele>1747</ele>
        <time>2019-04-23T06:02:51Z</time>
      </trkpt>
      <trkpt lat="45.3392" lon="7.02423">
        <ele>1744</ele>
        <time>2019-04-23T06:03:51Z</time>
      </trkpt>
      <trkpt lat="45.33898" lon="7.02393">
        <ele>1743</ele>
        <time>2019-04-23T06:04:51Z</time>
      </trkpt>
      <trkpt lat="45.33872" lon="7.02364">
        <ele>1743</ele>
        <time>2019-04-23T06:05:51Z</time>
      </trkpt>
      <trkpt lat="45.33176" lon="7.01654">
        <ele>1734</ele>
        <time>2019-04-23T06:06:51Z</time>
      </trkpt>
      <trkpt lat="45.33152" lon="7.01625">
        <ele>1734</ele>
        <time>2019-04-23T06:07:51Z</time>
      </trkpt>
      <trkpt lat="45.33134" lon="7.01599">
        <ele>1735</ele>
        <time>2019-04-23T06:08:51Z</time>
      </trkpt>
      <trkpt lat="45.33052" lon="7.0147">
        <ele>1740</ele>
        <time>2019-04-23T06:09:51Z</time>
      </trkpt>
      <trkpt lat="45.33029" lon="7.01429">
        <ele>1743</ele>
        <time>2019-04-23T06:10:51Z</time>
      </trkpt>
      <trkpt lat="45.33013" lon="7.01392">
        <ele>1745</ele>
        <time>2019-04-23T06:11:51Z</time>
      </trkpt>
      <trkpt lat="45.33" lon="7.01352">
        <ele>1746</ele>
        <time>2019-04-23T06:12:51Z</time>
      </trkpt>
      <trkpt lat="45.32939" lon="7.01153">
        <ele>1741</ele>
        <time>2019-04-23T06:13:51Z</time>
      </trkpt>
      <trkpt lat="45.32926" lon="7.01116">
        <ele>1739</ele>
        <time>2019-04-23T06:14:51Z</time>
      </trkpt>
      <trkpt lat="45.32911" lon="7.01081">
        <ele>1737</ele>
        <time>2019-04-23T06:15:51Z</time>
      </trkpt>
      <trkpt lat="45.32855" lon="7.00969">
        <ele>1734</ele>
        <time>2019-04-23T06:16:51Z</time>
      </trkpt>
      <trkpt lat="45.32717" lon="7.00682">
        <ele>1731</ele>
        <time>2019-04-23T06:17:51Z</time>
      </trkpt>
      <trkpt lat="45.32617" lon="7.00481">
        <ele>1738</ele>
        <time>2019-04-23T06:18:51Z</time>
      </trkpt>
      <trkpt lat="45.32584" lon="7.00419">
        <ele>1736</ele>
        <time>2019-04-23T06:19:51Z</time>
      </trkpt>
      <trkpt lat="45.32548" lon="7.00367">
        <ele>1735</ele>
        <time>2019-04-23T06:20:51Z</time>
      </trkpt>
      <trkpt lat="45.32515" lon="7.00327">
        <ele>1734</ele>
        <time>2019-04-23T06:21:51Z</time>
      </trkpt>
      <trkpt lat="45.32399" lon="7.00214">
        <ele>1732</ele>
        <time>2019-04-23T06:22:51Z</time>
      </trkpt>
      <trkpt lat="45.32353" lon="7.00174">
        <ele>1732</ele>
        <time>2019-04-23T06:23:51Z</time>
      </trkpt>
      <trkpt lat="45.32342" lon="7.00153">
        <ele>1732</ele>
        <time>2019-04-23T06:24:51Z</time>
      </trkpt>
      <trkpt lat="45.32326" lon="7.00143">
        <ele>1732</ele>
        <time>2019-04-23T06:25:51Z</time>
      </trkpt>
      <trkpt lat="45.32302" lon="7.0012">
        <ele>1733</ele>
        <time>2019-04-23T06:26:51Z</time>
      </trkpt>
      <trkpt lat="45.3219" lon="7.0001">
        <ele>1733</ele>
        <time>2019-04-23T06:27:51Z</time>
      </trkpt>
      <trkpt lat="45.32095" lon="6.99919">
        <ele>1730</ele>
        <time>2019-04-23T06:28:51Z</time>
      </trkpt>
      <trkpt lat="45.31995" lon="6.9982">
        <ele>1731</ele>
        <time>2019-04-23T06:29:51Z</time>
      </trkpt>
      <trkpt lat="45.3134" lon="6.99189">
        <ele>1743</ele>
        <time>2019-04-23T06:30:51Z</time>
      </trkpt>
      <trkpt lat="45.31294" lon="6.9914">
        <ele>1743</ele>
        <time>2019-04-23T06:31:51Z</time>
      </trkpt>
      <trkpt lat="45.31268" lon="6.99094">
        <ele>1742</ele>
        <time>2019-04-23T06:32:51Z</time>
      </trkpt>
      <trkpt lat="45.31252" lon="6.99054">
        <ele>1739</ele>
        <time>2019-04-23T06:33:51Z</time>
      </trkpt>
      <trkpt lat="45.31217" lon="6.98939">
        <ele>1745</ele>
        <time>2019-04-23T06:34:51Z</time>
      </trkpt>
      <trkpt lat="45.31215" lon="6.98931">
        <ele>1747</ele>
        <time>2019-04-23T06:35:51Z</time>
      </trkpt>
      <trkpt lat="45.31212" lon="6.98899">
        <ele>1753</ele>
        <time>2019-04-23T06:36:51Z</time>
      </trkpt>
      <trkpt lat="45.31214" lon="6.98861">
        <ele>1758</ele>
        <time>2019-04-23T06:37:51Z</time>
      </trkpt>
      <trkpt lat="45.31227" lon="6.98795">
        <ele>1755</ele>
        <time>2019-04-23T06:38:51Z</time>
      </trkpt>
      <trkpt lat="45.31229" lon="6.98738">
        <ele>1754</ele>
        <time>2019-04-23T06:39:51Z</time>
      </trkpt>
      <trkpt lat="45.31224" lon="6.98677">
        <ele>1749</ele>
        <time>2019-04-23T06:40:51Z</time>
      </trkpt>
      <trkpt lat="45.31208" lon="6.98617">
        <ele>1748</ele>
        <time>2019-04-23T06:41:51Z</time>
      </trkpt>
      <trkpt lat="45.31021" lon="6.98181">
        <ele>1733</ele>
        <time>2019-04-23T06:42:51Z</time>
      </trkpt>
      <trkpt lat="45.30869" lon="6.97838">
        <ele>1703</ele>
        <time>2019-04-23T06:43:51Z</time>
      </trkpt>
      <trkpt lat="45.30852" lon="6.97796">
        <ele>1699</ele>
        <time>2019-04-23T06:44:51Z</time>
      </trkpt>
      <trkpt lat="45.30838" lon="6.97747">
        <ele>1692</ele>
        <time>2019-04-23T06:45:51Z</time>
      </trkpt>
      <trkpt lat="45.30834" lon="6.97716">
        <ele>1691</ele>
        <time>2019-04-23T06:46:51Z</time>
      </trkpt>
      <trkpt lat="45.30832" lon="6.97681">
        <ele>1688</ele>
        <time>2019-04-23T06:47:51Z</time>
      </trkpt>
      <trkpt lat="45.30836" lon="6.9762">
        <ele>1685</ele>
        <time>2019-04-23T06:48:51Z</time>
      </trkpt>
      <trkpt lat="45.3084" lon="6.97596">
        <ele>1684</ele>
        <time>2019-04-23T06:49:51Z</time>
      </trkpt>
      <trkpt lat="45.3086" lon="6.97518">
        <ele>1681</ele>
        <time>2019-04-23T06:50:51Z</time>
      </trkpt>
      <trkpt lat="45.30864" lon="6.97494">
        <ele>1681</ele>
        <time>2019-04-23T06:51:51Z</time>
      </trkpt>
      <trkpt lat="45.30889" lon="6.97395">
        <ele>1681</ele>
        <time>2019-04-23T06:52:51Z</time>
      </trkpt>
      <trkpt lat="45.30894" lon="6.97369">
        <ele>1681</ele>
        <time>2019-04-23T06:53:51Z</time>
      </trkpt>
      <trkpt lat="45.309" lon="6.97313">
        <ele>1682</ele>
        <time>2019-04-23T06:54:51Z</time>
      </trkpt>
      <trkpt lat="45.30899" lon="6.97274">
        <ele>1682</ele>
        <time>2019-04-23T06:55:51Z</time>
      </trkpt>
      <trkpt lat="45.30894" lon="6.97244">
        <ele>1682</ele>
        <time>2019-04-23T06:56:51Z</time>
      </trkpt>
      <trkpt lat="45.30884" lon="6.97209">
        <ele>1682</ele>
        <time>2019-04-23T06:57:51Z</time>
      </trkpt>
      <trkpt lat="45.30863" lon="6.97162">
        <ele>1682</ele>
        <time>2019-04-23T06:58:51Z</time>
      </trkpt>
      <trkpt lat="45.30808" lon="6.97057">
        <ele>1682</ele>
        <time>2019-04-23T06:59:51Z</time>
      </trkpt>
      <trkpt lat="45.30708" lon="6.96877">
        <ele>1678</ele>
        <time>2019-04-23T07:00:51Z</time>
      </trkpt>
      <trkpt lat="45.30683" lon="6.9682">
        <ele>1677</ele>
        <time>2019-04-23T07:01:51Z</time>
      </trkpt>
      <trkpt lat="45.30661" lon="6.9675">
        <ele>1675</ele>
        <time>2019-04-23T07:02:51Z</time>
      </trkpt>
      <trkpt lat="45.30644" lon="6.96678">
        <ele>1677</ele>
        <time>2019-04-23T07:03:51Z</time>
      </trkpt>
      <trkpt lat="45.30636" lon="6.96598">
        <ele>1677</ele>
        <time>2019-04-23T07:04:51Z</time>
      </trkpt>
      <trkpt lat="45.3063" lon="6.9648">
        <ele>1678</ele>
        <time>2019-04-23T07:05:51Z</time>
      </trkpt>
      <trkpt lat="45.30628" lon="6.9638">
        <ele>1676</ele>
        <time>2019-04-23T07:06:51Z</time>
      </trkpt>
      <trkpt lat="45.30634" lon="6.96254">
        <ele>1676</ele>
        <time>2019-04-23T07:07:51Z</time>
      </trkpt>
      <trkpt lat="45.30645" lon="6.96094">
        <ele>1682</ele>
        <time>2019-04-23T07:08:51Z</time>
      </trkpt>
      <trkpt lat="45.30644" lon="6.96048">
        <ele>1682</ele>
        <time>2019-04-23T07:09:51Z</time>
      </trkpt>
      <trkpt lat="45.30639" lon="6.96005">
        <ele>1681</ele>
        <time>2019-04-23T07:10:51Z</time>
      </trkpt>
      <trkpt lat="45.3062" lon="6.95904">
        <ele>1688</ele>
        <time>2019-04-23T07:11:51Z</time>
      </trkpt>
      <trkpt lat="45.30596" lon="6.95817">
        <ele>1695</ele>
        <time>2019-04-23T07:12:51Z</time>
      </trkpt>
      <trkpt lat="45.3057" lon="6.95759">
        <ele>1692</ele>
        <time>2019-04-23T07:13:51Z</time>
      </trkpt>
      <trkpt lat="45.30544" lon="6.95721">
        <ele>1694</ele>
        <time>2019-04-23T07:14:51Z</time>
      </trkpt>
      <trkpt lat="45.30502" lon="6.95686">
        <ele>1689</ele>
        <time>2019-04-23T07:15:51Z</time>
      </trkpt>
      <trkpt lat="45.30353" lon="6.95605">
        <ele>1699</ele>
        <time>2019-04-23T07:16:51Z</time>
      </trkpt>
      <trkpt lat="45.3033" lon="6.95585">
        <ele>1701</ele>
        <time>2019-04-23T07:17:51Z</time>
      </trkpt>
      <trkpt lat="45.30317" lon="6.95567">
        <ele>1702</ele>
        <time>2019-04-23T07:18:51Z</time>
      </trkpt>
      <trkpt lat="45.30307" lon="6.95546">
        <ele>1703</ele>
        <time>2019-04-23T07:19:51Z</time>
      </trkpt>
      <trkpt lat="45.30296" lon="6.95515">
        <ele>1706</ele>
        <time>2019-04-23T07:20:51Z</time>
      </trkpt>
      <trkpt lat="45.30289" lon="6.95488">
        <ele>1708</ele>
        <time>2019-04-23T07:21:51Z</time>
      </trkpt>
      <trkpt lat="45.30261" lon="6.95349">
        <ele>1716</ele>
        <time>2019-04-23T07:22:51Z</time>
      </trkpt>
      <trkpt lat="45.30249" lon="6.95317">
        <ele>1718</ele>
        <time>2019-04-23T07:23:51Z</time>
      </trkpt>
      <trkpt lat="45.30239" lon="6.95302">
        <ele>1719</ele>
        <time>2019-04-23T07:24:51Z</time>
      </trkpt>
      <trkpt lat="45.30231" lon="6.95294">
        <ele>1720</ele>
        <time>2019-04-23T07:25:51Z</time>
      </trkpt>
      <trkpt lat="45.30219" lon="6.95289">
        <ele>1721</ele>
        <time>2019-04-23T07:26:51Z</time>
      </trkpt>
      <trkpt lat="45.30196" lon="6.95289">
        <ele>1723</ele>
        <time>2019-04-23T07:27:51Z</time>
      </trkpt>
      <trkpt lat="45.30134" lon="6.95304">
        <ele>1723</ele>
        <time>2019-04-23T07:28:51Z</time>
      </trkpt>
      <trkpt lat="45.30117" lon="6.95305">
        <ele>1723</ele>
        <time>2019-04-23T07:29:51Z</time>
      </trkpt>
      <trkpt lat="45.301" lon="6.95299">
        <ele>1724</ele>
        <time>2019-04-23T07:30:51Z</time>
      </trkpt>
      <trkpt lat="45.30085" lon="6.95287">
        <ele>1725</ele>
        <time>2019-04-23T07:31:51Z</time>
      </trkpt>
      <trkpt lat="45.30076" lon="6.95274">
        <ele>1723</ele>
        <time>2019-04-23T07:32:51Z</time>
      </trkpt>
      <trkpt lat="45.30069" lon="6.95256">
        <ele>1721</ele>
        <time>2019-04-23T07:33:51Z</time>
      </trkpt>
      <trkpt lat="45.3001" lon="6.94988">
        <ele>1736</ele>
        <time>2019-04-23T07:34:51Z</time>
      </trkpt>
      <trkpt lat="45.30006" lon="6.94953">
        <ele>1737</ele>
        <time>2019-04-23T07:35:51Z</time>
      </trkpt>
      <trkpt lat="45.30007" lon="6.94923">
        <ele>1738</ele>
        <time>2019-04-23T07:36:51Z</time>
      </trkpt>
      <trkpt lat="45.30009" lon="6.94906">
        <ele>1739</ele>
        <time>2019-04-23T07:37:51Z</time>
      </trkpt>
      <trkpt lat="45.30068" lon="6.9472">
        <ele>1739</ele>
        <time>2019-04-23T07:38:51Z</time>
      </trkpt>
      <trkpt lat="45.30078" lon="6.94681">
        <ele>1738</ele>
        <time>2019-04-23T07:39:51Z</time>
      </trkpt>
      <trkpt lat="45.30086" lon="6.9462">
        <ele>1736</ele>
        <time>2019-04-23T07:40:51Z</time>
      </trkpt>
      <trkpt lat="45.30087" lon="6.94544">
        <ele>1735</ele>
        <time>2019-04-23T07:41:51Z</time>
      </trkpt>
      <trkpt lat="45.30079" lon="6.94358">
        <ele>1728</ele>
        <time>2019-04-23T07:42:51Z</time>
      </trkpt>
      <trkpt lat="45.30077" lon="6.9433">
        <ele>1727</ele>
        <time>2019-04-23T07:43:51Z</time>
      </trkpt>
      <trkpt lat="45.30072" lon="6.94305">
        <ele>1724</ele>
        <time>2019-04-23T07:44:51Z</time>
      </trkpt>
      <trkpt lat="45.30046" lon="6.94225">
        <ele>1716</ele>
        <time>2019-04-23T07:45:51Z</time>
      </trkpt>
      <trkpt lat="45.30029" lon="6.94194">
        <ele>1716</ele>
        <time>2019-04-23T07:46:51Z</time>
      </trkpt>
      <trkpt lat="45.30011" lon="6.94165">
        <ele>1716</ele>
        <time>2019-04-23T07:47:51Z</time>
      </trkpt>
      <trkpt lat="45.29939" lon="6.94063">
        <ele>1715</ele>
        <time>2019-04-23T07:48:51Z</time>
      </trkpt>
      <trkpt lat="45.2993" lon="6.94045">
        <ele>1715</ele>
        <time>2019-04-23T07:49:51Z</time>
      </trkpt>
      <trkpt lat="45.29924" lon="6.94028">
        <ele>1715</ele>
        <time>2019-04-23T07:50:51Z</time>
      </trkpt>
      <trkpt lat="45.2992" lon="6.94013">
        <ele>1716</ele>
        <time>2019-04-23T07:51:51Z</time>
      </trkpt>
      <trkpt lat="45.29919" lon="6.93998">
        <ele>1717</ele>
        <time>2019-04-23T07:52:51Z</time>
      </trkpt>
      <trkpt lat="45.29921" lon="6.93981">
        <ele>1716</ele>
        <time>2019-04-23T07:53:51Z</time>
      </trkpt>
      <trkpt lat="45.29926" lon="6.93959">
        <ele>1715</ele>
        <time>2019-04-23T07:54:51Z</time>
      </trkpt>
      <trkpt lat="45.29972" lon="6.93817">
        <ele>1703</ele>
        <time>2019-04-23T07:55:51Z</time>
      </trkpt>
      <trkpt lat="45.29978" lon="6.93791">
        <ele>1702</ele>
        <time>2019-04-23T07:56:51Z</time>
      </trkpt>
      <trkpt lat="45.29981" lon="6.93752">
        <ele>1702</ele>
        <time>2019-04-23T07:57:51Z</time>
      </trkpt>
      <trkpt lat="45.29979" lon="6.93726">
        <ele>1702</ele>
        <time>2019-04-23T07:58:51Z</time>
      </trkpt>
      <trkpt lat="45.29974" lon="6.93695">
        <ele>1703</ele>
        <time>2019-04-23T07:59:51Z</time>
      </trkpt>
      <trkpt lat="45.29948" lon="6.93575">
        <ele>1698</ele>
        <time>2019-04-23T08:00:51Z</time>
      </trkpt>
      <trkpt lat="45.29942" lon="6.93557">
        <ele>1697</ele>
        <time>2019-04-23T08:01:51Z</time>
      </trkpt>
      <trkpt lat="45.29936" lon="6.93547">
        <ele>1695</ele>
        <time>2019-04-23T08:02:51Z</time>
      </trkpt>
      <trkpt lat="45.29928" lon="6.93537">
        <ele>1693</ele>
        <time>2019-04-23T08:03:51Z</time>
      </trkpt>
      <trkpt lat="45.2992" lon="6.93532">
        <ele>1690</ele>
        <time>2019-04-23T08:04:51Z</time>
      </trkpt>
      <trkpt lat="45.29912" lon="6.9353">
        <ele>1688</ele>
        <time>2019-04-23T08:05:51Z</time>
      </trkpt>
      <trkpt lat="45.29902" lon="6.9353">
        <ele>1686</ele>
        <time>2019-04-23T08:06:51Z</time>
      </trkpt>
      <trkpt lat="45.29885" lon="6.93537">
        <ele>1683</ele>
        <time>2019-04-23T08:07:51Z</time>
      </trkpt>
      <trkpt lat="45.29829" lon="6.93595">
        <ele>1680</ele>
        <time>2019-04-23T08:08:51Z</time>
      </trkpt>
      <trkpt lat="45.29768" lon="6.9364">
        <ele>1679</ele>
        <time>2019-04-23T08:09:51Z</time>
      </trkpt>
      <trkpt lat="45.29741" lon="6.93665">
        <ele>1679</ele>
        <time>2019-04-23T08:10:51Z</time>
      </trkpt>
      <trkpt lat="45.29726" lon="6.93676">
        <ele>1677</ele>
        <time>2019-04-23T08:11:51Z</time>
      </trkpt>
      <trkpt lat="45.2972" lon="6.93677">
        <ele>1675</ele>
        <time>2019-04-23T08:12:51Z</time>
      </trkpt>
      <trkpt lat="45.29706" lon="6.93673">
        <ele>1672</ele>
        <time>2019-04-23T08:13:51Z</time>
      </trkpt>
      <trkpt lat="45.29699" lon="6.93666">
        <ele>1670</ele>
        <time>2019-04-23T08:14:51Z</time>
      </trkpt>
      <trkpt lat="45.29693" lon="6.93656">
        <ele>1667</ele>
        <time>2019-04-23T08:15:51Z</time>
      </trkpt>
      <trkpt lat="45.29687" lon="6.93637">
        <ele>1663</ele>
        <time>2019-04-23T08:16:51Z</time>
      </trkpt>
      <trkpt lat="45.29687" lon="6.93622">
        <ele>1661</ele>
        <time>2019-04-23T08:17:51Z</time>
      </trkpt>
      <trkpt lat="45.29689" lon="6.9361">
        <ele>1659</ele>
        <time>2019-04-23T08:18:51Z</time>
      </trkpt>
      <trkpt lat="45.29692" lon="6.93602">
        <ele>1659</ele>
        <time>2019-04-23T08:19:51Z</time>
      </trkpt>
      <trkpt lat="45.29698" lon="6.93594">
        <ele>1658</ele>
        <time>2019-04-23T08:20:51Z</time>
      </trkpt>
      <trkpt lat="45.29758" lon="6.9356">
        <ele>1660</ele>
        <time>2019-04-23T08:21:51Z</time>
      </trkpt>
      <trkpt lat="45.29768" lon="6.93551">
        <ele>1661</ele>
        <time>2019-04-23T08:22:51Z</time>
      </trkpt>
      <trkpt lat="45.29783" lon="6.93526">
        <ele>1661</ele>
        <time>2019-04-23T08:23:51Z</time>
      </trkpt>
      <trkpt lat="45.29787" lon="6.93513">
        <ele>1660</ele>
        <time>2019-04-23T08:24:51Z</time>
      </trkpt>
      <trkpt lat="45.29792" lon="6.93484">
        <ele>1658</ele>
        <time>2019-04-23T08:25:51Z</time>
      </trkpt>
      <trkpt lat="45.29798" lon="6.93425">
        <ele>1655</ele>
        <time>2019-04-23T08:26:51Z</time>
      </trkpt>
      <trkpt lat="45.29796" lon="6.93394">
        <ele>1654</ele>
        <time>2019-04-23T08:27:51Z</time>
      </trkpt>
      <trkpt lat="45.29786" lon="6.93365">
        <ele>1652</ele>
        <time>2019-04-23T08:28:51Z</time>
      </trkpt>
      <trkpt lat="45.29777" lon="6.9335">
        <ele>1651</ele>
        <time>2019-04-23T08:29:51Z</time>
      </trkpt>
      <trkpt lat="45.29765" lon="6.93336">
        <ele>1649</ele>
        <time>2019-04-23T08:30:51Z</time>
      </trkpt>
      <trkpt lat="45.29755" lon="6.93328">
        <ele>1647</ele>
        <time>2019-04-23T08:31:51Z</time>
      </trkpt>
      <trkpt lat="45.29732" lon="6.93321">
        <ele>1645</ele>
        <time>2019-04-23T08:32:51Z</time>
      </trkpt>
      <trkpt lat="45.2972" lon="6.93322">
        <ele>1644</ele>
        <time>2019-04-23T08:33:51Z</time>
      </trkpt>
      <trkpt lat="45.29706" lon="6.93326">
        <ele>1643</ele>
        <time>2019-04-23T08:34:51Z</time>
      </trkpt>
      <trkpt lat="45.29694" lon="6.93332">
        <ele>1642</ele>
        <time>2019-04-23T08:35:51Z</time>
      </trkpt>
      <trkpt lat="45.29669" lon="6.93359">
        <ele>1641</ele>
        <time>2019-04-23T08:36:51Z</time>
      </trkpt>
      <trkpt lat="45.29636" lon="6.93412">
        <ele>1638</ele>
        <time>2019-04-23T08:37:51Z</time>
      </trkpt>
      <trkpt lat="45.29625" lon="6.93426">
        <ele>1636</ele>
        <time>2019-04-23T08:38:51Z</time>
      </trkpt>
      <trkpt lat="45.29604" lon="6.93434">
        <ele>1633</ele>
        <time>2019-04-23T08:39:51Z</time>
      </trkpt>
      <trkpt lat="45.29578" lon="6.93434">
        <ele>1628</ele>
        <time>2019-04-23T08:40:51Z</time>
      </trkpt>
      <trkpt lat="45.2954" lon="6.93407">
        <ele>1621</ele>
        <time>2019-04-23T08:41:51Z</time>
      </trkpt>
      <trkpt lat="45.29494" lon="6.93355">
        <ele>1616</ele>
        <time>2019-04-23T08:42:51Z</time>
      </trkpt>
      <trkpt lat="45.2948" lon="6.93335">
        <ele>1613</ele>
        <time>2019-04-23T08:43:51Z</time>
      </trkpt>
      <trkpt lat="45.29445" lon="6.93271">
        <ele>1606</ele>
        <time>2019-04-23T08:44:51Z</time>
      </trkpt>
      <trkpt lat="45.29388" lon="6.93131">
        <ele>1596</ele>
        <time>2019-04-23T08:45:51Z</time>
      </trkpt>
      <trkpt lat="45.29381" lon="6.93108">
        <ele>1594</ele>
        <time>2019-04-23T08:46:51Z</time>
      </trkpt>
      <trkpt lat="45.2937" lon="6.93046">
        <ele>1590</ele>
        <time>2019-04-23T08:47:51Z</time>
      </trkpt>
      <trkpt lat="45.29366" lon="6.93003">
        <ele>1590</ele>
        <time>2019-04-23T08:48:51Z</time>
      </trkpt>
      <trkpt lat="45.29365" lon="6.92971">
        <ele>1587</ele>
        <time>2019-04-23T08:49:51Z</time>
      </trkpt>
      <trkpt lat="45.29368" lon="6.92945">
        <ele>1587</ele>
        <time>2019-04-23T08:50:51Z</time>
      </trkpt>
      <trkpt lat="45.29373" lon="6.92926">
        <ele>1587</ele>
        <time>2019-04-23T08:51:51Z</time>
      </trkpt>
      <trkpt lat="45.29383" lon="6.92902">
        <ele>1586</ele>
        <time>2019-04-23T08:52:51Z</time>
      </trkpt>
      <trkpt lat="45.29447" lon="6.92801">
        <ele>1582</ele>
        <time>2019-04-23T08:53:51Z</time>
      </trkpt>
      <trkpt lat="45.2948" lon="6.92731">
        <ele>1583</ele>
        <time>2019-04-23T08:54:51Z</time>
      </trkpt>
      <trkpt lat="45.29483" lon="6.92716">
        <ele>1584</ele>
        <time>2019-04-23T08:55:51Z</time>
      </trkpt>
      <trkpt lat="45.29482" lon="6.92685">
        <ele>1582</ele>
        <time>2019-04-23T08:56:51Z</time>
      </trkpt>
      <trkpt lat="45.2948" lon="6.92667">
        <ele>1581</ele>
        <time>2019-04-23T08:57:51Z</time>
      </trkpt>
      <trkpt lat="45.29476" lon="6.92652">
        <ele>1580</ele>
        <time>2019-04-23T08:58:51Z</time>
      </trkpt>
      <trkpt lat="45.29472" lon="6.92647">
        <ele>1578</ele>
        <time>2019-04-23T08:59:51Z</time>
      </trkpt>
      <trkpt lat="45.29461" lon="6.92642">
        <ele>1574</ele>
        <time>2019-04-23T09:00:51Z</time>
      </trkpt>
      <trkpt lat="45.29433" lon="6.92654">
        <ele>1565</ele>
        <time>2019-04-23T09:01:51Z</time>
      </trkpt>
      <trkpt lat="45.29423" lon="6.92655">
        <ele>1562</ele>
        <time>2019-04-23T09:02:51Z</time>
      </trkpt>
      <trkpt lat="45.29414" lon="6.92649">
        <ele>1559</ele>
        <time>2019-04-23T09:03:51Z</time>
      </trkpt>
      <trkpt lat="45.29409" lon="6.92639">
        <ele>1558</ele>
        <time>2019-04-23T09:04:51Z</time>
      </trkpt>
      <trkpt lat="45.29406" lon="6.9263">
        <ele>1557</ele>
        <time>2019-04-23T09:05:51Z</time>
      </trkpt>
      <trkpt lat="45.29407" lon="6.9261">
        <ele>1556</ele>
        <time>2019-04-23T09:06:51Z</time>
      </trkpt>
      <trkpt lat="45.29419" lon="6.92565">
        <ele>1556</ele>
        <time>2019-04-23T09:07:51Z</time>
      </trkpt>
      <trkpt lat="45.29421" lon="6.92549">
        <ele>1556</ele>
        <time>2019-04-23T09:08:51Z</time>
      </trkpt>
      <trkpt lat="45.29417" lon="6.92493">
        <ele>1551</ele>
        <time>2019-04-23T09:09:51Z</time>
      </trkpt>
      <trkpt lat="45.29418" lon="6.92451">
        <ele>1551</ele>
        <time>2019-04-23T09:10:51Z</time>
      </trkpt>
      <trkpt lat="45.29417" lon="6.92445">
        <ele>1550</ele>
        <time>2019-04-23T09:11:51Z</time>
      </trkpt>
      <trkpt lat="45.29408" lon="6.92436">
        <ele>1548</ele>
        <time>2019-04-23T09:12:51Z</time>
      </trkpt>
      <trkpt lat="45.29402" lon="6.92435">
        <ele>1547</ele>
        <time>2019-04-23T09:13:51Z</time>
      </trkpt>
      <trkpt lat="45.29382" lon="6.9244">
        <ele>1543</ele>
        <time>2019-04-23T09:14:51Z</time>
      </trkpt>
      <trkpt lat="45.29369" lon="6.9244">
        <ele>1540</ele>
        <time>2019-04-23T09:15:51Z</time>
      </trkpt>
      <trkpt lat="45.2936" lon="6.92435">
        <ele>1538</ele>
        <time>2019-04-23T09:16:51Z</time>
      </trkpt>
      <trkpt lat="45.29345" lon="6.92416">
        <ele>1533</ele>
        <time>2019-04-23T09:17:51Z</time>
      </trkpt>
      <trkpt lat="45.29337" lon="6.92394">
        <ele>1530</ele>
        <time>2019-04-23T09:18:51Z</time>
      </trkpt>
      <trkpt lat="45.29335" lon="6.92375">
        <ele>1529</ele>
        <time>2019-04-23T09:19:51Z</time>
      </trkpt>
      <trkpt lat="45.29339" lon="6.92359">
        <ele>1529</ele>
        <time>2019-04-23T09:20:51Z</time>
      </trkpt>
      <trkpt lat="45.29367" lon="6.92281">
        <ele>1533</ele>
        <time>2019-04-23T09:21:51Z</time>
      </trkpt>
      <trkpt lat="45.29368" lon="6.92259">
        <ele>1532</ele>
        <time>2019-04-23T09:22:51Z</time>
      </trkpt>
      <trkpt lat="45.29366" lon="6.92252">
        <ele>1531</ele>
        <time>2019-04-23T09:23:51Z</time>
      </trkpt>
      <trkpt lat="45.29363" lon="6.92246">
        <ele>1530</ele>
        <time>2019-04-23T09:24:51Z</time>
      </trkpt>
      <trkpt lat="45.29354" lon="6.92242">
        <ele>1527</ele>
        <time>2019-04-23T09:25:51Z</time>
      </trkpt>
      <trkpt lat="45.29333" lon="6.92241">
        <ele>1519</ele>
        <time>2019-04-23T09:26:51Z</time>
      </trkpt>
      <trkpt lat="45.29329" lon="6.92238">
        <ele>1519</ele>
        <time>2019-04-23T09:27:51Z</time>
      </trkpt>
      <trkpt lat="45.29324" lon="6.92229">
        <ele>1518</ele>
        <time>2019-04-23T09:28:51Z</time>
      </trkpt>
      <trkpt lat="45.29316" lon="6.92185">
        <ele>1514</ele>
        <time>2019-04-23T09:29:51Z</time>
      </trkpt>
      <trkpt lat="45.29304" lon="6.92135">
        <ele>1509</ele>
        <time>2019-04-23T09:30:51Z</time>
      </trkpt>
      <trkpt lat="45.29294" lon="6.92112">
        <ele>1506</ele>
        <time>2019-04-23T09:31:51Z</time>
      </trkpt>
      <trkpt lat="45.29257" lon="6.92043">
        <ele>1500</ele>
        <time>2019-04-23T09:32:51Z</time>
      </trkpt>
      <trkpt lat="45.29214" lon="6.91987">
        <ele>1495</ele>
        <time>2019-04-23T09:33:51Z</time>
      </trkpt>
      <trkpt lat="45.29187" lon="6.91942">
        <ele>1489</ele>
        <time>2019-04-23T09:34:51Z</time>
      </trkpt>
      <trkpt lat="45.29172" lon="6.9191">
        <ele>1483</ele>
        <time>2019-04-23T09:35:51Z</time>
      </trkpt>
      <trkpt lat="45.29163" lon="6.91882">
        <ele>1481</ele>
        <time>2019-04-23T09:36:51Z</time>
      </trkpt>
      <trkpt lat="45.29158" lon="6.91856">
        <ele>1479</ele>
        <time>2019-04-23T09:37:51Z</time>
      </trkpt>
      <trkpt lat="45.2915" lon="6.9183">
        <ele>1477</ele>
        <time>2019-04-23T09:38:51Z</time>
      </trkpt>
      <trkpt lat="45.29149" lon="6.91822">
        <ele>1476</ele>
        <time>2019-04-23T09:39:51Z</time>
      </trkpt>
      <trkpt lat="45.29149" lon="6.91695">
        <ele>1473</ele>
        <time>2019-04-23T09:40:51Z</time>
      </trkpt>
      <trkpt lat="45.29141" lon="6.91631">
        <ele>1472</ele>
        <time>2019-04-23T09:41:51Z</time>
      </trkpt>
      <trkpt lat="45.29144" lon="6.91589">
        <ele>1471</ele>
        <time>2019-04-23T09:42:51Z</time>
      </trkpt>
      <trkpt lat="45.29143" lon="6.91579">
        <ele>1471</ele>
        <time>2019-04-23T09:43:51Z</time>
      </trkpt>
      <trkpt lat="45.29138" lon="6.91559">
        <ele>1471</ele>
        <time>2019-04-23T09:44:51Z</time>
      </trkpt>
      <trkpt lat="45.29123" lon="6.91515">
        <ele>1470</ele>
        <time>2019-04-23T09:45:51Z</time>
      </trkpt>
      <trkpt lat="45.29113" lon="6.91491">
        <ele>1470</ele>
        <time>2019-04-23T09:46:51Z</time>
      </trkpt>
      <trkpt lat="45.29051" lon="6.91389">
        <ele>1468</ele>
        <time>2019-04-23T09:47:51Z</time>
      </trkpt>
      <trkpt lat="45.29038" lon="6.91352">
        <ele>1467</ele>
        <time>2019-04-23T09:48:51Z</time>
      </trkpt>
      <trkpt lat="45.29033" lon="6.91328">
        <ele>1467</ele>
        <time>2019-04-23T09:49:51Z</time>
      </trkpt>
      <trkpt lat="45.29033" lon="6.9131">
        <ele>1467</ele>
        <time>2019-04-23T09:50:51Z</time>
      </trkpt>
      <trkpt lat="45.29035" lon="6.91278">
        <ele>1466</ele>
        <time>2019-04-23T09:51:51Z</time>
      </trkpt>
      <trkpt lat="45.2904" lon="6.91259">
        <ele>1466</ele>
        <time>2019-04-23T09:52:51Z</time>
      </trkpt>
      <trkpt lat="45.29041" lon="6.91245">
        <ele>1466</ele>
        <time>2019-04-23T09:53:51Z</time>
      </trkpt>
      <trkpt lat="45.2904" lon="6.90728">
        <ele>1460</ele>
        <time>2019-04-23T09:54:51Z</time>
      </trkpt>
      <trkpt lat="45.29036" lon="6.90688">
        <ele>1458</ele>
        <time>2019-04-23T09:55:51Z</time>
      </trkpt>
      <trkpt lat="45.29033" lon="6.90673">
        <ele>1457</ele>
        <time>2019-04-23T09:56:51Z</time>
      </trkpt>
      <trkpt lat="45.29022" lon="6.90643">
        <ele>1456</ele>
        <time>2019-04-23T09:57:51Z</time>
      </trkpt>
      <trkpt lat="45.28991" lon="6.90596">
        <ele>1455</ele>
        <time>2019-04-23T09:58:51Z</time>
      </trkpt>
      <trkpt lat="45.2895" lon="6.90529">
        <ele>1453</ele>
        <time>2019-04-23T09:59:51Z</time>
      </trkpt>
      <trkpt lat="45.28932" lon="6.90493">
        <ele>1451</ele>
        <time>2019-04-23T10:00:51Z</time>
      </trkpt>
      <trkpt lat="45.28846" lon="6.90289">
        <ele>1441</ele>
        <time>2019-04-23T10:01:51Z</time>
      </trkpt>
      <trkpt lat="45.2883" lon="6.90244">
        <ele>1438</ele>
        <time>2019-04-23T10:02:51Z</time>
      </trkpt>
      <trkpt lat="45.28832" lon="6.90237">
        <ele>1437</ele>
        <time>2019-04-23T10:03:51Z</time>
      </trkpt>
      <trkpt lat="45.28831" lon="6.90231">
        <ele>1436</ele>
        <time>2019-04-23T10:04:51Z</time>
      </trkpt>
      <trkpt lat="45.28827" lon="6.90226">
        <ele>1436</ele>
        <time>2019-04-23T10:05:51Z</time>
      </trkpt>
      <trkpt lat="45.28824" lon="6.90225">
        <ele>1436</ele>
        <time>2019-04-23T10:06:51Z</time>
      </trkpt>
      <trkpt lat="45.28822" lon="6.90221">
        <ele>1436</ele>
        <time>2019-04-23T10:07:51Z</time>
      </trkpt>
      <trkpt lat="45.28791" lon="6.90205">
        <ele>1437</ele>
        <time>2019-04-23T10:08:51Z</time>
      </trkpt>
      <trkpt lat="45.28765" lon="6.90173">
        <ele>1436</ele>
        <time>2019-04-23T10:09:51Z</time>
      </trkpt>
      <trkpt lat="45.28756" lon="6.90157">
        <ele>1435</ele>
        <time>2019-04-23T10:10:51Z</time>
      </trkpt>
      <trkpt lat="45.28742" lon="6.90122">
        <ele>1432</ele>
        <time>2019-04-23T10:11:51Z</time>
      </trkpt>
      <trkpt lat="45.28727" lon="6.90069">
        <ele>1428</ele>
        <time>2019-04-23T10:12:51Z</time>
      </trkpt>
      <trkpt lat="45.28696" lon="6.89941">
        <ele>1426</ele>
        <time>2019-04-23T10:13:51Z</time>
      </trkpt>
      <trkpt lat="45.28675" lon="6.89876">
        <ele>1424</ele>
        <time>2019-04-23T10:14:51Z</time>
      </trkpt>
      <trkpt lat="45.28654" lon="6.89832">
        <ele>1424</ele>
        <time>2019-04-23T10:15:51Z</time>
      </trkpt>
      <trkpt lat="45.2864" lon="6.89798">
        <ele>1426</ele>
        <time>2019-04-23T10:16:51Z</time>
      </trkpt>
      <trkpt lat="45.28628" lon="6.89752">
        <ele>1426</ele>
        <time>2019-04-23T10:17:51Z</time>
      </trkpt>
      <trkpt lat="45.28624" lon="6.89716">
        <ele>1426</ele>
        <time>2019-04-23T10:18:51Z</time>
      </trkpt>
      <trkpt lat="45.28623" lon="6.89676">
        <ele>1426</ele>
        <time>2019-04-23T10:19:51Z</time>
      </trkpt>
      <trkpt lat="45.28634" lon="6.89371">
        <ele>1421</ele>
        <time>2019-04-23T10:20:51Z</time>
      </trkpt>
      <trkpt lat="45.28632" lon="6.89291">
        <ele>1420</ele>
        <time>2019-04-23T10:21:51Z</time>
      </trkpt>
      <trkpt lat="45.28622" lon="6.89095">
        <ele>1417</ele>
        <time>2019-04-23T10:22:51Z</time>
      </trkpt>
      <trkpt lat="45.28612" lon="6.8896">
        <ele>1409</ele>
        <time>2019-04-23T10:23:51Z</time>
      </trkpt>
      <trkpt lat="45.28602" lon="6.88834">
        <ele>1403</ele>
        <time>2019-04-23T10:24:51Z</time>
      </trkpt>
      <trkpt lat="45.28574" lon="6.8854">
        <ele>1400</ele>
        <time>2019-04-23T10:25:51Z</time>
      </trkpt>
    </trkseg>
  </trk>
  <trk>
    <name><![CDATA[J11]]></name>
    <trkseg>
      <trkpt lat="45.28594" lon="6.87997">
        <ele>1400</ele>
        <time>2019-07-08T18:05:25Z</time>
      </trkpt>
      <trkpt lat="45.28597" lon="6.88046">
        <ele>1401</ele>
        <time>2019-07-08T18:05:31Z</time>
      </trkpt>
      <trkpt lat="45.28574" lon="6.88049">
        <ele>1398</ele>
        <time>2019-07-08T18:05:35Z</time>
      </trkpt>
      <trkpt lat="45.28568" lon="6.88056">
        <ele>1398</ele>
        <time>2019-07-08T18:05:37Z</time>
      </trkpt>
      <trkpt lat="45.28538" lon="6.88063">
        <ele>1396</ele>
        <time>2019-07-08T18:05:42Z</time>
      </trkpt>
      <trkpt lat="45.28556" lon="6.88238">
        <ele>1399</ele>
        <time>2019-07-08T18:06:04Z</time>
      </trkpt>
      <trkpt lat="45.28555" lon="6.88267">
        <ele>1399</ele>
        <time>2019-07-08T18:06:08Z</time>
      </trkpt>
      <trkpt lat="45.28545" lon="6.88267">
        <ele>1399</ele>
        <time>2019-07-08T18:06:10Z</time>
      </trkpt>
      <trkpt lat="45.28537" lon="6.88269">
        <ele>1399</ele>
        <time>2019-07-08T18:06:11Z</time>
      </trkpt>
      <trkpt lat="45.28479" lon="6.88304">
        <ele>1404</ele>
        <time>2019-07-08T18:06:22Z</time>
      </trkpt>
      <trkpt lat="45.28463" lon="6.88315">
        <ele>1410</ele>
        <time>2019-07-08T18:06:25Z</time>
      </trkpt>
      <trkpt lat="45.28456" lon="6.88321">
        <ele>1412</ele>
        <time>2019-07-08T18:06:27Z</time>
      </trkpt>
      <trkpt lat="45.2845" lon="6.8833">
        <ele>1414</ele>
        <time>2019-07-08T18:06:28Z</time>
      </trkpt>
      <trkpt lat="45.28443" lon="6.8835">
        <ele>1416</ele>
        <time>2019-07-08T18:06:31Z</time>
      </trkpt>
      <trkpt lat="45.28432" lon="6.88391">
        <ele>1418</ele>
        <time>2019-07-08T18:06:37Z</time>
      </trkpt>
      <trkpt lat="45.28426" lon="6.88437">
        <ele>1418</ele>
        <time>2019-07-08T18:06:43Z</time>
      </trkpt>
      <trkpt lat="45.28425" lon="6.88481">
        <ele>1417</ele>
        <time>2019-07-08T18:06:48Z</time>
      </trkpt>
      <trkpt lat="45.28435" lon="6.88536">
        <ele>1417</ele>
        <time>2019-07-08T18:06:55Z</time>
      </trkpt>
      <trkpt lat="45.28439" lon="6.88569">
        <ele>1417</ele>
        <time>2019-07-08T18:06:59Z</time>
      </trkpt>
      <trkpt lat="45.2844" lon="6.88592">
        <ele>1418</ele>
        <time>2019-07-08T18:07:02Z</time>
      </trkpt>
      <trkpt lat="45.28438" lon="6.88634">
        <ele>1420</ele>
        <time>2019-07-08T18:07:08Z</time>
      </trkpt>
      <trkpt lat="45.28417" lon="6.88802">
        <ele>1430</ele>
        <time>2019-07-08T18:07:29Z</time>
      </trkpt>
      <trkpt lat="45.28415" lon="6.88868">
        <ele>1436</ele>
        <time>2019-07-08T18:07:37Z</time>
      </trkpt>
      <trkpt lat="45.28418" lon="6.8897">
        <ele>1443</ele>
        <time>2019-07-08T18:07:50Z</time>
      </trkpt>
      <trkpt lat="45.28406" lon="6.89017">
        <ele>1453</ele>
        <time>2019-07-08T18:07:56Z</time>
      </trkpt>
      <trkpt lat="45.28404" lon="6.89067">
        <ele>1456</ele>
        <time>2019-07-08T18:08:02Z</time>
      </trkpt>
      <trkpt lat="45.28413" lon="6.89176">
        <ele>1454</ele>
        <time>2019-07-08T18:08:16Z</time>
      </trkpt>
      <trkpt lat="45.28414" lon="6.89274">
        <ele>1451</ele>
        <time>2019-07-08T18:08:29Z</time>
      </trkpt>
      <trkpt lat="45.28407" lon="6.89316">
        <ele>1451</ele>
        <time>2019-07-08T18:08:34Z</time>
      </trkpt>
      <trkpt lat="45.28397" lon="6.89353">
        <ele>1455</ele>
        <time>2019-07-08T18:08:39Z</time>
      </trkpt>
      <trkpt lat="45.28397" lon="6.89399">
        <ele>1456</ele>
        <time>2019-07-08T18:08:45Z</time>
      </trkpt>
      <trkpt lat="45.28404" lon="6.89449">
        <ele>1458</ele>
        <time>2019-07-08T18:08:51Z</time>
      </trkpt>
      <trkpt lat="45.28403" lon="6.89492">
        <ele>1463</ele>
        <time>2019-07-08T18:08:56Z</time>
      </trkpt>
      <trkpt lat="45.28383" lon="6.89623">
        <ele>1469</ele>
        <time>2019-07-08T18:09:13Z</time>
      </trkpt>
      <trkpt lat="45.28381" lon="6.89667">
        <ele>1471</ele>
        <time>2019-07-08T18:09:19Z</time>
      </trkpt>
      <trkpt lat="45.28389" lon="6.89713">
        <ele>1469</ele>
        <time>2019-07-08T18:09:25Z</time>
      </trkpt>
      <trkpt lat="45.28397" lon="6.89769">
        <ele>1469</ele>
        <time>2019-07-08T18:09:32Z</time>
      </trkpt>
      <trkpt lat="45.28393" lon="6.89819">
        <ele>1474</ele>
        <time>2019-07-08T18:09:38Z</time>
      </trkpt>
      <trkpt lat="45.28378" lon="6.89871">
        <ele>1481</ele>
        <time>2019-07-08T18:09:45Z</time>
      </trkpt>
      <trkpt lat="45.28366" lon="6.8994">
        <ele>1491</ele>
        <time>2019-07-08T18:09:54Z</time>
      </trkpt>
      <trkpt lat="45.28369" lon="6.90001">
        <ele>1493</ele>
        <time>2019-07-08T18:10:02Z</time>
      </trkpt>
      <trkpt lat="45.2838" lon="6.9008">
        <ele>1492</ele>
        <time>2019-07-08T18:10:12Z</time>
      </trkpt>
      <trkpt lat="45.28387" lon="6.90183">
        <ele>1494</ele>
        <time>2019-07-08T18:10:25Z</time>
      </trkpt>
      <trkpt lat="45.28388" lon="6.90259">
        <ele>1496</ele>
        <time>2019-07-08T18:10:34Z</time>
      </trkpt>
      <trkpt lat="45.28394" lon="6.90304">
        <ele>1499</ele>
        <time>2019-07-08T18:10:40Z</time>
      </trkpt>
      <trkpt lat="45.28456" lon="6.90584">
        <ele>1511</ele>
        <time>2019-07-08T18:11:17Z</time>
      </trkpt>
      <trkpt lat="45.28499" lon="6.90763">
        <ele>1519</ele>
        <time>2019-07-08T18:11:40Z</time>
      </trkpt>
      <trkpt lat="45.28499" lon="6.90789">
        <ele>1521</ele>
        <time>2019-07-08T18:11:44Z</time>
      </trkpt>
      <trkpt lat="45.28491" lon="6.90797">
        <ele>1522</ele>
        <time>2019-07-08T18:11:45Z</time>
      </trkpt>
      <trkpt lat="45.28475" lon="6.90801">
        <ele>1524</ele>
        <time>2019-07-08T18:11:48Z</time>
      </trkpt>
      <trkpt lat="45.28458" lon="6.90784">
        <ele>1524</ele>
        <time>2019-07-08T18:11:52Z</time>
      </trkpt>
      <trkpt lat="45.2843" lon="6.90733">
        <ele>1523</ele>
        <time>2019-07-08T18:12:00Z</time>
      </trkpt>
      <trkpt lat="45.2835" lon="6.90574">
        <ele>1538</ele>
        <time>2019-07-08T18:12:25Z</time>
      </trkpt>
      <trkpt lat="45.28339" lon="6.90536">
        <ele>1541</ele>
        <time>2019-07-08T18:12:30Z</time>
      </trkpt>
      <trkpt lat="45.28334" lon="6.90495">
        <ele>1541</ele>
        <time>2019-07-08T18:12:35Z</time>
      </trkpt>
      <trkpt lat="45.28328" lon="6.90475">
        <ele>1540</ele>
        <time>2019-07-08T18:12:38Z</time>
      </trkpt>
      <trkpt lat="45.28321" lon="6.90456">
        <ele>1540</ele>
        <time>2019-07-08T18:12:40Z</time>
      </trkpt>
      <trkpt lat="45.28248" lon="6.90346">
        <ele>1547</ele>
        <time>2019-07-08T18:12:59Z</time>
      </trkpt>
      <trkpt lat="45.28224" lon="6.90304">
        <ele>1552</ele>
        <time>2019-07-08T18:13:06Z</time>
      </trkpt>
      <trkpt lat="45.28216" lon="6.90274">
        <ele>1552</ele>
        <time>2019-07-08T18:13:10Z</time>
      </trkpt>
      <trkpt lat="45.28209" lon="6.90226">
        <ele>1552</ele>
        <time>2019-07-08T18:13:16Z</time>
      </trkpt>
      <trkpt lat="45.28202" lon="6.90192">
        <ele>1554</ele>
        <time>2019-07-08T18:13:21Z</time>
      </trkpt>
      <trkpt lat="45.28117" lon="6.89919">
        <ele>1578</ele>
        <time>2019-07-08T18:13:58Z</time>
      </trkpt>
      <trkpt lat="45.28108" lon="6.89884">
        <ele>1580</ele>
        <time>2019-07-08T18:14:03Z</time>
      </trkpt>
      <trkpt lat="45.28102" lon="6.89846">
        <ele>1580</ele>
        <time>2019-07-08T18:14:08Z</time>
      </trkpt>
      <trkpt lat="45.28098" lon="6.89805">
        <ele>1580</ele>
        <time>2019-07-08T18:14:13Z</time>
      </trkpt>
      <trkpt lat="45.28098" lon="6.89743">
        <ele>1578</ele>
        <time>2019-07-08T18:14:20Z</time>
      </trkpt>
      <trkpt lat="45.28095" lon="6.89719">
        <ele>1577</ele>
        <time>2019-07-08T18:14:24Z</time>
      </trkpt>
      <trkpt lat="45.28092" lon="6.89712">
        <ele>1578</ele>
        <time>2019-07-08T18:14:25Z</time>
      </trkpt>
      <trkpt lat="45.28086" lon="6.89708">
        <ele>1579</ele>
        <time>2019-07-08T18:14:26Z</time>
      </trkpt>
      <trkpt lat="45.28076" lon="6.89712">
        <ele>1584</ele>
        <time>2019-07-08T18:14:28Z</time>
      </trkpt>
      <trkpt lat="45.28072" lon="6.89723">
        <ele>1588</ele>
        <time>2019-07-08T18:14:29Z</time>
      </trkpt>
      <trkpt lat="45.28072" lon="6.89734">
        <ele>1589</ele>
        <time>2019-07-08T18:14:30Z</time>
      </trkpt>
      <trkpt lat="45.28076" lon="6.89795">
        <ele>1590</ele>
        <time>2019-07-08T18:14:38Z</time>
      </trkpt>
      <trkpt lat="45.28073" lon="6.89815">
        <ele>1592</ele>
        <time>2019-07-08T18:14:41Z</time>
      </trkpt>
      <trkpt lat="45.28066" lon="6.89846">
        <ele>1597</ele>
        <time>2019-07-08T18:14:45Z</time>
      </trkpt>
      <trkpt lat="45.28067" lon="6.89883">
        <ele>1600</ele>
        <time>2019-07-08T18:14:49Z</time>
      </trkpt>
      <trkpt lat="45.28078" lon="6.89926">
        <ele>1598</ele>
        <time>2019-07-08T18:14:55Z</time>
      </trkpt>
      <trkpt lat="45.28081" lon="6.89967">
        <ele>1598</ele>
        <time>2019-07-08T18:15:00Z</time>
      </trkpt>
      <trkpt lat="45.28069" lon="6.90075">
        <ele>1611</ele>
        <time>2019-07-08T18:15:14Z</time>
      </trkpt>
      <trkpt lat="45.2807" lon="6.90137">
        <ele>1614</ele>
        <time>2019-07-08T18:15:22Z</time>
      </trkpt>
      <trkpt lat="45.28068" lon="6.90189">
        <ele>1616</ele>
        <time>2019-07-08T18:15:28Z</time>
      </trkpt>
      <trkpt lat="45.28064" lon="6.90242">
        <ele>1618</ele>
        <time>2019-07-08T18:15:35Z</time>
      </trkpt>
      <trkpt lat="45.28063" lon="6.90309">
        <ele>1621</ele>
        <time>2019-07-08T18:15:43Z</time>
      </trkpt>
      <trkpt lat="45.28064" lon="6.90333">
        <ele>1622</ele>
        <time>2019-07-08T18:15:46Z</time>
      </trkpt>
      <trkpt lat="45.2807" lon="6.9039">
        <ele>1625</ele>
        <time>2019-07-08T18:15:54Z</time>
      </trkpt>
      <trkpt lat="45.28079" lon="6.90439">
        <ele>1626</ele>
        <time>2019-07-08T18:16:00Z</time>
      </trkpt>
      <trkpt lat="45.28082" lon="6.90468">
        <ele>1627</ele>
        <time>2019-07-08T18:16:04Z</time>
      </trkpt>
      <trkpt lat="45.28071" lon="6.907">
        <ele>1649</ele>
        <time>2019-07-08T18:16:33Z</time>
      </trkpt>
      <trkpt lat="45.28083" lon="6.90825">
        <ele>1651</ele>
        <time>2019-07-08T18:16:48Z</time>
      </trkpt>
      <trkpt lat="45.28137" lon="6.91173">
        <ele>1668</ele>
        <time>2019-07-08T18:17:33Z</time>
      </trkpt>
      <trkpt lat="45.28137" lon="6.91195">
        <ele>1669</ele>
        <time>2019-07-08T18:17:36Z</time>
      </trkpt>
      <trkpt lat="45.28128" lon="6.91208">
        <ele>1672</ele>
        <time>2019-07-08T18:17:38Z</time>
      </trkpt>
      <trkpt lat="45.28115" lon="6.91203">
        <ele>1676</ele>
        <time>2019-07-08T18:17:41Z</time>
      </trkpt>
      <trkpt lat="45.28067" lon="6.91109">
        <ele>1682</ele>
        <time>2019-07-08T18:17:55Z</time>
      </trkpt>
      <trkpt lat="45.28042" lon="6.91066">
        <ele>1687</ele>
        <time>2019-07-08T18:18:02Z</time>
      </trkpt>
      <trkpt lat="45.28006" lon="6.90993">
        <ele>1696</ele>
        <time>2019-07-08T18:18:13Z</time>
      </trkpt>
      <trkpt lat="45.27979" lon="6.90923">
        <ele>1703</ele>
        <time>2019-07-08T18:18:23Z</time>
      </trkpt>
      <trkpt lat="45.2796" lon="6.90861">
        <ele>1706</ele>
        <time>2019-07-08T18:18:32Z</time>
      </trkpt>
      <trkpt lat="45.27955" lon="6.9082">
        <ele>1705</ele>
        <time>2019-07-08T18:18:37Z</time>
      </trkpt>
      <trkpt lat="45.27934" lon="6.9075">
        <ele>1712</ele>
        <time>2019-07-08T18:18:46Z</time>
      </trkpt>
      <trkpt lat="45.27925" lon="6.90712">
        <ele>1717</ele>
        <time>2019-07-08T18:18:51Z</time>
      </trkpt>
      <trkpt lat="45.2792" lon="6.90647">
        <ele>1719</ele>
        <time>2019-07-08T18:19:00Z</time>
      </trkpt>
      <trkpt lat="45.2791" lon="6.90559">
        <ele>1722</ele>
        <time>2019-07-08T18:19:11Z</time>
      </trkpt>
      <trkpt lat="45.27904" lon="6.90521">
        <ele>1725</ele>
        <time>2019-07-08T18:19:16Z</time>
      </trkpt>
      <trkpt lat="45.27901" lon="6.90472">
        <ele>1724</ele>
        <time>2019-07-08T18:19:22Z</time>
      </trkpt>
      <trkpt lat="45.27893" lon="6.90425">
        <ele>1725</ele>
        <time>2019-07-08T18:19:28Z</time>
      </trkpt>
      <trkpt lat="45.27881" lon="6.90365">
        <ele>1723</ele>
        <time>2019-07-08T18:19:36Z</time>
      </trkpt>
      <trkpt lat="45.2786" lon="6.90322">
        <ele>1725</ele>
        <time>2019-07-08T18:19:42Z</time>
      </trkpt>
      <trkpt lat="45.27829" lon="6.90305">
        <ele>1735</ele>
        <time>2019-07-08T18:19:48Z</time>
      </trkpt>
      <trkpt lat="45.27796" lon="6.90279">
        <ele>1741</ele>
        <time>2019-07-08T18:19:55Z</time>
      </trkpt>
      <trkpt lat="45.27774" lon="6.90233">
        <ele>1744</ele>
        <time>2019-07-08T18:20:02Z</time>
      </trkpt>
      <trkpt lat="45.27751" lon="6.90167">
        <ele>1746</ele>
        <time>2019-07-08T18:20:11Z</time>
      </trkpt>
      <trkpt lat="45.27738" lon="6.90081">
        <ele>1744</ele>
        <time>2019-07-08T18:20:22Z</time>
      </trkpt>
      <trkpt lat="45.27718" lon="6.9006">
        <ele>1749</ele>
        <time>2019-07-08T18:20:26Z</time>
      </trkpt>
      <trkpt lat="45.27699" lon="6.90032">
        <ele>1754</ele>
        <time>2019-07-08T18:20:31Z</time>
      </trkpt>
      <trkpt lat="45.27681" lon="6.89946">
        <ele>1759</ele>
        <time>2019-07-08T18:20:43Z</time>
      </trkpt>
      <trkpt lat="45.27666" lon="6.89893">
        <ele>1763</ele>
        <time>2019-07-08T18:20:50Z</time>
      </trkpt>
      <trkpt lat="45.27618" lon="6.89768">
        <ele>1768</ele>
        <time>2019-07-08T18:21:08Z</time>
      </trkpt>
      <trkpt lat="45.27605" lon="6.89757">
        <ele>1770</ele>
        <time>2019-07-08T18:21:10Z</time>
      </trkpt>
      <trkpt lat="45.27595" lon="6.89758">
        <ele>1773</ele>
        <time>2019-07-08T18:21:12Z</time>
      </trkpt>
      <trkpt lat="45.2759" lon="6.89777">
        <ele>1777</ele>
        <time>2019-07-08T18:21:15Z</time>
      </trkpt>
      <trkpt lat="45.276" lon="6.89802">
        <ele>1778</ele>
        <time>2019-07-08T18:21:18Z</time>
      </trkpt>
      <trkpt lat="45.27609" lon="6.89835">
        <ele>1780</ele>
        <time>2019-07-08T18:21:23Z</time>
      </trkpt>
      <trkpt lat="45.27614" lon="6.89936">
        <ele>1780</ele>
        <time>2019-07-08T18:21:35Z</time>
      </trkpt>
      <trkpt lat="45.27608" lon="6.89979">
        <ele>1783</ele>
        <time>2019-07-08T18:21:41Z</time>
      </trkpt>
      <trkpt lat="45.27593" lon="6.90011">
        <ele>1788</ele>
        <time>2019-07-08T18:21:46Z</time>
      </trkpt>
      <trkpt lat="45.27588" lon="6.90048">
        <ele>1792</ele>
        <time>2019-07-08T18:21:50Z</time>
      </trkpt>
      <trkpt lat="45.27596" lon="6.90098">
        <ele>1793</ele>
        <time>2019-07-08T18:21:57Z</time>
      </trkpt>
      <trkpt lat="45.27599" lon="6.9014">
        <ele>1795</ele>
        <time>2019-07-08T18:22:02Z</time>
      </trkpt>
      <trkpt lat="45.27595" lon="6.90181">
        <ele>1801</ele>
        <time>2019-07-08T18:22:07Z</time>
      </trkpt>
      <trkpt lat="45.27593" lon="6.90224">
        <ele>1808</ele>
        <time>2019-07-08T18:22:13Z</time>
      </trkpt>
      <trkpt lat="45.27602" lon="6.90264">
        <ele>1809</ele>
        <time>2019-07-08T18:22:18Z</time>
      </trkpt>
      <trkpt lat="45.27609" lon="6.90304">
        <ele>1810</ele>
        <time>2019-07-08T18:22:23Z</time>
      </trkpt>
      <trkpt lat="45.27607" lon="6.90338">
        <ele>1815</ele>
        <time>2019-07-08T18:22:27Z</time>
      </trkpt>
      <trkpt lat="45.27608" lon="6.90378">
        <ele>1820</ele>
        <time>2019-07-08T18:22:32Z</time>
      </trkpt>
      <trkpt lat="45.27632" lon="6.90514">
        <ele>1828</ele>
        <time>2019-07-08T18:22:50Z</time>
      </trkpt>
      <trkpt lat="45.2764" lon="6.90549">
        <ele>1829</ele>
        <time>2019-07-08T18:22:54Z</time>
      </trkpt>
      <trkpt lat="45.27651" lon="6.90584">
        <ele>1828</ele>
        <time>2019-07-08T18:22:59Z</time>
      </trkpt>
      <trkpt lat="45.27669" lon="6.9063">
        <ele>1826</ele>
        <time>2019-07-08T18:23:06Z</time>
      </trkpt>
      <trkpt lat="45.27677" lon="6.9066">
        <ele>1827</ele>
        <time>2019-07-08T18:23:10Z</time>
      </trkpt>
      <trkpt lat="45.27674" lon="6.9068">
        <ele>1829</ele>
        <time>2019-07-08T18:23:12Z</time>
      </trkpt>
      <trkpt lat="45.27669" lon="6.90688">
        <ele>1830</ele>
        <time>2019-07-08T18:23:14Z</time>
      </trkpt>
      <trkpt lat="45.27623" lon="6.9072">
        <ele>1848</ele>
        <time>2019-07-08T18:23:23Z</time>
      </trkpt>
      <trkpt lat="45.27614" lon="6.90733">
        <ele>1852</ele>
        <time>2019-07-08T18:23:25Z</time>
      </trkpt>
      <trkpt lat="45.27609" lon="6.90747">
        <ele>1854</ele>
        <time>2019-07-08T18:23:27Z</time>
      </trkpt>
      <trkpt lat="45.27608" lon="6.90766">
        <ele>1857</ele>
        <time>2019-07-08T18:23:30Z</time>
      </trkpt>
      <trkpt lat="45.2761" lon="6.90786">
        <ele>1858</ele>
        <time>2019-07-08T18:23:32Z</time>
      </trkpt>
      <trkpt lat="45.27621" lon="6.9082">
        <ele>1857</ele>
        <time>2019-07-08T18:23:37Z</time>
      </trkpt>
      <trkpt lat="45.27637" lon="6.90847">
        <ele>1853</ele>
        <time>2019-07-08T18:23:41Z</time>
      </trkpt>
      <trkpt lat="45.27654" lon="6.90884">
        <ele>1852</ele>
        <time>2019-07-08T18:23:47Z</time>
      </trkpt>
      <trkpt lat="45.27657" lon="6.90923">
        <ele>1856</ele>
        <time>2019-07-08T18:23:52Z</time>
      </trkpt>
      <trkpt lat="45.27656" lon="6.90969">
        <ele>1864</ele>
        <time>2019-07-08T18:23:57Z</time>
      </trkpt>
      <trkpt lat="45.27664" lon="6.90991">
        <ele>1864</ele>
        <time>2019-07-08T18:24:00Z</time>
      </trkpt>
      <trkpt lat="45.27685" lon="6.91026">
        <ele>1866</ele>
        <time>2019-07-08T18:24:06Z</time>
      </trkpt>
      <trkpt lat="45.27695" lon="6.91047">
        <ele>1867</ele>
        <time>2019-07-08T18:24:09Z</time>
      </trkpt>
      <trkpt lat="45.27701" lon="6.91064">
        <ele>1868</ele>
        <time>2019-07-08T18:24:12Z</time>
      </trkpt>
      <trkpt lat="45.27709" lon="6.91102">
        <ele>1872</ele>
        <time>2019-07-08T18:24:17Z</time>
      </trkpt>
      <trkpt lat="45.27714" lon="6.91141">
        <ele>1875</ele>
        <time>2019-07-08T18:24:22Z</time>
      </trkpt>
      <trkpt lat="45.27711" lon="6.9125">
        <ele>1877</ele>
        <time>2019-07-08T18:24:35Z</time>
      </trkpt>
      <trkpt lat="45.27706" lon="6.91281">
        <ele>1874</ele>
        <time>2019-07-08T18:24:39Z</time>
      </trkpt>
      <trkpt lat="45.27695" lon="6.91293">
        <ele>1877</ele>
        <time>2019-07-08T18:24:42Z</time>
      </trkpt>
      <trkpt lat="45.27682" lon="6.91289">
        <ele>1882</ele>
        <time>2019-07-08T18:24:44Z</time>
      </trkpt>
      <trkpt lat="45.27675" lon="6.91275">
        <ele>1886</ele>
        <time>2019-07-08T18:24:46Z</time>
      </trkpt>
      <trkpt lat="45.2768" lon="6.91224">
        <ele>1888</ele>
        <time>2019-07-08T18:24:53Z</time>
      </trkpt>
      <trkpt lat="45.27679" lon="6.91167">
        <ele>1893</ele>
        <time>2019-07-08T18:25:00Z</time>
      </trkpt>
      <trkpt lat="45.27672" lon="6.91144">
        <ele>1892</ele>
        <time>2019-07-08T18:25:03Z</time>
      </trkpt>
      <trkpt lat="45.27659" lon="6.91121">
        <ele>1893</ele>
        <time>2019-07-08T18:25:07Z</time>
      </trkpt>
      <trkpt lat="45.27617" lon="6.9108">
        <ele>1899</ele>
        <time>2019-07-08T18:25:16Z</time>
      </trkpt>
      <trkpt lat="45.27578" lon="6.91035">
        <ele>1903</ele>
        <time>2019-07-08T18:25:25Z</time>
      </trkpt>
      <trkpt lat="45.27545" lon="6.90977">
        <ele>1904</ele>
        <time>2019-07-08T18:25:34Z</time>
      </trkpt>
      <trkpt lat="45.27515" lon="6.90939">
        <ele>1910</ele>
        <time>2019-07-08T18:25:41Z</time>
      </trkpt>
      <trkpt lat="45.27499" lon="6.90924">
        <ele>1913</ele>
        <time>2019-07-08T18:25:45Z</time>
      </trkpt>
      <trkpt lat="45.27484" lon="6.90905">
        <ele>1917</ele>
        <time>2019-07-08T18:25:48Z</time>
      </trkpt>
      <trkpt lat="45.27474" lon="6.90883">
        <ele>1919</ele>
        <time>2019-07-08T18:25:52Z</time>
      </trkpt>
      <trkpt lat="45.27464" lon="6.90852">
        <ele>1921</ele>
        <time>2019-07-08T18:25:56Z</time>
      </trkpt>
      <trkpt lat="45.2744" lon="6.90777">
        <ele>1925</ele>
        <time>2019-07-08T18:26:06Z</time>
      </trkpt>
      <trkpt lat="45.27415" lon="6.90719">
        <ele>1929</ele>
        <time>2019-07-08T18:26:15Z</time>
      </trkpt>
      <trkpt lat="45.27389" lon="6.90673">
        <ele>1936</ele>
        <time>2019-07-08T18:26:22Z</time>
      </trkpt>
      <trkpt lat="45.27366" lon="6.90623">
        <ele>1941</ele>
        <time>2019-07-08T18:26:29Z</time>
      </trkpt>
      <trkpt lat="45.2735" lon="6.90556">
        <ele>1943</ele>
        <time>2019-07-08T18:26:38Z</time>
      </trkpt>
      <trkpt lat="45.27319" lon="6.90412">
        <ele>1944</ele>
        <time>2019-07-08T18:26:57Z</time>
      </trkpt>
      <trkpt lat="45.27297" lon="6.90346">
        <ele>1948</ele>
        <time>2019-07-08T18:27:06Z</time>
      </trkpt>
      <trkpt lat="45.27254" lon="6.90276">
        <ele>1954</ele>
        <time>2019-07-08T18:27:18Z</time>
      </trkpt>
      <trkpt lat="45.27223" lon="6.90214">
        <ele>1964</ele>
        <time>2019-07-08T18:27:27Z</time>
      </trkpt>
      <trkpt lat="45.27201" lon="6.90151">
        <ele>1970</ele>
        <time>2019-07-08T18:27:36Z</time>
      </trkpt>
      <trkpt lat="45.27188" lon="6.90098">
        <ele>1971</ele>
        <time>2019-07-08T18:27:43Z</time>
      </trkpt>
      <trkpt lat="45.27183" lon="6.90061">
        <ele>1969</ele>
        <time>2019-07-08T18:27:48Z</time>
      </trkpt>
      <trkpt lat="45.27176" lon="6.90033">
        <ele>1970</ele>
        <time>2019-07-08T18:27:52Z</time>
      </trkpt>
      <trkpt lat="45.27166" lon="6.90003">
        <ele>1972</ele>
        <time>2019-07-08T18:27:56Z</time>
      </trkpt>
      <trkpt lat="45.27141" lon="6.89952">
        <ele>1972</ele>
        <time>2019-07-08T18:28:04Z</time>
      </trkpt>
      <trkpt lat="45.2713" lon="6.89939">
        <ele>1973</ele>
        <time>2019-07-08T18:28:06Z</time>
      </trkpt>
      <trkpt lat="45.27113" lon="6.89931">
        <ele>1977</ele>
        <time>2019-07-08T18:28:09Z</time>
      </trkpt>
      <trkpt lat="45.27083" lon="6.89929">
        <ele>1984</ele>
        <time>2019-07-08T18:28:15Z</time>
      </trkpt>
      <trkpt lat="45.27072" lon="6.89922">
        <ele>1987</ele>
        <time>2019-07-08T18:28:17Z</time>
      </trkpt>
      <trkpt lat="45.27061" lon="6.89904">
        <ele>1989</ele>
        <time>2019-07-08T18:28:20Z</time>
      </trkpt>
      <trkpt lat="45.27034" lon="6.8982">
        <ele>1990</ele>
        <time>2019-07-08T18:28:31Z</time>
      </trkpt>
      <trkpt lat="45.27021" lon="6.89785">
        <ele>1989</ele>
        <time>2019-07-08T18:28:36Z</time>
      </trkpt>
      <trkpt lat="45.27015" lon="6.89776">
        <ele>1990</ele>
        <time>2019-07-08T18:28:38Z</time>
      </trkpt>
      <trkpt lat="45.27005" lon="6.89767">
        <ele>1992</ele>
        <time>2019-07-08T18:28:40Z</time>
      </trkpt>
      <trkpt lat="45.26976" lon="6.89743">
        <ele>1994</ele>
        <time>2019-07-08T18:28:46Z</time>
      </trkpt>
      <trkpt lat="45.26943" lon="6.89723">
        <ele>1996</ele>
        <time>2019-07-08T18:28:52Z</time>
      </trkpt>
      <trkpt lat="45.26912" lon="6.89712">
        <ele>1999</ele>
        <time>2019-07-08T18:28:58Z</time>
      </trkpt>
      <trkpt lat="45.26896" lon="6.8971">
        <ele>2001</ele>
        <time>2019-07-08T18:29:01Z</time>
      </trkpt>
      <trkpt lat="45.26878" lon="6.89712">
        <ele>2003</ele>
        <time>2019-07-08T18:29:04Z</time>
      </trkpt>
      <trkpt lat="45.26819" lon="6.89723">
        <ele>2011</ele>
        <time>2019-07-08T18:29:15Z</time>
      </trkpt>
      <trkpt lat="45.26774" lon="6.89738">
        <ele>2016</ele>
        <time>2019-07-08T18:29:23Z</time>
      </trkpt>
      <trkpt lat="45.26764" lon="6.89747">
        <ele>2017</ele>
        <time>2019-07-08T18:29:25Z</time>
      </trkpt>
      <trkpt lat="45.26691" lon="6.89836">
        <ele>2024</ele>
        <time>2019-07-08T18:29:42Z</time>
      </trkpt>
      <trkpt lat="45.26681" lon="6.89846">
        <ele>2025</ele>
        <time>2019-07-08T18:29:44Z</time>
      </trkpt>
      <trkpt lat="45.26664" lon="6.89857">
        <ele>2026</ele>
        <time>2019-07-08T18:29:48Z</time>
      </trkpt>
      <trkpt lat="45.2665" lon="6.89864">
        <ele>2028</ele>
        <time>2019-07-08T18:29:50Z</time>
      </trkpt>
      <trkpt lat="45.26637" lon="6.89867">
        <ele>2029</ele>
        <time>2019-07-08T18:29:53Z</time>
      </trkpt>
      <trkpt lat="45.26579" lon="6.89866">
        <ele>2030</ele>
        <time>2019-07-08T18:30:03Z</time>
      </trkpt>
      <trkpt lat="45.26572" lon="6.89868">
        <ele>2031</ele>
        <time>2019-07-08T18:30:04Z</time>
      </trkpt>
      <trkpt lat="45.26553" lon="6.8988">
        <ele>2033</ele>
        <time>2019-07-08T18:30:08Z</time>
      </trkpt>
      <trkpt lat="45.26545" lon="6.89889">
        <ele>2034</ele>
        <time>2019-07-08T18:30:10Z</time>
      </trkpt>
      <trkpt lat="45.26484" lon="6.89989">
        <ele>2044</ele>
        <time>2019-07-08T18:30:26Z</time>
      </trkpt>
      <trkpt lat="45.26473" lon="6.90004">
        <ele>2046</ele>
        <time>2019-07-08T18:30:29Z</time>
      </trkpt>
      <trkpt lat="45.2646" lon="6.90017">
        <ele>2047</ele>
        <time>2019-07-08T18:30:32Z</time>
      </trkpt>
      <trkpt lat="45.26285" lon="6.90143">
        <ele>2063</ele>
        <time>2019-07-08T18:31:07Z</time>
      </trkpt>
      <trkpt lat="45.2626" lon="6.90157">
        <ele>2064</ele>
        <time>2019-07-08T18:31:12Z</time>
      </trkpt>
      <trkpt lat="45.2624" lon="6.90161">
        <ele>2065</ele>
        <time>2019-07-08T18:31:15Z</time>
      </trkpt>
      <trkpt lat="45.26231" lon="6.90159">
        <ele>2066</ele>
        <time>2019-07-08T18:31:17Z</time>
      </trkpt>
      <trkpt lat="45.26216" lon="6.90151">
        <ele>2067</ele>
        <time>2019-07-08T18:31:20Z</time>
      </trkpt>
      <trkpt lat="45.26201" lon="6.90134">
        <ele>2068</ele>
        <time>2019-07-08T18:31:23Z</time>
      </trkpt>
      <trkpt lat="45.26186" lon="6.90106">
        <ele>2068</ele>
        <time>2019-07-08T18:31:28Z</time>
      </trkpt>
      <trkpt lat="45.26182" lon="6.90093">
        <ele>2068</ele>
        <time>2019-07-08T18:31:29Z</time>
      </trkpt>
      <trkpt lat="45.26181" lon="6.90079">
        <ele>2068</ele>
        <time>2019-07-08T18:31:31Z</time>
      </trkpt>
      <trkpt lat="45.26183" lon="6.90021">
        <ele>2067</ele>
        <time>2019-07-08T18:31:38Z</time>
      </trkpt>
      <trkpt lat="45.26182" lon="6.90005">
        <ele>2067</ele>
        <time>2019-07-08T18:31:40Z</time>
      </trkpt>
      <trkpt lat="45.26179" lon="6.89992">
        <ele>2068</ele>
        <time>2019-07-08T18:31:42Z</time>
      </trkpt>
      <trkpt lat="45.26173" lon="6.89984">
        <ele>2069</ele>
        <time>2019-07-08T18:31:44Z</time>
      </trkpt>
      <trkpt lat="45.26166" lon="6.89978">
        <ele>2070</ele>
        <time>2019-07-08T18:31:45Z</time>
      </trkpt>
      <trkpt lat="45.26158" lon="6.89976">
        <ele>2071</ele>
        <time>2019-07-08T18:31:46Z</time>
      </trkpt>
      <trkpt lat="45.26148" lon="6.89976">
        <ele>2073</ele>
        <time>2019-07-08T18:31:48Z</time>
      </trkpt>
      <trkpt lat="45.26078" lon="6.89996">
        <ele>2081</ele>
        <time>2019-07-08T18:32:01Z</time>
      </trkpt>
      <trkpt lat="45.26051" lon="6.90006">
        <ele>2084</ele>
        <time>2019-07-08T18:32:06Z</time>
      </trkpt>
      <trkpt lat="45.26029" lon="6.90021">
        <ele>2087</ele>
        <time>2019-07-08T18:32:10Z</time>
      </trkpt>
      <trkpt lat="45.26009" lon="6.90046">
        <ele>2088</ele>
        <time>2019-07-08T18:32:15Z</time>
      </trkpt>
      <trkpt lat="45.2599" lon="6.90074">
        <ele>2087</ele>
        <time>2019-07-08T18:32:20Z</time>
      </trkpt>
      <trkpt lat="45.2594" lon="6.90158">
        <ele>2085</ele>
        <time>2019-07-08T18:32:34Z</time>
      </trkpt>
      <trkpt lat="45.25913" lon="6.90208">
        <ele>2082</ele>
        <time>2019-07-08T18:32:41Z</time>
      </trkpt>
      <trkpt lat="45.25895" lon="6.90248">
        <ele>2080</ele>
        <time>2019-07-08T18:32:47Z</time>
      </trkpt>
      <trkpt lat="45.25869" lon="6.90345">
        <ele>2076</ele>
        <time>2019-07-08T18:33:00Z</time>
      </trkpt>
      <trkpt lat="45.25859" lon="6.90372">
        <ele>2075</ele>
        <time>2019-07-08T18:33:04Z</time>
      </trkpt>
      <trkpt lat="45.25808" lon="6.90481">
        <ele>2071</ele>
        <time>2019-07-08T18:33:21Z</time>
      </trkpt>
      <trkpt lat="45.2579" lon="6.90507">
        <ele>2070</ele>
        <time>2019-07-08T18:33:25Z</time>
      </trkpt>
      <trkpt lat="45.25779" lon="6.90516">
        <ele>2070</ele>
        <time>2019-07-08T18:33:27Z</time>
      </trkpt>
      <trkpt lat="45.25768" lon="6.90522">
        <ele>2069</ele>
        <time>2019-07-08T18:33:30Z</time>
      </trkpt>
      <trkpt lat="45.25468" lon="6.90631">
        <ele>2055</ele>
        <time>2019-07-08T18:34:25Z</time>
      </trkpt>
      <trkpt lat="45.25436" lon="6.9065">
        <ele>2055</ele>
        <time>2019-07-08T18:34:31Z</time>
      </trkpt>
      <trkpt lat="45.25406" lon="6.90677">
        <ele>2054</ele>
        <time>2019-07-08T18:34:37Z</time>
      </trkpt>
      <trkpt lat="45.25333" lon="6.90769">
        <ele>2052</ele>
        <time>2019-07-08T18:34:55Z</time>
      </trkpt>
      <trkpt lat="45.25321" lon="6.90792">
        <ele>2051</ele>
        <time>2019-07-08T18:34:58Z</time>
      </trkpt>
      <trkpt lat="45.25315" lon="6.90811">
        <ele>2051</ele>
        <time>2019-07-08T18:35:01Z</time>
      </trkpt>
      <trkpt lat="45.2531" lon="6.90838">
        <ele>2053</ele>
        <time>2019-07-08T18:35:04Z</time>
      </trkpt>
      <trkpt lat="45.25309" lon="6.90864">
        <ele>2054</ele>
        <time>2019-07-08T18:35:07Z</time>
      </trkpt>
      <trkpt lat="45.25315" lon="6.91048">
        <ele>2057</ele>
        <time>2019-07-08T18:35:31Z</time>
      </trkpt>
      <trkpt lat="45.25315" lon="6.91117">
        <ele>2058</ele>
        <time>2019-07-08T18:35:39Z</time>
      </trkpt>
      <trkpt lat="45.25311" lon="6.91144">
        <ele>2058</ele>
        <time>2019-07-08T18:35:43Z</time>
      </trkpt>
      <trkpt lat="45.2529" lon="6.91229">
        <ele>2052</ele>
        <time>2019-07-08T18:35:54Z</time>
      </trkpt>
      <trkpt lat="45.25285" lon="6.9126">
        <ele>2051</ele>
        <time>2019-07-08T18:35:58Z</time>
      </trkpt>
      <trkpt lat="45.25283" lon="6.91297">
        <ele>2050</ele>
        <time>2019-07-08T18:36:03Z</time>
      </trkpt>
      <trkpt lat="45.25281" lon="6.91401">
        <ele>2050</ele>
        <time>2019-07-08T18:36:16Z</time>
      </trkpt>
      <trkpt lat="45.25276" lon="6.91457">
        <ele>2050</ele>
        <time>2019-07-08T18:36:23Z</time>
      </trkpt>
      <trkpt lat="45.25259" lon="6.91558">
        <ele>2049</ele>
        <time>2019-07-08T18:36:36Z</time>
      </trkpt>
      <trkpt lat="45.25223" lon="6.91686">
        <ele>2041</ele>
        <time>2019-07-08T18:36:53Z</time>
      </trkpt>
      <trkpt lat="45.25209" lon="6.91742">
        <ele>2043</ele>
        <time>2019-07-08T18:37:00Z</time>
      </trkpt>
      <trkpt lat="45.25184" lon="6.91916">
        <ele>2045</ele>
        <time>2019-07-08T18:37:23Z</time>
      </trkpt>
      <trkpt lat="45.25157" lon="6.92131">
        <ele>2056</ele>
        <time>2019-07-08T18:37:50Z</time>
      </trkpt>
      <trkpt lat="45.25143" lon="6.92186">
        <ele>2057</ele>
        <time>2019-07-08T18:37:57Z</time>
      </trkpt>
      <trkpt lat="45.25126" lon="6.92233">
        <ele>2057</ele>
        <time>2019-07-08T18:38:04Z</time>
      </trkpt>
      <trkpt lat="45.25069" lon="6.92353">
        <ele>2060</ele>
        <time>2019-07-08T18:38:22Z</time>
      </trkpt>
      <trkpt lat="45.25011" lon="6.92468">
        <ele>2066</ele>
        <time>2019-07-08T18:38:40Z</time>
      </trkpt>
      <trkpt lat="45.24998" lon="6.92498">
        <ele>2068</ele>
        <time>2019-07-08T18:38:44Z</time>
      </trkpt>
      <trkpt lat="45.24985" lon="6.92538">
        <ele>2069</ele>
        <time>2019-07-08T18:38:50Z</time>
      </trkpt>
      <trkpt lat="45.2495" lon="6.92693">
        <ele>2080</ele>
        <time>2019-07-08T18:39:10Z</time>
      </trkpt>
      <trkpt lat="45.24942" lon="6.92723">
        <ele>2082</ele>
        <time>2019-07-08T18:39:14Z</time>
      </trkpt>
      <trkpt lat="45.24933" lon="6.92748">
        <ele>2082</ele>
        <time>2019-07-08T18:39:18Z</time>
      </trkpt>
      <trkpt lat="45.24905" lon="6.92815">
        <ele>2080</ele>
        <time>2019-07-08T18:39:27Z</time>
      </trkpt>
      <trkpt lat="45.24854" lon="6.9291">
        <ele>2082</ele>
        <time>2019-07-08T18:39:42Z</time>
      </trkpt>
      <trkpt lat="45.24843" lon="6.92935">
        <ele>2082</ele>
        <time>2019-07-08T18:39:46Z</time>
      </trkpt>
      <trkpt lat="45.24826" lon="6.92982">
        <ele>2080</ele>
        <time>2019-07-08T18:39:53Z</time>
      </trkpt>
      <trkpt lat="45.24816" lon="6.93023">
        <ele>2078</ele>
        <time>2019-07-08T18:39:58Z</time>
      </trkpt>
      <trkpt lat="45.24761" lon="6.93287">
        <ele>2075</ele>
        <time>2019-07-08T18:40:33Z</time>
      </trkpt>
      <trkpt lat="45.24753" lon="6.93325">
        <ele>2075</ele>
        <time>2019-07-08T18:40:38Z</time>
      </trkpt>
      <trkpt lat="45.24746" lon="6.93347">
        <ele>2074</ele>
        <time>2019-07-08T18:40:41Z</time>
      </trkpt>
      <trkpt lat="45.24728" lon="6.93395">
        <ele>2073</ele>
        <time>2019-07-08T18:40:47Z</time>
      </trkpt>
      <trkpt lat="45.24718" lon="6.93414">
        <ele>2071</ele>
        <time>2019-07-08T18:40:50Z</time>
      </trkpt>
      <trkpt lat="45.24677" lon="6.93482">
        <ele>2068</ele>
        <time>2019-07-08T18:41:02Z</time>
      </trkpt>
      <trkpt lat="45.24667" lon="6.93505">
        <ele>2068</ele>
        <time>2019-07-08T18:41:05Z</time>
      </trkpt>
      <trkpt lat="45.2466" lon="6.93524">
        <ele>2066</ele>
        <time>2019-07-08T18:41:08Z</time>
      </trkpt>
      <trkpt lat="45.24656" lon="6.9355">
        <ele>2067</ele>
        <time>2019-07-08T18:41:11Z</time>
      </trkpt>
      <trkpt lat="45.24649" lon="6.93724">
        <ele>2075</ele>
        <time>2019-07-08T18:41:33Z</time>
      </trkpt>
      <trkpt lat="45.24648" lon="6.9374">
        <ele>2075</ele>
        <time>2019-07-08T18:41:35Z</time>
      </trkpt>
      <trkpt lat="45.24641" lon="6.93769">
        <ele>2076</ele>
        <time>2019-07-08T18:41:39Z</time>
      </trkpt>
      <trkpt lat="45.24634" lon="6.93784">
        <ele>2076</ele>
        <time>2019-07-08T18:41:41Z</time>
      </trkpt>
      <trkpt lat="45.24623" lon="6.93803">
        <ele>2076</ele>
        <time>2019-07-08T18:41:44Z</time>
      </trkpt>
      <trkpt lat="45.24536" lon="6.93928">
        <ele>2072</ele>
        <time>2019-07-08T18:42:06Z</time>
      </trkpt>
      <trkpt lat="45.24507" lon="6.93978">
        <ele>2073</ele>
        <time>2019-07-08T18:42:14Z</time>
      </trkpt>
      <trkpt lat="45.24423" lon="6.94147">
        <ele>2076</ele>
        <time>2019-07-08T18:42:40Z</time>
      </trkpt>
      <trkpt lat="45.24398" lon="6.94204">
        <ele>2077</ele>
        <time>2019-07-08T18:42:48Z</time>
      </trkpt>
      <trkpt lat="45.24366" lon="6.94304">
        <ele>2080</ele>
        <time>2019-07-08T18:43:02Z</time>
      </trkpt>
      <trkpt lat="45.24305" lon="6.94514">
        <ele>2079</ele>
        <time>2019-07-08T18:43:31Z</time>
      </trkpt>
      <trkpt lat="45.24302" lon="6.9453">
        <ele>2078</ele>
        <time>2019-07-08T18:43:33Z</time>
      </trkpt>
      <trkpt lat="45.24297" lon="6.94584">
        <ele>2080</ele>
        <time>2019-07-08T18:43:40Z</time>
      </trkpt>
      <trkpt lat="45.24297" lon="6.94614">
        <ele>2080</ele>
        <time>2019-07-08T18:43:43Z</time>
      </trkpt>
      <trkpt lat="45.243" lon="6.94639">
        <ele>2081</ele>
        <time>2019-07-08T18:43:47Z</time>
      </trkpt>
      <trkpt lat="45.24307" lon="6.94678">
        <ele>2083</ele>
        <time>2019-07-08T18:43:52Z</time>
      </trkpt>
      <trkpt lat="45.24333" lon="6.94778">
        <ele>2090</ele>
        <time>2019-07-08T18:44:05Z</time>
      </trkpt>
      <trkpt lat="45.24339" lon="6.94823">
        <ele>2093</ele>
        <time>2019-07-08T18:44:11Z</time>
      </trkpt>
      <trkpt lat="45.24341" lon="6.94856">
        <ele>2096</ele>
        <time>2019-07-08T18:44:15Z</time>
      </trkpt>
      <trkpt lat="45.2434" lon="6.9488">
        <ele>2098</ele>
        <time>2019-07-08T18:44:18Z</time>
      </trkpt>
      <trkpt lat="45.24336" lon="6.94892">
        <ele>2097</ele>
        <time>2019-07-08T18:44:19Z</time>
      </trkpt>
      <trkpt lat="45.2433" lon="6.94904">
        <ele>2097</ele>
        <time>2019-07-08T18:44:21Z</time>
      </trkpt>
      <trkpt lat="45.24321" lon="6.94915">
        <ele>2097</ele>
        <time>2019-07-08T18:44:23Z</time>
      </trkpt>
      <trkpt lat="45.24309" lon="6.94925">
        <ele>2098</ele>
        <time>2019-07-08T18:44:26Z</time>
      </trkpt>
      <trkpt lat="45.24298" lon="6.94926">
        <ele>2097</ele>
        <time>2019-07-08T18:44:28Z</time>
      </trkpt>
      <trkpt lat="45.24267" lon="6.94914">
        <ele>2092</ele>
        <time>2019-07-08T18:44:34Z</time>
      </trkpt>
      <trkpt lat="45.24254" lon="6.94916">
        <ele>2091</ele>
        <time>2019-07-08T18:44:36Z</time>
      </trkpt>
      <trkpt lat="45.24239" lon="6.94926">
        <ele>2092</ele>
        <time>2019-07-08T18:44:39Z</time>
      </trkpt>
      <trkpt lat="45.2423" lon="6.94935">
        <ele>2093</ele>
        <time>2019-07-08T18:44:41Z</time>
      </trkpt>
      <trkpt lat="45.24157" lon="6.95032">
        <ele>2098</ele>
        <time>2019-07-08T18:44:59Z</time>
      </trkpt>
      <trkpt lat="45.23932" lon="6.95242">
        <ele>2092</ele>
        <time>2019-07-08T18:45:47Z</time>
      </trkpt>
      <trkpt lat="45.23922" lon="6.95255">
        <ele>2091</ele>
        <time>2019-07-08T18:45:49Z</time>
      </trkpt>
      <trkpt lat="45.23913" lon="6.95269">
        <ele>2092</ele>
        <time>2019-07-08T18:45:51Z</time>
      </trkpt>
      <trkpt lat="45.23896" lon="6.95309">
        <ele>2095</ele>
        <time>2019-07-08T18:45:57Z</time>
      </trkpt>
      <trkpt lat="45.23885" lon="6.95324">
        <ele>2096</ele>
        <time>2019-07-08T18:46:00Z</time>
      </trkpt>
      <trkpt lat="45.23875" lon="6.95331">
        <ele>2096</ele>
        <time>2019-07-08T18:46:02Z</time>
      </trkpt>
      <trkpt lat="45.2387" lon="6.95332">
        <ele>2095</ele>
        <time>2019-07-08T18:46:03Z</time>
      </trkpt>
      <trkpt lat="45.23837" lon="6.95327">
        <ele>2091</ele>
        <time>2019-07-08T18:46:09Z</time>
      </trkpt>
      <trkpt lat="45.23828" lon="6.95327">
        <ele>2090</ele>
        <time>2019-07-08T18:46:10Z</time>
      </trkpt>
      <trkpt lat="45.23817" lon="6.95329">
        <ele>2089</ele>
        <time>2019-07-08T18:46:12Z</time>
      </trkpt>
      <trkpt lat="45.23805" lon="6.95338">
        <ele>2090</ele>
        <time>2019-07-08T18:46:15Z</time>
      </trkpt>
      <trkpt lat="45.23786" lon="6.95365">
        <ele>2093</ele>
        <time>2019-07-08T18:46:19Z</time>
      </trkpt>
      <trkpt lat="45.23774" lon="6.95377">
        <ele>2094</ele>
        <time>2019-07-08T18:46:22Z</time>
      </trkpt>
      <trkpt lat="45.23679" lon="6.95434">
        <ele>2092</ele>
        <time>2019-07-08T18:46:40Z</time>
      </trkpt>
      <trkpt lat="45.23665" lon="6.95446">
        <ele>2092</ele>
        <time>2019-07-08T18:46:43Z</time>
      </trkpt>
      <trkpt lat="45.23596" lon="6.95515">
        <ele>2093</ele>
        <time>2019-07-08T18:46:58Z</time>
      </trkpt>
      <trkpt lat="45.23587" lon="6.95521">
        <ele>2093</ele>
        <time>2019-07-08T18:47:00Z</time>
      </trkpt>
      <trkpt lat="45.23562" lon="6.95527">
        <ele>2089</ele>
        <time>2019-07-08T18:47:05Z</time>
      </trkpt>
      <trkpt lat="45.23547" lon="6.95535">
        <ele>2088</ele>
        <time>2019-07-08T18:47:07Z</time>
      </trkpt>
      <trkpt lat="45.23534" lon="6.95547">
        <ele>2089</ele>
        <time>2019-07-08T18:47:10Z</time>
      </trkpt>
      <trkpt lat="45.23508" lon="6.9558">
        <ele>2094</ele>
        <time>2019-07-08T18:47:16Z</time>
      </trkpt>
      <trkpt lat="45.23496" lon="6.9559">
        <ele>2094</ele>
        <time>2019-07-08T18:47:19Z</time>
      </trkpt>
      <trkpt lat="45.2348" lon="6.95601">
        <ele>2092</ele>
        <time>2019-07-08T18:47:22Z</time>
      </trkpt>
      <trkpt lat="45.23411" lon="6.95641">
        <ele>2084</ele>
        <time>2019-07-08T18:47:35Z</time>
      </trkpt>
      <trkpt lat="45.23304" lon="6.95709">
        <ele>2073</ele>
        <time>2019-07-08T18:47:56Z</time>
      </trkpt>
      <trkpt lat="45.23211" lon="6.95758">
        <ele>2060</ele>
        <time>2019-07-08T18:48:14Z</time>
      </trkpt>
      <trkpt lat="45.23201" lon="6.95766">
        <ele>2059</ele>
        <time>2019-07-08T18:48:16Z</time>
      </trkpt>
      <trkpt lat="45.23189" lon="6.9578">
        <ele>2059</ele>
        <time>2019-07-08T18:48:19Z</time>
      </trkpt>
      <trkpt lat="45.23146" lon="6.95835">
        <ele>2061</ele>
        <time>2019-07-08T18:48:29Z</time>
      </trkpt>
      <trkpt lat="45.23136" lon="6.95843">
        <ele>2060</ele>
        <time>2019-07-08T18:48:31Z</time>
      </trkpt>
      <trkpt lat="45.23057" lon="6.95882">
        <ele>2045</ele>
        <time>2019-07-08T18:48:46Z</time>
      </trkpt>
      <trkpt lat="45.2301" lon="6.95914">
        <ele>2038</ele>
        <time>2019-07-08T18:48:55Z</time>
      </trkpt>
      <trkpt lat="45.23001" lon="6.95924">
        <ele>2038</ele>
        <time>2019-07-08T18:48:57Z</time>
      </trkpt>
      <trkpt lat="45.22993" lon="6.95937">
        <ele>2038</ele>
        <time>2019-07-08T18:48:59Z</time>
      </trkpt>
      <trkpt lat="45.22868" lon="6.96195">
        <ele>2039</ele>
        <time>2019-07-08T18:49:39Z</time>
      </trkpt>
      <trkpt lat="45.22853" lon="6.9622">
        <ele>2035</ele>
        <time>2019-07-08T18:49:43Z</time>
      </trkpt>
      <trkpt lat="45.22841" lon="6.96245">
        <ele>2032</ele>
        <time>2019-07-08T18:49:46Z</time>
      </trkpt>
      <trkpt lat="45.22809" lon="6.96325">
        <ele>2040</ele>
        <time>2019-07-08T18:49:58Z</time>
      </trkpt>
      <trkpt lat="45.22786" lon="6.96357">
        <ele>2039</ele>
        <time>2019-07-08T18:50:04Z</time>
      </trkpt>
      <trkpt lat="45.22725" lon="6.96428">
        <ele>2033</ele>
        <time>2019-07-08T18:50:18Z</time>
      </trkpt>
      <trkpt lat="45.22705" lon="6.96457">
        <ele>2035</ele>
        <time>2019-07-08T18:50:23Z</time>
      </trkpt>
      <trkpt lat="45.22686" lon="6.96492">
        <ele>2038</ele>
        <time>2019-07-08T18:50:28Z</time>
      </trkpt>
      <trkpt lat="45.22662" lon="6.96548">
        <ele>2040</ele>
        <time>2019-07-08T18:50:37Z</time>
      </trkpt>
      <trkpt lat="45.22653" lon="6.96591">
        <ele>2043</ele>
        <time>2019-07-08T18:50:42Z</time>
      </trkpt>
      <trkpt lat="45.22643" lon="6.96647">
        <ele>2044</ele>
        <time>2019-07-08T18:50:49Z</time>
      </trkpt>
      <trkpt lat="45.22635" lon="6.96671">
        <ele>2044</ele>
        <time>2019-07-08T18:50:53Z</time>
      </trkpt>
      <trkpt lat="45.22618" lon="6.96707">
        <ele>2048</ele>
        <time>2019-07-08T18:50:58Z</time>
      </trkpt>
      <trkpt lat="45.22565" lon="6.96798">
        <ele>2056</ele>
        <time>2019-07-08T18:51:13Z</time>
      </trkpt>
      <trkpt lat="45.22534" lon="6.96835">
        <ele>2060</ele>
        <time>2019-07-08T18:51:20Z</time>
      </trkpt>
      <trkpt lat="45.22521" lon="6.96847">
        <ele>2061</ele>
        <time>2019-07-08T18:51:23Z</time>
      </trkpt>
      <trkpt lat="45.22498" lon="6.96863">
        <ele>2060</ele>
        <time>2019-07-08T18:51:28Z</time>
      </trkpt>
      <trkpt lat="45.22474" lon="6.96875">
        <ele>2058</ele>
        <time>2019-07-08T18:51:32Z</time>
      </trkpt>
      <trkpt lat="45.22434" lon="6.9689">
        <ele>2053</ele>
        <time>2019-07-08T18:51:39Z</time>
      </trkpt>
      <trkpt lat="45.22416" lon="6.96894">
        <ele>2050</ele>
        <time>2019-07-08T18:51:43Z</time>
      </trkpt>
      <trkpt lat="45.22383" lon="6.96899">
        <ele>2050</ele>
        <time>2019-07-08T18:51:49Z</time>
      </trkpt>
      <trkpt lat="45.22328" lon="6.96898">
        <ele>2047</ele>
        <time>2019-07-08T18:51:58Z</time>
      </trkpt>
      <trkpt lat="45.22291" lon="6.96892">
        <ele>2045</ele>
        <time>2019-07-08T18:52:05Z</time>
      </trkpt>
      <trkpt lat="45.22268" lon="6.96885">
        <ele>2043</ele>
        <time>2019-07-08T18:52:09Z</time>
      </trkpt>
      <trkpt lat="45.22189" lon="6.96852">
        <ele>2033</ele>
        <time>2019-07-08T18:52:24Z</time>
      </trkpt>
      <trkpt lat="45.2216" lon="6.96848">
        <ele>2032</ele>
        <time>2019-07-08T18:52:29Z</time>
      </trkpt>
      <trkpt lat="45.22085" lon="6.96846">
        <ele>2027</ele>
        <time>2019-07-08T18:52:42Z</time>
      </trkpt>
      <trkpt lat="45.22054" lon="6.96848">
        <ele>2024</ele>
        <time>2019-07-08T18:52:48Z</time>
      </trkpt>
      <trkpt lat="45.22026" lon="6.96852">
        <ele>2021</ele>
        <time>2019-07-08T18:52:53Z</time>
      </trkpt>
      <trkpt lat="45.22009" lon="6.96859">
        <ele>2021</ele>
        <time>2019-07-08T18:52:56Z</time>
      </trkpt>
      <trkpt lat="45.21965" lon="6.9689">
        <ele>2024</ele>
        <time>2019-07-08T18:53:05Z</time>
      </trkpt>
      <trkpt lat="45.21949" lon="6.96896">
        <ele>2023</ele>
        <time>2019-07-08T18:53:08Z</time>
      </trkpt>
      <trkpt lat="45.21896" lon="6.96889">
        <ele>2015</ele>
        <time>2019-07-08T18:53:17Z</time>
      </trkpt>
      <trkpt lat="45.21832" lon="6.96901">
        <ele>2014</ele>
        <time>2019-07-08T18:53:29Z</time>
      </trkpt>
      <trkpt lat="45.2181" lon="6.96902">
        <ele>2013</ele>
        <time>2019-07-08T18:53:33Z</time>
      </trkpt>
      <trkpt lat="45.2171" lon="6.96886">
        <ele>2001</ele>
        <time>2019-07-08T18:53:51Z</time>
      </trkpt>
      <trkpt lat="45.21682" lon="6.96883">
        <ele>1997</ele>
        <time>2019-07-08T18:53:56Z</time>
      </trkpt>
      <trkpt lat="45.21672" lon="6.96884">
        <ele>1996</ele>
        <time>2019-07-08T18:53:57Z</time>
      </trkpt>
      <trkpt lat="45.21616" lon="6.96903">
        <ele>1996</ele>
        <time>2019-07-08T18:54:08Z</time>
      </trkpt>
      <trkpt lat="45.21611" lon="6.96902">
        <ele>1996</ele>
        <time>2019-07-08T18:54:08Z</time>
      </trkpt>
      <trkpt lat="45.21602" lon="6.96895">
        <ele>1994</ele>
        <time>2019-07-08T18:54:10Z</time>
      </trkpt>
      <trkpt lat="45.21598" lon="6.96886">
        <ele>1992</ele>
        <time>2019-07-08T18:54:12Z</time>
      </trkpt>
      <trkpt lat="45.21598" lon="6.96877">
        <ele>1989</ele>
        <time>2019-07-08T18:54:13Z</time>
      </trkpt>
      <trkpt lat="45.216" lon="6.96868">
        <ele>1987</ele>
        <time>2019-07-08T18:54:14Z</time>
      </trkpt>
      <trkpt lat="45.21605" lon="6.96861">
        <ele>1986</ele>
        <time>2019-07-08T18:54:15Z</time>
      </trkpt>
      <trkpt lat="45.21652" lon="6.96835">
        <ele>1984</ele>
        <time>2019-07-08T18:54:24Z</time>
      </trkpt>
      <trkpt lat="45.21661" lon="6.96828">
        <ele>1983</ele>
        <time>2019-07-08T18:54:26Z</time>
      </trkpt>
      <trkpt lat="45.2167" lon="6.96819">
        <ele>1983</ele>
        <time>2019-07-08T18:54:28Z</time>
      </trkpt>
      <trkpt lat="45.21679" lon="6.96805">
        <ele>1981</ele>
        <time>2019-07-08T18:54:30Z</time>
      </trkpt>
      <trkpt lat="45.21701" lon="6.9676">
        <ele>1974</ele>
        <time>2019-07-08T18:54:37Z</time>
      </trkpt>
      <trkpt lat="45.21707" lon="6.96751">
        <ele>1973</ele>
        <time>2019-07-08T18:54:39Z</time>
      </trkpt>
      <trkpt lat="45.21715" lon="6.96745">
        <ele>1972</ele>
        <time>2019-07-08T18:54:40Z</time>
      </trkpt>
      <trkpt lat="45.2173" lon="6.96741">
        <ele>1973</ele>
        <time>2019-07-08T18:54:43Z</time>
      </trkpt>
      <trkpt lat="45.21738" lon="6.96742">
        <ele>1974</ele>
        <time>2019-07-08T18:54:44Z</time>
      </trkpt>
      <trkpt lat="45.2182" lon="6.96766">
        <ele>1972</ele>
        <time>2019-07-08T18:54:59Z</time>
      </trkpt>
      <trkpt lat="45.21829" lon="6.96767">
        <ele>1971</ele>
        <time>2019-07-08T18:55:01Z</time>
      </trkpt>
      <trkpt lat="45.21851" lon="6.96766">
        <ele>1972</ele>
        <time>2019-07-08T18:55:05Z</time>
      </trkpt>
      <trkpt lat="45.21864" lon="6.96763">
        <ele>1972</ele>
        <time>2019-07-08T18:55:07Z</time>
      </trkpt>
      <trkpt lat="45.21897" lon="6.96748">
        <ele>1971</ele>
        <time>2019-07-08T18:55:13Z</time>
      </trkpt>
      <trkpt lat="45.21924" lon="6.96744">
        <ele>1973</ele>
        <time>2019-07-08T18:55:18Z</time>
      </trkpt>
      <trkpt lat="45.21944" lon="6.96738">
        <ele>1975</ele>
        <time>2019-07-08T18:55:22Z</time>
      </trkpt>
      <trkpt lat="45.21953" lon="6.96726">
        <ele>1974</ele>
        <time>2019-07-08T18:55:24Z</time>
      </trkpt>
      <trkpt lat="45.21955" lon="6.96718">
        <ele>1972</ele>
        <time>2019-07-08T18:55:25Z</time>
      </trkpt>
      <trkpt lat="45.21954" lon="6.96704">
        <ele>1970</ele>
        <time>2019-07-08T18:55:27Z</time>
      </trkpt>
      <trkpt lat="45.21951" lon="6.96698">
        <ele>1968</ele>
        <time>2019-07-08T18:55:28Z</time>
      </trkpt>
      <trkpt lat="45.21946" lon="6.96692">
        <ele>1966</ele>
        <time>2019-07-08T18:55:29Z</time>
      </trkpt>
      <trkpt lat="45.21941" lon="6.96691">
        <ele>1965</ele>
        <time>2019-07-08T18:55:30Z</time>
      </trkpt>
      <trkpt lat="45.21894" lon="6.96705">
        <ele>1963</ele>
        <time>2019-07-08T18:55:38Z</time>
      </trkpt>
      <trkpt lat="45.21866" lon="6.96705">
        <ele>1961</ele>
        <time>2019-07-08T18:55:43Z</time>
      </trkpt>
      <trkpt lat="45.21856" lon="6.96703">
        <ele>1960</ele>
        <time>2019-07-08T18:55:45Z</time>
      </trkpt>
      <trkpt lat="45.21839" lon="6.96697">
        <ele>1958</ele>
        <time>2019-07-08T18:55:48Z</time>
      </trkpt>
      <trkpt lat="45.21754" lon="6.96656">
        <ele>1952</ele>
        <time>2019-07-08T18:56:04Z</time>
      </trkpt>
      <trkpt lat="45.21737" lon="6.96651">
        <ele>1951</ele>
        <time>2019-07-08T18:56:07Z</time>
      </trkpt>
      <trkpt lat="45.21703" lon="6.96647">
        <ele>1949</ele>
        <time>2019-07-08T18:56:13Z</time>
      </trkpt>
      <trkpt lat="45.2168" lon="6.96647">
        <ele>1948</ele>
        <time>2019-07-08T18:56:18Z</time>
      </trkpt>
      <trkpt lat="45.21657" lon="6.96651">
        <ele>1948</ele>
        <time>2019-07-08T18:56:22Z</time>
      </trkpt>
      <trkpt lat="45.21537" lon="6.96697">
        <ele>1939</ele>
        <time>2019-07-08T18:56:44Z</time>
      </trkpt>
      <trkpt lat="45.21514" lon="6.96702">
        <ele>1937</ele>
        <time>2019-07-08T18:56:48Z</time>
      </trkpt>
      <trkpt lat="45.21502" lon="6.96701">
        <ele>1935</ele>
        <time>2019-07-08T18:56:50Z</time>
      </trkpt>
      <trkpt lat="45.21482" lon="6.96695">
        <ele>1935</ele>
        <time>2019-07-08T18:56:54Z</time>
      </trkpt>
      <trkpt lat="45.21473" lon="6.96689">
        <ele>1935</ele>
        <time>2019-07-08T18:56:55Z</time>
      </trkpt>
      <trkpt lat="45.21454" lon="6.96671">
        <ele>1935</ele>
        <time>2019-07-08T18:57:00Z</time>
      </trkpt>
      <trkpt lat="45.21446" lon="6.96658">
        <ele>1934</ele>
        <time>2019-07-08T18:57:02Z</time>
      </trkpt>
      <trkpt lat="45.21433" lon="6.9663">
        <ele>1935</ele>
        <time>2019-07-08T18:57:06Z</time>
      </trkpt>
      <trkpt lat="45.21426" lon="6.96598">
        <ele>1935</ele>
        <time>2019-07-08T18:57:10Z</time>
      </trkpt>
      <trkpt lat="45.21424" lon="6.96582">
        <ele>1935</ele>
        <time>2019-07-08T18:57:12Z</time>
      </trkpt>
      <trkpt lat="45.21427" lon="6.96547">
        <ele>1936</ele>
        <time>2019-07-08T18:57:17Z</time>
      </trkpt>
      <trkpt lat="45.21434" lon="6.96521">
        <ele>1936</ele>
        <time>2019-07-08T18:57:20Z</time>
      </trkpt>
      <trkpt lat="45.21477" lon="6.96424">
        <ele>1927</ele>
        <time>2019-07-08T18:57:34Z</time>
      </trkpt>
      <trkpt lat="45.21563" lon="6.96241">
        <ele>1906</ele>
        <time>2019-07-08T18:58:02Z</time>
      </trkpt>
      <trkpt lat="45.2161" lon="6.96145">
        <ele>1898</ele>
        <time>2019-07-08T18:58:17Z</time>
      </trkpt>
      <trkpt lat="45.21628" lon="6.96114">
        <ele>1897</ele>
        <time>2019-07-08T18:58:22Z</time>
      </trkpt>
      <trkpt lat="45.21744" lon="6.95962">
        <ele>1885</ele>
        <time>2019-07-08T18:58:50Z</time>
      </trkpt>
      <trkpt lat="45.2183" lon="6.95843">
        <ele>1876</ele>
        <time>2019-07-08T18:59:11Z</time>
      </trkpt>
      <trkpt lat="45.21849" lon="6.95805">
        <ele>1873</ele>
        <time>2019-07-08T18:59:17Z</time>
      </trkpt>
      <trkpt lat="45.21874" lon="6.95739">
        <ele>1870</ele>
        <time>2019-07-08T18:59:26Z</time>
      </trkpt>
      <trkpt lat="45.21876" lon="6.95721">
        <ele>1871</ele>
        <time>2019-07-08T18:59:29Z</time>
      </trkpt>
      <trkpt lat="45.21871" lon="6.95702">
        <ele>1870</ele>
        <time>2019-07-08T18:59:31Z</time>
      </trkpt>
      <trkpt lat="45.21866" lon="6.95691">
        <ele>1869</ele>
        <time>2019-07-08T18:59:33Z</time>
      </trkpt>
      <trkpt lat="45.21853" lon="6.95675">
        <ele>1867</ele>
        <time>2019-07-08T18:59:36Z</time>
      </trkpt>
      <trkpt lat="45.2183" lon="6.95654">
        <ele>1865</ele>
        <time>2019-07-08T18:59:41Z</time>
      </trkpt>
      <trkpt lat="45.21819" lon="6.95638">
        <ele>1862</ele>
        <time>2019-07-08T18:59:44Z</time>
      </trkpt>
      <trkpt lat="45.21815" lon="6.95628">
        <ele>1862</ele>
        <time>2019-07-08T18:59:45Z</time>
      </trkpt>
      <trkpt lat="45.21787" lon="6.95484">
        <ele>1860</ele>
        <time>2019-07-08T19:00:04Z</time>
      </trkpt>
      <trkpt lat="45.21783" lon="6.95474">
        <ele>1859</ele>
        <time>2019-07-08T19:00:05Z</time>
      </trkpt>
      <trkpt lat="45.2177" lon="6.95458">
        <ele>1856</ele>
        <time>2019-07-08T19:00:08Z</time>
      </trkpt>
      <trkpt lat="45.21742" lon="6.95439">
        <ele>1853</ele>
        <time>2019-07-08T19:00:14Z</time>
      </trkpt>
      <trkpt lat="45.21736" lon="6.95438">
        <ele>1852</ele>
        <time>2019-07-08T19:00:15Z</time>
      </trkpt>
      <trkpt lat="45.21732" lon="6.95437">
        <ele>1851</ele>
        <time>2019-07-08T19:00:16Z</time>
      </trkpt>
      <trkpt lat="45.21722" lon="6.95442">
        <ele>1849</ele>
        <time>2019-07-08T19:00:17Z</time>
      </trkpt>
      <trkpt lat="45.21717" lon="6.95448">
        <ele>1848</ele>
        <time>2019-07-08T19:00:19Z</time>
      </trkpt>
      <trkpt lat="45.21715" lon="6.95456">
        <ele>1848</ele>
        <time>2019-07-08T19:00:20Z</time>
      </trkpt>
      <trkpt lat="45.21714" lon="6.95475">
        <ele>1847</ele>
        <time>2019-07-08T19:00:22Z</time>
      </trkpt>
      <trkpt lat="45.21721" lon="6.95526">
        <ele>1844</ele>
        <time>2019-07-08T19:00:29Z</time>
      </trkpt>
      <trkpt lat="45.21719" lon="6.95538">
        <ele>1843</ele>
        <time>2019-07-08T19:00:30Z</time>
      </trkpt>
      <trkpt lat="45.21715" lon="6.95542">
        <ele>1841</ele>
        <time>2019-07-08T19:00:31Z</time>
      </trkpt>
      <trkpt lat="45.21704" lon="6.95544">
        <ele>1839</ele>
        <time>2019-07-08T19:00:33Z</time>
      </trkpt>
      <trkpt lat="45.21658" lon="6.95529">
        <ele>1831</ele>
        <time>2019-07-08T19:00:41Z</time>
      </trkpt>
      <trkpt lat="45.21651" lon="6.95525">
        <ele>1829</ele>
        <time>2019-07-08T19:00:43Z</time>
      </trkpt>
      <trkpt lat="45.21642" lon="6.95512">
        <ele>1829</ele>
        <time>2019-07-08T19:00:45Z</time>
      </trkpt>
      <trkpt lat="45.21638" lon="6.95502">
        <ele>1830</ele>
        <time>2019-07-08T19:00:46Z</time>
      </trkpt>
      <trkpt lat="45.21636" lon="6.9549">
        <ele>1830</ele>
        <time>2019-07-08T19:00:48Z</time>
      </trkpt>
      <trkpt lat="45.21628" lon="6.95423">
        <ele>1832</ele>
        <time>2019-07-08T19:00:56Z</time>
      </trkpt>
      <trkpt lat="45.21625" lon="6.95413">
        <ele>1832</ele>
        <time>2019-07-08T19:00:58Z</time>
      </trkpt>
      <trkpt lat="45.21619" lon="6.95401">
        <ele>1833</ele>
        <time>2019-07-08T19:01:00Z</time>
      </trkpt>
      <trkpt lat="45.21598" lon="6.95375">
        <ele>1834</ele>
        <time>2019-07-08T19:01:05Z</time>
      </trkpt>
      <trkpt lat="45.21595" lon="6.95373">
        <ele>1834</ele>
        <time>2019-07-08T19:01:05Z</time>
      </trkpt>
      <trkpt lat="45.21592" lon="6.95374">
        <ele>1833</ele>
        <time>2019-07-08T19:01:06Z</time>
      </trkpt>
      <trkpt lat="45.21588" lon="6.95378">
        <ele>1832</ele>
        <time>2019-07-08T19:01:07Z</time>
      </trkpt>
      <trkpt lat="45.21588" lon="6.95387">
        <ele>1830</ele>
        <time>2019-07-08T19:01:08Z</time>
      </trkpt>
      <trkpt lat="45.21601" lon="6.95417">
        <ele>1827</ele>
        <time>2019-07-08T19:01:12Z</time>
      </trkpt>
      <trkpt lat="45.21608" lon="6.95442">
        <ele>1825</ele>
        <time>2019-07-08T19:01:16Z</time>
      </trkpt>
      <trkpt lat="45.21609" lon="6.95472">
        <ele>1822</ele>
        <time>2019-07-08T19:01:19Z</time>
      </trkpt>
      <trkpt lat="45.21607" lon="6.95523">
        <ele>1812</ele>
        <time>2019-07-08T19:01:26Z</time>
      </trkpt>
      <trkpt lat="45.2161" lon="6.95547">
        <ele>1806</ele>
        <time>2019-07-08T19:01:29Z</time>
      </trkpt>
      <trkpt lat="45.21617" lon="6.95564">
        <ele>1804</ele>
        <time>2019-07-08T19:01:31Z</time>
      </trkpt>
      <trkpt lat="45.21622" lon="6.95572">
        <ele>1804</ele>
        <time>2019-07-08T19:01:33Z</time>
      </trkpt>
      <trkpt lat="45.21682" lon="6.95638">
        <ele>1814</ele>
        <time>2019-07-08T19:01:46Z</time>
      </trkpt>
      <trkpt lat="45.21688" lon="6.95648">
        <ele>1813</ele>
        <time>2019-07-08T19:01:48Z</time>
      </trkpt>
      <trkpt lat="45.21693" lon="6.95668">
        <ele>1811</ele>
        <time>2019-07-08T19:01:50Z</time>
      </trkpt>
      <trkpt lat="45.21694" lon="6.95679">
        <ele>1813</ele>
        <time>2019-07-08T19:01:52Z</time>
      </trkpt>
      <trkpt lat="45.21692" lon="6.95695">
        <ele>1814</ele>
        <time>2019-07-08T19:01:54Z</time>
      </trkpt>
      <trkpt lat="45.21685" lon="6.95708">
        <ele>1814</ele>
        <time>2019-07-08T19:01:56Z</time>
      </trkpt>
      <trkpt lat="45.21637" lon="6.95744">
        <ele>1799</ele>
        <time>2019-07-08T19:02:06Z</time>
      </trkpt>
      <trkpt lat="45.21631" lon="6.95743">
        <ele>1796</ele>
        <time>2019-07-08T19:02:07Z</time>
      </trkpt>
      <trkpt lat="45.21629" lon="6.9574">
        <ele>1795</ele>
        <time>2019-07-08T19:02:07Z</time>
      </trkpt>
      <trkpt lat="45.21627" lon="6.95735">
        <ele>1793</ele>
        <time>2019-07-08T19:02:08Z</time>
      </trkpt>
      <trkpt lat="45.21627" lon="6.95729">
        <ele>1792</ele>
        <time>2019-07-08T19:02:09Z</time>
      </trkpt>
      <trkpt lat="45.2163" lon="6.95724">
        <ele>1793</ele>
        <time>2019-07-08T19:02:09Z</time>
      </trkpt>
      <trkpt lat="45.2165" lon="6.95708">
        <ele>1801</ele>
        <time>2019-07-08T19:02:14Z</time>
      </trkpt>
      <trkpt lat="45.21658" lon="6.95691">
        <ele>1802</ele>
        <time>2019-07-08T19:02:16Z</time>
      </trkpt>
      <trkpt lat="45.21659" lon="6.95675">
        <ele>1800</ele>
        <time>2019-07-08T19:02:18Z</time>
      </trkpt>
      <trkpt lat="45.21653" lon="6.95658">
        <ele>1798</ele>
        <time>2019-07-08T19:02:20Z</time>
      </trkpt>
      <trkpt lat="45.21642" lon="6.95647">
        <ele>1796</ele>
        <time>2019-07-08T19:02:23Z</time>
      </trkpt>
      <trkpt lat="45.21611" lon="6.95622">
        <ele>1787</ele>
        <time>2019-07-08T19:02:29Z</time>
      </trkpt>
      <trkpt lat="45.21602" lon="6.95611">
        <ele>1786</ele>
        <time>2019-07-08T19:02:31Z</time>
      </trkpt>
      <trkpt lat="45.21584" lon="6.9558">
        <ele>1783</ele>
        <time>2019-07-08T19:02:36Z</time>
      </trkpt>
      <trkpt lat="45.21534" lon="6.95515">
        <ele>1780</ele>
        <time>2019-07-08T19:02:48Z</time>
      </trkpt>
      <trkpt lat="45.21514" lon="6.95494">
        <ele>1774</ele>
        <time>2019-07-08T19:02:53Z</time>
      </trkpt>
      <trkpt lat="45.21497" lon="6.95468">
        <ele>1770</ele>
        <time>2019-07-08T19:02:57Z</time>
      </trkpt>
      <trkpt lat="45.2149" lon="6.9546">
        <ele>1770</ele>
        <time>2019-07-08T19:02:59Z</time>
      </trkpt>
      <trkpt lat="45.21486" lon="6.95459">
        <ele>1768</ele>
        <time>2019-07-08T19:03:00Z</time>
      </trkpt>
      <trkpt lat="45.21482" lon="6.95463">
        <ele>1766</ele>
        <time>2019-07-08T19:03:00Z</time>
      </trkpt>
      <trkpt lat="45.21481" lon="6.9547">
        <ele>1765</ele>
        <time>2019-07-08T19:03:01Z</time>
      </trkpt>
      <trkpt lat="45.21482" lon="6.95475">
        <ele>1764</ele>
        <time>2019-07-08T19:03:02Z</time>
      </trkpt>
      <trkpt lat="45.21497" lon="6.95495">
        <ele>1765</ele>
        <time>2019-07-08T19:03:06Z</time>
      </trkpt>
      <trkpt lat="45.21521" lon="6.95521">
        <ele>1772</ele>
        <time>2019-07-08T19:03:11Z</time>
      </trkpt>
      <trkpt lat="45.21558" lon="6.95584">
        <ele>1772</ele>
        <time>2019-07-08T19:03:21Z</time>
      </trkpt>
      <trkpt lat="45.21581" lon="6.95634">
        <ele>1771</ele>
        <time>2019-07-08T19:03:29Z</time>
      </trkpt>
      <trkpt lat="45.2159" lon="6.95667">
        <ele>1769</ele>
        <time>2019-07-08T19:03:33Z</time>
      </trkpt>
      <trkpt lat="45.2159" lon="6.95687">
        <ele>1771</ele>
        <time>2019-07-08T19:03:36Z</time>
      </trkpt>
      <trkpt lat="45.21589" lon="6.95701">
        <ele>1772</ele>
        <time>2019-07-08T19:03:38Z</time>
      </trkpt>
      <trkpt lat="45.21584" lon="6.95718">
        <ele>1771</ele>
        <time>2019-07-08T19:03:40Z</time>
      </trkpt>
      <trkpt lat="45.21573" lon="6.95747">
        <ele>1770</ele>
        <time>2019-07-08T19:03:44Z</time>
      </trkpt>
      <trkpt lat="45.21563" lon="6.9577">
        <ele>1774</ele>
        <time>2019-07-08T19:03:47Z</time>
      </trkpt>
      <trkpt lat="45.21548" lon="6.95797">
        <ele>1776</ele>
        <time>2019-07-08T19:03:52Z</time>
      </trkpt>
      <trkpt lat="45.21542" lon="6.95801">
        <ele>1775</ele>
        <time>2019-07-08T19:03:53Z</time>
      </trkpt>
      <trkpt lat="45.21537" lon="6.95799">
        <ele>1772</ele>
        <time>2019-07-08T19:03:54Z</time>
      </trkpt>
      <trkpt lat="45.21535" lon="6.95791">
        <ele>1769</ele>
        <time>2019-07-08T19:03:55Z</time>
      </trkpt>
      <trkpt lat="45.21535" lon="6.95785">
        <ele>1767</ele>
        <time>2019-07-08T19:03:56Z</time>
      </trkpt>
      <trkpt lat="45.21558" lon="6.95705">
        <ele>1761</ele>
        <time>2019-07-08T19:04:06Z</time>
      </trkpt>
      <trkpt lat="45.21558" lon="6.9568">
        <ele>1759</ele>
        <time>2019-07-08T19:04:10Z</time>
      </trkpt>
      <trkpt lat="45.21552" lon="6.95663">
        <ele>1757</ele>
        <time>2019-07-08T19:04:12Z</time>
      </trkpt>
      <trkpt lat="45.21498" lon="6.95592">
        <ele>1748</ele>
        <time>2019-07-08T19:04:25Z</time>
      </trkpt>
      <trkpt lat="45.21486" lon="6.95584">
        <ele>1747</ele>
        <time>2019-07-08T19:04:27Z</time>
      </trkpt>
      <trkpt lat="45.21472" lon="6.95581">
        <ele>1745</ele>
        <time>2019-07-08T19:04:30Z</time>
      </trkpt>
      <trkpt lat="45.21464" lon="6.95582">
        <ele>1743</ele>
        <time>2019-07-08T19:04:31Z</time>
      </trkpt>
      <trkpt lat="45.21442" lon="6.95593">
        <ele>1739</ele>
        <time>2019-07-08T19:04:35Z</time>
      </trkpt>
      <trkpt lat="45.20719" lon="6.96071">
        <ele>1731</ele>
        <time>2019-07-08T19:06:57Z</time>
      </trkpt>
      <trkpt lat="45.20704" lon="6.96083">
        <ele>1731</ele>
        <time>2019-07-08T19:07:00Z</time>
      </trkpt>
      <trkpt lat="45.20668" lon="6.96116">
        <ele>1727</ele>
        <time>2019-07-08T19:07:08Z</time>
      </trkpt>
      <trkpt lat="45.20639" lon="6.96154">
        <ele>1724</ele>
        <time>2019-07-08T19:07:15Z</time>
      </trkpt>
      <trkpt lat="45.20587" lon="6.96252">
        <ele>1713</ele>
        <time>2019-07-08T19:07:30Z</time>
      </trkpt>
      <trkpt lat="45.20562" lon="6.96277">
        <ele>1715</ele>
        <time>2019-07-08T19:07:36Z</time>
      </trkpt>
      <trkpt lat="45.20538" lon="6.96296">
        <ele>1718</ele>
        <time>2019-07-08T19:07:41Z</time>
      </trkpt>
      <trkpt lat="45.20512" lon="6.96322">
        <ele>1718</ele>
        <time>2019-07-08T19:07:46Z</time>
      </trkpt>
      <trkpt lat="45.20499" lon="6.96341">
        <ele>1716</ele>
        <time>2019-07-08T19:07:50Z</time>
      </trkpt>
      <trkpt lat="45.20481" lon="6.96374">
        <ele>1717</ele>
        <time>2019-07-08T19:07:55Z</time>
      </trkpt>
      <trkpt lat="45.20473" lon="6.96395">
        <ele>1716</ele>
        <time>2019-07-08T19:07:58Z</time>
      </trkpt>
      <trkpt lat="45.2046" lon="6.96434">
        <ele>1714</ele>
        <time>2019-07-08T19:08:03Z</time>
      </trkpt>
      <trkpt lat="45.20448" lon="6.96475">
        <ele>1713</ele>
        <time>2019-07-08T19:08:09Z</time>
      </trkpt>
      <trkpt lat="45.2039" lon="6.96709">
        <ele>1690</ele>
        <time>2019-07-08T19:08:40Z</time>
      </trkpt>
      <trkpt lat="45.20381" lon="6.9673">
        <ele>1688</ele>
        <time>2019-07-08T19:08:43Z</time>
      </trkpt>
      <trkpt lat="45.20377" lon="6.96736">
        <ele>1687</ele>
        <time>2019-07-08T19:08:44Z</time>
      </trkpt>
      <trkpt lat="45.20362" lon="6.9675">
        <ele>1686</ele>
        <time>2019-07-08T19:08:47Z</time>
      </trkpt>
      <trkpt lat="45.20261" lon="6.96821">
        <ele>1688</ele>
        <time>2019-07-08T19:09:07Z</time>
      </trkpt>
      <trkpt lat="45.20252" lon="6.96835">
        <ele>1686</ele>
        <time>2019-07-08T19:09:10Z</time>
      </trkpt>
      <trkpt lat="45.20219" lon="6.96929">
        <ele>1678</ele>
        <time>2019-07-08T19:09:23Z</time>
      </trkpt>
      <trkpt lat="45.20206" lon="6.96954">
        <ele>1675</ele>
        <time>2019-07-08T19:09:27Z</time>
      </trkpt>
      <trkpt lat="45.20156" lon="6.97015">
        <ele>1672</ele>
        <time>2019-07-08T19:09:39Z</time>
      </trkpt>
      <trkpt lat="45.20055" lon="6.97147">
        <ele>1669</ele>
        <time>2019-07-08T19:10:03Z</time>
      </trkpt>
      <trkpt lat="45.2004" lon="6.97172">
        <ele>1667</ele>
        <time>2019-07-08T19:10:07Z</time>
      </trkpt>
      <trkpt lat="45.20022" lon="6.97233">
        <ele>1658</ele>
        <time>2019-07-08T19:10:15Z</time>
      </trkpt>
      <trkpt lat="45.19976" lon="6.97409">
        <ele>1649</ele>
        <time>2019-07-08T19:10:39Z</time>
      </trkpt>
      <trkpt lat="45.19973" lon="6.97426">
        <ele>1648</ele>
        <time>2019-07-08T19:10:41Z</time>
      </trkpt>
      <trkpt lat="45.19971" lon="6.97444">
        <ele>1647</ele>
        <time>2019-07-08T19:10:43Z</time>
      </trkpt>
      <trkpt lat="45.19973" lon="6.97504">
        <ele>1637</ele>
        <time>2019-07-08T19:10:51Z</time>
      </trkpt>
      <trkpt lat="45.19969" lon="6.97538">
        <ele>1634</ele>
        <time>2019-07-08T19:10:55Z</time>
      </trkpt>
      <trkpt lat="45.19921" lon="6.97726">
        <ele>1622</ele>
        <time>2019-07-08T19:11:20Z</time>
      </trkpt>
      <trkpt lat="45.19913" lon="6.97747">
        <ele>1621</ele>
        <time>2019-07-08T19:11:23Z</time>
      </trkpt>
      <trkpt lat="45.19902" lon="6.97767">
        <ele>1619</ele>
        <time>2019-07-08T19:11:27Z</time>
      </trkpt>
      <trkpt lat="45.19892" lon="6.97783">
        <ele>1618</ele>
        <time>2019-07-08T19:11:29Z</time>
      </trkpt>
      <trkpt lat="45.1988" lon="6.97797">
        <ele>1618</ele>
        <time>2019-07-08T19:11:32Z</time>
      </trkpt>
      <trkpt lat="45.19857" lon="6.97817">
        <ele>1619</ele>
        <time>2019-07-08T19:11:37Z</time>
      </trkpt>
      <trkpt lat="45.19843" lon="6.97835">
        <ele>1618</ele>
        <time>2019-07-08T19:11:40Z</time>
      </trkpt>
      <trkpt lat="45.19837" lon="6.97855">
        <ele>1616</ele>
        <time>2019-07-08T19:11:43Z</time>
      </trkpt>
      <trkpt lat="45.19824" lon="6.97925">
        <ele>1608</ele>
        <time>2019-07-08T19:11:52Z</time>
      </trkpt>
      <trkpt lat="45.19817" lon="6.97948">
        <ele>1605</ele>
        <time>2019-07-08T19:11:55Z</time>
      </trkpt>
      <trkpt lat="45.19806" lon="6.97973">
        <ele>1601</ele>
        <time>2019-07-08T19:11:59Z</time>
      </trkpt>
      <trkpt lat="45.19798" lon="6.97983">
        <ele>1600</ele>
        <time>2019-07-08T19:12:01Z</time>
      </trkpt>
      <trkpt lat="45.19788" lon="6.97991">
        <ele>1599</ele>
        <time>2019-07-08T19:12:03Z</time>
      </trkpt>
      <trkpt lat="45.19744" lon="6.98007">
        <ele>1603</ele>
        <time>2019-07-08T19:12:11Z</time>
      </trkpt>
      <trkpt lat="45.19733" lon="6.98015">
        <ele>1606</ele>
        <time>2019-07-08T19:12:13Z</time>
      </trkpt>
      <trkpt lat="45.19723" lon="6.98026">
        <ele>1608</ele>
        <time>2019-07-08T19:12:15Z</time>
      </trkpt>
      <trkpt lat="45.19716" lon="6.98037">
        <ele>1608</ele>
        <time>2019-07-08T19:12:17Z</time>
      </trkpt>
      <trkpt lat="45.1971" lon="6.98053">
        <ele>1606</ele>
        <time>2019-07-08T19:12:19Z</time>
      </trkpt>
      <trkpt lat="45.19702" lon="6.98086">
        <ele>1600</ele>
        <time>2019-07-08T19:12:24Z</time>
      </trkpt>
      <trkpt lat="45.19698" lon="6.98145">
        <ele>1593</ele>
        <time>2019-07-08T19:12:31Z</time>
      </trkpt>
      <trkpt lat="45.19697" lon="6.98163">
        <ele>1591</ele>
        <time>2019-07-08T19:12:33Z</time>
      </trkpt>
      <trkpt lat="45.19698" lon="6.98179">
        <ele>1589</ele>
        <time>2019-07-08T19:12:36Z</time>
      </trkpt>
      <trkpt lat="45.19708" lon="6.98235">
        <ele>1577</ele>
        <time>2019-07-08T19:12:43Z</time>
      </trkpt>
      <trkpt lat="45.19707" lon="6.98263">
        <ele>1574</ele>
        <time>2019-07-08T19:12:46Z</time>
      </trkpt>
      <trkpt lat="45.19699" lon="6.98288">
        <ele>1573</ele>
        <time>2019-07-08T19:12:50Z</time>
      </trkpt>
      <trkpt lat="45.19661" lon="6.98374">
        <ele>1569</ele>
        <time>2019-07-08T19:13:02Z</time>
      </trkpt>
      <trkpt lat="45.19657" lon="6.98381">
        <ele>1568</ele>
        <time>2019-07-08T19:13:04Z</time>
      </trkpt>
      <trkpt lat="45.19645" lon="6.9839">
        <ele>1567</ele>
        <time>2019-07-08T19:13:06Z</time>
      </trkpt>
      <trkpt lat="45.19611" lon="6.98399">
        <ele>1567</ele>
        <time>2019-07-08T19:13:12Z</time>
      </trkpt>
      <trkpt lat="45.19602" lon="6.98404">
        <ele>1566</ele>
        <time>2019-07-08T19:13:14Z</time>
      </trkpt>
      <trkpt lat="45.19587" lon="6.98418">
        <ele>1564</ele>
        <time>2019-07-08T19:13:17Z</time>
      </trkpt>
      <trkpt lat="45.19567" lon="6.98447">
        <ele>1560</ele>
        <time>2019-07-08T19:13:22Z</time>
      </trkpt>
      <trkpt lat="45.19553" lon="6.9846">
        <ele>1558</ele>
        <time>2019-07-08T19:13:25Z</time>
      </trkpt>
      <trkpt lat="45.19493" lon="6.98499">
        <ele>1550</ele>
        <time>2019-07-08T19:13:37Z</time>
      </trkpt>
      <trkpt lat="45.19479" lon="6.98499">
        <ele>1550</ele>
        <time>2019-07-08T19:13:39Z</time>
      </trkpt>
      <trkpt lat="45.19454" lon="6.98491">
        <ele>1551</ele>
        <time>2019-07-08T19:13:44Z</time>
      </trkpt>
      <trkpt lat="45.19443" lon="6.98489">
        <ele>1551</ele>
        <time>2019-07-08T19:13:46Z</time>
      </trkpt>
      <trkpt lat="45.19436" lon="6.9849">
        <ele>1551</ele>
        <time>2019-07-08T19:13:47Z</time>
      </trkpt>
      <trkpt lat="45.19423" lon="6.98497">
        <ele>1548</ele>
        <time>2019-07-08T19:13:50Z</time>
      </trkpt>
      <trkpt lat="45.19398" lon="6.98525">
        <ele>1543</ele>
        <time>2019-07-08T19:13:55Z</time>
      </trkpt>
      <trkpt lat="45.1939" lon="6.9853">
        <ele>1541</ele>
        <time>2019-07-08T19:13:57Z</time>
      </trkpt>
      <trkpt lat="45.19376" lon="6.98533">
        <ele>1540</ele>
        <time>2019-07-08T19:13:59Z</time>
      </trkpt>
      <trkpt lat="45.1933" lon="6.98528">
        <ele>1539</ele>
        <time>2019-07-08T19:14:08Z</time>
      </trkpt>
      <trkpt lat="45.19314" lon="6.98529">
        <ele>1538</ele>
        <time>2019-07-08T19:14:10Z</time>
      </trkpt>
      <trkpt lat="45.19307" lon="6.98533">
        <ele>1537</ele>
        <time>2019-07-08T19:14:12Z</time>
      </trkpt>
      <trkpt lat="45.19279" lon="6.98554">
        <ele>1532</ele>
        <time>2019-07-08T19:14:17Z</time>
      </trkpt>
      <trkpt lat="45.1927" lon="6.98557">
        <ele>1531</ele>
        <time>2019-07-08T19:14:19Z</time>
      </trkpt>
      <trkpt lat="45.19246" lon="6.98557">
        <ele>1529</ele>
        <time>2019-07-08T19:14:23Z</time>
      </trkpt>
      <trkpt lat="45.19235" lon="6.98553">
        <ele>1527</ele>
        <time>2019-07-08T19:14:25Z</time>
      </trkpt>
      <trkpt lat="45.1922" lon="6.98543">
        <ele>1525</ele>
        <time>2019-07-08T19:14:28Z</time>
      </trkpt>
      <trkpt lat="45.19196" lon="6.98508">
        <ele>1522</ele>
        <time>2019-07-08T19:14:34Z</time>
      </trkpt>
      <trkpt lat="45.19167" lon="6.98476">
        <ele>1520</ele>
        <time>2019-07-08T19:14:41Z</time>
      </trkpt>
      <trkpt lat="45.19149" lon="6.98437">
        <ele>1519</ele>
        <time>2019-07-08T19:14:47Z</time>
      </trkpt>
      <trkpt lat="45.19119" lon="6.98401">
        <ele>1509</ele>
        <time>2019-07-08T19:14:54Z</time>
      </trkpt>
      <trkpt lat="45.19107" lon="6.98378">
        <ele>1506</ele>
        <time>2019-07-08T19:14:57Z</time>
      </trkpt>
      <trkpt lat="45.19101" lon="6.98359">
        <ele>1505</ele>
        <time>2019-07-08T19:15:00Z</time>
      </trkpt>
      <trkpt lat="45.19092" lon="6.98308">
        <ele>1507</ele>
        <time>2019-07-08T19:15:07Z</time>
      </trkpt>
      <trkpt lat="45.19083" lon="6.98269">
        <ele>1508</ele>
        <time>2019-07-08T19:15:12Z</time>
      </trkpt>
      <trkpt lat="45.19025" lon="6.98089">
        <ele>1491</ele>
        <time>2019-07-08T19:15:37Z</time>
      </trkpt>
      <trkpt lat="45.19022" lon="6.98067">
        <ele>1490</ele>
        <time>2019-07-08T19:15:39Z</time>
      </trkpt>
      <trkpt lat="45.19025" lon="6.97996">
        <ele>1495</ele>
        <time>2019-07-08T19:15:48Z</time>
      </trkpt>
      <trkpt lat="45.19024" lon="6.97979">
        <ele>1495</ele>
        <time>2019-07-08T19:15:50Z</time>
      </trkpt>
      <trkpt lat="45.19015" lon="6.97921">
        <ele>1490</ele>
        <time>2019-07-08T19:15:58Z</time>
      </trkpt>
      <trkpt lat="45.19007" lon="6.97888">
        <ele>1489</ele>
        <time>2019-07-08T19:16:02Z</time>
      </trkpt>
      <trkpt lat="45.19002" lon="6.97874">
        <ele>1488</ele>
        <time>2019-07-08T19:16:04Z</time>
      </trkpt>
      <trkpt lat="45.18991" lon="6.97851">
        <ele>1489</ele>
        <time>2019-07-08T19:16:08Z</time>
      </trkpt>
      <trkpt lat="45.18968" lon="6.97821">
        <ele>1489</ele>
        <time>2019-07-08T19:16:13Z</time>
      </trkpt>
      <trkpt lat="45.18924" lon="6.97768">
        <ele>1484</ele>
        <time>2019-07-08T19:16:23Z</time>
      </trkpt>
      <trkpt lat="45.18912" lon="6.97759">
        <ele>1482</ele>
        <time>2019-07-08T19:16:26Z</time>
      </trkpt>
      <trkpt lat="45.18893" lon="6.97753">
        <ele>1484</ele>
        <time>2019-07-08T19:16:29Z</time>
      </trkpt>
      <trkpt lat="45.18886" lon="6.97756">
        <ele>1484</ele>
        <time>2019-07-08T19:16:31Z</time>
      </trkpt>
      <trkpt lat="45.18882" lon="6.9776">
        <ele>1484</ele>
        <time>2019-07-08T19:16:32Z</time>
      </trkpt>
      <trkpt lat="45.18879" lon="6.97772">
        <ele>1483</ele>
        <time>2019-07-08T19:16:33Z</time>
      </trkpt>
      <trkpt lat="45.18883" lon="6.97798">
        <ele>1479</ele>
        <time>2019-07-08T19:16:36Z</time>
      </trkpt>
      <trkpt lat="45.1889" lon="6.97827">
        <ele>1476</ele>
        <time>2019-07-08T19:16:40Z</time>
      </trkpt>
      <trkpt lat="45.18889" lon="6.97838">
        <ele>1474</ele>
        <time>2019-07-08T19:16:42Z</time>
      </trkpt>
      <trkpt lat="45.18868" lon="6.97885">
        <ele>1464</ele>
        <time>2019-07-08T19:16:49Z</time>
      </trkpt>
      <trkpt lat="45.18865" lon="6.9789">
        <ele>1463</ele>
        <time>2019-07-08T19:16:50Z</time>
      </trkpt>
      <trkpt lat="45.18859" lon="6.97893">
        <ele>1462</ele>
        <time>2019-07-08T19:16:51Z</time>
      </trkpt>
      <trkpt lat="45.18775" lon="6.97857">
        <ele>1457</ele>
        <time>2019-07-08T19:17:06Z</time>
      </trkpt>
      <trkpt lat="45.18763" lon="6.97844">
        <ele>1457</ele>
        <time>2019-07-08T19:17:09Z</time>
      </trkpt>
      <trkpt lat="45.1873" lon="6.97794">
        <ele>1466</ele>
        <time>2019-07-08T19:17:18Z</time>
      </trkpt>
      <trkpt lat="45.18725" lon="6.9779">
        <ele>1467</ele>
        <time>2019-07-08T19:17:19Z</time>
      </trkpt>
      <trkpt lat="45.18719" lon="6.97788">
        <ele>1467</ele>
        <time>2019-07-08T19:17:20Z</time>
      </trkpt>
      <trkpt lat="45.18709" lon="6.97788">
        <ele>1467</ele>
        <time>2019-07-08T19:17:21Z</time>
      </trkpt>
      <trkpt lat="45.18702" lon="6.97791">
        <ele>1466</ele>
        <time>2019-07-08T19:17:23Z</time>
      </trkpt>
      <trkpt lat="45.18696" lon="6.97797">
        <ele>1464</ele>
        <time>2019-07-08T19:17:24Z</time>
      </trkpt>
      <trkpt lat="45.1869" lon="6.97807">
        <ele>1462</ele>
        <time>2019-07-08T19:17:26Z</time>
      </trkpt>
      <trkpt lat="45.1867" lon="6.97861">
        <ele>1451</ele>
        <time>2019-07-08T19:17:33Z</time>
      </trkpt>
      <trkpt lat="45.18649" lon="6.97917">
        <ele>1447</ele>
        <time>2019-07-08T19:17:41Z</time>
      </trkpt>
      <trkpt lat="45.18621" lon="6.98005">
        <ele>1439</ele>
        <time>2019-07-08T19:17:53Z</time>
      </trkpt>
      <trkpt lat="45.18615" lon="6.98016">
        <ele>1438</ele>
        <time>2019-07-08T19:17:55Z</time>
      </trkpt>
      <trkpt lat="45.18599" lon="6.98038">
        <ele>1437</ele>
        <time>2019-07-08T19:17:59Z</time>
      </trkpt>
      <trkpt lat="45.18554" lon="6.98077">
        <ele>1442</ele>
        <time>2019-07-08T19:18:08Z</time>
      </trkpt>
      <trkpt lat="45.18542" lon="6.98093">
        <ele>1443</ele>
        <time>2019-07-08T19:18:11Z</time>
      </trkpt>
      <trkpt lat="45.18534" lon="6.98112">
        <ele>1442</ele>
        <time>2019-07-08T19:18:14Z</time>
      </trkpt>
      <trkpt lat="45.18508" lon="6.98221">
        <ele>1429</ele>
        <time>2019-07-08T19:18:29Z</time>
      </trkpt>
      <trkpt lat="45.18503" lon="6.9826">
        <ele>1424</ele>
        <time>2019-07-08T19:18:34Z</time>
      </trkpt>
      <trkpt lat="45.18499" lon="6.98373">
        <ele>1412</ele>
        <time>2019-07-08T19:18:48Z</time>
      </trkpt>
      <trkpt lat="45.18496" lon="6.98391">
        <ele>1411</ele>
        <time>2019-07-08T19:18:50Z</time>
      </trkpt>
      <trkpt lat="45.1849" lon="6.9841">
        <ele>1411</ele>
        <time>2019-07-08T19:18:53Z</time>
      </trkpt>
      <trkpt lat="45.18472" lon="6.98456">
        <ele>1411</ele>
        <time>2019-07-08T19:18:59Z</time>
      </trkpt>
      <trkpt lat="45.18469" lon="6.98469">
        <ele>1411</ele>
        <time>2019-07-08T19:19:01Z</time>
      </trkpt>
      <trkpt lat="45.18468" lon="6.98521">
        <ele>1405</ele>
        <time>2019-07-08T19:19:08Z</time>
      </trkpt>
      <trkpt lat="45.18463" lon="6.98558">
        <ele>1402</ele>
        <time>2019-07-08T19:19:12Z</time>
      </trkpt>
      <trkpt lat="45.18458" lon="6.98576">
        <ele>1402</ele>
        <time>2019-07-08T19:19:15Z</time>
      </trkpt>
      <trkpt lat="45.18446" lon="6.98606">
        <ele>1400</ele>
        <time>2019-07-08T19:19:19Z</time>
      </trkpt>
      <trkpt lat="45.18381" lon="6.98743">
        <ele>1389</ele>
        <time>2019-07-08T19:19:40Z</time>
      </trkpt>
      <trkpt lat="45.18373" lon="6.98755">
        <ele>1387</ele>
        <time>2019-07-08T19:19:42Z</time>
      </trkpt>
      <trkpt lat="45.18365" lon="6.98762">
        <ele>1387</ele>
        <time>2019-07-08T19:19:43Z</time>
      </trkpt>
      <trkpt lat="45.18358" lon="6.98764">
        <ele>1389</ele>
        <time>2019-07-08T19:19:45Z</time>
      </trkpt>
      <trkpt lat="45.18326" lon="6.98761">
        <ele>1399</ele>
        <time>2019-07-08T19:19:50Z</time>
      </trkpt>
      <trkpt lat="45.18316" lon="6.98765">
        <ele>1402</ele>
        <time>2019-07-08T19:19:52Z</time>
      </trkpt>
      <trkpt lat="45.18306" lon="6.98778">
        <ele>1403</ele>
        <time>2019-07-08T19:19:55Z</time>
      </trkpt>
      <trkpt lat="45.18302" lon="6.98793">
        <ele>1401</ele>
        <time>2019-07-08T19:19:57Z</time>
      </trkpt>
      <trkpt lat="45.18303" lon="6.98816">
        <ele>1395</ele>
        <time>2019-07-08T19:20:00Z</time>
      </trkpt>
      <trkpt lat="45.18319" lon="6.98878">
        <ele>1377</ele>
        <time>2019-07-08T19:20:08Z</time>
      </trkpt>
      <trkpt lat="45.18319" lon="6.989">
        <ele>1374</ele>
        <time>2019-07-08T19:20:11Z</time>
      </trkpt>
      <trkpt lat="45.18312" lon="6.9893">
        <ele>1373</ele>
        <time>2019-07-08T19:20:15Z</time>
      </trkpt>
      <trkpt lat="45.18201" lon="6.99173">
        <ele>1358</ele>
        <time>2019-07-08T19:20:51Z</time>
      </trkpt>
      <trkpt lat="45.1819" lon="6.99199">
        <ele>1357</ele>
        <time>2019-07-08T19:20:55Z</time>
      </trkpt>
      <trkpt lat="45.18173" lon="6.99251">
        <ele>1352</ele>
        <time>2019-07-08T19:21:02Z</time>
      </trkpt>
      <trkpt lat="45.18148" lon="6.99356">
        <ele>1342</ele>
        <time>2019-07-08T19:21:16Z</time>
      </trkpt>
      <trkpt lat="45.18134" lon="6.9941">
        <ele>1335</ele>
        <time>2019-07-08T19:21:23Z</time>
      </trkpt>
      <trkpt lat="45.18124" lon="6.99438">
        <ele>1332</ele>
        <time>2019-07-08T19:21:27Z</time>
      </trkpt>
      <trkpt lat="45.18102" lon="6.99491">
        <ele>1326</ele>
        <time>2019-07-08T19:21:35Z</time>
      </trkpt>
      <trkpt lat="45.18089" lon="6.99518">
        <ele>1323</ele>
        <time>2019-07-08T19:21:39Z</time>
      </trkpt>
      <trkpt lat="45.18065" lon="6.99561">
        <ele>1314</ele>
        <time>2019-07-08T19:21:46Z</time>
      </trkpt>
      <trkpt lat="45.18057" lon="6.99573">
        <ele>1310</ele>
        <time>2019-07-08T19:21:48Z</time>
      </trkpt>
      <trkpt lat="45.1805" lon="6.99579">
        <ele>1309</ele>
        <time>2019-07-08T19:21:49Z</time>
      </trkpt>
      <trkpt lat="45.18026" lon="6.99584">
        <ele>1307</ele>
        <time>2019-07-08T19:21:54Z</time>
      </trkpt>
      <trkpt lat="45.17984" lon="6.99576">
        <ele>1309</ele>
        <time>2019-07-08T19:22:01Z</time>
      </trkpt>
      <trkpt lat="45.17973" lon="6.9957">
        <ele>1310</ele>
        <time>2019-07-08T19:22:03Z</time>
      </trkpt>
      <trkpt lat="45.17948" lon="6.99544">
        <ele>1318</ele>
        <time>2019-07-08T19:22:09Z</time>
      </trkpt>
      <trkpt lat="45.17931" lon="6.99532">
        <ele>1322</ele>
        <time>2019-07-08T19:22:12Z</time>
      </trkpt>
      <trkpt lat="45.17911" lon="6.99529">
        <ele>1323</ele>
        <time>2019-07-08T19:22:16Z</time>
      </trkpt>
      <trkpt lat="45.17888" lon="6.99532">
        <ele>1324</ele>
        <time>2019-07-08T19:22:20Z</time>
      </trkpt>
      <trkpt lat="45.17875" lon="6.99536">
        <ele>1323</ele>
        <time>2019-07-08T19:22:22Z</time>
      </trkpt>
      <trkpt lat="45.17839" lon="6.99572">
        <ele>1311</ele>
        <time>2019-07-08T19:22:30Z</time>
      </trkpt>
      <trkpt lat="45.17814" lon="6.99592">
        <ele>1306</ele>
        <time>2019-07-08T19:22:35Z</time>
      </trkpt>
      <trkpt lat="45.1777" lon="6.99616">
        <ele>1301</ele>
        <time>2019-07-08T19:22:43Z</time>
      </trkpt>
      <trkpt lat="45.17715" lon="6.9964">
        <ele>1295</ele>
        <time>2019-07-08T19:22:54Z</time>
      </trkpt>
      <trkpt lat="45.17641" lon="6.99686">
        <ele>1285</ele>
        <time>2019-07-08T19:23:08Z</time>
      </trkpt>
      <trkpt lat="45.17628" lon="6.99698">
        <ele>1283</ele>
        <time>2019-07-08T19:23:11Z</time>
      </trkpt>
      <trkpt lat="45.17617" lon="6.99713">
        <ele>1281</ele>
        <time>2019-07-08T19:23:14Z</time>
      </trkpt>
      <trkpt lat="45.17587" lon="6.99765">
        <ele>1270</ele>
        <time>2019-07-08T19:23:22Z</time>
      </trkpt>
      <trkpt lat="45.17581" lon="6.99771">
        <ele>1269</ele>
        <time>2019-07-08T19:23:23Z</time>
      </trkpt>
      <trkpt lat="45.17566" lon="6.99776">
        <ele>1269</ele>
        <time>2019-07-08T19:23:26Z</time>
      </trkpt>
      <trkpt lat="45.1754" lon="6.99775">
        <ele>1272</ele>
        <time>2019-07-08T19:23:31Z</time>
      </trkpt>
      <trkpt lat="45.17526" lon="6.9978">
        <ele>1272</ele>
        <time>2019-07-08T19:23:33Z</time>
      </trkpt>
      <trkpt lat="45.17517" lon="6.99788">
        <ele>1270</ele>
        <time>2019-07-08T19:23:35Z</time>
      </trkpt>
      <trkpt lat="45.17417" lon="6.99916">
        <ele>1256</ele>
        <time>2019-07-08T19:23:59Z</time>
      </trkpt>
      <trkpt lat="45.1739" lon="6.99968">
        <ele>1247</ele>
        <time>2019-07-08T19:24:07Z</time>
      </trkpt>
      <trkpt lat="45.1738" lon="6.9998">
        <ele>1245</ele>
        <time>2019-07-08T19:24:09Z</time>
      </trkpt>
      <trkpt lat="45.17369" lon="6.99989">
        <ele>1244</ele>
        <time>2019-07-08T19:24:12Z</time>
      </trkpt>
      <trkpt lat="45.17333" lon="7.00012">
        <ele>1245</ele>
        <time>2019-07-08T19:24:19Z</time>
      </trkpt>
      <trkpt lat="45.17239" lon="7.00057">
        <ele>1238</ele>
        <time>2019-07-08T19:24:36Z</time>
      </trkpt>
      <trkpt lat="45.17163" lon="7.00091">
        <ele>1236</ele>
        <time>2019-07-08T19:24:51Z</time>
      </trkpt>
      <trkpt lat="45.1716" lon="7.00095">
        <ele>1235</ele>
        <time>2019-07-08T19:24:51Z</time>
      </trkpt>
      <trkpt lat="45.17159" lon="7.00101">
        <ele>1233</ele>
        <time>2019-07-08T19:24:52Z</time>
      </trkpt>
      <trkpt lat="45.1716" lon="7.00106">
        <ele>1231</ele>
        <time>2019-07-08T19:24:53Z</time>
      </trkpt>
      <trkpt lat="45.17163" lon="7.0011">
        <ele>1229</ele>
        <time>2019-07-08T19:24:54Z</time>
      </trkpt>
      <trkpt lat="45.17173" lon="7.00111">
        <ele>1228</ele>
        <time>2019-07-08T19:24:55Z</time>
      </trkpt>
      <trkpt lat="45.17213" lon="7.00105">
        <ele>1227</ele>
        <time>2019-07-08T19:25:02Z</time>
      </trkpt>
      <trkpt lat="45.17235" lon="7.00105">
        <ele>1225</ele>
        <time>2019-07-08T19:25:06Z</time>
      </trkpt>
      <trkpt lat="45.17259" lon="7.00113">
        <ele>1221</ele>
        <time>2019-07-08T19:25:11Z</time>
      </trkpt>
      <trkpt lat="45.17311" lon="7.00135">
        <ele>1214</ele>
        <time>2019-07-08T19:25:20Z</time>
      </trkpt>
      <trkpt lat="45.1732" lon="7.00138">
        <ele>1213</ele>
        <time>2019-07-08T19:25:22Z</time>
      </trkpt>
      <trkpt lat="45.17334" lon="7.00138">
        <ele>1213</ele>
        <time>2019-07-08T19:25:25Z</time>
      </trkpt>
      <trkpt lat="45.17369" lon="7.00125">
        <ele>1208</ele>
        <time>2019-07-08T19:25:31Z</time>
      </trkpt>
      <trkpt lat="45.17393" lon="7.00113">
        <ele>1206</ele>
        <time>2019-07-08T19:25:35Z</time>
      </trkpt>
      <trkpt lat="45.17403" lon="7.00105">
        <ele>1205</ele>
        <time>2019-07-08T19:25:38Z</time>
      </trkpt>
      <trkpt lat="45.17412" lon="7.00096">
        <ele>1205</ele>
        <time>2019-07-08T19:25:40Z</time>
      </trkpt>
      <trkpt lat="45.17444" lon="7.00055">
        <ele>1209</ele>
        <time>2019-07-08T19:25:47Z</time>
      </trkpt>
      <trkpt lat="45.17461" lon="7.00038">
        <ele>1210</ele>
        <time>2019-07-08T19:25:51Z</time>
      </trkpt>
      <trkpt lat="45.17477" lon="7.00026">
        <ele>1210</ele>
        <time>2019-07-08T19:25:54Z</time>
      </trkpt>
      <trkpt lat="45.17493" lon="7.00018">
        <ele>1208</ele>
        <time>2019-07-08T19:25:57Z</time>
      </trkpt>
      <trkpt lat="45.17498" lon="7.00018">
        <ele>1207</ele>
        <time>2019-07-08T19:25:58Z</time>
      </trkpt>
      <trkpt lat="45.17507" lon="7.00023">
        <ele>1205</ele>
        <time>2019-07-08T19:26:00Z</time>
      </trkpt>
      <trkpt lat="45.17509" lon="7.00033">
        <ele>1202</ele>
        <time>2019-07-08T19:26:01Z</time>
      </trkpt>
      <trkpt lat="45.17509" lon="7.00038">
        <ele>1201</ele>
        <time>2019-07-08T19:26:02Z</time>
      </trkpt>
      <trkpt lat="45.17504" lon="7.00047">
        <ele>1199</ele>
        <time>2019-07-08T19:26:03Z</time>
      </trkpt>
      <trkpt lat="45.17462" lon="7.00085">
        <ele>1196</ele>
        <time>2019-07-08T19:26:12Z</time>
      </trkpt>
      <trkpt lat="45.17445" lon="7.00108">
        <ele>1196</ele>
        <time>2019-07-08T19:26:16Z</time>
      </trkpt>
      <trkpt lat="45.1744" lon="7.00119">
        <ele>1195</ele>
        <time>2019-07-08T19:26:18Z</time>
      </trkpt>
      <trkpt lat="45.17422" lon="7.00179">
        <ele>1187</ele>
        <time>2019-07-08T19:26:26Z</time>
      </trkpt>
      <trkpt lat="45.17412" lon="7.00201">
        <ele>1183</ele>
        <time>2019-07-08T19:26:29Z</time>
      </trkpt>
      <trkpt lat="45.17345" lon="7.0031">
        <ele>1170</ele>
        <time>2019-07-08T19:26:47Z</time>
      </trkpt>
      <trkpt lat="45.17337" lon="7.0032">
        <ele>1169</ele>
        <time>2019-07-08T19:26:49Z</time>
      </trkpt>
      <trkpt lat="45.17322" lon="7.00332">
        <ele>1166</ele>
        <time>2019-07-08T19:26:52Z</time>
      </trkpt>
      <trkpt lat="45.17313" lon="7.00335">
        <ele>1163</ele>
        <time>2019-07-08T19:26:54Z</time>
      </trkpt>
      <trkpt lat="45.17297" lon="7.00336">
        <ele>1160</ele>
        <time>2019-07-08T19:26:57Z</time>
      </trkpt>
      <trkpt lat="45.17138" lon="7.0026">
        <ele>1154</ele>
        <time>2019-07-08T19:27:27Z</time>
      </trkpt>
      <trkpt lat="45.17113" lon="7.00243">
        <ele>1153</ele>
        <time>2019-07-08T19:27:32Z</time>
      </trkpt>
      <trkpt lat="45.17101" lon="7.00238">
        <ele>1152</ele>
        <time>2019-07-08T19:27:34Z</time>
      </trkpt>
      <trkpt lat="45.17084" lon="7.00237">
        <ele>1146</ele>
        <time>2019-07-08T19:27:37Z</time>
      </trkpt>
      <trkpt lat="45.17074" lon="7.00231">
        <ele>1145</ele>
        <time>2019-07-08T19:27:39Z</time>
      </trkpt>
      <trkpt lat="45.17067" lon="7.00224">
        <ele>1147</ele>
        <time>2019-07-08T19:27:40Z</time>
      </trkpt>
      <trkpt lat="45.1704" lon="7.00181">
        <ele>1159</ele>
        <time>2019-07-08T19:27:48Z</time>
      </trkpt>
      <trkpt lat="45.17031" lon="7.0017">
        <ele>1160</ele>
        <time>2019-07-08T19:27:50Z</time>
      </trkpt>
      <trkpt lat="45.17021" lon="7.00162">
        <ele>1160</ele>
        <time>2019-07-08T19:27:52Z</time>
      </trkpt>
      <trkpt lat="45.16993" lon="7.00146">
        <ele>1160</ele>
        <time>2019-07-08T19:27:57Z</time>
      </trkpt>
      <trkpt lat="45.16727" lon="7.00036">
        <ele>1115</ele>
        <time>2019-07-08T19:28:46Z</time>
      </trkpt>
      <trkpt lat="45.16708" lon="7.00023">
        <ele>1112</ele>
        <time>2019-07-08T19:28:50Z</time>
      </trkpt>
      <trkpt lat="45.1663" lon="6.99948">
        <ele>1114</ele>
        <time>2019-07-08T19:29:07Z</time>
      </trkpt>
      <trkpt lat="45.16611" lon="6.99932">
        <ele>1114</ele>
        <time>2019-07-08T19:29:11Z</time>
      </trkpt>
      <trkpt lat="45.16597" lon="6.99925">
        <ele>1113</ele>
        <time>2019-07-08T19:29:13Z</time>
      </trkpt>
      <trkpt lat="45.16585" lon="6.99925">
        <ele>1108</ele>
        <time>2019-07-08T19:29:16Z</time>
      </trkpt>
      <trkpt lat="45.16577" lon="6.99927">
        <ele>1107</ele>
        <time>2019-07-08T19:29:17Z</time>
      </trkpt>
      <trkpt lat="45.16546" lon="6.99946">
        <ele>1099</ele>
        <time>2019-07-08T19:29:23Z</time>
      </trkpt>
      <trkpt lat="45.16536" lon="6.99947">
        <ele>1098</ele>
        <time>2019-07-08T19:29:25Z</time>
      </trkpt>
      <trkpt lat="45.16502" lon="6.99938">
        <ele>1100</ele>
        <time>2019-07-08T19:29:31Z</time>
      </trkpt>
      <trkpt lat="45.16459" lon="6.99939">
        <ele>1093</ele>
        <time>2019-07-08T19:29:39Z</time>
      </trkpt>
      <trkpt lat="45.16447" lon="6.99932">
        <ele>1093</ele>
        <time>2019-07-08T19:29:41Z</time>
      </trkpt>
      <trkpt lat="45.16327" lon="6.99838">
        <ele>1092</ele>
        <time>2019-07-08T19:30:05Z</time>
      </trkpt>
      <trkpt lat="45.16298" lon="6.99824">
        <ele>1094</ele>
        <time>2019-07-08T19:30:11Z</time>
      </trkpt>
      <trkpt lat="45.1624" lon="6.99802">
        <ele>1094</ele>
        <time>2019-07-08T19:30:21Z</time>
      </trkpt>
      <trkpt lat="45.16201" lon="6.99768">
        <ele>1100</ele>
        <time>2019-07-08T19:30:30Z</time>
      </trkpt>
      <trkpt lat="45.16177" lon="6.99753">
        <ele>1102</ele>
        <time>2019-07-08T19:30:34Z</time>
      </trkpt>
      <trkpt lat="45.16157" lon="6.99749">
        <ele>1101</ele>
        <time>2019-07-08T19:30:38Z</time>
      </trkpt>
      <trkpt lat="45.16116" lon="6.99748">
        <ele>1094</ele>
        <time>2019-07-08T19:30:45Z</time>
      </trkpt>
      <trkpt lat="45.16102" lon="6.99744">
        <ele>1093</ele>
        <time>2019-07-08T19:30:48Z</time>
      </trkpt>
      <trkpt lat="45.16084" lon="6.99729">
        <ele>1095</ele>
        <time>2019-07-08T19:30:51Z</time>
      </trkpt>
      <trkpt lat="45.16052" lon="6.99693">
        <ele>1102</ele>
        <time>2019-07-08T19:30:59Z</time>
      </trkpt>
      <trkpt lat="45.16032" lon="6.99676">
        <ele>1105</ele>
        <time>2019-07-08T19:31:03Z</time>
      </trkpt>
      <trkpt lat="45.16022" lon="6.99674">
        <ele>1104</ele>
        <time>2019-07-08T19:31:05Z</time>
      </trkpt>
      <trkpt lat="45.16017" lon="6.99675">
        <ele>1102</ele>
        <time>2019-07-08T19:31:06Z</time>
      </trkpt>
      <trkpt lat="45.15991" lon="6.99691">
        <ele>1091</ele>
        <time>2019-07-08T19:31:11Z</time>
      </trkpt>
      <trkpt lat="45.15963" lon="6.99698">
        <ele>1083</ele>
        <time>2019-07-08T19:31:16Z</time>
      </trkpt>
      <trkpt lat="45.15948" lon="6.99698">
        <ele>1081</ele>
        <time>2019-07-08T19:31:18Z</time>
      </trkpt>
      <trkpt lat="45.15942" lon="6.99696">
        <ele>1080</ele>
        <time>2019-07-08T19:31:19Z</time>
      </trkpt>
      <trkpt lat="45.15933" lon="6.99687">
        <ele>1084</ele>
        <time>2019-07-08T19:31:21Z</time>
      </trkpt>
      <trkpt lat="45.15914" lon="6.99655">
        <ele>1096</ele>
        <time>2019-07-08T19:31:27Z</time>
      </trkpt>
      <trkpt lat="45.15901" lon="6.9964">
        <ele>1099</ele>
        <time>2019-07-08T19:31:30Z</time>
      </trkpt>
      <trkpt lat="45.15894" lon="6.99637">
        <ele>1099</ele>
        <time>2019-07-08T19:31:31Z</time>
      </trkpt>
      <trkpt lat="45.15887" lon="6.99636">
        <ele>1097</ele>
        <time>2019-07-08T19:31:32Z</time>
      </trkpt>
      <trkpt lat="45.15865" lon="6.99642">
        <ele>1089</ele>
        <time>2019-07-08T19:31:36Z</time>
      </trkpt>
      <trkpt lat="45.15851" lon="6.99637">
        <ele>1087</ele>
        <time>2019-07-08T19:31:39Z</time>
      </trkpt>
      <trkpt lat="45.15797" lon="6.99603">
        <ele>1089</ele>
        <time>2019-07-08T19:31:49Z</time>
      </trkpt>
      <trkpt lat="45.15777" lon="6.99586">
        <ele>1093</ele>
        <time>2019-07-08T19:31:53Z</time>
      </trkpt>
      <trkpt lat="45.15768" lon="6.99582">
        <ele>1093</ele>
        <time>2019-07-08T19:31:55Z</time>
      </trkpt>
      <trkpt lat="45.15757" lon="6.99581">
        <ele>1091</ele>
        <time>2019-07-08T19:31:57Z</time>
      </trkpt>
      <trkpt lat="45.15729" lon="6.99586">
        <ele>1077</ele>
        <time>2019-07-08T19:32:02Z</time>
      </trkpt>
      <trkpt lat="45.15722" lon="6.99585">
        <ele>1075</ele>
        <time>2019-07-08T19:32:03Z</time>
      </trkpt>
      <trkpt lat="45.1571" lon="6.99578">
        <ele>1073</ele>
        <time>2019-07-08T19:32:06Z</time>
      </trkpt>
      <trkpt lat="45.15635" lon="6.99493">
        <ele>1079</ele>
        <time>2019-07-08T19:32:23Z</time>
      </trkpt>
      <trkpt lat="45.15622" lon="6.99474">
        <ele>1080</ele>
        <time>2019-07-08T19:32:26Z</time>
      </trkpt>
      <trkpt lat="45.15604" lon="6.9944">
        <ele>1086</ele>
        <time>2019-07-08T19:32:31Z</time>
      </trkpt>
      <trkpt lat="45.15599" lon="6.99433">
        <ele>1086</ele>
        <time>2019-07-08T19:32:33Z</time>
      </trkpt>
      <trkpt lat="45.15581" lon="6.99423">
        <ele>1082</ele>
        <time>2019-07-08T19:32:36Z</time>
      </trkpt>
      <trkpt lat="45.1557" lon="6.99421">
        <ele>1079</ele>
        <time>2019-07-08T19:32:38Z</time>
      </trkpt>
      <trkpt lat="45.15549" lon="6.99412">
        <ele>1076</ele>
        <time>2019-07-08T19:32:42Z</time>
      </trkpt>
      <trkpt lat="45.15526" lon="6.99396">
        <ele>1074</ele>
        <time>2019-07-08T19:32:46Z</time>
      </trkpt>
      <trkpt lat="45.15481" lon="6.99342">
        <ele>1083</ele>
        <time>2019-07-08T19:32:57Z</time>
      </trkpt>
      <trkpt lat="45.15472" lon="6.99333">
        <ele>1086</ele>
        <time>2019-07-08T19:32:59Z</time>
      </trkpt>
      <trkpt lat="45.15453" lon="6.99327">
        <ele>1088</ele>
        <time>2019-07-08T19:33:02Z</time>
      </trkpt>
      <trkpt lat="45.15437" lon="6.99329">
        <ele>1087</ele>
        <time>2019-07-08T19:33:05Z</time>
      </trkpt>
      <trkpt lat="45.15429" lon="6.99332">
        <ele>1085</ele>
        <time>2019-07-08T19:33:07Z</time>
      </trkpt>
      <trkpt lat="45.15421" lon="6.99338">
        <ele>1083</ele>
        <time>2019-07-08T19:33:08Z</time>
      </trkpt>
      <trkpt lat="45.15414" lon="6.99348">
        <ele>1081</ele>
        <time>2019-07-08T19:33:10Z</time>
      </trkpt>
      <trkpt lat="45.15405" lon="6.99364">
        <ele>1080</ele>
        <time>2019-07-08T19:33:13Z</time>
      </trkpt>
      <trkpt lat="45.15393" lon="6.994">
        <ele>1076</ele>
        <time>2019-07-08T19:33:18Z</time>
      </trkpt>
      <trkpt lat="45.15388" lon="6.9941">
        <ele>1076</ele>
        <time>2019-07-08T19:33:19Z</time>
      </trkpt>
      <trkpt lat="45.15373" lon="6.99431">
        <ele>1079</ele>
        <time>2019-07-08T19:33:23Z</time>
      </trkpt>
      <trkpt lat="45.15368" lon="6.99443">
        <ele>1079</ele>
        <time>2019-07-08T19:33:25Z</time>
      </trkpt>
      <trkpt lat="45.15361" lon="6.99512">
        <ele>1065</ele>
        <time>2019-07-08T19:33:33Z</time>
      </trkpt>
      <trkpt lat="45.15344" lon="6.99561">
        <ele>1064</ele>
        <time>2019-07-08T19:33:40Z</time>
      </trkpt>
      <trkpt lat="45.15313" lon="6.99615">
        <ele>1064</ele>
        <time>2019-07-08T19:33:49Z</time>
      </trkpt>
      <trkpt lat="45.15289" lon="6.99645">
        <ele>1064</ele>
        <time>2019-07-08T19:33:55Z</time>
      </trkpt>
      <trkpt lat="45.15271" lon="6.99684">
        <ele>1057</ele>
        <time>2019-07-08T19:34:01Z</time>
      </trkpt>
      <trkpt lat="45.15232" lon="6.9974">
        <ele>1057</ele>
        <time>2019-07-08T19:34:10Z</time>
      </trkpt>
      <trkpt lat="45.1522" lon="6.99767">
        <ele>1055</ele>
        <time>2019-07-08T19:34:14Z</time>
      </trkpt>
      <trkpt lat="45.15205" lon="6.99821">
        <ele>1047</ele>
        <time>2019-07-08T19:34:22Z</time>
      </trkpt>
      <trkpt lat="45.15199" lon="6.99831">
        <ele>1046</ele>
        <time>2019-07-08T19:34:23Z</time>
      </trkpt>
      <trkpt lat="45.15137" lon="6.99888">
        <ele>1042</ele>
        <time>2019-07-08T19:34:37Z</time>
      </trkpt>
      <trkpt lat="45.15105" lon="6.99915">
        <ele>1037</ele>
        <time>2019-07-08T19:34:43Z</time>
      </trkpt>
      <trkpt lat="45.15092" lon="6.99923">
        <ele>1036</ele>
        <time>2019-07-08T19:34:46Z</time>
      </trkpt>
      <trkpt lat="45.15054" lon="6.99931">
        <ele>1039</ele>
        <time>2019-07-08T19:34:53Z</time>
      </trkpt>
      <trkpt lat="45.15034" lon="6.99938">
        <ele>1039</ele>
        <time>2019-07-08T19:34:56Z</time>
      </trkpt>
      <trkpt lat="45.14972" lon="6.99989">
        <ele>1024</ele>
        <time>2019-07-08T19:35:09Z</time>
      </trkpt>
      <trkpt lat="45.1496" lon="6.99997">
        <ele>1022</ele>
        <time>2019-07-08T19:35:11Z</time>
      </trkpt>
      <trkpt lat="45.14952" lon="7">
        <ele>1022</ele>
        <time>2019-07-08T19:35:13Z</time>
      </trkpt>
      <trkpt lat="45.14919" lon="7.00006">
        <ele>1023</ele>
        <time>2019-07-08T19:35:19Z</time>
      </trkpt>
      <trkpt lat="45.14902" lon="7.0002">
        <ele>1021</ele>
        <time>2019-07-08T19:35:22Z</time>
      </trkpt>
      <trkpt lat="45.14881" lon="7.00046">
        <ele>1015</ele>
        <time>2019-07-08T19:35:27Z</time>
      </trkpt>
      <trkpt lat="45.14855" lon="7.00072">
        <ele>1010</ele>
        <time>2019-07-08T19:35:33Z</time>
      </trkpt>
      <trkpt lat="45.14843" lon="7.00079">
        <ele>1009</ele>
        <time>2019-07-08T19:35:35Z</time>
      </trkpt>
      <trkpt lat="45.14799" lon="7.00088">
        <ele>1012</ele>
        <time>2019-07-08T19:35:43Z</time>
      </trkpt>
      <trkpt lat="45.14769" lon="7.00103">
        <ele>1010</ele>
        <time>2019-07-08T19:35:49Z</time>
      </trkpt>
      <trkpt lat="45.14655" lon="7.00192">
        <ele>993</ele>
        <time>2019-07-08T19:36:12Z</time>
      </trkpt>
      <trkpt lat="45.14628" lon="7.00215">
        <ele>990</ele>
        <time>2019-07-08T19:36:17Z</time>
      </trkpt>
      <trkpt lat="45.14608" lon="7.00237">
        <ele>985</ele>
        <time>2019-07-08T19:36:22Z</time>
      </trkpt>
      <trkpt lat="45.14586" lon="7.00254">
        <ele>983</ele>
        <time>2019-07-08T19:36:26Z</time>
      </trkpt>
      <trkpt lat="45.14543" lon="7.00271">
        <ele>980</ele>
        <time>2019-07-08T19:36:34Z</time>
      </trkpt>
      <trkpt lat="45.14531" lon="7.00279">
        <ele>979</ele>
        <time>2019-07-08T19:36:37Z</time>
      </trkpt>
      <trkpt lat="45.14464" lon="7.00348">
        <ele>963</ele>
        <time>2019-07-08T19:36:51Z</time>
      </trkpt>
      <trkpt lat="45.14438" lon="7.00365">
        <ele>960</ele>
        <time>2019-07-08T19:36:57Z</time>
      </trkpt>
      <trkpt lat="45.14425" lon="7.00371">
        <ele>959</ele>
        <time>2019-07-08T19:36:59Z</time>
      </trkpt>
      <trkpt lat="45.14405" lon="7.00373">
        <ele>957</ele>
        <time>2019-07-08T19:37:03Z</time>
      </trkpt>
      <trkpt lat="45.14385" lon="7.00369">
        <ele>955</ele>
        <time>2019-07-08T19:37:06Z</time>
      </trkpt>
      <trkpt lat="45.14305" lon="7.00322">
        <ele>954</ele>
        <time>2019-07-08T19:37:22Z</time>
      </trkpt>
      <trkpt lat="45.14283" lon="7.00316">
        <ele>951</ele>
        <time>2019-07-08T19:37:26Z</time>
      </trkpt>
      <trkpt lat="45.14239" lon="7.00311">
        <ele>943</ele>
        <time>2019-07-08T19:37:33Z</time>
      </trkpt>
      <trkpt lat="45.14214" lon="7.00291">
        <ele>942</ele>
        <time>2019-07-08T19:37:38Z</time>
      </trkpt>
      <trkpt lat="45.14166" lon="7.00247">
        <ele>938</ele>
        <time>2019-07-08T19:37:49Z</time>
      </trkpt>
      <trkpt lat="45.14157" lon="7.00246">
        <ele>937</ele>
        <time>2019-07-08T19:37:50Z</time>
      </trkpt>
      <trkpt lat="45.14154" lon="7.00249">
        <ele>935</ele>
        <time>2019-07-08T19:37:51Z</time>
      </trkpt>
      <trkpt lat="45.14153" lon="7.00256">
        <ele>934</ele>
        <time>2019-07-08T19:37:52Z</time>
      </trkpt>
      <trkpt lat="45.14154" lon="7.00262">
        <ele>933</ele>
        <time>2019-07-08T19:37:53Z</time>
      </trkpt>
      <trkpt lat="45.14157" lon="7.00269">
        <ele>932</ele>
        <time>2019-07-08T19:37:54Z</time>
      </trkpt>
      <trkpt lat="45.1422" lon="7.0035">
        <ele>930</ele>
        <time>2019-07-08T19:38:09Z</time>
      </trkpt>
      <trkpt lat="45.14245" lon="7.00384">
        <ele>926</ele>
        <time>2019-07-08T19:38:15Z</time>
      </trkpt>
      <trkpt lat="45.14252" lon="7.00397">
        <ele>924</ele>
        <time>2019-07-08T19:38:17Z</time>
      </trkpt>
      <trkpt lat="45.14257" lon="7.00412">
        <ele>922</ele>
        <time>2019-07-08T19:38:19Z</time>
      </trkpt>
      <trkpt lat="45.1428" lon="7.00517">
        <ele>911</ele>
        <time>2019-07-08T19:38:33Z</time>
      </trkpt>
      <trkpt lat="45.14287" lon="7.00534">
        <ele>909</ele>
        <time>2019-07-08T19:38:35Z</time>
      </trkpt>
      <trkpt lat="45.14295" lon="7.00548">
        <ele>908</ele>
        <time>2019-07-08T19:38:38Z</time>
      </trkpt>
      <trkpt lat="45.14305" lon="7.0056">
        <ele>907</ele>
        <time>2019-07-08T19:38:40Z</time>
      </trkpt>
      <trkpt lat="45.14318" lon="7.00571">
        <ele>908</ele>
        <time>2019-07-08T19:38:43Z</time>
      </trkpt>
      <trkpt lat="45.14399" lon="7.00624">
        <ele>903</ele>
        <time>2019-07-08T19:38:58Z</time>
      </trkpt>
      <trkpt lat="45.14416" lon="7.00642">
        <ele>901</ele>
        <time>2019-07-08T19:39:02Z</time>
      </trkpt>
      <trkpt lat="45.14449" lon="7.00687">
        <ele>898</ele>
        <time>2019-07-08T19:39:10Z</time>
      </trkpt>
      <trkpt lat="45.1445" lon="7.00698">
        <ele>897</ele>
        <time>2019-07-08T19:39:12Z</time>
      </trkpt>
      <trkpt lat="45.14446" lon="7.00707">
        <ele>894</ele>
        <time>2019-07-08T19:39:13Z</time>
      </trkpt>
      <trkpt lat="45.14443" lon="7.00708">
        <ele>893</ele>
        <time>2019-07-08T19:39:14Z</time>
      </trkpt>
      <trkpt lat="45.14436" lon="7.00703">
        <ele>893</ele>
        <time>2019-07-08T19:39:15Z</time>
      </trkpt>
      <trkpt lat="45.14408" lon="7.00672">
        <ele>893</ele>
        <time>2019-07-08T19:39:21Z</time>
      </trkpt>
      <trkpt lat="45.14397" lon="7.00664">
        <ele>894</ele>
        <time>2019-07-08T19:39:24Z</time>
      </trkpt>
      <trkpt lat="45.14384" lon="7.00663">
        <ele>892</ele>
        <time>2019-07-08T19:39:26Z</time>
      </trkpt>
      <trkpt lat="45.14351" lon="7.00675">
        <ele>886</ele>
        <time>2019-07-08T19:39:32Z</time>
      </trkpt>
      <trkpt lat="45.14333" lon="7.00678">
        <ele>884</ele>
        <time>2019-07-08T19:39:35Z</time>
      </trkpt>
      <trkpt lat="45.14292" lon="7.00679">
        <ele>878</ele>
        <time>2019-07-08T19:39:42Z</time>
      </trkpt>
      <trkpt lat="45.14264" lon="7.00675">
        <ele>875</ele>
        <time>2019-07-08T19:39:47Z</time>
      </trkpt>
      <trkpt lat="45.14249" lon="7.00666">
        <ele>875</ele>
        <time>2019-07-08T19:39:50Z</time>
      </trkpt>
      <trkpt lat="45.14235" lon="7.00648">
        <ele>873</ele>
        <time>2019-07-08T19:39:54Z</time>
      </trkpt>
      <trkpt lat="45.14197" lon="7.00566">
        <ele>877</ele>
        <time>2019-07-08T19:40:06Z</time>
      </trkpt>
      <trkpt lat="45.14191" lon="7.00556">
        <ele>877</ele>
        <time>2019-07-08T19:40:08Z</time>
      </trkpt>
      <trkpt lat="45.14176" lon="7.00545">
        <ele>875</ele>
        <time>2019-07-08T19:40:11Z</time>
      </trkpt>
      <trkpt lat="45.14162" lon="7.00544">
        <ele>871</ele>
        <time>2019-07-08T19:40:13Z</time>
      </trkpt>
      <trkpt lat="45.14136" lon="7.00551">
        <ele>867</ele>
        <time>2019-07-08T19:40:18Z</time>
      </trkpt>
      <trkpt lat="45.14104" lon="7.00555">
        <ele>862</ele>
        <time>2019-07-08T19:40:24Z</time>
      </trkpt>
      <trkpt lat="45.14097" lon="7.00561">
        <ele>860</ele>
        <time>2019-07-08T19:40:25Z</time>
      </trkpt>
      <trkpt lat="45.14095" lon="7.0057">
        <ele>858</ele>
        <time>2019-07-08T19:40:26Z</time>
      </trkpt>
      <trkpt lat="45.14099" lon="7.00578">
        <ele>856</ele>
        <time>2019-07-08T19:40:27Z</time>
      </trkpt>
      <trkpt lat="45.14102" lon="7.00581">
        <ele>856</ele>
        <time>2019-07-08T19:40:28Z</time>
      </trkpt>
      <trkpt lat="45.14132" lon="7.00583">
        <ele>858</ele>
        <time>2019-07-08T19:40:33Z</time>
      </trkpt>
      <trkpt lat="45.1415" lon="7.00587">
        <ele>859</ele>
        <time>2019-07-08T19:40:37Z</time>
      </trkpt>
      <trkpt lat="45.14156" lon="7.00592">
        <ele>859</ele>
        <time>2019-07-08T19:40:38Z</time>
      </trkpt>
      <trkpt lat="45.14167" lon="7.00606">
        <ele>858</ele>
        <time>2019-07-08T19:40:41Z</time>
      </trkpt>
      <trkpt lat="45.14175" lon="7.00626">
        <ele>857</ele>
        <time>2019-07-08T19:40:43Z</time>
      </trkpt>
      <trkpt lat="45.14217" lon="7.00839">
        <ele>832</ele>
        <time>2019-07-08T19:41:11Z</time>
      </trkpt>
      <trkpt lat="45.14221" lon="7.00849">
        <ele>831</ele>
        <time>2019-07-08T19:41:13Z</time>
      </trkpt>
      <trkpt lat="45.14231" lon="7.00867">
        <ele>830</ele>
        <time>2019-07-08T19:41:16Z</time>
      </trkpt>
      <trkpt lat="45.14251" lon="7.00887">
        <ele>831</ele>
        <time>2019-07-08T19:41:20Z</time>
      </trkpt>
      <trkpt lat="45.14263" lon="7.00903">
        <ele>830</ele>
        <time>2019-07-08T19:41:23Z</time>
      </trkpt>
      <trkpt lat="45.14273" lon="7.00926">
        <ele>828</ele>
        <time>2019-07-08T19:41:26Z</time>
      </trkpt>
      <trkpt lat="45.14296" lon="7.01003">
        <ele>823</ele>
        <time>2019-07-08T19:41:37Z</time>
      </trkpt>
      <trkpt lat="45.14347" lon="7.01137">
        <ele>814</ele>
        <time>2019-07-08T19:41:56Z</time>
      </trkpt>
      <trkpt lat="45.1435" lon="7.01159">
        <ele>812</ele>
        <time>2019-07-08T19:41:59Z</time>
      </trkpt>
      <trkpt lat="45.1435" lon="7.01173">
        <ele>811</ele>
        <time>2019-07-08T19:42:00Z</time>
      </trkpt>
      <trkpt lat="45.14346" lon="7.01202">
        <ele>807</ele>
        <time>2019-07-08T19:42:04Z</time>
      </trkpt>
      <trkpt lat="45.14346" lon="7.01225">
        <ele>805</ele>
        <time>2019-07-08T19:42:07Z</time>
      </trkpt>
      <trkpt lat="45.14349" lon="7.0124">
        <ele>804</ele>
        <time>2019-07-08T19:42:09Z</time>
      </trkpt>
      <trkpt lat="45.14352" lon="7.01247">
        <ele>804</ele>
        <time>2019-07-08T19:42:10Z</time>
      </trkpt>
      <trkpt lat="45.14357" lon="7.01255">
        <ele>804</ele>
        <time>2019-07-08T19:42:11Z</time>
      </trkpt>
      <trkpt lat="45.14364" lon="7.01262">
        <ele>803</ele>
        <time>2019-07-08T19:42:13Z</time>
      </trkpt>
      <trkpt lat="45.14398" lon="7.01279">
        <ele>804</ele>
        <time>2019-07-08T19:42:19Z</time>
      </trkpt>
      <trkpt lat="45.14407" lon="7.01287">
        <ele>803</ele>
        <time>2019-07-08T19:42:21Z</time>
      </trkpt>
      <trkpt lat="45.14414" lon="7.01295">
        <ele>802</ele>
        <time>2019-07-08T19:42:23Z</time>
      </trkpt>
      <trkpt lat="45.14447" lon="7.01348">
        <ele>788</ele>
        <time>2019-07-08T19:42:32Z</time>
      </trkpt>
      <trkpt lat="45.14453" lon="7.01354">
        <ele>786</ele>
        <time>2019-07-08T19:42:33Z</time>
      </trkpt>
      <trkpt lat="45.14466" lon="7.01358">
        <ele>785</ele>
        <time>2019-07-08T19:42:35Z</time>
      </trkpt>
      <trkpt lat="45.14472" lon="7.01359">
        <ele>785</ele>
        <time>2019-07-08T19:42:36Z</time>
      </trkpt>
      <trkpt lat="45.14483" lon="7.01356">
        <ele>786</ele>
        <time>2019-07-08T19:42:38Z</time>
      </trkpt>
      <trkpt lat="45.14492" lon="7.01351">
        <ele>786</ele>
        <time>2019-07-08T19:42:40Z</time>
      </trkpt>
      <trkpt lat="45.145" lon="7.01344">
        <ele>788</ele>
        <time>2019-07-08T19:42:42Z</time>
      </trkpt>
      <trkpt lat="45.14514" lon="7.01324">
        <ele>787</ele>
        <time>2019-07-08T19:42:45Z</time>
      </trkpt>
      <trkpt lat="45.14521" lon="7.01309">
        <ele>789</ele>
        <time>2019-07-08T19:42:48Z</time>
      </trkpt>
      <trkpt lat="45.14539" lon="7.01256">
        <ele>795</ele>
        <time>2019-07-08T19:42:55Z</time>
      </trkpt>
      <trkpt lat="45.14546" lon="7.01241">
        <ele>796</ele>
        <time>2019-07-08T19:42:57Z</time>
      </trkpt>
      <trkpt lat="45.14555" lon="7.01232">
        <ele>796</ele>
        <time>2019-07-08T19:42:59Z</time>
      </trkpt>
      <trkpt lat="45.14566" lon="7.01228">
        <ele>793</ele>
        <time>2019-07-08T19:43:01Z</time>
      </trkpt>
      <trkpt lat="45.14602" lon="7.0123">
        <ele>785</ele>
        <time>2019-07-08T19:43:08Z</time>
      </trkpt>
      <trkpt lat="45.14614" lon="7.01236">
        <ele>781</ele>
        <time>2019-07-08T19:43:10Z</time>
      </trkpt>
      <trkpt lat="45.14622" lon="7.01246">
        <ele>778</ele>
        <time>2019-07-08T19:43:12Z</time>
      </trkpt>
      <trkpt lat="45.1464" lon="7.01284">
        <ele>766</ele>
        <time>2019-07-08T19:43:18Z</time>
      </trkpt>
      <trkpt lat="45.14647" lon="7.01291">
        <ele>763</ele>
        <time>2019-07-08T19:43:19Z</time>
      </trkpt>
      <trkpt lat="45.14653" lon="7.01294">
        <ele>761</ele>
        <time>2019-07-08T19:43:20Z</time>
      </trkpt>
      <trkpt lat="45.14661" lon="7.01292">
        <ele>761</ele>
        <time>2019-07-08T19:43:22Z</time>
      </trkpt>
      <trkpt lat="45.14672" lon="7.01287">
        <ele>761</ele>
        <time>2019-07-08T19:43:24Z</time>
      </trkpt>
      <trkpt lat="45.147" lon="7.01259">
        <ele>765</ele>
        <time>2019-07-08T19:43:30Z</time>
      </trkpt>
      <trkpt lat="45.14707" lon="7.0126">
        <ele>765</ele>
        <time>2019-07-08T19:43:31Z</time>
      </trkpt>
      <trkpt lat="45.14713" lon="7.01269">
        <ele>762</ele>
        <time>2019-07-08T19:43:33Z</time>
      </trkpt>
      <trkpt lat="45.14717" lon="7.01318">
        <ele>751</ele>
        <time>2019-07-08T19:43:39Z</time>
      </trkpt>
      <trkpt lat="45.14721" lon="7.01329">
        <ele>748</ele>
        <time>2019-07-08T19:43:40Z</time>
      </trkpt>
      <trkpt lat="45.14724" lon="7.01332">
        <ele>747</ele>
        <time>2019-07-08T19:43:41Z</time>
      </trkpt>
      <trkpt lat="45.14731" lon="7.01335">
        <ele>746</ele>
        <time>2019-07-08T19:43:42Z</time>
      </trkpt>
      <trkpt lat="45.14753" lon="7.01327">
        <ele>745</ele>
        <time>2019-07-08T19:43:46Z</time>
      </trkpt>
      <trkpt lat="45.14758" lon="7.01331">
        <ele>742</ele>
        <time>2019-07-08T19:43:47Z</time>
      </trkpt>
      <trkpt lat="45.1476" lon="7.01339">
        <ele>739</ele>
        <time>2019-07-08T19:43:48Z</time>
      </trkpt>
      <trkpt lat="45.14758" lon="7.01348">
        <ele>737</ele>
        <time>2019-07-08T19:43:50Z</time>
      </trkpt>
      <trkpt lat="45.14752" lon="7.01357">
        <ele>737</ele>
        <time>2019-07-08T19:43:51Z</time>
      </trkpt>
      <trkpt lat="45.14745" lon="7.0136">
        <ele>737</ele>
        <time>2019-07-08T19:43:52Z</time>
      </trkpt>
      <trkpt lat="45.14732" lon="7.01359">
        <ele>738</ele>
        <time>2019-07-08T19:43:55Z</time>
      </trkpt>
      <trkpt lat="45.14723" lon="7.01356">
        <ele>739</ele>
        <time>2019-07-08T19:43:56Z</time>
      </trkpt>
      <trkpt lat="45.14715" lon="7.01351">
        <ele>741</ele>
        <time>2019-07-08T19:43:58Z</time>
      </trkpt>
      <trkpt lat="45.14689" lon="7.0133">
        <ele>749</ele>
        <time>2019-07-08T19:44:03Z</time>
      </trkpt>
      <trkpt lat="45.14685" lon="7.01329">
        <ele>750</ele>
        <time>2019-07-08T19:44:04Z</time>
      </trkpt>
      <trkpt lat="45.14673" lon="7.0133">
        <ele>750</ele>
        <time>2019-07-08T19:44:06Z</time>
      </trkpt>
      <trkpt lat="45.14645" lon="7.01337">
        <ele>752</ele>
        <time>2019-07-08T19:44:11Z</time>
      </trkpt>
      <trkpt lat="45.14631" lon="7.01336">
        <ele>755</ele>
        <time>2019-07-08T19:44:14Z</time>
      </trkpt>
      <trkpt lat="45.14603" lon="7.0133">
        <ele>761</ele>
        <time>2019-07-08T19:44:19Z</time>
      </trkpt>
      <trkpt lat="45.14599" lon="7.01332">
        <ele>761</ele>
        <time>2019-07-08T19:44:19Z</time>
      </trkpt>
      <trkpt lat="45.14593" lon="7.01339">
        <ele>760</ele>
        <time>2019-07-08T19:44:21Z</time>
      </trkpt>
      <trkpt lat="45.14588" lon="7.01352">
        <ele>758</ele>
        <time>2019-07-08T19:44:23Z</time>
      </trkpt>
      <trkpt lat="45.14586" lon="7.0136">
        <ele>757</ele>
        <time>2019-07-08T19:44:24Z</time>
      </trkpt>
      <trkpt lat="45.14573" lon="7.01478">
        <ele>735</ele>
        <time>2019-07-08T19:44:39Z</time>
      </trkpt>
      <trkpt lat="45.14573" lon="7.01563">
        <ele>722</ele>
        <time>2019-07-08T19:44:49Z</time>
      </trkpt>
      <trkpt lat="45.14568" lon="7.01614">
        <ele>717</ele>
        <time>2019-07-08T19:44:56Z</time>
      </trkpt>
      <trkpt lat="45.14564" lon="7.01636">
        <ele>715</ele>
        <time>2019-07-08T19:44:59Z</time>
      </trkpt>
      <trkpt lat="45.14553" lon="7.01682">
        <ele>712</ele>
        <time>2019-07-08T19:45:05Z</time>
      </trkpt>
      <trkpt lat="45.14549" lon="7.0171">
        <ele>709</ele>
        <time>2019-07-08T19:45:08Z</time>
      </trkpt>
      <trkpt lat="45.1455" lon="7.01753">
        <ele>704</ele>
        <time>2019-07-08T19:45:14Z</time>
      </trkpt>
      <trkpt lat="45.1456" lon="7.01831">
        <ele>695</ele>
        <time>2019-07-08T19:45:24Z</time>
      </trkpt>
      <trkpt lat="45.14558" lon="7.01846">
        <ele>693</ele>
        <time>2019-07-08T19:45:26Z</time>
      </trkpt>
      <trkpt lat="45.14556" lon="7.01852">
        <ele>693</ele>
        <time>2019-07-08T19:45:27Z</time>
      </trkpt>
      <trkpt lat="45.14546" lon="7.01858">
        <ele>693</ele>
        <time>2019-07-08T19:45:28Z</time>
      </trkpt>
      <trkpt lat="45.14503" lon="7.01863">
        <ele>694</ele>
        <time>2019-07-08T19:45:36Z</time>
      </trkpt>
      <trkpt lat="45.14491" lon="7.01857">
        <ele>695</ele>
        <time>2019-07-08T19:45:38Z</time>
      </trkpt>
      <trkpt lat="45.14487" lon="7.01852">
        <ele>696</ele>
        <time>2019-07-08T19:45:39Z</time>
      </trkpt>
      <trkpt lat="45.14476" lon="7.01822">
        <ele>699</ele>
        <time>2019-07-08T19:45:44Z</time>
      </trkpt>
      <trkpt lat="45.14468" lon="7.01809">
        <ele>701</ele>
        <time>2019-07-08T19:45:46Z</time>
      </trkpt>
      <trkpt lat="45.14463" lon="7.01807">
        <ele>701</ele>
        <time>2019-07-08T19:45:47Z</time>
      </trkpt>
      <trkpt lat="45.14454" lon="7.01809">
        <ele>700</ele>
        <time>2019-07-08T19:45:48Z</time>
      </trkpt>
      <trkpt lat="45.14446" lon="7.01819">
        <ele>699</ele>
        <time>2019-07-08T19:45:50Z</time>
      </trkpt>
      <trkpt lat="45.14444" lon="7.01826">
        <ele>698</ele>
        <time>2019-07-08T19:45:51Z</time>
      </trkpt>
      <trkpt lat="45.14443" lon="7.01871">
        <ele>693</ele>
        <time>2019-07-08T19:45:57Z</time>
      </trkpt>
      <trkpt lat="45.14445" lon="7.01917">
        <ele>689</ele>
        <time>2019-07-08T19:46:03Z</time>
      </trkpt>
      <trkpt lat="45.14462" lon="7.01985">
        <ele>682</ele>
        <time>2019-07-08T19:46:12Z</time>
      </trkpt>
      <trkpt lat="45.14464" lon="7.02008">
        <ele>679</ele>
        <time>2019-07-08T19:46:15Z</time>
      </trkpt>
      <trkpt lat="45.14459" lon="7.02025">
        <ele>678</ele>
        <time>2019-07-08T19:46:17Z</time>
      </trkpt>
      <trkpt lat="45.14455" lon="7.02032">
        <ele>678</ele>
        <time>2019-07-08T19:46:18Z</time>
      </trkpt>
      <trkpt lat="45.14424" lon="7.0204">
        <ele>683</ele>
        <time>2019-07-08T19:46:24Z</time>
      </trkpt>
      <trkpt lat="45.1442" lon="7.02044">
        <ele>684</ele>
        <time>2019-07-08T19:46:24Z</time>
      </trkpt>
      <trkpt lat="45.14416" lon="7.0206">
        <ele>684</ele>
        <time>2019-07-08T19:46:27Z</time>
      </trkpt>
      <trkpt lat="45.14418" lon="7.02071">
        <ele>683</ele>
        <time>2019-07-08T19:46:28Z</time>
      </trkpt>
      <trkpt lat="45.14441" lon="7.02109">
        <ele>676</ele>
        <time>2019-07-08T19:46:34Z</time>
      </trkpt>
      <trkpt lat="45.14451" lon="7.02127">
        <ele>672</ele>
        <time>2019-07-08T19:46:37Z</time>
      </trkpt>
      <trkpt lat="45.14457" lon="7.02145">
        <ele>669</ele>
        <time>2019-07-08T19:46:40Z</time>
      </trkpt>
      <trkpt lat="45.14461" lon="7.0216">
        <ele>667</ele>
        <time>2019-07-08T19:46:42Z</time>
      </trkpt>
      <trkpt lat="45.14463" lon="7.02183">
        <ele>664</ele>
        <time>2019-07-08T19:46:45Z</time>
      </trkpt>
      <trkpt lat="45.14464" lon="7.0222">
        <ele>660</ele>
        <time>2019-07-08T19:46:49Z</time>
      </trkpt>
      <trkpt lat="45.14462" lon="7.02228">
        <ele>661</ele>
        <time>2019-07-08T19:46:50Z</time>
      </trkpt>
      <trkpt lat="45.14458" lon="7.02234">
        <ele>661</ele>
        <time>2019-07-08T19:46:51Z</time>
      </trkpt>
      <trkpt lat="45.14429" lon="7.02258">
        <ele>670</ele>
        <time>2019-07-08T19:46:57Z</time>
      </trkpt>
      <trkpt lat="45.14423" lon="7.0227">
        <ele>671</ele>
        <time>2019-07-08T19:46:59Z</time>
      </trkpt>
      <trkpt lat="45.14421" lon="7.02283">
        <ele>670</ele>
        <time>2019-07-08T19:47:01Z</time>
      </trkpt>
      <trkpt lat="45.14411" lon="7.02422">
        <ele>659</ele>
        <time>2019-07-08T19:47:18Z</time>
      </trkpt>
      <trkpt lat="45.14412" lon="7.02469">
        <ele>656</ele>
        <time>2019-07-08T19:47:24Z</time>
      </trkpt>
      <trkpt lat="45.14422" lon="7.02524">
        <ele>649</ele>
        <time>2019-07-08T19:47:31Z</time>
      </trkpt>
      <trkpt lat="45.14424" lon="7.02555">
        <ele>647</ele>
        <time>2019-07-08T19:47:35Z</time>
      </trkpt>
      <trkpt lat="45.14433" lon="7.02708">
        <ele>640</ele>
        <time>2019-07-08T19:47:55Z</time>
      </trkpt>
      <trkpt lat="45.14444" lon="7.02819">
        <ele>628</ele>
        <time>2019-07-08T19:48:09Z</time>
      </trkpt>
      <trkpt lat="45.14438" lon="7.02958">
        <ele>619</ele>
        <time>2019-07-08T19:48:26Z</time>
      </trkpt>
      <trkpt lat="45.14437" lon="7.02973">
        <ele>618</ele>
        <time>2019-07-08T19:48:28Z</time>
      </trkpt>
      <trkpt lat="45.14427" lon="7.03019">
        <ele>621</ele>
        <time>2019-07-08T19:48:34Z</time>
      </trkpt>
      <trkpt lat="45.14425" lon="7.03046">
        <ele>621</ele>
        <time>2019-07-08T19:48:37Z</time>
      </trkpt>
      <trkpt lat="45.14427" lon="7.03061">
        <ele>618</ele>
        <time>2019-07-08T19:48:39Z</time>
      </trkpt>
      <trkpt lat="45.14447" lon="7.03143">
        <ele>602</ele>
        <time>2019-07-08T19:48:50Z</time>
      </trkpt>
      <trkpt lat="45.14451" lon="7.03194">
        <ele>598</ele>
        <time>2019-07-08T19:48:57Z</time>
      </trkpt>
      <trkpt lat="45.1445" lon="7.03254">
        <ele>596</ele>
        <time>2019-07-08T19:49:04Z</time>
      </trkpt>
      <trkpt lat="45.14445" lon="7.03299">
        <ele>595</ele>
        <time>2019-07-08T19:49:10Z</time>
      </trkpt>
      <trkpt lat="45.1444" lon="7.03325">
        <ele>595</ele>
        <time>2019-07-08T19:49:13Z</time>
      </trkpt>
      <trkpt lat="45.14425" lon="7.03376">
        <ele>593</ele>
        <time>2019-07-08T19:49:20Z</time>
      </trkpt>
      <trkpt lat="45.14417" lon="7.03395">
        <ele>592</ele>
        <time>2019-07-08T19:49:23Z</time>
      </trkpt>
      <trkpt lat="45.14395" lon="7.03433">
        <ele>596</ele>
        <time>2019-07-08T19:49:29Z</time>
      </trkpt>
      <trkpt lat="45.14387" lon="7.03449">
        <ele>597</ele>
        <time>2019-07-08T19:49:32Z</time>
      </trkpt>
      <trkpt lat="45.14378" lon="7.0348">
        <ele>596</ele>
        <time>2019-07-08T19:49:36Z</time>
      </trkpt>
      <trkpt lat="45.1437" lon="7.03529">
        <ele>592</ele>
        <time>2019-07-08T19:49:42Z</time>
      </trkpt>
      <trkpt lat="45.14364" lon="7.03597">
        <ele>586</ele>
        <time>2019-07-08T19:49:51Z</time>
      </trkpt>
      <trkpt lat="45.14366" lon="7.03627">
        <ele>581</ele>
        <time>2019-07-08T19:49:55Z</time>
      </trkpt>
      <trkpt lat="45.14374" lon="7.03686">
        <ele>571</ele>
        <time>2019-07-08T19:50:02Z</time>
      </trkpt>
      <trkpt lat="45.14375" lon="7.03703">
        <ele>568</ele>
        <time>2019-07-08T19:50:04Z</time>
      </trkpt>
      <trkpt lat="45.14374" lon="7.03719">
        <ele>567</ele>
        <time>2019-07-08T19:50:06Z</time>
      </trkpt>
      <trkpt lat="45.1437" lon="7.03738">
        <ele>565</ele>
        <time>2019-07-08T19:50:09Z</time>
      </trkpt>
      <trkpt lat="45.14366" lon="7.03745">
        <ele>564</ele>
        <time>2019-07-08T19:50:10Z</time>
      </trkpt>
      <trkpt lat="45.1436" lon="7.03753">
        <ele>564</ele>
        <time>2019-07-08T19:50:11Z</time>
      </trkpt>
      <trkpt lat="45.14348" lon="7.03763">
        <ele>565</ele>
        <time>2019-07-08T19:50:14Z</time>
      </trkpt>
      <trkpt lat="45.14233" lon="7.03804">
        <ele>558</ele>
        <time>2019-07-08T19:50:35Z</time>
      </trkpt>
      <trkpt lat="45.14223" lon="7.03813">
        <ele>554</ele>
        <time>2019-07-08T19:50:37Z</time>
      </trkpt>
      <trkpt lat="45.14219" lon="7.03825">
        <ele>552</ele>
        <time>2019-07-08T19:50:39Z</time>
      </trkpt>
      <trkpt lat="45.14208" lon="7.03864">
        <ele>550</ele>
        <time>2019-07-08T19:50:44Z</time>
      </trkpt>
      <trkpt lat="45.14181" lon="7.03973">
        <ele>549</ele>
        <time>2019-07-08T19:50:58Z</time>
      </trkpt>
      <trkpt lat="45.14177" lon="7.03995">
        <ele>550</ele>
        <time>2019-07-08T19:51:01Z</time>
      </trkpt>
      <trkpt lat="45.14173" lon="7.04047">
        <ele>548</ele>
        <time>2019-07-08T19:51:08Z</time>
      </trkpt>
      <trkpt lat="45.1417" lon="7.04111">
        <ele>548</ele>
        <time>2019-07-08T19:51:16Z</time>
      </trkpt>
      <trkpt lat="45.14166" lon="7.04146">
        <ele>549</ele>
        <time>2019-07-08T19:51:20Z</time>
      </trkpt>
      <trkpt lat="45.14158" lon="7.04165">
        <ele>548</ele>
        <time>2019-07-08T19:51:23Z</time>
      </trkpt>
      <trkpt lat="45.14151" lon="7.04175">
        <ele>547</ele>
        <time>2019-07-08T19:51:25Z</time>
      </trkpt>
      <trkpt lat="45.14136" lon="7.04189">
        <ele>544</ele>
        <time>2019-07-08T19:51:28Z</time>
      </trkpt>
      <trkpt lat="45.14027" lon="7.04258">
        <ele>531</ele>
        <time>2019-07-08T19:51:49Z</time>
      </trkpt>
      <trkpt lat="45.1401" lon="7.04269">
        <ele>530</ele>
        <time>2019-07-08T19:51:53Z</time>
      </trkpt>
      <trkpt lat="45.13994" lon="7.04283">
        <ele>527</ele>
        <time>2019-07-08T19:51:56Z</time>
      </trkpt>
      <trkpt lat="45.13982" lon="7.04297">
        <ele>524</ele>
        <time>2019-07-08T19:51:59Z</time>
      </trkpt>
      <trkpt lat="45.13962" lon="7.04328">
        <ele>519</ele>
        <time>2019-07-08T19:52:04Z</time>
      </trkpt>
      <trkpt lat="45.13952" lon="7.04347">
        <ele>518</ele>
        <time>2019-07-08T19:52:07Z</time>
      </trkpt>
      <trkpt lat="45.13936" lon="7.0439">
        <ele>515</ele>
        <time>2019-07-08T19:52:13Z</time>
      </trkpt>
      <trkpt lat="45.13926" lon="7.04442">
        <ele>515</ele>
        <time>2019-07-08T19:52:20Z</time>
      </trkpt>
      <trkpt lat="45.13894" lon="7.04635">
        <ele>512</ele>
        <time>2019-07-08T19:52:45Z</time>
      </trkpt>
      <trkpt lat="45.13834" lon="7.05024">
        <ele>500</ele>
        <time>2019-07-08T19:53:35Z</time>
      </trkpt>
      <trkpt lat="45.13802" lon="7.05276">
        <ele>495</ele>
        <time>2019-07-08T19:54:07Z</time>
      </trkpt>
      <trkpt lat="45.13725" lon="7.05927">
        <ele>490</ele>
        <time>2019-07-08T19:55:30Z</time>
      </trkpt>
      <trkpt lat="45.1372" lon="7.05922">
        <ele>490</ele>
        <time>2019-07-08T19:55:31Z</time>
      </trkpt>
      <trkpt lat="45.13676" lon="7.05896">
        <ele>489</ele>
        <time>2019-07-08T19:55:39Z</time>
      </trkpt>
      <trkpt lat="45.13615" lon="7.05871">
        <ele>487</ele>
        <time>2019-07-08T19:55:51Z</time>
      </trkpt>
      <trkpt lat="45.13585" lon="7.05941">
        <ele>488</ele>
        <time>2019-07-08T19:56:01Z</time>
      </trkpt>
      <trkpt lat="45.13538" lon="7.06029">
        <ele>487</ele>
        <time>2019-07-08T19:56:15Z</time>
      </trkpt>
      <trkpt lat="45.13447" lon="7.05975">
        <ele>487</ele>
        <time>2019-07-08T19:56:32Z</time>
      </trkpt>
      <trkpt lat="45.13414" lon="7.0607">
        <ele>485</ele>
        <time>2019-07-08T19:56:46Z</time>
      </trkpt>
      <trkpt lat="45.13401" lon="7.06089">
        <ele>485</ele>
        <time>2019-07-08T19:56:49Z</time>
      </trkpt>
      <trkpt lat="45.13368" lon="7.06148">
        <ele>484</ele>
        <time>2019-07-08T19:56:58Z</time>
      </trkpt>
      <trkpt lat="45.13282" lon="7.06321">
        <ele>484</ele>
        <time>2019-07-08T19:57:25Z</time>
      </trkpt>
      <trkpt lat="45.13175" lon="7.06526">
        <ele>492</ele>
        <time>2019-07-08T19:57:57Z</time>
      </trkpt>
      <trkpt lat="45.13158" lon="7.06546">
        <ele>494</ele>
        <time>2019-07-08T19:58:01Z</time>
      </trkpt>
      <trkpt lat="45.13151" lon="7.06551">
        <ele>494</ele>
        <time>2019-07-08T19:58:02Z</time>
      </trkpt>
      <trkpt lat="45.13143" lon="7.06553">
        <ele>495</ele>
        <time>2019-07-08T19:58:04Z</time>
      </trkpt>
      <trkpt lat="45.13132" lon="7.06553">
        <ele>497</ele>
        <time>2019-07-08T19:58:06Z</time>
      </trkpt>
      <trkpt lat="45.13052" lon="7.06534">
        <ele>505</ele>
        <time>2019-07-08T19:58:20Z</time>
      </trkpt>
      <trkpt lat="45.13038" lon="7.06528">
        <ele>507</ele>
        <time>2019-07-08T19:58:23Z</time>
      </trkpt>
      <trkpt lat="45.13029" lon="7.06516">
        <ele>508</ele>
        <time>2019-07-08T19:58:25Z</time>
      </trkpt>
      <trkpt lat="45.12998" lon="7.0646">
        <ele>519</ele>
        <time>2019-07-08T19:58:34Z</time>
      </trkpt>
      <trkpt lat="45.12987" lon="7.06445">
        <ele>522</ele>
        <time>2019-07-08T19:58:37Z</time>
      </trkpt>
      <trkpt lat="45.12974" lon="7.06431">
        <ele>524</ele>
        <time>2019-07-08T19:58:39Z</time>
      </trkpt>
      <trkpt lat="45.12958" lon="7.06422">
        <ele>525</ele>
        <time>2019-07-08T19:58:43Z</time>
      </trkpt>
      <trkpt lat="45.12924" lon="7.06417">
        <ele>523</ele>
        <time>2019-07-08T19:58:49Z</time>
      </trkpt>
      <trkpt lat="45.12909" lon="7.06412">
        <ele>524</ele>
        <time>2019-07-08T19:58:51Z</time>
      </trkpt>
      <trkpt lat="45.12895" lon="7.06405">
        <ele>525</ele>
        <time>2019-07-08T19:58:54Z</time>
      </trkpt>
      <trkpt lat="45.12865" lon="7.0638">
        <ele>528</ele>
        <time>2019-07-08T19:59:00Z</time>
      </trkpt>
      <trkpt lat="45.12852" lon="7.06366">
        <ele>530</ele>
        <time>2019-07-08T19:59:03Z</time>
      </trkpt>
      <trkpt lat="45.12767" lon="7.06242">
        <ele>544</ele>
        <time>2019-07-08T19:59:25Z</time>
      </trkpt>
      <trkpt lat="45.12753" lon="7.06229">
        <ele>546</ele>
        <time>2019-07-08T19:59:28Z</time>
      </trkpt>
      <trkpt lat="45.12731" lon="7.06216">
        <ele>550</ele>
        <time>2019-07-08T19:59:32Z</time>
      </trkpt>
      <trkpt lat="45.12712" lon="7.06213">
        <ele>553</ele>
        <time>2019-07-08T19:59:35Z</time>
      </trkpt>
      <trkpt lat="45.1269" lon="7.06217">
        <ele>556</ele>
        <time>2019-07-08T19:59:39Z</time>
      </trkpt>
      <trkpt lat="45.12617" lon="7.06238">
        <ele>567</ele>
        <time>2019-07-08T19:59:53Z</time>
      </trkpt>
      <trkpt lat="45.12573" lon="7.06238">
        <ele>575</ele>
        <time>2019-07-08T20:00:00Z</time>
      </trkpt>
      <trkpt lat="45.12555" lon="7.06235">
        <ele>579</ele>
        <time>2019-07-08T20:00:04Z</time>
      </trkpt>
      <trkpt lat="45.1252" lon="7.06224">
        <ele>586</ele>
        <time>2019-07-08T20:00:10Z</time>
      </trkpt>
      <trkpt lat="45.12503" lon="7.06215">
        <ele>589</ele>
        <time>2019-07-08T20:00:13Z</time>
      </trkpt>
      <trkpt lat="45.12481" lon="7.06196">
        <ele>589</ele>
        <time>2019-07-08T20:00:18Z</time>
      </trkpt>
      <trkpt lat="45.12465" lon="7.06186">
        <ele>590</ele>
        <time>2019-07-08T20:00:21Z</time>
      </trkpt>
      <trkpt lat="45.12453" lon="7.06182">
        <ele>591</ele>
        <time>2019-07-08T20:00:23Z</time>
      </trkpt>
      <trkpt lat="45.12413" lon="7.06178">
        <ele>596</ele>
        <time>2019-07-08T20:00:30Z</time>
      </trkpt>
      <trkpt lat="45.12391" lon="7.06218">
        <ele>605</ele>
        <time>2019-07-08T20:00:37Z</time>
      </trkpt>
      <trkpt lat="45.12389" lon="7.06229">
        <ele>606</ele>
        <time>2019-07-08T20:00:38Z</time>
      </trkpt>
      <trkpt lat="45.12391" lon="7.06293">
        <ele>613</ele>
        <time>2019-07-08T20:00:46Z</time>
      </trkpt>
      <trkpt lat="45.124" lon="7.064">
        <ele>624</ele>
        <time>2019-07-08T20:01:00Z</time>
      </trkpt>
      <trkpt lat="45.12399" lon="7.06417">
        <ele>626</ele>
        <time>2019-07-08T20:01:02Z</time>
      </trkpt>
      <trkpt lat="45.12394" lon="7.06441">
        <ele>630</ele>
        <time>2019-07-08T20:01:05Z</time>
      </trkpt>
      <trkpt lat="45.1238" lon="7.06481">
        <ele>637</ele>
        <time>2019-07-08T20:01:11Z</time>
      </trkpt>
      <trkpt lat="45.12381" lon="7.06492">
        <ele>637</ele>
        <time>2019-07-08T20:01:12Z</time>
      </trkpt>
      <trkpt lat="45.12387" lon="7.06502">
        <ele>637</ele>
        <time>2019-07-08T20:01:14Z</time>
      </trkpt>
      <trkpt lat="45.12418" lon="7.06539">
        <ele>636</ele>
        <time>2019-07-08T20:01:21Z</time>
      </trkpt>
      <trkpt lat="45.12424" lon="7.06552">
        <ele>638</ele>
        <time>2019-07-08T20:01:23Z</time>
      </trkpt>
      <trkpt lat="45.12426" lon="7.06567">
        <ele>640</ele>
        <time>2019-07-08T20:01:25Z</time>
      </trkpt>
      <trkpt lat="45.12428" lon="7.06598">
        <ele>642</ele>
        <time>2019-07-08T20:01:29Z</time>
      </trkpt>
      <trkpt lat="45.12424" lon="7.06637">
        <ele>645</ele>
        <time>2019-07-08T20:01:34Z</time>
      </trkpt>
      <trkpt lat="45.12418" lon="7.06647">
        <ele>645</ele>
        <time>2019-07-08T20:01:35Z</time>
      </trkpt>
      <trkpt lat="45.12357" lon="7.06716">
        <ele>650</ele>
        <time>2019-07-08T20:01:49Z</time>
      </trkpt>
      <trkpt lat="45.12341" lon="7.06738">
        <ele>651</ele>
        <time>2019-07-08T20:01:53Z</time>
      </trkpt>
      <trkpt lat="45.123" lon="7.06782">
        <ele>655</ele>
        <time>2019-07-08T20:02:02Z</time>
      </trkpt>
      <trkpt lat="45.12273" lon="7.06805">
        <ele>656</ele>
        <time>2019-07-08T20:02:08Z</time>
      </trkpt>
      <trkpt lat="45.12255" lon="7.06822">
        <ele>656</ele>
        <time>2019-07-08T20:02:12Z</time>
      </trkpt>
      <trkpt lat="45.12252" lon="7.06831">
        <ele>656</ele>
        <time>2019-07-08T20:02:13Z</time>
      </trkpt>
      <trkpt lat="45.12237" lon="7.06912">
        <ele>660</ele>
        <time>2019-07-08T20:02:23Z</time>
      </trkpt>
      <trkpt lat="45.12234" lon="7.06925">
        <ele>661</ele>
        <time>2019-07-08T20:02:25Z</time>
      </trkpt>
      <trkpt lat="45.12232" lon="7.06929">
        <ele>661</ele>
        <time>2019-07-08T20:02:26Z</time>
      </trkpt>
      <trkpt lat="45.12216" lon="7.06938">
        <ele>662</ele>
        <time>2019-07-08T20:02:29Z</time>
      </trkpt>
      <trkpt lat="45.12176" lon="7.06947">
        <ele>667</ele>
        <time>2019-07-08T20:02:36Z</time>
      </trkpt>
      <trkpt lat="45.12162" lon="7.06949">
        <ele>668</ele>
        <time>2019-07-08T20:02:39Z</time>
      </trkpt>
      <trkpt lat="45.12151" lon="7.06946">
        <ele>669</ele>
        <time>2019-07-08T20:02:41Z</time>
      </trkpt>
      <trkpt lat="45.12128" lon="7.06922">
        <ele>672</ele>
        <time>2019-07-08T20:02:46Z</time>
      </trkpt>
      <trkpt lat="45.1212" lon="7.06908">
        <ele>674</ele>
        <time>2019-07-08T20:02:48Z</time>
      </trkpt>
      <trkpt lat="45.12116" lon="7.06898">
        <ele>675</ele>
        <time>2019-07-08T20:02:49Z</time>
      </trkpt>
      <trkpt lat="45.12116" lon="7.06849">
        <ele>678</ele>
        <time>2019-07-08T20:02:55Z</time>
      </trkpt>
      <trkpt lat="45.121" lon="7.06776">
        <ele>681</ele>
        <time>2019-07-08T20:03:05Z</time>
      </trkpt>
      <trkpt lat="45.12105" lon="7.06712">
        <ele>681</ele>
        <time>2019-07-08T20:03:13Z</time>
      </trkpt>
      <trkpt lat="45.12105" lon="7.06702">
        <ele>681</ele>
        <time>2019-07-08T20:03:14Z</time>
      </trkpt>
      <trkpt lat="45.12102" lon="7.06695">
        <ele>682</ele>
        <time>2019-07-08T20:03:15Z</time>
      </trkpt>
      <trkpt lat="45.12091" lon="7.06682">
        <ele>683</ele>
        <time>2019-07-08T20:03:18Z</time>
      </trkpt>
      <trkpt lat="45.12066" lon="7.06666">
        <ele>687</ele>
        <time>2019-07-08T20:03:23Z</time>
      </trkpt>
      <trkpt lat="45.1205" lon="7.06651">
        <ele>691</ele>
        <time>2019-07-08T20:03:26Z</time>
      </trkpt>
      <trkpt lat="45.12046" lon="7.06642">
        <ele>691</ele>
        <time>2019-07-08T20:03:28Z</time>
      </trkpt>
      <trkpt lat="45.12041" lon="7.06625">
        <ele>693</ele>
        <time>2019-07-08T20:03:30Z</time>
      </trkpt>
      <trkpt lat="45.12035" lon="7.0657">
        <ele>694</ele>
        <time>2019-07-08T20:03:37Z</time>
      </trkpt>
      <trkpt lat="45.12029" lon="7.06554">
        <ele>694</ele>
        <time>2019-07-08T20:03:39Z</time>
      </trkpt>
      <trkpt lat="45.12022" lon="7.06541">
        <ele>695</ele>
        <time>2019-07-08T20:03:41Z</time>
      </trkpt>
      <trkpt lat="45.12013" lon="7.0653">
        <ele>697</ele>
        <time>2019-07-08T20:03:43Z</time>
      </trkpt>
      <trkpt lat="45.11977" lon="7.06512">
        <ele>702</ele>
        <time>2019-07-08T20:03:50Z</time>
      </trkpt>
      <trkpt lat="45.119" lon="7.06502">
        <ele>714</ele>
        <time>2019-07-08T20:04:04Z</time>
      </trkpt>
      <trkpt lat="45.11896" lon="7.06499">
        <ele>715</ele>
        <time>2019-07-08T20:04:05Z</time>
      </trkpt>
      <trkpt lat="45.11891" lon="7.06491">
        <ele>717</ele>
        <time>2019-07-08T20:04:06Z</time>
      </trkpt>
      <trkpt lat="45.11888" lon="7.06476">
        <ele>718</ele>
        <time>2019-07-08T20:04:08Z</time>
      </trkpt>
      <trkpt lat="45.11895" lon="7.06418">
        <ele>719</ele>
        <time>2019-07-08T20:04:15Z</time>
      </trkpt>
      <trkpt lat="45.11891" lon="7.064">
        <ele>720</ele>
        <time>2019-07-08T20:04:18Z</time>
      </trkpt>
      <trkpt lat="45.11887" lon="7.06391">
        <ele>720</ele>
        <time>2019-07-08T20:04:19Z</time>
      </trkpt>
      <trkpt lat="45.1187" lon="7.06364">
        <ele>723</ele>
        <time>2019-07-08T20:04:24Z</time>
      </trkpt>
      <trkpt lat="45.11822" lon="7.06303">
        <ele>735</ele>
        <time>2019-07-08T20:04:35Z</time>
      </trkpt>
      <trkpt lat="45.11816" lon="7.0629">
        <ele>737</ele>
        <time>2019-07-08T20:04:37Z</time>
      </trkpt>
      <trkpt lat="45.11818" lon="7.06276">
        <ele>737</ele>
        <time>2019-07-08T20:04:39Z</time>
      </trkpt>
      <trkpt lat="45.11823" lon="7.0626">
        <ele>736</ele>
        <time>2019-07-08T20:04:41Z</time>
      </trkpt>
      <trkpt lat="45.11822" lon="7.0625">
        <ele>737</ele>
        <time>2019-07-08T20:04:42Z</time>
      </trkpt>
      <trkpt lat="45.11819" lon="7.06246">
        <ele>738</ele>
        <time>2019-07-08T20:04:43Z</time>
      </trkpt>
      <trkpt lat="45.11815" lon="7.06244">
        <ele>739</ele>
        <time>2019-07-08T20:04:44Z</time>
      </trkpt>
      <trkpt lat="45.1181" lon="7.06247">
        <ele>740</ele>
        <time>2019-07-08T20:04:45Z</time>
      </trkpt>
      <trkpt lat="45.11791" lon="7.06263">
        <ele>745</ele>
        <time>2019-07-08T20:04:49Z</time>
      </trkpt>
      <trkpt lat="45.1178" lon="7.06276">
        <ele>748</ele>
        <time>2019-07-08T20:04:51Z</time>
      </trkpt>
      <trkpt lat="45.11767" lon="7.06324">
        <ele>752</ele>
        <time>2019-07-08T20:04:58Z</time>
      </trkpt>
      <trkpt lat="45.11765" lon="7.06343">
        <ele>752</ele>
        <time>2019-07-08T20:05:00Z</time>
      </trkpt>
      <trkpt lat="45.11766" lon="7.06361">
        <ele>750</ele>
        <time>2019-07-08T20:05:02Z</time>
      </trkpt>
      <trkpt lat="45.11769" lon="7.06375">
        <ele>748</ele>
        <time>2019-07-08T20:05:04Z</time>
      </trkpt>
      <trkpt lat="45.11769" lon="7.06387">
        <ele>747</ele>
        <time>2019-07-08T20:05:06Z</time>
      </trkpt>
      <trkpt lat="45.11765" lon="7.06395">
        <ele>748</ele>
        <time>2019-07-08T20:05:07Z</time>
      </trkpt>
      <trkpt lat="45.11759" lon="7.06402">
        <ele>749</ele>
        <time>2019-07-08T20:05:08Z</time>
      </trkpt>
      <trkpt lat="45.11708" lon="7.06403">
        <ele>766</ele>
        <time>2019-07-08T20:05:17Z</time>
      </trkpt>
      <trkpt lat="45.11697" lon="7.06406">
        <ele>769</ele>
        <time>2019-07-08T20:05:19Z</time>
      </trkpt>
      <trkpt lat="45.11684" lon="7.06415">
        <ele>772</ele>
        <time>2019-07-08T20:05:22Z</time>
      </trkpt>
      <trkpt lat="45.11673" lon="7.06428">
        <ele>774</ele>
        <time>2019-07-08T20:05:25Z</time>
      </trkpt>
      <trkpt lat="45.11662" lon="7.06449">
        <ele>775</ele>
        <time>2019-07-08T20:05:28Z</time>
      </trkpt>
      <trkpt lat="45.11638" lon="7.06538">
        <ele>776</ele>
        <time>2019-07-08T20:05:40Z</time>
      </trkpt>
      <trkpt lat="45.11631" lon="7.06548">
        <ele>778</ele>
        <time>2019-07-08T20:05:42Z</time>
      </trkpt>
      <trkpt lat="45.1162" lon="7.06554">
        <ele>782</ele>
        <time>2019-07-08T20:05:44Z</time>
      </trkpt>
      <trkpt lat="45.11605" lon="7.06555">
        <ele>787</ele>
        <time>2019-07-08T20:05:46Z</time>
      </trkpt>
      <trkpt lat="45.11602" lon="7.06558">
        <ele>788</ele>
        <time>2019-07-08T20:05:47Z</time>
      </trkpt>
      <trkpt lat="45.11599" lon="7.06566">
        <ele>788</ele>
        <time>2019-07-08T20:05:48Z</time>
      </trkpt>
      <trkpt lat="45.11608" lon="7.06602">
        <ele>785</ele>
        <time>2019-07-08T20:05:53Z</time>
      </trkpt>
      <trkpt lat="45.11608" lon="7.06635">
        <ele>787</ele>
        <time>2019-07-08T20:05:57Z</time>
      </trkpt>
      <trkpt lat="45.11611" lon="7.06675">
        <ele>789</ele>
        <time>2019-07-08T20:06:02Z</time>
      </trkpt>
      <trkpt lat="45.11616" lon="7.06687">
        <ele>788</ele>
        <time>2019-07-08T20:06:04Z</time>
      </trkpt>
      <trkpt lat="45.11634" lon="7.06714">
        <ele>782</ele>
        <time>2019-07-08T20:06:08Z</time>
      </trkpt>
      <trkpt lat="45.11637" lon="7.06724">
        <ele>781</ele>
        <time>2019-07-08T20:06:10Z</time>
      </trkpt>
      <trkpt lat="45.11638" lon="7.06737">
        <ele>782</ele>
        <time>2019-07-08T20:06:12Z</time>
      </trkpt>
      <trkpt lat="45.11636" lon="7.06756">
        <ele>783</ele>
        <time>2019-07-08T20:06:14Z</time>
      </trkpt>
      <trkpt lat="45.11625" lon="7.06792">
        <ele>788</ele>
        <time>2019-07-08T20:06:19Z</time>
      </trkpt>
      <trkpt lat="45.11623" lon="7.06818">
        <ele>789</ele>
        <time>2019-07-08T20:06:22Z</time>
      </trkpt>
      <trkpt lat="45.11613" lon="7.06872">
        <ele>791</ele>
        <time>2019-07-08T20:06:29Z</time>
      </trkpt>
      <trkpt lat="45.11603" lon="7.06892">
        <ele>796</ele>
        <time>2019-07-08T20:06:32Z</time>
      </trkpt>
      <trkpt lat="45.11589" lon="7.06905">
        <ele>803</ele>
        <time>2019-07-08T20:06:35Z</time>
      </trkpt>
      <trkpt lat="45.11544" lon="7.06925">
        <ele>816</ele>
        <time>2019-07-08T20:06:44Z</time>
      </trkpt>
      <trkpt lat="45.11524" lon="7.06937">
        <ele>821</ele>
        <time>2019-07-08T20:06:47Z</time>
      </trkpt>
      <trkpt lat="45.11496" lon="7.06969">
        <ele>828</ele>
        <time>2019-07-08T20:06:54Z</time>
      </trkpt>
      <trkpt lat="45.11489" lon="7.06966">
        <ele>831</ele>
        <time>2019-07-08T20:06:55Z</time>
      </trkpt>
      <trkpt lat="45.11487" lon="7.06958">
        <ele>832</ele>
        <time>2019-07-08T20:06:56Z</time>
      </trkpt>
      <trkpt lat="45.11494" lon="7.06941">
        <ele>830</ele>
        <time>2019-07-08T20:06:59Z</time>
      </trkpt>
      <trkpt lat="45.11509" lon="7.06917">
        <ele>826</ele>
        <time>2019-07-08T20:07:03Z</time>
      </trkpt>
      <trkpt lat="45.11521" lon="7.06892">
        <ele>825</ele>
        <time>2019-07-08T20:07:07Z</time>
      </trkpt>
      <trkpt lat="45.1153" lon="7.06871">
        <ele>823</ele>
        <time>2019-07-08T20:07:10Z</time>
      </trkpt>
      <trkpt lat="45.11533" lon="7.06854">
        <ele>824</ele>
        <time>2019-07-08T20:07:12Z</time>
      </trkpt>
      <trkpt lat="45.11531" lon="7.0684">
        <ele>825</ele>
        <time>2019-07-08T20:07:14Z</time>
      </trkpt>
      <trkpt lat="45.11526" lon="7.06825">
        <ele>827</ele>
        <time>2019-07-08T20:07:16Z</time>
      </trkpt>
      <trkpt lat="45.11497" lon="7.06777">
        <ele>833</ele>
        <time>2019-07-08T20:07:24Z</time>
      </trkpt>
      <trkpt lat="45.11473" lon="7.06731">
        <ele>839</ele>
        <time>2019-07-08T20:07:31Z</time>
      </trkpt>
      <trkpt lat="45.11455" lon="7.06712">
        <ele>843</ele>
        <time>2019-07-08T20:07:35Z</time>
      </trkpt>
      <trkpt lat="45.11433" lon="7.06698">
        <ele>849</ele>
        <time>2019-07-08T20:07:39Z</time>
      </trkpt>
      <trkpt lat="45.11419" lon="7.06681">
        <ele>851</ele>
        <time>2019-07-08T20:07:42Z</time>
      </trkpt>
      <trkpt lat="45.11397" lon="7.06634">
        <ele>853</ele>
        <time>2019-07-08T20:07:49Z</time>
      </trkpt>
      <trkpt lat="45.11388" lon="7.06625">
        <ele>855</ele>
        <time>2019-07-08T20:07:51Z</time>
      </trkpt>
      <trkpt lat="45.11354" lon="7.06602">
        <ele>864</ele>
        <time>2019-07-08T20:07:58Z</time>
      </trkpt>
      <trkpt lat="45.11341" lon="7.06582">
        <ele>866</ele>
        <time>2019-07-08T20:08:02Z</time>
      </trkpt>
      <trkpt lat="45.11327" lon="7.06556">
        <ele>871</ele>
        <time>2019-07-08T20:08:06Z</time>
      </trkpt>
      <trkpt lat="45.11315" lon="7.0652">
        <ele>875</ele>
        <time>2019-07-08T20:08:11Z</time>
      </trkpt>
      <trkpt lat="45.11314" lon="7.06482">
        <ele>877</ele>
        <time>2019-07-08T20:08:15Z</time>
      </trkpt>
      <trkpt lat="45.11316" lon="7.06432">
        <ele>883</ele>
        <time>2019-07-08T20:08:22Z</time>
      </trkpt>
      <trkpt lat="45.1132" lon="7.06415">
        <ele>885</ele>
        <time>2019-07-08T20:08:24Z</time>
      </trkpt>
      <trkpt lat="45.11336" lon="7.06387">
        <ele>885</ele>
        <time>2019-07-08T20:08:28Z</time>
      </trkpt>
      <trkpt lat="45.11356" lon="7.06368">
        <ele>885</ele>
        <time>2019-07-08T20:08:33Z</time>
      </trkpt>
      <trkpt lat="45.11383" lon="7.06357">
        <ele>882</ele>
        <time>2019-07-08T20:08:38Z</time>
      </trkpt>
      <trkpt lat="45.1141" lon="7.06338">
        <ele>880</ele>
        <time>2019-07-08T20:08:43Z</time>
      </trkpt>
      <trkpt lat="45.11432" lon="7.06312">
        <ele>874</ele>
        <time>2019-07-08T20:08:48Z</time>
      </trkpt>
      <trkpt lat="45.11439" lon="7.06296">
        <ele>871</ele>
        <time>2019-07-08T20:08:51Z</time>
      </trkpt>
      <trkpt lat="45.11438" lon="7.06285">
        <ele>871</ele>
        <time>2019-07-08T20:08:52Z</time>
      </trkpt>
      <trkpt lat="45.11436" lon="7.06282">
        <ele>871</ele>
        <time>2019-07-08T20:08:52Z</time>
      </trkpt>
      <trkpt lat="45.11431" lon="7.06284">
        <ele>874</ele>
        <time>2019-07-08T20:08:53Z</time>
      </trkpt>
      <trkpt lat="45.11418" lon="7.063">
        <ele>879</ele>
        <time>2019-07-08T20:08:56Z</time>
      </trkpt>
      <trkpt lat="45.11408" lon="7.06306">
        <ele>882</ele>
        <time>2019-07-08T20:08:58Z</time>
      </trkpt>
      <trkpt lat="45.1139" lon="7.06307">
        <ele>886</ele>
        <time>2019-07-08T20:09:02Z</time>
      </trkpt>
      <trkpt lat="45.11363" lon="7.06303">
        <ele>894</ele>
        <time>2019-07-08T20:09:06Z</time>
      </trkpt>
      <trkpt lat="45.11268" lon="7.06316">
        <ele>910</ele>
        <time>2019-07-08T20:09:23Z</time>
      </trkpt>
      <trkpt lat="45.11239" lon="7.06316">
        <ele>918</ele>
        <time>2019-07-08T20:09:29Z</time>
      </trkpt>
      <trkpt lat="45.11224" lon="7.0632">
        <ele>924</ele>
        <time>2019-07-08T20:09:31Z</time>
      </trkpt>
      <trkpt lat="45.11217" lon="7.06329">
        <ele>925</ele>
        <time>2019-07-08T20:09:33Z</time>
      </trkpt>
      <trkpt lat="45.1122" lon="7.06354">
        <ele>922</ele>
        <time>2019-07-08T20:09:36Z</time>
      </trkpt>
      <trkpt lat="45.11223" lon="7.06367">
        <ele>920</ele>
        <time>2019-07-08T20:09:38Z</time>
      </trkpt>
      <trkpt lat="45.11223" lon="7.06378">
        <ele>919</ele>
        <time>2019-07-08T20:09:39Z</time>
      </trkpt>
      <trkpt lat="45.1122" lon="7.06386">
        <ele>920</ele>
        <time>2019-07-08T20:09:40Z</time>
      </trkpt>
      <trkpt lat="45.11213" lon="7.06386">
        <ele>923</ele>
        <time>2019-07-08T20:09:42Z</time>
      </trkpt>
      <trkpt lat="45.11209" lon="7.06377">
        <ele>926</ele>
        <time>2019-07-08T20:09:43Z</time>
      </trkpt>
      <trkpt lat="45.11192" lon="7.06336">
        <ele>936</ele>
        <time>2019-07-08T20:09:49Z</time>
      </trkpt>
      <trkpt lat="45.11184" lon="7.06299">
        <ele>943</ele>
        <time>2019-07-08T20:09:54Z</time>
      </trkpt>
      <trkpt lat="45.11186" lon="7.06268">
        <ele>945</ele>
        <time>2019-07-08T20:09:58Z</time>
      </trkpt>
      <trkpt lat="45.11196" lon="7.06245">
        <ele>945</ele>
        <time>2019-07-08T20:10:01Z</time>
      </trkpt>
      <trkpt lat="45.11216" lon="7.06224">
        <ele>944</ele>
        <time>2019-07-08T20:10:06Z</time>
      </trkpt>
      <trkpt lat="45.11271" lon="7.06204">
        <ele>932</ele>
        <time>2019-07-08T20:10:16Z</time>
      </trkpt>
      <trkpt lat="45.11288" lon="7.06195">
        <ele>928</ele>
        <time>2019-07-08T20:10:19Z</time>
      </trkpt>
      <trkpt lat="45.11294" lon="7.06187">
        <ele>928</ele>
        <time>2019-07-08T20:10:20Z</time>
      </trkpt>
      <trkpt lat="45.11295" lon="7.06179">
        <ele>928</ele>
        <time>2019-07-08T20:10:21Z</time>
      </trkpt>
      <trkpt lat="45.11294" lon="7.06172">
        <ele>929</ele>
        <time>2019-07-08T20:10:22Z</time>
      </trkpt>
      <trkpt lat="45.11287" lon="7.06168">
        <ele>933</ele>
        <time>2019-07-08T20:10:24Z</time>
      </trkpt>
      <trkpt lat="45.11269" lon="7.06167">
        <ele>940</ele>
        <time>2019-07-08T20:10:27Z</time>
      </trkpt>
      <trkpt lat="45.11237" lon="7.06168">
        <ele>951</ele>
        <time>2019-07-08T20:10:32Z</time>
      </trkpt>
      <trkpt lat="45.11206" lon="7.06176">
        <ele>958</ele>
        <time>2019-07-08T20:10:38Z</time>
      </trkpt>
      <trkpt lat="45.11182" lon="7.06192">
        <ele>962</ele>
        <time>2019-07-08T20:10:43Z</time>
      </trkpt>
      <trkpt lat="45.11167" lon="7.06206">
        <ele>963</ele>
        <time>2019-07-08T20:10:46Z</time>
      </trkpt>
      <trkpt lat="45.11156" lon="7.06226">
        <ele>966</ele>
        <time>2019-07-08T20:10:49Z</time>
      </trkpt>
      <trkpt lat="45.11151" lon="7.06231">
        <ele>968</ele>
        <time>2019-07-08T20:10:50Z</time>
      </trkpt>
      <trkpt lat="45.11148" lon="7.06228">
        <ele>971</ele>
        <time>2019-07-08T20:10:51Z</time>
      </trkpt>
      <trkpt lat="45.11146" lon="7.06222">
        <ele>974</ele>
        <time>2019-07-08T20:10:52Z</time>
      </trkpt>
      <trkpt lat="45.11152" lon="7.06207">
        <ele>973</ele>
        <time>2019-07-08T20:10:54Z</time>
      </trkpt>
      <trkpt lat="45.1117" lon="7.06175">
        <ele>970</ele>
        <time>2019-07-08T20:10:59Z</time>
      </trkpt>
      <trkpt lat="45.11194" lon="7.06138">
        <ele>968</ele>
        <time>2019-07-08T20:11:05Z</time>
      </trkpt>
      <trkpt lat="45.1121" lon="7.06092">
        <ele>969</ele>
        <time>2019-07-08T20:11:12Z</time>
      </trkpt>
      <trkpt lat="45.11215" lon="7.06072">
        <ele>968</ele>
        <time>2019-07-08T20:11:14Z</time>
      </trkpt>
      <trkpt lat="45.11215" lon="7.06058">
        <ele>968</ele>
        <time>2019-07-08T20:11:16Z</time>
      </trkpt>
      <trkpt lat="45.11213" lon="7.06047">
        <ele>968</ele>
        <time>2019-07-08T20:11:18Z</time>
      </trkpt>
      <trkpt lat="45.1121" lon="7.06041">
        <ele>969</ele>
        <time>2019-07-08T20:11:19Z</time>
      </trkpt>
      <trkpt lat="45.11205" lon="7.0604">
        <ele>971</ele>
        <time>2019-07-08T20:11:19Z</time>
      </trkpt>
      <trkpt lat="45.11201" lon="7.06043">
        <ele>973</ele>
        <time>2019-07-08T20:11:20Z</time>
      </trkpt>
      <trkpt lat="45.11197" lon="7.0605">
        <ele>974</ele>
        <time>2019-07-08T20:11:21Z</time>
      </trkpt>
      <trkpt lat="45.1119" lon="7.06086">
        <ele>977</ele>
        <time>2019-07-08T20:11:26Z</time>
      </trkpt>
      <trkpt lat="45.11175" lon="7.06115">
        <ele>979</ele>
        <time>2019-07-08T20:11:31Z</time>
      </trkpt>
      <trkpt lat="45.11163" lon="7.06129">
        <ele>981</ele>
        <time>2019-07-08T20:11:33Z</time>
      </trkpt>
      <trkpt lat="45.11152" lon="7.06151">
        <ele>983</ele>
        <time>2019-07-08T20:11:37Z</time>
      </trkpt>
      <trkpt lat="45.11144" lon="7.0616">
        <ele>986</ele>
        <time>2019-07-08T20:11:39Z</time>
      </trkpt>
      <trkpt lat="45.11139" lon="7.06161">
        <ele>989</ele>
        <time>2019-07-08T20:11:40Z</time>
      </trkpt>
      <trkpt lat="45.11136" lon="7.06156">
        <ele>991</ele>
        <time>2019-07-08T20:11:40Z</time>
      </trkpt>
      <trkpt lat="45.11137" lon="7.06146">
        <ele>991</ele>
        <time>2019-07-08T20:11:42Z</time>
      </trkpt>
      <trkpt lat="45.11148" lon="7.06114">
        <ele>990</ele>
        <time>2019-07-08T20:11:46Z</time>
      </trkpt>
      <trkpt lat="45.11152" lon="7.06085">
        <ele>992</ele>
        <time>2019-07-08T20:11:50Z</time>
      </trkpt>
      <trkpt lat="45.1115" lon="7.06049">
        <ele>992</ele>
        <time>2019-07-08T20:11:54Z</time>
      </trkpt>
      <trkpt lat="45.11145" lon="7.06036">
        <ele>993</ele>
        <time>2019-07-08T20:11:56Z</time>
      </trkpt>
      <trkpt lat="45.11139" lon="7.06033">
        <ele>995</ele>
        <time>2019-07-08T20:11:57Z</time>
      </trkpt>
      <trkpt lat="45.11133" lon="7.06035">
        <ele>997</ele>
        <time>2019-07-08T20:11:58Z</time>
      </trkpt>
      <trkpt lat="45.11127" lon="7.06062">
        <ele>1001</ele>
        <time>2019-07-08T20:12:02Z</time>
      </trkpt>
      <trkpt lat="45.11127" lon="7.0611">
        <ele>1000</ele>
        <time>2019-07-08T20:12:08Z</time>
      </trkpt>
      <trkpt lat="45.11121" lon="7.06144">
        <ele>1000</ele>
        <time>2019-07-08T20:12:12Z</time>
      </trkpt>
      <trkpt lat="45.11114" lon="7.06168">
        <ele>1001</ele>
        <time>2019-07-08T20:12:16Z</time>
      </trkpt>
      <trkpt lat="45.11109" lon="7.06177">
        <ele>1003</ele>
        <time>2019-07-08T20:12:17Z</time>
      </trkpt>
      <trkpt lat="45.11105" lon="7.06179">
        <ele>1005</ele>
        <time>2019-07-08T20:12:18Z</time>
      </trkpt>
      <trkpt lat="45.11103" lon="7.06174">
        <ele>1007</ele>
        <time>2019-07-08T20:12:19Z</time>
      </trkpt>
      <trkpt lat="45.11102" lon="7.06165">
        <ele>1008</ele>
        <time>2019-07-08T20:12:20Z</time>
      </trkpt>
      <trkpt lat="45.11106" lon="7.06088">
        <ele>1010</ele>
        <time>2019-07-08T20:12:29Z</time>
      </trkpt>
      <trkpt lat="45.11103" lon="7.06075">
        <ele>1011</ele>
        <time>2019-07-08T20:12:31Z</time>
      </trkpt>
      <trkpt lat="45.11096" lon="7.0607">
        <ele>1013</ele>
        <time>2019-07-08T20:12:33Z</time>
      </trkpt>
      <trkpt lat="45.1109" lon="7.06073">
        <ele>1016</ele>
        <time>2019-07-08T20:12:34Z</time>
      </trkpt>
      <trkpt lat="45.11086" lon="7.06169">
        <ele>1016</ele>
        <time>2019-07-08T20:12:46Z</time>
      </trkpt>
      <trkpt lat="45.11085" lon="7.06177">
        <ele>1017</ele>
        <time>2019-07-08T20:12:47Z</time>
      </trkpt>
      <trkpt lat="45.11082" lon="7.06179">
        <ele>1018</ele>
        <time>2019-07-08T20:12:47Z</time>
      </trkpt>
      <trkpt lat="45.11079" lon="7.06177">
        <ele>1020</ele>
        <time>2019-07-08T20:12:48Z</time>
      </trkpt>
      <trkpt lat="45.11074" lon="7.0616">
        <ele>1023</ele>
        <time>2019-07-08T20:12:50Z</time>
      </trkpt>
      <trkpt lat="45.11068" lon="7.06113">
        <ele>1026</ele>
        <time>2019-07-08T20:12:56Z</time>
      </trkpt>
      <trkpt lat="45.11068" lon="7.06097">
        <ele>1026</ele>
        <time>2019-07-08T20:12:58Z</time>
      </trkpt>
      <trkpt lat="45.11066" lon="7.0609">
        <ele>1026</ele>
        <time>2019-07-08T20:12:59Z</time>
      </trkpt>
      <trkpt lat="45.11061" lon="7.06086">
        <ele>1029</ele>
        <time>2019-07-08T20:13:00Z</time>
      </trkpt>
      <trkpt lat="45.11057" lon="7.06089">
        <ele>1030</ele>
        <time>2019-07-08T20:13:01Z</time>
      </trkpt>
      <trkpt lat="45.11055" lon="7.06127">
        <ele>1032</ele>
        <time>2019-07-08T20:13:06Z</time>
      </trkpt>
      <trkpt lat="45.11056" lon="7.06167">
        <ele>1031</ele>
        <time>2019-07-08T20:13:11Z</time>
      </trkpt>
      <trkpt lat="45.11059" lon="7.06187">
        <ele>1030</ele>
        <time>2019-07-08T20:13:13Z</time>
      </trkpt>
      <trkpt lat="45.11057" lon="7.06193">
        <ele>1031</ele>
        <time>2019-07-08T20:13:14Z</time>
      </trkpt>
      <trkpt lat="45.11053" lon="7.06193">
        <ele>1033</ele>
        <time>2019-07-08T20:13:15Z</time>
      </trkpt>
      <trkpt lat="45.11039" lon="7.0615">
        <ele>1039</ele>
        <time>2019-07-08T20:13:21Z</time>
      </trkpt>
      <trkpt lat="45.11029" lon="7.0611">
        <ele>1043</ele>
        <time>2019-07-08T20:13:26Z</time>
      </trkpt>
      <trkpt lat="45.11022" lon="7.06089">
        <ele>1046</ele>
        <time>2019-07-08T20:13:29Z</time>
      </trkpt>
      <trkpt lat="45.11018" lon="7.06083">
        <ele>1047</ele>
        <time>2019-07-08T20:13:30Z</time>
      </trkpt>
      <trkpt lat="45.11014" lon="7.06083">
        <ele>1049</ele>
        <time>2019-07-08T20:13:31Z</time>
      </trkpt>
      <trkpt lat="45.11011" lon="7.06088">
        <ele>1050</ele>
        <time>2019-07-08T20:13:32Z</time>
      </trkpt>
      <trkpt lat="45.11011" lon="7.06095">
        <ele>1051</ele>
        <time>2019-07-08T20:13:33Z</time>
      </trkpt>
      <trkpt lat="45.1102" lon="7.06145">
        <ele>1048</ele>
        <time>2019-07-08T20:13:39Z</time>
      </trkpt>
      <trkpt lat="45.11023" lon="7.06173">
        <ele>1048</ele>
        <time>2019-07-08T20:13:43Z</time>
      </trkpt>
      <trkpt lat="45.11023" lon="7.06202">
        <ele>1051</ele>
        <time>2019-07-08T20:13:46Z</time>
      </trkpt>
      <trkpt lat="45.11021" lon="7.0621">
        <ele>1052</ele>
        <time>2019-07-08T20:13:47Z</time>
      </trkpt>
      <trkpt lat="45.11014" lon="7.06209">
        <ele>1056</ele>
        <time>2019-07-08T20:13:49Z</time>
      </trkpt>
      <trkpt lat="45.11004" lon="7.0616">
        <ele>1057</ele>
        <time>2019-07-08T20:13:55Z</time>
      </trkpt>
      <trkpt lat="45.11" lon="7.06149">
        <ele>1058</ele>
        <time>2019-07-08T20:13:57Z</time>
      </trkpt>
      <trkpt lat="45.10996" lon="7.06148">
        <ele>1060</ele>
        <time>2019-07-08T20:13:57Z</time>
      </trkpt>
      <trkpt lat="45.10993" lon="7.0615">
        <ele>1061</ele>
        <time>2019-07-08T20:13:58Z</time>
      </trkpt>
      <trkpt lat="45.10992" lon="7.06157">
        <ele>1062</ele>
        <time>2019-07-08T20:13:59Z</time>
      </trkpt>
      <trkpt lat="45.10999" lon="7.06185">
        <ele>1062</ele>
        <time>2019-07-08T20:14:02Z</time>
      </trkpt>
      <trkpt lat="45.11001" lon="7.06202">
        <ele>1063</ele>
        <time>2019-07-08T20:14:05Z</time>
      </trkpt>
      <trkpt lat="45.10999" lon="7.06216">
        <ele>1066</ele>
        <time>2019-07-08T20:14:06Z</time>
      </trkpt>
      <trkpt lat="45.10996" lon="7.06216">
        <ele>1067</ele>
        <time>2019-07-08T20:14:07Z</time>
      </trkpt>
      <trkpt lat="45.10993" lon="7.06214">
        <ele>1069</ele>
        <time>2019-07-08T20:14:08Z</time>
      </trkpt>
      <trkpt lat="45.10991" lon="7.06209">
        <ele>1069</ele>
        <time>2019-07-08T20:14:08Z</time>
      </trkpt>
      <trkpt lat="45.10983" lon="7.06165">
        <ele>1067</ele>
        <time>2019-07-08T20:14:14Z</time>
      </trkpt>
      <trkpt lat="45.10979" lon="7.0616">
        <ele>1068</ele>
        <time>2019-07-08T20:14:15Z</time>
      </trkpt>
      <trkpt lat="45.10976" lon="7.06158">
        <ele>1069</ele>
        <time>2019-07-08T20:14:16Z</time>
      </trkpt>
      <trkpt lat="45.10972" lon="7.06161">
        <ele>1071</ele>
        <time>2019-07-08T20:14:16Z</time>
      </trkpt>
      <trkpt lat="45.10971" lon="7.06165">
        <ele>1072</ele>
        <time>2019-07-08T20:14:17Z</time>
      </trkpt>
      <trkpt lat="45.10975" lon="7.06196">
        <ele>1075</ele>
        <time>2019-07-08T20:14:21Z</time>
      </trkpt>
      <trkpt lat="45.10974" lon="7.06202">
        <ele>1076</ele>
        <time>2019-07-08T20:14:22Z</time>
      </trkpt>
      <trkpt lat="45.10968" lon="7.06208">
        <ele>1080</ele>
        <time>2019-07-08T20:14:23Z</time>
      </trkpt>
      <trkpt lat="45.10963" lon="7.06221">
        <ele>1084</ele>
        <time>2019-07-08T20:14:25Z</time>
      </trkpt>
      <trkpt lat="45.10961" lon="7.06239">
        <ele>1088</ele>
        <time>2019-07-08T20:14:27Z</time>
      </trkpt>
      <trkpt lat="45.10962" lon="7.06246">
        <ele>1089</ele>
        <time>2019-07-08T20:14:28Z</time>
      </trkpt>
      <trkpt lat="45.10969" lon="7.06256">
        <ele>1087</ele>
        <time>2019-07-08T20:14:30Z</time>
      </trkpt>
      <trkpt lat="45.10974" lon="7.06261">
        <ele>1085</ele>
        <time>2019-07-08T20:14:31Z</time>
      </trkpt>
      <trkpt lat="45.10991" lon="7.06268">
        <ele>1077</ele>
        <time>2019-07-08T20:14:34Z</time>
      </trkpt>
      <trkpt lat="45.10993" lon="7.06273">
        <ele>1077</ele>
        <time>2019-07-08T20:14:35Z</time>
      </trkpt>
      <trkpt lat="45.10992" lon="7.06277">
        <ele>1078</ele>
        <time>2019-07-08T20:14:35Z</time>
      </trkpt>
      <trkpt lat="45.1099" lon="7.0628">
        <ele>1080</ele>
        <time>2019-07-08T20:14:36Z</time>
      </trkpt>
      <trkpt lat="45.10984" lon="7.06281">
        <ele>1083</ele>
        <time>2019-07-08T20:14:37Z</time>
      </trkpt>
      <trkpt lat="45.10972" lon="7.0628">
        <ele>1090</ele>
        <time>2019-07-08T20:14:39Z</time>
      </trkpt>
      <trkpt lat="45.10959" lon="7.06274">
        <ele>1096</ele>
        <time>2019-07-08T20:14:41Z</time>
      </trkpt>
      <trkpt lat="45.10952" lon="7.06263">
        <ele>1097</ele>
        <time>2019-07-08T20:14:43Z</time>
      </trkpt>
      <trkpt lat="45.10927" lon="7.06182">
        <ele>1095</ele>
        <time>2019-07-08T20:14:54Z</time>
      </trkpt>
      <trkpt lat="45.10923" lon="7.06179">
        <ele>1096</ele>
        <time>2019-07-08T20:14:55Z</time>
      </trkpt>
      <trkpt lat="45.10918" lon="7.06182">
        <ele>1099</ele>
        <time>2019-07-08T20:14:56Z</time>
      </trkpt>
      <trkpt lat="45.10917" lon="7.06187">
        <ele>1101</ele>
        <time>2019-07-08T20:14:57Z</time>
      </trkpt>
      <trkpt lat="45.10927" lon="7.06218">
        <ele>1101</ele>
        <time>2019-07-08T20:15:01Z</time>
      </trkpt>
      <trkpt lat="45.10929" lon="7.06235">
        <ele>1103</ele>
        <time>2019-07-08T20:15:03Z</time>
      </trkpt>
      <trkpt lat="45.10929" lon="7.0624">
        <ele>1104</ele>
        <time>2019-07-08T20:15:04Z</time>
      </trkpt>
      <trkpt lat="45.10926" lon="7.06242">
        <ele>1106</ele>
        <time>2019-07-08T20:15:04Z</time>
      </trkpt>
      <trkpt lat="45.10922" lon="7.0624">
        <ele>1108</ele>
        <time>2019-07-08T20:15:05Z</time>
      </trkpt>
      <trkpt lat="45.10919" lon="7.06235">
        <ele>1108</ele>
        <time>2019-07-08T20:15:06Z</time>
      </trkpt>
      <trkpt lat="45.10914" lon="7.0622">
        <ele>1108</ele>
        <time>2019-07-08T20:15:08Z</time>
      </trkpt>
      <trkpt lat="45.10907" lon="7.06189">
        <ele>1104</ele>
        <time>2019-07-08T20:15:12Z</time>
      </trkpt>
      <trkpt lat="45.10902" lon="7.06186">
        <ele>1106</ele>
        <time>2019-07-08T20:15:13Z</time>
      </trkpt>
      <trkpt lat="45.10899" lon="7.0619">
        <ele>1108</ele>
        <time>2019-07-08T20:15:14Z</time>
      </trkpt>
      <trkpt lat="45.10901" lon="7.06211">
        <ele>1111</ele>
        <time>2019-07-08T20:15:17Z</time>
      </trkpt>
      <trkpt lat="45.10907" lon="7.0623">
        <ele>1112</ele>
        <time>2019-07-08T20:15:19Z</time>
      </trkpt>
      <trkpt lat="45.1092" lon="7.06258">
        <ele>1113</ele>
        <time>2019-07-08T20:15:23Z</time>
      </trkpt>
      <trkpt lat="45.10918" lon="7.06263">
        <ele>1116</ele>
        <time>2019-07-08T20:15:24Z</time>
      </trkpt>
      <trkpt lat="45.10915" lon="7.06265">
        <ele>1118</ele>
        <time>2019-07-08T20:15:25Z</time>
      </trkpt>
      <trkpt lat="45.10912" lon="7.06264">
        <ele>1118</ele>
        <time>2019-07-08T20:15:25Z</time>
      </trkpt>
      <trkpt lat="45.10882" lon="7.06232">
        <ele>1121</ele>
        <time>2019-07-08T20:15:32Z</time>
      </trkpt>
      <trkpt lat="45.10869" lon="7.06196">
        <ele>1119</ele>
        <time>2019-07-08T20:15:37Z</time>
      </trkpt>
      <trkpt lat="45.10865" lon="7.0619">
        <ele>1120</ele>
        <time>2019-07-08T20:15:38Z</time>
      </trkpt>
      <trkpt lat="45.10861" lon="7.06188">
        <ele>1121</ele>
        <time>2019-07-08T20:15:39Z</time>
      </trkpt>
      <trkpt lat="45.10858" lon="7.06195">
        <ele>1123</ele>
        <time>2019-07-08T20:15:40Z</time>
      </trkpt>
      <trkpt lat="45.10859" lon="7.06203">
        <ele>1124</ele>
        <time>2019-07-08T20:15:41Z</time>
      </trkpt>
      <trkpt lat="45.10867" lon="7.06227">
        <ele>1126</ele>
        <time>2019-07-08T20:15:44Z</time>
      </trkpt>
      <trkpt lat="45.10875" lon="7.06246">
        <ele>1126</ele>
        <time>2019-07-08T20:15:47Z</time>
      </trkpt>
      <trkpt lat="45.10886" lon="7.06264">
        <ele>1128</ele>
        <time>2019-07-08T20:15:50Z</time>
      </trkpt>
      <trkpt lat="45.10899" lon="7.0628">
        <ele>1129</ele>
        <time>2019-07-08T20:15:53Z</time>
      </trkpt>
      <trkpt lat="45.10907" lon="7.06286">
        <ele>1128</ele>
        <time>2019-07-08T20:15:55Z</time>
      </trkpt>
      <trkpt lat="45.10908" lon="7.0629">
        <ele>1129</ele>
        <time>2019-07-08T20:15:55Z</time>
      </trkpt>
      <trkpt lat="45.10906" lon="7.06294">
        <ele>1131</ele>
        <time>2019-07-08T20:15:56Z</time>
      </trkpt>
      <trkpt lat="45.10891" lon="7.0629">
        <ele>1136</ele>
        <time>2019-07-08T20:15:58Z</time>
      </trkpt>
      <trkpt lat="45.10878" lon="7.0628">
        <ele>1137</ele>
        <time>2019-07-08T20:16:01Z</time>
      </trkpt>
      <trkpt lat="45.10855" lon="7.06253">
        <ele>1135</ele>
        <time>2019-07-08T20:16:06Z</time>
      </trkpt>
      <trkpt lat="45.10826" lon="7.06232">
        <ele>1141</ele>
        <time>2019-07-08T20:16:12Z</time>
      </trkpt>
      <trkpt lat="45.10802" lon="7.06225">
        <ele>1146</ele>
        <time>2019-07-08T20:16:17Z</time>
      </trkpt>
      <trkpt lat="45.10788" lon="7.06217">
        <ele>1149</ele>
        <time>2019-07-08T20:16:19Z</time>
      </trkpt>
      <trkpt lat="45.10778" lon="7.06203">
        <ele>1150</ele>
        <time>2019-07-08T20:16:22Z</time>
      </trkpt>
      <trkpt lat="45.10773" lon="7.06182">
        <ele>1148</ele>
        <time>2019-07-08T20:16:25Z</time>
      </trkpt>
      <trkpt lat="45.10768" lon="7.06176">
        <ele>1149</ele>
        <time>2019-07-08T20:16:26Z</time>
      </trkpt>
      <trkpt lat="45.10763" lon="7.06176">
        <ele>1150</ele>
        <time>2019-07-08T20:16:27Z</time>
      </trkpt>
      <trkpt lat="45.1076" lon="7.0618">
        <ele>1152</ele>
        <time>2019-07-08T20:16:27Z</time>
      </trkpt>
      <trkpt lat="45.10752" lon="7.06193">
        <ele>1156</ele>
        <time>2019-07-08T20:16:29Z</time>
      </trkpt>
      <trkpt lat="45.10751" lon="7.06204">
        <ele>1158</ele>
        <time>2019-07-08T20:16:31Z</time>
      </trkpt>
      <trkpt lat="45.10752" lon="7.06216">
        <ele>1160</ele>
        <time>2019-07-08T20:16:32Z</time>
      </trkpt>
      <trkpt lat="45.10764" lon="7.06241">
        <ele>1160</ele>
        <time>2019-07-08T20:16:36Z</time>
      </trkpt>
      <trkpt lat="45.10772" lon="7.0625">
        <ele>1159</ele>
        <time>2019-07-08T20:16:38Z</time>
      </trkpt>
      <trkpt lat="45.1079" lon="7.06259">
        <ele>1158</ele>
        <time>2019-07-08T20:16:41Z</time>
      </trkpt>
      <trkpt lat="45.10824" lon="7.06269">
        <ele>1152</ele>
        <time>2019-07-08T20:16:48Z</time>
      </trkpt>
      <trkpt lat="45.10827" lon="7.06273">
        <ele>1153</ele>
        <time>2019-07-08T20:16:48Z</time>
      </trkpt>
      <trkpt lat="45.10827" lon="7.06277">
        <ele>1155</ele>
        <time>2019-07-08T20:16:49Z</time>
      </trkpt>
      <trkpt lat="45.10825" lon="7.06282">
        <ele>1158</ele>
        <time>2019-07-08T20:16:50Z</time>
      </trkpt>
      <trkpt lat="45.10788" lon="7.06275">
        <ele>1165</ele>
        <time>2019-07-08T20:16:56Z</time>
      </trkpt>
      <trkpt lat="45.10766" lon="7.06275">
        <ele>1170</ele>
        <time>2019-07-08T20:17:00Z</time>
      </trkpt>
      <trkpt lat="45.10742" lon="7.0627">
        <ele>1176</ele>
        <time>2019-07-08T20:17:04Z</time>
      </trkpt>
      <trkpt lat="45.10726" lon="7.06263">
        <ele>1179</ele>
        <time>2019-07-08T20:17:07Z</time>
      </trkpt>
      <trkpt lat="45.10707" lon="7.0625">
        <ele>1182</ele>
        <time>2019-07-08T20:17:11Z</time>
      </trkpt>
      <trkpt lat="45.10699" lon="7.06242">
        <ele>1183</ele>
        <time>2019-07-08T20:17:13Z</time>
      </trkpt>
      <trkpt lat="45.10688" lon="7.0622">
        <ele>1183</ele>
        <time>2019-07-08T20:17:16Z</time>
      </trkpt>
      <trkpt lat="45.10673" lon="7.06126">
        <ele>1182</ele>
        <time>2019-07-08T20:17:28Z</time>
      </trkpt>
      <trkpt lat="45.1067" lon="7.06119">
        <ele>1184</ele>
        <time>2019-07-08T20:17:29Z</time>
      </trkpt>
      <trkpt lat="45.10665" lon="7.06115">
        <ele>1185</ele>
        <time>2019-07-08T20:17:30Z</time>
      </trkpt>
      <trkpt lat="45.10662" lon="7.06117">
        <ele>1187</ele>
        <time>2019-07-08T20:17:31Z</time>
      </trkpt>
      <trkpt lat="45.1066" lon="7.06125">
        <ele>1187</ele>
        <time>2019-07-08T20:17:32Z</time>
      </trkpt>
      <trkpt lat="45.10666" lon="7.06156">
        <ele>1182</ele>
        <time>2019-07-08T20:17:36Z</time>
      </trkpt>
      <trkpt lat="45.10667" lon="7.06169">
        <ele>1181</ele>
        <time>2019-07-08T20:17:38Z</time>
      </trkpt>
      <trkpt lat="45.10664" lon="7.06174">
        <ele>1184</ele>
        <time>2019-07-08T20:17:39Z</time>
      </trkpt>
      <trkpt lat="45.10661" lon="7.06175">
        <ele>1185</ele>
        <time>2019-07-08T20:17:39Z</time>
      </trkpt>
      <trkpt lat="45.10659" lon="7.06173">
        <ele>1186</ele>
        <time>2019-07-08T20:17:40Z</time>
      </trkpt>
      <trkpt lat="45.10656" lon="7.06162">
        <ele>1187</ele>
        <time>2019-07-08T20:17:41Z</time>
      </trkpt>
      <trkpt lat="45.10653" lon="7.06122">
        <ele>1190</ele>
        <time>2019-07-08T20:17:46Z</time>
      </trkpt>
      <trkpt lat="45.10639" lon="7.06086">
        <ele>1198</ele>
        <time>2019-07-08T20:17:51Z</time>
      </trkpt>
      <trkpt lat="45.10635" lon="7.06081">
        <ele>1201</ele>
        <time>2019-07-08T20:17:52Z</time>
      </trkpt>
      <trkpt lat="45.10631" lon="7.06082">
        <ele>1202</ele>
        <time>2019-07-08T20:17:53Z</time>
      </trkpt>
      <trkpt lat="45.10629" lon="7.06087">
        <ele>1202</ele>
        <time>2019-07-08T20:17:54Z</time>
      </trkpt>
      <trkpt lat="45.10629" lon="7.06095">
        <ele>1202</ele>
        <time>2019-07-08T20:17:55Z</time>
      </trkpt>
      <trkpt lat="45.10635" lon="7.06125">
        <ele>1198</ele>
        <time>2019-07-08T20:17:59Z</time>
      </trkpt>
      <trkpt lat="45.10636" lon="7.06143">
        <ele>1197</ele>
        <time>2019-07-08T20:18:01Z</time>
      </trkpt>
      <trkpt lat="45.10633" lon="7.0616">
        <ele>1198</ele>
        <time>2019-07-08T20:18:03Z</time>
      </trkpt>
      <trkpt lat="45.10624" lon="7.06187">
        <ele>1205</ele>
        <time>2019-07-08T20:18:07Z</time>
      </trkpt>
      <trkpt lat="45.10621" lon="7.06204">
        <ele>1210</ele>
        <time>2019-07-08T20:18:09Z</time>
      </trkpt>
      <trkpt lat="45.10621" lon="7.06213">
        <ele>1211</ele>
        <time>2019-07-08T20:18:10Z</time>
      </trkpt>
      <trkpt lat="45.10627" lon="7.0623">
        <ele>1211</ele>
        <time>2019-07-08T20:18:12Z</time>
      </trkpt>
      <trkpt lat="45.10636" lon="7.06249">
        <ele>1210</ele>
        <time>2019-07-08T20:18:15Z</time>
      </trkpt>
      <trkpt lat="45.10684" lon="7.06329">
        <ele>1221</ele>
        <time>2019-07-08T20:18:29Z</time>
      </trkpt>
      <trkpt lat="45.10707" lon="7.06355">
        <ele>1224</ele>
        <time>2019-07-08T20:18:34Z</time>
      </trkpt>
      <trkpt lat="45.1072" lon="7.06363">
        <ele>1223</ele>
        <time>2019-07-08T20:18:36Z</time>
      </trkpt>
      <trkpt lat="45.10742" lon="7.06375">
        <ele>1221</ele>
        <time>2019-07-08T20:18:41Z</time>
      </trkpt>
      <trkpt lat="45.10763" lon="7.06382">
        <ele>1218</ele>
        <time>2019-07-08T20:18:44Z</time>
      </trkpt>
      <trkpt lat="45.10814" lon="7.06394">
        <ele>1206</ele>
        <time>2019-07-08T20:18:54Z</time>
      </trkpt>
      <trkpt lat="45.10824" lon="7.064">
        <ele>1205</ele>
        <time>2019-07-08T20:18:55Z</time>
      </trkpt>
      <trkpt lat="45.1083" lon="7.06407">
        <ele>1206</ele>
        <time>2019-07-08T20:18:57Z</time>
      </trkpt>
      <trkpt lat="45.10834" lon="7.06417">
        <ele>1208</ele>
        <time>2019-07-08T20:18:58Z</time>
      </trkpt>
      <trkpt lat="45.10835" lon="7.06429">
        <ele>1206</ele>
        <time>2019-07-08T20:19:00Z</time>
      </trkpt>
      <trkpt lat="45.10832" lon="7.0644">
        <ele>1208</ele>
        <time>2019-07-08T20:19:01Z</time>
      </trkpt>
      <trkpt lat="45.10823" lon="7.06458">
        <ele>1212</ele>
        <time>2019-07-08T20:19:04Z</time>
      </trkpt>
      <trkpt lat="45.10798" lon="7.06484">
        <ele>1229</ele>
        <time>2019-07-08T20:19:10Z</time>
      </trkpt>
      <trkpt lat="45.1079" lon="7.06503">
        <ele>1237</ele>
        <time>2019-07-08T20:19:12Z</time>
      </trkpt>
      <trkpt lat="45.10787" lon="7.06535">
        <ele>1240</ele>
        <time>2019-07-08T20:19:16Z</time>
      </trkpt>
      <trkpt lat="45.10759" lon="7.06642">
        <ele>1268</ele>
        <time>2019-07-08T20:19:31Z</time>
      </trkpt>
      <trkpt lat="45.1076" lon="7.0665">
        <ele>1268</ele>
        <time>2019-07-08T20:19:32Z</time>
      </trkpt>
      <trkpt lat="45.10772" lon="7.06677">
        <ele>1262</ele>
        <time>2019-07-08T20:19:36Z</time>
      </trkpt>
      <trkpt lat="45.10789" lon="7.06695">
        <ele>1252</ele>
        <time>2019-07-08T20:19:40Z</time>
      </trkpt>
      <trkpt lat="45.10794" lon="7.06704">
        <ele>1250</ele>
        <time>2019-07-08T20:19:41Z</time>
      </trkpt>
      <trkpt lat="45.10797" lon="7.06713">
        <ele>1249</ele>
        <time>2019-07-08T20:19:42Z</time>
      </trkpt>
      <trkpt lat="45.10798" lon="7.06734">
        <ele>1252</ele>
        <time>2019-07-08T20:19:45Z</time>
      </trkpt>
      <trkpt lat="45.10796" lon="7.06809">
        <ele>1265</ele>
        <time>2019-07-08T20:19:54Z</time>
      </trkpt>
      <trkpt lat="45.10802" lon="7.06849">
        <ele>1266</ele>
        <time>2019-07-08T20:19:59Z</time>
      </trkpt>
      <trkpt lat="45.10805" lon="7.06896">
        <ele>1270</ele>
        <time>2019-07-08T20:20:05Z</time>
      </trkpt>
      <trkpt lat="45.10805" lon="7.06933">
        <ele>1275</ele>
        <time>2019-07-08T20:20:10Z</time>
      </trkpt>
      <trkpt lat="45.1081" lon="7.07014">
        <ele>1281</ele>
        <time>2019-07-08T20:20:20Z</time>
      </trkpt>
      <trkpt lat="45.10808" lon="7.07024">
        <ele>1284</ele>
        <time>2019-07-08T20:20:22Z</time>
      </trkpt>
      <trkpt lat="45.10798" lon="7.0704">
        <ele>1294</ele>
        <time>2019-07-08T20:20:24Z</time>
      </trkpt>
      <trkpt lat="45.10795" lon="7.0705">
        <ele>1298</ele>
        <time>2019-07-08T20:20:26Z</time>
      </trkpt>
      <trkpt lat="45.10797" lon="7.07065">
        <ele>1298</ele>
        <time>2019-07-08T20:20:27Z</time>
      </trkpt>
      <trkpt lat="45.10803" lon="7.07089">
        <ele>1296</ele>
        <time>2019-07-08T20:20:31Z</time>
      </trkpt>
      <trkpt lat="45.10815" lon="7.07113">
        <ele>1289</ele>
        <time>2019-07-08T20:20:34Z</time>
      </trkpt>
      <trkpt lat="45.1082" lon="7.07126">
        <ele>1287</ele>
        <time>2019-07-08T20:20:36Z</time>
      </trkpt>
      <trkpt lat="45.1082" lon="7.07144">
        <ele>1289</ele>
        <time>2019-07-08T20:20:39Z</time>
      </trkpt>
      <trkpt lat="45.10815" lon="7.07258">
        <ele>1304</ele>
        <time>2019-07-08T20:20:53Z</time>
      </trkpt>
      <trkpt lat="45.10806" lon="7.07335">
        <ele>1314</ele>
        <time>2019-07-08T20:21:03Z</time>
      </trkpt>
      <trkpt lat="45.108" lon="7.07424">
        <ele>1311</ele>
        <time>2019-07-08T20:21:14Z</time>
      </trkpt>
      <trkpt lat="45.108" lon="7.07469">
        <ele>1310</ele>
        <time>2019-07-08T20:21:20Z</time>
      </trkpt>
      <trkpt lat="45.10798" lon="7.07471">
        <ele>1311</ele>
        <time>2019-07-08T20:21:20Z</time>
      </trkpt>
      <trkpt lat="45.10796" lon="7.07469">
        <ele>1312</ele>
        <time>2019-07-08T20:21:20Z</time>
      </trkpt>
      <trkpt lat="45.10791" lon="7.07457">
        <ele>1315</ele>
        <time>2019-07-08T20:21:22Z</time>
      </trkpt>
      <trkpt lat="45.10786" lon="7.07435">
        <ele>1319</ele>
        <time>2019-07-08T20:21:25Z</time>
      </trkpt>
      <trkpt lat="45.10784" lon="7.07386">
        <ele>1324</ele>
        <time>2019-07-08T20:21:31Z</time>
      </trkpt>
      <trkpt lat="45.10787" lon="7.07324">
        <ele>1327</ele>
        <time>2019-07-08T20:21:39Z</time>
      </trkpt>
      <trkpt lat="45.10779" lon="7.07286">
        <ele>1330</ele>
        <time>2019-07-08T20:21:44Z</time>
      </trkpt>
      <trkpt lat="45.10763" lon="7.07237">
        <ele>1337</ele>
        <time>2019-07-08T20:21:51Z</time>
      </trkpt>
      <trkpt lat="45.10744" lon="7.07202">
        <ele>1344</ele>
        <time>2019-07-08T20:21:56Z</time>
      </trkpt>
      <trkpt lat="45.10722" lon="7.07157">
        <ele>1359</ele>
        <time>2019-07-08T20:22:03Z</time>
      </trkpt>
      <trkpt lat="45.10715" lon="7.07134">
        <ele>1366</ele>
        <time>2019-07-08T20:22:06Z</time>
      </trkpt>
      <trkpt lat="45.10713" lon="7.07115">
        <ele>1368</ele>
        <time>2019-07-08T20:22:09Z</time>
      </trkpt>
      <trkpt lat="45.10713" lon="7.07099">
        <ele>1369</ele>
        <time>2019-07-08T20:22:11Z</time>
      </trkpt>
      <trkpt lat="45.10716" lon="7.07086">
        <ele>1367</ele>
        <time>2019-07-08T20:22:12Z</time>
      </trkpt>
      <trkpt lat="45.10733" lon="7.07064">
        <ele>1350</ele>
        <time>2019-07-08T20:22:17Z</time>
      </trkpt>
      <trkpt lat="45.10735" lon="7.07056">
        <ele>1347</ele>
        <time>2019-07-08T20:22:18Z</time>
      </trkpt>
      <trkpt lat="45.10735" lon="7.07049">
        <ele>1347</ele>
        <time>2019-07-08T20:22:19Z</time>
      </trkpt>
      <trkpt lat="45.10727" lon="7.07027">
        <ele>1352</ele>
        <time>2019-07-08T20:22:22Z</time>
      </trkpt>
      <trkpt lat="45.10709" lon="7.06937">
        <ele>1358</ele>
        <time>2019-07-08T20:22:33Z</time>
      </trkpt>
      <trkpt lat="45.10698" lon="7.06912">
        <ele>1364</ele>
        <time>2019-07-08T20:22:37Z</time>
      </trkpt>
      <trkpt lat="45.10671" lon="7.06814">
        <ele>1367</ele>
        <time>2019-07-08T20:22:50Z</time>
      </trkpt>
      <trkpt lat="45.10665" lon="7.06802">
        <ele>1369</ele>
        <time>2019-07-08T20:22:52Z</time>
      </trkpt>
      <trkpt lat="45.10659" lon="7.06794">
        <ele>1372</ele>
        <time>2019-07-08T20:22:54Z</time>
      </trkpt>
      <trkpt lat="45.10638" lon="7.06781">
        <ele>1384</ele>
        <time>2019-07-08T20:22:58Z</time>
      </trkpt>
      <trkpt lat="45.10631" lon="7.06773">
        <ele>1387</ele>
        <time>2019-07-08T20:22:59Z</time>
      </trkpt>
      <trkpt lat="45.10615" lon="7.06748">
        <ele>1394</ele>
        <time>2019-07-08T20:23:04Z</time>
      </trkpt>
      <trkpt lat="45.10606" lon="7.06724">
        <ele>1396</ele>
        <time>2019-07-08T20:23:07Z</time>
      </trkpt>
      <trkpt lat="45.10602" lon="7.06702">
        <ele>1394</ele>
        <time>2019-07-08T20:23:10Z</time>
      </trkpt>
      <trkpt lat="45.10603" lon="7.06684">
        <ele>1390</ele>
        <time>2019-07-08T20:23:12Z</time>
      </trkpt>
      <trkpt lat="45.10616" lon="7.06612">
        <ele>1370</ele>
        <time>2019-07-08T20:23:21Z</time>
      </trkpt>
      <trkpt lat="45.10615" lon="7.06606">
        <ele>1370</ele>
        <time>2019-07-08T20:23:22Z</time>
      </trkpt>
      <trkpt lat="45.10596" lon="7.06589">
        <ele>1379</ele>
        <time>2019-07-08T20:23:26Z</time>
      </trkpt>
      <trkpt lat="45.10559" lon="7.06566">
        <ele>1388</ele>
        <time>2019-07-08T20:23:33Z</time>
      </trkpt>
      <trkpt lat="45.10543" lon="7.06543">
        <ele>1383</ele>
        <time>2019-07-08T20:23:37Z</time>
      </trkpt>
      <trkpt lat="45.10537" lon="7.06537">
        <ele>1382</ele>
        <time>2019-07-08T20:23:39Z</time>
      </trkpt>
      <trkpt lat="45.10528" lon="7.06534">
        <ele>1384</ele>
        <time>2019-07-08T20:23:40Z</time>
      </trkpt>
      <trkpt lat="45.10511" lon="7.06535">
        <ele>1392</ele>
        <time>2019-07-08T20:23:43Z</time>
      </trkpt>
      <trkpt lat="45.10495" lon="7.06533">
        <ele>1397</ele>
        <time>2019-07-08T20:23:46Z</time>
      </trkpt>
      <trkpt lat="45.10478" lon="7.06536">
        <ele>1402</ele>
        <time>2019-07-08T20:23:49Z</time>
      </trkpt>
      <trkpt lat="45.10416" lon="7.06525">
        <ele>1411</ele>
        <time>2019-07-08T20:24:00Z</time>
      </trkpt>
      <trkpt lat="45.10317" lon="7.0652">
        <ele>1430</ele>
        <time>2019-07-08T20:24:18Z</time>
      </trkpt>
      <trkpt lat="45.10309" lon="7.06517">
        <ele>1432</ele>
        <time>2019-07-08T20:24:20Z</time>
      </trkpt>
      <trkpt lat="45.1027" lon="7.06472">
        <ele>1429</ele>
        <time>2019-07-08T20:24:28Z</time>
      </trkpt>
      <trkpt lat="45.10264" lon="7.06468">
        <ele>1430</ele>
        <time>2019-07-08T20:24:30Z</time>
      </trkpt>
      <trkpt lat="45.10238" lon="7.06464">
        <ele>1439</ele>
        <time>2019-07-08T20:24:34Z</time>
      </trkpt>
      <trkpt lat="45.10234" lon="7.06462">
        <ele>1439</ele>
        <time>2019-07-08T20:24:35Z</time>
      </trkpt>
      <trkpt lat="45.10197" lon="7.0642">
        <ele>1438</ele>
        <time>2019-07-08T20:24:43Z</time>
      </trkpt>
      <trkpt lat="45.10181" lon="7.06394">
        <ele>1436</ele>
        <time>2019-07-08T20:24:48Z</time>
      </trkpt>
      <trkpt lat="45.10173" lon="7.06387">
        <ele>1438</ele>
        <time>2019-07-08T20:24:49Z</time>
      </trkpt>
      <trkpt lat="45.10166" lon="7.06384">
        <ele>1440</ele>
        <time>2019-07-08T20:24:51Z</time>
      </trkpt>
      <trkpt lat="45.1016" lon="7.06384">
        <ele>1440</ele>
        <time>2019-07-08T20:24:52Z</time>
      </trkpt>
      <trkpt lat="45.10139" lon="7.06394">
        <ele>1445</ele>
        <time>2019-07-08T20:24:56Z</time>
      </trkpt>
      <trkpt lat="45.10132" lon="7.06395">
        <ele>1446</ele>
        <time>2019-07-08T20:24:57Z</time>
      </trkpt>
      <trkpt lat="45.10109" lon="7.06384">
        <ele>1447</ele>
        <time>2019-07-08T20:25:01Z</time>
      </trkpt>
      <trkpt lat="45.10083" lon="7.06383">
        <ele>1450</ele>
        <time>2019-07-08T20:25:06Z</time>
      </trkpt>
      <trkpt lat="45.10075" lon="7.06381">
        <ele>1449</ele>
        <time>2019-07-08T20:25:07Z</time>
      </trkpt>
      <trkpt lat="45.10068" lon="7.06376">
        <ele>1448</ele>
        <time>2019-07-08T20:25:09Z</time>
      </trkpt>
      <trkpt lat="45.10043" lon="7.06351">
        <ele>1450</ele>
        <time>2019-07-08T20:25:14Z</time>
      </trkpt>
      <trkpt lat="45.10025" lon="7.06339">
        <ele>1454</ele>
        <time>2019-07-08T20:25:18Z</time>
      </trkpt>
      <trkpt lat="45.10011" lon="7.06333">
        <ele>1458</ele>
        <time>2019-07-08T20:25:20Z</time>
      </trkpt>
      <trkpt lat="45.10003" lon="7.06334">
        <ele>1458</ele>
        <time>2019-07-08T20:25:22Z</time>
      </trkpt>
      <trkpt lat="45.09962" lon="7.06322">
        <ele>1459</ele>
        <time>2019-07-08T20:25:29Z</time>
      </trkpt>
      <trkpt lat="45.09945" lon="7.06313">
        <ele>1461</ele>
        <time>2019-07-08T20:25:33Z</time>
      </trkpt>
      <trkpt lat="45.09939" lon="7.06308">
        <ele>1462</ele>
        <time>2019-07-08T20:25:34Z</time>
      </trkpt>
      <trkpt lat="45.09929" lon="7.06284">
        <ele>1471</ele>
        <time>2019-07-08T20:25:37Z</time>
      </trkpt>
      <trkpt lat="45.09921" lon="7.0627">
        <ele>1477</ele>
        <time>2019-07-08T20:25:40Z</time>
      </trkpt>
      <trkpt lat="45.09908" lon="7.06255">
        <ele>1482</ele>
        <time>2019-07-08T20:25:43Z</time>
      </trkpt>
      <trkpt lat="45.0987" lon="7.06242">
        <ele>1481</ele>
        <time>2019-07-08T20:25:49Z</time>
      </trkpt>
      <trkpt lat="45.09821" lon="7.06198">
        <ele>1489</ele>
        <time>2019-07-08T20:26:00Z</time>
      </trkpt>
      <trkpt lat="45.09792" lon="7.06176">
        <ele>1494</ele>
        <time>2019-07-08T20:26:06Z</time>
      </trkpt>
      <trkpt lat="45.09772" lon="7.06165">
        <ele>1496</ele>
        <time>2019-07-08T20:26:09Z</time>
      </trkpt>
      <trkpt lat="45.09728" lon="7.06134">
        <ele>1506</ele>
        <time>2019-07-08T20:26:18Z</time>
      </trkpt>
      <trkpt lat="45.09707" lon="7.06133">
        <ele>1508</ele>
        <time>2019-07-08T20:26:22Z</time>
      </trkpt>
      <trkpt lat="45.09695" lon="7.06136">
        <ele>1507</ele>
        <time>2019-07-08T20:26:24Z</time>
      </trkpt>
      <trkpt lat="45.09671" lon="7.0615">
        <ele>1503</ele>
        <time>2019-07-08T20:26:29Z</time>
      </trkpt>
      <trkpt lat="45.09666" lon="7.06151">
        <ele>1503</ele>
        <time>2019-07-08T20:26:30Z</time>
      </trkpt>
      <trkpt lat="45.09658" lon="7.06149">
        <ele>1505</ele>
        <time>2019-07-08T20:26:31Z</time>
      </trkpt>
      <trkpt lat="45.09652" lon="7.06144">
        <ele>1508</ele>
        <time>2019-07-08T20:26:32Z</time>
      </trkpt>
      <trkpt lat="45.0965" lon="7.06135">
        <ele>1512</ele>
        <time>2019-07-08T20:26:33Z</time>
      </trkpt>
      <trkpt lat="45.09653" lon="7.0613">
        <ele>1514</ele>
        <time>2019-07-08T20:26:34Z</time>
      </trkpt>
      <trkpt lat="45.09705" lon="7.06088">
        <ele>1525</ele>
        <time>2019-07-08T20:26:45Z</time>
      </trkpt>
      <trkpt lat="45.09718" lon="7.06086">
        <ele>1525</ele>
        <time>2019-07-08T20:26:47Z</time>
      </trkpt>
      <trkpt lat="45.09768" lon="7.06091">
        <ele>1521</ele>
        <time>2019-07-08T20:26:56Z</time>
      </trkpt>
      <trkpt lat="45.09776" lon="7.06085">
        <ele>1523</ele>
        <time>2019-07-08T20:26:58Z</time>
      </trkpt>
      <trkpt lat="45.09793" lon="7.06069">
        <ele>1528</ele>
        <time>2019-07-08T20:27:01Z</time>
      </trkpt>
      <trkpt lat="45.09796" lon="7.06059">
        <ele>1531</ele>
        <time>2019-07-08T20:27:03Z</time>
      </trkpt>
      <trkpt lat="45.09795" lon="7.06054">
        <ele>1533</ele>
        <time>2019-07-08T20:27:03Z</time>
      </trkpt>
      <trkpt lat="45.09788" lon="7.06051">
        <ele>1533</ele>
        <time>2019-07-08T20:27:05Z</time>
      </trkpt>
      <trkpt lat="45.09765" lon="7.06062">
        <ele>1529</ele>
        <time>2019-07-08T20:27:09Z</time>
      </trkpt>
      <trkpt lat="45.09753" lon="7.06063">
        <ele>1529</ele>
        <time>2019-07-08T20:27:11Z</time>
      </trkpt>
      <trkpt lat="45.0971" lon="7.06046">
        <ele>1536</ele>
        <time>2019-07-08T20:27:19Z</time>
      </trkpt>
      <trkpt lat="45.09694" lon="7.06043">
        <ele>1538</ele>
        <time>2019-07-08T20:27:22Z</time>
      </trkpt>
      <trkpt lat="45.09653" lon="7.06053">
        <ele>1540</ele>
        <time>2019-07-08T20:27:29Z</time>
      </trkpt>
      <trkpt lat="45.09637" lon="7.06051">
        <ele>1543</ele>
        <time>2019-07-08T20:27:32Z</time>
      </trkpt>
      <trkpt lat="45.09589" lon="7.06039">
        <ele>1553</ele>
        <time>2019-07-08T20:27:41Z</time>
      </trkpt>
      <trkpt lat="45.09581" lon="7.0604">
        <ele>1554</ele>
        <time>2019-07-08T20:27:42Z</time>
      </trkpt>
      <trkpt lat="45.09531" lon="7.06048">
        <ele>1566</ele>
        <time>2019-07-08T20:27:51Z</time>
      </trkpt>
      <trkpt lat="45.09471" lon="7.06086">
        <ele>1568</ele>
        <time>2019-07-08T20:28:03Z</time>
      </trkpt>
      <trkpt lat="45.09381" lon="7.06103">
        <ele>1574</ele>
        <time>2019-07-08T20:28:19Z</time>
      </trkpt>
      <trkpt lat="45.09375" lon="7.06102">
        <ele>1575</ele>
        <time>2019-07-08T20:28:20Z</time>
      </trkpt>
      <trkpt lat="45.09355" lon="7.06091">
        <ele>1580</ele>
        <time>2019-07-08T20:28:24Z</time>
      </trkpt>
      <trkpt lat="45.09347" lon="7.06089">
        <ele>1581</ele>
        <time>2019-07-08T20:28:26Z</time>
      </trkpt>
      <trkpt lat="45.09341" lon="7.06092">
        <ele>1581</ele>
        <time>2019-07-08T20:28:27Z</time>
      </trkpt>
      <trkpt lat="45.09318" lon="7.06122">
        <ele>1573</ele>
        <time>2019-07-08T20:28:32Z</time>
      </trkpt>
      <trkpt lat="45.09311" lon="7.06125">
        <ele>1573</ele>
        <time>2019-07-08T20:28:34Z</time>
      </trkpt>
      <trkpt lat="45.09303" lon="7.06123">
        <ele>1574</ele>
        <time>2019-07-08T20:28:35Z</time>
      </trkpt>
      <trkpt lat="45.09278" lon="7.0611">
        <ele>1578</ele>
        <time>2019-07-08T20:28:40Z</time>
      </trkpt>
      <trkpt lat="45.09233" lon="7.06079">
        <ele>1589</ele>
        <time>2019-07-08T20:28:49Z</time>
      </trkpt>
      <trkpt lat="45.09185" lon="7.06018">
        <ele>1601</ele>
        <time>2019-07-08T20:29:00Z</time>
      </trkpt>
      <trkpt lat="45.09175" lon="7.0601">
        <ele>1602</ele>
        <time>2019-07-08T20:29:02Z</time>
      </trkpt>
      <trkpt lat="45.09162" lon="7.06005">
        <ele>1605</ele>
        <time>2019-07-08T20:29:05Z</time>
      </trkpt>
      <trkpt lat="45.0914" lon="7.06004">
        <ele>1611</ele>
        <time>2019-07-08T20:29:08Z</time>
      </trkpt>
      <trkpt lat="45.09131" lon="7.06007">
        <ele>1613</ele>
        <time>2019-07-08T20:29:10Z</time>
      </trkpt>
      <trkpt lat="45.09107" lon="7.06029">
        <ele>1617</ele>
        <time>2019-07-08T20:29:15Z</time>
      </trkpt>
      <trkpt lat="45.09102" lon="7.0604">
        <ele>1618</ele>
        <time>2019-07-08T20:29:17Z</time>
      </trkpt>
      <trkpt lat="45.09099" lon="7.06048">
        <ele>1618</ele>
        <time>2019-07-08T20:29:18Z</time>
      </trkpt>
      <trkpt lat="45.09098" lon="7.06053">
        <ele>1617</ele>
        <time>2019-07-08T20:29:19Z</time>
      </trkpt>
      <trkpt lat="45.091" lon="7.06057">
        <ele>1616</ele>
        <time>2019-07-08T20:29:19Z</time>
      </trkpt>
      <trkpt lat="45.09106" lon="7.06063">
        <ele>1614</ele>
        <time>2019-07-08T20:29:21Z</time>
      </trkpt>
      <trkpt lat="45.09116" lon="7.06065">
        <ele>1611</ele>
        <time>2019-07-08T20:29:22Z</time>
      </trkpt>
      <trkpt lat="45.09122" lon="7.06069">
        <ele>1608</ele>
        <time>2019-07-08T20:29:24Z</time>
      </trkpt>
      <trkpt lat="45.09126" lon="7.06075">
        <ele>1606</ele>
        <time>2019-07-08T20:29:25Z</time>
      </trkpt>
      <trkpt lat="45.09128" lon="7.06087">
        <ele>1604</ele>
        <time>2019-07-08T20:29:26Z</time>
      </trkpt>
      <trkpt lat="45.09128" lon="7.06099">
        <ele>1604</ele>
        <time>2019-07-08T20:29:28Z</time>
      </trkpt>
      <trkpt lat="45.09126" lon="7.06112">
        <ele>1604</ele>
        <time>2019-07-08T20:29:29Z</time>
      </trkpt>
      <trkpt lat="45.09118" lon="7.06134">
        <ele>1606</ele>
        <time>2019-07-08T20:29:32Z</time>
      </trkpt>
      <trkpt lat="45.09099" lon="7.06171">
        <ele>1613</ele>
        <time>2019-07-08T20:29:38Z</time>
      </trkpt>
      <trkpt lat="45.09086" lon="7.06181">
        <ele>1617</ele>
        <time>2019-07-08T20:29:41Z</time>
      </trkpt>
      <trkpt lat="45.09075" lon="7.06197">
        <ele>1622</ele>
        <time>2019-07-08T20:29:44Z</time>
      </trkpt>
      <trkpt lat="45.09068" lon="7.06211">
        <ele>1624</ele>
        <time>2019-07-08T20:29:46Z</time>
      </trkpt>
      <trkpt lat="45.09064" lon="7.0623">
        <ele>1626</ele>
        <time>2019-07-08T20:29:48Z</time>
      </trkpt>
      <trkpt lat="45.09066" lon="7.06256">
        <ele>1626</ele>
        <time>2019-07-08T20:29:52Z</time>
      </trkpt>
      <trkpt lat="45.09078" lon="7.06302">
        <ele>1626</ele>
        <time>2019-07-08T20:29:58Z</time>
      </trkpt>
      <trkpt lat="45.09074" lon="7.06336">
        <ele>1633</ele>
        <time>2019-07-08T20:30:02Z</time>
      </trkpt>
      <trkpt lat="45.09076" lon="7.06346">
        <ele>1635</ele>
        <time>2019-07-08T20:30:03Z</time>
      </trkpt>
      <trkpt lat="45.09081" lon="7.06355">
        <ele>1636</ele>
        <time>2019-07-08T20:30:05Z</time>
      </trkpt>
      <trkpt lat="45.09095" lon="7.06373">
        <ele>1638</ele>
        <time>2019-07-08T20:30:08Z</time>
      </trkpt>
      <trkpt lat="45.09111" lon="7.06401">
        <ele>1642</ele>
        <time>2019-07-08T20:30:13Z</time>
      </trkpt>
      <trkpt lat="45.09134" lon="7.06423">
        <ele>1643</ele>
        <time>2019-07-08T20:30:18Z</time>
      </trkpt>
      <trkpt lat="45.09151" lon="7.06437">
        <ele>1643</ele>
        <time>2019-07-08T20:30:21Z</time>
      </trkpt>
      <trkpt lat="45.09152" lon="7.0644">
        <ele>1644</ele>
        <time>2019-07-08T20:30:22Z</time>
      </trkpt>
      <trkpt lat="45.0915" lon="7.06445">
        <ele>1646</ele>
        <time>2019-07-08T20:30:22Z</time>
      </trkpt>
      <trkpt lat="45.09146" lon="7.06445">
        <ele>1648</ele>
        <time>2019-07-08T20:30:23Z</time>
      </trkpt>
      <trkpt lat="45.09132" lon="7.06437">
        <ele>1649</ele>
        <time>2019-07-08T20:30:26Z</time>
      </trkpt>
      <trkpt lat="45.09123" lon="7.06434">
        <ele>1650</ele>
        <time>2019-07-08T20:30:27Z</time>
      </trkpt>
      <trkpt lat="45.09094" lon="7.06434">
        <ele>1659</ele>
        <time>2019-07-08T20:30:32Z</time>
      </trkpt>
      <trkpt lat="45.09088" lon="7.06428">
        <ele>1658</ele>
        <time>2019-07-08T20:30:34Z</time>
      </trkpt>
      <trkpt lat="45.09078" lon="7.06411">
        <ele>1654</ele>
        <time>2019-07-08T20:30:37Z</time>
      </trkpt>
      <trkpt lat="45.09071" lon="7.06404">
        <ele>1655</ele>
        <time>2019-07-08T20:30:38Z</time>
      </trkpt>
      <trkpt lat="45.09059" lon="7.06397">
        <ele>1657</ele>
        <time>2019-07-08T20:30:40Z</time>
      </trkpt>
      <trkpt lat="45.09042" lon="7.06394">
        <ele>1663</ele>
        <time>2019-07-08T20:30:43Z</time>
      </trkpt>
      <trkpt lat="45.09028" lon="7.06384">
        <ele>1666</ele>
        <time>2019-07-08T20:30:46Z</time>
      </trkpt>
      <trkpt lat="45.09014" lon="7.06337">
        <ele>1658</ele>
        <time>2019-07-08T20:30:53Z</time>
      </trkpt>
      <trkpt lat="45.09005" lon="7.06299">
        <ele>1660</ele>
        <time>2019-07-08T20:30:58Z</time>
      </trkpt>
      <trkpt lat="45.08995" lon="7.06272">
        <ele>1663</ele>
        <time>2019-07-08T20:31:01Z</time>
      </trkpt>
      <trkpt lat="45.08986" lon="7.06217">
        <ele>1661</ele>
        <time>2019-07-08T20:31:09Z</time>
      </trkpt>
      <trkpt lat="45.08978" lon="7.06197">
        <ele>1660</ele>
        <time>2019-07-08T20:31:11Z</time>
      </trkpt>
      <trkpt lat="45.08973" lon="7.0619">
        <ele>1660</ele>
        <time>2019-07-08T20:31:13Z</time>
      </trkpt>
      <trkpt lat="45.08959" lon="7.0618">
        <ele>1661</ele>
        <time>2019-07-08T20:31:15Z</time>
      </trkpt>
      <trkpt lat="45.0895" lon="7.06178">
        <ele>1663</ele>
        <time>2019-07-08T20:31:17Z</time>
      </trkpt>
      <trkpt lat="45.08939" lon="7.06179">
        <ele>1666</ele>
        <time>2019-07-08T20:31:19Z</time>
      </trkpt>
      <trkpt lat="45.08909" lon="7.06189">
        <ele>1674</ele>
        <time>2019-07-08T20:31:25Z</time>
      </trkpt>
      <trkpt lat="45.08891" lon="7.06192">
        <ele>1676</ele>
        <time>2019-07-08T20:31:28Z</time>
      </trkpt>
      <trkpt lat="45.08838" lon="7.06223">
        <ele>1689</ele>
        <time>2019-07-08T20:31:38Z</time>
      </trkpt>
      <trkpt lat="45.0878" lon="7.06248">
        <ele>1702</ele>
        <time>2019-07-08T20:31:49Z</time>
      </trkpt>
      <trkpt lat="45.08772" lon="7.06249">
        <ele>1703</ele>
        <time>2019-07-08T20:31:50Z</time>
      </trkpt>
      <trkpt lat="45.08756" lon="7.06244">
        <ele>1703</ele>
        <time>2019-07-08T20:31:53Z</time>
      </trkpt>
      <trkpt lat="45.08726" lon="7.06224">
        <ele>1709</ele>
        <time>2019-07-08T20:31:59Z</time>
      </trkpt>
      <trkpt lat="45.08708" lon="7.062">
        <ele>1709</ele>
        <time>2019-07-08T20:32:03Z</time>
      </trkpt>
      <trkpt lat="45.0867" lon="7.06162">
        <ele>1714</ele>
        <time>2019-07-08T20:32:12Z</time>
      </trkpt>
      <trkpt lat="45.08656" lon="7.06143">
        <ele>1719</ele>
        <time>2019-07-08T20:32:15Z</time>
      </trkpt>
      <trkpt lat="45.08648" lon="7.06134">
        <ele>1722</ele>
        <time>2019-07-08T20:32:17Z</time>
      </trkpt>
      <trkpt lat="45.08644" lon="7.06132">
        <ele>1723</ele>
        <time>2019-07-08T20:32:18Z</time>
      </trkpt>
      <trkpt lat="45.08642" lon="7.06133">
        <ele>1724</ele>
        <time>2019-07-08T20:32:18Z</time>
      </trkpt>
      <trkpt lat="45.08642" lon="7.0614">
        <ele>1725</ele>
        <time>2019-07-08T20:32:19Z</time>
      </trkpt>
      <trkpt lat="45.08651" lon="7.06163">
        <ele>1722</ele>
        <time>2019-07-08T20:32:22Z</time>
      </trkpt>
      <trkpt lat="45.08677" lon="7.06216">
        <ele>1726</ele>
        <time>2019-07-08T20:32:30Z</time>
      </trkpt>
      <trkpt lat="45.08702" lon="7.06256">
        <ele>1728</ele>
        <time>2019-07-08T20:32:37Z</time>
      </trkpt>
      <trkpt lat="45.08719" lon="7.06301">
        <ele>1737</ele>
        <time>2019-07-08T20:32:43Z</time>
      </trkpt>
      <trkpt lat="45.08725" lon="7.06311">
        <ele>1738</ele>
        <time>2019-07-08T20:32:45Z</time>
      </trkpt>
      <trkpt lat="45.0873" lon="7.06316">
        <ele>1738</ele>
        <time>2019-07-08T20:32:46Z</time>
      </trkpt>
      <trkpt lat="45.08794" lon="7.0634">
        <ele>1734</ele>
        <time>2019-07-08T20:32:58Z</time>
      </trkpt>
      <trkpt lat="45.08835" lon="7.06345">
        <ele>1732</ele>
        <time>2019-07-08T20:33:05Z</time>
      </trkpt>
      <trkpt lat="45.08853" lon="7.0636">
        <ele>1730</ele>
        <time>2019-07-08T20:33:09Z</time>
      </trkpt>
      <trkpt lat="45.08858" lon="7.06368">
        <ele>1730</ele>
        <time>2019-07-08T20:33:10Z</time>
      </trkpt>
      <trkpt lat="45.08859" lon="7.06377">
        <ele>1732</ele>
        <time>2019-07-08T20:33:12Z</time>
      </trkpt>
      <trkpt lat="45.08858" lon="7.06392">
        <ele>1736</ele>
        <time>2019-07-08T20:33:13Z</time>
      </trkpt>
      <trkpt lat="45.08859" lon="7.06412">
        <ele>1740</ele>
        <time>2019-07-08T20:33:16Z</time>
      </trkpt>
      <trkpt lat="45.08861" lon="7.06428">
        <ele>1743</ele>
        <time>2019-07-08T20:33:18Z</time>
      </trkpt>
      <trkpt lat="45.08879" lon="7.06478">
        <ele>1745</ele>
        <time>2019-07-08T20:33:25Z</time>
      </trkpt>
      <trkpt lat="45.08885" lon="7.06499">
        <ele>1747</ele>
        <time>2019-07-08T20:33:28Z</time>
      </trkpt>
      <trkpt lat="45.08886" lon="7.06509">
        <ele>1748</ele>
        <time>2019-07-08T20:33:29Z</time>
      </trkpt>
      <trkpt lat="45.08877" lon="7.06557">
        <ele>1762</ele>
        <time>2019-07-08T20:33:35Z</time>
      </trkpt>
      <trkpt lat="45.08876" lon="7.06567">
        <ele>1764</ele>
        <time>2019-07-08T20:33:37Z</time>
      </trkpt>
      <trkpt lat="45.08879" lon="7.06577">
        <ele>1766</ele>
        <time>2019-07-08T20:33:38Z</time>
      </trkpt>
      <trkpt lat="45.08884" lon="7.06588">
        <ele>1767</ele>
        <time>2019-07-08T20:33:40Z</time>
      </trkpt>
      <trkpt lat="45.08896" lon="7.06601">
        <ele>1769</ele>
        <time>2019-07-08T20:33:42Z</time>
      </trkpt>
      <trkpt lat="45.08909" lon="7.0661">
        <ele>1770</ele>
        <time>2019-07-08T20:33:45Z</time>
      </trkpt>
      <trkpt lat="45.08934" lon="7.06616">
        <ele>1770</ele>
        <time>2019-07-08T20:33:49Z</time>
      </trkpt>
      <trkpt lat="45.08988" lon="7.06614">
        <ele>1767</ele>
        <time>2019-07-08T20:33:59Z</time>
      </trkpt>
      <trkpt lat="45.08994" lon="7.06619">
        <ele>1768</ele>
        <time>2019-07-08T20:34:00Z</time>
      </trkpt>
      <trkpt lat="45.08993" lon="7.06627">
        <ele>1772</ele>
        <time>2019-07-08T20:34:01Z</time>
      </trkpt>
      <trkpt lat="45.0899" lon="7.06628">
        <ele>1772</ele>
        <time>2019-07-08T20:34:02Z</time>
      </trkpt>
      <trkpt lat="45.08971" lon="7.06628">
        <ele>1773</ele>
        <time>2019-07-08T20:34:05Z</time>
      </trkpt>
      <trkpt lat="45.08944" lon="7.06643">
        <ele>1781</ele>
        <time>2019-07-08T20:34:10Z</time>
      </trkpt>
      <trkpt lat="45.08933" lon="7.06646">
        <ele>1783</ele>
        <time>2019-07-08T20:34:12Z</time>
      </trkpt>
      <trkpt lat="45.08912" lon="7.06648">
        <ele>1785</ele>
        <time>2019-07-08T20:34:16Z</time>
      </trkpt>
      <trkpt lat="45.08887" lon="7.06645">
        <ele>1788</ele>
        <time>2019-07-08T20:34:21Z</time>
      </trkpt>
      <trkpt lat="45.08848" lon="7.06635">
        <ele>1792</ele>
        <time>2019-07-08T20:34:28Z</time>
      </trkpt>
      <trkpt lat="45.08836" lon="7.06625">
        <ele>1791</ele>
        <time>2019-07-08T20:34:30Z</time>
      </trkpt>
      <trkpt lat="45.08802" lon="7.06567">
        <ele>1789</ele>
        <time>2019-07-08T20:34:40Z</time>
      </trkpt>
      <trkpt lat="45.08792" lon="7.06558">
        <ele>1792</ele>
        <time>2019-07-08T20:34:42Z</time>
      </trkpt>
      <trkpt lat="45.08781" lon="7.06549">
        <ele>1794</ele>
        <time>2019-07-08T20:34:44Z</time>
      </trkpt>
      <trkpt lat="45.08743" lon="7.06539">
        <ele>1804</ele>
        <time>2019-07-08T20:34:51Z</time>
      </trkpt>
      <trkpt lat="45.08734" lon="7.06534">
        <ele>1806</ele>
        <time>2019-07-08T20:34:53Z</time>
      </trkpt>
      <trkpt lat="45.08717" lon="7.06516">
        <ele>1807</ele>
        <time>2019-07-08T20:34:56Z</time>
      </trkpt>
      <trkpt lat="45.08698" lon="7.06486">
        <ele>1805</ele>
        <time>2019-07-08T20:35:01Z</time>
      </trkpt>
      <trkpt lat="45.08672" lon="7.06451">
        <ele>1804</ele>
        <time>2019-07-08T20:35:08Z</time>
      </trkpt>
      <trkpt lat="45.08662" lon="7.06434">
        <ele>1804</ele>
        <time>2019-07-08T20:35:11Z</time>
      </trkpt>
      <trkpt lat="45.0864" lon="7.06411">
        <ele>1813</ele>
        <time>2019-07-08T20:35:15Z</time>
      </trkpt>
      <trkpt lat="45.08637" lon="7.06401">
        <ele>1811</ele>
        <time>2019-07-08T20:35:17Z</time>
      </trkpt>
      <trkpt lat="45.08636" lon="7.06372">
        <ele>1802</ele>
        <time>2019-07-08T20:35:20Z</time>
      </trkpt>
      <trkpt lat="45.08633" lon="7.06365">
        <ele>1802</ele>
        <time>2019-07-08T20:35:21Z</time>
      </trkpt>
      <trkpt lat="45.08626" lon="7.06355">
        <ele>1803</ele>
        <time>2019-07-08T20:35:23Z</time>
      </trkpt>
      <trkpt lat="45.086" lon="7.06336">
        <ele>1811</ele>
        <time>2019-07-08T20:35:28Z</time>
      </trkpt>
      <trkpt lat="45.08569" lon="7.06327">
        <ele>1823</ele>
        <time>2019-07-08T20:35:34Z</time>
      </trkpt>
      <trkpt lat="45.08555" lon="7.06319">
        <ele>1826</ele>
        <time>2019-07-08T20:35:37Z</time>
      </trkpt>
      <trkpt lat="45.08547" lon="7.06293">
        <ele>1818</ele>
        <time>2019-07-08T20:35:40Z</time>
      </trkpt>
      <trkpt lat="45.08542" lon="7.06285">
        <ele>1817</ele>
        <time>2019-07-08T20:35:42Z</time>
      </trkpt>
      <trkpt lat="45.08488" lon="7.06249">
        <ele>1832</ele>
        <time>2019-07-08T20:35:52Z</time>
      </trkpt>
      <trkpt lat="45.08472" lon="7.06233">
        <ele>1837</ele>
        <time>2019-07-08T20:35:56Z</time>
      </trkpt>
      <trkpt lat="45.08465" lon="7.0622">
        <ele>1838</ele>
        <time>2019-07-08T20:35:58Z</time>
      </trkpt>
      <trkpt lat="45.08457" lon="7.06199">
        <ele>1838</ele>
        <time>2019-07-08T20:36:01Z</time>
      </trkpt>
      <trkpt lat="45.08422" lon="7.0609">
        <ele>1845</ele>
        <time>2019-07-08T20:36:16Z</time>
      </trkpt>
      <trkpt lat="45.0842" lon="7.0608">
        <ele>1845</ele>
        <time>2019-07-08T20:36:17Z</time>
      </trkpt>
      <trkpt lat="45.08422" lon="7.06036">
        <ele>1844</ele>
        <time>2019-07-08T20:36:23Z</time>
      </trkpt>
      <trkpt lat="45.08418" lon="7.06018">
        <ele>1846</ele>
        <time>2019-07-08T20:36:25Z</time>
      </trkpt>
      <trkpt lat="45.08398" lon="7.05979">
        <ele>1849</ele>
        <time>2019-07-08T20:36:31Z</time>
      </trkpt>
      <trkpt lat="45.08385" lon="7.05946">
        <ele>1847</ele>
        <time>2019-07-08T20:36:36Z</time>
      </trkpt>
      <trkpt lat="45.08377" lon="7.05933">
        <ele>1847</ele>
        <time>2019-07-08T20:36:38Z</time>
      </trkpt>
      <trkpt lat="45.0837" lon="7.05927">
        <ele>1848</ele>
        <time>2019-07-08T20:36:40Z</time>
      </trkpt>
      <trkpt lat="45.08354" lon="7.05918">
        <ele>1851</ele>
        <time>2019-07-08T20:36:43Z</time>
      </trkpt>
      <trkpt lat="45.08314" lon="7.05905">
        <ele>1859</ele>
        <time>2019-07-08T20:36:50Z</time>
      </trkpt>
      <trkpt lat="45.08246" lon="7.05896">
        <ele>1871</ele>
        <time>2019-07-08T20:37:02Z</time>
      </trkpt>
      <trkpt lat="45.08215" lon="7.05902">
        <ele>1876</ele>
        <time>2019-07-08T20:37:08Z</time>
      </trkpt>
      <trkpt lat="45.08196" lon="7.0591">
        <ele>1880</ele>
        <time>2019-07-08T20:37:11Z</time>
      </trkpt>
      <trkpt lat="45.08178" lon="7.05921">
        <ele>1885</ele>
        <time>2019-07-08T20:37:15Z</time>
      </trkpt>
      <trkpt lat="45.0816" lon="7.05929">
        <ele>1890</ele>
        <time>2019-07-08T20:37:18Z</time>
      </trkpt>
      <trkpt lat="45.08151" lon="7.0593">
        <ele>1891</ele>
        <time>2019-07-08T20:37:20Z</time>
      </trkpt>
      <trkpt lat="45.08142" lon="7.05929">
        <ele>1892</ele>
        <time>2019-07-08T20:37:21Z</time>
      </trkpt>
      <trkpt lat="45.08124" lon="7.05921">
        <ele>1890</ele>
        <time>2019-07-08T20:37:25Z</time>
      </trkpt>
      <trkpt lat="45.08092" lon="7.05917">
        <ele>1891</ele>
        <time>2019-07-08T20:37:30Z</time>
      </trkpt>
      <trkpt lat="45.08086" lon="7.05913">
        <ele>1891</ele>
        <time>2019-07-08T20:37:31Z</time>
      </trkpt>
      <trkpt lat="45.08013" lon="7.05849">
        <ele>1901</ele>
        <time>2019-07-08T20:37:47Z</time>
      </trkpt>
      <trkpt lat="45.08007" lon="7.0584">
        <ele>1902</ele>
        <time>2019-07-08T20:37:48Z</time>
      </trkpt>
      <trkpt lat="45.08006" lon="7.05831">
        <ele>1902</ele>
        <time>2019-07-08T20:37:49Z</time>
      </trkpt>
      <trkpt lat="45.08016" lon="7.05803">
        <ele>1902</ele>
        <time>2019-07-08T20:37:53Z</time>
      </trkpt>
      <trkpt lat="45.08019" lon="7.05789">
        <ele>1903</ele>
        <time>2019-07-08T20:37:55Z</time>
      </trkpt>
      <trkpt lat="45.0802" lon="7.05778">
        <ele>1904</ele>
        <time>2019-07-08T20:37:57Z</time>
      </trkpt>
      <trkpt lat="45.08014" lon="7.05731">
        <ele>1909</ele>
        <time>2019-07-08T20:38:03Z</time>
      </trkpt>
      <trkpt lat="45.08016" lon="7.05723">
        <ele>1910</ele>
        <time>2019-07-08T20:38:04Z</time>
      </trkpt>
      <trkpt lat="45.08021" lon="7.05714">
        <ele>1909</ele>
        <time>2019-07-08T20:38:05Z</time>
      </trkpt>
      <trkpt lat="45.08027" lon="7.0571">
        <ele>1909</ele>
        <time>2019-07-08T20:38:06Z</time>
      </trkpt>
      <trkpt lat="45.08047" lon="7.05699">
        <ele>1906</ele>
        <time>2019-07-08T20:38:10Z</time>
      </trkpt>
      <trkpt lat="45.08054" lon="7.05693">
        <ele>1906</ele>
        <time>2019-07-08T20:38:12Z</time>
      </trkpt>
      <trkpt lat="45.08061" lon="7.05683">
        <ele>1906</ele>
        <time>2019-07-08T20:38:13Z</time>
      </trkpt>
      <trkpt lat="45.08065" lon="7.05671">
        <ele>1907</ele>
        <time>2019-07-08T20:38:15Z</time>
      </trkpt>
      <trkpt lat="45.08067" lon="7.05659">
        <ele>1908</ele>
        <time>2019-07-08T20:38:17Z</time>
      </trkpt>
      <trkpt lat="45.08066" lon="7.05646">
        <ele>1909</ele>
        <time>2019-07-08T20:38:18Z</time>
      </trkpt>
      <trkpt lat="45.08062" lon="7.05633">
        <ele>1911</ele>
        <time>2019-07-08T20:38:20Z</time>
      </trkpt>
      <trkpt lat="45.08055" lon="7.05622">
        <ele>1913</ele>
        <time>2019-07-08T20:38:22Z</time>
      </trkpt>
      <trkpt lat="45.08039" lon="7.05601">
        <ele>1917</ele>
        <time>2019-07-08T20:38:26Z</time>
      </trkpt>
      <trkpt lat="45.08036" lon="7.05592">
        <ele>1918</ele>
        <time>2019-07-08T20:38:27Z</time>
      </trkpt>
      <trkpt lat="45.08034" lon="7.05581">
        <ele>1920</ele>
        <time>2019-07-08T20:38:28Z</time>
      </trkpt>
      <trkpt lat="45.08044" lon="7.05528">
        <ele>1927</ele>
        <time>2019-07-08T20:38:35Z</time>
      </trkpt>
      <trkpt lat="45.08048" lon="7.0552">
        <ele>1928</ele>
        <time>2019-07-08T20:38:36Z</time>
      </trkpt>
      <trkpt lat="45.08056" lon="7.05514">
        <ele>1928</ele>
        <time>2019-07-08T20:38:38Z</time>
      </trkpt>
      <trkpt lat="45.08063" lon="7.05511">
        <ele>1928</ele>
        <time>2019-07-08T20:38:39Z</time>
      </trkpt>
      <trkpt lat="45.08073" lon="7.05515">
        <ele>1926</ele>
        <time>2019-07-08T20:38:41Z</time>
      </trkpt>
      <trkpt lat="45.08081" lon="7.05514">
        <ele>1925</ele>
        <time>2019-07-08T20:38:43Z</time>
      </trkpt>
      <trkpt lat="45.0809" lon="7.0551">
        <ele>1924</ele>
        <time>2019-07-08T20:38:44Z</time>
      </trkpt>
      <trkpt lat="45.08152" lon="7.05446">
        <ele>1931</ele>
        <time>2019-07-08T20:38:58Z</time>
      </trkpt>
      <trkpt lat="45.08181" lon="7.05426">
        <ele>1932</ele>
        <time>2019-07-08T20:39:04Z</time>
      </trkpt>
      <trkpt lat="45.08193" lon="7.0541">
        <ele>1935</ele>
        <time>2019-07-08T20:39:07Z</time>
      </trkpt>
      <trkpt lat="45.08193" lon="7.05405">
        <ele>1936</ele>
        <time>2019-07-08T20:39:07Z</time>
      </trkpt>
      <trkpt lat="45.08188" lon="7.05398">
        <ele>1938</ele>
        <time>2019-07-08T20:39:09Z</time>
      </trkpt>
      <trkpt lat="45.08184" lon="7.05399">
        <ele>1939</ele>
        <time>2019-07-08T20:39:09Z</time>
      </trkpt>
      <trkpt lat="45.08175" lon="7.05406">
        <ele>1938</ele>
        <time>2019-07-08T20:39:11Z</time>
      </trkpt>
      <trkpt lat="45.0817" lon="7.05408">
        <ele>1938</ele>
        <time>2019-07-08T20:39:12Z</time>
      </trkpt>
      <trkpt lat="45.08096" lon="7.05406">
        <ele>1949</ele>
        <time>2019-07-08T20:39:25Z</time>
      </trkpt>
      <trkpt lat="45.08078" lon="7.05401">
        <ele>1952</ele>
        <time>2019-07-08T20:39:28Z</time>
      </trkpt>
      <trkpt lat="45.08017" lon="7.05371">
        <ele>1966</ele>
        <time>2019-07-08T20:39:40Z</time>
      </trkpt>
      <trkpt lat="45.08009" lon="7.0537">
        <ele>1967</ele>
        <time>2019-07-08T20:39:41Z</time>
      </trkpt>
      <trkpt lat="45.08001" lon="7.05371">
        <ele>1967</ele>
        <time>2019-07-08T20:39:43Z</time>
      </trkpt>
      <trkpt lat="45.07932" lon="7.05397">
        <ele>1975</ele>
        <time>2019-07-08T20:39:56Z</time>
      </trkpt>
      <trkpt lat="45.07918" lon="7.05405">
        <ele>1975</ele>
        <time>2019-07-08T20:39:58Z</time>
      </trkpt>
      <trkpt lat="45.07912" lon="7.0541">
        <ele>1975</ele>
        <time>2019-07-08T20:39:59Z</time>
      </trkpt>
      <trkpt lat="45.07905" lon="7.05427">
        <ele>1973</ele>
        <time>2019-07-08T20:40:02Z</time>
      </trkpt>
      <trkpt lat="45.07905" lon="7.05456">
        <ele>1967</ele>
        <time>2019-07-08T20:40:06Z</time>
      </trkpt>
      <trkpt lat="45.07902" lon="7.05461">
        <ele>1966</ele>
        <time>2019-07-08T20:40:06Z</time>
      </trkpt>
      <trkpt lat="45.07895" lon="7.05465">
        <ele>1967</ele>
        <time>2019-07-08T20:40:08Z</time>
      </trkpt>
      <trkpt lat="45.07848" lon="7.05472">
        <ele>1976</ele>
        <time>2019-07-08T20:40:16Z</time>
      </trkpt>
      <trkpt lat="45.0784" lon="7.05472">
        <ele>1978</ele>
        <time>2019-07-08T20:40:18Z</time>
      </trkpt>
      <trkpt lat="45.07833" lon="7.05469">
        <ele>1980</ele>
        <time>2019-07-08T20:40:19Z</time>
      </trkpt>
      <trkpt lat="45.07784" lon="7.05436">
        <ele>1994</ele>
        <time>2019-07-08T20:40:29Z</time>
      </trkpt>
      <trkpt lat="45.07778" lon="7.05434">
        <ele>1995</ele>
        <time>2019-07-08T20:40:30Z</time>
      </trkpt>
      <trkpt lat="45.0776" lon="7.05435">
        <ele>1997</ele>
        <time>2019-07-08T20:40:33Z</time>
      </trkpt>
      <trkpt lat="45.07749" lon="7.05438">
        <ele>1997</ele>
        <time>2019-07-08T20:40:35Z</time>
      </trkpt>
      <trkpt lat="45.07737" lon="7.05445">
        <ele>1997</ele>
        <time>2019-07-08T20:40:37Z</time>
      </trkpt>
      <trkpt lat="45.07719" lon="7.0546">
        <ele>1997</ele>
        <time>2019-07-08T20:40:41Z</time>
      </trkpt>
      <trkpt lat="45.0768" lon="7.05502">
        <ele>1998</ele>
        <time>2019-07-08T20:40:50Z</time>
      </trkpt>
      <trkpt lat="45.07677" lon="7.05502">
        <ele>1999</ele>
        <time>2019-07-08T20:40:50Z</time>
      </trkpt>
      <trkpt lat="45.07673" lon="7.055">
        <ele>2000</ele>
        <time>2019-07-08T20:40:51Z</time>
      </trkpt>
      <trkpt lat="45.07672" lon="7.0549">
        <ele>2001</ele>
        <time>2019-07-08T20:40:52Z</time>
      </trkpt>
      <trkpt lat="45.07683" lon="7.05439">
        <ele>2006</ele>
        <time>2019-07-08T20:40:59Z</time>
      </trkpt>
      <trkpt lat="45.07691" lon="7.0542">
        <ele>2008</ele>
        <time>2019-07-08T20:41:02Z</time>
      </trkpt>
      <trkpt lat="45.07702" lon="7.05403">
        <ele>2011</ele>
        <time>2019-07-08T20:41:04Z</time>
      </trkpt>
      <trkpt lat="45.0771" lon="7.05393">
        <ele>2013</ele>
        <time>2019-07-08T20:41:06Z</time>
      </trkpt>
      <trkpt lat="45.07724" lon="7.05385">
        <ele>2014</ele>
        <time>2019-07-08T20:41:09Z</time>
      </trkpt>
      <trkpt lat="45.07739" lon="7.05379">
        <ele>2014</ele>
        <time>2019-07-08T20:41:12Z</time>
      </trkpt>
      <trkpt lat="45.07761" lon="7.05376">
        <ele>2013</ele>
        <time>2019-07-08T20:41:16Z</time>
      </trkpt>
      <trkpt lat="45.07767" lon="7.05373">
        <ele>2013</ele>
        <time>2019-07-08T20:41:17Z</time>
      </trkpt>
      <trkpt lat="45.07802" lon="7.05338">
        <ele>2018</ele>
        <time>2019-07-08T20:41:25Z</time>
      </trkpt>
      <trkpt lat="45.07815" lon="7.05328">
        <ele>2019</ele>
        <time>2019-07-08T20:41:27Z</time>
      </trkpt>
      <trkpt lat="45.07817" lon="7.05324">
        <ele>2020</ele>
        <time>2019-07-08T20:41:28Z</time>
      </trkpt>
      <trkpt lat="45.07817" lon="7.0532">
        <ele>2021</ele>
        <time>2019-07-08T20:41:28Z</time>
      </trkpt>
      <trkpt lat="45.07814" lon="7.05317">
        <ele>2023</ele>
        <time>2019-07-08T20:41:29Z</time>
      </trkpt>
      <trkpt lat="45.07811" lon="7.05317">
        <ele>2023</ele>
        <time>2019-07-08T20:41:29Z</time>
      </trkpt>
      <trkpt lat="45.07803" lon="7.05321">
        <ele>2023</ele>
        <time>2019-07-08T20:41:31Z</time>
      </trkpt>
      <trkpt lat="45.07789" lon="7.05325">
        <ele>2024</ele>
        <time>2019-07-08T20:41:34Z</time>
      </trkpt>
      <trkpt lat="45.07763" lon="7.0533">
        <ele>2026</ele>
        <time>2019-07-08T20:41:38Z</time>
      </trkpt>
      <trkpt lat="45.0774" lon="7.05332">
        <ele>2028</ele>
        <time>2019-07-08T20:41:42Z</time>
      </trkpt>
      <trkpt lat="45.07723" lon="7.05331">
        <ele>2030</ele>
        <time>2019-07-08T20:41:45Z</time>
      </trkpt>
      <trkpt lat="45.07707" lon="7.05325">
        <ele>2033</ele>
        <time>2019-07-08T20:41:48Z</time>
      </trkpt>
      <trkpt lat="45.07683" lon="7.05312">
        <ele>2038</ele>
        <time>2019-07-08T20:41:53Z</time>
      </trkpt>
      <trkpt lat="45.07671" lon="7.05307">
        <ele>2040</ele>
        <time>2019-07-08T20:41:55Z</time>
      </trkpt>
      <trkpt lat="45.07664" lon="7.05307">
        <ele>2041</ele>
        <time>2019-07-08T20:41:56Z</time>
      </trkpt>
      <trkpt lat="45.07639" lon="7.05312">
        <ele>2044</ele>
        <time>2019-07-08T20:42:01Z</time>
      </trkpt>
      <trkpt lat="45.07631" lon="7.05316">
        <ele>2045</ele>
        <time>2019-07-08T20:42:02Z</time>
      </trkpt>
      <trkpt lat="45.07616" lon="7.05331">
        <ele>2043</ele>
        <time>2019-07-08T20:42:06Z</time>
      </trkpt>
      <trkpt lat="45.0761" lon="7.05335">
        <ele>2044</ele>
        <time>2019-07-08T20:42:07Z</time>
      </trkpt>
      <trkpt lat="45.07603" lon="7.05336">
        <ele>2045</ele>
        <time>2019-07-08T20:42:08Z</time>
      </trkpt>
      <trkpt lat="45.0759" lon="7.05332">
        <ele>2048</ele>
        <time>2019-07-08T20:42:10Z</time>
      </trkpt>
      <trkpt lat="45.0757" lon="7.05319">
        <ele>2056</ele>
        <time>2019-07-08T20:42:14Z</time>
      </trkpt>
      <trkpt lat="45.07559" lon="7.05319">
        <ele>2058</ele>
        <time>2019-07-08T20:42:16Z</time>
      </trkpt>
      <trkpt lat="45.07539" lon="7.05326">
        <ele>2061</ele>
        <time>2019-07-08T20:42:20Z</time>
      </trkpt>
      <trkpt lat="45.07531" lon="7.05333">
        <ele>2061</ele>
        <time>2019-07-08T20:42:22Z</time>
      </trkpt>
      <trkpt lat="45.07522" lon="7.05346">
        <ele>2062</ele>
        <time>2019-07-08T20:42:24Z</time>
      </trkpt>
      <trkpt lat="45.07519" lon="7.05365">
        <ele>2061</ele>
        <time>2019-07-08T20:42:26Z</time>
      </trkpt>
      <trkpt lat="45.07516" lon="7.05369">
        <ele>2061</ele>
        <time>2019-07-08T20:42:27Z</time>
      </trkpt>
      <trkpt lat="45.07512" lon="7.0537">
        <ele>2062</ele>
        <time>2019-07-08T20:42:28Z</time>
      </trkpt>
      <trkpt lat="45.07509" lon="7.05369">
        <ele>2063</ele>
        <time>2019-07-08T20:42:28Z</time>
      </trkpt>
      <trkpt lat="45.07507" lon="7.05365">
        <ele>2064</ele>
        <time>2019-07-08T20:42:29Z</time>
      </trkpt>
      <trkpt lat="45.07506" lon="7.05358">
        <ele>2065</ele>
        <time>2019-07-08T20:42:30Z</time>
      </trkpt>
      <trkpt lat="45.07508" lon="7.05349">
        <ele>2065</ele>
        <time>2019-07-08T20:42:31Z</time>
      </trkpt>
      <trkpt lat="45.07532" lon="7.05288">
        <ele>2072</ele>
        <time>2019-07-08T20:42:40Z</time>
      </trkpt>
      <trkpt lat="45.07539" lon="7.0528">
        <ele>2072</ele>
        <time>2019-07-08T20:42:41Z</time>
      </trkpt>
      <trkpt lat="45.0756" lon="7.05275">
        <ele>2070</ele>
        <time>2019-07-08T20:42:45Z</time>
      </trkpt>
      <trkpt lat="45.07563" lon="7.05271">
        <ele>2070</ele>
        <time>2019-07-08T20:42:46Z</time>
      </trkpt>
      <trkpt lat="45.07571" lon="7.05246">
        <ele>2076</ele>
        <time>2019-07-08T20:42:49Z</time>
      </trkpt>
      <trkpt lat="45.07575" lon="7.05238">
        <ele>2079</ele>
        <time>2019-07-08T20:42:51Z</time>
      </trkpt>
      <trkpt lat="45.07581" lon="7.05232">
        <ele>2082</ele>
        <time>2019-07-08T20:42:52Z</time>
      </trkpt>
      <trkpt lat="45.07629" lon="7.05201">
        <ele>2088</ele>
        <time>2019-07-08T20:43:01Z</time>
      </trkpt>
      <trkpt lat="45.07631" lon="7.05195">
        <ele>2091</ele>
        <time>2019-07-08T20:43:02Z</time>
      </trkpt>
      <trkpt lat="45.07628" lon="7.05188">
        <ele>2095</ele>
        <time>2019-07-08T20:43:03Z</time>
      </trkpt>
      <trkpt lat="45.07607" lon="7.052">
        <ele>2093</ele>
        <time>2019-07-08T20:43:07Z</time>
      </trkpt>
      <trkpt lat="45.07594" lon="7.05203">
        <ele>2094</ele>
        <time>2019-07-08T20:43:10Z</time>
      </trkpt>
      <trkpt lat="45.07565" lon="7.052">
        <ele>2099</ele>
        <time>2019-07-08T20:43:15Z</time>
      </trkpt>
      <trkpt lat="45.07559" lon="7.05201">
        <ele>2099</ele>
        <time>2019-07-08T20:43:16Z</time>
      </trkpt>
      <trkpt lat="45.07524" lon="7.05226">
        <ele>2092</ele>
        <time>2019-07-08T20:43:23Z</time>
      </trkpt>
      <trkpt lat="45.07493" lon="7.05225">
        <ele>2098</ele>
        <time>2019-07-08T20:43:28Z</time>
      </trkpt>
      <trkpt lat="45.07454" lon="7.05233">
        <ele>2105</ele>
        <time>2019-07-08T20:43:35Z</time>
      </trkpt>
      <trkpt lat="45.0744" lon="7.0524">
        <ele>2107</ele>
        <time>2019-07-08T20:43:38Z</time>
      </trkpt>
      <trkpt lat="45.07396" lon="7.05292">
        <ele>2112</ele>
        <time>2019-07-08T20:43:48Z</time>
      </trkpt>
      <trkpt lat="45.07392" lon="7.05299">
        <ele>2113</ele>
        <time>2019-07-08T20:43:49Z</time>
      </trkpt>
      <trkpt lat="45.07374" lon="7.05367">
        <ele>2116</ele>
        <time>2019-07-08T20:43:58Z</time>
      </trkpt>
      <trkpt lat="45.07372" lon="7.05378">
        <ele>2117</ele>
        <time>2019-07-08T20:44:00Z</time>
      </trkpt>
      <trkpt lat="45.07374" lon="7.05397">
        <ele>2118</ele>
        <time>2019-07-08T20:44:02Z</time>
      </trkpt>
      <trkpt lat="45.07394" lon="7.05443">
        <ele>2118</ele>
        <time>2019-07-08T20:44:09Z</time>
      </trkpt>
      <trkpt lat="45.07417" lon="7.05477">
        <ele>2116</ele>
        <time>2019-07-08T20:44:15Z</time>
      </trkpt>
      <trkpt lat="45.07446" lon="7.05527">
        <ele>2109</ele>
        <time>2019-07-08T20:44:23Z</time>
      </trkpt>
      <trkpt lat="45.07446" lon="7.05531">
        <ele>2110</ele>
        <time>2019-07-08T20:44:24Z</time>
      </trkpt>
      <trkpt lat="45.07444" lon="7.05533">
        <ele>2112</ele>
        <time>2019-07-08T20:44:24Z</time>
      </trkpt>
      <trkpt lat="45.07441" lon="7.05532">
        <ele>2114</ele>
        <time>2019-07-08T20:44:25Z</time>
      </trkpt>
      <trkpt lat="45.07402" lon="7.05491">
        <ele>2127</ele>
        <time>2019-07-08T20:44:33Z</time>
      </trkpt>
      <trkpt lat="45.07378" lon="7.05469">
        <ele>2133</ele>
        <time>2019-07-08T20:44:38Z</time>
      </trkpt>
      <trkpt lat="45.07319" lon="7.05409">
        <ele>2142</ele>
        <time>2019-07-08T20:44:51Z</time>
      </trkpt>
      <trkpt lat="45.07314" lon="7.05406">
        <ele>2143</ele>
        <time>2019-07-08T20:44:52Z</time>
      </trkpt>
      <trkpt lat="45.07287" lon="7.05407">
        <ele>2154</ele>
        <time>2019-07-08T20:44:57Z</time>
      </trkpt>
      <trkpt lat="45.07275" lon="7.05404">
        <ele>2158</ele>
        <time>2019-07-08T20:44:59Z</time>
      </trkpt>
      <trkpt lat="45.0726" lon="7.05391">
        <ele>2163</ele>
        <time>2019-07-08T20:45:02Z</time>
      </trkpt>
      <trkpt lat="45.07256" lon="7.05385">
        <ele>2164</ele>
        <time>2019-07-08T20:45:03Z</time>
      </trkpt>
      <trkpt lat="45.07255" lon="7.0538">
        <ele>2165</ele>
        <time>2019-07-08T20:45:04Z</time>
      </trkpt>
      <trkpt lat="45.07258" lon="7.05363">
        <ele>2163</ele>
        <time>2019-07-08T20:45:06Z</time>
      </trkpt>
      <trkpt lat="45.07257" lon="7.05358">
        <ele>2163</ele>
        <time>2019-07-08T20:45:07Z</time>
      </trkpt>
      <trkpt lat="45.07254" lon="7.05356">
        <ele>2164</ele>
        <time>2019-07-08T20:45:07Z</time>
      </trkpt>
      <trkpt lat="45.07249" lon="7.05359">
        <ele>2166</ele>
        <time>2019-07-08T20:45:08Z</time>
      </trkpt>
      <trkpt lat="45.07247" lon="7.05368">
        <ele>2167</ele>
        <time>2019-07-08T20:45:10Z</time>
      </trkpt>
      <trkpt lat="45.07247" lon="7.05378">
        <ele>2167</ele>
        <time>2019-07-08T20:45:11Z</time>
      </trkpt>
      <trkpt lat="45.07249" lon="7.05387">
        <ele>2167</ele>
        <time>2019-07-08T20:45:12Z</time>
      </trkpt>
      <trkpt lat="45.07276" lon="7.05436">
        <ele>2166</ele>
        <time>2019-07-08T20:45:20Z</time>
      </trkpt>
      <trkpt lat="45.07304" lon="7.05459">
        <ele>2164</ele>
        <time>2019-07-08T20:45:26Z</time>
      </trkpt>
      <trkpt lat="45.07304" lon="7.05463">
        <ele>2165</ele>
        <time>2019-07-08T20:45:26Z</time>
      </trkpt>
      <trkpt lat="45.07299" lon="7.05465">
        <ele>2168</ele>
        <time>2019-07-08T20:45:27Z</time>
      </trkpt>
      <trkpt lat="45.0727" lon="7.05448">
        <ele>2173</ele>
        <time>2019-07-08T20:45:33Z</time>
      </trkpt>
      <trkpt lat="45.07262" lon="7.05441">
        <ele>2174</ele>
        <time>2019-07-08T20:45:34Z</time>
      </trkpt>
      <trkpt lat="45.07247" lon="7.05421">
        <ele>2171</ele>
        <time>2019-07-08T20:45:38Z</time>
      </trkpt>
      <trkpt lat="45.07212" lon="7.05394">
        <ele>2176</ele>
        <time>2019-07-08T20:45:45Z</time>
      </trkpt>
      <trkpt lat="45.07208" lon="7.05387">
        <ele>2176</ele>
        <time>2019-07-08T20:45:46Z</time>
      </trkpt>
      <trkpt lat="45.07207" lon="7.05351">
        <ele>2170</ele>
        <time>2019-07-08T20:45:51Z</time>
      </trkpt>
      <trkpt lat="45.07203" lon="7.05333">
        <ele>2168</ele>
        <time>2019-07-08T20:45:53Z</time>
      </trkpt>
      <trkpt lat="45.07205" lon="7.05322">
        <ele>2167</ele>
        <time>2019-07-08T20:45:54Z</time>
      </trkpt>
      <trkpt lat="45.07217" lon="7.05279">
        <ele>2166</ele>
        <time>2019-07-08T20:46:00Z</time>
      </trkpt>
      <trkpt lat="45.07236" lon="7.05192">
        <ele>2167</ele>
        <time>2019-07-08T20:46:12Z</time>
      </trkpt>
      <trkpt lat="45.07238" lon="7.05169">
        <ele>2167</ele>
        <time>2019-07-08T20:46:15Z</time>
      </trkpt>
      <trkpt lat="45.07234" lon="7.05047">
        <ele>2157</ele>
        <time>2019-07-08T20:46:30Z</time>
      </trkpt>
      <trkpt lat="45.0723" lon="7.05006">
        <ele>2152</ele>
        <time>2019-07-08T20:46:35Z</time>
      </trkpt>
      <trkpt lat="45.0722" lon="7.04935">
        <ele>2144</ele>
        <time>2019-07-08T20:46:44Z</time>
      </trkpt>
      <trkpt lat="45.07212" lon="7.04823">
        <ele>2136</ele>
        <time>2019-07-08T20:46:58Z</time>
      </trkpt>
      <trkpt lat="45.07212" lon="7.04796">
        <ele>2134</ele>
        <time>2019-07-08T20:47:02Z</time>
      </trkpt>
      <trkpt lat="45.07215" lon="7.04774">
        <ele>2134</ele>
        <time>2019-07-08T20:47:05Z</time>
      </trkpt>
      <trkpt lat="45.0722" lon="7.04749">
        <ele>2135</ele>
        <time>2019-07-08T20:47:08Z</time>
      </trkpt>
      <trkpt lat="45.07221" lon="7.0473">
        <ele>2134</ele>
        <time>2019-07-08T20:47:10Z</time>
      </trkpt>
      <trkpt lat="45.07215" lon="7.04499">
        <ele>2120</ele>
        <time>2019-07-08T20:47:39Z</time>
      </trkpt>
      <trkpt lat="45.07212" lon="7.0449">
        <ele>2118</ele>
        <time>2019-07-08T20:47:41Z</time>
      </trkpt>
      <trkpt lat="45.07206" lon="7.04487">
        <ele>2115</ele>
        <time>2019-07-08T20:47:42Z</time>
      </trkpt>
      <trkpt lat="45.07201" lon="7.0449">
        <ele>2113</ele>
        <time>2019-07-08T20:47:43Z</time>
      </trkpt>
      <trkpt lat="45.07193" lon="7.04517">
        <ele>2111</ele>
        <time>2019-07-08T20:47:46Z</time>
      </trkpt>
      <trkpt lat="45.07165" lon="7.04626">
        <ele>2103</ele>
        <time>2019-07-08T20:48:01Z</time>
      </trkpt>
      <trkpt lat="45.07155" lon="7.04685">
        <ele>2101</ele>
        <time>2019-07-08T20:48:09Z</time>
      </trkpt>
      <trkpt lat="45.07148" lon="7.04707">
        <ele>2100</ele>
        <time>2019-07-08T20:48:12Z</time>
      </trkpt>
      <trkpt lat="45.07111" lon="7.04784">
        <ele>2087</ele>
        <time>2019-07-08T20:48:23Z</time>
      </trkpt>
      <trkpt lat="45.07108" lon="7.04807">
        <ele>2086</ele>
        <time>2019-07-08T20:48:26Z</time>
      </trkpt>
      <trkpt lat="45.07107" lon="7.04916">
        <ele>2084</ele>
        <time>2019-07-08T20:48:40Z</time>
      </trkpt>
      <trkpt lat="45.07102" lon="7.04959">
        <ele>2082</ele>
        <time>2019-07-08T20:48:45Z</time>
      </trkpt>
      <trkpt lat="45.07096" lon="7.04985">
        <ele>2080</ele>
        <time>2019-07-08T20:48:49Z</time>
      </trkpt>
      <trkpt lat="45.07082" lon="7.05023">
        <ele>2076</ele>
        <time>2019-07-08T20:48:54Z</time>
      </trkpt>
      <trkpt lat="45.07075" lon="7.05032">
        <ele>2075</ele>
        <time>2019-07-08T20:48:56Z</time>
      </trkpt>
      <trkpt lat="45.07044" lon="7.05061">
        <ele>2070</ele>
        <time>2019-07-08T20:49:03Z</time>
      </trkpt>
      <trkpt lat="45.07038" lon="7.05069">
        <ele>2069</ele>
        <time>2019-07-08T20:49:04Z</time>
      </trkpt>
      <trkpt lat="45.07027" lon="7.05091">
        <ele>2072</ele>
        <time>2019-07-08T20:49:07Z</time>
      </trkpt>
      <trkpt lat="45.07018" lon="7.05095">
        <ele>2072</ele>
        <time>2019-07-08T20:49:09Z</time>
      </trkpt>
      <trkpt lat="45.07003" lon="7.05088">
        <ele>2066</ele>
        <time>2019-07-08T20:49:12Z</time>
      </trkpt>
      <trkpt lat="45.06971" lon="7.05061">
        <ele>2060</ele>
        <time>2019-07-08T20:49:18Z</time>
      </trkpt>
      <trkpt lat="45.06925" lon="7.05028">
        <ele>2048</ele>
        <time>2019-07-08T20:49:28Z</time>
      </trkpt>
      <trkpt lat="45.06876" lon="7.04998">
        <ele>2042</ele>
        <time>2019-07-08T20:49:37Z</time>
      </trkpt>
      <trkpt lat="45.0678" lon="7.04945">
        <ele>2032</ele>
        <time>2019-07-08T20:49:55Z</time>
      </trkpt>
      <trkpt lat="45.06734" lon="7.04928">
        <ele>2023</ele>
        <time>2019-07-08T20:50:04Z</time>
      </trkpt>
      <trkpt lat="45.06726" lon="7.04927">
        <ele>2020</ele>
        <time>2019-07-08T20:50:05Z</time>
      </trkpt>
      <trkpt lat="45.06713" lon="7.04931">
        <ele>2018</ele>
        <time>2019-07-08T20:50:08Z</time>
      </trkpt>
      <trkpt lat="45.06675" lon="7.04971">
        <ele>2021</ele>
        <time>2019-07-08T20:50:16Z</time>
      </trkpt>
      <trkpt lat="45.06651" lon="7.05">
        <ele>2023</ele>
        <time>2019-07-08T20:50:22Z</time>
      </trkpt>
      <trkpt lat="45.0661" lon="7.05027">
        <ele>2019</ele>
        <time>2019-07-08T20:50:30Z</time>
      </trkpt>
      <trkpt lat="45.06582" lon="7.05035">
        <ele>2013</ele>
        <time>2019-07-08T20:50:35Z</time>
      </trkpt>
      <trkpt lat="45.06512" lon="7.05038">
        <ele>2004</ele>
        <time>2019-07-08T20:50:47Z</time>
      </trkpt>
      <trkpt lat="45.06505" lon="7.05038">
        <ele>2002</ele>
        <time>2019-07-08T20:50:49Z</time>
      </trkpt>
      <trkpt lat="45.06483" lon="7.05031">
        <ele>1994</ele>
        <time>2019-07-08T20:50:53Z</time>
      </trkpt>
      <trkpt lat="45.06478" lon="7.05031">
        <ele>1992</ele>
        <time>2019-07-08T20:50:54Z</time>
      </trkpt>
      <trkpt lat="45.06449" lon="7.05049">
        <ele>1989</ele>
        <time>2019-07-08T20:50:59Z</time>
      </trkpt>
      <trkpt lat="45.06436" lon="7.05062">
        <ele>1988</ele>
        <time>2019-07-08T20:51:02Z</time>
      </trkpt>
      <trkpt lat="45.06431" lon="7.05069">
        <ele>1989</ele>
        <time>2019-07-08T20:51:03Z</time>
      </trkpt>
      <trkpt lat="45.06428" lon="7.05079">
        <ele>1990</ele>
        <time>2019-07-08T20:51:05Z</time>
      </trkpt>
      <trkpt lat="45.0642" lon="7.05147">
        <ele>1996</ele>
        <time>2019-07-08T20:51:13Z</time>
      </trkpt>
      <trkpt lat="45.06414" lon="7.05172">
        <ele>1997</ele>
        <time>2019-07-08T20:51:17Z</time>
      </trkpt>
      <trkpt lat="45.06409" lon="7.05179">
        <ele>1996</ele>
        <time>2019-07-08T20:51:18Z</time>
      </trkpt>
      <trkpt lat="45.06382" lon="7.05199">
        <ele>1992</ele>
        <time>2019-07-08T20:51:23Z</time>
      </trkpt>
      <trkpt lat="45.06378" lon="7.05204">
        <ele>1991</ele>
        <time>2019-07-08T20:51:24Z</time>
      </trkpt>
      <trkpt lat="45.06374" lon="7.05212">
        <ele>1992</ele>
        <time>2019-07-08T20:51:25Z</time>
      </trkpt>
      <trkpt lat="45.06369" lon="7.05234">
        <ele>1994</ele>
        <time>2019-07-08T20:51:28Z</time>
      </trkpt>
      <trkpt lat="45.06365" lon="7.0524">
        <ele>1994</ele>
        <time>2019-07-08T20:51:29Z</time>
      </trkpt>
      <trkpt lat="45.06361" lon="7.05243">
        <ele>1993</ele>
        <time>2019-07-08T20:51:30Z</time>
      </trkpt>
      <trkpt lat="45.06356" lon="7.05243">
        <ele>1992</ele>
        <time>2019-07-08T20:51:31Z</time>
      </trkpt>
      <trkpt lat="45.06349" lon="7.05241">
        <ele>1990</ele>
        <time>2019-07-08T20:51:32Z</time>
      </trkpt>
      <trkpt lat="45.0634" lon="7.05231">
        <ele>1986</ele>
        <time>2019-07-08T20:51:34Z</time>
      </trkpt>
      <trkpt lat="45.06311" lon="7.05177">
        <ele>1974</ele>
        <time>2019-07-08T20:51:43Z</time>
      </trkpt>
      <trkpt lat="45.06298" lon="7.05165">
        <ele>1972</ele>
        <time>2019-07-08T20:51:46Z</time>
      </trkpt>
      <trkpt lat="45.06282" lon="7.05159">
        <ele>1971</ele>
        <time>2019-07-08T20:51:49Z</time>
      </trkpt>
      <trkpt lat="45.06229" lon="7.05159">
        <ele>1969</ele>
        <time>2019-07-08T20:51:58Z</time>
      </trkpt>
      <trkpt lat="45.06185" lon="7.05168">
        <ele>1966</ele>
        <time>2019-07-08T20:52:06Z</time>
      </trkpt>
      <trkpt lat="45.06167" lon="7.05169">
        <ele>1964</ele>
        <time>2019-07-08T20:52:09Z</time>
      </trkpt>
      <trkpt lat="45.06154" lon="7.05163">
        <ele>1967</ele>
        <time>2019-07-08T20:52:12Z</time>
      </trkpt>
      <trkpt lat="45.06119" lon="7.05128">
        <ele>1972</ele>
        <time>2019-07-08T20:52:19Z</time>
      </trkpt>
      <trkpt lat="45.06116" lon="7.05123">
        <ele>1972</ele>
        <time>2019-07-08T20:52:20Z</time>
      </trkpt>
      <trkpt lat="45.06117" lon="7.05118">
        <ele>1971</ele>
        <time>2019-07-08T20:52:21Z</time>
      </trkpt>
      <trkpt lat="45.0611" lon="7.05091">
        <ele>1969</ele>
        <time>2019-07-08T20:52:24Z</time>
      </trkpt>
      <trkpt lat="45.06108" lon="7.05035">
        <ele>1959</ele>
        <time>2019-07-08T20:52:31Z</time>
      </trkpt>
      <trkpt lat="45.061" lon="7.04978">
        <ele>1949</ele>
        <time>2019-07-08T20:52:39Z</time>
      </trkpt>
      <trkpt lat="45.06093" lon="7.0495">
        <ele>1943</ele>
        <time>2019-07-08T20:52:42Z</time>
      </trkpt>
      <trkpt lat="45.0608" lon="7.04927">
        <ele>1940</ele>
        <time>2019-07-08T20:52:46Z</time>
      </trkpt>
      <trkpt lat="45.06071" lon="7.0492">
        <ele>1938</ele>
        <time>2019-07-08T20:52:48Z</time>
      </trkpt>
      <trkpt lat="45.06056" lon="7.04917">
        <ele>1938</ele>
        <time>2019-07-08T20:52:51Z</time>
      </trkpt>
      <trkpt lat="45.06001" lon="7.04925">
        <ele>1943</ele>
        <time>2019-07-08T20:53:00Z</time>
      </trkpt>
      <trkpt lat="45.05972" lon="7.04927">
        <ele>1943</ele>
        <time>2019-07-08T20:53:06Z</time>
      </trkpt>
      <trkpt lat="45.05952" lon="7.04935">
        <ele>1944</ele>
        <time>2019-07-08T20:53:09Z</time>
      </trkpt>
      <trkpt lat="45.05936" lon="7.04939">
        <ele>1945</ele>
        <time>2019-07-08T20:53:12Z</time>
      </trkpt>
      <trkpt lat="45.05922" lon="7.04935">
        <ele>1943</ele>
        <time>2019-07-08T20:53:15Z</time>
      </trkpt>
      <trkpt lat="45.05884" lon="7.04911">
        <ele>1933</ele>
        <time>2019-07-08T20:53:22Z</time>
      </trkpt>
      <trkpt lat="45.05869" lon="7.04905">
        <ele>1930</ele>
        <time>2019-07-08T20:53:25Z</time>
      </trkpt>
      <trkpt lat="45.05853" lon="7.04902">
        <ele>1928</ele>
        <time>2019-07-08T20:53:28Z</time>
      </trkpt>
      <trkpt lat="45.05835" lon="7.04904">
        <ele>1927</ele>
        <time>2019-07-08T20:53:31Z</time>
      </trkpt>
      <trkpt lat="45.05822" lon="7.04917">
        <ele>1925</ele>
        <time>2019-07-08T20:53:34Z</time>
      </trkpt>
      <trkpt lat="45.058" lon="7.04951">
        <ele>1926</ele>
        <time>2019-07-08T20:53:40Z</time>
      </trkpt>
      <trkpt lat="45.05769" lon="7.05016">
        <ele>1929</ele>
        <time>2019-07-08T20:53:50Z</time>
      </trkpt>
      <trkpt lat="45.0576" lon="7.05044">
        <ele>1932</ele>
        <time>2019-07-08T20:53:53Z</time>
      </trkpt>
      <trkpt lat="45.05753" lon="7.05055">
        <ele>1932</ele>
        <time>2019-07-08T20:53:55Z</time>
      </trkpt>
      <trkpt lat="45.05744" lon="7.0506">
        <ele>1931</ele>
        <time>2019-07-08T20:53:57Z</time>
      </trkpt>
      <trkpt lat="45.05695" lon="7.05071">
        <ele>1921</ele>
        <time>2019-07-08T20:54:06Z</time>
      </trkpt>
      <trkpt lat="45.05587" lon="7.05128">
        <ele>1921</ele>
        <time>2019-07-08T20:54:26Z</time>
      </trkpt>
      <trkpt lat="45.05556" lon="7.05152">
        <ele>1926</ele>
        <time>2019-07-08T20:54:33Z</time>
      </trkpt>
      <trkpt lat="45.05538" lon="7.0516">
        <ele>1926</ele>
        <time>2019-07-08T20:54:36Z</time>
      </trkpt>
      <trkpt lat="45.05503" lon="7.05167">
        <ele>1921</ele>
        <time>2019-07-08T20:54:42Z</time>
      </trkpt>
      <trkpt lat="45.05453" lon="7.05185">
        <ele>1922</ele>
        <time>2019-07-08T20:54:51Z</time>
      </trkpt>
      <trkpt lat="45.05428" lon="7.05189">
        <ele>1920</ele>
        <time>2019-07-08T20:54:56Z</time>
      </trkpt>
      <trkpt lat="45.05411" lon="7.05188">
        <ele>1919</ele>
        <time>2019-07-08T20:54:59Z</time>
      </trkpt>
      <trkpt lat="45.05398" lon="7.05181">
        <ele>1917</ele>
        <time>2019-07-08T20:55:01Z</time>
      </trkpt>
      <trkpt lat="45.05375" lon="7.05162">
        <ele>1912</ele>
        <time>2019-07-08T20:55:06Z</time>
      </trkpt>
      <trkpt lat="45.05358" lon="7.05151">
        <ele>1911</ele>
        <time>2019-07-08T20:55:09Z</time>
      </trkpt>
      <trkpt lat="45.05341" lon="7.05144">
        <ele>1910</ele>
        <time>2019-07-08T20:55:13Z</time>
      </trkpt>
      <trkpt lat="45.05296" lon="7.05135">
        <ele>1917</ele>
        <time>2019-07-08T20:55:21Z</time>
      </trkpt>
      <trkpt lat="45.05273" lon="7.05123">
        <ele>1918</ele>
        <time>2019-07-08T20:55:25Z</time>
      </trkpt>
      <trkpt lat="45.05215" lon="7.05064">
        <ele>1912</ele>
        <time>2019-07-08T20:55:38Z</time>
      </trkpt>
      <trkpt lat="45.05195" lon="7.0504">
        <ele>1908</ele>
        <time>2019-07-08T20:55:42Z</time>
      </trkpt>
      <trkpt lat="45.05129" lon="7.04992">
        <ele>1907</ele>
        <time>2019-07-08T20:55:56Z</time>
      </trkpt>
      <trkpt lat="45.05075" lon="7.04945">
        <ele>1903</ele>
        <time>2019-07-08T20:56:07Z</time>
      </trkpt>
      <trkpt lat="45.05052" lon="7.04921">
        <ele>1897</ele>
        <time>2019-07-08T20:56:12Z</time>
      </trkpt>
      <trkpt lat="45.05035" lon="7.04912">
        <ele>1895</ele>
        <time>2019-07-08T20:56:15Z</time>
      </trkpt>
      <trkpt lat="45.05018" lon="7.0491">
        <ele>1896</ele>
        <time>2019-07-08T20:56:18Z</time>
      </trkpt>
      <trkpt lat="45.05001" lon="7.04911">
        <ele>1897</ele>
        <time>2019-07-08T20:56:21Z</time>
      </trkpt>
      <trkpt lat="45.04972" lon="7.04903">
        <ele>1887</ele>
        <time>2019-07-08T20:56:27Z</time>
      </trkpt>
      <trkpt lat="45.04961" lon="7.04902">
        <ele>1883</ele>
        <time>2019-07-08T20:56:28Z</time>
      </trkpt>
      <trkpt lat="45.04956" lon="7.04906">
        <ele>1882</ele>
        <time>2019-07-08T20:56:30Z</time>
      </trkpt>
      <trkpt lat="45.04948" lon="7.04929">
        <ele>1881</ele>
        <time>2019-07-08T20:56:33Z</time>
      </trkpt>
      <trkpt lat="45.04948" lon="7.04952">
        <ele>1884</ele>
        <time>2019-07-08T20:56:36Z</time>
      </trkpt>
      <trkpt lat="45.04941" lon="7.04982">
        <ele>1883</ele>
        <time>2019-07-08T20:56:40Z</time>
      </trkpt>
      <trkpt lat="45.04926" lon="7.05026">
        <ele>1874</ele>
        <time>2019-07-08T20:56:46Z</time>
      </trkpt>
      <trkpt lat="45.04915" lon="7.05052">
        <ele>1864</ele>
        <time>2019-07-08T20:56:50Z</time>
      </trkpt>
      <trkpt lat="45.04916" lon="7.05066">
        <ele>1863</ele>
        <time>2019-07-08T20:56:51Z</time>
      </trkpt>
      <trkpt lat="45.04921" lon="7.05077">
        <ele>1866</ele>
        <time>2019-07-08T20:56:53Z</time>
      </trkpt>
      <trkpt lat="45.04933" lon="7.05087">
        <ele>1873</ele>
        <time>2019-07-08T20:56:55Z</time>
      </trkpt>
      <trkpt lat="45.04953" lon="7.05118">
        <ele>1879</ele>
        <time>2019-07-08T20:57:01Z</time>
      </trkpt>
      <trkpt lat="45.04968" lon="7.05153">
        <ele>1881</ele>
        <time>2019-07-08T20:57:06Z</time>
      </trkpt>
      <trkpt lat="45.04971" lon="7.05168">
        <ele>1879</ele>
        <time>2019-07-08T20:57:08Z</time>
      </trkpt>
      <trkpt lat="45.04968" lon="7.05186">
        <ele>1873</ele>
        <time>2019-07-08T20:57:10Z</time>
      </trkpt>
      <trkpt lat="45.04962" lon="7.05205">
        <ele>1866</ele>
        <time>2019-07-08T20:57:13Z</time>
      </trkpt>
      <trkpt lat="45.0496" lon="7.05219">
        <ele>1862</ele>
        <time>2019-07-08T20:57:15Z</time>
      </trkpt>
      <trkpt lat="45.04964" lon="7.05236">
        <ele>1862</ele>
        <time>2019-07-08T20:57:17Z</time>
      </trkpt>
      <trkpt lat="45.04973" lon="7.05255">
        <ele>1866</ele>
        <time>2019-07-08T20:57:20Z</time>
      </trkpt>
      <trkpt lat="45.04982" lon="7.05278">
        <ele>1868</ele>
        <time>2019-07-08T20:57:23Z</time>
      </trkpt>
      <trkpt lat="45.04988" lon="7.05333">
        <ele>1861</ele>
        <time>2019-07-08T20:57:30Z</time>
      </trkpt>
      <trkpt lat="45.04996" lon="7.05369">
        <ele>1858</ele>
        <time>2019-07-08T20:57:35Z</time>
      </trkpt>
      <trkpt lat="45.05005" lon="7.05397">
        <ele>1858</ele>
        <time>2019-07-08T20:57:39Z</time>
      </trkpt>
      <trkpt lat="45.05009" lon="7.05419">
        <ele>1856</ele>
        <time>2019-07-08T20:57:41Z</time>
      </trkpt>
      <trkpt lat="45.05009" lon="7.05443">
        <ele>1855</ele>
        <time>2019-07-08T20:57:44Z</time>
      </trkpt>
      <trkpt lat="45.05" lon="7.05557">
        <ele>1849</ele>
        <time>2019-07-08T20:57:59Z</time>
      </trkpt>
      <trkpt lat="45.04995" lon="7.05592">
        <ele>1848</ele>
        <time>2019-07-08T20:58:03Z</time>
      </trkpt>
      <trkpt lat="45.04987" lon="7.05611">
        <ele>1845</ele>
        <time>2019-07-08T20:58:06Z</time>
      </trkpt>
      <trkpt lat="45.04982" lon="7.05633">
        <ele>1845</ele>
        <time>2019-07-08T20:58:09Z</time>
      </trkpt>
      <trkpt lat="45.0498" lon="7.05697">
        <ele>1847</ele>
        <time>2019-07-08T20:58:17Z</time>
      </trkpt>
      <trkpt lat="45.04977" lon="7.05719">
        <ele>1846</ele>
        <time>2019-07-08T20:58:20Z</time>
      </trkpt>
      <trkpt lat="45.04966" lon="7.05754">
        <ele>1843</ele>
        <time>2019-07-08T20:58:25Z</time>
      </trkpt>
      <trkpt lat="45.04952" lon="7.05814">
        <ele>1838</ele>
        <time>2019-07-08T20:58:33Z</time>
      </trkpt>
      <trkpt lat="45.04948" lon="7.0584">
        <ele>1836</ele>
        <time>2019-07-08T20:58:36Z</time>
      </trkpt>
      <trkpt lat="45.04949" lon="7.05864">
        <ele>1835</ele>
        <time>2019-07-08T20:58:39Z</time>
      </trkpt>
      <trkpt lat="45.04966" lon="7.05928">
        <ele>1838</ele>
        <time>2019-07-08T20:58:48Z</time>
      </trkpt>
      <trkpt lat="45.04987" lon="7.06018">
        <ele>1837</ele>
        <time>2019-07-08T20:59:00Z</time>
      </trkpt>
      <trkpt lat="45.04997" lon="7.06076">
        <ele>1835</ele>
        <time>2019-07-08T20:59:07Z</time>
      </trkpt>
      <trkpt lat="45.05002" lon="7.06135">
        <ele>1834</ele>
        <time>2019-07-08T20:59:15Z</time>
      </trkpt>
      <trkpt lat="45.05011" lon="7.06172">
        <ele>1835</ele>
        <time>2019-07-08T20:59:19Z</time>
      </trkpt>
      <trkpt lat="45.05027" lon="7.06216">
        <ele>1836</ele>
        <time>2019-07-08T20:59:26Z</time>
      </trkpt>
      <trkpt lat="45.05035" lon="7.06244">
        <ele>1836</ele>
        <time>2019-07-08T20:59:29Z</time>
      </trkpt>
      <trkpt lat="45.05042" lon="7.06285">
        <ele>1837</ele>
        <time>2019-07-08T20:59:35Z</time>
      </trkpt>
      <trkpt lat="45.05047" lon="7.06395">
        <ele>1833</ele>
        <time>2019-07-08T20:59:49Z</time>
      </trkpt>
      <trkpt lat="45.05052" lon="7.06409">
        <ele>1834</ele>
        <time>2019-07-08T20:59:51Z</time>
      </trkpt>
      <trkpt lat="45.05061" lon="7.06424">
        <ele>1837</ele>
        <time>2019-07-08T20:59:53Z</time>
      </trkpt>
      <trkpt lat="45.0506" lon="7.06434">
        <ele>1837</ele>
        <time>2019-07-08T20:59:54Z</time>
      </trkpt>
      <trkpt lat="45.0505" lon="7.06447">
        <ele>1834</ele>
        <time>2019-07-08T20:59:57Z</time>
      </trkpt>
      <trkpt lat="45.05049" lon="7.06462">
        <ele>1834</ele>
        <time>2019-07-08T20:59:59Z</time>
      </trkpt>
      <trkpt lat="45.05054" lon="7.06497">
        <ele>1837</ele>
        <time>2019-07-08T21:00:03Z</time>
      </trkpt>
      <trkpt lat="45.05058" lon="7.06581">
        <ele>1838</ele>
        <time>2019-07-08T21:00:14Z</time>
      </trkpt>
      <trkpt lat="45.05072" lon="7.06664">
        <ele>1841</ele>
        <time>2019-07-08T21:00:24Z</time>
      </trkpt>
      <trkpt lat="45.05074" lon="7.06699">
        <ele>1839</ele>
        <time>2019-07-08T21:00:29Z</time>
      </trkpt>
      <trkpt lat="45.05082" lon="7.06745">
        <ele>1839</ele>
        <time>2019-07-08T21:00:35Z</time>
      </trkpt>
      <trkpt lat="45.05081" lon="7.0677">
        <ele>1838</ele>
        <time>2019-07-08T21:00:38Z</time>
      </trkpt>
      <trkpt lat="45.05064" lon="7.06821">
        <ele>1831</ele>
        <time>2019-07-08T21:00:45Z</time>
      </trkpt>
      <trkpt lat="45.05088" lon="7.06919">
        <ele>1837</ele>
        <time>2019-07-08T21:00:58Z</time>
      </trkpt>
      <trkpt lat="45.05102" lon="7.06988">
        <ele>1832</ele>
        <time>2019-07-08T21:01:07Z</time>
      </trkpt>
      <trkpt lat="45.05106" lon="7.07019">
        <ele>1828</ele>
        <time>2019-07-08T21:01:11Z</time>
      </trkpt>
      <trkpt lat="45.05107" lon="7.07042">
        <ele>1824</ele>
        <time>2019-07-08T21:01:14Z</time>
      </trkpt>
      <trkpt lat="45.05111" lon="7.0706">
        <ele>1821</ele>
        <time>2019-07-08T21:01:16Z</time>
      </trkpt>
      <trkpt lat="45.05129" lon="7.07086">
        <ele>1823</ele>
        <time>2019-07-08T21:01:21Z</time>
      </trkpt>
      <trkpt lat="45.05147" lon="7.07101">
        <ele>1825</ele>
        <time>2019-07-08T21:01:25Z</time>
      </trkpt>
      <trkpt lat="45.05167" lon="7.07111">
        <ele>1830</ele>
        <time>2019-07-08T21:01:28Z</time>
      </trkpt>
      <trkpt lat="45.05193" lon="7.07119">
        <ele>1836</ele>
        <time>2019-07-08T21:01:33Z</time>
      </trkpt>
      <trkpt lat="45.05211" lon="7.07115">
        <ele>1843</ele>
        <time>2019-07-08T21:01:36Z</time>
      </trkpt>
      <trkpt lat="45.05232" lon="7.07118">
        <ele>1849</ele>
        <time>2019-07-08T21:01:40Z</time>
      </trkpt>
      <trkpt lat="45.05239" lon="7.07128">
        <ele>1849</ele>
        <time>2019-07-08T21:01:42Z</time>
      </trkpt>
      <trkpt lat="45.05244" lon="7.07144">
        <ele>1848</ele>
        <time>2019-07-08T21:01:44Z</time>
      </trkpt>
      <trkpt lat="45.05244" lon="7.0716">
        <ele>1844</ele>
        <time>2019-07-08T21:01:46Z</time>
      </trkpt>
      <trkpt lat="45.05237" lon="7.07191">
        <ele>1837</ele>
        <time>2019-07-08T21:01:50Z</time>
      </trkpt>
      <trkpt lat="45.05242" lon="7.07266">
        <ele>1834</ele>
        <time>2019-07-08T21:02:00Z</time>
      </trkpt>
      <trkpt lat="45.05245" lon="7.07291">
        <ele>1834</ele>
        <time>2019-07-08T21:02:03Z</time>
      </trkpt>
      <trkpt lat="45.05254" lon="7.07324">
        <ele>1837</ele>
        <time>2019-07-08T21:02:07Z</time>
      </trkpt>
      <trkpt lat="45.0526" lon="7.07357">
        <ele>1837</ele>
        <time>2019-07-08T21:02:12Z</time>
      </trkpt>
      <trkpt lat="45.05264" lon="7.07399">
        <ele>1835</ele>
        <time>2019-07-08T21:02:17Z</time>
      </trkpt>
      <trkpt lat="45.05268" lon="7.07436">
        <ele>1832</ele>
        <time>2019-07-08T21:02:22Z</time>
      </trkpt>
      <trkpt lat="45.05267" lon="7.07485">
        <ele>1825</ele>
        <time>2019-07-08T21:02:28Z</time>
      </trkpt>
      <trkpt lat="45.05274" lon="7.07515">
        <ele>1823</ele>
        <time>2019-07-08T21:02:32Z</time>
      </trkpt>
      <trkpt lat="45.05287" lon="7.07534">
        <ele>1826</ele>
        <time>2019-07-08T21:02:35Z</time>
      </trkpt>
      <trkpt lat="45.05294" lon="7.07554">
        <ele>1825</ele>
        <time>2019-07-08T21:02:38Z</time>
      </trkpt>
      <trkpt lat="45.05296" lon="7.0758">
        <ele>1820</ele>
        <time>2019-07-08T21:02:41Z</time>
      </trkpt>
      <trkpt lat="45.05288" lon="7.07619">
        <ele>1814</ele>
        <time>2019-07-08T21:02:46Z</time>
      </trkpt>
      <trkpt lat="45.05295" lon="7.07674">
        <ele>1819</ele>
        <time>2019-07-08T21:02:53Z</time>
      </trkpt>
      <trkpt lat="45.05305" lon="7.07715">
        <ele>1827</ele>
        <time>2019-07-08T21:02:59Z</time>
      </trkpt>
      <trkpt lat="45.05302" lon="7.0773">
        <ele>1827</ele>
        <time>2019-07-08T21:03:01Z</time>
      </trkpt>
      <trkpt lat="45.05294" lon="7.0774">
        <ele>1824</ele>
        <time>2019-07-08T21:03:03Z</time>
      </trkpt>
      <trkpt lat="45.05278" lon="7.07744">
        <ele>1818</ele>
        <time>2019-07-08T21:03:06Z</time>
      </trkpt>
      <trkpt lat="45.05271" lon="7.07756">
        <ele>1816</ele>
        <time>2019-07-08T21:03:07Z</time>
      </trkpt>
      <trkpt lat="45.05267" lon="7.07784">
        <ele>1818</ele>
        <time>2019-07-08T21:03:11Z</time>
      </trkpt>
      <trkpt lat="45.05258" lon="7.07792">
        <ele>1816</ele>
        <time>2019-07-08T21:03:13Z</time>
      </trkpt>
      <trkpt lat="45.05246" lon="7.07793">
        <ele>1812</ele>
        <time>2019-07-08T21:03:15Z</time>
      </trkpt>
      <trkpt lat="45.05234" lon="7.07805">
        <ele>1811</ele>
        <time>2019-07-08T21:03:18Z</time>
      </trkpt>
      <trkpt lat="45.05228" lon="7.07819">
        <ele>1812</ele>
        <time>2019-07-08T21:03:20Z</time>
      </trkpt>
      <trkpt lat="45.05221" lon="7.07851">
        <ele>1813</ele>
        <time>2019-07-08T21:03:24Z</time>
      </trkpt>
      <trkpt lat="45.0522" lon="7.0789">
        <ele>1814</ele>
        <time>2019-07-08T21:03:29Z</time>
      </trkpt>
      <trkpt lat="45.05216" lon="7.07915">
        <ele>1815</ele>
        <time>2019-07-08T21:03:32Z</time>
      </trkpt>
      <trkpt lat="45.05189" lon="7.07971">
        <ele>1818</ele>
        <time>2019-07-08T21:03:41Z</time>
      </trkpt>
      <trkpt lat="45.0517" lon="7.0799">
        <ele>1815</ele>
        <time>2019-07-08T21:03:45Z</time>
      </trkpt>
      <trkpt lat="45.0515" lon="7.08006">
        <ele>1817</ele>
        <time>2019-07-08T21:03:49Z</time>
      </trkpt>
      <trkpt lat="45.05135" lon="7.08014">
        <ele>1819</ele>
        <time>2019-07-08T21:03:52Z</time>
      </trkpt>
      <trkpt lat="45.05109" lon="7.08017">
        <ele>1818</ele>
        <time>2019-07-08T21:03:56Z</time>
      </trkpt>
      <trkpt lat="45.05085" lon="7.0801">
        <ele>1814</ele>
        <time>2019-07-08T21:04:01Z</time>
      </trkpt>
      <trkpt lat="45.05051" lon="7.07992">
        <ele>1816</ele>
        <time>2019-07-08T21:04:07Z</time>
      </trkpt>
      <trkpt lat="45.05028" lon="7.07976">
        <ele>1817</ele>
        <time>2019-07-08T21:04:12Z</time>
      </trkpt>
      <trkpt lat="45.05004" lon="7.07952">
        <ele>1814</ele>
        <time>2019-07-08T21:04:17Z</time>
      </trkpt>
      <trkpt lat="45.04983" lon="7.07927">
        <ele>1807</ele>
        <time>2019-07-08T21:04:22Z</time>
      </trkpt>
      <trkpt lat="45.04961" lon="7.0791">
        <ele>1801</ele>
        <time>2019-07-08T21:04:26Z</time>
      </trkpt>
      <trkpt lat="45.04946" lon="7.07904">
        <ele>1799</ele>
        <time>2019-07-08T21:04:29Z</time>
      </trkpt>
      <trkpt lat="45.04932" lon="7.07907">
        <ele>1799</ele>
        <time>2019-07-08T21:04:32Z</time>
      </trkpt>
      <trkpt lat="45.04922" lon="7.07923">
        <ele>1803</ele>
        <time>2019-07-08T21:04:34Z</time>
      </trkpt>
      <trkpt lat="45.04898" lon="7.07976">
        <ele>1812</ele>
        <time>2019-07-08T21:04:42Z</time>
      </trkpt>
      <trkpt lat="45.04873" lon="7.08021">
        <ele>1816</ele>
        <time>2019-07-08T21:04:49Z</time>
      </trkpt>
      <trkpt lat="45.04861" lon="7.0804">
        <ele>1817</ele>
        <time>2019-07-08T21:04:53Z</time>
      </trkpt>
      <trkpt lat="45.0485" lon="7.0805">
        <ele>1816</ele>
        <time>2019-07-08T21:04:55Z</time>
      </trkpt>
      <trkpt lat="45.04836" lon="7.0805">
        <ele>1812</ele>
        <time>2019-07-08T21:04:57Z</time>
      </trkpt>
      <trkpt lat="45.04822" lon="7.08043">
        <ele>1810</ele>
        <time>2019-07-08T21:05:00Z</time>
      </trkpt>
      <trkpt lat="45.04805" lon="7.08029">
        <ele>1807</ele>
        <time>2019-07-08T21:05:04Z</time>
      </trkpt>
      <trkpt lat="45.04758" lon="7.08018">
        <ele>1806</ele>
        <time>2019-07-08T21:05:12Z</time>
      </trkpt>
      <trkpt lat="45.04735" lon="7.08005">
        <ele>1804</ele>
        <time>2019-07-08T21:05:16Z</time>
      </trkpt>
      <trkpt lat="45.04664" lon="7.07959">
        <ele>1800</ele>
        <time>2019-07-08T21:05:30Z</time>
      </trkpt>
      <trkpt lat="45.04637" lon="7.07949">
        <ele>1797</ele>
        <time>2019-07-08T21:05:35Z</time>
      </trkpt>
      <trkpt lat="45.04618" lon="7.07945">
        <ele>1796</ele>
        <time>2019-07-08T21:05:39Z</time>
      </trkpt>
      <trkpt lat="45.04601" lon="7.07947">
        <ele>1796</ele>
        <time>2019-07-08T21:05:42Z</time>
      </trkpt>
      <trkpt lat="45.04575" lon="7.07945">
        <ele>1796</ele>
        <time>2019-07-08T21:05:46Z</time>
      </trkpt>
      <trkpt lat="45.04554" lon="7.07939">
        <ele>1795</ele>
        <time>2019-07-08T21:05:50Z</time>
      </trkpt>
      <trkpt lat="45.04525" lon="7.07919">
        <ele>1792</ele>
        <time>2019-07-08T21:05:56Z</time>
      </trkpt>
      <trkpt lat="45.04516" lon="7.07903">
        <ele>1789</ele>
        <time>2019-07-08T21:05:59Z</time>
      </trkpt>
      <trkpt lat="45.0451" lon="7.07883">
        <ele>1786</ele>
        <time>2019-07-08T21:06:01Z</time>
      </trkpt>
      <trkpt lat="45.0448" lon="7.07853">
        <ele>1782</ele>
        <time>2019-07-08T21:06:08Z</time>
      </trkpt>
      <trkpt lat="45.04467" lon="7.07845">
        <ele>1781</ele>
        <time>2019-07-08T21:06:10Z</time>
      </trkpt>
      <trkpt lat="45.04439" lon="7.07841">
        <ele>1783</ele>
        <time>2019-07-08T21:06:15Z</time>
      </trkpt>
      <trkpt lat="45.04428" lon="7.07836">
        <ele>1783</ele>
        <time>2019-07-08T21:06:17Z</time>
      </trkpt>
      <trkpt lat="45.04418" lon="7.07829">
        <ele>1782</ele>
        <time>2019-07-08T21:06:19Z</time>
      </trkpt>
      <trkpt lat="45.04408" lon="7.07816">
        <ele>1780</ele>
        <time>2019-07-08T21:06:22Z</time>
      </trkpt>
      <trkpt lat="45.04396" lon="7.07805">
        <ele>1778</ele>
        <time>2019-07-08T21:06:24Z</time>
      </trkpt>
      <trkpt lat="45.04332" lon="7.07813">
        <ele>1776</ele>
        <time>2019-07-08T21:06:36Z</time>
      </trkpt>
      <trkpt lat="45.04214" lon="7.0781">
        <ele>1772</ele>
        <time>2019-07-08T21:06:57Z</time>
      </trkpt>
      <trkpt lat="45.04134" lon="7.07781">
        <ele>1770</ele>
        <time>2019-07-08T21:07:11Z</time>
      </trkpt>
      <trkpt lat="45.04108" lon="7.07779">
        <ele>1772</ele>
        <time>2019-07-08T21:07:16Z</time>
      </trkpt>
      <trkpt lat="45.04084" lon="7.07774">
        <ele>1772</ele>
        <time>2019-07-08T21:07:20Z</time>
      </trkpt>
      <trkpt lat="45.04063" lon="7.0776">
        <ele>1774</ele>
        <time>2019-07-08T21:07:25Z</time>
      </trkpt>
      <trkpt lat="45.04043" lon="7.07734">
        <ele>1774</ele>
        <time>2019-07-08T21:07:29Z</time>
      </trkpt>
      <trkpt lat="45.04031" lon="7.07707">
        <ele>1774</ele>
        <time>2019-07-08T21:07:33Z</time>
      </trkpt>
      <trkpt lat="45.0402" lon="7.07652">
        <ele>1770</ele>
        <time>2019-07-08T21:07:41Z</time>
      </trkpt>
      <trkpt lat="45.04021" lon="7.07619">
        <ele>1765</ele>
        <time>2019-07-08T21:07:45Z</time>
      </trkpt>
      <trkpt lat="45.04016" lon="7.07584">
        <ele>1762</ele>
        <time>2019-07-08T21:07:49Z</time>
      </trkpt>
      <trkpt lat="45.04002" lon="7.07536">
        <ele>1760</ele>
        <time>2019-07-08T21:07:56Z</time>
      </trkpt>
      <trkpt lat="45.03958" lon="7.07429">
        <ele>1757</ele>
        <time>2019-07-08T21:08:11Z</time>
      </trkpt>
      <trkpt lat="45.03948" lon="7.07377">
        <ele>1756</ele>
        <time>2019-07-08T21:08:18Z</time>
      </trkpt>
      <trkpt lat="45.03908" lon="7.07315">
        <ele>1762</ele>
        <time>2019-07-08T21:08:29Z</time>
      </trkpt>
      <trkpt lat="45.03896" lon="7.07259">
        <ele>1755</ele>
        <time>2019-07-08T21:08:36Z</time>
      </trkpt>
      <trkpt lat="45.03891" lon="7.07203">
        <ele>1753</ele>
        <time>2019-07-08T21:08:43Z</time>
      </trkpt>
      <trkpt lat="45.0388" lon="7.07148">
        <ele>1750</ele>
        <time>2019-07-08T21:08:50Z</time>
      </trkpt>
      <trkpt lat="45.03865" lon="7.071">
        <ele>1748</ele>
        <time>2019-07-08T21:08:57Z</time>
      </trkpt>
      <trkpt lat="45.03853" lon="7.07083">
        <ele>1749</ele>
        <time>2019-07-08T21:09:00Z</time>
      </trkpt>
      <trkpt lat="45.03837" lon="7.07076">
        <ele>1751</ele>
        <time>2019-07-08T21:09:03Z</time>
      </trkpt>
      <trkpt lat="45.03819" lon="7.07071">
        <ele>1746</ele>
        <time>2019-07-08T21:09:06Z</time>
      </trkpt>
      <trkpt lat="45.03815" lon="7.07081">
        <ele>1744</ele>
        <time>2019-07-08T21:09:08Z</time>
      </trkpt>
      <trkpt lat="45.0382" lon="7.07131">
        <ele>1745</ele>
        <time>2019-07-08T21:09:14Z</time>
      </trkpt>
      <trkpt lat="45.03834" lon="7.0718">
        <ele>1751</ele>
        <time>2019-07-08T21:09:21Z</time>
      </trkpt>
      <trkpt lat="45.03839" lon="7.07211">
        <ele>1750</ele>
        <time>2019-07-08T21:09:25Z</time>
      </trkpt>
      <trkpt lat="45.03836" lon="7.07244">
        <ele>1748</ele>
        <time>2019-07-08T21:09:29Z</time>
      </trkpt>
      <trkpt lat="45.03822" lon="7.07296">
        <ele>1743</ele>
        <time>2019-07-08T21:09:36Z</time>
      </trkpt>
      <trkpt lat="45.03812" lon="7.07344">
        <ele>1738</ele>
        <time>2019-07-08T21:09:42Z</time>
      </trkpt>
      <trkpt lat="45.03806" lon="7.07391">
        <ele>1735</ele>
        <time>2019-07-08T21:09:48Z</time>
      </trkpt>
      <trkpt lat="45.0378" lon="7.07487">
        <ele>1722</ele>
        <time>2019-07-08T21:10:01Z</time>
      </trkpt>
      <trkpt lat="45.03777" lon="7.07516">
        <ele>1719</ele>
        <time>2019-07-08T21:10:05Z</time>
      </trkpt>
      <trkpt lat="45.03783" lon="7.07634">
        <ele>1715</ele>
        <time>2019-07-08T21:10:20Z</time>
      </trkpt>
      <trkpt lat="45.03782" lon="7.07677">
        <ele>1715</ele>
        <time>2019-07-08T21:10:25Z</time>
      </trkpt>
      <trkpt lat="45.03776" lon="7.07701">
        <ele>1714</ele>
        <time>2019-07-08T21:10:28Z</time>
      </trkpt>
      <trkpt lat="45.03764" lon="7.07726">
        <ele>1711</ele>
        <time>2019-07-08T21:10:32Z</time>
      </trkpt>
      <trkpt lat="45.03746" lon="7.07755">
        <ele>1706</ele>
        <time>2019-07-08T21:10:37Z</time>
      </trkpt>
      <trkpt lat="45.0373" lon="7.07789">
        <ele>1700</ele>
        <time>2019-07-08T21:10:42Z</time>
      </trkpt>
      <trkpt lat="45.03726" lon="7.07807">
        <ele>1699</ele>
        <time>2019-07-08T21:10:44Z</time>
      </trkpt>
      <trkpt lat="45.03721" lon="7.0782">
        <ele>1696</ele>
        <time>2019-07-08T21:10:46Z</time>
      </trkpt>
      <trkpt lat="45.03718" lon="7.07823">
        <ele>1694</ele>
        <time>2019-07-08T21:10:47Z</time>
      </trkpt>
      <trkpt lat="45.03714" lon="7.07812">
        <ele>1692</ele>
        <time>2019-07-08T21:10:48Z</time>
      </trkpt>
      <trkpt lat="45.03713" lon="7.07776">
        <ele>1691</ele>
        <time>2019-07-08T21:10:53Z</time>
      </trkpt>
      <trkpt lat="45.03726" lon="7.07709">
        <ele>1693</ele>
        <time>2019-07-08T21:11:02Z</time>
      </trkpt>
      <trkpt lat="45.03729" lon="7.07675">
        <ele>1691</ele>
        <time>2019-07-08T21:11:06Z</time>
      </trkpt>
      <trkpt lat="45.03723" lon="7.07635">
        <ele>1688</ele>
        <time>2019-07-08T21:11:11Z</time>
      </trkpt>
      <trkpt lat="45.03712" lon="7.07595">
        <ele>1683</ele>
        <time>2019-07-08T21:11:16Z</time>
      </trkpt>
      <trkpt lat="45.03696" lon="7.07558">
        <ele>1678</ele>
        <time>2019-07-08T21:11:22Z</time>
      </trkpt>
      <trkpt lat="45.03679" lon="7.07522">
        <ele>1674</ele>
        <time>2019-07-08T21:11:27Z</time>
      </trkpt>
      <trkpt lat="45.03665" lon="7.07502">
        <ele>1669</ele>
        <time>2019-07-08T21:11:31Z</time>
      </trkpt>
      <trkpt lat="45.03649" lon="7.07484">
        <ele>1665</ele>
        <time>2019-07-08T21:11:35Z</time>
      </trkpt>
      <trkpt lat="45.0363" lon="7.0745">
        <ele>1663</ele>
        <time>2019-07-08T21:11:40Z</time>
      </trkpt>
      <trkpt lat="45.0362" lon="7.07413">
        <ele>1663</ele>
        <time>2019-07-08T21:11:45Z</time>
      </trkpt>
      <trkpt lat="45.03606" lon="7.07387">
        <ele>1659</ele>
        <time>2019-07-08T21:11:49Z</time>
      </trkpt>
      <trkpt lat="45.03588" lon="7.07372">
        <ele>1654</ele>
        <time>2019-07-08T21:11:53Z</time>
      </trkpt>
      <trkpt lat="45.03573" lon="7.07355">
        <ele>1648</ele>
        <time>2019-07-08T21:11:56Z</time>
      </trkpt>
      <trkpt lat="45.0357" lon="7.07345">
        <ele>1646</ele>
        <time>2019-07-08T21:11:58Z</time>
      </trkpt>
      <trkpt lat="45.03577" lon="7.07327">
        <ele>1648</ele>
        <time>2019-07-08T21:12:00Z</time>
      </trkpt>
      <trkpt lat="45.0359" lon="7.07307">
        <ele>1649</ele>
        <time>2019-07-08T21:12:04Z</time>
      </trkpt>
      <trkpt lat="45.03597" lon="7.07292">
        <ele>1649</ele>
        <time>2019-07-08T21:12:06Z</time>
      </trkpt>
      <trkpt lat="45.03607" lon="7.07258">
        <ele>1647</ele>
        <time>2019-07-08T21:12:10Z</time>
      </trkpt>
      <trkpt lat="45.0362" lon="7.07166">
        <ele>1642</ele>
        <time>2019-07-08T21:12:22Z</time>
      </trkpt>
      <trkpt lat="45.03623" lon="7.0713">
        <ele>1643</ele>
        <time>2019-07-08T21:12:27Z</time>
      </trkpt>
      <trkpt lat="45.03631" lon="7.07111">
        <ele>1647</ele>
        <time>2019-07-08T21:12:30Z</time>
      </trkpt>
      <trkpt lat="45.03627" lon="7.0709">
        <ele>1644</ele>
        <time>2019-07-08T21:12:32Z</time>
      </trkpt>
      <trkpt lat="45.03622" lon="7.07084">
        <ele>1641</ele>
        <time>2019-07-08T21:12:34Z</time>
      </trkpt>
      <trkpt lat="45.03615" lon="7.07084">
        <ele>1637</ele>
        <time>2019-07-08T21:12:35Z</time>
      </trkpt>
      <trkpt lat="45.03611" lon="7.07107">
        <ele>1636</ele>
        <time>2019-07-08T21:12:38Z</time>
      </trkpt>
      <trkpt lat="45.03609" lon="7.07144">
        <ele>1635</ele>
        <time>2019-07-08T21:12:42Z</time>
      </trkpt>
      <trkpt lat="45.03601" lon="7.07171">
        <ele>1632</ele>
        <time>2019-07-08T21:12:46Z</time>
      </trkpt>
      <trkpt lat="45.03588" lon="7.07203">
        <ele>1630</ele>
        <time>2019-07-08T21:12:51Z</time>
      </trkpt>
      <trkpt lat="45.03565" lon="7.0723">
        <ele>1624</ele>
        <time>2019-07-08T21:12:56Z</time>
      </trkpt>
      <trkpt lat="45.03538" lon="7.07251">
        <ele>1617</ele>
        <time>2019-07-08T21:13:02Z</time>
      </trkpt>
      <trkpt lat="45.03514" lon="7.0726">
        <ele>1609</ele>
        <time>2019-07-08T21:13:06Z</time>
      </trkpt>
      <trkpt lat="45.03493" lon="7.07272">
        <ele>1602</ele>
        <time>2019-07-08T21:13:10Z</time>
      </trkpt>
      <trkpt lat="45.03477" lon="7.07296">
        <ele>1599</ele>
        <time>2019-07-08T21:13:14Z</time>
      </trkpt>
      <trkpt lat="45.03472" lon="7.07324">
        <ele>1602</ele>
        <time>2019-07-08T21:13:18Z</time>
      </trkpt>
      <trkpt lat="45.03478" lon="7.07356">
        <ele>1604</ele>
        <time>2019-07-08T21:13:22Z</time>
      </trkpt>
      <trkpt lat="45.03486" lon="7.07383">
        <ele>1606</ele>
        <time>2019-07-08T21:13:26Z</time>
      </trkpt>
      <trkpt lat="45.03501" lon="7.07461">
        <ele>1603</ele>
        <time>2019-07-08T21:13:36Z</time>
      </trkpt>
      <trkpt lat="45.03511" lon="7.07522">
        <ele>1598</ele>
        <time>2019-07-08T21:13:44Z</time>
      </trkpt>
      <trkpt lat="45.03511" lon="7.07545">
        <ele>1596</ele>
        <time>2019-07-08T21:13:47Z</time>
      </trkpt>
      <trkpt lat="45.03504" lon="7.07565">
        <ele>1589</ele>
        <time>2019-07-08T21:13:49Z</time>
      </trkpt>
      <trkpt lat="45.03499" lon="7.07568">
        <ele>1586</ele>
        <time>2019-07-08T21:13:50Z</time>
      </trkpt>
      <trkpt lat="45.03494" lon="7.07568">
        <ele>1583</ele>
        <time>2019-07-08T21:13:51Z</time>
      </trkpt>
      <trkpt lat="45.03492" lon="7.07561">
        <ele>1582</ele>
        <time>2019-07-08T21:13:52Z</time>
      </trkpt>
      <trkpt lat="45.03495" lon="7.07523">
        <ele>1589</ele>
        <time>2019-07-08T21:13:57Z</time>
      </trkpt>
      <trkpt lat="45.03493" lon="7.07487">
        <ele>1593</ele>
        <time>2019-07-08T21:14:01Z</time>
      </trkpt>
      <trkpt lat="45.03482" lon="7.07455">
        <ele>1592</ele>
        <time>2019-07-08T21:14:06Z</time>
      </trkpt>
      <trkpt lat="45.03465" lon="7.07422">
        <ele>1588</ele>
        <time>2019-07-08T21:14:11Z</time>
      </trkpt>
      <trkpt lat="45.0344" lon="7.07384">
        <ele>1579</ele>
        <time>2019-07-08T21:14:18Z</time>
      </trkpt>
      <trkpt lat="45.0339" lon="7.07343">
        <ele>1558</ele>
        <time>2019-07-08T21:14:28Z</time>
      </trkpt>
      <trkpt lat="45.03381" lon="7.07325">
        <ele>1555</ele>
        <time>2019-07-08T21:14:31Z</time>
      </trkpt>
      <trkpt lat="45.03379" lon="7.07301">
        <ele>1551</ele>
        <time>2019-07-08T21:14:34Z</time>
      </trkpt>
      <trkpt lat="45.03385" lon="7.07273">
        <ele>1552</ele>
        <time>2019-07-08T21:14:37Z</time>
      </trkpt>
      <trkpt lat="45.0343" lon="7.07203">
        <ele>1555</ele>
        <time>2019-07-08T21:14:49Z</time>
      </trkpt>
      <trkpt lat="45.03444" lon="7.07173">
        <ele>1552</ele>
        <time>2019-07-08T21:14:54Z</time>
      </trkpt>
      <trkpt lat="45.03455" lon="7.0713">
        <ele>1551</ele>
        <time>2019-07-08T21:15:00Z</time>
      </trkpt>
      <trkpt lat="45.03459" lon="7.06994">
        <ele>1548</ele>
        <time>2019-07-08T21:15:17Z</time>
      </trkpt>
      <trkpt lat="45.03457" lon="7.06973">
        <ele>1546</ele>
        <time>2019-07-08T21:15:19Z</time>
      </trkpt>
      <trkpt lat="45.03455" lon="7.0697">
        <ele>1545</ele>
        <time>2019-07-08T21:15:20Z</time>
      </trkpt>
      <trkpt lat="45.03451" lon="7.06969">
        <ele>1542</ele>
        <time>2019-07-08T21:15:21Z</time>
      </trkpt>
      <trkpt lat="45.03447" lon="7.06981">
        <ele>1540</ele>
        <time>2019-07-08T21:15:22Z</time>
      </trkpt>
      <trkpt lat="45.03441" lon="7.07021">
        <ele>1537</ele>
        <time>2019-07-08T21:15:27Z</time>
      </trkpt>
      <trkpt lat="45.03423" lon="7.07096">
        <ele>1529</ele>
        <time>2019-07-08T21:15:37Z</time>
      </trkpt>
      <trkpt lat="45.03408" lon="7.07136">
        <ele>1527</ele>
        <time>2019-07-08T21:15:43Z</time>
      </trkpt>
      <trkpt lat="45.03404" lon="7.07139">
        <ele>1526</ele>
        <time>2019-07-08T21:15:44Z</time>
      </trkpt>
      <trkpt lat="45.034" lon="7.07136">
        <ele>1523</ele>
        <time>2019-07-08T21:15:45Z</time>
      </trkpt>
      <trkpt lat="45.03399" lon="7.07129">
        <ele>1521</ele>
        <time>2019-07-08T21:15:46Z</time>
      </trkpt>
      <trkpt lat="45.03407" lon="7.07095">
        <ele>1520</ele>
        <time>2019-07-08T21:15:50Z</time>
      </trkpt>
      <trkpt lat="45.03406" lon="7.07039">
        <ele>1516</ele>
        <time>2019-07-08T21:15:57Z</time>
      </trkpt>
      <trkpt lat="45.03413" lon="7.06976">
        <ele>1519</ele>
        <time>2019-07-08T21:16:05Z</time>
      </trkpt>
      <trkpt lat="45.03411" lon="7.06966">
        <ele>1518</ele>
        <time>2019-07-08T21:16:06Z</time>
      </trkpt>
      <trkpt lat="45.03405" lon="7.06962">
        <ele>1513</ele>
        <time>2019-07-08T21:16:08Z</time>
      </trkpt>
      <trkpt lat="45.03399" lon="7.06966">
        <ele>1510</ele>
        <time>2019-07-08T21:16:09Z</time>
      </trkpt>
      <trkpt lat="45.03394" lon="7.06984">
        <ele>1507</ele>
        <time>2019-07-08T21:16:11Z</time>
      </trkpt>
      <trkpt lat="45.03385" lon="7.07053">
        <ele>1504</ele>
        <time>2019-07-08T21:16:20Z</time>
      </trkpt>
      <trkpt lat="45.03375" lon="7.07094">
        <ele>1501</ele>
        <time>2019-07-08T21:16:25Z</time>
      </trkpt>
      <trkpt lat="45.03346" lon="7.07146">
        <ele>1498</ele>
        <time>2019-07-08T21:16:34Z</time>
      </trkpt>
      <trkpt lat="45.03312" lon="7.07186">
        <ele>1492</ele>
        <time>2019-07-08T21:16:42Z</time>
      </trkpt>
      <trkpt lat="45.03268" lon="7.07227">
        <ele>1478</ele>
        <time>2019-07-08T21:16:51Z</time>
      </trkpt>
      <trkpt lat="45.0326" lon="7.07245">
        <ele>1476</ele>
        <time>2019-07-08T21:16:54Z</time>
      </trkpt>
      <trkpt lat="45.03257" lon="7.07274">
        <ele>1472</ele>
        <time>2019-07-08T21:16:57Z</time>
      </trkpt>
      <trkpt lat="45.03266" lon="7.07356">
        <ele>1467</ele>
        <time>2019-07-08T21:17:08Z</time>
      </trkpt>
      <trkpt lat="45.03275" lon="7.07401">
        <ele>1465</ele>
        <time>2019-07-08T21:17:14Z</time>
      </trkpt>
      <trkpt lat="45.03309" lon="7.07473">
        <ele>1467</ele>
        <time>2019-07-08T21:17:25Z</time>
      </trkpt>
      <trkpt lat="45.03324" lon="7.07549">
        <ele>1459</ele>
        <time>2019-07-08T21:17:35Z</time>
      </trkpt>
      <trkpt lat="45.03354" lon="7.07685">
        <ele>1453</ele>
        <time>2019-07-08T21:17:52Z</time>
      </trkpt>
      <trkpt lat="45.03353" lon="7.07713">
        <ele>1448</ele>
        <time>2019-07-08T21:17:56Z</time>
      </trkpt>
      <trkpt lat="45.03344" lon="7.07758">
        <ele>1437</ele>
        <time>2019-07-08T21:18:02Z</time>
      </trkpt>
      <trkpt lat="45.03344" lon="7.07786">
        <ele>1437</ele>
        <time>2019-07-08T21:18:05Z</time>
      </trkpt>
      <trkpt lat="45.03345" lon="7.07809">
        <ele>1437</ele>
        <time>2019-07-08T21:18:08Z</time>
      </trkpt>
      <trkpt lat="45.03342" lon="7.07824">
        <ele>1436</ele>
        <time>2019-07-08T21:18:10Z</time>
      </trkpt>
      <trkpt lat="45.03338" lon="7.07828">
        <ele>1433</ele>
        <time>2019-07-08T21:18:11Z</time>
      </trkpt>
      <trkpt lat="45.03299" lon="7.07837">
        <ele>1419</ele>
        <time>2019-07-08T21:18:18Z</time>
      </trkpt>
      <trkpt lat="45.0329" lon="7.07842">
        <ele>1416</ele>
        <time>2019-07-08T21:18:20Z</time>
      </trkpt>
      <trkpt lat="45.03281" lon="7.07853">
        <ele>1414</ele>
        <time>2019-07-08T21:18:22Z</time>
      </trkpt>
      <trkpt lat="45.03267" lon="7.07888">
        <ele>1412</ele>
        <time>2019-07-08T21:18:27Z</time>
      </trkpt>
      <trkpt lat="45.03267" lon="7.07926">
        <ele>1414</ele>
        <time>2019-07-08T21:18:32Z</time>
      </trkpt>
      <trkpt lat="45.03265" lon="7.0794">
        <ele>1413</ele>
        <time>2019-07-08T21:18:34Z</time>
      </trkpt>
      <trkpt lat="45.03259" lon="7.07954">
        <ele>1410</ele>
        <time>2019-07-08T21:18:36Z</time>
      </trkpt>
      <trkpt lat="45.03255" lon="7.07968">
        <ele>1407</ele>
        <time>2019-07-08T21:18:38Z</time>
      </trkpt>
      <trkpt lat="45.03254" lon="7.07987">
        <ele>1406</ele>
        <time>2019-07-08T21:18:40Z</time>
      </trkpt>
      <trkpt lat="45.03265" lon="7.08091">
        <ele>1407</ele>
        <time>2019-07-08T21:18:53Z</time>
      </trkpt>
      <trkpt lat="45.03264" lon="7.08103">
        <ele>1406</ele>
        <time>2019-07-08T21:18:55Z</time>
      </trkpt>
      <trkpt lat="45.03261" lon="7.08114">
        <ele>1405</ele>
        <time>2019-07-08T21:18:56Z</time>
      </trkpt>
      <trkpt lat="45.0325" lon="7.08131">
        <ele>1401</ele>
        <time>2019-07-08T21:18:59Z</time>
      </trkpt>
      <trkpt lat="45.03232" lon="7.08152">
        <ele>1393</ele>
        <time>2019-07-08T21:19:03Z</time>
      </trkpt>
      <trkpt lat="45.03227" lon="7.08161">
        <ele>1391</ele>
        <time>2019-07-08T21:19:05Z</time>
      </trkpt>
      <trkpt lat="45.03224" lon="7.08176">
        <ele>1389</ele>
        <time>2019-07-08T21:19:07Z</time>
      </trkpt>
      <trkpt lat="45.03222" lon="7.08234">
        <ele>1385</ele>
        <time>2019-07-08T21:19:14Z</time>
      </trkpt>
      <trkpt lat="45.03228" lon="7.0827">
        <ele>1384</ele>
        <time>2019-07-08T21:19:19Z</time>
      </trkpt>
      <trkpt lat="45.03236" lon="7.08337">
        <ele>1378</ele>
        <time>2019-07-08T21:19:27Z</time>
      </trkpt>
      <trkpt lat="45.03247" lon="7.08373">
        <ele>1379</ele>
        <time>2019-07-08T21:19:32Z</time>
      </trkpt>
      <trkpt lat="45.0325" lon="7.08416">
        <ele>1373</ele>
        <time>2019-07-08T21:19:38Z</time>
      </trkpt>
      <trkpt lat="45.03245" lon="7.08442">
        <ele>1370</ele>
        <time>2019-07-08T21:19:41Z</time>
      </trkpt>
      <trkpt lat="45.03245" lon="7.08461">
        <ele>1370</ele>
        <time>2019-07-08T21:19:43Z</time>
      </trkpt>
      <trkpt lat="45.03231" lon="7.08519">
        <ele>1363</ele>
        <time>2019-07-08T21:19:51Z</time>
      </trkpt>
      <trkpt lat="45.03224" lon="7.08539">
        <ele>1360</ele>
        <time>2019-07-08T21:19:54Z</time>
      </trkpt>
      <trkpt lat="45.03217" lon="7.08548">
        <ele>1356</ele>
        <time>2019-07-08T21:19:55Z</time>
      </trkpt>
      <trkpt lat="45.03212" lon="7.08546">
        <ele>1354</ele>
        <time>2019-07-08T21:19:56Z</time>
      </trkpt>
      <trkpt lat="45.0321" lon="7.0854">
        <ele>1353</ele>
        <time>2019-07-08T21:19:57Z</time>
      </trkpt>
      <trkpt lat="45.03211" lon="7.08531">
        <ele>1354</ele>
        <time>2019-07-08T21:19:58Z</time>
      </trkpt>
      <trkpt lat="45.0322" lon="7.08498">
        <ele>1359</ele>
        <time>2019-07-08T21:20:03Z</time>
      </trkpt>
      <trkpt lat="45.03221" lon="7.08476">
        <ele>1359</ele>
        <time>2019-07-08T21:20:06Z</time>
      </trkpt>
      <trkpt lat="45.03217" lon="7.08442">
        <ele>1357</ele>
        <time>2019-07-08T21:20:10Z</time>
      </trkpt>
      <trkpt lat="45.0321" lon="7.08413">
        <ele>1354</ele>
        <time>2019-07-08T21:20:14Z</time>
      </trkpt>
      <trkpt lat="45.03203" lon="7.08396">
        <ele>1352</ele>
        <time>2019-07-08T21:20:16Z</time>
      </trkpt>
      <trkpt lat="45.03191" lon="7.08373">
        <ele>1349</ele>
        <time>2019-07-08T21:20:20Z</time>
      </trkpt>
      <trkpt lat="45.03158" lon="7.08325">
        <ele>1335</ele>
        <time>2019-07-08T21:20:28Z</time>
      </trkpt>
      <trkpt lat="45.0315" lon="7.08307">
        <ele>1334</ele>
        <time>2019-07-08T21:20:31Z</time>
      </trkpt>
      <trkpt lat="45.03142" lon="7.08275">
        <ele>1333</ele>
        <time>2019-07-08T21:20:35Z</time>
      </trkpt>
      <trkpt lat="45.03133" lon="7.08226">
        <ele>1334</ele>
        <time>2019-07-08T21:20:42Z</time>
      </trkpt>
      <trkpt lat="45.03126" lon="7.08209">
        <ele>1332</ele>
        <time>2019-07-08T21:20:44Z</time>
      </trkpt>
      <trkpt lat="45.03113" lon="7.08185">
        <ele>1327</ele>
        <time>2019-07-08T21:20:48Z</time>
      </trkpt>
      <trkpt lat="45.03099" lon="7.08149">
        <ele>1324</ele>
        <time>2019-07-08T21:20:53Z</time>
      </trkpt>
      <trkpt lat="45.03071" lon="7.08098">
        <ele>1317</ele>
        <time>2019-07-08T21:21:01Z</time>
      </trkpt>
      <trkpt lat="45.03058" lon="7.08042">
        <ele>1313</ele>
        <time>2019-07-08T21:21:09Z</time>
      </trkpt>
      <trkpt lat="45.03054" lon="7.08018">
        <ele>1311</ele>
        <time>2019-07-08T21:21:12Z</time>
      </trkpt>
      <trkpt lat="45.03061" lon="7.07979">
        <ele>1314</ele>
        <time>2019-07-08T21:21:17Z</time>
      </trkpt>
      <trkpt lat="45.03058" lon="7.07941">
        <ele>1312</ele>
        <time>2019-07-08T21:21:22Z</time>
      </trkpt>
      <trkpt lat="45.03046" lon="7.07882">
        <ele>1307</ele>
        <time>2019-07-08T21:21:29Z</time>
      </trkpt>
      <trkpt lat="45.03029" lon="7.07853">
        <ele>1300</ele>
        <time>2019-07-08T21:21:34Z</time>
      </trkpt>
      <trkpt lat="45.03021" lon="7.07831">
        <ele>1297</ele>
        <time>2019-07-08T21:21:37Z</time>
      </trkpt>
      <trkpt lat="45.03015" lon="7.07789">
        <ele>1293</ele>
        <time>2019-07-08T21:21:42Z</time>
      </trkpt>
      <trkpt lat="45.03015" lon="7.07757">
        <ele>1293</ele>
        <time>2019-07-08T21:21:47Z</time>
      </trkpt>
      <trkpt lat="45.03018" lon="7.07732">
        <ele>1293</ele>
        <time>2019-07-08T21:21:50Z</time>
      </trkpt>
      <trkpt lat="45.03014" lon="7.07674">
        <ele>1287</ele>
        <time>2019-07-08T21:21:57Z</time>
      </trkpt>
      <trkpt lat="45.03017" lon="7.07654">
        <ele>1286</ele>
        <time>2019-07-08T21:22:00Z</time>
      </trkpt>
      <trkpt lat="45.03015" lon="7.07648">
        <ele>1284</ele>
        <time>2019-07-08T21:22:00Z</time>
      </trkpt>
      <trkpt lat="45.0301" lon="7.07644">
        <ele>1282</ele>
        <time>2019-07-08T21:22:01Z</time>
      </trkpt>
      <trkpt lat="45.03006" lon="7.07646">
        <ele>1280</ele>
        <time>2019-07-08T21:22:02Z</time>
      </trkpt>
      <trkpt lat="45.03004" lon="7.07656">
        <ele>1281</ele>
        <time>2019-07-08T21:22:04Z</time>
      </trkpt>
      <trkpt lat="45.03001" lon="7.07673">
        <ele>1282</ele>
        <time>2019-07-08T21:22:06Z</time>
      </trkpt>
      <trkpt lat="45.03001" lon="7.07696">
        <ele>1283</ele>
        <time>2019-07-08T21:22:09Z</time>
      </trkpt>
      <trkpt lat="45.02995" lon="7.07715">
        <ele>1281</ele>
        <time>2019-07-08T21:22:11Z</time>
      </trkpt>
      <trkpt lat="45.02964" lon="7.07769">
        <ele>1266</ele>
        <time>2019-07-08T21:22:20Z</time>
      </trkpt>
      <trkpt lat="45.02959" lon="7.07784">
        <ele>1263</ele>
        <time>2019-07-08T21:22:22Z</time>
      </trkpt>
      <trkpt lat="45.02957" lon="7.07793">
        <ele>1262</ele>
        <time>2019-07-08T21:22:23Z</time>
      </trkpt>
      <trkpt lat="45.02958" lon="7.07806">
        <ele>1262</ele>
        <time>2019-07-08T21:22:25Z</time>
      </trkpt>
      <trkpt lat="45.02969" lon="7.07855">
        <ele>1267</ele>
        <time>2019-07-08T21:22:31Z</time>
      </trkpt>
      <trkpt lat="45.02968" lon="7.07874">
        <ele>1266</ele>
        <time>2019-07-08T21:22:34Z</time>
      </trkpt>
      <trkpt lat="45.02964" lon="7.07903">
        <ele>1262</ele>
        <time>2019-07-08T21:22:37Z</time>
      </trkpt>
      <trkpt lat="45.02951" lon="7.07975">
        <ele>1255</ele>
        <time>2019-07-08T21:22:47Z</time>
      </trkpt>
      <trkpt lat="45.02941" lon="7.08033">
        <ele>1246</ele>
        <time>2019-07-08T21:22:54Z</time>
      </trkpt>
      <trkpt lat="45.02941" lon="7.08071">
        <ele>1244</ele>
        <time>2019-07-08T21:22:59Z</time>
      </trkpt>
      <trkpt lat="45.02944" lon="7.08106">
        <ele>1242</ele>
        <time>2019-07-08T21:23:04Z</time>
      </trkpt>
      <trkpt lat="45.02956" lon="7.08176">
        <ele>1240</ele>
        <time>2019-07-08T21:23:13Z</time>
      </trkpt>
      <trkpt lat="45.02958" lon="7.08203">
        <ele>1241</ele>
        <time>2019-07-08T21:23:16Z</time>
      </trkpt>
      <trkpt lat="45.02953" lon="7.08232">
        <ele>1238</ele>
        <time>2019-07-08T21:23:20Z</time>
      </trkpt>
      <trkpt lat="45.02947" lon="7.0825">
        <ele>1235</ele>
        <time>2019-07-08T21:23:22Z</time>
      </trkpt>
      <trkpt lat="45.02939" lon="7.08267">
        <ele>1234</ele>
        <time>2019-07-08T21:23:25Z</time>
      </trkpt>
      <trkpt lat="45.02926" lon="7.08284">
        <ele>1231</ele>
        <time>2019-07-08T21:23:28Z</time>
      </trkpt>
      <trkpt lat="45.02904" lon="7.08323">
        <ele>1226</ele>
        <time>2019-07-08T21:23:34Z</time>
      </trkpt>
      <trkpt lat="45.0289" lon="7.08366">
        <ele>1223</ele>
        <time>2019-07-08T21:23:40Z</time>
      </trkpt>
      <trkpt lat="45.02878" lon="7.08419">
        <ele>1219</ele>
        <time>2019-07-08T21:23:47Z</time>
      </trkpt>
      <trkpt lat="45.02877" lon="7.08459">
        <ele>1218</ele>
        <time>2019-07-08T21:23:52Z</time>
      </trkpt>
      <trkpt lat="45.02879" lon="7.08486">
        <ele>1218</ele>
        <time>2019-07-08T21:23:56Z</time>
      </trkpt>
      <trkpt lat="45.02877" lon="7.08507">
        <ele>1216</ele>
        <time>2019-07-08T21:23:58Z</time>
      </trkpt>
      <trkpt lat="45.02873" lon="7.0851">
        <ele>1214</ele>
        <time>2019-07-08T21:23:59Z</time>
      </trkpt>
      <trkpt lat="45.02869" lon="7.08508">
        <ele>1212</ele>
        <time>2019-07-08T21:24:00Z</time>
      </trkpt>
      <trkpt lat="45.02864" lon="7.08495">
        <ele>1210</ele>
        <time>2019-07-08T21:24:02Z</time>
      </trkpt>
      <trkpt lat="45.02845" lon="7.08406">
        <ele>1203</ele>
        <time>2019-07-08T21:24:13Z</time>
      </trkpt>
      <trkpt lat="45.02837" lon="7.08358">
        <ele>1199</ele>
        <time>2019-07-08T21:24:20Z</time>
      </trkpt>
      <trkpt lat="45.02825" lon="7.08322">
        <ele>1193</ele>
        <time>2019-07-08T21:24:25Z</time>
      </trkpt>
      <trkpt lat="45.02816" lon="7.08284">
        <ele>1187</ele>
        <time>2019-07-08T21:24:30Z</time>
      </trkpt>
      <trkpt lat="45.02814" lon="7.0827">
        <ele>1186</ele>
        <time>2019-07-08T21:24:31Z</time>
      </trkpt>
      <trkpt lat="45.02814" lon="7.08258">
        <ele>1186</ele>
        <time>2019-07-08T21:24:33Z</time>
      </trkpt>
      <trkpt lat="45.02829" lon="7.08208">
        <ele>1186</ele>
        <time>2019-07-08T21:24:40Z</time>
      </trkpt>
      <trkpt lat="45.02835" lon="7.08197">
        <ele>1187</ele>
        <time>2019-07-08T21:24:42Z</time>
      </trkpt>
      <trkpt lat="45.02854" lon="7.08177">
        <ele>1193</ele>
        <time>2019-07-08T21:24:46Z</time>
      </trkpt>
      <trkpt lat="45.02856" lon="7.08169">
        <ele>1193</ele>
        <time>2019-07-08T21:24:47Z</time>
      </trkpt>
      <trkpt lat="45.02856" lon="7.08156">
        <ele>1193</ele>
        <time>2019-07-08T21:24:48Z</time>
      </trkpt>
      <trkpt lat="45.02853" lon="7.08147">
        <ele>1192</ele>
        <time>2019-07-08T21:24:50Z</time>
      </trkpt>
      <trkpt lat="45.02832" lon="7.081">
        <ele>1182</ele>
        <time>2019-07-08T21:24:57Z</time>
      </trkpt>
      <trkpt lat="45.02828" lon="7.08084">
        <ele>1179</ele>
        <time>2019-07-08T21:24:59Z</time>
      </trkpt>
      <trkpt lat="45.02826" lon="7.08033">
        <ele>1179</ele>
        <time>2019-07-08T21:25:05Z</time>
      </trkpt>
      <trkpt lat="45.02815" lon="7.07962">
        <ele>1176</ele>
        <time>2019-07-08T21:25:14Z</time>
      </trkpt>
      <trkpt lat="45.02805" lon="7.07922">
        <ele>1172</ele>
        <time>2019-07-08T21:25:20Z</time>
      </trkpt>
      <trkpt lat="45.02788" lon="7.07875">
        <ele>1162</ele>
        <time>2019-07-08T21:25:26Z</time>
      </trkpt>
      <trkpt lat="45.02779" lon="7.07823">
        <ele>1157</ele>
        <time>2019-07-08T21:25:33Z</time>
      </trkpt>
      <trkpt lat="45.02778" lon="7.07805">
        <ele>1156</ele>
        <time>2019-07-08T21:25:35Z</time>
      </trkpt>
      <trkpt lat="45.0278" lon="7.07766">
        <ele>1156</ele>
        <time>2019-07-08T21:25:40Z</time>
      </trkpt>
      <trkpt lat="45.0278" lon="7.07727">
        <ele>1157</ele>
        <time>2019-07-08T21:25:45Z</time>
      </trkpt>
      <trkpt lat="45.02778" lon="7.07717">
        <ele>1157</ele>
        <time>2019-07-08T21:25:47Z</time>
      </trkpt>
      <trkpt lat="45.02768" lon="7.07699">
        <ele>1152</ele>
        <time>2019-07-08T21:25:49Z</time>
      </trkpt>
      <trkpt lat="45.02755" lon="7.07664">
        <ele>1145</ele>
        <time>2019-07-08T21:25:54Z</time>
      </trkpt>
      <trkpt lat="45.02737" lon="7.07596">
        <ele>1134</ele>
        <time>2019-07-08T21:26:04Z</time>
      </trkpt>
      <trkpt lat="45.02735" lon="7.07579">
        <ele>1133</ele>
        <time>2019-07-08T21:26:06Z</time>
      </trkpt>
      <trkpt lat="45.02733" lon="7.07554">
        <ele>1130</ele>
        <time>2019-07-08T21:26:09Z</time>
      </trkpt>
      <trkpt lat="45.02734" lon="7.07541">
        <ele>1129</ele>
        <time>2019-07-08T21:26:10Z</time>
      </trkpt>
      <trkpt lat="45.02743" lon="7.07515">
        <ele>1132</ele>
        <time>2019-07-08T21:26:14Z</time>
      </trkpt>
      <trkpt lat="45.0275" lon="7.07502">
        <ele>1135</ele>
        <time>2019-07-08T21:26:16Z</time>
      </trkpt>
      <trkpt lat="45.02752" lon="7.07489">
        <ele>1135</ele>
        <time>2019-07-08T21:26:18Z</time>
      </trkpt>
      <trkpt lat="45.02752" lon="7.07472">
        <ele>1133</ele>
        <time>2019-07-08T21:26:20Z</time>
      </trkpt>
      <trkpt lat="45.02746" lon="7.07437">
        <ele>1127</ele>
        <time>2019-07-08T21:26:25Z</time>
      </trkpt>
      <trkpt lat="45.0275" lon="7.07404">
        <ele>1126</ele>
        <time>2019-07-08T21:26:29Z</time>
      </trkpt>
      <trkpt lat="45.02747" lon="7.07379">
        <ele>1123</ele>
        <time>2019-07-08T21:26:32Z</time>
      </trkpt>
      <trkpt lat="45.02746" lon="7.07345">
        <ele>1120</ele>
        <time>2019-07-08T21:26:36Z</time>
      </trkpt>
      <trkpt lat="45.02743" lon="7.07326">
        <ele>1117</ele>
        <time>2019-07-08T21:26:39Z</time>
      </trkpt>
      <trkpt lat="45.02743" lon="7.07312">
        <ele>1117</ele>
        <time>2019-07-08T21:26:40Z</time>
      </trkpt>
      <trkpt lat="45.02747" lon="7.07291">
        <ele>1119</ele>
        <time>2019-07-08T21:26:43Z</time>
      </trkpt>
      <trkpt lat="45.02747" lon="7.0728">
        <ele>1119</ele>
        <time>2019-07-08T21:26:45Z</time>
      </trkpt>
      <trkpt lat="45.02745" lon="7.07273">
        <ele>1118</ele>
        <time>2019-07-08T21:26:45Z</time>
      </trkpt>
      <trkpt lat="45.02732" lon="7.07254">
        <ele>1111</ele>
        <time>2019-07-08T21:26:49Z</time>
      </trkpt>
      <trkpt lat="45.02729" lon="7.07243">
        <ele>1109</ele>
        <time>2019-07-08T21:26:50Z</time>
      </trkpt>
      <trkpt lat="45.02726" lon="7.07226">
        <ele>1108</ele>
        <time>2019-07-08T21:26:52Z</time>
      </trkpt>
      <trkpt lat="45.02722" lon="7.07152">
        <ele>1109</ele>
        <time>2019-07-08T21:27:02Z</time>
      </trkpt>
      <trkpt lat="45.02701" lon="7.07074">
        <ele>1099</ele>
        <time>2019-07-08T21:27:12Z</time>
      </trkpt>
      <trkpt lat="45.02698" lon="7.07052">
        <ele>1098</ele>
        <time>2019-07-08T21:27:15Z</time>
      </trkpt>
      <trkpt lat="45.02692" lon="7.06902">
        <ele>1098</ele>
        <time>2019-07-08T21:27:34Z</time>
      </trkpt>
      <trkpt lat="45.02689" lon="7.06883">
        <ele>1096</ele>
        <time>2019-07-08T21:27:36Z</time>
      </trkpt>
      <trkpt lat="45.02682" lon="7.06855">
        <ele>1091</ele>
        <time>2019-07-08T21:27:40Z</time>
      </trkpt>
      <trkpt lat="45.02677" lon="7.06845">
        <ele>1088</ele>
        <time>2019-07-08T21:27:42Z</time>
      </trkpt>
      <trkpt lat="45.02657" lon="7.06812">
        <ele>1081</ele>
        <time>2019-07-08T21:27:47Z</time>
      </trkpt>
      <trkpt lat="45.02653" lon="7.06809">
        <ele>1080</ele>
        <time>2019-07-08T21:27:48Z</time>
      </trkpt>
      <trkpt lat="45.02644" lon="7.06809">
        <ele>1078</ele>
        <time>2019-07-08T21:27:50Z</time>
      </trkpt>
      <trkpt lat="45.02668" lon="7.06871">
        <ele>1084</ele>
        <time>2019-07-08T21:27:59Z</time>
      </trkpt>
      <trkpt lat="45.02673" lon="7.0691">
        <ele>1087</ele>
        <time>2019-07-08T21:28:04Z</time>
      </trkpt>
      <trkpt lat="45.02673" lon="7.06934">
        <ele>1086</ele>
        <time>2019-07-08T21:28:07Z</time>
      </trkpt>
      <trkpt lat="45.02665" lon="7.07236">
        <ele>1073</ele>
        <time>2019-07-08T21:28:45Z</time>
      </trkpt>
      <trkpt lat="45.02659" lon="7.07284">
        <ele>1073</ele>
        <time>2019-07-08T21:28:51Z</time>
      </trkpt>
      <trkpt lat="45.02638" lon="7.07404">
        <ele>1072</ele>
        <time>2019-07-08T21:29:06Z</time>
      </trkpt>
      <trkpt lat="45.02629" lon="7.07443">
        <ele>1071</ele>
        <time>2019-07-08T21:29:11Z</time>
      </trkpt>
      <trkpt lat="45.0261" lon="7.0751">
        <ele>1067</ele>
        <time>2019-07-08T21:29:20Z</time>
      </trkpt>
      <trkpt lat="45.02602" lon="7.07542">
        <ele>1063</ele>
        <time>2019-07-08T21:29:25Z</time>
      </trkpt>
      <trkpt lat="45.02601" lon="7.07561">
        <ele>1063</ele>
        <time>2019-07-08T21:29:27Z</time>
      </trkpt>
      <trkpt lat="45.02602" lon="7.07577">
        <ele>1064</ele>
        <time>2019-07-08T21:29:29Z</time>
      </trkpt>
      <trkpt lat="45.02613" lon="7.07619">
        <ele>1068</ele>
        <time>2019-07-08T21:29:35Z</time>
      </trkpt>
      <trkpt lat="45.02616" lon="7.0764">
        <ele>1068</ele>
        <time>2019-07-08T21:29:37Z</time>
      </trkpt>
      <trkpt lat="45.02618" lon="7.07672">
        <ele>1069</ele>
        <time>2019-07-08T21:29:41Z</time>
      </trkpt>
      <trkpt lat="45.02618" lon="7.07697">
        <ele>1069</ele>
        <time>2019-07-08T21:29:45Z</time>
      </trkpt>
      <trkpt lat="45.02603" lon="7.07781">
        <ele>1065</ele>
        <time>2019-07-08T21:29:56Z</time>
      </trkpt>
      <trkpt lat="45.02594" lon="7.07825">
        <ele>1065</ele>
        <time>2019-07-08T21:30:01Z</time>
      </trkpt>
      <trkpt lat="45.02586" lon="7.07852">
        <ele>1064</ele>
        <time>2019-07-08T21:30:05Z</time>
      </trkpt>
      <trkpt lat="45.02548" lon="7.07942">
        <ele>1060</ele>
        <time>2019-07-08T21:30:18Z</time>
      </trkpt>
      <trkpt lat="45.02537" lon="7.07974">
        <ele>1058</ele>
        <time>2019-07-08T21:30:23Z</time>
      </trkpt>
      <trkpt lat="45.02527" lon="7.07993">
        <ele>1056</ele>
        <time>2019-07-08T21:30:26Z</time>
      </trkpt>
      <trkpt lat="45.02491" lon="7.08042">
        <ele>1050</ele>
        <time>2019-07-08T21:30:35Z</time>
      </trkpt>
      <trkpt lat="45.02485" lon="7.08053">
        <ele>1050</ele>
        <time>2019-07-08T21:30:36Z</time>
      </trkpt>
      <trkpt lat="45.02478" lon="7.0807">
        <ele>1050</ele>
        <time>2019-07-08T21:30:39Z</time>
      </trkpt>
      <trkpt lat="45.02458" lon="7.08152">
        <ele>1048</ele>
        <time>2019-07-08T21:30:50Z</time>
      </trkpt>
      <trkpt lat="45.02458" lon="7.08168">
        <ele>1048</ele>
        <time>2019-07-08T21:30:52Z</time>
      </trkpt>
      <trkpt lat="45.02461" lon="7.08192">
        <ele>1048</ele>
        <time>2019-07-08T21:30:55Z</time>
      </trkpt>
      <trkpt lat="45.02477" lon="7.08281">
        <ele>1050</ele>
        <time>2019-07-08T21:31:06Z</time>
      </trkpt>
      <trkpt lat="45.02483" lon="7.08303">
        <ele>1050</ele>
        <time>2019-07-08T21:31:09Z</time>
      </trkpt>
      <trkpt lat="45.02499" lon="7.08337">
        <ele>1053</ele>
        <time>2019-07-08T21:31:14Z</time>
      </trkpt>
      <trkpt lat="45.02507" lon="7.08367">
        <ele>1054</ele>
        <time>2019-07-08T21:31:18Z</time>
      </trkpt>
      <trkpt lat="45.02509" lon="7.08406">
        <ele>1053</ele>
        <time>2019-07-08T21:31:23Z</time>
      </trkpt>
      <trkpt lat="45.02505" lon="7.08482">
        <ele>1050</ele>
        <time>2019-07-08T21:31:33Z</time>
      </trkpt>
      <trkpt lat="45.02502" lon="7.08503">
        <ele>1049</ele>
        <time>2019-07-08T21:31:36Z</time>
      </trkpt>
      <trkpt lat="45.02486" lon="7.08595">
        <ele>1049</ele>
        <time>2019-07-08T21:31:48Z</time>
      </trkpt>
      <trkpt lat="45.02477" lon="7.08625">
        <ele>1049</ele>
        <time>2019-07-08T21:31:52Z</time>
      </trkpt>
      <trkpt lat="45.02468" lon="7.08646">
        <ele>1048</ele>
        <time>2019-07-08T21:31:55Z</time>
      </trkpt>
      <trkpt lat="45.02422" lon="7.08713">
        <ele>1046</ele>
        <time>2019-07-08T21:32:06Z</time>
      </trkpt>
      <trkpt lat="45.02398" lon="7.08758">
        <ele>1045</ele>
        <time>2019-07-08T21:32:14Z</time>
      </trkpt>
      <trkpt lat="45.02387" lon="7.08807">
        <ele>1045</ele>
        <time>2019-07-08T21:32:20Z</time>
      </trkpt>
      <trkpt lat="45.02384" lon="7.08844">
        <ele>1045</ele>
        <time>2019-07-08T21:32:25Z</time>
      </trkpt>
      <trkpt lat="45.02381" lon="7.09014">
        <ele>1047</ele>
        <time>2019-07-08T21:32:46Z</time>
      </trkpt>
      <trkpt lat="45.02376" lon="7.09067">
        <ele>1046</ele>
        <time>2019-07-08T21:32:53Z</time>
      </trkpt>
      <trkpt lat="45.02341" lon="7.09298">
        <ele>1045</ele>
        <time>2019-07-08T21:33:23Z</time>
      </trkpt>
      <trkpt lat="45.02299" lon="7.09433">
        <ele>1041</ele>
        <time>2019-07-08T21:33:41Z</time>
      </trkpt>
      <trkpt lat="45.02277" lon="7.09484">
        <ele>1038</ele>
        <time>2019-07-08T21:33:49Z</time>
      </trkpt>
      <trkpt lat="45.02239" lon="7.09553">
        <ele>1034</ele>
        <time>2019-07-08T21:34:00Z</time>
      </trkpt>
      <trkpt lat="45.02218" lon="7.09601">
        <ele>1030</ele>
        <time>2019-07-08T21:34:07Z</time>
      </trkpt>
      <trkpt lat="45.02207" lon="7.09636">
        <ele>1028</ele>
        <time>2019-07-08T21:34:11Z</time>
      </trkpt>
      <trkpt lat="45.022" lon="7.09673">
        <ele>1027</ele>
        <time>2019-07-08T21:34:16Z</time>
      </trkpt>
      <trkpt lat="45.02205" lon="7.09738">
        <ele>1033</ele>
        <time>2019-07-08T21:34:25Z</time>
      </trkpt>
      <trkpt lat="45.02207" lon="7.09829">
        <ele>1031</ele>
        <time>2019-07-08T21:34:36Z</time>
      </trkpt>
      <trkpt lat="45.02211" lon="7.09945">
        <ele>1025</ele>
        <time>2019-07-08T21:34:51Z</time>
      </trkpt>
      <trkpt lat="45.02219" lon="7.09973">
        <ele>1025</ele>
        <time>2019-07-08T21:34:54Z</time>
      </trkpt>
      <trkpt lat="45.02249" lon="7.10018">
        <ele>1031</ele>
        <time>2019-07-08T21:35:02Z</time>
      </trkpt>
      <trkpt lat="45.02257" lon="7.10037">
        <ele>1031</ele>
        <time>2019-07-08T21:35:05Z</time>
      </trkpt>
      <trkpt lat="45.02276" lon="7.10092">
        <ele>1031</ele>
        <time>2019-07-08T21:35:13Z</time>
      </trkpt>
      <trkpt lat="45.02281" lon="7.10121">
        <ele>1032</ele>
        <time>2019-07-08T21:35:16Z</time>
      </trkpt>
      <trkpt lat="45.02284" lon="7.10194">
        <ele>1028</ele>
        <time>2019-07-08T21:35:26Z</time>
      </trkpt>
      <trkpt lat="45.02276" lon="7.10317">
        <ele>1019</ele>
        <time>2019-07-08T21:35:41Z</time>
      </trkpt>
      <trkpt lat="45.02272" lon="7.10356">
        <ele>1016</ele>
        <time>2019-07-08T21:35:46Z</time>
      </trkpt>
      <trkpt lat="45.02255" lon="7.10423">
        <ele>1008</ele>
        <time>2019-07-08T21:35:55Z</time>
      </trkpt>
      <trkpt lat="45.02226" lon="7.10515">
        <ele>1006</ele>
        <time>2019-07-08T21:36:08Z</time>
      </trkpt>
      <trkpt lat="45.02156" lon="7.10721">
        <ele>997</ele>
        <time>2019-07-08T21:36:36Z</time>
      </trkpt>
      <trkpt lat="45.02117" lon="7.10831">
        <ele>999</ele>
        <time>2019-07-08T21:36:52Z</time>
      </trkpt>
      <trkpt lat="45.021" lon="7.10864">
        <ele>997</ele>
        <time>2019-07-08T21:36:57Z</time>
      </trkpt>
      <trkpt lat="45.02072" lon="7.10898">
        <ele>993</ele>
        <time>2019-07-08T21:37:04Z</time>
      </trkpt>
      <trkpt lat="45.01891" lon="7.11055">
        <ele>987</ele>
        <time>2019-07-08T21:37:41Z</time>
      </trkpt>
      <trkpt lat="45.01872" lon="7.11073">
        <ele>987</ele>
        <time>2019-07-08T21:37:45Z</time>
      </trkpt>
      <trkpt lat="45.01851" lon="7.111">
        <ele>987</ele>
        <time>2019-07-08T21:37:51Z</time>
      </trkpt>
      <trkpt lat="45.01603" lon="7.11558">
        <ele>975</ele>
        <time>2019-07-08T21:39:03Z</time>
      </trkpt>
      <trkpt lat="45.01589" lon="7.11578">
        <ele>973</ele>
        <time>2019-07-08T21:39:07Z</time>
      </trkpt>
      <trkpt lat="45.01562" lon="7.116">
        <ele>971</ele>
        <time>2019-07-08T21:39:12Z</time>
      </trkpt>
      <trkpt lat="45.0148" lon="7.1166">
        <ele>965</ele>
        <time>2019-07-08T21:39:29Z</time>
      </trkpt>
      <trkpt lat="45.01459" lon="7.11673">
        <ele>964</ele>
        <time>2019-07-08T21:39:33Z</time>
      </trkpt>
      <trkpt lat="45.01391" lon="7.11694">
        <ele>959</ele>
        <time>2019-07-08T21:39:45Z</time>
      </trkpt>
      <trkpt lat="45.01323" lon="7.11733">
        <ele>958</ele>
        <time>2019-07-08T21:39:58Z</time>
      </trkpt>
      <trkpt lat="45.01294" lon="7.11742">
        <ele>956</ele>
        <time>2019-07-08T21:40:03Z</time>
      </trkpt>
      <trkpt lat="45.01217" lon="7.1175">
        <ele>945</ele>
        <time>2019-07-08T21:40:17Z</time>
      </trkpt>
      <trkpt lat="45.01189" lon="7.11758">
        <ele>942</ele>
        <time>2019-07-08T21:40:22Z</time>
      </trkpt>
      <trkpt lat="45.01135" lon="7.11793">
        <ele>941</ele>
        <time>2019-07-08T21:40:33Z</time>
      </trkpt>
      <trkpt lat="45.0077" lon="7.12147">
        <ele>910</ele>
        <time>2019-07-08T21:41:52Z</time>
      </trkpt>
      <trkpt lat="45.00726" lon="7.12197">
        <ele>907</ele>
        <time>2019-07-08T21:42:02Z</time>
      </trkpt>
      <trkpt lat="45.00698" lon="7.12237">
        <ele>905</ele>
        <time>2019-07-08T21:42:09Z</time>
      </trkpt>
      <trkpt lat="45.00664" lon="7.12319">
        <ele>906</ele>
        <time>2019-07-08T21:42:21Z</time>
      </trkpt>
      <trkpt lat="45.00636" lon="7.12361">
        <ele>905</ele>
        <time>2019-07-08T21:42:28Z</time>
      </trkpt>
      <trkpt lat="45.00541" lon="7.12434">
        <ele>897</ele>
        <time>2019-07-08T21:42:47Z</time>
      </trkpt>
      <trkpt lat="45.0046" lon="7.12475">
        <ele>887</ele>
        <time>2019-07-08T21:43:02Z</time>
      </trkpt>
      <trkpt lat="45.00435" lon="7.12508">
        <ele>882</ele>
        <time>2019-07-08T21:43:09Z</time>
      </trkpt>
      <trkpt lat="45.00423" lon="7.12557">
        <ele>880</ele>
        <time>2019-07-08T21:43:15Z</time>
      </trkpt>
      <trkpt lat="45.00415" lon="7.12614">
        <ele>877</ele>
        <time>2019-07-08T21:43:22Z</time>
      </trkpt>
      <trkpt lat="45.0039" lon="7.12663">
        <ele>875</ele>
        <time>2019-07-08T21:43:30Z</time>
      </trkpt>
      <trkpt lat="45.00343" lon="7.12735">
        <ele>869</ele>
        <time>2019-07-08T21:43:42Z</time>
      </trkpt>
      <trkpt lat="45.00307" lon="7.12766">
        <ele>868</ele>
        <time>2019-07-08T21:43:50Z</time>
      </trkpt>
      <trkpt lat="45.00213" lon="7.12834">
        <ele>863</ele>
        <time>2019-07-08T21:44:09Z</time>
      </trkpt>
      <trkpt lat="45.00149" lon="7.12871">
        <ele>860</ele>
        <time>2019-07-08T21:44:21Z</time>
      </trkpt>
      <trkpt lat="45.0009" lon="7.1289">
        <ele>858</ele>
        <time>2019-07-08T21:44:32Z</time>
      </trkpt>
      <trkpt lat="45.00061" lon="7.12915">
        <ele>856</ele>
        <time>2019-07-08T21:44:38Z</time>
      </trkpt>
      <trkpt lat="45.00044" lon="7.1294">
        <ele>855</ele>
        <time>2019-07-08T21:44:42Z</time>
      </trkpt>
      <trkpt lat="44.99989" lon="7.13079">
        <ele>850</ele>
        <time>2019-07-08T21:45:02Z</time>
      </trkpt>
      <trkpt lat="44.99974" lon="7.13103">
        <ele>850</ele>
        <time>2019-07-08T21:45:06Z</time>
      </trkpt>
      <trkpt lat="44.99925" lon="7.1314">
        <ele>850</ele>
        <time>2019-07-08T21:45:16Z</time>
      </trkpt>
      <trkpt lat="44.99609" lon="7.13272">
        <ele>835</ele>
        <time>2019-07-08T21:46:15Z</time>
      </trkpt>
      <trkpt lat="44.99589" lon="7.13292">
        <ele>833</ele>
        <time>2019-07-08T21:46:19Z</time>
      </trkpt>
      <trkpt lat="44.9958" lon="7.13321">
        <ele>831</ele>
        <time>2019-07-08T21:46:23Z</time>
      </trkpt>
      <trkpt lat="44.99581" lon="7.13344">
        <ele>830</ele>
        <time>2019-07-08T21:46:26Z</time>
      </trkpt>
      <trkpt lat="44.99601" lon="7.1345">
        <ele>830</ele>
        <time>2019-07-08T21:46:40Z</time>
      </trkpt>
      <trkpt lat="44.99599" lon="7.13468">
        <ele>829</ele>
        <time>2019-07-08T21:46:42Z</time>
      </trkpt>
      <trkpt lat="44.99596" lon="7.13483">
        <ele>828</ele>
        <time>2019-07-08T21:46:44Z</time>
      </trkpt>
      <trkpt lat="44.99585" lon="7.13524">
        <ele>825</ele>
        <time>2019-07-08T21:46:49Z</time>
      </trkpt>
      <trkpt lat="44.9956" lon="7.13583">
        <ele>823</ele>
        <time>2019-07-08T21:46:58Z</time>
      </trkpt>
      <trkpt lat="44.9933" lon="7.13986">
        <ele>809</ele>
        <time>2019-07-08T21:48:03Z</time>
      </trkpt>
      <trkpt lat="44.99303" lon="7.14027">
        <ele>814</ele>
        <time>2019-07-08T21:48:10Z</time>
      </trkpt>
      <trkpt lat="44.99295" lon="7.14034">
        <ele>815</ele>
        <time>2019-07-08T21:48:12Z</time>
      </trkpt>
      <trkpt lat="44.99282" lon="7.14041">
        <ele>814</ele>
        <time>2019-07-08T21:48:14Z</time>
      </trkpt>
      <trkpt lat="44.99112" lon="7.14108">
        <ele>804</ele>
        <time>2019-07-08T21:48:46Z</time>
      </trkpt>
      <trkpt lat="44.9908" lon="7.14118">
        <ele>802</ele>
        <time>2019-07-08T21:48:52Z</time>
      </trkpt>
      <trkpt lat="44.98881" lon="7.14154">
        <ele>785</ele>
        <time>2019-07-08T21:49:27Z</time>
      </trkpt>
      <trkpt lat="44.98865" lon="7.14159">
        <ele>783</ele>
        <time>2019-07-08T21:49:30Z</time>
      </trkpt>
      <trkpt lat="44.98839" lon="7.14176">
        <ele>782</ele>
        <time>2019-07-08T21:49:35Z</time>
      </trkpt>
      <trkpt lat="44.98784" lon="7.14229">
        <ele>779</ele>
        <time>2019-07-08T21:49:47Z</time>
      </trkpt>
      <trkpt lat="44.98766" lon="7.14248">
        <ele>778</ele>
        <time>2019-07-08T21:49:51Z</time>
      </trkpt>
      <trkpt lat="44.9864" lon="7.14423">
        <ele>770</ele>
        <time>2019-07-08T21:50:23Z</time>
      </trkpt>
      <trkpt lat="44.98554" lon="7.14525">
        <ele>766</ele>
        <time>2019-07-08T21:50:43Z</time>
      </trkpt>
      <trkpt lat="44.98455" lon="7.14641">
        <ele>765</ele>
        <time>2019-07-08T21:51:06Z</time>
      </trkpt>
      <trkpt lat="44.98428" lon="7.14656">
        <ele>764</ele>
        <time>2019-07-08T21:51:11Z</time>
      </trkpt>
      <trkpt lat="44.98386" lon="7.14672">
        <ele>762</ele>
        <time>2019-07-08T21:51:18Z</time>
      </trkpt>
      <trkpt lat="44.98371" lon="7.14686">
        <ele>762</ele>
        <time>2019-07-08T21:51:22Z</time>
      </trkpt>
      <trkpt lat="44.98341" lon="7.14721">
        <ele>760</ele>
        <time>2019-07-08T21:51:29Z</time>
      </trkpt>
      <trkpt lat="44.98321" lon="7.1475">
        <ele>758</ele>
        <time>2019-07-08T21:51:34Z</time>
      </trkpt>
      <trkpt lat="44.98306" lon="7.14795">
        <ele>757</ele>
        <time>2019-07-08T21:51:40Z</time>
      </trkpt>
      <trkpt lat="44.98288" lon="7.1488">
        <ele>756</ele>
        <time>2019-07-08T21:51:51Z</time>
      </trkpt>
      <trkpt lat="44.98263" lon="7.15073">
        <ele>755</ele>
        <time>2019-07-08T21:52:16Z</time>
      </trkpt>
      <trkpt lat="44.98256" lon="7.15178">
        <ele>750</ele>
        <time>2019-07-08T21:52:29Z</time>
      </trkpt>
      <trkpt lat="44.98252" lon="7.15387">
        <ele>741</ele>
        <time>2019-07-08T21:52:55Z</time>
      </trkpt>
      <trkpt lat="44.98248" lon="7.15424">
        <ele>742</ele>
        <time>2019-07-08T21:53:00Z</time>
      </trkpt>
      <trkpt lat="44.98239" lon="7.15459">
        <ele>744</ele>
        <time>2019-07-08T21:53:05Z</time>
      </trkpt>
      <trkpt lat="44.98142" lon="7.15693">
        <ele>743</ele>
        <time>2019-07-08T21:53:39Z</time>
      </trkpt>
      <trkpt lat="44.98088" lon="7.15844">
        <ele>738</ele>
        <time>2019-07-08T21:54:00Z</time>
      </trkpt>
      <trkpt lat="44.98065" lon="7.15889">
        <ele>739</ele>
        <time>2019-07-08T21:54:07Z</time>
      </trkpt>
      <trkpt lat="44.97983" lon="7.16026">
        <ele>731</ele>
        <time>2019-07-08T21:54:30Z</time>
      </trkpt>
      <trkpt lat="44.97951" lon="7.16064">
        <ele>728</ele>
        <time>2019-07-08T21:54:37Z</time>
      </trkpt>
      <trkpt lat="44.97827" lon="7.16171">
        <ele>720</ele>
        <time>2019-07-08T21:55:03Z</time>
      </trkpt>
      <trkpt lat="44.97794" lon="7.16195">
        <ele>719</ele>
        <time>2019-07-08T21:55:10Z</time>
      </trkpt>
      <trkpt lat="44.97754" lon="7.16207">
        <ele>714</ele>
        <time>2019-07-08T21:55:17Z</time>
      </trkpt>
      <trkpt lat="44.97726" lon="7.16223">
        <ele>712</ele>
        <time>2019-07-08T21:55:22Z</time>
      </trkpt>
      <trkpt lat="44.97705" lon="7.16247">
        <ele>710</ele>
        <time>2019-07-08T21:55:27Z</time>
      </trkpt>
      <trkpt lat="44.97689" lon="7.16284">
        <ele>711</ele>
        <time>2019-07-08T21:55:33Z</time>
      </trkpt>
      <trkpt lat="44.97662" lon="7.16386">
        <ele>710</ele>
        <time>2019-07-08T21:55:46Z</time>
      </trkpt>
      <trkpt lat="44.9759" lon="7.16685">
        <ele>697</ele>
        <time>2019-07-08T21:56:26Z</time>
      </trkpt>
      <trkpt lat="44.97583" lon="7.16736">
        <ele>695</ele>
        <time>2019-07-08T21:56:33Z</time>
      </trkpt>
      <trkpt lat="44.97576" lon="7.1697">
        <ele>694</ele>
        <time>2019-07-08T21:57:02Z</time>
      </trkpt>
      <trkpt lat="44.97582" lon="7.17038">
        <ele>697</ele>
        <time>2019-07-08T21:57:11Z</time>
      </trkpt>
      <trkpt lat="44.9758" lon="7.17072">
        <ele>699</ele>
        <time>2019-07-08T21:57:15Z</time>
      </trkpt>
      <trkpt lat="44.97574" lon="7.17109">
        <ele>703</ele>
        <time>2019-07-08T21:57:20Z</time>
      </trkpt>
      <trkpt lat="44.97551" lon="7.17141">
        <ele>703</ele>
        <time>2019-07-08T21:57:25Z</time>
      </trkpt>
      <trkpt lat="44.97483" lon="7.17191">
        <ele>700</ele>
        <time>2019-07-08T21:57:39Z</time>
      </trkpt>
      <trkpt lat="44.97426" lon="7.17213">
        <ele>699</ele>
        <time>2019-07-08T21:57:50Z</time>
      </trkpt>
      <trkpt lat="44.97389" lon="7.17242">
        <ele>702</ele>
        <time>2019-07-08T21:57:57Z</time>
      </trkpt>
      <trkpt lat="44.97364" lon="7.17287">
        <ele>703</ele>
        <time>2019-07-08T21:58:04Z</time>
      </trkpt>
      <trkpt lat="44.97313" lon="7.17435">
        <ele>702</ele>
        <time>2019-07-08T21:58:25Z</time>
      </trkpt>
      <trkpt lat="44.97199" lon="7.17628">
        <ele>675</ele>
        <time>2019-07-08T21:58:57Z</time>
      </trkpt>
      <trkpt lat="44.97146" lon="7.17694">
        <ele>669</ele>
        <time>2019-07-08T21:59:09Z</time>
      </trkpt>
      <trkpt lat="44.97094" lon="7.1774">
        <ele>668</ele>
        <time>2019-07-08T21:59:20Z</time>
      </trkpt>
      <trkpt lat="44.97046" lon="7.17771">
        <ele>666</ele>
        <time>2019-07-08T21:59:30Z</time>
      </trkpt>
      <trkpt lat="44.96872" lon="7.1783">
        <ele>660</ele>
        <time>2019-07-08T22:00:01Z</time>
      </trkpt>
      <trkpt lat="44.96844" lon="7.17849">
        <ele>661</ele>
        <time>2019-07-08T22:00:07Z</time>
      </trkpt>
      <trkpt lat="44.96806" lon="7.17887">
        <ele>663</ele>
        <time>2019-07-08T22:00:15Z</time>
      </trkpt>
      <trkpt lat="44.96779" lon="7.17927">
        <ele>662</ele>
        <time>2019-07-08T22:00:22Z</time>
      </trkpt>
      <trkpt lat="44.96757" lon="7.17973">
        <ele>661</ele>
        <time>2019-07-08T22:00:29Z</time>
      </trkpt>
      <trkpt lat="44.96738" lon="7.18026">
        <ele>660</ele>
        <time>2019-07-08T22:00:37Z</time>
      </trkpt>
      <trkpt lat="44.96715" lon="7.18152">
        <ele>661</ele>
        <time>2019-07-08T22:00:53Z</time>
      </trkpt>
      <trkpt lat="44.96692" lon="7.1823">
        <ele>657</ele>
        <time>2019-07-08T22:01:04Z</time>
      </trkpt>
      <trkpt lat="44.96636" lon="7.18404">
        <ele>657</ele>
        <time>2019-07-08T22:01:28Z</time>
      </trkpt>
      <trkpt lat="44.96617" lon="7.18449">
        <ele>660</ele>
        <time>2019-07-08T22:01:34Z</time>
      </trkpt>
      <trkpt lat="44.96593" lon="7.18484">
        <ele>659</ele>
        <time>2019-07-08T22:01:40Z</time>
      </trkpt>
      <trkpt lat="44.96556" lon="7.18513">
        <ele>658</ele>
        <time>2019-07-08T22:01:48Z</time>
      </trkpt>
      <trkpt lat="44.96488" lon="7.18552">
        <ele>657</ele>
        <time>2019-07-08T22:02:01Z</time>
      </trkpt>
      <trkpt lat="44.96448" lon="7.18569">
        <ele>657</ele>
        <time>2019-07-08T22:02:08Z</time>
      </trkpt>
      <trkpt lat="44.96433" lon="7.18574">
        <ele>656</ele>
        <time>2019-07-08T22:02:11Z</time>
      </trkpt>
      <trkpt lat="44.96373" lon="7.18585">
        <ele>654</ele>
        <time>2019-07-08T22:02:22Z</time>
      </trkpt>
      <trkpt lat="44.96346" lon="7.18597">
        <ele>654</ele>
        <time>2019-07-08T22:02:27Z</time>
      </trkpt>
      <trkpt lat="44.96322" lon="7.18617">
        <ele>653</ele>
        <time>2019-07-08T22:02:32Z</time>
      </trkpt>
      <trkpt lat="44.96248" lon="7.18669">
        <ele>651</ele>
        <time>2019-07-08T22:02:47Z</time>
      </trkpt>
      <trkpt lat="44.96183" lon="7.18736">
        <ele>649</ele>
        <time>2019-07-08T22:03:01Z</time>
      </trkpt>
      <trkpt lat="44.96148" lon="7.18764">
        <ele>647</ele>
        <time>2019-07-08T22:03:08Z</time>
      </trkpt>
      <trkpt lat="44.96084" lon="7.18789">
        <ele>641</ele>
        <time>2019-07-08T22:03:20Z</time>
      </trkpt>
      <trkpt lat="44.96025" lon="7.18808">
        <ele>638</ele>
        <time>2019-07-08T22:03:31Z</time>
      </trkpt>
      <trkpt lat="44.9601" lon="7.18818">
        <ele>639</ele>
        <time>2019-07-08T22:03:34Z</time>
      </trkpt>
      <trkpt lat="44.95996" lon="7.18829">
        <ele>640</ele>
        <time>2019-07-08T22:03:37Z</time>
      </trkpt>
      <trkpt lat="44.95965" lon="7.18878">
        <ele>638</ele>
        <time>2019-07-08T22:03:45Z</time>
      </trkpt>
      <trkpt lat="44.95937" lon="7.18903">
        <ele>636</ele>
        <time>2019-07-08T22:03:51Z</time>
      </trkpt>
      <trkpt lat="44.95901" lon="7.18926">
        <ele>633</ele>
        <time>2019-07-08T22:03:58Z</time>
      </trkpt>
      <trkpt lat="44.95871" lon="7.1896">
        <ele>632</ele>
        <time>2019-07-08T22:04:05Z</time>
      </trkpt>
      <trkpt lat="44.95781" lon="7.19069">
        <ele>627</ele>
        <time>2019-07-08T22:04:26Z</time>
      </trkpt>
      <trkpt lat="44.95657" lon="7.19226">
        <ele>620</ele>
        <time>2019-07-08T22:04:55Z</time>
      </trkpt>
      <trkpt lat="44.95622" lon="7.19265">
        <ele>618</ele>
        <time>2019-07-08T22:05:03Z</time>
      </trkpt>
      <trkpt lat="44.95615" lon="7.19275">
        <ele>617</ele>
        <time>2019-07-08T22:05:05Z</time>
      </trkpt>
      <trkpt lat="44.95576" lon="7.19368">
        <ele>617</ele>
        <time>2019-07-08T22:05:19Z</time>
      </trkpt>
      <trkpt lat="44.95566" lon="7.19386">
        <ele>617</ele>
        <time>2019-07-08T22:05:21Z</time>
      </trkpt>
      <trkpt lat="44.95549" lon="7.19407">
        <ele>617</ele>
        <time>2019-07-08T22:05:26Z</time>
      </trkpt>
      <trkpt lat="44.95515" lon="7.19429">
        <ele>615</ele>
        <time>2019-07-08T22:05:32Z</time>
      </trkpt>
      <trkpt lat="44.9545" lon="7.1946">
        <ele>615</ele>
        <time>2019-07-08T22:05:44Z</time>
      </trkpt>
      <trkpt lat="44.9543" lon="7.19464">
        <ele>614</ele>
        <time>2019-07-08T22:05:48Z</time>
      </trkpt>
      <trkpt lat="44.95417" lon="7.19463">
        <ele>613</ele>
        <time>2019-07-08T22:05:50Z</time>
      </trkpt>
      <trkpt lat="44.95382" lon="7.19445">
        <ele>605</ele>
        <time>2019-07-08T22:05:57Z</time>
      </trkpt>
      <trkpt lat="44.95361" lon="7.19443">
        <ele>601</ele>
        <time>2019-07-08T22:06:01Z</time>
      </trkpt>
      <trkpt lat="44.95346" lon="7.19451">
        <ele>600</ele>
        <time>2019-07-08T22:06:03Z</time>
      </trkpt>
      <trkpt lat="44.95336" lon="7.1946">
        <ele>600</ele>
        <time>2019-07-08T22:06:06Z</time>
      </trkpt>
      <trkpt lat="44.9533" lon="7.19471">
        <ele>600</ele>
        <time>2019-07-08T22:06:07Z</time>
      </trkpt>
      <trkpt lat="44.95325" lon="7.19489">
        <ele>602</ele>
        <time>2019-07-08T22:06:10Z</time>
      </trkpt>
      <trkpt lat="44.95326" lon="7.19513">
        <ele>603</ele>
        <time>2019-07-08T22:06:13Z</time>
      </trkpt>
      <trkpt lat="44.95334" lon="7.19563">
        <ele>605</ele>
        <time>2019-07-08T22:06:19Z</time>
      </trkpt>
      <trkpt lat="44.95344" lon="7.19603">
        <ele>604</ele>
        <time>2019-07-08T22:06:25Z</time>
      </trkpt>
      <trkpt lat="44.95357" lon="7.19632">
        <ele>603</ele>
        <time>2019-07-08T22:06:29Z</time>
      </trkpt>
      <trkpt lat="44.95378" lon="7.19664">
        <ele>602</ele>
        <time>2019-07-08T22:06:34Z</time>
      </trkpt>
      <trkpt lat="44.95389" lon="7.19676">
        <ele>603</ele>
        <time>2019-07-08T22:06:37Z</time>
      </trkpt>
      <trkpt lat="44.954" lon="7.19687">
        <ele>603</ele>
        <time>2019-07-08T22:06:39Z</time>
      </trkpt>
      <trkpt lat="44.95447" lon="7.19721">
        <ele>604</ele>
        <time>2019-07-08T22:06:49Z</time>
      </trkpt>
      <trkpt lat="44.95468" lon="7.19741">
        <ele>602</ele>
        <time>2019-07-08T22:06:53Z</time>
      </trkpt>
      <trkpt lat="44.95493" lon="7.19785">
        <ele>600</ele>
        <time>2019-07-08T22:07:00Z</time>
      </trkpt>
      <trkpt lat="44.95511" lon="7.19833">
        <ele>599</ele>
        <time>2019-07-08T22:07:07Z</time>
      </trkpt>
      <trkpt lat="44.95517" lon="7.19861">
        <ele>599</ele>
        <time>2019-07-08T22:07:11Z</time>
      </trkpt>
      <trkpt lat="44.95521" lon="7.19891">
        <ele>599</ele>
        <time>2019-07-08T22:07:15Z</time>
      </trkpt>
      <trkpt lat="44.95541" lon="7.2015">
        <ele>598</ele>
        <time>2019-07-08T22:07:47Z</time>
      </trkpt>
      <trkpt lat="44.95536" lon="7.20195">
        <ele>596</ele>
        <time>2019-07-08T22:07:53Z</time>
      </trkpt>
      <trkpt lat="44.95529" lon="7.20205">
        <ele>595</ele>
        <time>2019-07-08T22:07:55Z</time>
      </trkpt>
      <trkpt lat="44.9552" lon="7.20209">
        <ele>594</ele>
        <time>2019-07-08T22:07:57Z</time>
      </trkpt>
      <trkpt lat="44.95511" lon="7.20205">
        <ele>593</ele>
        <time>2019-07-08T22:07:58Z</time>
      </trkpt>
      <trkpt lat="44.95507" lon="7.20207">
        <ele>593</ele>
        <time>2019-07-08T22:07:59Z</time>
      </trkpt>
      <trkpt lat="44.95501" lon="7.20214">
        <ele>592</ele>
        <time>2019-07-08T22:08:00Z</time>
      </trkpt>
      <trkpt lat="44.95499" lon="7.2022">
        <ele>591</ele>
        <time>2019-07-08T22:08:01Z</time>
      </trkpt>
      <trkpt lat="44.95499" lon="7.20229">
        <ele>591</ele>
        <time>2019-07-08T22:08:02Z</time>
      </trkpt>
      <trkpt lat="44.95504" lon="7.20239">
        <ele>591</ele>
        <time>2019-07-08T22:08:04Z</time>
      </trkpt>
      <trkpt lat="44.95508" lon="7.20241">
        <ele>591</ele>
        <time>2019-07-08T22:08:05Z</time>
      </trkpt>
      <trkpt lat="44.95528" lon="7.20241">
        <ele>594</ele>
        <time>2019-07-08T22:08:08Z</time>
      </trkpt>
      <trkpt lat="44.95538" lon="7.20244">
        <ele>595</ele>
        <time>2019-07-08T22:08:10Z</time>
      </trkpt>
      <trkpt lat="44.95544" lon="7.20248">
        <ele>595</ele>
        <time>2019-07-08T22:08:11Z</time>
      </trkpt>
      <trkpt lat="44.95547" lon="7.20254">
        <ele>596</ele>
        <time>2019-07-08T22:08:12Z</time>
      </trkpt>
      <trkpt lat="44.95549" lon="7.20264">
        <ele>596</ele>
        <time>2019-07-08T22:08:14Z</time>
      </trkpt>
      <trkpt lat="44.95538" lon="7.20468">
        <ele>597</ele>
        <time>2019-07-08T22:08:39Z</time>
      </trkpt>
      <trkpt lat="44.95534" lon="7.20501">
        <ele>597</ele>
        <time>2019-07-08T22:08:44Z</time>
      </trkpt>
      <trkpt lat="44.95527" lon="7.20525">
        <ele>597</ele>
        <time>2019-07-08T22:08:47Z</time>
      </trkpt>
      <trkpt lat="44.95516" lon="7.20549">
        <ele>596</ele>
        <time>2019-07-08T22:08:50Z</time>
      </trkpt>
      <trkpt lat="44.95507" lon="7.20562">
        <ele>594</ele>
        <time>2019-07-08T22:08:53Z</time>
      </trkpt>
      <trkpt lat="44.95468" lon="7.20603">
        <ele>592</ele>
        <time>2019-07-08T22:09:01Z</time>
      </trkpt>
      <trkpt lat="44.95444" lon="7.20643">
        <ele>590</ele>
        <time>2019-07-08T22:09:08Z</time>
      </trkpt>
      <trkpt lat="44.95408" lon="7.20723">
        <ele>590</ele>
        <time>2019-07-08T22:09:20Z</time>
      </trkpt>
      <trkpt lat="44.954" lon="7.20746">
        <ele>589</ele>
        <time>2019-07-08T22:09:23Z</time>
      </trkpt>
      <trkpt lat="44.95367" lon="7.20859">
        <ele>588</ele>
        <time>2019-07-08T22:09:38Z</time>
      </trkpt>
      <trkpt lat="44.95361" lon="7.20877">
        <ele>588</ele>
        <time>2019-07-08T22:09:41Z</time>
      </trkpt>
      <trkpt lat="44.95308" lon="7.20972">
        <ele>586</ele>
        <time>2019-07-08T22:09:56Z</time>
      </trkpt>
      <trkpt lat="44.95295" lon="7.21013">
        <ele>586</ele>
        <time>2019-07-08T22:10:02Z</time>
      </trkpt>
      <trkpt lat="44.95259" lon="7.21147">
        <ele>582</ele>
        <time>2019-07-08T22:10:20Z</time>
      </trkpt>
      <trkpt lat="44.9525" lon="7.21171">
        <ele>581</ele>
        <time>2019-07-08T22:10:23Z</time>
      </trkpt>
      <trkpt lat="44.95238" lon="7.21191">
        <ele>580</ele>
        <time>2019-07-08T22:10:27Z</time>
      </trkpt>
      <trkpt lat="44.95224" lon="7.21207">
        <ele>578</ele>
        <time>2019-07-08T22:10:30Z</time>
      </trkpt>
      <trkpt lat="44.95178" lon="7.21242">
        <ele>574</ele>
        <time>2019-07-08T22:10:39Z</time>
      </trkpt>
      <trkpt lat="44.9516" lon="7.21262">
        <ele>573</ele>
        <time>2019-07-08T22:10:43Z</time>
      </trkpt>
      <trkpt lat="44.95143" lon="7.21291">
        <ele>571</ele>
        <time>2019-07-08T22:10:48Z</time>
      </trkpt>
      <trkpt lat="44.95059" lon="7.21486">
        <ele>569</ele>
        <time>2019-07-08T22:11:17Z</time>
      </trkpt>
      <trkpt lat="44.95002" lon="7.21626">
        <ele>566</ele>
        <time>2019-07-08T22:11:37Z</time>
      </trkpt>
      <trkpt lat="44.94966" lon="7.21696">
        <ele>564</ele>
        <time>2019-07-08T22:11:48Z</time>
      </trkpt>
      <trkpt lat="44.94954" lon="7.21714">
        <ele>564</ele>
        <time>2019-07-08T22:11:51Z</time>
      </trkpt>
      <trkpt lat="44.9494" lon="7.21729">
        <ele>563</ele>
        <time>2019-07-08T22:11:54Z</time>
      </trkpt>
      <trkpt lat="44.94856" lon="7.2181">
        <ele>560</ele>
        <time>2019-07-08T22:12:12Z</time>
      </trkpt>
      <trkpt lat="44.94834" lon="7.21838">
        <ele>558</ele>
        <time>2019-07-08T22:12:18Z</time>
      </trkpt>
      <trkpt lat="44.94825" lon="7.21854">
        <ele>558</ele>
        <time>2019-07-08T22:12:20Z</time>
      </trkpt>
      <trkpt lat="44.94729" lon="7.22073">
        <ele>558</ele>
        <time>2019-07-08T22:12:53Z</time>
      </trkpt>
      <trkpt lat="44.94719" lon="7.22102">
        <ele>558</ele>
        <time>2019-07-08T22:12:57Z</time>
      </trkpt>
      <trkpt lat="44.94697" lon="7.22185">
        <ele>561</ele>
        <time>2019-07-08T22:13:08Z</time>
      </trkpt>
      <trkpt lat="44.9469" lon="7.22202">
        <ele>561</ele>
        <time>2019-07-08T22:13:10Z</time>
      </trkpt>
      <trkpt lat="44.9459" lon="7.22375">
        <ele>555</ele>
        <time>2019-07-08T22:13:38Z</time>
      </trkpt>
      <trkpt lat="44.94576" lon="7.22395">
        <ele>555</ele>
        <time>2019-07-08T22:13:42Z</time>
      </trkpt>
      <trkpt lat="44.94562" lon="7.22407">
        <ele>554</ele>
        <time>2019-07-08T22:13:45Z</time>
      </trkpt>
      <trkpt lat="44.94405" lon="7.22514">
        <ele>549</ele>
        <time>2019-07-08T22:14:16Z</time>
      </trkpt>
      <trkpt lat="44.94368" lon="7.22543">
        <ele>547</ele>
        <time>2019-07-08T22:14:23Z</time>
      </trkpt>
      <trkpt lat="44.94339" lon="7.22575">
        <ele>546</ele>
        <time>2019-07-08T22:14:30Z</time>
      </trkpt>
      <trkpt lat="44.94315" lon="7.22609">
        <ele>546</ele>
        <time>2019-07-08T22:14:36Z</time>
      </trkpt>
      <trkpt lat="44.94192" lon="7.22812">
        <ele>547</ele>
        <time>2019-07-08T22:15:10Z</time>
      </trkpt>
      <trkpt lat="44.94177" lon="7.22825">
        <ele>547</ele>
        <time>2019-07-08T22:15:13Z</time>
      </trkpt>
      <trkpt lat="44.94166" lon="7.2283">
        <ele>547</ele>
        <time>2019-07-08T22:15:15Z</time>
      </trkpt>
      <trkpt lat="44.94161" lon="7.22828">
        <ele>547</ele>
        <time>2019-07-08T22:15:16Z</time>
      </trkpt>
      <trkpt lat="44.94156" lon="7.2283">
        <ele>546</ele>
        <time>2019-07-08T22:15:17Z</time>
      </trkpt>
      <trkpt lat="44.94137" lon="7.22862">
        <ele>546</ele>
        <time>2019-07-08T22:15:22Z</time>
      </trkpt>
      <trkpt lat="44.94119" lon="7.22878">
        <ele>545</ele>
        <time>2019-07-08T22:15:26Z</time>
      </trkpt>
      <trkpt lat="44.94095" lon="7.22888">
        <ele>544</ele>
        <time>2019-07-08T22:15:30Z</time>
      </trkpt>
      <trkpt lat="44.93995" lon="7.22909">
        <ele>542</ele>
        <time>2019-07-08T22:15:48Z</time>
      </trkpt>
      <trkpt lat="44.93953" lon="7.22922">
        <ele>541</ele>
        <time>2019-07-08T22:15:56Z</time>
      </trkpt>
      <trkpt lat="44.93911" lon="7.22943">
        <ele>540</ele>
        <time>2019-07-08T22:16:04Z</time>
      </trkpt>
      <trkpt lat="44.93877" lon="7.22967">
        <ele>541</ele>
        <time>2019-07-08T22:16:10Z</time>
      </trkpt>
      <trkpt lat="44.93801" lon="7.23033">
        <ele>541</ele>
        <time>2019-07-08T22:16:26Z</time>
      </trkpt>
      <trkpt lat="44.93703" lon="7.23098">
        <ele>540</ele>
        <time>2019-07-08T22:16:46Z</time>
      </trkpt>
      <trkpt lat="44.93677" lon="7.23121">
        <ele>539</ele>
        <time>2019-07-08T22:16:51Z</time>
      </trkpt>
      <trkpt lat="44.93651" lon="7.23156">
        <ele>538</ele>
        <time>2019-07-08T22:16:57Z</time>
      </trkpt>
      <trkpt lat="44.9364" lon="7.23173">
        <ele>537</ele>
        <time>2019-07-08T22:17:00Z</time>
      </trkpt>
      <trkpt lat="44.93622" lon="7.23214">
        <ele>536</ele>
        <time>2019-07-08T22:17:06Z</time>
      </trkpt>
      <trkpt lat="44.93604" lon="7.23278">
        <ele>535</ele>
        <time>2019-07-08T22:17:15Z</time>
      </trkpt>
      <trkpt lat="44.9359" lon="7.23312">
        <ele>536</ele>
        <time>2019-07-08T22:17:20Z</time>
      </trkpt>
      <trkpt lat="44.93575" lon="7.23337">
        <ele>536</ele>
        <time>2019-07-08T22:17:24Z</time>
      </trkpt>
      <trkpt lat="44.93548" lon="7.23369">
        <ele>537</ele>
        <time>2019-07-08T22:17:30Z</time>
      </trkpt>
      <trkpt lat="44.93521" lon="7.23388">
        <ele>536</ele>
        <time>2019-07-08T22:17:36Z</time>
      </trkpt>
      <trkpt lat="44.93192" lon="7.23523">
        <ele>529</ele>
        <time>2019-07-08T22:18:37Z</time>
      </trkpt>
      <trkpt lat="44.93181" lon="7.23529">
        <ele>528</ele>
        <time>2019-07-08T22:18:39Z</time>
      </trkpt>
      <trkpt lat="44.93156" lon="7.23546">
        <ele>528</ele>
        <time>2019-07-08T22:18:44Z</time>
      </trkpt>
      <trkpt lat="44.93142" lon="7.23559">
        <ele>527</ele>
        <time>2019-07-08T22:18:47Z</time>
      </trkpt>
      <trkpt lat="44.93099" lon="7.23605">
        <ele>525</ele>
        <time>2019-07-08T22:18:56Z</time>
      </trkpt>
      <trkpt lat="44.92781" lon="7.23955">
        <ele>517</ele>
        <time>2019-07-08T22:20:08Z</time>
      </trkpt>
      <trkpt lat="44.9253" lon="7.24207">
        <ele>513</ele>
        <time>2019-07-08T22:21:03Z</time>
      </trkpt>
      <trkpt lat="44.92474" lon="7.24268">
        <ele>512</ele>
        <time>2019-07-08T22:21:16Z</time>
      </trkpt>
      <trkpt lat="44.92415" lon="7.24323">
        <ele>509</ele>
        <time>2019-07-08T22:21:28Z</time>
      </trkpt>
      <trkpt lat="44.92231" lon="7.2451">
        <ele>507</ele>
        <time>2019-07-08T22:22:08Z</time>
      </trkpt>
      <trkpt lat="44.92191" lon="7.24557">
        <ele>507</ele>
        <time>2019-07-08T22:22:18Z</time>
      </trkpt>
      <trkpt lat="44.92121" lon="7.24646">
        <ele>507</ele>
        <time>2019-07-08T22:22:34Z</time>
      </trkpt>
      <trkpt lat="44.9209" lon="7.24684">
        <ele>507</ele>
        <time>2019-07-08T22:22:42Z</time>
      </trkpt>
      <trkpt lat="44.92081" lon="7.24691">
        <ele>507</ele>
        <time>2019-07-08T22:22:44Z</time>
      </trkpt>
      <trkpt lat="44.92001" lon="7.24744">
        <ele>505</ele>
        <time>2019-07-08T22:22:59Z</time>
      </trkpt>
      <trkpt lat="44.91909" lon="7.24818">
        <ele>504</ele>
        <time>2019-07-08T22:23:18Z</time>
      </trkpt>
      <trkpt lat="44.9189" lon="7.24829">
        <ele>504</ele>
        <time>2019-07-08T22:23:22Z</time>
      </trkpt>
      <trkpt lat="44.91869" lon="7.2483">
        <ele>503</ele>
        <time>2019-07-08T22:23:26Z</time>
      </trkpt>
      <trkpt lat="44.91593" lon="7.24769">
        <ele>495</ele>
        <time>2019-07-08T22:24:15Z</time>
      </trkpt>
      <trkpt lat="44.91566" lon="7.24768">
        <ele>494</ele>
        <time>2019-07-08T22:24:20Z</time>
      </trkpt>
      <trkpt lat="44.91542" lon="7.24774">
        <ele>495</ele>
        <time>2019-07-08T22:24:24Z</time>
      </trkpt>
      <trkpt lat="44.91304" lon="7.24888">
        <ele>488</ele>
        <time>2019-07-08T22:25:09Z</time>
      </trkpt>
      <trkpt lat="44.91078" lon="7.25004">
        <ele>483</ele>
        <time>2019-07-08T22:25:52Z</time>
      </trkpt>
      <trkpt lat="44.91055" lon="7.25011">
        <ele>483</ele>
        <time>2019-07-08T22:25:56Z</time>
      </trkpt>
      <trkpt lat="44.91031" lon="7.25013">
        <ele>484</ele>
        <time>2019-07-08T22:26:00Z</time>
      </trkpt>
      <trkpt lat="44.91011" lon="7.2501">
        <ele>483</ele>
        <time>2019-07-08T22:26:04Z</time>
      </trkpt>
      <trkpt lat="44.9088" lon="7.24974">
        <ele>482</ele>
        <time>2019-07-08T22:26:28Z</time>
      </trkpt>
      <trkpt lat="44.90815" lon="7.24958">
        <ele>480</ele>
        <time>2019-07-08T22:26:39Z</time>
      </trkpt>
      <trkpt lat="44.90604" lon="7.24934">
        <ele>475</ele>
        <time>2019-07-08T22:27:17Z</time>
      </trkpt>
      <trkpt lat="44.90593" lon="7.24929">
        <ele>475</ele>
        <time>2019-07-08T22:27:19Z</time>
      </trkpt>
      <trkpt lat="44.90587" lon="7.24921">
        <ele>475</ele>
        <time>2019-07-08T22:27:21Z</time>
      </trkpt>
      <trkpt lat="44.90579" lon="7.24898">
        <ele>474</ele>
        <time>2019-07-08T22:27:24Z</time>
      </trkpt>
      <trkpt lat="44.90578" lon="7.24885">
        <ele>474</ele>
        <time>2019-07-08T22:27:25Z</time>
      </trkpt>
      <trkpt lat="44.90572" lon="7.24877">
        <ele>473</ele>
        <time>2019-07-08T22:27:27Z</time>
      </trkpt>
      <trkpt lat="44.90562" lon="7.24877">
        <ele>473</ele>
        <time>2019-07-08T22:27:29Z</time>
      </trkpt>
      <trkpt lat="44.90558" lon="7.24879">
        <ele>473</ele>
        <time>2019-07-08T22:27:29Z</time>
      </trkpt>
      <trkpt lat="44.90554" lon="7.24886">
        <ele>474</ele>
        <time>2019-07-08T22:27:31Z</time>
      </trkpt>
      <trkpt lat="44.90536" lon="7.24895">
        <ele>474</ele>
        <time>2019-07-08T22:27:34Z</time>
      </trkpt>
      <trkpt lat="44.9049" lon="7.24896">
        <ele>473</ele>
        <time>2019-07-08T22:27:42Z</time>
      </trkpt>
      <trkpt lat="44.90406" lon="7.24905">
        <ele>473</ele>
        <time>2019-07-08T22:27:57Z</time>
      </trkpt>
      <trkpt lat="44.90376" lon="7.24906">
        <ele>474</ele>
        <time>2019-07-08T22:28:03Z</time>
      </trkpt>
      <trkpt lat="44.9017" lon="7.24886">
        <ele>476</ele>
        <time>2019-07-08T22:28:39Z</time>
      </trkpt>
      <trkpt lat="44.90134" lon="7.24877">
        <ele>481</ele>
        <time>2019-07-08T22:28:46Z</time>
      </trkpt>
      <trkpt lat="44.90116" lon="7.24868">
        <ele>481</ele>
        <time>2019-07-08T22:28:49Z</time>
      </trkpt>
      <trkpt lat="44.89987" lon="7.24771">
        <ele>482</ele>
        <time>2019-07-08T22:29:15Z</time>
      </trkpt>
      <trkpt lat="44.8994" lon="7.24721">
        <ele>482</ele>
        <time>2019-07-08T22:29:26Z</time>
      </trkpt>
      <trkpt lat="44.89815" lon="7.2457">
        <ele>471</ele>
        <time>2019-07-08T22:29:55Z</time>
      </trkpt>
      <trkpt lat="44.89805" lon="7.24563">
        <ele>472</ele>
        <time>2019-07-08T22:29:57Z</time>
      </trkpt>
      <trkpt lat="44.89786" lon="7.24552">
        <ele>473</ele>
        <time>2019-07-08T22:30:01Z</time>
      </trkpt>
      <trkpt lat="44.89669" lon="7.24499">
        <ele>475</ele>
        <time>2019-07-08T22:30:22Z</time>
      </trkpt>
      <trkpt lat="44.89669" lon="7.24493">
        <ele>474</ele>
        <time>2019-07-08T22:30:23Z</time>
      </trkpt>
      <trkpt lat="44.89666" lon="7.24482">
        <ele>473</ele>
        <time>2019-07-08T22:30:25Z</time>
      </trkpt>
      <trkpt lat="44.89661" lon="7.24479">
        <ele>473</ele>
        <time>2019-07-08T22:30:26Z</time>
      </trkpt>
      <trkpt lat="44.89657" lon="7.24478">
        <ele>473</ele>
        <time>2019-07-08T22:30:26Z</time>
      </trkpt>
      <trkpt lat="44.8965" lon="7.24484">
        <ele>475</ele>
        <time>2019-07-08T22:30:28Z</time>
      </trkpt>
      <trkpt lat="44.89647" lon="7.24489">
        <ele>477</ele>
        <time>2019-07-08T22:30:29Z</time>
      </trkpt>
      <trkpt lat="44.89632" lon="7.24481">
        <ele>477</ele>
        <time>2019-07-08T22:30:32Z</time>
      </trkpt>
      <trkpt lat="44.89607" lon="7.24473">
        <ele>477</ele>
        <time>2019-07-08T22:30:36Z</time>
      </trkpt>
      <trkpt lat="44.89573" lon="7.24464">
        <ele>478</ele>
        <time>2019-07-08T22:30:42Z</time>
      </trkpt>
      <trkpt lat="44.89324" lon="7.24419">
        <ele>461</ele>
        <time>2019-07-08T22:31:27Z</time>
      </trkpt>
      <trkpt lat="44.89293" lon="7.24419">
        <ele>459</ele>
        <time>2019-07-08T22:31:32Z</time>
      </trkpt>
      <trkpt lat="44.8922" lon="7.24428">
        <ele>455</ele>
        <time>2019-07-08T22:31:45Z</time>
      </trkpt>
      <trkpt lat="44.89215" lon="7.24424">
        <ele>455</ele>
        <time>2019-07-08T22:31:46Z</time>
      </trkpt>
      <trkpt lat="44.89205" lon="7.24422">
        <ele>455</ele>
        <time>2019-07-08T22:31:48Z</time>
      </trkpt>
      <trkpt lat="44.89194" lon="7.24426">
        <ele>455</ele>
        <time>2019-07-08T22:31:50Z</time>
      </trkpt>
      <trkpt lat="44.89186" lon="7.24436">
        <ele>455</ele>
        <time>2019-07-08T22:31:52Z</time>
      </trkpt>
      <trkpt lat="44.89182" lon="7.24451">
        <ele>455</ele>
        <time>2019-07-08T22:31:54Z</time>
      </trkpt>
      <trkpt lat="44.89182" lon="7.24461">
        <ele>455</ele>
        <time>2019-07-08T22:31:55Z</time>
      </trkpt>
      <trkpt lat="44.89189" lon="7.24483">
        <ele>457</ele>
        <time>2019-07-08T22:31:59Z</time>
      </trkpt>
      <trkpt lat="44.89189" lon="7.24499">
        <ele>457</ele>
        <time>2019-07-08T22:32:01Z</time>
      </trkpt>
      <trkpt lat="44.89185" lon="7.24508">
        <ele>457</ele>
        <time>2019-07-08T22:32:02Z</time>
      </trkpt>
      <trkpt lat="44.89171" lon="7.24526">
        <ele>455</ele>
        <time>2019-07-08T22:32:05Z</time>
      </trkpt>
      <trkpt lat="44.89147" lon="7.24565">
        <ele>453</ele>
        <time>2019-07-08T22:32:12Z</time>
      </trkpt>
      <trkpt lat="44.89125" lon="7.24607">
        <ele>453</ele>
        <time>2019-07-08T22:32:18Z</time>
      </trkpt>
      <trkpt lat="44.89093" lon="7.24677">
        <ele>453</ele>
        <time>2019-07-08T22:32:29Z</time>
      </trkpt>
      <trkpt lat="44.89072" lon="7.24734">
        <ele>451</ele>
        <time>2019-07-08T22:32:37Z</time>
      </trkpt>
      <trkpt lat="44.89064" lon="7.24762">
        <ele>451</ele>
        <time>2019-07-08T22:32:41Z</time>
      </trkpt>
      <trkpt lat="44.8906" lon="7.24785">
        <ele>451</ele>
        <time>2019-07-08T22:32:44Z</time>
      </trkpt>
      <trkpt lat="44.89057" lon="7.24824">
        <ele>450</ele>
        <time>2019-07-08T22:32:49Z</time>
      </trkpt>
      <trkpt lat="44.89056" lon="7.24865">
        <ele>450</ele>
        <time>2019-07-08T22:32:54Z</time>
      </trkpt>
      <trkpt lat="44.89061" lon="7.24915">
        <ele>450</ele>
        <time>2019-07-08T22:33:00Z</time>
      </trkpt>
      <trkpt lat="44.89082" lon="7.25092">
        <ele>454</ele>
        <time>2019-07-08T22:33:23Z</time>
      </trkpt>
      <trkpt lat="44.89096" lon="7.25231">
        <ele>457</ele>
        <time>2019-07-08T22:33:41Z</time>
      </trkpt>
      <trkpt lat="44.89101" lon="7.25291">
        <ele>457</ele>
        <time>2019-07-08T22:33:48Z</time>
      </trkpt>
      <trkpt lat="44.8911" lon="7.25492">
        <ele>456</ele>
        <time>2019-07-08T22:34:14Z</time>
      </trkpt>
      <trkpt lat="44.89109" lon="7.25525">
        <ele>456</ele>
        <time>2019-07-08T22:34:18Z</time>
      </trkpt>
      <trkpt lat="44.89096" lon="7.25628">
        <ele>451</ele>
        <time>2019-07-08T22:34:31Z</time>
      </trkpt>
      <trkpt lat="44.89061" lon="7.2589">
        <ele>444</ele>
        <time>2019-07-08T22:35:04Z</time>
      </trkpt>
      <trkpt lat="44.89053" lon="7.25922">
        <ele>444</ele>
        <time>2019-07-08T22:35:09Z</time>
      </trkpt>
      <trkpt lat="44.88949" lon="7.26154">
        <ele>445</ele>
        <time>2019-07-08T22:35:43Z</time>
      </trkpt>
      <trkpt lat="44.88857" lon="7.26353">
        <ele>442</ele>
        <time>2019-07-08T22:36:13Z</time>
      </trkpt>
      <trkpt lat="44.88804" lon="7.26452">
        <ele>438</ele>
        <time>2019-07-08T22:36:29Z</time>
      </trkpt>
      <trkpt lat="44.88717" lon="7.26697">
        <ele>432</ele>
        <time>2019-07-08T22:37:04Z</time>
      </trkpt>
      <trkpt lat="44.88713" lon="7.26714">
        <ele>432</ele>
        <time>2019-07-08T22:37:06Z</time>
      </trkpt>
      <trkpt lat="44.88706" lon="7.26765">
        <ele>433</ele>
        <time>2019-07-08T22:37:12Z</time>
      </trkpt>
      <trkpt lat="44.88673" lon="7.27052">
        <ele>428</ele>
        <time>2019-07-08T22:37:49Z</time>
      </trkpt>
      <trkpt lat="44.88659" lon="7.27165">
        <ele>425</ele>
        <time>2019-07-08T22:38:03Z</time>
      </trkpt>
      <trkpt lat="44.88659" lon="7.27202">
        <ele>426</ele>
        <time>2019-07-08T22:38:08Z</time>
      </trkpt>
      <trkpt lat="44.88682" lon="7.2744">
        <ele>424</ele>
        <time>2019-07-08T22:38:38Z</time>
      </trkpt>
      <trkpt lat="44.88684" lon="7.27477">
        <ele>424</ele>
        <time>2019-07-08T22:38:43Z</time>
      </trkpt>
      <trkpt lat="44.88683" lon="7.275">
        <ele>423</ele>
        <time>2019-07-08T22:38:46Z</time>
      </trkpt>
      <trkpt lat="44.88656" lon="7.27685">
        <ele>420</ele>
        <time>2019-07-08T22:39:10Z</time>
      </trkpt>
      <trkpt lat="44.88608" lon="7.28002">
        <ele>414</ele>
        <time>2019-07-08T22:39:51Z</time>
      </trkpt>
      <trkpt lat="44.88594" lon="7.28069">
        <ele>412</ele>
        <time>2019-07-08T22:39:59Z</time>
      </trkpt>
      <trkpt lat="44.88556" lon="7.28217">
        <ele>412</ele>
        <time>2019-07-08T22:40:19Z</time>
      </trkpt>
      <trkpt lat="44.88549" lon="7.28251">
        <ele>412</ele>
        <time>2019-07-08T22:40:24Z</time>
      </trkpt>
      <trkpt lat="44.88547" lon="7.28268">
        <ele>412</ele>
        <time>2019-07-08T22:40:26Z</time>
      </trkpt>
      <trkpt lat="44.8853" lon="7.28545">
        <ele>406</ele>
        <time>2019-07-08T22:41:01Z</time>
      </trkpt>
      <trkpt lat="44.88529" lon="7.28629">
        <ele>408</ele>
        <time>2019-07-08T22:41:12Z</time>
      </trkpt>
      <trkpt lat="44.88534" lon="7.28684">
        <ele>409</ele>
        <time>2019-07-08T22:41:19Z</time>
      </trkpt>
      <trkpt lat="44.88545" lon="7.28774">
        <ele>411</ele>
        <time>2019-07-08T22:41:30Z</time>
      </trkpt>
      <trkpt lat="44.88547" lon="7.28797">
        <ele>411</ele>
        <time>2019-07-08T22:41:33Z</time>
      </trkpt>
      <trkpt lat="44.88547" lon="7.28825">
        <ele>410</ele>
        <time>2019-07-08T22:41:37Z</time>
      </trkpt>
      <trkpt lat="44.88524" lon="7.29209">
        <ele>407</ele>
        <time>2019-07-08T22:42:25Z</time>
      </trkpt>
      <trkpt lat="44.88525" lon="7.29245">
        <ele>407</ele>
        <time>2019-07-08T22:42:30Z</time>
      </trkpt>
      <trkpt lat="44.88529" lon="7.29284">
        <ele>407</ele>
        <time>2019-07-08T22:42:35Z</time>
      </trkpt>
      <trkpt lat="44.88554" lon="7.29412">
        <ele>408</ele>
        <time>2019-07-08T22:42:51Z</time>
      </trkpt>
      <trkpt lat="44.88561" lon="7.29462">
        <ele>407</ele>
        <time>2019-07-08T22:42:58Z</time>
      </trkpt>
      <trkpt lat="44.88565" lon="7.29552">
        <ele>406</ele>
        <time>2019-07-08T22:43:09Z</time>
      </trkpt>
      <trkpt lat="44.88552" lon="7.29605">
        <ele>406</ele>
        <time>2019-07-08T22:43:16Z</time>
      </trkpt>
      <trkpt lat="44.88549" lon="7.29608">
        <ele>406</ele>
        <time>2019-07-08T22:43:17Z</time>
      </trkpt>
      <trkpt lat="44.88546" lon="7.29619">
        <ele>406</ele>
        <time>2019-07-08T22:43:18Z</time>
      </trkpt>
      <trkpt lat="44.88517" lon="7.29677">
        <ele>405</ele>
        <time>2019-07-08T22:43:27Z</time>
      </trkpt>
      <trkpt lat="44.8847" lon="7.29763">
        <ele>403</ele>
        <time>2019-07-08T22:43:41Z</time>
      </trkpt>
      <trkpt lat="44.88458" lon="7.29797">
        <ele>404</ele>
        <time>2019-07-08T22:43:46Z</time>
      </trkpt>
      <trkpt lat="44.88457" lon="7.29845">
        <ele>404</ele>
        <time>2019-07-08T22:43:52Z</time>
      </trkpt>
      <trkpt lat="44.88447" lon="7.30011">
        <ele>403</ele>
        <time>2019-07-08T22:44:13Z</time>
      </trkpt>
      <trkpt lat="44.8844" lon="7.30092">
        <ele>401</ele>
        <time>2019-07-08T22:44:23Z</time>
      </trkpt>
      <trkpt lat="44.88418" lon="7.30262">
        <ele>398</ele>
        <time>2019-07-08T22:44:45Z</time>
      </trkpt>
      <trkpt lat="44.88414" lon="7.30304">
        <ele>397</ele>
        <time>2019-07-08T22:44:50Z</time>
      </trkpt>
      <trkpt lat="44.88411" lon="7.30397">
        <ele>396</ele>
        <time>2019-07-08T22:45:02Z</time>
      </trkpt>
      <trkpt lat="44.88409" lon="7.30428">
        <ele>396</ele>
        <time>2019-07-08T22:45:06Z</time>
      </trkpt>
      <trkpt lat="44.8841" lon="7.30563">
        <ele>396</ele>
        <time>2019-07-08T22:45:23Z</time>
      </trkpt>
      <trkpt lat="44.88404" lon="7.30588">
        <ele>396</ele>
        <time>2019-07-08T22:45:26Z</time>
      </trkpt>
      <trkpt lat="44.88401" lon="7.30592">
        <ele>396</ele>
        <time>2019-07-08T22:45:27Z</time>
      </trkpt>
      <trkpt lat="44.88398" lon="7.30601">
        <ele>396</ele>
        <time>2019-07-08T22:45:28Z</time>
      </trkpt>
      <trkpt lat="44.884" lon="7.30611">
        <ele>396</ele>
        <time>2019-07-08T22:45:30Z</time>
      </trkpt>
      <trkpt lat="44.88404" lon="7.30617">
        <ele>396</ele>
        <time>2019-07-08T22:45:31Z</time>
      </trkpt>
      <trkpt lat="44.88411" lon="7.30618">
        <ele>396</ele>
        <time>2019-07-08T22:45:32Z</time>
      </trkpt>
      <trkpt lat="44.88417" lon="7.3063">
        <ele>396</ele>
        <time>2019-07-08T22:45:34Z</time>
      </trkpt>
      <trkpt lat="44.88421" lon="7.30645">
        <ele>396</ele>
        <time>2019-07-08T22:45:36Z</time>
      </trkpt>
      <trkpt lat="44.88432" lon="7.3089">
        <ele>392</ele>
        <time>2019-07-08T22:46:07Z</time>
      </trkpt>
      <trkpt lat="44.88441" lon="7.30937">
        <ele>392</ele>
        <time>2019-07-08T22:46:13Z</time>
      </trkpt>
      <trkpt lat="44.88446" lon="7.30957">
        <ele>392</ele>
        <time>2019-07-08T22:46:15Z</time>
      </trkpt>
      <trkpt lat="44.88464" lon="7.31007">
        <ele>392</ele>
        <time>2019-07-08T22:46:23Z</time>
      </trkpt>
      <trkpt lat="44.88528" lon="7.3114">
        <ele>391</ele>
        <time>2019-07-08T22:46:43Z</time>
      </trkpt>
      <trkpt lat="44.88542" lon="7.31164">
        <ele>391</ele>
        <time>2019-07-08T22:46:47Z</time>
      </trkpt>
      <trkpt lat="44.88559" lon="7.31184">
        <ele>391</ele>
        <time>2019-07-08T22:46:51Z</time>
      </trkpt>
      <trkpt lat="44.88559" lon="7.31191">
        <ele>391</ele>
        <time>2019-07-08T22:46:52Z</time>
      </trkpt>
      <trkpt lat="44.88562" lon="7.31197">
        <ele>391</ele>
        <time>2019-07-08T22:46:52Z</time>
      </trkpt>
      <trkpt lat="44.88565" lon="7.31201">
        <ele>391</ele>
        <time>2019-07-08T22:46:53Z</time>
      </trkpt>
      <trkpt lat="44.88571" lon="7.31228">
        <ele>390</ele>
        <time>2019-07-08T22:46:57Z</time>
      </trkpt>
      <trkpt lat="44.88565" lon="7.31394">
        <ele>389</ele>
        <time>2019-07-08T22:47:18Z</time>
      </trkpt>
      <trkpt lat="44.8856" lon="7.3171">
        <ele>386</ele>
        <time>2019-07-08T22:47:58Z</time>
      </trkpt>
      <trkpt lat="44.8854" lon="7.32406">
        <ele>384</ele>
        <time>2019-07-08T22:49:25Z</time>
      </trkpt>
      <trkpt lat="44.88538" lon="7.32433">
        <ele>384</ele>
        <time>2019-07-08T22:49:29Z</time>
      </trkpt>
      <trkpt lat="44.88514" lon="7.32608">
        <ele>383</ele>
        <time>2019-07-08T22:49:51Z</time>
      </trkpt>
      <trkpt lat="44.88455" lon="7.33022">
        <ele>378</ele>
        <time>2019-07-08T22:50:45Z</time>
      </trkpt>
      <trkpt lat="44.88454" lon="7.33054">
        <ele>377</ele>
        <time>2019-07-08T22:50:49Z</time>
      </trkpt>
      <trkpt lat="44.88463" lon="7.33093">
        <ele>378</ele>
        <time>2019-07-08T22:50:54Z</time>
      </trkpt>
      <trkpt lat="44.88484" lon="7.33167">
        <ele>379</ele>
        <time>2019-07-08T22:51:04Z</time>
      </trkpt>
    </trkseg>
  </trk>
</gpx>